<?xml version="1.0" encoding="UTF-8" standalone="no" ?>
<gpx xmlns="http://www.topografix.com/GPX/1/1" xmlns:xsi="http://www.w3.org/2001/XMLSchema-instance" xsi:schemaLocation="http://www.topografix.com/GPX/1/1 http://www.topografix.com/GPX/1/1/gpx.xsd" version="1.1" creator="VisuGPX - https://www.visugpx.com">
  <metadata>
    <name>Vosges - Pyrénées partie 3. GR 430 + GR 420</name>
    <desc><![CDATA[Trace AlpineQuest 24/04/2026 07:24:15]]></desc>
  </metadata>
  <trk>
    <name><![CDATA[visugpx_1QPWJJCyyq_1]]></name>
    <extensions>
      <line xmlns="http://www.topografix.com/GPX/gpx_style/0/2">
        <color>0000FF</color>
        <opacity>1</opacity>
        <width>4</width>
      </line>
    </extensions>
    <trkseg>
      <trkpt lat="45.14236" lon="4.43575">
        <ele>1118.5</ele>
        <time>2026-04-24T05:24:14Z</time>
      </trkpt>
      <trkpt lat="45.14236" lon="4.43577">
        <ele>1118.4</ele>
        <time>2026-04-24T05:24:15Z</time>
      </trkpt>
      <trkpt lat="45.14236" lon="4.43577">
        <ele>1118.4</ele>
        <time>2026-04-24T05:24:20Z</time>
      </trkpt>
      <trkpt lat="45.14236" lon="4.43577">
        <ele>1118.4</ele>
        <time>2026-04-24T05:24:26Z</time>
      </trkpt>
      <trkpt lat="45.14236" lon="4.43577">
        <ele>1118.4</ele>
        <time>2026-04-24T05:24:31Z</time>
      </trkpt>
      <trkpt lat="45.1423" lon="4.43578">
        <ele>1118.4</ele>
        <time>2026-04-24T05:24:36Z</time>
      </trkpt>
      <trkpt lat="45.14229" lon="4.43575">
        <ele>1118.6</ele>
        <time>2026-04-24T05:24:41Z</time>
      </trkpt>
      <trkpt lat="45.14225" lon="4.4357">
        <ele>1119</ele>
        <time>2026-04-24T05:24:46Z</time>
      </trkpt>
      <trkpt lat="45.14221" lon="4.43567">
        <ele>1119.3</ele>
        <time>2026-04-24T05:24:51Z</time>
      </trkpt>
      <trkpt lat="45.14218" lon="4.43564">
        <ele>1119.6</ele>
        <time>2026-04-24T05:24:56Z</time>
      </trkpt>
      <trkpt lat="45.14213" lon="4.4356">
        <ele>1120</ele>
        <time>2026-04-24T05:25:01Z</time>
      </trkpt>
      <trkpt lat="45.14207" lon="4.43556">
        <ele>1120.5</ele>
        <time>2026-04-24T05:25:06Z</time>
      </trkpt>
      <trkpt lat="45.14201" lon="4.43553">
        <ele>1121</ele>
        <time>2026-04-24T05:25:11Z</time>
      </trkpt>
      <trkpt lat="45.14202" lon="4.43544">
        <ele>1121.8</ele>
        <time>2026-04-24T05:25:16Z</time>
      </trkpt>
      <trkpt lat="45.14202" lon="4.43537">
        <ele>1122.5</ele>
        <time>2026-04-24T05:25:21Z</time>
      </trkpt>
      <trkpt lat="45.14201" lon="4.4353">
        <ele>1123.2</ele>
        <time>2026-04-24T05:25:26Z</time>
      </trkpt>
      <trkpt lat="45.14197" lon="4.43529">
        <ele>1123.5</ele>
        <time>2026-04-24T05:25:31Z</time>
      </trkpt>
      <trkpt lat="45.14192" lon="4.43533">
        <ele>1123.4</ele>
        <time>2026-04-24T05:25:36Z</time>
      </trkpt>
      <trkpt lat="45.14186" lon="4.43535">
        <ele>1123.4</ele>
        <time>2026-04-24T05:25:41Z</time>
      </trkpt>
      <trkpt lat="45.1418" lon="4.43535">
        <ele>1123.7</ele>
        <time>2026-04-24T05:25:46Z</time>
      </trkpt>
      <trkpt lat="45.14176" lon="4.4354">
        <ele>1123.3</ele>
        <time>2026-04-24T05:25:51Z</time>
      </trkpt>
      <trkpt lat="45.14174" lon="4.43544">
        <ele>1122.9</ele>
        <time>2026-04-24T05:25:56Z</time>
      </trkpt>
      <trkpt lat="45.14173" lon="4.43544">
        <ele>1122.9</ele>
        <time>2026-04-24T05:26:01Z</time>
      </trkpt>
      <trkpt lat="45.14173" lon="4.43545">
        <ele>1122.8</ele>
        <time>2026-04-24T05:26:06Z</time>
      </trkpt>
      <trkpt lat="45.14173" lon="4.43545">
        <ele>1122.8</ele>
        <time>2026-04-24T05:26:11Z</time>
      </trkpt>
      <trkpt lat="45.14175" lon="4.43532">
        <ele>1124.3</ele>
        <time>2026-04-24T05:26:16Z</time>
      </trkpt>
      <trkpt lat="45.14173" lon="4.43526">
        <ele>1125.2</ele>
        <time>2026-04-24T05:26:21Z</time>
      </trkpt>
      <trkpt lat="45.14168" lon="4.43522">
        <ele>1126</ele>
        <time>2026-04-24T05:26:26Z</time>
      </trkpt>
      <trkpt lat="45.14167" lon="4.4352">
        <ele>1126.3</ele>
        <time>2026-04-24T05:26:31Z</time>
      </trkpt>
      <trkpt lat="45.14167" lon="4.4352">
        <ele>1126.3</ele>
        <time>2026-04-24T05:26:36Z</time>
      </trkpt>
      <trkpt lat="45.14167" lon="4.4352">
        <ele>1126.3</ele>
        <time>2026-04-24T05:26:41Z</time>
      </trkpt>
      <trkpt lat="45.14167" lon="4.4352">
        <ele>1126.3</ele>
        <time>2026-04-24T05:26:46Z</time>
      </trkpt>
      <trkpt lat="45.14155" lon="4.4351">
        <ele>1128</ele>
        <time>2026-04-24T05:26:51Z</time>
      </trkpt>
      <trkpt lat="45.14152" lon="4.43505">
        <ele>1128.8</ele>
        <time>2026-04-24T05:26:56Z</time>
      </trkpt>
      <trkpt lat="45.14147" lon="4.43504">
        <ele>1129.1</ele>
        <time>2026-04-24T05:27:01Z</time>
      </trkpt>
      <trkpt lat="45.14142" lon="4.435">
        <ele>1129.9</ele>
        <time>2026-04-24T05:27:06Z</time>
      </trkpt>
      <trkpt lat="45.14137" lon="4.43495">
        <ele>1130.4</ele>
        <time>2026-04-24T05:27:11Z</time>
      </trkpt>
      <trkpt lat="45.1413" lon="4.43491">
        <ele>1130.8</ele>
        <time>2026-04-24T05:27:16Z</time>
      </trkpt>
      <trkpt lat="45.14124" lon="4.43487">
        <ele>1131.3</ele>
        <time>2026-04-24T05:27:21Z</time>
      </trkpt>
      <trkpt lat="45.14121" lon="4.43482">
        <ele>1131.7</ele>
        <time>2026-04-24T05:27:26Z</time>
      </trkpt>
      <trkpt lat="45.14115" lon="4.43478">
        <ele>1132.2</ele>
        <time>2026-04-24T05:27:31Z</time>
      </trkpt>
      <trkpt lat="45.14111" lon="4.4347">
        <ele>1132.9</ele>
        <time>2026-04-24T05:27:36Z</time>
      </trkpt>
      <trkpt lat="45.14107" lon="4.43464">
        <ele>1133.5</ele>
        <time>2026-04-24T05:27:41Z</time>
      </trkpt>
      <trkpt lat="45.14102" lon="4.43461">
        <ele>1133.9</ele>
        <time>2026-04-24T05:27:46Z</time>
      </trkpt>
      <trkpt lat="45.14097" lon="4.43454">
        <ele>1134.6</ele>
        <time>2026-04-24T05:27:51Z</time>
      </trkpt>
      <trkpt lat="45.14092" lon="4.43452">
        <ele>1135</ele>
        <time>2026-04-24T05:27:56Z</time>
      </trkpt>
      <trkpt lat="45.14088" lon="4.43446">
        <ele>1135.6</ele>
        <time>2026-04-24T05:28:01Z</time>
      </trkpt>
      <trkpt lat="45.14083" lon="4.43441">
        <ele>1136.3</ele>
        <time>2026-04-24T05:28:06Z</time>
      </trkpt>
      <trkpt lat="45.14081" lon="4.43437">
        <ele>1136.6</ele>
        <time>2026-04-24T05:28:11Z</time>
      </trkpt>
      <trkpt lat="45.14083" lon="4.43439">
        <ele>1136.4</ele>
        <time>2026-04-24T05:28:16Z</time>
      </trkpt>
      <trkpt lat="45.14087" lon="4.43444">
        <ele>1135.8</ele>
        <time>2026-04-24T05:28:21Z</time>
      </trkpt>
      <trkpt lat="45.14092" lon="4.43449">
        <ele>1135.2</ele>
        <time>2026-04-24T05:28:26Z</time>
      </trkpt>
      <trkpt lat="45.14097" lon="4.43455">
        <ele>1134.6</ele>
        <time>2026-04-24T05:28:31Z</time>
      </trkpt>
      <trkpt lat="45.14102" lon="4.4346">
        <ele>1134</ele>
        <time>2026-04-24T05:28:36Z</time>
      </trkpt>
      <trkpt lat="45.14108" lon="4.43466">
        <ele>1133.3</ele>
        <time>2026-04-24T05:28:41Z</time>
      </trkpt>
      <trkpt lat="45.14112" lon="4.43471">
        <ele>1132.8</ele>
        <time>2026-04-24T05:28:46Z</time>
      </trkpt>
      <trkpt lat="45.14117" lon="4.43479">
        <ele>1132.1</ele>
        <time>2026-04-24T05:28:51Z</time>
      </trkpt>
      <trkpt lat="45.14123" lon="4.43483">
        <ele>1131.6</ele>
        <time>2026-04-24T05:28:56Z</time>
      </trkpt>
      <trkpt lat="45.14129" lon="4.43486">
        <ele>1131.2</ele>
        <time>2026-04-24T05:29:01Z</time>
      </trkpt>
      <trkpt lat="45.14137" lon="4.43492">
        <ele>1130.5</ele>
        <time>2026-04-24T05:29:06Z</time>
      </trkpt>
      <trkpt lat="45.14143" lon="4.43495">
        <ele>1130.1</ele>
        <time>2026-04-24T05:29:11Z</time>
      </trkpt>
      <trkpt lat="45.1415" lon="4.43501">
        <ele>1129.5</ele>
        <time>2026-04-24T05:29:16Z</time>
      </trkpt>
      <trkpt lat="45.14157" lon="4.43507">
        <ele>1128.4</ele>
        <time>2026-04-24T05:29:21Z</time>
      </trkpt>
      <trkpt lat="45.14162" lon="4.43515">
        <ele>1127.2</ele>
        <time>2026-04-24T05:29:26Z</time>
      </trkpt>
      <trkpt lat="45.14168" lon="4.43519">
        <ele>1126.4</ele>
        <time>2026-04-24T05:29:31Z</time>
      </trkpt>
      <trkpt lat="45.14174" lon="4.43522">
        <ele>1125.6</ele>
        <time>2026-04-24T05:29:36Z</time>
      </trkpt>
      <trkpt lat="45.14182" lon="4.43527">
        <ele>1124.6</ele>
        <time>2026-04-24T05:29:41Z</time>
      </trkpt>
      <trkpt lat="45.14187" lon="4.43533">
        <ele>1123.6</ele>
        <time>2026-04-24T05:29:46Z</time>
      </trkpt>
      <trkpt lat="45.14193" lon="4.43539">
        <ele>1122.7</ele>
        <time>2026-04-24T05:29:51Z</time>
      </trkpt>
      <trkpt lat="45.14199" lon="4.43545">
        <ele>1121.8</ele>
        <time>2026-04-24T05:29:56Z</time>
      </trkpt>
      <trkpt lat="45.14206" lon="4.43549">
        <ele>1121.2</ele>
        <time>2026-04-24T05:30:01Z</time>
      </trkpt>
      <trkpt lat="45.14212" lon="4.43553">
        <ele>1120.6</ele>
        <time>2026-04-24T05:30:06Z</time>
      </trkpt>
      <trkpt lat="45.14217" lon="4.43559">
        <ele>1120</ele>
        <time>2026-04-24T05:30:11Z</time>
      </trkpt>
      <trkpt lat="45.14221" lon="4.43564">
        <ele>1119.5</ele>
        <time>2026-04-24T05:30:16Z</time>
      </trkpt>
      <trkpt lat="45.14226" lon="4.43573">
        <ele>1118.7</ele>
        <time>2026-04-24T05:30:21Z</time>
      </trkpt>
      <trkpt lat="45.1423" lon="4.43579">
        <ele>1118.3</ele>
        <time>2026-04-24T05:30:26Z</time>
      </trkpt>
      <trkpt lat="45.14235" lon="4.43587">
        <ele>1117.5</ele>
        <time>2026-04-24T05:30:31Z</time>
      </trkpt>
      <trkpt lat="45.14239" lon="4.43593">
        <ele>1116.7</ele>
        <time>2026-04-24T05:30:36Z</time>
      </trkpt>
      <trkpt lat="45.14242" lon="4.43598">
        <ele>1116</ele>
        <time>2026-04-24T05:30:41Z</time>
      </trkpt>
      <trkpt lat="45.14249" lon="4.43597">
        <ele>1116</ele>
        <time>2026-04-24T05:30:46Z</time>
      </trkpt>
      <trkpt lat="45.14255" lon="4.436">
        <ele>1115.6</ele>
        <time>2026-04-24T05:30:51Z</time>
      </trkpt>
      <trkpt lat="45.1426" lon="4.43607">
        <ele>1114.7</ele>
        <time>2026-04-24T05:30:56Z</time>
      </trkpt>
      <trkpt lat="45.14264" lon="4.43613">
        <ele>1113.9</ele>
        <time>2026-04-24T05:31:01Z</time>
      </trkpt>
      <trkpt lat="45.14265" lon="4.43613">
        <ele>1113.9</ele>
        <time>2026-04-24T05:31:06Z</time>
      </trkpt>
      <trkpt lat="45.14267" lon="4.4362">
        <ele>1113.1</ele>
        <time>2026-04-24T05:31:11Z</time>
      </trkpt>
      <trkpt lat="45.14272" lon="4.4363">
        <ele>1112.1</ele>
        <time>2026-04-24T05:31:16Z</time>
      </trkpt>
      <trkpt lat="45.14274" lon="4.43639">
        <ele>1111.1</ele>
        <time>2026-04-24T05:31:21Z</time>
      </trkpt>
      <trkpt lat="45.14278" lon="4.43645">
        <ele>1110.7</ele>
        <time>2026-04-24T05:31:26Z</time>
      </trkpt>
      <trkpt lat="45.14283" lon="4.43648">
        <ele>1110.7</ele>
        <time>2026-04-24T05:31:31Z</time>
      </trkpt>
      <trkpt lat="45.14284" lon="4.43649">
        <ele>1110.6</ele>
        <time>2026-04-24T05:31:36Z</time>
      </trkpt>
      <trkpt lat="45.14289" lon="4.43651">
        <ele>1110.7</ele>
        <time>2026-04-24T05:31:41Z</time>
      </trkpt>
      <trkpt lat="45.14296" lon="4.43654">
        <ele>1110.9</ele>
        <time>2026-04-24T05:31:46Z</time>
      </trkpt>
      <trkpt lat="45.14304" lon="4.43656">
        <ele>1111.3</ele>
        <time>2026-04-24T05:31:51Z</time>
      </trkpt>
      <trkpt lat="45.14312" lon="4.43661">
        <ele>1111.6</ele>
        <time>2026-04-24T05:31:56Z</time>
      </trkpt>
      <trkpt lat="45.14318" lon="4.43664">
        <ele>1111.9</ele>
        <time>2026-04-24T05:32:01Z</time>
      </trkpt>
      <trkpt lat="45.14324" lon="4.43665">
        <ele>1112.3</ele>
        <time>2026-04-24T05:32:06Z</time>
      </trkpt>
      <trkpt lat="45.14331" lon="4.43665">
        <ele>1112.9</ele>
        <time>2026-04-24T05:32:11Z</time>
      </trkpt>
      <trkpt lat="45.14334" lon="4.43666">
        <ele>1113</ele>
        <time>2026-04-24T05:32:16Z</time>
      </trkpt>
      <trkpt lat="45.14334" lon="4.43665">
        <ele>1113.1</ele>
        <time>2026-04-24T05:32:21Z</time>
      </trkpt>
      <trkpt lat="45.14334" lon="4.43665">
        <ele>1113.1</ele>
        <time>2026-04-24T05:32:26Z</time>
      </trkpt>
      <trkpt lat="45.14334" lon="4.43665">
        <ele>1113.1</ele>
        <time>2026-04-24T05:32:31Z</time>
      </trkpt>
      <trkpt lat="45.14334" lon="4.43665">
        <ele>1113.1</ele>
        <time>2026-04-24T05:32:36Z</time>
      </trkpt>
      <trkpt lat="45.14334" lon="4.43665">
        <ele>1113.1</ele>
        <time>2026-04-24T05:32:41Z</time>
      </trkpt>
      <trkpt lat="45.14334" lon="4.43665">
        <ele>1113.1</ele>
        <time>2026-04-24T05:32:46Z</time>
      </trkpt>
      <trkpt lat="45.14334" lon="4.43665">
        <ele>1113.1</ele>
        <time>2026-04-24T05:32:51Z</time>
      </trkpt>
      <trkpt lat="45.14334" lon="4.43665">
        <ele>1113.1</ele>
        <time>2026-04-24T05:32:56Z</time>
      </trkpt>
      <trkpt lat="45.14334" lon="4.43665">
        <ele>1113.1</ele>
        <time>2026-04-24T05:33:01Z</time>
      </trkpt>
      <trkpt lat="45.14341" lon="4.43667">
        <ele>1113.1</ele>
        <time>2026-04-24T05:33:06Z</time>
      </trkpt>
      <trkpt lat="45.14348" lon="4.43669">
        <ele>1112.9</ele>
        <time>2026-04-24T05:33:11Z</time>
      </trkpt>
      <trkpt lat="45.14356" lon="4.43669">
        <ele>1113</ele>
        <time>2026-04-24T05:33:16Z</time>
      </trkpt>
      <trkpt lat="45.14363" lon="4.4367">
        <ele>1113</ele>
        <time>2026-04-24T05:33:21Z</time>
      </trkpt>
      <trkpt lat="45.1437" lon="4.43671">
        <ele>1113.1</ele>
        <time>2026-04-24T05:33:26Z</time>
      </trkpt>
      <trkpt lat="45.14378" lon="4.43674">
        <ele>1113</ele>
        <time>2026-04-24T05:33:31Z</time>
      </trkpt>
      <trkpt lat="45.14384" lon="4.43676">
        <ele>1113</ele>
        <time>2026-04-24T05:33:36Z</time>
      </trkpt>
      <trkpt lat="45.1439" lon="4.43679">
        <ele>1113</ele>
        <time>2026-04-24T05:33:41Z</time>
      </trkpt>
      <trkpt lat="45.14397" lon="4.43683">
        <ele>1113</ele>
        <time>2026-04-24T05:33:46Z</time>
      </trkpt>
      <trkpt lat="45.144" lon="4.43684">
        <ele>1113</ele>
        <time>2026-04-24T05:33:51Z</time>
      </trkpt>
      <trkpt lat="45.14404" lon="4.43682">
        <ele>1113.2</ele>
        <time>2026-04-24T05:33:56Z</time>
      </trkpt>
      <trkpt lat="45.1441" lon="4.43681">
        <ele>1113.5</ele>
        <time>2026-04-24T05:34:01Z</time>
      </trkpt>
      <trkpt lat="45.14411" lon="4.4368">
        <ele>1113.5</ele>
        <time>2026-04-24T05:34:06Z</time>
      </trkpt>
      <trkpt lat="45.14411" lon="4.4368">
        <ele>1113.5</ele>
        <time>2026-04-24T05:34:11Z</time>
      </trkpt>
      <trkpt lat="45.14417" lon="4.43679">
        <ele>1113.7</ele>
        <time>2026-04-24T05:34:16Z</time>
      </trkpt>
      <trkpt lat="45.14423" lon="4.43678">
        <ele>1113.3</ele>
        <time>2026-04-24T05:34:21Z</time>
      </trkpt>
      <trkpt lat="45.14428" lon="4.43677">
        <ele>1113</ele>
        <time>2026-04-24T05:34:26Z</time>
      </trkpt>
      <trkpt lat="45.14431" lon="4.43677">
        <ele>1112.8</ele>
        <time>2026-04-24T05:34:31Z</time>
      </trkpt>
      <trkpt lat="45.14432" lon="4.43678">
        <ele>1112.7</ele>
        <time>2026-04-24T05:34:36Z</time>
      </trkpt>
      <trkpt lat="45.14432" lon="4.43678">
        <ele>1112.7</ele>
        <time>2026-04-24T05:34:41Z</time>
      </trkpt>
      <trkpt lat="45.14432" lon="4.43678">
        <ele>1112.7</ele>
        <time>2026-04-24T05:34:46Z</time>
      </trkpt>
      <trkpt lat="45.14432" lon="4.43678">
        <ele>1112.7</ele>
        <time>2026-04-24T05:34:51Z</time>
      </trkpt>
      <trkpt lat="45.14438" lon="4.43676">
        <ele>1112.4</ele>
        <time>2026-04-24T05:34:56Z</time>
      </trkpt>
      <trkpt lat="45.14438" lon="4.43676">
        <ele>1112.4</ele>
        <time>2026-04-24T05:35:01Z</time>
      </trkpt>
      <trkpt lat="45.14438" lon="4.43676">
        <ele>1112.4</ele>
        <time>2026-04-24T05:35:06Z</time>
      </trkpt>
      <trkpt lat="45.14438" lon="4.43676">
        <ele>1112.4</ele>
        <time>2026-04-24T05:35:11Z</time>
      </trkpt>
      <trkpt lat="45.14438" lon="4.43676">
        <ele>1112.4</ele>
        <time>2026-04-24T05:35:16Z</time>
      </trkpt>
      <trkpt lat="45.14438" lon="4.43676">
        <ele>1112.4</ele>
        <time>2026-04-24T05:35:21Z</time>
      </trkpt>
      <trkpt lat="45.14438" lon="4.43676">
        <ele>1112.4</ele>
        <time>2026-04-24T05:35:26Z</time>
      </trkpt>
      <trkpt lat="45.14438" lon="4.43676">
        <ele>1112.4</ele>
        <time>2026-04-24T05:35:31Z</time>
      </trkpt>
      <trkpt lat="45.14438" lon="4.43676">
        <ele>1112.4</ele>
        <time>2026-04-24T05:35:36Z</time>
      </trkpt>
      <trkpt lat="45.14438" lon="4.43676">
        <ele>1112.4</ele>
        <time>2026-04-24T05:35:41Z</time>
      </trkpt>
      <trkpt lat="45.14438" lon="4.43676">
        <ele>1112.4</ele>
        <time>2026-04-24T05:35:46Z</time>
      </trkpt>
      <trkpt lat="45.14438" lon="4.43676">
        <ele>1112.4</ele>
        <time>2026-04-24T05:35:51Z</time>
      </trkpt>
      <trkpt lat="45.14438" lon="4.43676">
        <ele>1112.4</ele>
        <time>2026-04-24T05:35:56Z</time>
      </trkpt>
      <trkpt lat="45.14438" lon="4.43676">
        <ele>1112.4</ele>
        <time>2026-04-24T05:36:01Z</time>
      </trkpt>
      <trkpt lat="45.14438" lon="4.43676">
        <ele>1112.4</ele>
        <time>2026-04-24T05:36:06Z</time>
      </trkpt>
      <trkpt lat="45.14438" lon="4.43676">
        <ele>1112.4</ele>
        <time>2026-04-24T05:36:11Z</time>
      </trkpt>
      <trkpt lat="45.14438" lon="4.43676">
        <ele>1112.4</ele>
        <time>2026-04-24T05:36:16Z</time>
      </trkpt>
      <trkpt lat="45.14438" lon="4.43676">
        <ele>1112.4</ele>
        <time>2026-04-24T05:36:21Z</time>
      </trkpt>
      <trkpt lat="45.14438" lon="4.43676">
        <ele>1112.4</ele>
        <time>2026-04-24T05:36:26Z</time>
      </trkpt>
      <trkpt lat="45.14438" lon="4.43676">
        <ele>1112.4</ele>
        <time>2026-04-24T05:36:31Z</time>
      </trkpt>
      <trkpt lat="45.14438" lon="4.43676">
        <ele>1112.4</ele>
        <time>2026-04-24T05:36:36Z</time>
      </trkpt>
      <trkpt lat="45.14438" lon="4.43676">
        <ele>1112.4</ele>
        <time>2026-04-24T05:36:41Z</time>
      </trkpt>
      <trkpt lat="45.14438" lon="4.43676">
        <ele>1112.4</ele>
        <time>2026-04-24T05:36:46Z</time>
      </trkpt>
      <trkpt lat="45.14438" lon="4.43676">
        <ele>1112.4</ele>
        <time>2026-04-24T05:36:51Z</time>
      </trkpt>
      <trkpt lat="45.14438" lon="4.43676">
        <ele>1112.4</ele>
        <time>2026-04-24T05:36:56Z</time>
      </trkpt>
      <trkpt lat="45.14438" lon="4.43676">
        <ele>1112.4</ele>
        <time>2026-04-24T05:37:01Z</time>
      </trkpt>
      <trkpt lat="45.14438" lon="4.43676">
        <ele>1112.4</ele>
        <time>2026-04-24T05:37:06Z</time>
      </trkpt>
      <trkpt lat="45.14438" lon="4.43676">
        <ele>1112.4</ele>
        <time>2026-04-24T05:37:11Z</time>
      </trkpt>
      <trkpt lat="45.14438" lon="4.43676">
        <ele>1112.4</ele>
        <time>2026-04-24T05:37:16Z</time>
      </trkpt>
      <trkpt lat="45.14438" lon="4.43676">
        <ele>1112.4</ele>
        <time>2026-04-24T05:37:21Z</time>
      </trkpt>
      <trkpt lat="45.14438" lon="4.43676">
        <ele>1112.4</ele>
        <time>2026-04-24T05:37:26Z</time>
      </trkpt>
      <trkpt lat="45.14438" lon="4.43676">
        <ele>1112.4</ele>
        <time>2026-04-24T05:37:31Z</time>
      </trkpt>
      <trkpt lat="45.14438" lon="4.43676">
        <ele>1112.4</ele>
        <time>2026-04-24T05:37:36Z</time>
      </trkpt>
      <trkpt lat="45.14438" lon="4.43676">
        <ele>1112.4</ele>
        <time>2026-04-24T05:37:41Z</time>
      </trkpt>
      <trkpt lat="45.14438" lon="4.43676">
        <ele>1112.4</ele>
        <time>2026-04-24T05:37:46Z</time>
      </trkpt>
      <trkpt lat="45.14438" lon="4.43676">
        <ele>1112.4</ele>
        <time>2026-04-24T05:37:51Z</time>
      </trkpt>
      <trkpt lat="45.14438" lon="4.43676">
        <ele>1112.4</ele>
        <time>2026-04-24T05:37:56Z</time>
      </trkpt>
      <trkpt lat="45.14438" lon="4.43676">
        <ele>1112.4</ele>
        <time>2026-04-24T05:38:01Z</time>
      </trkpt>
      <trkpt lat="45.14438" lon="4.43676">
        <ele>1112.4</ele>
        <time>2026-04-24T05:38:06Z</time>
      </trkpt>
      <trkpt lat="45.14438" lon="4.43676">
        <ele>1112.4</ele>
        <time>2026-04-24T05:38:11Z</time>
      </trkpt>
      <trkpt lat="45.14438" lon="4.43676">
        <ele>1112.4</ele>
        <time>2026-04-24T05:38:16Z</time>
      </trkpt>
      <trkpt lat="45.14438" lon="4.43676">
        <ele>1112.4</ele>
        <time>2026-04-24T05:38:21Z</time>
      </trkpt>
      <trkpt lat="45.14438" lon="4.43676">
        <ele>1112.4</ele>
        <time>2026-04-24T05:38:26Z</time>
      </trkpt>
      <trkpt lat="45.14438" lon="4.43676">
        <ele>1112.4</ele>
        <time>2026-04-24T05:38:31Z</time>
      </trkpt>
      <trkpt lat="45.14438" lon="4.43676">
        <ele>1112.4</ele>
        <time>2026-04-24T05:38:36Z</time>
      </trkpt>
      <trkpt lat="45.14438" lon="4.43676">
        <ele>1112.4</ele>
        <time>2026-04-24T05:38:41Z</time>
      </trkpt>
      <trkpt lat="45.14438" lon="4.43676">
        <ele>1112.4</ele>
        <time>2026-04-24T05:38:46Z</time>
      </trkpt>
      <trkpt lat="45.14438" lon="4.43676">
        <ele>1112.4</ele>
        <time>2026-04-24T05:38:51Z</time>
      </trkpt>
      <trkpt lat="45.14438" lon="4.43676">
        <ele>1112.4</ele>
        <time>2026-04-24T05:38:56Z</time>
      </trkpt>
      <trkpt lat="45.14438" lon="4.43676">
        <ele>1112.4</ele>
        <time>2026-04-24T05:39:01Z</time>
      </trkpt>
      <trkpt lat="45.14438" lon="4.43676">
        <ele>1112.4</ele>
        <time>2026-04-24T05:39:06Z</time>
      </trkpt>
      <trkpt lat="45.14438" lon="4.43676">
        <ele>1112.4</ele>
        <time>2026-04-24T05:39:11Z</time>
      </trkpt>
      <trkpt lat="45.14438" lon="4.43676">
        <ele>1112.4</ele>
        <time>2026-04-24T05:39:16Z</time>
      </trkpt>
      <trkpt lat="45.14438" lon="4.43676">
        <ele>1112.4</ele>
        <time>2026-04-24T05:39:21Z</time>
      </trkpt>
      <trkpt lat="45.14438" lon="4.43676">
        <ele>1112.4</ele>
        <time>2026-04-24T05:39:26Z</time>
      </trkpt>
      <trkpt lat="45.14438" lon="4.43676">
        <ele>1112.4</ele>
        <time>2026-04-24T05:39:31Z</time>
      </trkpt>
      <trkpt lat="45.14438" lon="4.43676">
        <ele>1112.4</ele>
        <time>2026-04-24T05:39:36Z</time>
      </trkpt>
      <trkpt lat="45.14438" lon="4.43676">
        <ele>1112.4</ele>
        <time>2026-04-24T05:39:41Z</time>
      </trkpt>
      <trkpt lat="45.14438" lon="4.43676">
        <ele>1112.4</ele>
        <time>2026-04-24T05:39:46Z</time>
      </trkpt>
      <trkpt lat="45.14438" lon="4.43676">
        <ele>1112.4</ele>
        <time>2026-04-24T05:39:51Z</time>
      </trkpt>
      <trkpt lat="45.14438" lon="4.43676">
        <ele>1112.4</ele>
        <time>2026-04-24T05:39:56Z</time>
      </trkpt>
      <trkpt lat="45.14438" lon="4.43676">
        <ele>1112.4</ele>
        <time>2026-04-24T05:40:01Z</time>
      </trkpt>
      <trkpt lat="45.14438" lon="4.43676">
        <ele>1112.4</ele>
        <time>2026-04-24T05:40:06Z</time>
      </trkpt>
      <trkpt lat="45.14438" lon="4.43676">
        <ele>1112.4</ele>
        <time>2026-04-24T05:40:11Z</time>
      </trkpt>
      <trkpt lat="45.14438" lon="4.43676">
        <ele>1112.4</ele>
        <time>2026-04-24T05:40:16Z</time>
      </trkpt>
      <trkpt lat="45.14438" lon="4.43676">
        <ele>1112.4</ele>
        <time>2026-04-24T05:40:21Z</time>
      </trkpt>
      <trkpt lat="45.14438" lon="4.43676">
        <ele>1112.4</ele>
        <time>2026-04-24T05:40:26Z</time>
      </trkpt>
      <trkpt lat="45.14438" lon="4.43676">
        <ele>1112.4</ele>
        <time>2026-04-24T05:40:31Z</time>
      </trkpt>
      <trkpt lat="45.14438" lon="4.43676">
        <ele>1112.4</ele>
        <time>2026-04-24T05:40:36Z</time>
      </trkpt>
      <trkpt lat="45.14438" lon="4.43676">
        <ele>1112.4</ele>
        <time>2026-04-24T05:40:41Z</time>
      </trkpt>
      <trkpt lat="45.14438" lon="4.43676">
        <ele>1112.4</ele>
        <time>2026-04-24T05:40:46Z</time>
      </trkpt>
      <trkpt lat="45.14438" lon="4.43676">
        <ele>1112.4</ele>
        <time>2026-04-24T05:40:51Z</time>
      </trkpt>
      <trkpt lat="45.14438" lon="4.43676">
        <ele>1112.4</ele>
        <time>2026-04-24T05:40:56Z</time>
      </trkpt>
      <trkpt lat="45.14438" lon="4.43676">
        <ele>1112.4</ele>
        <time>2026-04-24T05:41:01Z</time>
      </trkpt>
      <trkpt lat="45.14438" lon="4.43676">
        <ele>1112.4</ele>
        <time>2026-04-24T05:41:06Z</time>
      </trkpt>
      <trkpt lat="45.14438" lon="4.43676">
        <ele>1112.4</ele>
        <time>2026-04-24T05:41:11Z</time>
      </trkpt>
      <trkpt lat="45.14438" lon="4.43676">
        <ele>1112.4</ele>
        <time>2026-04-24T05:41:16Z</time>
      </trkpt>
      <trkpt lat="45.14438" lon="4.43676">
        <ele>1112.4</ele>
        <time>2026-04-24T05:41:21Z</time>
      </trkpt>
      <trkpt lat="45.14438" lon="4.43676">
        <ele>1112.4</ele>
        <time>2026-04-24T05:41:26Z</time>
      </trkpt>
      <trkpt lat="45.14438" lon="4.43676">
        <ele>1112.4</ele>
        <time>2026-04-24T05:41:31Z</time>
      </trkpt>
      <trkpt lat="45.14438" lon="4.43676">
        <ele>1112.4</ele>
        <time>2026-04-24T05:41:36Z</time>
      </trkpt>
      <trkpt lat="45.14438" lon="4.43676">
        <ele>1112.4</ele>
        <time>2026-04-24T05:41:41Z</time>
      </trkpt>
      <trkpt lat="45.14438" lon="4.43676">
        <ele>1112.4</ele>
        <time>2026-04-24T05:41:46Z</time>
      </trkpt>
      <trkpt lat="45.14438" lon="4.43676">
        <ele>1112.4</ele>
        <time>2026-04-24T05:41:51Z</time>
      </trkpt>
      <trkpt lat="45.14438" lon="4.43676">
        <ele>1112.4</ele>
        <time>2026-04-24T05:41:56Z</time>
      </trkpt>
      <trkpt lat="45.14438" lon="4.43676">
        <ele>1112.4</ele>
        <time>2026-04-24T05:42:01Z</time>
      </trkpt>
      <trkpt lat="45.14438" lon="4.43676">
        <ele>1112.4</ele>
        <time>2026-04-24T05:42:06Z</time>
      </trkpt>
      <trkpt lat="45.14438" lon="4.43676">
        <ele>1112.4</ele>
        <time>2026-04-24T05:42:11Z</time>
      </trkpt>
      <trkpt lat="45.14438" lon="4.43676">
        <ele>1112.4</ele>
        <time>2026-04-24T05:42:16Z</time>
      </trkpt>
      <trkpt lat="45.14438" lon="4.43676">
        <ele>1112.4</ele>
        <time>2026-04-24T05:42:21Z</time>
      </trkpt>
      <trkpt lat="45.14438" lon="4.43676">
        <ele>1112.4</ele>
        <time>2026-04-24T05:42:26Z</time>
      </trkpt>
      <trkpt lat="45.14438" lon="4.43676">
        <ele>1112.4</ele>
        <time>2026-04-24T05:42:31Z</time>
      </trkpt>
      <trkpt lat="45.14438" lon="4.43676">
        <ele>1112.4</ele>
        <time>2026-04-24T05:42:36Z</time>
      </trkpt>
      <trkpt lat="45.14438" lon="4.43676">
        <ele>1112.4</ele>
        <time>2026-04-24T05:42:41Z</time>
      </trkpt>
      <trkpt lat="45.14438" lon="4.43676">
        <ele>1112.4</ele>
        <time>2026-04-24T05:42:46Z</time>
      </trkpt>
      <trkpt lat="45.14438" lon="4.43676">
        <ele>1112.4</ele>
        <time>2026-04-24T05:42:51Z</time>
      </trkpt>
      <trkpt lat="45.14438" lon="4.43676">
        <ele>1112.4</ele>
        <time>2026-04-24T05:42:56Z</time>
      </trkpt>
      <trkpt lat="45.14438" lon="4.43676">
        <ele>1112.4</ele>
        <time>2026-04-24T05:43:01Z</time>
      </trkpt>
      <trkpt lat="45.14438" lon="4.43676">
        <ele>1112.4</ele>
        <time>2026-04-24T05:43:06Z</time>
      </trkpt>
      <trkpt lat="45.14438" lon="4.43676">
        <ele>1112.4</ele>
        <time>2026-04-24T05:43:11Z</time>
      </trkpt>
      <trkpt lat="45.14438" lon="4.43676">
        <ele>1112.4</ele>
        <time>2026-04-24T05:43:16Z</time>
      </trkpt>
      <trkpt lat="45.14438" lon="4.43676">
        <ele>1112.4</ele>
        <time>2026-04-24T05:43:21Z</time>
      </trkpt>
      <trkpt lat="45.14438" lon="4.43676">
        <ele>1112.4</ele>
        <time>2026-04-24T05:43:26Z</time>
      </trkpt>
      <trkpt lat="45.14438" lon="4.43676">
        <ele>1112.4</ele>
        <time>2026-04-24T05:43:31Z</time>
      </trkpt>
      <trkpt lat="45.14438" lon="4.43676">
        <ele>1112.4</ele>
        <time>2026-04-24T05:43:36Z</time>
      </trkpt>
      <trkpt lat="45.14438" lon="4.43676">
        <ele>1112.4</ele>
        <time>2026-04-24T05:43:41Z</time>
      </trkpt>
      <trkpt lat="45.14438" lon="4.43676">
        <ele>1112.4</ele>
        <time>2026-04-24T05:43:46Z</time>
      </trkpt>
      <trkpt lat="45.14438" lon="4.43676">
        <ele>1112.4</ele>
        <time>2026-04-24T05:43:51Z</time>
      </trkpt>
      <trkpt lat="45.14438" lon="4.43676">
        <ele>1112.4</ele>
        <time>2026-04-24T05:43:56Z</time>
      </trkpt>
      <trkpt lat="45.14438" lon="4.43676">
        <ele>1112.4</ele>
        <time>2026-04-24T05:44:01Z</time>
      </trkpt>
      <trkpt lat="45.14438" lon="4.43676">
        <ele>1112.4</ele>
        <time>2026-04-24T05:44:06Z</time>
      </trkpt>
      <trkpt lat="45.14438" lon="4.43676">
        <ele>1112.4</ele>
        <time>2026-04-24T05:44:11Z</time>
      </trkpt>
      <trkpt lat="45.14438" lon="4.43676">
        <ele>1112.4</ele>
        <time>2026-04-24T05:44:16Z</time>
      </trkpt>
      <trkpt lat="45.14438" lon="4.43676">
        <ele>1112.4</ele>
        <time>2026-04-24T05:44:21Z</time>
      </trkpt>
      <trkpt lat="45.14438" lon="4.43676">
        <ele>1112.4</ele>
        <time>2026-04-24T05:44:26Z</time>
      </trkpt>
      <trkpt lat="45.14438" lon="4.43676">
        <ele>1112.4</ele>
        <time>2026-04-24T05:44:31Z</time>
      </trkpt>
      <trkpt lat="45.14438" lon="4.43676">
        <ele>1112.4</ele>
        <time>2026-04-24T05:44:36Z</time>
      </trkpt>
      <trkpt lat="45.14438" lon="4.43676">
        <ele>1112.4</ele>
        <time>2026-04-24T05:44:41Z</time>
      </trkpt>
      <trkpt lat="45.14438" lon="4.43676">
        <ele>1112.4</ele>
        <time>2026-04-24T05:44:46Z</time>
      </trkpt>
      <trkpt lat="45.14438" lon="4.43676">
        <ele>1112.4</ele>
        <time>2026-04-24T05:44:51Z</time>
      </trkpt>
      <trkpt lat="45.14438" lon="4.43676">
        <ele>1112.4</ele>
        <time>2026-04-24T05:44:56Z</time>
      </trkpt>
      <trkpt lat="45.14438" lon="4.43676">
        <ele>1112.4</ele>
        <time>2026-04-24T05:45:01Z</time>
      </trkpt>
      <trkpt lat="45.14438" lon="4.43676">
        <ele>1112.4</ele>
        <time>2026-04-24T05:45:06Z</time>
      </trkpt>
      <trkpt lat="45.14438" lon="4.43676">
        <ele>1112.4</ele>
        <time>2026-04-24T05:45:11Z</time>
      </trkpt>
      <trkpt lat="45.14438" lon="4.43676">
        <ele>1112.4</ele>
        <time>2026-04-24T05:45:16Z</time>
      </trkpt>
      <trkpt lat="45.14438" lon="4.43676">
        <ele>1112.4</ele>
        <time>2026-04-24T05:45:21Z</time>
      </trkpt>
      <trkpt lat="45.14438" lon="4.43676">
        <ele>1112.4</ele>
        <time>2026-04-24T05:45:26Z</time>
      </trkpt>
      <trkpt lat="45.14438" lon="4.43676">
        <ele>1112.4</ele>
        <time>2026-04-24T05:45:31Z</time>
      </trkpt>
      <trkpt lat="45.14438" lon="4.43676">
        <ele>1112.4</ele>
        <time>2026-04-24T05:45:36Z</time>
      </trkpt>
      <trkpt lat="45.14438" lon="4.43676">
        <ele>1112.4</ele>
        <time>2026-04-24T05:45:41Z</time>
      </trkpt>
      <trkpt lat="45.14438" lon="4.43676">
        <ele>1112.4</ele>
        <time>2026-04-24T05:45:46Z</time>
      </trkpt>
      <trkpt lat="45.14438" lon="4.43676">
        <ele>1112.4</ele>
        <time>2026-04-24T05:45:51Z</time>
      </trkpt>
      <trkpt lat="45.14438" lon="4.43676">
        <ele>1112.4</ele>
        <time>2026-04-24T05:45:56Z</time>
      </trkpt>
      <trkpt lat="45.14438" lon="4.43676">
        <ele>1112.4</ele>
        <time>2026-04-24T05:46:01Z</time>
      </trkpt>
      <trkpt lat="45.14438" lon="4.43676">
        <ele>1112.4</ele>
        <time>2026-04-24T05:46:06Z</time>
      </trkpt>
      <trkpt lat="45.14438" lon="4.43676">
        <ele>1112.4</ele>
        <time>2026-04-24T05:46:11Z</time>
      </trkpt>
      <trkpt lat="45.14438" lon="4.43676">
        <ele>1112.4</ele>
        <time>2026-04-24T05:46:16Z</time>
      </trkpt>
      <trkpt lat="45.14438" lon="4.43676">
        <ele>1112.4</ele>
        <time>2026-04-24T05:46:21Z</time>
      </trkpt>
      <trkpt lat="45.14438" lon="4.43676">
        <ele>1112.4</ele>
        <time>2026-04-24T05:46:26Z</time>
      </trkpt>
      <trkpt lat="45.14438" lon="4.43676">
        <ele>1112.4</ele>
        <time>2026-04-24T05:46:31Z</time>
      </trkpt>
      <trkpt lat="45.14438" lon="4.43676">
        <ele>1112.4</ele>
        <time>2026-04-24T05:46:36Z</time>
      </trkpt>
      <trkpt lat="45.14438" lon="4.43676">
        <ele>1112.4</ele>
        <time>2026-04-24T05:46:41Z</time>
      </trkpt>
      <trkpt lat="45.14438" lon="4.43676">
        <ele>1112.4</ele>
        <time>2026-04-24T05:46:46Z</time>
      </trkpt>
      <trkpt lat="45.14438" lon="4.43676">
        <ele>1112.4</ele>
        <time>2026-04-24T05:46:51Z</time>
      </trkpt>
      <trkpt lat="45.14446" lon="4.43672">
        <ele>1111.9</ele>
        <time>2026-04-24T05:46:56Z</time>
      </trkpt>
      <trkpt lat="45.14446" lon="4.43672">
        <ele>1111.9</ele>
        <time>2026-04-24T05:47:01Z</time>
      </trkpt>
      <trkpt lat="45.14446" lon="4.43672">
        <ele>1111.9</ele>
        <time>2026-04-24T05:47:06Z</time>
      </trkpt>
      <trkpt lat="45.14446" lon="4.43672">
        <ele>1111.9</ele>
        <time>2026-04-24T05:47:11Z</time>
      </trkpt>
      <trkpt lat="45.14446" lon="4.43672">
        <ele>1111.9</ele>
        <time>2026-04-24T05:47:16Z</time>
      </trkpt>
      <trkpt lat="45.14446" lon="4.43672">
        <ele>1111.9</ele>
        <time>2026-04-24T05:47:21Z</time>
      </trkpt>
      <trkpt lat="45.14454" lon="4.4367">
        <ele>1111.3</ele>
        <time>2026-04-24T05:47:26Z</time>
      </trkpt>
      <trkpt lat="45.14462" lon="4.43669">
        <ele>1110.8</ele>
        <time>2026-04-24T05:47:31Z</time>
      </trkpt>
      <trkpt lat="45.1447" lon="4.43667">
        <ele>1110.2</ele>
        <time>2026-04-24T05:47:36Z</time>
      </trkpt>
      <trkpt lat="45.14476" lon="4.43667">
        <ele>1109.7</ele>
        <time>2026-04-24T05:47:41Z</time>
      </trkpt>
      <trkpt lat="45.14483" lon="4.43665">
        <ele>1109.2</ele>
        <time>2026-04-24T05:47:46Z</time>
      </trkpt>
      <trkpt lat="45.14489" lon="4.43663">
        <ele>1108.8</ele>
        <time>2026-04-24T05:47:51Z</time>
      </trkpt>
      <trkpt lat="45.14497" lon="4.43661">
        <ele>1108.2</ele>
        <time>2026-04-24T05:47:56Z</time>
      </trkpt>
      <trkpt lat="45.14503" lon="4.4366">
        <ele>1107.6</ele>
        <time>2026-04-24T05:48:01Z</time>
      </trkpt>
      <trkpt lat="45.1451" lon="4.43659">
        <ele>1106.8</ele>
        <time>2026-04-24T05:48:06Z</time>
      </trkpt>
      <trkpt lat="45.14517" lon="4.43658">
        <ele>1106</ele>
        <time>2026-04-24T05:48:11Z</time>
      </trkpt>
      <trkpt lat="45.14523" lon="4.43658">
        <ele>1105.3</ele>
        <time>2026-04-24T05:48:16Z</time>
      </trkpt>
      <trkpt lat="45.14529" lon="4.43661">
        <ele>1104.5</ele>
        <time>2026-04-24T05:48:21Z</time>
      </trkpt>
      <trkpt lat="45.14537" lon="4.43663">
        <ele>1103.6</ele>
        <time>2026-04-24T05:48:26Z</time>
      </trkpt>
      <trkpt lat="45.14543" lon="4.43666">
        <ele>1102.8</ele>
        <time>2026-04-24T05:48:31Z</time>
      </trkpt>
      <trkpt lat="45.1455" lon="4.43669">
        <ele>1102.1</ele>
        <time>2026-04-24T05:48:36Z</time>
      </trkpt>
      <trkpt lat="45.14556" lon="4.43672">
        <ele>1101.6</ele>
        <time>2026-04-24T05:48:41Z</time>
      </trkpt>
      <trkpt lat="45.14563" lon="4.43674">
        <ele>1100.9</ele>
        <time>2026-04-24T05:48:46Z</time>
      </trkpt>
      <trkpt lat="45.14569" lon="4.43677">
        <ele>1100.4</ele>
        <time>2026-04-24T05:48:51Z</time>
      </trkpt>
      <trkpt lat="45.14575" lon="4.4368">
        <ele>1099.9</ele>
        <time>2026-04-24T05:48:56Z</time>
      </trkpt>
      <trkpt lat="45.14582" lon="4.43681">
        <ele>1099.2</ele>
        <time>2026-04-24T05:49:01Z</time>
      </trkpt>
      <trkpt lat="45.14588" lon="4.4368">
        <ele>1098.4</ele>
        <time>2026-04-24T05:49:06Z</time>
      </trkpt>
      <trkpt lat="45.14593" lon="4.43678">
        <ele>1097.6</ele>
        <time>2026-04-24T05:49:11Z</time>
      </trkpt>
      <trkpt lat="45.14597" lon="4.43678">
        <ele>1097</ele>
        <time>2026-04-24T05:49:16Z</time>
      </trkpt>
      <trkpt lat="45.14603" lon="4.43675">
        <ele>1096</ele>
        <time>2026-04-24T05:49:21Z</time>
      </trkpt>
      <trkpt lat="45.14609" lon="4.43672">
        <ele>1095</ele>
        <time>2026-04-24T05:49:26Z</time>
      </trkpt>
      <trkpt lat="45.14613" lon="4.43669">
        <ele>1094.3</ele>
        <time>2026-04-24T05:49:31Z</time>
      </trkpt>
      <trkpt lat="45.1462" lon="4.43666">
        <ele>1093.2</ele>
        <time>2026-04-24T05:49:36Z</time>
      </trkpt>
      <trkpt lat="45.14625" lon="4.43663">
        <ele>1092.5</ele>
        <time>2026-04-24T05:49:41Z</time>
      </trkpt>
      <trkpt lat="45.14631" lon="4.43659">
        <ele>1091.6</ele>
        <time>2026-04-24T05:49:46Z</time>
      </trkpt>
      <trkpt lat="45.14637" lon="4.43656">
        <ele>1090.8</ele>
        <time>2026-04-24T05:49:51Z</time>
      </trkpt>
      <trkpt lat="45.14643" lon="4.43653">
        <ele>1089.9</ele>
        <time>2026-04-24T05:49:56Z</time>
      </trkpt>
      <trkpt lat="45.1465" lon="4.4365">
        <ele>1088.9</ele>
        <time>2026-04-24T05:50:01Z</time>
      </trkpt>
      <trkpt lat="45.14656" lon="4.43646">
        <ele>1088</ele>
        <time>2026-04-24T05:50:06Z</time>
      </trkpt>
      <trkpt lat="45.14665" lon="4.4364">
        <ele>1086.6</ele>
        <time>2026-04-24T05:50:11Z</time>
      </trkpt>
      <trkpt lat="45.14673" lon="4.43639">
        <ele>1085.8</ele>
        <time>2026-04-24T05:50:16Z</time>
      </trkpt>
      <trkpt lat="45.1468" lon="4.43638">
        <ele>1085.2</ele>
        <time>2026-04-24T05:50:21Z</time>
      </trkpt>
      <trkpt lat="45.14688" lon="4.43637">
        <ele>1084.5</ele>
        <time>2026-04-24T05:50:26Z</time>
      </trkpt>
      <trkpt lat="45.14696" lon="4.43636">
        <ele>1083.8</ele>
        <time>2026-04-24T05:50:31Z</time>
      </trkpt>
      <trkpt lat="45.14704" lon="4.43635">
        <ele>1083.1</ele>
        <time>2026-04-24T05:50:36Z</time>
      </trkpt>
      <trkpt lat="45.1471" lon="4.43635">
        <ele>1082.6</ele>
        <time>2026-04-24T05:50:41Z</time>
      </trkpt>
      <trkpt lat="45.14718" lon="4.43636">
        <ele>1082</ele>
        <time>2026-04-24T05:50:46Z</time>
      </trkpt>
      <trkpt lat="45.14725" lon="4.43637">
        <ele>1081.4</ele>
        <time>2026-04-24T05:50:51Z</time>
      </trkpt>
      <trkpt lat="45.14732" lon="4.43638">
        <ele>1080.8</ele>
        <time>2026-04-24T05:50:56Z</time>
      </trkpt>
      <trkpt lat="45.1474" lon="4.43638">
        <ele>1080.2</ele>
        <time>2026-04-24T05:51:01Z</time>
      </trkpt>
      <trkpt lat="45.14746" lon="4.43638">
        <ele>1079.6</ele>
        <time>2026-04-24T05:51:06Z</time>
      </trkpt>
      <trkpt lat="45.14754" lon="4.43638">
        <ele>1079.1</ele>
        <time>2026-04-24T05:51:11Z</time>
      </trkpt>
      <trkpt lat="45.14761" lon="4.43638">
        <ele>1078.8</ele>
        <time>2026-04-24T05:51:16Z</time>
      </trkpt>
      <trkpt lat="45.14768" lon="4.43638">
        <ele>1078.4</ele>
        <time>2026-04-24T05:51:21Z</time>
      </trkpt>
      <trkpt lat="45.14775" lon="4.4364">
        <ele>1078.2</ele>
        <time>2026-04-24T05:51:26Z</time>
      </trkpt>
      <trkpt lat="45.14783" lon="4.43642">
        <ele>1078</ele>
        <time>2026-04-24T05:51:31Z</time>
      </trkpt>
      <trkpt lat="45.14787" lon="4.43643">
        <ele>1077.9</ele>
        <time>2026-04-24T05:51:36Z</time>
      </trkpt>
      <trkpt lat="45.14791" lon="4.43646">
        <ele>1077.9</ele>
        <time>2026-04-24T05:51:41Z</time>
      </trkpt>
      <trkpt lat="45.14793" lon="4.43647">
        <ele>1077.9</ele>
        <time>2026-04-24T05:51:46Z</time>
      </trkpt>
      <trkpt lat="45.14793" lon="4.43647">
        <ele>1077.9</ele>
        <time>2026-04-24T05:51:51Z</time>
      </trkpt>
      <trkpt lat="45.14793" lon="4.43647">
        <ele>1077.9</ele>
        <time>2026-04-24T05:51:56Z</time>
      </trkpt>
      <trkpt lat="45.14793" lon="4.43647">
        <ele>1077.9</ele>
        <time>2026-04-24T05:52:01Z</time>
      </trkpt>
      <trkpt lat="45.14793" lon="4.43647">
        <ele>1077.9</ele>
        <time>2026-04-24T05:52:06Z</time>
      </trkpt>
      <trkpt lat="45.14793" lon="4.43647">
        <ele>1077.9</ele>
        <time>2026-04-24T05:52:11Z</time>
      </trkpt>
      <trkpt lat="45.14798" lon="4.43647">
        <ele>1077.7</ele>
        <time>2026-04-24T05:52:16Z</time>
      </trkpt>
      <trkpt lat="45.14806" lon="4.4365">
        <ele>1077.7</ele>
        <time>2026-04-24T05:52:21Z</time>
      </trkpt>
      <trkpt lat="45.14813" lon="4.43657">
        <ele>1078.2</ele>
        <time>2026-04-24T05:52:26Z</time>
      </trkpt>
      <trkpt lat="45.1482" lon="4.43664">
        <ele>1078.9</ele>
        <time>2026-04-24T05:52:31Z</time>
      </trkpt>
      <trkpt lat="45.14826" lon="4.43668">
        <ele>1079.3</ele>
        <time>2026-04-24T05:52:36Z</time>
      </trkpt>
      <trkpt lat="45.14833" lon="4.43673">
        <ele>1080.1</ele>
        <time>2026-04-24T05:52:41Z</time>
      </trkpt>
      <trkpt lat="45.14835" lon="4.43675">
        <ele>1080.3</ele>
        <time>2026-04-24T05:52:46Z</time>
      </trkpt>
      <trkpt lat="45.14835" lon="4.43676">
        <ele>1080.5</ele>
        <time>2026-04-24T05:52:51Z</time>
      </trkpt>
      <trkpt lat="45.14835" lon="4.43676">
        <ele>1080.5</ele>
        <time>2026-04-24T05:52:56Z</time>
      </trkpt>
      <trkpt lat="45.14835" lon="4.43676">
        <ele>1080.5</ele>
        <time>2026-04-24T05:53:01Z</time>
      </trkpt>
      <trkpt lat="45.14835" lon="4.43676">
        <ele>1080.5</ele>
        <time>2026-04-24T05:53:06Z</time>
      </trkpt>
      <trkpt lat="45.14835" lon="4.43676">
        <ele>1080.5</ele>
        <time>2026-04-24T05:53:11Z</time>
      </trkpt>
      <trkpt lat="45.14835" lon="4.43676">
        <ele>1080.5</ele>
        <time>2026-04-24T05:53:16Z</time>
      </trkpt>
      <trkpt lat="45.14835" lon="4.43676">
        <ele>1080.5</ele>
        <time>2026-04-24T05:53:21Z</time>
      </trkpt>
      <trkpt lat="45.14835" lon="4.43676">
        <ele>1080.5</ele>
        <time>2026-04-24T05:53:26Z</time>
      </trkpt>
      <trkpt lat="45.14835" lon="4.43676">
        <ele>1080.5</ele>
        <time>2026-04-24T05:53:31Z</time>
      </trkpt>
      <trkpt lat="45.14835" lon="4.43676">
        <ele>1080.5</ele>
        <time>2026-04-24T05:53:36Z</time>
      </trkpt>
      <trkpt lat="45.14835" lon="4.43676">
        <ele>1080.5</ele>
        <time>2026-04-24T05:53:41Z</time>
      </trkpt>
      <trkpt lat="45.14835" lon="4.43676">
        <ele>1080.5</ele>
        <time>2026-04-24T05:53:46Z</time>
      </trkpt>
      <trkpt lat="45.14835" lon="4.43676">
        <ele>1080.5</ele>
        <time>2026-04-24T05:53:51Z</time>
      </trkpt>
      <trkpt lat="45.14836" lon="4.43677">
        <ele>1080.5</ele>
        <time>2026-04-24T05:53:56Z</time>
      </trkpt>
      <trkpt lat="45.1484" lon="4.43686">
        <ele>1081.6</ele>
        <time>2026-04-24T05:54:01Z</time>
      </trkpt>
      <trkpt lat="45.14845" lon="4.43693">
        <ele>1082.2</ele>
        <time>2026-04-24T05:54:06Z</time>
      </trkpt>
      <trkpt lat="45.14848" lon="4.43701">
        <ele>1083.1</ele>
        <time>2026-04-24T05:54:11Z</time>
      </trkpt>
      <trkpt lat="45.1485" lon="4.43709">
        <ele>1084.1</ele>
        <time>2026-04-24T05:54:16Z</time>
      </trkpt>
      <trkpt lat="45.14852" lon="4.43718">
        <ele>1085.3</ele>
        <time>2026-04-24T05:54:21Z</time>
      </trkpt>
      <trkpt lat="45.14855" lon="4.43725">
        <ele>1085.9</ele>
        <time>2026-04-24T05:54:26Z</time>
      </trkpt>
      <trkpt lat="45.14855" lon="4.43725">
        <ele>1085.9</ele>
        <time>2026-04-24T05:54:31Z</time>
      </trkpt>
      <trkpt lat="45.14855" lon="4.43725">
        <ele>1085.9</ele>
        <time>2026-04-24T05:54:36Z</time>
      </trkpt>
      <trkpt lat="45.14855" lon="4.43725">
        <ele>1085.9</ele>
        <time>2026-04-24T05:54:41Z</time>
      </trkpt>
      <trkpt lat="45.14855" lon="4.43725">
        <ele>1085.9</ele>
        <time>2026-04-24T05:54:46Z</time>
      </trkpt>
      <trkpt lat="45.14855" lon="4.43725">
        <ele>1085.9</ele>
        <time>2026-04-24T05:54:51Z</time>
      </trkpt>
      <trkpt lat="45.14855" lon="4.43725">
        <ele>1085.9</ele>
        <time>2026-04-24T05:54:56Z</time>
      </trkpt>
      <trkpt lat="45.14855" lon="4.43725">
        <ele>1085.9</ele>
        <time>2026-04-24T05:55:01Z</time>
      </trkpt>
      <trkpt lat="45.14855" lon="4.43725">
        <ele>1085.9</ele>
        <time>2026-04-24T05:55:06Z</time>
      </trkpt>
      <trkpt lat="45.14855" lon="4.43725">
        <ele>1085.9</ele>
        <time>2026-04-24T05:55:11Z</time>
      </trkpt>
      <trkpt lat="45.14855" lon="4.43725">
        <ele>1085.9</ele>
        <time>2026-04-24T05:55:16Z</time>
      </trkpt>
      <trkpt lat="45.14855" lon="4.43725">
        <ele>1085.9</ele>
        <time>2026-04-24T05:55:21Z</time>
      </trkpt>
      <trkpt lat="45.14855" lon="4.43725">
        <ele>1085.9</ele>
        <time>2026-04-24T05:55:26Z</time>
      </trkpt>
      <trkpt lat="45.14855" lon="4.43725">
        <ele>1085.9</ele>
        <time>2026-04-24T05:55:31Z</time>
      </trkpt>
      <trkpt lat="45.14855" lon="4.43725">
        <ele>1085.9</ele>
        <time>2026-04-24T05:55:36Z</time>
      </trkpt>
      <trkpt lat="45.14855" lon="4.43725">
        <ele>1085.9</ele>
        <time>2026-04-24T05:55:41Z</time>
      </trkpt>
      <trkpt lat="45.14855" lon="4.43725">
        <ele>1085.9</ele>
        <time>2026-04-24T05:55:46Z</time>
      </trkpt>
      <trkpt lat="45.14855" lon="4.43725">
        <ele>1085.9</ele>
        <time>2026-04-24T05:55:51Z</time>
      </trkpt>
      <trkpt lat="45.14855" lon="4.43725">
        <ele>1085.9</ele>
        <time>2026-04-24T05:55:56Z</time>
      </trkpt>
      <trkpt lat="45.14855" lon="4.43725">
        <ele>1085.9</ele>
        <time>2026-04-24T05:56:01Z</time>
      </trkpt>
      <trkpt lat="45.14855" lon="4.43725">
        <ele>1085.9</ele>
        <time>2026-04-24T05:56:06Z</time>
      </trkpt>
      <trkpt lat="45.14855" lon="4.43725">
        <ele>1085.9</ele>
        <time>2026-04-24T05:56:11Z</time>
      </trkpt>
      <trkpt lat="45.14855" lon="4.43725">
        <ele>1085.9</ele>
        <time>2026-04-24T05:56:16Z</time>
      </trkpt>
      <trkpt lat="45.14855" lon="4.43725">
        <ele>1085.9</ele>
        <time>2026-04-24T05:56:21Z</time>
      </trkpt>
      <trkpt lat="45.14855" lon="4.43725">
        <ele>1085.9</ele>
        <time>2026-04-24T05:56:26Z</time>
      </trkpt>
      <trkpt lat="45.14855" lon="4.43725">
        <ele>1085.9</ele>
        <time>2026-04-24T05:56:31Z</time>
      </trkpt>
      <trkpt lat="45.14855" lon="4.43725">
        <ele>1085.9</ele>
        <time>2026-04-24T05:56:36Z</time>
      </trkpt>
      <trkpt lat="45.14855" lon="4.43725">
        <ele>1085.9</ele>
        <time>2026-04-24T05:56:41Z</time>
      </trkpt>
      <trkpt lat="45.14855" lon="4.43725">
        <ele>1085.9</ele>
        <time>2026-04-24T05:56:46Z</time>
      </trkpt>
      <trkpt lat="45.14855" lon="4.43725">
        <ele>1085.9</ele>
        <time>2026-04-24T05:56:51Z</time>
      </trkpt>
      <trkpt lat="45.14855" lon="4.43725">
        <ele>1085.9</ele>
        <time>2026-04-24T05:56:56Z</time>
      </trkpt>
      <trkpt lat="45.14855" lon="4.43725">
        <ele>1085.9</ele>
        <time>2026-04-24T05:57:01Z</time>
      </trkpt>
      <trkpt lat="45.14855" lon="4.43725">
        <ele>1085.9</ele>
        <time>2026-04-24T05:57:06Z</time>
      </trkpt>
      <trkpt lat="45.1486" lon="4.43735">
        <ele>1086.6</ele>
        <time>2026-04-24T05:57:11Z</time>
      </trkpt>
      <trkpt lat="45.14862" lon="4.4375">
        <ele>1088.5</ele>
        <time>2026-04-24T05:57:16Z</time>
      </trkpt>
      <trkpt lat="45.14864" lon="4.43758">
        <ele>1088.3</ele>
        <time>2026-04-24T05:57:21Z</time>
      </trkpt>
      <trkpt lat="45.14866" lon="4.43766">
        <ele>1088</ele>
        <time>2026-04-24T05:57:26Z</time>
      </trkpt>
      <trkpt lat="45.1487" lon="4.43774">
        <ele>1087.4</ele>
        <time>2026-04-24T05:57:31Z</time>
      </trkpt>
      <trkpt lat="45.14872" lon="4.43783">
        <ele>1087.2</ele>
        <time>2026-04-24T05:57:36Z</time>
      </trkpt>
      <trkpt lat="45.14875" lon="4.43792">
        <ele>1086.8</ele>
        <time>2026-04-24T05:57:41Z</time>
      </trkpt>
      <trkpt lat="45.14879" lon="4.43802">
        <ele>1086.1</ele>
        <time>2026-04-24T05:57:46Z</time>
      </trkpt>
      <trkpt lat="45.14882" lon="4.43809">
        <ele>1085.7</ele>
        <time>2026-04-24T05:57:51Z</time>
      </trkpt>
      <trkpt lat="45.14886" lon="4.43816">
        <ele>1085</ele>
        <time>2026-04-24T05:57:56Z</time>
      </trkpt>
      <trkpt lat="45.14892" lon="4.43823">
        <ele>1083.9</ele>
        <time>2026-04-24T05:58:01Z</time>
      </trkpt>
      <trkpt lat="45.14898" lon="4.43829">
        <ele>1082.7</ele>
        <time>2026-04-24T05:58:06Z</time>
      </trkpt>
      <trkpt lat="45.14903" lon="4.43834">
        <ele>1081.7</ele>
        <time>2026-04-24T05:58:11Z</time>
      </trkpt>
      <trkpt lat="45.14908" lon="4.43841">
        <ele>1080.3</ele>
        <time>2026-04-24T05:58:16Z</time>
      </trkpt>
      <trkpt lat="45.14912" lon="4.43847">
        <ele>1079.1</ele>
        <time>2026-04-24T05:58:21Z</time>
      </trkpt>
      <trkpt lat="45.14918" lon="4.43855">
        <ele>1077.2</ele>
        <time>2026-04-24T05:58:26Z</time>
      </trkpt>
      <trkpt lat="45.14922" lon="4.43859">
        <ele>1075.4</ele>
        <time>2026-04-24T05:58:31Z</time>
      </trkpt>
      <trkpt lat="45.14929" lon="4.43863">
        <ele>1072.5</ele>
        <time>2026-04-24T05:58:36Z</time>
      </trkpt>
      <trkpt lat="45.14936" lon="4.43868">
        <ele>1069.7</ele>
        <time>2026-04-24T05:58:41Z</time>
      </trkpt>
      <trkpt lat="45.14942" lon="4.43873">
        <ele>1067.2</ele>
        <time>2026-04-24T05:58:46Z</time>
      </trkpt>
      <trkpt lat="45.1495" lon="4.43879">
        <ele>1063.9</ele>
        <time>2026-04-24T05:58:51Z</time>
      </trkpt>
      <trkpt lat="45.14958" lon="4.43884">
        <ele>1060.8</ele>
        <time>2026-04-24T05:58:56Z</time>
      </trkpt>
      <trkpt lat="45.14965" lon="4.43887">
        <ele>1058.1</ele>
        <time>2026-04-24T05:59:01Z</time>
      </trkpt>
      <trkpt lat="45.14972" lon="4.43887">
        <ele>1055.6</ele>
        <time>2026-04-24T05:59:06Z</time>
      </trkpt>
      <trkpt lat="45.1498" lon="4.43887">
        <ele>1052.7</ele>
        <time>2026-04-24T05:59:11Z</time>
      </trkpt>
      <trkpt lat="45.14988" lon="4.43888">
        <ele>1049.7</ele>
        <time>2026-04-24T05:59:16Z</time>
      </trkpt>
      <trkpt lat="45.14994" lon="4.43888">
        <ele>1047.5</ele>
        <time>2026-04-24T05:59:21Z</time>
      </trkpt>
      <trkpt lat="45.15001" lon="4.43886">
        <ele>1045.3</ele>
        <time>2026-04-24T05:59:26Z</time>
      </trkpt>
      <trkpt lat="45.15007" lon="4.43884">
        <ele>1045.2</ele>
        <time>2026-04-24T05:59:31Z</time>
      </trkpt>
      <trkpt lat="45.15013" lon="4.43879">
        <ele>1045.1</ele>
        <time>2026-04-24T05:59:36Z</time>
      </trkpt>
      <trkpt lat="45.1502" lon="4.43875">
        <ele>1044.9</ele>
        <time>2026-04-24T05:59:41Z</time>
      </trkpt>
      <trkpt lat="45.15026" lon="4.43871">
        <ele>1044.7</ele>
        <time>2026-04-24T05:59:46Z</time>
      </trkpt>
      <trkpt lat="45.15031" lon="4.43866">
        <ele>1044.5</ele>
        <time>2026-04-24T05:59:51Z</time>
      </trkpt>
      <trkpt lat="45.15037" lon="4.43861">
        <ele>1044.2</ele>
        <time>2026-04-24T05:59:56Z</time>
      </trkpt>
      <trkpt lat="45.15043" lon="4.43857">
        <ele>1043.9</ele>
        <time>2026-04-24T06:00:01Z</time>
      </trkpt>
      <trkpt lat="45.15048" lon="4.43853">
        <ele>1043.6</ele>
        <time>2026-04-24T06:00:06Z</time>
      </trkpt>
      <trkpt lat="45.15055" lon="4.43849">
        <ele>1043.1</ele>
        <time>2026-04-24T06:00:11Z</time>
      </trkpt>
      <trkpt lat="45.15061" lon="4.43846">
        <ele>1042.7</ele>
        <time>2026-04-24T06:00:16Z</time>
      </trkpt>
      <trkpt lat="45.15068" lon="4.43842">
        <ele>1042.2</ele>
        <time>2026-04-24T06:00:21Z</time>
      </trkpt>
      <trkpt lat="45.15074" lon="4.43839">
        <ele>1041.8</ele>
        <time>2026-04-24T06:00:26Z</time>
      </trkpt>
      <trkpt lat="45.1508" lon="4.43836">
        <ele>1041.3</ele>
        <time>2026-04-24T06:00:31Z</time>
      </trkpt>
      <trkpt lat="45.15087" lon="4.43833">
        <ele>1041.3</ele>
        <time>2026-04-24T06:00:36Z</time>
      </trkpt>
      <trkpt lat="45.15093" lon="4.43831">
        <ele>1041.8</ele>
        <time>2026-04-24T06:00:41Z</time>
      </trkpt>
      <trkpt lat="45.15099" lon="4.43828">
        <ele>1042.4</ele>
        <time>2026-04-24T06:00:46Z</time>
      </trkpt>
      <trkpt lat="45.15107" lon="4.43824">
        <ele>1043</ele>
        <time>2026-04-24T06:00:51Z</time>
      </trkpt>
      <trkpt lat="45.15113" lon="4.43821">
        <ele>1043.4</ele>
        <time>2026-04-24T06:00:56Z</time>
      </trkpt>
      <trkpt lat="45.15113" lon="4.4382">
        <ele>1043.4</ele>
        <time>2026-04-24T06:01:01Z</time>
      </trkpt>
      <trkpt lat="45.15113" lon="4.4382">
        <ele>1043.4</ele>
        <time>2026-04-24T06:01:06Z</time>
      </trkpt>
      <trkpt lat="45.15113" lon="4.4382">
        <ele>1043.4</ele>
        <time>2026-04-24T06:01:11Z</time>
      </trkpt>
      <trkpt lat="45.15113" lon="4.4382">
        <ele>1043.4</ele>
        <time>2026-04-24T06:01:16Z</time>
      </trkpt>
      <trkpt lat="45.15113" lon="4.4382">
        <ele>1043.4</ele>
        <time>2026-04-24T06:01:21Z</time>
      </trkpt>
      <trkpt lat="45.15113" lon="4.4382">
        <ele>1043.4</ele>
        <time>2026-04-24T06:01:26Z</time>
      </trkpt>
      <trkpt lat="45.15113" lon="4.4382">
        <ele>1043.4</ele>
        <time>2026-04-24T06:01:31Z</time>
      </trkpt>
      <trkpt lat="45.15113" lon="4.4382">
        <ele>1043.4</ele>
        <time>2026-04-24T06:01:36Z</time>
      </trkpt>
      <trkpt lat="45.15113" lon="4.4382">
        <ele>1043.4</ele>
        <time>2026-04-24T06:01:41Z</time>
      </trkpt>
      <trkpt lat="45.15113" lon="4.4382">
        <ele>1043.4</ele>
        <time>2026-04-24T06:01:46Z</time>
      </trkpt>
      <trkpt lat="45.15113" lon="4.4382">
        <ele>1043.4</ele>
        <time>2026-04-24T06:01:51Z</time>
      </trkpt>
      <trkpt lat="45.15113" lon="4.4382">
        <ele>1043.4</ele>
        <time>2026-04-24T06:01:56Z</time>
      </trkpt>
      <trkpt lat="45.15113" lon="4.4382">
        <ele>1043.4</ele>
        <time>2026-04-24T06:02:01Z</time>
      </trkpt>
      <trkpt lat="45.15113" lon="4.4382">
        <ele>1043.4</ele>
        <time>2026-04-24T06:02:06Z</time>
      </trkpt>
      <trkpt lat="45.15113" lon="4.4382">
        <ele>1043.4</ele>
        <time>2026-04-24T06:02:11Z</time>
      </trkpt>
      <trkpt lat="45.15113" lon="4.4382">
        <ele>1043.4</ele>
        <time>2026-04-24T06:02:16Z</time>
      </trkpt>
      <trkpt lat="45.15113" lon="4.4382">
        <ele>1043.4</ele>
        <time>2026-04-24T06:02:21Z</time>
      </trkpt>
      <trkpt lat="45.15113" lon="4.4382">
        <ele>1043.4</ele>
        <time>2026-04-24T06:02:26Z</time>
      </trkpt>
      <trkpt lat="45.15113" lon="4.4382">
        <ele>1043.4</ele>
        <time>2026-04-24T06:02:31Z</time>
      </trkpt>
      <trkpt lat="45.15113" lon="4.4382">
        <ele>1043.4</ele>
        <time>2026-04-24T06:02:36Z</time>
      </trkpt>
      <trkpt lat="45.15113" lon="4.4382">
        <ele>1043.4</ele>
        <time>2026-04-24T06:02:41Z</time>
      </trkpt>
      <trkpt lat="45.15113" lon="4.4382">
        <ele>1043.4</ele>
        <time>2026-04-24T06:02:46Z</time>
      </trkpt>
      <trkpt lat="45.15113" lon="4.4382">
        <ele>1043.4</ele>
        <time>2026-04-24T06:02:51Z</time>
      </trkpt>
      <trkpt lat="45.15113" lon="4.4382">
        <ele>1043.4</ele>
        <time>2026-04-24T06:02:56Z</time>
      </trkpt>
      <trkpt lat="45.15113" lon="4.4382">
        <ele>1043.4</ele>
        <time>2026-04-24T06:03:01Z</time>
      </trkpt>
      <trkpt lat="45.15116" lon="4.43819">
        <ele>1043.6</ele>
        <time>2026-04-24T06:03:06Z</time>
      </trkpt>
      <trkpt lat="45.15123" lon="4.43815">
        <ele>1044</ele>
        <time>2026-04-24T06:03:11Z</time>
      </trkpt>
      <trkpt lat="45.1513" lon="4.43812">
        <ele>1044.4</ele>
        <time>2026-04-24T06:03:16Z</time>
      </trkpt>
      <trkpt lat="45.15136" lon="4.43808">
        <ele>1044.7</ele>
        <time>2026-04-24T06:03:21Z</time>
      </trkpt>
      <trkpt lat="45.15141" lon="4.43804">
        <ele>1044.8</ele>
        <time>2026-04-24T06:03:26Z</time>
      </trkpt>
      <trkpt lat="45.15148" lon="4.43799">
        <ele>1045</ele>
        <time>2026-04-24T06:03:31Z</time>
      </trkpt>
      <trkpt lat="45.15155" lon="4.43792">
        <ele>1045</ele>
        <time>2026-04-24T06:03:36Z</time>
      </trkpt>
      <trkpt lat="45.15161" lon="4.43786">
        <ele>1045</ele>
        <time>2026-04-24T06:03:41Z</time>
      </trkpt>
      <trkpt lat="45.15165" lon="4.43779">
        <ele>1044.7</ele>
        <time>2026-04-24T06:03:46Z</time>
      </trkpt>
      <trkpt lat="45.15169" lon="4.43772">
        <ele>1044.6</ele>
        <time>2026-04-24T06:03:51Z</time>
      </trkpt>
      <trkpt lat="45.15173" lon="4.43765">
        <ele>1044.5</ele>
        <time>2026-04-24T06:03:56Z</time>
      </trkpt>
      <trkpt lat="45.15177" lon="4.43756">
        <ele>1044.4</ele>
        <time>2026-04-24T06:04:01Z</time>
      </trkpt>
      <trkpt lat="45.15179" lon="4.43746">
        <ele>1044.7</ele>
        <time>2026-04-24T06:04:06Z</time>
      </trkpt>
      <trkpt lat="45.15184" lon="4.43738">
        <ele>1046.3</ele>
        <time>2026-04-24T06:04:11Z</time>
      </trkpt>
      <trkpt lat="45.15189" lon="4.43729">
        <ele>1047.8</ele>
        <time>2026-04-24T06:04:16Z</time>
      </trkpt>
      <trkpt lat="45.15192" lon="4.4372">
        <ele>1049.1</ele>
        <time>2026-04-24T06:04:21Z</time>
      </trkpt>
      <trkpt lat="45.15196" lon="4.43712">
        <ele>1050.3</ele>
        <time>2026-04-24T06:04:26Z</time>
      </trkpt>
      <trkpt lat="45.152" lon="4.43705">
        <ele>1051.3</ele>
        <time>2026-04-24T06:04:31Z</time>
      </trkpt>
      <trkpt lat="45.15204" lon="4.43698">
        <ele>1052.2</ele>
        <time>2026-04-24T06:04:36Z</time>
      </trkpt>
      <trkpt lat="45.1521" lon="4.43693">
        <ele>1052.9</ele>
        <time>2026-04-24T06:04:41Z</time>
      </trkpt>
      <trkpt lat="45.15218" lon="4.4369">
        <ele>1053.3</ele>
        <time>2026-04-24T06:04:46Z</time>
      </trkpt>
      <trkpt lat="45.15224" lon="4.43689">
        <ele>1053.5</ele>
        <time>2026-04-24T06:04:51Z</time>
      </trkpt>
      <trkpt lat="45.15229" lon="4.4369">
        <ele>1053.5</ele>
        <time>2026-04-24T06:04:56Z</time>
      </trkpt>
      <trkpt lat="45.15236" lon="4.43691">
        <ele>1053.6</ele>
        <time>2026-04-24T06:05:01Z</time>
      </trkpt>
      <trkpt lat="45.15242" lon="4.43691">
        <ele>1053.7</ele>
        <time>2026-04-24T06:05:06Z</time>
      </trkpt>
      <trkpt lat="45.15249" lon="4.4369">
        <ele>1053.9</ele>
        <time>2026-04-24T06:05:11Z</time>
      </trkpt>
      <trkpt lat="45.15255" lon="4.43688">
        <ele>1054.5</ele>
        <time>2026-04-24T06:05:16Z</time>
      </trkpt>
      <trkpt lat="45.15261" lon="4.43685">
        <ele>1055.3</ele>
        <time>2026-04-24T06:05:21Z</time>
      </trkpt>
      <trkpt lat="45.15267" lon="4.43682">
        <ele>1056</ele>
        <time>2026-04-24T06:05:26Z</time>
      </trkpt>
      <trkpt lat="45.15272" lon="4.4368">
        <ele>1056.6</ele>
        <time>2026-04-24T06:05:31Z</time>
      </trkpt>
      <trkpt lat="45.15278" lon="4.43679">
        <ele>1057.2</ele>
        <time>2026-04-24T06:05:36Z</time>
      </trkpt>
      <trkpt lat="45.15281" lon="4.43678">
        <ele>1057.6</ele>
        <time>2026-04-24T06:05:41Z</time>
      </trkpt>
      <trkpt lat="45.15279" lon="4.43678">
        <ele>1057.4</ele>
        <time>2026-04-24T06:05:46Z</time>
      </trkpt>
      <trkpt lat="45.15275" lon="4.43676">
        <ele>1057.1</ele>
        <time>2026-04-24T06:05:51Z</time>
      </trkpt>
      <trkpt lat="45.1527" lon="4.43672">
        <ele>1056.7</ele>
        <time>2026-04-24T06:05:56Z</time>
      </trkpt>
      <trkpt lat="45.15264" lon="4.43668">
        <ele>1056.3</ele>
        <time>2026-04-24T06:06:01Z</time>
      </trkpt>
      <trkpt lat="45.1526" lon="4.43661">
        <ele>1056.5</ele>
        <time>2026-04-24T06:06:06Z</time>
      </trkpt>
      <trkpt lat="45.15257" lon="4.43652">
        <ele>1057.1</ele>
        <time>2026-04-24T06:06:11Z</time>
      </trkpt>
      <trkpt lat="45.15255" lon="4.43645">
        <ele>1057.5</ele>
        <time>2026-04-24T06:06:16Z</time>
      </trkpt>
      <trkpt lat="45.15254" lon="4.43637">
        <ele>1058.2</ele>
        <time>2026-04-24T06:06:21Z</time>
      </trkpt>
      <trkpt lat="45.15254" lon="4.43629">
        <ele>1059</ele>
        <time>2026-04-24T06:06:26Z</time>
      </trkpt>
      <trkpt lat="45.15256" lon="4.43622">
        <ele>1059.8</ele>
        <time>2026-04-24T06:06:31Z</time>
      </trkpt>
      <trkpt lat="45.15257" lon="4.43613">
        <ele>1060.8</ele>
        <time>2026-04-24T06:06:36Z</time>
      </trkpt>
      <trkpt lat="45.15256" lon="4.43606">
        <ele>1061.3</ele>
        <time>2026-04-24T06:06:41Z</time>
      </trkpt>
      <trkpt lat="45.15255" lon="4.43599">
        <ele>1061.9</ele>
        <time>2026-04-24T06:06:46Z</time>
      </trkpt>
      <trkpt lat="45.15255" lon="4.43592">
        <ele>1062.6</ele>
        <time>2026-04-24T06:06:51Z</time>
      </trkpt>
      <trkpt lat="45.15255" lon="4.43586">
        <ele>1063.2</ele>
        <time>2026-04-24T06:06:56Z</time>
      </trkpt>
      <trkpt lat="45.15254" lon="4.43578">
        <ele>1063.9</ele>
        <time>2026-04-24T06:07:01Z</time>
      </trkpt>
      <trkpt lat="45.15253" lon="4.4357">
        <ele>1064.7</ele>
        <time>2026-04-24T06:07:06Z</time>
      </trkpt>
      <trkpt lat="45.15252" lon="4.43563">
        <ele>1065.4</ele>
        <time>2026-04-24T06:07:11Z</time>
      </trkpt>
      <trkpt lat="45.1525" lon="4.43556">
        <ele>1066</ele>
        <time>2026-04-24T06:07:16Z</time>
      </trkpt>
      <trkpt lat="45.15248" lon="4.4355">
        <ele>1066.6</ele>
        <time>2026-04-24T06:07:21Z</time>
      </trkpt>
      <trkpt lat="45.15246" lon="4.43541">
        <ele>1067.6</ele>
        <time>2026-04-24T06:07:26Z</time>
      </trkpt>
      <trkpt lat="45.15244" lon="4.43532">
        <ele>1068.6</ele>
        <time>2026-04-24T06:07:31Z</time>
      </trkpt>
      <trkpt lat="45.15242" lon="4.43525">
        <ele>1069.3</ele>
        <time>2026-04-24T06:07:36Z</time>
      </trkpt>
      <trkpt lat="45.1524" lon="4.43516">
        <ele>1070.3</ele>
        <time>2026-04-24T06:07:41Z</time>
      </trkpt>
      <trkpt lat="45.15238" lon="4.43508">
        <ele>1071.1</ele>
        <time>2026-04-24T06:07:46Z</time>
      </trkpt>
      <trkpt lat="45.15237" lon="4.435">
        <ele>1071.8</ele>
        <time>2026-04-24T06:07:51Z</time>
      </trkpt>
      <trkpt lat="45.15237" lon="4.43493">
        <ele>1072.8</ele>
        <time>2026-04-24T06:07:56Z</time>
      </trkpt>
      <trkpt lat="45.15235" lon="4.43487">
        <ele>1073.7</ele>
        <time>2026-04-24T06:08:01Z</time>
      </trkpt>
      <trkpt lat="45.15234" lon="4.43481">
        <ele>1074.5</ele>
        <time>2026-04-24T06:08:06Z</time>
      </trkpt>
      <trkpt lat="45.15234" lon="4.43474">
        <ele>1075.5</ele>
        <time>2026-04-24T06:08:11Z</time>
      </trkpt>
      <trkpt lat="45.15235" lon="4.43469">
        <ele>1076.2</ele>
        <time>2026-04-24T06:08:16Z</time>
      </trkpt>
      <trkpt lat="45.15236" lon="4.43464">
        <ele>1076.9</ele>
        <time>2026-04-24T06:08:21Z</time>
      </trkpt>
      <trkpt lat="45.15238" lon="4.4346">
        <ele>1077.5</ele>
        <time>2026-04-24T06:08:26Z</time>
      </trkpt>
      <trkpt lat="45.1524" lon="4.43456">
        <ele>1078.2</ele>
        <time>2026-04-24T06:08:31Z</time>
      </trkpt>
      <trkpt lat="45.15242" lon="4.43449">
        <ele>1079.2</ele>
        <time>2026-04-24T06:08:36Z</time>
      </trkpt>
      <trkpt lat="45.15243" lon="4.43445">
        <ele>1079.8</ele>
        <time>2026-04-24T06:08:41Z</time>
      </trkpt>
      <trkpt lat="45.15246" lon="4.43441">
        <ele>1080.4</ele>
        <time>2026-04-24T06:08:46Z</time>
      </trkpt>
      <trkpt lat="45.15248" lon="4.43437">
        <ele>1081</ele>
        <time>2026-04-24T06:08:51Z</time>
      </trkpt>
      <trkpt lat="45.1525" lon="4.43432">
        <ele>1081.8</ele>
        <time>2026-04-24T06:08:56Z</time>
      </trkpt>
      <trkpt lat="45.15251" lon="4.43427">
        <ele>1082.5</ele>
        <time>2026-04-24T06:09:01Z</time>
      </trkpt>
      <trkpt lat="45.15253" lon="4.43422">
        <ele>1083.2</ele>
        <time>2026-04-24T06:09:06Z</time>
      </trkpt>
      <trkpt lat="45.15256" lon="4.43417">
        <ele>1084</ele>
        <time>2026-04-24T06:09:11Z</time>
      </trkpt>
      <trkpt lat="45.15258" lon="4.43411">
        <ele>1084.8</ele>
        <time>2026-04-24T06:09:16Z</time>
      </trkpt>
      <trkpt lat="45.15259" lon="4.43406">
        <ele>1085.4</ele>
        <time>2026-04-24T06:09:21Z</time>
      </trkpt>
      <trkpt lat="45.15261" lon="4.43401">
        <ele>1086.1</ele>
        <time>2026-04-24T06:09:26Z</time>
      </trkpt>
      <trkpt lat="45.15263" lon="4.43394">
        <ele>1087</ele>
        <time>2026-04-24T06:09:31Z</time>
      </trkpt>
      <trkpt lat="45.15266" lon="4.43388">
        <ele>1087.7</ele>
        <time>2026-04-24T06:09:36Z</time>
      </trkpt>
      <trkpt lat="45.15268" lon="4.43382">
        <ele>1088.4</ele>
        <time>2026-04-24T06:09:41Z</time>
      </trkpt>
      <trkpt lat="45.1527" lon="4.43376">
        <ele>1089</ele>
        <time>2026-04-24T06:09:46Z</time>
      </trkpt>
      <trkpt lat="45.15272" lon="4.43371">
        <ele>1089.6</ele>
        <time>2026-04-24T06:09:51Z</time>
      </trkpt>
      <trkpt lat="45.15275" lon="4.43365">
        <ele>1090.1</ele>
        <time>2026-04-24T06:09:56Z</time>
      </trkpt>
      <trkpt lat="45.15278" lon="4.43357">
        <ele>1090.9</ele>
        <time>2026-04-24T06:10:01Z</time>
      </trkpt>
      <trkpt lat="45.15281" lon="4.43352">
        <ele>1091.3</ele>
        <time>2026-04-24T06:10:06Z</time>
      </trkpt>
      <trkpt lat="45.15283" lon="4.43347">
        <ele>1091.7</ele>
        <time>2026-04-24T06:10:11Z</time>
      </trkpt>
      <trkpt lat="45.15285" lon="4.43341">
        <ele>1092.2</ele>
        <time>2026-04-24T06:10:16Z</time>
      </trkpt>
      <trkpt lat="45.15286" lon="4.43336">
        <ele>1092.7</ele>
        <time>2026-04-24T06:10:21Z</time>
      </trkpt>
      <trkpt lat="45.15286" lon="4.43335">
        <ele>1092.8</ele>
        <time>2026-04-24T06:10:26Z</time>
      </trkpt>
      <trkpt lat="45.15286" lon="4.43335">
        <ele>1092.8</ele>
        <time>2026-04-24T06:10:31Z</time>
      </trkpt>
      <trkpt lat="45.15286" lon="4.43335">
        <ele>1092.8</ele>
        <time>2026-04-24T06:10:36Z</time>
      </trkpt>
      <trkpt lat="45.15286" lon="4.43335">
        <ele>1092.8</ele>
        <time>2026-04-24T06:10:41Z</time>
      </trkpt>
      <trkpt lat="45.15289" lon="4.43332">
        <ele>1092.8</ele>
        <time>2026-04-24T06:10:46Z</time>
      </trkpt>
      <trkpt lat="45.15292" lon="4.43326">
        <ele>1092.8</ele>
        <time>2026-04-24T06:10:51Z</time>
      </trkpt>
      <trkpt lat="45.15295" lon="4.43318">
        <ele>1092.9</ele>
        <time>2026-04-24T06:10:56Z</time>
      </trkpt>
      <trkpt lat="45.15297" lon="4.43312">
        <ele>1093</ele>
        <time>2026-04-24T06:11:01Z</time>
      </trkpt>
      <trkpt lat="45.153" lon="4.43303">
        <ele>1093.1</ele>
        <time>2026-04-24T06:11:06Z</time>
      </trkpt>
      <trkpt lat="45.15304" lon="4.43294">
        <ele>1093.2</ele>
        <time>2026-04-24T06:11:11Z</time>
      </trkpt>
      <trkpt lat="45.15307" lon="4.43287">
        <ele>1093.3</ele>
        <time>2026-04-24T06:11:16Z</time>
      </trkpt>
      <trkpt lat="45.15311" lon="4.43277">
        <ele>1093.4</ele>
        <time>2026-04-24T06:11:21Z</time>
      </trkpt>
      <trkpt lat="45.15316" lon="4.43267">
        <ele>1093.5</ele>
        <time>2026-04-24T06:11:26Z</time>
      </trkpt>
      <trkpt lat="45.1532" lon="4.43259">
        <ele>1093.5</ele>
        <time>2026-04-24T06:11:31Z</time>
      </trkpt>
      <trkpt lat="45.15324" lon="4.43252">
        <ele>1093.6</ele>
        <time>2026-04-24T06:11:36Z</time>
      </trkpt>
      <trkpt lat="45.15327" lon="4.43245">
        <ele>1093.9</ele>
        <time>2026-04-24T06:11:41Z</time>
      </trkpt>
      <trkpt lat="45.15329" lon="4.43237">
        <ele>1094.5</ele>
        <time>2026-04-24T06:11:46Z</time>
      </trkpt>
      <trkpt lat="45.1533" lon="4.43228">
        <ele>1095.3</ele>
        <time>2026-04-24T06:11:51Z</time>
      </trkpt>
      <trkpt lat="45.15332" lon="4.43219">
        <ele>1096.1</ele>
        <time>2026-04-24T06:11:56Z</time>
      </trkpt>
      <trkpt lat="45.15336" lon="4.4321">
        <ele>1096.7</ele>
        <time>2026-04-24T06:12:01Z</time>
      </trkpt>
      <trkpt lat="45.15337" lon="4.432">
        <ele>1097.5</ele>
        <time>2026-04-24T06:12:06Z</time>
      </trkpt>
      <trkpt lat="45.1534" lon="4.4319">
        <ele>1098.1</ele>
        <time>2026-04-24T06:12:11Z</time>
      </trkpt>
      <trkpt lat="45.15346" lon="4.43185">
        <ele>1097.8</ele>
        <time>2026-04-24T06:12:16Z</time>
      </trkpt>
      <trkpt lat="45.15347" lon="4.43183">
        <ele>1097.8</ele>
        <time>2026-04-24T06:12:21Z</time>
      </trkpt>
      <trkpt lat="45.15347" lon="4.4318">
        <ele>1098.1</ele>
        <time>2026-04-24T06:12:26Z</time>
      </trkpt>
      <trkpt lat="45.15347" lon="4.4318">
        <ele>1098.1</ele>
        <time>2026-04-24T06:12:31Z</time>
      </trkpt>
      <trkpt lat="45.15347" lon="4.4318">
        <ele>1098.1</ele>
        <time>2026-04-24T06:12:36Z</time>
      </trkpt>
      <trkpt lat="45.15347" lon="4.4318">
        <ele>1098.1</ele>
        <time>2026-04-24T06:12:41Z</time>
      </trkpt>
      <trkpt lat="45.15347" lon="4.4318">
        <ele>1098.1</ele>
        <time>2026-04-24T06:12:46Z</time>
      </trkpt>
      <trkpt lat="45.15347" lon="4.4318">
        <ele>1098.1</ele>
        <time>2026-04-24T06:12:51Z</time>
      </trkpt>
      <trkpt lat="45.15347" lon="4.4318">
        <ele>1098.1</ele>
        <time>2026-04-24T06:12:56Z</time>
      </trkpt>
      <trkpt lat="45.15347" lon="4.4318">
        <ele>1098.1</ele>
        <time>2026-04-24T06:13:01Z</time>
      </trkpt>
      <trkpt lat="45.15347" lon="4.4318">
        <ele>1098.1</ele>
        <time>2026-04-24T06:13:06Z</time>
      </trkpt>
      <trkpt lat="45.15347" lon="4.4318">
        <ele>1098.1</ele>
        <time>2026-04-24T06:13:11Z</time>
      </trkpt>
      <trkpt lat="45.15347" lon="4.4318">
        <ele>1098.1</ele>
        <time>2026-04-24T06:13:16Z</time>
      </trkpt>
      <trkpt lat="45.15347" lon="4.4318">
        <ele>1098.1</ele>
        <time>2026-04-24T06:13:21Z</time>
      </trkpt>
      <trkpt lat="45.15347" lon="4.4318">
        <ele>1098.1</ele>
        <time>2026-04-24T06:13:26Z</time>
      </trkpt>
      <trkpt lat="45.15347" lon="4.4318">
        <ele>1098.1</ele>
        <time>2026-04-24T06:13:31Z</time>
      </trkpt>
      <trkpt lat="45.15347" lon="4.4318">
        <ele>1098.1</ele>
        <time>2026-04-24T06:13:36Z</time>
      </trkpt>
      <trkpt lat="45.15347" lon="4.4318">
        <ele>1098.1</ele>
        <time>2026-04-24T06:13:41Z</time>
      </trkpt>
      <trkpt lat="45.15347" lon="4.4318">
        <ele>1098.1</ele>
        <time>2026-04-24T06:13:46Z</time>
      </trkpt>
      <trkpt lat="45.15347" lon="4.4318">
        <ele>1098.1</ele>
        <time>2026-04-24T06:13:51Z</time>
      </trkpt>
      <trkpt lat="45.15347" lon="4.4318">
        <ele>1098.1</ele>
        <time>2026-04-24T06:13:56Z</time>
      </trkpt>
      <trkpt lat="45.15347" lon="4.4318">
        <ele>1098.1</ele>
        <time>2026-04-24T06:14:01Z</time>
      </trkpt>
      <trkpt lat="45.15347" lon="4.4318">
        <ele>1098.1</ele>
        <time>2026-04-24T06:14:06Z</time>
      </trkpt>
      <trkpt lat="45.15347" lon="4.4318">
        <ele>1098.1</ele>
        <time>2026-04-24T06:14:11Z</time>
      </trkpt>
      <trkpt lat="45.15347" lon="4.4318">
        <ele>1098.1</ele>
        <time>2026-04-24T06:14:16Z</time>
      </trkpt>
      <trkpt lat="45.15347" lon="4.4318">
        <ele>1098.1</ele>
        <time>2026-04-24T06:14:21Z</time>
      </trkpt>
      <trkpt lat="45.15347" lon="4.4318">
        <ele>1098.1</ele>
        <time>2026-04-24T06:14:26Z</time>
      </trkpt>
      <trkpt lat="45.15347" lon="4.4318">
        <ele>1098.1</ele>
        <time>2026-04-24T06:14:31Z</time>
      </trkpt>
      <trkpt lat="45.15347" lon="4.4318">
        <ele>1098.1</ele>
        <time>2026-04-24T06:14:36Z</time>
      </trkpt>
      <trkpt lat="45.15347" lon="4.4318">
        <ele>1098.1</ele>
        <time>2026-04-24T06:14:41Z</time>
      </trkpt>
      <trkpt lat="45.15347" lon="4.4318">
        <ele>1098.1</ele>
        <time>2026-04-24T06:14:46Z</time>
      </trkpt>
      <trkpt lat="45.15347" lon="4.4318">
        <ele>1098.1</ele>
        <time>2026-04-24T06:14:51Z</time>
      </trkpt>
      <trkpt lat="45.15347" lon="4.4318">
        <ele>1098.1</ele>
        <time>2026-04-24T06:14:56Z</time>
      </trkpt>
      <trkpt lat="45.15347" lon="4.4318">
        <ele>1098.1</ele>
        <time>2026-04-24T06:15:01Z</time>
      </trkpt>
      <trkpt lat="45.15347" lon="4.4318">
        <ele>1098.1</ele>
        <time>2026-04-24T06:15:06Z</time>
      </trkpt>
      <trkpt lat="45.15347" lon="4.4318">
        <ele>1098.1</ele>
        <time>2026-04-24T06:15:11Z</time>
      </trkpt>
      <trkpt lat="45.15347" lon="4.4318">
        <ele>1098.1</ele>
        <time>2026-04-24T06:15:16Z</time>
      </trkpt>
      <trkpt lat="45.15347" lon="4.4318">
        <ele>1098.1</ele>
        <time>2026-04-24T06:15:21Z</time>
      </trkpt>
      <trkpt lat="45.15347" lon="4.4318">
        <ele>1098.1</ele>
        <time>2026-04-24T06:15:26Z</time>
      </trkpt>
      <trkpt lat="45.15347" lon="4.4318">
        <ele>1098.1</ele>
        <time>2026-04-24T06:15:31Z</time>
      </trkpt>
      <trkpt lat="45.15347" lon="4.4318">
        <ele>1098.1</ele>
        <time>2026-04-24T06:15:36Z</time>
      </trkpt>
      <trkpt lat="45.15347" lon="4.4318">
        <ele>1098.1</ele>
        <time>2026-04-24T06:15:41Z</time>
      </trkpt>
      <trkpt lat="45.15347" lon="4.4318">
        <ele>1098.1</ele>
        <time>2026-04-24T06:15:46Z</time>
      </trkpt>
      <trkpt lat="45.15347" lon="4.4318">
        <ele>1098.1</ele>
        <time>2026-04-24T06:15:51Z</time>
      </trkpt>
      <trkpt lat="45.15347" lon="4.4318">
        <ele>1098.1</ele>
        <time>2026-04-24T06:15:56Z</time>
      </trkpt>
      <trkpt lat="45.15347" lon="4.4318">
        <ele>1098.1</ele>
        <time>2026-04-24T06:16:01Z</time>
      </trkpt>
      <trkpt lat="45.15347" lon="4.4318">
        <ele>1098.1</ele>
        <time>2026-04-24T06:16:06Z</time>
      </trkpt>
      <trkpt lat="45.15347" lon="4.4318">
        <ele>1098.1</ele>
        <time>2026-04-24T06:16:11Z</time>
      </trkpt>
      <trkpt lat="45.15353" lon="4.43183">
        <ele>1097.2</ele>
        <time>2026-04-24T06:16:16Z</time>
      </trkpt>
      <trkpt lat="45.15356" lon="4.43179">
        <ele>1097</ele>
        <time>2026-04-24T06:16:21Z</time>
      </trkpt>
      <trkpt lat="45.15359" lon="4.43172">
        <ele>1097</ele>
        <time>2026-04-24T06:16:26Z</time>
      </trkpt>
      <trkpt lat="45.15361" lon="4.4317">
        <ele>1096.9</ele>
        <time>2026-04-24T06:16:31Z</time>
      </trkpt>
      <trkpt lat="45.15361" lon="4.43168">
        <ele>1097</ele>
        <time>2026-04-24T06:16:36Z</time>
      </trkpt>
      <trkpt lat="45.15364" lon="4.43163">
        <ele>1096.8</ele>
        <time>2026-04-24T06:16:41Z</time>
      </trkpt>
      <trkpt lat="45.15368" lon="4.43155">
        <ele>1096.5</ele>
        <time>2026-04-24T06:16:46Z</time>
      </trkpt>
      <trkpt lat="45.1537" lon="4.43148">
        <ele>1096.5</ele>
        <time>2026-04-24T06:16:51Z</time>
      </trkpt>
      <trkpt lat="45.15372" lon="4.43142">
        <ele>1096.5</ele>
        <time>2026-04-24T06:16:56Z</time>
      </trkpt>
      <trkpt lat="45.15376" lon="4.43137">
        <ele>1096.1</ele>
        <time>2026-04-24T06:17:01Z</time>
      </trkpt>
      <trkpt lat="45.15379" lon="4.43131">
        <ele>1095.9</ele>
        <time>2026-04-24T06:17:06Z</time>
      </trkpt>
      <trkpt lat="45.15385" lon="4.43128">
        <ele>1095</ele>
        <time>2026-04-24T06:17:11Z</time>
      </trkpt>
      <trkpt lat="45.15393" lon="4.43127">
        <ele>1093.8</ele>
        <time>2026-04-24T06:17:16Z</time>
      </trkpt>
      <trkpt lat="45.154" lon="4.43125">
        <ele>1092.7</ele>
        <time>2026-04-24T06:17:21Z</time>
      </trkpt>
      <trkpt lat="45.15406" lon="4.43126">
        <ele>1091.7</ele>
        <time>2026-04-24T06:17:26Z</time>
      </trkpt>
      <trkpt lat="45.15412" lon="4.43126">
        <ele>1090.7</ele>
        <time>2026-04-24T06:17:31Z</time>
      </trkpt>
      <trkpt lat="45.15418" lon="4.43125">
        <ele>1089.8</ele>
        <time>2026-04-24T06:17:36Z</time>
      </trkpt>
      <trkpt lat="45.15424" lon="4.43125">
        <ele>1088.8</ele>
        <time>2026-04-24T06:17:41Z</time>
      </trkpt>
      <trkpt lat="45.15431" lon="4.43125">
        <ele>1087.7</ele>
        <time>2026-04-24T06:17:46Z</time>
      </trkpt>
      <trkpt lat="45.1544" lon="4.43122">
        <ele>1086.2</ele>
        <time>2026-04-24T06:17:51Z</time>
      </trkpt>
      <trkpt lat="45.15446" lon="4.43119">
        <ele>1085.1</ele>
        <time>2026-04-24T06:17:56Z</time>
      </trkpt>
      <trkpt lat="45.15451" lon="4.43114">
        <ele>1084</ele>
        <time>2026-04-24T06:18:01Z</time>
      </trkpt>
      <trkpt lat="45.15456" lon="4.43106">
        <ele>1082.7</ele>
        <time>2026-04-24T06:18:06Z</time>
      </trkpt>
      <trkpt lat="45.15462" lon="4.43098">
        <ele>1081</ele>
        <time>2026-04-24T06:18:11Z</time>
      </trkpt>
      <trkpt lat="45.15467" lon="4.43092">
        <ele>1079.5</ele>
        <time>2026-04-24T06:18:16Z</time>
      </trkpt>
      <trkpt lat="45.15473" lon="4.43084">
        <ele>1077.5</ele>
        <time>2026-04-24T06:18:21Z</time>
      </trkpt>
      <trkpt lat="45.15476" lon="4.43074">
        <ele>1076.4</ele>
        <time>2026-04-24T06:18:26Z</time>
      </trkpt>
      <trkpt lat="45.1548" lon="4.43064">
        <ele>1075</ele>
        <time>2026-04-24T06:18:31Z</time>
      </trkpt>
      <trkpt lat="45.15484" lon="4.43054">
        <ele>1073.6</ele>
        <time>2026-04-24T06:18:36Z</time>
      </trkpt>
      <trkpt lat="45.15487" lon="4.43047">
        <ele>1072.6</ele>
        <time>2026-04-24T06:18:41Z</time>
      </trkpt>
      <trkpt lat="45.1549" lon="4.43038">
        <ele>1071.4</ele>
        <time>2026-04-24T06:18:46Z</time>
      </trkpt>
      <trkpt lat="45.15492" lon="4.43028">
        <ele>1070.5</ele>
        <time>2026-04-24T06:18:51Z</time>
      </trkpt>
      <trkpt lat="45.15493" lon="4.43021">
        <ele>1069.9</ele>
        <time>2026-04-24T06:18:56Z</time>
      </trkpt>
      <trkpt lat="45.15495" lon="4.43012">
        <ele>1068.9</ele>
        <time>2026-04-24T06:19:01Z</time>
      </trkpt>
      <trkpt lat="45.15498" lon="4.43002">
        <ele>1067.6</ele>
        <time>2026-04-24T06:19:06Z</time>
      </trkpt>
      <trkpt lat="45.15499" lon="4.42991">
        <ele>1066.2</ele>
        <time>2026-04-24T06:19:11Z</time>
      </trkpt>
      <trkpt lat="45.15501" lon="4.42982">
        <ele>1065</ele>
        <time>2026-04-24T06:19:16Z</time>
      </trkpt>
      <trkpt lat="45.15503" lon="4.42974">
        <ele>1064.3</ele>
        <time>2026-04-24T06:19:21Z</time>
      </trkpt>
      <trkpt lat="45.15506" lon="4.42965">
        <ele>1063.7</ele>
        <time>2026-04-24T06:19:26Z</time>
      </trkpt>
      <trkpt lat="45.15507" lon="4.42956">
        <ele>1062.8</ele>
        <time>2026-04-24T06:19:31Z</time>
      </trkpt>
      <trkpt lat="45.15507" lon="4.42947">
        <ele>1061.7</ele>
        <time>2026-04-24T06:19:36Z</time>
      </trkpt>
      <trkpt lat="45.15509" lon="4.42937">
        <ele>1060.9</ele>
        <time>2026-04-24T06:19:41Z</time>
      </trkpt>
      <trkpt lat="45.1551" lon="4.42925">
        <ele>1059.6</ele>
        <time>2026-04-24T06:19:46Z</time>
      </trkpt>
      <trkpt lat="45.15513" lon="4.42915">
        <ele>1059</ele>
        <time>2026-04-24T06:19:51Z</time>
      </trkpt>
      <trkpt lat="45.15514" lon="4.42906">
        <ele>1058</ele>
        <time>2026-04-24T06:19:56Z</time>
      </trkpt>
      <trkpt lat="45.15515" lon="4.42896">
        <ele>1057</ele>
        <time>2026-04-24T06:20:01Z</time>
      </trkpt>
      <trkpt lat="45.15518" lon="4.42886">
        <ele>1056.3</ele>
        <time>2026-04-24T06:20:06Z</time>
      </trkpt>
      <trkpt lat="45.1552" lon="4.42874">
        <ele>1055.2</ele>
        <time>2026-04-24T06:20:11Z</time>
      </trkpt>
      <trkpt lat="45.15522" lon="4.42865">
        <ele>1054.5</ele>
        <time>2026-04-24T06:20:16Z</time>
      </trkpt>
      <trkpt lat="45.15525" lon="4.42856">
        <ele>1054.1</ele>
        <time>2026-04-24T06:20:21Z</time>
      </trkpt>
      <trkpt lat="45.15526" lon="4.42848">
        <ele>1053.3</ele>
        <time>2026-04-24T06:20:26Z</time>
      </trkpt>
      <trkpt lat="45.15528" lon="4.42839">
        <ele>1052.7</ele>
        <time>2026-04-24T06:20:31Z</time>
      </trkpt>
      <trkpt lat="45.15531" lon="4.42831">
        <ele>1052.5</ele>
        <time>2026-04-24T06:20:36Z</time>
      </trkpt>
      <trkpt lat="45.15534" lon="4.42825">
        <ele>1052.8</ele>
        <time>2026-04-24T06:20:41Z</time>
      </trkpt>
      <trkpt lat="45.15536" lon="4.42818">
        <ele>1052.7</ele>
        <time>2026-04-24T06:20:46Z</time>
      </trkpt>
      <trkpt lat="45.1554" lon="4.42812">
        <ele>1053.2</ele>
        <time>2026-04-24T06:20:51Z</time>
      </trkpt>
      <trkpt lat="45.15539" lon="4.42807">
        <ele>1052.7</ele>
        <time>2026-04-24T06:20:56Z</time>
      </trkpt>
      <trkpt lat="45.15538" lon="4.42806">
        <ele>1052.4</ele>
        <time>2026-04-24T06:21:01Z</time>
      </trkpt>
      <trkpt lat="45.15538" lon="4.42806">
        <ele>1052.4</ele>
        <time>2026-04-24T06:21:06Z</time>
      </trkpt>
      <trkpt lat="45.15538" lon="4.42806">
        <ele>1052.4</ele>
        <time>2026-04-24T06:21:11Z</time>
      </trkpt>
      <trkpt lat="45.15538" lon="4.42806">
        <ele>1052.4</ele>
        <time>2026-04-24T06:21:16Z</time>
      </trkpt>
      <trkpt lat="45.15535" lon="4.42798">
        <ele>1051.1</ele>
        <time>2026-04-24T06:21:21Z</time>
      </trkpt>
      <trkpt lat="45.15538" lon="4.4279">
        <ele>1051.3</ele>
        <time>2026-04-24T06:21:26Z</time>
      </trkpt>
      <trkpt lat="45.15539" lon="4.4278">
        <ele>1050.8</ele>
        <time>2026-04-24T06:21:31Z</time>
      </trkpt>
      <trkpt lat="45.15542" lon="4.42772">
        <ele>1051</ele>
        <time>2026-04-24T06:21:36Z</time>
      </trkpt>
      <trkpt lat="45.15545" lon="4.42767">
        <ele>1051.4</ele>
        <time>2026-04-24T06:21:41Z</time>
      </trkpt>
      <trkpt lat="45.15548" lon="4.42761">
        <ele>1051.8</ele>
        <time>2026-04-24T06:21:46Z</time>
      </trkpt>
      <trkpt lat="45.15549" lon="4.42753">
        <ele>1051.5</ele>
        <time>2026-04-24T06:21:51Z</time>
      </trkpt>
      <trkpt lat="45.15551" lon="4.42746">
        <ele>1051.4</ele>
        <time>2026-04-24T06:21:56Z</time>
      </trkpt>
      <trkpt lat="45.15552" lon="4.4274">
        <ele>1050.9</ele>
        <time>2026-04-24T06:22:01Z</time>
      </trkpt>
      <trkpt lat="45.15553" lon="4.42733">
        <ele>1050.3</ele>
        <time>2026-04-24T06:22:06Z</time>
      </trkpt>
      <trkpt lat="45.15557" lon="4.42726">
        <ele>1050.4</ele>
        <time>2026-04-24T06:22:11Z</time>
      </trkpt>
      <trkpt lat="45.1556" lon="4.4272">
        <ele>1050.4</ele>
        <time>2026-04-24T06:22:16Z</time>
      </trkpt>
      <trkpt lat="45.15561" lon="4.42713">
        <ele>1049.7</ele>
        <time>2026-04-24T06:22:21Z</time>
      </trkpt>
      <trkpt lat="45.15564" lon="4.42707">
        <ele>1049.7</ele>
        <time>2026-04-24T06:22:26Z</time>
      </trkpt>
      <trkpt lat="45.15566" lon="4.42698">
        <ele>1049</ele>
        <time>2026-04-24T06:22:31Z</time>
      </trkpt>
      <trkpt lat="45.15569" lon="4.4269">
        <ele>1048.7</ele>
        <time>2026-04-24T06:22:36Z</time>
      </trkpt>
      <trkpt lat="45.1557" lon="4.42682">
        <ele>1047.9</ele>
        <time>2026-04-24T06:22:41Z</time>
      </trkpt>
      <trkpt lat="45.15573" lon="4.42676">
        <ele>1047.8</ele>
        <time>2026-04-24T06:22:46Z</time>
      </trkpt>
      <trkpt lat="45.15577" lon="4.42671">
        <ele>1048.1</ele>
        <time>2026-04-24T06:22:51Z</time>
      </trkpt>
      <trkpt lat="45.1558" lon="4.42664">
        <ele>1047.9</ele>
        <time>2026-04-24T06:22:56Z</time>
      </trkpt>
      <trkpt lat="45.15584" lon="4.42657">
        <ele>1047.9</ele>
        <time>2026-04-24T06:23:01Z</time>
      </trkpt>
      <trkpt lat="45.1559" lon="4.42652">
        <ele>1047.8</ele>
        <time>2026-04-24T06:23:06Z</time>
      </trkpt>
      <trkpt lat="45.15594" lon="4.42655">
        <ele>1048.5</ele>
        <time>2026-04-24T06:23:11Z</time>
      </trkpt>
      <trkpt lat="45.15596" lon="4.42657">
        <ele>1049</ele>
        <time>2026-04-24T06:23:16Z</time>
      </trkpt>
      <trkpt lat="45.15599" lon="4.42657">
        <ele>1049.2</ele>
        <time>2026-04-24T06:23:21Z</time>
      </trkpt>
      <trkpt lat="45.15604" lon="4.42661">
        <ele>1050.2</ele>
        <time>2026-04-24T06:23:26Z</time>
      </trkpt>
      <trkpt lat="45.15608" lon="4.42666">
        <ele>1051.3</ele>
        <time>2026-04-24T06:23:31Z</time>
      </trkpt>
      <trkpt lat="45.15614" lon="4.42671">
        <ele>1052.6</ele>
        <time>2026-04-24T06:23:36Z</time>
      </trkpt>
      <trkpt lat="45.15618" lon="4.42674">
        <ele>1053.4</ele>
        <time>2026-04-24T06:23:41Z</time>
      </trkpt>
      <trkpt lat="45.15623" lon="4.42678">
        <ele>1054.4</ele>
        <time>2026-04-24T06:23:46Z</time>
      </trkpt>
      <trkpt lat="45.15628" lon="4.42681">
        <ele>1055.4</ele>
        <time>2026-04-24T06:23:51Z</time>
      </trkpt>
      <trkpt lat="45.15633" lon="4.42686">
        <ele>1056.6</ele>
        <time>2026-04-24T06:23:56Z</time>
      </trkpt>
      <trkpt lat="45.15637" lon="4.4269">
        <ele>1057.6</ele>
        <time>2026-04-24T06:24:01Z</time>
      </trkpt>
      <trkpt lat="45.1564" lon="4.42694">
        <ele>1058.5</ele>
        <time>2026-04-24T06:24:06Z</time>
      </trkpt>
      <trkpt lat="45.15644" lon="4.42698">
        <ele>1059.5</ele>
        <time>2026-04-24T06:24:11Z</time>
      </trkpt>
      <trkpt lat="45.15648" lon="4.42703">
        <ele>1060.7</ele>
        <time>2026-04-24T06:24:16Z</time>
      </trkpt>
      <trkpt lat="45.15651" lon="4.42707">
        <ele>1061.6</ele>
        <time>2026-04-24T06:24:21Z</time>
      </trkpt>
      <trkpt lat="45.15655" lon="4.42709">
        <ele>1062.3</ele>
        <time>2026-04-24T06:24:26Z</time>
      </trkpt>
      <trkpt lat="45.15658" lon="4.42711">
        <ele>1063</ele>
        <time>2026-04-24T06:24:31Z</time>
      </trkpt>
      <trkpt lat="45.15661" lon="4.42715">
        <ele>1063.9</ele>
        <time>2026-04-24T06:24:36Z</time>
      </trkpt>
      <trkpt lat="45.15665" lon="4.42719">
        <ele>1065</ele>
        <time>2026-04-24T06:24:41Z</time>
      </trkpt>
      <trkpt lat="45.15669" lon="4.42723">
        <ele>1065.8</ele>
        <time>2026-04-24T06:24:46Z</time>
      </trkpt>
      <trkpt lat="45.15672" lon="4.42727">
        <ele>1066.4</ele>
        <time>2026-04-24T06:24:51Z</time>
      </trkpt>
      <trkpt lat="45.15676" lon="4.42731">
        <ele>1067</ele>
        <time>2026-04-24T06:24:56Z</time>
      </trkpt>
      <trkpt lat="45.1568" lon="4.42734">
        <ele>1067.5</ele>
        <time>2026-04-24T06:25:01Z</time>
      </trkpt>
      <trkpt lat="45.15684" lon="4.4274">
        <ele>1068.5</ele>
        <time>2026-04-24T06:25:06Z</time>
      </trkpt>
      <trkpt lat="45.15688" lon="4.42745">
        <ele>1069.4</ele>
        <time>2026-04-24T06:25:11Z</time>
      </trkpt>
      <trkpt lat="45.15694" lon="4.42748">
        <ele>1070</ele>
        <time>2026-04-24T06:25:16Z</time>
      </trkpt>
      <trkpt lat="45.15699" lon="4.42751">
        <ele>1070.6</ele>
        <time>2026-04-24T06:25:21Z</time>
      </trkpt>
      <trkpt lat="45.15704" lon="4.42755">
        <ele>1071.3</ele>
        <time>2026-04-24T06:25:26Z</time>
      </trkpt>
      <trkpt lat="45.15708" lon="4.42759">
        <ele>1072.1</ele>
        <time>2026-04-24T06:25:31Z</time>
      </trkpt>
      <trkpt lat="45.15712" lon="4.42763">
        <ele>1072.9</ele>
        <time>2026-04-24T06:25:36Z</time>
      </trkpt>
      <trkpt lat="45.15716" lon="4.42768">
        <ele>1074</ele>
        <time>2026-04-24T06:25:41Z</time>
      </trkpt>
      <trkpt lat="45.15719" lon="4.42773">
        <ele>1075</ele>
        <time>2026-04-24T06:25:46Z</time>
      </trkpt>
      <trkpt lat="45.15721" lon="4.42777">
        <ele>1075.8</ele>
        <time>2026-04-24T06:25:51Z</time>
      </trkpt>
      <trkpt lat="45.15724" lon="4.42783">
        <ele>1077.1</ele>
        <time>2026-04-24T06:25:56Z</time>
      </trkpt>
      <trkpt lat="45.15728" lon="4.42788">
        <ele>1078.2</ele>
        <time>2026-04-24T06:26:01Z</time>
      </trkpt>
      <trkpt lat="45.15731" lon="4.42792">
        <ele>1079.2</ele>
        <time>2026-04-24T06:26:06Z</time>
      </trkpt>
      <trkpt lat="45.15735" lon="4.42794">
        <ele>1079.8</ele>
        <time>2026-04-24T06:26:11Z</time>
      </trkpt>
      <trkpt lat="45.1574" lon="4.42798">
        <ele>1080.8</ele>
        <time>2026-04-24T06:26:16Z</time>
      </trkpt>
      <trkpt lat="45.15745" lon="4.42802">
        <ele>1081.9</ele>
        <time>2026-04-24T06:26:21Z</time>
      </trkpt>
      <trkpt lat="45.15751" lon="4.42807">
        <ele>1083.2</ele>
        <time>2026-04-24T06:26:26Z</time>
      </trkpt>
      <trkpt lat="45.15755" lon="4.42809">
        <ele>1083</ele>
        <time>2026-04-24T06:26:31Z</time>
      </trkpt>
      <trkpt lat="45.15758" lon="4.42812">
        <ele>1083.2</ele>
        <time>2026-04-24T06:26:36Z</time>
      </trkpt>
      <trkpt lat="45.15763" lon="4.42815">
        <ele>1083.1</ele>
        <time>2026-04-24T06:26:41Z</time>
      </trkpt>
      <trkpt lat="45.15767" lon="4.42818">
        <ele>1083.2</ele>
        <time>2026-04-24T06:26:46Z</time>
      </trkpt>
      <trkpt lat="45.15772" lon="4.42821">
        <ele>1083.1</ele>
        <time>2026-04-24T06:26:51Z</time>
      </trkpt>
      <trkpt lat="45.15776" lon="4.42824">
        <ele>1083.1</ele>
        <time>2026-04-24T06:26:56Z</time>
      </trkpt>
      <trkpt lat="45.1578" lon="4.42826">
        <ele>1082.9</ele>
        <time>2026-04-24T06:27:01Z</time>
      </trkpt>
      <trkpt lat="45.15785" lon="4.42828">
        <ele>1082.5</ele>
        <time>2026-04-24T06:27:06Z</time>
      </trkpt>
      <trkpt lat="45.1579" lon="4.4283">
        <ele>1082.1</ele>
        <time>2026-04-24T06:27:11Z</time>
      </trkpt>
      <trkpt lat="45.15795" lon="4.42832">
        <ele>1081.7</ele>
        <time>2026-04-24T06:27:16Z</time>
      </trkpt>
      <trkpt lat="45.15799" lon="4.42836">
        <ele>1081.7</ele>
        <time>2026-04-24T06:27:21Z</time>
      </trkpt>
      <trkpt lat="45.15803" lon="4.42839">
        <ele>1081.4</ele>
        <time>2026-04-24T06:27:26Z</time>
      </trkpt>
      <trkpt lat="45.15806" lon="4.42843">
        <ele>1081.4</ele>
        <time>2026-04-24T06:27:31Z</time>
      </trkpt>
      <trkpt lat="45.1581" lon="4.42845">
        <ele>1081</ele>
        <time>2026-04-24T06:27:36Z</time>
      </trkpt>
      <trkpt lat="45.15815" lon="4.42847">
        <ele>1080.4</ele>
        <time>2026-04-24T06:27:41Z</time>
      </trkpt>
      <trkpt lat="45.15819" lon="4.4285">
        <ele>1080.1</ele>
        <time>2026-04-24T06:27:46Z</time>
      </trkpt>
      <trkpt lat="45.15824" lon="4.42851">
        <ele>1079.4</ele>
        <time>2026-04-24T06:27:51Z</time>
      </trkpt>
      <trkpt lat="45.15828" lon="4.42853">
        <ele>1079</ele>
        <time>2026-04-24T06:27:56Z</time>
      </trkpt>
      <trkpt lat="45.15832" lon="4.42857">
        <ele>1078.8</ele>
        <time>2026-04-24T06:28:01Z</time>
      </trkpt>
      <trkpt lat="45.15836" lon="4.4286">
        <ele>1078.9</ele>
        <time>2026-04-24T06:28:06Z</time>
      </trkpt>
      <trkpt lat="45.15839" lon="4.42862">
        <ele>1079.1</ele>
        <time>2026-04-24T06:28:11Z</time>
      </trkpt>
      <trkpt lat="45.15843" lon="4.42863">
        <ele>1079.2</ele>
        <time>2026-04-24T06:28:16Z</time>
      </trkpt>
      <trkpt lat="45.1585" lon="4.42853">
        <ele>1078.1</ele>
        <time>2026-04-24T06:28:21Z</time>
      </trkpt>
      <trkpt lat="45.15855" lon="4.42843">
        <ele>1077.2</ele>
        <time>2026-04-24T06:28:26Z</time>
      </trkpt>
      <trkpt lat="45.1586" lon="4.42836">
        <ele>1076.6</ele>
        <time>2026-04-24T06:28:31Z</time>
      </trkpt>
      <trkpt lat="45.15861" lon="4.42829">
        <ele>1075.8</ele>
        <time>2026-04-24T06:28:36Z</time>
      </trkpt>
      <trkpt lat="45.15863" lon="4.42822">
        <ele>1074.9</ele>
        <time>2026-04-24T06:28:41Z</time>
      </trkpt>
      <trkpt lat="45.15865" lon="4.42817">
        <ele>1074.4</ele>
        <time>2026-04-24T06:28:46Z</time>
      </trkpt>
      <trkpt lat="45.15866" lon="4.42811">
        <ele>1073.7</ele>
        <time>2026-04-24T06:28:51Z</time>
      </trkpt>
      <trkpt lat="45.15869" lon="4.42805">
        <ele>1073.1</ele>
        <time>2026-04-24T06:28:56Z</time>
      </trkpt>
      <trkpt lat="45.15872" lon="4.42797">
        <ele>1072.4</ele>
        <time>2026-04-24T06:29:01Z</time>
      </trkpt>
      <trkpt lat="45.15874" lon="4.42791">
        <ele>1071.9</ele>
        <time>2026-04-24T06:29:06Z</time>
      </trkpt>
      <trkpt lat="45.15876" lon="4.42784">
        <ele>1071.3</ele>
        <time>2026-04-24T06:29:11Z</time>
      </trkpt>
      <trkpt lat="45.15876" lon="4.42779">
        <ele>1070.7</ele>
        <time>2026-04-24T06:29:16Z</time>
      </trkpt>
      <trkpt lat="45.15879" lon="4.42771">
        <ele>1070.2</ele>
        <time>2026-04-24T06:29:21Z</time>
      </trkpt>
      <trkpt lat="45.15881" lon="4.42765">
        <ele>1069.8</ele>
        <time>2026-04-24T06:29:26Z</time>
      </trkpt>
      <trkpt lat="45.15882" lon="4.42762">
        <ele>1069.6</ele>
        <time>2026-04-24T06:29:31Z</time>
      </trkpt>
      <trkpt lat="45.15882" lon="4.42762">
        <ele>1069.6</ele>
        <time>2026-04-24T06:29:36Z</time>
      </trkpt>
      <trkpt lat="45.15882" lon="4.42762">
        <ele>1069.6</ele>
        <time>2026-04-24T06:29:41Z</time>
      </trkpt>
      <trkpt lat="45.15882" lon="4.42762">
        <ele>1069.6</ele>
        <time>2026-04-24T06:29:46Z</time>
      </trkpt>
      <trkpt lat="45.15882" lon="4.42762">
        <ele>1069.6</ele>
        <time>2026-04-24T06:29:51Z</time>
      </trkpt>
      <trkpt lat="45.15882" lon="4.42762">
        <ele>1069.6</ele>
        <time>2026-04-24T06:29:56Z</time>
      </trkpt>
      <trkpt lat="45.15882" lon="4.42762">
        <ele>1069.6</ele>
        <time>2026-04-24T06:30:01Z</time>
      </trkpt>
      <trkpt lat="45.15882" lon="4.42762">
        <ele>1069.6</ele>
        <time>2026-04-24T06:30:06Z</time>
      </trkpt>
      <trkpt lat="45.15882" lon="4.42762">
        <ele>1069.6</ele>
        <time>2026-04-24T06:30:11Z</time>
      </trkpt>
      <trkpt lat="45.15882" lon="4.42762">
        <ele>1069.6</ele>
        <time>2026-04-24T06:30:16Z</time>
      </trkpt>
      <trkpt lat="45.15882" lon="4.42762">
        <ele>1069.6</ele>
        <time>2026-04-24T06:30:21Z</time>
      </trkpt>
      <trkpt lat="45.15882" lon="4.42762">
        <ele>1069.6</ele>
        <time>2026-04-24T06:30:26Z</time>
      </trkpt>
      <trkpt lat="45.15882" lon="4.42762">
        <ele>1069.6</ele>
        <time>2026-04-24T06:30:31Z</time>
      </trkpt>
      <trkpt lat="45.15882" lon="4.42762">
        <ele>1069.6</ele>
        <time>2026-04-24T06:30:36Z</time>
      </trkpt>
      <trkpt lat="45.15882" lon="4.42762">
        <ele>1069.6</ele>
        <time>2026-04-24T06:30:41Z</time>
      </trkpt>
      <trkpt lat="45.15882" lon="4.42762">
        <ele>1069.6</ele>
        <time>2026-04-24T06:30:46Z</time>
      </trkpt>
      <trkpt lat="45.15882" lon="4.42762">
        <ele>1069.6</ele>
        <time>2026-04-24T06:30:51Z</time>
      </trkpt>
      <trkpt lat="45.15882" lon="4.42762">
        <ele>1069.6</ele>
        <time>2026-04-24T06:30:56Z</time>
      </trkpt>
      <trkpt lat="45.15882" lon="4.42762">
        <ele>1069.6</ele>
        <time>2026-04-24T06:31:01Z</time>
      </trkpt>
      <trkpt lat="45.15882" lon="4.42762">
        <ele>1069.6</ele>
        <time>2026-04-24T06:31:06Z</time>
      </trkpt>
      <trkpt lat="45.15882" lon="4.42762">
        <ele>1069.6</ele>
        <time>2026-04-24T06:31:11Z</time>
      </trkpt>
      <trkpt lat="45.15882" lon="4.42762">
        <ele>1069.6</ele>
        <time>2026-04-24T06:31:16Z</time>
      </trkpt>
      <trkpt lat="45.15882" lon="4.42762">
        <ele>1069.6</ele>
        <time>2026-04-24T06:31:21Z</time>
      </trkpt>
      <trkpt lat="45.15882" lon="4.42762">
        <ele>1069.6</ele>
        <time>2026-04-24T06:31:26Z</time>
      </trkpt>
      <trkpt lat="45.15882" lon="4.42762">
        <ele>1069.6</ele>
        <time>2026-04-24T06:31:31Z</time>
      </trkpt>
      <trkpt lat="45.15882" lon="4.42762">
        <ele>1069.6</ele>
        <time>2026-04-24T06:31:36Z</time>
      </trkpt>
      <trkpt lat="45.15882" lon="4.42762">
        <ele>1069.6</ele>
        <time>2026-04-24T06:31:41Z</time>
      </trkpt>
      <trkpt lat="45.15882" lon="4.42762">
        <ele>1069.6</ele>
        <time>2026-04-24T06:31:46Z</time>
      </trkpt>
      <trkpt lat="45.15882" lon="4.42762">
        <ele>1069.6</ele>
        <time>2026-04-24T06:31:51Z</time>
      </trkpt>
      <trkpt lat="45.15882" lon="4.42762">
        <ele>1069.6</ele>
        <time>2026-04-24T06:31:56Z</time>
      </trkpt>
      <trkpt lat="45.15882" lon="4.42762">
        <ele>1069.6</ele>
        <time>2026-04-24T06:32:01Z</time>
      </trkpt>
      <trkpt lat="45.15882" lon="4.42762">
        <ele>1069.6</ele>
        <time>2026-04-24T06:32:06Z</time>
      </trkpt>
      <trkpt lat="45.15882" lon="4.42762">
        <ele>1069.6</ele>
        <time>2026-04-24T06:32:11Z</time>
      </trkpt>
      <trkpt lat="45.15882" lon="4.42762">
        <ele>1069.6</ele>
        <time>2026-04-24T06:32:16Z</time>
      </trkpt>
      <trkpt lat="45.15882" lon="4.42762">
        <ele>1069.6</ele>
        <time>2026-04-24T06:32:21Z</time>
      </trkpt>
      <trkpt lat="45.15882" lon="4.42762">
        <ele>1069.6</ele>
        <time>2026-04-24T06:32:26Z</time>
      </trkpt>
      <trkpt lat="45.15882" lon="4.42762">
        <ele>1069.6</ele>
        <time>2026-04-24T06:32:31Z</time>
      </trkpt>
      <trkpt lat="45.15882" lon="4.42762">
        <ele>1069.6</ele>
        <time>2026-04-24T06:32:36Z</time>
      </trkpt>
      <trkpt lat="45.15882" lon="4.42762">
        <ele>1069.6</ele>
        <time>2026-04-24T06:32:41Z</time>
      </trkpt>
      <trkpt lat="45.15882" lon="4.42762">
        <ele>1069.6</ele>
        <time>2026-04-24T06:32:46Z</time>
      </trkpt>
      <trkpt lat="45.15882" lon="4.42762">
        <ele>1069.6</ele>
        <time>2026-04-24T06:32:51Z</time>
      </trkpt>
      <trkpt lat="45.15882" lon="4.42762">
        <ele>1069.6</ele>
        <time>2026-04-24T06:32:56Z</time>
      </trkpt>
      <trkpt lat="45.15882" lon="4.42762">
        <ele>1069.6</ele>
        <time>2026-04-24T06:33:01Z</time>
      </trkpt>
      <trkpt lat="45.15882" lon="4.42762">
        <ele>1069.6</ele>
        <time>2026-04-24T06:33:06Z</time>
      </trkpt>
      <trkpt lat="45.15882" lon="4.42762">
        <ele>1069.6</ele>
        <time>2026-04-24T06:33:11Z</time>
      </trkpt>
      <trkpt lat="45.15882" lon="4.42762">
        <ele>1069.6</ele>
        <time>2026-04-24T06:33:16Z</time>
      </trkpt>
      <trkpt lat="45.15882" lon="4.42762">
        <ele>1069.6</ele>
        <time>2026-04-24T06:33:21Z</time>
      </trkpt>
      <trkpt lat="45.15882" lon="4.42762">
        <ele>1069.6</ele>
        <time>2026-04-24T06:33:26Z</time>
      </trkpt>
      <trkpt lat="45.15882" lon="4.42762">
        <ele>1069.6</ele>
        <time>2026-04-24T06:33:31Z</time>
      </trkpt>
      <trkpt lat="45.15882" lon="4.42762">
        <ele>1069.6</ele>
        <time>2026-04-24T06:33:36Z</time>
      </trkpt>
      <trkpt lat="45.15882" lon="4.42762">
        <ele>1069.6</ele>
        <time>2026-04-24T06:33:41Z</time>
      </trkpt>
      <trkpt lat="45.15887" lon="4.4275">
        <ele>1069.1</ele>
        <time>2026-04-24T06:33:46Z</time>
      </trkpt>
      <trkpt lat="45.1589" lon="4.42741">
        <ele>1068.7</ele>
        <time>2026-04-24T06:33:51Z</time>
      </trkpt>
      <trkpt lat="45.15893" lon="4.42732">
        <ele>1068.4</ele>
        <time>2026-04-24T06:33:56Z</time>
      </trkpt>
      <trkpt lat="45.15895" lon="4.42725">
        <ele>1068.2</ele>
        <time>2026-04-24T06:34:01Z</time>
      </trkpt>
      <trkpt lat="45.15898" lon="4.42716">
        <ele>1068.1</ele>
        <time>2026-04-24T06:34:06Z</time>
      </trkpt>
      <trkpt lat="45.159" lon="4.42707">
        <ele>1067.9</ele>
        <time>2026-04-24T06:34:11Z</time>
      </trkpt>
      <trkpt lat="45.15902" lon="4.42697">
        <ele>1067.7</ele>
        <time>2026-04-24T06:34:16Z</time>
      </trkpt>
      <trkpt lat="45.15901" lon="4.42687">
        <ele>1066.8</ele>
        <time>2026-04-24T06:34:21Z</time>
      </trkpt>
      <trkpt lat="45.15903" lon="4.42677">
        <ele>1066.7</ele>
        <time>2026-04-24T06:34:26Z</time>
      </trkpt>
      <trkpt lat="45.15904" lon="4.42668">
        <ele>1066.4</ele>
        <time>2026-04-24T06:34:31Z</time>
      </trkpt>
      <trkpt lat="45.15905" lon="4.4266">
        <ele>1066.4</ele>
        <time>2026-04-24T06:34:36Z</time>
      </trkpt>
      <trkpt lat="45.15908" lon="4.4265">
        <ele>1066.9</ele>
        <time>2026-04-24T06:34:41Z</time>
      </trkpt>
      <trkpt lat="45.15911" lon="4.42642">
        <ele>1067.6</ele>
        <time>2026-04-24T06:34:46Z</time>
      </trkpt>
      <trkpt lat="45.15914" lon="4.42633">
        <ele>1068.3</ele>
        <time>2026-04-24T06:34:51Z</time>
      </trkpt>
      <trkpt lat="45.15916" lon="4.42623">
        <ele>1068.7</ele>
        <time>2026-04-24T06:34:56Z</time>
      </trkpt>
      <trkpt lat="45.15919" lon="4.42613">
        <ele>1069.1</ele>
        <time>2026-04-24T06:35:01Z</time>
      </trkpt>
      <trkpt lat="45.15922" lon="4.42606">
        <ele>1069.5</ele>
        <time>2026-04-24T06:35:06Z</time>
      </trkpt>
      <trkpt lat="45.15926" lon="4.42597">
        <ele>1070</ele>
        <time>2026-04-24T06:35:11Z</time>
      </trkpt>
      <trkpt lat="45.1593" lon="4.42585">
        <ele>1070.4</ele>
        <time>2026-04-24T06:35:16Z</time>
      </trkpt>
      <trkpt lat="45.15934" lon="4.42572">
        <ele>1070.7</ele>
        <time>2026-04-24T06:35:21Z</time>
      </trkpt>
      <trkpt lat="45.15938" lon="4.42562">
        <ele>1071</ele>
        <time>2026-04-24T06:35:26Z</time>
      </trkpt>
      <trkpt lat="45.1594" lon="4.42554">
        <ele>1071.1</ele>
        <time>2026-04-24T06:35:31Z</time>
      </trkpt>
      <trkpt lat="45.15942" lon="4.42545">
        <ele>1071.1</ele>
        <time>2026-04-24T06:35:36Z</time>
      </trkpt>
      <trkpt lat="45.15945" lon="4.42536">
        <ele>1071.4</ele>
        <time>2026-04-24T06:35:41Z</time>
      </trkpt>
      <trkpt lat="45.15946" lon="4.42526">
        <ele>1071.3</ele>
        <time>2026-04-24T06:35:46Z</time>
      </trkpt>
      <trkpt lat="45.1595" lon="4.42517">
        <ele>1071.8</ele>
        <time>2026-04-24T06:35:51Z</time>
      </trkpt>
      <trkpt lat="45.15954" lon="4.42507">
        <ele>1072.3</ele>
        <time>2026-04-24T06:35:56Z</time>
      </trkpt>
      <trkpt lat="45.15957" lon="4.42498">
        <ele>1072.6</ele>
        <time>2026-04-24T06:36:01Z</time>
      </trkpt>
      <trkpt lat="45.15961" lon="4.42491">
        <ele>1073</ele>
        <time>2026-04-24T06:36:06Z</time>
      </trkpt>
      <trkpt lat="45.15966" lon="4.42483">
        <ele>1073.6</ele>
        <time>2026-04-24T06:36:11Z</time>
      </trkpt>
      <trkpt lat="45.15971" lon="4.42476">
        <ele>1074.2</ele>
        <time>2026-04-24T06:36:16Z</time>
      </trkpt>
      <trkpt lat="45.15976" lon="4.42468">
        <ele>1074.8</ele>
        <time>2026-04-24T06:36:21Z</time>
      </trkpt>
      <trkpt lat="45.15979" lon="4.42459">
        <ele>1074.9</ele>
        <time>2026-04-24T06:36:26Z</time>
      </trkpt>
      <trkpt lat="45.15982" lon="4.4245">
        <ele>1075</ele>
        <time>2026-04-24T06:36:31Z</time>
      </trkpt>
      <trkpt lat="45.15984" lon="4.42442">
        <ele>1074.9</ele>
        <time>2026-04-24T06:36:36Z</time>
      </trkpt>
      <trkpt lat="45.15989" lon="4.42435">
        <ele>1075.6</ele>
        <time>2026-04-24T06:36:41Z</time>
      </trkpt>
      <trkpt lat="45.15993" lon="4.42425">
        <ele>1075.9</ele>
        <time>2026-04-24T06:36:46Z</time>
      </trkpt>
      <trkpt lat="45.15996" lon="4.42416">
        <ele>1076</ele>
        <time>2026-04-24T06:36:51Z</time>
      </trkpt>
      <trkpt lat="45.16" lon="4.42408">
        <ele>1076.5</ele>
        <time>2026-04-24T06:36:56Z</time>
      </trkpt>
      <trkpt lat="45.16004" lon="4.42399">
        <ele>1075.7</ele>
        <time>2026-04-24T06:37:01Z</time>
      </trkpt>
      <trkpt lat="45.16008" lon="4.42388">
        <ele>1074.9</ele>
        <time>2026-04-24T06:37:06Z</time>
      </trkpt>
      <trkpt lat="45.16012" lon="4.42382">
        <ele>1074.4</ele>
        <time>2026-04-24T06:37:11Z</time>
      </trkpt>
      <trkpt lat="45.16015" lon="4.42375">
        <ele>1073.9</ele>
        <time>2026-04-24T06:37:16Z</time>
      </trkpt>
      <trkpt lat="45.16019" lon="4.42367">
        <ele>1073.3</ele>
        <time>2026-04-24T06:37:21Z</time>
      </trkpt>
      <trkpt lat="45.16025" lon="4.42357">
        <ele>1072.7</ele>
        <time>2026-04-24T06:37:26Z</time>
      </trkpt>
      <trkpt lat="45.16028" lon="4.42351">
        <ele>1072.4</ele>
        <time>2026-04-24T06:37:31Z</time>
      </trkpt>
      <trkpt lat="45.16031" lon="4.42343">
        <ele>1072</ele>
        <time>2026-04-24T06:37:36Z</time>
      </trkpt>
      <trkpt lat="45.16034" lon="4.42336">
        <ele>1071.7</ele>
        <time>2026-04-24T06:37:41Z</time>
      </trkpt>
      <trkpt lat="45.16037" lon="4.42329">
        <ele>1071.3</ele>
        <time>2026-04-24T06:37:46Z</time>
      </trkpt>
      <trkpt lat="45.16039" lon="4.42323">
        <ele>1070.9</ele>
        <time>2026-04-24T06:37:51Z</time>
      </trkpt>
      <trkpt lat="45.16043" lon="4.42315">
        <ele>1070.4</ele>
        <time>2026-04-24T06:37:56Z</time>
      </trkpt>
      <trkpt lat="45.16045" lon="4.42312">
        <ele>1070.2</ele>
        <time>2026-04-24T06:38:01Z</time>
      </trkpt>
      <trkpt lat="45.16049" lon="4.42304">
        <ele>1069.8</ele>
        <time>2026-04-24T06:38:06Z</time>
      </trkpt>
      <trkpt lat="45.16052" lon="4.42297">
        <ele>1069.4</ele>
        <time>2026-04-24T06:38:11Z</time>
      </trkpt>
      <trkpt lat="45.16053" lon="4.42287">
        <ele>1068.9</ele>
        <time>2026-04-24T06:38:16Z</time>
      </trkpt>
      <trkpt lat="45.16056" lon="4.42279">
        <ele>1068.5</ele>
        <time>2026-04-24T06:38:21Z</time>
      </trkpt>
      <trkpt lat="45.1606" lon="4.42271">
        <ele>1068.2</ele>
        <time>2026-04-24T06:38:26Z</time>
      </trkpt>
      <trkpt lat="45.16064" lon="4.42265">
        <ele>1068</ele>
        <time>2026-04-24T06:38:31Z</time>
      </trkpt>
      <trkpt lat="45.16066" lon="4.42256">
        <ele>1067.7</ele>
        <time>2026-04-24T06:38:36Z</time>
      </trkpt>
      <trkpt lat="45.16067" lon="4.42247">
        <ele>1067.1</ele>
        <time>2026-04-24T06:38:41Z</time>
      </trkpt>
      <trkpt lat="45.16069" lon="4.42237">
        <ele>1066</ele>
        <time>2026-04-24T06:38:46Z</time>
      </trkpt>
      <trkpt lat="45.16072" lon="4.42229">
        <ele>1065.3</ele>
        <time>2026-04-24T06:38:51Z</time>
      </trkpt>
      <trkpt lat="45.16076" lon="4.42221">
        <ele>1064.5</ele>
        <time>2026-04-24T06:38:56Z</time>
      </trkpt>
      <trkpt lat="45.1608" lon="4.4221">
        <ele>1063.5</ele>
        <time>2026-04-24T06:39:01Z</time>
      </trkpt>
      <trkpt lat="45.16085" lon="4.42203">
        <ele>1062.8</ele>
        <time>2026-04-24T06:39:06Z</time>
      </trkpt>
      <trkpt lat="45.16089" lon="4.42195">
        <ele>1061.6</ele>
        <time>2026-04-24T06:39:11Z</time>
      </trkpt>
      <trkpt lat="45.16092" lon="4.42188">
        <ele>1060.7</ele>
        <time>2026-04-24T06:39:16Z</time>
      </trkpt>
      <trkpt lat="45.16094" lon="4.42181">
        <ele>1059.9</ele>
        <time>2026-04-24T06:39:21Z</time>
      </trkpt>
      <trkpt lat="45.16094" lon="4.42177">
        <ele>1059.5</ele>
        <time>2026-04-24T06:39:26Z</time>
      </trkpt>
      <trkpt lat="45.16094" lon="4.42177">
        <ele>1059.5</ele>
        <time>2026-04-24T06:39:31Z</time>
      </trkpt>
      <trkpt lat="45.16095" lon="4.42173">
        <ele>1059</ele>
        <time>2026-04-24T06:39:36Z</time>
      </trkpt>
      <trkpt lat="45.16098" lon="4.42165">
        <ele>1058.1</ele>
        <time>2026-04-24T06:39:41Z</time>
      </trkpt>
      <trkpt lat="45.16101" lon="4.42153">
        <ele>1056.3</ele>
        <time>2026-04-24T06:39:46Z</time>
      </trkpt>
      <trkpt lat="45.16106" lon="4.42143">
        <ele>1054.8</ele>
        <time>2026-04-24T06:39:51Z</time>
      </trkpt>
      <trkpt lat="45.16111" lon="4.42135">
        <ele>1053.6</ele>
        <time>2026-04-24T06:39:56Z</time>
      </trkpt>
      <trkpt lat="45.16113" lon="4.42128">
        <ele>1052.7</ele>
        <time>2026-04-24T06:40:01Z</time>
      </trkpt>
      <trkpt lat="45.16115" lon="4.42118">
        <ele>1051.4</ele>
        <time>2026-04-24T06:40:06Z</time>
      </trkpt>
      <trkpt lat="45.16117" lon="4.42109">
        <ele>1050.2</ele>
        <time>2026-04-24T06:40:11Z</time>
      </trkpt>
      <trkpt lat="45.16121" lon="4.42101">
        <ele>1049.2</ele>
        <time>2026-04-24T06:40:16Z</time>
      </trkpt>
      <trkpt lat="45.16122" lon="4.42094">
        <ele>1048.3</ele>
        <time>2026-04-24T06:40:21Z</time>
      </trkpt>
      <trkpt lat="45.16124" lon="4.42086">
        <ele>1047.3</ele>
        <time>2026-04-24T06:40:26Z</time>
      </trkpt>
      <trkpt lat="45.16129" lon="4.42077">
        <ele>1046</ele>
        <time>2026-04-24T06:40:31Z</time>
      </trkpt>
      <trkpt lat="45.16131" lon="4.42067">
        <ele>1044.3</ele>
        <time>2026-04-24T06:40:36Z</time>
      </trkpt>
      <trkpt lat="45.16133" lon="4.42059">
        <ele>1043.1</ele>
        <time>2026-04-24T06:40:41Z</time>
      </trkpt>
      <trkpt lat="45.16137" lon="4.42051">
        <ele>1041.9</ele>
        <time>2026-04-24T06:40:46Z</time>
      </trkpt>
      <trkpt lat="45.1614" lon="4.42042">
        <ele>1040.6</ele>
        <time>2026-04-24T06:40:51Z</time>
      </trkpt>
      <trkpt lat="45.16145" lon="4.42034">
        <ele>1039.6</ele>
        <time>2026-04-24T06:40:56Z</time>
      </trkpt>
      <trkpt lat="45.16149" lon="4.42024">
        <ele>1038.3</ele>
        <time>2026-04-24T06:41:01Z</time>
      </trkpt>
      <trkpt lat="45.16151" lon="4.42016">
        <ele>1037.2</ele>
        <time>2026-04-24T06:41:06Z</time>
      </trkpt>
      <trkpt lat="45.16155" lon="4.42011">
        <ele>1036.7</ele>
        <time>2026-04-24T06:41:11Z</time>
      </trkpt>
      <trkpt lat="45.16161" lon="4.42006">
        <ele>1036.4</ele>
        <time>2026-04-24T06:41:16Z</time>
      </trkpt>
      <trkpt lat="45.16166" lon="4.42001">
        <ele>1036.1</ele>
        <time>2026-04-24T06:41:21Z</time>
      </trkpt>
      <trkpt lat="45.16169" lon="4.41997">
        <ele>1035.2</ele>
        <time>2026-04-24T06:41:26Z</time>
      </trkpt>
      <trkpt lat="45.16173" lon="4.41992">
        <ele>1034</ele>
        <time>2026-04-24T06:41:31Z</time>
      </trkpt>
      <trkpt lat="45.16179" lon="4.41986">
        <ele>1032.5</ele>
        <time>2026-04-24T06:41:36Z</time>
      </trkpt>
      <trkpt lat="45.16183" lon="4.41982">
        <ele>1031.5</ele>
        <time>2026-04-24T06:41:41Z</time>
      </trkpt>
      <trkpt lat="45.1619" lon="4.41978">
        <ele>1030.5</ele>
        <time>2026-04-24T06:41:46Z</time>
      </trkpt>
      <trkpt lat="45.16196" lon="4.41972">
        <ele>1029.1</ele>
        <time>2026-04-24T06:41:51Z</time>
      </trkpt>
      <trkpt lat="45.16201" lon="4.41968">
        <ele>1028.2</ele>
        <time>2026-04-24T06:41:56Z</time>
      </trkpt>
      <trkpt lat="45.16204" lon="4.41962">
        <ele>1027</ele>
        <time>2026-04-24T06:42:01Z</time>
      </trkpt>
      <trkpt lat="45.16209" lon="4.41957">
        <ele>1026</ele>
        <time>2026-04-24T06:42:06Z</time>
      </trkpt>
      <trkpt lat="45.16212" lon="4.41953">
        <ele>1025.2</ele>
        <time>2026-04-24T06:42:11Z</time>
      </trkpt>
      <trkpt lat="45.16212" lon="4.41953">
        <ele>1025.2</ele>
        <time>2026-04-24T06:42:16Z</time>
      </trkpt>
      <trkpt lat="45.16212" lon="4.41953">
        <ele>1025.2</ele>
        <time>2026-04-24T06:42:21Z</time>
      </trkpt>
      <trkpt lat="45.16212" lon="4.41953">
        <ele>1025.2</ele>
        <time>2026-04-24T06:42:26Z</time>
      </trkpt>
      <trkpt lat="45.16212" lon="4.41953">
        <ele>1025.2</ele>
        <time>2026-04-24T06:42:31Z</time>
      </trkpt>
      <trkpt lat="45.16212" lon="4.41953">
        <ele>1025.2</ele>
        <time>2026-04-24T06:42:36Z</time>
      </trkpt>
      <trkpt lat="45.16215" lon="4.4195">
        <ele>1024.6</ele>
        <time>2026-04-24T06:42:41Z</time>
      </trkpt>
      <trkpt lat="45.16224" lon="4.41944">
        <ele>1023.5</ele>
        <time>2026-04-24T06:42:46Z</time>
      </trkpt>
      <trkpt lat="45.16229" lon="4.41938">
        <ele>1022.4</ele>
        <time>2026-04-24T06:42:51Z</time>
      </trkpt>
      <trkpt lat="45.16227" lon="4.41937">
        <ele>1022.2</ele>
        <time>2026-04-24T06:42:56Z</time>
      </trkpt>
      <trkpt lat="45.16226" lon="4.41937">
        <ele>1022.2</ele>
        <time>2026-04-24T06:43:01Z</time>
      </trkpt>
      <trkpt lat="45.16226" lon="4.41937">
        <ele>1022.2</ele>
        <time>2026-04-24T06:43:06Z</time>
      </trkpt>
      <trkpt lat="45.16226" lon="4.41937">
        <ele>1022.2</ele>
        <time>2026-04-24T06:43:11Z</time>
      </trkpt>
      <trkpt lat="45.16228" lon="4.41932">
        <ele>1021.4</ele>
        <time>2026-04-24T06:43:16Z</time>
      </trkpt>
      <trkpt lat="45.16238" lon="4.41926">
        <ele>1020.4</ele>
        <time>2026-04-24T06:43:21Z</time>
      </trkpt>
      <trkpt lat="45.16246" lon="4.41921">
        <ele>1019.6</ele>
        <time>2026-04-24T06:43:26Z</time>
      </trkpt>
      <trkpt lat="45.1625" lon="4.41916">
        <ele>1018.8</ele>
        <time>2026-04-24T06:43:31Z</time>
      </trkpt>
      <trkpt lat="45.16254" lon="4.41909">
        <ele>1017.1</ele>
        <time>2026-04-24T06:43:36Z</time>
      </trkpt>
      <trkpt lat="45.16258" lon="4.41905">
        <ele>1016.1</ele>
        <time>2026-04-24T06:43:41Z</time>
      </trkpt>
      <trkpt lat="45.16264" lon="4.419">
        <ele>1014.9</ele>
        <time>2026-04-24T06:43:46Z</time>
      </trkpt>
      <trkpt lat="45.16272" lon="4.41896">
        <ele>1013.9</ele>
        <time>2026-04-24T06:43:51Z</time>
      </trkpt>
      <trkpt lat="45.16277" lon="4.4189">
        <ele>1012.7</ele>
        <time>2026-04-24T06:43:56Z</time>
      </trkpt>
      <trkpt lat="45.16283" lon="4.41884">
        <ele>1011.5</ele>
        <time>2026-04-24T06:44:01Z</time>
      </trkpt>
      <trkpt lat="45.16286" lon="4.41877">
        <ele>1010.3</ele>
        <time>2026-04-24T06:44:06Z</time>
      </trkpt>
      <trkpt lat="45.1629" lon="4.41871">
        <ele>1009.3</ele>
        <time>2026-04-24T06:44:11Z</time>
      </trkpt>
      <trkpt lat="45.16295" lon="4.41865">
        <ele>1008.4</ele>
        <time>2026-04-24T06:44:16Z</time>
      </trkpt>
      <trkpt lat="45.16299" lon="4.41857">
        <ele>1007.3</ele>
        <time>2026-04-24T06:44:21Z</time>
      </trkpt>
      <trkpt lat="45.16303" lon="4.4185">
        <ele>1006.3</ele>
        <time>2026-04-24T06:44:26Z</time>
      </trkpt>
      <trkpt lat="45.16306" lon="4.41847">
        <ele>1006</ele>
        <time>2026-04-24T06:44:31Z</time>
      </trkpt>
      <trkpt lat="45.16308" lon="4.41841">
        <ele>1005.3</ele>
        <time>2026-04-24T06:44:36Z</time>
      </trkpt>
      <trkpt lat="45.16308" lon="4.41834">
        <ele>1004.3</ele>
        <time>2026-04-24T06:44:41Z</time>
      </trkpt>
      <trkpt lat="45.16307" lon="4.41826">
        <ele>1002.6</ele>
        <time>2026-04-24T06:44:46Z</time>
      </trkpt>
      <trkpt lat="45.16305" lon="4.41818">
        <ele>1000.9</ele>
        <time>2026-04-24T06:44:51Z</time>
      </trkpt>
      <trkpt lat="45.16301" lon="4.41812">
        <ele>999.4</ele>
        <time>2026-04-24T06:44:56Z</time>
      </trkpt>
      <trkpt lat="45.16293" lon="4.41805">
        <ele>997.3</ele>
        <time>2026-04-24T06:45:01Z</time>
      </trkpt>
      <trkpt lat="45.16286" lon="4.41799">
        <ele>995.5</ele>
        <time>2026-04-24T06:45:06Z</time>
      </trkpt>
      <trkpt lat="45.16279" lon="4.41792">
        <ele>993.5</ele>
        <time>2026-04-24T06:45:11Z</time>
      </trkpt>
      <trkpt lat="45.16276" lon="4.41791">
        <ele>993</ele>
        <time>2026-04-24T06:45:16Z</time>
      </trkpt>
      <trkpt lat="45.16275" lon="4.41794">
        <ele>993.6</ele>
        <time>2026-04-24T06:45:21Z</time>
      </trkpt>
      <trkpt lat="45.16275" lon="4.41795">
        <ele>993.8</ele>
        <time>2026-04-24T06:45:26Z</time>
      </trkpt>
      <trkpt lat="45.16275" lon="4.41795">
        <ele>993.8</ele>
        <time>2026-04-24T06:45:31Z</time>
      </trkpt>
      <trkpt lat="45.16265" lon="4.41789">
        <ele>991.7</ele>
        <time>2026-04-24T06:45:36Z</time>
      </trkpt>
      <trkpt lat="45.16258" lon="4.41787">
        <ele>990.7</ele>
        <time>2026-04-24T06:45:41Z</time>
      </trkpt>
      <trkpt lat="45.16252" lon="4.41785">
        <ele>989.7</ele>
        <time>2026-04-24T06:45:46Z</time>
      </trkpt>
      <trkpt lat="45.16248" lon="4.4178">
        <ele>988.1</ele>
        <time>2026-04-24T06:45:51Z</time>
      </trkpt>
      <trkpt lat="45.1625" lon="4.41775">
        <ele>987.4</ele>
        <time>2026-04-24T06:45:56Z</time>
      </trkpt>
      <trkpt lat="45.16255" lon="4.41774">
        <ele>987.6</ele>
        <time>2026-04-24T06:46:01Z</time>
      </trkpt>
      <trkpt lat="45.16263" lon="4.41771">
        <ele>987.7</ele>
        <time>2026-04-24T06:46:06Z</time>
      </trkpt>
      <trkpt lat="45.1627" lon="4.41766">
        <ele>987.3</ele>
        <time>2026-04-24T06:46:11Z</time>
      </trkpt>
      <trkpt lat="45.16273" lon="4.41761">
        <ele>986.5</ele>
        <time>2026-04-24T06:46:16Z</time>
      </trkpt>
      <trkpt lat="45.16277" lon="4.41755">
        <ele>985.6</ele>
        <time>2026-04-24T06:46:21Z</time>
      </trkpt>
      <trkpt lat="45.16283" lon="4.41751">
        <ele>985.4</ele>
        <time>2026-04-24T06:46:26Z</time>
      </trkpt>
      <trkpt lat="45.16288" lon="4.41748">
        <ele>985.1</ele>
        <time>2026-04-24T06:46:31Z</time>
      </trkpt>
      <trkpt lat="45.16295" lon="4.41743">
        <ele>984.2</ele>
        <time>2026-04-24T06:46:36Z</time>
      </trkpt>
      <trkpt lat="45.16301" lon="4.41739">
        <ele>983.6</ele>
        <time>2026-04-24T06:46:41Z</time>
      </trkpt>
      <trkpt lat="45.16307" lon="4.41735">
        <ele>982.9</ele>
        <time>2026-04-24T06:46:46Z</time>
      </trkpt>
      <trkpt lat="45.16314" lon="4.41732">
        <ele>982.6</ele>
        <time>2026-04-24T06:46:51Z</time>
      </trkpt>
      <trkpt lat="45.16319" lon="4.4173">
        <ele>982.5</ele>
        <time>2026-04-24T06:46:56Z</time>
      </trkpt>
      <trkpt lat="45.16324" lon="4.41728">
        <ele>982.3</ele>
        <time>2026-04-24T06:47:01Z</time>
      </trkpt>
      <trkpt lat="45.16332" lon="4.41723">
        <ele>981.5</ele>
        <time>2026-04-24T06:47:06Z</time>
      </trkpt>
      <trkpt lat="45.16338" lon="4.41719">
        <ele>980.2</ele>
        <time>2026-04-24T06:47:11Z</time>
      </trkpt>
      <trkpt lat="45.16344" lon="4.41717">
        <ele>979.3</ele>
        <time>2026-04-24T06:47:16Z</time>
      </trkpt>
      <trkpt lat="45.16349" lon="4.41717">
        <ele>979.1</ele>
        <time>2026-04-24T06:47:21Z</time>
      </trkpt>
      <trkpt lat="45.16354" lon="4.41716">
        <ele>978.6</ele>
        <time>2026-04-24T06:47:26Z</time>
      </trkpt>
      <trkpt lat="45.16359" lon="4.41715">
        <ele>978.1</ele>
        <time>2026-04-24T06:47:31Z</time>
      </trkpt>
      <trkpt lat="45.16364" lon="4.41714">
        <ele>977.6</ele>
        <time>2026-04-24T06:47:36Z</time>
      </trkpt>
      <trkpt lat="45.1637" lon="4.41716">
        <ele>978.1</ele>
        <time>2026-04-24T06:47:41Z</time>
      </trkpt>
      <trkpt lat="45.16377" lon="4.41718">
        <ele>978.5</ele>
        <time>2026-04-24T06:47:46Z</time>
      </trkpt>
      <trkpt lat="45.16383" lon="4.41719">
        <ele>978.6</ele>
        <time>2026-04-24T06:47:51Z</time>
      </trkpt>
      <trkpt lat="45.16386" lon="4.41721">
        <ele>979.2</ele>
        <time>2026-04-24T06:47:56Z</time>
      </trkpt>
      <trkpt lat="45.1639" lon="4.41726">
        <ele>980.9</ele>
        <time>2026-04-24T06:48:01Z</time>
      </trkpt>
      <trkpt lat="45.16398" lon="4.4173">
        <ele>982.1</ele>
        <time>2026-04-24T06:48:06Z</time>
      </trkpt>
      <trkpt lat="45.16405" lon="4.41737">
        <ele>984.4</ele>
        <time>2026-04-24T06:48:11Z</time>
      </trkpt>
      <trkpt lat="45.16407" lon="4.4174">
        <ele>985.5</ele>
        <time>2026-04-24T06:48:16Z</time>
      </trkpt>
      <trkpt lat="45.1641" lon="4.41746">
        <ele>987.6</ele>
        <time>2026-04-24T06:48:21Z</time>
      </trkpt>
      <trkpt lat="45.16413" lon="4.41753">
        <ele>989.5</ele>
        <time>2026-04-24T06:48:26Z</time>
      </trkpt>
      <trkpt lat="45.16418" lon="4.41758">
        <ele>989.7</ele>
        <time>2026-04-24T06:48:31Z</time>
      </trkpt>
      <trkpt lat="45.16422" lon="4.41764">
        <ele>989.3</ele>
        <time>2026-04-24T06:48:36Z</time>
      </trkpt>
      <trkpt lat="45.16427" lon="4.41771">
        <ele>988.6</ele>
        <time>2026-04-24T06:48:41Z</time>
      </trkpt>
      <trkpt lat="45.1643" lon="4.41775">
        <ele>988.2</ele>
        <time>2026-04-24T06:48:46Z</time>
      </trkpt>
      <trkpt lat="45.16434" lon="4.4178">
        <ele>987.5</ele>
        <time>2026-04-24T06:48:51Z</time>
      </trkpt>
      <trkpt lat="45.16438" lon="4.41784">
        <ele>986.6</ele>
        <time>2026-04-24T06:48:56Z</time>
      </trkpt>
      <trkpt lat="45.1644" lon="4.4179">
        <ele>986.7</ele>
        <time>2026-04-24T06:49:01Z</time>
      </trkpt>
      <trkpt lat="45.16444" lon="4.41796">
        <ele>986</ele>
        <time>2026-04-24T06:49:06Z</time>
      </trkpt>
      <trkpt lat="45.16446" lon="4.41803">
        <ele>986.1</ele>
        <time>2026-04-24T06:49:11Z</time>
      </trkpt>
      <trkpt lat="45.16449" lon="4.41811">
        <ele>986</ele>
        <time>2026-04-24T06:49:16Z</time>
      </trkpt>
      <trkpt lat="45.16452" lon="4.41819">
        <ele>985.8</ele>
        <time>2026-04-24T06:49:21Z</time>
      </trkpt>
      <trkpt lat="45.16457" lon="4.41826">
        <ele>984.7</ele>
        <time>2026-04-24T06:49:26Z</time>
      </trkpt>
      <trkpt lat="45.16461" lon="4.41833">
        <ele>983.9</ele>
        <time>2026-04-24T06:49:31Z</time>
      </trkpt>
      <trkpt lat="45.16461" lon="4.4184">
        <ele>983.6</ele>
        <time>2026-04-24T06:49:36Z</time>
      </trkpt>
      <trkpt lat="45.16463" lon="4.41843">
        <ele>982.7</ele>
        <time>2026-04-24T06:49:41Z</time>
      </trkpt>
      <trkpt lat="45.16464" lon="4.41838">
        <ele>982.6</ele>
        <time>2026-04-24T06:49:46Z</time>
      </trkpt>
      <trkpt lat="45.16465" lon="4.41834">
        <ele>982.4</ele>
        <time>2026-04-24T06:49:51Z</time>
      </trkpt>
      <trkpt lat="45.16465" lon="4.41827">
        <ele>981.8</ele>
        <time>2026-04-24T06:49:56Z</time>
      </trkpt>
      <trkpt lat="45.16468" lon="4.41817">
        <ele>979.7</ele>
        <time>2026-04-24T06:50:01Z</time>
      </trkpt>
      <trkpt lat="45.16471" lon="4.41811">
        <ele>978</ele>
        <time>2026-04-24T06:50:06Z</time>
      </trkpt>
      <trkpt lat="45.16471" lon="4.41805">
        <ele>977.4</ele>
        <time>2026-04-24T06:50:11Z</time>
      </trkpt>
      <trkpt lat="45.16472" lon="4.41797">
        <ele>976.3</ele>
        <time>2026-04-24T06:50:16Z</time>
      </trkpt>
      <trkpt lat="45.16471" lon="4.41787">
        <ele>975.6</ele>
        <time>2026-04-24T06:50:21Z</time>
      </trkpt>
      <trkpt lat="45.16469" lon="4.41779">
        <ele>975.5</ele>
        <time>2026-04-24T06:50:26Z</time>
      </trkpt>
      <trkpt lat="45.16467" lon="4.41771">
        <ele>975.4</ele>
        <time>2026-04-24T06:50:31Z</time>
      </trkpt>
      <trkpt lat="45.16466" lon="4.41761">
        <ele>974.7</ele>
        <time>2026-04-24T06:50:36Z</time>
      </trkpt>
      <trkpt lat="45.16467" lon="4.41749">
        <ele>973.1</ele>
        <time>2026-04-24T06:50:41Z</time>
      </trkpt>
      <trkpt lat="45.16471" lon="4.41737">
        <ele>969.1</ele>
        <time>2026-04-24T06:50:46Z</time>
      </trkpt>
      <trkpt lat="45.16476" lon="4.41725">
        <ele>965.2</ele>
        <time>2026-04-24T06:50:51Z</time>
      </trkpt>
      <trkpt lat="45.16477" lon="4.41714">
        <ele>962.7</ele>
        <time>2026-04-24T06:50:56Z</time>
      </trkpt>
      <trkpt lat="45.16482" lon="4.41704">
        <ele>959.7</ele>
        <time>2026-04-24T06:51:01Z</time>
      </trkpt>
      <trkpt lat="45.16483" lon="4.41693">
        <ele>957.4</ele>
        <time>2026-04-24T06:51:06Z</time>
      </trkpt>
      <trkpt lat="45.16481" lon="4.41682">
        <ele>955.6</ele>
        <time>2026-04-24T06:51:11Z</time>
      </trkpt>
      <trkpt lat="45.16477" lon="4.41671">
        <ele>953.8</ele>
        <time>2026-04-24T06:51:16Z</time>
      </trkpt>
      <trkpt lat="45.16473" lon="4.41662">
        <ele>953.1</ele>
        <time>2026-04-24T06:51:21Z</time>
      </trkpt>
      <trkpt lat="45.16475" lon="4.41652">
        <ele>952.6</ele>
        <time>2026-04-24T06:51:26Z</time>
      </trkpt>
      <trkpt lat="45.16482" lon="4.4165">
        <ele>952.1</ele>
        <time>2026-04-24T06:51:31Z</time>
      </trkpt>
      <trkpt lat="45.16489" lon="4.41656">
        <ele>951.8</ele>
        <time>2026-04-24T06:51:36Z</time>
      </trkpt>
      <trkpt lat="45.1649" lon="4.41656">
        <ele>951.7</ele>
        <time>2026-04-24T06:51:41Z</time>
      </trkpt>
      <trkpt lat="45.1649" lon="4.41656">
        <ele>951.7</ele>
        <time>2026-04-24T06:51:46Z</time>
      </trkpt>
      <trkpt lat="45.1649" lon="4.41656">
        <ele>951.7</ele>
        <time>2026-04-24T06:51:51Z</time>
      </trkpt>
      <trkpt lat="45.16499" lon="4.41661">
        <ele>951.1</ele>
        <time>2026-04-24T06:51:56Z</time>
      </trkpt>
      <trkpt lat="45.16505" lon="4.4166">
        <ele>950</ele>
        <time>2026-04-24T06:52:01Z</time>
      </trkpt>
      <trkpt lat="45.16511" lon="4.41657">
        <ele>948.9</ele>
        <time>2026-04-24T06:52:06Z</time>
      </trkpt>
      <trkpt lat="45.16513" lon="4.41657">
        <ele>948.5</ele>
        <time>2026-04-24T06:52:11Z</time>
      </trkpt>
      <trkpt lat="45.16519" lon="4.41658">
        <ele>947.3</ele>
        <time>2026-04-24T06:52:16Z</time>
      </trkpt>
      <trkpt lat="45.16522" lon="4.41658">
        <ele>946.7</ele>
        <time>2026-04-24T06:52:21Z</time>
      </trkpt>
      <trkpt lat="45.16525" lon="4.41656">
        <ele>946.3</ele>
        <time>2026-04-24T06:52:26Z</time>
      </trkpt>
      <trkpt lat="45.16525" lon="4.41654">
        <ele>946.4</ele>
        <time>2026-04-24T06:52:31Z</time>
      </trkpt>
      <trkpt lat="45.16526" lon="4.41653">
        <ele>946.3</ele>
        <time>2026-04-24T06:52:36Z</time>
      </trkpt>
      <trkpt lat="45.16526" lon="4.41653">
        <ele>946.3</ele>
        <time>2026-04-24T06:52:41Z</time>
      </trkpt>
      <trkpt lat="45.16526" lon="4.41653">
        <ele>946.3</ele>
        <time>2026-04-24T06:52:46Z</time>
      </trkpt>
      <trkpt lat="45.16528" lon="4.41654">
        <ele>945.9</ele>
        <time>2026-04-24T06:52:51Z</time>
      </trkpt>
      <trkpt lat="45.16535" lon="4.41659">
        <ele>944.1</ele>
        <time>2026-04-24T06:52:56Z</time>
      </trkpt>
      <trkpt lat="45.1654" lon="4.41662">
        <ele>942.8</ele>
        <time>2026-04-24T06:53:01Z</time>
      </trkpt>
      <trkpt lat="45.16547" lon="4.41663">
        <ele>941.3</ele>
        <time>2026-04-24T06:53:06Z</time>
      </trkpt>
      <trkpt lat="45.16554" lon="4.41665">
        <ele>939.6</ele>
        <time>2026-04-24T06:53:11Z</time>
      </trkpt>
      <trkpt lat="45.16554" lon="4.41664">
        <ele>939.7</ele>
        <time>2026-04-24T06:53:16Z</time>
      </trkpt>
      <trkpt lat="45.16554" lon="4.41664">
        <ele>939.7</ele>
        <time>2026-04-24T06:53:21Z</time>
      </trkpt>
      <trkpt lat="45.16554" lon="4.41664">
        <ele>939.7</ele>
        <time>2026-04-24T06:53:26Z</time>
      </trkpt>
      <trkpt lat="45.16554" lon="4.41664">
        <ele>939.7</ele>
        <time>2026-04-24T06:53:31Z</time>
      </trkpt>
      <trkpt lat="45.16554" lon="4.41664">
        <ele>939.7</ele>
        <time>2026-04-24T06:53:36Z</time>
      </trkpt>
      <trkpt lat="45.16554" lon="4.41664">
        <ele>939.7</ele>
        <time>2026-04-24T06:53:41Z</time>
      </trkpt>
      <trkpt lat="45.16554" lon="4.41664">
        <ele>939.7</ele>
        <time>2026-04-24T06:53:46Z</time>
      </trkpt>
      <trkpt lat="45.1656" lon="4.41663">
        <ele>938.6</ele>
        <time>2026-04-24T06:53:51Z</time>
      </trkpt>
      <trkpt lat="45.16564" lon="4.4166">
        <ele>938.3</ele>
        <time>2026-04-24T06:53:56Z</time>
      </trkpt>
      <trkpt lat="45.16572" lon="4.41658">
        <ele>937.1</ele>
        <time>2026-04-24T06:54:01Z</time>
      </trkpt>
      <trkpt lat="45.16577" lon="4.41657">
        <ele>936.3</ele>
        <time>2026-04-24T06:54:06Z</time>
      </trkpt>
      <trkpt lat="45.1658" lon="4.41657">
        <ele>935.7</ele>
        <time>2026-04-24T06:54:11Z</time>
      </trkpt>
      <trkpt lat="45.16584" lon="4.4166">
        <ele>934.5</ele>
        <time>2026-04-24T06:54:16Z</time>
      </trkpt>
      <trkpt lat="45.16584" lon="4.41662">
        <ele>934</ele>
        <time>2026-04-24T06:54:21Z</time>
      </trkpt>
      <trkpt lat="45.16584" lon="4.41662">
        <ele>934</ele>
        <time>2026-04-24T06:54:26Z</time>
      </trkpt>
      <trkpt lat="45.1659" lon="4.41662">
        <ele>934.3</ele>
        <time>2026-04-24T06:54:31Z</time>
      </trkpt>
      <trkpt lat="45.16593" lon="4.41663">
        <ele>934.2</ele>
        <time>2026-04-24T06:54:36Z</time>
      </trkpt>
      <trkpt lat="45.16596" lon="4.41664">
        <ele>934.2</ele>
        <time>2026-04-24T06:54:41Z</time>
      </trkpt>
      <trkpt lat="45.166" lon="4.41666">
        <ele>933.9</ele>
        <time>2026-04-24T06:54:46Z</time>
      </trkpt>
      <trkpt lat="45.16601" lon="4.41667">
        <ele>933.9</ele>
        <time>2026-04-24T06:54:51Z</time>
      </trkpt>
      <trkpt lat="45.16601" lon="4.41667">
        <ele>933.9</ele>
        <time>2026-04-24T06:54:56Z</time>
      </trkpt>
      <trkpt lat="45.16609" lon="4.41669">
        <ele>934.5</ele>
        <time>2026-04-24T06:55:01Z</time>
      </trkpt>
      <trkpt lat="45.16612" lon="4.41669">
        <ele>934.7</ele>
        <time>2026-04-24T06:55:06Z</time>
      </trkpt>
      <trkpt lat="45.16616" lon="4.41669">
        <ele>934.9</ele>
        <time>2026-04-24T06:55:11Z</time>
      </trkpt>
      <trkpt lat="45.16621" lon="4.41671">
        <ele>935.4</ele>
        <time>2026-04-24T06:55:16Z</time>
      </trkpt>
      <trkpt lat="45.16627" lon="4.41671">
        <ele>935.7</ele>
        <time>2026-04-24T06:55:21Z</time>
      </trkpt>
      <trkpt lat="45.1663" lon="4.41672">
        <ele>936</ele>
        <time>2026-04-24T06:55:26Z</time>
      </trkpt>
      <trkpt lat="45.16636" lon="4.41671">
        <ele>936.2</ele>
        <time>2026-04-24T06:55:31Z</time>
      </trkpt>
      <trkpt lat="45.16639" lon="4.4167">
        <ele>936.2</ele>
        <time>2026-04-24T06:55:36Z</time>
      </trkpt>
      <trkpt lat="45.16642" lon="4.41671">
        <ele>936.5</ele>
        <time>2026-04-24T06:55:41Z</time>
      </trkpt>
      <trkpt lat="45.16649" lon="4.4167">
        <ele>936.7</ele>
        <time>2026-04-24T06:55:46Z</time>
      </trkpt>
      <trkpt lat="45.16652" lon="4.41671">
        <ele>937.1</ele>
        <time>2026-04-24T06:55:51Z</time>
      </trkpt>
      <trkpt lat="45.16656" lon="4.41671">
        <ele>937.3</ele>
        <time>2026-04-24T06:55:56Z</time>
      </trkpt>
      <trkpt lat="45.1666" lon="4.4167">
        <ele>937.3</ele>
        <time>2026-04-24T06:56:01Z</time>
      </trkpt>
      <trkpt lat="45.16664" lon="4.41668">
        <ele>937.1</ele>
        <time>2026-04-24T06:56:06Z</time>
      </trkpt>
      <trkpt lat="45.16667" lon="4.41667">
        <ele>937.1</ele>
        <time>2026-04-24T06:56:11Z</time>
      </trkpt>
      <trkpt lat="45.16671" lon="4.41667">
        <ele>937.5</ele>
        <time>2026-04-24T06:56:16Z</time>
      </trkpt>
      <trkpt lat="45.16676" lon="4.41667">
        <ele>938</ele>
        <time>2026-04-24T06:56:21Z</time>
      </trkpt>
      <trkpt lat="45.1668" lon="4.41668">
        <ele>938.6</ele>
        <time>2026-04-24T06:56:26Z</time>
      </trkpt>
      <trkpt lat="45.16684" lon="4.41666">
        <ele>938.7</ele>
        <time>2026-04-24T06:56:31Z</time>
      </trkpt>
      <trkpt lat="45.16687" lon="4.41663">
        <ele>939.3</ele>
        <time>2026-04-24T06:56:36Z</time>
      </trkpt>
      <trkpt lat="45.16691" lon="4.41659">
        <ele>939.9</ele>
        <time>2026-04-24T06:56:41Z</time>
      </trkpt>
      <trkpt lat="45.16695" lon="4.41658">
        <ele>940.3</ele>
        <time>2026-04-24T06:56:46Z</time>
      </trkpt>
      <trkpt lat="45.16699" lon="4.41659">
        <ele>940.5</ele>
        <time>2026-04-24T06:56:51Z</time>
      </trkpt>
      <trkpt lat="45.16703" lon="4.41658">
        <ele>940.8</ele>
        <time>2026-04-24T06:56:56Z</time>
      </trkpt>
      <trkpt lat="45.16707" lon="4.41657">
        <ele>941.1</ele>
        <time>2026-04-24T06:57:01Z</time>
      </trkpt>
      <trkpt lat="45.1671" lon="4.41658">
        <ele>941.3</ele>
        <time>2026-04-24T06:57:06Z</time>
      </trkpt>
      <trkpt lat="45.16713" lon="4.4166">
        <ele>941.5</ele>
        <time>2026-04-24T06:57:11Z</time>
      </trkpt>
      <trkpt lat="45.16719" lon="4.41661">
        <ele>942</ele>
        <time>2026-04-24T06:57:16Z</time>
      </trkpt>
      <trkpt lat="45.16724" lon="4.4166">
        <ele>942.3</ele>
        <time>2026-04-24T06:57:21Z</time>
      </trkpt>
      <trkpt lat="45.16727" lon="4.41657">
        <ele>942.5</ele>
        <time>2026-04-24T06:57:26Z</time>
      </trkpt>
      <trkpt lat="45.16732" lon="4.41654">
        <ele>942.6</ele>
        <time>2026-04-24T06:57:31Z</time>
      </trkpt>
      <trkpt lat="45.16736" lon="4.41651">
        <ele>942.7</ele>
        <time>2026-04-24T06:57:36Z</time>
      </trkpt>
      <trkpt lat="45.16739" lon="4.41649">
        <ele>942.7</ele>
        <time>2026-04-24T06:57:41Z</time>
      </trkpt>
      <trkpt lat="45.16747" lon="4.41649">
        <ele>943</ele>
        <time>2026-04-24T06:57:46Z</time>
      </trkpt>
      <trkpt lat="45.16752" lon="4.41649">
        <ele>943.2</ele>
        <time>2026-04-24T06:57:51Z</time>
      </trkpt>
      <trkpt lat="45.16756" lon="4.41646">
        <ele>943.1</ele>
        <time>2026-04-24T06:57:56Z</time>
      </trkpt>
      <trkpt lat="45.16759" lon="4.41644">
        <ele>943</ele>
        <time>2026-04-24T06:58:01Z</time>
      </trkpt>
      <trkpt lat="45.16764" lon="4.41643">
        <ele>943.1</ele>
        <time>2026-04-24T06:58:06Z</time>
      </trkpt>
      <trkpt lat="45.16769" lon="4.4164">
        <ele>942.9</ele>
        <time>2026-04-24T06:58:11Z</time>
      </trkpt>
      <trkpt lat="45.16775" lon="4.41639">
        <ele>943</ele>
        <time>2026-04-24T06:58:16Z</time>
      </trkpt>
      <trkpt lat="45.16779" lon="4.41637">
        <ele>942.8</ele>
        <time>2026-04-24T06:58:21Z</time>
      </trkpt>
      <trkpt lat="45.16783" lon="4.41635">
        <ele>942.6</ele>
        <time>2026-04-24T06:58:26Z</time>
      </trkpt>
      <trkpt lat="45.16787" lon="4.41634">
        <ele>942.6</ele>
        <time>2026-04-24T06:58:31Z</time>
      </trkpt>
      <trkpt lat="45.16792" lon="4.41633">
        <ele>942.5</ele>
        <time>2026-04-24T06:58:36Z</time>
      </trkpt>
      <trkpt lat="45.16796" lon="4.41632">
        <ele>942.5</ele>
        <time>2026-04-24T06:58:41Z</time>
      </trkpt>
      <trkpt lat="45.16801" lon="4.41629">
        <ele>942</ele>
        <time>2026-04-24T06:58:46Z</time>
      </trkpt>
      <trkpt lat="45.16804" lon="4.41625">
        <ele>941.1</ele>
        <time>2026-04-24T06:58:51Z</time>
      </trkpt>
      <trkpt lat="45.1681" lon="4.41625">
        <ele>941.2</ele>
        <time>2026-04-24T06:58:56Z</time>
      </trkpt>
      <trkpt lat="45.16815" lon="4.41624">
        <ele>941</ele>
        <time>2026-04-24T06:59:01Z</time>
      </trkpt>
      <trkpt lat="45.16819" lon="4.41624">
        <ele>941.1</ele>
        <time>2026-04-24T06:59:06Z</time>
      </trkpt>
      <trkpt lat="45.16824" lon="4.41622">
        <ele>940.6</ele>
        <time>2026-04-24T06:59:11Z</time>
      </trkpt>
      <trkpt lat="45.16827" lon="4.4162">
        <ele>940.1</ele>
        <time>2026-04-24T06:59:16Z</time>
      </trkpt>
      <trkpt lat="45.16831" lon="4.41618">
        <ele>939.6</ele>
        <time>2026-04-24T06:59:21Z</time>
      </trkpt>
      <trkpt lat="45.16835" lon="4.41616">
        <ele>939.3</ele>
        <time>2026-04-24T06:59:26Z</time>
      </trkpt>
      <trkpt lat="45.1684" lon="4.41614">
        <ele>939.7</ele>
        <time>2026-04-24T06:59:31Z</time>
      </trkpt>
      <trkpt lat="45.16846" lon="4.41614">
        <ele>940.9</ele>
        <time>2026-04-24T06:59:36Z</time>
      </trkpt>
      <trkpt lat="45.16849" lon="4.41614">
        <ele>941.5</ele>
        <time>2026-04-24T06:59:41Z</time>
      </trkpt>
      <trkpt lat="45.1685" lon="4.41615">
        <ele>941.9</ele>
        <time>2026-04-24T06:59:46Z</time>
      </trkpt>
      <trkpt lat="45.1685" lon="4.41615">
        <ele>941.9</ele>
        <time>2026-04-24T06:59:51Z</time>
      </trkpt>
      <trkpt lat="45.1685" lon="4.41615">
        <ele>941.9</ele>
        <time>2026-04-24T06:59:56Z</time>
      </trkpt>
      <trkpt lat="45.1685" lon="4.41615">
        <ele>941.9</ele>
        <time>2026-04-24T07:00:01Z</time>
      </trkpt>
      <trkpt lat="45.1685" lon="4.41615">
        <ele>941.9</ele>
        <time>2026-04-24T07:00:06Z</time>
      </trkpt>
      <trkpt lat="45.1685" lon="4.41615">
        <ele>941.9</ele>
        <time>2026-04-24T07:00:11Z</time>
      </trkpt>
      <trkpt lat="45.1685" lon="4.41615">
        <ele>941.9</ele>
        <time>2026-04-24T07:00:16Z</time>
      </trkpt>
      <trkpt lat="45.1685" lon="4.41615">
        <ele>941.9</ele>
        <time>2026-04-24T07:00:21Z</time>
      </trkpt>
      <trkpt lat="45.1685" lon="4.41615">
        <ele>941.9</ele>
        <time>2026-04-24T07:00:26Z</time>
      </trkpt>
      <trkpt lat="45.1685" lon="4.41615">
        <ele>941.9</ele>
        <time>2026-04-24T07:00:31Z</time>
      </trkpt>
      <trkpt lat="45.1685" lon="4.41615">
        <ele>941.9</ele>
        <time>2026-04-24T07:00:36Z</time>
      </trkpt>
      <trkpt lat="45.1685" lon="4.41615">
        <ele>941.9</ele>
        <time>2026-04-24T07:00:41Z</time>
      </trkpt>
      <trkpt lat="45.1685" lon="4.41615">
        <ele>941.9</ele>
        <time>2026-04-24T07:00:46Z</time>
      </trkpt>
      <trkpt lat="45.1685" lon="4.41615">
        <ele>941.9</ele>
        <time>2026-04-24T07:00:51Z</time>
      </trkpt>
      <trkpt lat="45.1685" lon="4.41615">
        <ele>941.9</ele>
        <time>2026-04-24T07:00:56Z</time>
      </trkpt>
      <trkpt lat="45.1685" lon="4.41615">
        <ele>941.9</ele>
        <time>2026-04-24T07:01:01Z</time>
      </trkpt>
      <trkpt lat="45.1685" lon="4.41615">
        <ele>941.9</ele>
        <time>2026-04-24T07:01:06Z</time>
      </trkpt>
      <trkpt lat="45.1685" lon="4.41615">
        <ele>941.9</ele>
        <time>2026-04-24T07:01:11Z</time>
      </trkpt>
      <trkpt lat="45.1685" lon="4.41615">
        <ele>941.9</ele>
        <time>2026-04-24T07:01:16Z</time>
      </trkpt>
      <trkpt lat="45.1685" lon="4.41615">
        <ele>941.9</ele>
        <time>2026-04-24T07:01:21Z</time>
      </trkpt>
      <trkpt lat="45.1685" lon="4.41615">
        <ele>941.9</ele>
        <time>2026-04-24T07:01:26Z</time>
      </trkpt>
      <trkpt lat="45.1685" lon="4.41615">
        <ele>941.9</ele>
        <time>2026-04-24T07:01:31Z</time>
      </trkpt>
      <trkpt lat="45.1685" lon="4.41615">
        <ele>941.9</ele>
        <time>2026-04-24T07:01:36Z</time>
      </trkpt>
      <trkpt lat="45.1685" lon="4.41615">
        <ele>941.9</ele>
        <time>2026-04-24T07:01:41Z</time>
      </trkpt>
      <trkpt lat="45.1685" lon="4.41615">
        <ele>941.9</ele>
        <time>2026-04-24T07:01:46Z</time>
      </trkpt>
      <trkpt lat="45.1685" lon="4.41615">
        <ele>941.9</ele>
        <time>2026-04-24T07:01:51Z</time>
      </trkpt>
      <trkpt lat="45.1685" lon="4.41615">
        <ele>941.9</ele>
        <time>2026-04-24T07:01:56Z</time>
      </trkpt>
      <trkpt lat="45.1685" lon="4.41615">
        <ele>941.9</ele>
        <time>2026-04-24T07:02:01Z</time>
      </trkpt>
      <trkpt lat="45.1685" lon="4.41615">
        <ele>941.9</ele>
        <time>2026-04-24T07:02:06Z</time>
      </trkpt>
      <trkpt lat="45.1685" lon="4.41615">
        <ele>941.9</ele>
        <time>2026-04-24T07:02:11Z</time>
      </trkpt>
      <trkpt lat="45.1685" lon="4.41615">
        <ele>941.9</ele>
        <time>2026-04-24T07:02:16Z</time>
      </trkpt>
      <trkpt lat="45.16856" lon="4.41614">
        <ele>942.8</ele>
        <time>2026-04-24T07:02:21Z</time>
      </trkpt>
      <trkpt lat="45.1686" lon="4.41614">
        <ele>943.6</ele>
        <time>2026-04-24T07:02:26Z</time>
      </trkpt>
      <trkpt lat="45.16866" lon="4.41614">
        <ele>944.7</ele>
        <time>2026-04-24T07:02:31Z</time>
      </trkpt>
      <trkpt lat="45.16871" lon="4.41613">
        <ele>945.4</ele>
        <time>2026-04-24T07:02:36Z</time>
      </trkpt>
      <trkpt lat="45.16874" lon="4.41617">
        <ele>947.2</ele>
        <time>2026-04-24T07:02:41Z</time>
      </trkpt>
      <trkpt lat="45.16874" lon="4.41622">
        <ele>948.8</ele>
        <time>2026-04-24T07:02:46Z</time>
      </trkpt>
      <trkpt lat="45.16871" lon="4.41627">
        <ele>949.8</ele>
        <time>2026-04-24T07:02:51Z</time>
      </trkpt>
      <trkpt lat="45.16867" lon="4.41629">
        <ele>949.6</ele>
        <time>2026-04-24T07:02:56Z</time>
      </trkpt>
      <trkpt lat="45.16865" lon="4.41632">
        <ele>950.1</ele>
        <time>2026-04-24T07:03:01Z</time>
      </trkpt>
      <trkpt lat="45.16862" lon="4.41636">
        <ele>950.7</ele>
        <time>2026-04-24T07:03:06Z</time>
      </trkpt>
      <trkpt lat="45.16859" lon="4.41638">
        <ele>950.7</ele>
        <time>2026-04-24T07:03:11Z</time>
      </trkpt>
      <trkpt lat="45.16856" lon="4.4164">
        <ele>950.7</ele>
        <time>2026-04-24T07:03:16Z</time>
      </trkpt>
      <trkpt lat="45.16853" lon="4.41642">
        <ele>950.6</ele>
        <time>2026-04-24T07:03:21Z</time>
      </trkpt>
      <trkpt lat="45.1685" lon="4.41646">
        <ele>951.1</ele>
        <time>2026-04-24T07:03:26Z</time>
      </trkpt>
      <trkpt lat="45.16847" lon="4.41649">
        <ele>951.3</ele>
        <time>2026-04-24T07:03:31Z</time>
      </trkpt>
      <trkpt lat="45.16845" lon="4.41653">
        <ele>952</ele>
        <time>2026-04-24T07:03:36Z</time>
      </trkpt>
      <trkpt lat="45.16843" lon="4.41656">
        <ele>952.4</ele>
        <time>2026-04-24T07:03:41Z</time>
      </trkpt>
      <trkpt lat="45.16839" lon="4.41658">
        <ele>952</ele>
        <time>2026-04-24T07:03:46Z</time>
      </trkpt>
      <trkpt lat="45.16837" lon="4.4166">
        <ele>952.1</ele>
        <time>2026-04-24T07:03:51Z</time>
      </trkpt>
      <trkpt lat="45.16835" lon="4.41663">
        <ele>952.4</ele>
        <time>2026-04-24T07:03:56Z</time>
      </trkpt>
      <trkpt lat="45.16833" lon="4.41668">
        <ele>953.5</ele>
        <time>2026-04-24T07:04:01Z</time>
      </trkpt>
      <trkpt lat="45.1683" lon="4.41673">
        <ele>955.2</ele>
        <time>2026-04-24T07:04:06Z</time>
      </trkpt>
      <trkpt lat="45.16827" lon="4.41676">
        <ele>956</ele>
        <time>2026-04-24T07:04:11Z</time>
      </trkpt>
      <trkpt lat="45.16824" lon="4.41681">
        <ele>957.6</ele>
        <time>2026-04-24T07:04:16Z</time>
      </trkpt>
      <trkpt lat="45.16821" lon="4.41685">
        <ele>958.8</ele>
        <time>2026-04-24T07:04:21Z</time>
      </trkpt>
      <trkpt lat="45.16817" lon="4.41688">
        <ele>959.4</ele>
        <time>2026-04-24T07:04:26Z</time>
      </trkpt>
      <trkpt lat="45.16814" lon="4.41692">
        <ele>960.5</ele>
        <time>2026-04-24T07:04:31Z</time>
      </trkpt>
      <trkpt lat="45.16811" lon="4.41696">
        <ele>961.6</ele>
        <time>2026-04-24T07:04:36Z</time>
      </trkpt>
      <trkpt lat="45.16809" lon="4.41701">
        <ele>963.2</ele>
        <time>2026-04-24T07:04:41Z</time>
      </trkpt>
      <trkpt lat="45.16807" lon="4.41705">
        <ele>964.3</ele>
        <time>2026-04-24T07:04:46Z</time>
      </trkpt>
      <trkpt lat="45.16803" lon="4.41709">
        <ele>965.2</ele>
        <time>2026-04-24T07:04:51Z</time>
      </trkpt>
      <trkpt lat="45.168" lon="4.41713">
        <ele>966.1</ele>
        <time>2026-04-24T07:04:56Z</time>
      </trkpt>
      <trkpt lat="45.16797" lon="4.41717">
        <ele>967.1</ele>
        <time>2026-04-24T07:05:01Z</time>
      </trkpt>
      <trkpt lat="45.16795" lon="4.41722">
        <ele>968.5</ele>
        <time>2026-04-24T07:05:06Z</time>
      </trkpt>
      <trkpt lat="45.16793" lon="4.41725">
        <ele>969.2</ele>
        <time>2026-04-24T07:05:11Z</time>
      </trkpt>
      <trkpt lat="45.1679" lon="4.4173">
        <ele>970.4</ele>
        <time>2026-04-24T07:05:16Z</time>
      </trkpt>
      <trkpt lat="45.16787" lon="4.41733">
        <ele>970.8</ele>
        <time>2026-04-24T07:05:21Z</time>
      </trkpt>
      <trkpt lat="45.16784" lon="4.41736">
        <ele>971.3</ele>
        <time>2026-04-24T07:05:26Z</time>
      </trkpt>
      <trkpt lat="45.16781" lon="4.41739">
        <ele>971.7</ele>
        <time>2026-04-24T07:05:31Z</time>
      </trkpt>
      <trkpt lat="45.16779" lon="4.41743">
        <ele>972.6</ele>
        <time>2026-04-24T07:05:36Z</time>
      </trkpt>
      <trkpt lat="45.16776" lon="4.41747">
        <ele>973.3</ele>
        <time>2026-04-24T07:05:41Z</time>
      </trkpt>
      <trkpt lat="45.16774" lon="4.4175">
        <ele>973.9</ele>
        <time>2026-04-24T07:05:46Z</time>
      </trkpt>
      <trkpt lat="45.16771" lon="4.41755">
        <ele>974.5</ele>
        <time>2026-04-24T07:05:51Z</time>
      </trkpt>
      <trkpt lat="45.16769" lon="4.41759">
        <ele>975.1</ele>
        <time>2026-04-24T07:05:56Z</time>
      </trkpt>
      <trkpt lat="45.16767" lon="4.41763">
        <ele>975.7</ele>
        <time>2026-04-24T07:06:01Z</time>
      </trkpt>
      <trkpt lat="45.16763" lon="4.41767">
        <ele>975.9</ele>
        <time>2026-04-24T07:06:06Z</time>
      </trkpt>
      <trkpt lat="45.1676" lon="4.41771">
        <ele>976.3</ele>
        <time>2026-04-24T07:06:11Z</time>
      </trkpt>
      <trkpt lat="45.1676" lon="4.41773">
        <ele>976.8</ele>
        <time>2026-04-24T07:06:16Z</time>
      </trkpt>
      <trkpt lat="45.1676" lon="4.41773">
        <ele>976.8</ele>
        <time>2026-04-24T07:06:21Z</time>
      </trkpt>
      <trkpt lat="45.1676" lon="4.41773">
        <ele>976.8</ele>
        <time>2026-04-24T07:06:26Z</time>
      </trkpt>
      <trkpt lat="45.1676" lon="4.41773">
        <ele>976.8</ele>
        <time>2026-04-24T07:06:31Z</time>
      </trkpt>
      <trkpt lat="45.1676" lon="4.41773">
        <ele>976.8</ele>
        <time>2026-04-24T07:06:36Z</time>
      </trkpt>
      <trkpt lat="45.1676" lon="4.41773">
        <ele>976.8</ele>
        <time>2026-04-24T07:06:41Z</time>
      </trkpt>
      <trkpt lat="45.1676" lon="4.41773">
        <ele>976.8</ele>
        <time>2026-04-24T07:06:46Z</time>
      </trkpt>
      <trkpt lat="45.1676" lon="4.41773">
        <ele>976.8</ele>
        <time>2026-04-24T07:06:51Z</time>
      </trkpt>
      <trkpt lat="45.1676" lon="4.41773">
        <ele>976.8</ele>
        <time>2026-04-24T07:06:56Z</time>
      </trkpt>
      <trkpt lat="45.16756" lon="4.41778">
        <ele>977.3</ele>
        <time>2026-04-24T07:07:01Z</time>
      </trkpt>
      <trkpt lat="45.16753" lon="4.41782">
        <ele>977.7</ele>
        <time>2026-04-24T07:07:06Z</time>
      </trkpt>
      <trkpt lat="45.16748" lon="4.41787">
        <ele>977.9</ele>
        <time>2026-04-24T07:07:11Z</time>
      </trkpt>
      <trkpt lat="45.16746" lon="4.41792">
        <ele>978.6</ele>
        <time>2026-04-24T07:07:16Z</time>
      </trkpt>
      <trkpt lat="45.16744" lon="4.41794">
        <ele>978.6</ele>
        <time>2026-04-24T07:07:21Z</time>
      </trkpt>
      <trkpt lat="45.16742" lon="4.41798">
        <ele>979.1</ele>
        <time>2026-04-24T07:07:26Z</time>
      </trkpt>
      <trkpt lat="45.1674" lon="4.41803">
        <ele>979.8</ele>
        <time>2026-04-24T07:07:31Z</time>
      </trkpt>
      <trkpt lat="45.16737" lon="4.41808">
        <ele>980.3</ele>
        <time>2026-04-24T07:07:36Z</time>
      </trkpt>
      <trkpt lat="45.16734" lon="4.41812">
        <ele>980.4</ele>
        <time>2026-04-24T07:07:41Z</time>
      </trkpt>
      <trkpt lat="45.16732" lon="4.41817">
        <ele>981</ele>
        <time>2026-04-24T07:07:46Z</time>
      </trkpt>
      <trkpt lat="45.16729" lon="4.41821">
        <ele>981.1</ele>
        <time>2026-04-24T07:07:51Z</time>
      </trkpt>
      <trkpt lat="45.16727" lon="4.41825">
        <ele>981.5</ele>
        <time>2026-04-24T07:07:56Z</time>
      </trkpt>
      <trkpt lat="45.16724" lon="4.4183">
        <ele>981.8</ele>
        <time>2026-04-24T07:08:01Z</time>
      </trkpt>
      <trkpt lat="45.16722" lon="4.41835">
        <ele>982.2</ele>
        <time>2026-04-24T07:08:06Z</time>
      </trkpt>
      <trkpt lat="45.16719" lon="4.4184">
        <ele>981.9</ele>
        <time>2026-04-24T07:08:11Z</time>
      </trkpt>
      <trkpt lat="45.16716" lon="4.41845">
        <ele>981.7</ele>
        <time>2026-04-24T07:08:16Z</time>
      </trkpt>
      <trkpt lat="45.16714" lon="4.41851">
        <ele>981.8</ele>
        <time>2026-04-24T07:08:21Z</time>
      </trkpt>
      <trkpt lat="45.1671" lon="4.41856">
        <ele>981.1</ele>
        <time>2026-04-24T07:08:26Z</time>
      </trkpt>
      <trkpt lat="45.16707" lon="4.41861">
        <ele>980.7</ele>
        <time>2026-04-24T07:08:31Z</time>
      </trkpt>
      <trkpt lat="45.16704" lon="4.41866">
        <ele>980.3</ele>
        <time>2026-04-24T07:08:36Z</time>
      </trkpt>
      <trkpt lat="45.16701" lon="4.4187">
        <ele>979.7</ele>
        <time>2026-04-24T07:08:41Z</time>
      </trkpt>
      <trkpt lat="45.16699" lon="4.41874">
        <ele>979.5</ele>
        <time>2026-04-24T07:08:46Z</time>
      </trkpt>
      <trkpt lat="45.16696" lon="4.41878">
        <ele>978.8</ele>
        <time>2026-04-24T07:08:51Z</time>
      </trkpt>
      <trkpt lat="45.16692" lon="4.41882">
        <ele>977.8</ele>
        <time>2026-04-24T07:08:56Z</time>
      </trkpt>
      <trkpt lat="45.1669" lon="4.41887">
        <ele>977.6</ele>
        <time>2026-04-24T07:09:01Z</time>
      </trkpt>
      <trkpt lat="45.16687" lon="4.41893">
        <ele>977</ele>
        <time>2026-04-24T07:09:06Z</time>
      </trkpt>
      <trkpt lat="45.16686" lon="4.41899">
        <ele>977.2</ele>
        <time>2026-04-24T07:09:11Z</time>
      </trkpt>
      <trkpt lat="45.16684" lon="4.41906">
        <ele>977</ele>
        <time>2026-04-24T07:09:16Z</time>
      </trkpt>
      <trkpt lat="45.16683" lon="4.41911">
        <ele>977</ele>
        <time>2026-04-24T07:09:21Z</time>
      </trkpt>
      <trkpt lat="45.16683" lon="4.41918">
        <ele>977.4</ele>
        <time>2026-04-24T07:09:26Z</time>
      </trkpt>
      <trkpt lat="45.16683" lon="4.41924">
        <ele>977.2</ele>
        <time>2026-04-24T07:09:31Z</time>
      </trkpt>
      <trkpt lat="45.16684" lon="4.41929">
        <ele>977.4</ele>
        <time>2026-04-24T07:09:36Z</time>
      </trkpt>
      <trkpt lat="45.16684" lon="4.41934">
        <ele>977.2</ele>
        <time>2026-04-24T07:09:41Z</time>
      </trkpt>
      <trkpt lat="45.16685" lon="4.41938">
        <ele>977.5</ele>
        <time>2026-04-24T07:09:46Z</time>
      </trkpt>
      <trkpt lat="45.16687" lon="4.41941">
        <ele>978.2</ele>
        <time>2026-04-24T07:09:51Z</time>
      </trkpt>
      <trkpt lat="45.16687" lon="4.41941">
        <ele>978.2</ele>
        <time>2026-04-24T07:09:56Z</time>
      </trkpt>
      <trkpt lat="45.16693" lon="4.41944">
        <ele>980.5</ele>
        <time>2026-04-24T07:10:01Z</time>
      </trkpt>
      <trkpt lat="45.16696" lon="4.41945">
        <ele>981.7</ele>
        <time>2026-04-24T07:10:06Z</time>
      </trkpt>
      <trkpt lat="45.16701" lon="4.41945">
        <ele>983.8</ele>
        <time>2026-04-24T07:10:11Z</time>
      </trkpt>
      <trkpt lat="45.16704" lon="4.41946">
        <ele>985</ele>
        <time>2026-04-24T07:10:16Z</time>
      </trkpt>
      <trkpt lat="45.1671" lon="4.41946">
        <ele>987.5</ele>
        <time>2026-04-24T07:10:21Z</time>
      </trkpt>
      <trkpt lat="45.16715" lon="4.41946">
        <ele>989.5</ele>
        <time>2026-04-24T07:10:26Z</time>
      </trkpt>
      <trkpt lat="45.16721" lon="4.41948">
        <ele>992</ele>
        <time>2026-04-24T07:10:31Z</time>
      </trkpt>
      <trkpt lat="45.16728" lon="4.41948">
        <ele>994.9</ele>
        <time>2026-04-24T07:10:36Z</time>
      </trkpt>
      <trkpt lat="45.16734" lon="4.41947">
        <ele>997.4</ele>
        <time>2026-04-24T07:10:41Z</time>
      </trkpt>
      <trkpt lat="45.16739" lon="4.41946">
        <ele>999.5</ele>
        <time>2026-04-24T07:10:46Z</time>
      </trkpt>
      <trkpt lat="45.16745" lon="4.41944">
        <ele>1001.9</ele>
        <time>2026-04-24T07:10:51Z</time>
      </trkpt>
      <trkpt lat="45.1675" lon="4.41944">
        <ele>1004</ele>
        <time>2026-04-24T07:10:56Z</time>
      </trkpt>
      <trkpt lat="45.16756" lon="4.41945">
        <ele>1005</ele>
        <time>2026-04-24T07:11:01Z</time>
      </trkpt>
      <trkpt lat="45.16761" lon="4.41947">
        <ele>1005.8</ele>
        <time>2026-04-24T07:11:06Z</time>
      </trkpt>
      <trkpt lat="45.16765" lon="4.41947">
        <ele>1006.5</ele>
        <time>2026-04-24T07:11:11Z</time>
      </trkpt>
      <trkpt lat="45.1677" lon="4.41948">
        <ele>1007.4</ele>
        <time>2026-04-24T07:11:16Z</time>
      </trkpt>
      <trkpt lat="45.16776" lon="4.41949">
        <ele>1008.4</ele>
        <time>2026-04-24T07:11:21Z</time>
      </trkpt>
      <trkpt lat="45.1678" lon="4.4195">
        <ele>1009</ele>
        <time>2026-04-24T07:11:26Z</time>
      </trkpt>
      <trkpt lat="45.16785" lon="4.4195">
        <ele>1009.9</ele>
        <time>2026-04-24T07:11:31Z</time>
      </trkpt>
      <trkpt lat="45.1679" lon="4.41951">
        <ele>1010.7</ele>
        <time>2026-04-24T07:11:36Z</time>
      </trkpt>
      <trkpt lat="45.16795" lon="4.41951">
        <ele>1011.6</ele>
        <time>2026-04-24T07:11:41Z</time>
      </trkpt>
      <trkpt lat="45.16801" lon="4.41952">
        <ele>1012.6</ele>
        <time>2026-04-24T07:11:46Z</time>
      </trkpt>
      <trkpt lat="45.16806" lon="4.41953">
        <ele>1013.4</ele>
        <time>2026-04-24T07:11:51Z</time>
      </trkpt>
      <trkpt lat="45.16809" lon="4.41955">
        <ele>1013.9</ele>
        <time>2026-04-24T07:11:56Z</time>
      </trkpt>
      <trkpt lat="45.16813" lon="4.41956">
        <ele>1014.6</ele>
        <time>2026-04-24T07:12:01Z</time>
      </trkpt>
      <trkpt lat="45.16819" lon="4.4196">
        <ele>1015.6</ele>
        <time>2026-04-24T07:12:06Z</time>
      </trkpt>
      <trkpt lat="45.16823" lon="4.41966">
        <ele>1016.3</ele>
        <time>2026-04-24T07:12:11Z</time>
      </trkpt>
      <trkpt lat="45.16829" lon="4.41975">
        <ele>1017.3</ele>
        <time>2026-04-24T07:12:16Z</time>
      </trkpt>
      <trkpt lat="45.16833" lon="4.4198">
        <ele>1017.9</ele>
        <time>2026-04-24T07:12:21Z</time>
      </trkpt>
      <trkpt lat="45.16838" lon="4.41985">
        <ele>1018.1</ele>
        <time>2026-04-24T07:12:26Z</time>
      </trkpt>
      <trkpt lat="45.16842" lon="4.41991">
        <ele>1018.2</ele>
        <time>2026-04-24T07:12:31Z</time>
      </trkpt>
      <trkpt lat="45.16848" lon="4.41995">
        <ele>1018.4</ele>
        <time>2026-04-24T07:12:36Z</time>
      </trkpt>
      <trkpt lat="45.16853" lon="4.41998">
        <ele>1018.5</ele>
        <time>2026-04-24T07:12:41Z</time>
      </trkpt>
      <trkpt lat="45.16858" lon="4.42001">
        <ele>1018.6</ele>
        <time>2026-04-24T07:12:46Z</time>
      </trkpt>
      <trkpt lat="45.16864" lon="4.42002">
        <ele>1018.8</ele>
        <time>2026-04-24T07:12:51Z</time>
      </trkpt>
      <trkpt lat="45.16869" lon="4.42003">
        <ele>1018.9</ele>
        <time>2026-04-24T07:12:56Z</time>
      </trkpt>
      <trkpt lat="45.16874" lon="4.42003">
        <ele>1019</ele>
        <time>2026-04-24T07:13:01Z</time>
      </trkpt>
      <trkpt lat="45.16879" lon="4.42003">
        <ele>1019.2</ele>
        <time>2026-04-24T07:13:06Z</time>
      </trkpt>
      <trkpt lat="45.16883" lon="4.42005">
        <ele>1019.3</ele>
        <time>2026-04-24T07:13:11Z</time>
      </trkpt>
      <trkpt lat="45.16888" lon="4.42006">
        <ele>1019.5</ele>
        <time>2026-04-24T07:13:16Z</time>
      </trkpt>
      <trkpt lat="45.16893" lon="4.42007">
        <ele>1019.7</ele>
        <time>2026-04-24T07:13:21Z</time>
      </trkpt>
      <trkpt lat="45.16898" lon="4.42007">
        <ele>1019.8</ele>
        <time>2026-04-24T07:13:26Z</time>
      </trkpt>
      <trkpt lat="45.16902" lon="4.42008">
        <ele>1020</ele>
        <time>2026-04-24T07:13:31Z</time>
      </trkpt>
      <trkpt lat="45.16906" lon="4.42008">
        <ele>1020.1</ele>
        <time>2026-04-24T07:13:36Z</time>
      </trkpt>
      <trkpt lat="45.1691" lon="4.42009">
        <ele>1020.2</ele>
        <time>2026-04-24T07:13:41Z</time>
      </trkpt>
      <trkpt lat="45.16915" lon="4.42009">
        <ele>1020.4</ele>
        <time>2026-04-24T07:13:46Z</time>
      </trkpt>
      <trkpt lat="45.16921" lon="4.42009">
        <ele>1020.7</ele>
        <time>2026-04-24T07:13:51Z</time>
      </trkpt>
      <trkpt lat="45.16927" lon="4.42008">
        <ele>1021.1</ele>
        <time>2026-04-24T07:13:56Z</time>
      </trkpt>
      <trkpt lat="45.16932" lon="4.42007">
        <ele>1021.4</ele>
        <time>2026-04-24T07:14:01Z</time>
      </trkpt>
      <trkpt lat="45.16938" lon="4.42006">
        <ele>1021.7</ele>
        <time>2026-04-24T07:14:06Z</time>
      </trkpt>
      <trkpt lat="45.16943" lon="4.42004">
        <ele>1022</ele>
        <time>2026-04-24T07:14:11Z</time>
      </trkpt>
      <trkpt lat="45.16948" lon="4.42001">
        <ele>1022.3</ele>
        <time>2026-04-24T07:14:16Z</time>
      </trkpt>
      <trkpt lat="45.16954" lon="4.41999">
        <ele>1022.7</ele>
        <time>2026-04-24T07:14:21Z</time>
      </trkpt>
      <trkpt lat="45.16959" lon="4.41996">
        <ele>1023.1</ele>
        <time>2026-04-24T07:14:26Z</time>
      </trkpt>
      <trkpt lat="45.16963" lon="4.41994">
        <ele>1023.4</ele>
        <time>2026-04-24T07:14:31Z</time>
      </trkpt>
      <trkpt lat="45.16968" lon="4.41991">
        <ele>1023.8</ele>
        <time>2026-04-24T07:14:36Z</time>
      </trkpt>
      <trkpt lat="45.16973" lon="4.41989">
        <ele>1024.2</ele>
        <time>2026-04-24T07:14:41Z</time>
      </trkpt>
      <trkpt lat="45.16978" lon="4.41987">
        <ele>1024.5</ele>
        <time>2026-04-24T07:14:46Z</time>
      </trkpt>
      <trkpt lat="45.16981" lon="4.41984">
        <ele>1024.8</ele>
        <time>2026-04-24T07:14:51Z</time>
      </trkpt>
      <trkpt lat="45.16984" lon="4.41979">
        <ele>1025</ele>
        <time>2026-04-24T07:14:56Z</time>
      </trkpt>
      <trkpt lat="45.16989" lon="4.41977">
        <ele>1025.3</ele>
        <time>2026-04-24T07:15:01Z</time>
      </trkpt>
      <trkpt lat="45.16994" lon="4.41976">
        <ele>1025.6</ele>
        <time>2026-04-24T07:15:06Z</time>
      </trkpt>
      <trkpt lat="45.16998" lon="4.41977">
        <ele>1025.9</ele>
        <time>2026-04-24T07:15:11Z</time>
      </trkpt>
      <trkpt lat="45.17004" lon="4.41978">
        <ele>1026.6</ele>
        <time>2026-04-24T07:15:16Z</time>
      </trkpt>
      <trkpt lat="45.17009" lon="4.41978">
        <ele>1027.2</ele>
        <time>2026-04-24T07:15:21Z</time>
      </trkpt>
      <trkpt lat="45.1701" lon="4.41982">
        <ele>1027.4</ele>
        <time>2026-04-24T07:15:26Z</time>
      </trkpt>
      <trkpt lat="45.17009" lon="4.41984">
        <ele>1027.2</ele>
        <time>2026-04-24T07:15:31Z</time>
      </trkpt>
      <trkpt lat="45.17015" lon="4.41985">
        <ele>1028</ele>
        <time>2026-04-24T07:15:36Z</time>
      </trkpt>
      <trkpt lat="45.17023" lon="4.41983">
        <ele>1029.1</ele>
        <time>2026-04-24T07:15:41Z</time>
      </trkpt>
      <trkpt lat="45.17029" lon="4.41982">
        <ele>1030</ele>
        <time>2026-04-24T07:15:46Z</time>
      </trkpt>
      <trkpt lat="45.17034" lon="4.41975">
        <ele>1030.7</ele>
        <time>2026-04-24T07:15:51Z</time>
      </trkpt>
      <trkpt lat="45.1704" lon="4.41972">
        <ele>1031.6</ele>
        <time>2026-04-24T07:15:56Z</time>
      </trkpt>
      <trkpt lat="45.17047" lon="4.41969">
        <ele>1032.6</ele>
        <time>2026-04-24T07:16:01Z</time>
      </trkpt>
      <trkpt lat="45.17052" lon="4.41974">
        <ele>1033.3</ele>
        <time>2026-04-24T07:16:06Z</time>
      </trkpt>
      <trkpt lat="45.17056" lon="4.4198">
        <ele>1033.7</ele>
        <time>2026-04-24T07:16:11Z</time>
      </trkpt>
      <trkpt lat="45.17058" lon="4.41984">
        <ele>1033.9</ele>
        <time>2026-04-24T07:16:16Z</time>
      </trkpt>
      <trkpt lat="45.17058" lon="4.41982">
        <ele>1034</ele>
        <time>2026-04-24T07:16:21Z</time>
      </trkpt>
      <trkpt lat="45.17058" lon="4.41981">
        <ele>1034</ele>
        <time>2026-04-24T07:16:26Z</time>
      </trkpt>
      <trkpt lat="45.17058" lon="4.41981">
        <ele>1034</ele>
        <time>2026-04-24T07:16:31Z</time>
      </trkpt>
      <trkpt lat="45.17058" lon="4.41981">
        <ele>1034</ele>
        <time>2026-04-24T07:16:36Z</time>
      </trkpt>
      <trkpt lat="45.17055" lon="4.41976">
        <ele>1033.6</ele>
        <time>2026-04-24T07:16:41Z</time>
      </trkpt>
      <trkpt lat="45.1705" lon="4.41968">
        <ele>1033.1</ele>
        <time>2026-04-24T07:16:46Z</time>
      </trkpt>
      <trkpt lat="45.17047" lon="4.41964">
        <ele>1032.7</ele>
        <time>2026-04-24T07:16:51Z</time>
      </trkpt>
      <trkpt lat="45.17047" lon="4.41964">
        <ele>1032.7</ele>
        <time>2026-04-24T07:16:56Z</time>
      </trkpt>
      <trkpt lat="45.17047" lon="4.41964">
        <ele>1032.7</ele>
        <time>2026-04-24T07:17:01Z</time>
      </trkpt>
      <trkpt lat="45.17042" lon="4.41957">
        <ele>1032.1</ele>
        <time>2026-04-24T07:17:06Z</time>
      </trkpt>
      <trkpt lat="45.17042" lon="4.41949">
        <ele>1032.2</ele>
        <time>2026-04-24T07:17:11Z</time>
      </trkpt>
      <trkpt lat="45.17042" lon="4.4194">
        <ele>1032.3</ele>
        <time>2026-04-24T07:17:16Z</time>
      </trkpt>
      <trkpt lat="45.17044" lon="4.41933">
        <ele>1032.7</ele>
        <time>2026-04-24T07:17:21Z</time>
      </trkpt>
      <trkpt lat="45.17046" lon="4.41926">
        <ele>1033.1</ele>
        <time>2026-04-24T07:17:26Z</time>
      </trkpt>
      <trkpt lat="45.17048" lon="4.41918">
        <ele>1033.5</ele>
        <time>2026-04-24T07:17:31Z</time>
      </trkpt>
      <trkpt lat="45.17049" lon="4.4191">
        <ele>1033.4</ele>
        <time>2026-04-24T07:17:36Z</time>
      </trkpt>
      <trkpt lat="45.17052" lon="4.419">
        <ele>1033.5</ele>
        <time>2026-04-24T07:17:41Z</time>
      </trkpt>
      <trkpt lat="45.17053" lon="4.41889">
        <ele>1033.2</ele>
        <time>2026-04-24T07:17:46Z</time>
      </trkpt>
      <trkpt lat="45.17056" lon="4.4188">
        <ele>1033.3</ele>
        <time>2026-04-24T07:17:51Z</time>
      </trkpt>
      <trkpt lat="45.17058" lon="4.41871">
        <ele>1033.1</ele>
        <time>2026-04-24T07:17:56Z</time>
      </trkpt>
      <trkpt lat="45.17059" lon="4.41859">
        <ele>1032.8</ele>
        <time>2026-04-24T07:18:01Z</time>
      </trkpt>
      <trkpt lat="45.1706" lon="4.41855">
        <ele>1032.7</ele>
        <time>2026-04-24T07:18:06Z</time>
      </trkpt>
      <trkpt lat="45.1706" lon="4.41855">
        <ele>1032.7</ele>
        <time>2026-04-24T07:18:11Z</time>
      </trkpt>
      <trkpt lat="45.1706" lon="4.41855">
        <ele>1032.7</ele>
        <time>2026-04-24T07:18:16Z</time>
      </trkpt>
      <trkpt lat="45.1706" lon="4.41855">
        <ele>1032.7</ele>
        <time>2026-04-24T07:18:21Z</time>
      </trkpt>
      <trkpt lat="45.1706" lon="4.41855">
        <ele>1032.7</ele>
        <time>2026-04-24T07:18:26Z</time>
      </trkpt>
      <trkpt lat="45.1706" lon="4.41855">
        <ele>1032.7</ele>
        <time>2026-04-24T07:18:31Z</time>
      </trkpt>
      <trkpt lat="45.1706" lon="4.41855">
        <ele>1032.7</ele>
        <time>2026-04-24T07:18:36Z</time>
      </trkpt>
      <trkpt lat="45.1706" lon="4.41855">
        <ele>1032.7</ele>
        <time>2026-04-24T07:18:41Z</time>
      </trkpt>
      <trkpt lat="45.1706" lon="4.41855">
        <ele>1032.7</ele>
        <time>2026-04-24T07:18:46Z</time>
      </trkpt>
      <trkpt lat="45.1706" lon="4.41855">
        <ele>1032.7</ele>
        <time>2026-04-24T07:18:51Z</time>
      </trkpt>
      <trkpt lat="45.1706" lon="4.41855">
        <ele>1032.7</ele>
        <time>2026-04-24T07:18:56Z</time>
      </trkpt>
      <trkpt lat="45.1706" lon="4.41855">
        <ele>1032.7</ele>
        <time>2026-04-24T07:19:01Z</time>
      </trkpt>
      <trkpt lat="45.1706" lon="4.41855">
        <ele>1032.7</ele>
        <time>2026-04-24T07:19:06Z</time>
      </trkpt>
      <trkpt lat="45.1706" lon="4.41855">
        <ele>1032.7</ele>
        <time>2026-04-24T07:19:11Z</time>
      </trkpt>
      <trkpt lat="45.1706" lon="4.41855">
        <ele>1032.7</ele>
        <time>2026-04-24T07:19:16Z</time>
      </trkpt>
      <trkpt lat="45.1706" lon="4.41855">
        <ele>1032.7</ele>
        <time>2026-04-24T07:19:21Z</time>
      </trkpt>
      <trkpt lat="45.1706" lon="4.41855">
        <ele>1032.7</ele>
        <time>2026-04-24T07:19:26Z</time>
      </trkpt>
      <trkpt lat="45.1706" lon="4.41855">
        <ele>1032.7</ele>
        <time>2026-04-24T07:19:31Z</time>
      </trkpt>
      <trkpt lat="45.1706" lon="4.41855">
        <ele>1032.7</ele>
        <time>2026-04-24T07:19:36Z</time>
      </trkpt>
      <trkpt lat="45.1706" lon="4.41855">
        <ele>1032.7</ele>
        <time>2026-04-24T07:19:41Z</time>
      </trkpt>
      <trkpt lat="45.1706" lon="4.41855">
        <ele>1032.7</ele>
        <time>2026-04-24T07:19:46Z</time>
      </trkpt>
      <trkpt lat="45.1706" lon="4.41855">
        <ele>1032.7</ele>
        <time>2026-04-24T07:19:51Z</time>
      </trkpt>
      <trkpt lat="45.1706" lon="4.41855">
        <ele>1032.7</ele>
        <time>2026-04-24T07:19:56Z</time>
      </trkpt>
      <trkpt lat="45.1706" lon="4.41855">
        <ele>1032.7</ele>
        <time>2026-04-24T07:20:01Z</time>
      </trkpt>
      <trkpt lat="45.1706" lon="4.41855">
        <ele>1032.7</ele>
        <time>2026-04-24T07:20:06Z</time>
      </trkpt>
      <trkpt lat="45.1706" lon="4.41855">
        <ele>1032.7</ele>
        <time>2026-04-24T07:20:11Z</time>
      </trkpt>
      <trkpt lat="45.1706" lon="4.41855">
        <ele>1032.7</ele>
        <time>2026-04-24T07:20:16Z</time>
      </trkpt>
      <trkpt lat="45.1706" lon="4.41855">
        <ele>1032.7</ele>
        <time>2026-04-24T07:20:21Z</time>
      </trkpt>
      <trkpt lat="45.1706" lon="4.41855">
        <ele>1032.7</ele>
        <time>2026-04-24T07:20:26Z</time>
      </trkpt>
      <trkpt lat="45.1706" lon="4.41855">
        <ele>1032.7</ele>
        <time>2026-04-24T07:20:31Z</time>
      </trkpt>
      <trkpt lat="45.1706" lon="4.41855">
        <ele>1032.7</ele>
        <time>2026-04-24T07:20:36Z</time>
      </trkpt>
      <trkpt lat="45.17061" lon="4.4184">
        <ele>1032.1</ele>
        <time>2026-04-24T07:20:41Z</time>
      </trkpt>
      <trkpt lat="45.17063" lon="4.41832">
        <ele>1031.9</ele>
        <time>2026-04-24T07:20:46Z</time>
      </trkpt>
      <trkpt lat="45.17067" lon="4.41825">
        <ele>1031.5</ele>
        <time>2026-04-24T07:20:51Z</time>
      </trkpt>
      <trkpt lat="45.17071" lon="4.41818">
        <ele>1031.1</ele>
        <time>2026-04-24T07:20:56Z</time>
      </trkpt>
      <trkpt lat="45.17071" lon="4.41818">
        <ele>1031.1</ele>
        <time>2026-04-24T07:20:56Z</time>
      </trkpt>
      <trkpt lat="45.17074" lon="4.41813">
        <ele>1030.9</ele>
        <time>2026-04-24T07:21:03Z</time>
      </trkpt>
      <trkpt lat="45.17074" lon="4.41812">
        <ele>1030.7</ele>
        <time>2026-04-24T07:21:08Z</time>
      </trkpt>
      <trkpt lat="45.17074" lon="4.41812">
        <ele>1030.7</ele>
        <time>2026-04-24T07:21:13Z</time>
      </trkpt>
      <trkpt lat="45.17074" lon="4.41812">
        <ele>1030.7</ele>
        <time>2026-04-24T07:21:18Z</time>
      </trkpt>
      <trkpt lat="45.17078" lon="4.41807">
        <ele>1030.6</ele>
        <time>2026-04-24T07:21:23Z</time>
      </trkpt>
      <trkpt lat="45.17082" lon="4.41798">
        <ele>1030</ele>
        <time>2026-04-24T07:21:28Z</time>
      </trkpt>
      <trkpt lat="45.17087" lon="4.41788">
        <ele>1029.5</ele>
        <time>2026-04-24T07:21:33Z</time>
      </trkpt>
      <trkpt lat="45.1709" lon="4.41779">
        <ele>1028.8</ele>
        <time>2026-04-24T07:21:38Z</time>
      </trkpt>
      <trkpt lat="45.17094" lon="4.41771">
        <ele>1028.5</ele>
        <time>2026-04-24T07:21:43Z</time>
      </trkpt>
      <trkpt lat="45.17098" lon="4.41761">
        <ele>1027.9</ele>
        <time>2026-04-24T07:21:48Z</time>
      </trkpt>
      <trkpt lat="45.17101" lon="4.41751">
        <ele>1027.2</ele>
        <time>2026-04-24T07:21:53Z</time>
      </trkpt>
      <trkpt lat="45.17107" lon="4.41744">
        <ele>1026.8</ele>
        <time>2026-04-24T07:21:58Z</time>
      </trkpt>
      <trkpt lat="45.1711" lon="4.41736">
        <ele>1025.8</ele>
        <time>2026-04-24T07:22:03Z</time>
      </trkpt>
      <trkpt lat="45.17113" lon="4.41728">
        <ele>1024.9</ele>
        <time>2026-04-24T07:22:08Z</time>
      </trkpt>
      <trkpt lat="45.17116" lon="4.41725">
        <ele>1024.8</ele>
        <time>2026-04-24T07:22:13Z</time>
      </trkpt>
      <trkpt lat="45.17118" lon="4.41726">
        <ele>1025.3</ele>
        <time>2026-04-24T07:22:18Z</time>
      </trkpt>
      <trkpt lat="45.17119" lon="4.41725">
        <ele>1025.3</ele>
        <time>2026-04-24T07:22:23Z</time>
      </trkpt>
      <trkpt lat="45.17119" lon="4.41725">
        <ele>1025.3</ele>
        <time>2026-04-24T07:22:28Z</time>
      </trkpt>
      <trkpt lat="45.17119" lon="4.41725">
        <ele>1025.3</ele>
        <time>2026-04-24T07:22:33Z</time>
      </trkpt>
      <trkpt lat="45.17119" lon="4.41725">
        <ele>1025.3</ele>
        <time>2026-04-24T07:22:38Z</time>
      </trkpt>
      <trkpt lat="45.17119" lon="4.41725">
        <ele>1025.3</ele>
        <time>2026-04-24T07:22:43Z</time>
      </trkpt>
      <trkpt lat="45.17119" lon="4.41725">
        <ele>1025.3</ele>
        <time>2026-04-24T07:22:48Z</time>
      </trkpt>
      <trkpt lat="45.17119" lon="4.41725">
        <ele>1025.3</ele>
        <time>2026-04-24T07:22:53Z</time>
      </trkpt>
      <trkpt lat="45.17119" lon="4.41725">
        <ele>1025.3</ele>
        <time>2026-04-24T07:22:58Z</time>
      </trkpt>
      <trkpt lat="45.17117" lon="4.41716">
        <ele>1023.5</ele>
        <time>2026-04-24T07:23:03Z</time>
      </trkpt>
      <trkpt lat="45.17125" lon="4.4171">
        <ele>1023.8</ele>
        <time>2026-04-24T07:23:08Z</time>
      </trkpt>
      <trkpt lat="45.1713" lon="4.41705">
        <ele>1023.8</ele>
        <time>2026-04-24T07:23:13Z</time>
      </trkpt>
      <trkpt lat="45.17135" lon="4.417">
        <ele>1023.8</ele>
        <time>2026-04-24T07:23:18Z</time>
      </trkpt>
      <trkpt lat="45.17141" lon="4.41693">
        <ele>1023.8</ele>
        <time>2026-04-24T07:23:23Z</time>
      </trkpt>
      <trkpt lat="45.17145" lon="4.41687">
        <ele>1023.7</ele>
        <time>2026-04-24T07:23:28Z</time>
      </trkpt>
      <trkpt lat="45.1715" lon="4.41679">
        <ele>1023.5</ele>
        <time>2026-04-24T07:23:33Z</time>
      </trkpt>
      <trkpt lat="45.17154" lon="4.41672">
        <ele>1023.3</ele>
        <time>2026-04-24T07:23:38Z</time>
      </trkpt>
      <trkpt lat="45.17159" lon="4.41667">
        <ele>1023.6</ele>
        <time>2026-04-24T07:23:43Z</time>
      </trkpt>
      <trkpt lat="45.17165" lon="4.41659">
        <ele>1022.6</ele>
        <time>2026-04-24T07:23:48Z</time>
      </trkpt>
      <trkpt lat="45.17171" lon="4.41652">
        <ele>1021.4</ele>
        <time>2026-04-24T07:23:53Z</time>
      </trkpt>
      <trkpt lat="45.17175" lon="4.41645">
        <ele>1019.8</ele>
        <time>2026-04-24T07:23:58Z</time>
      </trkpt>
      <trkpt lat="45.17183" lon="4.4164">
        <ele>1019</ele>
        <time>2026-04-24T07:24:03Z</time>
      </trkpt>
      <trkpt lat="45.17188" lon="4.41633">
        <ele>1017.7</ele>
        <time>2026-04-24T07:24:08Z</time>
      </trkpt>
      <trkpt lat="45.17194" lon="4.41628">
        <ele>1017</ele>
        <time>2026-04-24T07:24:13Z</time>
      </trkpt>
      <trkpt lat="45.17201" lon="4.41621">
        <ele>1016</ele>
        <time>2026-04-24T07:24:18Z</time>
      </trkpt>
      <trkpt lat="45.17209" lon="4.41614">
        <ele>1015.2</ele>
        <time>2026-04-24T07:24:23Z</time>
      </trkpt>
      <trkpt lat="45.17215" lon="4.41606">
        <ele>1014.1</ele>
        <time>2026-04-24T07:24:28Z</time>
      </trkpt>
      <trkpt lat="45.1722" lon="4.41597">
        <ele>1012.8</ele>
        <time>2026-04-24T07:24:33Z</time>
      </trkpt>
      <trkpt lat="45.17225" lon="4.41589">
        <ele>1011.8</ele>
        <time>2026-04-24T07:24:38Z</time>
      </trkpt>
      <trkpt lat="45.17232" lon="4.41581">
        <ele>1011.1</ele>
        <time>2026-04-24T07:24:43Z</time>
      </trkpt>
      <trkpt lat="45.17238" lon="4.41572">
        <ele>1010</ele>
        <time>2026-04-24T07:24:48Z</time>
      </trkpt>
      <trkpt lat="45.17243" lon="4.41565">
        <ele>1009.3</ele>
        <time>2026-04-24T07:24:53Z</time>
      </trkpt>
      <trkpt lat="45.1725" lon="4.41555">
        <ele>1008.6</ele>
        <time>2026-04-24T07:24:58Z</time>
      </trkpt>
      <trkpt lat="45.17254" lon="4.41548">
        <ele>1007.7</ele>
        <time>2026-04-24T07:25:03Z</time>
      </trkpt>
      <trkpt lat="45.17261" lon="4.4154">
        <ele>1007.1</ele>
        <time>2026-04-24T07:25:08Z</time>
      </trkpt>
      <trkpt lat="45.17266" lon="4.41533">
        <ele>1006.7</ele>
        <time>2026-04-24T07:25:13Z</time>
      </trkpt>
      <trkpt lat="45.17271" lon="4.41526">
        <ele>1006.3</ele>
        <time>2026-04-24T07:25:18Z</time>
      </trkpt>
      <trkpt lat="45.17275" lon="4.4152">
        <ele>1006.2</ele>
        <time>2026-04-24T07:25:23Z</time>
      </trkpt>
      <trkpt lat="45.17282" lon="4.41516">
        <ele>1006.9</ele>
        <time>2026-04-24T07:25:28Z</time>
      </trkpt>
      <trkpt lat="45.17287" lon="4.4151">
        <ele>1007.1</ele>
        <time>2026-04-24T07:25:33Z</time>
      </trkpt>
      <trkpt lat="45.17293" lon="4.41503">
        <ele>1007.6</ele>
        <time>2026-04-24T07:25:38Z</time>
      </trkpt>
      <trkpt lat="45.17301" lon="4.41497">
        <ele>1008.8</ele>
        <time>2026-04-24T07:25:43Z</time>
      </trkpt>
      <trkpt lat="45.17307" lon="4.41491">
        <ele>1009.8</ele>
        <time>2026-04-24T07:25:48Z</time>
      </trkpt>
      <trkpt lat="45.17313" lon="4.41485">
        <ele>1010.9</ele>
        <time>2026-04-24T07:25:53Z</time>
      </trkpt>
      <trkpt lat="45.17318" lon="4.41478">
        <ele>1011.8</ele>
        <time>2026-04-24T07:25:58Z</time>
      </trkpt>
      <trkpt lat="45.17325" lon="4.41469">
        <ele>1013.4</ele>
        <time>2026-04-24T07:26:03Z</time>
      </trkpt>
      <trkpt lat="45.17331" lon="4.41462">
        <ele>1014.9</ele>
        <time>2026-04-24T07:26:08Z</time>
      </trkpt>
      <trkpt lat="45.17338" lon="4.41457">
        <ele>1015.3</ele>
        <time>2026-04-24T07:26:13Z</time>
      </trkpt>
      <trkpt lat="45.17345" lon="4.41452">
        <ele>1015.1</ele>
        <time>2026-04-24T07:26:18Z</time>
      </trkpt>
      <trkpt lat="45.17352" lon="4.41446">
        <ele>1014.9</ele>
        <time>2026-04-24T07:26:23Z</time>
      </trkpt>
      <trkpt lat="45.17357" lon="4.41438">
        <ele>1015</ele>
        <time>2026-04-24T07:26:28Z</time>
      </trkpt>
      <trkpt lat="45.17364" lon="4.41432">
        <ele>1015</ele>
        <time>2026-04-24T07:26:33Z</time>
      </trkpt>
      <trkpt lat="45.1737" lon="4.41424">
        <ele>1015.2</ele>
        <time>2026-04-24T07:26:38Z</time>
      </trkpt>
      <trkpt lat="45.17375" lon="4.41417">
        <ele>1015.5</ele>
        <time>2026-04-24T07:26:43Z</time>
      </trkpt>
      <trkpt lat="45.17382" lon="4.4141">
        <ele>1015.6</ele>
        <time>2026-04-24T07:26:48Z</time>
      </trkpt>
      <trkpt lat="45.17388" lon="4.41401">
        <ele>1015.8</ele>
        <time>2026-04-24T07:26:53Z</time>
      </trkpt>
      <trkpt lat="45.17393" lon="4.41394">
        <ele>1016.1</ele>
        <time>2026-04-24T07:26:58Z</time>
      </trkpt>
      <trkpt lat="45.17398" lon="4.41385">
        <ele>1016.7</ele>
        <time>2026-04-24T07:27:03Z</time>
      </trkpt>
      <trkpt lat="45.17403" lon="4.41377">
        <ele>1017.3</ele>
        <time>2026-04-24T07:27:08Z</time>
      </trkpt>
      <trkpt lat="45.17408" lon="4.4137">
        <ele>1018</ele>
        <time>2026-04-24T07:27:13Z</time>
      </trkpt>
      <trkpt lat="45.17413" lon="4.41363">
        <ele>1018.8</ele>
        <time>2026-04-24T07:27:18Z</time>
      </trkpt>
      <trkpt lat="45.17417" lon="4.41357">
        <ele>1019.5</ele>
        <time>2026-04-24T07:27:23Z</time>
      </trkpt>
      <trkpt lat="45.17421" lon="4.4135">
        <ele>1019.3</ele>
        <time>2026-04-24T07:27:28Z</time>
      </trkpt>
      <trkpt lat="45.17424" lon="4.41344">
        <ele>1019.2</ele>
        <time>2026-04-24T07:27:33Z</time>
      </trkpt>
      <trkpt lat="45.17428" lon="4.41337">
        <ele>1019</ele>
        <time>2026-04-24T07:27:38Z</time>
      </trkpt>
      <trkpt lat="45.17429" lon="4.41335">
        <ele>1019</ele>
        <time>2026-04-24T07:27:43Z</time>
      </trkpt>
      <trkpt lat="45.17429" lon="4.41335">
        <ele>1019</ele>
        <time>2026-04-24T07:27:48Z</time>
      </trkpt>
      <trkpt lat="45.17429" lon="4.41335">
        <ele>1019</ele>
        <time>2026-04-24T07:27:53Z</time>
      </trkpt>
      <trkpt lat="45.17429" lon="4.41335">
        <ele>1019</ele>
        <time>2026-04-24T07:27:58Z</time>
      </trkpt>
      <trkpt lat="45.17429" lon="4.41335">
        <ele>1019</ele>
        <time>2026-04-24T07:28:03Z</time>
      </trkpt>
      <trkpt lat="45.17429" lon="4.41335">
        <ele>1019</ele>
        <time>2026-04-24T07:28:08Z</time>
      </trkpt>
      <trkpt lat="45.17429" lon="4.41335">
        <ele>1019</ele>
        <time>2026-04-24T07:28:13Z</time>
      </trkpt>
      <trkpt lat="45.17437" lon="4.41324">
        <ele>1018</ele>
        <time>2026-04-24T07:28:18Z</time>
      </trkpt>
      <trkpt lat="45.17445" lon="4.41317">
        <ele>1017</ele>
        <time>2026-04-24T07:28:23Z</time>
      </trkpt>
      <trkpt lat="45.1745" lon="4.41311">
        <ele>1016.5</ele>
        <time>2026-04-24T07:28:28Z</time>
      </trkpt>
      <trkpt lat="45.17456" lon="4.41305">
        <ele>1015.8</ele>
        <time>2026-04-24T07:28:33Z</time>
      </trkpt>
      <trkpt lat="45.17458" lon="4.41297">
        <ele>1015.9</ele>
        <time>2026-04-24T07:28:38Z</time>
      </trkpt>
      <trkpt lat="45.17461" lon="4.41286">
        <ele>1015.9</ele>
        <time>2026-04-24T07:28:43Z</time>
      </trkpt>
      <trkpt lat="45.17464" lon="4.41279">
        <ele>1015.7</ele>
        <time>2026-04-24T07:28:48Z</time>
      </trkpt>
      <trkpt lat="45.17466" lon="4.41272">
        <ele>1015.8</ele>
        <time>2026-04-24T07:28:53Z</time>
      </trkpt>
      <trkpt lat="45.17467" lon="4.41262">
        <ele>1016.1</ele>
        <time>2026-04-24T07:28:58Z</time>
      </trkpt>
      <trkpt lat="45.17469" lon="4.41251">
        <ele>1016.3</ele>
        <time>2026-04-24T07:29:03Z</time>
      </trkpt>
      <trkpt lat="45.1747" lon="4.41241">
        <ele>1015.6</ele>
        <time>2026-04-24T07:29:08Z</time>
      </trkpt>
      <trkpt lat="45.17471" lon="4.41235">
        <ele>1015.2</ele>
        <time>2026-04-24T07:29:13Z</time>
      </trkpt>
      <trkpt lat="45.17475" lon="4.41226">
        <ele>1014.2</ele>
        <time>2026-04-24T07:29:18Z</time>
      </trkpt>
      <trkpt lat="45.17477" lon="4.41219">
        <ele>1013.6</ele>
        <time>2026-04-24T07:29:23Z</time>
      </trkpt>
      <trkpt lat="45.17479" lon="4.41211">
        <ele>1013</ele>
        <time>2026-04-24T07:29:28Z</time>
      </trkpt>
      <trkpt lat="45.17482" lon="4.41202">
        <ele>1012.3</ele>
        <time>2026-04-24T07:29:33Z</time>
      </trkpt>
      <trkpt lat="45.17486" lon="4.41193">
        <ele>1011.7</ele>
        <time>2026-04-24T07:29:38Z</time>
      </trkpt>
      <trkpt lat="45.17488" lon="4.41182">
        <ele>1011</ele>
        <time>2026-04-24T07:29:43Z</time>
      </trkpt>
      <trkpt lat="45.17491" lon="4.41173">
        <ele>1010.5</ele>
        <time>2026-04-24T07:29:48Z</time>
      </trkpt>
      <trkpt lat="45.17495" lon="4.41164">
        <ele>1009.9</ele>
        <time>2026-04-24T07:29:53Z</time>
      </trkpt>
      <trkpt lat="45.17499" lon="4.41154">
        <ele>1009.1</ele>
        <time>2026-04-24T07:29:58Z</time>
      </trkpt>
      <trkpt lat="45.17502" lon="4.41143">
        <ele>1007.8</ele>
        <time>2026-04-24T07:30:03Z</time>
      </trkpt>
      <trkpt lat="45.17503" lon="4.41133">
        <ele>1006.9</ele>
        <time>2026-04-24T07:30:08Z</time>
      </trkpt>
      <trkpt lat="45.17508" lon="4.41125">
        <ele>1005.3</ele>
        <time>2026-04-24T07:30:13Z</time>
      </trkpt>
      <trkpt lat="45.17511" lon="4.41114">
        <ele>1004</ele>
        <time>2026-04-24T07:30:18Z</time>
      </trkpt>
      <trkpt lat="45.17513" lon="4.41102">
        <ele>1002.9</ele>
        <time>2026-04-24T07:30:23Z</time>
      </trkpt>
      <trkpt lat="45.17518" lon="4.41091">
        <ele>1001.4</ele>
        <time>2026-04-24T07:30:28Z</time>
      </trkpt>
      <trkpt lat="45.17521" lon="4.41083">
        <ele>1000.4</ele>
        <time>2026-04-24T07:30:33Z</time>
      </trkpt>
      <trkpt lat="45.17526" lon="4.41073">
        <ele>998.2</ele>
        <time>2026-04-24T07:30:38Z</time>
      </trkpt>
      <trkpt lat="45.1753" lon="4.41065">
        <ele>996.5</ele>
        <time>2026-04-24T07:30:43Z</time>
      </trkpt>
      <trkpt lat="45.17533" lon="4.41055">
        <ele>994.8</ele>
        <time>2026-04-24T07:30:48Z</time>
      </trkpt>
      <trkpt lat="45.17535" lon="4.41044">
        <ele>993.1</ele>
        <time>2026-04-24T07:30:53Z</time>
      </trkpt>
      <trkpt lat="45.17538" lon="4.41032">
        <ele>991.2</ele>
        <time>2026-04-24T07:30:58Z</time>
      </trkpt>
      <trkpt lat="45.17538" lon="4.41021">
        <ele>989.9</ele>
        <time>2026-04-24T07:31:03Z</time>
      </trkpt>
      <trkpt lat="45.1754" lon="4.41009">
        <ele>988.2</ele>
        <time>2026-04-24T07:31:08Z</time>
      </trkpt>
      <trkpt lat="45.17542" lon="4.40998">
        <ele>986.6</ele>
        <time>2026-04-24T07:31:13Z</time>
      </trkpt>
      <trkpt lat="45.17541" lon="4.40986">
        <ele>984.7</ele>
        <time>2026-04-24T07:31:18Z</time>
      </trkpt>
      <trkpt lat="45.1754" lon="4.40975">
        <ele>982.9</ele>
        <time>2026-04-24T07:31:23Z</time>
      </trkpt>
      <trkpt lat="45.17537" lon="4.40966">
        <ele>981.4</ele>
        <time>2026-04-24T07:31:28Z</time>
      </trkpt>
      <trkpt lat="45.17538" lon="4.40958">
        <ele>980</ele>
        <time>2026-04-24T07:31:33Z</time>
      </trkpt>
      <trkpt lat="45.17536" lon="4.40948">
        <ele>978.3</ele>
        <time>2026-04-24T07:31:38Z</time>
      </trkpt>
      <trkpt lat="45.17534" lon="4.4094">
        <ele>976.9</ele>
        <time>2026-04-24T07:31:43Z</time>
      </trkpt>
      <trkpt lat="45.17532" lon="4.40933">
        <ele>975.7</ele>
        <time>2026-04-24T07:31:48Z</time>
      </trkpt>
      <trkpt lat="45.17531" lon="4.40925">
        <ele>974.2</ele>
        <time>2026-04-24T07:31:53Z</time>
      </trkpt>
      <trkpt lat="45.17532" lon="4.40919">
        <ele>973.2</ele>
        <time>2026-04-24T07:31:58Z</time>
      </trkpt>
      <trkpt lat="45.17531" lon="4.40912">
        <ele>971.7</ele>
        <time>2026-04-24T07:32:03Z</time>
      </trkpt>
      <trkpt lat="45.17529" lon="4.40906">
        <ele>970.2</ele>
        <time>2026-04-24T07:32:08Z</time>
      </trkpt>
      <trkpt lat="45.17529" lon="4.40899">
        <ele>968.6</ele>
        <time>2026-04-24T07:32:13Z</time>
      </trkpt>
      <trkpt lat="45.17532" lon="4.40892">
        <ele>967.1</ele>
        <time>2026-04-24T07:32:18Z</time>
      </trkpt>
      <trkpt lat="45.17533" lon="4.40886">
        <ele>965.8</ele>
        <time>2026-04-24T07:32:23Z</time>
      </trkpt>
      <trkpt lat="45.17536" lon="4.4088">
        <ele>964.6</ele>
        <time>2026-04-24T07:32:28Z</time>
      </trkpt>
      <trkpt lat="45.17539" lon="4.40875">
        <ele>963.6</ele>
        <time>2026-04-24T07:32:33Z</time>
      </trkpt>
      <trkpt lat="45.17543" lon="4.40868">
        <ele>962.3</ele>
        <time>2026-04-24T07:32:38Z</time>
      </trkpt>
      <trkpt lat="45.17547" lon="4.40864">
        <ele>961.6</ele>
        <time>2026-04-24T07:32:43Z</time>
      </trkpt>
      <trkpt lat="45.1755" lon="4.40859">
        <ele>960.7</ele>
        <time>2026-04-24T07:32:48Z</time>
      </trkpt>
      <trkpt lat="45.17552" lon="4.40853">
        <ele>959.6</ele>
        <time>2026-04-24T07:32:53Z</time>
      </trkpt>
      <trkpt lat="45.17555" lon="4.40848">
        <ele>958.7</ele>
        <time>2026-04-24T07:32:58Z</time>
      </trkpt>
      <trkpt lat="45.17557" lon="4.40842">
        <ele>957.6</ele>
        <time>2026-04-24T07:33:03Z</time>
      </trkpt>
      <trkpt lat="45.17559" lon="4.40833">
        <ele>955.9</ele>
        <time>2026-04-24T07:33:08Z</time>
      </trkpt>
      <trkpt lat="45.17561" lon="4.40824">
        <ele>954.7</ele>
        <time>2026-04-24T07:33:13Z</time>
      </trkpt>
      <trkpt lat="45.17564" lon="4.40818">
        <ele>954</ele>
        <time>2026-04-24T07:33:18Z</time>
      </trkpt>
      <trkpt lat="45.17567" lon="4.40809">
        <ele>953</ele>
        <time>2026-04-24T07:33:23Z</time>
      </trkpt>
      <trkpt lat="45.17569" lon="4.40801">
        <ele>952</ele>
        <time>2026-04-24T07:33:28Z</time>
      </trkpt>
      <trkpt lat="45.1757" lon="4.40793">
        <ele>950.9</ele>
        <time>2026-04-24T07:33:33Z</time>
      </trkpt>
      <trkpt lat="45.17568" lon="4.40785">
        <ele>949.5</ele>
        <time>2026-04-24T07:33:38Z</time>
      </trkpt>
      <trkpt lat="45.17565" lon="4.40778">
        <ele>948</ele>
        <time>2026-04-24T07:33:43Z</time>
      </trkpt>
      <trkpt lat="45.17561" lon="4.40771">
        <ele>946.3</ele>
        <time>2026-04-24T07:33:48Z</time>
      </trkpt>
      <trkpt lat="45.17555" lon="4.40765">
        <ele>944.4</ele>
        <time>2026-04-24T07:33:53Z</time>
      </trkpt>
      <trkpt lat="45.1755" lon="4.40759">
        <ele>942.5</ele>
        <time>2026-04-24T07:33:58Z</time>
      </trkpt>
      <trkpt lat="45.17546" lon="4.40753">
        <ele>940.8</ele>
        <time>2026-04-24T07:34:03Z</time>
      </trkpt>
      <trkpt lat="45.17541" lon="4.40747">
        <ele>938.6</ele>
        <time>2026-04-24T07:34:08Z</time>
      </trkpt>
      <trkpt lat="45.17537" lon="4.40738">
        <ele>935.6</ele>
        <time>2026-04-24T07:34:13Z</time>
      </trkpt>
      <trkpt lat="45.17536" lon="4.4073">
        <ele>933.4</ele>
        <time>2026-04-24T07:34:18Z</time>
      </trkpt>
      <trkpt lat="45.17539" lon="4.40724">
        <ele>932.4</ele>
        <time>2026-04-24T07:34:23Z</time>
      </trkpt>
      <trkpt lat="45.17541" lon="4.40724">
        <ele>932.8</ele>
        <time>2026-04-24T07:34:28Z</time>
      </trkpt>
      <trkpt lat="45.17541" lon="4.40724">
        <ele>932.8</ele>
        <time>2026-04-24T07:34:33Z</time>
      </trkpt>
      <trkpt lat="45.17541" lon="4.40724">
        <ele>932.8</ele>
        <time>2026-04-24T07:34:38Z</time>
      </trkpt>
      <trkpt lat="45.17547" lon="4.40721">
        <ele>933.2</ele>
        <time>2026-04-24T07:34:43Z</time>
      </trkpt>
      <trkpt lat="45.17554" lon="4.40715">
        <ele>933</ele>
        <time>2026-04-24T07:34:48Z</time>
      </trkpt>
      <trkpt lat="45.17561" lon="4.40709">
        <ele>932.9</ele>
        <time>2026-04-24T07:34:53Z</time>
      </trkpt>
      <trkpt lat="45.17569" lon="4.40706">
        <ele>933.7</ele>
        <time>2026-04-24T07:34:58Z</time>
      </trkpt>
      <trkpt lat="45.17574" lon="4.40702">
        <ele>933.7</ele>
        <time>2026-04-24T07:35:03Z</time>
      </trkpt>
      <trkpt lat="45.1758" lon="4.40698">
        <ele>933.9</ele>
        <time>2026-04-24T07:35:08Z</time>
      </trkpt>
      <trkpt lat="45.17588" lon="4.40695">
        <ele>934.2</ele>
        <time>2026-04-24T07:35:13Z</time>
      </trkpt>
      <trkpt lat="45.17595" lon="4.40693">
        <ele>934.2</ele>
        <time>2026-04-24T07:35:18Z</time>
      </trkpt>
      <trkpt lat="45.17598" lon="4.40688">
        <ele>933.3</ele>
        <time>2026-04-24T07:35:23Z</time>
      </trkpt>
      <trkpt lat="45.17597" lon="4.40679">
        <ele>931.2</ele>
        <time>2026-04-24T07:35:28Z</time>
      </trkpt>
      <trkpt lat="45.17593" lon="4.40675">
        <ele>929.9</ele>
        <time>2026-04-24T07:35:33Z</time>
      </trkpt>
      <trkpt lat="45.17592" lon="4.40667">
        <ele>927.9</ele>
        <time>2026-04-24T07:35:38Z</time>
      </trkpt>
      <trkpt lat="45.17595" lon="4.4066">
        <ele>926.3</ele>
        <time>2026-04-24T07:35:43Z</time>
      </trkpt>
      <trkpt lat="45.176" lon="4.40658">
        <ele>926.2</ele>
        <time>2026-04-24T07:35:48Z</time>
      </trkpt>
      <trkpt lat="45.17604" lon="4.40657">
        <ele>926.3</ele>
        <time>2026-04-24T07:35:53Z</time>
      </trkpt>
      <trkpt lat="45.17607" lon="4.40658">
        <ele>926.8</ele>
        <time>2026-04-24T07:35:58Z</time>
      </trkpt>
      <trkpt lat="45.1761" lon="4.40656">
        <ele>926.5</ele>
        <time>2026-04-24T07:36:03Z</time>
      </trkpt>
      <trkpt lat="45.17609" lon="4.40654">
        <ele>925.9</ele>
        <time>2026-04-24T07:36:08Z</time>
      </trkpt>
      <trkpt lat="45.17609" lon="4.40654">
        <ele>925.9</ele>
        <time>2026-04-24T07:36:13Z</time>
      </trkpt>
      <trkpt lat="45.17609" lon="4.40654">
        <ele>925.9</ele>
        <time>2026-04-24T07:36:18Z</time>
      </trkpt>
      <trkpt lat="45.17609" lon="4.40654">
        <ele>925.9</ele>
        <time>2026-04-24T07:36:23Z</time>
      </trkpt>
      <trkpt lat="45.17609" lon="4.40654">
        <ele>925.9</ele>
        <time>2026-04-24T07:36:28Z</time>
      </trkpt>
      <trkpt lat="45.17609" lon="4.40654">
        <ele>925.9</ele>
        <time>2026-04-24T07:36:33Z</time>
      </trkpt>
      <trkpt lat="45.17609" lon="4.40654">
        <ele>925.9</ele>
        <time>2026-04-24T07:36:38Z</time>
      </trkpt>
      <trkpt lat="45.17609" lon="4.40654">
        <ele>925.9</ele>
        <time>2026-04-24T07:36:43Z</time>
      </trkpt>
      <trkpt lat="45.17615" lon="4.40659">
        <ele>927.9</ele>
        <time>2026-04-24T07:36:48Z</time>
      </trkpt>
      <trkpt lat="45.1762" lon="4.40662">
        <ele>929.2</ele>
        <time>2026-04-24T07:36:53Z</time>
      </trkpt>
      <trkpt lat="45.17624" lon="4.40665">
        <ele>930.4</ele>
        <time>2026-04-24T07:36:58Z</time>
      </trkpt>
      <trkpt lat="45.17629" lon="4.40669">
        <ele>931.9</ele>
        <time>2026-04-24T07:37:03Z</time>
      </trkpt>
      <trkpt lat="45.17635" lon="4.40672">
        <ele>933</ele>
        <time>2026-04-24T07:37:08Z</time>
      </trkpt>
      <trkpt lat="45.17641" lon="4.40676">
        <ele>934.4</ele>
        <time>2026-04-24T07:37:13Z</time>
      </trkpt>
      <trkpt lat="45.17643" lon="4.40677">
        <ele>934.8</ele>
        <time>2026-04-24T07:37:18Z</time>
      </trkpt>
      <trkpt lat="45.17647" lon="4.40679">
        <ele>935.5</ele>
        <time>2026-04-24T07:37:23Z</time>
      </trkpt>
      <trkpt lat="45.17654" lon="4.40681">
        <ele>936.5</ele>
        <time>2026-04-24T07:37:28Z</time>
      </trkpt>
      <trkpt lat="45.17661" lon="4.40685">
        <ele>937.8</ele>
        <time>2026-04-24T07:37:33Z</time>
      </trkpt>
      <trkpt lat="45.17667" lon="4.4069">
        <ele>939.1</ele>
        <time>2026-04-24T07:37:38Z</time>
      </trkpt>
      <trkpt lat="45.17674" lon="4.40693">
        <ele>938.4</ele>
        <time>2026-04-24T07:37:43Z</time>
      </trkpt>
      <trkpt lat="45.17679" lon="4.40699">
        <ele>938.5</ele>
        <time>2026-04-24T07:37:48Z</time>
      </trkpt>
      <trkpt lat="45.17685" lon="4.40704">
        <ele>938.3</ele>
        <time>2026-04-24T07:37:53Z</time>
      </trkpt>
      <trkpt lat="45.17689" lon="4.40712">
        <ele>939</ele>
        <time>2026-04-24T07:37:58Z</time>
      </trkpt>
      <trkpt lat="45.17692" lon="4.40716">
        <ele>939.2</ele>
        <time>2026-04-24T07:38:03Z</time>
      </trkpt>
      <trkpt lat="45.17695" lon="4.4072">
        <ele>939.4</ele>
        <time>2026-04-24T07:38:08Z</time>
      </trkpt>
      <trkpt lat="45.17699" lon="4.40718">
        <ele>938.3</ele>
        <time>2026-04-24T07:38:13Z</time>
      </trkpt>
      <trkpt lat="45.17701" lon="4.4071">
        <ele>936.4</ele>
        <time>2026-04-24T07:38:18Z</time>
      </trkpt>
      <trkpt lat="45.177" lon="4.407">
        <ele>934.8</ele>
        <time>2026-04-24T07:38:23Z</time>
      </trkpt>
      <trkpt lat="45.177" lon="4.40691">
        <ele>933.1</ele>
        <time>2026-04-24T07:38:28Z</time>
      </trkpt>
      <trkpt lat="45.17703" lon="4.40685">
        <ele>931.4</ele>
        <time>2026-04-24T07:38:33Z</time>
      </trkpt>
      <trkpt lat="45.17703" lon="4.4068">
        <ele>930.5</ele>
        <time>2026-04-24T07:38:38Z</time>
      </trkpt>
      <trkpt lat="45.17699" lon="4.4067">
        <ele>929.4</ele>
        <time>2026-04-24T07:38:43Z</time>
      </trkpt>
      <trkpt lat="45.17696" lon="4.40662">
        <ele>928.2</ele>
        <time>2026-04-24T07:38:48Z</time>
      </trkpt>
      <trkpt lat="45.17695" lon="4.40657">
        <ele>927.1</ele>
        <time>2026-04-24T07:38:53Z</time>
      </trkpt>
      <trkpt lat="45.17691" lon="4.4065">
        <ele>925.9</ele>
        <time>2026-04-24T07:38:58Z</time>
      </trkpt>
      <trkpt lat="45.17687" lon="4.4064">
        <ele>923.9</ele>
        <time>2026-04-24T07:39:03Z</time>
      </trkpt>
      <trkpt lat="45.17683" lon="4.40631">
        <ele>922</ele>
        <time>2026-04-24T07:39:08Z</time>
      </trkpt>
      <trkpt lat="45.17679" lon="4.40623">
        <ele>920.3</ele>
        <time>2026-04-24T07:39:13Z</time>
      </trkpt>
      <trkpt lat="45.17677" lon="4.40616">
        <ele>918.6</ele>
        <time>2026-04-24T07:39:18Z</time>
      </trkpt>
      <trkpt lat="45.17672" lon="4.4061">
        <ele>917.4</ele>
        <time>2026-04-24T07:39:23Z</time>
      </trkpt>
      <trkpt lat="45.17668" lon="4.40602">
        <ele>915.5</ele>
        <time>2026-04-24T07:39:28Z</time>
      </trkpt>
      <trkpt lat="45.17664" lon="4.40593">
        <ele>912.7</ele>
        <time>2026-04-24T07:39:33Z</time>
      </trkpt>
      <trkpt lat="45.1766" lon="4.40585">
        <ele>910</ele>
        <time>2026-04-24T07:39:38Z</time>
      </trkpt>
      <trkpt lat="45.17657" lon="4.40576">
        <ele>907.8</ele>
        <time>2026-04-24T07:39:43Z</time>
      </trkpt>
      <trkpt lat="45.17653" lon="4.40563">
        <ele>905.1</ele>
        <time>2026-04-24T07:39:48Z</time>
      </trkpt>
      <trkpt lat="45.17654" lon="4.40558">
        <ele>904.2</ele>
        <time>2026-04-24T07:39:53Z</time>
      </trkpt>
      <trkpt lat="45.17661" lon="4.40555">
        <ele>903.7</ele>
        <time>2026-04-24T07:39:58Z</time>
      </trkpt>
      <trkpt lat="45.17662" lon="4.40555">
        <ele>903.8</ele>
        <time>2026-04-24T07:40:03Z</time>
      </trkpt>
      <trkpt lat="45.17667" lon="4.40553">
        <ele>903.4</ele>
        <time>2026-04-24T07:40:08Z</time>
      </trkpt>
      <trkpt lat="45.17673" lon="4.40549">
        <ele>902.4</ele>
        <time>2026-04-24T07:40:13Z</time>
      </trkpt>
      <trkpt lat="45.17679" lon="4.40544">
        <ele>901.2</ele>
        <time>2026-04-24T07:40:18Z</time>
      </trkpt>
      <trkpt lat="45.17684" lon="4.40539">
        <ele>900.2</ele>
        <time>2026-04-24T07:40:23Z</time>
      </trkpt>
      <trkpt lat="45.1769" lon="4.40533">
        <ele>899</ele>
        <time>2026-04-24T07:40:28Z</time>
      </trkpt>
      <trkpt lat="45.17695" lon="4.40527">
        <ele>897.9</ele>
        <time>2026-04-24T07:40:33Z</time>
      </trkpt>
      <trkpt lat="45.17703" lon="4.4052">
        <ele>896.7</ele>
        <time>2026-04-24T07:40:38Z</time>
      </trkpt>
      <trkpt lat="45.17706" lon="4.40509">
        <ele>894.9</ele>
        <time>2026-04-24T07:40:43Z</time>
      </trkpt>
      <trkpt lat="45.17708" lon="4.40501">
        <ele>893.7</ele>
        <time>2026-04-24T07:40:48Z</time>
      </trkpt>
      <trkpt lat="45.17709" lon="4.40495">
        <ele>893.3</ele>
        <time>2026-04-24T07:40:53Z</time>
      </trkpt>
      <trkpt lat="45.17708" lon="4.40489">
        <ele>893.1</ele>
        <time>2026-04-24T07:40:58Z</time>
      </trkpt>
      <trkpt lat="45.17707" lon="4.40487">
        <ele>893</ele>
        <time>2026-04-24T07:41:03Z</time>
      </trkpt>
      <trkpt lat="45.17705" lon="4.40477">
        <ele>892.6</ele>
        <time>2026-04-24T07:41:08Z</time>
      </trkpt>
      <trkpt lat="45.17704" lon="4.40466">
        <ele>892.2</ele>
        <time>2026-04-24T07:41:13Z</time>
      </trkpt>
      <trkpt lat="45.17704" lon="4.40456">
        <ele>891.9</ele>
        <time>2026-04-24T07:41:18Z</time>
      </trkpt>
      <trkpt lat="45.17703" lon="4.40447">
        <ele>891.6</ele>
        <time>2026-04-24T07:41:23Z</time>
      </trkpt>
      <trkpt lat="45.17704" lon="4.40437">
        <ele>891.2</ele>
        <time>2026-04-24T07:41:28Z</time>
      </trkpt>
      <trkpt lat="45.17704" lon="4.40427">
        <ele>890.9</ele>
        <time>2026-04-24T07:41:33Z</time>
      </trkpt>
      <trkpt lat="45.17705" lon="4.40418">
        <ele>890.6</ele>
        <time>2026-04-24T07:41:38Z</time>
      </trkpt>
      <trkpt lat="45.17706" lon="4.40411">
        <ele>890.9</ele>
        <time>2026-04-24T07:41:43Z</time>
      </trkpt>
      <trkpt lat="45.17707" lon="4.40401">
        <ele>891.5</ele>
        <time>2026-04-24T07:41:48Z</time>
      </trkpt>
      <trkpt lat="45.17708" lon="4.40391">
        <ele>892.1</ele>
        <time>2026-04-24T07:41:53Z</time>
      </trkpt>
      <trkpt lat="45.17713" lon="4.40385">
        <ele>892.1</ele>
        <time>2026-04-24T07:41:58Z</time>
      </trkpt>
      <trkpt lat="45.17715" lon="4.40384">
        <ele>892.1</ele>
        <time>2026-04-24T07:42:03Z</time>
      </trkpt>
      <trkpt lat="45.17717" lon="4.40384">
        <ele>891.9</ele>
        <time>2026-04-24T07:42:08Z</time>
      </trkpt>
      <trkpt lat="45.17718" lon="4.40384">
        <ele>891.9</ele>
        <time>2026-04-24T07:42:13Z</time>
      </trkpt>
      <trkpt lat="45.17718" lon="4.40384">
        <ele>891.9</ele>
        <time>2026-04-24T07:42:18Z</time>
      </trkpt>
      <trkpt lat="45.17718" lon="4.40384">
        <ele>891.9</ele>
        <time>2026-04-24T07:42:23Z</time>
      </trkpt>
      <trkpt lat="45.17718" lon="4.40384">
        <ele>891.9</ele>
        <time>2026-04-24T07:42:28Z</time>
      </trkpt>
      <trkpt lat="45.1773" lon="4.40386">
        <ele>891.1</ele>
        <time>2026-04-24T07:42:33Z</time>
      </trkpt>
      <trkpt lat="45.17731" lon="4.40388">
        <ele>891</ele>
        <time>2026-04-24T07:42:38Z</time>
      </trkpt>
      <trkpt lat="45.1773" lon="4.40391">
        <ele>891</ele>
        <time>2026-04-24T07:42:43Z</time>
      </trkpt>
      <trkpt lat="45.17729" lon="4.40392">
        <ele>891</ele>
        <time>2026-04-24T07:42:48Z</time>
      </trkpt>
      <trkpt lat="45.17729" lon="4.40392">
        <ele>891</ele>
        <time>2026-04-24T07:42:53Z</time>
      </trkpt>
      <trkpt lat="45.17729" lon="4.40392">
        <ele>891</ele>
        <time>2026-04-24T07:42:58Z</time>
      </trkpt>
      <trkpt lat="45.17726" lon="4.404">
        <ele>890.9</ele>
        <time>2026-04-24T07:43:03Z</time>
      </trkpt>
      <trkpt lat="45.17726" lon="4.404">
        <ele>890.9</ele>
        <time>2026-04-24T07:43:08Z</time>
      </trkpt>
      <trkpt lat="45.17726" lon="4.404">
        <ele>890.9</ele>
        <time>2026-04-24T07:43:13Z</time>
      </trkpt>
      <trkpt lat="45.17726" lon="4.404">
        <ele>890.9</ele>
        <time>2026-04-24T07:43:18Z</time>
      </trkpt>
      <trkpt lat="45.17726" lon="4.404">
        <ele>890.9</ele>
        <time>2026-04-24T07:43:23Z</time>
      </trkpt>
      <trkpt lat="45.17726" lon="4.404">
        <ele>890.9</ele>
        <time>2026-04-24T07:43:28Z</time>
      </trkpt>
      <trkpt lat="45.17726" lon="4.404">
        <ele>890.9</ele>
        <time>2026-04-24T07:43:33Z</time>
      </trkpt>
      <trkpt lat="45.17726" lon="4.404">
        <ele>890.9</ele>
        <time>2026-04-24T07:43:38Z</time>
      </trkpt>
      <trkpt lat="45.17726" lon="4.404">
        <ele>890.9</ele>
        <time>2026-04-24T07:43:43Z</time>
      </trkpt>
      <trkpt lat="45.17726" lon="4.404">
        <ele>890.9</ele>
        <time>2026-04-24T07:43:48Z</time>
      </trkpt>
      <trkpt lat="45.17726" lon="4.404">
        <ele>890.9</ele>
        <time>2026-04-24T07:43:53Z</time>
      </trkpt>
      <trkpt lat="45.17726" lon="4.404">
        <ele>890.9</ele>
        <time>2026-04-24T07:43:58Z</time>
      </trkpt>
      <trkpt lat="45.17723" lon="4.4041">
        <ele>890.6</ele>
        <time>2026-04-24T07:44:03Z</time>
      </trkpt>
      <trkpt lat="45.17722" lon="4.40413">
        <ele>890.5</ele>
        <time>2026-04-24T07:44:08Z</time>
      </trkpt>
      <trkpt lat="45.17721" lon="4.40416">
        <ele>890.4</ele>
        <time>2026-04-24T07:44:13Z</time>
      </trkpt>
      <trkpt lat="45.17721" lon="4.40419">
        <ele>890.4</ele>
        <time>2026-04-24T07:44:18Z</time>
      </trkpt>
      <trkpt lat="45.17721" lon="4.40423">
        <ele>890.6</ele>
        <time>2026-04-24T07:44:23Z</time>
      </trkpt>
      <trkpt lat="45.1772" lon="4.40429">
        <ele>890.9</ele>
        <time>2026-04-24T07:44:28Z</time>
      </trkpt>
      <trkpt lat="45.17721" lon="4.40433">
        <ele>891.1</ele>
        <time>2026-04-24T07:44:33Z</time>
      </trkpt>
      <trkpt lat="45.17722" lon="4.40437">
        <ele>891.2</ele>
        <time>2026-04-24T07:44:38Z</time>
      </trkpt>
      <trkpt lat="45.17723" lon="4.40442">
        <ele>891.5</ele>
        <time>2026-04-24T07:44:43Z</time>
      </trkpt>
      <trkpt lat="45.17723" lon="4.40445">
        <ele>891.6</ele>
        <time>2026-04-24T07:44:48Z</time>
      </trkpt>
      <trkpt lat="45.17724" lon="4.4045">
        <ele>891.8</ele>
        <time>2026-04-24T07:44:53Z</time>
      </trkpt>
      <trkpt lat="45.17725" lon="4.40454">
        <ele>892</ele>
        <time>2026-04-24T07:44:58Z</time>
      </trkpt>
      <trkpt lat="45.17725" lon="4.40459">
        <ele>892.2</ele>
        <time>2026-04-24T07:45:03Z</time>
      </trkpt>
      <trkpt lat="45.17725" lon="4.40465">
        <ele>892.5</ele>
        <time>2026-04-24T07:45:08Z</time>
      </trkpt>
      <trkpt lat="45.17725" lon="4.40472">
        <ele>892.8</ele>
        <time>2026-04-24T07:45:13Z</time>
      </trkpt>
      <trkpt lat="45.17726" lon="4.4048">
        <ele>893.2</ele>
        <time>2026-04-24T07:45:18Z</time>
      </trkpt>
      <trkpt lat="45.17729" lon="4.40486">
        <ele>893.6</ele>
        <time>2026-04-24T07:45:23Z</time>
      </trkpt>
      <trkpt lat="45.17732" lon="4.40491">
        <ele>893.9</ele>
        <time>2026-04-24T07:45:28Z</time>
      </trkpt>
      <trkpt lat="45.17735" lon="4.40496">
        <ele>894.3</ele>
        <time>2026-04-24T07:45:33Z</time>
      </trkpt>
      <trkpt lat="45.17738" lon="4.40502">
        <ele>894.8</ele>
        <time>2026-04-24T07:45:38Z</time>
      </trkpt>
      <trkpt lat="45.17741" lon="4.40508">
        <ele>895.6</ele>
        <time>2026-04-24T07:45:43Z</time>
      </trkpt>
      <trkpt lat="45.17743" lon="4.40515">
        <ele>896.5</ele>
        <time>2026-04-24T07:45:48Z</time>
      </trkpt>
      <trkpt lat="45.17745" lon="4.40519">
        <ele>897</ele>
        <time>2026-04-24T07:45:53Z</time>
      </trkpt>
      <trkpt lat="45.17749" lon="4.40522">
        <ele>897.4</ele>
        <time>2026-04-24T07:45:58Z</time>
      </trkpt>
      <trkpt lat="45.17752" lon="4.40527">
        <ele>898.3</ele>
        <time>2026-04-24T07:46:03Z</time>
      </trkpt>
      <trkpt lat="45.17756" lon="4.40529">
        <ele>899.1</ele>
        <time>2026-04-24T07:46:08Z</time>
      </trkpt>
      <trkpt lat="45.1776" lon="4.40533">
        <ele>900.1</ele>
        <time>2026-04-24T07:46:13Z</time>
      </trkpt>
      <trkpt lat="45.17764" lon="4.40538">
        <ele>901.1</ele>
        <time>2026-04-24T07:46:18Z</time>
      </trkpt>
      <trkpt lat="45.17767" lon="4.40542">
        <ele>901.9</ele>
        <time>2026-04-24T07:46:23Z</time>
      </trkpt>
      <trkpt lat="45.17771" lon="4.40546">
        <ele>902.7</ele>
        <time>2026-04-24T07:46:28Z</time>
      </trkpt>
      <trkpt lat="45.17774" lon="4.40548">
        <ele>903.2</ele>
        <time>2026-04-24T07:46:33Z</time>
      </trkpt>
      <trkpt lat="45.17777" lon="4.4055">
        <ele>903.6</ele>
        <time>2026-04-24T07:46:38Z</time>
      </trkpt>
      <trkpt lat="45.17781" lon="4.40553">
        <ele>904.2</ele>
        <time>2026-04-24T07:46:43Z</time>
      </trkpt>
      <trkpt lat="45.17784" lon="4.40556">
        <ele>904.7</ele>
        <time>2026-04-24T07:46:48Z</time>
      </trkpt>
      <trkpt lat="45.17788" lon="4.40556">
        <ele>905.1</ele>
        <time>2026-04-24T07:46:53Z</time>
      </trkpt>
      <trkpt lat="45.1779" lon="4.40551">
        <ele>905.2</ele>
        <time>2026-04-24T07:46:58Z</time>
      </trkpt>
      <trkpt lat="45.17789" lon="4.40548">
        <ele>905</ele>
        <time>2026-04-24T07:47:03Z</time>
      </trkpt>
      <trkpt lat="45.17786" lon="4.40545">
        <ele>904.6</ele>
        <time>2026-04-24T07:47:08Z</time>
      </trkpt>
      <trkpt lat="45.17782" lon="4.40539">
        <ele>903.8</ele>
        <time>2026-04-24T07:47:13Z</time>
      </trkpt>
      <trkpt lat="45.17778" lon="4.40534">
        <ele>903</ele>
        <time>2026-04-24T07:47:18Z</time>
      </trkpt>
      <trkpt lat="45.17776" lon="4.40528">
        <ele>902.4</ele>
        <time>2026-04-24T07:47:23Z</time>
      </trkpt>
      <trkpt lat="45.17773" lon="4.40523">
        <ele>901.6</ele>
        <time>2026-04-24T07:47:28Z</time>
      </trkpt>
      <trkpt lat="45.1777" lon="4.40518">
        <ele>900.7</ele>
        <time>2026-04-24T07:47:33Z</time>
      </trkpt>
      <trkpt lat="45.17769" lon="4.40512">
        <ele>900.1</ele>
        <time>2026-04-24T07:47:38Z</time>
      </trkpt>
      <trkpt lat="45.17767" lon="4.40505">
        <ele>899.2</ele>
        <time>2026-04-24T07:47:43Z</time>
      </trkpt>
      <trkpt lat="45.17766" lon="4.405">
        <ele>898.6</ele>
        <time>2026-04-24T07:47:48Z</time>
      </trkpt>
      <trkpt lat="45.17765" lon="4.40493">
        <ele>898</ele>
        <time>2026-04-24T07:47:53Z</time>
      </trkpt>
      <trkpt lat="45.17765" lon="4.40486">
        <ele>897.6</ele>
        <time>2026-04-24T07:47:58Z</time>
      </trkpt>
      <trkpt lat="45.17766" lon="4.40479">
        <ele>897.4</ele>
        <time>2026-04-24T07:48:03Z</time>
      </trkpt>
      <trkpt lat="45.17768" lon="4.40473">
        <ele>897.6</ele>
        <time>2026-04-24T07:48:08Z</time>
      </trkpt>
      <trkpt lat="45.1777" lon="4.4047">
        <ele>897.8</ele>
        <time>2026-04-24T07:48:13Z</time>
      </trkpt>
      <trkpt lat="45.17772" lon="4.40466">
        <ele>898.1</ele>
        <time>2026-04-24T07:48:18Z</time>
      </trkpt>
      <trkpt lat="45.17775" lon="4.40462">
        <ele>898.6</ele>
        <time>2026-04-24T07:48:23Z</time>
      </trkpt>
      <trkpt lat="45.17778" lon="4.40459">
        <ele>899.1</ele>
        <time>2026-04-24T07:48:28Z</time>
      </trkpt>
      <trkpt lat="45.17781" lon="4.40457">
        <ele>899.7</ele>
        <time>2026-04-24T07:48:33Z</time>
      </trkpt>
      <trkpt lat="45.17785" lon="4.40458">
        <ele>900.7</ele>
        <time>2026-04-24T07:48:38Z</time>
      </trkpt>
      <trkpt lat="45.17787" lon="4.40459">
        <ele>901.2</ele>
        <time>2026-04-24T07:48:43Z</time>
      </trkpt>
      <trkpt lat="45.17788" lon="4.40464">
        <ele>901.7</ele>
        <time>2026-04-24T07:48:48Z</time>
      </trkpt>
      <trkpt lat="45.17788" lon="4.40471">
        <ele>902.1</ele>
        <time>2026-04-24T07:48:53Z</time>
      </trkpt>
      <trkpt lat="45.17789" lon="4.40478">
        <ele>902.7</ele>
        <time>2026-04-24T07:48:58Z</time>
      </trkpt>
      <trkpt lat="45.1779" lon="4.40483">
        <ele>903.2</ele>
        <time>2026-04-24T07:49:03Z</time>
      </trkpt>
      <trkpt lat="45.17792" lon="4.40488">
        <ele>903.9</ele>
        <time>2026-04-24T07:49:08Z</time>
      </trkpt>
      <trkpt lat="45.17795" lon="4.40493">
        <ele>904.9</ele>
        <time>2026-04-24T07:49:13Z</time>
      </trkpt>
      <trkpt lat="45.17797" lon="4.40499">
        <ele>905.7</ele>
        <time>2026-04-24T07:49:18Z</time>
      </trkpt>
      <trkpt lat="45.178" lon="4.40504">
        <ele>906.4</ele>
        <time>2026-04-24T07:49:23Z</time>
      </trkpt>
      <trkpt lat="45.17803" lon="4.40508">
        <ele>907</ele>
        <time>2026-04-24T07:49:28Z</time>
      </trkpt>
      <trkpt lat="45.17806" lon="4.40513">
        <ele>907.6</ele>
        <time>2026-04-24T07:49:33Z</time>
      </trkpt>
      <trkpt lat="45.1781" lon="4.40517">
        <ele>908.3</ele>
        <time>2026-04-24T07:49:38Z</time>
      </trkpt>
      <trkpt lat="45.17813" lon="4.40521">
        <ele>908.8</ele>
        <time>2026-04-24T07:49:43Z</time>
      </trkpt>
      <trkpt lat="45.17817" lon="4.40524">
        <ele>909.4</ele>
        <time>2026-04-24T07:49:48Z</time>
      </trkpt>
      <trkpt lat="45.17822" lon="4.40524">
        <ele>910.3</ele>
        <time>2026-04-24T07:49:53Z</time>
      </trkpt>
      <trkpt lat="45.17824" lon="4.40522">
        <ele>910.7</ele>
        <time>2026-04-24T07:49:58Z</time>
      </trkpt>
      <trkpt lat="45.17827" lon="4.4052">
        <ele>911.4</ele>
        <time>2026-04-24T07:50:03Z</time>
      </trkpt>
      <trkpt lat="45.17828" lon="4.40515">
        <ele>911.9</ele>
        <time>2026-04-24T07:50:08Z</time>
      </trkpt>
      <trkpt lat="45.17827" lon="4.40511">
        <ele>911.9</ele>
        <time>2026-04-24T07:50:13Z</time>
      </trkpt>
      <trkpt lat="45.17827" lon="4.40505">
        <ele>912.3</ele>
        <time>2026-04-24T07:50:18Z</time>
      </trkpt>
      <trkpt lat="45.17829" lon="4.405">
        <ele>913</ele>
        <time>2026-04-24T07:50:23Z</time>
      </trkpt>
      <trkpt lat="45.17831" lon="4.40495">
        <ele>913.2</ele>
        <time>2026-04-24T07:50:28Z</time>
      </trkpt>
      <trkpt lat="45.17834" lon="4.4049">
        <ele>913.7</ele>
        <time>2026-04-24T07:50:33Z</time>
      </trkpt>
      <trkpt lat="45.17836" lon="4.40486">
        <ele>914.2</ele>
        <time>2026-04-24T07:50:38Z</time>
      </trkpt>
      <trkpt lat="45.17839" lon="4.40483">
        <ele>915</ele>
        <time>2026-04-24T07:50:43Z</time>
      </trkpt>
      <trkpt lat="45.17845" lon="4.40481">
        <ele>916.9</ele>
        <time>2026-04-24T07:50:48Z</time>
      </trkpt>
      <trkpt lat="45.17849" lon="4.4048">
        <ele>918.2</ele>
        <time>2026-04-24T07:50:53Z</time>
      </trkpt>
      <trkpt lat="45.17853" lon="4.4048">
        <ele>919.5</ele>
        <time>2026-04-24T07:50:58Z</time>
      </trkpt>
      <trkpt lat="45.17857" lon="4.40482">
        <ele>920.9</ele>
        <time>2026-04-24T07:51:03Z</time>
      </trkpt>
      <trkpt lat="45.17861" lon="4.40483">
        <ele>922.3</ele>
        <time>2026-04-24T07:51:08Z</time>
      </trkpt>
      <trkpt lat="45.17865" lon="4.40487">
        <ele>923.8</ele>
        <time>2026-04-24T07:51:13Z</time>
      </trkpt>
      <trkpt lat="45.17869" lon="4.40492">
        <ele>925.5</ele>
        <time>2026-04-24T07:51:18Z</time>
      </trkpt>
      <trkpt lat="45.1787" lon="4.40497">
        <ele>926.1</ele>
        <time>2026-04-24T07:51:23Z</time>
      </trkpt>
      <trkpt lat="45.17873" lon="4.40501">
        <ele>927.3</ele>
        <time>2026-04-24T07:51:28Z</time>
      </trkpt>
      <trkpt lat="45.17877" lon="4.40505">
        <ele>928.3</ele>
        <time>2026-04-24T07:51:33Z</time>
      </trkpt>
      <trkpt lat="45.17881" lon="4.40507">
        <ele>929.5</ele>
        <time>2026-04-24T07:51:38Z</time>
      </trkpt>
      <trkpt lat="45.17884" lon="4.40507">
        <ele>930.5</ele>
        <time>2026-04-24T07:51:43Z</time>
      </trkpt>
      <trkpt lat="45.17888" lon="4.40508">
        <ele>931.7</ele>
        <time>2026-04-24T07:51:48Z</time>
      </trkpt>
      <trkpt lat="45.17892" lon="4.40508">
        <ele>933.1</ele>
        <time>2026-04-24T07:51:53Z</time>
      </trkpt>
      <trkpt lat="45.17896" lon="4.4051">
        <ele>934.2</ele>
        <time>2026-04-24T07:51:58Z</time>
      </trkpt>
      <trkpt lat="45.179" lon="4.40511">
        <ele>935.5</ele>
        <time>2026-04-24T07:52:03Z</time>
      </trkpt>
      <trkpt lat="45.17904" lon="4.40513">
        <ele>936.7</ele>
        <time>2026-04-24T07:52:08Z</time>
      </trkpt>
      <trkpt lat="45.17909" lon="4.40514">
        <ele>938.3</ele>
        <time>2026-04-24T07:52:13Z</time>
      </trkpt>
      <trkpt lat="45.17914" lon="4.40515">
        <ele>939.8</ele>
        <time>2026-04-24T07:52:18Z</time>
      </trkpt>
      <trkpt lat="45.17921" lon="4.40514">
        <ele>941.6</ele>
        <time>2026-04-24T07:52:23Z</time>
      </trkpt>
      <trkpt lat="45.17927" lon="4.40514">
        <ele>942.7</ele>
        <time>2026-04-24T07:52:28Z</time>
      </trkpt>
      <trkpt lat="45.17933" lon="4.40514">
        <ele>943.9</ele>
        <time>2026-04-24T07:52:33Z</time>
      </trkpt>
      <trkpt lat="45.17938" lon="4.40515">
        <ele>944.7</ele>
        <time>2026-04-24T07:52:38Z</time>
      </trkpt>
      <trkpt lat="45.17943" lon="4.40515">
        <ele>945.7</ele>
        <time>2026-04-24T07:52:43Z</time>
      </trkpt>
      <trkpt lat="45.17949" lon="4.40515">
        <ele>946.8</ele>
        <time>2026-04-24T07:52:48Z</time>
      </trkpt>
      <trkpt lat="45.17954" lon="4.40516">
        <ele>947.7</ele>
        <time>2026-04-24T07:52:53Z</time>
      </trkpt>
      <trkpt lat="45.17958" lon="4.40518">
        <ele>948.4</ele>
        <time>2026-04-24T07:52:58Z</time>
      </trkpt>
      <trkpt lat="45.17963" lon="4.4052">
        <ele>949.3</ele>
        <time>2026-04-24T07:53:03Z</time>
      </trkpt>
      <trkpt lat="45.17966" lon="4.40524">
        <ele>949.8</ele>
        <time>2026-04-24T07:53:08Z</time>
      </trkpt>
      <trkpt lat="45.17971" lon="4.40527">
        <ele>950.8</ele>
        <time>2026-04-24T07:53:13Z</time>
      </trkpt>
      <trkpt lat="45.17974" lon="4.40531">
        <ele>951.3</ele>
        <time>2026-04-24T07:53:18Z</time>
      </trkpt>
      <trkpt lat="45.17979" lon="4.40536">
        <ele>952.4</ele>
        <time>2026-04-24T07:53:23Z</time>
      </trkpt>
      <trkpt lat="45.17985" lon="4.40539">
        <ele>953.7</ele>
        <time>2026-04-24T07:53:28Z</time>
      </trkpt>
      <trkpt lat="45.1799" lon="4.4054">
        <ele>954.8</ele>
        <time>2026-04-24T07:53:33Z</time>
      </trkpt>
      <trkpt lat="45.17995" lon="4.40544">
        <ele>955.9</ele>
        <time>2026-04-24T07:53:38Z</time>
      </trkpt>
      <trkpt lat="45.18001" lon="4.40543">
        <ele>957.1</ele>
        <time>2026-04-24T07:53:43Z</time>
      </trkpt>
      <trkpt lat="45.18008" lon="4.40543">
        <ele>957.8</ele>
        <time>2026-04-24T07:53:48Z</time>
      </trkpt>
      <trkpt lat="45.18014" lon="4.40542">
        <ele>958.4</ele>
        <time>2026-04-24T07:53:53Z</time>
      </trkpt>
      <trkpt lat="45.18019" lon="4.40541">
        <ele>958.8</ele>
        <time>2026-04-24T07:53:58Z</time>
      </trkpt>
      <trkpt lat="45.18024" lon="4.40539">
        <ele>959.3</ele>
        <time>2026-04-24T07:54:03Z</time>
      </trkpt>
      <trkpt lat="45.18029" lon="4.40537">
        <ele>959.7</ele>
        <time>2026-04-24T07:54:08Z</time>
      </trkpt>
      <trkpt lat="45.18034" lon="4.40536">
        <ele>960.2</ele>
        <time>2026-04-24T07:54:13Z</time>
      </trkpt>
      <trkpt lat="45.18038" lon="4.40535">
        <ele>960.6</ele>
        <time>2026-04-24T07:54:18Z</time>
      </trkpt>
      <trkpt lat="45.18043" lon="4.40533">
        <ele>961</ele>
        <time>2026-04-24T07:54:23Z</time>
      </trkpt>
      <trkpt lat="45.18047" lon="4.40531">
        <ele>961.4</ele>
        <time>2026-04-24T07:54:28Z</time>
      </trkpt>
      <trkpt lat="45.18052" lon="4.4053">
        <ele>961.9</ele>
        <time>2026-04-24T07:54:33Z</time>
      </trkpt>
      <trkpt lat="45.18058" lon="4.40529">
        <ele>962.5</ele>
        <time>2026-04-24T07:54:38Z</time>
      </trkpt>
      <trkpt lat="45.18062" lon="4.40527">
        <ele>962.9</ele>
        <time>2026-04-24T07:54:43Z</time>
      </trkpt>
      <trkpt lat="45.18068" lon="4.40528">
        <ele>963.5</ele>
        <time>2026-04-24T07:54:48Z</time>
      </trkpt>
      <trkpt lat="45.18073" lon="4.40526">
        <ele>964</ele>
        <time>2026-04-24T07:54:53Z</time>
      </trkpt>
      <trkpt lat="45.18078" lon="4.40523">
        <ele>964.5</ele>
        <time>2026-04-24T07:54:58Z</time>
      </trkpt>
      <trkpt lat="45.18084" lon="4.40522">
        <ele>965</ele>
        <time>2026-04-24T07:55:03Z</time>
      </trkpt>
      <trkpt lat="45.18087" lon="4.40521">
        <ele>965.2</ele>
        <time>2026-04-24T07:55:08Z</time>
      </trkpt>
      <trkpt lat="45.18093" lon="4.4052">
        <ele>965.5</ele>
        <time>2026-04-24T07:55:13Z</time>
      </trkpt>
      <trkpt lat="45.18099" lon="4.40521">
        <ele>965.8</ele>
        <time>2026-04-24T07:55:18Z</time>
      </trkpt>
      <trkpt lat="45.18105" lon="4.40521">
        <ele>966.2</ele>
        <time>2026-04-24T07:55:23Z</time>
      </trkpt>
      <trkpt lat="45.18111" lon="4.40521">
        <ele>966.5</ele>
        <time>2026-04-24T07:55:28Z</time>
      </trkpt>
      <trkpt lat="45.18116" lon="4.40521">
        <ele>966.8</ele>
        <time>2026-04-24T07:55:33Z</time>
      </trkpt>
      <trkpt lat="45.18123" lon="4.4052">
        <ele>967.2</ele>
        <time>2026-04-24T07:55:38Z</time>
      </trkpt>
      <trkpt lat="45.18128" lon="4.4052">
        <ele>967.4</ele>
        <time>2026-04-24T07:55:43Z</time>
      </trkpt>
      <trkpt lat="45.18133" lon="4.4052">
        <ele>967.7</ele>
        <time>2026-04-24T07:55:48Z</time>
      </trkpt>
      <trkpt lat="45.18139" lon="4.4052">
        <ele>968</ele>
        <time>2026-04-24T07:55:53Z</time>
      </trkpt>
      <trkpt lat="45.18145" lon="4.40519">
        <ele>968.4</ele>
        <time>2026-04-24T07:55:58Z</time>
      </trkpt>
      <trkpt lat="45.18151" lon="4.40518">
        <ele>968.8</ele>
        <time>2026-04-24T07:56:03Z</time>
      </trkpt>
      <trkpt lat="45.18156" lon="4.40516">
        <ele>969.2</ele>
        <time>2026-04-24T07:56:08Z</time>
      </trkpt>
      <trkpt lat="45.18162" lon="4.40514">
        <ele>969.7</ele>
        <time>2026-04-24T07:56:13Z</time>
      </trkpt>
      <trkpt lat="45.18166" lon="4.40509">
        <ele>970.3</ele>
        <time>2026-04-24T07:56:18Z</time>
      </trkpt>
      <trkpt lat="45.18171" lon="4.40504">
        <ele>971.2</ele>
        <time>2026-04-24T07:56:23Z</time>
      </trkpt>
      <trkpt lat="45.18176" lon="4.405">
        <ele>972</ele>
        <time>2026-04-24T07:56:28Z</time>
      </trkpt>
      <trkpt lat="45.1818" lon="4.40495">
        <ele>972.9</ele>
        <time>2026-04-24T07:56:33Z</time>
      </trkpt>
      <trkpt lat="45.18184" lon="4.40492">
        <ele>973.5</ele>
        <time>2026-04-24T07:56:38Z</time>
      </trkpt>
      <trkpt lat="45.18187" lon="4.4049">
        <ele>974</ele>
        <time>2026-04-24T07:56:43Z</time>
      </trkpt>
      <trkpt lat="45.18191" lon="4.40487">
        <ele>974.6</ele>
        <time>2026-04-24T07:56:48Z</time>
      </trkpt>
      <trkpt lat="45.18194" lon="4.4048">
        <ele>975.5</ele>
        <time>2026-04-24T07:56:53Z</time>
      </trkpt>
      <trkpt lat="45.18197" lon="4.40472">
        <ele>976.4</ele>
        <time>2026-04-24T07:56:58Z</time>
      </trkpt>
      <trkpt lat="45.18197" lon="4.40469">
        <ele>976.6</ele>
        <time>2026-04-24T07:57:03Z</time>
      </trkpt>
      <trkpt lat="45.18197" lon="4.40468">
        <ele>976.6</ele>
        <time>2026-04-24T07:57:08Z</time>
      </trkpt>
      <trkpt lat="45.18196" lon="4.40468">
        <ele>976.6</ele>
        <time>2026-04-24T07:57:13Z</time>
      </trkpt>
      <trkpt lat="45.18196" lon="4.40468">
        <ele>976.6</ele>
        <time>2026-04-24T07:57:18Z</time>
      </trkpt>
      <trkpt lat="45.18196" lon="4.40468">
        <ele>976.6</ele>
        <time>2026-04-24T07:57:23Z</time>
      </trkpt>
      <trkpt lat="45.18196" lon="4.40468">
        <ele>976.6</ele>
        <time>2026-04-24T07:57:28Z</time>
      </trkpt>
      <trkpt lat="45.18196" lon="4.40468">
        <ele>976.6</ele>
        <time>2026-04-24T07:57:33Z</time>
      </trkpt>
      <trkpt lat="45.18196" lon="4.40468">
        <ele>976.6</ele>
        <time>2026-04-24T07:57:38Z</time>
      </trkpt>
      <trkpt lat="45.18196" lon="4.40468">
        <ele>976.6</ele>
        <time>2026-04-24T07:57:43Z</time>
      </trkpt>
      <trkpt lat="45.18196" lon="4.40468">
        <ele>976.6</ele>
        <time>2026-04-24T07:57:48Z</time>
      </trkpt>
      <trkpt lat="45.18196" lon="4.40468">
        <ele>976.6</ele>
        <time>2026-04-24T07:57:53Z</time>
      </trkpt>
      <trkpt lat="45.18196" lon="4.40468">
        <ele>976.6</ele>
        <time>2026-04-24T07:57:58Z</time>
      </trkpt>
      <trkpt lat="45.18196" lon="4.40468">
        <ele>976.6</ele>
        <time>2026-04-24T07:58:03Z</time>
      </trkpt>
      <trkpt lat="45.18196" lon="4.40468">
        <ele>976.6</ele>
        <time>2026-04-24T07:58:08Z</time>
      </trkpt>
      <trkpt lat="45.18196" lon="4.40468">
        <ele>976.6</ele>
        <time>2026-04-24T07:58:13Z</time>
      </trkpt>
      <trkpt lat="45.18196" lon="4.40468">
        <ele>976.6</ele>
        <time>2026-04-24T07:58:18Z</time>
      </trkpt>
      <trkpt lat="45.18196" lon="4.40468">
        <ele>976.6</ele>
        <time>2026-04-24T07:58:23Z</time>
      </trkpt>
      <trkpt lat="45.18196" lon="4.40468">
        <ele>976.6</ele>
        <time>2026-04-24T07:58:28Z</time>
      </trkpt>
      <trkpt lat="45.18196" lon="4.40468">
        <ele>976.6</ele>
        <time>2026-04-24T07:58:33Z</time>
      </trkpt>
      <trkpt lat="45.18196" lon="4.40468">
        <ele>976.6</ele>
        <time>2026-04-24T07:58:38Z</time>
      </trkpt>
      <trkpt lat="45.18196" lon="4.40468">
        <ele>976.6</ele>
        <time>2026-04-24T07:58:43Z</time>
      </trkpt>
      <trkpt lat="45.18196" lon="4.40468">
        <ele>976.6</ele>
        <time>2026-04-24T07:58:48Z</time>
      </trkpt>
      <trkpt lat="45.18196" lon="4.40468">
        <ele>976.6</ele>
        <time>2026-04-24T07:58:53Z</time>
      </trkpt>
      <trkpt lat="45.18196" lon="4.40468">
        <ele>976.6</ele>
        <time>2026-04-24T07:58:58Z</time>
      </trkpt>
      <trkpt lat="45.18196" lon="4.40468">
        <ele>976.6</ele>
        <time>2026-04-24T07:59:03Z</time>
      </trkpt>
      <trkpt lat="45.18196" lon="4.40468">
        <ele>976.6</ele>
        <time>2026-04-24T07:59:08Z</time>
      </trkpt>
      <trkpt lat="45.18196" lon="4.40468">
        <ele>976.6</ele>
        <time>2026-04-24T07:59:13Z</time>
      </trkpt>
      <trkpt lat="45.18196" lon="4.40468">
        <ele>976.6</ele>
        <time>2026-04-24T07:59:18Z</time>
      </trkpt>
      <trkpt lat="45.18196" lon="4.40468">
        <ele>976.6</ele>
        <time>2026-04-24T07:59:23Z</time>
      </trkpt>
      <trkpt lat="45.18196" lon="4.40468">
        <ele>976.6</ele>
        <time>2026-04-24T07:59:28Z</time>
      </trkpt>
      <trkpt lat="45.18196" lon="4.40468">
        <ele>976.6</ele>
        <time>2026-04-24T07:59:33Z</time>
      </trkpt>
      <trkpt lat="45.18196" lon="4.40468">
        <ele>976.6</ele>
        <time>2026-04-24T07:59:38Z</time>
      </trkpt>
      <trkpt lat="45.18196" lon="4.40468">
        <ele>976.6</ele>
        <time>2026-04-24T07:59:43Z</time>
      </trkpt>
      <trkpt lat="45.18196" lon="4.40468">
        <ele>976.6</ele>
        <time>2026-04-24T07:59:48Z</time>
      </trkpt>
      <trkpt lat="45.18196" lon="4.40468">
        <ele>976.6</ele>
        <time>2026-04-24T07:59:53Z</time>
      </trkpt>
      <trkpt lat="45.18196" lon="4.40468">
        <ele>976.6</ele>
        <time>2026-04-24T07:59:58Z</time>
      </trkpt>
      <trkpt lat="45.18199" lon="4.40458">
        <ele>977.5</ele>
        <time>2026-04-24T08:00:03Z</time>
      </trkpt>
      <trkpt lat="45.182" lon="4.40451">
        <ele>978.1</ele>
        <time>2026-04-24T08:00:08Z</time>
      </trkpt>
      <trkpt lat="45.182" lon="4.40441">
        <ele>978.8</ele>
        <time>2026-04-24T08:00:13Z</time>
      </trkpt>
      <trkpt lat="45.182" lon="4.40433">
        <ele>979.4</ele>
        <time>2026-04-24T08:00:18Z</time>
      </trkpt>
      <trkpt lat="45.182" lon="4.40424">
        <ele>980.1</ele>
        <time>2026-04-24T08:00:23Z</time>
      </trkpt>
      <trkpt lat="45.18198" lon="4.40415">
        <ele>980.7</ele>
        <time>2026-04-24T08:00:28Z</time>
      </trkpt>
      <trkpt lat="45.18196" lon="4.40406">
        <ele>981.4</ele>
        <time>2026-04-24T08:00:33Z</time>
      </trkpt>
      <trkpt lat="45.18195" lon="4.40396">
        <ele>982.3</ele>
        <time>2026-04-24T08:00:38Z</time>
      </trkpt>
      <trkpt lat="45.18189" lon="4.4039">
        <ele>982.7</ele>
        <time>2026-04-24T08:00:43Z</time>
      </trkpt>
      <trkpt lat="45.18184" lon="4.40385">
        <ele>983</ele>
        <time>2026-04-24T08:00:48Z</time>
      </trkpt>
      <trkpt lat="45.1818" lon="4.40376">
        <ele>983.8</ele>
        <time>2026-04-24T08:00:53Z</time>
      </trkpt>
      <trkpt lat="45.18176" lon="4.40367">
        <ele>984.6</ele>
        <time>2026-04-24T08:00:58Z</time>
      </trkpt>
      <trkpt lat="45.18173" lon="4.40358">
        <ele>985.5</ele>
        <time>2026-04-24T08:01:03Z</time>
      </trkpt>
      <trkpt lat="45.18169" lon="4.40353">
        <ele>985.9</ele>
        <time>2026-04-24T08:01:08Z</time>
      </trkpt>
      <trkpt lat="45.18162" lon="4.40345">
        <ele>986.1</ele>
        <time>2026-04-24T08:01:13Z</time>
      </trkpt>
      <trkpt lat="45.18156" lon="4.40341">
        <ele>985.6</ele>
        <time>2026-04-24T08:01:18Z</time>
      </trkpt>
      <trkpt lat="45.18152" lon="4.40335">
        <ele>985.7</ele>
        <time>2026-04-24T08:01:23Z</time>
      </trkpt>
      <trkpt lat="45.1815" lon="4.40326">
        <ele>986</ele>
        <time>2026-04-24T08:01:28Z</time>
      </trkpt>
      <trkpt lat="45.18149" lon="4.40316">
        <ele>986.5</ele>
        <time>2026-04-24T08:01:33Z</time>
      </trkpt>
      <trkpt lat="45.18146" lon="4.40307">
        <ele>986.7</ele>
        <time>2026-04-24T08:01:38Z</time>
      </trkpt>
      <trkpt lat="45.18142" lon="4.40301">
        <ele>986.6</ele>
        <time>2026-04-24T08:01:43Z</time>
      </trkpt>
      <trkpt lat="45.18138" lon="4.40295">
        <ele>986.5</ele>
        <time>2026-04-24T08:01:48Z</time>
      </trkpt>
      <trkpt lat="45.18136" lon="4.40287">
        <ele>986.8</ele>
        <time>2026-04-24T08:01:53Z</time>
      </trkpt>
      <trkpt lat="45.18133" lon="4.40281">
        <ele>986.9</ele>
        <time>2026-04-24T08:01:58Z</time>
      </trkpt>
      <trkpt lat="45.18131" lon="4.40277">
        <ele>987</ele>
        <time>2026-04-24T08:02:03Z</time>
      </trkpt>
      <trkpt lat="45.18126" lon="4.40273">
        <ele>986.8</ele>
        <time>2026-04-24T08:02:08Z</time>
      </trkpt>
      <trkpt lat="45.18122" lon="4.40268">
        <ele>986.8</ele>
        <time>2026-04-24T08:02:13Z</time>
      </trkpt>
      <trkpt lat="45.18118" lon="4.40264">
        <ele>986.7</ele>
        <time>2026-04-24T08:02:18Z</time>
      </trkpt>
      <trkpt lat="45.18114" lon="4.40256">
        <ele>987.1</ele>
        <time>2026-04-24T08:02:23Z</time>
      </trkpt>
      <trkpt lat="45.18109" lon="4.40249">
        <ele>987.2</ele>
        <time>2026-04-24T08:02:28Z</time>
      </trkpt>
      <trkpt lat="45.18103" lon="4.40242">
        <ele>986.9</ele>
        <time>2026-04-24T08:02:33Z</time>
      </trkpt>
      <trkpt lat="45.18097" lon="4.40235">
        <ele>986.7</ele>
        <time>2026-04-24T08:02:38Z</time>
      </trkpt>
      <trkpt lat="45.18093" lon="4.40228">
        <ele>986.6</ele>
        <time>2026-04-24T08:02:43Z</time>
      </trkpt>
      <trkpt lat="45.18089" lon="4.40218">
        <ele>986.6</ele>
        <time>2026-04-24T08:02:48Z</time>
      </trkpt>
      <trkpt lat="45.18085" lon="4.40208">
        <ele>986.6</ele>
        <time>2026-04-24T08:02:53Z</time>
      </trkpt>
      <trkpt lat="45.18082" lon="4.40202">
        <ele>986.5</ele>
        <time>2026-04-24T08:02:58Z</time>
      </trkpt>
      <trkpt lat="45.18082" lon="4.40199">
        <ele>986.6</ele>
        <time>2026-04-24T08:03:03Z</time>
      </trkpt>
      <trkpt lat="45.18081" lon="4.40199">
        <ele>986.5</ele>
        <time>2026-04-24T08:03:08Z</time>
      </trkpt>
      <trkpt lat="45.18081" lon="4.40199">
        <ele>986.5</ele>
        <time>2026-04-24T08:03:13Z</time>
      </trkpt>
      <trkpt lat="45.1808" lon="4.40196">
        <ele>986.5</ele>
        <time>2026-04-24T08:03:18Z</time>
      </trkpt>
      <trkpt lat="45.18076" lon="4.40187">
        <ele>986.3</ele>
        <time>2026-04-24T08:03:23Z</time>
      </trkpt>
      <trkpt lat="45.18072" lon="4.40178">
        <ele>986.1</ele>
        <time>2026-04-24T08:03:28Z</time>
      </trkpt>
      <trkpt lat="45.18068" lon="4.4017">
        <ele>985.8</ele>
        <time>2026-04-24T08:03:33Z</time>
      </trkpt>
      <trkpt lat="45.18065" lon="4.4016">
        <ele>985.1</ele>
        <time>2026-04-24T08:03:38Z</time>
      </trkpt>
      <trkpt lat="45.18062" lon="4.4015">
        <ele>984.1</ele>
        <time>2026-04-24T08:03:43Z</time>
      </trkpt>
      <trkpt lat="45.1806" lon="4.4014">
        <ele>983.1</ele>
        <time>2026-04-24T08:03:48Z</time>
      </trkpt>
      <trkpt lat="45.18056" lon="4.40129">
        <ele>981.8</ele>
        <time>2026-04-24T08:03:53Z</time>
      </trkpt>
      <trkpt lat="45.18054" lon="4.40118">
        <ele>980.8</ele>
        <time>2026-04-24T08:03:58Z</time>
      </trkpt>
      <trkpt lat="45.18052" lon="4.40108">
        <ele>979.8</ele>
        <time>2026-04-24T08:04:03Z</time>
      </trkpt>
      <trkpt lat="45.1805" lon="4.40097">
        <ele>978.8</ele>
        <time>2026-04-24T08:04:08Z</time>
      </trkpt>
      <trkpt lat="45.18047" lon="4.40087">
        <ele>977.6</ele>
        <time>2026-04-24T08:04:13Z</time>
      </trkpt>
      <trkpt lat="45.18046" lon="4.40076">
        <ele>976.5</ele>
        <time>2026-04-24T08:04:18Z</time>
      </trkpt>
      <trkpt lat="45.18044" lon="4.40065">
        <ele>975.3</ele>
        <time>2026-04-24T08:04:23Z</time>
      </trkpt>
      <trkpt lat="45.18042" lon="4.40055">
        <ele>974</ele>
        <time>2026-04-24T08:04:28Z</time>
      </trkpt>
      <trkpt lat="45.18041" lon="4.40045">
        <ele>972.9</ele>
        <time>2026-04-24T08:04:33Z</time>
      </trkpt>
      <trkpt lat="45.18039" lon="4.40035">
        <ele>971.6</ele>
        <time>2026-04-24T08:04:38Z</time>
      </trkpt>
      <trkpt lat="45.18037" lon="4.40024">
        <ele>970.2</ele>
        <time>2026-04-24T08:04:43Z</time>
      </trkpt>
      <trkpt lat="45.18037" lon="4.40013">
        <ele>969.1</ele>
        <time>2026-04-24T08:04:48Z</time>
      </trkpt>
      <trkpt lat="45.18036" lon="4.40001">
        <ele>967.7</ele>
        <time>2026-04-24T08:04:53Z</time>
      </trkpt>
      <trkpt lat="45.18034" lon="4.3999">
        <ele>965.9</ele>
        <time>2026-04-24T08:04:58Z</time>
      </trkpt>
      <trkpt lat="45.18034" lon="4.3998">
        <ele>964.7</ele>
        <time>2026-04-24T08:05:03Z</time>
      </trkpt>
      <trkpt lat="45.18033" lon="4.39969">
        <ele>963</ele>
        <time>2026-04-24T08:05:08Z</time>
      </trkpt>
      <trkpt lat="45.18033" lon="4.39958">
        <ele>961.7</ele>
        <time>2026-04-24T08:05:13Z</time>
      </trkpt>
      <trkpt lat="45.18032" lon="4.39947">
        <ele>960</ele>
        <time>2026-04-24T08:05:18Z</time>
      </trkpt>
      <trkpt lat="45.18032" lon="4.39936">
        <ele>958.6</ele>
        <time>2026-04-24T08:05:23Z</time>
      </trkpt>
      <trkpt lat="45.18033" lon="4.39925">
        <ele>957.5</ele>
        <time>2026-04-24T08:05:28Z</time>
      </trkpt>
      <trkpt lat="45.18032" lon="4.39914">
        <ele>955.8</ele>
        <time>2026-04-24T08:05:33Z</time>
      </trkpt>
      <trkpt lat="45.18033" lon="4.39904">
        <ele>955</ele>
        <time>2026-04-24T08:05:38Z</time>
      </trkpt>
      <trkpt lat="45.18034" lon="4.39893">
        <ele>954.1</ele>
        <time>2026-04-24T08:05:43Z</time>
      </trkpt>
      <trkpt lat="45.18036" lon="4.39882">
        <ele>953.5</ele>
        <time>2026-04-24T08:05:48Z</time>
      </trkpt>
      <trkpt lat="45.18038" lon="4.39873">
        <ele>953.2</ele>
        <time>2026-04-24T08:05:53Z</time>
      </trkpt>
      <trkpt lat="45.1804" lon="4.39863">
        <ele>952.8</ele>
        <time>2026-04-24T08:05:58Z</time>
      </trkpt>
      <trkpt lat="45.1804" lon="4.39861">
        <ele>952.5</ele>
        <time>2026-04-24T08:06:03Z</time>
      </trkpt>
      <trkpt lat="45.1804" lon="4.39851">
        <ele>951.4</ele>
        <time>2026-04-24T08:06:08Z</time>
      </trkpt>
      <trkpt lat="45.1804" lon="4.39839">
        <ele>950</ele>
        <time>2026-04-24T08:06:13Z</time>
      </trkpt>
      <trkpt lat="45.18042" lon="4.39829">
        <ele>949.4</ele>
        <time>2026-04-24T08:06:18Z</time>
      </trkpt>
      <trkpt lat="45.18043" lon="4.39818">
        <ele>948</ele>
        <time>2026-04-24T08:06:23Z</time>
      </trkpt>
      <trkpt lat="45.18045" lon="4.39808">
        <ele>947.2</ele>
        <time>2026-04-24T08:06:28Z</time>
      </trkpt>
      <trkpt lat="45.18047" lon="4.39798">
        <ele>946.4</ele>
        <time>2026-04-24T08:06:33Z</time>
      </trkpt>
      <trkpt lat="45.18048" lon="4.39787">
        <ele>945</ele>
        <time>2026-04-24T08:06:38Z</time>
      </trkpt>
      <trkpt lat="45.1805" lon="4.39777">
        <ele>944.1</ele>
        <time>2026-04-24T08:06:43Z</time>
      </trkpt>
      <trkpt lat="45.18053" lon="4.39766">
        <ele>943.6</ele>
        <time>2026-04-24T08:06:48Z</time>
      </trkpt>
      <trkpt lat="45.18055" lon="4.39756">
        <ele>942.7</ele>
        <time>2026-04-24T08:06:53Z</time>
      </trkpt>
      <trkpt lat="45.18057" lon="4.39745">
        <ele>941.5</ele>
        <time>2026-04-24T08:06:58Z</time>
      </trkpt>
      <trkpt lat="45.18059" lon="4.39734">
        <ele>939.9</ele>
        <time>2026-04-24T08:07:03Z</time>
      </trkpt>
      <trkpt lat="45.18062" lon="4.39724">
        <ele>938.9</ele>
        <time>2026-04-24T08:07:08Z</time>
      </trkpt>
      <trkpt lat="45.18066" lon="4.39714">
        <ele>938.3</ele>
        <time>2026-04-24T08:07:13Z</time>
      </trkpt>
      <trkpt lat="45.18069" lon="4.39704">
        <ele>937.3</ele>
        <time>2026-04-24T08:07:18Z</time>
      </trkpt>
      <trkpt lat="45.18072" lon="4.39695">
        <ele>936.5</ele>
        <time>2026-04-24T08:07:23Z</time>
      </trkpt>
      <trkpt lat="45.18074" lon="4.39686">
        <ele>935.4</ele>
        <time>2026-04-24T08:07:28Z</time>
      </trkpt>
      <trkpt lat="45.18076" lon="4.39675">
        <ele>933.8</ele>
        <time>2026-04-24T08:07:33Z</time>
      </trkpt>
      <trkpt lat="45.18077" lon="4.39666">
        <ele>932.3</ele>
        <time>2026-04-24T08:07:38Z</time>
      </trkpt>
      <trkpt lat="45.18079" lon="4.39654">
        <ele>930.5</ele>
        <time>2026-04-24T08:07:43Z</time>
      </trkpt>
      <trkpt lat="45.18082" lon="4.39644">
        <ele>929.6</ele>
        <time>2026-04-24T08:07:48Z</time>
      </trkpt>
      <trkpt lat="45.18083" lon="4.39635">
        <ele>928</ele>
        <time>2026-04-24T08:07:53Z</time>
      </trkpt>
      <trkpt lat="45.18084" lon="4.39635">
        <ele>928.4</ele>
        <time>2026-04-24T08:07:58Z</time>
      </trkpt>
      <trkpt lat="45.18084" lon="4.39635">
        <ele>928.4</ele>
        <time>2026-04-24T08:08:03Z</time>
      </trkpt>
      <trkpt lat="45.18084" lon="4.39635">
        <ele>928.4</ele>
        <time>2026-04-24T08:08:08Z</time>
      </trkpt>
      <trkpt lat="45.18085" lon="4.39635">
        <ele>928.8</ele>
        <time>2026-04-24T08:08:13Z</time>
      </trkpt>
      <trkpt lat="45.18089" lon="4.39625">
        <ele>928.3</ele>
        <time>2026-04-24T08:08:18Z</time>
      </trkpt>
      <trkpt lat="45.18091" lon="4.39613">
        <ele>926.7</ele>
        <time>2026-04-24T08:08:23Z</time>
      </trkpt>
      <trkpt lat="45.18094" lon="4.39602">
        <ele>925.7</ele>
        <time>2026-04-24T08:08:28Z</time>
      </trkpt>
      <trkpt lat="45.18097" lon="4.39594">
        <ele>925.4</ele>
        <time>2026-04-24T08:08:33Z</time>
      </trkpt>
      <trkpt lat="45.181" lon="4.39585">
        <ele>924.9</ele>
        <time>2026-04-24T08:08:38Z</time>
      </trkpt>
      <trkpt lat="45.18104" lon="4.39576">
        <ele>924.9</ele>
        <time>2026-04-24T08:08:43Z</time>
      </trkpt>
      <trkpt lat="45.18107" lon="4.39566">
        <ele>924.1</ele>
        <time>2026-04-24T08:08:48Z</time>
      </trkpt>
      <trkpt lat="45.18112" lon="4.39558">
        <ele>924.7</ele>
        <time>2026-04-24T08:08:53Z</time>
      </trkpt>
      <trkpt lat="45.18115" lon="4.3955">
        <ele>924.3</ele>
        <time>2026-04-24T08:08:58Z</time>
      </trkpt>
      <trkpt lat="45.18119" lon="4.3954">
        <ele>924</ele>
        <time>2026-04-24T08:09:03Z</time>
      </trkpt>
      <trkpt lat="45.18123" lon="4.39529">
        <ele>923.4</ele>
        <time>2026-04-24T08:09:08Z</time>
      </trkpt>
      <trkpt lat="45.18127" lon="4.39516">
        <ele>922.3</ele>
        <time>2026-04-24T08:09:13Z</time>
      </trkpt>
      <trkpt lat="45.18131" lon="4.39504">
        <ele>921.5</ele>
        <time>2026-04-24T08:09:18Z</time>
      </trkpt>
      <trkpt lat="45.18136" lon="4.39495">
        <ele>922</ele>
        <time>2026-04-24T08:09:23Z</time>
      </trkpt>
      <trkpt lat="45.18142" lon="4.39485">
        <ele>922.9</ele>
        <time>2026-04-24T08:09:28Z</time>
      </trkpt>
      <trkpt lat="45.18146" lon="4.39477">
        <ele>923.3</ele>
        <time>2026-04-24T08:09:33Z</time>
      </trkpt>
      <trkpt lat="45.18152" lon="4.39469">
        <ele>924.6</ele>
        <time>2026-04-24T08:09:38Z</time>
      </trkpt>
      <trkpt lat="45.18157" lon="4.39461">
        <ele>925.4</ele>
        <time>2026-04-24T08:09:43Z</time>
      </trkpt>
      <trkpt lat="45.18156" lon="4.39451">
        <ele>923.3</ele>
        <time>2026-04-24T08:09:48Z</time>
      </trkpt>
      <trkpt lat="45.18154" lon="4.39441">
        <ele>920.8</ele>
        <time>2026-04-24T08:09:53Z</time>
      </trkpt>
      <trkpt lat="45.18151" lon="4.39432">
        <ele>918.1</ele>
        <time>2026-04-24T08:09:58Z</time>
      </trkpt>
      <trkpt lat="45.18148" lon="4.39423">
        <ele>915.4</ele>
        <time>2026-04-24T08:10:03Z</time>
      </trkpt>
      <trkpt lat="45.18147" lon="4.39413">
        <ele>913.7</ele>
        <time>2026-04-24T08:10:08Z</time>
      </trkpt>
      <trkpt lat="45.18146" lon="4.39403">
        <ele>912.5</ele>
        <time>2026-04-24T08:10:13Z</time>
      </trkpt>
      <trkpt lat="45.18146" lon="4.39391">
        <ele>911.6</ele>
        <time>2026-04-24T08:10:18Z</time>
      </trkpt>
      <trkpt lat="45.18146" lon="4.39381">
        <ele>910.9</ele>
        <time>2026-04-24T08:10:23Z</time>
      </trkpt>
      <trkpt lat="45.18145" lon="4.39375">
        <ele>910</ele>
        <time>2026-04-24T08:10:28Z</time>
      </trkpt>
      <trkpt lat="45.18144" lon="4.39373">
        <ele>909.5</ele>
        <time>2026-04-24T08:10:33Z</time>
      </trkpt>
      <trkpt lat="45.18144" lon="4.39372">
        <ele>909.4</ele>
        <time>2026-04-24T08:10:38Z</time>
      </trkpt>
      <trkpt lat="45.18144" lon="4.39372">
        <ele>909.4</ele>
        <time>2026-04-24T08:10:43Z</time>
      </trkpt>
      <trkpt lat="45.18144" lon="4.39372">
        <ele>909.4</ele>
        <time>2026-04-24T08:10:48Z</time>
      </trkpt>
      <trkpt lat="45.18144" lon="4.39372">
        <ele>909.4</ele>
        <time>2026-04-24T08:10:53Z</time>
      </trkpt>
      <trkpt lat="45.18144" lon="4.39372">
        <ele>909.4</ele>
        <time>2026-04-24T08:10:58Z</time>
      </trkpt>
      <trkpt lat="45.18144" lon="4.39372">
        <ele>909.4</ele>
        <time>2026-04-24T08:11:03Z</time>
      </trkpt>
      <trkpt lat="45.18144" lon="4.39372">
        <ele>909.4</ele>
        <time>2026-04-24T08:11:08Z</time>
      </trkpt>
      <trkpt lat="45.18144" lon="4.39372">
        <ele>909.4</ele>
        <time>2026-04-24T08:11:13Z</time>
      </trkpt>
      <trkpt lat="45.18144" lon="4.39372">
        <ele>909.4</ele>
        <time>2026-04-24T08:11:18Z</time>
      </trkpt>
      <trkpt lat="45.18144" lon="4.39372">
        <ele>909.4</ele>
        <time>2026-04-24T08:11:23Z</time>
      </trkpt>
      <trkpt lat="45.18144" lon="4.39372">
        <ele>909.4</ele>
        <time>2026-04-24T08:11:28Z</time>
      </trkpt>
      <trkpt lat="45.18144" lon="4.39372">
        <ele>909.4</ele>
        <time>2026-04-24T08:11:33Z</time>
      </trkpt>
      <trkpt lat="45.18144" lon="4.39372">
        <ele>909.4</ele>
        <time>2026-04-24T08:11:38Z</time>
      </trkpt>
      <trkpt lat="45.18144" lon="4.39368">
        <ele>909.1</ele>
        <time>2026-04-24T08:11:43Z</time>
      </trkpt>
      <trkpt lat="45.18142" lon="4.39361">
        <ele>907.9</ele>
        <time>2026-04-24T08:11:48Z</time>
      </trkpt>
      <trkpt lat="45.1814" lon="4.39353">
        <ele>906.5</ele>
        <time>2026-04-24T08:11:53Z</time>
      </trkpt>
      <trkpt lat="45.18138" lon="4.39345">
        <ele>905.2</ele>
        <time>2026-04-24T08:11:58Z</time>
      </trkpt>
      <trkpt lat="45.18137" lon="4.39334">
        <ele>904</ele>
        <time>2026-04-24T08:12:03Z</time>
      </trkpt>
      <trkpt lat="45.18136" lon="4.39327">
        <ele>903.2</ele>
        <time>2026-04-24T08:12:08Z</time>
      </trkpt>
      <trkpt lat="45.18135" lon="4.39318">
        <ele>902.2</ele>
        <time>2026-04-24T08:12:13Z</time>
      </trkpt>
      <trkpt lat="45.18134" lon="4.39309">
        <ele>901.2</ele>
        <time>2026-04-24T08:12:18Z</time>
      </trkpt>
      <trkpt lat="45.18133" lon="4.39297">
        <ele>900</ele>
        <time>2026-04-24T08:12:23Z</time>
      </trkpt>
      <trkpt lat="45.18132" lon="4.39288">
        <ele>899.1</ele>
        <time>2026-04-24T08:12:28Z</time>
      </trkpt>
      <trkpt lat="45.18132" lon="4.39278">
        <ele>898.4</ele>
        <time>2026-04-24T08:12:33Z</time>
      </trkpt>
      <trkpt lat="45.18131" lon="4.39268">
        <ele>897.5</ele>
        <time>2026-04-24T08:12:38Z</time>
      </trkpt>
      <trkpt lat="45.1813" lon="4.39256">
        <ele>896.4</ele>
        <time>2026-04-24T08:12:43Z</time>
      </trkpt>
      <trkpt lat="45.1813" lon="4.39244">
        <ele>895.7</ele>
        <time>2026-04-24T08:12:48Z</time>
      </trkpt>
      <trkpt lat="45.18131" lon="4.39232">
        <ele>895.3</ele>
        <time>2026-04-24T08:12:53Z</time>
      </trkpt>
      <trkpt lat="45.18133" lon="4.39224">
        <ele>895.5</ele>
        <time>2026-04-24T08:12:58Z</time>
      </trkpt>
      <trkpt lat="45.18132" lon="4.39216">
        <ele>894.8</ele>
        <time>2026-04-24T08:13:03Z</time>
      </trkpt>
      <trkpt lat="45.18131" lon="4.39209">
        <ele>894.1</ele>
        <time>2026-04-24T08:13:08Z</time>
      </trkpt>
      <trkpt lat="45.1813" lon="4.39201">
        <ele>893.4</ele>
        <time>2026-04-24T08:13:13Z</time>
      </trkpt>
      <trkpt lat="45.18128" lon="4.39191">
        <ele>892.4</ele>
        <time>2026-04-24T08:13:18Z</time>
      </trkpt>
      <trkpt lat="45.18126" lon="4.39182">
        <ele>891.5</ele>
        <time>2026-04-24T08:13:23Z</time>
      </trkpt>
      <trkpt lat="45.18124" lon="4.39174">
        <ele>890.6</ele>
        <time>2026-04-24T08:13:28Z</time>
      </trkpt>
      <trkpt lat="45.18125" lon="4.39166">
        <ele>890.5</ele>
        <time>2026-04-24T08:13:33Z</time>
      </trkpt>
      <trkpt lat="45.18125" lon="4.39158">
        <ele>890.3</ele>
        <time>2026-04-24T08:13:38Z</time>
      </trkpt>
      <trkpt lat="45.18121" lon="4.39152">
        <ele>889.3</ele>
        <time>2026-04-24T08:13:43Z</time>
      </trkpt>
      <trkpt lat="45.18119" lon="4.39145">
        <ele>888.6</ele>
        <time>2026-04-24T08:13:48Z</time>
      </trkpt>
      <trkpt lat="45.18117" lon="4.39139">
        <ele>888.1</ele>
        <time>2026-04-24T08:13:53Z</time>
      </trkpt>
      <trkpt lat="45.18116" lon="4.39133">
        <ele>887.7</ele>
        <time>2026-04-24T08:13:58Z</time>
      </trkpt>
      <trkpt lat="45.18117" lon="4.39126">
        <ele>887.8</ele>
        <time>2026-04-24T08:14:03Z</time>
      </trkpt>
      <trkpt lat="45.18117" lon="4.3912">
        <ele>887.7</ele>
        <time>2026-04-24T08:14:08Z</time>
      </trkpt>
      <trkpt lat="45.18117" lon="4.39114">
        <ele>887.5</ele>
        <time>2026-04-24T08:14:13Z</time>
      </trkpt>
      <trkpt lat="45.18117" lon="4.39108">
        <ele>887.4</ele>
        <time>2026-04-24T08:14:18Z</time>
      </trkpt>
      <trkpt lat="45.18118" lon="4.39099">
        <ele>887.4</ele>
        <time>2026-04-24T08:14:23Z</time>
      </trkpt>
      <trkpt lat="45.18118" lon="4.39093">
        <ele>887.3</ele>
        <time>2026-04-24T08:14:28Z</time>
      </trkpt>
      <trkpt lat="45.1812" lon="4.39088">
        <ele>887.6</ele>
        <time>2026-04-24T08:14:33Z</time>
      </trkpt>
      <trkpt lat="45.1812" lon="4.39083">
        <ele>887.5</ele>
        <time>2026-04-24T08:14:38Z</time>
      </trkpt>
      <trkpt lat="45.18115" lon="4.39081">
        <ele>886.4</ele>
        <time>2026-04-24T08:14:43Z</time>
      </trkpt>
      <trkpt lat="45.18111" lon="4.39083">
        <ele>885.6</ele>
        <time>2026-04-24T08:14:48Z</time>
      </trkpt>
      <trkpt lat="45.18107" lon="4.39088">
        <ele>884.9</ele>
        <time>2026-04-24T08:14:53Z</time>
      </trkpt>
      <trkpt lat="45.18104" lon="4.39098">
        <ele>884.5</ele>
        <time>2026-04-24T08:14:58Z</time>
      </trkpt>
      <trkpt lat="45.18103" lon="4.39109">
        <ele>884.5</ele>
        <time>2026-04-24T08:15:03Z</time>
      </trkpt>
      <trkpt lat="45.18101" lon="4.39119">
        <ele>884.2</ele>
        <time>2026-04-24T08:15:08Z</time>
      </trkpt>
      <trkpt lat="45.181" lon="4.39127">
        <ele>884.1</ele>
        <time>2026-04-24T08:15:13Z</time>
      </trkpt>
      <trkpt lat="45.181" lon="4.39135">
        <ele>884.3</ele>
        <time>2026-04-24T08:15:18Z</time>
      </trkpt>
      <trkpt lat="45.18098" lon="4.39143">
        <ele>884</ele>
        <time>2026-04-24T08:15:23Z</time>
      </trkpt>
      <trkpt lat="45.18096" lon="4.39151">
        <ele>883.6</ele>
        <time>2026-04-24T08:15:28Z</time>
      </trkpt>
      <trkpt lat="45.18095" lon="4.39161">
        <ele>883.6</ele>
        <time>2026-04-24T08:15:33Z</time>
      </trkpt>
      <trkpt lat="45.18093" lon="4.39168">
        <ele>883.2</ele>
        <time>2026-04-24T08:15:38Z</time>
      </trkpt>
      <trkpt lat="45.18091" lon="4.39178">
        <ele>883</ele>
        <time>2026-04-24T08:15:43Z</time>
      </trkpt>
      <trkpt lat="45.18087" lon="4.3919">
        <ele>882.2</ele>
        <time>2026-04-24T08:15:48Z</time>
      </trkpt>
      <trkpt lat="45.18085" lon="4.39201">
        <ele>881.8</ele>
        <time>2026-04-24T08:15:53Z</time>
      </trkpt>
      <trkpt lat="45.18084" lon="4.39209">
        <ele>881.7</ele>
        <time>2026-04-24T08:15:58Z</time>
      </trkpt>
      <trkpt lat="45.18082" lon="4.39219">
        <ele>882.1</ele>
        <time>2026-04-24T08:16:03Z</time>
      </trkpt>
      <trkpt lat="45.1808" lon="4.39229">
        <ele>882.9</ele>
        <time>2026-04-24T08:16:08Z</time>
      </trkpt>
      <trkpt lat="45.18076" lon="4.39238">
        <ele>884.3</ele>
        <time>2026-04-24T08:16:13Z</time>
      </trkpt>
      <trkpt lat="45.18073" lon="4.39248">
        <ele>885.4</ele>
        <time>2026-04-24T08:16:18Z</time>
      </trkpt>
      <trkpt lat="45.1807" lon="4.39257">
        <ele>886.5</ele>
        <time>2026-04-24T08:16:23Z</time>
      </trkpt>
      <trkpt lat="45.18067" lon="4.39266">
        <ele>887.4</ele>
        <time>2026-04-24T08:16:28Z</time>
      </trkpt>
      <trkpt lat="45.18062" lon="4.39273">
        <ele>888.9</ele>
        <time>2026-04-24T08:16:33Z</time>
      </trkpt>
      <trkpt lat="45.18059" lon="4.39282">
        <ele>889.6</ele>
        <time>2026-04-24T08:16:38Z</time>
      </trkpt>
      <trkpt lat="45.18054" lon="4.39291">
        <ele>890.8</ele>
        <time>2026-04-24T08:16:43Z</time>
      </trkpt>
      <trkpt lat="45.18052" lon="4.393">
        <ele>891</ele>
        <time>2026-04-24T08:16:48Z</time>
      </trkpt>
      <trkpt lat="45.18048" lon="4.3931">
        <ele>891.6</ele>
        <time>2026-04-24T08:16:53Z</time>
      </trkpt>
      <trkpt lat="45.18045" lon="4.39318">
        <ele>892</ele>
        <time>2026-04-24T08:16:58Z</time>
      </trkpt>
      <trkpt lat="45.18041" lon="4.39326">
        <ele>892.5</ele>
        <time>2026-04-24T08:17:03Z</time>
      </trkpt>
      <trkpt lat="45.18039" lon="4.39334">
        <ele>892.5</ele>
        <time>2026-04-24T08:17:08Z</time>
      </trkpt>
      <trkpt lat="45.18035" lon="4.39342">
        <ele>892.5</ele>
        <time>2026-04-24T08:17:13Z</time>
      </trkpt>
      <trkpt lat="45.18031" lon="4.39347">
        <ele>892.6</ele>
        <time>2026-04-24T08:17:18Z</time>
      </trkpt>
      <trkpt lat="45.18026" lon="4.39353">
        <ele>892.7</ele>
        <time>2026-04-24T08:17:23Z</time>
      </trkpt>
      <trkpt lat="45.18022" lon="4.39361">
        <ele>892.2</ele>
        <time>2026-04-24T08:17:28Z</time>
      </trkpt>
      <trkpt lat="45.18018" lon="4.39368">
        <ele>891.7</ele>
        <time>2026-04-24T08:17:33Z</time>
      </trkpt>
      <trkpt lat="45.18013" lon="4.39378">
        <ele>890.6</ele>
        <time>2026-04-24T08:17:38Z</time>
      </trkpt>
      <trkpt lat="45.18009" lon="4.39385">
        <ele>889.7</ele>
        <time>2026-04-24T08:17:43Z</time>
      </trkpt>
      <trkpt lat="45.18005" lon="4.39389">
        <ele>889.2</ele>
        <time>2026-04-24T08:17:48Z</time>
      </trkpt>
      <trkpt lat="45.18001" lon="4.39397">
        <ele>887.8</ele>
        <time>2026-04-24T08:17:53Z</time>
      </trkpt>
      <trkpt lat="45.17995" lon="4.394">
        <ele>889.2</ele>
        <time>2026-04-24T08:17:58Z</time>
      </trkpt>
      <trkpt lat="45.17992" lon="4.39394">
        <ele>891.5</ele>
        <time>2026-04-24T08:18:03Z</time>
      </trkpt>
      <trkpt lat="45.17996" lon="4.39384">
        <ele>891.8</ele>
        <time>2026-04-24T08:18:08Z</time>
      </trkpt>
      <trkpt lat="45.18001" lon="4.39375">
        <ele>891.9</ele>
        <time>2026-04-24T08:18:13Z</time>
      </trkpt>
      <trkpt lat="45.18005" lon="4.39366">
        <ele>893.2</ele>
        <time>2026-04-24T08:18:18Z</time>
      </trkpt>
      <trkpt lat="45.18009" lon="4.39355">
        <ele>894.7</ele>
        <time>2026-04-24T08:18:23Z</time>
      </trkpt>
      <trkpt lat="45.18013" lon="4.39345">
        <ele>895.7</ele>
        <time>2026-04-24T08:18:28Z</time>
      </trkpt>
      <trkpt lat="45.18014" lon="4.39335">
        <ele>897.1</ele>
        <time>2026-04-24T08:18:33Z</time>
      </trkpt>
      <trkpt lat="45.18016" lon="4.39326">
        <ele>897.6</ele>
        <time>2026-04-24T08:18:38Z</time>
      </trkpt>
      <trkpt lat="45.18018" lon="4.39316">
        <ele>898.1</ele>
        <time>2026-04-24T08:18:43Z</time>
      </trkpt>
      <trkpt lat="45.18021" lon="4.39307">
        <ele>898.2</ele>
        <time>2026-04-24T08:18:48Z</time>
      </trkpt>
      <trkpt lat="45.18024" lon="4.39295">
        <ele>898.4</ele>
        <time>2026-04-24T08:18:53Z</time>
      </trkpt>
      <trkpt lat="45.18025" lon="4.39284">
        <ele>899</ele>
        <time>2026-04-24T08:18:58Z</time>
      </trkpt>
      <trkpt lat="45.18026" lon="4.39274">
        <ele>899.5</ele>
        <time>2026-04-24T08:19:03Z</time>
      </trkpt>
      <trkpt lat="45.18029" lon="4.39264">
        <ele>899.3</ele>
        <time>2026-04-24T08:19:08Z</time>
      </trkpt>
      <trkpt lat="45.18031" lon="4.39253">
        <ele>899.4</ele>
        <time>2026-04-24T08:19:13Z</time>
      </trkpt>
      <trkpt lat="45.18032" lon="4.39242">
        <ele>899.2</ele>
        <time>2026-04-24T08:19:18Z</time>
      </trkpt>
      <trkpt lat="45.18034" lon="4.39232">
        <ele>898.4</ele>
        <time>2026-04-24T08:19:23Z</time>
      </trkpt>
      <trkpt lat="45.18036" lon="4.39221">
        <ele>897.6</ele>
        <time>2026-04-24T08:19:28Z</time>
      </trkpt>
      <trkpt lat="45.18039" lon="4.39211">
        <ele>896.4</ele>
        <time>2026-04-24T08:19:33Z</time>
      </trkpt>
      <trkpt lat="45.18042" lon="4.39201">
        <ele>895.3</ele>
        <time>2026-04-24T08:19:38Z</time>
      </trkpt>
      <trkpt lat="45.18043" lon="4.39192">
        <ele>894.9</ele>
        <time>2026-04-24T08:19:43Z</time>
      </trkpt>
      <trkpt lat="45.18045" lon="4.3918">
        <ele>894</ele>
        <time>2026-04-24T08:19:48Z</time>
      </trkpt>
      <trkpt lat="45.18044" lon="4.39167">
        <ele>894.2</ele>
        <time>2026-04-24T08:19:53Z</time>
      </trkpt>
      <trkpt lat="45.18046" lon="4.39157">
        <ele>893.6</ele>
        <time>2026-04-24T08:19:58Z</time>
      </trkpt>
      <trkpt lat="45.18047" lon="4.39146">
        <ele>893.3</ele>
        <time>2026-04-24T08:20:03Z</time>
      </trkpt>
      <trkpt lat="45.18047" lon="4.39134">
        <ele>893.3</ele>
        <time>2026-04-24T08:20:08Z</time>
      </trkpt>
      <trkpt lat="45.18046" lon="4.39123">
        <ele>893.7</ele>
        <time>2026-04-24T08:20:13Z</time>
      </trkpt>
      <trkpt lat="45.18046" lon="4.39113">
        <ele>893.8</ele>
        <time>2026-04-24T08:20:18Z</time>
      </trkpt>
      <trkpt lat="45.18044" lon="4.39103">
        <ele>894.5</ele>
        <time>2026-04-24T08:20:23Z</time>
      </trkpt>
      <trkpt lat="45.18041" lon="4.39093">
        <ele>895.7</ele>
        <time>2026-04-24T08:20:28Z</time>
      </trkpt>
      <trkpt lat="45.18038" lon="4.39083">
        <ele>896.9</ele>
        <time>2026-04-24T08:20:33Z</time>
      </trkpt>
      <trkpt lat="45.18036" lon="4.39074">
        <ele>897.8</ele>
        <time>2026-04-24T08:20:38Z</time>
      </trkpt>
      <trkpt lat="45.18035" lon="4.39063">
        <ele>898.3</ele>
        <time>2026-04-24T08:20:43Z</time>
      </trkpt>
      <trkpt lat="45.18038" lon="4.39053">
        <ele>897.4</ele>
        <time>2026-04-24T08:20:48Z</time>
      </trkpt>
      <trkpt lat="45.18043" lon="4.39045">
        <ele>895.7</ele>
        <time>2026-04-24T08:20:53Z</time>
      </trkpt>
      <trkpt lat="45.18048" lon="4.39038">
        <ele>894</ele>
        <time>2026-04-24T08:20:58Z</time>
      </trkpt>
      <trkpt lat="45.18055" lon="4.39031">
        <ele>891.6</ele>
        <time>2026-04-24T08:21:03Z</time>
      </trkpt>
      <trkpt lat="45.18059" lon="4.39021">
        <ele>890.3</ele>
        <time>2026-04-24T08:21:08Z</time>
      </trkpt>
      <trkpt lat="45.18063" lon="4.39015">
        <ele>889</ele>
        <time>2026-04-24T08:21:13Z</time>
      </trkpt>
      <trkpt lat="45.18069" lon="4.39006">
        <ele>887</ele>
        <time>2026-04-24T08:21:18Z</time>
      </trkpt>
      <trkpt lat="45.18074" lon="4.38998">
        <ele>885.7</ele>
        <time>2026-04-24T08:21:23Z</time>
      </trkpt>
      <trkpt lat="45.18079" lon="4.38991">
        <ele>885.2</ele>
        <time>2026-04-24T08:21:28Z</time>
      </trkpt>
      <trkpt lat="45.18083" lon="4.38984">
        <ele>885</ele>
        <time>2026-04-24T08:21:33Z</time>
      </trkpt>
      <trkpt lat="45.18089" lon="4.38976">
        <ele>886.2</ele>
        <time>2026-04-24T08:21:38Z</time>
      </trkpt>
      <trkpt lat="45.18094" lon="4.38969">
        <ele>887</ele>
        <time>2026-04-24T08:21:43Z</time>
      </trkpt>
      <trkpt lat="45.181" lon="4.3896">
        <ele>887.8</ele>
        <time>2026-04-24T08:21:48Z</time>
      </trkpt>
      <trkpt lat="45.18105" lon="4.3895">
        <ele>888.4</ele>
        <time>2026-04-24T08:21:53Z</time>
      </trkpt>
      <trkpt lat="45.1811" lon="4.38943">
        <ele>888.4</ele>
        <time>2026-04-24T08:21:58Z</time>
      </trkpt>
      <trkpt lat="45.18117" lon="4.38935">
        <ele>887.8</ele>
        <time>2026-04-24T08:22:03Z</time>
      </trkpt>
      <trkpt lat="45.18123" lon="4.38928">
        <ele>887.1</ele>
        <time>2026-04-24T08:22:08Z</time>
      </trkpt>
      <trkpt lat="45.18128" lon="4.38925">
        <ele>886.1</ele>
        <time>2026-04-24T08:22:13Z</time>
      </trkpt>
      <trkpt lat="45.18131" lon="4.38922">
        <ele>885.5</ele>
        <time>2026-04-24T08:22:18Z</time>
      </trkpt>
      <trkpt lat="45.18138" lon="4.38919">
        <ele>883.9</ele>
        <time>2026-04-24T08:22:23Z</time>
      </trkpt>
      <trkpt lat="45.18145" lon="4.38915">
        <ele>882.4</ele>
        <time>2026-04-24T08:22:28Z</time>
      </trkpt>
      <trkpt lat="45.1815" lon="4.38908">
        <ele>882.1</ele>
        <time>2026-04-24T08:22:33Z</time>
      </trkpt>
      <trkpt lat="45.18154" lon="4.38902">
        <ele>881.8</ele>
        <time>2026-04-24T08:22:38Z</time>
      </trkpt>
      <trkpt lat="45.18157" lon="4.38895">
        <ele>881.8</ele>
        <time>2026-04-24T08:22:43Z</time>
      </trkpt>
      <trkpt lat="45.18162" lon="4.38887">
        <ele>881.2</ele>
        <time>2026-04-24T08:22:48Z</time>
      </trkpt>
      <trkpt lat="45.18167" lon="4.38879">
        <ele>880.6</ele>
        <time>2026-04-24T08:22:53Z</time>
      </trkpt>
      <trkpt lat="45.18172" lon="4.38866">
        <ele>881.5</ele>
        <time>2026-04-24T08:22:58Z</time>
      </trkpt>
      <trkpt lat="45.18177" lon="4.38849">
        <ele>882.3</ele>
        <time>2026-04-24T08:23:03Z</time>
      </trkpt>
      <trkpt lat="45.18182" lon="4.38846">
        <ele>881.9</ele>
        <time>2026-04-24T08:23:08Z</time>
      </trkpt>
      <trkpt lat="45.18187" lon="4.38848">
        <ele>881.2</ele>
        <time>2026-04-24T08:23:13Z</time>
      </trkpt>
      <trkpt lat="45.1819" lon="4.38851">
        <ele>880.8</ele>
        <time>2026-04-24T08:23:18Z</time>
      </trkpt>
      <trkpt lat="45.18191" lon="4.38853">
        <ele>880.6</ele>
        <time>2026-04-24T08:23:23Z</time>
      </trkpt>
      <trkpt lat="45.18194" lon="4.38857">
        <ele>880.2</ele>
        <time>2026-04-24T08:23:28Z</time>
      </trkpt>
      <trkpt lat="45.18191" lon="4.3885">
        <ele>880.7</ele>
        <time>2026-04-24T08:23:33Z</time>
      </trkpt>
      <trkpt lat="45.18188" lon="4.38844">
        <ele>881.3</ele>
        <time>2026-04-24T08:23:38Z</time>
      </trkpt>
      <trkpt lat="45.18184" lon="4.38839">
        <ele>882</ele>
        <time>2026-04-24T08:23:43Z</time>
      </trkpt>
      <trkpt lat="45.1818" lon="4.38835">
        <ele>882.8</ele>
        <time>2026-04-24T08:23:48Z</time>
      </trkpt>
      <trkpt lat="45.18177" lon="4.38832">
        <ele>883.7</ele>
        <time>2026-04-24T08:23:53Z</time>
      </trkpt>
      <trkpt lat="45.18177" lon="4.38832">
        <ele>883.7</ele>
        <time>2026-04-24T08:23:58Z</time>
      </trkpt>
      <trkpt lat="45.18177" lon="4.38832">
        <ele>883.7</ele>
        <time>2026-04-24T08:24:03Z</time>
      </trkpt>
      <trkpt lat="45.18177" lon="4.38832">
        <ele>883.7</ele>
        <time>2026-04-24T08:24:08Z</time>
      </trkpt>
      <trkpt lat="45.18177" lon="4.38832">
        <ele>883.7</ele>
        <time>2026-04-24T08:24:13Z</time>
      </trkpt>
      <trkpt lat="45.18177" lon="4.38832">
        <ele>883.7</ele>
        <time>2026-04-24T08:24:18Z</time>
      </trkpt>
      <trkpt lat="45.18172" lon="4.38837">
        <ele>883.9</ele>
        <time>2026-04-24T08:24:23Z</time>
      </trkpt>
      <trkpt lat="45.18167" lon="4.38839">
        <ele>884.4</ele>
        <time>2026-04-24T08:24:28Z</time>
      </trkpt>
      <trkpt lat="45.18166" lon="4.38836">
        <ele>885</ele>
        <time>2026-04-24T08:24:33Z</time>
      </trkpt>
      <trkpt lat="45.18166" lon="4.38831">
        <ele>885.8</ele>
        <time>2026-04-24T08:24:38Z</time>
      </trkpt>
      <trkpt lat="45.18166" lon="4.38831">
        <ele>885.8</ele>
        <time>2026-04-24T08:24:43Z</time>
      </trkpt>
      <trkpt lat="45.18166" lon="4.38831">
        <ele>885.8</ele>
        <time>2026-04-24T08:24:48Z</time>
      </trkpt>
      <trkpt lat="45.18166" lon="4.38831">
        <ele>885.8</ele>
        <time>2026-04-24T08:24:53Z</time>
      </trkpt>
      <trkpt lat="45.18166" lon="4.38831">
        <ele>885.8</ele>
        <time>2026-04-24T08:24:58Z</time>
      </trkpt>
      <trkpt lat="45.18166" lon="4.38831">
        <ele>885.8</ele>
        <time>2026-04-24T08:25:03Z</time>
      </trkpt>
      <trkpt lat="45.18166" lon="4.38831">
        <ele>885.8</ele>
        <time>2026-04-24T08:25:08Z</time>
      </trkpt>
      <trkpt lat="45.18166" lon="4.38831">
        <ele>885.8</ele>
        <time>2026-04-24T08:25:13Z</time>
      </trkpt>
      <trkpt lat="45.18166" lon="4.38831">
        <ele>885.8</ele>
        <time>2026-04-24T08:25:18Z</time>
      </trkpt>
      <trkpt lat="45.18168" lon="4.38828">
        <ele>886</ele>
        <time>2026-04-24T08:25:23Z</time>
      </trkpt>
      <trkpt lat="45.18172" lon="4.38823">
        <ele>886.4</ele>
        <time>2026-04-24T08:25:28Z</time>
      </trkpt>
      <trkpt lat="45.18174" lon="4.38821">
        <ele>886.5</ele>
        <time>2026-04-24T08:25:33Z</time>
      </trkpt>
      <trkpt lat="45.18174" lon="4.38821">
        <ele>886.5</ele>
        <time>2026-04-24T08:25:38Z</time>
      </trkpt>
      <trkpt lat="45.18174" lon="4.38821">
        <ele>886.5</ele>
        <time>2026-04-24T08:25:43Z</time>
      </trkpt>
      <trkpt lat="45.18174" lon="4.38821">
        <ele>886.5</ele>
        <time>2026-04-24T08:25:48Z</time>
      </trkpt>
      <trkpt lat="45.18174" lon="4.38821">
        <ele>886.5</ele>
        <time>2026-04-24T08:25:53Z</time>
      </trkpt>
      <trkpt lat="45.18174" lon="4.38821">
        <ele>886.5</ele>
        <time>2026-04-24T08:25:58Z</time>
      </trkpt>
      <trkpt lat="45.18174" lon="4.38821">
        <ele>886.5</ele>
        <time>2026-04-24T08:26:03Z</time>
      </trkpt>
      <trkpt lat="45.18182" lon="4.38817">
        <ele>885.9</ele>
        <time>2026-04-24T08:26:08Z</time>
      </trkpt>
      <trkpt lat="45.18184" lon="4.38811">
        <ele>886.7</ele>
        <time>2026-04-24T08:26:13Z</time>
      </trkpt>
      <trkpt lat="45.18186" lon="4.38812">
        <ele>886.1</ele>
        <time>2026-04-24T08:26:18Z</time>
      </trkpt>
      <trkpt lat="45.1819" lon="4.38815">
        <ele>884.8</ele>
        <time>2026-04-24T08:26:23Z</time>
      </trkpt>
      <trkpt lat="45.18194" lon="4.38817">
        <ele>883.7</ele>
        <time>2026-04-24T08:26:28Z</time>
      </trkpt>
      <trkpt lat="45.18199" lon="4.38816">
        <ele>882.9</ele>
        <time>2026-04-24T08:26:33Z</time>
      </trkpt>
      <trkpt lat="45.18204" lon="4.38811">
        <ele>882.8</ele>
        <time>2026-04-24T08:26:38Z</time>
      </trkpt>
      <trkpt lat="45.18209" lon="4.38809">
        <ele>882.2</ele>
        <time>2026-04-24T08:26:43Z</time>
      </trkpt>
      <trkpt lat="45.18214" lon="4.38805">
        <ele>881.8</ele>
        <time>2026-04-24T08:26:48Z</time>
      </trkpt>
      <trkpt lat="45.18218" lon="4.38798">
        <ele>881.9</ele>
        <time>2026-04-24T08:26:53Z</time>
      </trkpt>
      <trkpt lat="45.1822" lon="4.38791">
        <ele>882.4</ele>
        <time>2026-04-24T08:26:58Z</time>
      </trkpt>
      <trkpt lat="45.18217" lon="4.38785">
        <ele>884</ele>
        <time>2026-04-24T08:27:03Z</time>
      </trkpt>
      <trkpt lat="45.18215" lon="4.38776">
        <ele>885.7</ele>
        <time>2026-04-24T08:27:08Z</time>
      </trkpt>
      <trkpt lat="45.18218" lon="4.38769">
        <ele>886</ele>
        <time>2026-04-24T08:27:13Z</time>
      </trkpt>
      <trkpt lat="45.18222" lon="4.38766">
        <ele>885.3</ele>
        <time>2026-04-24T08:27:18Z</time>
      </trkpt>
      <trkpt lat="45.18226" lon="4.38763">
        <ele>884.6</ele>
        <time>2026-04-24T08:27:23Z</time>
      </trkpt>
      <trkpt lat="45.18226" lon="4.38763">
        <ele>884.6</ele>
        <time>2026-04-24T08:27:28Z</time>
      </trkpt>
      <trkpt lat="45.18226" lon="4.38763">
        <ele>884.6</ele>
        <time>2026-04-24T08:27:33Z</time>
      </trkpt>
      <trkpt lat="45.18226" lon="4.38763">
        <ele>884.6</ele>
        <time>2026-04-24T08:27:38Z</time>
      </trkpt>
      <trkpt lat="45.18226" lon="4.38763">
        <ele>884.6</ele>
        <time>2026-04-24T08:27:43Z</time>
      </trkpt>
      <trkpt lat="45.18226" lon="4.38763">
        <ele>884.6</ele>
        <time>2026-04-24T08:27:48Z</time>
      </trkpt>
      <trkpt lat="45.18226" lon="4.38763">
        <ele>884.6</ele>
        <time>2026-04-24T08:27:53Z</time>
      </trkpt>
      <trkpt lat="45.18226" lon="4.38763">
        <ele>884.6</ele>
        <time>2026-04-24T08:27:58Z</time>
      </trkpt>
      <trkpt lat="45.18226" lon="4.38763">
        <ele>884.6</ele>
        <time>2026-04-24T08:28:03Z</time>
      </trkpt>
      <trkpt lat="45.18221" lon="4.3876">
        <ele>886.4</ele>
        <time>2026-04-24T08:28:08Z</time>
      </trkpt>
      <trkpt lat="45.18221" lon="4.38755">
        <ele>887</ele>
        <time>2026-04-24T08:28:13Z</time>
      </trkpt>
      <trkpt lat="45.18219" lon="4.3875">
        <ele>888.3</ele>
        <time>2026-04-24T08:28:18Z</time>
      </trkpt>
      <trkpt lat="45.18219" lon="4.38746">
        <ele>888.5</ele>
        <time>2026-04-24T08:28:23Z</time>
      </trkpt>
      <trkpt lat="45.18219" lon="4.38745">
        <ele>888.5</ele>
        <time>2026-04-24T08:28:28Z</time>
      </trkpt>
      <trkpt lat="45.18219" lon="4.38745">
        <ele>888.5</ele>
        <time>2026-04-24T08:28:33Z</time>
      </trkpt>
      <trkpt lat="45.18219" lon="4.38745">
        <ele>888.5</ele>
        <time>2026-04-24T08:28:38Z</time>
      </trkpt>
      <trkpt lat="45.18219" lon="4.38745">
        <ele>888.5</ele>
        <time>2026-04-24T08:28:43Z</time>
      </trkpt>
      <trkpt lat="45.18219" lon="4.38745">
        <ele>888.5</ele>
        <time>2026-04-24T08:28:48Z</time>
      </trkpt>
      <trkpt lat="45.18219" lon="4.38745">
        <ele>888.5</ele>
        <time>2026-04-24T08:28:53Z</time>
      </trkpt>
      <trkpt lat="45.18219" lon="4.38745">
        <ele>888.5</ele>
        <time>2026-04-24T08:28:58Z</time>
      </trkpt>
      <trkpt lat="45.18219" lon="4.38745">
        <ele>888.5</ele>
        <time>2026-04-24T08:29:03Z</time>
      </trkpt>
      <trkpt lat="45.18219" lon="4.38745">
        <ele>888.5</ele>
        <time>2026-04-24T08:29:08Z</time>
      </trkpt>
      <trkpt lat="45.18219" lon="4.38745">
        <ele>888.5</ele>
        <time>2026-04-24T08:29:13Z</time>
      </trkpt>
      <trkpt lat="45.18219" lon="4.38745">
        <ele>888.5</ele>
        <time>2026-04-24T08:29:18Z</time>
      </trkpt>
      <trkpt lat="45.18219" lon="4.38745">
        <ele>888.5</ele>
        <time>2026-04-24T08:29:23Z</time>
      </trkpt>
      <trkpt lat="45.18219" lon="4.38745">
        <ele>888.5</ele>
        <time>2026-04-24T08:29:28Z</time>
      </trkpt>
      <trkpt lat="45.18219" lon="4.38745">
        <ele>888.5</ele>
        <time>2026-04-24T08:29:33Z</time>
      </trkpt>
      <trkpt lat="45.18219" lon="4.38745">
        <ele>888.5</ele>
        <time>2026-04-24T08:29:38Z</time>
      </trkpt>
      <trkpt lat="45.18219" lon="4.38745">
        <ele>888.5</ele>
        <time>2026-04-24T08:29:43Z</time>
      </trkpt>
      <trkpt lat="45.18219" lon="4.38745">
        <ele>888.5</ele>
        <time>2026-04-24T08:29:48Z</time>
      </trkpt>
      <trkpt lat="45.18219" lon="4.38745">
        <ele>888.5</ele>
        <time>2026-04-24T08:29:53Z</time>
      </trkpt>
      <trkpt lat="45.18219" lon="4.38745">
        <ele>888.5</ele>
        <time>2026-04-24T08:29:58Z</time>
      </trkpt>
      <trkpt lat="45.18219" lon="4.38745">
        <ele>888.5</ele>
        <time>2026-04-24T08:30:03Z</time>
      </trkpt>
      <trkpt lat="45.18219" lon="4.38745">
        <ele>888.5</ele>
        <time>2026-04-24T08:30:08Z</time>
      </trkpt>
      <trkpt lat="45.18219" lon="4.38745">
        <ele>888.5</ele>
        <time>2026-04-24T08:30:13Z</time>
      </trkpt>
      <trkpt lat="45.18215" lon="4.38736">
        <ele>890.1</ele>
        <time>2026-04-24T08:30:18Z</time>
      </trkpt>
      <trkpt lat="45.18215" lon="4.38731">
        <ele>890.3</ele>
        <time>2026-04-24T08:30:23Z</time>
      </trkpt>
      <trkpt lat="45.18215" lon="4.38725">
        <ele>890.6</ele>
        <time>2026-04-24T08:30:28Z</time>
      </trkpt>
      <trkpt lat="45.18214" lon="4.38722">
        <ele>890.9</ele>
        <time>2026-04-24T08:30:33Z</time>
      </trkpt>
      <trkpt lat="45.18212" lon="4.38716">
        <ele>891.7</ele>
        <time>2026-04-24T08:30:38Z</time>
      </trkpt>
      <trkpt lat="45.18212" lon="4.38709">
        <ele>891.9</ele>
        <time>2026-04-24T08:30:43Z</time>
      </trkpt>
      <trkpt lat="45.18212" lon="4.38703">
        <ele>892.1</ele>
        <time>2026-04-24T08:30:48Z</time>
      </trkpt>
      <trkpt lat="45.18212" lon="4.387">
        <ele>892.2</ele>
        <time>2026-04-24T08:30:53Z</time>
      </trkpt>
      <trkpt lat="45.18211" lon="4.38696">
        <ele>892.6</ele>
        <time>2026-04-24T08:30:58Z</time>
      </trkpt>
      <trkpt lat="45.1821" lon="4.38691">
        <ele>893</ele>
        <time>2026-04-24T08:31:03Z</time>
      </trkpt>
      <trkpt lat="45.1821" lon="4.38685">
        <ele>893.2</ele>
        <time>2026-04-24T08:31:08Z</time>
      </trkpt>
      <trkpt lat="45.18209" lon="4.3868">
        <ele>893.5</ele>
        <time>2026-04-24T08:31:13Z</time>
      </trkpt>
      <trkpt lat="45.1821" lon="4.38676">
        <ele>893.5</ele>
        <time>2026-04-24T08:31:18Z</time>
      </trkpt>
      <trkpt lat="45.18208" lon="4.38672">
        <ele>893.9</ele>
        <time>2026-04-24T08:31:23Z</time>
      </trkpt>
      <trkpt lat="45.18207" lon="4.38668">
        <ele>894.2</ele>
        <time>2026-04-24T08:31:28Z</time>
      </trkpt>
      <trkpt lat="45.18206" lon="4.38664">
        <ele>894.6</ele>
        <time>2026-04-24T08:31:33Z</time>
      </trkpt>
      <trkpt lat="45.18204" lon="4.3866">
        <ele>895.3</ele>
        <time>2026-04-24T08:31:38Z</time>
      </trkpt>
      <trkpt lat="45.18201" lon="4.38653">
        <ele>896.4</ele>
        <time>2026-04-24T08:31:43Z</time>
      </trkpt>
      <trkpt lat="45.18198" lon="4.38648">
        <ele>897.1</ele>
        <time>2026-04-24T08:31:48Z</time>
      </trkpt>
      <trkpt lat="45.18197" lon="4.38643">
        <ele>897.6</ele>
        <time>2026-04-24T08:31:53Z</time>
      </trkpt>
      <trkpt lat="45.18195" lon="4.38636">
        <ele>898.3</ele>
        <time>2026-04-24T08:31:58Z</time>
      </trkpt>
      <trkpt lat="45.18193" lon="4.3863">
        <ele>898.8</ele>
        <time>2026-04-24T08:32:03Z</time>
      </trkpt>
      <trkpt lat="45.18193" lon="4.38625">
        <ele>899.2</ele>
        <time>2026-04-24T08:32:08Z</time>
      </trkpt>
      <trkpt lat="45.18191" lon="4.38623">
        <ele>899.3</ele>
        <time>2026-04-24T08:32:13Z</time>
      </trkpt>
      <trkpt lat="45.18188" lon="4.3862">
        <ele>899.5</ele>
        <time>2026-04-24T08:32:18Z</time>
      </trkpt>
      <trkpt lat="45.18185" lon="4.38617">
        <ele>899.6</ele>
        <time>2026-04-24T08:32:23Z</time>
      </trkpt>
      <trkpt lat="45.18183" lon="4.38617">
        <ele>899.6</ele>
        <time>2026-04-24T08:32:28Z</time>
      </trkpt>
      <trkpt lat="45.18182" lon="4.38616">
        <ele>899.6</ele>
        <time>2026-04-24T08:32:33Z</time>
      </trkpt>
      <trkpt lat="45.18182" lon="4.38616">
        <ele>899.6</ele>
        <time>2026-04-24T08:32:38Z</time>
      </trkpt>
      <trkpt lat="45.18191" lon="4.38615">
        <ele>899.9</ele>
        <time>2026-04-24T08:32:43Z</time>
      </trkpt>
      <trkpt lat="45.18196" lon="4.38615">
        <ele>900</ele>
        <time>2026-04-24T08:32:48Z</time>
      </trkpt>
      <trkpt lat="45.18199" lon="4.38617">
        <ele>899.8</ele>
        <time>2026-04-24T08:32:53Z</time>
      </trkpt>
      <trkpt lat="45.18203" lon="4.38621">
        <ele>899.5</ele>
        <time>2026-04-24T08:32:58Z</time>
      </trkpt>
      <trkpt lat="45.18208" lon="4.38625">
        <ele>899</ele>
        <time>2026-04-24T08:33:03Z</time>
      </trkpt>
      <trkpt lat="45.18213" lon="4.38629">
        <ele>898.4</ele>
        <time>2026-04-24T08:33:08Z</time>
      </trkpt>
      <trkpt lat="45.18216" lon="4.38633">
        <ele>897.8</ele>
        <time>2026-04-24T08:33:13Z</time>
      </trkpt>
      <trkpt lat="45.18221" lon="4.38635">
        <ele>897.2</ele>
        <time>2026-04-24T08:33:18Z</time>
      </trkpt>
      <trkpt lat="45.18224" lon="4.38638">
        <ele>896.6</ele>
        <time>2026-04-24T08:33:23Z</time>
      </trkpt>
      <trkpt lat="45.18228" lon="4.3864">
        <ele>896</ele>
        <time>2026-04-24T08:33:28Z</time>
      </trkpt>
      <trkpt lat="45.18232" lon="4.38644">
        <ele>895</ele>
        <time>2026-04-24T08:33:33Z</time>
      </trkpt>
      <trkpt lat="45.18235" lon="4.38648">
        <ele>894</ele>
        <time>2026-04-24T08:33:38Z</time>
      </trkpt>
      <trkpt lat="45.18239" lon="4.38652">
        <ele>892.8</ele>
        <time>2026-04-24T08:33:43Z</time>
      </trkpt>
      <trkpt lat="45.18242" lon="4.38656">
        <ele>891.6</ele>
        <time>2026-04-24T08:33:48Z</time>
      </trkpt>
      <trkpt lat="45.18244" lon="4.38662">
        <ele>890</ele>
        <time>2026-04-24T08:33:53Z</time>
      </trkpt>
      <trkpt lat="45.18246" lon="4.38666">
        <ele>888.7</ele>
        <time>2026-04-24T08:33:58Z</time>
      </trkpt>
      <trkpt lat="45.1825" lon="4.3867">
        <ele>887.6</ele>
        <time>2026-04-24T08:34:03Z</time>
      </trkpt>
      <trkpt lat="45.18253" lon="4.38673">
        <ele>887.8</ele>
        <time>2026-04-24T08:34:08Z</time>
      </trkpt>
      <trkpt lat="45.18256" lon="4.38679">
        <ele>887.6</ele>
        <time>2026-04-24T08:34:13Z</time>
      </trkpt>
      <trkpt lat="45.18259" lon="4.38682">
        <ele>887.6</ele>
        <time>2026-04-24T08:34:18Z</time>
      </trkpt>
      <trkpt lat="45.18262" lon="4.38685">
        <ele>887.7</ele>
        <time>2026-04-24T08:34:23Z</time>
      </trkpt>
      <trkpt lat="45.18266" lon="4.38687">
        <ele>888</ele>
        <time>2026-04-24T08:34:28Z</time>
      </trkpt>
      <trkpt lat="45.18267" lon="4.38689">
        <ele>887.8</ele>
        <time>2026-04-24T08:34:33Z</time>
      </trkpt>
      <trkpt lat="45.18271" lon="4.38692">
        <ele>887.9</ele>
        <time>2026-04-24T08:34:38Z</time>
      </trkpt>
      <trkpt lat="45.18276" lon="4.38692">
        <ele>888.6</ele>
        <time>2026-04-24T08:34:43Z</time>
      </trkpt>
      <trkpt lat="45.18282" lon="4.38693">
        <ele>889.2</ele>
        <time>2026-04-24T08:34:48Z</time>
      </trkpt>
      <trkpt lat="45.18286" lon="4.38693">
        <ele>889.7</ele>
        <time>2026-04-24T08:34:53Z</time>
      </trkpt>
      <trkpt lat="45.1829" lon="4.38693">
        <ele>890.2</ele>
        <time>2026-04-24T08:34:58Z</time>
      </trkpt>
      <trkpt lat="45.18294" lon="4.38694">
        <ele>890.5</ele>
        <time>2026-04-24T08:35:03Z</time>
      </trkpt>
      <trkpt lat="45.18297" lon="4.38695">
        <ele>890.7</ele>
        <time>2026-04-24T08:35:08Z</time>
      </trkpt>
      <trkpt lat="45.183" lon="4.38697">
        <ele>890.7</ele>
        <time>2026-04-24T08:35:13Z</time>
      </trkpt>
      <trkpt lat="45.18304" lon="4.38699">
        <ele>890.8</ele>
        <time>2026-04-24T08:35:18Z</time>
      </trkpt>
      <trkpt lat="45.18307" lon="4.387">
        <ele>891</ele>
        <time>2026-04-24T08:35:23Z</time>
      </trkpt>
      <trkpt lat="45.1831" lon="4.387">
        <ele>891.3</ele>
        <time>2026-04-24T08:35:28Z</time>
      </trkpt>
      <trkpt lat="45.18313" lon="4.387">
        <ele>891.7</ele>
        <time>2026-04-24T08:35:33Z</time>
      </trkpt>
      <trkpt lat="45.18315" lon="4.38699">
        <ele>892.1</ele>
        <time>2026-04-24T08:35:38Z</time>
      </trkpt>
      <trkpt lat="45.1832" lon="4.38699">
        <ele>892.7</ele>
        <time>2026-04-24T08:35:43Z</time>
      </trkpt>
      <trkpt lat="45.18322" lon="4.38698">
        <ele>893.1</ele>
        <time>2026-04-24T08:35:48Z</time>
      </trkpt>
      <trkpt lat="45.18325" lon="4.38696">
        <ele>893.9</ele>
        <time>2026-04-24T08:35:53Z</time>
      </trkpt>
      <trkpt lat="45.18328" lon="4.38693">
        <ele>895</ele>
        <time>2026-04-24T08:35:58Z</time>
      </trkpt>
      <trkpt lat="45.18329" lon="4.3869">
        <ele>895.8</ele>
        <time>2026-04-24T08:36:03Z</time>
      </trkpt>
      <trkpt lat="45.18332" lon="4.38686">
        <ele>897.2</ele>
        <time>2026-04-24T08:36:08Z</time>
      </trkpt>
      <trkpt lat="45.18337" lon="4.38682">
        <ele>898.9</ele>
        <time>2026-04-24T08:36:13Z</time>
      </trkpt>
      <trkpt lat="45.18341" lon="4.38681">
        <ele>899.8</ele>
        <time>2026-04-24T08:36:18Z</time>
      </trkpt>
      <trkpt lat="45.18344" lon="4.38677">
        <ele>901.3</ele>
        <time>2026-04-24T08:36:23Z</time>
      </trkpt>
      <trkpt lat="45.18347" lon="4.38673">
        <ele>902.9</ele>
        <time>2026-04-24T08:36:28Z</time>
      </trkpt>
      <trkpt lat="45.18348" lon="4.38671">
        <ele>903.5</ele>
        <time>2026-04-24T08:36:33Z</time>
      </trkpt>
      <trkpt lat="45.1835" lon="4.38667">
        <ele>904.9</ele>
        <time>2026-04-24T08:36:38Z</time>
      </trkpt>
      <trkpt lat="45.1835" lon="4.38662">
        <ele>906</ele>
        <time>2026-04-24T08:36:43Z</time>
      </trkpt>
      <trkpt lat="45.18348" lon="4.38658">
        <ele>906.6</ele>
        <time>2026-04-24T08:36:48Z</time>
      </trkpt>
      <trkpt lat="45.18345" lon="4.38656">
        <ele>906.5</ele>
        <time>2026-04-24T08:36:53Z</time>
      </trkpt>
      <trkpt lat="45.1834" lon="4.38656">
        <ele>905.6</ele>
        <time>2026-04-24T08:36:58Z</time>
      </trkpt>
      <trkpt lat="45.18335" lon="4.38656">
        <ele>904.7</ele>
        <time>2026-04-24T08:37:03Z</time>
      </trkpt>
      <trkpt lat="45.18329" lon="4.38659">
        <ele>903</ele>
        <time>2026-04-24T08:37:08Z</time>
      </trkpt>
      <trkpt lat="45.18326" lon="4.38658">
        <ele>902.8</ele>
        <time>2026-04-24T08:37:13Z</time>
      </trkpt>
      <trkpt lat="45.18322" lon="4.3866">
        <ele>901.6</ele>
        <time>2026-04-24T08:37:18Z</time>
      </trkpt>
      <trkpt lat="45.18318" lon="4.38659">
        <ele>901.2</ele>
        <time>2026-04-24T08:37:23Z</time>
      </trkpt>
      <trkpt lat="45.18314" lon="4.38658">
        <ele>900.8</ele>
        <time>2026-04-24T08:37:28Z</time>
      </trkpt>
      <trkpt lat="45.18311" lon="4.38654">
        <ele>901.2</ele>
        <time>2026-04-24T08:37:33Z</time>
      </trkpt>
      <trkpt lat="45.18309" lon="4.3865">
        <ele>901.8</ele>
        <time>2026-04-24T08:37:38Z</time>
      </trkpt>
      <trkpt lat="45.18306" lon="4.38646">
        <ele>902.3</ele>
        <time>2026-04-24T08:37:43Z</time>
      </trkpt>
      <trkpt lat="45.18302" lon="4.38643">
        <ele>902.3</ele>
        <time>2026-04-24T08:37:48Z</time>
      </trkpt>
      <trkpt lat="45.18299" lon="4.3864">
        <ele>902.6</ele>
        <time>2026-04-24T08:37:53Z</time>
      </trkpt>
      <trkpt lat="45.18296" lon="4.38638">
        <ele>902.6</ele>
        <time>2026-04-24T08:37:58Z</time>
      </trkpt>
      <trkpt lat="45.18295" lon="4.38635">
        <ele>903.1</ele>
        <time>2026-04-24T08:38:03Z</time>
      </trkpt>
      <trkpt lat="45.18295" lon="4.3863">
        <ele>904.3</ele>
        <time>2026-04-24T08:38:08Z</time>
      </trkpt>
      <trkpt lat="45.18295" lon="4.38629">
        <ele>904.6</ele>
        <time>2026-04-24T08:38:13Z</time>
      </trkpt>
      <trkpt lat="45.18295" lon="4.38629">
        <ele>904.6</ele>
        <time>2026-04-24T08:38:18Z</time>
      </trkpt>
      <trkpt lat="45.18295" lon="4.38629">
        <ele>904.6</ele>
        <time>2026-04-24T08:38:23Z</time>
      </trkpt>
      <trkpt lat="45.18295" lon="4.38629">
        <ele>904.6</ele>
        <time>2026-04-24T08:38:28Z</time>
      </trkpt>
      <trkpt lat="45.18295" lon="4.38629">
        <ele>904.6</ele>
        <time>2026-04-24T08:38:33Z</time>
      </trkpt>
      <trkpt lat="45.18295" lon="4.38629">
        <ele>904.6</ele>
        <time>2026-04-24T08:38:38Z</time>
      </trkpt>
      <trkpt lat="45.18295" lon="4.38629">
        <ele>904.6</ele>
        <time>2026-04-24T08:38:43Z</time>
      </trkpt>
      <trkpt lat="45.18295" lon="4.38629">
        <ele>904.6</ele>
        <time>2026-04-24T08:38:48Z</time>
      </trkpt>
      <trkpt lat="45.18297" lon="4.38618">
        <ele>907.5</ele>
        <time>2026-04-24T08:38:53Z</time>
      </trkpt>
      <trkpt lat="45.18303" lon="4.38614">
        <ele>909.4</ele>
        <time>2026-04-24T08:38:58Z</time>
      </trkpt>
      <trkpt lat="45.18308" lon="4.3861">
        <ele>911.1</ele>
        <time>2026-04-24T08:39:03Z</time>
      </trkpt>
      <trkpt lat="45.18311" lon="4.38608">
        <ele>912</ele>
        <time>2026-04-24T08:39:08Z</time>
      </trkpt>
      <trkpt lat="45.18314" lon="4.38603">
        <ele>913.6</ele>
        <time>2026-04-24T08:39:13Z</time>
      </trkpt>
      <trkpt lat="45.18317" lon="4.38599">
        <ele>915</ele>
        <time>2026-04-24T08:39:18Z</time>
      </trkpt>
      <trkpt lat="45.1832" lon="4.38593">
        <ele>916.8</ele>
        <time>2026-04-24T08:39:23Z</time>
      </trkpt>
      <trkpt lat="45.18323" lon="4.38588">
        <ele>918.4</ele>
        <time>2026-04-24T08:39:28Z</time>
      </trkpt>
      <trkpt lat="45.18325" lon="4.38583">
        <ele>919.9</ele>
        <time>2026-04-24T08:39:33Z</time>
      </trkpt>
      <trkpt lat="45.18328" lon="4.38577">
        <ele>922.1</ele>
        <time>2026-04-24T08:39:38Z</time>
      </trkpt>
      <trkpt lat="45.18331" lon="4.3857">
        <ele>924.5</ele>
        <time>2026-04-24T08:39:43Z</time>
      </trkpt>
      <trkpt lat="45.18333" lon="4.38565">
        <ele>926.2</ele>
        <time>2026-04-24T08:39:48Z</time>
      </trkpt>
      <trkpt lat="45.18335" lon="4.38561">
        <ele>927.6</ele>
        <time>2026-04-24T08:39:53Z</time>
      </trkpt>
      <trkpt lat="45.18338" lon="4.38557">
        <ele>929.2</ele>
        <time>2026-04-24T08:39:58Z</time>
      </trkpt>
      <trkpt lat="45.18339" lon="4.38553">
        <ele>930.4</ele>
        <time>2026-04-24T08:40:03Z</time>
      </trkpt>
      <trkpt lat="45.1834" lon="4.38547">
        <ele>932.2</ele>
        <time>2026-04-24T08:40:08Z</time>
      </trkpt>
      <trkpt lat="45.18339" lon="4.38542">
        <ele>933.5</ele>
        <time>2026-04-24T08:40:13Z</time>
      </trkpt>
      <trkpt lat="45.18339" lon="4.38539">
        <ele>934.3</ele>
        <time>2026-04-24T08:40:18Z</time>
      </trkpt>
      <trkpt lat="45.18339" lon="4.38539">
        <ele>934.3</ele>
        <time>2026-04-24T08:40:23Z</time>
      </trkpt>
      <trkpt lat="45.18339" lon="4.38539">
        <ele>934.3</ele>
        <time>2026-04-24T08:40:28Z</time>
      </trkpt>
      <trkpt lat="45.18339" lon="4.38539">
        <ele>934.3</ele>
        <time>2026-04-24T08:40:33Z</time>
      </trkpt>
      <trkpt lat="45.18339" lon="4.38539">
        <ele>934.3</ele>
        <time>2026-04-24T08:40:38Z</time>
      </trkpt>
      <trkpt lat="45.18339" lon="4.38539">
        <ele>934.3</ele>
        <time>2026-04-24T08:40:43Z</time>
      </trkpt>
      <trkpt lat="45.18339" lon="4.38539">
        <ele>934.3</ele>
        <time>2026-04-24T08:40:48Z</time>
      </trkpt>
      <trkpt lat="45.18339" lon="4.38539">
        <ele>934.3</ele>
        <time>2026-04-24T08:40:53Z</time>
      </trkpt>
      <trkpt lat="45.18339" lon="4.38539">
        <ele>934.3</ele>
        <time>2026-04-24T08:40:58Z</time>
      </trkpt>
      <trkpt lat="45.18339" lon="4.38539">
        <ele>934.3</ele>
        <time>2026-04-24T08:41:03Z</time>
      </trkpt>
      <trkpt lat="45.18339" lon="4.38539">
        <ele>934.3</ele>
        <time>2026-04-24T08:41:08Z</time>
      </trkpt>
      <trkpt lat="45.18339" lon="4.38539">
        <ele>934.3</ele>
        <time>2026-04-24T08:41:13Z</time>
      </trkpt>
      <trkpt lat="45.18344" lon="4.38549">
        <ele>932.1</ele>
        <time>2026-04-24T08:41:18Z</time>
      </trkpt>
      <trkpt lat="45.18344" lon="4.38549">
        <ele>932.1</ele>
        <time>2026-04-24T08:41:23Z</time>
      </trkpt>
      <trkpt lat="45.18344" lon="4.38549">
        <ele>932.1</ele>
        <time>2026-04-24T08:41:28Z</time>
      </trkpt>
      <trkpt lat="45.18344" lon="4.38549">
        <ele>932.1</ele>
        <time>2026-04-24T08:41:33Z</time>
      </trkpt>
      <trkpt lat="45.18344" lon="4.38549">
        <ele>932.1</ele>
        <time>2026-04-24T08:41:38Z</time>
      </trkpt>
      <trkpt lat="45.18344" lon="4.38549">
        <ele>932.1</ele>
        <time>2026-04-24T08:41:43Z</time>
      </trkpt>
      <trkpt lat="45.18344" lon="4.38549">
        <ele>932.1</ele>
        <time>2026-04-24T08:41:48Z</time>
      </trkpt>
      <trkpt lat="45.18344" lon="4.38549">
        <ele>932.1</ele>
        <time>2026-04-24T08:41:53Z</time>
      </trkpt>
      <trkpt lat="45.18344" lon="4.38549">
        <ele>932.1</ele>
        <time>2026-04-24T08:41:58Z</time>
      </trkpt>
      <trkpt lat="45.18344" lon="4.38549">
        <ele>932.1</ele>
        <time>2026-04-24T08:42:03Z</time>
      </trkpt>
      <trkpt lat="45.18344" lon="4.38549">
        <ele>932.1</ele>
        <time>2026-04-24T08:42:08Z</time>
      </trkpt>
      <trkpt lat="45.18344" lon="4.38549">
        <ele>932.1</ele>
        <time>2026-04-24T08:42:13Z</time>
      </trkpt>
      <trkpt lat="45.18344" lon="4.38549">
        <ele>932.1</ele>
        <time>2026-04-24T08:42:18Z</time>
      </trkpt>
      <trkpt lat="45.18344" lon="4.38549">
        <ele>932.1</ele>
        <time>2026-04-24T08:42:23Z</time>
      </trkpt>
      <trkpt lat="45.18344" lon="4.38549">
        <ele>932.1</ele>
        <time>2026-04-24T08:42:28Z</time>
      </trkpt>
      <trkpt lat="45.18344" lon="4.38549">
        <ele>932.1</ele>
        <time>2026-04-24T08:42:33Z</time>
      </trkpt>
      <trkpt lat="45.18344" lon="4.38549">
        <ele>932.1</ele>
        <time>2026-04-24T08:42:38Z</time>
      </trkpt>
      <trkpt lat="45.18344" lon="4.38549">
        <ele>932.1</ele>
        <time>2026-04-24T08:42:43Z</time>
      </trkpt>
      <trkpt lat="45.18344" lon="4.38549">
        <ele>932.1</ele>
        <time>2026-04-24T08:42:48Z</time>
      </trkpt>
      <trkpt lat="45.18348" lon="4.38561">
        <ele>929.3</ele>
        <time>2026-04-24T08:42:53Z</time>
      </trkpt>
      <trkpt lat="45.18348" lon="4.38561">
        <ele>929.3</ele>
        <time>2026-04-24T08:42:58Z</time>
      </trkpt>
      <trkpt lat="45.18348" lon="4.38561">
        <ele>929.3</ele>
        <time>2026-04-24T08:43:03Z</time>
      </trkpt>
      <trkpt lat="45.18348" lon="4.38561">
        <ele>929.3</ele>
        <time>2026-04-24T08:43:08Z</time>
      </trkpt>
      <trkpt lat="45.18348" lon="4.38561">
        <ele>929.3</ele>
        <time>2026-04-24T08:43:13Z</time>
      </trkpt>
      <trkpt lat="45.18348" lon="4.38561">
        <ele>929.3</ele>
        <time>2026-04-24T08:43:18Z</time>
      </trkpt>
      <trkpt lat="45.18348" lon="4.38561">
        <ele>929.3</ele>
        <time>2026-04-24T08:43:23Z</time>
      </trkpt>
      <trkpt lat="45.18348" lon="4.38561">
        <ele>929.3</ele>
        <time>2026-04-24T08:43:28Z</time>
      </trkpt>
      <trkpt lat="45.18344" lon="4.38548">
        <ele>932.4</ele>
        <time>2026-04-24T08:43:33Z</time>
      </trkpt>
      <trkpt lat="45.18342" lon="4.38544">
        <ele>933.2</ele>
        <time>2026-04-24T08:43:38Z</time>
      </trkpt>
      <trkpt lat="45.18342" lon="4.38544">
        <ele>933.2</ele>
        <time>2026-04-24T08:43:43Z</time>
      </trkpt>
      <trkpt lat="45.18342" lon="4.38544">
        <ele>933.2</ele>
        <time>2026-04-24T08:43:48Z</time>
      </trkpt>
      <trkpt lat="45.18342" lon="4.38544">
        <ele>933.2</ele>
        <time>2026-04-24T08:43:53Z</time>
      </trkpt>
      <trkpt lat="45.18342" lon="4.38544">
        <ele>933.2</ele>
        <time>2026-04-24T08:43:58Z</time>
      </trkpt>
      <trkpt lat="45.18342" lon="4.38544">
        <ele>933.2</ele>
        <time>2026-04-24T08:44:03Z</time>
      </trkpt>
      <trkpt lat="45.18342" lon="4.38544">
        <ele>933.2</ele>
        <time>2026-04-24T08:44:08Z</time>
      </trkpt>
      <trkpt lat="45.18348" lon="4.38528">
        <ele>938.2</ele>
        <time>2026-04-24T08:44:13Z</time>
      </trkpt>
      <trkpt lat="45.18353" lon="4.38523">
        <ele>939.9</ele>
        <time>2026-04-24T08:44:18Z</time>
      </trkpt>
      <trkpt lat="45.18358" lon="4.38517">
        <ele>941.8</ele>
        <time>2026-04-24T08:44:23Z</time>
      </trkpt>
      <trkpt lat="45.18361" lon="4.38512">
        <ele>943.3</ele>
        <time>2026-04-24T08:44:28Z</time>
      </trkpt>
      <trkpt lat="45.18365" lon="4.38509">
        <ele>944.3</ele>
        <time>2026-04-24T08:44:33Z</time>
      </trkpt>
      <trkpt lat="45.18368" lon="4.38504">
        <ele>945.7</ele>
        <time>2026-04-24T08:44:38Z</time>
      </trkpt>
      <trkpt lat="45.18371" lon="4.38501">
        <ele>946.6</ele>
        <time>2026-04-24T08:44:43Z</time>
      </trkpt>
      <trkpt lat="45.18375" lon="4.38497">
        <ele>947.4</ele>
        <time>2026-04-24T08:44:48Z</time>
      </trkpt>
      <trkpt lat="45.18379" lon="4.38493">
        <ele>948.2</ele>
        <time>2026-04-24T08:44:53Z</time>
      </trkpt>
      <trkpt lat="45.18382" lon="4.38489">
        <ele>949</ele>
        <time>2026-04-24T08:44:58Z</time>
      </trkpt>
      <trkpt lat="45.18386" lon="4.38485">
        <ele>949.7</ele>
        <time>2026-04-24T08:45:03Z</time>
      </trkpt>
      <trkpt lat="45.1839" lon="4.3848">
        <ele>950.6</ele>
        <time>2026-04-24T08:45:08Z</time>
      </trkpt>
      <trkpt lat="45.18394" lon="4.38474">
        <ele>951.6</ele>
        <time>2026-04-24T08:45:13Z</time>
      </trkpt>
      <trkpt lat="45.18399" lon="4.38469">
        <ele>952.5</ele>
        <time>2026-04-24T08:45:18Z</time>
      </trkpt>
      <trkpt lat="45.18404" lon="4.38466">
        <ele>953.1</ele>
        <time>2026-04-24T08:45:23Z</time>
      </trkpt>
      <trkpt lat="45.18409" lon="4.38462">
        <ele>953.8</ele>
        <time>2026-04-24T08:45:28Z</time>
      </trkpt>
      <trkpt lat="45.18413" lon="4.3846">
        <ele>954.2</ele>
        <time>2026-04-24T08:45:33Z</time>
      </trkpt>
      <trkpt lat="45.18418" lon="4.38457">
        <ele>954.6</ele>
        <time>2026-04-24T08:45:38Z</time>
      </trkpt>
      <trkpt lat="45.18422" lon="4.38453">
        <ele>955</ele>
        <time>2026-04-24T08:45:43Z</time>
      </trkpt>
      <trkpt lat="45.18426" lon="4.38452">
        <ele>955</ele>
        <time>2026-04-24T08:45:48Z</time>
      </trkpt>
      <trkpt lat="45.18428" lon="4.3845">
        <ele>955.2</ele>
        <time>2026-04-24T08:45:53Z</time>
      </trkpt>
      <trkpt lat="45.18429" lon="4.3845">
        <ele>955.2</ele>
        <time>2026-04-24T08:45:58Z</time>
      </trkpt>
      <trkpt lat="45.18429" lon="4.3845">
        <ele>955.2</ele>
        <time>2026-04-24T08:46:03Z</time>
      </trkpt>
      <trkpt lat="45.18434" lon="4.38447">
        <ele>955.4</ele>
        <time>2026-04-24T08:46:08Z</time>
      </trkpt>
      <trkpt lat="45.18439" lon="4.38441">
        <ele>956.1</ele>
        <time>2026-04-24T08:46:13Z</time>
      </trkpt>
      <trkpt lat="45.18443" lon="4.38436">
        <ele>956.7</ele>
        <time>2026-04-24T08:46:18Z</time>
      </trkpt>
      <trkpt lat="45.18447" lon="4.38431">
        <ele>957.3</ele>
        <time>2026-04-24T08:46:23Z</time>
      </trkpt>
      <trkpt lat="45.18452" lon="4.38427">
        <ele>957.7</ele>
        <time>2026-04-24T08:46:28Z</time>
      </trkpt>
      <trkpt lat="45.18458" lon="4.38423">
        <ele>958.1</ele>
        <time>2026-04-24T08:46:33Z</time>
      </trkpt>
      <trkpt lat="45.18462" lon="4.3842">
        <ele>958.4</ele>
        <time>2026-04-24T08:46:38Z</time>
      </trkpt>
      <trkpt lat="45.18467" lon="4.38417">
        <ele>958.7</ele>
        <time>2026-04-24T08:46:43Z</time>
      </trkpt>
      <trkpt lat="45.18472" lon="4.38412">
        <ele>959.3</ele>
        <time>2026-04-24T08:46:48Z</time>
      </trkpt>
      <trkpt lat="45.18478" lon="4.38407">
        <ele>959.9</ele>
        <time>2026-04-24T08:46:53Z</time>
      </trkpt>
      <trkpt lat="45.18485" lon="4.384">
        <ele>960.9</ele>
        <time>2026-04-24T08:46:58Z</time>
      </trkpt>
      <trkpt lat="45.18491" lon="4.38395">
        <ele>961.5</ele>
        <time>2026-04-24T08:47:03Z</time>
      </trkpt>
      <trkpt lat="45.18497" lon="4.3839">
        <ele>962.2</ele>
        <time>2026-04-24T08:47:08Z</time>
      </trkpt>
      <trkpt lat="45.18503" lon="4.38386">
        <ele>962.5</ele>
        <time>2026-04-24T08:47:13Z</time>
      </trkpt>
      <trkpt lat="45.1851" lon="4.38382">
        <ele>962.3</ele>
        <time>2026-04-24T08:47:18Z</time>
      </trkpt>
      <trkpt lat="45.18517" lon="4.38377">
        <ele>962.4</ele>
        <time>2026-04-24T08:47:23Z</time>
      </trkpt>
      <trkpt lat="45.18522" lon="4.3837">
        <ele>962.9</ele>
        <time>2026-04-24T08:47:28Z</time>
      </trkpt>
      <trkpt lat="45.18528" lon="4.38366">
        <ele>962.8</ele>
        <time>2026-04-24T08:47:33Z</time>
      </trkpt>
      <trkpt lat="45.18533" lon="4.38363">
        <ele>962.7</ele>
        <time>2026-04-24T08:47:38Z</time>
      </trkpt>
      <trkpt lat="45.18538" lon="4.38362">
        <ele>962.3</ele>
        <time>2026-04-24T08:47:43Z</time>
      </trkpt>
      <trkpt lat="45.18546" lon="4.38357">
        <ele>962.1</ele>
        <time>2026-04-24T08:47:48Z</time>
      </trkpt>
      <trkpt lat="45.18554" lon="4.38351">
        <ele>962</ele>
        <time>2026-04-24T08:47:53Z</time>
      </trkpt>
      <trkpt lat="45.18558" lon="4.38346">
        <ele>962.3</ele>
        <time>2026-04-24T08:47:58Z</time>
      </trkpt>
      <trkpt lat="45.1856" lon="4.38339">
        <ele>963</ele>
        <time>2026-04-24T08:48:03Z</time>
      </trkpt>
      <trkpt lat="45.18565" lon="4.3833">
        <ele>963.5</ele>
        <time>2026-04-24T08:48:08Z</time>
      </trkpt>
      <trkpt lat="45.18571" lon="4.3832">
        <ele>963.8</ele>
        <time>2026-04-24T08:48:13Z</time>
      </trkpt>
      <trkpt lat="45.18575" lon="4.38311">
        <ele>964.2</ele>
        <time>2026-04-24T08:48:18Z</time>
      </trkpt>
      <trkpt lat="45.18581" lon="4.38302">
        <ele>964.3</ele>
        <time>2026-04-24T08:48:23Z</time>
      </trkpt>
      <trkpt lat="45.18584" lon="4.38295">
        <ele>964.5</ele>
        <time>2026-04-24T08:48:28Z</time>
      </trkpt>
      <trkpt lat="45.18588" lon="4.38285">
        <ele>964.5</ele>
        <time>2026-04-24T08:48:33Z</time>
      </trkpt>
      <trkpt lat="45.18593" lon="4.38276">
        <ele>964.2</ele>
        <time>2026-04-24T08:48:38Z</time>
      </trkpt>
      <trkpt lat="45.18597" lon="4.38269">
        <ele>964</ele>
        <time>2026-04-24T08:48:43Z</time>
      </trkpt>
      <trkpt lat="45.186" lon="4.3826">
        <ele>964.2</ele>
        <time>2026-04-24T08:48:48Z</time>
      </trkpt>
      <trkpt lat="45.18603" lon="4.38252">
        <ele>964.3</ele>
        <time>2026-04-24T08:48:53Z</time>
      </trkpt>
      <trkpt lat="45.18604" lon="4.38243">
        <ele>964.9</ele>
        <time>2026-04-24T08:48:58Z</time>
      </trkpt>
      <trkpt lat="45.18606" lon="4.38231">
        <ele>965.6</ele>
        <time>2026-04-24T08:49:03Z</time>
      </trkpt>
      <trkpt lat="45.18607" lon="4.38221">
        <ele>966.2</ele>
        <time>2026-04-24T08:49:08Z</time>
      </trkpt>
      <trkpt lat="45.18611" lon="4.38212">
        <ele>966.2</ele>
        <time>2026-04-24T08:49:13Z</time>
      </trkpt>
      <trkpt lat="45.18618" lon="4.38206">
        <ele>965.2</ele>
        <time>2026-04-24T08:49:18Z</time>
      </trkpt>
      <trkpt lat="45.18624" lon="4.38203">
        <ele>964.2</ele>
        <time>2026-04-24T08:49:23Z</time>
      </trkpt>
      <trkpt lat="45.18632" lon="4.38199">
        <ele>962.9</ele>
        <time>2026-04-24T08:49:28Z</time>
      </trkpt>
      <trkpt lat="45.18638" lon="4.38196">
        <ele>961.9</ele>
        <time>2026-04-24T08:49:33Z</time>
      </trkpt>
      <trkpt lat="45.18644" lon="4.38192">
        <ele>961.1</ele>
        <time>2026-04-24T08:49:38Z</time>
      </trkpt>
      <trkpt lat="45.1865" lon="4.38187">
        <ele>960.3</ele>
        <time>2026-04-24T08:49:43Z</time>
      </trkpt>
      <trkpt lat="45.18656" lon="4.3818">
        <ele>959.8</ele>
        <time>2026-04-24T08:49:48Z</time>
      </trkpt>
      <trkpt lat="45.18662" lon="4.38173">
        <ele>959.3</ele>
        <time>2026-04-24T08:49:53Z</time>
      </trkpt>
      <trkpt lat="45.18667" lon="4.38166">
        <ele>959</ele>
        <time>2026-04-24T08:49:58Z</time>
      </trkpt>
      <trkpt lat="45.18672" lon="4.38159">
        <ele>959.1</ele>
        <time>2026-04-24T08:50:03Z</time>
      </trkpt>
      <trkpt lat="45.18679" lon="4.38152">
        <ele>958.7</ele>
        <time>2026-04-24T08:50:08Z</time>
      </trkpt>
      <trkpt lat="45.18688" lon="4.38144">
        <ele>957.9</ele>
        <time>2026-04-24T08:50:13Z</time>
      </trkpt>
      <trkpt lat="45.18693" lon="4.38136">
        <ele>958.1</ele>
        <time>2026-04-24T08:50:18Z</time>
      </trkpt>
      <trkpt lat="45.18699" lon="4.38129">
        <ele>958</ele>
        <time>2026-04-24T08:50:23Z</time>
      </trkpt>
      <trkpt lat="45.18704" lon="4.38123">
        <ele>957.8</ele>
        <time>2026-04-24T08:50:28Z</time>
      </trkpt>
      <trkpt lat="45.18707" lon="4.38116">
        <ele>958.3</ele>
        <time>2026-04-24T08:50:33Z</time>
      </trkpt>
      <trkpt lat="45.18712" lon="4.38109">
        <ele>958.4</ele>
        <time>2026-04-24T08:50:38Z</time>
      </trkpt>
      <trkpt lat="45.18717" lon="4.38101">
        <ele>958.6</ele>
        <time>2026-04-24T08:50:43Z</time>
      </trkpt>
      <trkpt lat="45.18721" lon="4.38091">
        <ele>959.3</ele>
        <time>2026-04-24T08:50:48Z</time>
      </trkpt>
      <trkpt lat="45.18725" lon="4.38084">
        <ele>959.6</ele>
        <time>2026-04-24T08:50:53Z</time>
      </trkpt>
      <trkpt lat="45.18729" lon="4.38077">
        <ele>959.5</ele>
        <time>2026-04-24T08:50:58Z</time>
      </trkpt>
      <trkpt lat="45.18731" lon="4.3807">
        <ele>959.8</ele>
        <time>2026-04-24T08:51:03Z</time>
      </trkpt>
      <trkpt lat="45.18735" lon="4.38061">
        <ele>959.9</ele>
        <time>2026-04-24T08:51:08Z</time>
      </trkpt>
      <trkpt lat="45.18739" lon="4.38052">
        <ele>959.9</ele>
        <time>2026-04-24T08:51:13Z</time>
      </trkpt>
      <trkpt lat="45.18744" lon="4.38045">
        <ele>959.5</ele>
        <time>2026-04-24T08:51:18Z</time>
      </trkpt>
      <trkpt lat="45.18748" lon="4.38038">
        <ele>959.4</ele>
        <time>2026-04-24T08:51:23Z</time>
      </trkpt>
      <trkpt lat="45.18751" lon="4.38029">
        <ele>959.6</ele>
        <time>2026-04-24T08:51:28Z</time>
      </trkpt>
      <trkpt lat="45.18754" lon="4.38022">
        <ele>959.7</ele>
        <time>2026-04-24T08:51:33Z</time>
      </trkpt>
      <trkpt lat="45.18757" lon="4.38012">
        <ele>960</ele>
        <time>2026-04-24T08:51:38Z</time>
      </trkpt>
      <trkpt lat="45.18757" lon="4.38004">
        <ele>960.9</ele>
        <time>2026-04-24T08:51:43Z</time>
      </trkpt>
      <trkpt lat="45.18756" lon="4.37994">
        <ele>961.9</ele>
        <time>2026-04-24T08:51:48Z</time>
      </trkpt>
      <trkpt lat="45.18754" lon="4.37985">
        <ele>963</ele>
        <time>2026-04-24T08:51:53Z</time>
      </trkpt>
      <trkpt lat="45.18752" lon="4.37974">
        <ele>964.1</ele>
        <time>2026-04-24T08:51:58Z</time>
      </trkpt>
      <trkpt lat="45.18751" lon="4.37965">
        <ele>964.9</ele>
        <time>2026-04-24T08:52:03Z</time>
      </trkpt>
      <trkpt lat="45.1875" lon="4.37956">
        <ele>965.6</ele>
        <time>2026-04-24T08:52:08Z</time>
      </trkpt>
      <trkpt lat="45.18752" lon="4.37947">
        <ele>965.8</ele>
        <time>2026-04-24T08:52:13Z</time>
      </trkpt>
      <trkpt lat="45.18754" lon="4.37941">
        <ele>965.7</ele>
        <time>2026-04-24T08:52:18Z</time>
      </trkpt>
      <trkpt lat="45.18756" lon="4.37936">
        <ele>965.6</ele>
        <time>2026-04-24T08:52:23Z</time>
      </trkpt>
      <trkpt lat="45.1876" lon="4.37931">
        <ele>965.1</ele>
        <time>2026-04-24T08:52:28Z</time>
      </trkpt>
      <trkpt lat="45.18765" lon="4.37928">
        <ele>964.3</ele>
        <time>2026-04-24T08:52:33Z</time>
      </trkpt>
      <trkpt lat="45.1877" lon="4.37926">
        <ele>963.5</ele>
        <time>2026-04-24T08:52:38Z</time>
      </trkpt>
      <trkpt lat="45.18774" lon="4.37922">
        <ele>963</ele>
        <time>2026-04-24T08:52:43Z</time>
      </trkpt>
      <trkpt lat="45.18777" lon="4.37917">
        <ele>962.8</ele>
        <time>2026-04-24T08:52:48Z</time>
      </trkpt>
      <trkpt lat="45.18781" lon="4.37913">
        <ele>962.7</ele>
        <time>2026-04-24T08:52:53Z</time>
      </trkpt>
      <trkpt lat="45.18783" lon="4.3791">
        <ele>962.8</ele>
        <time>2026-04-24T08:52:58Z</time>
      </trkpt>
      <trkpt lat="45.18785" lon="4.37905">
        <ele>963.3</ele>
        <time>2026-04-24T08:53:03Z</time>
      </trkpt>
      <trkpt lat="45.18789" lon="4.37899">
        <ele>963.6</ele>
        <time>2026-04-24T08:53:08Z</time>
      </trkpt>
      <trkpt lat="45.18792" lon="4.37894">
        <ele>964</ele>
        <time>2026-04-24T08:53:13Z</time>
      </trkpt>
      <trkpt lat="45.18796" lon="4.37887">
        <ele>964.7</ele>
        <time>2026-04-24T08:53:18Z</time>
      </trkpt>
      <trkpt lat="45.18799" lon="4.3788">
        <ele>965.6</ele>
        <time>2026-04-24T08:53:23Z</time>
      </trkpt>
      <trkpt lat="45.18803" lon="4.37872">
        <ele>966.6</ele>
        <time>2026-04-24T08:53:28Z</time>
      </trkpt>
      <trkpt lat="45.18806" lon="4.37864">
        <ele>967.8</ele>
        <time>2026-04-24T08:53:33Z</time>
      </trkpt>
      <trkpt lat="45.1881" lon="4.37857">
        <ele>968.8</ele>
        <time>2026-04-24T08:53:38Z</time>
      </trkpt>
      <trkpt lat="45.18815" lon="4.37852">
        <ele>969.3</ele>
        <time>2026-04-24T08:53:43Z</time>
      </trkpt>
      <trkpt lat="45.18819" lon="4.3785">
        <ele>969.4</ele>
        <time>2026-04-24T08:53:48Z</time>
      </trkpt>
      <trkpt lat="45.18823" lon="4.37849">
        <ele>969.2</ele>
        <time>2026-04-24T08:53:53Z</time>
      </trkpt>
      <trkpt lat="45.18828" lon="4.37849">
        <ele>968.7</ele>
        <time>2026-04-24T08:53:58Z</time>
      </trkpt>
      <trkpt lat="45.18833" lon="4.37853">
        <ele>967.3</ele>
        <time>2026-04-24T08:54:03Z</time>
      </trkpt>
      <trkpt lat="45.18838" lon="4.37856">
        <ele>965.8</ele>
        <time>2026-04-24T08:54:08Z</time>
      </trkpt>
      <trkpt lat="45.18842" lon="4.37861">
        <ele>963.9</ele>
        <time>2026-04-24T08:54:13Z</time>
      </trkpt>
      <trkpt lat="45.18847" lon="4.37864">
        <ele>962.4</ele>
        <time>2026-04-24T08:54:18Z</time>
      </trkpt>
      <trkpt lat="45.18852" lon="4.37867">
        <ele>960.8</ele>
        <time>2026-04-24T08:54:23Z</time>
      </trkpt>
      <trkpt lat="45.18857" lon="4.3787">
        <ele>959.3</ele>
        <time>2026-04-24T08:54:28Z</time>
      </trkpt>
      <trkpt lat="45.18862" lon="4.37874">
        <ele>957.4</ele>
        <time>2026-04-24T08:54:33Z</time>
      </trkpt>
      <trkpt lat="45.18865" lon="4.37873">
        <ele>957.2</ele>
        <time>2026-04-24T08:54:38Z</time>
      </trkpt>
      <trkpt lat="45.18869" lon="4.37869">
        <ele>957.5</ele>
        <time>2026-04-24T08:54:43Z</time>
      </trkpt>
      <trkpt lat="45.18874" lon="4.37866">
        <ele>957.4</ele>
        <time>2026-04-24T08:54:48Z</time>
      </trkpt>
      <trkpt lat="45.18878" lon="4.3786">
        <ele>958.3</ele>
        <time>2026-04-24T08:54:53Z</time>
      </trkpt>
      <trkpt lat="45.18882" lon="4.37857">
        <ele>958.4</ele>
        <time>2026-04-24T08:54:58Z</time>
      </trkpt>
      <trkpt lat="45.18885" lon="4.37856">
        <ele>958.2</ele>
        <time>2026-04-24T08:55:03Z</time>
      </trkpt>
      <trkpt lat="45.18886" lon="4.3785">
        <ele>959.5</ele>
        <time>2026-04-24T08:55:08Z</time>
      </trkpt>
      <trkpt lat="45.18888" lon="4.37846">
        <ele>960.2</ele>
        <time>2026-04-24T08:55:13Z</time>
      </trkpt>
      <trkpt lat="45.18892" lon="4.37842">
        <ele>960.6</ele>
        <time>2026-04-24T08:55:18Z</time>
      </trkpt>
      <trkpt lat="45.18898" lon="4.3784">
        <ele>960.2</ele>
        <time>2026-04-24T08:55:23Z</time>
      </trkpt>
      <trkpt lat="45.18902" lon="4.3784">
        <ele>959.6</ele>
        <time>2026-04-24T08:55:28Z</time>
      </trkpt>
      <trkpt lat="45.18906" lon="4.3784">
        <ele>958.9</ele>
        <time>2026-04-24T08:55:33Z</time>
      </trkpt>
      <trkpt lat="45.18911" lon="4.3784">
        <ele>958.1</ele>
        <time>2026-04-24T08:55:38Z</time>
      </trkpt>
      <trkpt lat="45.18915" lon="4.3784">
        <ele>957.5</ele>
        <time>2026-04-24T08:55:43Z</time>
      </trkpt>
      <trkpt lat="45.18922" lon="4.37839">
        <ele>957.9</ele>
        <time>2026-04-24T08:55:48Z</time>
      </trkpt>
      <trkpt lat="45.18926" lon="4.37839">
        <ele>958.2</ele>
        <time>2026-04-24T08:55:53Z</time>
      </trkpt>
      <trkpt lat="45.1893" lon="4.37838">
        <ele>958.7</ele>
        <time>2026-04-24T08:55:58Z</time>
      </trkpt>
      <trkpt lat="45.18935" lon="4.37835">
        <ele>959.9</ele>
        <time>2026-04-24T08:56:03Z</time>
      </trkpt>
      <trkpt lat="45.1894" lon="4.3783">
        <ele>961.5</ele>
        <time>2026-04-24T08:56:08Z</time>
      </trkpt>
      <trkpt lat="45.18944" lon="4.37827">
        <ele>962.5</ele>
        <time>2026-04-24T08:56:13Z</time>
      </trkpt>
      <trkpt lat="45.18949" lon="4.37823">
        <ele>963.9</ele>
        <time>2026-04-24T08:56:18Z</time>
      </trkpt>
      <trkpt lat="45.18955" lon="4.3782">
        <ele>965</ele>
        <time>2026-04-24T08:56:23Z</time>
      </trkpt>
      <trkpt lat="45.1896" lon="4.37819">
        <ele>965.6</ele>
        <time>2026-04-24T08:56:28Z</time>
      </trkpt>
      <trkpt lat="45.18965" lon="4.37817">
        <ele>966.5</ele>
        <time>2026-04-24T08:56:33Z</time>
      </trkpt>
      <trkpt lat="45.18969" lon="4.37816">
        <ele>967.1</ele>
        <time>2026-04-24T08:56:38Z</time>
      </trkpt>
      <trkpt lat="45.18972" lon="4.37815">
        <ele>967.5</ele>
        <time>2026-04-24T08:56:43Z</time>
      </trkpt>
      <trkpt lat="45.18974" lon="4.37814">
        <ele>967.9</ele>
        <time>2026-04-24T08:56:48Z</time>
      </trkpt>
      <trkpt lat="45.18975" lon="4.37814">
        <ele>968</ele>
        <time>2026-04-24T08:56:53Z</time>
      </trkpt>
      <trkpt lat="45.18975" lon="4.37814">
        <ele>968</ele>
        <time>2026-04-24T08:56:58Z</time>
      </trkpt>
      <trkpt lat="45.18975" lon="4.37814">
        <ele>968</ele>
        <time>2026-04-24T08:57:03Z</time>
      </trkpt>
      <trkpt lat="45.18982" lon="4.37811">
        <ele>969.3</ele>
        <time>2026-04-24T08:57:08Z</time>
      </trkpt>
      <trkpt lat="45.18987" lon="4.3781">
        <ele>969.9</ele>
        <time>2026-04-24T08:57:13Z</time>
      </trkpt>
      <trkpt lat="45.18992" lon="4.37808">
        <ele>970.8</ele>
        <time>2026-04-24T08:57:18Z</time>
      </trkpt>
      <trkpt lat="45.18998" lon="4.37804">
        <ele>972.2</ele>
        <time>2026-04-24T08:57:23Z</time>
      </trkpt>
      <trkpt lat="45.19002" lon="4.378">
        <ele>973.5</ele>
        <time>2026-04-24T08:57:28Z</time>
      </trkpt>
      <trkpt lat="45.19006" lon="4.37796">
        <ele>974.7</ele>
        <time>2026-04-24T08:57:33Z</time>
      </trkpt>
      <trkpt lat="45.19009" lon="4.37792">
        <ele>975.8</ele>
        <time>2026-04-24T08:57:38Z</time>
      </trkpt>
      <trkpt lat="45.19012" lon="4.37787">
        <ele>977.3</ele>
        <time>2026-04-24T08:57:43Z</time>
      </trkpt>
      <trkpt lat="45.19014" lon="4.37782">
        <ele>978.6</ele>
        <time>2026-04-24T08:57:48Z</time>
      </trkpt>
      <trkpt lat="45.19015" lon="4.37776">
        <ele>980.2</ele>
        <time>2026-04-24T08:57:53Z</time>
      </trkpt>
      <trkpt lat="45.19017" lon="4.37771">
        <ele>981.6</ele>
        <time>2026-04-24T08:57:58Z</time>
      </trkpt>
      <trkpt lat="45.19018" lon="4.37765">
        <ele>983.2</ele>
        <time>2026-04-24T08:58:03Z</time>
      </trkpt>
      <trkpt lat="45.19019" lon="4.37759">
        <ele>984.8</ele>
        <time>2026-04-24T08:58:08Z</time>
      </trkpt>
      <trkpt lat="45.1902" lon="4.37753">
        <ele>986.4</ele>
        <time>2026-04-24T08:58:13Z</time>
      </trkpt>
      <trkpt lat="45.19021" lon="4.37748">
        <ele>987.6</ele>
        <time>2026-04-24T08:58:18Z</time>
      </trkpt>
      <trkpt lat="45.19021" lon="4.37743">
        <ele>988.4</ele>
        <time>2026-04-24T08:58:23Z</time>
      </trkpt>
      <trkpt lat="45.19022" lon="4.37739">
        <ele>989.1</ele>
        <time>2026-04-24T08:58:28Z</time>
      </trkpt>
      <trkpt lat="45.19023" lon="4.37733">
        <ele>990.2</ele>
        <time>2026-04-24T08:58:33Z</time>
      </trkpt>
      <trkpt lat="45.19025" lon="4.37728">
        <ele>991.1</ele>
        <time>2026-04-24T08:58:38Z</time>
      </trkpt>
      <trkpt lat="45.19027" lon="4.37722">
        <ele>992.2</ele>
        <time>2026-04-24T08:58:43Z</time>
      </trkpt>
      <trkpt lat="45.19028" lon="4.37717">
        <ele>993.1</ele>
        <time>2026-04-24T08:58:48Z</time>
      </trkpt>
      <trkpt lat="45.19029" lon="4.37712">
        <ele>994</ele>
        <time>2026-04-24T08:58:53Z</time>
      </trkpt>
      <trkpt lat="45.19031" lon="4.37707">
        <ele>994.9</ele>
        <time>2026-04-24T08:58:58Z</time>
      </trkpt>
      <trkpt lat="45.19032" lon="4.37701">
        <ele>995.9</ele>
        <time>2026-04-24T08:59:03Z</time>
      </trkpt>
      <trkpt lat="45.19033" lon="4.37696">
        <ele>996.8</ele>
        <time>2026-04-24T08:59:08Z</time>
      </trkpt>
      <trkpt lat="45.19034" lon="4.3769">
        <ele>997.8</ele>
        <time>2026-04-24T08:59:13Z</time>
      </trkpt>
      <trkpt lat="45.19035" lon="4.37684">
        <ele>998.9</ele>
        <time>2026-04-24T08:59:18Z</time>
      </trkpt>
      <trkpt lat="45.19036" lon="4.37679">
        <ele>999.7</ele>
        <time>2026-04-24T08:59:23Z</time>
      </trkpt>
      <trkpt lat="45.19037" lon="4.37672">
        <ele>1000.9</ele>
        <time>2026-04-24T08:59:28Z</time>
      </trkpt>
      <trkpt lat="45.19039" lon="4.37667">
        <ele>1001.8</ele>
        <time>2026-04-24T08:59:33Z</time>
      </trkpt>
      <trkpt lat="45.19041" lon="4.37661">
        <ele>1002.3</ele>
        <time>2026-04-24T08:59:38Z</time>
      </trkpt>
      <trkpt lat="45.19042" lon="4.37654">
        <ele>1002.9</ele>
        <time>2026-04-24T08:59:43Z</time>
      </trkpt>
      <trkpt lat="45.19045" lon="4.37647">
        <ele>1003.4</ele>
        <time>2026-04-24T08:59:48Z</time>
      </trkpt>
      <trkpt lat="45.19046" lon="4.3764">
        <ele>1003.9</ele>
        <time>2026-04-24T08:59:53Z</time>
      </trkpt>
      <trkpt lat="45.19048" lon="4.37633">
        <ele>1004.4</ele>
        <time>2026-04-24T08:59:58Z</time>
      </trkpt>
      <trkpt lat="45.19049" lon="4.37629">
        <ele>1004.7</ele>
        <time>2026-04-24T09:00:03Z</time>
      </trkpt>
      <trkpt lat="45.19049" lon="4.37627">
        <ele>1004.8</ele>
        <time>2026-04-24T09:00:08Z</time>
      </trkpt>
      <trkpt lat="45.19049" lon="4.37627">
        <ele>1004.8</ele>
        <time>2026-04-24T09:00:13Z</time>
      </trkpt>
      <trkpt lat="45.19049" lon="4.37627">
        <ele>1004.8</ele>
        <time>2026-04-24T09:00:18Z</time>
      </trkpt>
      <trkpt lat="45.19049" lon="4.37627">
        <ele>1004.8</ele>
        <time>2026-04-24T09:00:23Z</time>
      </trkpt>
      <trkpt lat="45.19049" lon="4.37627">
        <ele>1004.8</ele>
        <time>2026-04-24T09:00:28Z</time>
      </trkpt>
      <trkpt lat="45.19052" lon="4.3762">
        <ele>1005.4</ele>
        <time>2026-04-24T09:00:33Z</time>
      </trkpt>
      <trkpt lat="45.19053" lon="4.37614">
        <ele>1005.8</ele>
        <time>2026-04-24T09:00:38Z</time>
      </trkpt>
      <trkpt lat="45.19054" lon="4.37605">
        <ele>1006.3</ele>
        <time>2026-04-24T09:00:43Z</time>
      </trkpt>
      <trkpt lat="45.19055" lon="4.37596">
        <ele>1006.9</ele>
        <time>2026-04-24T09:00:48Z</time>
      </trkpt>
      <trkpt lat="45.19053" lon="4.37592">
        <ele>1007.1</ele>
        <time>2026-04-24T09:00:53Z</time>
      </trkpt>
      <trkpt lat="45.19053" lon="4.37591">
        <ele>1007.2</ele>
        <time>2026-04-24T09:00:58Z</time>
      </trkpt>
      <trkpt lat="45.19052" lon="4.37585">
        <ele>1007.5</ele>
        <time>2026-04-24T09:01:03Z</time>
      </trkpt>
      <trkpt lat="45.19055" lon="4.37576">
        <ele>1007.3</ele>
        <time>2026-04-24T09:01:08Z</time>
      </trkpt>
      <trkpt lat="45.19057" lon="4.37567">
        <ele>1006.9</ele>
        <time>2026-04-24T09:01:13Z</time>
      </trkpt>
      <trkpt lat="45.19057" lon="4.37556">
        <ele>1006.3</ele>
        <time>2026-04-24T09:01:18Z</time>
      </trkpt>
      <trkpt lat="45.19058" lon="4.37547">
        <ele>1005.9</ele>
        <time>2026-04-24T09:01:23Z</time>
      </trkpt>
      <trkpt lat="45.19057" lon="4.37537">
        <ele>1005.4</ele>
        <time>2026-04-24T09:01:28Z</time>
      </trkpt>
      <trkpt lat="45.19056" lon="4.37527">
        <ele>1004.9</ele>
        <time>2026-04-24T09:01:33Z</time>
      </trkpt>
      <trkpt lat="45.19054" lon="4.37516">
        <ele>1004.5</ele>
        <time>2026-04-24T09:01:38Z</time>
      </trkpt>
      <trkpt lat="45.19051" lon="4.37506">
        <ele>1004.2</ele>
        <time>2026-04-24T09:01:43Z</time>
      </trkpt>
      <trkpt lat="45.19046" lon="4.37494">
        <ele>1003.8</ele>
        <time>2026-04-24T09:01:48Z</time>
      </trkpt>
      <trkpt lat="45.19044" lon="4.37482">
        <ele>1003.1</ele>
        <time>2026-04-24T09:01:53Z</time>
      </trkpt>
      <trkpt lat="45.19041" lon="4.37475">
        <ele>1002.7</ele>
        <time>2026-04-24T09:01:58Z</time>
      </trkpt>
      <trkpt lat="45.19036" lon="4.37467">
        <ele>1002.5</ele>
        <time>2026-04-24T09:02:03Z</time>
      </trkpt>
      <trkpt lat="45.19031" lon="4.37458">
        <ele>1002.1</ele>
        <time>2026-04-24T09:02:08Z</time>
      </trkpt>
      <trkpt lat="45.19026" lon="4.3745">
        <ele>1001.8</ele>
        <time>2026-04-24T09:02:13Z</time>
      </trkpt>
      <trkpt lat="45.19022" lon="4.37441">
        <ele>1001.4</ele>
        <time>2026-04-24T09:02:18Z</time>
      </trkpt>
      <trkpt lat="45.19017" lon="4.37431">
        <ele>1001</ele>
        <time>2026-04-24T09:02:23Z</time>
      </trkpt>
      <trkpt lat="45.19012" lon="4.37424">
        <ele>1000.8</ele>
        <time>2026-04-24T09:02:28Z</time>
      </trkpt>
      <trkpt lat="45.19007" lon="4.37417">
        <ele>1000.6</ele>
        <time>2026-04-24T09:02:33Z</time>
      </trkpt>
      <trkpt lat="45.19002" lon="4.37407">
        <ele>999.7</ele>
        <time>2026-04-24T09:02:38Z</time>
      </trkpt>
      <trkpt lat="45.18998" lon="4.37398">
        <ele>998.9</ele>
        <time>2026-04-24T09:02:43Z</time>
      </trkpt>
      <trkpt lat="45.18992" lon="4.37388">
        <ele>998.2</ele>
        <time>2026-04-24T09:02:48Z</time>
      </trkpt>
      <trkpt lat="45.18988" lon="4.3738">
        <ele>997.5</ele>
        <time>2026-04-24T09:02:53Z</time>
      </trkpt>
      <trkpt lat="45.18983" lon="4.37373">
        <ele>997.1</ele>
        <time>2026-04-24T09:02:58Z</time>
      </trkpt>
      <trkpt lat="45.18977" lon="4.37364">
        <ele>996.4</ele>
        <time>2026-04-24T09:03:03Z</time>
      </trkpt>
      <trkpt lat="45.18972" lon="4.37357">
        <ele>996</ele>
        <time>2026-04-24T09:03:08Z</time>
      </trkpt>
      <trkpt lat="45.18967" lon="4.37349">
        <ele>995.3</ele>
        <time>2026-04-24T09:03:13Z</time>
      </trkpt>
      <trkpt lat="45.18962" lon="4.37341">
        <ele>994.7</ele>
        <time>2026-04-24T09:03:18Z</time>
      </trkpt>
      <trkpt lat="45.18957" lon="4.37333">
        <ele>994.1</ele>
        <time>2026-04-24T09:03:23Z</time>
      </trkpt>
      <trkpt lat="45.18952" lon="4.37325">
        <ele>993.8</ele>
        <time>2026-04-24T09:03:28Z</time>
      </trkpt>
      <trkpt lat="45.18947" lon="4.37315">
        <ele>993.5</ele>
        <time>2026-04-24T09:03:33Z</time>
      </trkpt>
      <trkpt lat="45.18943" lon="4.37307">
        <ele>993.3</ele>
        <time>2026-04-24T09:03:38Z</time>
      </trkpt>
      <trkpt lat="45.1894" lon="4.37298">
        <ele>993</ele>
        <time>2026-04-24T09:03:43Z</time>
      </trkpt>
      <trkpt lat="45.18936" lon="4.37289">
        <ele>992.9</ele>
        <time>2026-04-24T09:03:48Z</time>
      </trkpt>
      <trkpt lat="45.18932" lon="4.3728">
        <ele>992.7</ele>
        <time>2026-04-24T09:03:53Z</time>
      </trkpt>
      <trkpt lat="45.18926" lon="4.37271">
        <ele>992.9</ele>
        <time>2026-04-24T09:03:58Z</time>
      </trkpt>
      <trkpt lat="45.18921" lon="4.37263">
        <ele>993.1</ele>
        <time>2026-04-24T09:04:03Z</time>
      </trkpt>
      <trkpt lat="45.18916" lon="4.37253">
        <ele>993.3</ele>
        <time>2026-04-24T09:04:08Z</time>
      </trkpt>
      <trkpt lat="45.1891" lon="4.37243">
        <ele>994.4</ele>
        <time>2026-04-24T09:04:13Z</time>
      </trkpt>
      <trkpt lat="45.18905" lon="4.37238">
        <ele>995.3</ele>
        <time>2026-04-24T09:04:18Z</time>
      </trkpt>
      <trkpt lat="45.18899" lon="4.37229">
        <ele>996.6</ele>
        <time>2026-04-24T09:04:23Z</time>
      </trkpt>
      <trkpt lat="45.18894" lon="4.37223">
        <ele>997.5</ele>
        <time>2026-04-24T09:04:28Z</time>
      </trkpt>
      <trkpt lat="45.18889" lon="4.37221">
        <ele>998.3</ele>
        <time>2026-04-24T09:04:33Z</time>
      </trkpt>
      <trkpt lat="45.18889" lon="4.37221">
        <ele>998.3</ele>
        <time>2026-04-24T09:04:38Z</time>
      </trkpt>
      <trkpt lat="45.18889" lon="4.37221">
        <ele>998.3</ele>
        <time>2026-04-24T09:04:43Z</time>
      </trkpt>
      <trkpt lat="45.18888" lon="4.3722">
        <ele>998.5</ele>
        <time>2026-04-24T09:04:48Z</time>
      </trkpt>
      <trkpt lat="45.18884" lon="4.37214">
        <ele>999.3</ele>
        <time>2026-04-24T09:04:53Z</time>
      </trkpt>
      <trkpt lat="45.18881" lon="4.37205">
        <ele>999.9</ele>
        <time>2026-04-24T09:04:58Z</time>
      </trkpt>
      <trkpt lat="45.18882" lon="4.37198">
        <ele>999.9</ele>
        <time>2026-04-24T09:05:03Z</time>
      </trkpt>
      <trkpt lat="45.18884" lon="4.3719">
        <ele>999.8</ele>
        <time>2026-04-24T09:05:08Z</time>
      </trkpt>
      <trkpt lat="45.18887" lon="4.37186">
        <ele>999.5</ele>
        <time>2026-04-24T09:05:13Z</time>
      </trkpt>
      <trkpt lat="45.18888" lon="4.37184">
        <ele>999.4</ele>
        <time>2026-04-24T09:05:18Z</time>
      </trkpt>
      <trkpt lat="45.18888" lon="4.37184">
        <ele>999.4</ele>
        <time>2026-04-24T09:05:23Z</time>
      </trkpt>
      <trkpt lat="45.18888" lon="4.37184">
        <ele>999.4</ele>
        <time>2026-04-24T09:05:28Z</time>
      </trkpt>
      <trkpt lat="45.18888" lon="4.37184">
        <ele>999.4</ele>
        <time>2026-04-24T09:05:33Z</time>
      </trkpt>
      <trkpt lat="45.18888" lon="4.37184">
        <ele>999.4</ele>
        <time>2026-04-24T09:05:38Z</time>
      </trkpt>
      <trkpt lat="45.18888" lon="4.37184">
        <ele>999.4</ele>
        <time>2026-04-24T09:05:43Z</time>
      </trkpt>
      <trkpt lat="45.18888" lon="4.37184">
        <ele>999.4</ele>
        <time>2026-04-24T09:05:48Z</time>
      </trkpt>
      <trkpt lat="45.18888" lon="4.37184">
        <ele>999.4</ele>
        <time>2026-04-24T09:05:53Z</time>
      </trkpt>
      <trkpt lat="45.18888" lon="4.37184">
        <ele>999.4</ele>
        <time>2026-04-24T09:05:58Z</time>
      </trkpt>
      <trkpt lat="45.18888" lon="4.37184">
        <ele>999.4</ele>
        <time>2026-04-24T09:06:03Z</time>
      </trkpt>
      <trkpt lat="45.18888" lon="4.37184">
        <ele>999.4</ele>
        <time>2026-04-24T09:06:08Z</time>
      </trkpt>
      <trkpt lat="45.18888" lon="4.37184">
        <ele>999.4</ele>
        <time>2026-04-24T09:06:13Z</time>
      </trkpt>
      <trkpt lat="45.18888" lon="4.37184">
        <ele>999.4</ele>
        <time>2026-04-24T09:06:18Z</time>
      </trkpt>
      <trkpt lat="45.18895" lon="4.37179">
        <ele>998.5</ele>
        <time>2026-04-24T09:06:23Z</time>
      </trkpt>
      <trkpt lat="45.18895" lon="4.37179">
        <ele>998.5</ele>
        <time>2026-04-24T09:06:28Z</time>
      </trkpt>
      <trkpt lat="45.18895" lon="4.37179">
        <ele>998.5</ele>
        <time>2026-04-24T09:06:33Z</time>
      </trkpt>
      <trkpt lat="45.18895" lon="4.37179">
        <ele>998.5</ele>
        <time>2026-04-24T09:06:38Z</time>
      </trkpt>
      <trkpt lat="45.18901" lon="4.37167">
        <ele>998.1</ele>
        <time>2026-04-24T09:06:43Z</time>
      </trkpt>
      <trkpt lat="45.18911" lon="4.37168">
        <ele>996.7</ele>
        <time>2026-04-24T09:06:48Z</time>
      </trkpt>
      <trkpt lat="45.18916" lon="4.37171">
        <ele>995.9</ele>
        <time>2026-04-24T09:06:53Z</time>
      </trkpt>
      <trkpt lat="45.1892" lon="4.37168">
        <ele>995.4</ele>
        <time>2026-04-24T09:06:58Z</time>
      </trkpt>
      <trkpt lat="45.18922" lon="4.37167">
        <ele>995.1</ele>
        <time>2026-04-24T09:07:03Z</time>
      </trkpt>
      <trkpt lat="45.18922" lon="4.37167">
        <ele>995.1</ele>
        <time>2026-04-24T09:07:08Z</time>
      </trkpt>
      <trkpt lat="45.18922" lon="4.37167">
        <ele>995.1</ele>
        <time>2026-04-24T09:07:13Z</time>
      </trkpt>
      <trkpt lat="45.18922" lon="4.37167">
        <ele>995.1</ele>
        <time>2026-04-24T09:07:18Z</time>
      </trkpt>
      <trkpt lat="45.18922" lon="4.37167">
        <ele>995.1</ele>
        <time>2026-04-24T09:07:23Z</time>
      </trkpt>
      <trkpt lat="45.18922" lon="4.37167">
        <ele>995.1</ele>
        <time>2026-04-24T09:07:28Z</time>
      </trkpt>
      <trkpt lat="45.18923" lon="4.37154">
        <ele>996.1</ele>
        <time>2026-04-24T09:07:33Z</time>
      </trkpt>
      <trkpt lat="45.18923" lon="4.37154">
        <ele>996.1</ele>
        <time>2026-04-24T09:07:38Z</time>
      </trkpt>
      <trkpt lat="45.18923" lon="4.37154">
        <ele>996.1</ele>
        <time>2026-04-24T09:07:43Z</time>
      </trkpt>
      <trkpt lat="45.18923" lon="4.37154">
        <ele>996.1</ele>
        <time>2026-04-24T09:07:48Z</time>
      </trkpt>
      <trkpt lat="45.18923" lon="4.37154">
        <ele>996.1</ele>
        <time>2026-04-24T09:07:53Z</time>
      </trkpt>
      <trkpt lat="45.18923" lon="4.37154">
        <ele>996.1</ele>
        <time>2026-04-24T09:07:58Z</time>
      </trkpt>
      <trkpt lat="45.18923" lon="4.37154">
        <ele>996.1</ele>
        <time>2026-04-24T09:08:03Z</time>
      </trkpt>
      <trkpt lat="45.18923" lon="4.37154">
        <ele>996.1</ele>
        <time>2026-04-24T09:08:08Z</time>
      </trkpt>
      <trkpt lat="45.18923" lon="4.37154">
        <ele>996.1</ele>
        <time>2026-04-24T09:08:13Z</time>
      </trkpt>
      <trkpt lat="45.18923" lon="4.37154">
        <ele>996.1</ele>
        <time>2026-04-24T09:08:18Z</time>
      </trkpt>
      <trkpt lat="45.18923" lon="4.37154">
        <ele>996.1</ele>
        <time>2026-04-24T09:08:23Z</time>
      </trkpt>
      <trkpt lat="45.18923" lon="4.37154">
        <ele>996.1</ele>
        <time>2026-04-24T09:08:28Z</time>
      </trkpt>
      <trkpt lat="45.18923" lon="4.37154">
        <ele>996.1</ele>
        <time>2026-04-24T09:08:33Z</time>
      </trkpt>
      <trkpt lat="45.18923" lon="4.37154">
        <ele>996.1</ele>
        <time>2026-04-24T09:08:38Z</time>
      </trkpt>
      <trkpt lat="45.18923" lon="4.37154">
        <ele>996.1</ele>
        <time>2026-04-24T09:08:43Z</time>
      </trkpt>
      <trkpt lat="45.18923" lon="4.37154">
        <ele>996.1</ele>
        <time>2026-04-24T09:08:48Z</time>
      </trkpt>
      <trkpt lat="45.18923" lon="4.37154">
        <ele>996.1</ele>
        <time>2026-04-24T09:08:53Z</time>
      </trkpt>
      <trkpt lat="45.18923" lon="4.37154">
        <ele>996.1</ele>
        <time>2026-04-24T09:08:58Z</time>
      </trkpt>
      <trkpt lat="45.18923" lon="4.37154">
        <ele>996.1</ele>
        <time>2026-04-24T09:09:03Z</time>
      </trkpt>
      <trkpt lat="45.18923" lon="4.37154">
        <ele>996.1</ele>
        <time>2026-04-24T09:09:08Z</time>
      </trkpt>
      <trkpt lat="45.18923" lon="4.37154">
        <ele>996.1</ele>
        <time>2026-04-24T09:09:13Z</time>
      </trkpt>
      <trkpt lat="45.18923" lon="4.37154">
        <ele>996.1</ele>
        <time>2026-04-24T09:09:18Z</time>
      </trkpt>
      <trkpt lat="45.18923" lon="4.37154">
        <ele>996.1</ele>
        <time>2026-04-24T09:09:23Z</time>
      </trkpt>
      <trkpt lat="45.18928" lon="4.37153">
        <ele>995.3</ele>
        <time>2026-04-24T09:09:28Z</time>
      </trkpt>
      <trkpt lat="45.18935" lon="4.37147">
        <ele>994.5</ele>
        <time>2026-04-24T09:09:33Z</time>
      </trkpt>
      <trkpt lat="45.18939" lon="4.37141">
        <ele>994.2</ele>
        <time>2026-04-24T09:09:38Z</time>
      </trkpt>
      <trkpt lat="45.18944" lon="4.37133">
        <ele>993.8</ele>
        <time>2026-04-24T09:09:43Z</time>
      </trkpt>
      <trkpt lat="45.18946" lon="4.37124">
        <ele>994.1</ele>
        <time>2026-04-24T09:09:48Z</time>
      </trkpt>
      <trkpt lat="45.18947" lon="4.37113">
        <ele>994.6</ele>
        <time>2026-04-24T09:09:53Z</time>
      </trkpt>
      <trkpt lat="45.18949" lon="4.37101">
        <ele>995</ele>
        <time>2026-04-24T09:09:58Z</time>
      </trkpt>
      <trkpt lat="45.18947" lon="4.37091">
        <ele>996.2</ele>
        <time>2026-04-24T09:10:03Z</time>
      </trkpt>
      <trkpt lat="45.18945" lon="4.3708">
        <ele>997.2</ele>
        <time>2026-04-24T09:10:08Z</time>
      </trkpt>
      <trkpt lat="45.18941" lon="4.37068">
        <ele>998.1</ele>
        <time>2026-04-24T09:10:13Z</time>
      </trkpt>
      <trkpt lat="45.18937" lon="4.37058">
        <ele>999</ele>
        <time>2026-04-24T09:10:18Z</time>
      </trkpt>
      <trkpt lat="45.18937" lon="4.37048">
        <ele>999</ele>
        <time>2026-04-24T09:10:23Z</time>
      </trkpt>
      <trkpt lat="45.18937" lon="4.37038">
        <ele>999</ele>
        <time>2026-04-24T09:10:28Z</time>
      </trkpt>
      <trkpt lat="45.18942" lon="4.37027">
        <ele>997.7</ele>
        <time>2026-04-24T09:10:33Z</time>
      </trkpt>
      <trkpt lat="45.18948" lon="4.37019">
        <ele>996.2</ele>
        <time>2026-04-24T09:10:38Z</time>
      </trkpt>
      <trkpt lat="45.18956" lon="4.37016">
        <ele>994.2</ele>
        <time>2026-04-24T09:10:43Z</time>
      </trkpt>
      <trkpt lat="45.18963" lon="4.37016">
        <ele>992.4</ele>
        <time>2026-04-24T09:10:48Z</time>
      </trkpt>
      <trkpt lat="45.1897" lon="4.37014">
        <ele>990.7</ele>
        <time>2026-04-24T09:10:53Z</time>
      </trkpt>
      <trkpt lat="45.18979" lon="4.37016">
        <ele>988.4</ele>
        <time>2026-04-24T09:10:58Z</time>
      </trkpt>
      <trkpt lat="45.18985" lon="4.37017">
        <ele>986.9</ele>
        <time>2026-04-24T09:11:03Z</time>
      </trkpt>
      <trkpt lat="45.18992" lon="4.37018">
        <ele>985.2</ele>
        <time>2026-04-24T09:11:08Z</time>
      </trkpt>
      <trkpt lat="45.19" lon="4.37019">
        <ele>983.2</ele>
        <time>2026-04-24T09:11:13Z</time>
      </trkpt>
      <trkpt lat="45.19007" lon="4.37017">
        <ele>982.9</ele>
        <time>2026-04-24T09:11:18Z</time>
      </trkpt>
      <trkpt lat="45.19014" lon="4.37013">
        <ele>982.6</ele>
        <time>2026-04-24T09:11:23Z</time>
      </trkpt>
      <trkpt lat="45.19018" lon="4.37006">
        <ele>982.5</ele>
        <time>2026-04-24T09:11:28Z</time>
      </trkpt>
      <trkpt lat="45.19022" lon="4.36999">
        <ele>982.5</ele>
        <time>2026-04-24T09:11:33Z</time>
      </trkpt>
      <trkpt lat="45.19025" lon="4.36991">
        <ele>982.9</ele>
        <time>2026-04-24T09:11:38Z</time>
      </trkpt>
      <trkpt lat="45.1903" lon="4.36985">
        <ele>983.1</ele>
        <time>2026-04-24T09:11:43Z</time>
      </trkpt>
      <trkpt lat="45.19032" lon="4.36976">
        <ele>983.5</ele>
        <time>2026-04-24T09:11:48Z</time>
      </trkpt>
      <trkpt lat="45.19038" lon="4.3697">
        <ele>983.7</ele>
        <time>2026-04-24T09:11:53Z</time>
      </trkpt>
      <trkpt lat="45.19042" lon="4.36962">
        <ele>984</ele>
        <time>2026-04-24T09:11:58Z</time>
      </trkpt>
      <trkpt lat="45.19047" lon="4.36957">
        <ele>984.2</ele>
        <time>2026-04-24T09:12:03Z</time>
      </trkpt>
      <trkpt lat="45.19052" lon="4.36951">
        <ele>984.5</ele>
        <time>2026-04-24T09:12:08Z</time>
      </trkpt>
      <trkpt lat="45.19057" lon="4.36946">
        <ele>984.7</ele>
        <time>2026-04-24T09:12:13Z</time>
      </trkpt>
      <trkpt lat="45.19062" lon="4.36945">
        <ele>984.6</ele>
        <time>2026-04-24T09:12:18Z</time>
      </trkpt>
      <trkpt lat="45.19068" lon="4.36945">
        <ele>984.5</ele>
        <time>2026-04-24T09:12:23Z</time>
      </trkpt>
      <trkpt lat="45.19075" lon="4.36948">
        <ele>984.3</ele>
        <time>2026-04-24T09:12:28Z</time>
      </trkpt>
      <trkpt lat="45.1908" lon="4.36957">
        <ele>983.6</ele>
        <time>2026-04-24T09:12:33Z</time>
      </trkpt>
      <trkpt lat="45.19086" lon="4.36963">
        <ele>983.4</ele>
        <time>2026-04-24T09:12:38Z</time>
      </trkpt>
      <trkpt lat="45.19091" lon="4.36971">
        <ele>983.2</ele>
        <time>2026-04-24T09:12:43Z</time>
      </trkpt>
      <trkpt lat="45.19096" lon="4.36977">
        <ele>983.1</ele>
        <time>2026-04-24T09:12:48Z</time>
      </trkpt>
      <trkpt lat="45.191" lon="4.36985">
        <ele>982.8</ele>
        <time>2026-04-24T09:12:53Z</time>
      </trkpt>
      <trkpt lat="45.19105" lon="4.36993">
        <ele>982.5</ele>
        <time>2026-04-24T09:12:58Z</time>
      </trkpt>
      <trkpt lat="45.19109" lon="4.37">
        <ele>982.2</ele>
        <time>2026-04-24T09:13:03Z</time>
      </trkpt>
      <trkpt lat="45.19115" lon="4.37005">
        <ele>982.1</ele>
        <time>2026-04-24T09:13:08Z</time>
      </trkpt>
      <trkpt lat="45.19119" lon="4.37012">
        <ele>981.8</ele>
        <time>2026-04-24T09:13:13Z</time>
      </trkpt>
      <trkpt lat="45.19123" lon="4.37019">
        <ele>981.4</ele>
        <time>2026-04-24T09:13:18Z</time>
      </trkpt>
      <trkpt lat="45.19128" lon="4.37023">
        <ele>981.3</ele>
        <time>2026-04-24T09:13:23Z</time>
      </trkpt>
      <trkpt lat="45.19133" lon="4.37019">
        <ele>981.9</ele>
        <time>2026-04-24T09:13:28Z</time>
      </trkpt>
      <trkpt lat="45.19137" lon="4.37012">
        <ele>982.6</ele>
        <time>2026-04-24T09:13:33Z</time>
      </trkpt>
      <trkpt lat="45.19139" lon="4.37006">
        <ele>983.2</ele>
        <time>2026-04-24T09:13:38Z</time>
      </trkpt>
      <trkpt lat="45.19143" lon="4.36997">
        <ele>984.1</ele>
        <time>2026-04-24T09:13:43Z</time>
      </trkpt>
      <trkpt lat="45.19145" lon="4.36988">
        <ele>984.9</ele>
        <time>2026-04-24T09:13:48Z</time>
      </trkpt>
      <trkpt lat="45.19147" lon="4.3698">
        <ele>985.6</ele>
        <time>2026-04-24T09:13:53Z</time>
      </trkpt>
      <trkpt lat="45.1915" lon="4.36972">
        <ele>986.4</ele>
        <time>2026-04-24T09:13:58Z</time>
      </trkpt>
      <trkpt lat="45.19153" lon="4.36964">
        <ele>987.2</ele>
        <time>2026-04-24T09:14:03Z</time>
      </trkpt>
      <trkpt lat="45.19155" lon="4.36956">
        <ele>988</ele>
        <time>2026-04-24T09:14:08Z</time>
      </trkpt>
      <trkpt lat="45.19159" lon="4.3695">
        <ele>988.7</ele>
        <time>2026-04-24T09:14:13Z</time>
      </trkpt>
      <trkpt lat="45.19163" lon="4.36942">
        <ele>989.6</ele>
        <time>2026-04-24T09:14:18Z</time>
      </trkpt>
      <trkpt lat="45.19167" lon="4.36935">
        <ele>990.5</ele>
        <time>2026-04-24T09:14:23Z</time>
      </trkpt>
      <trkpt lat="45.19173" lon="4.36931">
        <ele>991.2</ele>
        <time>2026-04-24T09:14:28Z</time>
      </trkpt>
      <trkpt lat="45.19177" lon="4.36927">
        <ele>991.8</ele>
        <time>2026-04-24T09:14:33Z</time>
      </trkpt>
      <trkpt lat="45.19181" lon="4.36923">
        <ele>992.4</ele>
        <time>2026-04-24T09:14:38Z</time>
      </trkpt>
      <trkpt lat="45.19183" lon="4.36919">
        <ele>992.8</ele>
        <time>2026-04-24T09:14:43Z</time>
      </trkpt>
      <trkpt lat="45.19186" lon="4.36915">
        <ele>993.5</ele>
        <time>2026-04-24T09:14:48Z</time>
      </trkpt>
      <trkpt lat="45.19191" lon="4.36912">
        <ele>994.3</ele>
        <time>2026-04-24T09:14:53Z</time>
      </trkpt>
      <trkpt lat="45.19195" lon="4.3691">
        <ele>994.9</ele>
        <time>2026-04-24T09:14:58Z</time>
      </trkpt>
      <trkpt lat="45.19198" lon="4.36906">
        <ele>995.7</ele>
        <time>2026-04-24T09:15:03Z</time>
      </trkpt>
      <trkpt lat="45.19203" lon="4.36904">
        <ele>996.3</ele>
        <time>2026-04-24T09:15:08Z</time>
      </trkpt>
      <trkpt lat="45.19207" lon="4.36903">
        <ele>996.7</ele>
        <time>2026-04-24T09:15:13Z</time>
      </trkpt>
      <trkpt lat="45.19213" lon="4.36901">
        <ele>997.4</ele>
        <time>2026-04-24T09:15:18Z</time>
      </trkpt>
      <trkpt lat="45.19218" lon="4.36898">
        <ele>998.1</ele>
        <time>2026-04-24T09:15:23Z</time>
      </trkpt>
      <trkpt lat="45.1922" lon="4.36898">
        <ele>998.2</ele>
        <time>2026-04-24T09:15:28Z</time>
      </trkpt>
      <trkpt lat="45.1922" lon="4.36898">
        <ele>998.2</ele>
        <time>2026-04-24T09:15:33Z</time>
      </trkpt>
      <trkpt lat="45.1922" lon="4.36898">
        <ele>998.2</ele>
        <time>2026-04-24T09:15:38Z</time>
      </trkpt>
      <trkpt lat="45.19224" lon="4.36894">
        <ele>999</ele>
        <time>2026-04-24T09:15:43Z</time>
      </trkpt>
      <trkpt lat="45.19225" lon="4.36894">
        <ele>999.1</ele>
        <time>2026-04-24T09:15:48Z</time>
      </trkpt>
      <trkpt lat="45.19225" lon="4.36894">
        <ele>999.1</ele>
        <time>2026-04-24T09:15:53Z</time>
      </trkpt>
      <trkpt lat="45.19225" lon="4.36894">
        <ele>999.1</ele>
        <time>2026-04-24T09:15:58Z</time>
      </trkpt>
      <trkpt lat="45.19229" lon="4.36888">
        <ele>1000.2</ele>
        <time>2026-04-24T09:16:03Z</time>
      </trkpt>
      <trkpt lat="45.19236" lon="4.36884">
        <ele>1001.1</ele>
        <time>2026-04-24T09:16:08Z</time>
      </trkpt>
      <trkpt lat="45.19244" lon="4.36879">
        <ele>1002.2</ele>
        <time>2026-04-24T09:16:13Z</time>
      </trkpt>
      <trkpt lat="45.19252" lon="4.36874">
        <ele>1003.1</ele>
        <time>2026-04-24T09:16:18Z</time>
      </trkpt>
      <trkpt lat="45.1926" lon="4.36869">
        <ele>1003.6</ele>
        <time>2026-04-24T09:16:23Z</time>
      </trkpt>
      <trkpt lat="45.19266" lon="4.36865">
        <ele>1003.9</ele>
        <time>2026-04-24T09:16:28Z</time>
      </trkpt>
      <trkpt lat="45.1927" lon="4.36863">
        <ele>1004.1</ele>
        <time>2026-04-24T09:16:33Z</time>
      </trkpt>
      <trkpt lat="45.1927" lon="4.36863">
        <ele>1004.1</ele>
        <time>2026-04-24T09:16:38Z</time>
      </trkpt>
      <trkpt lat="45.1927" lon="4.36862">
        <ele>1004.2</ele>
        <time>2026-04-24T09:16:43Z</time>
      </trkpt>
      <trkpt lat="45.1927" lon="4.36862">
        <ele>1004.2</ele>
        <time>2026-04-24T09:16:48Z</time>
      </trkpt>
      <trkpt lat="45.1927" lon="4.36862">
        <ele>1004.2</ele>
        <time>2026-04-24T09:16:53Z</time>
      </trkpt>
      <trkpt lat="45.19271" lon="4.3686">
        <ele>1004.4</ele>
        <time>2026-04-24T09:16:58Z</time>
      </trkpt>
      <trkpt lat="45.19275" lon="4.36857">
        <ele>1004.6</ele>
        <time>2026-04-24T09:17:03Z</time>
      </trkpt>
      <trkpt lat="45.19283" lon="4.36853">
        <ele>1004.6</ele>
        <time>2026-04-24T09:17:08Z</time>
      </trkpt>
      <trkpt lat="45.1929" lon="4.3685">
        <ele>1004.6</ele>
        <time>2026-04-24T09:17:13Z</time>
      </trkpt>
      <trkpt lat="45.19295" lon="4.36848">
        <ele>1004.5</ele>
        <time>2026-04-24T09:17:18Z</time>
      </trkpt>
      <trkpt lat="45.19302" lon="4.36844">
        <ele>1004.4</ele>
        <time>2026-04-24T09:17:23Z</time>
      </trkpt>
      <trkpt lat="45.19308" lon="4.3684">
        <ele>1004.4</ele>
        <time>2026-04-24T09:17:28Z</time>
      </trkpt>
      <trkpt lat="45.19314" lon="4.36836">
        <ele>1004.2</ele>
        <time>2026-04-24T09:17:33Z</time>
      </trkpt>
      <trkpt lat="45.19318" lon="4.36833">
        <ele>1004.1</ele>
        <time>2026-04-24T09:17:38Z</time>
      </trkpt>
      <trkpt lat="45.19325" lon="4.3683">
        <ele>1004</ele>
        <time>2026-04-24T09:17:43Z</time>
      </trkpt>
      <trkpt lat="45.19332" lon="4.36825">
        <ele>1004</ele>
        <time>2026-04-24T09:17:48Z</time>
      </trkpt>
      <trkpt lat="45.1934" lon="4.3682">
        <ele>1003.6</ele>
        <time>2026-04-24T09:17:53Z</time>
      </trkpt>
      <trkpt lat="45.19347" lon="4.36815">
        <ele>1003.2</ele>
        <time>2026-04-24T09:17:58Z</time>
      </trkpt>
      <trkpt lat="45.19355" lon="4.36809">
        <ele>1002.9</ele>
        <time>2026-04-24T09:18:03Z</time>
      </trkpt>
      <trkpt lat="45.19362" lon="4.36806">
        <ele>1002.4</ele>
        <time>2026-04-24T09:18:08Z</time>
      </trkpt>
      <trkpt lat="45.19368" lon="4.36802">
        <ele>1002.1</ele>
        <time>2026-04-24T09:18:13Z</time>
      </trkpt>
      <trkpt lat="45.19375" lon="4.36798">
        <ele>1001.7</ele>
        <time>2026-04-24T09:18:18Z</time>
      </trkpt>
      <trkpt lat="45.19381" lon="4.36794">
        <ele>1001.5</ele>
        <time>2026-04-24T09:18:23Z</time>
      </trkpt>
      <trkpt lat="45.19388" lon="4.36791">
        <ele>1001</ele>
        <time>2026-04-24T09:18:28Z</time>
      </trkpt>
      <trkpt lat="45.19396" lon="4.36787">
        <ele>1000.6</ele>
        <time>2026-04-24T09:18:33Z</time>
      </trkpt>
      <trkpt lat="45.19402" lon="4.36783">
        <ele>1000.4</ele>
        <time>2026-04-24T09:18:38Z</time>
      </trkpt>
      <trkpt lat="45.1941" lon="4.36777">
        <ele>1000.2</ele>
        <time>2026-04-24T09:18:43Z</time>
      </trkpt>
      <trkpt lat="45.19418" lon="4.36772">
        <ele>1000</ele>
        <time>2026-04-24T09:18:48Z</time>
      </trkpt>
      <trkpt lat="45.19424" lon="4.36768">
        <ele>1000.3</ele>
        <time>2026-04-24T09:18:53Z</time>
      </trkpt>
      <trkpt lat="45.19428" lon="4.36763">
        <ele>1000.9</ele>
        <time>2026-04-24T09:18:58Z</time>
      </trkpt>
      <trkpt lat="45.1943" lon="4.36761">
        <ele>1001.1</ele>
        <time>2026-04-24T09:19:03Z</time>
      </trkpt>
      <trkpt lat="45.1943" lon="4.36761">
        <ele>1001.1</ele>
        <time>2026-04-24T09:19:08Z</time>
      </trkpt>
      <trkpt lat="45.19434" lon="4.3676">
        <ele>1001.1</ele>
        <time>2026-04-24T09:19:13Z</time>
      </trkpt>
      <trkpt lat="45.19434" lon="4.3676">
        <ele>1001.1</ele>
        <time>2026-04-24T09:19:18Z</time>
      </trkpt>
      <trkpt lat="45.19441" lon="4.36756">
        <ele>1001.5</ele>
        <time>2026-04-24T09:19:23Z</time>
      </trkpt>
      <trkpt lat="45.19447" lon="4.36753">
        <ele>1001.8</ele>
        <time>2026-04-24T09:19:28Z</time>
      </trkpt>
      <trkpt lat="45.19456" lon="4.36753">
        <ele>1001.5</ele>
        <time>2026-04-24T09:19:33Z</time>
      </trkpt>
      <trkpt lat="45.19463" lon="4.36749">
        <ele>1002</ele>
        <time>2026-04-24T09:19:38Z</time>
      </trkpt>
      <trkpt lat="45.19469" lon="4.36743">
        <ele>1002.4</ele>
        <time>2026-04-24T09:19:43Z</time>
      </trkpt>
      <trkpt lat="45.19475" lon="4.36736">
        <ele>1002.8</ele>
        <time>2026-04-24T09:19:48Z</time>
      </trkpt>
      <trkpt lat="45.19483" lon="4.36731">
        <ele>1003</ele>
        <time>2026-04-24T09:19:53Z</time>
      </trkpt>
      <trkpt lat="45.19488" lon="4.36725">
        <ele>1003.3</ele>
        <time>2026-04-24T09:19:58Z</time>
      </trkpt>
      <trkpt lat="45.19496" lon="4.36719">
        <ele>1003.4</ele>
        <time>2026-04-24T09:20:03Z</time>
      </trkpt>
      <trkpt lat="45.19499" lon="4.36715">
        <ele>1003.6</ele>
        <time>2026-04-24T09:20:08Z</time>
      </trkpt>
      <trkpt lat="45.19499" lon="4.36715">
        <ele>1003.6</ele>
        <time>2026-04-24T09:20:13Z</time>
      </trkpt>
      <trkpt lat="45.19499" lon="4.36715">
        <ele>1003.6</ele>
        <time>2026-04-24T09:20:18Z</time>
      </trkpt>
      <trkpt lat="45.19499" lon="4.36715">
        <ele>1003.6</ele>
        <time>2026-04-24T09:20:23Z</time>
      </trkpt>
      <trkpt lat="45.19499" lon="4.36715">
        <ele>1003.6</ele>
        <time>2026-04-24T09:20:28Z</time>
      </trkpt>
      <trkpt lat="45.19499" lon="4.36715">
        <ele>1003.6</ele>
        <time>2026-04-24T09:20:33Z</time>
      </trkpt>
      <trkpt lat="45.19499" lon="4.36709">
        <ele>1004</ele>
        <time>2026-04-24T09:20:38Z</time>
      </trkpt>
      <trkpt lat="45.19502" lon="4.36708">
        <ele>1004</ele>
        <time>2026-04-24T09:20:43Z</time>
      </trkpt>
      <trkpt lat="45.19508" lon="4.36705">
        <ele>1004.1</ele>
        <time>2026-04-24T09:20:48Z</time>
      </trkpt>
      <trkpt lat="45.19517" lon="4.36699">
        <ele>1004.3</ele>
        <time>2026-04-24T09:20:53Z</time>
      </trkpt>
      <trkpt lat="45.19525" lon="4.36694">
        <ele>1004.5</ele>
        <time>2026-04-24T09:20:58Z</time>
      </trkpt>
      <trkpt lat="45.19532" lon="4.36688">
        <ele>1004.9</ele>
        <time>2026-04-24T09:21:03Z</time>
      </trkpt>
      <trkpt lat="45.19537" lon="4.36682">
        <ele>1005.3</ele>
        <time>2026-04-24T09:21:08Z</time>
      </trkpt>
      <trkpt lat="45.19541" lon="4.36677">
        <ele>1005.6</ele>
        <time>2026-04-24T09:21:13Z</time>
      </trkpt>
      <trkpt lat="45.19546" lon="4.3667">
        <ele>1006.2</ele>
        <time>2026-04-24T09:21:18Z</time>
      </trkpt>
      <trkpt lat="45.19554" lon="4.36665">
        <ele>1006.4</ele>
        <time>2026-04-24T09:21:23Z</time>
      </trkpt>
      <trkpt lat="45.1956" lon="4.3666">
        <ele>1006.3</ele>
        <time>2026-04-24T09:21:28Z</time>
      </trkpt>
      <trkpt lat="45.19563" lon="4.36657">
        <ele>1006.3</ele>
        <time>2026-04-24T09:21:33Z</time>
      </trkpt>
      <trkpt lat="45.1957" lon="4.36654">
        <ele>1006.2</ele>
        <time>2026-04-24T09:21:38Z</time>
      </trkpt>
      <trkpt lat="45.19576" lon="4.3665">
        <ele>1006.1</ele>
        <time>2026-04-24T09:21:43Z</time>
      </trkpt>
      <trkpt lat="45.1958" lon="4.36647">
        <ele>1006</ele>
        <time>2026-04-24T09:21:48Z</time>
      </trkpt>
      <trkpt lat="45.19585" lon="4.36646">
        <ele>1006</ele>
        <time>2026-04-24T09:21:53Z</time>
      </trkpt>
      <trkpt lat="45.19591" lon="4.36643">
        <ele>1005.8</ele>
        <time>2026-04-24T09:21:58Z</time>
      </trkpt>
      <trkpt lat="45.19596" lon="4.36641">
        <ele>1005.6</ele>
        <time>2026-04-24T09:22:03Z</time>
      </trkpt>
      <trkpt lat="45.19604" lon="4.36639">
        <ele>1005.3</ele>
        <time>2026-04-24T09:22:08Z</time>
      </trkpt>
      <trkpt lat="45.19613" lon="4.36635">
        <ele>1005</ele>
        <time>2026-04-24T09:22:13Z</time>
      </trkpt>
      <trkpt lat="45.19622" lon="4.36631">
        <ele>1004.5</ele>
        <time>2026-04-24T09:22:18Z</time>
      </trkpt>
      <trkpt lat="45.19628" lon="4.36628">
        <ele>1004.2</ele>
        <time>2026-04-24T09:22:23Z</time>
      </trkpt>
      <trkpt lat="45.19635" lon="4.36627">
        <ele>1003.9</ele>
        <time>2026-04-24T09:22:28Z</time>
      </trkpt>
      <trkpt lat="45.19642" lon="4.36624">
        <ele>1003.5</ele>
        <time>2026-04-24T09:22:33Z</time>
      </trkpt>
      <trkpt lat="45.19648" lon="4.36622">
        <ele>1003.1</ele>
        <time>2026-04-24T09:22:38Z</time>
      </trkpt>
      <trkpt lat="45.19655" lon="4.36619">
        <ele>1002.7</ele>
        <time>2026-04-24T09:22:43Z</time>
      </trkpt>
      <trkpt lat="45.19662" lon="4.36617">
        <ele>1002.2</ele>
        <time>2026-04-24T09:22:48Z</time>
      </trkpt>
      <trkpt lat="45.19669" lon="4.36613">
        <ele>1001.6</ele>
        <time>2026-04-24T09:22:53Z</time>
      </trkpt>
      <trkpt lat="45.19675" lon="4.36608">
        <ele>1000.8</ele>
        <time>2026-04-24T09:22:58Z</time>
      </trkpt>
      <trkpt lat="45.19683" lon="4.36604">
        <ele>999.9</ele>
        <time>2026-04-24T09:23:03Z</time>
      </trkpt>
      <trkpt lat="45.19691" lon="4.36599">
        <ele>998.8</ele>
        <time>2026-04-24T09:23:08Z</time>
      </trkpt>
      <trkpt lat="45.19698" lon="4.3659">
        <ele>997.5</ele>
        <time>2026-04-24T09:23:13Z</time>
      </trkpt>
      <trkpt lat="45.19706" lon="4.36584">
        <ele>996.3</ele>
        <time>2026-04-24T09:23:18Z</time>
      </trkpt>
      <trkpt lat="45.19712" lon="4.36579">
        <ele>995.3</ele>
        <time>2026-04-24T09:23:23Z</time>
      </trkpt>
      <trkpt lat="45.19717" lon="4.36573">
        <ele>994.3</ele>
        <time>2026-04-24T09:23:28Z</time>
      </trkpt>
      <trkpt lat="45.19722" lon="4.36567">
        <ele>993.3</ele>
        <time>2026-04-24T09:23:33Z</time>
      </trkpt>
      <trkpt lat="45.19728" lon="4.36563">
        <ele>992.3</ele>
        <time>2026-04-24T09:23:38Z</time>
      </trkpt>
      <trkpt lat="45.19734" lon="4.36558">
        <ele>991.2</ele>
        <time>2026-04-24T09:23:43Z</time>
      </trkpt>
      <trkpt lat="45.1974" lon="4.36553">
        <ele>990.1</ele>
        <time>2026-04-24T09:23:48Z</time>
      </trkpt>
      <trkpt lat="45.19747" lon="4.36549">
        <ele>989</ele>
        <time>2026-04-24T09:23:53Z</time>
      </trkpt>
      <trkpt lat="45.19755" lon="4.36546">
        <ele>988.1</ele>
        <time>2026-04-24T09:23:58Z</time>
      </trkpt>
      <trkpt lat="45.19763" lon="4.36541">
        <ele>987.2</ele>
        <time>2026-04-24T09:24:03Z</time>
      </trkpt>
      <trkpt lat="45.19771" lon="4.36536">
        <ele>986.2</ele>
        <time>2026-04-24T09:24:08Z</time>
      </trkpt>
      <trkpt lat="45.19778" lon="4.3653">
        <ele>985.1</ele>
        <time>2026-04-24T09:24:13Z</time>
      </trkpt>
      <trkpt lat="45.19784" lon="4.36521">
        <ele>983.8</ele>
        <time>2026-04-24T09:24:18Z</time>
      </trkpt>
      <trkpt lat="45.1979" lon="4.36515">
        <ele>982.7</ele>
        <time>2026-04-24T09:24:23Z</time>
      </trkpt>
      <trkpt lat="45.19795" lon="4.36511">
        <ele>982</ele>
        <time>2026-04-24T09:24:28Z</time>
      </trkpt>
      <trkpt lat="45.198" lon="4.36506">
        <ele>981.1</ele>
        <time>2026-04-24T09:24:33Z</time>
      </trkpt>
      <trkpt lat="45.19805" lon="4.365">
        <ele>980</ele>
        <time>2026-04-24T09:24:38Z</time>
      </trkpt>
      <trkpt lat="45.19812" lon="4.36494">
        <ele>978.9</ele>
        <time>2026-04-24T09:24:43Z</time>
      </trkpt>
      <trkpt lat="45.19817" lon="4.36488">
        <ele>977.8</ele>
        <time>2026-04-24T09:24:48Z</time>
      </trkpt>
      <trkpt lat="45.19822" lon="4.36482">
        <ele>976.7</ele>
        <time>2026-04-24T09:24:53Z</time>
      </trkpt>
      <trkpt lat="45.19827" lon="4.36474">
        <ele>975.4</ele>
        <time>2026-04-24T09:24:58Z</time>
      </trkpt>
      <trkpt lat="45.19831" lon="4.36467">
        <ele>974.2</ele>
        <time>2026-04-24T09:25:03Z</time>
      </trkpt>
      <trkpt lat="45.19835" lon="4.36459">
        <ele>973</ele>
        <time>2026-04-24T09:25:08Z</time>
      </trkpt>
      <trkpt lat="45.19839" lon="4.36452">
        <ele>972</ele>
        <time>2026-04-24T09:25:13Z</time>
      </trkpt>
      <trkpt lat="45.19844" lon="4.36447">
        <ele>971.2</ele>
        <time>2026-04-24T09:25:18Z</time>
      </trkpt>
      <trkpt lat="45.19849" lon="4.36442">
        <ele>970.5</ele>
        <time>2026-04-24T09:25:23Z</time>
      </trkpt>
      <trkpt lat="45.19854" lon="4.36437">
        <ele>969.8</ele>
        <time>2026-04-24T09:25:28Z</time>
      </trkpt>
      <trkpt lat="45.1986" lon="4.3643">
        <ele>968.8</ele>
        <time>2026-04-24T09:25:33Z</time>
      </trkpt>
      <trkpt lat="45.19867" lon="4.36425">
        <ele>968.1</ele>
        <time>2026-04-24T09:25:38Z</time>
      </trkpt>
      <trkpt lat="45.19873" lon="4.3642">
        <ele>967.4</ele>
        <time>2026-04-24T09:25:43Z</time>
      </trkpt>
      <trkpt lat="45.19878" lon="4.36413">
        <ele>966.6</ele>
        <time>2026-04-24T09:25:48Z</time>
      </trkpt>
      <trkpt lat="45.19883" lon="4.36408">
        <ele>966.1</ele>
        <time>2026-04-24T09:25:53Z</time>
      </trkpt>
      <trkpt lat="45.19888" lon="4.36402">
        <ele>965.4</ele>
        <time>2026-04-24T09:25:58Z</time>
      </trkpt>
      <trkpt lat="45.19893" lon="4.36397">
        <ele>964.8</ele>
        <time>2026-04-24T09:26:03Z</time>
      </trkpt>
      <trkpt lat="45.19898" lon="4.3639">
        <ele>964</ele>
        <time>2026-04-24T09:26:08Z</time>
      </trkpt>
      <trkpt lat="45.19904" lon="4.36385">
        <ele>963.4</ele>
        <time>2026-04-24T09:26:13Z</time>
      </trkpt>
      <trkpt lat="45.19909" lon="4.36379">
        <ele>962.7</ele>
        <time>2026-04-24T09:26:18Z</time>
      </trkpt>
      <trkpt lat="45.19915" lon="4.36375">
        <ele>962.1</ele>
        <time>2026-04-24T09:26:23Z</time>
      </trkpt>
      <trkpt lat="45.1992" lon="4.36368">
        <ele>961.1</ele>
        <time>2026-04-24T09:26:28Z</time>
      </trkpt>
      <trkpt lat="45.19924" lon="4.36361">
        <ele>960.2</ele>
        <time>2026-04-24T09:26:33Z</time>
      </trkpt>
      <trkpt lat="45.19928" lon="4.36351">
        <ele>959</ele>
        <time>2026-04-24T09:26:38Z</time>
      </trkpt>
      <trkpt lat="45.19931" lon="4.36342">
        <ele>958</ele>
        <time>2026-04-24T09:26:43Z</time>
      </trkpt>
      <trkpt lat="45.19935" lon="4.36335">
        <ele>957.1</ele>
        <time>2026-04-24T09:26:48Z</time>
      </trkpt>
      <trkpt lat="45.19939" lon="4.36327">
        <ele>956.7</ele>
        <time>2026-04-24T09:26:53Z</time>
      </trkpt>
      <trkpt lat="45.19945" lon="4.3632">
        <ele>956.3</ele>
        <time>2026-04-24T09:26:58Z</time>
      </trkpt>
      <trkpt lat="45.1995" lon="4.36314">
        <ele>956</ele>
        <time>2026-04-24T09:27:03Z</time>
      </trkpt>
      <trkpt lat="45.19955" lon="4.36309">
        <ele>955.6</ele>
        <time>2026-04-24T09:27:08Z</time>
      </trkpt>
      <trkpt lat="45.19962" lon="4.36303">
        <ele>955</ele>
        <time>2026-04-24T09:27:13Z</time>
      </trkpt>
      <trkpt lat="45.19967" lon="4.36298">
        <ele>954.6</ele>
        <time>2026-04-24T09:27:18Z</time>
      </trkpt>
      <trkpt lat="45.19973" lon="4.36293">
        <ele>954.1</ele>
        <time>2026-04-24T09:27:23Z</time>
      </trkpt>
      <trkpt lat="45.19977" lon="4.36289">
        <ele>953.8</ele>
        <time>2026-04-24T09:27:28Z</time>
      </trkpt>
      <trkpt lat="45.19977" lon="4.36286">
        <ele>953.7</ele>
        <time>2026-04-24T09:27:33Z</time>
      </trkpt>
      <trkpt lat="45.19977" lon="4.36286">
        <ele>953.7</ele>
        <time>2026-04-24T09:27:38Z</time>
      </trkpt>
      <trkpt lat="45.19978" lon="4.36284">
        <ele>953.6</ele>
        <time>2026-04-24T09:27:43Z</time>
      </trkpt>
      <trkpt lat="45.19982" lon="4.36281">
        <ele>953.2</ele>
        <time>2026-04-24T09:27:48Z</time>
      </trkpt>
      <trkpt lat="45.19986" lon="4.36276">
        <ele>952.8</ele>
        <time>2026-04-24T09:27:53Z</time>
      </trkpt>
      <trkpt lat="45.19991" lon="4.3627">
        <ele>952.3</ele>
        <time>2026-04-24T09:27:58Z</time>
      </trkpt>
      <trkpt lat="45.2" lon="4.36262">
        <ele>951.3</ele>
        <time>2026-04-24T09:28:03Z</time>
      </trkpt>
      <trkpt lat="45.20005" lon="4.36258">
        <ele>950.3</ele>
        <time>2026-04-24T09:28:08Z</time>
      </trkpt>
      <trkpt lat="45.20009" lon="4.36255">
        <ele>949.4</ele>
        <time>2026-04-24T09:28:13Z</time>
      </trkpt>
      <trkpt lat="45.20015" lon="4.36252">
        <ele>948.2</ele>
        <time>2026-04-24T09:28:18Z</time>
      </trkpt>
      <trkpt lat="45.2002" lon="4.36249">
        <ele>947.1</ele>
        <time>2026-04-24T09:28:23Z</time>
      </trkpt>
      <trkpt lat="45.20026" lon="4.36245">
        <ele>945.8</ele>
        <time>2026-04-24T09:28:28Z</time>
      </trkpt>
      <trkpt lat="45.20033" lon="4.36239">
        <ele>944.2</ele>
        <time>2026-04-24T09:28:33Z</time>
      </trkpt>
      <trkpt lat="45.2004" lon="4.36233">
        <ele>942.5</ele>
        <time>2026-04-24T09:28:38Z</time>
      </trkpt>
      <trkpt lat="45.20045" lon="4.36227">
        <ele>941.2</ele>
        <time>2026-04-24T09:28:43Z</time>
      </trkpt>
      <trkpt lat="45.20051" lon="4.36221">
        <ele>939.6</ele>
        <time>2026-04-24T09:28:48Z</time>
      </trkpt>
      <trkpt lat="45.20058" lon="4.36214">
        <ele>937.6</ele>
        <time>2026-04-24T09:28:53Z</time>
      </trkpt>
      <trkpt lat="45.20063" lon="4.36208">
        <ele>936.1</ele>
        <time>2026-04-24T09:28:58Z</time>
      </trkpt>
      <trkpt lat="45.20068" lon="4.36203">
        <ele>934.6</ele>
        <time>2026-04-24T09:29:03Z</time>
      </trkpt>
      <trkpt lat="45.20075" lon="4.36196">
        <ele>932.5</ele>
        <time>2026-04-24T09:29:08Z</time>
      </trkpt>
      <trkpt lat="45.20082" lon="4.3619">
        <ele>930.3</ele>
        <time>2026-04-24T09:29:13Z</time>
      </trkpt>
      <trkpt lat="45.20089" lon="4.36182">
        <ele>929.1</ele>
        <time>2026-04-24T09:29:18Z</time>
      </trkpt>
      <trkpt lat="45.20096" lon="4.36173">
        <ele>928.1</ele>
        <time>2026-04-24T09:29:23Z</time>
      </trkpt>
      <trkpt lat="45.201" lon="4.36165">
        <ele>927.4</ele>
        <time>2026-04-24T09:29:28Z</time>
      </trkpt>
      <trkpt lat="45.20104" lon="4.36158">
        <ele>927.2</ele>
        <time>2026-04-24T09:29:33Z</time>
      </trkpt>
      <trkpt lat="45.20108" lon="4.36149">
        <ele>926.9</ele>
        <time>2026-04-24T09:29:38Z</time>
      </trkpt>
      <trkpt lat="45.20111" lon="4.36142">
        <ele>926.6</ele>
        <time>2026-04-24T09:29:43Z</time>
      </trkpt>
      <trkpt lat="45.20114" lon="4.36134">
        <ele>926.3</ele>
        <time>2026-04-24T09:29:48Z</time>
      </trkpt>
      <trkpt lat="45.20117" lon="4.36124">
        <ele>925.9</ele>
        <time>2026-04-24T09:29:53Z</time>
      </trkpt>
      <trkpt lat="45.20118" lon="4.36115">
        <ele>925.6</ele>
        <time>2026-04-24T09:29:58Z</time>
      </trkpt>
      <trkpt lat="45.2012" lon="4.36106">
        <ele>925.2</ele>
        <time>2026-04-24T09:30:03Z</time>
      </trkpt>
      <trkpt lat="45.20122" lon="4.36097">
        <ele>924.7</ele>
        <time>2026-04-24T09:30:08Z</time>
      </trkpt>
      <trkpt lat="45.20125" lon="4.36087">
        <ele>924.1</ele>
        <time>2026-04-24T09:30:13Z</time>
      </trkpt>
      <trkpt lat="45.20128" lon="4.36079">
        <ele>923.5</ele>
        <time>2026-04-24T09:30:18Z</time>
      </trkpt>
      <trkpt lat="45.2013" lon="4.36068">
        <ele>923</ele>
        <time>2026-04-24T09:30:23Z</time>
      </trkpt>
      <trkpt lat="45.20132" lon="4.36058">
        <ele>922.5</ele>
        <time>2026-04-24T09:30:28Z</time>
      </trkpt>
      <trkpt lat="45.20134" lon="4.36048">
        <ele>922</ele>
        <time>2026-04-24T09:30:33Z</time>
      </trkpt>
      <trkpt lat="45.20136" lon="4.3604">
        <ele>921.6</ele>
        <time>2026-04-24T09:30:38Z</time>
      </trkpt>
      <trkpt lat="45.20139" lon="4.36032">
        <ele>921.1</ele>
        <time>2026-04-24T09:30:43Z</time>
      </trkpt>
      <trkpt lat="45.20142" lon="4.36022">
        <ele>920.6</ele>
        <time>2026-04-24T09:30:48Z</time>
      </trkpt>
      <trkpt lat="45.20145" lon="4.3601">
        <ele>920</ele>
        <time>2026-04-24T09:30:53Z</time>
      </trkpt>
      <trkpt lat="45.20149" lon="4.35995">
        <ele>919.5</ele>
        <time>2026-04-24T09:30:58Z</time>
      </trkpt>
      <trkpt lat="45.20152" lon="4.35983">
        <ele>919.2</ele>
        <time>2026-04-24T09:31:03Z</time>
      </trkpt>
      <trkpt lat="45.20157" lon="4.35972">
        <ele>918.6</ele>
        <time>2026-04-24T09:31:08Z</time>
      </trkpt>
      <trkpt lat="45.20165" lon="4.35963">
        <ele>917.7</ele>
        <time>2026-04-24T09:31:13Z</time>
      </trkpt>
      <trkpt lat="45.2017" lon="4.35953">
        <ele>917.5</ele>
        <time>2026-04-24T09:31:18Z</time>
      </trkpt>
      <trkpt lat="45.20174" lon="4.35943">
        <ele>917.4</ele>
        <time>2026-04-24T09:31:23Z</time>
      </trkpt>
      <trkpt lat="45.20179" lon="4.35934">
        <ele>917.4</ele>
        <time>2026-04-24T09:31:28Z</time>
      </trkpt>
      <trkpt lat="45.20183" lon="4.35925">
        <ele>917.3</ele>
        <time>2026-04-24T09:31:33Z</time>
      </trkpt>
      <trkpt lat="45.20185" lon="4.35916">
        <ele>917.2</ele>
        <time>2026-04-24T09:31:38Z</time>
      </trkpt>
      <trkpt lat="45.20186" lon="4.35907">
        <ele>916.8</ele>
        <time>2026-04-24T09:31:43Z</time>
      </trkpt>
      <trkpt lat="45.20189" lon="4.35899">
        <ele>916.4</ele>
        <time>2026-04-24T09:31:48Z</time>
      </trkpt>
      <trkpt lat="45.20192" lon="4.35891">
        <ele>915.9</ele>
        <time>2026-04-24T09:31:53Z</time>
      </trkpt>
      <trkpt lat="45.20195" lon="4.35884">
        <ele>915.5</ele>
        <time>2026-04-24T09:31:58Z</time>
      </trkpt>
      <trkpt lat="45.20198" lon="4.35877">
        <ele>915</ele>
        <time>2026-04-24T09:32:03Z</time>
      </trkpt>
      <trkpt lat="45.20202" lon="4.35866">
        <ele>914.1</ele>
        <time>2026-04-24T09:32:08Z</time>
      </trkpt>
      <trkpt lat="45.20206" lon="4.35859">
        <ele>913.5</ele>
        <time>2026-04-24T09:32:13Z</time>
      </trkpt>
      <trkpt lat="45.2021" lon="4.3585">
        <ele>912.6</ele>
        <time>2026-04-24T09:32:18Z</time>
      </trkpt>
      <trkpt lat="45.20211" lon="4.35842">
        <ele>911.9</ele>
        <time>2026-04-24T09:32:23Z</time>
      </trkpt>
      <trkpt lat="45.20216" lon="4.35833">
        <ele>910.8</ele>
        <time>2026-04-24T09:32:28Z</time>
      </trkpt>
      <trkpt lat="45.2022" lon="4.35825">
        <ele>909.1</ele>
        <time>2026-04-24T09:32:33Z</time>
      </trkpt>
      <trkpt lat="45.20224" lon="4.35815">
        <ele>906.9</ele>
        <time>2026-04-24T09:32:38Z</time>
      </trkpt>
      <trkpt lat="45.20228" lon="4.35804">
        <ele>904.4</ele>
        <time>2026-04-24T09:32:43Z</time>
      </trkpt>
      <trkpt lat="45.20231" lon="4.35794">
        <ele>902.2</ele>
        <time>2026-04-24T09:32:48Z</time>
      </trkpt>
      <trkpt lat="45.20236" lon="4.35785">
        <ele>899.7</ele>
        <time>2026-04-24T09:32:53Z</time>
      </trkpt>
      <trkpt lat="45.2024" lon="4.35776">
        <ele>897.3</ele>
        <time>2026-04-24T09:32:58Z</time>
      </trkpt>
      <trkpt lat="45.20245" lon="4.35768">
        <ele>894.8</ele>
        <time>2026-04-24T09:33:03Z</time>
      </trkpt>
      <trkpt lat="45.20251" lon="4.3576">
        <ele>892.1</ele>
        <time>2026-04-24T09:33:08Z</time>
      </trkpt>
      <trkpt lat="45.20256" lon="4.35752">
        <ele>890.3</ele>
        <time>2026-04-24T09:33:13Z</time>
      </trkpt>
      <trkpt lat="45.2026" lon="4.35745">
        <ele>889.2</ele>
        <time>2026-04-24T09:33:18Z</time>
      </trkpt>
      <trkpt lat="45.20265" lon="4.35737">
        <ele>888.2</ele>
        <time>2026-04-24T09:33:23Z</time>
      </trkpt>
      <trkpt lat="45.20269" lon="4.3573">
        <ele>887.5</ele>
        <time>2026-04-24T09:33:28Z</time>
      </trkpt>
      <trkpt lat="45.20274" lon="4.35723">
        <ele>886.7</ele>
        <time>2026-04-24T09:33:33Z</time>
      </trkpt>
      <trkpt lat="45.2028" lon="4.35713">
        <ele>885.8</ele>
        <time>2026-04-24T09:33:38Z</time>
      </trkpt>
      <trkpt lat="45.20286" lon="4.35704">
        <ele>885</ele>
        <time>2026-04-24T09:33:43Z</time>
      </trkpt>
      <trkpt lat="45.20292" lon="4.35698">
        <ele>884.6</ele>
        <time>2026-04-24T09:33:48Z</time>
      </trkpt>
      <trkpt lat="45.20297" lon="4.35694">
        <ele>884.4</ele>
        <time>2026-04-24T09:33:53Z</time>
      </trkpt>
      <trkpt lat="45.20303" lon="4.35688">
        <ele>884.1</ele>
        <time>2026-04-24T09:33:58Z</time>
      </trkpt>
      <trkpt lat="45.20311" lon="4.35681">
        <ele>883.9</ele>
        <time>2026-04-24T09:34:03Z</time>
      </trkpt>
      <trkpt lat="45.20316" lon="4.35676">
        <ele>883.8</ele>
        <time>2026-04-24T09:34:08Z</time>
      </trkpt>
      <trkpt lat="45.20323" lon="4.35673">
        <ele>883.9</ele>
        <time>2026-04-24T09:34:13Z</time>
      </trkpt>
      <trkpt lat="45.20329" lon="4.35672">
        <ele>884.1</ele>
        <time>2026-04-24T09:34:18Z</time>
      </trkpt>
      <trkpt lat="45.20335" lon="4.3567">
        <ele>884.3</ele>
        <time>2026-04-24T09:34:23Z</time>
      </trkpt>
      <trkpt lat="45.20341" lon="4.3567">
        <ele>884.8</ele>
        <time>2026-04-24T09:34:28Z</time>
      </trkpt>
      <trkpt lat="45.20347" lon="4.35668">
        <ele>885.2</ele>
        <time>2026-04-24T09:34:33Z</time>
      </trkpt>
      <trkpt lat="45.20354" lon="4.35669">
        <ele>885.8</ele>
        <time>2026-04-24T09:34:38Z</time>
      </trkpt>
      <trkpt lat="45.20361" lon="4.35668">
        <ele>886.4</ele>
        <time>2026-04-24T09:34:43Z</time>
      </trkpt>
      <trkpt lat="45.20369" lon="4.35664">
        <ele>886.8</ele>
        <time>2026-04-24T09:34:48Z</time>
      </trkpt>
      <trkpt lat="45.20378" lon="4.35656">
        <ele>886.9</ele>
        <time>2026-04-24T09:34:53Z</time>
      </trkpt>
      <trkpt lat="45.20385" lon="4.35649">
        <ele>887</ele>
        <time>2026-04-24T09:34:58Z</time>
      </trkpt>
      <trkpt lat="45.20391" lon="4.3564">
        <ele>886.8</ele>
        <time>2026-04-24T09:35:03Z</time>
      </trkpt>
      <trkpt lat="45.20395" lon="4.35632">
        <ele>886.7</ele>
        <time>2026-04-24T09:35:08Z</time>
      </trkpt>
      <trkpt lat="45.20401" lon="4.35623">
        <ele>886.7</ele>
        <time>2026-04-24T09:35:13Z</time>
      </trkpt>
      <trkpt lat="45.20406" lon="4.35615">
        <ele>886.7</ele>
        <time>2026-04-24T09:35:18Z</time>
      </trkpt>
      <trkpt lat="45.20411" lon="4.35607">
        <ele>886.7</ele>
        <time>2026-04-24T09:35:23Z</time>
      </trkpt>
      <trkpt lat="45.20417" lon="4.35598">
        <ele>886.9</ele>
        <time>2026-04-24T09:35:28Z</time>
      </trkpt>
      <trkpt lat="45.2042" lon="4.3559">
        <ele>886.6</ele>
        <time>2026-04-24T09:35:33Z</time>
      </trkpt>
      <trkpt lat="45.20423" lon="4.35582">
        <ele>886.4</ele>
        <time>2026-04-24T09:35:38Z</time>
      </trkpt>
      <trkpt lat="45.20425" lon="4.35573">
        <ele>886.1</ele>
        <time>2026-04-24T09:35:43Z</time>
      </trkpt>
      <trkpt lat="45.20429" lon="4.35565">
        <ele>886</ele>
        <time>2026-04-24T09:35:48Z</time>
      </trkpt>
      <trkpt lat="45.20434" lon="4.35557">
        <ele>886</ele>
        <time>2026-04-24T09:35:53Z</time>
      </trkpt>
      <trkpt lat="45.20438" lon="4.35548">
        <ele>885.9</ele>
        <time>2026-04-24T09:35:58Z</time>
      </trkpt>
      <trkpt lat="45.20442" lon="4.35537">
        <ele>885.8</ele>
        <time>2026-04-24T09:36:03Z</time>
      </trkpt>
      <trkpt lat="45.20449" lon="4.35529">
        <ele>886</ele>
        <time>2026-04-24T09:36:08Z</time>
      </trkpt>
      <trkpt lat="45.20455" lon="4.3552">
        <ele>886.1</ele>
        <time>2026-04-24T09:36:13Z</time>
      </trkpt>
      <trkpt lat="45.20459" lon="4.35514">
        <ele>886.1</ele>
        <time>2026-04-24T09:36:18Z</time>
      </trkpt>
      <trkpt lat="45.20464" lon="4.35507">
        <ele>886.3</ele>
        <time>2026-04-24T09:36:23Z</time>
      </trkpt>
      <trkpt lat="45.2047" lon="4.35501">
        <ele>886.5</ele>
        <time>2026-04-24T09:36:28Z</time>
      </trkpt>
      <trkpt lat="45.20476" lon="4.35496">
        <ele>886.4</ele>
        <time>2026-04-24T09:36:33Z</time>
      </trkpt>
      <trkpt lat="45.20481" lon="4.35492">
        <ele>886.2</ele>
        <time>2026-04-24T09:36:38Z</time>
      </trkpt>
      <trkpt lat="45.20489" lon="4.35485">
        <ele>885.8</ele>
        <time>2026-04-24T09:36:43Z</time>
      </trkpt>
      <trkpt lat="45.20496" lon="4.35476">
        <ele>885.2</ele>
        <time>2026-04-24T09:36:48Z</time>
      </trkpt>
      <trkpt lat="45.205" lon="4.35468">
        <ele>884.4</ele>
        <time>2026-04-24T09:36:53Z</time>
      </trkpt>
      <trkpt lat="45.20505" lon="4.35459">
        <ele>882.9</ele>
        <time>2026-04-24T09:36:58Z</time>
      </trkpt>
      <trkpt lat="45.2051" lon="4.35451">
        <ele>881.6</ele>
        <time>2026-04-24T09:37:03Z</time>
      </trkpt>
      <trkpt lat="45.20513" lon="4.35444">
        <ele>880.7</ele>
        <time>2026-04-24T09:37:08Z</time>
      </trkpt>
      <trkpt lat="45.20516" lon="4.35436">
        <ele>879.7</ele>
        <time>2026-04-24T09:37:13Z</time>
      </trkpt>
      <trkpt lat="45.20519" lon="4.35426">
        <ele>878.5</ele>
        <time>2026-04-24T09:37:18Z</time>
      </trkpt>
      <trkpt lat="45.20521" lon="4.35417">
        <ele>877.5</ele>
        <time>2026-04-24T09:37:23Z</time>
      </trkpt>
      <trkpt lat="45.20524" lon="4.35409">
        <ele>875.7</ele>
        <time>2026-04-24T09:37:28Z</time>
      </trkpt>
      <trkpt lat="45.20528" lon="4.354">
        <ele>873.7</ele>
        <time>2026-04-24T09:37:33Z</time>
      </trkpt>
      <trkpt lat="45.20532" lon="4.35393">
        <ele>872.2</ele>
        <time>2026-04-24T09:37:38Z</time>
      </trkpt>
      <trkpt lat="45.20534" lon="4.35384">
        <ele>870.2</ele>
        <time>2026-04-24T09:37:43Z</time>
      </trkpt>
      <trkpt lat="45.20536" lon="4.35375">
        <ele>868.2</ele>
        <time>2026-04-24T09:37:48Z</time>
      </trkpt>
      <trkpt lat="45.20536" lon="4.35367">
        <ele>866.3</ele>
        <time>2026-04-24T09:37:53Z</time>
      </trkpt>
      <trkpt lat="45.20535" lon="4.35362">
        <ele>865.1</ele>
        <time>2026-04-24T09:37:58Z</time>
      </trkpt>
      <trkpt lat="45.20535" lon="4.35355">
        <ele>863.4</ele>
        <time>2026-04-24T09:38:03Z</time>
      </trkpt>
      <trkpt lat="45.20536" lon="4.35346">
        <ele>861.4</ele>
        <time>2026-04-24T09:38:08Z</time>
      </trkpt>
      <trkpt lat="45.20537" lon="4.35339">
        <ele>859.9</ele>
        <time>2026-04-24T09:38:13Z</time>
      </trkpt>
      <trkpt lat="45.20536" lon="4.35332">
        <ele>858.3</ele>
        <time>2026-04-24T09:38:18Z</time>
      </trkpt>
      <trkpt lat="45.20535" lon="4.35324">
        <ele>857</ele>
        <time>2026-04-24T09:38:23Z</time>
      </trkpt>
      <trkpt lat="45.20534" lon="4.35317">
        <ele>855.9</ele>
        <time>2026-04-24T09:38:28Z</time>
      </trkpt>
      <trkpt lat="45.20532" lon="4.35309">
        <ele>854.5</ele>
        <time>2026-04-24T09:38:33Z</time>
      </trkpt>
      <trkpt lat="45.20532" lon="4.35301">
        <ele>853.4</ele>
        <time>2026-04-24T09:38:38Z</time>
      </trkpt>
      <trkpt lat="45.20531" lon="4.35293">
        <ele>852.2</ele>
        <time>2026-04-24T09:38:43Z</time>
      </trkpt>
      <trkpt lat="45.2053" lon="4.35287">
        <ele>851.3</ele>
        <time>2026-04-24T09:38:48Z</time>
      </trkpt>
      <trkpt lat="45.20531" lon="4.35283">
        <ele>850.7</ele>
        <time>2026-04-24T09:38:53Z</time>
      </trkpt>
      <trkpt lat="45.20531" lon="4.35283">
        <ele>850.7</ele>
        <time>2026-04-24T09:38:58Z</time>
      </trkpt>
      <trkpt lat="45.20531" lon="4.35283">
        <ele>850.7</ele>
        <time>2026-04-24T09:39:03Z</time>
      </trkpt>
      <trkpt lat="45.2053" lon="4.35281">
        <ele>850.4</ele>
        <time>2026-04-24T09:39:08Z</time>
      </trkpt>
      <trkpt lat="45.2053" lon="4.35274">
        <ele>849.4</ele>
        <time>2026-04-24T09:39:13Z</time>
      </trkpt>
      <trkpt lat="45.20531" lon="4.35267">
        <ele>848.4</ele>
        <time>2026-04-24T09:39:18Z</time>
      </trkpt>
      <trkpt lat="45.20531" lon="4.35258">
        <ele>847.1</ele>
        <time>2026-04-24T09:39:23Z</time>
      </trkpt>
      <trkpt lat="45.20531" lon="4.35247">
        <ele>845.9</ele>
        <time>2026-04-24T09:39:28Z</time>
      </trkpt>
      <trkpt lat="45.20531" lon="4.35237">
        <ele>845.6</ele>
        <time>2026-04-24T09:39:33Z</time>
      </trkpt>
      <trkpt lat="45.20529" lon="4.35229">
        <ele>845.5</ele>
        <time>2026-04-24T09:39:38Z</time>
      </trkpt>
      <trkpt lat="45.20529" lon="4.35227">
        <ele>845.5</ele>
        <time>2026-04-24T09:39:43Z</time>
      </trkpt>
      <trkpt lat="45.20528" lon="4.35225">
        <ele>845.5</ele>
        <time>2026-04-24T09:39:48Z</time>
      </trkpt>
      <trkpt lat="45.20526" lon="4.35221">
        <ele>845.5</ele>
        <time>2026-04-24T09:39:53Z</time>
      </trkpt>
      <trkpt lat="45.20526" lon="4.35217">
        <ele>845.5</ele>
        <time>2026-04-24T09:39:58Z</time>
      </trkpt>
      <trkpt lat="45.20525" lon="4.35213">
        <ele>845.5</ele>
        <time>2026-04-24T09:40:03Z</time>
      </trkpt>
      <trkpt lat="45.20526" lon="4.35207">
        <ele>845.3</ele>
        <time>2026-04-24T09:40:08Z</time>
      </trkpt>
      <trkpt lat="45.20528" lon="4.35201">
        <ele>845</ele>
        <time>2026-04-24T09:40:13Z</time>
      </trkpt>
      <trkpt lat="45.20534" lon="4.35195">
        <ele>844.1</ele>
        <time>2026-04-24T09:40:18Z</time>
      </trkpt>
      <trkpt lat="45.20539" lon="4.35193">
        <ele>843.3</ele>
        <time>2026-04-24T09:40:23Z</time>
      </trkpt>
      <trkpt lat="45.20546" lon="4.35195">
        <ele>842.4</ele>
        <time>2026-04-24T09:40:28Z</time>
      </trkpt>
      <trkpt lat="45.20552" lon="4.35199">
        <ele>842</ele>
        <time>2026-04-24T09:40:33Z</time>
      </trkpt>
      <trkpt lat="45.20557" lon="4.35204">
        <ele>841.8</ele>
        <time>2026-04-24T09:40:38Z</time>
      </trkpt>
      <trkpt lat="45.20562" lon="4.35209">
        <ele>841.7</ele>
        <time>2026-04-24T09:40:43Z</time>
      </trkpt>
      <trkpt lat="45.20568" lon="4.35214">
        <ele>841.7</ele>
        <time>2026-04-24T09:40:48Z</time>
      </trkpt>
      <trkpt lat="45.20572" lon="4.3522">
        <ele>842.2</ele>
        <time>2026-04-24T09:40:53Z</time>
      </trkpt>
      <trkpt lat="45.20577" lon="4.35224">
        <ele>842.3</ele>
        <time>2026-04-24T09:40:58Z</time>
      </trkpt>
      <trkpt lat="45.20584" lon="4.35228">
        <ele>842.5</ele>
        <time>2026-04-24T09:41:03Z</time>
      </trkpt>
      <trkpt lat="45.20592" lon="4.35233">
        <ele>842.5</ele>
        <time>2026-04-24T09:41:08Z</time>
      </trkpt>
      <trkpt lat="45.20598" lon="4.35238">
        <ele>842.7</ele>
        <time>2026-04-24T09:41:13Z</time>
      </trkpt>
      <trkpt lat="45.20604" lon="4.35245">
        <ele>843.3</ele>
        <time>2026-04-24T09:41:18Z</time>
      </trkpt>
      <trkpt lat="45.20609" lon="4.35252">
        <ele>843.9</ele>
        <time>2026-04-24T09:41:23Z</time>
      </trkpt>
      <trkpt lat="45.20615" lon="4.35257">
        <ele>844.2</ele>
        <time>2026-04-24T09:41:28Z</time>
      </trkpt>
      <trkpt lat="45.20622" lon="4.35263">
        <ele>844.6</ele>
        <time>2026-04-24T09:41:33Z</time>
      </trkpt>
      <trkpt lat="45.20628" lon="4.3527">
        <ele>845.1</ele>
        <time>2026-04-24T09:41:38Z</time>
      </trkpt>
      <trkpt lat="45.20632" lon="4.35278">
        <ele>846.1</ele>
        <time>2026-04-24T09:41:43Z</time>
      </trkpt>
      <trkpt lat="45.20638" lon="4.35284">
        <ele>846.3</ele>
        <time>2026-04-24T09:41:48Z</time>
      </trkpt>
      <trkpt lat="45.20643" lon="4.35291">
        <ele>846.9</ele>
        <time>2026-04-24T09:41:53Z</time>
      </trkpt>
      <trkpt lat="45.2065" lon="4.35296">
        <ele>846.8</ele>
        <time>2026-04-24T09:41:58Z</time>
      </trkpt>
      <trkpt lat="45.20657" lon="4.35302">
        <ele>846.8</ele>
        <time>2026-04-24T09:42:03Z</time>
      </trkpt>
      <trkpt lat="45.20664" lon="4.35306">
        <ele>846.4</ele>
        <time>2026-04-24T09:42:08Z</time>
      </trkpt>
      <trkpt lat="45.20671" lon="4.3531">
        <ele>845.9</ele>
        <time>2026-04-24T09:42:13Z</time>
      </trkpt>
      <trkpt lat="45.20676" lon="4.35314">
        <ele>845.5</ele>
        <time>2026-04-24T09:42:18Z</time>
      </trkpt>
      <trkpt lat="45.20682" lon="4.35319">
        <ele>845.1</ele>
        <time>2026-04-24T09:42:23Z</time>
      </trkpt>
      <trkpt lat="45.2069" lon="4.35325">
        <ele>844.3</ele>
        <time>2026-04-24T09:42:28Z</time>
      </trkpt>
      <trkpt lat="45.20697" lon="4.35329">
        <ele>843.3</ele>
        <time>2026-04-24T09:42:33Z</time>
      </trkpt>
      <trkpt lat="45.20702" lon="4.35332">
        <ele>842.7</ele>
        <time>2026-04-24T09:42:38Z</time>
      </trkpt>
      <trkpt lat="45.20705" lon="4.35333">
        <ele>842.1</ele>
        <time>2026-04-24T09:42:43Z</time>
      </trkpt>
      <trkpt lat="45.20707" lon="4.35331">
        <ele>841.5</ele>
        <time>2026-04-24T09:42:48Z</time>
      </trkpt>
      <trkpt lat="45.20714" lon="4.35334">
        <ele>840.4</ele>
        <time>2026-04-24T09:42:53Z</time>
      </trkpt>
      <trkpt lat="45.20716" lon="4.3534">
        <ele>840.2</ele>
        <time>2026-04-24T09:42:58Z</time>
      </trkpt>
      <trkpt lat="45.20717" lon="4.35342">
        <ele>840</ele>
        <time>2026-04-24T09:43:03Z</time>
      </trkpt>
      <trkpt lat="45.2072" lon="4.35344">
        <ele>839.4</ele>
        <time>2026-04-24T09:43:08Z</time>
      </trkpt>
      <trkpt lat="45.2072" lon="4.35345">
        <ele>839.5</ele>
        <time>2026-04-24T09:43:13Z</time>
      </trkpt>
      <trkpt lat="45.20724" lon="4.35349">
        <ele>838.7</ele>
        <time>2026-04-24T09:43:18Z</time>
      </trkpt>
      <trkpt lat="45.20729" lon="4.35354">
        <ele>837.7</ele>
        <time>2026-04-24T09:43:23Z</time>
      </trkpt>
      <trkpt lat="45.20732" lon="4.3536">
        <ele>837.2</ele>
        <time>2026-04-24T09:43:28Z</time>
      </trkpt>
      <trkpt lat="45.20733" lon="4.35368">
        <ele>837.1</ele>
        <time>2026-04-24T09:43:33Z</time>
      </trkpt>
      <trkpt lat="45.20734" lon="4.35379">
        <ele>837</ele>
        <time>2026-04-24T09:43:38Z</time>
      </trkpt>
      <trkpt lat="45.20734" lon="4.35389">
        <ele>837.2</ele>
        <time>2026-04-24T09:43:43Z</time>
      </trkpt>
      <trkpt lat="45.20734" lon="4.35398">
        <ele>837.3</ele>
        <time>2026-04-24T09:43:48Z</time>
      </trkpt>
      <trkpt lat="45.20734" lon="4.35409">
        <ele>837.5</ele>
        <time>2026-04-24T09:43:53Z</time>
      </trkpt>
      <trkpt lat="45.20735" lon="4.35417">
        <ele>837.3</ele>
        <time>2026-04-24T09:43:58Z</time>
      </trkpt>
      <trkpt lat="45.20738" lon="4.35425">
        <ele>836.1</ele>
        <time>2026-04-24T09:44:03Z</time>
      </trkpt>
      <trkpt lat="45.20743" lon="4.35434">
        <ele>834.2</ele>
        <time>2026-04-24T09:44:08Z</time>
      </trkpt>
      <trkpt lat="45.2075" lon="4.35439">
        <ele>831.9</ele>
        <time>2026-04-24T09:44:13Z</time>
      </trkpt>
      <trkpt lat="45.20758" lon="4.35439">
        <ele>830.7</ele>
        <time>2026-04-24T09:44:18Z</time>
      </trkpt>
      <trkpt lat="45.20766" lon="4.35437">
        <ele>829.6</ele>
        <time>2026-04-24T09:44:23Z</time>
      </trkpt>
      <trkpt lat="45.20772" lon="4.35436">
        <ele>828.8</ele>
        <time>2026-04-24T09:44:28Z</time>
      </trkpt>
      <trkpt lat="45.20779" lon="4.35435">
        <ele>827.8</ele>
        <time>2026-04-24T09:44:33Z</time>
      </trkpt>
      <trkpt lat="45.20785" lon="4.35433">
        <ele>827</ele>
        <time>2026-04-24T09:44:38Z</time>
      </trkpt>
      <trkpt lat="45.20793" lon="4.3543">
        <ele>826</ele>
        <time>2026-04-24T09:44:43Z</time>
      </trkpt>
      <trkpt lat="45.20801" lon="4.35427">
        <ele>825</ele>
        <time>2026-04-24T09:44:48Z</time>
      </trkpt>
      <trkpt lat="45.20807" lon="4.35422">
        <ele>824.4</ele>
        <time>2026-04-24T09:44:53Z</time>
      </trkpt>
      <trkpt lat="45.20813" lon="4.35417">
        <ele>823.9</ele>
        <time>2026-04-24T09:44:58Z</time>
      </trkpt>
      <trkpt lat="45.20818" lon="4.35413">
        <ele>823.2</ele>
        <time>2026-04-24T09:45:03Z</time>
      </trkpt>
      <trkpt lat="45.20823" lon="4.35407">
        <ele>822.6</ele>
        <time>2026-04-24T09:45:08Z</time>
      </trkpt>
      <trkpt lat="45.20828" lon="4.35401">
        <ele>821.9</ele>
        <time>2026-04-24T09:45:13Z</time>
      </trkpt>
      <trkpt lat="45.2083" lon="4.35399">
        <ele>821.7</ele>
        <time>2026-04-24T09:45:18Z</time>
      </trkpt>
      <trkpt lat="45.2083" lon="4.35399">
        <ele>821.7</ele>
        <time>2026-04-24T09:45:23Z</time>
      </trkpt>
      <trkpt lat="45.2083" lon="4.35399">
        <ele>821.7</ele>
        <time>2026-04-24T09:45:28Z</time>
      </trkpt>
      <trkpt lat="45.2083" lon="4.35399">
        <ele>821.7</ele>
        <time>2026-04-24T09:45:33Z</time>
      </trkpt>
      <trkpt lat="45.20833" lon="4.35397">
        <ele>821.3</ele>
        <time>2026-04-24T09:45:38Z</time>
      </trkpt>
      <trkpt lat="45.20839" lon="4.3539">
        <ele>820.5</ele>
        <time>2026-04-24T09:45:43Z</time>
      </trkpt>
      <trkpt lat="45.20844" lon="4.35384">
        <ele>819.9</ele>
        <time>2026-04-24T09:45:48Z</time>
      </trkpt>
      <trkpt lat="45.2085" lon="4.35378">
        <ele>819.2</ele>
        <time>2026-04-24T09:45:53Z</time>
      </trkpt>
      <trkpt lat="45.20855" lon="4.35372">
        <ele>818.6</ele>
        <time>2026-04-24T09:45:58Z</time>
      </trkpt>
      <trkpt lat="45.20861" lon="4.35366">
        <ele>817.8</ele>
        <time>2026-04-24T09:46:03Z</time>
      </trkpt>
      <trkpt lat="45.20865" lon="4.3536">
        <ele>817.4</ele>
        <time>2026-04-24T09:46:08Z</time>
      </trkpt>
      <trkpt lat="45.20866" lon="4.3536">
        <ele>817.2</ele>
        <time>2026-04-24T09:46:13Z</time>
      </trkpt>
      <trkpt lat="45.20868" lon="4.35356">
        <ele>817</ele>
        <time>2026-04-24T09:46:18Z</time>
      </trkpt>
      <trkpt lat="45.20873" lon="4.35351">
        <ele>816.5</ele>
        <time>2026-04-24T09:46:23Z</time>
      </trkpt>
      <trkpt lat="45.20879" lon="4.35345">
        <ele>815.8</ele>
        <time>2026-04-24T09:46:28Z</time>
      </trkpt>
      <trkpt lat="45.20884" lon="4.35339">
        <ele>815.2</ele>
        <time>2026-04-24T09:46:33Z</time>
      </trkpt>
      <trkpt lat="45.20889" lon="4.35333">
        <ele>814.7</ele>
        <time>2026-04-24T09:46:38Z</time>
      </trkpt>
      <trkpt lat="45.20894" lon="4.35333">
        <ele>814</ele>
        <time>2026-04-24T09:46:43Z</time>
      </trkpt>
      <trkpt lat="45.20896" lon="4.35334">
        <ele>813.7</ele>
        <time>2026-04-24T09:46:48Z</time>
      </trkpt>
      <trkpt lat="45.20897" lon="4.35334">
        <ele>813.6</ele>
        <time>2026-04-24T09:46:53Z</time>
      </trkpt>
      <trkpt lat="45.20897" lon="4.35335">
        <ele>813.6</ele>
        <time>2026-04-24T09:46:58Z</time>
      </trkpt>
      <trkpt lat="45.20897" lon="4.35335">
        <ele>813.6</ele>
        <time>2026-04-24T09:47:03Z</time>
      </trkpt>
      <trkpt lat="45.20897" lon="4.35335">
        <ele>813.6</ele>
        <time>2026-04-24T09:47:08Z</time>
      </trkpt>
      <trkpt lat="45.20897" lon="4.35335">
        <ele>813.6</ele>
        <time>2026-04-24T09:47:13Z</time>
      </trkpt>
      <trkpt lat="45.20897" lon="4.35335">
        <ele>813.6</ele>
        <time>2026-04-24T09:47:18Z</time>
      </trkpt>
      <trkpt lat="45.20897" lon="4.35335">
        <ele>813.6</ele>
        <time>2026-04-24T09:47:23Z</time>
      </trkpt>
      <trkpt lat="45.20897" lon="4.35335">
        <ele>813.6</ele>
        <time>2026-04-24T09:47:28Z</time>
      </trkpt>
      <trkpt lat="45.20897" lon="4.35335">
        <ele>813.6</ele>
        <time>2026-04-24T09:47:33Z</time>
      </trkpt>
      <trkpt lat="45.20897" lon="4.35335">
        <ele>813.6</ele>
        <time>2026-04-24T09:47:38Z</time>
      </trkpt>
      <trkpt lat="45.20897" lon="4.35335">
        <ele>813.6</ele>
        <time>2026-04-24T09:47:43Z</time>
      </trkpt>
      <trkpt lat="45.20897" lon="4.35335">
        <ele>813.6</ele>
        <time>2026-04-24T09:47:48Z</time>
      </trkpt>
      <trkpt lat="45.20897" lon="4.35335">
        <ele>813.6</ele>
        <time>2026-04-24T09:47:53Z</time>
      </trkpt>
      <trkpt lat="45.20897" lon="4.35335">
        <ele>813.6</ele>
        <time>2026-04-24T09:47:58Z</time>
      </trkpt>
      <trkpt lat="45.20897" lon="4.35335">
        <ele>813.6</ele>
        <time>2026-04-24T09:48:03Z</time>
      </trkpt>
      <trkpt lat="45.20897" lon="4.35335">
        <ele>813.6</ele>
        <time>2026-04-24T09:48:08Z</time>
      </trkpt>
      <trkpt lat="45.20897" lon="4.35335">
        <ele>813.6</ele>
        <time>2026-04-24T09:48:13Z</time>
      </trkpt>
      <trkpt lat="45.20897" lon="4.35335">
        <ele>813.6</ele>
        <time>2026-04-24T09:48:18Z</time>
      </trkpt>
      <trkpt lat="45.20897" lon="4.35335">
        <ele>813.6</ele>
        <time>2026-04-24T09:48:23Z</time>
      </trkpt>
      <trkpt lat="45.20897" lon="4.35335">
        <ele>813.6</ele>
        <time>2026-04-24T09:48:28Z</time>
      </trkpt>
      <trkpt lat="45.20897" lon="4.35335">
        <ele>813.6</ele>
        <time>2026-04-24T09:48:33Z</time>
      </trkpt>
      <trkpt lat="45.20897" lon="4.35335">
        <ele>813.6</ele>
        <time>2026-04-24T09:48:38Z</time>
      </trkpt>
      <trkpt lat="45.20897" lon="4.35335">
        <ele>813.6</ele>
        <time>2026-04-24T09:48:43Z</time>
      </trkpt>
      <trkpt lat="45.20897" lon="4.35335">
        <ele>813.6</ele>
        <time>2026-04-24T09:48:48Z</time>
      </trkpt>
      <trkpt lat="45.20897" lon="4.35335">
        <ele>813.6</ele>
        <time>2026-04-24T09:48:53Z</time>
      </trkpt>
      <trkpt lat="45.20897" lon="4.35335">
        <ele>813.6</ele>
        <time>2026-04-24T09:48:58Z</time>
      </trkpt>
      <trkpt lat="45.20897" lon="4.35335">
        <ele>813.6</ele>
        <time>2026-04-24T09:49:03Z</time>
      </trkpt>
      <trkpt lat="45.20897" lon="4.35335">
        <ele>813.6</ele>
        <time>2026-04-24T09:49:08Z</time>
      </trkpt>
      <trkpt lat="45.20897" lon="4.35335">
        <ele>813.6</ele>
        <time>2026-04-24T09:49:13Z</time>
      </trkpt>
      <trkpt lat="45.20897" lon="4.35335">
        <ele>813.6</ele>
        <time>2026-04-24T09:49:18Z</time>
      </trkpt>
      <trkpt lat="45.20897" lon="4.35335">
        <ele>813.6</ele>
        <time>2026-04-24T09:49:23Z</time>
      </trkpt>
      <trkpt lat="45.20897" lon="4.35335">
        <ele>813.6</ele>
        <time>2026-04-24T09:49:28Z</time>
      </trkpt>
      <trkpt lat="45.20897" lon="4.35335">
        <ele>813.6</ele>
        <time>2026-04-24T09:49:33Z</time>
      </trkpt>
      <trkpt lat="45.20897" lon="4.35335">
        <ele>813.6</ele>
        <time>2026-04-24T09:49:38Z</time>
      </trkpt>
      <trkpt lat="45.20897" lon="4.35335">
        <ele>813.6</ele>
        <time>2026-04-24T09:49:43Z</time>
      </trkpt>
      <trkpt lat="45.20897" lon="4.35335">
        <ele>813.6</ele>
        <time>2026-04-24T09:49:48Z</time>
      </trkpt>
      <trkpt lat="45.20897" lon="4.35335">
        <ele>813.6</ele>
        <time>2026-04-24T09:49:53Z</time>
      </trkpt>
      <trkpt lat="45.20897" lon="4.35335">
        <ele>813.6</ele>
        <time>2026-04-24T09:49:58Z</time>
      </trkpt>
      <trkpt lat="45.20897" lon="4.35335">
        <ele>813.6</ele>
        <time>2026-04-24T09:50:03Z</time>
      </trkpt>
      <trkpt lat="45.20897" lon="4.35335">
        <ele>813.6</ele>
        <time>2026-04-24T09:50:08Z</time>
      </trkpt>
      <trkpt lat="45.20897" lon="4.35335">
        <ele>813.6</ele>
        <time>2026-04-24T09:50:13Z</time>
      </trkpt>
      <trkpt lat="45.20897" lon="4.35335">
        <ele>813.6</ele>
        <time>2026-04-24T09:50:18Z</time>
      </trkpt>
      <trkpt lat="45.20897" lon="4.35335">
        <ele>813.6</ele>
        <time>2026-04-24T09:50:23Z</time>
      </trkpt>
      <trkpt lat="45.20897" lon="4.35335">
        <ele>813.6</ele>
        <time>2026-04-24T09:50:28Z</time>
      </trkpt>
      <trkpt lat="45.20897" lon="4.35335">
        <ele>813.6</ele>
        <time>2026-04-24T09:50:33Z</time>
      </trkpt>
      <trkpt lat="45.20897" lon="4.35335">
        <ele>813.6</ele>
        <time>2026-04-24T09:50:38Z</time>
      </trkpt>
      <trkpt lat="45.20897" lon="4.35335">
        <ele>813.6</ele>
        <time>2026-04-24T09:50:43Z</time>
      </trkpt>
      <trkpt lat="45.20897" lon="4.35335">
        <ele>813.6</ele>
        <time>2026-04-24T09:50:48Z</time>
      </trkpt>
      <trkpt lat="45.20897" lon="4.35335">
        <ele>813.6</ele>
        <time>2026-04-24T09:50:53Z</time>
      </trkpt>
      <trkpt lat="45.20897" lon="4.35335">
        <ele>813.6</ele>
        <time>2026-04-24T09:50:58Z</time>
      </trkpt>
      <trkpt lat="45.20897" lon="4.35335">
        <ele>813.6</ele>
        <time>2026-04-24T09:51:03Z</time>
      </trkpt>
      <trkpt lat="45.20897" lon="4.35335">
        <ele>813.6</ele>
        <time>2026-04-24T09:51:08Z</time>
      </trkpt>
      <trkpt lat="45.20897" lon="4.35335">
        <ele>813.6</ele>
        <time>2026-04-24T09:51:13Z</time>
      </trkpt>
      <trkpt lat="45.20897" lon="4.35335">
        <ele>813.6</ele>
        <time>2026-04-24T09:51:18Z</time>
      </trkpt>
      <trkpt lat="45.20897" lon="4.35335">
        <ele>813.6</ele>
        <time>2026-04-24T09:51:23Z</time>
      </trkpt>
      <trkpt lat="45.20897" lon="4.35335">
        <ele>813.6</ele>
        <time>2026-04-24T09:51:28Z</time>
      </trkpt>
      <trkpt lat="45.20897" lon="4.35335">
        <ele>813.6</ele>
        <time>2026-04-24T09:51:33Z</time>
      </trkpt>
      <trkpt lat="45.20897" lon="4.35335">
        <ele>813.6</ele>
        <time>2026-04-24T09:51:38Z</time>
      </trkpt>
      <trkpt lat="45.20897" lon="4.35335">
        <ele>813.6</ele>
        <time>2026-04-24T09:51:43Z</time>
      </trkpt>
      <trkpt lat="45.20897" lon="4.35335">
        <ele>813.6</ele>
        <time>2026-04-24T09:51:48Z</time>
      </trkpt>
      <trkpt lat="45.20897" lon="4.35335">
        <ele>813.6</ele>
        <time>2026-04-24T09:51:53Z</time>
      </trkpt>
      <trkpt lat="45.20897" lon="4.35335">
        <ele>813.6</ele>
        <time>2026-04-24T09:51:58Z</time>
      </trkpt>
      <trkpt lat="45.20897" lon="4.35335">
        <ele>813.6</ele>
        <time>2026-04-24T09:52:03Z</time>
      </trkpt>
      <trkpt lat="45.20897" lon="4.35335">
        <ele>813.6</ele>
        <time>2026-04-24T09:52:08Z</time>
      </trkpt>
      <trkpt lat="45.20897" lon="4.35335">
        <ele>813.6</ele>
        <time>2026-04-24T09:52:13Z</time>
      </trkpt>
      <trkpt lat="45.20897" lon="4.35335">
        <ele>813.6</ele>
        <time>2026-04-24T09:52:18Z</time>
      </trkpt>
      <trkpt lat="45.20897" lon="4.35335">
        <ele>813.6</ele>
        <time>2026-04-24T09:52:23Z</time>
      </trkpt>
      <trkpt lat="45.20897" lon="4.35335">
        <ele>813.6</ele>
        <time>2026-04-24T09:52:28Z</time>
      </trkpt>
      <trkpt lat="45.20897" lon="4.35335">
        <ele>813.6</ele>
        <time>2026-04-24T09:52:33Z</time>
      </trkpt>
      <trkpt lat="45.20897" lon="4.35335">
        <ele>813.6</ele>
        <time>2026-04-24T09:52:38Z</time>
      </trkpt>
      <trkpt lat="45.20897" lon="4.35335">
        <ele>813.6</ele>
        <time>2026-04-24T09:52:43Z</time>
      </trkpt>
      <trkpt lat="45.20897" lon="4.35335">
        <ele>813.6</ele>
        <time>2026-04-24T09:52:48Z</time>
      </trkpt>
      <trkpt lat="45.20897" lon="4.35335">
        <ele>813.6</ele>
        <time>2026-04-24T09:52:53Z</time>
      </trkpt>
      <trkpt lat="45.20897" lon="4.35335">
        <ele>813.6</ele>
        <time>2026-04-24T09:52:58Z</time>
      </trkpt>
      <trkpt lat="45.20897" lon="4.35335">
        <ele>813.6</ele>
        <time>2026-04-24T09:53:03Z</time>
      </trkpt>
      <trkpt lat="45.20897" lon="4.35335">
        <ele>813.6</ele>
        <time>2026-04-24T09:53:08Z</time>
      </trkpt>
      <trkpt lat="45.20897" lon="4.35335">
        <ele>813.6</ele>
        <time>2026-04-24T09:53:13Z</time>
      </trkpt>
      <trkpt lat="45.20897" lon="4.35335">
        <ele>813.6</ele>
        <time>2026-04-24T09:53:18Z</time>
      </trkpt>
      <trkpt lat="45.20897" lon="4.35335">
        <ele>813.6</ele>
        <time>2026-04-24T09:53:23Z</time>
      </trkpt>
      <trkpt lat="45.20897" lon="4.35335">
        <ele>813.6</ele>
        <time>2026-04-24T09:53:28Z</time>
      </trkpt>
      <trkpt lat="45.20897" lon="4.35335">
        <ele>813.6</ele>
        <time>2026-04-24T09:53:33Z</time>
      </trkpt>
      <trkpt lat="45.20897" lon="4.35335">
        <ele>813.6</ele>
        <time>2026-04-24T09:53:38Z</time>
      </trkpt>
      <trkpt lat="45.20897" lon="4.35335">
        <ele>813.6</ele>
        <time>2026-04-24T09:53:43Z</time>
      </trkpt>
      <trkpt lat="45.20897" lon="4.35335">
        <ele>813.6</ele>
        <time>2026-04-24T09:53:48Z</time>
      </trkpt>
      <trkpt lat="45.20897" lon="4.35335">
        <ele>813.6</ele>
        <time>2026-04-24T09:53:53Z</time>
      </trkpt>
      <trkpt lat="45.20897" lon="4.35335">
        <ele>813.6</ele>
        <time>2026-04-24T09:53:58Z</time>
      </trkpt>
      <trkpt lat="45.20897" lon="4.35335">
        <ele>813.6</ele>
        <time>2026-04-24T09:54:03Z</time>
      </trkpt>
      <trkpt lat="45.20897" lon="4.35335">
        <ele>813.6</ele>
        <time>2026-04-24T09:54:08Z</time>
      </trkpt>
      <trkpt lat="45.20897" lon="4.35335">
        <ele>813.6</ele>
        <time>2026-04-24T09:54:13Z</time>
      </trkpt>
      <trkpt lat="45.20897" lon="4.35335">
        <ele>813.6</ele>
        <time>2026-04-24T09:54:18Z</time>
      </trkpt>
      <trkpt lat="45.20897" lon="4.35335">
        <ele>813.6</ele>
        <time>2026-04-24T09:54:23Z</time>
      </trkpt>
      <trkpt lat="45.20897" lon="4.35335">
        <ele>813.6</ele>
        <time>2026-04-24T09:54:28Z</time>
      </trkpt>
      <trkpt lat="45.20897" lon="4.35335">
        <ele>813.6</ele>
        <time>2026-04-24T09:54:33Z</time>
      </trkpt>
      <trkpt lat="45.20897" lon="4.35335">
        <ele>813.6</ele>
        <time>2026-04-24T09:54:38Z</time>
      </trkpt>
      <trkpt lat="45.20897" lon="4.35335">
        <ele>813.6</ele>
        <time>2026-04-24T09:54:43Z</time>
      </trkpt>
      <trkpt lat="45.20897" lon="4.35335">
        <ele>813.6</ele>
        <time>2026-04-24T09:54:48Z</time>
      </trkpt>
      <trkpt lat="45.20897" lon="4.35335">
        <ele>813.6</ele>
        <time>2026-04-24T09:54:53Z</time>
      </trkpt>
      <trkpt lat="45.20897" lon="4.35335">
        <ele>813.6</ele>
        <time>2026-04-24T09:54:58Z</time>
      </trkpt>
      <trkpt lat="45.20897" lon="4.35335">
        <ele>813.6</ele>
        <time>2026-04-24T09:55:03Z</time>
      </trkpt>
      <trkpt lat="45.20897" lon="4.35335">
        <ele>813.6</ele>
        <time>2026-04-24T09:55:08Z</time>
      </trkpt>
      <trkpt lat="45.20897" lon="4.35335">
        <ele>813.6</ele>
        <time>2026-04-24T09:55:13Z</time>
      </trkpt>
      <trkpt lat="45.20897" lon="4.35335">
        <ele>813.6</ele>
        <time>2026-04-24T09:55:18Z</time>
      </trkpt>
      <trkpt lat="45.20897" lon="4.35335">
        <ele>813.6</ele>
        <time>2026-04-24T09:55:23Z</time>
      </trkpt>
      <trkpt lat="45.20897" lon="4.35335">
        <ele>813.6</ele>
        <time>2026-04-24T09:55:28Z</time>
      </trkpt>
      <trkpt lat="45.20897" lon="4.35335">
        <ele>813.6</ele>
        <time>2026-04-24T09:55:33Z</time>
      </trkpt>
      <trkpt lat="45.20897" lon="4.35335">
        <ele>813.6</ele>
        <time>2026-04-24T09:55:38Z</time>
      </trkpt>
      <trkpt lat="45.20897" lon="4.35335">
        <ele>813.6</ele>
        <time>2026-04-24T09:55:43Z</time>
      </trkpt>
      <trkpt lat="45.20897" lon="4.35335">
        <ele>813.6</ele>
        <time>2026-04-24T09:55:48Z</time>
      </trkpt>
      <trkpt lat="45.20897" lon="4.35335">
        <ele>813.6</ele>
        <time>2026-04-24T09:55:53Z</time>
      </trkpt>
      <trkpt lat="45.20897" lon="4.35335">
        <ele>813.6</ele>
        <time>2026-04-24T09:55:58Z</time>
      </trkpt>
      <trkpt lat="45.20897" lon="4.35335">
        <ele>813.6</ele>
        <time>2026-04-24T09:56:03Z</time>
      </trkpt>
      <trkpt lat="45.20897" lon="4.35335">
        <ele>813.6</ele>
        <time>2026-04-24T09:56:08Z</time>
      </trkpt>
      <trkpt lat="45.20897" lon="4.35335">
        <ele>813.6</ele>
        <time>2026-04-24T09:56:13Z</time>
      </trkpt>
      <trkpt lat="45.20897" lon="4.35335">
        <ele>813.6</ele>
        <time>2026-04-24T09:56:18Z</time>
      </trkpt>
      <trkpt lat="45.20897" lon="4.35335">
        <ele>813.6</ele>
        <time>2026-04-24T09:56:23Z</time>
      </trkpt>
      <trkpt lat="45.20897" lon="4.35335">
        <ele>813.6</ele>
        <time>2026-04-24T09:56:28Z</time>
      </trkpt>
      <trkpt lat="45.20897" lon="4.35335">
        <ele>813.6</ele>
        <time>2026-04-24T09:56:33Z</time>
      </trkpt>
      <trkpt lat="45.20897" lon="4.35335">
        <ele>813.6</ele>
        <time>2026-04-24T09:56:38Z</time>
      </trkpt>
      <trkpt lat="45.20897" lon="4.35335">
        <ele>813.6</ele>
        <time>2026-04-24T09:56:43Z</time>
      </trkpt>
      <trkpt lat="45.20897" lon="4.35335">
        <ele>813.6</ele>
        <time>2026-04-24T09:56:48Z</time>
      </trkpt>
      <trkpt lat="45.20897" lon="4.35335">
        <ele>813.6</ele>
        <time>2026-04-24T09:56:53Z</time>
      </trkpt>
      <trkpt lat="45.20897" lon="4.35335">
        <ele>813.6</ele>
        <time>2026-04-24T09:56:58Z</time>
      </trkpt>
      <trkpt lat="45.20897" lon="4.35335">
        <ele>813.6</ele>
        <time>2026-04-24T09:57:03Z</time>
      </trkpt>
      <trkpt lat="45.20897" lon="4.35335">
        <ele>813.6</ele>
        <time>2026-04-24T09:57:08Z</time>
      </trkpt>
      <trkpt lat="45.20897" lon="4.35335">
        <ele>813.6</ele>
        <time>2026-04-24T09:57:13Z</time>
      </trkpt>
      <trkpt lat="45.20897" lon="4.35335">
        <ele>813.6</ele>
        <time>2026-04-24T09:57:18Z</time>
      </trkpt>
      <trkpt lat="45.20897" lon="4.35335">
        <ele>813.6</ele>
        <time>2026-04-24T09:57:23Z</time>
      </trkpt>
      <trkpt lat="45.20897" lon="4.35335">
        <ele>813.6</ele>
        <time>2026-04-24T09:57:28Z</time>
      </trkpt>
      <trkpt lat="45.20897" lon="4.35335">
        <ele>813.6</ele>
        <time>2026-04-24T09:57:33Z</time>
      </trkpt>
      <trkpt lat="45.20897" lon="4.35335">
        <ele>813.6</ele>
        <time>2026-04-24T09:57:38Z</time>
      </trkpt>
      <trkpt lat="45.20897" lon="4.35335">
        <ele>813.6</ele>
        <time>2026-04-24T09:57:43Z</time>
      </trkpt>
      <trkpt lat="45.20897" lon="4.35335">
        <ele>813.6</ele>
        <time>2026-04-24T09:57:48Z</time>
      </trkpt>
      <trkpt lat="45.20897" lon="4.35335">
        <ele>813.6</ele>
        <time>2026-04-24T09:57:53Z</time>
      </trkpt>
      <trkpt lat="45.20897" lon="4.35335">
        <ele>813.6</ele>
        <time>2026-04-24T09:57:58Z</time>
      </trkpt>
      <trkpt lat="45.20897" lon="4.35335">
        <ele>813.6</ele>
        <time>2026-04-24T09:58:03Z</time>
      </trkpt>
      <trkpt lat="45.20897" lon="4.35335">
        <ele>813.6</ele>
        <time>2026-04-24T09:58:08Z</time>
      </trkpt>
      <trkpt lat="45.20897" lon="4.35335">
        <ele>813.6</ele>
        <time>2026-04-24T09:58:13Z</time>
      </trkpt>
      <trkpt lat="45.20897" lon="4.35335">
        <ele>813.6</ele>
        <time>2026-04-24T09:58:18Z</time>
      </trkpt>
      <trkpt lat="45.20897" lon="4.35335">
        <ele>813.6</ele>
        <time>2026-04-24T09:58:23Z</time>
      </trkpt>
      <trkpt lat="45.20897" lon="4.35335">
        <ele>813.6</ele>
        <time>2026-04-24T09:58:28Z</time>
      </trkpt>
      <trkpt lat="45.20897" lon="4.35335">
        <ele>813.6</ele>
        <time>2026-04-24T09:58:33Z</time>
      </trkpt>
      <trkpt lat="45.20897" lon="4.35335">
        <ele>813.6</ele>
        <time>2026-04-24T09:58:38Z</time>
      </trkpt>
      <trkpt lat="45.20897" lon="4.35335">
        <ele>813.6</ele>
        <time>2026-04-24T09:58:43Z</time>
      </trkpt>
      <trkpt lat="45.20897" lon="4.35335">
        <ele>813.6</ele>
        <time>2026-04-24T09:58:48Z</time>
      </trkpt>
      <trkpt lat="45.20897" lon="4.35335">
        <ele>813.6</ele>
        <time>2026-04-24T09:58:53Z</time>
      </trkpt>
      <trkpt lat="45.20897" lon="4.35335">
        <ele>813.6</ele>
        <time>2026-04-24T09:58:58Z</time>
      </trkpt>
      <trkpt lat="45.20897" lon="4.35335">
        <ele>813.6</ele>
        <time>2026-04-24T09:59:03Z</time>
      </trkpt>
      <trkpt lat="45.20897" lon="4.35335">
        <ele>813.6</ele>
        <time>2026-04-24T09:59:08Z</time>
      </trkpt>
      <trkpt lat="45.20897" lon="4.35335">
        <ele>813.6</ele>
        <time>2026-04-24T09:59:13Z</time>
      </trkpt>
      <trkpt lat="45.20897" lon="4.35335">
        <ele>813.6</ele>
        <time>2026-04-24T09:59:18Z</time>
      </trkpt>
      <trkpt lat="45.20897" lon="4.35335">
        <ele>813.6</ele>
        <time>2026-04-24T09:59:23Z</time>
      </trkpt>
      <trkpt lat="45.20897" lon="4.35335">
        <ele>813.6</ele>
        <time>2026-04-24T09:59:28Z</time>
      </trkpt>
      <trkpt lat="45.20897" lon="4.35335">
        <ele>813.6</ele>
        <time>2026-04-24T09:59:33Z</time>
      </trkpt>
      <trkpt lat="45.20897" lon="4.35335">
        <ele>813.6</ele>
        <time>2026-04-24T09:59:38Z</time>
      </trkpt>
      <trkpt lat="45.20897" lon="4.35335">
        <ele>813.6</ele>
        <time>2026-04-24T09:59:43Z</time>
      </trkpt>
      <trkpt lat="45.20897" lon="4.35335">
        <ele>813.6</ele>
        <time>2026-04-24T09:59:48Z</time>
      </trkpt>
      <trkpt lat="45.20897" lon="4.35335">
        <ele>813.6</ele>
        <time>2026-04-24T09:59:53Z</time>
      </trkpt>
      <trkpt lat="45.20897" lon="4.35335">
        <ele>813.6</ele>
        <time>2026-04-24T09:59:58Z</time>
      </trkpt>
      <trkpt lat="45.20897" lon="4.35335">
        <ele>813.6</ele>
        <time>2026-04-24T10:00:03Z</time>
      </trkpt>
      <trkpt lat="45.20897" lon="4.35335">
        <ele>813.6</ele>
        <time>2026-04-24T10:00:08Z</time>
      </trkpt>
      <trkpt lat="45.20897" lon="4.35335">
        <ele>813.6</ele>
        <time>2026-04-24T10:00:13Z</time>
      </trkpt>
      <trkpt lat="45.20897" lon="4.35335">
        <ele>813.6</ele>
        <time>2026-04-24T10:00:18Z</time>
      </trkpt>
      <trkpt lat="45.20897" lon="4.35335">
        <ele>813.6</ele>
        <time>2026-04-24T10:00:23Z</time>
      </trkpt>
      <trkpt lat="45.20897" lon="4.35335">
        <ele>813.6</ele>
        <time>2026-04-24T10:00:28Z</time>
      </trkpt>
      <trkpt lat="45.20897" lon="4.35335">
        <ele>813.6</ele>
        <time>2026-04-24T10:00:33Z</time>
      </trkpt>
      <trkpt lat="45.20897" lon="4.35335">
        <ele>813.6</ele>
        <time>2026-04-24T10:00:38Z</time>
      </trkpt>
      <trkpt lat="45.20897" lon="4.35335">
        <ele>813.6</ele>
        <time>2026-04-24T10:00:43Z</time>
      </trkpt>
      <trkpt lat="45.20897" lon="4.35335">
        <ele>813.6</ele>
        <time>2026-04-24T10:00:48Z</time>
      </trkpt>
      <trkpt lat="45.20897" lon="4.35335">
        <ele>813.6</ele>
        <time>2026-04-24T10:00:53Z</time>
      </trkpt>
      <trkpt lat="45.20897" lon="4.35335">
        <ele>813.6</ele>
        <time>2026-04-24T10:00:58Z</time>
      </trkpt>
      <trkpt lat="45.20897" lon="4.35335">
        <ele>813.6</ele>
        <time>2026-04-24T10:01:03Z</time>
      </trkpt>
      <trkpt lat="45.20897" lon="4.35335">
        <ele>813.6</ele>
        <time>2026-04-24T10:01:08Z</time>
      </trkpt>
      <trkpt lat="45.20897" lon="4.35335">
        <ele>813.6</ele>
        <time>2026-04-24T10:01:13Z</time>
      </trkpt>
      <trkpt lat="45.20897" lon="4.35335">
        <ele>813.6</ele>
        <time>2026-04-24T10:01:18Z</time>
      </trkpt>
      <trkpt lat="45.20897" lon="4.35335">
        <ele>813.6</ele>
        <time>2026-04-24T10:01:23Z</time>
      </trkpt>
      <trkpt lat="45.20897" lon="4.35335">
        <ele>813.6</ele>
        <time>2026-04-24T10:01:28Z</time>
      </trkpt>
      <trkpt lat="45.20897" lon="4.35335">
        <ele>813.6</ele>
        <time>2026-04-24T10:01:33Z</time>
      </trkpt>
      <trkpt lat="45.20897" lon="4.35335">
        <ele>813.6</ele>
        <time>2026-04-24T10:01:38Z</time>
      </trkpt>
      <trkpt lat="45.20897" lon="4.35335">
        <ele>813.6</ele>
        <time>2026-04-24T10:01:43Z</time>
      </trkpt>
      <trkpt lat="45.20897" lon="4.35335">
        <ele>813.6</ele>
        <time>2026-04-24T10:01:48Z</time>
      </trkpt>
      <trkpt lat="45.20897" lon="4.35335">
        <ele>813.6</ele>
        <time>2026-04-24T10:01:53Z</time>
      </trkpt>
      <trkpt lat="45.20897" lon="4.35335">
        <ele>813.6</ele>
        <time>2026-04-24T10:01:58Z</time>
      </trkpt>
      <trkpt lat="45.20897" lon="4.35335">
        <ele>813.6</ele>
        <time>2026-04-24T10:02:03Z</time>
      </trkpt>
      <trkpt lat="45.20897" lon="4.35335">
        <ele>813.6</ele>
        <time>2026-04-24T10:02:08Z</time>
      </trkpt>
      <trkpt lat="45.20897" lon="4.35335">
        <ele>813.6</ele>
        <time>2026-04-24T10:02:13Z</time>
      </trkpt>
      <trkpt lat="45.20897" lon="4.35335">
        <ele>813.6</ele>
        <time>2026-04-24T10:02:18Z</time>
      </trkpt>
      <trkpt lat="45.20897" lon="4.35335">
        <ele>813.6</ele>
        <time>2026-04-24T10:02:23Z</time>
      </trkpt>
      <trkpt lat="45.20897" lon="4.35335">
        <ele>813.6</ele>
        <time>2026-04-24T10:02:28Z</time>
      </trkpt>
      <trkpt lat="45.20897" lon="4.35335">
        <ele>813.6</ele>
        <time>2026-04-24T10:02:33Z</time>
      </trkpt>
      <trkpt lat="45.20897" lon="4.35335">
        <ele>813.6</ele>
        <time>2026-04-24T10:02:38Z</time>
      </trkpt>
      <trkpt lat="45.20897" lon="4.35335">
        <ele>813.6</ele>
        <time>2026-04-24T10:02:43Z</time>
      </trkpt>
      <trkpt lat="45.20897" lon="4.35335">
        <ele>813.6</ele>
        <time>2026-04-24T10:02:48Z</time>
      </trkpt>
      <trkpt lat="45.20897" lon="4.35335">
        <ele>813.6</ele>
        <time>2026-04-24T10:02:53Z</time>
      </trkpt>
      <trkpt lat="45.20897" lon="4.35335">
        <ele>813.6</ele>
        <time>2026-04-24T10:02:58Z</time>
      </trkpt>
      <trkpt lat="45.20897" lon="4.35335">
        <ele>813.6</ele>
        <time>2026-04-24T10:03:03Z</time>
      </trkpt>
      <trkpt lat="45.20897" lon="4.35335">
        <ele>813.6</ele>
        <time>2026-04-24T10:03:08Z</time>
      </trkpt>
      <trkpt lat="45.20897" lon="4.35335">
        <ele>813.6</ele>
        <time>2026-04-24T10:03:13Z</time>
      </trkpt>
      <trkpt lat="45.20897" lon="4.35335">
        <ele>813.6</ele>
        <time>2026-04-24T10:03:18Z</time>
      </trkpt>
      <trkpt lat="45.20897" lon="4.35335">
        <ele>813.6</ele>
        <time>2026-04-24T10:03:23Z</time>
      </trkpt>
      <trkpt lat="45.20897" lon="4.35335">
        <ele>813.6</ele>
        <time>2026-04-24T10:03:28Z</time>
      </trkpt>
      <trkpt lat="45.20897" lon="4.35335">
        <ele>813.6</ele>
        <time>2026-04-24T10:03:33Z</time>
      </trkpt>
      <trkpt lat="45.20897" lon="4.35335">
        <ele>813.6</ele>
        <time>2026-04-24T10:03:38Z</time>
      </trkpt>
      <trkpt lat="45.20897" lon="4.35335">
        <ele>813.6</ele>
        <time>2026-04-24T10:03:43Z</time>
      </trkpt>
      <trkpt lat="45.20897" lon="4.35335">
        <ele>813.6</ele>
        <time>2026-04-24T10:03:48Z</time>
      </trkpt>
      <trkpt lat="45.20897" lon="4.35335">
        <ele>813.6</ele>
        <time>2026-04-24T10:03:53Z</time>
      </trkpt>
      <trkpt lat="45.20897" lon="4.35335">
        <ele>813.6</ele>
        <time>2026-04-24T10:03:58Z</time>
      </trkpt>
      <trkpt lat="45.20897" lon="4.35335">
        <ele>813.6</ele>
        <time>2026-04-24T10:04:03Z</time>
      </trkpt>
      <trkpt lat="45.20897" lon="4.35335">
        <ele>813.6</ele>
        <time>2026-04-24T10:04:08Z</time>
      </trkpt>
      <trkpt lat="45.20897" lon="4.35335">
        <ele>813.6</ele>
        <time>2026-04-24T10:04:13Z</time>
      </trkpt>
      <trkpt lat="45.20897" lon="4.35335">
        <ele>813.6</ele>
        <time>2026-04-24T10:04:18Z</time>
      </trkpt>
      <trkpt lat="45.20897" lon="4.35335">
        <ele>813.6</ele>
        <time>2026-04-24T10:04:23Z</time>
      </trkpt>
      <trkpt lat="45.20897" lon="4.35335">
        <ele>813.6</ele>
        <time>2026-04-24T10:04:28Z</time>
      </trkpt>
      <trkpt lat="45.20897" lon="4.35335">
        <ele>813.6</ele>
        <time>2026-04-24T10:04:33Z</time>
      </trkpt>
      <trkpt lat="45.20897" lon="4.35335">
        <ele>813.6</ele>
        <time>2026-04-24T10:04:38Z</time>
      </trkpt>
      <trkpt lat="45.20897" lon="4.35335">
        <ele>813.6</ele>
        <time>2026-04-24T10:04:43Z</time>
      </trkpt>
      <trkpt lat="45.20897" lon="4.35335">
        <ele>813.6</ele>
        <time>2026-04-24T10:04:48Z</time>
      </trkpt>
      <trkpt lat="45.20897" lon="4.35335">
        <ele>813.6</ele>
        <time>2026-04-24T10:04:53Z</time>
      </trkpt>
      <trkpt lat="45.20897" lon="4.35335">
        <ele>813.6</ele>
        <time>2026-04-24T10:04:58Z</time>
      </trkpt>
      <trkpt lat="45.20897" lon="4.35335">
        <ele>813.6</ele>
        <time>2026-04-24T10:05:03Z</time>
      </trkpt>
      <trkpt lat="45.20897" lon="4.35335">
        <ele>813.6</ele>
        <time>2026-04-24T10:05:08Z</time>
      </trkpt>
      <trkpt lat="45.20897" lon="4.35335">
        <ele>813.6</ele>
        <time>2026-04-24T10:05:13Z</time>
      </trkpt>
      <trkpt lat="45.20897" lon="4.35335">
        <ele>813.6</ele>
        <time>2026-04-24T10:05:18Z</time>
      </trkpt>
      <trkpt lat="45.20897" lon="4.35335">
        <ele>813.6</ele>
        <time>2026-04-24T10:05:23Z</time>
      </trkpt>
      <trkpt lat="45.20897" lon="4.35335">
        <ele>813.6</ele>
        <time>2026-04-24T10:05:28Z</time>
      </trkpt>
      <trkpt lat="45.20897" lon="4.35335">
        <ele>813.6</ele>
        <time>2026-04-24T10:05:33Z</time>
      </trkpt>
      <trkpt lat="45.20897" lon="4.35335">
        <ele>813.6</ele>
        <time>2026-04-24T10:05:38Z</time>
      </trkpt>
      <trkpt lat="45.20897" lon="4.35335">
        <ele>813.6</ele>
        <time>2026-04-24T10:05:43Z</time>
      </trkpt>
      <trkpt lat="45.20897" lon="4.35335">
        <ele>813.6</ele>
        <time>2026-04-24T10:05:48Z</time>
      </trkpt>
      <trkpt lat="45.20897" lon="4.35335">
        <ele>813.6</ele>
        <time>2026-04-24T10:05:53Z</time>
      </trkpt>
      <trkpt lat="45.20897" lon="4.35335">
        <ele>813.6</ele>
        <time>2026-04-24T10:05:58Z</time>
      </trkpt>
      <trkpt lat="45.20897" lon="4.35335">
        <ele>813.6</ele>
        <time>2026-04-24T10:06:03Z</time>
      </trkpt>
      <trkpt lat="45.20897" lon="4.35335">
        <ele>813.6</ele>
        <time>2026-04-24T10:06:08Z</time>
      </trkpt>
      <trkpt lat="45.20897" lon="4.35335">
        <ele>813.6</ele>
        <time>2026-04-24T10:06:13Z</time>
      </trkpt>
      <trkpt lat="45.20897" lon="4.35335">
        <ele>813.6</ele>
        <time>2026-04-24T10:06:18Z</time>
      </trkpt>
      <trkpt lat="45.20897" lon="4.35335">
        <ele>813.6</ele>
        <time>2026-04-24T10:06:23Z</time>
      </trkpt>
      <trkpt lat="45.20897" lon="4.35335">
        <ele>813.6</ele>
        <time>2026-04-24T10:06:28Z</time>
      </trkpt>
      <trkpt lat="45.20897" lon="4.35335">
        <ele>813.6</ele>
        <time>2026-04-24T10:06:33Z</time>
      </trkpt>
      <trkpt lat="45.20897" lon="4.35335">
        <ele>813.6</ele>
        <time>2026-04-24T10:06:38Z</time>
      </trkpt>
      <trkpt lat="45.20897" lon="4.35335">
        <ele>813.6</ele>
        <time>2026-04-24T10:06:43Z</time>
      </trkpt>
      <trkpt lat="45.20897" lon="4.35335">
        <ele>813.6</ele>
        <time>2026-04-24T10:06:48Z</time>
      </trkpt>
      <trkpt lat="45.20897" lon="4.35335">
        <ele>813.6</ele>
        <time>2026-04-24T10:06:53Z</time>
      </trkpt>
      <trkpt lat="45.20897" lon="4.35335">
        <ele>813.6</ele>
        <time>2026-04-24T10:06:58Z</time>
      </trkpt>
      <trkpt lat="45.20897" lon="4.35335">
        <ele>813.6</ele>
        <time>2026-04-24T10:07:03Z</time>
      </trkpt>
      <trkpt lat="45.20897" lon="4.35335">
        <ele>813.6</ele>
        <time>2026-04-24T10:07:08Z</time>
      </trkpt>
      <trkpt lat="45.20897" lon="4.35335">
        <ele>813.6</ele>
        <time>2026-04-24T10:07:13Z</time>
      </trkpt>
      <trkpt lat="45.20897" lon="4.35335">
        <ele>813.6</ele>
        <time>2026-04-24T10:07:18Z</time>
      </trkpt>
      <trkpt lat="45.20897" lon="4.35335">
        <ele>813.6</ele>
        <time>2026-04-24T10:07:23Z</time>
      </trkpt>
      <trkpt lat="45.20897" lon="4.35335">
        <ele>813.6</ele>
        <time>2026-04-24T10:07:28Z</time>
      </trkpt>
      <trkpt lat="45.20897" lon="4.35335">
        <ele>813.6</ele>
        <time>2026-04-24T10:07:33Z</time>
      </trkpt>
      <trkpt lat="45.20897" lon="4.35335">
        <ele>813.6</ele>
        <time>2026-04-24T10:07:38Z</time>
      </trkpt>
      <trkpt lat="45.20897" lon="4.35335">
        <ele>813.6</ele>
        <time>2026-04-24T10:07:43Z</time>
      </trkpt>
      <trkpt lat="45.20897" lon="4.35335">
        <ele>813.6</ele>
        <time>2026-04-24T10:07:48Z</time>
      </trkpt>
      <trkpt lat="45.20897" lon="4.35335">
        <ele>813.6</ele>
        <time>2026-04-24T10:07:53Z</time>
      </trkpt>
      <trkpt lat="45.20897" lon="4.35335">
        <ele>813.6</ele>
        <time>2026-04-24T10:07:58Z</time>
      </trkpt>
      <trkpt lat="45.20897" lon="4.35335">
        <ele>813.6</ele>
        <time>2026-04-24T10:08:03Z</time>
      </trkpt>
      <trkpt lat="45.20897" lon="4.35335">
        <ele>813.6</ele>
        <time>2026-04-24T10:08:08Z</time>
      </trkpt>
      <trkpt lat="45.20897" lon="4.35335">
        <ele>813.6</ele>
        <time>2026-04-24T10:08:13Z</time>
      </trkpt>
      <trkpt lat="45.20897" lon="4.35335">
        <ele>813.6</ele>
        <time>2026-04-24T10:08:18Z</time>
      </trkpt>
      <trkpt lat="45.20897" lon="4.35335">
        <ele>813.6</ele>
        <time>2026-04-24T10:08:23Z</time>
      </trkpt>
      <trkpt lat="45.20897" lon="4.35335">
        <ele>813.6</ele>
        <time>2026-04-24T10:08:28Z</time>
      </trkpt>
      <trkpt lat="45.20897" lon="4.35335">
        <ele>813.6</ele>
        <time>2026-04-24T10:08:33Z</time>
      </trkpt>
      <trkpt lat="45.20897" lon="4.35335">
        <ele>813.6</ele>
        <time>2026-04-24T10:08:38Z</time>
      </trkpt>
      <trkpt lat="45.20897" lon="4.35335">
        <ele>813.6</ele>
        <time>2026-04-24T10:08:43Z</time>
      </trkpt>
      <trkpt lat="45.20897" lon="4.35335">
        <ele>813.6</ele>
        <time>2026-04-24T10:08:48Z</time>
      </trkpt>
      <trkpt lat="45.20897" lon="4.35335">
        <ele>813.6</ele>
        <time>2026-04-24T10:08:53Z</time>
      </trkpt>
      <trkpt lat="45.20897" lon="4.35335">
        <ele>813.6</ele>
        <time>2026-04-24T10:08:58Z</time>
      </trkpt>
      <trkpt lat="45.20897" lon="4.35335">
        <ele>813.6</ele>
        <time>2026-04-24T10:09:03Z</time>
      </trkpt>
      <trkpt lat="45.20897" lon="4.35335">
        <ele>813.6</ele>
        <time>2026-04-24T10:09:08Z</time>
      </trkpt>
      <trkpt lat="45.20897" lon="4.35335">
        <ele>813.6</ele>
        <time>2026-04-24T10:09:13Z</time>
      </trkpt>
      <trkpt lat="45.20897" lon="4.35335">
        <ele>813.6</ele>
        <time>2026-04-24T10:09:18Z</time>
      </trkpt>
      <trkpt lat="45.20897" lon="4.35335">
        <ele>813.6</ele>
        <time>2026-04-24T10:09:23Z</time>
      </trkpt>
      <trkpt lat="45.20897" lon="4.35335">
        <ele>813.6</ele>
        <time>2026-04-24T10:09:28Z</time>
      </trkpt>
      <trkpt lat="45.20897" lon="4.35335">
        <ele>813.6</ele>
        <time>2026-04-24T10:09:33Z</time>
      </trkpt>
      <trkpt lat="45.20897" lon="4.35335">
        <ele>813.6</ele>
        <time>2026-04-24T10:09:38Z</time>
      </trkpt>
      <trkpt lat="45.20897" lon="4.35335">
        <ele>813.6</ele>
        <time>2026-04-24T10:09:43Z</time>
      </trkpt>
      <trkpt lat="45.20897" lon="4.35335">
        <ele>813.6</ele>
        <time>2026-04-24T10:09:48Z</time>
      </trkpt>
      <trkpt lat="45.20897" lon="4.35335">
        <ele>813.6</ele>
        <time>2026-04-24T10:09:53Z</time>
      </trkpt>
      <trkpt lat="45.20897" lon="4.35335">
        <ele>813.6</ele>
        <time>2026-04-24T10:09:58Z</time>
      </trkpt>
      <trkpt lat="45.20897" lon="4.35335">
        <ele>813.6</ele>
        <time>2026-04-24T10:10:03Z</time>
      </trkpt>
      <trkpt lat="45.20901" lon="4.35322">
        <ele>813.2</ele>
        <time>2026-04-24T10:10:08Z</time>
      </trkpt>
      <trkpt lat="45.20905" lon="4.35315">
        <ele>812.8</ele>
        <time>2026-04-24T10:10:13Z</time>
      </trkpt>
      <trkpt lat="45.2091" lon="4.3531">
        <ele>812.2</ele>
        <time>2026-04-24T10:10:18Z</time>
      </trkpt>
      <trkpt lat="45.20914" lon="4.35305">
        <ele>811.7</ele>
        <time>2026-04-24T10:10:23Z</time>
      </trkpt>
      <trkpt lat="45.20918" lon="4.35299">
        <ele>811.4</ele>
        <time>2026-04-24T10:10:28Z</time>
      </trkpt>
      <trkpt lat="45.20923" lon="4.35293">
        <ele>811.2</ele>
        <time>2026-04-24T10:10:33Z</time>
      </trkpt>
      <trkpt lat="45.20926" lon="4.35286">
        <ele>811.1</ele>
        <time>2026-04-24T10:10:38Z</time>
      </trkpt>
      <trkpt lat="45.20932" lon="4.35277">
        <ele>810.9</ele>
        <time>2026-04-24T10:10:43Z</time>
      </trkpt>
      <trkpt lat="45.20935" lon="4.35268">
        <ele>810.8</ele>
        <time>2026-04-24T10:10:48Z</time>
      </trkpt>
      <trkpt lat="45.20938" lon="4.35259">
        <ele>810.7</ele>
        <time>2026-04-24T10:10:53Z</time>
      </trkpt>
      <trkpt lat="45.20941" lon="4.3525">
        <ele>810.5</ele>
        <time>2026-04-24T10:10:58Z</time>
      </trkpt>
      <trkpt lat="45.20944" lon="4.35241">
        <ele>809.8</ele>
        <time>2026-04-24T10:11:03Z</time>
      </trkpt>
      <trkpt lat="45.20947" lon="4.35234">
        <ele>809.1</ele>
        <time>2026-04-24T10:11:08Z</time>
      </trkpt>
      <trkpt lat="45.2095" lon="4.35226">
        <ele>808.3</ele>
        <time>2026-04-24T10:11:13Z</time>
      </trkpt>
      <trkpt lat="45.20953" lon="4.35214">
        <ele>807.2</ele>
        <time>2026-04-24T10:11:18Z</time>
      </trkpt>
      <trkpt lat="45.20956" lon="4.35205">
        <ele>806.2</ele>
        <time>2026-04-24T10:11:23Z</time>
      </trkpt>
      <trkpt lat="45.20956" lon="4.35197">
        <ele>805.6</ele>
        <time>2026-04-24T10:11:28Z</time>
      </trkpt>
      <trkpt lat="45.20954" lon="4.3519">
        <ele>805.3</ele>
        <time>2026-04-24T10:11:33Z</time>
      </trkpt>
      <trkpt lat="45.2095" lon="4.35181">
        <ele>805.2</ele>
        <time>2026-04-24T10:11:38Z</time>
      </trkpt>
      <trkpt lat="45.20945" lon="4.35174">
        <ele>805.4</ele>
        <time>2026-04-24T10:11:43Z</time>
      </trkpt>
      <trkpt lat="45.20941" lon="4.35167">
        <ele>805.5</ele>
        <time>2026-04-24T10:11:48Z</time>
      </trkpt>
      <trkpt lat="45.20937" lon="4.35159">
        <ele>805.4</ele>
        <time>2026-04-24T10:11:53Z</time>
      </trkpt>
      <trkpt lat="45.20934" lon="4.35153">
        <ele>805.3</ele>
        <time>2026-04-24T10:11:58Z</time>
      </trkpt>
      <trkpt lat="45.20931" lon="4.35143">
        <ele>804.8</ele>
        <time>2026-04-24T10:12:03Z</time>
      </trkpt>
      <trkpt lat="45.20928" lon="4.35134">
        <ele>804.4</ele>
        <time>2026-04-24T10:12:08Z</time>
      </trkpt>
      <trkpt lat="45.20927" lon="4.35126">
        <ele>803.8</ele>
        <time>2026-04-24T10:12:13Z</time>
      </trkpt>
      <trkpt lat="45.20926" lon="4.35116">
        <ele>803</ele>
        <time>2026-04-24T10:12:18Z</time>
      </trkpt>
      <trkpt lat="45.20928" lon="4.35107">
        <ele>801.9</ele>
        <time>2026-04-24T10:12:23Z</time>
      </trkpt>
      <trkpt lat="45.20933" lon="4.35096">
        <ele>800.4</ele>
        <time>2026-04-24T10:12:28Z</time>
      </trkpt>
      <trkpt lat="45.20938" lon="4.35091">
        <ele>799.4</ele>
        <time>2026-04-24T10:12:33Z</time>
      </trkpt>
      <trkpt lat="45.20945" lon="4.35086">
        <ele>798.2</ele>
        <time>2026-04-24T10:12:38Z</time>
      </trkpt>
      <trkpt lat="45.20951" lon="4.35084">
        <ele>797.3</ele>
        <time>2026-04-24T10:12:43Z</time>
      </trkpt>
      <trkpt lat="45.20958" lon="4.35083">
        <ele>796.6</ele>
        <time>2026-04-24T10:12:48Z</time>
      </trkpt>
      <trkpt lat="45.20964" lon="4.35082">
        <ele>796.1</ele>
        <time>2026-04-24T10:12:53Z</time>
      </trkpt>
      <trkpt lat="45.20971" lon="4.35077">
        <ele>796</ele>
        <time>2026-04-24T10:12:58Z</time>
      </trkpt>
      <trkpt lat="45.20979" lon="4.35072">
        <ele>795.9</ele>
        <time>2026-04-24T10:13:03Z</time>
      </trkpt>
      <trkpt lat="45.20986" lon="4.35069">
        <ele>795.7</ele>
        <time>2026-04-24T10:13:08Z</time>
      </trkpt>
      <trkpt lat="45.20994" lon="4.35065">
        <ele>795.6</ele>
        <time>2026-04-24T10:13:13Z</time>
      </trkpt>
      <trkpt lat="45.21" lon="4.35061">
        <ele>795.8</ele>
        <time>2026-04-24T10:13:18Z</time>
      </trkpt>
      <trkpt lat="45.21004" lon="4.35056">
        <ele>796.3</ele>
        <time>2026-04-24T10:13:23Z</time>
      </trkpt>
      <trkpt lat="45.21009" lon="4.35053">
        <ele>796.5</ele>
        <time>2026-04-24T10:13:28Z</time>
      </trkpt>
      <trkpt lat="45.21014" lon="4.35047">
        <ele>797.1</ele>
        <time>2026-04-24T10:13:33Z</time>
      </trkpt>
      <trkpt lat="45.2102" lon="4.35042">
        <ele>797.5</ele>
        <time>2026-04-24T10:13:38Z</time>
      </trkpt>
      <trkpt lat="45.21025" lon="4.35039">
        <ele>797.6</ele>
        <time>2026-04-24T10:13:43Z</time>
      </trkpt>
      <trkpt lat="45.21029" lon="4.35035">
        <ele>797.9</ele>
        <time>2026-04-24T10:13:48Z</time>
      </trkpt>
      <trkpt lat="45.21033" lon="4.3503">
        <ele>798.4</ele>
        <time>2026-04-24T10:13:53Z</time>
      </trkpt>
      <trkpt lat="45.2104" lon="4.35026">
        <ele>798.4</ele>
        <time>2026-04-24T10:13:58Z</time>
      </trkpt>
      <trkpt lat="45.21046" lon="4.35021">
        <ele>798.6</ele>
        <time>2026-04-24T10:14:03Z</time>
      </trkpt>
      <trkpt lat="45.21052" lon="4.35017">
        <ele>798.7</ele>
        <time>2026-04-24T10:14:08Z</time>
      </trkpt>
      <trkpt lat="45.21057" lon="4.35013">
        <ele>798.8</ele>
        <time>2026-04-24T10:14:13Z</time>
      </trkpt>
      <trkpt lat="45.21062" lon="4.35004">
        <ele>799.5</ele>
        <time>2026-04-24T10:14:18Z</time>
      </trkpt>
      <trkpt lat="45.21069" lon="4.34998">
        <ele>799.6</ele>
        <time>2026-04-24T10:14:23Z</time>
      </trkpt>
      <trkpt lat="45.21074" lon="4.34994">
        <ele>799.5</ele>
        <time>2026-04-24T10:14:28Z</time>
      </trkpt>
      <trkpt lat="45.2108" lon="4.34989">
        <ele>799.4</ele>
        <time>2026-04-24T10:14:33Z</time>
      </trkpt>
      <trkpt lat="45.21085" lon="4.34983">
        <ele>799.5</ele>
        <time>2026-04-24T10:14:38Z</time>
      </trkpt>
      <trkpt lat="45.2109" lon="4.34976">
        <ele>799.8</ele>
        <time>2026-04-24T10:14:43Z</time>
      </trkpt>
      <trkpt lat="45.21097" lon="4.34969">
        <ele>799.9</ele>
        <time>2026-04-24T10:14:48Z</time>
      </trkpt>
      <trkpt lat="45.21102" lon="4.34963">
        <ele>800.1</ele>
        <time>2026-04-24T10:14:53Z</time>
      </trkpt>
      <trkpt lat="45.21107" lon="4.34958">
        <ele>800.2</ele>
        <time>2026-04-24T10:14:58Z</time>
      </trkpt>
      <trkpt lat="45.21113" lon="4.34953">
        <ele>800.2</ele>
        <time>2026-04-24T10:15:03Z</time>
      </trkpt>
      <trkpt lat="45.2112" lon="4.34947">
        <ele>800.2</ele>
        <time>2026-04-24T10:15:08Z</time>
      </trkpt>
      <trkpt lat="45.21123" lon="4.34941">
        <ele>800.5</ele>
        <time>2026-04-24T10:15:13Z</time>
      </trkpt>
      <trkpt lat="45.21127" lon="4.34934">
        <ele>800.8</ele>
        <time>2026-04-24T10:15:18Z</time>
      </trkpt>
      <trkpt lat="45.21134" lon="4.3493">
        <ele>800.6</ele>
        <time>2026-04-24T10:15:23Z</time>
      </trkpt>
      <trkpt lat="45.2114" lon="4.34923">
        <ele>800.7</ele>
        <time>2026-04-24T10:15:28Z</time>
      </trkpt>
      <trkpt lat="45.21144" lon="4.34917">
        <ele>800.9</ele>
        <time>2026-04-24T10:15:33Z</time>
      </trkpt>
      <trkpt lat="45.21148" lon="4.3491">
        <ele>801.3</ele>
        <time>2026-04-24T10:15:38Z</time>
      </trkpt>
      <trkpt lat="45.21154" lon="4.34903">
        <ele>801.5</ele>
        <time>2026-04-24T10:15:43Z</time>
      </trkpt>
      <trkpt lat="45.21159" lon="4.34896">
        <ele>801.8</ele>
        <time>2026-04-24T10:15:48Z</time>
      </trkpt>
      <trkpt lat="45.21162" lon="4.34888">
        <ele>802.4</ele>
        <time>2026-04-24T10:15:53Z</time>
      </trkpt>
      <trkpt lat="45.21166" lon="4.34879">
        <ele>803.1</ele>
        <time>2026-04-24T10:15:58Z</time>
      </trkpt>
      <trkpt lat="45.21169" lon="4.3487">
        <ele>803.9</ele>
        <time>2026-04-24T10:16:03Z</time>
      </trkpt>
      <trkpt lat="45.21175" lon="4.34865">
        <ele>803.9</ele>
        <time>2026-04-24T10:16:08Z</time>
      </trkpt>
      <trkpt lat="45.21181" lon="4.34865">
        <ele>803.4</ele>
        <time>2026-04-24T10:16:13Z</time>
      </trkpt>
      <trkpt lat="45.21187" lon="4.34864">
        <ele>803.1</ele>
        <time>2026-04-24T10:16:18Z</time>
      </trkpt>
      <trkpt lat="45.21194" lon="4.34861">
        <ele>802.8</ele>
        <time>2026-04-24T10:16:23Z</time>
      </trkpt>
      <trkpt lat="45.21199" lon="4.34857">
        <ele>802.8</ele>
        <time>2026-04-24T10:16:28Z</time>
      </trkpt>
      <trkpt lat="45.21206" lon="4.34854">
        <ele>802.6</ele>
        <time>2026-04-24T10:16:33Z</time>
      </trkpt>
      <trkpt lat="45.2121" lon="4.34843">
        <ele>803.4</ele>
        <time>2026-04-24T10:16:38Z</time>
      </trkpt>
      <trkpt lat="45.21214" lon="4.34834">
        <ele>804</ele>
        <time>2026-04-24T10:16:43Z</time>
      </trkpt>
      <trkpt lat="45.2122" lon="4.34827">
        <ele>804.1</ele>
        <time>2026-04-24T10:16:48Z</time>
      </trkpt>
      <trkpt lat="45.21225" lon="4.3482">
        <ele>804.3</ele>
        <time>2026-04-24T10:16:53Z</time>
      </trkpt>
      <trkpt lat="45.21229" lon="4.34813">
        <ele>804.5</ele>
        <time>2026-04-24T10:16:58Z</time>
      </trkpt>
      <trkpt lat="45.21233" lon="4.34805">
        <ele>804.9</ele>
        <time>2026-04-24T10:17:03Z</time>
      </trkpt>
      <trkpt lat="45.21239" lon="4.34799">
        <ele>804.9</ele>
        <time>2026-04-24T10:17:08Z</time>
      </trkpt>
      <trkpt lat="45.21242" lon="4.34793">
        <ele>805.1</ele>
        <time>2026-04-24T10:17:13Z</time>
      </trkpt>
      <trkpt lat="45.21244" lon="4.34785">
        <ele>805.6</ele>
        <time>2026-04-24T10:17:18Z</time>
      </trkpt>
      <trkpt lat="45.21248" lon="4.34778">
        <ele>805.8</ele>
        <time>2026-04-24T10:17:23Z</time>
      </trkpt>
      <trkpt lat="45.21254" lon="4.34772">
        <ele>805.9</ele>
        <time>2026-04-24T10:17:28Z</time>
      </trkpt>
      <trkpt lat="45.21258" lon="4.34765">
        <ele>806.2</ele>
        <time>2026-04-24T10:17:33Z</time>
      </trkpt>
      <trkpt lat="45.21261" lon="4.34758">
        <ele>806.5</ele>
        <time>2026-04-24T10:17:38Z</time>
      </trkpt>
      <trkpt lat="45.21267" lon="4.34754">
        <ele>806.4</ele>
        <time>2026-04-24T10:17:43Z</time>
      </trkpt>
      <trkpt lat="45.21271" lon="4.34746">
        <ele>806.8</ele>
        <time>2026-04-24T10:17:48Z</time>
      </trkpt>
      <trkpt lat="45.21277" lon="4.34742">
        <ele>806.6</ele>
        <time>2026-04-24T10:17:53Z</time>
      </trkpt>
      <trkpt lat="45.21281" lon="4.34736">
        <ele>806.8</ele>
        <time>2026-04-24T10:17:58Z</time>
      </trkpt>
      <trkpt lat="45.21285" lon="4.3473">
        <ele>806.9</ele>
        <time>2026-04-24T10:18:03Z</time>
      </trkpt>
      <trkpt lat="45.21288" lon="4.34724">
        <ele>807.1</ele>
        <time>2026-04-24T10:18:08Z</time>
      </trkpt>
      <trkpt lat="45.2129" lon="4.34719">
        <ele>807.4</ele>
        <time>2026-04-24T10:18:13Z</time>
      </trkpt>
      <trkpt lat="45.21295" lon="4.34713">
        <ele>807.4</ele>
        <time>2026-04-24T10:18:18Z</time>
      </trkpt>
      <trkpt lat="45.21299" lon="4.34707">
        <ele>807.6</ele>
        <time>2026-04-24T10:18:23Z</time>
      </trkpt>
      <trkpt lat="45.21303" lon="4.347">
        <ele>807.8</ele>
        <time>2026-04-24T10:18:28Z</time>
      </trkpt>
      <trkpt lat="45.21307" lon="4.34692">
        <ele>808.1</ele>
        <time>2026-04-24T10:18:33Z</time>
      </trkpt>
      <trkpt lat="45.21311" lon="4.34684">
        <ele>808.4</ele>
        <time>2026-04-24T10:18:38Z</time>
      </trkpt>
      <trkpt lat="45.21312" lon="4.34674">
        <ele>809</ele>
        <time>2026-04-24T10:18:43Z</time>
      </trkpt>
      <trkpt lat="45.21309" lon="4.34668">
        <ele>809.7</ele>
        <time>2026-04-24T10:18:48Z</time>
      </trkpt>
      <trkpt lat="45.21301" lon="4.34664">
        <ele>810.5</ele>
        <time>2026-04-24T10:18:53Z</time>
      </trkpt>
      <trkpt lat="45.21295" lon="4.34658">
        <ele>811.2</ele>
        <time>2026-04-24T10:18:58Z</time>
      </trkpt>
      <trkpt lat="45.21289" lon="4.34654">
        <ele>811.9</ele>
        <time>2026-04-24T10:19:03Z</time>
      </trkpt>
      <trkpt lat="45.21284" lon="4.34649">
        <ele>812.5</ele>
        <time>2026-04-24T10:19:08Z</time>
      </trkpt>
      <trkpt lat="45.2128" lon="4.34644">
        <ele>813.1</ele>
        <time>2026-04-24T10:19:13Z</time>
      </trkpt>
      <trkpt lat="45.21275" lon="4.34637">
        <ele>813.9</ele>
        <time>2026-04-24T10:19:18Z</time>
      </trkpt>
      <trkpt lat="45.21271" lon="4.34631">
        <ele>814.5</ele>
        <time>2026-04-24T10:19:23Z</time>
      </trkpt>
      <trkpt lat="45.21267" lon="4.34626">
        <ele>815.1</ele>
        <time>2026-04-24T10:19:28Z</time>
      </trkpt>
      <trkpt lat="45.21264" lon="4.34624">
        <ele>815.5</ele>
        <time>2026-04-24T10:19:33Z</time>
      </trkpt>
      <trkpt lat="45.2126" lon="4.34621">
        <ele>816</ele>
        <time>2026-04-24T10:19:38Z</time>
      </trkpt>
      <trkpt lat="45.21257" lon="4.34615">
        <ele>816.5</ele>
        <time>2026-04-24T10:19:43Z</time>
      </trkpt>
      <trkpt lat="45.21254" lon="4.34609">
        <ele>817.1</ele>
        <time>2026-04-24T10:19:48Z</time>
      </trkpt>
      <trkpt lat="45.21251" lon="4.34603">
        <ele>817.7</ele>
        <time>2026-04-24T10:19:53Z</time>
      </trkpt>
      <trkpt lat="45.21246" lon="4.34599">
        <ele>818.5</ele>
        <time>2026-04-24T10:19:58Z</time>
      </trkpt>
      <trkpt lat="45.21241" lon="4.34595">
        <ele>819.2</ele>
        <time>2026-04-24T10:20:03Z</time>
      </trkpt>
      <trkpt lat="45.21236" lon="4.3459">
        <ele>820.1</ele>
        <time>2026-04-24T10:20:08Z</time>
      </trkpt>
      <trkpt lat="45.21234" lon="4.34584">
        <ele>820.7</ele>
        <time>2026-04-24T10:20:13Z</time>
      </trkpt>
      <trkpt lat="45.21232" lon="4.34578">
        <ele>821.5</ele>
        <time>2026-04-24T10:20:18Z</time>
      </trkpt>
      <trkpt lat="45.21229" lon="4.3457">
        <ele>822.6</ele>
        <time>2026-04-24T10:20:23Z</time>
      </trkpt>
      <trkpt lat="45.21226" lon="4.34562">
        <ele>823.7</ele>
        <time>2026-04-24T10:20:28Z</time>
      </trkpt>
      <trkpt lat="45.21224" lon="4.34554">
        <ele>824.7</ele>
        <time>2026-04-24T10:20:33Z</time>
      </trkpt>
      <trkpt lat="45.21224" lon="4.34546">
        <ele>825.5</ele>
        <time>2026-04-24T10:20:38Z</time>
      </trkpt>
      <trkpt lat="45.21223" lon="4.34541">
        <ele>826.1</ele>
        <time>2026-04-24T10:20:43Z</time>
      </trkpt>
      <trkpt lat="45.21221" lon="4.34535">
        <ele>827</ele>
        <time>2026-04-24T10:20:48Z</time>
      </trkpt>
      <trkpt lat="45.21219" lon="4.3453">
        <ele>827.7</ele>
        <time>2026-04-24T10:20:53Z</time>
      </trkpt>
      <trkpt lat="45.21219" lon="4.34522">
        <ele>828.5</ele>
        <time>2026-04-24T10:20:58Z</time>
      </trkpt>
      <trkpt lat="45.21218" lon="4.34515">
        <ele>829.3</ele>
        <time>2026-04-24T10:21:03Z</time>
      </trkpt>
      <trkpt lat="45.21219" lon="4.34507">
        <ele>830</ele>
        <time>2026-04-24T10:21:08Z</time>
      </trkpt>
      <trkpt lat="45.21218" lon="4.34501">
        <ele>830.7</ele>
        <time>2026-04-24T10:21:13Z</time>
      </trkpt>
      <trkpt lat="45.21217" lon="4.34493">
        <ele>831.6</ele>
        <time>2026-04-24T10:21:18Z</time>
      </trkpt>
      <trkpt lat="45.21216" lon="4.34486">
        <ele>832.3</ele>
        <time>2026-04-24T10:21:23Z</time>
      </trkpt>
      <trkpt lat="45.21215" lon="4.34478">
        <ele>833.1</ele>
        <time>2026-04-24T10:21:28Z</time>
      </trkpt>
      <trkpt lat="45.21214" lon="4.34469">
        <ele>834</ele>
        <time>2026-04-24T10:21:33Z</time>
      </trkpt>
      <trkpt lat="45.21213" lon="4.34462">
        <ele>834.7</ele>
        <time>2026-04-24T10:21:38Z</time>
      </trkpt>
      <trkpt lat="45.21212" lon="4.34453">
        <ele>835.6</ele>
        <time>2026-04-24T10:21:43Z</time>
      </trkpt>
      <trkpt lat="45.21209" lon="4.34446">
        <ele>836.5</ele>
        <time>2026-04-24T10:21:48Z</time>
      </trkpt>
      <trkpt lat="45.21206" lon="4.3444">
        <ele>837.3</ele>
        <time>2026-04-24T10:21:53Z</time>
      </trkpt>
      <trkpt lat="45.21204" lon="4.34435">
        <ele>837.9</ele>
        <time>2026-04-24T10:21:58Z</time>
      </trkpt>
      <trkpt lat="45.21202" lon="4.34427">
        <ele>838.8</ele>
        <time>2026-04-24T10:22:03Z</time>
      </trkpt>
      <trkpt lat="45.21199" lon="4.34421">
        <ele>839.5</ele>
        <time>2026-04-24T10:22:08Z</time>
      </trkpt>
      <trkpt lat="45.21196" lon="4.34413">
        <ele>840.4</ele>
        <time>2026-04-24T10:22:13Z</time>
      </trkpt>
      <trkpt lat="45.21194" lon="4.34408">
        <ele>841</ele>
        <time>2026-04-24T10:22:18Z</time>
      </trkpt>
      <trkpt lat="45.21193" lon="4.34408">
        <ele>841.1</ele>
        <time>2026-04-24T10:22:23Z</time>
      </trkpt>
      <trkpt lat="45.2119" lon="4.34405">
        <ele>841.6</ele>
        <time>2026-04-24T10:22:28Z</time>
      </trkpt>
      <trkpt lat="45.21186" lon="4.344">
        <ele>842.4</ele>
        <time>2026-04-24T10:22:33Z</time>
      </trkpt>
      <trkpt lat="45.21183" lon="4.34395">
        <ele>843.1</ele>
        <time>2026-04-24T10:22:38Z</time>
      </trkpt>
      <trkpt lat="45.21179" lon="4.34389">
        <ele>844</ele>
        <time>2026-04-24T10:22:43Z</time>
      </trkpt>
      <trkpt lat="45.21175" lon="4.34386">
        <ele>844.7</ele>
        <time>2026-04-24T10:22:48Z</time>
      </trkpt>
      <trkpt lat="45.21171" lon="4.34383">
        <ele>845.3</ele>
        <time>2026-04-24T10:22:53Z</time>
      </trkpt>
      <trkpt lat="45.21167" lon="4.34379">
        <ele>846.1</ele>
        <time>2026-04-24T10:22:58Z</time>
      </trkpt>
      <trkpt lat="45.21162" lon="4.34375">
        <ele>847</ele>
        <time>2026-04-24T10:23:03Z</time>
      </trkpt>
      <trkpt lat="45.21157" lon="4.34371">
        <ele>847.8</ele>
        <time>2026-04-24T10:23:08Z</time>
      </trkpt>
      <trkpt lat="45.21152" lon="4.34368">
        <ele>848.6</ele>
        <time>2026-04-24T10:23:13Z</time>
      </trkpt>
      <trkpt lat="45.21148" lon="4.34363">
        <ele>849.4</ele>
        <time>2026-04-24T10:23:18Z</time>
      </trkpt>
      <trkpt lat="45.21145" lon="4.3436">
        <ele>850</ele>
        <time>2026-04-24T10:23:23Z</time>
      </trkpt>
      <trkpt lat="45.2114" lon="4.34357">
        <ele>850.8</ele>
        <time>2026-04-24T10:23:28Z</time>
      </trkpt>
      <trkpt lat="45.21135" lon="4.34355">
        <ele>851.5</ele>
        <time>2026-04-24T10:23:33Z</time>
      </trkpt>
      <trkpt lat="45.21131" lon="4.34352">
        <ele>852.2</ele>
        <time>2026-04-24T10:23:38Z</time>
      </trkpt>
      <trkpt lat="45.21127" lon="4.34349">
        <ele>852.9</ele>
        <time>2026-04-24T10:23:43Z</time>
      </trkpt>
      <trkpt lat="45.21123" lon="4.34345">
        <ele>853.7</ele>
        <time>2026-04-24T10:23:48Z</time>
      </trkpt>
      <trkpt lat="45.21118" lon="4.34344">
        <ele>854.3</ele>
        <time>2026-04-24T10:23:53Z</time>
      </trkpt>
      <trkpt lat="45.21115" lon="4.3434">
        <ele>855</ele>
        <time>2026-04-24T10:23:58Z</time>
      </trkpt>
      <trkpt lat="45.21111" lon="4.34337">
        <ele>855.7</ele>
        <time>2026-04-24T10:24:03Z</time>
      </trkpt>
      <trkpt lat="45.21107" lon="4.34335">
        <ele>856.3</ele>
        <time>2026-04-24T10:24:08Z</time>
      </trkpt>
      <trkpt lat="45.21103" lon="4.34333">
        <ele>856.9</ele>
        <time>2026-04-24T10:24:13Z</time>
      </trkpt>
      <trkpt lat="45.21099" lon="4.3433">
        <ele>857.5</ele>
        <time>2026-04-24T10:24:18Z</time>
      </trkpt>
      <trkpt lat="45.21096" lon="4.34326">
        <ele>858.1</ele>
        <time>2026-04-24T10:24:23Z</time>
      </trkpt>
      <trkpt lat="45.21091" lon="4.34322">
        <ele>858.9</ele>
        <time>2026-04-24T10:24:28Z</time>
      </trkpt>
      <trkpt lat="45.21087" lon="4.34318">
        <ele>859.5</ele>
        <time>2026-04-24T10:24:33Z</time>
      </trkpt>
      <trkpt lat="45.21084" lon="4.34313">
        <ele>860.1</ele>
        <time>2026-04-24T10:24:38Z</time>
      </trkpt>
      <trkpt lat="45.2108" lon="4.34309">
        <ele>860.6</ele>
        <time>2026-04-24T10:24:43Z</time>
      </trkpt>
      <trkpt lat="45.21077" lon="4.34304">
        <ele>861.1</ele>
        <time>2026-04-24T10:24:48Z</time>
      </trkpt>
      <trkpt lat="45.21074" lon="4.34301">
        <ele>861.4</ele>
        <time>2026-04-24T10:24:53Z</time>
      </trkpt>
      <trkpt lat="45.21073" lon="4.34297">
        <ele>861.7</ele>
        <time>2026-04-24T10:24:58Z</time>
      </trkpt>
      <trkpt lat="45.21072" lon="4.34293">
        <ele>862</ele>
        <time>2026-04-24T10:25:03Z</time>
      </trkpt>
      <trkpt lat="45.21071" lon="4.34288">
        <ele>862.3</ele>
        <time>2026-04-24T10:25:08Z</time>
      </trkpt>
      <trkpt lat="45.21071" lon="4.34283">
        <ele>862.6</ele>
        <time>2026-04-24T10:25:13Z</time>
      </trkpt>
      <trkpt lat="45.21069" lon="4.34278">
        <ele>863</ele>
        <time>2026-04-24T10:25:18Z</time>
      </trkpt>
      <trkpt lat="45.21067" lon="4.34274">
        <ele>863.3</ele>
        <time>2026-04-24T10:25:23Z</time>
      </trkpt>
      <trkpt lat="45.21065" lon="4.34268">
        <ele>863.7</ele>
        <time>2026-04-24T10:25:28Z</time>
      </trkpt>
      <trkpt lat="45.21065" lon="4.3426">
        <ele>864.1</ele>
        <time>2026-04-24T10:25:33Z</time>
      </trkpt>
      <trkpt lat="45.21066" lon="4.34253">
        <ele>864.5</ele>
        <time>2026-04-24T10:25:38Z</time>
      </trkpt>
      <trkpt lat="45.21064" lon="4.34247">
        <ele>864.8</ele>
        <time>2026-04-24T10:25:43Z</time>
      </trkpt>
      <trkpt lat="45.21061" lon="4.3424">
        <ele>865.2</ele>
        <time>2026-04-24T10:25:48Z</time>
      </trkpt>
      <trkpt lat="45.21058" lon="4.34233">
        <ele>865.7</ele>
        <time>2026-04-24T10:25:53Z</time>
      </trkpt>
      <trkpt lat="45.21053" lon="4.34228">
        <ele>866.2</ele>
        <time>2026-04-24T10:25:58Z</time>
      </trkpt>
      <trkpt lat="45.21051" lon="4.34222">
        <ele>866.6</ele>
        <time>2026-04-24T10:26:03Z</time>
      </trkpt>
      <trkpt lat="45.21049" lon="4.34217">
        <ele>867</ele>
        <time>2026-04-24T10:26:08Z</time>
      </trkpt>
      <trkpt lat="45.21049" lon="4.34213">
        <ele>867.2</ele>
        <time>2026-04-24T10:26:13Z</time>
      </trkpt>
      <trkpt lat="45.21053" lon="4.34212">
        <ele>867</ele>
        <time>2026-04-24T10:26:18Z</time>
      </trkpt>
      <trkpt lat="45.21056" lon="4.34211">
        <ele>866.8</ele>
        <time>2026-04-24T10:26:23Z</time>
      </trkpt>
      <trkpt lat="45.2106" lon="4.34211">
        <ele>866.6</ele>
        <time>2026-04-24T10:26:28Z</time>
      </trkpt>
      <trkpt lat="45.21062" lon="4.34212">
        <ele>866.4</ele>
        <time>2026-04-24T10:26:33Z</time>
      </trkpt>
      <trkpt lat="45.21064" lon="4.34211">
        <ele>866.3</ele>
        <time>2026-04-24T10:26:38Z</time>
      </trkpt>
      <trkpt lat="45.21064" lon="4.34211">
        <ele>866.3</ele>
        <time>2026-04-24T10:26:43Z</time>
      </trkpt>
      <trkpt lat="45.21064" lon="4.34211">
        <ele>866.3</ele>
        <time>2026-04-24T10:26:48Z</time>
      </trkpt>
      <trkpt lat="45.21064" lon="4.34211">
        <ele>866.3</ele>
        <time>2026-04-24T10:26:53Z</time>
      </trkpt>
      <trkpt lat="45.21064" lon="4.34211">
        <ele>866.3</ele>
        <time>2026-04-24T10:26:58Z</time>
      </trkpt>
      <trkpt lat="45.21064" lon="4.34211">
        <ele>866.3</ele>
        <time>2026-04-24T10:27:03Z</time>
      </trkpt>
      <trkpt lat="45.21064" lon="4.34211">
        <ele>866.3</ele>
        <time>2026-04-24T10:27:08Z</time>
      </trkpt>
      <trkpt lat="45.21064" lon="4.34211">
        <ele>866.3</ele>
        <time>2026-04-24T10:27:13Z</time>
      </trkpt>
      <trkpt lat="45.21064" lon="4.34211">
        <ele>866.3</ele>
        <time>2026-04-24T10:27:18Z</time>
      </trkpt>
      <trkpt lat="45.21064" lon="4.34211">
        <ele>866.3</ele>
        <time>2026-04-24T10:27:23Z</time>
      </trkpt>
      <trkpt lat="45.21064" lon="4.34211">
        <ele>866.3</ele>
        <time>2026-04-24T10:27:28Z</time>
      </trkpt>
      <trkpt lat="45.21064" lon="4.34211">
        <ele>866.3</ele>
        <time>2026-04-24T10:27:33Z</time>
      </trkpt>
      <trkpt lat="45.21064" lon="4.34211">
        <ele>866.3</ele>
        <time>2026-04-24T10:27:38Z</time>
      </trkpt>
      <trkpt lat="45.21064" lon="4.34211">
        <ele>866.3</ele>
        <time>2026-04-24T10:27:43Z</time>
      </trkpt>
      <trkpt lat="45.21064" lon="4.34211">
        <ele>866.3</ele>
        <time>2026-04-24T10:27:48Z</time>
      </trkpt>
      <trkpt lat="45.21056" lon="4.34211">
        <ele>866.8</ele>
        <time>2026-04-24T10:27:53Z</time>
      </trkpt>
      <trkpt lat="45.21049" lon="4.34213">
        <ele>867.2</ele>
        <time>2026-04-24T10:27:58Z</time>
      </trkpt>
      <trkpt lat="45.21044" lon="4.34214">
        <ele>867.5</ele>
        <time>2026-04-24T10:28:03Z</time>
      </trkpt>
      <trkpt lat="45.21043" lon="4.34215">
        <ele>867.5</ele>
        <time>2026-04-24T10:28:08Z</time>
      </trkpt>
      <trkpt lat="45.21042" lon="4.34215">
        <ele>867.6</ele>
        <time>2026-04-24T10:28:13Z</time>
      </trkpt>
      <trkpt lat="45.21042" lon="4.34215">
        <ele>867.6</ele>
        <time>2026-04-24T10:28:18Z</time>
      </trkpt>
      <trkpt lat="45.21036" lon="4.34211">
        <ele>868.2</ele>
        <time>2026-04-24T10:28:23Z</time>
      </trkpt>
      <trkpt lat="45.21034" lon="4.34203">
        <ele>868.9</ele>
        <time>2026-04-24T10:28:28Z</time>
      </trkpt>
      <trkpt lat="45.21032" lon="4.34195">
        <ele>869.6</ele>
        <time>2026-04-24T10:28:33Z</time>
      </trkpt>
      <trkpt lat="45.21029" lon="4.34186">
        <ele>870.5</ele>
        <time>2026-04-24T10:28:38Z</time>
      </trkpt>
      <trkpt lat="45.21026" lon="4.34178">
        <ele>871.4</ele>
        <time>2026-04-24T10:28:43Z</time>
      </trkpt>
      <trkpt lat="45.21024" lon="4.3417">
        <ele>872.2</ele>
        <time>2026-04-24T10:28:48Z</time>
      </trkpt>
      <trkpt lat="45.21023" lon="4.34162">
        <ele>873</ele>
        <time>2026-04-24T10:28:53Z</time>
      </trkpt>
      <trkpt lat="45.21021" lon="4.34152">
        <ele>874.4</ele>
        <time>2026-04-24T10:28:58Z</time>
      </trkpt>
      <trkpt lat="45.21019" lon="4.34144">
        <ele>875.6</ele>
        <time>2026-04-24T10:29:03Z</time>
      </trkpt>
      <trkpt lat="45.21018" lon="4.34136">
        <ele>876.6</ele>
        <time>2026-04-24T10:29:08Z</time>
      </trkpt>
      <trkpt lat="45.21017" lon="4.34125">
        <ele>878.1</ele>
        <time>2026-04-24T10:29:13Z</time>
      </trkpt>
      <trkpt lat="45.21016" lon="4.34115">
        <ele>879.4</ele>
        <time>2026-04-24T10:29:18Z</time>
      </trkpt>
      <trkpt lat="45.21016" lon="4.34106">
        <ele>880.4</ele>
        <time>2026-04-24T10:29:23Z</time>
      </trkpt>
      <trkpt lat="45.21019" lon="4.34097">
        <ele>881</ele>
        <time>2026-04-24T10:29:28Z</time>
      </trkpt>
      <trkpt lat="45.21022" lon="4.34088">
        <ele>881.5</ele>
        <time>2026-04-24T10:29:33Z</time>
      </trkpt>
      <trkpt lat="45.21024" lon="4.34081">
        <ele>882.2</ele>
        <time>2026-04-24T10:29:38Z</time>
      </trkpt>
      <trkpt lat="45.21027" lon="4.34072">
        <ele>883.5</ele>
        <time>2026-04-24T10:29:43Z</time>
      </trkpt>
      <trkpt lat="45.2103" lon="4.34065">
        <ele>884.5</ele>
        <time>2026-04-24T10:29:48Z</time>
      </trkpt>
      <trkpt lat="45.21033" lon="4.34056">
        <ele>885.8</ele>
        <time>2026-04-24T10:29:53Z</time>
      </trkpt>
      <trkpt lat="45.21038" lon="4.34048">
        <ele>886.6</ele>
        <time>2026-04-24T10:29:58Z</time>
      </trkpt>
      <trkpt lat="45.21042" lon="4.3404">
        <ele>887.5</ele>
        <time>2026-04-24T10:30:03Z</time>
      </trkpt>
      <trkpt lat="45.21046" lon="4.34031">
        <ele>888.7</ele>
        <time>2026-04-24T10:30:08Z</time>
      </trkpt>
      <trkpt lat="45.2105" lon="4.34023">
        <ele>889.6</ele>
        <time>2026-04-24T10:30:13Z</time>
      </trkpt>
      <trkpt lat="45.21052" lon="4.34015">
        <ele>890.9</ele>
        <time>2026-04-24T10:30:18Z</time>
      </trkpt>
      <trkpt lat="45.21054" lon="4.34008">
        <ele>892</ele>
        <time>2026-04-24T10:30:23Z</time>
      </trkpt>
      <trkpt lat="45.21057" lon="4.34001">
        <ele>892.8</ele>
        <time>2026-04-24T10:30:28Z</time>
      </trkpt>
      <trkpt lat="45.21059" lon="4.33994">
        <ele>893.8</ele>
        <time>2026-04-24T10:30:33Z</time>
      </trkpt>
      <trkpt lat="45.21062" lon="4.33985">
        <ele>894.9</ele>
        <time>2026-04-24T10:30:38Z</time>
      </trkpt>
      <trkpt lat="45.21064" lon="4.33978">
        <ele>895.9</ele>
        <time>2026-04-24T10:30:43Z</time>
      </trkpt>
      <trkpt lat="45.21066" lon="4.33969">
        <ele>897.3</ele>
        <time>2026-04-24T10:30:48Z</time>
      </trkpt>
      <trkpt lat="45.21067" lon="4.33961">
        <ele>898.6</ele>
        <time>2026-04-24T10:30:53Z</time>
      </trkpt>
      <trkpt lat="45.2107" lon="4.33953">
        <ele>899.7</ele>
        <time>2026-04-24T10:30:58Z</time>
      </trkpt>
      <trkpt lat="45.21072" lon="4.33944">
        <ele>901.1</ele>
        <time>2026-04-24T10:31:03Z</time>
      </trkpt>
      <trkpt lat="45.21074" lon="4.33938">
        <ele>902</ele>
        <time>2026-04-24T10:31:08Z</time>
      </trkpt>
      <trkpt lat="45.21075" lon="4.33932">
        <ele>903.1</ele>
        <time>2026-04-24T10:31:13Z</time>
      </trkpt>
      <trkpt lat="45.21076" lon="4.33927">
        <ele>903.9</ele>
        <time>2026-04-24T10:31:18Z</time>
      </trkpt>
      <trkpt lat="45.21078" lon="4.33921">
        <ele>904.8</ele>
        <time>2026-04-24T10:31:23Z</time>
      </trkpt>
      <trkpt lat="45.2108" lon="4.33915">
        <ele>905.7</ele>
        <time>2026-04-24T10:31:28Z</time>
      </trkpt>
      <trkpt lat="45.21082" lon="4.33907">
        <ele>906.5</ele>
        <time>2026-04-24T10:31:33Z</time>
      </trkpt>
      <trkpt lat="45.21084" lon="4.339">
        <ele>907.1</ele>
        <time>2026-04-24T10:31:38Z</time>
      </trkpt>
      <trkpt lat="45.21086" lon="4.33892">
        <ele>907.8</ele>
        <time>2026-04-24T10:31:43Z</time>
      </trkpt>
      <trkpt lat="45.21089" lon="4.33886">
        <ele>908</ele>
        <time>2026-04-24T10:31:48Z</time>
      </trkpt>
      <trkpt lat="45.21091" lon="4.33879">
        <ele>908.6</ele>
        <time>2026-04-24T10:31:53Z</time>
      </trkpt>
      <trkpt lat="45.21094" lon="4.33871">
        <ele>909.1</ele>
        <time>2026-04-24T10:31:58Z</time>
      </trkpt>
      <trkpt lat="45.21096" lon="4.33862">
        <ele>909.9</ele>
        <time>2026-04-24T10:32:03Z</time>
      </trkpt>
      <trkpt lat="45.21099" lon="4.33853">
        <ele>910.6</ele>
        <time>2026-04-24T10:32:08Z</time>
      </trkpt>
      <trkpt lat="45.21102" lon="4.33847">
        <ele>910.8</ele>
        <time>2026-04-24T10:32:13Z</time>
      </trkpt>
      <trkpt lat="45.21105" lon="4.33841">
        <ele>911.1</ele>
        <time>2026-04-24T10:32:18Z</time>
      </trkpt>
      <trkpt lat="45.21108" lon="4.33833">
        <ele>911.6</ele>
        <time>2026-04-24T10:32:23Z</time>
      </trkpt>
      <trkpt lat="45.21112" lon="4.33825">
        <ele>912.3</ele>
        <time>2026-04-24T10:32:28Z</time>
      </trkpt>
      <trkpt lat="45.21118" lon="4.33816">
        <ele>912.8</ele>
        <time>2026-04-24T10:32:33Z</time>
      </trkpt>
      <trkpt lat="45.21122" lon="4.33808">
        <ele>913.4</ele>
        <time>2026-04-24T10:32:38Z</time>
      </trkpt>
      <trkpt lat="45.21125" lon="4.338">
        <ele>914.3</ele>
        <time>2026-04-24T10:32:43Z</time>
      </trkpt>
      <trkpt lat="45.21127" lon="4.33789">
        <ele>915.9</ele>
        <time>2026-04-24T10:32:48Z</time>
      </trkpt>
      <trkpt lat="45.21129" lon="4.33779">
        <ele>917.3</ele>
        <time>2026-04-24T10:32:53Z</time>
      </trkpt>
      <trkpt lat="45.21131" lon="4.33771">
        <ele>918.3</ele>
        <time>2026-04-24T10:32:58Z</time>
      </trkpt>
      <trkpt lat="45.21133" lon="4.33761">
        <ele>919.7</ele>
        <time>2026-04-24T10:33:03Z</time>
      </trkpt>
      <trkpt lat="45.21136" lon="4.33752">
        <ele>920.8</ele>
        <time>2026-04-24T10:33:08Z</time>
      </trkpt>
      <trkpt lat="45.21139" lon="4.33742">
        <ele>922.1</ele>
        <time>2026-04-24T10:33:13Z</time>
      </trkpt>
      <trkpt lat="45.21141" lon="4.33734">
        <ele>923.1</ele>
        <time>2026-04-24T10:33:18Z</time>
      </trkpt>
      <trkpt lat="45.21145" lon="4.33726">
        <ele>923.9</ele>
        <time>2026-04-24T10:33:23Z</time>
      </trkpt>
      <trkpt lat="45.2115" lon="4.33717">
        <ele>924.8</ele>
        <time>2026-04-24T10:33:28Z</time>
      </trkpt>
      <trkpt lat="45.21155" lon="4.33708">
        <ele>925.7</ele>
        <time>2026-04-24T10:33:33Z</time>
      </trkpt>
      <trkpt lat="45.21159" lon="4.33701">
        <ele>926.5</ele>
        <time>2026-04-24T10:33:38Z</time>
      </trkpt>
      <trkpt lat="45.21162" lon="4.33693">
        <ele>927.6</ele>
        <time>2026-04-24T10:33:43Z</time>
      </trkpt>
      <trkpt lat="45.21167" lon="4.33685">
        <ele>928.4</ele>
        <time>2026-04-24T10:33:48Z</time>
      </trkpt>
      <trkpt lat="45.21172" lon="4.33678">
        <ele>928</ele>
        <time>2026-04-24T10:33:53Z</time>
      </trkpt>
      <trkpt lat="45.21177" lon="4.3367">
        <ele>927.9</ele>
        <time>2026-04-24T10:33:58Z</time>
      </trkpt>
      <trkpt lat="45.2118" lon="4.33662">
        <ele>928.1</ele>
        <time>2026-04-24T10:34:03Z</time>
      </trkpt>
      <trkpt lat="45.21183" lon="4.33654">
        <ele>928.1</ele>
        <time>2026-04-24T10:34:08Z</time>
      </trkpt>
      <trkpt lat="45.21186" lon="4.33646">
        <ele>928.1</ele>
        <time>2026-04-24T10:34:13Z</time>
      </trkpt>
      <trkpt lat="45.21188" lon="4.33639">
        <ele>928.3</ele>
        <time>2026-04-24T10:34:18Z</time>
      </trkpt>
      <trkpt lat="45.21192" lon="4.33631">
        <ele>928</ele>
        <time>2026-04-24T10:34:23Z</time>
      </trkpt>
      <trkpt lat="45.21194" lon="4.33622">
        <ele>928.5</ele>
        <time>2026-04-24T10:34:28Z</time>
      </trkpt>
      <trkpt lat="45.21198" lon="4.33613">
        <ele>928.4</ele>
        <time>2026-04-24T10:34:33Z</time>
      </trkpt>
      <trkpt lat="45.21202" lon="4.33605">
        <ele>928.2</ele>
        <time>2026-04-24T10:34:38Z</time>
      </trkpt>
      <trkpt lat="45.21205" lon="4.33597">
        <ele>928.2</ele>
        <time>2026-04-24T10:34:43Z</time>
      </trkpt>
      <trkpt lat="45.21207" lon="4.33588">
        <ele>928.8</ele>
        <time>2026-04-24T10:34:48Z</time>
      </trkpt>
      <trkpt lat="45.2121" lon="4.33579">
        <ele>928.9</ele>
        <time>2026-04-24T10:34:53Z</time>
      </trkpt>
      <trkpt lat="45.21212" lon="4.33569">
        <ele>929.2</ele>
        <time>2026-04-24T10:34:58Z</time>
      </trkpt>
      <trkpt lat="45.21216" lon="4.33562">
        <ele>928.6</ele>
        <time>2026-04-24T10:35:03Z</time>
      </trkpt>
      <trkpt lat="45.21218" lon="4.33554">
        <ele>928.8</ele>
        <time>2026-04-24T10:35:08Z</time>
      </trkpt>
      <trkpt lat="45.21222" lon="4.33547">
        <ele>928.4</ele>
        <time>2026-04-24T10:35:13Z</time>
      </trkpt>
      <trkpt lat="45.21226" lon="4.33538">
        <ele>928.1</ele>
        <time>2026-04-24T10:35:18Z</time>
      </trkpt>
      <trkpt lat="45.21229" lon="4.3353">
        <ele>928.1</ele>
        <time>2026-04-24T10:35:23Z</time>
      </trkpt>
      <trkpt lat="45.21235" lon="4.33523">
        <ele>927.3</ele>
        <time>2026-04-24T10:35:28Z</time>
      </trkpt>
      <trkpt lat="45.21241" lon="4.33515">
        <ele>926.6</ele>
        <time>2026-04-24T10:35:33Z</time>
      </trkpt>
      <trkpt lat="45.21244" lon="4.33506">
        <ele>926.8</ele>
        <time>2026-04-24T10:35:38Z</time>
      </trkpt>
      <trkpt lat="45.21247" lon="4.33498">
        <ele>926.9</ele>
        <time>2026-04-24T10:35:43Z</time>
      </trkpt>
      <trkpt lat="45.2125" lon="4.33491">
        <ele>926.5</ele>
        <time>2026-04-24T10:35:48Z</time>
      </trkpt>
      <trkpt lat="45.21255" lon="4.33483">
        <ele>925.4</ele>
        <time>2026-04-24T10:35:53Z</time>
      </trkpt>
      <trkpt lat="45.2126" lon="4.33475">
        <ele>924.3</ele>
        <time>2026-04-24T10:35:58Z</time>
      </trkpt>
      <trkpt lat="45.21267" lon="4.33468">
        <ele>922.4</ele>
        <time>2026-04-24T10:36:03Z</time>
      </trkpt>
      <trkpt lat="45.21272" lon="4.33466">
        <ele>920.9</ele>
        <time>2026-04-24T10:36:08Z</time>
      </trkpt>
      <trkpt lat="45.2127" lon="4.33465">
        <ele>921.6</ele>
        <time>2026-04-24T10:36:13Z</time>
      </trkpt>
      <trkpt lat="45.2127" lon="4.33464">
        <ele>921.7</ele>
        <time>2026-04-24T10:36:18Z</time>
      </trkpt>
      <trkpt lat="45.2127" lon="4.33464">
        <ele>921.7</ele>
        <time>2026-04-24T10:36:23Z</time>
      </trkpt>
      <trkpt lat="45.2127" lon="4.33462">
        <ele>921.8</ele>
        <time>2026-04-24T10:36:28Z</time>
      </trkpt>
      <trkpt lat="45.21277" lon="4.33457">
        <ele>919.8</ele>
        <time>2026-04-24T10:36:33Z</time>
      </trkpt>
      <trkpt lat="45.21284" lon="4.33452">
        <ele>917.9</ele>
        <time>2026-04-24T10:36:38Z</time>
      </trkpt>
      <trkpt lat="45.21291" lon="4.33447">
        <ele>915.9</ele>
        <time>2026-04-24T10:36:43Z</time>
      </trkpt>
      <trkpt lat="45.21297" lon="4.33441">
        <ele>914.3</ele>
        <time>2026-04-24T10:36:48Z</time>
      </trkpt>
      <trkpt lat="45.21302" lon="4.33437">
        <ele>912.9</ele>
        <time>2026-04-24T10:36:53Z</time>
      </trkpt>
      <trkpt lat="45.21308" lon="4.33432">
        <ele>911.3</ele>
        <time>2026-04-24T10:36:58Z</time>
      </trkpt>
      <trkpt lat="45.21312" lon="4.33427">
        <ele>910.3</ele>
        <time>2026-04-24T10:37:03Z</time>
      </trkpt>
      <trkpt lat="45.21316" lon="4.3342">
        <ele>909.4</ele>
        <time>2026-04-24T10:37:08Z</time>
      </trkpt>
      <trkpt lat="45.21318" lon="4.33412">
        <ele>909.4</ele>
        <time>2026-04-24T10:37:13Z</time>
      </trkpt>
      <trkpt lat="45.21319" lon="4.334">
        <ele>910.3</ele>
        <time>2026-04-24T10:37:18Z</time>
      </trkpt>
      <trkpt lat="45.21317" lon="4.3339">
        <ele>911.9</ele>
        <time>2026-04-24T10:37:23Z</time>
      </trkpt>
      <trkpt lat="45.21317" lon="4.33378">
        <ele>913</ele>
        <time>2026-04-24T10:37:28Z</time>
      </trkpt>
      <trkpt lat="45.21316" lon="4.33368">
        <ele>914.2</ele>
        <time>2026-04-24T10:37:33Z</time>
      </trkpt>
      <trkpt lat="45.21315" lon="4.33359">
        <ele>915.3</ele>
        <time>2026-04-24T10:37:38Z</time>
      </trkpt>
      <trkpt lat="45.21314" lon="4.3335">
        <ele>916.4</ele>
        <time>2026-04-24T10:37:43Z</time>
      </trkpt>
      <trkpt lat="45.21313" lon="4.3334">
        <ele>917.5</ele>
        <time>2026-04-24T10:37:48Z</time>
      </trkpt>
      <trkpt lat="45.21311" lon="4.3333">
        <ele>918.6</ele>
        <time>2026-04-24T10:37:53Z</time>
      </trkpt>
      <trkpt lat="45.21311" lon="4.33323">
        <ele>918.7</ele>
        <time>2026-04-24T10:37:58Z</time>
      </trkpt>
      <trkpt lat="45.21313" lon="4.33317">
        <ele>918.4</ele>
        <time>2026-04-24T10:38:03Z</time>
      </trkpt>
      <trkpt lat="45.21315" lon="4.33311">
        <ele>918.1</ele>
        <time>2026-04-24T10:38:08Z</time>
      </trkpt>
      <trkpt lat="45.21317" lon="4.33304">
        <ele>917.9</ele>
        <time>2026-04-24T10:38:13Z</time>
      </trkpt>
      <trkpt lat="45.21319" lon="4.33296">
        <ele>917.8</ele>
        <time>2026-04-24T10:38:18Z</time>
      </trkpt>
      <trkpt lat="45.21321" lon="4.33288">
        <ele>917.7</ele>
        <time>2026-04-24T10:38:23Z</time>
      </trkpt>
      <trkpt lat="45.21324" lon="4.3328">
        <ele>917.6</ele>
        <time>2026-04-24T10:38:28Z</time>
      </trkpt>
      <trkpt lat="45.2133" lon="4.33269">
        <ele>917.4</ele>
        <time>2026-04-24T10:38:33Z</time>
      </trkpt>
      <trkpt lat="45.21335" lon="4.33261">
        <ele>917.1</ele>
        <time>2026-04-24T10:38:38Z</time>
      </trkpt>
      <trkpt lat="45.21338" lon="4.33254">
        <ele>916.8</ele>
        <time>2026-04-24T10:38:43Z</time>
      </trkpt>
      <trkpt lat="45.21343" lon="4.33246">
        <ele>915.6</ele>
        <time>2026-04-24T10:38:48Z</time>
      </trkpt>
      <trkpt lat="45.21346" lon="4.3324">
        <ele>914.4</ele>
        <time>2026-04-24T10:38:53Z</time>
      </trkpt>
      <trkpt lat="45.21349" lon="4.33234">
        <ele>913.2</ele>
        <time>2026-04-24T10:38:58Z</time>
      </trkpt>
      <trkpt lat="45.21354" lon="4.33227">
        <ele>911.6</ele>
        <time>2026-04-24T10:39:03Z</time>
      </trkpt>
      <trkpt lat="45.21357" lon="4.3322">
        <ele>910.5</ele>
        <time>2026-04-24T10:39:08Z</time>
      </trkpt>
      <trkpt lat="45.21362" lon="4.33212">
        <ele>909</ele>
        <time>2026-04-24T10:39:13Z</time>
      </trkpt>
      <trkpt lat="45.21363" lon="4.33203">
        <ele>908.1</ele>
        <time>2026-04-24T10:39:18Z</time>
      </trkpt>
      <trkpt lat="45.21361" lon="4.33194">
        <ele>907.6</ele>
        <time>2026-04-24T10:39:23Z</time>
      </trkpt>
      <trkpt lat="45.21358" lon="4.33185">
        <ele>907.2</ele>
        <time>2026-04-24T10:39:28Z</time>
      </trkpt>
      <trkpt lat="45.21351" lon="4.33177">
        <ele>907.3</ele>
        <time>2026-04-24T10:39:33Z</time>
      </trkpt>
      <trkpt lat="45.21343" lon="4.33173">
        <ele>907.8</ele>
        <time>2026-04-24T10:39:38Z</time>
      </trkpt>
      <trkpt lat="45.21336" lon="4.33172">
        <ele>908.4</ele>
        <time>2026-04-24T10:39:43Z</time>
      </trkpt>
      <trkpt lat="45.21329" lon="4.33171">
        <ele>908.5</ele>
        <time>2026-04-24T10:39:48Z</time>
      </trkpt>
      <trkpt lat="45.21322" lon="4.33172">
        <ele>908.7</ele>
        <time>2026-04-24T10:39:53Z</time>
      </trkpt>
      <trkpt lat="45.21316" lon="4.33174">
        <ele>909</ele>
        <time>2026-04-24T10:39:58Z</time>
      </trkpt>
      <trkpt lat="45.21309" lon="4.33174">
        <ele>909</ele>
        <time>2026-04-24T10:40:03Z</time>
      </trkpt>
      <trkpt lat="45.21304" lon="4.33175">
        <ele>909.2</ele>
        <time>2026-04-24T10:40:08Z</time>
      </trkpt>
      <trkpt lat="45.21298" lon="4.33176">
        <ele>909.4</ele>
        <time>2026-04-24T10:40:13Z</time>
      </trkpt>
      <trkpt lat="45.21292" lon="4.33175">
        <ele>909.2</ele>
        <time>2026-04-24T10:40:18Z</time>
      </trkpt>
      <trkpt lat="45.21286" lon="4.33175">
        <ele>909.3</ele>
        <time>2026-04-24T10:40:23Z</time>
      </trkpt>
      <trkpt lat="45.21281" lon="4.33175">
        <ele>909.3</ele>
        <time>2026-04-24T10:40:28Z</time>
      </trkpt>
      <trkpt lat="45.21275" lon="4.33176">
        <ele>909.5</ele>
        <time>2026-04-24T10:40:33Z</time>
      </trkpt>
      <trkpt lat="45.2127" lon="4.33176">
        <ele>909.5</ele>
        <time>2026-04-24T10:40:38Z</time>
      </trkpt>
      <trkpt lat="45.21265" lon="4.33176">
        <ele>909.6</ele>
        <time>2026-04-24T10:40:43Z</time>
      </trkpt>
      <trkpt lat="45.21258" lon="4.33177">
        <ele>909.8</ele>
        <time>2026-04-24T10:40:48Z</time>
      </trkpt>
      <trkpt lat="45.21253" lon="4.33176">
        <ele>909.7</ele>
        <time>2026-04-24T10:40:53Z</time>
      </trkpt>
      <trkpt lat="45.21247" lon="4.33177">
        <ele>909.5</ele>
        <time>2026-04-24T10:40:58Z</time>
      </trkpt>
      <trkpt lat="45.21244" lon="4.33177">
        <ele>909.2</ele>
        <time>2026-04-24T10:41:03Z</time>
      </trkpt>
      <trkpt lat="45.21238" lon="4.33177">
        <ele>908.5</ele>
        <time>2026-04-24T10:41:08Z</time>
      </trkpt>
      <trkpt lat="45.21232" lon="4.33178">
        <ele>908.1</ele>
        <time>2026-04-24T10:41:13Z</time>
      </trkpt>
      <trkpt lat="45.21226" lon="4.33179">
        <ele>907.6</ele>
        <time>2026-04-24T10:41:18Z</time>
      </trkpt>
      <trkpt lat="45.21222" lon="4.3318">
        <ele>907.3</ele>
        <time>2026-04-24T10:41:23Z</time>
      </trkpt>
      <trkpt lat="45.21217" lon="4.3318">
        <ele>906.8</ele>
        <time>2026-04-24T10:41:28Z</time>
      </trkpt>
      <trkpt lat="45.21213" lon="4.33182">
        <ele>906.7</ele>
        <time>2026-04-24T10:41:33Z</time>
      </trkpt>
      <trkpt lat="45.21209" lon="4.33183">
        <ele>906.4</ele>
        <time>2026-04-24T10:41:38Z</time>
      </trkpt>
      <trkpt lat="45.21209" lon="4.33183">
        <ele>906.4</ele>
        <time>2026-04-24T10:41:43Z</time>
      </trkpt>
      <trkpt lat="45.21209" lon="4.33183">
        <ele>906.4</ele>
        <time>2026-04-24T10:41:48Z</time>
      </trkpt>
      <trkpt lat="45.21206" lon="4.33184">
        <ele>906.3</ele>
        <time>2026-04-24T10:41:53Z</time>
      </trkpt>
      <trkpt lat="45.21202" lon="4.33188">
        <ele>906.5</ele>
        <time>2026-04-24T10:41:58Z</time>
      </trkpt>
      <trkpt lat="45.21197" lon="4.33191">
        <ele>906.5</ele>
        <time>2026-04-24T10:42:03Z</time>
      </trkpt>
      <trkpt lat="45.21193" lon="4.33194">
        <ele>906.5</ele>
        <time>2026-04-24T10:42:08Z</time>
      </trkpt>
      <trkpt lat="45.2119" lon="4.33198">
        <ele>906.9</ele>
        <time>2026-04-24T10:42:13Z</time>
      </trkpt>
      <trkpt lat="45.21185" lon="4.33202">
        <ele>907</ele>
        <time>2026-04-24T10:42:18Z</time>
      </trkpt>
      <trkpt lat="45.21181" lon="4.33206">
        <ele>907.2</ele>
        <time>2026-04-24T10:42:23Z</time>
      </trkpt>
      <trkpt lat="45.21177" lon="4.33211">
        <ele>907.6</ele>
        <time>2026-04-24T10:42:28Z</time>
      </trkpt>
      <trkpt lat="45.21174" lon="4.33214">
        <ele>907.8</ele>
        <time>2026-04-24T10:42:33Z</time>
      </trkpt>
      <trkpt lat="45.21169" lon="4.33218">
        <ele>907.9</ele>
        <time>2026-04-24T10:42:38Z</time>
      </trkpt>
      <trkpt lat="45.21165" lon="4.33222">
        <ele>908.2</ele>
        <time>2026-04-24T10:42:43Z</time>
      </trkpt>
      <trkpt lat="45.21159" lon="4.33227">
        <ele>908.7</ele>
        <time>2026-04-24T10:42:48Z</time>
      </trkpt>
      <trkpt lat="45.21153" lon="4.33232">
        <ele>909.1</ele>
        <time>2026-04-24T10:42:53Z</time>
      </trkpt>
      <trkpt lat="45.21149" lon="4.33237">
        <ele>909.7</ele>
        <time>2026-04-24T10:42:58Z</time>
      </trkpt>
      <trkpt lat="45.21147" lon="4.33243">
        <ele>910.5</ele>
        <time>2026-04-24T10:43:03Z</time>
      </trkpt>
      <trkpt lat="45.21143" lon="4.33249">
        <ele>911.1</ele>
        <time>2026-04-24T10:43:08Z</time>
      </trkpt>
      <trkpt lat="45.2114" lon="4.33256">
        <ele>912.2</ele>
        <time>2026-04-24T10:43:13Z</time>
      </trkpt>
      <trkpt lat="45.21138" lon="4.33263">
        <ele>913.4</ele>
        <time>2026-04-24T10:43:18Z</time>
      </trkpt>
      <trkpt lat="45.21136" lon="4.33272">
        <ele>915</ele>
        <time>2026-04-24T10:43:23Z</time>
      </trkpt>
      <trkpt lat="45.21134" lon="4.3328">
        <ele>916.4</ele>
        <time>2026-04-24T10:43:28Z</time>
      </trkpt>
      <trkpt lat="45.21132" lon="4.33286">
        <ele>917.4</ele>
        <time>2026-04-24T10:43:33Z</time>
      </trkpt>
      <trkpt lat="45.21128" lon="4.33292">
        <ele>918.3</ele>
        <time>2026-04-24T10:43:38Z</time>
      </trkpt>
      <trkpt lat="45.21124" lon="4.33299">
        <ele>919.3</ele>
        <time>2026-04-24T10:43:43Z</time>
      </trkpt>
      <trkpt lat="45.21119" lon="4.33305">
        <ele>920.1</ele>
        <time>2026-04-24T10:43:48Z</time>
      </trkpt>
      <trkpt lat="45.21114" lon="4.3331">
        <ele>920.7</ele>
        <time>2026-04-24T10:43:53Z</time>
      </trkpt>
      <trkpt lat="45.21108" lon="4.33316">
        <ele>921.4</ele>
        <time>2026-04-24T10:43:58Z</time>
      </trkpt>
      <trkpt lat="45.21103" lon="4.33319">
        <ele>921.7</ele>
        <time>2026-04-24T10:44:03Z</time>
      </trkpt>
      <trkpt lat="45.21103" lon="4.33319">
        <ele>921.7</ele>
        <time>2026-04-24T10:44:08Z</time>
      </trkpt>
      <trkpt lat="45.21103" lon="4.33319">
        <ele>921.7</ele>
        <time>2026-04-24T10:44:13Z</time>
      </trkpt>
      <trkpt lat="45.21103" lon="4.33319">
        <ele>921.7</ele>
        <time>2026-04-24T10:44:18Z</time>
      </trkpt>
      <trkpt lat="45.21103" lon="4.33319">
        <ele>921.7</ele>
        <time>2026-04-24T10:44:23Z</time>
      </trkpt>
      <trkpt lat="45.21103" lon="4.33319">
        <ele>921.7</ele>
        <time>2026-04-24T10:44:28Z</time>
      </trkpt>
      <trkpt lat="45.21103" lon="4.33319">
        <ele>921.7</ele>
        <time>2026-04-24T10:44:33Z</time>
      </trkpt>
      <trkpt lat="45.21097" lon="4.33324">
        <ele>922.2</ele>
        <time>2026-04-24T10:44:38Z</time>
      </trkpt>
      <trkpt lat="45.21091" lon="4.33329">
        <ele>922.7</ele>
        <time>2026-04-24T10:44:43Z</time>
      </trkpt>
      <trkpt lat="45.21085" lon="4.33333">
        <ele>923.1</ele>
        <time>2026-04-24T10:44:48Z</time>
      </trkpt>
      <trkpt lat="45.21079" lon="4.33337">
        <ele>923.5</ele>
        <time>2026-04-24T10:44:53Z</time>
      </trkpt>
      <trkpt lat="45.21072" lon="4.33341">
        <ele>923.9</ele>
        <time>2026-04-24T10:44:58Z</time>
      </trkpt>
      <trkpt lat="45.21065" lon="4.33346">
        <ele>924.5</ele>
        <time>2026-04-24T10:45:03Z</time>
      </trkpt>
      <trkpt lat="45.21059" lon="4.3335">
        <ele>924.9</ele>
        <time>2026-04-24T10:45:08Z</time>
      </trkpt>
      <trkpt lat="45.21053" lon="4.33355">
        <ele>925.5</ele>
        <time>2026-04-24T10:45:13Z</time>
      </trkpt>
      <trkpt lat="45.21047" lon="4.33359">
        <ele>925.8</ele>
        <time>2026-04-24T10:45:18Z</time>
      </trkpt>
      <trkpt lat="45.21042" lon="4.33363">
        <ele>926.2</ele>
        <time>2026-04-24T10:45:23Z</time>
      </trkpt>
      <trkpt lat="45.21035" lon="4.33369">
        <ele>926.8</ele>
        <time>2026-04-24T10:45:28Z</time>
      </trkpt>
      <trkpt lat="45.21027" lon="4.33373">
        <ele>926.9</ele>
        <time>2026-04-24T10:45:33Z</time>
      </trkpt>
      <trkpt lat="45.21022" lon="4.33377">
        <ele>927.2</ele>
        <time>2026-04-24T10:45:38Z</time>
      </trkpt>
      <trkpt lat="45.21015" lon="4.33383">
        <ele>927.7</ele>
        <time>2026-04-24T10:45:43Z</time>
      </trkpt>
      <trkpt lat="45.21009" lon="4.33388">
        <ele>928</ele>
        <time>2026-04-24T10:45:48Z</time>
      </trkpt>
      <trkpt lat="45.21002" lon="4.33393">
        <ele>928.2</ele>
        <time>2026-04-24T10:45:53Z</time>
      </trkpt>
      <trkpt lat="45.20995" lon="4.33398">
        <ele>928.5</ele>
        <time>2026-04-24T10:45:58Z</time>
      </trkpt>
      <trkpt lat="45.2099" lon="4.334">
        <ele>928.5</ele>
        <time>2026-04-24T10:46:03Z</time>
      </trkpt>
      <trkpt lat="45.20983" lon="4.33406">
        <ele>928.9</ele>
        <time>2026-04-24T10:46:08Z</time>
      </trkpt>
      <trkpt lat="45.20978" lon="4.33409">
        <ele>928.9</ele>
        <time>2026-04-24T10:46:13Z</time>
      </trkpt>
      <trkpt lat="45.20972" lon="4.3341">
        <ele>928.5</ele>
        <time>2026-04-24T10:46:18Z</time>
      </trkpt>
      <trkpt lat="45.20964" lon="4.33414">
        <ele>928.3</ele>
        <time>2026-04-24T10:46:23Z</time>
      </trkpt>
      <trkpt lat="45.20957" lon="4.33417">
        <ele>927.9</ele>
        <time>2026-04-24T10:46:28Z</time>
      </trkpt>
      <trkpt lat="45.20949" lon="4.3342">
        <ele>927.4</ele>
        <time>2026-04-24T10:46:33Z</time>
      </trkpt>
      <trkpt lat="45.20943" lon="4.33423">
        <ele>927</ele>
        <time>2026-04-24T10:46:38Z</time>
      </trkpt>
      <trkpt lat="45.20935" lon="4.33427">
        <ele>926.4</ele>
        <time>2026-04-24T10:46:43Z</time>
      </trkpt>
      <trkpt lat="45.20928" lon="4.33429">
        <ele>925.8</ele>
        <time>2026-04-24T10:46:48Z</time>
      </trkpt>
      <trkpt lat="45.2092" lon="4.3343">
        <ele>925</ele>
        <time>2026-04-24T10:46:53Z</time>
      </trkpt>
      <trkpt lat="45.20913" lon="4.3343">
        <ele>924.6</ele>
        <time>2026-04-24T10:46:58Z</time>
      </trkpt>
      <trkpt lat="45.20906" lon="4.3343">
        <ele>924.5</ele>
        <time>2026-04-24T10:47:03Z</time>
      </trkpt>
      <trkpt lat="45.20902" lon="4.33427">
        <ele>924.3</ele>
        <time>2026-04-24T10:47:08Z</time>
      </trkpt>
      <trkpt lat="45.20898" lon="4.33422">
        <ele>924.1</ele>
        <time>2026-04-24T10:47:13Z</time>
      </trkpt>
      <trkpt lat="45.20894" lon="4.33411">
        <ele>924</ele>
        <time>2026-04-24T10:47:18Z</time>
      </trkpt>
      <trkpt lat="45.20889" lon="4.33404">
        <ele>923.9</ele>
        <time>2026-04-24T10:47:23Z</time>
      </trkpt>
      <trkpt lat="45.20884" lon="4.33397">
        <ele>924</ele>
        <time>2026-04-24T10:47:28Z</time>
      </trkpt>
      <trkpt lat="45.20878" lon="4.3339">
        <ele>924.1</ele>
        <time>2026-04-24T10:47:33Z</time>
      </trkpt>
      <trkpt lat="45.20873" lon="4.33384">
        <ele>924.2</ele>
        <time>2026-04-24T10:47:38Z</time>
      </trkpt>
      <trkpt lat="45.20867" lon="4.33377">
        <ele>924.5</ele>
        <time>2026-04-24T10:47:43Z</time>
      </trkpt>
      <trkpt lat="45.20861" lon="4.33371">
        <ele>924.7</ele>
        <time>2026-04-24T10:47:48Z</time>
      </trkpt>
      <trkpt lat="45.20855" lon="4.33365">
        <ele>925.1</ele>
        <time>2026-04-24T10:47:53Z</time>
      </trkpt>
      <trkpt lat="45.2085" lon="4.3336">
        <ele>925.4</ele>
        <time>2026-04-24T10:47:58Z</time>
      </trkpt>
      <trkpt lat="45.20843" lon="4.33352">
        <ele>925.9</ele>
        <time>2026-04-24T10:48:03Z</time>
      </trkpt>
      <trkpt lat="45.20838" lon="4.33345">
        <ele>926.3</ele>
        <time>2026-04-24T10:48:08Z</time>
      </trkpt>
      <trkpt lat="45.20833" lon="4.33339">
        <ele>926.8</ele>
        <time>2026-04-24T10:48:13Z</time>
      </trkpt>
      <trkpt lat="45.20827" lon="4.33332">
        <ele>926.8</ele>
        <time>2026-04-24T10:48:18Z</time>
      </trkpt>
      <trkpt lat="45.20822" lon="4.33327">
        <ele>926.6</ele>
        <time>2026-04-24T10:48:23Z</time>
      </trkpt>
      <trkpt lat="45.20817" lon="4.33319">
        <ele>926.3</ele>
        <time>2026-04-24T10:48:28Z</time>
      </trkpt>
      <trkpt lat="45.2081" lon="4.33314">
        <ele>926</ele>
        <time>2026-04-24T10:48:33Z</time>
      </trkpt>
      <trkpt lat="45.20803" lon="4.33308">
        <ele>925.8</ele>
        <time>2026-04-24T10:48:38Z</time>
      </trkpt>
      <trkpt lat="45.20796" lon="4.33305">
        <ele>925.6</ele>
        <time>2026-04-24T10:48:43Z</time>
      </trkpt>
      <trkpt lat="45.2079" lon="4.33305">
        <ele>925.5</ele>
        <time>2026-04-24T10:48:48Z</time>
      </trkpt>
      <trkpt lat="45.20783" lon="4.33303">
        <ele>925.3</ele>
        <time>2026-04-24T10:48:53Z</time>
      </trkpt>
      <trkpt lat="45.20777" lon="4.33302">
        <ele>925.2</ele>
        <time>2026-04-24T10:48:58Z</time>
      </trkpt>
      <trkpt lat="45.20769" lon="4.33303">
        <ele>925</ele>
        <time>2026-04-24T10:49:03Z</time>
      </trkpt>
      <trkpt lat="45.20763" lon="4.33302">
        <ele>924.9</ele>
        <time>2026-04-24T10:49:08Z</time>
      </trkpt>
      <trkpt lat="45.20755" lon="4.33302">
        <ele>924.7</ele>
        <time>2026-04-24T10:49:13Z</time>
      </trkpt>
      <trkpt lat="45.20748" lon="4.33299">
        <ele>924.6</ele>
        <time>2026-04-24T10:49:18Z</time>
      </trkpt>
      <trkpt lat="45.20742" lon="4.333">
        <ele>924.8</ele>
        <time>2026-04-24T10:49:23Z</time>
      </trkpt>
      <trkpt lat="45.20736" lon="4.33301">
        <ele>924.9</ele>
        <time>2026-04-24T10:49:28Z</time>
      </trkpt>
      <trkpt lat="45.20735" lon="4.33303">
        <ele>925</ele>
        <time>2026-04-24T10:49:33Z</time>
      </trkpt>
      <trkpt lat="45.20731" lon="4.33304">
        <ele>925.1</ele>
        <time>2026-04-24T10:49:38Z</time>
      </trkpt>
      <trkpt lat="45.20732" lon="4.33302">
        <ele>925</ele>
        <time>2026-04-24T10:49:43Z</time>
      </trkpt>
      <trkpt lat="45.20738" lon="4.33299">
        <ele>924.8</ele>
        <time>2026-04-24T10:49:48Z</time>
      </trkpt>
      <trkpt lat="45.20742" lon="4.33298">
        <ele>924.7</ele>
        <time>2026-04-24T10:49:53Z</time>
      </trkpt>
      <trkpt lat="45.20748" lon="4.33297">
        <ele>924.6</ele>
        <time>2026-04-24T10:49:58Z</time>
      </trkpt>
      <trkpt lat="45.20755" lon="4.33298">
        <ele>924.7</ele>
        <time>2026-04-24T10:50:03Z</time>
      </trkpt>
      <trkpt lat="45.20761" lon="4.333">
        <ele>924.8</ele>
        <time>2026-04-24T10:50:08Z</time>
      </trkpt>
      <trkpt lat="45.20765" lon="4.33295">
        <ele>924.8</ele>
        <time>2026-04-24T10:50:13Z</time>
      </trkpt>
      <trkpt lat="45.20769" lon="4.33288">
        <ele>924.8</ele>
        <time>2026-04-24T10:50:18Z</time>
      </trkpt>
      <trkpt lat="45.20772" lon="4.33281">
        <ele>924.7</ele>
        <time>2026-04-24T10:50:23Z</time>
      </trkpt>
      <trkpt lat="45.20775" lon="4.33274">
        <ele>924.7</ele>
        <time>2026-04-24T10:50:28Z</time>
      </trkpt>
      <trkpt lat="45.20779" lon="4.33264">
        <ele>924.6</ele>
        <time>2026-04-24T10:50:33Z</time>
      </trkpt>
      <trkpt lat="45.2078" lon="4.33257">
        <ele>924.5</ele>
        <time>2026-04-24T10:50:38Z</time>
      </trkpt>
      <trkpt lat="45.2078" lon="4.33247">
        <ele>924.2</ele>
        <time>2026-04-24T10:50:43Z</time>
      </trkpt>
      <trkpt lat="45.20781" lon="4.33235">
        <ele>923.5</ele>
        <time>2026-04-24T10:50:48Z</time>
      </trkpt>
      <trkpt lat="45.20784" lon="4.33225">
        <ele>923</ele>
        <time>2026-04-24T10:50:53Z</time>
      </trkpt>
      <trkpt lat="45.20787" lon="4.33216">
        <ele>922.4</ele>
        <time>2026-04-24T10:50:58Z</time>
      </trkpt>
      <trkpt lat="45.20789" lon="4.3321">
        <ele>922.1</ele>
        <time>2026-04-24T10:51:03Z</time>
      </trkpt>
      <trkpt lat="45.2079" lon="4.33208">
        <ele>922</ele>
        <time>2026-04-24T10:51:08Z</time>
      </trkpt>
      <trkpt lat="45.20789" lon="4.33207">
        <ele>921.9</ele>
        <time>2026-04-24T10:51:13Z</time>
      </trkpt>
      <trkpt lat="45.20789" lon="4.33207">
        <ele>921.9</ele>
        <time>2026-04-24T10:51:18Z</time>
      </trkpt>
      <trkpt lat="45.20792" lon="4.332">
        <ele>921.5</ele>
        <time>2026-04-24T10:51:23Z</time>
      </trkpt>
      <trkpt lat="45.20794" lon="4.33192">
        <ele>921</ele>
        <time>2026-04-24T10:51:28Z</time>
      </trkpt>
      <trkpt lat="45.20797" lon="4.33183">
        <ele>920.4</ele>
        <time>2026-04-24T10:51:33Z</time>
      </trkpt>
      <trkpt lat="45.20798" lon="4.33181">
        <ele>920.3</ele>
        <time>2026-04-24T10:51:38Z</time>
      </trkpt>
      <trkpt lat="45.20798" lon="4.33179">
        <ele>920.2</ele>
        <time>2026-04-24T10:51:43Z</time>
      </trkpt>
      <trkpt lat="45.20798" lon="4.33179">
        <ele>920.2</ele>
        <time>2026-04-24T10:51:48Z</time>
      </trkpt>
      <trkpt lat="45.20798" lon="4.33179">
        <ele>920.2</ele>
        <time>2026-04-24T10:51:53Z</time>
      </trkpt>
      <trkpt lat="45.20798" lon="4.33179">
        <ele>920.2</ele>
        <time>2026-04-24T10:51:58Z</time>
      </trkpt>
      <trkpt lat="45.20798" lon="4.33178">
        <ele>920.1</ele>
        <time>2026-04-24T10:52:03Z</time>
      </trkpt>
      <trkpt lat="45.20801" lon="4.33172">
        <ele>919.7</ele>
        <time>2026-04-24T10:52:08Z</time>
      </trkpt>
      <trkpt lat="45.20807" lon="4.33163">
        <ele>919.2</ele>
        <time>2026-04-24T10:52:13Z</time>
      </trkpt>
      <trkpt lat="45.20811" lon="4.33154">
        <ele>919</ele>
        <time>2026-04-24T10:52:18Z</time>
      </trkpt>
      <trkpt lat="45.20816" lon="4.33146">
        <ele>918.8</ele>
        <time>2026-04-24T10:52:23Z</time>
      </trkpt>
      <trkpt lat="45.20819" lon="4.33137">
        <ele>918.5</ele>
        <time>2026-04-24T10:52:28Z</time>
      </trkpt>
      <trkpt lat="45.20822" lon="4.33128">
        <ele>918.3</ele>
        <time>2026-04-24T10:52:33Z</time>
      </trkpt>
      <trkpt lat="45.20826" lon="4.3312">
        <ele>918</ele>
        <time>2026-04-24T10:52:38Z</time>
      </trkpt>
      <trkpt lat="45.2083" lon="4.33113">
        <ele>917.8</ele>
        <time>2026-04-24T10:52:43Z</time>
      </trkpt>
      <trkpt lat="45.20834" lon="4.33106">
        <ele>917.5</ele>
        <time>2026-04-24T10:52:48Z</time>
      </trkpt>
      <trkpt lat="45.20836" lon="4.33107">
        <ele>917.5</ele>
        <time>2026-04-24T10:52:53Z</time>
      </trkpt>
      <trkpt lat="45.20836" lon="4.33107">
        <ele>917.5</ele>
        <time>2026-04-24T10:52:58Z</time>
      </trkpt>
      <trkpt lat="45.20836" lon="4.33107">
        <ele>917.5</ele>
        <time>2026-04-24T10:53:03Z</time>
      </trkpt>
      <trkpt lat="45.20836" lon="4.33107">
        <ele>917.5</ele>
        <time>2026-04-24T10:53:08Z</time>
      </trkpt>
      <trkpt lat="45.20836" lon="4.33107">
        <ele>917.5</ele>
        <time>2026-04-24T10:53:13Z</time>
      </trkpt>
      <trkpt lat="45.20836" lon="4.33107">
        <ele>917.5</ele>
        <time>2026-04-24T10:53:18Z</time>
      </trkpt>
      <trkpt lat="45.20836" lon="4.33107">
        <ele>917.5</ele>
        <time>2026-04-24T10:53:23Z</time>
      </trkpt>
      <trkpt lat="45.20836" lon="4.33107">
        <ele>917.5</ele>
        <time>2026-04-24T10:53:28Z</time>
      </trkpt>
      <trkpt lat="45.20836" lon="4.33107">
        <ele>917.5</ele>
        <time>2026-04-24T10:53:33Z</time>
      </trkpt>
      <trkpt lat="45.20836" lon="4.33107">
        <ele>917.5</ele>
        <time>2026-04-24T10:53:38Z</time>
      </trkpt>
      <trkpt lat="45.20836" lon="4.33107">
        <ele>917.5</ele>
        <time>2026-04-24T10:53:43Z</time>
      </trkpt>
      <trkpt lat="45.20836" lon="4.33107">
        <ele>917.5</ele>
        <time>2026-04-24T10:53:48Z</time>
      </trkpt>
      <trkpt lat="45.20836" lon="4.33107">
        <ele>917.5</ele>
        <time>2026-04-24T10:53:53Z</time>
      </trkpt>
      <trkpt lat="45.20836" lon="4.33107">
        <ele>917.5</ele>
        <time>2026-04-24T10:53:58Z</time>
      </trkpt>
      <trkpt lat="45.20836" lon="4.33107">
        <ele>917.5</ele>
        <time>2026-04-24T10:54:03Z</time>
      </trkpt>
      <trkpt lat="45.20836" lon="4.33107">
        <ele>917.5</ele>
        <time>2026-04-24T10:54:08Z</time>
      </trkpt>
      <trkpt lat="45.20836" lon="4.33107">
        <ele>917.5</ele>
        <time>2026-04-24T10:54:13Z</time>
      </trkpt>
      <trkpt lat="45.20836" lon="4.33107">
        <ele>917.5</ele>
        <time>2026-04-24T10:54:18Z</time>
      </trkpt>
      <trkpt lat="45.20836" lon="4.33107">
        <ele>917.5</ele>
        <time>2026-04-24T10:54:23Z</time>
      </trkpt>
      <trkpt lat="45.20836" lon="4.33107">
        <ele>917.5</ele>
        <time>2026-04-24T10:54:28Z</time>
      </trkpt>
      <trkpt lat="45.20836" lon="4.33107">
        <ele>917.5</ele>
        <time>2026-04-24T10:54:33Z</time>
      </trkpt>
      <trkpt lat="45.20836" lon="4.33107">
        <ele>917.5</ele>
        <time>2026-04-24T10:54:38Z</time>
      </trkpt>
      <trkpt lat="45.20836" lon="4.33107">
        <ele>917.5</ele>
        <time>2026-04-24T10:54:43Z</time>
      </trkpt>
      <trkpt lat="45.20836" lon="4.33107">
        <ele>917.5</ele>
        <time>2026-04-24T10:54:48Z</time>
      </trkpt>
      <trkpt lat="45.20836" lon="4.33107">
        <ele>917.5</ele>
        <time>2026-04-24T10:54:53Z</time>
      </trkpt>
      <trkpt lat="45.20836" lon="4.33107">
        <ele>917.5</ele>
        <time>2026-04-24T10:54:58Z</time>
      </trkpt>
      <trkpt lat="45.20836" lon="4.33107">
        <ele>917.5</ele>
        <time>2026-04-24T10:55:03Z</time>
      </trkpt>
      <trkpt lat="45.20836" lon="4.33107">
        <ele>917.5</ele>
        <time>2026-04-24T10:55:08Z</time>
      </trkpt>
      <trkpt lat="45.20836" lon="4.33107">
        <ele>917.5</ele>
        <time>2026-04-24T10:55:13Z</time>
      </trkpt>
      <trkpt lat="45.20836" lon="4.33107">
        <ele>917.5</ele>
        <time>2026-04-24T10:55:18Z</time>
      </trkpt>
      <trkpt lat="45.20836" lon="4.33107">
        <ele>917.5</ele>
        <time>2026-04-24T10:55:23Z</time>
      </trkpt>
      <trkpt lat="45.20836" lon="4.33107">
        <ele>917.5</ele>
        <time>2026-04-24T10:55:28Z</time>
      </trkpt>
      <trkpt lat="45.20836" lon="4.33107">
        <ele>917.5</ele>
        <time>2026-04-24T10:55:33Z</time>
      </trkpt>
      <trkpt lat="45.20836" lon="4.33107">
        <ele>917.5</ele>
        <time>2026-04-24T10:55:38Z</time>
      </trkpt>
      <trkpt lat="45.20836" lon="4.33107">
        <ele>917.5</ele>
        <time>2026-04-24T10:55:43Z</time>
      </trkpt>
      <trkpt lat="45.20836" lon="4.33107">
        <ele>917.5</ele>
        <time>2026-04-24T10:55:48Z</time>
      </trkpt>
      <trkpt lat="45.20836" lon="4.33107">
        <ele>917.5</ele>
        <time>2026-04-24T10:55:53Z</time>
      </trkpt>
      <trkpt lat="45.20836" lon="4.33107">
        <ele>917.5</ele>
        <time>2026-04-24T10:55:58Z</time>
      </trkpt>
      <trkpt lat="45.20836" lon="4.33107">
        <ele>917.5</ele>
        <time>2026-04-24T10:56:03Z</time>
      </trkpt>
      <trkpt lat="45.20836" lon="4.33107">
        <ele>917.5</ele>
        <time>2026-04-24T10:56:08Z</time>
      </trkpt>
      <trkpt lat="45.20836" lon="4.33107">
        <ele>917.5</ele>
        <time>2026-04-24T10:56:13Z</time>
      </trkpt>
      <trkpt lat="45.20836" lon="4.33107">
        <ele>917.5</ele>
        <time>2026-04-24T10:56:18Z</time>
      </trkpt>
      <trkpt lat="45.20836" lon="4.33107">
        <ele>917.5</ele>
        <time>2026-04-24T10:56:23Z</time>
      </trkpt>
      <trkpt lat="45.20836" lon="4.33107">
        <ele>917.5</ele>
        <time>2026-04-24T10:56:28Z</time>
      </trkpt>
      <trkpt lat="45.20836" lon="4.33107">
        <ele>917.5</ele>
        <time>2026-04-24T10:56:33Z</time>
      </trkpt>
      <trkpt lat="45.20836" lon="4.33107">
        <ele>917.5</ele>
        <time>2026-04-24T10:56:38Z</time>
      </trkpt>
      <trkpt lat="45.2083" lon="4.33095">
        <ele>917.4</ele>
        <time>2026-04-24T10:56:43Z</time>
      </trkpt>
      <trkpt lat="45.20826" lon="4.33087">
        <ele>917.3</ele>
        <time>2026-04-24T10:56:48Z</time>
      </trkpt>
      <trkpt lat="45.20821" lon="4.3308">
        <ele>917.3</ele>
        <time>2026-04-24T10:56:53Z</time>
      </trkpt>
      <trkpt lat="45.20815" lon="4.33074">
        <ele>917.4</ele>
        <time>2026-04-24T10:56:58Z</time>
      </trkpt>
      <trkpt lat="45.20808" lon="4.33073">
        <ele>917.5</ele>
        <time>2026-04-24T10:57:03Z</time>
      </trkpt>
      <trkpt lat="45.20801" lon="4.33071">
        <ele>917.7</ele>
        <time>2026-04-24T10:57:08Z</time>
      </trkpt>
      <trkpt lat="45.20796" lon="4.3307">
        <ele>917.8</ele>
        <time>2026-04-24T10:57:13Z</time>
      </trkpt>
      <trkpt lat="45.20792" lon="4.33069">
        <ele>917.9</ele>
        <time>2026-04-24T10:57:18Z</time>
      </trkpt>
      <trkpt lat="45.20786" lon="4.33067">
        <ele>918.1</ele>
        <time>2026-04-24T10:57:23Z</time>
      </trkpt>
      <trkpt lat="45.2078" lon="4.33065">
        <ele>918.2</ele>
        <time>2026-04-24T10:57:28Z</time>
      </trkpt>
      <trkpt lat="45.20773" lon="4.3306">
        <ele>918.4</ele>
        <time>2026-04-24T10:57:33Z</time>
      </trkpt>
      <trkpt lat="45.20768" lon="4.33057">
        <ele>918.5</ele>
        <time>2026-04-24T10:57:38Z</time>
      </trkpt>
      <trkpt lat="45.20761" lon="4.33051">
        <ele>918.7</ele>
        <time>2026-04-24T10:57:43Z</time>
      </trkpt>
      <trkpt lat="45.20756" lon="4.33043">
        <ele>918.8</ele>
        <time>2026-04-24T10:57:48Z</time>
      </trkpt>
      <trkpt lat="45.20752" lon="4.33036">
        <ele>918.9</ele>
        <time>2026-04-24T10:57:53Z</time>
      </trkpt>
      <trkpt lat="45.2075" lon="4.33029">
        <ele>919</ele>
        <time>2026-04-24T10:57:58Z</time>
      </trkpt>
      <trkpt lat="45.20748" lon="4.33021">
        <ele>919</ele>
        <time>2026-04-24T10:58:03Z</time>
      </trkpt>
      <trkpt lat="45.20745" lon="4.33011">
        <ele>918.9</ele>
        <time>2026-04-24T10:58:08Z</time>
      </trkpt>
      <trkpt lat="45.20743" lon="4.33002">
        <ele>918.9</ele>
        <time>2026-04-24T10:58:13Z</time>
      </trkpt>
      <trkpt lat="45.20742" lon="4.32993">
        <ele>918.6</ele>
        <time>2026-04-24T10:58:18Z</time>
      </trkpt>
      <trkpt lat="45.20742" lon="4.32983">
        <ele>918.3</ele>
        <time>2026-04-24T10:58:23Z</time>
      </trkpt>
      <trkpt lat="45.20741" lon="4.32971">
        <ele>917.8</ele>
        <time>2026-04-24T10:58:28Z</time>
      </trkpt>
      <trkpt lat="45.2074" lon="4.32961">
        <ele>917.4</ele>
        <time>2026-04-24T10:58:33Z</time>
      </trkpt>
      <trkpt lat="45.20739" lon="4.32951">
        <ele>917</ele>
        <time>2026-04-24T10:58:38Z</time>
      </trkpt>
      <trkpt lat="45.20738" lon="4.32939">
        <ele>916.6</ele>
        <time>2026-04-24T10:58:43Z</time>
      </trkpt>
      <trkpt lat="45.20738" lon="4.32929">
        <ele>916.2</ele>
        <time>2026-04-24T10:58:48Z</time>
      </trkpt>
      <trkpt lat="45.20739" lon="4.32919">
        <ele>915.8</ele>
        <time>2026-04-24T10:58:53Z</time>
      </trkpt>
      <trkpt lat="45.20741" lon="4.32911">
        <ele>915.2</ele>
        <time>2026-04-24T10:58:58Z</time>
      </trkpt>
      <trkpt lat="45.20743" lon="4.32902">
        <ele>914.2</ele>
        <time>2026-04-24T10:59:03Z</time>
      </trkpt>
      <trkpt lat="45.20745" lon="4.32891">
        <ele>913.1</ele>
        <time>2026-04-24T10:59:08Z</time>
      </trkpt>
      <trkpt lat="45.20746" lon="4.32879">
        <ele>911.8</ele>
        <time>2026-04-24T10:59:13Z</time>
      </trkpt>
      <trkpt lat="45.20747" lon="4.32868">
        <ele>910.7</ele>
        <time>2026-04-24T10:59:18Z</time>
      </trkpt>
      <trkpt lat="45.20748" lon="4.32857">
        <ele>909.5</ele>
        <time>2026-04-24T10:59:23Z</time>
      </trkpt>
      <trkpt lat="45.20749" lon="4.32849">
        <ele>908.7</ele>
        <time>2026-04-24T10:59:28Z</time>
      </trkpt>
      <trkpt lat="45.20749" lon="4.32841">
        <ele>907.8</ele>
        <time>2026-04-24T10:59:33Z</time>
      </trkpt>
      <trkpt lat="45.2075" lon="4.32831">
        <ele>906.6</ele>
        <time>2026-04-24T10:59:38Z</time>
      </trkpt>
      <trkpt lat="45.20749" lon="4.32823">
        <ele>905.4</ele>
        <time>2026-04-24T10:59:43Z</time>
      </trkpt>
      <trkpt lat="45.20747" lon="4.32816">
        <ele>904.2</ele>
        <time>2026-04-24T10:59:48Z</time>
      </trkpt>
      <trkpt lat="45.20746" lon="4.32807">
        <ele>902.8</ele>
        <time>2026-04-24T10:59:53Z</time>
      </trkpt>
      <trkpt lat="45.20746" lon="4.32797">
        <ele>901.2</ele>
        <time>2026-04-24T10:59:58Z</time>
      </trkpt>
      <trkpt lat="45.20747" lon="4.32789">
        <ele>900</ele>
        <time>2026-04-24T11:00:03Z</time>
      </trkpt>
      <trkpt lat="45.20749" lon="4.3278">
        <ele>898.7</ele>
        <time>2026-04-24T11:00:08Z</time>
      </trkpt>
      <trkpt lat="45.20748" lon="4.32771">
        <ele>897.2</ele>
        <time>2026-04-24T11:00:13Z</time>
      </trkpt>
      <trkpt lat="45.20748" lon="4.32764">
        <ele>896.2</ele>
        <time>2026-04-24T11:00:18Z</time>
      </trkpt>
      <trkpt lat="45.20748" lon="4.32759">
        <ele>895.4</ele>
        <time>2026-04-24T11:00:23Z</time>
      </trkpt>
      <trkpt lat="45.20748" lon="4.32752">
        <ele>894.3</ele>
        <time>2026-04-24T11:00:28Z</time>
      </trkpt>
      <trkpt lat="45.20749" lon="4.32742">
        <ele>892.8</ele>
        <time>2026-04-24T11:00:33Z</time>
      </trkpt>
      <trkpt lat="45.2075" lon="4.32734">
        <ele>891.7</ele>
        <time>2026-04-24T11:00:38Z</time>
      </trkpt>
      <trkpt lat="45.20752" lon="4.32727">
        <ele>891</ele>
        <time>2026-04-24T11:00:43Z</time>
      </trkpt>
      <trkpt lat="45.20754" lon="4.3272">
        <ele>890.3</ele>
        <time>2026-04-24T11:00:48Z</time>
      </trkpt>
      <trkpt lat="45.20756" lon="4.32712">
        <ele>889.5</ele>
        <time>2026-04-24T11:00:53Z</time>
      </trkpt>
      <trkpt lat="45.20758" lon="4.32706">
        <ele>889</ele>
        <time>2026-04-24T11:00:58Z</time>
      </trkpt>
      <trkpt lat="45.20759" lon="4.32697">
        <ele>887.9</ele>
        <time>2026-04-24T11:01:03Z</time>
      </trkpt>
      <trkpt lat="45.20761" lon="4.3269">
        <ele>887.3</ele>
        <time>2026-04-24T11:01:08Z</time>
      </trkpt>
      <trkpt lat="45.20763" lon="4.32683">
        <ele>886.6</ele>
        <time>2026-04-24T11:01:13Z</time>
      </trkpt>
      <trkpt lat="45.20764" lon="4.32674">
        <ele>885.5</ele>
        <time>2026-04-24T11:01:18Z</time>
      </trkpt>
      <trkpt lat="45.20765" lon="4.32666">
        <ele>884.7</ele>
        <time>2026-04-24T11:01:23Z</time>
      </trkpt>
      <trkpt lat="45.20765" lon="4.32654">
        <ele>884</ele>
        <time>2026-04-24T11:01:28Z</time>
      </trkpt>
      <trkpt lat="45.20764" lon="4.32642">
        <ele>883.2</ele>
        <time>2026-04-24T11:01:33Z</time>
      </trkpt>
      <trkpt lat="45.20764" lon="4.32629">
        <ele>882.6</ele>
        <time>2026-04-24T11:01:38Z</time>
      </trkpt>
      <trkpt lat="45.20766" lon="4.32618">
        <ele>882.2</ele>
        <time>2026-04-24T11:01:43Z</time>
      </trkpt>
      <trkpt lat="45.20768" lon="4.32607">
        <ele>881.9</ele>
        <time>2026-04-24T11:01:48Z</time>
      </trkpt>
      <trkpt lat="45.20766" lon="4.32598">
        <ele>881.1</ele>
        <time>2026-04-24T11:01:53Z</time>
      </trkpt>
      <trkpt lat="45.20761" lon="4.32588">
        <ele>880.2</ele>
        <time>2026-04-24T11:01:58Z</time>
      </trkpt>
      <trkpt lat="45.20758" lon="4.32578">
        <ele>879.5</ele>
        <time>2026-04-24T11:02:03Z</time>
      </trkpt>
      <trkpt lat="45.20755" lon="4.32571">
        <ele>879</ele>
        <time>2026-04-24T11:02:08Z</time>
      </trkpt>
      <trkpt lat="45.20752" lon="4.32561">
        <ele>878.4</ele>
        <time>2026-04-24T11:02:13Z</time>
      </trkpt>
      <trkpt lat="45.20749" lon="4.32554">
        <ele>877.9</ele>
        <time>2026-04-24T11:02:18Z</time>
      </trkpt>
      <trkpt lat="45.20745" lon="4.32546">
        <ele>877.6</ele>
        <time>2026-04-24T11:02:23Z</time>
      </trkpt>
      <trkpt lat="45.20742" lon="4.32539">
        <ele>877.3</ele>
        <time>2026-04-24T11:02:28Z</time>
      </trkpt>
      <trkpt lat="45.20738" lon="4.32532">
        <ele>877</ele>
        <time>2026-04-24T11:02:33Z</time>
      </trkpt>
      <trkpt lat="45.20734" lon="4.32523">
        <ele>876.7</ele>
        <time>2026-04-24T11:02:38Z</time>
      </trkpt>
      <trkpt lat="45.20729" lon="4.32511">
        <ele>876.3</ele>
        <time>2026-04-24T11:02:43Z</time>
      </trkpt>
      <trkpt lat="45.20726" lon="4.32501">
        <ele>876</ele>
        <time>2026-04-24T11:02:48Z</time>
      </trkpt>
      <trkpt lat="45.20722" lon="4.32492">
        <ele>875.9</ele>
        <time>2026-04-24T11:02:53Z</time>
      </trkpt>
      <trkpt lat="45.20718" lon="4.32484">
        <ele>875.8</ele>
        <time>2026-04-24T11:02:58Z</time>
      </trkpt>
      <trkpt lat="45.20713" lon="4.32473">
        <ele>875.5</ele>
        <time>2026-04-24T11:03:03Z</time>
      </trkpt>
      <trkpt lat="45.20708" lon="4.32463">
        <ele>875.1</ele>
        <time>2026-04-24T11:03:08Z</time>
      </trkpt>
      <trkpt lat="45.20704" lon="4.32453">
        <ele>874.6</ele>
        <time>2026-04-24T11:03:13Z</time>
      </trkpt>
      <trkpt lat="45.207" lon="4.32445">
        <ele>874.2</ele>
        <time>2026-04-24T11:03:18Z</time>
      </trkpt>
      <trkpt lat="45.20695" lon="4.32437">
        <ele>873.5</ele>
        <time>2026-04-24T11:03:23Z</time>
      </trkpt>
      <trkpt lat="45.2069" lon="4.32429">
        <ele>872.8</ele>
        <time>2026-04-24T11:03:28Z</time>
      </trkpt>
      <trkpt lat="45.20684" lon="4.3242">
        <ele>871.8</ele>
        <time>2026-04-24T11:03:33Z</time>
      </trkpt>
      <trkpt lat="45.20679" lon="4.32413">
        <ele>871</ele>
        <time>2026-04-24T11:03:38Z</time>
      </trkpt>
      <trkpt lat="45.20674" lon="4.32408">
        <ele>870.3</ele>
        <time>2026-04-24T11:03:43Z</time>
      </trkpt>
      <trkpt lat="45.20667" lon="4.32402">
        <ele>869.3</ele>
        <time>2026-04-24T11:03:48Z</time>
      </trkpt>
      <trkpt lat="45.20662" lon="4.32395">
        <ele>869.2</ele>
        <time>2026-04-24T11:03:53Z</time>
      </trkpt>
      <trkpt lat="45.20658" lon="4.32389">
        <ele>869.1</ele>
        <time>2026-04-24T11:03:58Z</time>
      </trkpt>
      <trkpt lat="45.20656" lon="4.32381">
        <ele>868.9</ele>
        <time>2026-04-24T11:04:03Z</time>
      </trkpt>
      <trkpt lat="45.20654" lon="4.32372">
        <ele>868.5</ele>
        <time>2026-04-24T11:04:08Z</time>
      </trkpt>
      <trkpt lat="45.20653" lon="4.32362">
        <ele>868.1</ele>
        <time>2026-04-24T11:04:13Z</time>
      </trkpt>
      <trkpt lat="45.20651" lon="4.3235">
        <ele>867.7</ele>
        <time>2026-04-24T11:04:18Z</time>
      </trkpt>
      <trkpt lat="45.20648" lon="4.32341">
        <ele>867.5</ele>
        <time>2026-04-24T11:04:23Z</time>
      </trkpt>
      <trkpt lat="45.20647" lon="4.32332">
        <ele>867.1</ele>
        <time>2026-04-24T11:04:28Z</time>
      </trkpt>
      <trkpt lat="45.20647" lon="4.32323">
        <ele>866.9</ele>
        <time>2026-04-24T11:04:33Z</time>
      </trkpt>
      <trkpt lat="45.20647" lon="4.32312">
        <ele>866.7</ele>
        <time>2026-04-24T11:04:38Z</time>
      </trkpt>
      <trkpt lat="45.20649" lon="4.32303">
        <ele>866.3</ele>
        <time>2026-04-24T11:04:43Z</time>
      </trkpt>
      <trkpt lat="45.2065" lon="4.32293">
        <ele>865.9</ele>
        <time>2026-04-24T11:04:48Z</time>
      </trkpt>
      <trkpt lat="45.20651" lon="4.3228">
        <ele>865.5</ele>
        <time>2026-04-24T11:04:53Z</time>
      </trkpt>
      <trkpt lat="45.20651" lon="4.3227">
        <ele>865.2</ele>
        <time>2026-04-24T11:04:58Z</time>
      </trkpt>
      <trkpt lat="45.20652" lon="4.3226">
        <ele>864.9</ele>
        <time>2026-04-24T11:05:03Z</time>
      </trkpt>
      <trkpt lat="45.20654" lon="4.3225">
        <ele>864.4</ele>
        <time>2026-04-24T11:05:08Z</time>
      </trkpt>
      <trkpt lat="45.20656" lon="4.3224">
        <ele>865</ele>
        <time>2026-04-24T11:05:13Z</time>
      </trkpt>
      <trkpt lat="45.20657" lon="4.32229">
        <ele>865.7</ele>
        <time>2026-04-24T11:05:18Z</time>
      </trkpt>
      <trkpt lat="45.20655" lon="4.32218">
        <ele>866.9</ele>
        <time>2026-04-24T11:05:23Z</time>
      </trkpt>
      <trkpt lat="45.2065" lon="4.32209">
        <ele>868.3</ele>
        <time>2026-04-24T11:05:28Z</time>
      </trkpt>
      <trkpt lat="45.20646" lon="4.32199">
        <ele>869.8</ele>
        <time>2026-04-24T11:05:33Z</time>
      </trkpt>
      <trkpt lat="45.20641" lon="4.32189">
        <ele>871.5</ele>
        <time>2026-04-24T11:05:38Z</time>
      </trkpt>
      <trkpt lat="45.20638" lon="4.3218">
        <ele>872.9</ele>
        <time>2026-04-24T11:05:43Z</time>
      </trkpt>
      <trkpt lat="45.20634" lon="4.32171">
        <ele>874.4</ele>
        <time>2026-04-24T11:05:48Z</time>
      </trkpt>
      <trkpt lat="45.2063" lon="4.32162">
        <ele>876.4</ele>
        <time>2026-04-24T11:05:53Z</time>
      </trkpt>
      <trkpt lat="45.20625" lon="4.32154">
        <ele>878.6</ele>
        <time>2026-04-24T11:05:58Z</time>
      </trkpt>
      <trkpt lat="45.20623" lon="4.32145">
        <ele>880.5</ele>
        <time>2026-04-24T11:06:03Z</time>
      </trkpt>
      <trkpt lat="45.20624" lon="4.32134">
        <ele>882.2</ele>
        <time>2026-04-24T11:06:08Z</time>
      </trkpt>
      <trkpt lat="45.20626" lon="4.32125">
        <ele>883.3</ele>
        <time>2026-04-24T11:06:13Z</time>
      </trkpt>
      <trkpt lat="45.20627" lon="4.32116">
        <ele>884.6</ele>
        <time>2026-04-24T11:06:18Z</time>
      </trkpt>
      <trkpt lat="45.20629" lon="4.32104">
        <ele>886.2</ele>
        <time>2026-04-24T11:06:23Z</time>
      </trkpt>
      <trkpt lat="45.20633" lon="4.32094">
        <ele>887.1</ele>
        <time>2026-04-24T11:06:28Z</time>
      </trkpt>
      <trkpt lat="45.20638" lon="4.32085">
        <ele>887.6</ele>
        <time>2026-04-24T11:06:33Z</time>
      </trkpt>
      <trkpt lat="45.2064" lon="4.3208">
        <ele>887.7</ele>
        <time>2026-04-24T11:06:38Z</time>
      </trkpt>
      <trkpt lat="45.20642" lon="4.3208">
        <ele>887.3</ele>
        <time>2026-04-24T11:06:43Z</time>
      </trkpt>
      <trkpt lat="45.20642" lon="4.32079">
        <ele>887.4</ele>
        <time>2026-04-24T11:06:48Z</time>
      </trkpt>
      <trkpt lat="45.20642" lon="4.32079">
        <ele>887.4</ele>
        <time>2026-04-24T11:06:53Z</time>
      </trkpt>
      <trkpt lat="45.20646" lon="4.32071">
        <ele>887.3</ele>
        <time>2026-04-24T11:06:58Z</time>
      </trkpt>
      <trkpt lat="45.2065" lon="4.32062">
        <ele>887.4</ele>
        <time>2026-04-24T11:07:03Z</time>
      </trkpt>
      <trkpt lat="45.20654" lon="4.32054">
        <ele>887.6</ele>
        <time>2026-04-24T11:07:08Z</time>
      </trkpt>
      <trkpt lat="45.20656" lon="4.32047">
        <ele>888</ele>
        <time>2026-04-24T11:07:13Z</time>
      </trkpt>
      <trkpt lat="45.20659" lon="4.32039">
        <ele>888.4</ele>
        <time>2026-04-24T11:07:18Z</time>
      </trkpt>
      <trkpt lat="45.20663" lon="4.32032">
        <ele>888.6</ele>
        <time>2026-04-24T11:07:23Z</time>
      </trkpt>
      <trkpt lat="45.20667" lon="4.32024">
        <ele>889</ele>
        <time>2026-04-24T11:07:28Z</time>
      </trkpt>
      <trkpt lat="45.2067" lon="4.32015">
        <ele>889.2</ele>
        <time>2026-04-24T11:07:33Z</time>
      </trkpt>
      <trkpt lat="45.20671" lon="4.32006">
        <ele>890</ele>
        <time>2026-04-24T11:07:38Z</time>
      </trkpt>
      <trkpt lat="45.20676" lon="4.31999">
        <ele>889</ele>
        <time>2026-04-24T11:07:43Z</time>
      </trkpt>
      <trkpt lat="45.2068" lon="4.31992">
        <ele>886.8</ele>
        <time>2026-04-24T11:07:48Z</time>
      </trkpt>
      <trkpt lat="45.20681" lon="4.31983">
        <ele>885.4</ele>
        <time>2026-04-24T11:07:53Z</time>
      </trkpt>
      <trkpt lat="45.2068" lon="4.31972">
        <ele>884.3</ele>
        <time>2026-04-24T11:07:58Z</time>
      </trkpt>
      <trkpt lat="45.2068" lon="4.31962">
        <ele>883.1</ele>
        <time>2026-04-24T11:08:03Z</time>
      </trkpt>
      <trkpt lat="45.2068" lon="4.31951">
        <ele>881.7</ele>
        <time>2026-04-24T11:08:08Z</time>
      </trkpt>
      <trkpt lat="45.20679" lon="4.31939">
        <ele>880.5</ele>
        <time>2026-04-24T11:08:13Z</time>
      </trkpt>
      <trkpt lat="45.20678" lon="4.31928">
        <ele>879.3</ele>
        <time>2026-04-24T11:08:18Z</time>
      </trkpt>
      <trkpt lat="45.20675" lon="4.31918">
        <ele>878.6</ele>
        <time>2026-04-24T11:08:23Z</time>
      </trkpt>
      <trkpt lat="45.20673" lon="4.31909">
        <ele>877.7</ele>
        <time>2026-04-24T11:08:28Z</time>
      </trkpt>
      <trkpt lat="45.20669" lon="4.31901">
        <ele>877.3</ele>
        <time>2026-04-24T11:08:33Z</time>
      </trkpt>
      <trkpt lat="45.20665" lon="4.31892">
        <ele>876.7</ele>
        <time>2026-04-24T11:08:38Z</time>
      </trkpt>
      <trkpt lat="45.20659" lon="4.31884">
        <ele>876.3</ele>
        <time>2026-04-24T11:08:43Z</time>
      </trkpt>
      <trkpt lat="45.20659" lon="4.31882">
        <ele>876</ele>
        <time>2026-04-24T11:08:48Z</time>
      </trkpt>
      <trkpt lat="45.20659" lon="4.3188">
        <ele>875.7</ele>
        <time>2026-04-24T11:08:53Z</time>
      </trkpt>
      <trkpt lat="45.20659" lon="4.3188">
        <ele>875.7</ele>
        <time>2026-04-24T11:08:58Z</time>
      </trkpt>
      <trkpt lat="45.20659" lon="4.3188">
        <ele>875.7</ele>
        <time>2026-04-24T11:09:03Z</time>
      </trkpt>
      <trkpt lat="45.20659" lon="4.3188">
        <ele>875.7</ele>
        <time>2026-04-24T11:09:08Z</time>
      </trkpt>
      <trkpt lat="45.20659" lon="4.3188">
        <ele>875.7</ele>
        <time>2026-04-24T11:09:13Z</time>
      </trkpt>
      <trkpt lat="45.20659" lon="4.3188">
        <ele>875.7</ele>
        <time>2026-04-24T11:09:18Z</time>
      </trkpt>
      <trkpt lat="45.20654" lon="4.31872">
        <ele>875.2</ele>
        <time>2026-04-24T11:09:23Z</time>
      </trkpt>
      <trkpt lat="45.20648" lon="4.31864">
        <ele>874.8</ele>
        <time>2026-04-24T11:09:28Z</time>
      </trkpt>
      <trkpt lat="45.20642" lon="4.31857">
        <ele>874.5</ele>
        <time>2026-04-24T11:09:33Z</time>
      </trkpt>
      <trkpt lat="45.20636" lon="4.31851">
        <ele>874.4</ele>
        <time>2026-04-24T11:09:38Z</time>
      </trkpt>
      <trkpt lat="45.20629" lon="4.31844">
        <ele>874.2</ele>
        <time>2026-04-24T11:09:43Z</time>
      </trkpt>
      <trkpt lat="45.20623" lon="4.31837">
        <ele>873.8</ele>
        <time>2026-04-24T11:09:48Z</time>
      </trkpt>
      <trkpt lat="45.20618" lon="4.31831">
        <ele>873.6</ele>
        <time>2026-04-24T11:09:53Z</time>
      </trkpt>
      <trkpt lat="45.20611" lon="4.31824">
        <ele>873.9</ele>
        <time>2026-04-24T11:09:58Z</time>
      </trkpt>
      <trkpt lat="45.20606" lon="4.31817">
        <ele>873.9</ele>
        <time>2026-04-24T11:10:03Z</time>
      </trkpt>
      <trkpt lat="45.20601" lon="4.3181">
        <ele>874</ele>
        <time>2026-04-24T11:10:08Z</time>
      </trkpt>
      <trkpt lat="45.20595" lon="4.31803">
        <ele>874.3</ele>
        <time>2026-04-24T11:10:13Z</time>
      </trkpt>
      <trkpt lat="45.20591" lon="4.31796">
        <ele>874.3</ele>
        <time>2026-04-24T11:10:18Z</time>
      </trkpt>
      <trkpt lat="45.20586" lon="4.31788">
        <ele>874.4</ele>
        <time>2026-04-24T11:10:23Z</time>
      </trkpt>
      <trkpt lat="45.20582" lon="4.3178">
        <ele>874.3</ele>
        <time>2026-04-24T11:10:28Z</time>
      </trkpt>
      <trkpt lat="45.20579" lon="4.31772">
        <ele>874.1</ele>
        <time>2026-04-24T11:10:33Z</time>
      </trkpt>
      <trkpt lat="45.20574" lon="4.31762">
        <ele>874</ele>
        <time>2026-04-24T11:10:38Z</time>
      </trkpt>
      <trkpt lat="45.2057" lon="4.31752">
        <ele>873.6</ele>
        <time>2026-04-24T11:10:43Z</time>
      </trkpt>
      <trkpt lat="45.20568" lon="4.31742">
        <ele>872.3</ele>
        <time>2026-04-24T11:10:48Z</time>
      </trkpt>
      <trkpt lat="45.20568" lon="4.31732">
        <ele>870.5</ele>
        <time>2026-04-24T11:10:53Z</time>
      </trkpt>
      <trkpt lat="45.20567" lon="4.31723">
        <ele>869</ele>
        <time>2026-04-24T11:10:58Z</time>
      </trkpt>
      <trkpt lat="45.20565" lon="4.31715">
        <ele>867.8</ele>
        <time>2026-04-24T11:11:03Z</time>
      </trkpt>
      <trkpt lat="45.20562" lon="4.31705">
        <ele>866.3</ele>
        <time>2026-04-24T11:11:08Z</time>
      </trkpt>
      <trkpt lat="45.20556" lon="4.31695">
        <ele>865.1</ele>
        <time>2026-04-24T11:11:13Z</time>
      </trkpt>
      <trkpt lat="45.20551" lon="4.31687">
        <ele>864</ele>
        <time>2026-04-24T11:11:18Z</time>
      </trkpt>
      <trkpt lat="45.20544" lon="4.31681">
        <ele>863.5</ele>
        <time>2026-04-24T11:11:23Z</time>
      </trkpt>
      <trkpt lat="45.20536" lon="4.31678">
        <ele>863.5</ele>
        <time>2026-04-24T11:11:28Z</time>
      </trkpt>
      <trkpt lat="45.2053" lon="4.31674">
        <ele>863.2</ele>
        <time>2026-04-24T11:11:33Z</time>
      </trkpt>
      <trkpt lat="45.20526" lon="4.31667">
        <ele>862.2</ele>
        <time>2026-04-24T11:11:38Z</time>
      </trkpt>
      <trkpt lat="45.2052" lon="4.31662">
        <ele>862</ele>
        <time>2026-04-24T11:11:43Z</time>
      </trkpt>
      <trkpt lat="45.20512" lon="4.3166">
        <ele>862.4</ele>
        <time>2026-04-24T11:11:48Z</time>
      </trkpt>
      <trkpt lat="45.20504" lon="4.31659">
        <ele>862.9</ele>
        <time>2026-04-24T11:11:53Z</time>
      </trkpt>
      <trkpt lat="45.20496" lon="4.31659">
        <ele>863.1</ele>
        <time>2026-04-24T11:11:58Z</time>
      </trkpt>
      <trkpt lat="45.20488" lon="4.31656">
        <ele>862.7</ele>
        <time>2026-04-24T11:12:03Z</time>
      </trkpt>
      <trkpt lat="45.20483" lon="4.31656">
        <ele>862.6</ele>
        <time>2026-04-24T11:12:08Z</time>
      </trkpt>
      <trkpt lat="45.20483" lon="4.31658">
        <ele>862.8</ele>
        <time>2026-04-24T11:12:13Z</time>
      </trkpt>
      <trkpt lat="45.20482" lon="4.31657">
        <ele>862.7</ele>
        <time>2026-04-24T11:12:18Z</time>
      </trkpt>
      <trkpt lat="45.20476" lon="4.31651">
        <ele>861.9</ele>
        <time>2026-04-24T11:12:23Z</time>
      </trkpt>
      <trkpt lat="45.2047" lon="4.31646">
        <ele>861.2</ele>
        <time>2026-04-24T11:12:28Z</time>
      </trkpt>
      <trkpt lat="45.20463" lon="4.31644">
        <ele>860.9</ele>
        <time>2026-04-24T11:12:33Z</time>
      </trkpt>
      <trkpt lat="45.20455" lon="4.31638">
        <ele>860</ele>
        <time>2026-04-24T11:12:38Z</time>
      </trkpt>
      <trkpt lat="45.20446" lon="4.31631">
        <ele>858.9</ele>
        <time>2026-04-24T11:12:43Z</time>
      </trkpt>
      <trkpt lat="45.20439" lon="4.31626">
        <ele>858.2</ele>
        <time>2026-04-24T11:12:48Z</time>
      </trkpt>
      <trkpt lat="45.20431" lon="4.31623">
        <ele>857.6</ele>
        <time>2026-04-24T11:12:53Z</time>
      </trkpt>
      <trkpt lat="45.20426" lon="4.31617">
        <ele>856.7</ele>
        <time>2026-04-24T11:12:58Z</time>
      </trkpt>
      <trkpt lat="45.20421" lon="4.31612">
        <ele>855.9</ele>
        <time>2026-04-24T11:13:03Z</time>
      </trkpt>
      <trkpt lat="45.20415" lon="4.31609">
        <ele>855.5</ele>
        <time>2026-04-24T11:13:08Z</time>
      </trkpt>
      <trkpt lat="45.20409" lon="4.31601">
        <ele>854.8</ele>
        <time>2026-04-24T11:13:13Z</time>
      </trkpt>
      <trkpt lat="45.20405" lon="4.31594">
        <ele>854.1</ele>
        <time>2026-04-24T11:13:18Z</time>
      </trkpt>
      <trkpt lat="45.20402" lon="4.31582">
        <ele>852.8</ele>
        <time>2026-04-24T11:13:23Z</time>
      </trkpt>
      <trkpt lat="45.20399" lon="4.31571">
        <ele>852.3</ele>
        <time>2026-04-24T11:13:28Z</time>
      </trkpt>
      <trkpt lat="45.20397" lon="4.3156">
        <ele>851.8</ele>
        <time>2026-04-24T11:13:33Z</time>
      </trkpt>
      <trkpt lat="45.20393" lon="4.31551">
        <ele>851.5</ele>
        <time>2026-04-24T11:13:38Z</time>
      </trkpt>
      <trkpt lat="45.20386" lon="4.31543">
        <ele>851.4</ele>
        <time>2026-04-24T11:13:43Z</time>
      </trkpt>
      <trkpt lat="45.20381" lon="4.31538">
        <ele>851.4</ele>
        <time>2026-04-24T11:13:48Z</time>
      </trkpt>
      <trkpt lat="45.20374" lon="4.31532">
        <ele>851.5</ele>
        <time>2026-04-24T11:13:53Z</time>
      </trkpt>
      <trkpt lat="45.20366" lon="4.31526">
        <ele>851.6</ele>
        <time>2026-04-24T11:13:58Z</time>
      </trkpt>
      <trkpt lat="45.2036" lon="4.31521">
        <ele>851.7</ele>
        <time>2026-04-24T11:14:03Z</time>
      </trkpt>
      <trkpt lat="45.20353" lon="4.31517">
        <ele>851.8</ele>
        <time>2026-04-24T11:14:08Z</time>
      </trkpt>
      <trkpt lat="45.20348" lon="4.31514">
        <ele>852</ele>
        <time>2026-04-24T11:14:13Z</time>
      </trkpt>
      <trkpt lat="45.20342" lon="4.31511">
        <ele>852.1</ele>
        <time>2026-04-24T11:14:18Z</time>
      </trkpt>
      <trkpt lat="45.20334" lon="4.3151">
        <ele>852.6</ele>
        <time>2026-04-24T11:14:23Z</time>
      </trkpt>
      <trkpt lat="45.20326" lon="4.3151">
        <ele>853.9</ele>
        <time>2026-04-24T11:14:28Z</time>
      </trkpt>
      <trkpt lat="45.20319" lon="4.31512">
        <ele>855.2</ele>
        <time>2026-04-24T11:14:33Z</time>
      </trkpt>
      <trkpt lat="45.20313" lon="4.31514">
        <ele>856.3</ele>
        <time>2026-04-24T11:14:38Z</time>
      </trkpt>
      <trkpt lat="45.20307" lon="4.31518">
        <ele>857.5</ele>
        <time>2026-04-24T11:14:43Z</time>
      </trkpt>
      <trkpt lat="45.203" lon="4.31523">
        <ele>858.9</ele>
        <time>2026-04-24T11:14:48Z</time>
      </trkpt>
      <trkpt lat="45.20294" lon="4.31529">
        <ele>860.2</ele>
        <time>2026-04-24T11:14:53Z</time>
      </trkpt>
      <trkpt lat="45.20286" lon="4.31533">
        <ele>861.6</ele>
        <time>2026-04-24T11:14:58Z</time>
      </trkpt>
      <trkpt lat="45.20278" lon="4.31538">
        <ele>863</ele>
        <time>2026-04-24T11:15:03Z</time>
      </trkpt>
      <trkpt lat="45.2027" lon="4.31541">
        <ele>864.4</ele>
        <time>2026-04-24T11:15:08Z</time>
      </trkpt>
      <trkpt lat="45.20262" lon="4.31543">
        <ele>865.7</ele>
        <time>2026-04-24T11:15:13Z</time>
      </trkpt>
      <trkpt lat="45.20255" lon="4.31539">
        <ele>866.7</ele>
        <time>2026-04-24T11:15:18Z</time>
      </trkpt>
      <trkpt lat="45.20251" lon="4.31531">
        <ele>867.2</ele>
        <time>2026-04-24T11:15:23Z</time>
      </trkpt>
      <trkpt lat="45.20248" lon="4.31523">
        <ele>867.4</ele>
        <time>2026-04-24T11:15:28Z</time>
      </trkpt>
      <trkpt lat="45.20246" lon="4.31515">
        <ele>867.5</ele>
        <time>2026-04-24T11:15:33Z</time>
      </trkpt>
      <trkpt lat="45.20246" lon="4.31508">
        <ele>867.4</ele>
        <time>2026-04-24T11:15:38Z</time>
      </trkpt>
      <trkpt lat="45.20246" lon="4.31497">
        <ele>866.9</ele>
        <time>2026-04-24T11:15:43Z</time>
      </trkpt>
      <trkpt lat="45.20247" lon="4.31484">
        <ele>865.2</ele>
        <time>2026-04-24T11:15:48Z</time>
      </trkpt>
      <trkpt lat="45.20247" lon="4.31471">
        <ele>863.7</ele>
        <time>2026-04-24T11:15:53Z</time>
      </trkpt>
      <trkpt lat="45.20246" lon="4.31463">
        <ele>862.7</ele>
        <time>2026-04-24T11:15:58Z</time>
      </trkpt>
      <trkpt lat="45.20244" lon="4.31453">
        <ele>861.6</ele>
        <time>2026-04-24T11:16:03Z</time>
      </trkpt>
      <trkpt lat="45.20242" lon="4.31443">
        <ele>860.4</ele>
        <time>2026-04-24T11:16:08Z</time>
      </trkpt>
      <trkpt lat="45.20239" lon="4.31434">
        <ele>859.4</ele>
        <time>2026-04-24T11:16:13Z</time>
      </trkpt>
      <trkpt lat="45.20235" lon="4.31425">
        <ele>858.4</ele>
        <time>2026-04-24T11:16:18Z</time>
      </trkpt>
      <trkpt lat="45.20229" lon="4.31417">
        <ele>857.5</ele>
        <time>2026-04-24T11:16:23Z</time>
      </trkpt>
      <trkpt lat="45.20221" lon="4.31415">
        <ele>857.6</ele>
        <time>2026-04-24T11:16:28Z</time>
      </trkpt>
      <trkpt lat="45.20214" lon="4.3141">
        <ele>857.8</ele>
        <time>2026-04-24T11:16:33Z</time>
      </trkpt>
      <trkpt lat="45.20207" lon="4.31404">
        <ele>858</ele>
        <time>2026-04-24T11:16:38Z</time>
      </trkpt>
      <trkpt lat="45.20201" lon="4.31393">
        <ele>858.4</ele>
        <time>2026-04-24T11:16:43Z</time>
      </trkpt>
      <trkpt lat="45.20197" lon="4.31382">
        <ele>858.8</ele>
        <time>2026-04-24T11:16:48Z</time>
      </trkpt>
      <trkpt lat="45.20195" lon="4.31371">
        <ele>859.2</ele>
        <time>2026-04-24T11:16:53Z</time>
      </trkpt>
      <trkpt lat="45.20196" lon="4.31361">
        <ele>859.2</ele>
        <time>2026-04-24T11:16:58Z</time>
      </trkpt>
      <trkpt lat="45.20198" lon="4.31356">
        <ele>859.1</ele>
        <time>2026-04-24T11:17:03Z</time>
      </trkpt>
      <trkpt lat="45.20197" lon="4.31351">
        <ele>859.3</ele>
        <time>2026-04-24T11:17:08Z</time>
      </trkpt>
      <trkpt lat="45.20197" lon="4.31351">
        <ele>859.3</ele>
        <time>2026-04-24T11:17:13Z</time>
      </trkpt>
      <trkpt lat="45.20197" lon="4.31351">
        <ele>859.3</ele>
        <time>2026-04-24T11:17:18Z</time>
      </trkpt>
      <trkpt lat="45.20197" lon="4.31351">
        <ele>859.3</ele>
        <time>2026-04-24T11:17:23Z</time>
      </trkpt>
      <trkpt lat="45.20197" lon="4.31351">
        <ele>859.3</ele>
        <time>2026-04-24T11:17:28Z</time>
      </trkpt>
      <trkpt lat="45.20197" lon="4.31351">
        <ele>859.3</ele>
        <time>2026-04-24T11:17:33Z</time>
      </trkpt>
      <trkpt lat="45.20208" lon="4.3134">
        <ele>857.6</ele>
        <time>2026-04-24T11:17:38Z</time>
      </trkpt>
      <trkpt lat="45.20208" lon="4.31333">
        <ele>857.6</ele>
        <time>2026-04-24T11:17:43Z</time>
      </trkpt>
      <trkpt lat="45.20206" lon="4.31333">
        <ele>858</ele>
        <time>2026-04-24T11:17:48Z</time>
      </trkpt>
      <trkpt lat="45.20207" lon="4.3133">
        <ele>858.4</ele>
        <time>2026-04-24T11:17:53Z</time>
      </trkpt>
      <trkpt lat="45.20213" lon="4.31328">
        <ele>857.7</ele>
        <time>2026-04-24T11:17:58Z</time>
      </trkpt>
      <trkpt lat="45.2022" lon="4.31326">
        <ele>856.8</ele>
        <time>2026-04-24T11:18:03Z</time>
      </trkpt>
      <trkpt lat="45.20227" lon="4.31326">
        <ele>855.5</ele>
        <time>2026-04-24T11:18:08Z</time>
      </trkpt>
      <trkpt lat="45.20233" lon="4.31327">
        <ele>854.3</ele>
        <time>2026-04-24T11:18:13Z</time>
      </trkpt>
      <trkpt lat="45.20239" lon="4.31327">
        <ele>853.2</ele>
        <time>2026-04-24T11:18:18Z</time>
      </trkpt>
      <trkpt lat="45.20246" lon="4.31326">
        <ele>852.1</ele>
        <time>2026-04-24T11:18:23Z</time>
      </trkpt>
      <trkpt lat="45.20252" lon="4.3132">
        <ele>852.3</ele>
        <time>2026-04-24T11:18:28Z</time>
      </trkpt>
      <trkpt lat="45.20258" lon="4.31313">
        <ele>853</ele>
        <time>2026-04-24T11:18:33Z</time>
      </trkpt>
      <trkpt lat="45.20262" lon="4.31306">
        <ele>853.8</ele>
        <time>2026-04-24T11:18:38Z</time>
      </trkpt>
      <trkpt lat="45.20264" lon="4.31299">
        <ele>854.8</ele>
        <time>2026-04-24T11:18:43Z</time>
      </trkpt>
      <trkpt lat="45.20265" lon="4.31289">
        <ele>856.4</ele>
        <time>2026-04-24T11:18:48Z</time>
      </trkpt>
      <trkpt lat="45.20265" lon="4.3128">
        <ele>858</ele>
        <time>2026-04-24T11:18:53Z</time>
      </trkpt>
      <trkpt lat="45.20263" lon="4.3127">
        <ele>860.1</ele>
        <time>2026-04-24T11:18:58Z</time>
      </trkpt>
      <trkpt lat="45.2026" lon="4.31262">
        <ele>862</ele>
        <time>2026-04-24T11:19:03Z</time>
      </trkpt>
      <trkpt lat="45.20256" lon="4.31253">
        <ele>864.4</ele>
        <time>2026-04-24T11:19:08Z</time>
      </trkpt>
      <trkpt lat="45.20251" lon="4.31246">
        <ele>866</ele>
        <time>2026-04-24T11:19:13Z</time>
      </trkpt>
      <trkpt lat="45.20246" lon="4.3124">
        <ele>867</ele>
        <time>2026-04-24T11:19:18Z</time>
      </trkpt>
      <trkpt lat="45.2024" lon="4.31232">
        <ele>868.4</ele>
        <time>2026-04-24T11:19:23Z</time>
      </trkpt>
      <trkpt lat="45.20235" lon="4.31226">
        <ele>869.4</ele>
        <time>2026-04-24T11:19:28Z</time>
      </trkpt>
      <trkpt lat="45.20231" lon="4.31218">
        <ele>870.4</ele>
        <time>2026-04-24T11:19:33Z</time>
      </trkpt>
      <trkpt lat="45.20227" lon="4.31211">
        <ele>871.4</ele>
        <time>2026-04-24T11:19:38Z</time>
      </trkpt>
      <trkpt lat="45.20224" lon="4.31202">
        <ele>872.3</ele>
        <time>2026-04-24T11:19:43Z</time>
      </trkpt>
      <trkpt lat="45.20222" lon="4.31195">
        <ele>872.9</ele>
        <time>2026-04-24T11:19:48Z</time>
      </trkpt>
      <trkpt lat="45.20221" lon="4.31185">
        <ele>873.5</ele>
        <time>2026-04-24T11:19:53Z</time>
      </trkpt>
      <trkpt lat="45.20221" lon="4.31176">
        <ele>873.8</ele>
        <time>2026-04-24T11:19:58Z</time>
      </trkpt>
      <trkpt lat="45.20223" lon="4.31166">
        <ele>873.8</ele>
        <time>2026-04-24T11:20:03Z</time>
      </trkpt>
      <trkpt lat="45.20224" lon="4.31155">
        <ele>872.9</ele>
        <time>2026-04-24T11:20:08Z</time>
      </trkpt>
      <trkpt lat="45.20226" lon="4.31144">
        <ele>871.8</ele>
        <time>2026-04-24T11:20:13Z</time>
      </trkpt>
      <trkpt lat="45.20227" lon="4.31134">
        <ele>870.9</ele>
        <time>2026-04-24T11:20:18Z</time>
      </trkpt>
      <trkpt lat="45.20227" lon="4.31125">
        <ele>870.3</ele>
        <time>2026-04-24T11:20:23Z</time>
      </trkpt>
      <trkpt lat="45.20227" lon="4.31116">
        <ele>869.7</ele>
        <time>2026-04-24T11:20:28Z</time>
      </trkpt>
      <trkpt lat="45.20225" lon="4.31106">
        <ele>869.4</ele>
        <time>2026-04-24T11:20:33Z</time>
      </trkpt>
      <trkpt lat="45.20222" lon="4.31096">
        <ele>869.2</ele>
        <time>2026-04-24T11:20:38Z</time>
      </trkpt>
      <trkpt lat="45.2022" lon="4.31087">
        <ele>869</ele>
        <time>2026-04-24T11:20:43Z</time>
      </trkpt>
      <trkpt lat="45.20217" lon="4.31075">
        <ele>868.4</ele>
        <time>2026-04-24T11:20:48Z</time>
      </trkpt>
      <trkpt lat="45.20212" lon="4.31068">
        <ele>868.6</ele>
        <time>2026-04-24T11:20:53Z</time>
      </trkpt>
      <trkpt lat="45.20206" lon="4.31061">
        <ele>869.1</ele>
        <time>2026-04-24T11:20:58Z</time>
      </trkpt>
      <trkpt lat="45.20202" lon="4.31055">
        <ele>869.3</ele>
        <time>2026-04-24T11:21:03Z</time>
      </trkpt>
      <trkpt lat="45.20197" lon="4.31048">
        <ele>869.6</ele>
        <time>2026-04-24T11:21:08Z</time>
      </trkpt>
      <trkpt lat="45.20191" lon="4.31039">
        <ele>870</ele>
        <time>2026-04-24T11:21:13Z</time>
      </trkpt>
      <trkpt lat="45.20185" lon="4.31031">
        <ele>870.5</ele>
        <time>2026-04-24T11:21:18Z</time>
      </trkpt>
      <trkpt lat="45.20181" lon="4.31025">
        <ele>870.9</ele>
        <time>2026-04-24T11:21:23Z</time>
      </trkpt>
      <trkpt lat="45.20178" lon="4.31018">
        <ele>870.9</ele>
        <time>2026-04-24T11:21:28Z</time>
      </trkpt>
      <trkpt lat="45.20173" lon="4.3101">
        <ele>871.4</ele>
        <time>2026-04-24T11:21:33Z</time>
      </trkpt>
      <trkpt lat="45.20166" lon="4.31004">
        <ele>872.4</ele>
        <time>2026-04-24T11:21:38Z</time>
      </trkpt>
      <trkpt lat="45.20161" lon="4.30999">
        <ele>872.4</ele>
        <time>2026-04-24T11:21:43Z</time>
      </trkpt>
      <trkpt lat="45.20157" lon="4.30989">
        <ele>871.8</ele>
        <time>2026-04-24T11:21:48Z</time>
      </trkpt>
      <trkpt lat="45.20152" lon="4.3098">
        <ele>871.5</ele>
        <time>2026-04-24T11:21:53Z</time>
      </trkpt>
      <trkpt lat="45.20148" lon="4.30971">
        <ele>871.2</ele>
        <time>2026-04-24T11:21:58Z</time>
      </trkpt>
      <trkpt lat="45.20144" lon="4.30962">
        <ele>871</ele>
        <time>2026-04-24T11:22:03Z</time>
      </trkpt>
      <trkpt lat="45.20141" lon="4.30952">
        <ele>870.7</ele>
        <time>2026-04-24T11:22:08Z</time>
      </trkpt>
      <trkpt lat="45.2014" lon="4.30942">
        <ele>870.2</ele>
        <time>2026-04-24T11:22:13Z</time>
      </trkpt>
      <trkpt lat="45.20138" lon="4.30931">
        <ele>869.8</ele>
        <time>2026-04-24T11:22:18Z</time>
      </trkpt>
      <trkpt lat="45.20135" lon="4.30923">
        <ele>869.9</ele>
        <time>2026-04-24T11:22:23Z</time>
      </trkpt>
      <trkpt lat="45.20134" lon="4.30914">
        <ele>869.6</ele>
        <time>2026-04-24T11:22:28Z</time>
      </trkpt>
      <trkpt lat="45.20133" lon="4.30905">
        <ele>869.4</ele>
        <time>2026-04-24T11:22:33Z</time>
      </trkpt>
      <trkpt lat="45.20133" lon="4.30895">
        <ele>869</ele>
        <time>2026-04-24T11:22:38Z</time>
      </trkpt>
      <trkpt lat="45.20135" lon="4.30886">
        <ele>868.2</ele>
        <time>2026-04-24T11:22:43Z</time>
      </trkpt>
      <trkpt lat="45.20136" lon="4.30876">
        <ele>867.5</ele>
        <time>2026-04-24T11:22:48Z</time>
      </trkpt>
      <trkpt lat="45.20136" lon="4.30866">
        <ele>867.1</ele>
        <time>2026-04-24T11:22:53Z</time>
      </trkpt>
      <trkpt lat="45.20136" lon="4.30856">
        <ele>866.7</ele>
        <time>2026-04-24T11:22:58Z</time>
      </trkpt>
      <trkpt lat="45.20134" lon="4.30852">
        <ele>867</ele>
        <time>2026-04-24T11:23:03Z</time>
      </trkpt>
      <trkpt lat="45.20131" lon="4.30848">
        <ele>867.6</ele>
        <time>2026-04-24T11:23:08Z</time>
      </trkpt>
      <trkpt lat="45.20131" lon="4.30841">
        <ele>867.3</ele>
        <time>2026-04-24T11:23:13Z</time>
      </trkpt>
      <trkpt lat="45.20127" lon="4.30836">
        <ele>868.1</ele>
        <time>2026-04-24T11:23:18Z</time>
      </trkpt>
      <trkpt lat="45.20124" lon="4.30833">
        <ele>868.7</ele>
        <time>2026-04-24T11:23:23Z</time>
      </trkpt>
      <trkpt lat="45.20119" lon="4.3083">
        <ele>869.8</ele>
        <time>2026-04-24T11:23:28Z</time>
      </trkpt>
      <trkpt lat="45.20113" lon="4.30829">
        <ele>871.2</ele>
        <time>2026-04-24T11:23:33Z</time>
      </trkpt>
      <trkpt lat="45.20107" lon="4.30828">
        <ele>872.6</ele>
        <time>2026-04-24T11:23:38Z</time>
      </trkpt>
      <trkpt lat="45.20099" lon="4.30828">
        <ele>874.6</ele>
        <time>2026-04-24T11:23:43Z</time>
      </trkpt>
      <trkpt lat="45.20089" lon="4.30826">
        <ele>876.8</ele>
        <time>2026-04-24T11:23:48Z</time>
      </trkpt>
      <trkpt lat="45.20085" lon="4.3082">
        <ele>877.2</ele>
        <time>2026-04-24T11:23:53Z</time>
      </trkpt>
      <trkpt lat="45.20082" lon="4.30812">
        <ele>877</ele>
        <time>2026-04-24T11:23:58Z</time>
      </trkpt>
      <trkpt lat="45.2008" lon="4.30805">
        <ele>876.6</ele>
        <time>2026-04-24T11:24:03Z</time>
      </trkpt>
      <trkpt lat="45.20079" lon="4.30795">
        <ele>875.8</ele>
        <time>2026-04-24T11:24:08Z</time>
      </trkpt>
      <trkpt lat="45.2008" lon="4.30785">
        <ele>874.6</ele>
        <time>2026-04-24T11:24:13Z</time>
      </trkpt>
      <trkpt lat="45.20081" lon="4.30775">
        <ele>873.3</ele>
        <time>2026-04-24T11:24:18Z</time>
      </trkpt>
      <trkpt lat="45.20083" lon="4.30766">
        <ele>871.8</ele>
        <time>2026-04-24T11:24:23Z</time>
      </trkpt>
      <trkpt lat="45.20085" lon="4.30758">
        <ele>870.6</ele>
        <time>2026-04-24T11:24:28Z</time>
      </trkpt>
      <trkpt lat="45.20085" lon="4.30748">
        <ele>869.7</ele>
        <time>2026-04-24T11:24:33Z</time>
      </trkpt>
      <trkpt lat="45.20083" lon="4.30738">
        <ele>870.2</ele>
        <time>2026-04-24T11:24:38Z</time>
      </trkpt>
      <trkpt lat="45.2008" lon="4.3073">
        <ele>871.2</ele>
        <time>2026-04-24T11:24:43Z</time>
      </trkpt>
      <trkpt lat="45.20076" lon="4.30723">
        <ele>872.3</ele>
        <time>2026-04-24T11:24:48Z</time>
      </trkpt>
      <trkpt lat="45.20071" lon="4.30714">
        <ele>873.8</ele>
        <time>2026-04-24T11:24:53Z</time>
      </trkpt>
      <trkpt lat="45.20067" lon="4.30707">
        <ele>874.9</ele>
        <time>2026-04-24T11:24:58Z</time>
      </trkpt>
      <trkpt lat="45.20062" lon="4.30699">
        <ele>876.3</ele>
        <time>2026-04-24T11:25:03Z</time>
      </trkpt>
      <trkpt lat="45.20057" lon="4.30691">
        <ele>877.8</ele>
        <time>2026-04-24T11:25:08Z</time>
      </trkpt>
      <trkpt lat="45.20055" lon="4.30682">
        <ele>878.4</ele>
        <time>2026-04-24T11:25:13Z</time>
      </trkpt>
      <trkpt lat="45.20054" lon="4.30672">
        <ele>878.7</ele>
        <time>2026-04-24T11:25:18Z</time>
      </trkpt>
      <trkpt lat="45.20054" lon="4.30662">
        <ele>878.7</ele>
        <time>2026-04-24T11:25:23Z</time>
      </trkpt>
      <trkpt lat="45.20056" lon="4.30653">
        <ele>878</ele>
        <time>2026-04-24T11:25:28Z</time>
      </trkpt>
      <trkpt lat="45.2006" lon="4.30643">
        <ele>876.9</ele>
        <time>2026-04-24T11:25:33Z</time>
      </trkpt>
      <trkpt lat="45.20062" lon="4.30633">
        <ele>876.4</ele>
        <time>2026-04-24T11:25:38Z</time>
      </trkpt>
      <trkpt lat="45.20061" lon="4.30623">
        <ele>876.5</ele>
        <time>2026-04-24T11:25:43Z</time>
      </trkpt>
      <trkpt lat="45.2006" lon="4.30613">
        <ele>876.6</ele>
        <time>2026-04-24T11:25:48Z</time>
      </trkpt>
      <trkpt lat="45.20059" lon="4.30603">
        <ele>876.7</ele>
        <time>2026-04-24T11:25:53Z</time>
      </trkpt>
      <trkpt lat="45.20056" lon="4.30592">
        <ele>877.1</ele>
        <time>2026-04-24T11:25:58Z</time>
      </trkpt>
      <trkpt lat="45.20053" lon="4.30583">
        <ele>877.3</ele>
        <time>2026-04-24T11:26:03Z</time>
      </trkpt>
      <trkpt lat="45.20048" lon="4.30577">
        <ele>877</ele>
        <time>2026-04-24T11:26:08Z</time>
      </trkpt>
      <trkpt lat="45.2004" lon="4.30572">
        <ele>877.3</ele>
        <time>2026-04-24T11:26:13Z</time>
      </trkpt>
      <trkpt lat="45.20034" lon="4.3057">
        <ele>877.8</ele>
        <time>2026-04-24T11:26:18Z</time>
      </trkpt>
      <trkpt lat="45.20028" lon="4.30568">
        <ele>878.3</ele>
        <time>2026-04-24T11:26:23Z</time>
      </trkpt>
      <trkpt lat="45.20021" lon="4.30564">
        <ele>878.7</ele>
        <time>2026-04-24T11:26:28Z</time>
      </trkpt>
      <trkpt lat="45.20017" lon="4.30561">
        <ele>878.7</ele>
        <time>2026-04-24T11:26:33Z</time>
      </trkpt>
      <trkpt lat="45.20013" lon="4.3056">
        <ele>879.2</ele>
        <time>2026-04-24T11:26:38Z</time>
      </trkpt>
      <trkpt lat="45.2001" lon="4.30556">
        <ele>878.9</ele>
        <time>2026-04-24T11:26:43Z</time>
      </trkpt>
      <trkpt lat="45.20006" lon="4.3055">
        <ele>878.5</ele>
        <time>2026-04-24T11:26:48Z</time>
      </trkpt>
      <trkpt lat="45.20007" lon="4.30542">
        <ele>877</ele>
        <time>2026-04-24T11:26:53Z</time>
      </trkpt>
      <trkpt lat="45.20006" lon="4.30534">
        <ele>875.8</ele>
        <time>2026-04-24T11:26:58Z</time>
      </trkpt>
      <trkpt lat="45.20003" lon="4.30527">
        <ele>875.1</ele>
        <time>2026-04-24T11:27:03Z</time>
      </trkpt>
      <trkpt lat="45.2" lon="4.30521">
        <ele>874.5</ele>
        <time>2026-04-24T11:27:08Z</time>
      </trkpt>
      <trkpt lat="45.19996" lon="4.30511">
        <ele>873.4</ele>
        <time>2026-04-24T11:27:13Z</time>
      </trkpt>
      <trkpt lat="45.19992" lon="4.30505">
        <ele>872.9</ele>
        <time>2026-04-24T11:27:18Z</time>
      </trkpt>
      <trkpt lat="45.19989" lon="4.30499">
        <ele>872.2</ele>
        <time>2026-04-24T11:27:23Z</time>
      </trkpt>
      <trkpt lat="45.19985" lon="4.30494">
        <ele>871.7</ele>
        <time>2026-04-24T11:27:28Z</time>
      </trkpt>
      <trkpt lat="45.19982" lon="4.30487">
        <ele>870.7</ele>
        <time>2026-04-24T11:27:33Z</time>
      </trkpt>
      <trkpt lat="45.19978" lon="4.30481">
        <ele>870</ele>
        <time>2026-04-24T11:27:38Z</time>
      </trkpt>
      <trkpt lat="45.19973" lon="4.30476">
        <ele>869.7</ele>
        <time>2026-04-24T11:27:43Z</time>
      </trkpt>
      <trkpt lat="45.19967" lon="4.30469">
        <ele>869.1</ele>
        <time>2026-04-24T11:27:48Z</time>
      </trkpt>
      <trkpt lat="45.19963" lon="4.30463">
        <ele>868.5</ele>
        <time>2026-04-24T11:27:53Z</time>
      </trkpt>
      <trkpt lat="45.1996" lon="4.30457">
        <ele>867.7</ele>
        <time>2026-04-24T11:27:58Z</time>
      </trkpt>
      <trkpt lat="45.19957" lon="4.30449">
        <ele>866.6</ele>
        <time>2026-04-24T11:28:03Z</time>
      </trkpt>
      <trkpt lat="45.19949" lon="4.30439">
        <ele>865.9</ele>
        <time>2026-04-24T11:28:08Z</time>
      </trkpt>
      <trkpt lat="45.19942" lon="4.3043">
        <ele>865.3</ele>
        <time>2026-04-24T11:28:13Z</time>
      </trkpt>
      <trkpt lat="45.19939" lon="4.30424">
        <ele>864.6</ele>
        <time>2026-04-24T11:28:18Z</time>
      </trkpt>
      <trkpt lat="45.19936" lon="4.30417">
        <ele>863.8</ele>
        <time>2026-04-24T11:28:23Z</time>
      </trkpt>
      <trkpt lat="45.19931" lon="4.30407">
        <ele>863</ele>
        <time>2026-04-24T11:28:28Z</time>
      </trkpt>
      <trkpt lat="45.19928" lon="4.304">
        <ele>862.3</ele>
        <time>2026-04-24T11:28:33Z</time>
      </trkpt>
      <trkpt lat="45.19928" lon="4.30392">
        <ele>861</ele>
        <time>2026-04-24T11:28:38Z</time>
      </trkpt>
      <trkpt lat="45.19928" lon="4.3039">
        <ele>860.6</ele>
        <time>2026-04-24T11:28:43Z</time>
      </trkpt>
      <trkpt lat="45.19928" lon="4.3039">
        <ele>860.6</ele>
        <time>2026-04-24T11:28:48Z</time>
      </trkpt>
      <trkpt lat="45.19928" lon="4.3039">
        <ele>860.6</ele>
        <time>2026-04-24T11:28:53Z</time>
      </trkpt>
      <trkpt lat="45.19928" lon="4.3039">
        <ele>860.6</ele>
        <time>2026-04-24T11:28:58Z</time>
      </trkpt>
      <trkpt lat="45.19928" lon="4.3039">
        <ele>860.6</ele>
        <time>2026-04-24T11:29:03Z</time>
      </trkpt>
      <trkpt lat="45.19928" lon="4.3039">
        <ele>860.6</ele>
        <time>2026-04-24T11:29:08Z</time>
      </trkpt>
      <trkpt lat="45.19928" lon="4.3039">
        <ele>860.6</ele>
        <time>2026-04-24T11:29:13Z</time>
      </trkpt>
      <trkpt lat="45.19928" lon="4.3039">
        <ele>860.6</ele>
        <time>2026-04-24T11:29:18Z</time>
      </trkpt>
      <trkpt lat="45.19928" lon="4.3039">
        <ele>860.6</ele>
        <time>2026-04-24T11:29:23Z</time>
      </trkpt>
      <trkpt lat="45.19928" lon="4.3039">
        <ele>860.6</ele>
        <time>2026-04-24T11:29:28Z</time>
      </trkpt>
      <trkpt lat="45.19928" lon="4.3039">
        <ele>860.6</ele>
        <time>2026-04-24T11:29:33Z</time>
      </trkpt>
      <trkpt lat="45.19928" lon="4.3039">
        <ele>860.6</ele>
        <time>2026-04-24T11:29:38Z</time>
      </trkpt>
      <trkpt lat="45.19928" lon="4.3039">
        <ele>860.6</ele>
        <time>2026-04-24T11:29:43Z</time>
      </trkpt>
      <trkpt lat="45.19928" lon="4.3039">
        <ele>860.6</ele>
        <time>2026-04-24T11:29:48Z</time>
      </trkpt>
      <trkpt lat="45.19928" lon="4.3039">
        <ele>860.6</ele>
        <time>2026-04-24T11:29:53Z</time>
      </trkpt>
      <trkpt lat="45.19928" lon="4.3039">
        <ele>860.6</ele>
        <time>2026-04-24T11:29:58Z</time>
      </trkpt>
      <trkpt lat="45.19927" lon="4.30385">
        <ele>859.9</ele>
        <time>2026-04-24T11:30:03Z</time>
      </trkpt>
      <trkpt lat="45.19923" lon="4.30373">
        <ele>858.4</ele>
        <time>2026-04-24T11:30:08Z</time>
      </trkpt>
      <trkpt lat="45.19922" lon="4.30364">
        <ele>856.9</ele>
        <time>2026-04-24T11:30:13Z</time>
      </trkpt>
      <trkpt lat="45.19921" lon="4.30357">
        <ele>855.8</ele>
        <time>2026-04-24T11:30:18Z</time>
      </trkpt>
      <trkpt lat="45.19921" lon="4.30352">
        <ele>855</ele>
        <time>2026-04-24T11:30:23Z</time>
      </trkpt>
      <trkpt lat="45.19921" lon="4.3035">
        <ele>854.6</ele>
        <time>2026-04-24T11:30:28Z</time>
      </trkpt>
      <trkpt lat="45.19921" lon="4.30349">
        <ele>854.4</ele>
        <time>2026-04-24T11:30:33Z</time>
      </trkpt>
      <trkpt lat="45.19921" lon="4.30349">
        <ele>854.4</ele>
        <time>2026-04-24T11:30:38Z</time>
      </trkpt>
      <trkpt lat="45.19921" lon="4.30349">
        <ele>854.4</ele>
        <time>2026-04-24T11:30:43Z</time>
      </trkpt>
      <trkpt lat="45.19921" lon="4.30349">
        <ele>854.4</ele>
        <time>2026-04-24T11:30:48Z</time>
      </trkpt>
      <trkpt lat="45.19924" lon="4.30345">
        <ele>853.5</ele>
        <time>2026-04-24T11:30:53Z</time>
      </trkpt>
      <trkpt lat="45.19926" lon="4.30338">
        <ele>852.1</ele>
        <time>2026-04-24T11:30:58Z</time>
      </trkpt>
      <trkpt lat="45.19926" lon="4.30332">
        <ele>851.4</ele>
        <time>2026-04-24T11:31:03Z</time>
      </trkpt>
      <trkpt lat="45.19929" lon="4.30326">
        <ele>851.6</ele>
        <time>2026-04-24T11:31:08Z</time>
      </trkpt>
      <trkpt lat="45.19932" lon="4.3032">
        <ele>851.8</ele>
        <time>2026-04-24T11:31:13Z</time>
      </trkpt>
      <trkpt lat="45.19933" lon="4.30317">
        <ele>851.9</ele>
        <time>2026-04-24T11:31:18Z</time>
      </trkpt>
      <trkpt lat="45.19934" lon="4.30311">
        <ele>852.3</ele>
        <time>2026-04-24T11:31:23Z</time>
      </trkpt>
      <trkpt lat="45.19934" lon="4.30306">
        <ele>852.6</ele>
        <time>2026-04-24T11:31:28Z</time>
      </trkpt>
      <trkpt lat="45.19937" lon="4.30302">
        <ele>852.7</ele>
        <time>2026-04-24T11:31:33Z</time>
      </trkpt>
      <trkpt lat="45.19938" lon="4.30293">
        <ele>853.3</ele>
        <time>2026-04-24T11:31:38Z</time>
      </trkpt>
      <trkpt lat="45.19941" lon="4.30285">
        <ele>853.7</ele>
        <time>2026-04-24T11:31:43Z</time>
      </trkpt>
      <trkpt lat="45.19942" lon="4.30278">
        <ele>854.1</ele>
        <time>2026-04-24T11:31:48Z</time>
      </trkpt>
      <trkpt lat="45.19945" lon="4.30271">
        <ele>854.5</ele>
        <time>2026-04-24T11:31:53Z</time>
      </trkpt>
      <trkpt lat="45.19947" lon="4.30265">
        <ele>854.8</ele>
        <time>2026-04-24T11:31:58Z</time>
      </trkpt>
      <trkpt lat="45.19949" lon="4.30259">
        <ele>855.2</ele>
        <time>2026-04-24T11:32:03Z</time>
      </trkpt>
      <trkpt lat="45.1995" lon="4.30252">
        <ele>855.7</ele>
        <time>2026-04-24T11:32:08Z</time>
      </trkpt>
      <trkpt lat="45.19952" lon="4.30245">
        <ele>856.5</ele>
        <time>2026-04-24T11:32:13Z</time>
      </trkpt>
      <trkpt lat="45.19956" lon="4.30238">
        <ele>857.6</ele>
        <time>2026-04-24T11:32:18Z</time>
      </trkpt>
      <trkpt lat="45.19958" lon="4.30239">
        <ele>857.4</ele>
        <time>2026-04-24T11:32:23Z</time>
      </trkpt>
      <trkpt lat="45.1996" lon="4.30237">
        <ele>857.6</ele>
        <time>2026-04-24T11:32:28Z</time>
      </trkpt>
      <trkpt lat="45.1996" lon="4.30237">
        <ele>857.6</ele>
        <time>2026-04-24T11:32:33Z</time>
      </trkpt>
      <trkpt lat="45.1996" lon="4.30237">
        <ele>857.6</ele>
        <time>2026-04-24T11:32:38Z</time>
      </trkpt>
      <trkpt lat="45.19961" lon="4.30233">
        <ele>858.3</ele>
        <time>2026-04-24T11:32:43Z</time>
      </trkpt>
      <trkpt lat="45.19962" lon="4.30224">
        <ele>859.8</ele>
        <time>2026-04-24T11:32:48Z</time>
      </trkpt>
      <trkpt lat="45.19962" lon="4.30216">
        <ele>861.2</ele>
        <time>2026-04-24T11:32:53Z</time>
      </trkpt>
      <trkpt lat="45.19965" lon="4.30209">
        <ele>862.3</ele>
        <time>2026-04-24T11:32:58Z</time>
      </trkpt>
      <trkpt lat="45.19966" lon="4.30202">
        <ele>863.5</ele>
        <time>2026-04-24T11:33:03Z</time>
      </trkpt>
      <trkpt lat="45.19969" lon="4.30194">
        <ele>864.9</ele>
        <time>2026-04-24T11:33:08Z</time>
      </trkpt>
      <trkpt lat="45.19973" lon="4.30186">
        <ele>866.3</ele>
        <time>2026-04-24T11:33:13Z</time>
      </trkpt>
      <trkpt lat="45.19976" lon="4.30177">
        <ele>867.9</ele>
        <time>2026-04-24T11:33:18Z</time>
      </trkpt>
      <trkpt lat="45.19979" lon="4.30169">
        <ele>869.3</ele>
        <time>2026-04-24T11:33:23Z</time>
      </trkpt>
      <trkpt lat="45.19982" lon="4.30164">
        <ele>870.1</ele>
        <time>2026-04-24T11:33:28Z</time>
      </trkpt>
      <trkpt lat="45.19984" lon="4.30158">
        <ele>870.8</ele>
        <time>2026-04-24T11:33:33Z</time>
      </trkpt>
      <trkpt lat="45.19986" lon="4.30151">
        <ele>871.6</ele>
        <time>2026-04-24T11:33:38Z</time>
      </trkpt>
      <trkpt lat="45.19989" lon="4.30144">
        <ele>872.4</ele>
        <time>2026-04-24T11:33:43Z</time>
      </trkpt>
      <trkpt lat="45.1999" lon="4.30137">
        <ele>873.2</ele>
        <time>2026-04-24T11:33:48Z</time>
      </trkpt>
      <trkpt lat="45.19993" lon="4.30129">
        <ele>874.1</ele>
        <time>2026-04-24T11:33:53Z</time>
      </trkpt>
      <trkpt lat="45.19995" lon="4.30122">
        <ele>874.9</ele>
        <time>2026-04-24T11:33:58Z</time>
      </trkpt>
      <trkpt lat="45.19997" lon="4.30115">
        <ele>875.6</ele>
        <time>2026-04-24T11:34:03Z</time>
      </trkpt>
      <trkpt lat="45.2" lon="4.3011">
        <ele>876.1</ele>
        <time>2026-04-24T11:34:08Z</time>
      </trkpt>
      <trkpt lat="45.20003" lon="4.30104">
        <ele>876.5</ele>
        <time>2026-04-24T11:34:13Z</time>
      </trkpt>
      <trkpt lat="45.20007" lon="4.30097">
        <ele>876.9</ele>
        <time>2026-04-24T11:34:18Z</time>
      </trkpt>
      <trkpt lat="45.20011" lon="4.3009">
        <ele>877.3</ele>
        <time>2026-04-24T11:34:23Z</time>
      </trkpt>
      <trkpt lat="45.20016" lon="4.30085">
        <ele>877.5</ele>
        <time>2026-04-24T11:34:28Z</time>
      </trkpt>
      <trkpt lat="45.2002" lon="4.30076">
        <ele>877.7</ele>
        <time>2026-04-24T11:34:33Z</time>
      </trkpt>
      <trkpt lat="45.20026" lon="4.30069">
        <ele>877.5</ele>
        <time>2026-04-24T11:34:38Z</time>
      </trkpt>
      <trkpt lat="45.20029" lon="4.30063">
        <ele>877.5</ele>
        <time>2026-04-24T11:34:43Z</time>
      </trkpt>
      <trkpt lat="45.20034" lon="4.30055">
        <ele>877.5</ele>
        <time>2026-04-24T11:34:48Z</time>
      </trkpt>
      <trkpt lat="45.20037" lon="4.30049">
        <ele>877.5</ele>
        <time>2026-04-24T11:34:53Z</time>
      </trkpt>
      <trkpt lat="45.20041" lon="4.30043">
        <ele>877.5</ele>
        <time>2026-04-24T11:34:58Z</time>
      </trkpt>
      <trkpt lat="45.20045" lon="4.30039">
        <ele>877.3</ele>
        <time>2026-04-24T11:35:03Z</time>
      </trkpt>
      <trkpt lat="45.20048" lon="4.30034">
        <ele>877.3</ele>
        <time>2026-04-24T11:35:08Z</time>
      </trkpt>
      <trkpt lat="45.20051" lon="4.30029">
        <ele>877.3</ele>
        <time>2026-04-24T11:35:13Z</time>
      </trkpt>
      <trkpt lat="45.20055" lon="4.30023">
        <ele>877.3</ele>
        <time>2026-04-24T11:35:18Z</time>
      </trkpt>
      <trkpt lat="45.20059" lon="4.30019">
        <ele>877.1</ele>
        <time>2026-04-24T11:35:23Z</time>
      </trkpt>
      <trkpt lat="45.20062" lon="4.30016">
        <ele>877</ele>
        <time>2026-04-24T11:35:28Z</time>
      </trkpt>
      <trkpt lat="45.20063" lon="4.30012">
        <ele>877.1</ele>
        <time>2026-04-24T11:35:33Z</time>
      </trkpt>
      <trkpt lat="45.20066" lon="4.30008">
        <ele>877.1</ele>
        <time>2026-04-24T11:35:38Z</time>
      </trkpt>
      <trkpt lat="45.2007" lon="4.30004">
        <ele>876.9</ele>
        <time>2026-04-24T11:35:43Z</time>
      </trkpt>
      <trkpt lat="45.20073" lon="4.29998">
        <ele>876.9</ele>
        <time>2026-04-24T11:35:48Z</time>
      </trkpt>
      <trkpt lat="45.20075" lon="4.29993">
        <ele>877</ele>
        <time>2026-04-24T11:35:53Z</time>
      </trkpt>
      <trkpt lat="45.20076" lon="4.29989">
        <ele>877.1</ele>
        <time>2026-04-24T11:35:58Z</time>
      </trkpt>
      <trkpt lat="45.20076" lon="4.29984">
        <ele>877.3</ele>
        <time>2026-04-24T11:36:03Z</time>
      </trkpt>
      <trkpt lat="45.20077" lon="4.29979">
        <ele>877.4</ele>
        <time>2026-04-24T11:36:08Z</time>
      </trkpt>
      <trkpt lat="45.20079" lon="4.29973">
        <ele>877.6</ele>
        <time>2026-04-24T11:36:13Z</time>
      </trkpt>
      <trkpt lat="45.20081" lon="4.29968">
        <ele>877.7</ele>
        <time>2026-04-24T11:36:18Z</time>
      </trkpt>
      <trkpt lat="45.20081" lon="4.29964">
        <ele>877.9</ele>
        <time>2026-04-24T11:36:23Z</time>
      </trkpt>
      <trkpt lat="45.20081" lon="4.29957">
        <ele>878.2</ele>
        <time>2026-04-24T11:36:28Z</time>
      </trkpt>
      <trkpt lat="45.20082" lon="4.29951">
        <ele>878.4</ele>
        <time>2026-04-24T11:36:33Z</time>
      </trkpt>
      <trkpt lat="45.20083" lon="4.29947">
        <ele>878.6</ele>
        <time>2026-04-24T11:36:38Z</time>
      </trkpt>
      <trkpt lat="45.20082" lon="4.29943">
        <ele>878.8</ele>
        <time>2026-04-24T11:36:43Z</time>
      </trkpt>
      <trkpt lat="45.20084" lon="4.29938">
        <ele>879</ele>
        <time>2026-04-24T11:36:48Z</time>
      </trkpt>
      <trkpt lat="45.20086" lon="4.29935">
        <ele>879.1</ele>
        <time>2026-04-24T11:36:53Z</time>
      </trkpt>
      <trkpt lat="45.20089" lon="4.29929">
        <ele>879.4</ele>
        <time>2026-04-24T11:36:58Z</time>
      </trkpt>
      <trkpt lat="45.20092" lon="4.29924">
        <ele>879.7</ele>
        <time>2026-04-24T11:37:03Z</time>
      </trkpt>
      <trkpt lat="45.20095" lon="4.29921">
        <ele>879.9</ele>
        <time>2026-04-24T11:37:08Z</time>
      </trkpt>
      <trkpt lat="45.20099" lon="4.29919">
        <ele>880</ele>
        <time>2026-04-24T11:37:13Z</time>
      </trkpt>
      <trkpt lat="45.20101" lon="4.29914">
        <ele>880.2</ele>
        <time>2026-04-24T11:37:18Z</time>
      </trkpt>
      <trkpt lat="45.201" lon="4.29906">
        <ele>880.3</ele>
        <time>2026-04-24T11:37:23Z</time>
      </trkpt>
      <trkpt lat="45.20097" lon="4.29898">
        <ele>880.3</ele>
        <time>2026-04-24T11:37:28Z</time>
      </trkpt>
      <trkpt lat="45.20093" lon="4.29893">
        <ele>880.3</ele>
        <time>2026-04-24T11:37:33Z</time>
      </trkpt>
      <trkpt lat="45.20089" lon="4.29888">
        <ele>880.4</ele>
        <time>2026-04-24T11:37:38Z</time>
      </trkpt>
      <trkpt lat="45.20085" lon="4.29884">
        <ele>880.4</ele>
        <time>2026-04-24T11:37:43Z</time>
      </trkpt>
      <trkpt lat="45.20082" lon="4.29879">
        <ele>880.4</ele>
        <time>2026-04-24T11:37:48Z</time>
      </trkpt>
      <trkpt lat="45.20079" lon="4.29872">
        <ele>880.5</ele>
        <time>2026-04-24T11:37:53Z</time>
      </trkpt>
      <trkpt lat="45.20076" lon="4.29863">
        <ele>880.5</ele>
        <time>2026-04-24T11:37:58Z</time>
      </trkpt>
      <trkpt lat="45.20074" lon="4.29854">
        <ele>880.5</ele>
        <time>2026-04-24T11:38:03Z</time>
      </trkpt>
      <trkpt lat="45.2007" lon="4.29846">
        <ele>880.4</ele>
        <time>2026-04-24T11:38:08Z</time>
      </trkpt>
      <trkpt lat="45.20068" lon="4.29838">
        <ele>880.3</ele>
        <time>2026-04-24T11:38:13Z</time>
      </trkpt>
      <trkpt lat="45.20066" lon="4.29828">
        <ele>879.7</ele>
        <time>2026-04-24T11:38:18Z</time>
      </trkpt>
      <trkpt lat="45.20064" lon="4.29818">
        <ele>878.8</ele>
        <time>2026-04-24T11:38:23Z</time>
      </trkpt>
      <trkpt lat="45.20062" lon="4.29809">
        <ele>878</ele>
        <time>2026-04-24T11:38:28Z</time>
      </trkpt>
      <trkpt lat="45.20063" lon="4.29801">
        <ele>877.4</ele>
        <time>2026-04-24T11:38:33Z</time>
      </trkpt>
      <trkpt lat="45.20064" lon="4.29793">
        <ele>876.8</ele>
        <time>2026-04-24T11:38:38Z</time>
      </trkpt>
      <trkpt lat="45.20066" lon="4.29788">
        <ele>876.4</ele>
        <time>2026-04-24T11:38:43Z</time>
      </trkpt>
      <trkpt lat="45.20067" lon="4.29783">
        <ele>876</ele>
        <time>2026-04-24T11:38:48Z</time>
      </trkpt>
      <trkpt lat="45.20068" lon="4.29775">
        <ele>875.3</ele>
        <time>2026-04-24T11:38:53Z</time>
      </trkpt>
      <trkpt lat="45.20071" lon="4.29765">
        <ele>874.5</ele>
        <time>2026-04-24T11:38:58Z</time>
      </trkpt>
      <trkpt lat="45.20073" lon="4.29754">
        <ele>873.5</ele>
        <time>2026-04-24T11:39:03Z</time>
      </trkpt>
      <trkpt lat="45.20074" lon="4.29743">
        <ele>872.6</ele>
        <time>2026-04-24T11:39:08Z</time>
      </trkpt>
      <trkpt lat="45.20075" lon="4.29732">
        <ele>871.8</ele>
        <time>2026-04-24T11:39:13Z</time>
      </trkpt>
      <trkpt lat="45.20078" lon="4.29723">
        <ele>871.1</ele>
        <time>2026-04-24T11:39:18Z</time>
      </trkpt>
      <trkpt lat="45.20081" lon="4.29713">
        <ele>870.4</ele>
        <time>2026-04-24T11:39:23Z</time>
      </trkpt>
      <trkpt lat="45.20084" lon="4.29704">
        <ele>869.7</ele>
        <time>2026-04-24T11:39:28Z</time>
      </trkpt>
      <trkpt lat="45.20086" lon="4.29693">
        <ele>868.9</ele>
        <time>2026-04-24T11:39:33Z</time>
      </trkpt>
      <trkpt lat="45.20087" lon="4.29682">
        <ele>868.2</ele>
        <time>2026-04-24T11:39:38Z</time>
      </trkpt>
      <trkpt lat="45.20087" lon="4.2967">
        <ele>867.3</ele>
        <time>2026-04-24T11:39:43Z</time>
      </trkpt>
      <trkpt lat="45.20087" lon="4.2966">
        <ele>866.5</ele>
        <time>2026-04-24T11:39:48Z</time>
      </trkpt>
      <trkpt lat="45.20088" lon="4.29649">
        <ele>865.7</ele>
        <time>2026-04-24T11:39:53Z</time>
      </trkpt>
      <trkpt lat="45.20088" lon="4.29638">
        <ele>864.8</ele>
        <time>2026-04-24T11:39:58Z</time>
      </trkpt>
      <trkpt lat="45.20088" lon="4.29629">
        <ele>864.1</ele>
        <time>2026-04-24T11:40:03Z</time>
      </trkpt>
      <trkpt lat="45.20089" lon="4.2962">
        <ele>863.4</ele>
        <time>2026-04-24T11:40:08Z</time>
      </trkpt>
      <trkpt lat="45.20089" lon="4.29611">
        <ele>862.7</ele>
        <time>2026-04-24T11:40:13Z</time>
      </trkpt>
      <trkpt lat="45.20091" lon="4.29602">
        <ele>862.1</ele>
        <time>2026-04-24T11:40:18Z</time>
      </trkpt>
      <trkpt lat="45.20092" lon="4.29596">
        <ele>861.7</ele>
        <time>2026-04-24T11:40:23Z</time>
      </trkpt>
      <trkpt lat="45.20093" lon="4.29588">
        <ele>861.2</ele>
        <time>2026-04-24T11:40:28Z</time>
      </trkpt>
      <trkpt lat="45.20093" lon="4.2958">
        <ele>860.6</ele>
        <time>2026-04-24T11:40:33Z</time>
      </trkpt>
      <trkpt lat="45.2009" lon="4.29571">
        <ele>860</ele>
        <time>2026-04-24T11:40:38Z</time>
      </trkpt>
      <trkpt lat="45.20085" lon="4.29563">
        <ele>859.2</ele>
        <time>2026-04-24T11:40:43Z</time>
      </trkpt>
      <trkpt lat="45.2008" lon="4.29557">
        <ele>858.6</ele>
        <time>2026-04-24T11:40:48Z</time>
      </trkpt>
      <trkpt lat="45.20075" lon="4.2955">
        <ele>858</ele>
        <time>2026-04-24T11:40:53Z</time>
      </trkpt>
      <trkpt lat="45.20075" lon="4.29543">
        <ele>857.6</ele>
        <time>2026-04-24T11:40:58Z</time>
      </trkpt>
      <trkpt lat="45.20073" lon="4.29537">
        <ele>857.2</ele>
        <time>2026-04-24T11:41:03Z</time>
      </trkpt>
      <trkpt lat="45.20073" lon="4.29526">
        <ele>856.6</ele>
        <time>2026-04-24T11:41:08Z</time>
      </trkpt>
      <trkpt lat="45.20075" lon="4.29517">
        <ele>856.2</ele>
        <time>2026-04-24T11:41:13Z</time>
      </trkpt>
      <trkpt lat="45.20078" lon="4.29508">
        <ele>856</ele>
        <time>2026-04-24T11:41:18Z</time>
      </trkpt>
      <trkpt lat="45.20081" lon="4.29498">
        <ele>855.7</ele>
        <time>2026-04-24T11:41:23Z</time>
      </trkpt>
      <trkpt lat="45.20084" lon="4.29489">
        <ele>855.7</ele>
        <time>2026-04-24T11:41:28Z</time>
      </trkpt>
      <trkpt lat="45.20086" lon="4.29481">
        <ele>855.5</ele>
        <time>2026-04-24T11:41:33Z</time>
      </trkpt>
      <trkpt lat="45.2009" lon="4.29473">
        <ele>855.5</ele>
        <time>2026-04-24T11:41:38Z</time>
      </trkpt>
      <trkpt lat="45.20096" lon="4.29464">
        <ele>855.6</ele>
        <time>2026-04-24T11:41:43Z</time>
      </trkpt>
      <trkpt lat="45.20101" lon="4.29455">
        <ele>855.5</ele>
        <time>2026-04-24T11:41:48Z</time>
      </trkpt>
      <trkpt lat="45.20104" lon="4.29449">
        <ele>855.5</ele>
        <time>2026-04-24T11:41:53Z</time>
      </trkpt>
      <trkpt lat="45.20107" lon="4.29442">
        <ele>855.4</ele>
        <time>2026-04-24T11:41:58Z</time>
      </trkpt>
      <trkpt lat="45.20112" lon="4.29432">
        <ele>855.3</ele>
        <time>2026-04-24T11:42:03Z</time>
      </trkpt>
      <trkpt lat="45.20115" lon="4.29425">
        <ele>855.2</ele>
        <time>2026-04-24T11:42:08Z</time>
      </trkpt>
      <trkpt lat="45.20117" lon="4.2942">
        <ele>855.2</ele>
        <time>2026-04-24T11:42:13Z</time>
      </trkpt>
      <trkpt lat="45.20119" lon="4.29413">
        <ele>855</ele>
        <time>2026-04-24T11:42:18Z</time>
      </trkpt>
      <trkpt lat="45.20123" lon="4.29405">
        <ele>854.9</ele>
        <time>2026-04-24T11:42:23Z</time>
      </trkpt>
      <trkpt lat="45.20126" lon="4.29404">
        <ele>855.1</ele>
        <time>2026-04-24T11:42:28Z</time>
      </trkpt>
      <trkpt lat="45.20127" lon="4.29404">
        <ele>855.2</ele>
        <time>2026-04-24T11:42:33Z</time>
      </trkpt>
      <trkpt lat="45.20127" lon="4.29404">
        <ele>855.2</ele>
        <time>2026-04-24T11:42:38Z</time>
      </trkpt>
      <trkpt lat="45.20127" lon="4.29404">
        <ele>855.2</ele>
        <time>2026-04-24T11:42:43Z</time>
      </trkpt>
      <trkpt lat="45.20127" lon="4.29404">
        <ele>855.2</ele>
        <time>2026-04-24T11:42:48Z</time>
      </trkpt>
      <trkpt lat="45.20127" lon="4.29404">
        <ele>855.2</ele>
        <time>2026-04-24T11:42:53Z</time>
      </trkpt>
      <trkpt lat="45.20123" lon="4.29395">
        <ele>854.6</ele>
        <time>2026-04-24T11:42:58Z</time>
      </trkpt>
      <trkpt lat="45.20122" lon="4.29384">
        <ele>854.1</ele>
        <time>2026-04-24T11:43:03Z</time>
      </trkpt>
      <trkpt lat="45.20121" lon="4.29375">
        <ele>853.7</ele>
        <time>2026-04-24T11:43:08Z</time>
      </trkpt>
      <trkpt lat="45.20121" lon="4.29364">
        <ele>853.2</ele>
        <time>2026-04-24T11:43:13Z</time>
      </trkpt>
      <trkpt lat="45.20121" lon="4.29355">
        <ele>852.9</ele>
        <time>2026-04-24T11:43:18Z</time>
      </trkpt>
      <trkpt lat="45.20121" lon="4.29347">
        <ele>852.6</ele>
        <time>2026-04-24T11:43:23Z</time>
      </trkpt>
      <trkpt lat="45.20121" lon="4.29338">
        <ele>852.2</ele>
        <time>2026-04-24T11:43:28Z</time>
      </trkpt>
      <trkpt lat="45.2012" lon="4.2933">
        <ele>851.9</ele>
        <time>2026-04-24T11:43:33Z</time>
      </trkpt>
      <trkpt lat="45.2012" lon="4.29321">
        <ele>851.7</ele>
        <time>2026-04-24T11:43:38Z</time>
      </trkpt>
      <trkpt lat="45.20121" lon="4.29312">
        <ele>851.6</ele>
        <time>2026-04-24T11:43:43Z</time>
      </trkpt>
      <trkpt lat="45.2012" lon="4.29302">
        <ele>851.2</ele>
        <time>2026-04-24T11:43:48Z</time>
      </trkpt>
      <trkpt lat="45.20121" lon="4.29292">
        <ele>851.1</ele>
        <time>2026-04-24T11:43:53Z</time>
      </trkpt>
      <trkpt lat="45.2012" lon="4.29282">
        <ele>850.7</ele>
        <time>2026-04-24T11:43:58Z</time>
      </trkpt>
      <trkpt lat="45.2012" lon="4.2927">
        <ele>850.4</ele>
        <time>2026-04-24T11:44:03Z</time>
      </trkpt>
      <trkpt lat="45.20119" lon="4.29259">
        <ele>850.1</ele>
        <time>2026-04-24T11:44:08Z</time>
      </trkpt>
      <trkpt lat="45.20118" lon="4.29248">
        <ele>849.7</ele>
        <time>2026-04-24T11:44:13Z</time>
      </trkpt>
      <trkpt lat="45.20118" lon="4.29238">
        <ele>849.5</ele>
        <time>2026-04-24T11:44:18Z</time>
      </trkpt>
      <trkpt lat="45.20119" lon="4.29227">
        <ele>849.3</ele>
        <time>2026-04-24T11:44:23Z</time>
      </trkpt>
      <trkpt lat="45.20118" lon="4.29218">
        <ele>849</ele>
        <time>2026-04-24T11:44:28Z</time>
      </trkpt>
      <trkpt lat="45.20116" lon="4.29209">
        <ele>848.7</ele>
        <time>2026-04-24T11:44:33Z</time>
      </trkpt>
      <trkpt lat="45.20114" lon="4.29199">
        <ele>848.2</ele>
        <time>2026-04-24T11:44:38Z</time>
      </trkpt>
      <trkpt lat="45.20111" lon="4.29191">
        <ele>847.8</ele>
        <time>2026-04-24T11:44:43Z</time>
      </trkpt>
      <trkpt lat="45.2011" lon="4.29191">
        <ele>847.7</ele>
        <time>2026-04-24T11:44:48Z</time>
      </trkpt>
      <trkpt lat="45.2011" lon="4.29191">
        <ele>847.7</ele>
        <time>2026-04-24T11:44:53Z</time>
      </trkpt>
      <trkpt lat="45.2011" lon="4.29191">
        <ele>847.7</ele>
        <time>2026-04-24T11:44:58Z</time>
      </trkpt>
      <trkpt lat="45.20108" lon="4.29193">
        <ele>847.6</ele>
        <time>2026-04-24T11:45:03Z</time>
      </trkpt>
      <trkpt lat="45.20102" lon="4.29195">
        <ele>847.1</ele>
        <time>2026-04-24T11:45:08Z</time>
      </trkpt>
      <trkpt lat="45.20095" lon="4.29199">
        <ele>846.5</ele>
        <time>2026-04-24T11:45:13Z</time>
      </trkpt>
      <trkpt lat="45.20088" lon="4.29202">
        <ele>845.9</ele>
        <time>2026-04-24T11:45:18Z</time>
      </trkpt>
      <trkpt lat="45.20081" lon="4.29205">
        <ele>845.2</ele>
        <time>2026-04-24T11:45:23Z</time>
      </trkpt>
      <trkpt lat="45.20075" lon="4.29209">
        <ele>844.7</ele>
        <time>2026-04-24T11:45:28Z</time>
      </trkpt>
      <trkpt lat="45.20066" lon="4.29211">
        <ele>843.8</ele>
        <time>2026-04-24T11:45:33Z</time>
      </trkpt>
      <trkpt lat="45.20058" lon="4.29214">
        <ele>843</ele>
        <time>2026-04-24T11:45:38Z</time>
      </trkpt>
      <trkpt lat="45.20051" lon="4.29219">
        <ele>842.4</ele>
        <time>2026-04-24T11:45:43Z</time>
      </trkpt>
      <trkpt lat="45.20045" lon="4.29223">
        <ele>841.8</ele>
        <time>2026-04-24T11:45:48Z</time>
      </trkpt>
      <trkpt lat="45.20038" lon="4.29226">
        <ele>841.2</ele>
        <time>2026-04-24T11:45:53Z</time>
      </trkpt>
      <trkpt lat="45.20029" lon="4.29229">
        <ele>840.4</ele>
        <time>2026-04-24T11:45:58Z</time>
      </trkpt>
      <trkpt lat="45.20022" lon="4.29231">
        <ele>839.7</ele>
        <time>2026-04-24T11:46:03Z</time>
      </trkpt>
      <trkpt lat="45.20015" lon="4.29234">
        <ele>839.1</ele>
        <time>2026-04-24T11:46:08Z</time>
      </trkpt>
      <trkpt lat="45.20008" lon="4.29237">
        <ele>838.5</ele>
        <time>2026-04-24T11:46:13Z</time>
      </trkpt>
      <trkpt lat="45.20001" lon="4.29239">
        <ele>837.8</ele>
        <time>2026-04-24T11:46:18Z</time>
      </trkpt>
      <trkpt lat="45.19993" lon="4.29241">
        <ele>836.7</ele>
        <time>2026-04-24T11:46:23Z</time>
      </trkpt>
      <trkpt lat="45.19986" lon="4.29241">
        <ele>835.6</ele>
        <time>2026-04-24T11:46:28Z</time>
      </trkpt>
      <trkpt lat="45.1998" lon="4.29243">
        <ele>834.7</ele>
        <time>2026-04-24T11:46:33Z</time>
      </trkpt>
      <trkpt lat="45.19973" lon="4.29241">
        <ele>833.5</ele>
        <time>2026-04-24T11:46:38Z</time>
      </trkpt>
      <trkpt lat="45.19967" lon="4.29241">
        <ele>832.6</ele>
        <time>2026-04-24T11:46:43Z</time>
      </trkpt>
      <trkpt lat="45.19959" lon="4.29243">
        <ele>831.4</ele>
        <time>2026-04-24T11:46:48Z</time>
      </trkpt>
      <trkpt lat="45.19952" lon="4.29247">
        <ele>830.4</ele>
        <time>2026-04-24T11:46:53Z</time>
      </trkpt>
      <trkpt lat="45.19947" lon="4.29249">
        <ele>829.7</ele>
        <time>2026-04-24T11:46:58Z</time>
      </trkpt>
      <trkpt lat="45.19941" lon="4.2925">
        <ele>828.8</ele>
        <time>2026-04-24T11:47:03Z</time>
      </trkpt>
      <trkpt lat="45.19934" lon="4.29252">
        <ele>827.9</ele>
        <time>2026-04-24T11:47:08Z</time>
      </trkpt>
      <trkpt lat="45.19927" lon="4.29255">
        <ele>827.1</ele>
        <time>2026-04-24T11:47:13Z</time>
      </trkpt>
      <trkpt lat="45.1992" lon="4.29258">
        <ele>826.4</ele>
        <time>2026-04-24T11:47:18Z</time>
      </trkpt>
      <trkpt lat="45.19913" lon="4.29261">
        <ele>826</ele>
        <time>2026-04-24T11:47:23Z</time>
      </trkpt>
      <trkpt lat="45.19907" lon="4.29264">
        <ele>826</ele>
        <time>2026-04-24T11:47:28Z</time>
      </trkpt>
      <trkpt lat="45.19902" lon="4.2927">
        <ele>826.2</ele>
        <time>2026-04-24T11:47:33Z</time>
      </trkpt>
      <trkpt lat="45.19899" lon="4.29275">
        <ele>826.5</ele>
        <time>2026-04-24T11:47:38Z</time>
      </trkpt>
      <trkpt lat="45.19896" lon="4.29284">
        <ele>827.2</ele>
        <time>2026-04-24T11:47:43Z</time>
      </trkpt>
      <trkpt lat="45.19892" lon="4.29292">
        <ele>827.6</ele>
        <time>2026-04-24T11:47:48Z</time>
      </trkpt>
      <trkpt lat="45.19887" lon="4.29299">
        <ele>827.8</ele>
        <time>2026-04-24T11:47:53Z</time>
      </trkpt>
      <trkpt lat="45.19881" lon="4.29306">
        <ele>827.9</ele>
        <time>2026-04-24T11:47:58Z</time>
      </trkpt>
      <trkpt lat="45.19875" lon="4.29311">
        <ele>827.8</ele>
        <time>2026-04-24T11:48:03Z</time>
      </trkpt>
      <trkpt lat="45.19868" lon="4.29317">
        <ele>827.6</ele>
        <time>2026-04-24T11:48:08Z</time>
      </trkpt>
      <trkpt lat="45.19863" lon="4.29324">
        <ele>827.6</ele>
        <time>2026-04-24T11:48:13Z</time>
      </trkpt>
      <trkpt lat="45.19857" lon="4.2933">
        <ele>827.3</ele>
        <time>2026-04-24T11:48:18Z</time>
      </trkpt>
      <trkpt lat="45.19851" lon="4.29335">
        <ele>827.1</ele>
        <time>2026-04-24T11:48:23Z</time>
      </trkpt>
      <trkpt lat="45.19845" lon="4.2934">
        <ele>826.9</ele>
        <time>2026-04-24T11:48:28Z</time>
      </trkpt>
      <trkpt lat="45.19839" lon="4.29344">
        <ele>826.7</ele>
        <time>2026-04-24T11:48:33Z</time>
      </trkpt>
      <trkpt lat="45.19833" lon="4.2935">
        <ele>826.8</ele>
        <time>2026-04-24T11:48:38Z</time>
      </trkpt>
      <trkpt lat="45.19826" lon="4.29356">
        <ele>827.7</ele>
        <time>2026-04-24T11:48:43Z</time>
      </trkpt>
      <trkpt lat="45.19819" lon="4.29361">
        <ele>828.5</ele>
        <time>2026-04-24T11:48:48Z</time>
      </trkpt>
      <trkpt lat="45.19813" lon="4.29367">
        <ele>829.3</ele>
        <time>2026-04-24T11:48:53Z</time>
      </trkpt>
      <trkpt lat="45.19805" lon="4.29371">
        <ele>829.8</ele>
        <time>2026-04-24T11:48:58Z</time>
      </trkpt>
      <trkpt lat="45.19801" lon="4.29377">
        <ele>830.4</ele>
        <time>2026-04-24T11:49:03Z</time>
      </trkpt>
      <trkpt lat="45.19793" lon="4.29382">
        <ele>831</ele>
        <time>2026-04-24T11:49:08Z</time>
      </trkpt>
      <trkpt lat="45.19787" lon="4.29387">
        <ele>831.4</ele>
        <time>2026-04-24T11:49:13Z</time>
      </trkpt>
      <trkpt lat="45.19781" lon="4.29392">
        <ele>831.8</ele>
        <time>2026-04-24T11:49:18Z</time>
      </trkpt>
      <trkpt lat="45.19775" lon="4.29396">
        <ele>832.1</ele>
        <time>2026-04-24T11:49:23Z</time>
      </trkpt>
      <trkpt lat="45.19768" lon="4.29401">
        <ele>832.4</ele>
        <time>2026-04-24T11:49:28Z</time>
      </trkpt>
      <trkpt lat="45.19763" lon="4.29404">
        <ele>832.6</ele>
        <time>2026-04-24T11:49:33Z</time>
      </trkpt>
      <trkpt lat="45.19756" lon="4.29407">
        <ele>832.7</ele>
        <time>2026-04-24T11:49:38Z</time>
      </trkpt>
      <trkpt lat="45.19749" lon="4.29406">
        <ele>832.6</ele>
        <time>2026-04-24T11:49:43Z</time>
      </trkpt>
      <trkpt lat="45.19744" lon="4.29406">
        <ele>832.8</ele>
        <time>2026-04-24T11:49:48Z</time>
      </trkpt>
      <trkpt lat="45.19738" lon="4.29404">
        <ele>832.8</ele>
        <time>2026-04-24T11:49:53Z</time>
      </trkpt>
      <trkpt lat="45.19732" lon="4.29405">
        <ele>833</ele>
        <time>2026-04-24T11:49:58Z</time>
      </trkpt>
      <trkpt lat="45.19726" lon="4.29409">
        <ele>833.3</ele>
        <time>2026-04-24T11:50:03Z</time>
      </trkpt>
      <trkpt lat="45.1972" lon="4.29414">
        <ele>833.6</ele>
        <time>2026-04-24T11:50:08Z</time>
      </trkpt>
      <trkpt lat="45.19714" lon="4.29417">
        <ele>833.9</ele>
        <time>2026-04-24T11:50:13Z</time>
      </trkpt>
      <trkpt lat="45.19707" lon="4.29421">
        <ele>834.4</ele>
        <time>2026-04-24T11:50:18Z</time>
      </trkpt>
      <trkpt lat="45.19701" lon="4.29425">
        <ele>834.9</ele>
        <time>2026-04-24T11:50:23Z</time>
      </trkpt>
      <trkpt lat="45.19694" lon="4.29426">
        <ele>835.1</ele>
        <time>2026-04-24T11:50:28Z</time>
      </trkpt>
      <trkpt lat="45.19686" lon="4.29429">
        <ele>835.4</ele>
        <time>2026-04-24T11:50:33Z</time>
      </trkpt>
      <trkpt lat="45.19679" lon="4.29431">
        <ele>835.6</ele>
        <time>2026-04-24T11:50:38Z</time>
      </trkpt>
      <trkpt lat="45.19672" lon="4.29433">
        <ele>835.8</ele>
        <time>2026-04-24T11:50:43Z</time>
      </trkpt>
      <trkpt lat="45.19664" lon="4.29434">
        <ele>835.8</ele>
        <time>2026-04-24T11:50:48Z</time>
      </trkpt>
      <trkpt lat="45.19659" lon="4.29438">
        <ele>836</ele>
        <time>2026-04-24T11:50:53Z</time>
      </trkpt>
      <trkpt lat="45.19652" lon="4.29439">
        <ele>836</ele>
        <time>2026-04-24T11:50:58Z</time>
      </trkpt>
      <trkpt lat="45.19646" lon="4.29444">
        <ele>836.2</ele>
        <time>2026-04-24T11:51:03Z</time>
      </trkpt>
      <trkpt lat="45.19641" lon="4.29447">
        <ele>836.3</ele>
        <time>2026-04-24T11:51:08Z</time>
      </trkpt>
      <trkpt lat="45.19636" lon="4.29452">
        <ele>836.5</ele>
        <time>2026-04-24T11:51:13Z</time>
      </trkpt>
      <trkpt lat="45.1963" lon="4.29456">
        <ele>836.7</ele>
        <time>2026-04-24T11:51:18Z</time>
      </trkpt>
      <trkpt lat="45.19623" lon="4.29461">
        <ele>836.8</ele>
        <time>2026-04-24T11:51:23Z</time>
      </trkpt>
      <trkpt lat="45.19616" lon="4.29462">
        <ele>836.8</ele>
        <time>2026-04-24T11:51:28Z</time>
      </trkpt>
      <trkpt lat="45.1961" lon="4.2946">
        <ele>836.7</ele>
        <time>2026-04-24T11:51:33Z</time>
      </trkpt>
      <trkpt lat="45.19606" lon="4.29456">
        <ele>836.5</ele>
        <time>2026-04-24T11:51:38Z</time>
      </trkpt>
      <trkpt lat="45.19604" lon="4.29458">
        <ele>836.6</ele>
        <time>2026-04-24T11:51:43Z</time>
      </trkpt>
      <trkpt lat="45.19604" lon="4.29458">
        <ele>836.6</ele>
        <time>2026-04-24T11:51:48Z</time>
      </trkpt>
      <trkpt lat="45.19604" lon="4.29458">
        <ele>836.6</ele>
        <time>2026-04-24T11:51:53Z</time>
      </trkpt>
      <trkpt lat="45.19604" lon="4.29458">
        <ele>836.6</ele>
        <time>2026-04-24T11:51:58Z</time>
      </trkpt>
      <trkpt lat="45.19604" lon="4.29458">
        <ele>836.6</ele>
        <time>2026-04-24T11:52:03Z</time>
      </trkpt>
      <trkpt lat="45.19597" lon="4.29449">
        <ele>836.2</ele>
        <time>2026-04-24T11:52:08Z</time>
      </trkpt>
      <trkpt lat="45.19593" lon="4.29448">
        <ele>836.2</ele>
        <time>2026-04-24T11:52:13Z</time>
      </trkpt>
      <trkpt lat="45.19591" lon="4.29444">
        <ele>836</ele>
        <time>2026-04-24T11:52:18Z</time>
      </trkpt>
      <trkpt lat="45.1959" lon="4.29443">
        <ele>836</ele>
        <time>2026-04-24T11:52:23Z</time>
      </trkpt>
      <trkpt lat="45.19586" lon="4.29447">
        <ele>836.1</ele>
        <time>2026-04-24T11:52:28Z</time>
      </trkpt>
      <trkpt lat="45.19581" lon="4.2945">
        <ele>836.2</ele>
        <time>2026-04-24T11:52:33Z</time>
      </trkpt>
      <trkpt lat="45.19576" lon="4.29454">
        <ele>836.4</ele>
        <time>2026-04-24T11:52:38Z</time>
      </trkpt>
      <trkpt lat="45.19571" lon="4.29458">
        <ele>836.6</ele>
        <time>2026-04-24T11:52:43Z</time>
      </trkpt>
      <trkpt lat="45.19566" lon="4.29459">
        <ele>836.7</ele>
        <time>2026-04-24T11:52:48Z</time>
      </trkpt>
      <trkpt lat="45.1956" lon="4.29462">
        <ele>836.9</ele>
        <time>2026-04-24T11:52:53Z</time>
      </trkpt>
      <trkpt lat="45.19555" lon="4.29464">
        <ele>837</ele>
        <time>2026-04-24T11:52:58Z</time>
      </trkpt>
      <trkpt lat="45.19552" lon="4.29464">
        <ele>837</ele>
        <time>2026-04-24T11:53:03Z</time>
      </trkpt>
      <trkpt lat="45.19548" lon="4.29465">
        <ele>837.1</ele>
        <time>2026-04-24T11:53:08Z</time>
      </trkpt>
      <trkpt lat="45.19543" lon="4.29466">
        <ele>837.2</ele>
        <time>2026-04-24T11:53:13Z</time>
      </trkpt>
      <trkpt lat="45.19537" lon="4.29468">
        <ele>837.3</ele>
        <time>2026-04-24T11:53:18Z</time>
      </trkpt>
      <trkpt lat="45.19532" lon="4.29468">
        <ele>837.3</ele>
        <time>2026-04-24T11:53:23Z</time>
      </trkpt>
      <trkpt lat="45.19526" lon="4.29469">
        <ele>837.4</ele>
        <time>2026-04-24T11:53:28Z</time>
      </trkpt>
      <trkpt lat="45.1952" lon="4.2947">
        <ele>837.5</ele>
        <time>2026-04-24T11:53:33Z</time>
      </trkpt>
      <trkpt lat="45.19515" lon="4.2947">
        <ele>837.5</ele>
        <time>2026-04-24T11:53:38Z</time>
      </trkpt>
      <trkpt lat="45.19511" lon="4.29471">
        <ele>837.6</ele>
        <time>2026-04-24T11:53:43Z</time>
      </trkpt>
      <trkpt lat="45.19507" lon="4.29471">
        <ele>837.6</ele>
        <time>2026-04-24T11:53:48Z</time>
      </trkpt>
      <trkpt lat="45.19503" lon="4.29468">
        <ele>837.6</ele>
        <time>2026-04-24T11:53:53Z</time>
      </trkpt>
      <trkpt lat="45.19499" lon="4.29464">
        <ele>837.6</ele>
        <time>2026-04-24T11:53:58Z</time>
      </trkpt>
      <trkpt lat="45.19493" lon="4.29461">
        <ele>837.8</ele>
        <time>2026-04-24T11:54:03Z</time>
      </trkpt>
      <trkpt lat="45.19488" lon="4.29458">
        <ele>837.9</ele>
        <time>2026-04-24T11:54:08Z</time>
      </trkpt>
      <trkpt lat="45.19483" lon="4.29455">
        <ele>838.1</ele>
        <time>2026-04-24T11:54:13Z</time>
      </trkpt>
      <trkpt lat="45.19478" lon="4.29451">
        <ele>838.2</ele>
        <time>2026-04-24T11:54:18Z</time>
      </trkpt>
      <trkpt lat="45.19473" lon="4.29446">
        <ele>838.3</ele>
        <time>2026-04-24T11:54:23Z</time>
      </trkpt>
      <trkpt lat="45.19467" lon="4.29444">
        <ele>838.5</ele>
        <time>2026-04-24T11:54:28Z</time>
      </trkpt>
      <trkpt lat="45.19461" lon="4.29442">
        <ele>838.7</ele>
        <time>2026-04-24T11:54:33Z</time>
      </trkpt>
      <trkpt lat="45.19456" lon="4.29438">
        <ele>838.8</ele>
        <time>2026-04-24T11:54:38Z</time>
      </trkpt>
      <trkpt lat="45.19451" lon="4.29434">
        <ele>839</ele>
        <time>2026-04-24T11:54:43Z</time>
      </trkpt>
      <trkpt lat="45.19445" lon="4.29429">
        <ele>839.1</ele>
        <time>2026-04-24T11:54:48Z</time>
      </trkpt>
      <trkpt lat="45.19439" lon="4.29425">
        <ele>839.3</ele>
        <time>2026-04-24T11:54:53Z</time>
      </trkpt>
      <trkpt lat="45.19434" lon="4.29423">
        <ele>839.5</ele>
        <time>2026-04-24T11:54:58Z</time>
      </trkpt>
      <trkpt lat="45.19428" lon="4.29421">
        <ele>839.6</ele>
        <time>2026-04-24T11:55:03Z</time>
      </trkpt>
      <trkpt lat="45.19422" lon="4.2942">
        <ele>839.8</ele>
        <time>2026-04-24T11:55:08Z</time>
      </trkpt>
      <trkpt lat="45.19416" lon="4.29421">
        <ele>840.1</ele>
        <time>2026-04-24T11:55:13Z</time>
      </trkpt>
      <trkpt lat="45.1941" lon="4.29421">
        <ele>840.7</ele>
        <time>2026-04-24T11:55:18Z</time>
      </trkpt>
      <trkpt lat="45.19404" lon="4.29422">
        <ele>841.3</ele>
        <time>2026-04-24T11:55:23Z</time>
      </trkpt>
      <trkpt lat="45.19398" lon="4.29425">
        <ele>842</ele>
        <time>2026-04-24T11:55:28Z</time>
      </trkpt>
      <trkpt lat="45.19392" lon="4.29429">
        <ele>842.6</ele>
        <time>2026-04-24T11:55:33Z</time>
      </trkpt>
      <trkpt lat="45.19386" lon="4.2943">
        <ele>843.3</ele>
        <time>2026-04-24T11:55:38Z</time>
      </trkpt>
      <trkpt lat="45.1938" lon="4.29433">
        <ele>844</ele>
        <time>2026-04-24T11:55:43Z</time>
      </trkpt>
      <trkpt lat="45.19375" lon="4.29434">
        <ele>844.5</ele>
        <time>2026-04-24T11:55:48Z</time>
      </trkpt>
      <trkpt lat="45.19369" lon="4.29437">
        <ele>845.2</ele>
        <time>2026-04-24T11:55:53Z</time>
      </trkpt>
      <trkpt lat="45.19363" lon="4.29438">
        <ele>845.9</ele>
        <time>2026-04-24T11:55:58Z</time>
      </trkpt>
      <trkpt lat="45.19357" lon="4.29439">
        <ele>846.6</ele>
        <time>2026-04-24T11:56:03Z</time>
      </trkpt>
      <trkpt lat="45.19351" lon="4.29442">
        <ele>847.3</ele>
        <time>2026-04-24T11:56:08Z</time>
      </trkpt>
      <trkpt lat="45.19345" lon="4.29443">
        <ele>848</ele>
        <time>2026-04-24T11:56:13Z</time>
      </trkpt>
      <trkpt lat="45.19339" lon="4.29444">
        <ele>848.7</ele>
        <time>2026-04-24T11:56:18Z</time>
      </trkpt>
      <trkpt lat="45.19333" lon="4.29446">
        <ele>849.4</ele>
        <time>2026-04-24T11:56:23Z</time>
      </trkpt>
      <trkpt lat="45.19327" lon="4.29448">
        <ele>850</ele>
        <time>2026-04-24T11:56:28Z</time>
      </trkpt>
      <trkpt lat="45.19321" lon="4.2945">
        <ele>850.6</ele>
        <time>2026-04-24T11:56:33Z</time>
      </trkpt>
      <trkpt lat="45.19315" lon="4.29451">
        <ele>851.2</ele>
        <time>2026-04-24T11:56:38Z</time>
      </trkpt>
      <trkpt lat="45.19308" lon="4.29454">
        <ele>851.8</ele>
        <time>2026-04-24T11:56:43Z</time>
      </trkpt>
      <trkpt lat="45.19303" lon="4.29456">
        <ele>852.3</ele>
        <time>2026-04-24T11:56:48Z</time>
      </trkpt>
      <trkpt lat="45.19296" lon="4.29457">
        <ele>852.9</ele>
        <time>2026-04-24T11:56:53Z</time>
      </trkpt>
      <trkpt lat="45.1929" lon="4.29458">
        <ele>853.4</ele>
        <time>2026-04-24T11:56:58Z</time>
      </trkpt>
      <trkpt lat="45.19286" lon="4.29457">
        <ele>853.7</ele>
        <time>2026-04-24T11:57:03Z</time>
      </trkpt>
      <trkpt lat="45.1928" lon="4.29458">
        <ele>854.2</ele>
        <time>2026-04-24T11:57:08Z</time>
      </trkpt>
      <trkpt lat="45.19274" lon="4.2946">
        <ele>854.6</ele>
        <time>2026-04-24T11:57:13Z</time>
      </trkpt>
      <trkpt lat="45.19269" lon="4.29462">
        <ele>855</ele>
        <time>2026-04-24T11:57:18Z</time>
      </trkpt>
      <trkpt lat="45.19264" lon="4.29464">
        <ele>855.4</ele>
        <time>2026-04-24T11:57:23Z</time>
      </trkpt>
      <trkpt lat="45.19258" lon="4.29465">
        <ele>855.8</ele>
        <time>2026-04-24T11:57:28Z</time>
      </trkpt>
      <trkpt lat="45.19253" lon="4.29467">
        <ele>856.2</ele>
        <time>2026-04-24T11:57:33Z</time>
      </trkpt>
      <trkpt lat="45.19248" lon="4.29468">
        <ele>856.6</ele>
        <time>2026-04-24T11:57:38Z</time>
      </trkpt>
      <trkpt lat="45.19242" lon="4.2947">
        <ele>857.1</ele>
        <time>2026-04-24T11:57:43Z</time>
      </trkpt>
      <trkpt lat="45.19237" lon="4.29473">
        <ele>857.5</ele>
        <time>2026-04-24T11:57:48Z</time>
      </trkpt>
      <trkpt lat="45.19232" lon="4.29474">
        <ele>857.9</ele>
        <time>2026-04-24T11:57:53Z</time>
      </trkpt>
      <trkpt lat="45.19227" lon="4.29475">
        <ele>858.3</ele>
        <time>2026-04-24T11:57:58Z</time>
      </trkpt>
      <trkpt lat="45.19222" lon="4.29476">
        <ele>858.7</ele>
        <time>2026-04-24T11:58:03Z</time>
      </trkpt>
      <trkpt lat="45.19217" lon="4.29477">
        <ele>859.1</ele>
        <time>2026-04-24T11:58:08Z</time>
      </trkpt>
      <trkpt lat="45.19212" lon="4.29479">
        <ele>859.4</ele>
        <time>2026-04-24T11:58:13Z</time>
      </trkpt>
      <trkpt lat="45.19207" lon="4.29479">
        <ele>859.9</ele>
        <time>2026-04-24T11:58:18Z</time>
      </trkpt>
      <trkpt lat="45.19201" lon="4.29479">
        <ele>860.4</ele>
        <time>2026-04-24T11:58:23Z</time>
      </trkpt>
      <trkpt lat="45.19197" lon="4.2948">
        <ele>860.7</ele>
        <time>2026-04-24T11:58:28Z</time>
      </trkpt>
      <trkpt lat="45.19192" lon="4.29481">
        <ele>861</ele>
        <time>2026-04-24T11:58:33Z</time>
      </trkpt>
      <trkpt lat="45.19187" lon="4.2948">
        <ele>861.5</ele>
        <time>2026-04-24T11:58:38Z</time>
      </trkpt>
      <trkpt lat="45.1918" lon="4.2948">
        <ele>862.1</ele>
        <time>2026-04-24T11:58:43Z</time>
      </trkpt>
      <trkpt lat="45.19174" lon="4.29481">
        <ele>862.5</ele>
        <time>2026-04-24T11:58:48Z</time>
      </trkpt>
      <trkpt lat="45.19169" lon="4.29482">
        <ele>862.9</ele>
        <time>2026-04-24T11:58:53Z</time>
      </trkpt>
      <trkpt lat="45.19166" lon="4.29481">
        <ele>863.3</ele>
        <time>2026-04-24T11:58:58Z</time>
      </trkpt>
      <trkpt lat="45.19159" lon="4.29483">
        <ele>864.5</ele>
        <time>2026-04-24T11:59:03Z</time>
      </trkpt>
      <trkpt lat="45.19152" lon="4.29483">
        <ele>865.8</ele>
        <time>2026-04-24T11:59:08Z</time>
      </trkpt>
      <trkpt lat="45.19146" lon="4.29482">
        <ele>867.1</ele>
        <time>2026-04-24T11:59:13Z</time>
      </trkpt>
      <trkpt lat="45.1914" lon="4.29483">
        <ele>868.1</ele>
        <time>2026-04-24T11:59:18Z</time>
      </trkpt>
      <trkpt lat="45.19135" lon="4.29485">
        <ele>868.9</ele>
        <time>2026-04-24T11:59:23Z</time>
      </trkpt>
      <trkpt lat="45.19129" lon="4.29487">
        <ele>869.9</ele>
        <time>2026-04-24T11:59:28Z</time>
      </trkpt>
      <trkpt lat="45.19124" lon="4.29487">
        <ele>870.9</ele>
        <time>2026-04-24T11:59:33Z</time>
      </trkpt>
      <trkpt lat="45.19119" lon="4.29488">
        <ele>871.7</ele>
        <time>2026-04-24T11:59:38Z</time>
      </trkpt>
      <trkpt lat="45.19113" lon="4.2949">
        <ele>872.6</ele>
        <time>2026-04-24T11:59:43Z</time>
      </trkpt>
      <trkpt lat="45.19109" lon="4.29492">
        <ele>873.2</ele>
        <time>2026-04-24T11:59:48Z</time>
      </trkpt>
      <trkpt lat="45.19103" lon="4.29494">
        <ele>874.1</ele>
        <time>2026-04-24T11:59:53Z</time>
      </trkpt>
      <trkpt lat="45.19098" lon="4.29496">
        <ele>874.8</ele>
        <time>2026-04-24T11:59:58Z</time>
      </trkpt>
      <trkpt lat="45.19093" lon="4.29498">
        <ele>875.5</ele>
        <time>2026-04-24T12:00:03Z</time>
      </trkpt>
      <trkpt lat="45.19087" lon="4.29502">
        <ele>876.1</ele>
        <time>2026-04-24T12:00:08Z</time>
      </trkpt>
      <trkpt lat="45.19081" lon="4.29504">
        <ele>876.7</ele>
        <time>2026-04-24T12:00:13Z</time>
      </trkpt>
      <trkpt lat="45.19076" lon="4.29508">
        <ele>876.6</ele>
        <time>2026-04-24T12:00:18Z</time>
      </trkpt>
      <trkpt lat="45.19071" lon="4.2951">
        <ele>876.8</ele>
        <time>2026-04-24T12:00:23Z</time>
      </trkpt>
      <trkpt lat="45.19065" lon="4.29513">
        <ele>877</ele>
        <time>2026-04-24T12:00:28Z</time>
      </trkpt>
      <trkpt lat="45.19058" lon="4.29516">
        <ele>877.4</ele>
        <time>2026-04-24T12:00:33Z</time>
      </trkpt>
      <trkpt lat="45.19053" lon="4.29518">
        <ele>877.6</ele>
        <time>2026-04-24T12:00:38Z</time>
      </trkpt>
      <trkpt lat="45.19048" lon="4.29521">
        <ele>877.8</ele>
        <time>2026-04-24T12:00:43Z</time>
      </trkpt>
      <trkpt lat="45.19042" lon="4.29523">
        <ele>878.2</ele>
        <time>2026-04-24T12:00:48Z</time>
      </trkpt>
      <trkpt lat="45.19037" lon="4.29524">
        <ele>878.6</ele>
        <time>2026-04-24T12:00:53Z</time>
      </trkpt>
      <trkpt lat="45.19031" lon="4.29526">
        <ele>879.1</ele>
        <time>2026-04-24T12:00:58Z</time>
      </trkpt>
      <trkpt lat="45.19025" lon="4.29529">
        <ele>879.4</ele>
        <time>2026-04-24T12:01:03Z</time>
      </trkpt>
      <trkpt lat="45.19019" lon="4.2953">
        <ele>880</ele>
        <time>2026-04-24T12:01:08Z</time>
      </trkpt>
      <trkpt lat="45.19013" lon="4.29532">
        <ele>880.4</ele>
        <time>2026-04-24T12:01:13Z</time>
      </trkpt>
      <trkpt lat="45.19007" lon="4.29533">
        <ele>881</ele>
        <time>2026-04-24T12:01:18Z</time>
      </trkpt>
      <trkpt lat="45.19001" lon="4.29535">
        <ele>881.5</ele>
        <time>2026-04-24T12:01:23Z</time>
      </trkpt>
      <trkpt lat="45.18995" lon="4.29537">
        <ele>881.8</ele>
        <time>2026-04-24T12:01:28Z</time>
      </trkpt>
      <trkpt lat="45.18989" lon="4.29541">
        <ele>881.8</ele>
        <time>2026-04-24T12:01:33Z</time>
      </trkpt>
      <trkpt lat="45.18984" lon="4.29543">
        <ele>881.9</ele>
        <time>2026-04-24T12:01:38Z</time>
      </trkpt>
      <trkpt lat="45.18978" lon="4.29543">
        <ele>882.3</ele>
        <time>2026-04-24T12:01:43Z</time>
      </trkpt>
      <trkpt lat="45.18972" lon="4.29544">
        <ele>882.7</ele>
        <time>2026-04-24T12:01:48Z</time>
      </trkpt>
      <trkpt lat="45.18967" lon="4.29546">
        <ele>882.9</ele>
        <time>2026-04-24T12:01:53Z</time>
      </trkpt>
      <trkpt lat="45.18965" lon="4.29547">
        <ele>882.9</ele>
        <time>2026-04-24T12:01:58Z</time>
      </trkpt>
      <trkpt lat="45.1896" lon="4.29547">
        <ele>883.3</ele>
        <time>2026-04-24T12:02:03Z</time>
      </trkpt>
      <trkpt lat="45.18958" lon="4.29549">
        <ele>883.3</ele>
        <time>2026-04-24T12:02:08Z</time>
      </trkpt>
      <trkpt lat="45.18958" lon="4.29549">
        <ele>883.3</ele>
        <time>2026-04-24T12:02:13Z</time>
      </trkpt>
      <trkpt lat="45.18958" lon="4.29549">
        <ele>883.3</ele>
        <time>2026-04-24T12:02:18Z</time>
      </trkpt>
      <trkpt lat="45.18957" lon="4.29552">
        <ele>883.2</ele>
        <time>2026-04-24T12:02:23Z</time>
      </trkpt>
      <trkpt lat="45.18949" lon="4.29552">
        <ele>883.8</ele>
        <time>2026-04-24T12:02:28Z</time>
      </trkpt>
      <trkpt lat="45.18943" lon="4.29552">
        <ele>884.2</ele>
        <time>2026-04-24T12:02:33Z</time>
      </trkpt>
      <trkpt lat="45.18938" lon="4.29553">
        <ele>884.5</ele>
        <time>2026-04-24T12:02:38Z</time>
      </trkpt>
      <trkpt lat="45.18933" lon="4.29554">
        <ele>884.8</ele>
        <time>2026-04-24T12:02:43Z</time>
      </trkpt>
      <trkpt lat="45.18927" lon="4.29555">
        <ele>885.2</ele>
        <time>2026-04-24T12:02:48Z</time>
      </trkpt>
      <trkpt lat="45.18923" lon="4.29554">
        <ele>885.6</ele>
        <time>2026-04-24T12:02:53Z</time>
      </trkpt>
      <trkpt lat="45.18917" lon="4.29555">
        <ele>886</ele>
        <time>2026-04-24T12:02:58Z</time>
      </trkpt>
      <trkpt lat="45.18911" lon="4.29556">
        <ele>886</ele>
        <time>2026-04-24T12:03:03Z</time>
      </trkpt>
      <trkpt lat="45.18906" lon="4.29558">
        <ele>886</ele>
        <time>2026-04-24T12:03:08Z</time>
      </trkpt>
      <trkpt lat="45.18901" lon="4.29558">
        <ele>886.1</ele>
        <time>2026-04-24T12:03:13Z</time>
      </trkpt>
      <trkpt lat="45.18896" lon="4.29559">
        <ele>886.1</ele>
        <time>2026-04-24T12:03:18Z</time>
      </trkpt>
      <trkpt lat="45.18891" lon="4.2956">
        <ele>886.2</ele>
        <time>2026-04-24T12:03:23Z</time>
      </trkpt>
      <trkpt lat="45.18887" lon="4.2956">
        <ele>886.2</ele>
        <time>2026-04-24T12:03:28Z</time>
      </trkpt>
      <trkpt lat="45.18882" lon="4.29562">
        <ele>886.3</ele>
        <time>2026-04-24T12:03:33Z</time>
      </trkpt>
      <trkpt lat="45.18877" lon="4.29563">
        <ele>886.3</ele>
        <time>2026-04-24T12:03:38Z</time>
      </trkpt>
      <trkpt lat="45.18873" lon="4.29562">
        <ele>886.4</ele>
        <time>2026-04-24T12:03:43Z</time>
      </trkpt>
      <trkpt lat="45.1887" lon="4.29562">
        <ele>886.4</ele>
        <time>2026-04-24T12:03:48Z</time>
      </trkpt>
      <trkpt lat="45.18866" lon="4.29561">
        <ele>886.5</ele>
        <time>2026-04-24T12:03:53Z</time>
      </trkpt>
      <trkpt lat="45.18861" lon="4.29563">
        <ele>886.6</ele>
        <time>2026-04-24T12:03:58Z</time>
      </trkpt>
      <trkpt lat="45.18856" lon="4.29564">
        <ele>886.7</ele>
        <time>2026-04-24T12:04:03Z</time>
      </trkpt>
      <trkpt lat="45.18849" lon="4.29561">
        <ele>886.7</ele>
        <time>2026-04-24T12:04:08Z</time>
      </trkpt>
      <trkpt lat="45.18843" lon="4.29558">
        <ele>886.7</ele>
        <time>2026-04-24T12:04:13Z</time>
      </trkpt>
      <trkpt lat="45.18838" lon="4.29556">
        <ele>886.6</ele>
        <time>2026-04-24T12:04:18Z</time>
      </trkpt>
      <trkpt lat="45.18834" lon="4.2956">
        <ele>886.9</ele>
        <time>2026-04-24T12:04:23Z</time>
      </trkpt>
      <trkpt lat="45.18831" lon="4.29558">
        <ele>886.6</ele>
        <time>2026-04-24T12:04:28Z</time>
      </trkpt>
      <trkpt lat="45.18829" lon="4.29555">
        <ele>886.3</ele>
        <time>2026-04-24T12:04:33Z</time>
      </trkpt>
      <trkpt lat="45.18829" lon="4.29555">
        <ele>886.3</ele>
        <time>2026-04-24T12:04:38Z</time>
      </trkpt>
      <trkpt lat="45.18823" lon="4.29554">
        <ele>885.9</ele>
        <time>2026-04-24T12:04:43Z</time>
      </trkpt>
      <trkpt lat="45.1882" lon="4.29551">
        <ele>885.5</ele>
        <time>2026-04-24T12:04:48Z</time>
      </trkpt>
      <trkpt lat="45.18817" lon="4.29553">
        <ele>885.4</ele>
        <time>2026-04-24T12:04:53Z</time>
      </trkpt>
      <trkpt lat="45.18813" lon="4.29548">
        <ele>884.9</ele>
        <time>2026-04-24T12:04:58Z</time>
      </trkpt>
      <trkpt lat="45.18814" lon="4.29541">
        <ele>884.6</ele>
        <time>2026-04-24T12:05:03Z</time>
      </trkpt>
      <trkpt lat="45.18814" lon="4.29533">
        <ele>884.1</ele>
        <time>2026-04-24T12:05:08Z</time>
      </trkpt>
      <trkpt lat="45.18812" lon="4.29525">
        <ele>883.6</ele>
        <time>2026-04-24T12:05:13Z</time>
      </trkpt>
      <trkpt lat="45.1881" lon="4.29519">
        <ele>883.1</ele>
        <time>2026-04-24T12:05:18Z</time>
      </trkpt>
      <trkpt lat="45.18809" lon="4.29517">
        <ele>882.9</ele>
        <time>2026-04-24T12:05:23Z</time>
      </trkpt>
      <trkpt lat="45.18808" lon="4.29521">
        <ele>883</ele>
        <time>2026-04-24T12:05:28Z</time>
      </trkpt>
      <trkpt lat="45.18805" lon="4.29525">
        <ele>883</ele>
        <time>2026-04-24T12:05:33Z</time>
      </trkpt>
      <trkpt lat="45.18802" lon="4.29527">
        <ele>882.9</ele>
        <time>2026-04-24T12:05:38Z</time>
      </trkpt>
      <trkpt lat="45.18799" lon="4.29528">
        <ele>882.7</ele>
        <time>2026-04-24T12:05:43Z</time>
      </trkpt>
      <trkpt lat="45.18798" lon="4.29524">
        <ele>882.4</ele>
        <time>2026-04-24T12:05:48Z</time>
      </trkpt>
      <trkpt lat="45.188" lon="4.29512">
        <ele>881.9</ele>
        <time>2026-04-24T12:05:53Z</time>
      </trkpt>
      <trkpt lat="45.188" lon="4.29504">
        <ele>881.4</ele>
        <time>2026-04-24T12:05:58Z</time>
      </trkpt>
      <trkpt lat="45.18801" lon="4.295">
        <ele>881.3</ele>
        <time>2026-04-24T12:06:03Z</time>
      </trkpt>
      <trkpt lat="45.18802" lon="4.29503">
        <ele>881.5</ele>
        <time>2026-04-24T12:06:08Z</time>
      </trkpt>
      <trkpt lat="45.18803" lon="4.29505">
        <ele>881.7</ele>
        <time>2026-04-24T12:06:13Z</time>
      </trkpt>
      <trkpt lat="45.18803" lon="4.29505">
        <ele>881.7</ele>
        <time>2026-04-24T12:06:18Z</time>
      </trkpt>
      <trkpt lat="45.18803" lon="4.29505">
        <ele>881.7</ele>
        <time>2026-04-24T12:06:23Z</time>
      </trkpt>
      <trkpt lat="45.18796" lon="4.29515">
        <ele>881.7</ele>
        <time>2026-04-24T12:06:28Z</time>
      </trkpt>
      <trkpt lat="45.18795" lon="4.29517">
        <ele>881.8</ele>
        <time>2026-04-24T12:06:33Z</time>
      </trkpt>
      <trkpt lat="45.18795" lon="4.29517">
        <ele>881.8</ele>
        <time>2026-04-24T12:06:38Z</time>
      </trkpt>
      <trkpt lat="45.18795" lon="4.29517">
        <ele>881.8</ele>
        <time>2026-04-24T12:06:43Z</time>
      </trkpt>
      <trkpt lat="45.18792" lon="4.29502">
        <ele>880.6</ele>
        <time>2026-04-24T12:06:48Z</time>
      </trkpt>
      <trkpt lat="45.18791" lon="4.29501">
        <ele>880.5</ele>
        <time>2026-04-24T12:06:53Z</time>
      </trkpt>
      <trkpt lat="45.18791" lon="4.29501">
        <ele>880.5</ele>
        <time>2026-04-24T12:06:58Z</time>
      </trkpt>
      <trkpt lat="45.18791" lon="4.29501">
        <ele>880.5</ele>
        <time>2026-04-24T12:07:03Z</time>
      </trkpt>
      <trkpt lat="45.18791" lon="4.29501">
        <ele>880.5</ele>
        <time>2026-04-24T12:07:08Z</time>
      </trkpt>
      <trkpt lat="45.18791" lon="4.29501">
        <ele>880.5</ele>
        <time>2026-04-24T12:07:13Z</time>
      </trkpt>
      <trkpt lat="45.18796" lon="4.29494">
        <ele>880.2</ele>
        <time>2026-04-24T12:07:18Z</time>
      </trkpt>
      <trkpt lat="45.18801" lon="4.29491">
        <ele>880.2</ele>
        <time>2026-04-24T12:07:23Z</time>
      </trkpt>
      <trkpt lat="45.18805" lon="4.29487">
        <ele>880.1</ele>
        <time>2026-04-24T12:07:28Z</time>
      </trkpt>
      <trkpt lat="45.18807" lon="4.29484">
        <ele>879.9</ele>
        <time>2026-04-24T12:07:33Z</time>
      </trkpt>
      <trkpt lat="45.18805" lon="4.29486">
        <ele>880</ele>
        <time>2026-04-24T12:07:38Z</time>
      </trkpt>
      <trkpt lat="45.18802" lon="4.29492">
        <ele>880.4</ele>
        <time>2026-04-24T12:07:43Z</time>
      </trkpt>
      <trkpt lat="45.18797" lon="4.29497">
        <ele>880.6</ele>
        <time>2026-04-24T12:07:48Z</time>
      </trkpt>
      <trkpt lat="45.18791" lon="4.29496">
        <ele>880</ele>
        <time>2026-04-24T12:07:53Z</time>
      </trkpt>
      <trkpt lat="45.18786" lon="4.29498">
        <ele>879.8</ele>
        <time>2026-04-24T12:07:58Z</time>
      </trkpt>
      <trkpt lat="45.18781" lon="4.295">
        <ele>879.6</ele>
        <time>2026-04-24T12:08:03Z</time>
      </trkpt>
      <trkpt lat="45.18776" lon="4.29505">
        <ele>879.5</ele>
        <time>2026-04-24T12:08:08Z</time>
      </trkpt>
      <trkpt lat="45.18768" lon="4.2951">
        <ele>879.2</ele>
        <time>2026-04-24T12:08:13Z</time>
      </trkpt>
      <trkpt lat="45.18761" lon="4.29514">
        <ele>878.9</ele>
        <time>2026-04-24T12:08:18Z</time>
      </trkpt>
      <trkpt lat="45.18755" lon="4.29518">
        <ele>878.7</ele>
        <time>2026-04-24T12:08:23Z</time>
      </trkpt>
      <trkpt lat="45.18749" lon="4.29519">
        <ele>878.3</ele>
        <time>2026-04-24T12:08:28Z</time>
      </trkpt>
      <trkpt lat="45.18745" lon="4.29519">
        <ele>878.2</ele>
        <time>2026-04-24T12:08:33Z</time>
      </trkpt>
      <trkpt lat="45.1874" lon="4.29527">
        <ele>878.6</ele>
        <time>2026-04-24T12:08:38Z</time>
      </trkpt>
      <trkpt lat="45.18736" lon="4.29533">
        <ele>878.9</ele>
        <time>2026-04-24T12:08:43Z</time>
      </trkpt>
      <trkpt lat="45.18734" lon="4.29539">
        <ele>879.2</ele>
        <time>2026-04-24T12:08:48Z</time>
      </trkpt>
      <trkpt lat="45.18732" lon="4.29547">
        <ele>879.7</ele>
        <time>2026-04-24T12:08:53Z</time>
      </trkpt>
      <trkpt lat="45.18728" lon="4.29555">
        <ele>880.1</ele>
        <time>2026-04-24T12:08:58Z</time>
      </trkpt>
      <trkpt lat="45.18724" lon="4.29561">
        <ele>880.3</ele>
        <time>2026-04-24T12:09:03Z</time>
      </trkpt>
      <trkpt lat="45.18723" lon="4.29558">
        <ele>880.1</ele>
        <time>2026-04-24T12:09:08Z</time>
      </trkpt>
      <trkpt lat="45.18721" lon="4.29553">
        <ele>879.7</ele>
        <time>2026-04-24T12:09:13Z</time>
      </trkpt>
      <trkpt lat="45.18721" lon="4.29547">
        <ele>879.3</ele>
        <time>2026-04-24T12:09:18Z</time>
      </trkpt>
      <trkpt lat="45.18725" lon="4.29543">
        <ele>879.2</ele>
        <time>2026-04-24T12:09:23Z</time>
      </trkpt>
      <trkpt lat="45.18728" lon="4.2954">
        <ele>879.1</ele>
        <time>2026-04-24T12:09:28Z</time>
      </trkpt>
      <trkpt lat="45.1873" lon="4.29539">
        <ele>879.1</ele>
        <time>2026-04-24T12:09:33Z</time>
      </trkpt>
      <trkpt lat="45.18731" lon="4.29538">
        <ele>879.1</ele>
        <time>2026-04-24T12:09:38Z</time>
      </trkpt>
      <trkpt lat="45.18731" lon="4.29538">
        <ele>879.1</ele>
        <time>2026-04-24T12:09:43Z</time>
      </trkpt>
      <trkpt lat="45.18726" lon="4.29546">
        <ele>879.4</ele>
        <time>2026-04-24T12:09:48Z</time>
      </trkpt>
      <trkpt lat="45.18724" lon="4.29548">
        <ele>879.5</ele>
        <time>2026-04-24T12:09:53Z</time>
      </trkpt>
      <trkpt lat="45.18724" lon="4.29548">
        <ele>879.5</ele>
        <time>2026-04-24T12:09:58Z</time>
      </trkpt>
      <trkpt lat="45.18719" lon="4.29556">
        <ele>879.8</ele>
        <time>2026-04-24T12:10:03Z</time>
      </trkpt>
      <trkpt lat="45.18714" lon="4.2956">
        <ele>879.8</ele>
        <time>2026-04-24T12:10:08Z</time>
      </trkpt>
      <trkpt lat="45.18711" lon="4.29563">
        <ele>879.9</ele>
        <time>2026-04-24T12:10:13Z</time>
      </trkpt>
      <trkpt lat="45.18713" lon="4.29567">
        <ele>880.2</ele>
        <time>2026-04-24T12:10:18Z</time>
      </trkpt>
      <trkpt lat="45.18718" lon="4.29566">
        <ele>880.4</ele>
        <time>2026-04-24T12:10:23Z</time>
      </trkpt>
      <trkpt lat="45.18724" lon="4.29564">
        <ele>880.5</ele>
        <time>2026-04-24T12:10:28Z</time>
      </trkpt>
      <trkpt lat="45.18727" lon="4.29566">
        <ele>880.8</ele>
        <time>2026-04-24T12:10:33Z</time>
      </trkpt>
      <trkpt lat="45.18728" lon="4.29568">
        <ele>880.9</ele>
        <time>2026-04-24T12:10:38Z</time>
      </trkpt>
      <trkpt lat="45.18728" lon="4.29568">
        <ele>880.9</ele>
        <time>2026-04-24T12:10:43Z</time>
      </trkpt>
      <trkpt lat="45.18722" lon="4.29574">
        <ele>881.1</ele>
        <time>2026-04-24T12:10:48Z</time>
      </trkpt>
      <trkpt lat="45.18716" lon="4.29576">
        <ele>880.9</ele>
        <time>2026-04-24T12:10:53Z</time>
      </trkpt>
      <trkpt lat="45.18711" lon="4.2958">
        <ele>880.9</ele>
        <time>2026-04-24T12:10:58Z</time>
      </trkpt>
      <trkpt lat="45.18705" lon="4.29586">
        <ele>881.1</ele>
        <time>2026-04-24T12:11:03Z</time>
      </trkpt>
      <trkpt lat="45.187" lon="4.29592">
        <ele>881.5</ele>
        <time>2026-04-24T12:11:08Z</time>
      </trkpt>
      <trkpt lat="45.18694" lon="4.29598">
        <ele>881.8</ele>
        <time>2026-04-24T12:11:13Z</time>
      </trkpt>
      <trkpt lat="45.18689" lon="4.29603">
        <ele>882.1</ele>
        <time>2026-04-24T12:11:18Z</time>
      </trkpt>
      <trkpt lat="45.18683" lon="4.29612">
        <ele>882.8</ele>
        <time>2026-04-24T12:11:23Z</time>
      </trkpt>
      <trkpt lat="45.18677" lon="4.2962">
        <ele>883.4</ele>
        <time>2026-04-24T12:11:28Z</time>
      </trkpt>
      <trkpt lat="45.18672" lon="4.29627">
        <ele>883.9</ele>
        <time>2026-04-24T12:11:33Z</time>
      </trkpt>
      <trkpt lat="45.18666" lon="4.29632">
        <ele>884.3</ele>
        <time>2026-04-24T12:11:38Z</time>
      </trkpt>
      <trkpt lat="45.18661" lon="4.2964">
        <ele>885.2</ele>
        <time>2026-04-24T12:11:43Z</time>
      </trkpt>
      <trkpt lat="45.18656" lon="4.29646">
        <ele>885.9</ele>
        <time>2026-04-24T12:11:48Z</time>
      </trkpt>
      <trkpt lat="45.1865" lon="4.2965">
        <ele>886.3</ele>
        <time>2026-04-24T12:11:53Z</time>
      </trkpt>
      <trkpt lat="45.18645" lon="4.29656">
        <ele>886.9</ele>
        <time>2026-04-24T12:11:58Z</time>
      </trkpt>
      <trkpt lat="45.18639" lon="4.29663">
        <ele>887.4</ele>
        <time>2026-04-24T12:12:03Z</time>
      </trkpt>
      <trkpt lat="45.18635" lon="4.29667">
        <ele>887.6</ele>
        <time>2026-04-24T12:12:08Z</time>
      </trkpt>
      <trkpt lat="45.1863" lon="4.29672">
        <ele>887.9</ele>
        <time>2026-04-24T12:12:13Z</time>
      </trkpt>
      <trkpt lat="45.18627" lon="4.29676">
        <ele>888.1</ele>
        <time>2026-04-24T12:12:18Z</time>
      </trkpt>
      <trkpt lat="45.18627" lon="4.29678">
        <ele>888.2</ele>
        <time>2026-04-24T12:12:23Z</time>
      </trkpt>
      <trkpt lat="45.18627" lon="4.29678">
        <ele>888.2</ele>
        <time>2026-04-24T12:12:28Z</time>
      </trkpt>
      <trkpt lat="45.18627" lon="4.29678">
        <ele>888.2</ele>
        <time>2026-04-24T12:12:33Z</time>
      </trkpt>
      <trkpt lat="45.18625" lon="4.29676">
        <ele>888.1</ele>
        <time>2026-04-24T12:12:38Z</time>
      </trkpt>
      <trkpt lat="45.18619" lon="4.2968">
        <ele>888.2</ele>
        <time>2026-04-24T12:12:43Z</time>
      </trkpt>
      <trkpt lat="45.18614" lon="4.29686">
        <ele>888.5</ele>
        <time>2026-04-24T12:12:48Z</time>
      </trkpt>
      <trkpt lat="45.18607" lon="4.29691">
        <ele>888.6</ele>
        <time>2026-04-24T12:12:53Z</time>
      </trkpt>
      <trkpt lat="45.18601" lon="4.29693">
        <ele>888.6</ele>
        <time>2026-04-24T12:12:58Z</time>
      </trkpt>
      <trkpt lat="45.18595" lon="4.29697">
        <ele>888.7</ele>
        <time>2026-04-24T12:13:03Z</time>
      </trkpt>
      <trkpt lat="45.18586" lon="4.29702">
        <ele>888.8</ele>
        <time>2026-04-24T12:13:08Z</time>
      </trkpt>
      <trkpt lat="45.18579" lon="4.29706">
        <ele>889.3</ele>
        <time>2026-04-24T12:13:13Z</time>
      </trkpt>
      <trkpt lat="45.18576" lon="4.29712">
        <ele>889.8</ele>
        <time>2026-04-24T12:13:18Z</time>
      </trkpt>
      <trkpt lat="45.1857" lon="4.29714">
        <ele>890.5</ele>
        <time>2026-04-24T12:13:23Z</time>
      </trkpt>
      <trkpt lat="45.18564" lon="4.29718">
        <ele>891.2</ele>
        <time>2026-04-24T12:13:28Z</time>
      </trkpt>
      <trkpt lat="45.18558" lon="4.29724">
        <ele>892.1</ele>
        <time>2026-04-24T12:13:33Z</time>
      </trkpt>
      <trkpt lat="45.18552" lon="4.29728">
        <ele>892.9</ele>
        <time>2026-04-24T12:13:38Z</time>
      </trkpt>
      <trkpt lat="45.18544" lon="4.29734">
        <ele>893.9</ele>
        <time>2026-04-24T12:13:43Z</time>
      </trkpt>
      <trkpt lat="45.18538" lon="4.29738">
        <ele>894.7</ele>
        <time>2026-04-24T12:13:48Z</time>
      </trkpt>
      <trkpt lat="45.18532" lon="4.29743">
        <ele>895.5</ele>
        <time>2026-04-24T12:13:53Z</time>
      </trkpt>
      <trkpt lat="45.18527" lon="4.29748">
        <ele>896.3</ele>
        <time>2026-04-24T12:13:58Z</time>
      </trkpt>
      <trkpt lat="45.18521" lon="4.29754">
        <ele>897.1</ele>
        <time>2026-04-24T12:14:03Z</time>
      </trkpt>
      <trkpt lat="45.18513" lon="4.29759">
        <ele>898</ele>
        <time>2026-04-24T12:14:08Z</time>
      </trkpt>
      <trkpt lat="45.18507" lon="4.29762">
        <ele>898.6</ele>
        <time>2026-04-24T12:14:13Z</time>
      </trkpt>
      <trkpt lat="45.18502" lon="4.29765">
        <ele>899</ele>
        <time>2026-04-24T12:14:18Z</time>
      </trkpt>
      <trkpt lat="45.18497" lon="4.29769">
        <ele>899.5</ele>
        <time>2026-04-24T12:14:23Z</time>
      </trkpt>
      <trkpt lat="45.18491" lon="4.29773">
        <ele>900.2</ele>
        <time>2026-04-24T12:14:28Z</time>
      </trkpt>
      <trkpt lat="45.18484" lon="4.29775">
        <ele>901</ele>
        <time>2026-04-24T12:14:33Z</time>
      </trkpt>
      <trkpt lat="45.1848" lon="4.29777">
        <ele>901.4</ele>
        <time>2026-04-24T12:14:38Z</time>
      </trkpt>
      <trkpt lat="45.18475" lon="4.29777">
        <ele>901.9</ele>
        <time>2026-04-24T12:14:43Z</time>
      </trkpt>
      <trkpt lat="45.1847" lon="4.29776">
        <ele>902.4</ele>
        <time>2026-04-24T12:14:48Z</time>
      </trkpt>
      <trkpt lat="45.18465" lon="4.29776">
        <ele>903</ele>
        <time>2026-04-24T12:14:53Z</time>
      </trkpt>
      <trkpt lat="45.1846" lon="4.29777">
        <ele>903.5</ele>
        <time>2026-04-24T12:14:58Z</time>
      </trkpt>
      <trkpt lat="45.18454" lon="4.29777">
        <ele>904.1</ele>
        <time>2026-04-24T12:15:03Z</time>
      </trkpt>
      <trkpt lat="45.18449" lon="4.29775">
        <ele>904.6</ele>
        <time>2026-04-24T12:15:08Z</time>
      </trkpt>
      <trkpt lat="45.18445" lon="4.29774">
        <ele>905</ele>
        <time>2026-04-24T12:15:13Z</time>
      </trkpt>
      <trkpt lat="45.1844" lon="4.29774">
        <ele>905.6</ele>
        <time>2026-04-24T12:15:18Z</time>
      </trkpt>
      <trkpt lat="45.18438" lon="4.29776">
        <ele>905.8</ele>
        <time>2026-04-24T12:15:23Z</time>
      </trkpt>
      <trkpt lat="45.18436" lon="4.29781">
        <ele>906</ele>
        <time>2026-04-24T12:15:28Z</time>
      </trkpt>
      <trkpt lat="45.18435" lon="4.29784">
        <ele>906.1</ele>
        <time>2026-04-24T12:15:33Z</time>
      </trkpt>
      <trkpt lat="45.18435" lon="4.29786">
        <ele>906.1</ele>
        <time>2026-04-24T12:15:38Z</time>
      </trkpt>
      <trkpt lat="45.18435" lon="4.29786">
        <ele>906.1</ele>
        <time>2026-04-24T12:15:43Z</time>
      </trkpt>
      <trkpt lat="45.18436" lon="4.29785">
        <ele>906</ele>
        <time>2026-04-24T12:15:48Z</time>
      </trkpt>
      <trkpt lat="45.18438" lon="4.29776">
        <ele>905.8</ele>
        <time>2026-04-24T12:15:53Z</time>
      </trkpt>
      <trkpt lat="45.18438" lon="4.29768">
        <ele>905.8</ele>
        <time>2026-04-24T12:15:58Z</time>
      </trkpt>
      <trkpt lat="45.18432" lon="4.29765">
        <ele>906.4</ele>
        <time>2026-04-24T12:16:03Z</time>
      </trkpt>
      <trkpt lat="45.18427" lon="4.2976">
        <ele>906.9</ele>
        <time>2026-04-24T12:16:08Z</time>
      </trkpt>
      <trkpt lat="45.18422" lon="4.29756">
        <ele>907.4</ele>
        <time>2026-04-24T12:16:13Z</time>
      </trkpt>
      <trkpt lat="45.18417" lon="4.29753">
        <ele>908</ele>
        <time>2026-04-24T12:16:18Z</time>
      </trkpt>
      <trkpt lat="45.18413" lon="4.29752">
        <ele>908.2</ele>
        <time>2026-04-24T12:16:23Z</time>
      </trkpt>
      <trkpt lat="45.18411" lon="4.29751">
        <ele>908.3</ele>
        <time>2026-04-24T12:16:28Z</time>
      </trkpt>
      <trkpt lat="45.18411" lon="4.29749">
        <ele>908.2</ele>
        <time>2026-04-24T12:16:33Z</time>
      </trkpt>
      <trkpt lat="45.18409" lon="4.29748">
        <ele>908.3</ele>
        <time>2026-04-24T12:16:38Z</time>
      </trkpt>
      <trkpt lat="45.18405" lon="4.2975">
        <ele>908.6</ele>
        <time>2026-04-24T12:16:43Z</time>
      </trkpt>
      <trkpt lat="45.18399" lon="4.29748">
        <ele>908.8</ele>
        <time>2026-04-24T12:16:48Z</time>
      </trkpt>
      <trkpt lat="45.18393" lon="4.29746">
        <ele>908.9</ele>
        <time>2026-04-24T12:16:53Z</time>
      </trkpt>
      <trkpt lat="45.18388" lon="4.29745">
        <ele>909.1</ele>
        <time>2026-04-24T12:16:58Z</time>
      </trkpt>
      <trkpt lat="45.18381" lon="4.29746">
        <ele>909.5</ele>
        <time>2026-04-24T12:17:03Z</time>
      </trkpt>
      <trkpt lat="45.18374" lon="4.29748">
        <ele>910</ele>
        <time>2026-04-24T12:17:08Z</time>
      </trkpt>
      <trkpt lat="45.1837" lon="4.29751">
        <ele>910.3</ele>
        <time>2026-04-24T12:17:13Z</time>
      </trkpt>
      <trkpt lat="45.18365" lon="4.29753">
        <ele>910.5</ele>
        <time>2026-04-24T12:17:18Z</time>
      </trkpt>
      <trkpt lat="45.18359" lon="4.29756">
        <ele>910.9</ele>
        <time>2026-04-24T12:17:23Z</time>
      </trkpt>
      <trkpt lat="45.18354" lon="4.2976">
        <ele>911.3</ele>
        <time>2026-04-24T12:17:28Z</time>
      </trkpt>
      <trkpt lat="45.1835" lon="4.29764">
        <ele>911.6</ele>
        <time>2026-04-24T12:17:33Z</time>
      </trkpt>
      <trkpt lat="45.18345" lon="4.29767">
        <ele>912</ele>
        <time>2026-04-24T12:17:38Z</time>
      </trkpt>
      <trkpt lat="45.1834" lon="4.29771">
        <ele>912.4</ele>
        <time>2026-04-24T12:17:43Z</time>
      </trkpt>
      <trkpt lat="45.18336" lon="4.29775">
        <ele>912.7</ele>
        <time>2026-04-24T12:17:48Z</time>
      </trkpt>
      <trkpt lat="45.18332" lon="4.29777">
        <ele>912.9</ele>
        <time>2026-04-24T12:17:53Z</time>
      </trkpt>
      <trkpt lat="45.18328" lon="4.2978">
        <ele>912.9</ele>
        <time>2026-04-24T12:17:58Z</time>
      </trkpt>
      <trkpt lat="45.18322" lon="4.29785">
        <ele>912.8</ele>
        <time>2026-04-24T12:18:03Z</time>
      </trkpt>
      <trkpt lat="45.18318" lon="4.29789">
        <ele>912.8</ele>
        <time>2026-04-24T12:18:08Z</time>
      </trkpt>
      <trkpt lat="45.18314" lon="4.29793">
        <ele>912.7</ele>
        <time>2026-04-24T12:18:13Z</time>
      </trkpt>
      <trkpt lat="45.18308" lon="4.29797">
        <ele>912.6</ele>
        <time>2026-04-24T12:18:18Z</time>
      </trkpt>
      <trkpt lat="45.18303" lon="4.29801">
        <ele>912.4</ele>
        <time>2026-04-24T12:18:23Z</time>
      </trkpt>
      <trkpt lat="45.18297" lon="4.29804">
        <ele>912.2</ele>
        <time>2026-04-24T12:18:28Z</time>
      </trkpt>
      <trkpt lat="45.18292" lon="4.29807">
        <ele>912</ele>
        <time>2026-04-24T12:18:33Z</time>
      </trkpt>
      <trkpt lat="45.18286" lon="4.29808">
        <ele>911.8</ele>
        <time>2026-04-24T12:18:38Z</time>
      </trkpt>
      <trkpt lat="45.18281" lon="4.29808">
        <ele>911.5</ele>
        <time>2026-04-24T12:18:43Z</time>
      </trkpt>
      <trkpt lat="45.18274" lon="4.29808">
        <ele>911.2</ele>
        <time>2026-04-24T12:18:48Z</time>
      </trkpt>
      <trkpt lat="45.18268" lon="4.29808">
        <ele>910.9</ele>
        <time>2026-04-24T12:18:53Z</time>
      </trkpt>
      <trkpt lat="45.18263" lon="4.29807">
        <ele>910.6</ele>
        <time>2026-04-24T12:18:58Z</time>
      </trkpt>
      <trkpt lat="45.18258" lon="4.29806">
        <ele>910.4</ele>
        <time>2026-04-24T12:19:03Z</time>
      </trkpt>
      <trkpt lat="45.18255" lon="4.29806">
        <ele>910.2</ele>
        <time>2026-04-24T12:19:08Z</time>
      </trkpt>
      <trkpt lat="45.18254" lon="4.29806">
        <ele>910.2</ele>
        <time>2026-04-24T12:19:13Z</time>
      </trkpt>
      <trkpt lat="45.18254" lon="4.29806">
        <ele>910.2</ele>
        <time>2026-04-24T12:19:18Z</time>
      </trkpt>
      <trkpt lat="45.18254" lon="4.29806">
        <ele>910.2</ele>
        <time>2026-04-24T12:19:23Z</time>
      </trkpt>
      <trkpt lat="45.18254" lon="4.29806">
        <ele>910.2</ele>
        <time>2026-04-24T12:19:28Z</time>
      </trkpt>
      <trkpt lat="45.18254" lon="4.29806">
        <ele>910.2</ele>
        <time>2026-04-24T12:19:33Z</time>
      </trkpt>
      <trkpt lat="45.18254" lon="4.29806">
        <ele>910.2</ele>
        <time>2026-04-24T12:19:38Z</time>
      </trkpt>
      <trkpt lat="45.18254" lon="4.29806">
        <ele>910.2</ele>
        <time>2026-04-24T12:19:43Z</time>
      </trkpt>
      <trkpt lat="45.18254" lon="4.29806">
        <ele>910.2</ele>
        <time>2026-04-24T12:19:48Z</time>
      </trkpt>
      <trkpt lat="45.18254" lon="4.29806">
        <ele>910.2</ele>
        <time>2026-04-24T12:19:53Z</time>
      </trkpt>
      <trkpt lat="45.18254" lon="4.29806">
        <ele>910.2</ele>
        <time>2026-04-24T12:19:58Z</time>
      </trkpt>
      <trkpt lat="45.18254" lon="4.29806">
        <ele>910.2</ele>
        <time>2026-04-24T12:20:03Z</time>
      </trkpt>
      <trkpt lat="45.18254" lon="4.29806">
        <ele>910.2</ele>
        <time>2026-04-24T12:20:08Z</time>
      </trkpt>
      <trkpt lat="45.18254" lon="4.29806">
        <ele>910.2</ele>
        <time>2026-04-24T12:20:13Z</time>
      </trkpt>
      <trkpt lat="45.18262" lon="4.29816">
        <ele>910.6</ele>
        <time>2026-04-24T12:20:18Z</time>
      </trkpt>
      <trkpt lat="45.18262" lon="4.29816">
        <ele>910.6</ele>
        <time>2026-04-24T12:20:23Z</time>
      </trkpt>
      <trkpt lat="45.18265" lon="4.29825">
        <ele>910.8</ele>
        <time>2026-04-24T12:20:28Z</time>
      </trkpt>
      <trkpt lat="45.18269" lon="4.29833">
        <ele>911.1</ele>
        <time>2026-04-24T12:20:33Z</time>
      </trkpt>
      <trkpt lat="45.1827" lon="4.29841">
        <ele>911.8</ele>
        <time>2026-04-24T12:20:38Z</time>
      </trkpt>
      <trkpt lat="45.18275" lon="4.29849">
        <ele>912.6</ele>
        <time>2026-04-24T12:20:43Z</time>
      </trkpt>
      <trkpt lat="45.18279" lon="4.2986">
        <ele>913.7</ele>
        <time>2026-04-24T12:20:48Z</time>
      </trkpt>
      <trkpt lat="45.18282" lon="4.29868">
        <ele>914.4</ele>
        <time>2026-04-24T12:20:53Z</time>
      </trkpt>
      <trkpt lat="45.18286" lon="4.29876">
        <ele>915.2</ele>
        <time>2026-04-24T12:20:58Z</time>
      </trkpt>
      <trkpt lat="45.1829" lon="4.29886">
        <ele>916.2</ele>
        <time>2026-04-24T12:21:03Z</time>
      </trkpt>
      <trkpt lat="45.18293" lon="4.29897">
        <ele>917.2</ele>
        <time>2026-04-24T12:21:08Z</time>
      </trkpt>
      <trkpt lat="45.18297" lon="4.29909">
        <ele>918.3</ele>
        <time>2026-04-24T12:21:13Z</time>
      </trkpt>
      <trkpt lat="45.183" lon="4.29919">
        <ele>919.2</ele>
        <time>2026-04-24T12:21:18Z</time>
      </trkpt>
      <trkpt lat="45.18302" lon="4.29924">
        <ele>919.6</ele>
        <time>2026-04-24T12:21:23Z</time>
      </trkpt>
      <trkpt lat="45.18302" lon="4.29924">
        <ele>919.6</ele>
        <time>2026-04-24T12:21:28Z</time>
      </trkpt>
      <trkpt lat="45.18302" lon="4.29924">
        <ele>919.6</ele>
        <time>2026-04-24T12:21:33Z</time>
      </trkpt>
      <trkpt lat="45.18302" lon="4.29924">
        <ele>919.6</ele>
        <time>2026-04-24T12:21:38Z</time>
      </trkpt>
      <trkpt lat="45.18302" lon="4.29924">
        <ele>919.6</ele>
        <time>2026-04-24T12:21:43Z</time>
      </trkpt>
      <trkpt lat="45.18308" lon="4.29933">
        <ele>920.5</ele>
        <time>2026-04-24T12:21:48Z</time>
      </trkpt>
      <trkpt lat="45.18315" lon="4.29941">
        <ele>921.3</ele>
        <time>2026-04-24T12:21:53Z</time>
      </trkpt>
      <trkpt lat="45.18322" lon="4.29949">
        <ele>922.1</ele>
        <time>2026-04-24T12:21:58Z</time>
      </trkpt>
      <trkpt lat="45.18327" lon="4.29957">
        <ele>922.7</ele>
        <time>2026-04-24T12:22:03Z</time>
      </trkpt>
      <trkpt lat="45.18332" lon="4.29961">
        <ele>923.1</ele>
        <time>2026-04-24T12:22:08Z</time>
      </trkpt>
      <trkpt lat="45.18336" lon="4.29968">
        <ele>923.2</ele>
        <time>2026-04-24T12:22:13Z</time>
      </trkpt>
      <trkpt lat="45.18342" lon="4.29975">
        <ele>922.8</ele>
        <time>2026-04-24T12:22:18Z</time>
      </trkpt>
      <trkpt lat="45.18349" lon="4.2998">
        <ele>922.3</ele>
        <time>2026-04-24T12:22:23Z</time>
      </trkpt>
      <trkpt lat="45.18355" lon="4.29985">
        <ele>921.8</ele>
        <time>2026-04-24T12:22:28Z</time>
      </trkpt>
      <trkpt lat="45.18363" lon="4.29989">
        <ele>921.2</ele>
        <time>2026-04-24T12:22:33Z</time>
      </trkpt>
      <trkpt lat="45.18371" lon="4.29994">
        <ele>920.6</ele>
        <time>2026-04-24T12:22:38Z</time>
      </trkpt>
      <trkpt lat="45.18378" lon="4.3">
        <ele>920.2</ele>
        <time>2026-04-24T12:22:43Z</time>
      </trkpt>
      <trkpt lat="45.18383" lon="4.30007">
        <ele>919</ele>
        <time>2026-04-24T12:22:48Z</time>
      </trkpt>
      <trkpt lat="45.18385" lon="4.30015">
        <ele>918</ele>
        <time>2026-04-24T12:22:53Z</time>
      </trkpt>
      <trkpt lat="45.18387" lon="4.30023">
        <ele>917.1</ele>
        <time>2026-04-24T12:22:58Z</time>
      </trkpt>
      <trkpt lat="45.1839" lon="4.30032">
        <ele>916.1</ele>
        <time>2026-04-24T12:23:03Z</time>
      </trkpt>
      <trkpt lat="45.18392" lon="4.3004">
        <ele>915.3</ele>
        <time>2026-04-24T12:23:08Z</time>
      </trkpt>
      <trkpt lat="45.18395" lon="4.30049">
        <ele>914.3</ele>
        <time>2026-04-24T12:23:13Z</time>
      </trkpt>
      <trkpt lat="45.18397" lon="4.30058">
        <ele>913.5</ele>
        <time>2026-04-24T12:23:18Z</time>
      </trkpt>
      <trkpt lat="45.18399" lon="4.30069">
        <ele>912.5</ele>
        <time>2026-04-24T12:23:23Z</time>
      </trkpt>
      <trkpt lat="45.184" lon="4.30079">
        <ele>911.7</ele>
        <time>2026-04-24T12:23:28Z</time>
      </trkpt>
      <trkpt lat="45.184" lon="4.30089">
        <ele>911</ele>
        <time>2026-04-24T12:23:33Z</time>
      </trkpt>
      <trkpt lat="45.18401" lon="4.30099">
        <ele>910.3</ele>
        <time>2026-04-24T12:23:38Z</time>
      </trkpt>
      <trkpt lat="45.18402" lon="4.30109">
        <ele>909.5</ele>
        <time>2026-04-24T12:23:43Z</time>
      </trkpt>
      <trkpt lat="45.18401" lon="4.30122">
        <ele>908.6</ele>
        <time>2026-04-24T12:23:48Z</time>
      </trkpt>
      <trkpt lat="45.18399" lon="4.30133">
        <ele>907.8</ele>
        <time>2026-04-24T12:23:53Z</time>
      </trkpt>
      <trkpt lat="45.18397" lon="4.30144">
        <ele>907</ele>
        <time>2026-04-24T12:23:58Z</time>
      </trkpt>
      <trkpt lat="45.18397" lon="4.30149">
        <ele>906.6</ele>
        <time>2026-04-24T12:24:03Z</time>
      </trkpt>
      <trkpt lat="45.18396" lon="4.30156">
        <ele>906.1</ele>
        <time>2026-04-24T12:24:08Z</time>
      </trkpt>
      <trkpt lat="45.18396" lon="4.30165">
        <ele>905.4</ele>
        <time>2026-04-24T12:24:13Z</time>
      </trkpt>
      <trkpt lat="45.18395" lon="4.30175">
        <ele>905.2</ele>
        <time>2026-04-24T12:24:18Z</time>
      </trkpt>
      <trkpt lat="45.18394" lon="4.30185">
        <ele>905.2</ele>
        <time>2026-04-24T12:24:23Z</time>
      </trkpt>
      <trkpt lat="45.18395" lon="4.30194">
        <ele>905.3</ele>
        <time>2026-04-24T12:24:28Z</time>
      </trkpt>
      <trkpt lat="45.18394" lon="4.30204">
        <ele>905.3</ele>
        <time>2026-04-24T12:24:33Z</time>
      </trkpt>
      <trkpt lat="45.18393" lon="4.30213">
        <ele>905.2</ele>
        <time>2026-04-24T12:24:38Z</time>
      </trkpt>
      <trkpt lat="45.18393" lon="4.30222">
        <ele>905.2</ele>
        <time>2026-04-24T12:24:43Z</time>
      </trkpt>
      <trkpt lat="45.18391" lon="4.30231">
        <ele>905.1</ele>
        <time>2026-04-24T12:24:48Z</time>
      </trkpt>
      <trkpt lat="45.1839" lon="4.30241">
        <ele>905.1</ele>
        <time>2026-04-24T12:24:53Z</time>
      </trkpt>
      <trkpt lat="45.18388" lon="4.3025">
        <ele>904.9</ele>
        <time>2026-04-24T12:24:58Z</time>
      </trkpt>
      <trkpt lat="45.18388" lon="4.30257">
        <ele>905.2</ele>
        <time>2026-04-24T12:25:03Z</time>
      </trkpt>
      <trkpt lat="45.18386" lon="4.30264">
        <ele>905.4</ele>
        <time>2026-04-24T12:25:08Z</time>
      </trkpt>
      <trkpt lat="45.18385" lon="4.30273">
        <ele>905.7</ele>
        <time>2026-04-24T12:25:13Z</time>
      </trkpt>
      <trkpt lat="45.18384" lon="4.30283">
        <ele>906.1</ele>
        <time>2026-04-24T12:25:18Z</time>
      </trkpt>
      <trkpt lat="45.18384" lon="4.3029">
        <ele>906.4</ele>
        <time>2026-04-24T12:25:23Z</time>
      </trkpt>
      <trkpt lat="45.18386" lon="4.30297">
        <ele>906.8</ele>
        <time>2026-04-24T12:25:28Z</time>
      </trkpt>
      <trkpt lat="45.18386" lon="4.30306">
        <ele>907.2</ele>
        <time>2026-04-24T12:25:33Z</time>
      </trkpt>
      <trkpt lat="45.18385" lon="4.30316">
        <ele>907.6</ele>
        <time>2026-04-24T12:25:38Z</time>
      </trkpt>
      <trkpt lat="45.18384" lon="4.30326">
        <ele>907.9</ele>
        <time>2026-04-24T12:25:43Z</time>
      </trkpt>
      <trkpt lat="45.18385" lon="4.30337">
        <ele>908.5</ele>
        <time>2026-04-24T12:25:48Z</time>
      </trkpt>
      <trkpt lat="45.18386" lon="4.30347">
        <ele>909</ele>
        <time>2026-04-24T12:25:53Z</time>
      </trkpt>
      <trkpt lat="45.18387" lon="4.30356">
        <ele>909.4</ele>
        <time>2026-04-24T12:25:58Z</time>
      </trkpt>
      <trkpt lat="45.18389" lon="4.30368">
        <ele>910.1</ele>
        <time>2026-04-24T12:26:03Z</time>
      </trkpt>
      <trkpt lat="45.18391" lon="4.30378">
        <ele>910.6</ele>
        <time>2026-04-24T12:26:08Z</time>
      </trkpt>
      <trkpt lat="45.18393" lon="4.30387">
        <ele>911</ele>
        <time>2026-04-24T12:26:13Z</time>
      </trkpt>
      <trkpt lat="45.18396" lon="4.30397">
        <ele>911.5</ele>
        <time>2026-04-24T12:26:18Z</time>
      </trkpt>
      <trkpt lat="45.18399" lon="4.30406">
        <ele>912</ele>
        <time>2026-04-24T12:26:23Z</time>
      </trkpt>
      <trkpt lat="45.18402" lon="4.30415">
        <ele>912.4</ele>
        <time>2026-04-24T12:26:28Z</time>
      </trkpt>
      <trkpt lat="45.18405" lon="4.30424">
        <ele>912.5</ele>
        <time>2026-04-24T12:26:33Z</time>
      </trkpt>
      <trkpt lat="45.18408" lon="4.30433">
        <ele>912.5</ele>
        <time>2026-04-24T12:26:38Z</time>
      </trkpt>
      <trkpt lat="45.18411" lon="4.30443">
        <ele>912.5</ele>
        <time>2026-04-24T12:26:43Z</time>
      </trkpt>
      <trkpt lat="45.18415" lon="4.30452">
        <ele>912.5</ele>
        <time>2026-04-24T12:26:48Z</time>
      </trkpt>
      <trkpt lat="45.18417" lon="4.30461">
        <ele>912.5</ele>
        <time>2026-04-24T12:26:53Z</time>
      </trkpt>
      <trkpt lat="45.18419" lon="4.30471">
        <ele>912.3</ele>
        <time>2026-04-24T12:26:58Z</time>
      </trkpt>
      <trkpt lat="45.18421" lon="4.3048">
        <ele>912.2</ele>
        <time>2026-04-24T12:27:03Z</time>
      </trkpt>
      <trkpt lat="45.18425" lon="4.3049">
        <ele>912.1</ele>
        <time>2026-04-24T12:27:08Z</time>
      </trkpt>
      <trkpt lat="45.18428" lon="4.30499">
        <ele>912</ele>
        <time>2026-04-24T12:27:13Z</time>
      </trkpt>
      <trkpt lat="45.1843" lon="4.30509">
        <ele>911.7</ele>
        <time>2026-04-24T12:27:18Z</time>
      </trkpt>
      <trkpt lat="45.18432" lon="4.3052">
        <ele>911.4</ele>
        <time>2026-04-24T12:27:23Z</time>
      </trkpt>
      <trkpt lat="45.18434" lon="4.30531">
        <ele>911.1</ele>
        <time>2026-04-24T12:27:28Z</time>
      </trkpt>
      <trkpt lat="45.18436" lon="4.3054">
        <ele>910.9</ele>
        <time>2026-04-24T12:27:33Z</time>
      </trkpt>
      <trkpt lat="45.18439" lon="4.3055">
        <ele>910.7</ele>
        <time>2026-04-24T12:27:38Z</time>
      </trkpt>
      <trkpt lat="45.18441" lon="4.30558">
        <ele>910.5</ele>
        <time>2026-04-24T12:27:43Z</time>
      </trkpt>
      <trkpt lat="45.18443" lon="4.30568">
        <ele>910.3</ele>
        <time>2026-04-24T12:27:48Z</time>
      </trkpt>
      <trkpt lat="45.18444" lon="4.30577">
        <ele>910.1</ele>
        <time>2026-04-24T12:27:53Z</time>
      </trkpt>
      <trkpt lat="45.18447" lon="4.30587">
        <ele>910.1</ele>
        <time>2026-04-24T12:27:58Z</time>
      </trkpt>
      <trkpt lat="45.1845" lon="4.30596">
        <ele>910.3</ele>
        <time>2026-04-24T12:28:03Z</time>
      </trkpt>
      <trkpt lat="45.18453" lon="4.30606">
        <ele>910.5</ele>
        <time>2026-04-24T12:28:08Z</time>
      </trkpt>
      <trkpt lat="45.18458" lon="4.30616">
        <ele>910.7</ele>
        <time>2026-04-24T12:28:13Z</time>
      </trkpt>
      <trkpt lat="45.18462" lon="4.30623">
        <ele>910.8</ele>
        <time>2026-04-24T12:28:18Z</time>
      </trkpt>
      <trkpt lat="45.18466" lon="4.3063">
        <ele>911</ele>
        <time>2026-04-24T12:28:23Z</time>
      </trkpt>
      <trkpt lat="45.18468" lon="4.30639">
        <ele>911.1</ele>
        <time>2026-04-24T12:28:28Z</time>
      </trkpt>
      <trkpt lat="45.18467" lon="4.30646">
        <ele>911.1</ele>
        <time>2026-04-24T12:28:33Z</time>
      </trkpt>
      <trkpt lat="45.18466" lon="4.30656">
        <ele>911.1</ele>
        <time>2026-04-24T12:28:38Z</time>
      </trkpt>
      <trkpt lat="45.18466" lon="4.30666">
        <ele>911.2</ele>
        <time>2026-04-24T12:28:43Z</time>
      </trkpt>
      <trkpt lat="45.18464" lon="4.30675">
        <ele>911.2</ele>
        <time>2026-04-24T12:28:48Z</time>
      </trkpt>
      <trkpt lat="45.18463" lon="4.30685">
        <ele>911.2</ele>
        <time>2026-04-24T12:28:53Z</time>
      </trkpt>
      <trkpt lat="45.18462" lon="4.30693">
        <ele>911.2</ele>
        <time>2026-04-24T12:28:58Z</time>
      </trkpt>
      <trkpt lat="45.18462" lon="4.30702">
        <ele>911.3</ele>
        <time>2026-04-24T12:29:03Z</time>
      </trkpt>
      <trkpt lat="45.1846" lon="4.3071">
        <ele>911.3</ele>
        <time>2026-04-24T12:29:08Z</time>
      </trkpt>
      <trkpt lat="45.18462" lon="4.30722">
        <ele>911.4</ele>
        <time>2026-04-24T12:29:13Z</time>
      </trkpt>
      <trkpt lat="45.18461" lon="4.30732">
        <ele>911.4</ele>
        <time>2026-04-24T12:29:18Z</time>
      </trkpt>
      <trkpt lat="45.1846" lon="4.30742">
        <ele>911.5</ele>
        <time>2026-04-24T12:29:23Z</time>
      </trkpt>
      <trkpt lat="45.18458" lon="4.30752">
        <ele>911.6</ele>
        <time>2026-04-24T12:29:28Z</time>
      </trkpt>
      <trkpt lat="45.18456" lon="4.30762">
        <ele>911.9</ele>
        <time>2026-04-24T12:29:33Z</time>
      </trkpt>
      <trkpt lat="45.18455" lon="4.3077">
        <ele>912.2</ele>
        <time>2026-04-24T12:29:38Z</time>
      </trkpt>
      <trkpt lat="45.18454" lon="4.30773">
        <ele>912.2</ele>
        <time>2026-04-24T12:29:43Z</time>
      </trkpt>
      <trkpt lat="45.18454" lon="4.30774">
        <ele>912.3</ele>
        <time>2026-04-24T12:29:48Z</time>
      </trkpt>
      <trkpt lat="45.18453" lon="4.30782">
        <ele>912.5</ele>
        <time>2026-04-24T12:29:53Z</time>
      </trkpt>
      <trkpt lat="45.18451" lon="4.30792">
        <ele>912.8</ele>
        <time>2026-04-24T12:29:58Z</time>
      </trkpt>
      <trkpt lat="45.18449" lon="4.30802">
        <ele>913.1</ele>
        <time>2026-04-24T12:30:03Z</time>
      </trkpt>
      <trkpt lat="45.18447" lon="4.30812">
        <ele>913.4</ele>
        <time>2026-04-24T12:30:08Z</time>
      </trkpt>
      <trkpt lat="45.18447" lon="4.30821">
        <ele>913.7</ele>
        <time>2026-04-24T12:30:13Z</time>
      </trkpt>
      <trkpt lat="45.18446" lon="4.30829">
        <ele>913.9</ele>
        <time>2026-04-24T12:30:18Z</time>
      </trkpt>
      <trkpt lat="45.18443" lon="4.30839">
        <ele>914.2</ele>
        <time>2026-04-24T12:30:23Z</time>
      </trkpt>
      <trkpt lat="45.18442" lon="4.30848">
        <ele>914.7</ele>
        <time>2026-04-24T12:30:28Z</time>
      </trkpt>
      <trkpt lat="45.18441" lon="4.30858">
        <ele>915.2</ele>
        <time>2026-04-24T12:30:33Z</time>
      </trkpt>
      <trkpt lat="45.18439" lon="4.30867">
        <ele>915.6</ele>
        <time>2026-04-24T12:30:38Z</time>
      </trkpt>
      <trkpt lat="45.18438" lon="4.30875">
        <ele>916</ele>
        <time>2026-04-24T12:30:43Z</time>
      </trkpt>
      <trkpt lat="45.18437" lon="4.30884">
        <ele>916.5</ele>
        <time>2026-04-24T12:30:48Z</time>
      </trkpt>
      <trkpt lat="45.18435" lon="4.30894">
        <ele>917</ele>
        <time>2026-04-24T12:30:53Z</time>
      </trkpt>
      <trkpt lat="45.18433" lon="4.30904">
        <ele>917.5</ele>
        <time>2026-04-24T12:30:58Z</time>
      </trkpt>
      <trkpt lat="45.18433" lon="4.30913">
        <ele>918</ele>
        <time>2026-04-24T12:31:03Z</time>
      </trkpt>
      <trkpt lat="45.18432" lon="4.3092">
        <ele>918.5</ele>
        <time>2026-04-24T12:31:08Z</time>
      </trkpt>
      <trkpt lat="45.1843" lon="4.30928">
        <ele>919.2</ele>
        <time>2026-04-24T12:31:13Z</time>
      </trkpt>
      <trkpt lat="45.1843" lon="4.30937">
        <ele>920.1</ele>
        <time>2026-04-24T12:31:18Z</time>
      </trkpt>
      <trkpt lat="45.1843" lon="4.30945">
        <ele>920.8</ele>
        <time>2026-04-24T12:31:23Z</time>
      </trkpt>
      <trkpt lat="45.18431" lon="4.30953">
        <ele>921.6</ele>
        <time>2026-04-24T12:31:28Z</time>
      </trkpt>
      <trkpt lat="45.18432" lon="4.3096">
        <ele>922.2</ele>
        <time>2026-04-24T12:31:33Z</time>
      </trkpt>
      <trkpt lat="45.18435" lon="4.30968">
        <ele>923</ele>
        <time>2026-04-24T12:31:38Z</time>
      </trkpt>
      <trkpt lat="45.18435" lon="4.3098">
        <ele>924.1</ele>
        <time>2026-04-24T12:31:43Z</time>
      </trkpt>
      <trkpt lat="45.18435" lon="4.3099">
        <ele>925.1</ele>
        <time>2026-04-24T12:31:48Z</time>
      </trkpt>
      <trkpt lat="45.18435" lon="4.30998">
        <ele>925.8</ele>
        <time>2026-04-24T12:31:53Z</time>
      </trkpt>
      <trkpt lat="45.18436" lon="4.31004">
        <ele>926.3</ele>
        <time>2026-04-24T12:31:58Z</time>
      </trkpt>
      <trkpt lat="45.18437" lon="4.31014">
        <ele>927.1</ele>
        <time>2026-04-24T12:32:03Z</time>
      </trkpt>
      <trkpt lat="45.18437" lon="4.31022">
        <ele>927.7</ele>
        <time>2026-04-24T12:32:08Z</time>
      </trkpt>
      <trkpt lat="45.18435" lon="4.31029">
        <ele>928.2</ele>
        <time>2026-04-24T12:32:13Z</time>
      </trkpt>
      <trkpt lat="45.18432" lon="4.31036">
        <ele>928.8</ele>
        <time>2026-04-24T12:32:18Z</time>
      </trkpt>
      <trkpt lat="45.18428" lon="4.31039">
        <ele>929.1</ele>
        <time>2026-04-24T12:32:23Z</time>
      </trkpt>
      <trkpt lat="45.18428" lon="4.31039">
        <ele>929.1</ele>
        <time>2026-04-24T12:32:28Z</time>
      </trkpt>
      <trkpt lat="45.18428" lon="4.31039">
        <ele>929.1</ele>
        <time>2026-04-24T12:32:33Z</time>
      </trkpt>
      <trkpt lat="45.18432" lon="4.31048">
        <ele>929.7</ele>
        <time>2026-04-24T12:32:38Z</time>
      </trkpt>
      <trkpt lat="45.18434" lon="4.31055">
        <ele>930.2</ele>
        <time>2026-04-24T12:32:43Z</time>
      </trkpt>
      <trkpt lat="45.18438" lon="4.31064">
        <ele>930.8</ele>
        <time>2026-04-24T12:32:48Z</time>
      </trkpt>
      <trkpt lat="45.1844" lon="4.31073">
        <ele>931.4</ele>
        <time>2026-04-24T12:32:53Z</time>
      </trkpt>
      <trkpt lat="45.1844" lon="4.3108">
        <ele>931.9</ele>
        <time>2026-04-24T12:32:58Z</time>
      </trkpt>
      <trkpt lat="45.18439" lon="4.31089">
        <ele>932</ele>
        <time>2026-04-24T12:33:03Z</time>
      </trkpt>
      <trkpt lat="45.18437" lon="4.31093">
        <ele>932</ele>
        <time>2026-04-24T12:33:08Z</time>
      </trkpt>
      <trkpt lat="45.18437" lon="4.31095">
        <ele>932</ele>
        <time>2026-04-24T12:33:13Z</time>
      </trkpt>
      <trkpt lat="45.18437" lon="4.31097">
        <ele>931.9</ele>
        <time>2026-04-24T12:33:18Z</time>
      </trkpt>
      <trkpt lat="45.18438" lon="4.31104">
        <ele>931.7</ele>
        <time>2026-04-24T12:33:23Z</time>
      </trkpt>
      <trkpt lat="45.18438" lon="4.31115">
        <ele>931.4</ele>
        <time>2026-04-24T12:33:28Z</time>
      </trkpt>
      <trkpt lat="45.18439" lon="4.31125">
        <ele>931.1</ele>
        <time>2026-04-24T12:33:33Z</time>
      </trkpt>
      <trkpt lat="45.1844" lon="4.31138">
        <ele>930.7</ele>
        <time>2026-04-24T12:33:38Z</time>
      </trkpt>
      <trkpt lat="45.18443" lon="4.31146">
        <ele>930.3</ele>
        <time>2026-04-24T12:33:43Z</time>
      </trkpt>
      <trkpt lat="45.18445" lon="4.31155">
        <ele>930</ele>
        <time>2026-04-24T12:33:48Z</time>
      </trkpt>
      <trkpt lat="45.18446" lon="4.31166">
        <ele>929.6</ele>
        <time>2026-04-24T12:33:53Z</time>
      </trkpt>
      <trkpt lat="45.18448" lon="4.31177">
        <ele>928.6</ele>
        <time>2026-04-24T12:33:58Z</time>
      </trkpt>
      <trkpt lat="45.18452" lon="4.31188">
        <ele>927.5</ele>
        <time>2026-04-24T12:34:03Z</time>
      </trkpt>
      <trkpt lat="45.18454" lon="4.31196">
        <ele>926.7</ele>
        <time>2026-04-24T12:34:08Z</time>
      </trkpt>
      <trkpt lat="45.18455" lon="4.31203">
        <ele>926.1</ele>
        <time>2026-04-24T12:34:13Z</time>
      </trkpt>
      <trkpt lat="45.18457" lon="4.3121">
        <ele>925.4</ele>
        <time>2026-04-24T12:34:18Z</time>
      </trkpt>
      <trkpt lat="45.18459" lon="4.31214">
        <ele>925</ele>
        <time>2026-04-24T12:34:23Z</time>
      </trkpt>
      <trkpt lat="45.18461" lon="4.31218">
        <ele>924.6</ele>
        <time>2026-04-24T12:34:28Z</time>
      </trkpt>
      <trkpt lat="45.18464" lon="4.31225">
        <ele>923.8</ele>
        <time>2026-04-24T12:34:33Z</time>
      </trkpt>
      <trkpt lat="45.18465" lon="4.31229">
        <ele>923.4</ele>
        <time>2026-04-24T12:34:38Z</time>
      </trkpt>
      <trkpt lat="45.18462" lon="4.31234">
        <ele>923.2</ele>
        <time>2026-04-24T12:34:43Z</time>
      </trkpt>
      <trkpt lat="45.18459" lon="4.3124">
        <ele>922.8</ele>
        <time>2026-04-24T12:34:48Z</time>
      </trkpt>
      <trkpt lat="45.1846" lon="4.31243">
        <ele>922.5</ele>
        <time>2026-04-24T12:34:53Z</time>
      </trkpt>
      <trkpt lat="45.18461" lon="4.31243">
        <ele>922.5</ele>
        <time>2026-04-24T12:34:58Z</time>
      </trkpt>
      <trkpt lat="45.18465" lon="4.31244">
        <ele>922.2</ele>
        <time>2026-04-24T12:35:03Z</time>
      </trkpt>
      <trkpt lat="45.18466" lon="4.31243">
        <ele>922.2</ele>
        <time>2026-04-24T12:35:08Z</time>
      </trkpt>
      <trkpt lat="45.18466" lon="4.31243">
        <ele>922.2</ele>
        <time>2026-04-24T12:35:08Z</time>
      </trkpt>
      <trkpt lat="45.18445" lon="4.31255">
        <ele>921.8</ele>
        <time>2026-04-24T12:37:44Z</time>
      </trkpt>
      <trkpt lat="45.18455" lon="4.31254">
        <ele>921.5</ele>
        <time>2026-04-24T12:37:45Z</time>
      </trkpt>
      <trkpt lat="45.18463" lon="4.31244">
        <ele>922.3</ele>
        <time>2026-04-24T12:37:50Z</time>
      </trkpt>
      <trkpt lat="45.1847" lon="4.31241">
        <ele>922.2</ele>
        <time>2026-04-24T12:37:55Z</time>
      </trkpt>
      <trkpt lat="45.1847" lon="4.31241">
        <ele>922.2</ele>
        <time>2026-04-24T12:38:00Z</time>
      </trkpt>
      <trkpt lat="45.18469" lon="4.31246">
        <ele>921.8</ele>
        <time>2026-04-24T12:38:05Z</time>
      </trkpt>
      <trkpt lat="45.18467" lon="4.3125">
        <ele>921.6</ele>
        <time>2026-04-24T12:38:10Z</time>
      </trkpt>
      <trkpt lat="45.18466" lon="4.31257">
        <ele>920.6</ele>
        <time>2026-04-24T12:38:15Z</time>
      </trkpt>
      <trkpt lat="45.18469" lon="4.31261">
        <ele>920</ele>
        <time>2026-04-24T12:38:20Z</time>
      </trkpt>
      <trkpt lat="45.18471" lon="4.31269">
        <ele>918.8</ele>
        <time>2026-04-24T12:38:25Z</time>
      </trkpt>
      <trkpt lat="45.18468" lon="4.31271">
        <ele>918.6</ele>
        <time>2026-04-24T12:38:30Z</time>
      </trkpt>
      <trkpt lat="45.1847" lon="4.31269">
        <ele>918.8</ele>
        <time>2026-04-24T12:38:35Z</time>
      </trkpt>
      <trkpt lat="45.18475" lon="4.31276">
        <ele>917.7</ele>
        <time>2026-04-24T12:38:40Z</time>
      </trkpt>
      <trkpt lat="45.18476" lon="4.31282">
        <ele>916.9</ele>
        <time>2026-04-24T12:38:45Z</time>
      </trkpt>
      <trkpt lat="45.18477" lon="4.3129">
        <ele>915.9</ele>
        <time>2026-04-24T12:38:50Z</time>
      </trkpt>
      <trkpt lat="45.18479" lon="4.31296">
        <ele>915.1</ele>
        <time>2026-04-24T12:38:55Z</time>
      </trkpt>
      <trkpt lat="45.18479" lon="4.31304">
        <ele>914</ele>
        <time>2026-04-24T12:39:00Z</time>
      </trkpt>
      <trkpt lat="45.18481" lon="4.31312">
        <ele>913</ele>
        <time>2026-04-24T12:39:05Z</time>
      </trkpt>
      <trkpt lat="45.18483" lon="4.3132">
        <ele>912.1</ele>
        <time>2026-04-24T12:39:10Z</time>
      </trkpt>
      <trkpt lat="45.18485" lon="4.31325">
        <ele>911.5</ele>
        <time>2026-04-24T12:39:15Z</time>
      </trkpt>
      <trkpt lat="45.18484" lon="4.3133">
        <ele>910.8</ele>
        <time>2026-04-24T12:39:20Z</time>
      </trkpt>
      <trkpt lat="45.18482" lon="4.31334">
        <ele>910.4</ele>
        <time>2026-04-24T12:39:25Z</time>
      </trkpt>
      <trkpt lat="45.18487" lon="4.31343">
        <ele>910.6</ele>
        <time>2026-04-24T12:39:30Z</time>
      </trkpt>
      <trkpt lat="45.18491" lon="4.31352">
        <ele>910.7</ele>
        <time>2026-04-24T12:39:35Z</time>
      </trkpt>
      <trkpt lat="45.18495" lon="4.3136">
        <ele>910.9</ele>
        <time>2026-04-24T12:39:40Z</time>
      </trkpt>
      <trkpt lat="45.185" lon="4.31367">
        <ele>911</ele>
        <time>2026-04-24T12:39:45Z</time>
      </trkpt>
      <trkpt lat="45.18504" lon="4.31372">
        <ele>911.2</ele>
        <time>2026-04-24T12:39:50Z</time>
      </trkpt>
      <trkpt lat="45.18504" lon="4.31383">
        <ele>911.2</ele>
        <time>2026-04-24T12:39:55Z</time>
      </trkpt>
      <trkpt lat="45.18509" lon="4.31392">
        <ele>911.5</ele>
        <time>2026-04-24T12:40:00Z</time>
      </trkpt>
      <trkpt lat="45.18513" lon="4.31396">
        <ele>911.8</ele>
        <time>2026-04-24T12:40:05Z</time>
      </trkpt>
      <trkpt lat="45.18518" lon="4.31404">
        <ele>912.1</ele>
        <time>2026-04-24T12:40:10Z</time>
      </trkpt>
      <trkpt lat="45.18525" lon="4.31423">
        <ele>912.8</ele>
        <time>2026-04-24T12:40:15Z</time>
      </trkpt>
      <trkpt lat="45.18525" lon="4.31427">
        <ele>913</ele>
        <time>2026-04-24T12:40:20Z</time>
      </trkpt>
      <trkpt lat="45.18527" lon="4.31429">
        <ele>913.2</ele>
        <time>2026-04-24T12:40:25Z</time>
      </trkpt>
      <trkpt lat="45.18525" lon="4.31432">
        <ele>913.2</ele>
        <time>2026-04-24T12:40:30Z</time>
      </trkpt>
      <trkpt lat="45.18525" lon="4.31432">
        <ele>913.2</ele>
        <time>2026-04-24T12:40:35Z</time>
      </trkpt>
      <trkpt lat="45.18525" lon="4.31432">
        <ele>913.2</ele>
        <time>2026-04-24T12:40:40Z</time>
      </trkpt>
      <trkpt lat="45.18517" lon="4.3143">
        <ele>912.7</ele>
        <time>2026-04-24T12:40:45Z</time>
      </trkpt>
      <trkpt lat="45.18513" lon="4.3143">
        <ele>912.5</ele>
        <time>2026-04-24T12:40:50Z</time>
      </trkpt>
      <trkpt lat="45.1851" lon="4.31434">
        <ele>912.5</ele>
        <time>2026-04-24T12:40:55Z</time>
      </trkpt>
      <trkpt lat="45.18509" lon="4.31437">
        <ele>912.7</ele>
        <time>2026-04-24T12:41:00Z</time>
      </trkpt>
      <trkpt lat="45.18508" lon="4.31442">
        <ele>912.9</ele>
        <time>2026-04-24T12:41:05Z</time>
      </trkpt>
      <trkpt lat="45.18507" lon="4.31444">
        <ele>912.9</ele>
        <time>2026-04-24T12:41:10Z</time>
      </trkpt>
      <trkpt lat="45.18507" lon="4.31444">
        <ele>912.9</ele>
        <time>2026-04-24T12:41:10Z</time>
      </trkpt>
      <trkpt lat="45.18507" lon="4.31451">
        <ele>913.3</ele>
        <time>2026-04-24T12:41:47Z</time>
      </trkpt>
      <trkpt lat="45.18508" lon="4.31448">
        <ele>913.2</ele>
        <time>2026-04-24T12:41:52Z</time>
      </trkpt>
      <trkpt lat="45.18508" lon="4.31445">
        <ele>913</ele>
        <time>2026-04-24T12:41:57Z</time>
      </trkpt>
      <trkpt lat="45.18508" lon="4.31442">
        <ele>912.9</ele>
        <time>2026-04-24T12:42:02Z</time>
      </trkpt>
      <trkpt lat="45.18512" lon="4.31438">
        <ele>912.9</ele>
        <time>2026-04-24T12:42:07Z</time>
      </trkpt>
      <trkpt lat="45.18519" lon="4.31435">
        <ele>913</ele>
        <time>2026-04-24T12:42:12Z</time>
      </trkpt>
      <trkpt lat="45.18523" lon="4.31434">
        <ele>913.2</ele>
        <time>2026-04-24T12:42:17Z</time>
      </trkpt>
      <trkpt lat="45.1853" lon="4.3144">
        <ele>913.8</ele>
        <time>2026-04-24T12:42:22Z</time>
      </trkpt>
      <trkpt lat="45.18534" lon="4.31442">
        <ele>914.1</ele>
        <time>2026-04-24T12:42:27Z</time>
      </trkpt>
      <trkpt lat="45.18536" lon="4.31438">
        <ele>914</ele>
        <time>2026-04-24T12:42:32Z</time>
      </trkpt>
      <trkpt lat="45.18536" lon="4.31438">
        <ele>914</ele>
        <time>2026-04-24T12:42:37Z</time>
      </trkpt>
      <trkpt lat="45.18536" lon="4.31438">
        <ele>914</ele>
        <time>2026-04-24T12:42:42Z</time>
      </trkpt>
      <trkpt lat="45.18536" lon="4.31444">
        <ele>914.2</ele>
        <time>2026-04-24T12:42:47Z</time>
      </trkpt>
      <trkpt lat="45.18535" lon="4.31445">
        <ele>914.2</ele>
        <time>2026-04-24T12:42:52Z</time>
      </trkpt>
      <trkpt lat="45.18531" lon="4.31442">
        <ele>913.9</ele>
        <time>2026-04-24T12:42:57Z</time>
      </trkpt>
      <trkpt lat="45.18529" lon="4.31434">
        <ele>913.5</ele>
        <time>2026-04-24T12:43:02Z</time>
      </trkpt>
      <trkpt lat="45.18529" lon="4.31434">
        <ele>913.5</ele>
        <time>2026-04-24T12:43:02Z</time>
      </trkpt>
      <trkpt lat="45.18527" lon="4.31436">
        <ele>913.5</ele>
        <time>2026-04-24T12:46:48Z</time>
      </trkpt>
      <trkpt lat="45.18527" lon="4.31436">
        <ele>913.5</ele>
        <time>2026-04-24T12:46:53Z</time>
      </trkpt>
      <trkpt lat="45.18527" lon="4.31436">
        <ele>913.5</ele>
        <time>2026-04-24T12:46:58Z</time>
      </trkpt>
      <trkpt lat="45.18527" lon="4.31436">
        <ele>913.5</ele>
        <time>2026-04-24T12:47:03Z</time>
      </trkpt>
      <trkpt lat="45.18521" lon="4.31436">
        <ele>913.2</ele>
        <time>2026-04-24T12:47:08Z</time>
      </trkpt>
      <trkpt lat="45.18521" lon="4.31438">
        <ele>913.3</ele>
        <time>2026-04-24T12:47:13Z</time>
      </trkpt>
      <trkpt lat="45.18521" lon="4.31438">
        <ele>913.3</ele>
        <time>2026-04-24T12:47:18Z</time>
      </trkpt>
      <trkpt lat="45.18521" lon="4.31438">
        <ele>913.3</ele>
        <time>2026-04-24T12:47:23Z</time>
      </trkpt>
      <trkpt lat="45.18521" lon="4.31438">
        <ele>913.3</ele>
        <time>2026-04-24T12:47:28Z</time>
      </trkpt>
      <trkpt lat="45.18521" lon="4.31438">
        <ele>913.3</ele>
        <time>2026-04-24T12:47:33Z</time>
      </trkpt>
      <trkpt lat="45.18521" lon="4.31438">
        <ele>913.3</ele>
        <time>2026-04-24T12:47:38Z</time>
      </trkpt>
      <trkpt lat="45.18521" lon="4.31438">
        <ele>913.3</ele>
        <time>2026-04-24T12:47:43Z</time>
      </trkpt>
      <trkpt lat="45.18521" lon="4.31438">
        <ele>913.3</ele>
        <time>2026-04-24T12:47:48Z</time>
      </trkpt>
      <trkpt lat="45.18521" lon="4.31438">
        <ele>913.3</ele>
        <time>2026-04-24T12:47:53Z</time>
      </trkpt>
      <trkpt lat="45.18521" lon="4.31438">
        <ele>913.3</ele>
        <time>2026-04-24T12:47:58Z</time>
      </trkpt>
      <trkpt lat="45.18521" lon="4.31438">
        <ele>913.3</ele>
        <time>2026-04-24T12:48:03Z</time>
      </trkpt>
      <trkpt lat="45.18521" lon="4.31438">
        <ele>913.3</ele>
        <time>2026-04-24T12:48:08Z</time>
      </trkpt>
      <trkpt lat="45.18521" lon="4.31438">
        <ele>913.3</ele>
        <time>2026-04-24T12:48:13Z</time>
      </trkpt>
      <trkpt lat="45.18521" lon="4.31438">
        <ele>913.3</ele>
        <time>2026-04-24T12:48:18Z</time>
      </trkpt>
      <trkpt lat="45.18521" lon="4.31438">
        <ele>913.3</ele>
        <time>2026-04-24T12:48:23Z</time>
      </trkpt>
      <trkpt lat="45.18521" lon="4.31438">
        <ele>913.3</ele>
        <time>2026-04-24T12:48:28Z</time>
      </trkpt>
      <trkpt lat="45.18521" lon="4.31438">
        <ele>913.3</ele>
        <time>2026-04-24T12:48:33Z</time>
      </trkpt>
      <trkpt lat="45.18521" lon="4.31438">
        <ele>913.3</ele>
        <time>2026-04-24T12:48:38Z</time>
      </trkpt>
      <trkpt lat="45.18521" lon="4.31438">
        <ele>913.3</ele>
        <time>2026-04-24T12:48:43Z</time>
      </trkpt>
      <trkpt lat="45.18521" lon="4.31438">
        <ele>913.3</ele>
        <time>2026-04-24T12:48:48Z</time>
      </trkpt>
      <trkpt lat="45.18521" lon="4.31438">
        <ele>913.3</ele>
        <time>2026-04-24T12:48:53Z</time>
      </trkpt>
      <trkpt lat="45.18521" lon="4.31438">
        <ele>913.3</ele>
        <time>2026-04-24T12:48:58Z</time>
      </trkpt>
      <trkpt lat="45.18521" lon="4.31438">
        <ele>913.3</ele>
        <time>2026-04-24T12:49:03Z</time>
      </trkpt>
      <trkpt lat="45.18521" lon="4.31438">
        <ele>913.3</ele>
        <time>2026-04-24T12:49:08Z</time>
      </trkpt>
      <trkpt lat="45.18521" lon="4.31438">
        <ele>913.3</ele>
        <time>2026-04-24T12:49:13Z</time>
      </trkpt>
      <trkpt lat="45.18521" lon="4.31438">
        <ele>913.3</ele>
        <time>2026-04-24T12:49:18Z</time>
      </trkpt>
      <trkpt lat="45.18521" lon="4.31438">
        <ele>913.3</ele>
        <time>2026-04-24T12:49:23Z</time>
      </trkpt>
      <trkpt lat="45.18521" lon="4.31438">
        <ele>913.3</ele>
        <time>2026-04-24T12:49:28Z</time>
      </trkpt>
      <trkpt lat="45.18521" lon="4.31438">
        <ele>913.3</ele>
        <time>2026-04-24T12:49:33Z</time>
      </trkpt>
      <trkpt lat="45.18521" lon="4.31438">
        <ele>913.3</ele>
        <time>2026-04-24T12:49:38Z</time>
      </trkpt>
      <trkpt lat="45.18521" lon="4.31438">
        <ele>913.3</ele>
        <time>2026-04-24T12:49:43Z</time>
      </trkpt>
      <trkpt lat="45.18521" lon="4.31438">
        <ele>913.3</ele>
        <time>2026-04-24T12:49:48Z</time>
      </trkpt>
      <trkpt lat="45.18532" lon="4.31442">
        <ele>914</ele>
        <time>2026-04-24T12:49:53Z</time>
      </trkpt>
      <trkpt lat="45.18539" lon="4.31446">
        <ele>914.4</ele>
        <time>2026-04-24T12:49:58Z</time>
      </trkpt>
      <trkpt lat="45.18544" lon="4.31449">
        <ele>914.8</ele>
        <time>2026-04-24T12:50:03Z</time>
      </trkpt>
      <trkpt lat="45.18548" lon="4.31453">
        <ele>915.1</ele>
        <time>2026-04-24T12:50:08Z</time>
      </trkpt>
      <trkpt lat="45.18548" lon="4.31459">
        <ele>915.2</ele>
        <time>2026-04-24T12:50:13Z</time>
      </trkpt>
      <trkpt lat="45.18551" lon="4.31466">
        <ele>915.6</ele>
        <time>2026-04-24T12:50:18Z</time>
      </trkpt>
      <trkpt lat="45.18555" lon="4.31472">
        <ele>915.9</ele>
        <time>2026-04-24T12:50:23Z</time>
      </trkpt>
      <trkpt lat="45.18557" lon="4.31475">
        <ele>916</ele>
        <time>2026-04-24T12:50:28Z</time>
      </trkpt>
      <trkpt lat="45.18557" lon="4.31475">
        <ele>916</ele>
        <time>2026-04-24T12:50:33Z</time>
      </trkpt>
      <trkpt lat="45.18557" lon="4.31475">
        <ele>916</ele>
        <time>2026-04-24T12:50:38Z</time>
      </trkpt>
      <trkpt lat="45.18557" lon="4.31475">
        <ele>916</ele>
        <time>2026-04-24T12:50:43Z</time>
      </trkpt>
      <trkpt lat="45.18557" lon="4.31475">
        <ele>916</ele>
        <time>2026-04-24T12:50:48Z</time>
      </trkpt>
      <trkpt lat="45.18557" lon="4.31475">
        <ele>916</ele>
        <time>2026-04-24T12:50:53Z</time>
      </trkpt>
      <trkpt lat="45.18557" lon="4.31475">
        <ele>916</ele>
        <time>2026-04-24T12:50:58Z</time>
      </trkpt>
      <trkpt lat="45.18557" lon="4.31475">
        <ele>916</ele>
        <time>2026-04-24T12:51:03Z</time>
      </trkpt>
      <trkpt lat="45.18557" lon="4.31475">
        <ele>916</ele>
        <time>2026-04-24T12:51:08Z</time>
      </trkpt>
      <trkpt lat="45.18557" lon="4.31475">
        <ele>916</ele>
        <time>2026-04-24T12:51:13Z</time>
      </trkpt>
      <trkpt lat="45.18557" lon="4.31475">
        <ele>916</ele>
        <time>2026-04-24T12:51:18Z</time>
      </trkpt>
      <trkpt lat="45.18557" lon="4.31475">
        <ele>916</ele>
        <time>2026-04-24T12:51:23Z</time>
      </trkpt>
      <trkpt lat="45.18557" lon="4.31475">
        <ele>916</ele>
        <time>2026-04-24T12:51:28Z</time>
      </trkpt>
      <trkpt lat="45.18557" lon="4.31475">
        <ele>916</ele>
        <time>2026-04-24T12:51:33Z</time>
      </trkpt>
      <trkpt lat="45.18557" lon="4.31475">
        <ele>916</ele>
        <time>2026-04-24T12:51:38Z</time>
      </trkpt>
      <trkpt lat="45.18557" lon="4.31475">
        <ele>916</ele>
        <time>2026-04-24T12:51:43Z</time>
      </trkpt>
      <trkpt lat="45.18557" lon="4.31475">
        <ele>916</ele>
        <time>2026-04-24T12:51:48Z</time>
      </trkpt>
      <trkpt lat="45.18557" lon="4.31475">
        <ele>916</ele>
        <time>2026-04-24T12:51:53Z</time>
      </trkpt>
      <trkpt lat="45.18557" lon="4.31475">
        <ele>916</ele>
        <time>2026-04-24T12:51:58Z</time>
      </trkpt>
      <trkpt lat="45.18557" lon="4.31475">
        <ele>916</ele>
        <time>2026-04-24T12:52:03Z</time>
      </trkpt>
      <trkpt lat="45.18557" lon="4.31475">
        <ele>916</ele>
        <time>2026-04-24T12:52:08Z</time>
      </trkpt>
      <trkpt lat="45.18557" lon="4.31475">
        <ele>916</ele>
        <time>2026-04-24T12:52:13Z</time>
      </trkpt>
      <trkpt lat="45.18557" lon="4.31475">
        <ele>916</ele>
        <time>2026-04-24T12:52:18Z</time>
      </trkpt>
      <trkpt lat="45.18557" lon="4.31475">
        <ele>916</ele>
        <time>2026-04-24T12:52:23Z</time>
      </trkpt>
      <trkpt lat="45.18557" lon="4.31475">
        <ele>916</ele>
        <time>2026-04-24T12:52:28Z</time>
      </trkpt>
      <trkpt lat="45.18557" lon="4.31475">
        <ele>916</ele>
        <time>2026-04-24T12:52:33Z</time>
      </trkpt>
      <trkpt lat="45.18557" lon="4.31475">
        <ele>916</ele>
        <time>2026-04-24T12:52:38Z</time>
      </trkpt>
      <trkpt lat="45.18557" lon="4.31475">
        <ele>916</ele>
        <time>2026-04-24T12:52:43Z</time>
      </trkpt>
      <trkpt lat="45.18557" lon="4.31475">
        <ele>916</ele>
        <time>2026-04-24T12:52:48Z</time>
      </trkpt>
      <trkpt lat="45.18557" lon="4.31475">
        <ele>916</ele>
        <time>2026-04-24T12:52:53Z</time>
      </trkpt>
      <trkpt lat="45.18557" lon="4.31475">
        <ele>916</ele>
        <time>2026-04-24T12:52:58Z</time>
      </trkpt>
      <trkpt lat="45.18557" lon="4.31475">
        <ele>916</ele>
        <time>2026-04-24T12:53:03Z</time>
      </trkpt>
      <trkpt lat="45.18557" lon="4.31475">
        <ele>916</ele>
        <time>2026-04-24T12:53:08Z</time>
      </trkpt>
      <trkpt lat="45.18557" lon="4.31475">
        <ele>916</ele>
        <time>2026-04-24T12:53:13Z</time>
      </trkpt>
      <trkpt lat="45.18557" lon="4.31475">
        <ele>916</ele>
        <time>2026-04-24T12:53:18Z</time>
      </trkpt>
      <trkpt lat="45.18557" lon="4.31475">
        <ele>916</ele>
        <time>2026-04-24T12:53:23Z</time>
      </trkpt>
      <trkpt lat="45.18557" lon="4.31475">
        <ele>916</ele>
        <time>2026-04-24T12:53:28Z</time>
      </trkpt>
      <trkpt lat="45.18557" lon="4.31475">
        <ele>916</ele>
        <time>2026-04-24T12:53:33Z</time>
      </trkpt>
      <trkpt lat="45.18557" lon="4.31475">
        <ele>916</ele>
        <time>2026-04-24T12:53:38Z</time>
      </trkpt>
      <trkpt lat="45.18557" lon="4.31475">
        <ele>916</ele>
        <time>2026-04-24T12:53:43Z</time>
      </trkpt>
      <trkpt lat="45.18557" lon="4.31475">
        <ele>916</ele>
        <time>2026-04-24T12:53:48Z</time>
      </trkpt>
      <trkpt lat="45.18549" lon="4.31462">
        <ele>915.4</ele>
        <time>2026-04-24T12:53:53Z</time>
      </trkpt>
      <trkpt lat="45.18549" lon="4.31461">
        <ele>915.3</ele>
        <time>2026-04-24T12:53:58Z</time>
      </trkpt>
      <trkpt lat="45.18549" lon="4.31461">
        <ele>915.3</ele>
        <time>2026-04-24T12:54:03Z</time>
      </trkpt>
      <trkpt lat="45.18549" lon="4.31461">
        <ele>915.3</ele>
        <time>2026-04-24T12:54:08Z</time>
      </trkpt>
      <trkpt lat="45.18549" lon="4.31461">
        <ele>915.3</ele>
        <time>2026-04-24T12:54:13Z</time>
      </trkpt>
      <trkpt lat="45.18549" lon="4.31461">
        <ele>915.3</ele>
        <time>2026-04-24T12:54:18Z</time>
      </trkpt>
      <trkpt lat="45.18549" lon="4.31461">
        <ele>915.3</ele>
        <time>2026-04-24T12:54:23Z</time>
      </trkpt>
      <trkpt lat="45.18549" lon="4.31461">
        <ele>915.3</ele>
        <time>2026-04-24T12:54:28Z</time>
      </trkpt>
      <trkpt lat="45.18549" lon="4.31461">
        <ele>915.3</ele>
        <time>2026-04-24T12:54:33Z</time>
      </trkpt>
      <trkpt lat="45.18549" lon="4.31461">
        <ele>915.3</ele>
        <time>2026-04-24T12:54:38Z</time>
      </trkpt>
      <trkpt lat="45.18549" lon="4.31461">
        <ele>915.3</ele>
        <time>2026-04-24T12:54:43Z</time>
      </trkpt>
      <trkpt lat="45.18549" lon="4.31461">
        <ele>915.3</ele>
        <time>2026-04-24T12:54:48Z</time>
      </trkpt>
      <trkpt lat="45.18549" lon="4.31461">
        <ele>915.3</ele>
        <time>2026-04-24T12:54:53Z</time>
      </trkpt>
      <trkpt lat="45.18549" lon="4.31461">
        <ele>915.3</ele>
        <time>2026-04-24T12:54:58Z</time>
      </trkpt>
      <trkpt lat="45.18549" lon="4.31461">
        <ele>915.3</ele>
        <time>2026-04-24T12:55:03Z</time>
      </trkpt>
      <trkpt lat="45.18549" lon="4.31461">
        <ele>915.3</ele>
        <time>2026-04-24T12:55:08Z</time>
      </trkpt>
      <trkpt lat="45.18549" lon="4.31461">
        <ele>915.3</ele>
        <time>2026-04-24T12:55:13Z</time>
      </trkpt>
      <trkpt lat="45.18549" lon="4.31461">
        <ele>915.3</ele>
        <time>2026-04-24T12:55:18Z</time>
      </trkpt>
      <trkpt lat="45.18549" lon="4.31461">
        <ele>915.3</ele>
        <time>2026-04-24T12:55:23Z</time>
      </trkpt>
      <trkpt lat="45.18549" lon="4.31461">
        <ele>915.3</ele>
        <time>2026-04-24T12:55:28Z</time>
      </trkpt>
      <trkpt lat="45.18549" lon="4.31461">
        <ele>915.3</ele>
        <time>2026-04-24T12:55:33Z</time>
      </trkpt>
      <trkpt lat="45.18549" lon="4.31461">
        <ele>915.3</ele>
        <time>2026-04-24T12:55:38Z</time>
      </trkpt>
      <trkpt lat="45.18549" lon="4.31461">
        <ele>915.3</ele>
        <time>2026-04-24T12:55:43Z</time>
      </trkpt>
      <trkpt lat="45.18549" lon="4.31461">
        <ele>915.3</ele>
        <time>2026-04-24T12:55:48Z</time>
      </trkpt>
      <trkpt lat="45.18549" lon="4.31461">
        <ele>915.3</ele>
        <time>2026-04-24T12:55:53Z</time>
      </trkpt>
      <trkpt lat="45.18539" lon="4.31458">
        <ele>914.9</ele>
        <time>2026-04-24T12:55:58Z</time>
      </trkpt>
      <trkpt lat="45.18537" lon="4.31458">
        <ele>914.8</ele>
        <time>2026-04-24T12:56:03Z</time>
      </trkpt>
      <trkpt lat="45.18537" lon="4.31458">
        <ele>914.8</ele>
        <time>2026-04-24T12:56:08Z</time>
      </trkpt>
      <trkpt lat="45.18537" lon="4.31458">
        <ele>914.8</ele>
        <time>2026-04-24T12:56:13Z</time>
      </trkpt>
      <trkpt lat="45.18537" lon="4.31458">
        <ele>914.8</ele>
        <time>2026-04-24T12:56:18Z</time>
      </trkpt>
      <trkpt lat="45.18537" lon="4.31458">
        <ele>914.8</ele>
        <time>2026-04-24T12:56:23Z</time>
      </trkpt>
      <trkpt lat="45.18547" lon="4.3148">
        <ele>915.9</ele>
        <time>2026-04-24T12:56:28Z</time>
      </trkpt>
      <trkpt lat="45.18556" lon="4.31494">
        <ele>916.5</ele>
        <time>2026-04-24T12:56:33Z</time>
      </trkpt>
      <trkpt lat="45.18554" lon="4.31508">
        <ele>916.9</ele>
        <time>2026-04-24T12:56:38Z</time>
      </trkpt>
      <trkpt lat="45.18555" lon="4.3151">
        <ele>916.9</ele>
        <time>2026-04-24T12:56:43Z</time>
      </trkpt>
      <trkpt lat="45.18558" lon="4.31513">
        <ele>917</ele>
        <time>2026-04-24T12:56:48Z</time>
      </trkpt>
      <trkpt lat="45.1856" lon="4.3152">
        <ele>917.1</ele>
        <time>2026-04-24T12:56:53Z</time>
      </trkpt>
      <trkpt lat="45.18563" lon="4.31529">
        <ele>917.2</ele>
        <time>2026-04-24T12:56:58Z</time>
      </trkpt>
      <trkpt lat="45.18565" lon="4.31537">
        <ele>917.2</ele>
        <time>2026-04-24T12:57:03Z</time>
      </trkpt>
      <trkpt lat="45.18568" lon="4.31541">
        <ele>917.1</ele>
        <time>2026-04-24T12:57:08Z</time>
      </trkpt>
      <trkpt lat="45.18572" lon="4.31548">
        <ele>917</ele>
        <time>2026-04-24T12:57:13Z</time>
      </trkpt>
      <trkpt lat="45.18572" lon="4.31554">
        <ele>917</ele>
        <time>2026-04-24T12:57:18Z</time>
      </trkpt>
      <trkpt lat="45.18577" lon="4.31566">
        <ele>916.7</ele>
        <time>2026-04-24T12:57:23Z</time>
      </trkpt>
      <trkpt lat="45.1858" lon="4.3157">
        <ele>916.4</ele>
        <time>2026-04-24T12:57:28Z</time>
      </trkpt>
      <trkpt lat="45.18579" lon="4.31572">
        <ele>916.5</ele>
        <time>2026-04-24T12:57:33Z</time>
      </trkpt>
      <trkpt lat="45.1858" lon="4.31575">
        <ele>916.4</ele>
        <time>2026-04-24T12:57:38Z</time>
      </trkpt>
      <trkpt lat="45.18581" lon="4.31582">
        <ele>916.2</ele>
        <time>2026-04-24T12:57:43Z</time>
      </trkpt>
      <trkpt lat="45.18585" lon="4.31589">
        <ele>916.1</ele>
        <time>2026-04-24T12:57:48Z</time>
      </trkpt>
      <trkpt lat="45.18588" lon="4.31595">
        <ele>916.3</ele>
        <time>2026-04-24T12:57:53Z</time>
      </trkpt>
      <trkpt lat="45.1859" lon="4.31602">
        <ele>916.4</ele>
        <time>2026-04-24T12:57:58Z</time>
      </trkpt>
      <trkpt lat="45.18592" lon="4.3161">
        <ele>916.5</ele>
        <time>2026-04-24T12:58:03Z</time>
      </trkpt>
      <trkpt lat="45.18594" lon="4.31618">
        <ele>916.6</ele>
        <time>2026-04-24T12:58:08Z</time>
      </trkpt>
      <trkpt lat="45.18599" lon="4.31626">
        <ele>917</ele>
        <time>2026-04-24T12:58:13Z</time>
      </trkpt>
      <trkpt lat="45.18604" lon="4.31633">
        <ele>917.4</ele>
        <time>2026-04-24T12:58:18Z</time>
      </trkpt>
      <trkpt lat="45.18605" lon="4.31642">
        <ele>917.4</ele>
        <time>2026-04-24T12:58:23Z</time>
      </trkpt>
      <trkpt lat="45.18605" lon="4.31648">
        <ele>917.3</ele>
        <time>2026-04-24T12:58:28Z</time>
      </trkpt>
      <trkpt lat="45.18607" lon="4.31652">
        <ele>917.4</ele>
        <time>2026-04-24T12:58:33Z</time>
      </trkpt>
      <trkpt lat="45.18607" lon="4.31652">
        <ele>917.4</ele>
        <time>2026-04-24T12:58:38Z</time>
      </trkpt>
      <trkpt lat="45.18607" lon="4.31652">
        <ele>917.4</ele>
        <time>2026-04-24T12:58:43Z</time>
      </trkpt>
      <trkpt lat="45.18607" lon="4.31652">
        <ele>917.4</ele>
        <time>2026-04-24T12:58:48Z</time>
      </trkpt>
      <trkpt lat="45.18607" lon="4.31652">
        <ele>917.4</ele>
        <time>2026-04-24T12:58:53Z</time>
      </trkpt>
      <trkpt lat="45.18607" lon="4.31652">
        <ele>917.4</ele>
        <time>2026-04-24T12:58:58Z</time>
      </trkpt>
      <trkpt lat="45.18608" lon="4.31656">
        <ele>917.5</ele>
        <time>2026-04-24T12:59:03Z</time>
      </trkpt>
      <trkpt lat="45.18605" lon="4.31665">
        <ele>917.1</ele>
        <time>2026-04-24T12:59:08Z</time>
      </trkpt>
      <trkpt lat="45.18604" lon="4.31672">
        <ele>916.9</ele>
        <time>2026-04-24T12:59:13Z</time>
      </trkpt>
      <trkpt lat="45.18603" lon="4.31683">
        <ele>916.7</ele>
        <time>2026-04-24T12:59:18Z</time>
      </trkpt>
      <trkpt lat="45.18602" lon="4.31693">
        <ele>916.5</ele>
        <time>2026-04-24T12:59:23Z</time>
      </trkpt>
      <trkpt lat="45.18602" lon="4.317">
        <ele>916.4</ele>
        <time>2026-04-24T12:59:28Z</time>
      </trkpt>
      <trkpt lat="45.18606" lon="4.3171">
        <ele>916.7</ele>
        <time>2026-04-24T12:59:33Z</time>
      </trkpt>
      <trkpt lat="45.18606" lon="4.31719">
        <ele>916.5</ele>
        <time>2026-04-24T12:59:38Z</time>
      </trkpt>
      <trkpt lat="45.18603" lon="4.31728">
        <ele>916.2</ele>
        <time>2026-04-24T12:59:43Z</time>
      </trkpt>
      <trkpt lat="45.18602" lon="4.31738">
        <ele>915.9</ele>
        <time>2026-04-24T12:59:48Z</time>
      </trkpt>
      <trkpt lat="45.18603" lon="4.31747">
        <ele>915.9</ele>
        <time>2026-04-24T12:59:53Z</time>
      </trkpt>
      <trkpt lat="45.18605" lon="4.31752">
        <ele>916.1</ele>
        <time>2026-04-24T12:59:58Z</time>
      </trkpt>
      <trkpt lat="45.18601" lon="4.31756">
        <ele>915.7</ele>
        <time>2026-04-24T13:00:03Z</time>
      </trkpt>
      <trkpt lat="45.18596" lon="4.31763">
        <ele>915.2</ele>
        <time>2026-04-24T13:00:08Z</time>
      </trkpt>
      <trkpt lat="45.18591" lon="4.31771">
        <ele>914.7</ele>
        <time>2026-04-24T13:00:13Z</time>
      </trkpt>
      <trkpt lat="45.18587" lon="4.31777">
        <ele>914.4</ele>
        <time>2026-04-24T13:00:18Z</time>
      </trkpt>
      <trkpt lat="45.1858" lon="4.31783">
        <ele>914.3</ele>
        <time>2026-04-24T13:00:23Z</time>
      </trkpt>
      <trkpt lat="45.18572" lon="4.31789">
        <ele>914.9</ele>
        <time>2026-04-24T13:00:28Z</time>
      </trkpt>
      <trkpt lat="45.18566" lon="4.31794">
        <ele>915.2</ele>
        <time>2026-04-24T13:00:33Z</time>
      </trkpt>
      <trkpt lat="45.18558" lon="4.31799">
        <ele>915.6</ele>
        <time>2026-04-24T13:00:38Z</time>
      </trkpt>
      <trkpt lat="45.18552" lon="4.31806">
        <ele>915.6</ele>
        <time>2026-04-24T13:00:43Z</time>
      </trkpt>
      <trkpt lat="45.18547" lon="4.31811">
        <ele>915.6</ele>
        <time>2026-04-24T13:00:48Z</time>
      </trkpt>
      <trkpt lat="45.18541" lon="4.31818">
        <ele>915.4</ele>
        <time>2026-04-24T13:00:53Z</time>
      </trkpt>
      <trkpt lat="45.18537" lon="4.31824">
        <ele>915.2</ele>
        <time>2026-04-24T13:00:58Z</time>
      </trkpt>
      <trkpt lat="45.18532" lon="4.31829">
        <ele>914.9</ele>
        <time>2026-04-24T13:01:03Z</time>
      </trkpt>
      <trkpt lat="45.18526" lon="4.31835">
        <ele>914.6</ele>
        <time>2026-04-24T13:01:08Z</time>
      </trkpt>
      <trkpt lat="45.18522" lon="4.3184">
        <ele>914.6</ele>
        <time>2026-04-24T13:01:13Z</time>
      </trkpt>
      <trkpt lat="45.18517" lon="4.31843">
        <ele>914.5</ele>
        <time>2026-04-24T13:01:18Z</time>
      </trkpt>
      <trkpt lat="45.18509" lon="4.31848">
        <ele>914.4</ele>
        <time>2026-04-24T13:01:23Z</time>
      </trkpt>
      <trkpt lat="45.18502" lon="4.31855">
        <ele>914.2</ele>
        <time>2026-04-24T13:01:28Z</time>
      </trkpt>
      <trkpt lat="45.18498" lon="4.31861">
        <ele>914.2</ele>
        <time>2026-04-24T13:01:33Z</time>
      </trkpt>
      <trkpt lat="45.18492" lon="4.31867">
        <ele>914.4</ele>
        <time>2026-04-24T13:01:38Z</time>
      </trkpt>
      <trkpt lat="45.18487" lon="4.31873">
        <ele>914.5</ele>
        <time>2026-04-24T13:01:43Z</time>
      </trkpt>
      <trkpt lat="45.18482" lon="4.31876">
        <ele>914.7</ele>
        <time>2026-04-24T13:01:48Z</time>
      </trkpt>
      <trkpt lat="45.18477" lon="4.31883">
        <ele>914.8</ele>
        <time>2026-04-24T13:01:53Z</time>
      </trkpt>
      <trkpt lat="45.18471" lon="4.31887">
        <ele>915</ele>
        <time>2026-04-24T13:01:58Z</time>
      </trkpt>
      <trkpt lat="45.18463" lon="4.31889">
        <ele>915.4</ele>
        <time>2026-04-24T13:02:03Z</time>
      </trkpt>
      <trkpt lat="45.18457" lon="4.3189">
        <ele>915.7</ele>
        <time>2026-04-24T13:02:08Z</time>
      </trkpt>
      <trkpt lat="45.18456" lon="4.3189">
        <ele>915.7</ele>
        <time>2026-04-24T13:02:13Z</time>
      </trkpt>
      <trkpt lat="45.18455" lon="4.3189">
        <ele>915.8</ele>
        <time>2026-04-24T13:02:18Z</time>
      </trkpt>
      <trkpt lat="45.18452" lon="4.3189">
        <ele>916</ele>
        <time>2026-04-24T13:02:23Z</time>
      </trkpt>
      <trkpt lat="45.1845" lon="4.31883">
        <ele>916.6</ele>
        <time>2026-04-24T13:02:28Z</time>
      </trkpt>
      <trkpt lat="45.18448" lon="4.31875">
        <ele>917.2</ele>
        <time>2026-04-24T13:02:33Z</time>
      </trkpt>
      <trkpt lat="45.18447" lon="4.31869">
        <ele>917.7</ele>
        <time>2026-04-24T13:02:38Z</time>
      </trkpt>
      <trkpt lat="45.18447" lon="4.3187">
        <ele>917.6</ele>
        <time>2026-04-24T13:02:43Z</time>
      </trkpt>
      <trkpt lat="45.18447" lon="4.31873">
        <ele>917.4</ele>
        <time>2026-04-24T13:02:48Z</time>
      </trkpt>
      <trkpt lat="45.18447" lon="4.31873">
        <ele>917.4</ele>
        <time>2026-04-24T13:02:53Z</time>
      </trkpt>
      <trkpt lat="45.18447" lon="4.31873">
        <ele>917.4</ele>
        <time>2026-04-24T13:02:58Z</time>
      </trkpt>
      <trkpt lat="45.18447" lon="4.31873">
        <ele>917.4</ele>
        <time>2026-04-24T13:03:03Z</time>
      </trkpt>
      <trkpt lat="45.18447" lon="4.31873">
        <ele>917.4</ele>
        <time>2026-04-24T13:03:08Z</time>
      </trkpt>
      <trkpt lat="45.18447" lon="4.31873">
        <ele>917.4</ele>
        <time>2026-04-24T13:03:13Z</time>
      </trkpt>
      <trkpt lat="45.1845" lon="4.31883">
        <ele>916.6</ele>
        <time>2026-04-24T13:03:18Z</time>
      </trkpt>
      <trkpt lat="45.18455" lon="4.3189">
        <ele>915.8</ele>
        <time>2026-04-24T13:03:23Z</time>
      </trkpt>
      <trkpt lat="45.18455" lon="4.31891">
        <ele>915.7</ele>
        <time>2026-04-24T13:03:28Z</time>
      </trkpt>
      <trkpt lat="45.18453" lon="4.31892">
        <ele>915.8</ele>
        <time>2026-04-24T13:03:33Z</time>
      </trkpt>
      <trkpt lat="45.18453" lon="4.31892">
        <ele>915.8</ele>
        <time>2026-04-24T13:03:38Z</time>
      </trkpt>
      <trkpt lat="45.18453" lon="4.31892">
        <ele>915.8</ele>
        <time>2026-04-24T13:03:43Z</time>
      </trkpt>
      <trkpt lat="45.18453" lon="4.31892">
        <ele>915.8</ele>
        <time>2026-04-24T13:03:48Z</time>
      </trkpt>
      <trkpt lat="45.18453" lon="4.31892">
        <ele>915.8</ele>
        <time>2026-04-24T13:03:53Z</time>
      </trkpt>
      <trkpt lat="45.18453" lon="4.31892">
        <ele>915.8</ele>
        <time>2026-04-24T13:03:58Z</time>
      </trkpt>
      <trkpt lat="45.18453" lon="4.31892">
        <ele>915.8</ele>
        <time>2026-04-24T13:04:03Z</time>
      </trkpt>
      <trkpt lat="45.18453" lon="4.31892">
        <ele>915.8</ele>
        <time>2026-04-24T13:04:08Z</time>
      </trkpt>
      <trkpt lat="45.18453" lon="4.31892">
        <ele>915.8</ele>
        <time>2026-04-24T13:04:13Z</time>
      </trkpt>
      <trkpt lat="45.18453" lon="4.31892">
        <ele>915.8</ele>
        <time>2026-04-24T13:04:18Z</time>
      </trkpt>
      <trkpt lat="45.18453" lon="4.31892">
        <ele>915.8</ele>
        <time>2026-04-24T13:04:23Z</time>
      </trkpt>
      <trkpt lat="45.18453" lon="4.31892">
        <ele>915.8</ele>
        <time>2026-04-24T13:04:28Z</time>
      </trkpt>
      <trkpt lat="45.18453" lon="4.31892">
        <ele>915.8</ele>
        <time>2026-04-24T13:04:33Z</time>
      </trkpt>
      <trkpt lat="45.18443" lon="4.31889">
        <ele>916.6</ele>
        <time>2026-04-24T13:04:38Z</time>
      </trkpt>
      <trkpt lat="45.18437" lon="4.31885">
        <ele>917.3</ele>
        <time>2026-04-24T13:04:43Z</time>
      </trkpt>
      <trkpt lat="45.18431" lon="4.31877">
        <ele>918.3</ele>
        <time>2026-04-24T13:04:48Z</time>
      </trkpt>
      <trkpt lat="45.18425" lon="4.31871">
        <ele>919.2</ele>
        <time>2026-04-24T13:04:53Z</time>
      </trkpt>
      <trkpt lat="45.18421" lon="4.31864">
        <ele>920.1</ele>
        <time>2026-04-24T13:04:58Z</time>
      </trkpt>
      <trkpt lat="45.18417" lon="4.31856">
        <ele>921.1</ele>
        <time>2026-04-24T13:05:03Z</time>
      </trkpt>
      <trkpt lat="45.18411" lon="4.3185">
        <ele>921.9</ele>
        <time>2026-04-24T13:05:08Z</time>
      </trkpt>
      <trkpt lat="45.18401" lon="4.3184">
        <ele>923.2</ele>
        <time>2026-04-24T13:05:13Z</time>
      </trkpt>
      <trkpt lat="45.18395" lon="4.31841">
        <ele>923.4</ele>
        <time>2026-04-24T13:05:18Z</time>
      </trkpt>
      <trkpt lat="45.1839" lon="4.31847">
        <ele>923.2</ele>
        <time>2026-04-24T13:05:23Z</time>
      </trkpt>
      <trkpt lat="45.18384" lon="4.31859">
        <ele>922.7</ele>
        <time>2026-04-24T13:05:28Z</time>
      </trkpt>
      <trkpt lat="45.1838" lon="4.31865">
        <ele>922.4</ele>
        <time>2026-04-24T13:05:33Z</time>
      </trkpt>
      <trkpt lat="45.18375" lon="4.31871">
        <ele>922.3</ele>
        <time>2026-04-24T13:05:38Z</time>
      </trkpt>
      <trkpt lat="45.1837" lon="4.31878">
        <ele>922.1</ele>
        <time>2026-04-24T13:05:43Z</time>
      </trkpt>
      <trkpt lat="45.18366" lon="4.31884">
        <ele>921.9</ele>
        <time>2026-04-24T13:05:48Z</time>
      </trkpt>
      <trkpt lat="45.18359" lon="4.31892">
        <ele>921.8</ele>
        <time>2026-04-24T13:05:53Z</time>
      </trkpt>
      <trkpt lat="45.18354" lon="4.31896">
        <ele>921.9</ele>
        <time>2026-04-24T13:05:58Z</time>
      </trkpt>
      <trkpt lat="45.18349" lon="4.31903">
        <ele>921.8</ele>
        <time>2026-04-24T13:06:03Z</time>
      </trkpt>
      <trkpt lat="45.18344" lon="4.31909">
        <ele>921.7</ele>
        <time>2026-04-24T13:06:08Z</time>
      </trkpt>
      <trkpt lat="45.18337" lon="4.31915">
        <ele>921.8</ele>
        <time>2026-04-24T13:06:13Z</time>
      </trkpt>
      <trkpt lat="45.18332" lon="4.31919">
        <ele>921.8</ele>
        <time>2026-04-24T13:06:18Z</time>
      </trkpt>
      <trkpt lat="45.18326" lon="4.31922">
        <ele>921.6</ele>
        <time>2026-04-24T13:06:23Z</time>
      </trkpt>
      <trkpt lat="45.18321" lon="4.31926">
        <ele>921.3</ele>
        <time>2026-04-24T13:06:28Z</time>
      </trkpt>
      <trkpt lat="45.18315" lon="4.31929">
        <ele>921.1</ele>
        <time>2026-04-24T13:06:33Z</time>
      </trkpt>
      <trkpt lat="45.1831" lon="4.31936">
        <ele>920.7</ele>
        <time>2026-04-24T13:06:38Z</time>
      </trkpt>
      <trkpt lat="45.18306" lon="4.31943">
        <ele>920.2</ele>
        <time>2026-04-24T13:06:43Z</time>
      </trkpt>
      <trkpt lat="45.183" lon="4.3195">
        <ele>919.8</ele>
        <time>2026-04-24T13:06:48Z</time>
      </trkpt>
      <trkpt lat="45.18294" lon="4.31959">
        <ele>919.2</ele>
        <time>2026-04-24T13:06:53Z</time>
      </trkpt>
      <trkpt lat="45.1829" lon="4.31966">
        <ele>918.8</ele>
        <time>2026-04-24T13:06:58Z</time>
      </trkpt>
      <trkpt lat="45.18285" lon="4.31972">
        <ele>918.4</ele>
        <time>2026-04-24T13:07:03Z</time>
      </trkpt>
      <trkpt lat="45.1828" lon="4.31979">
        <ele>918</ele>
        <time>2026-04-24T13:07:08Z</time>
      </trkpt>
      <trkpt lat="45.18274" lon="4.31985">
        <ele>917.7</ele>
        <time>2026-04-24T13:07:13Z</time>
      </trkpt>
      <trkpt lat="45.18268" lon="4.31992">
        <ele>917.3</ele>
        <time>2026-04-24T13:07:18Z</time>
      </trkpt>
      <trkpt lat="45.18262" lon="4.31997">
        <ele>917</ele>
        <time>2026-04-24T13:07:23Z</time>
      </trkpt>
      <trkpt lat="45.18255" lon="4.32002">
        <ele>916.9</ele>
        <time>2026-04-24T13:07:28Z</time>
      </trkpt>
      <trkpt lat="45.1825" lon="4.32007">
        <ele>916.8</ele>
        <time>2026-04-24T13:07:33Z</time>
      </trkpt>
      <trkpt lat="45.18243" lon="4.32012">
        <ele>916.7</ele>
        <time>2026-04-24T13:07:38Z</time>
      </trkpt>
      <trkpt lat="45.18237" lon="4.32016">
        <ele>916.6</ele>
        <time>2026-04-24T13:07:43Z</time>
      </trkpt>
      <trkpt lat="45.1823" lon="4.3202">
        <ele>916.6</ele>
        <time>2026-04-24T13:07:48Z</time>
      </trkpt>
      <trkpt lat="45.18224" lon="4.32023">
        <ele>916.5</ele>
        <time>2026-04-24T13:07:53Z</time>
      </trkpt>
      <trkpt lat="45.18219" lon="4.32027">
        <ele>916.5</ele>
        <time>2026-04-24T13:07:58Z</time>
      </trkpt>
      <trkpt lat="45.18213" lon="4.32031">
        <ele>916.4</ele>
        <time>2026-04-24T13:08:03Z</time>
      </trkpt>
      <trkpt lat="45.18205" lon="4.32033">
        <ele>916.4</ele>
        <time>2026-04-24T13:08:08Z</time>
      </trkpt>
      <trkpt lat="45.18198" lon="4.32035">
        <ele>916.4</ele>
        <time>2026-04-24T13:08:13Z</time>
      </trkpt>
      <trkpt lat="45.18191" lon="4.32037">
        <ele>916.4</ele>
        <time>2026-04-24T13:08:18Z</time>
      </trkpt>
      <trkpt lat="45.18183" lon="4.32039">
        <ele>916.4</ele>
        <time>2026-04-24T13:08:23Z</time>
      </trkpt>
      <trkpt lat="45.18176" lon="4.32039">
        <ele>916.5</ele>
        <time>2026-04-24T13:08:28Z</time>
      </trkpt>
      <trkpt lat="45.18169" lon="4.32037">
        <ele>916.5</ele>
        <time>2026-04-24T13:08:33Z</time>
      </trkpt>
      <trkpt lat="45.18163" lon="4.32034">
        <ele>916.8</ele>
        <time>2026-04-24T13:08:38Z</time>
      </trkpt>
      <trkpt lat="45.18156" lon="4.32029">
        <ele>917.2</ele>
        <time>2026-04-24T13:08:43Z</time>
      </trkpt>
      <trkpt lat="45.18149" lon="4.32024">
        <ele>917.7</ele>
        <time>2026-04-24T13:08:48Z</time>
      </trkpt>
      <trkpt lat="45.18144" lon="4.32018">
        <ele>918.2</ele>
        <time>2026-04-24T13:08:53Z</time>
      </trkpt>
      <trkpt lat="45.18138" lon="4.3201">
        <ele>918.8</ele>
        <time>2026-04-24T13:08:58Z</time>
      </trkpt>
      <trkpt lat="45.18132" lon="4.32004">
        <ele>919.4</ele>
        <time>2026-04-24T13:09:03Z</time>
      </trkpt>
      <trkpt lat="45.18127" lon="4.31997">
        <ele>919.9</ele>
        <time>2026-04-24T13:09:08Z</time>
      </trkpt>
      <trkpt lat="45.18122" lon="4.3199">
        <ele>920.3</ele>
        <time>2026-04-24T13:09:13Z</time>
      </trkpt>
      <trkpt lat="45.18118" lon="4.31983">
        <ele>920.6</ele>
        <time>2026-04-24T13:09:18Z</time>
      </trkpt>
      <trkpt lat="45.18113" lon="4.31973">
        <ele>921</ele>
        <time>2026-04-24T13:09:23Z</time>
      </trkpt>
      <trkpt lat="45.1811" lon="4.31964">
        <ele>921.2</ele>
        <time>2026-04-24T13:09:28Z</time>
      </trkpt>
      <trkpt lat="45.18109" lon="4.3196">
        <ele>921.3</ele>
        <time>2026-04-24T13:09:33Z</time>
      </trkpt>
      <trkpt lat="45.18108" lon="4.3196">
        <ele>921.4</ele>
        <time>2026-04-24T13:09:38Z</time>
      </trkpt>
      <trkpt lat="45.18108" lon="4.3196">
        <ele>921.4</ele>
        <time>2026-04-24T13:09:43Z</time>
      </trkpt>
      <trkpt lat="45.18103" lon="4.31957">
        <ele>921.7</ele>
        <time>2026-04-24T13:09:48Z</time>
      </trkpt>
      <trkpt lat="45.18097" lon="4.3196">
        <ele>922.1</ele>
        <time>2026-04-24T13:09:53Z</time>
      </trkpt>
      <trkpt lat="45.18092" lon="4.3196">
        <ele>922.4</ele>
        <time>2026-04-24T13:09:58Z</time>
      </trkpt>
      <trkpt lat="45.18084" lon="4.31964">
        <ele>923</ele>
        <time>2026-04-24T13:10:03Z</time>
      </trkpt>
      <trkpt lat="45.18076" lon="4.31966">
        <ele>923.3</ele>
        <time>2026-04-24T13:10:08Z</time>
      </trkpt>
      <trkpt lat="45.18068" lon="4.31968">
        <ele>923.7</ele>
        <time>2026-04-24T13:10:13Z</time>
      </trkpt>
      <trkpt lat="45.18062" lon="4.31973">
        <ele>923.8</ele>
        <time>2026-04-24T13:10:18Z</time>
      </trkpt>
      <trkpt lat="45.18056" lon="4.31978">
        <ele>924</ele>
        <time>2026-04-24T13:10:23Z</time>
      </trkpt>
      <trkpt lat="45.1805" lon="4.31981">
        <ele>924.2</ele>
        <time>2026-04-24T13:10:28Z</time>
      </trkpt>
      <trkpt lat="45.18043" lon="4.31984">
        <ele>924.3</ele>
        <time>2026-04-24T13:10:33Z</time>
      </trkpt>
      <trkpt lat="45.18036" lon="4.31988">
        <ele>924.5</ele>
        <time>2026-04-24T13:10:38Z</time>
      </trkpt>
      <trkpt lat="45.1803" lon="4.31991">
        <ele>924.6</ele>
        <time>2026-04-24T13:10:43Z</time>
      </trkpt>
      <trkpt lat="45.18024" lon="4.31993">
        <ele>924.7</ele>
        <time>2026-04-24T13:10:48Z</time>
      </trkpt>
      <trkpt lat="45.18017" lon="4.31996">
        <ele>924.7</ele>
        <time>2026-04-24T13:10:53Z</time>
      </trkpt>
      <trkpt lat="45.18012" lon="4.31998">
        <ele>924.8</ele>
        <time>2026-04-24T13:10:58Z</time>
      </trkpt>
      <trkpt lat="45.18005" lon="4.32">
        <ele>924.9</ele>
        <time>2026-04-24T13:11:03Z</time>
      </trkpt>
      <trkpt lat="45.17999" lon="4.32002">
        <ele>925</ele>
        <time>2026-04-24T13:11:08Z</time>
      </trkpt>
      <trkpt lat="45.17993" lon="4.32003">
        <ele>925.4</ele>
        <time>2026-04-24T13:11:13Z</time>
      </trkpt>
      <trkpt lat="45.17986" lon="4.32005">
        <ele>925.8</ele>
        <time>2026-04-24T13:11:18Z</time>
      </trkpt>
      <trkpt lat="45.1798" lon="4.32007">
        <ele>926.1</ele>
        <time>2026-04-24T13:11:23Z</time>
      </trkpt>
      <trkpt lat="45.17973" lon="4.3201">
        <ele>926.5</ele>
        <time>2026-04-24T13:11:28Z</time>
      </trkpt>
      <trkpt lat="45.17966" lon="4.32013">
        <ele>926.8</ele>
        <time>2026-04-24T13:11:33Z</time>
      </trkpt>
      <trkpt lat="45.17959" lon="4.32016">
        <ele>927.2</ele>
        <time>2026-04-24T13:11:38Z</time>
      </trkpt>
      <trkpt lat="45.1795" lon="4.32021">
        <ele>927.6</ele>
        <time>2026-04-24T13:11:43Z</time>
      </trkpt>
      <trkpt lat="45.17942" lon="4.32025">
        <ele>928</ele>
        <time>2026-04-24T13:11:48Z</time>
      </trkpt>
      <trkpt lat="45.17938" lon="4.32029">
        <ele>928.1</ele>
        <time>2026-04-24T13:11:53Z</time>
      </trkpt>
      <trkpt lat="45.17934" lon="4.32032">
        <ele>928.2</ele>
        <time>2026-04-24T13:11:58Z</time>
      </trkpt>
      <trkpt lat="45.17932" lon="4.32035">
        <ele>928.2</ele>
        <time>2026-04-24T13:12:03Z</time>
      </trkpt>
      <trkpt lat="45.17931" lon="4.32034">
        <ele>928.3</ele>
        <time>2026-04-24T13:12:08Z</time>
      </trkpt>
      <trkpt lat="45.17928" lon="4.32036">
        <ele>928.5</ele>
        <time>2026-04-24T13:12:13Z</time>
      </trkpt>
      <trkpt lat="45.17921" lon="4.32042">
        <ele>928.7</ele>
        <time>2026-04-24T13:12:18Z</time>
      </trkpt>
      <trkpt lat="45.17919" lon="4.32043">
        <ele>928.8</ele>
        <time>2026-04-24T13:12:23Z</time>
      </trkpt>
      <trkpt lat="45.17919" lon="4.32044">
        <ele>928.7</ele>
        <time>2026-04-24T13:12:28Z</time>
      </trkpt>
      <trkpt lat="45.17913" lon="4.32048">
        <ele>929</ele>
        <time>2026-04-24T13:12:33Z</time>
      </trkpt>
      <trkpt lat="45.17907" lon="4.32053">
        <ele>929.2</ele>
        <time>2026-04-24T13:12:38Z</time>
      </trkpt>
      <trkpt lat="45.17901" lon="4.32058">
        <ele>929.4</ele>
        <time>2026-04-24T13:12:43Z</time>
      </trkpt>
      <trkpt lat="45.17894" lon="4.32062">
        <ele>929.7</ele>
        <time>2026-04-24T13:12:48Z</time>
      </trkpt>
      <trkpt lat="45.17887" lon="4.32065">
        <ele>930.1</ele>
        <time>2026-04-24T13:12:53Z</time>
      </trkpt>
      <trkpt lat="45.17881" lon="4.32068">
        <ele>930.4</ele>
        <time>2026-04-24T13:12:58Z</time>
      </trkpt>
      <trkpt lat="45.17875" lon="4.32072">
        <ele>930.6</ele>
        <time>2026-04-24T13:13:03Z</time>
      </trkpt>
      <trkpt lat="45.17868" lon="4.32075">
        <ele>931</ele>
        <time>2026-04-24T13:13:08Z</time>
      </trkpt>
      <trkpt lat="45.17863" lon="4.32079">
        <ele>931.1</ele>
        <time>2026-04-24T13:13:13Z</time>
      </trkpt>
      <trkpt lat="45.17857" lon="4.32082">
        <ele>931.4</ele>
        <time>2026-04-24T13:13:18Z</time>
      </trkpt>
      <trkpt lat="45.1785" lon="4.32087">
        <ele>931.6</ele>
        <time>2026-04-24T13:13:23Z</time>
      </trkpt>
      <trkpt lat="45.17843" lon="4.32091">
        <ele>931.9</ele>
        <time>2026-04-24T13:13:28Z</time>
      </trkpt>
      <trkpt lat="45.17837" lon="4.32096">
        <ele>932.1</ele>
        <time>2026-04-24T13:13:33Z</time>
      </trkpt>
      <trkpt lat="45.17831" lon="4.32099">
        <ele>932.2</ele>
        <time>2026-04-24T13:13:38Z</time>
      </trkpt>
      <trkpt lat="45.17825" lon="4.32102">
        <ele>932</ele>
        <time>2026-04-24T13:13:43Z</time>
      </trkpt>
      <trkpt lat="45.17819" lon="4.32107">
        <ele>931.8</ele>
        <time>2026-04-24T13:13:48Z</time>
      </trkpt>
      <trkpt lat="45.17813" lon="4.32112">
        <ele>931.5</ele>
        <time>2026-04-24T13:13:53Z</time>
      </trkpt>
      <trkpt lat="45.17808" lon="4.32118">
        <ele>931.3</ele>
        <time>2026-04-24T13:13:58Z</time>
      </trkpt>
      <trkpt lat="45.17801" lon="4.32125">
        <ele>931</ele>
        <time>2026-04-24T13:14:03Z</time>
      </trkpt>
      <trkpt lat="45.17795" lon="4.32131">
        <ele>930.8</ele>
        <time>2026-04-24T13:14:08Z</time>
      </trkpt>
      <trkpt lat="45.1779" lon="4.32137">
        <ele>930.6</ele>
        <time>2026-04-24T13:14:13Z</time>
      </trkpt>
      <trkpt lat="45.17783" lon="4.32143">
        <ele>930.4</ele>
        <time>2026-04-24T13:14:18Z</time>
      </trkpt>
      <trkpt lat="45.17777" lon="4.32149">
        <ele>930.2</ele>
        <time>2026-04-24T13:14:23Z</time>
      </trkpt>
      <trkpt lat="45.17772" lon="4.32154">
        <ele>930.1</ele>
        <time>2026-04-24T13:14:28Z</time>
      </trkpt>
      <trkpt lat="45.17765" lon="4.32158">
        <ele>930.1</ele>
        <time>2026-04-24T13:14:33Z</time>
      </trkpt>
      <trkpt lat="45.17758" lon="4.32163">
        <ele>930</ele>
        <time>2026-04-24T13:14:38Z</time>
      </trkpt>
      <trkpt lat="45.1775" lon="4.32167">
        <ele>930</ele>
        <time>2026-04-24T13:14:43Z</time>
      </trkpt>
      <trkpt lat="45.17744" lon="4.32171">
        <ele>930.3</ele>
        <time>2026-04-24T13:14:48Z</time>
      </trkpt>
      <trkpt lat="45.17737" lon="4.32175">
        <ele>930.6</ele>
        <time>2026-04-24T13:14:53Z</time>
      </trkpt>
      <trkpt lat="45.17728" lon="4.32178">
        <ele>931</ele>
        <time>2026-04-24T13:14:58Z</time>
      </trkpt>
      <trkpt lat="45.1772" lon="4.32183">
        <ele>931.4</ele>
        <time>2026-04-24T13:15:03Z</time>
      </trkpt>
      <trkpt lat="45.17712" lon="4.32186">
        <ele>931.7</ele>
        <time>2026-04-24T13:15:08Z</time>
      </trkpt>
      <trkpt lat="45.17705" lon="4.32189">
        <ele>932</ele>
        <time>2026-04-24T13:15:13Z</time>
      </trkpt>
      <trkpt lat="45.177" lon="4.32192">
        <ele>932.2</ele>
        <time>2026-04-24T13:15:18Z</time>
      </trkpt>
      <trkpt lat="45.17693" lon="4.32195">
        <ele>932.5</ele>
        <time>2026-04-24T13:15:23Z</time>
      </trkpt>
      <trkpt lat="45.17687" lon="4.32199">
        <ele>932.7</ele>
        <time>2026-04-24T13:15:28Z</time>
      </trkpt>
      <trkpt lat="45.1768" lon="4.32206">
        <ele>933</ele>
        <time>2026-04-24T13:15:33Z</time>
      </trkpt>
      <trkpt lat="45.17675" lon="4.32214">
        <ele>933.1</ele>
        <time>2026-04-24T13:15:38Z</time>
      </trkpt>
      <trkpt lat="45.1767" lon="4.3222">
        <ele>933.2</ele>
        <time>2026-04-24T13:15:43Z</time>
      </trkpt>
      <trkpt lat="45.17665" lon="4.32226">
        <ele>933.3</ele>
        <time>2026-04-24T13:15:48Z</time>
      </trkpt>
      <trkpt lat="45.1766" lon="4.32233">
        <ele>933</ele>
        <time>2026-04-24T13:15:53Z</time>
      </trkpt>
      <trkpt lat="45.17655" lon="4.32238">
        <ele>932.8</ele>
        <time>2026-04-24T13:15:58Z</time>
      </trkpt>
      <trkpt lat="45.17649" lon="4.32245">
        <ele>932.5</ele>
        <time>2026-04-24T13:16:03Z</time>
      </trkpt>
      <trkpt lat="45.17642" lon="4.32252">
        <ele>932.1</ele>
        <time>2026-04-24T13:16:08Z</time>
      </trkpt>
      <trkpt lat="45.17635" lon="4.32258">
        <ele>931.6</ele>
        <time>2026-04-24T13:16:13Z</time>
      </trkpt>
      <trkpt lat="45.17629" lon="4.32262">
        <ele>931.2</ele>
        <time>2026-04-24T13:16:18Z</time>
      </trkpt>
      <trkpt lat="45.17622" lon="4.3227">
        <ele>930.6</ele>
        <time>2026-04-24T13:16:23Z</time>
      </trkpt>
      <trkpt lat="45.17614" lon="4.32274">
        <ele>930.1</ele>
        <time>2026-04-24T13:16:28Z</time>
      </trkpt>
      <trkpt lat="45.1761" lon="4.32276">
        <ele>929.8</ele>
        <time>2026-04-24T13:16:33Z</time>
      </trkpt>
      <trkpt lat="45.17605" lon="4.32278">
        <ele>929.4</ele>
        <time>2026-04-24T13:16:38Z</time>
      </trkpt>
      <trkpt lat="45.17597" lon="4.32279">
        <ele>929</ele>
        <time>2026-04-24T13:16:43Z</time>
      </trkpt>
      <trkpt lat="45.17591" lon="4.32277">
        <ele>928.8</ele>
        <time>2026-04-24T13:16:48Z</time>
      </trkpt>
      <trkpt lat="45.17586" lon="4.32274">
        <ele>928.7</ele>
        <time>2026-04-24T13:16:53Z</time>
      </trkpt>
      <trkpt lat="45.17581" lon="4.32271">
        <ele>928.6</ele>
        <time>2026-04-24T13:16:58Z</time>
      </trkpt>
      <trkpt lat="45.17577" lon="4.32267">
        <ele>928.6</ele>
        <time>2026-04-24T13:17:03Z</time>
      </trkpt>
      <trkpt lat="45.17573" lon="4.32263">
        <ele>928.7</ele>
        <time>2026-04-24T13:17:08Z</time>
      </trkpt>
      <trkpt lat="45.17572" lon="4.32261">
        <ele>928.7</ele>
        <time>2026-04-24T13:17:13Z</time>
      </trkpt>
      <trkpt lat="45.17574" lon="4.32256">
        <ele>929.1</ele>
        <time>2026-04-24T13:17:18Z</time>
      </trkpt>
      <trkpt lat="45.17574" lon="4.32256">
        <ele>929.1</ele>
        <time>2026-04-24T13:17:23Z</time>
      </trkpt>
      <trkpt lat="45.17574" lon="4.32256">
        <ele>929.1</ele>
        <time>2026-04-24T13:17:28Z</time>
      </trkpt>
      <trkpt lat="45.17574" lon="4.32256">
        <ele>929.1</ele>
        <time>2026-04-24T13:17:33Z</time>
      </trkpt>
      <trkpt lat="45.17574" lon="4.32256">
        <ele>929.1</ele>
        <time>2026-04-24T13:17:38Z</time>
      </trkpt>
      <trkpt lat="45.17574" lon="4.32256">
        <ele>929.1</ele>
        <time>2026-04-24T13:17:43Z</time>
      </trkpt>
      <trkpt lat="45.17574" lon="4.32256">
        <ele>929.1</ele>
        <time>2026-04-24T13:17:48Z</time>
      </trkpt>
      <trkpt lat="45.17574" lon="4.32256">
        <ele>929.1</ele>
        <time>2026-04-24T13:17:53Z</time>
      </trkpt>
      <trkpt lat="45.17574" lon="4.32256">
        <ele>929.1</ele>
        <time>2026-04-24T13:17:58Z</time>
      </trkpt>
      <trkpt lat="45.17574" lon="4.32256">
        <ele>929.1</ele>
        <time>2026-04-24T13:18:03Z</time>
      </trkpt>
      <trkpt lat="45.17574" lon="4.32256">
        <ele>929.1</ele>
        <time>2026-04-24T13:18:08Z</time>
      </trkpt>
      <trkpt lat="45.17574" lon="4.32256">
        <ele>929.1</ele>
        <time>2026-04-24T13:18:13Z</time>
      </trkpt>
      <trkpt lat="45.17574" lon="4.32256">
        <ele>929.1</ele>
        <time>2026-04-24T13:18:18Z</time>
      </trkpt>
      <trkpt lat="45.17574" lon="4.32256">
        <ele>929.1</ele>
        <time>2026-04-24T13:18:23Z</time>
      </trkpt>
      <trkpt lat="45.17574" lon="4.32256">
        <ele>929.1</ele>
        <time>2026-04-24T13:18:28Z</time>
      </trkpt>
      <trkpt lat="45.17574" lon="4.32256">
        <ele>929.1</ele>
        <time>2026-04-24T13:18:33Z</time>
      </trkpt>
      <trkpt lat="45.17574" lon="4.32256">
        <ele>929.1</ele>
        <time>2026-04-24T13:18:38Z</time>
      </trkpt>
      <trkpt lat="45.17574" lon="4.32256">
        <ele>929.1</ele>
        <time>2026-04-24T13:18:43Z</time>
      </trkpt>
      <trkpt lat="45.17574" lon="4.32256">
        <ele>929.1</ele>
        <time>2026-04-24T13:18:48Z</time>
      </trkpt>
      <trkpt lat="45.17574" lon="4.32256">
        <ele>929.1</ele>
        <time>2026-04-24T13:18:53Z</time>
      </trkpt>
      <trkpt lat="45.17574" lon="4.32256">
        <ele>929.1</ele>
        <time>2026-04-24T13:18:58Z</time>
      </trkpt>
      <trkpt lat="45.17574" lon="4.32256">
        <ele>929.1</ele>
        <time>2026-04-24T13:19:03Z</time>
      </trkpt>
      <trkpt lat="45.17574" lon="4.32256">
        <ele>929.1</ele>
        <time>2026-04-24T13:19:08Z</time>
      </trkpt>
      <trkpt lat="45.17574" lon="4.32256">
        <ele>929.1</ele>
        <time>2026-04-24T13:19:13Z</time>
      </trkpt>
      <trkpt lat="45.17574" lon="4.32256">
        <ele>929.1</ele>
        <time>2026-04-24T13:19:18Z</time>
      </trkpt>
      <trkpt lat="45.17574" lon="4.32256">
        <ele>929.1</ele>
        <time>2026-04-24T13:19:23Z</time>
      </trkpt>
      <trkpt lat="45.17574" lon="4.32256">
        <ele>929.1</ele>
        <time>2026-04-24T13:19:28Z</time>
      </trkpt>
      <trkpt lat="45.17574" lon="4.32256">
        <ele>929.1</ele>
        <time>2026-04-24T13:19:33Z</time>
      </trkpt>
      <trkpt lat="45.17574" lon="4.32256">
        <ele>929.1</ele>
        <time>2026-04-24T13:19:38Z</time>
      </trkpt>
      <trkpt lat="45.17574" lon="4.32256">
        <ele>929.1</ele>
        <time>2026-04-24T13:19:43Z</time>
      </trkpt>
      <trkpt lat="45.17574" lon="4.32256">
        <ele>929.1</ele>
        <time>2026-04-24T13:19:48Z</time>
      </trkpt>
      <trkpt lat="45.17574" lon="4.32256">
        <ele>929.1</ele>
        <time>2026-04-24T13:19:53Z</time>
      </trkpt>
      <trkpt lat="45.17576" lon="4.32274">
        <ele>928.2</ele>
        <time>2026-04-24T13:19:58Z</time>
      </trkpt>
      <trkpt lat="45.17576" lon="4.32279">
        <ele>927.9</ele>
        <time>2026-04-24T13:20:03Z</time>
      </trkpt>
      <trkpt lat="45.17571" lon="4.32279">
        <ele>927.7</ele>
        <time>2026-04-24T13:20:08Z</time>
      </trkpt>
      <trkpt lat="45.17566" lon="4.32278">
        <ele>927.5</ele>
        <time>2026-04-24T13:20:13Z</time>
      </trkpt>
      <trkpt lat="45.17561" lon="4.32275">
        <ele>927.4</ele>
        <time>2026-04-24T13:20:18Z</time>
      </trkpt>
      <trkpt lat="45.17554" lon="4.32272">
        <ele>927.2</ele>
        <time>2026-04-24T13:20:23Z</time>
      </trkpt>
      <trkpt lat="45.17548" lon="4.32268">
        <ele>927.1</ele>
        <time>2026-04-24T13:20:28Z</time>
      </trkpt>
      <trkpt lat="45.17543" lon="4.32263">
        <ele>927</ele>
        <time>2026-04-24T13:20:33Z</time>
      </trkpt>
      <trkpt lat="45.17537" lon="4.32258">
        <ele>926.9</ele>
        <time>2026-04-24T13:20:38Z</time>
      </trkpt>
      <trkpt lat="45.17532" lon="4.32252">
        <ele>926.8</ele>
        <time>2026-04-24T13:20:43Z</time>
      </trkpt>
      <trkpt lat="45.17527" lon="4.32246">
        <ele>926.7</ele>
        <time>2026-04-24T13:20:48Z</time>
      </trkpt>
      <trkpt lat="45.17521" lon="4.3224">
        <ele>926.4</ele>
        <time>2026-04-24T13:20:53Z</time>
      </trkpt>
      <trkpt lat="45.17515" lon="4.32233">
        <ele>926.1</ele>
        <time>2026-04-24T13:20:58Z</time>
      </trkpt>
      <trkpt lat="45.17509" lon="4.3223">
        <ele>925.7</ele>
        <time>2026-04-24T13:21:03Z</time>
      </trkpt>
      <trkpt lat="45.17501" lon="4.32224">
        <ele>925.1</ele>
        <time>2026-04-24T13:21:08Z</time>
      </trkpt>
      <trkpt lat="45.17494" lon="4.32218">
        <ele>924.5</ele>
        <time>2026-04-24T13:21:13Z</time>
      </trkpt>
      <trkpt lat="45.17488" lon="4.32212">
        <ele>924</ele>
        <time>2026-04-24T13:21:18Z</time>
      </trkpt>
      <trkpt lat="45.17481" lon="4.32206">
        <ele>923.4</ele>
        <time>2026-04-24T13:21:23Z</time>
      </trkpt>
      <trkpt lat="45.17474" lon="4.32203">
        <ele>922.7</ele>
        <time>2026-04-24T13:21:28Z</time>
      </trkpt>
      <trkpt lat="45.17467" lon="4.32197">
        <ele>922</ele>
        <time>2026-04-24T13:21:33Z</time>
      </trkpt>
      <trkpt lat="45.17461" lon="4.32191">
        <ele>921.3</ele>
        <time>2026-04-24T13:21:38Z</time>
      </trkpt>
      <trkpt lat="45.17456" lon="4.32185">
        <ele>920.7</ele>
        <time>2026-04-24T13:21:43Z</time>
      </trkpt>
      <trkpt lat="45.17449" lon="4.3218">
        <ele>919.9</ele>
        <time>2026-04-24T13:21:48Z</time>
      </trkpt>
      <trkpt lat="45.17443" lon="4.32174">
        <ele>919.1</ele>
        <time>2026-04-24T13:21:53Z</time>
      </trkpt>
      <trkpt lat="45.17435" lon="4.32169">
        <ele>918.1</ele>
        <time>2026-04-24T13:21:58Z</time>
      </trkpt>
      <trkpt lat="45.17426" lon="4.32167">
        <ele>917</ele>
        <time>2026-04-24T13:22:03Z</time>
      </trkpt>
      <trkpt lat="45.17419" lon="4.32165">
        <ele>916.3</ele>
        <time>2026-04-24T13:22:08Z</time>
      </trkpt>
      <trkpt lat="45.17414" lon="4.3216">
        <ele>915.7</ele>
        <time>2026-04-24T13:22:13Z</time>
      </trkpt>
      <trkpt lat="45.17405" lon="4.32157">
        <ele>914.8</ele>
        <time>2026-04-24T13:22:18Z</time>
      </trkpt>
      <trkpt lat="45.17397" lon="4.32153">
        <ele>914</ele>
        <time>2026-04-24T13:22:23Z</time>
      </trkpt>
      <trkpt lat="45.1739" lon="4.32149">
        <ele>913.4</ele>
        <time>2026-04-24T13:22:28Z</time>
      </trkpt>
      <trkpt lat="45.17383" lon="4.32144">
        <ele>912.8</ele>
        <time>2026-04-24T13:22:33Z</time>
      </trkpt>
      <trkpt lat="45.17375" lon="4.32139">
        <ele>912.2</ele>
        <time>2026-04-24T13:22:38Z</time>
      </trkpt>
      <trkpt lat="45.1737" lon="4.32134">
        <ele>911.8</ele>
        <time>2026-04-24T13:22:43Z</time>
      </trkpt>
      <trkpt lat="45.17365" lon="4.32126">
        <ele>911.6</ele>
        <time>2026-04-24T13:22:48Z</time>
      </trkpt>
      <trkpt lat="45.1736" lon="4.32117">
        <ele>911.5</ele>
        <time>2026-04-24T13:22:53Z</time>
      </trkpt>
      <trkpt lat="45.17358" lon="4.32108">
        <ele>911.6</ele>
        <time>2026-04-24T13:22:58Z</time>
      </trkpt>
      <trkpt lat="45.17355" lon="4.32097">
        <ele>911.8</ele>
        <time>2026-04-24T13:23:03Z</time>
      </trkpt>
      <trkpt lat="45.1735" lon="4.32086">
        <ele>911.9</ele>
        <time>2026-04-24T13:23:08Z</time>
      </trkpt>
      <trkpt lat="45.17348" lon="4.32077">
        <ele>912.3</ele>
        <time>2026-04-24T13:23:13Z</time>
      </trkpt>
      <trkpt lat="45.17346" lon="4.32067">
        <ele>912.9</ele>
        <time>2026-04-24T13:23:18Z</time>
      </trkpt>
      <trkpt lat="45.17343" lon="4.32059">
        <ele>913.2</ele>
        <time>2026-04-24T13:23:23Z</time>
      </trkpt>
      <trkpt lat="45.17338" lon="4.32049">
        <ele>913.4</ele>
        <time>2026-04-24T13:23:28Z</time>
      </trkpt>
      <trkpt lat="45.17335" lon="4.32041">
        <ele>913.7</ele>
        <time>2026-04-24T13:23:33Z</time>
      </trkpt>
      <trkpt lat="45.1733" lon="4.32035">
        <ele>913.6</ele>
        <time>2026-04-24T13:23:38Z</time>
      </trkpt>
      <trkpt lat="45.17326" lon="4.32029">
        <ele>913.5</ele>
        <time>2026-04-24T13:23:43Z</time>
      </trkpt>
      <trkpt lat="45.1732" lon="4.32023">
        <ele>913.3</ele>
        <time>2026-04-24T13:23:48Z</time>
      </trkpt>
      <trkpt lat="45.17314" lon="4.32017">
        <ele>913</ele>
        <time>2026-04-24T13:23:53Z</time>
      </trkpt>
      <trkpt lat="45.17309" lon="4.32011">
        <ele>912.8</ele>
        <time>2026-04-24T13:23:58Z</time>
      </trkpt>
      <trkpt lat="45.17303" lon="4.32005">
        <ele>912.5</ele>
        <time>2026-04-24T13:24:03Z</time>
      </trkpt>
      <trkpt lat="45.17297" lon="4.32003">
        <ele>911.9</ele>
        <time>2026-04-24T13:24:08Z</time>
      </trkpt>
      <trkpt lat="45.17292" lon="4.31995">
        <ele>911.5</ele>
        <time>2026-04-24T13:24:13Z</time>
      </trkpt>
      <trkpt lat="45.17287" lon="4.31988">
        <ele>910.9</ele>
        <time>2026-04-24T13:24:18Z</time>
      </trkpt>
      <trkpt lat="45.17282" lon="4.3198">
        <ele>910.3</ele>
        <time>2026-04-24T13:24:23Z</time>
      </trkpt>
      <trkpt lat="45.1728" lon="4.31971">
        <ele>910</ele>
        <time>2026-04-24T13:24:28Z</time>
      </trkpt>
      <trkpt lat="45.17277" lon="4.31964">
        <ele>909.6</ele>
        <time>2026-04-24T13:24:33Z</time>
      </trkpt>
      <trkpt lat="45.17273" lon="4.31956">
        <ele>909.1</ele>
        <time>2026-04-24T13:24:38Z</time>
      </trkpt>
      <trkpt lat="45.17272" lon="4.31948">
        <ele>908.9</ele>
        <time>2026-04-24T13:24:43Z</time>
      </trkpt>
      <trkpt lat="45.17274" lon="4.31939">
        <ele>909.1</ele>
        <time>2026-04-24T13:24:48Z</time>
      </trkpt>
      <trkpt lat="45.17275" lon="4.3193">
        <ele>909.1</ele>
        <time>2026-04-24T13:24:53Z</time>
      </trkpt>
      <trkpt lat="45.17275" lon="4.31922">
        <ele>909</ele>
        <time>2026-04-24T13:24:58Z</time>
      </trkpt>
      <trkpt lat="45.17274" lon="4.31911">
        <ele>909</ele>
        <time>2026-04-24T13:25:03Z</time>
      </trkpt>
      <trkpt lat="45.17274" lon="4.31898">
        <ele>909.3</ele>
        <time>2026-04-24T13:25:08Z</time>
      </trkpt>
      <trkpt lat="45.17273" lon="4.31887">
        <ele>909.5</ele>
        <time>2026-04-24T13:25:13Z</time>
      </trkpt>
      <trkpt lat="45.17272" lon="4.31876">
        <ele>909.6</ele>
        <time>2026-04-24T13:25:18Z</time>
      </trkpt>
      <trkpt lat="45.17269" lon="4.31866">
        <ele>909.5</ele>
        <time>2026-04-24T13:25:23Z</time>
      </trkpt>
      <trkpt lat="45.17263" lon="4.31856">
        <ele>909</ele>
        <time>2026-04-24T13:25:28Z</time>
      </trkpt>
      <trkpt lat="45.1726" lon="4.31844">
        <ele>908.9</ele>
        <time>2026-04-24T13:25:33Z</time>
      </trkpt>
      <trkpt lat="45.17258" lon="4.31834">
        <ele>908.9</ele>
        <time>2026-04-24T13:25:38Z</time>
      </trkpt>
      <trkpt lat="45.17256" lon="4.31824">
        <ele>909</ele>
        <time>2026-04-24T13:25:43Z</time>
      </trkpt>
      <trkpt lat="45.17254" lon="4.31815">
        <ele>909.1</ele>
        <time>2026-04-24T13:25:48Z</time>
      </trkpt>
      <trkpt lat="45.1725" lon="4.31805">
        <ele>909</ele>
        <time>2026-04-24T13:25:53Z</time>
      </trkpt>
      <trkpt lat="45.17246" lon="4.31796">
        <ele>909.7</ele>
        <time>2026-04-24T13:25:58Z</time>
      </trkpt>
      <trkpt lat="45.17244" lon="4.31786">
        <ele>910.2</ele>
        <time>2026-04-24T13:26:03Z</time>
      </trkpt>
      <trkpt lat="45.17241" lon="4.31775">
        <ele>910.9</ele>
        <time>2026-04-24T13:26:08Z</time>
      </trkpt>
      <trkpt lat="45.17239" lon="4.31766">
        <ele>911.4</ele>
        <time>2026-04-24T13:26:13Z</time>
      </trkpt>
      <trkpt lat="45.17234" lon="4.31756">
        <ele>912.1</ele>
        <time>2026-04-24T13:26:18Z</time>
      </trkpt>
      <trkpt lat="45.17232" lon="4.31747">
        <ele>912.5</ele>
        <time>2026-04-24T13:26:23Z</time>
      </trkpt>
      <trkpt lat="45.17228" lon="4.31739">
        <ele>912.7</ele>
        <time>2026-04-24T13:26:28Z</time>
      </trkpt>
      <trkpt lat="45.17224" lon="4.31731">
        <ele>912.8</ele>
        <time>2026-04-24T13:26:33Z</time>
      </trkpt>
      <trkpt lat="45.17221" lon="4.31727">
        <ele>912.8</ele>
        <time>2026-04-24T13:26:38Z</time>
      </trkpt>
      <trkpt lat="45.17217" lon="4.31719">
        <ele>912.7</ele>
        <time>2026-04-24T13:26:43Z</time>
      </trkpt>
      <trkpt lat="45.17214" lon="4.31711">
        <ele>912.5</ele>
        <time>2026-04-24T13:26:48Z</time>
      </trkpt>
      <trkpt lat="45.1721" lon="4.31702">
        <ele>912.2</ele>
        <time>2026-04-24T13:26:53Z</time>
      </trkpt>
      <trkpt lat="45.17207" lon="4.31693">
        <ele>911.7</ele>
        <time>2026-04-24T13:26:58Z</time>
      </trkpt>
      <trkpt lat="45.17202" lon="4.31684">
        <ele>911.1</ele>
        <time>2026-04-24T13:27:03Z</time>
      </trkpt>
      <trkpt lat="45.17196" lon="4.31675">
        <ele>910.3</ele>
        <time>2026-04-24T13:27:08Z</time>
      </trkpt>
      <trkpt lat="45.17193" lon="4.31668">
        <ele>909.7</ele>
        <time>2026-04-24T13:27:13Z</time>
      </trkpt>
      <trkpt lat="45.17187" lon="4.31661">
        <ele>909.1</ele>
        <time>2026-04-24T13:27:18Z</time>
      </trkpt>
      <trkpt lat="45.17181" lon="4.31655">
        <ele>908.5</ele>
        <time>2026-04-24T13:27:23Z</time>
      </trkpt>
      <trkpt lat="45.17176" lon="4.31647">
        <ele>907.9</ele>
        <time>2026-04-24T13:27:28Z</time>
      </trkpt>
      <trkpt lat="45.17171" lon="4.31641">
        <ele>907.2</ele>
        <time>2026-04-24T13:27:33Z</time>
      </trkpt>
      <trkpt lat="45.17165" lon="4.31637">
        <ele>906.3</ele>
        <time>2026-04-24T13:27:38Z</time>
      </trkpt>
      <trkpt lat="45.1716" lon="4.31633">
        <ele>905.3</ele>
        <time>2026-04-24T13:27:43Z</time>
      </trkpt>
      <trkpt lat="45.17154" lon="4.3163">
        <ele>904.2</ele>
        <time>2026-04-24T13:27:48Z</time>
      </trkpt>
      <trkpt lat="45.17148" lon="4.31627">
        <ele>903</ele>
        <time>2026-04-24T13:27:53Z</time>
      </trkpt>
      <trkpt lat="45.17141" lon="4.31624">
        <ele>901.6</ele>
        <time>2026-04-24T13:27:58Z</time>
      </trkpt>
      <trkpt lat="45.17133" lon="4.3162">
        <ele>900</ele>
        <time>2026-04-24T13:28:03Z</time>
      </trkpt>
      <trkpt lat="45.17126" lon="4.31613">
        <ele>898.2</ele>
        <time>2026-04-24T13:28:08Z</time>
      </trkpt>
      <trkpt lat="45.1712" lon="4.31607">
        <ele>896.6</ele>
        <time>2026-04-24T13:28:13Z</time>
      </trkpt>
      <trkpt lat="45.17115" lon="4.31601">
        <ele>895.1</ele>
        <time>2026-04-24T13:28:18Z</time>
      </trkpt>
      <trkpt lat="45.1711" lon="4.31596">
        <ele>893.7</ele>
        <time>2026-04-24T13:28:23Z</time>
      </trkpt>
      <trkpt lat="45.17104" lon="4.31592">
        <ele>892.1</ele>
        <time>2026-04-24T13:28:28Z</time>
      </trkpt>
      <trkpt lat="45.17099" lon="4.31588">
        <ele>890.7</ele>
        <time>2026-04-24T13:28:33Z</time>
      </trkpt>
      <trkpt lat="45.17094" lon="4.31583">
        <ele>889.2</ele>
        <time>2026-04-24T13:28:38Z</time>
      </trkpt>
      <trkpt lat="45.17089" lon="4.31579">
        <ele>888.2</ele>
        <time>2026-04-24T13:28:43Z</time>
      </trkpt>
      <trkpt lat="45.17085" lon="4.31575">
        <ele>887.4</ele>
        <time>2026-04-24T13:28:48Z</time>
      </trkpt>
      <trkpt lat="45.17079" lon="4.31572">
        <ele>887</ele>
        <time>2026-04-24T13:28:53Z</time>
      </trkpt>
      <trkpt lat="45.17074" lon="4.31568">
        <ele>887</ele>
        <time>2026-04-24T13:28:58Z</time>
      </trkpt>
      <trkpt lat="45.1707" lon="4.31559">
        <ele>887</ele>
        <time>2026-04-24T13:29:03Z</time>
      </trkpt>
      <trkpt lat="45.1707" lon="4.31552">
        <ele>887.1</ele>
        <time>2026-04-24T13:29:08Z</time>
      </trkpt>
      <trkpt lat="45.17072" lon="4.31545">
        <ele>887.2</ele>
        <time>2026-04-24T13:29:13Z</time>
      </trkpt>
      <trkpt lat="45.17074" lon="4.31537">
        <ele>887.3</ele>
        <time>2026-04-24T13:29:18Z</time>
      </trkpt>
      <trkpt lat="45.17075" lon="4.31528">
        <ele>887.5</ele>
        <time>2026-04-24T13:29:23Z</time>
      </trkpt>
      <trkpt lat="45.17069" lon="4.31521">
        <ele>887.4</ele>
        <time>2026-04-24T13:29:28Z</time>
      </trkpt>
      <trkpt lat="45.17065" lon="4.31523">
        <ele>887.3</ele>
        <time>2026-04-24T13:29:33Z</time>
      </trkpt>
      <trkpt lat="45.17058" lon="4.31524">
        <ele>887.1</ele>
        <time>2026-04-24T13:29:38Z</time>
      </trkpt>
      <trkpt lat="45.17049" lon="4.31524">
        <ele>886.9</ele>
        <time>2026-04-24T13:29:43Z</time>
      </trkpt>
      <trkpt lat="45.17042" lon="4.31518">
        <ele>886.8</ele>
        <time>2026-04-24T13:29:48Z</time>
      </trkpt>
      <trkpt lat="45.17036" lon="4.31511">
        <ele>886.7</ele>
        <time>2026-04-24T13:29:53Z</time>
      </trkpt>
      <trkpt lat="45.17031" lon="4.31508">
        <ele>886.6</ele>
        <time>2026-04-24T13:29:58Z</time>
      </trkpt>
      <trkpt lat="45.17024" lon="4.31503">
        <ele>886.5</ele>
        <time>2026-04-24T13:30:03Z</time>
      </trkpt>
      <trkpt lat="45.17018" lon="4.31499">
        <ele>886.5</ele>
        <time>2026-04-24T13:30:08Z</time>
      </trkpt>
      <trkpt lat="45.17012" lon="4.31494">
        <ele>886.8</ele>
        <time>2026-04-24T13:30:13Z</time>
      </trkpt>
      <trkpt lat="45.17006" lon="4.31491">
        <ele>886.9</ele>
        <time>2026-04-24T13:30:18Z</time>
      </trkpt>
      <trkpt lat="45.17001" lon="4.31487">
        <ele>887.1</ele>
        <time>2026-04-24T13:30:23Z</time>
      </trkpt>
      <trkpt lat="45.16995" lon="4.31484">
        <ele>887.8</ele>
        <time>2026-04-24T13:30:28Z</time>
      </trkpt>
      <trkpt lat="45.16989" lon="4.31479">
        <ele>888.8</ele>
        <time>2026-04-24T13:30:33Z</time>
      </trkpt>
      <trkpt lat="45.16985" lon="4.31474">
        <ele>889.6</ele>
        <time>2026-04-24T13:30:38Z</time>
      </trkpt>
      <trkpt lat="45.16979" lon="4.3147">
        <ele>890.5</ele>
        <time>2026-04-24T13:30:43Z</time>
      </trkpt>
      <trkpt lat="45.16972" lon="4.3147">
        <ele>891.1</ele>
        <time>2026-04-24T13:30:48Z</time>
      </trkpt>
      <trkpt lat="45.16965" lon="4.31471">
        <ele>891.7</ele>
        <time>2026-04-24T13:30:53Z</time>
      </trkpt>
      <trkpt lat="45.16958" lon="4.3147">
        <ele>892.4</ele>
        <time>2026-04-24T13:30:58Z</time>
      </trkpt>
      <trkpt lat="45.16952" lon="4.31468">
        <ele>893.2</ele>
        <time>2026-04-24T13:31:03Z</time>
      </trkpt>
      <trkpt lat="45.16945" lon="4.31462">
        <ele>894.4</ele>
        <time>2026-04-24T13:31:08Z</time>
      </trkpt>
      <trkpt lat="45.16937" lon="4.31459">
        <ele>895.5</ele>
        <time>2026-04-24T13:31:13Z</time>
      </trkpt>
      <trkpt lat="45.1693" lon="4.31455">
        <ele>896.6</ele>
        <time>2026-04-24T13:31:18Z</time>
      </trkpt>
      <trkpt lat="45.16923" lon="4.31451">
        <ele>897.7</ele>
        <time>2026-04-24T13:31:23Z</time>
      </trkpt>
      <trkpt lat="45.16916" lon="4.31449">
        <ele>898.6</ele>
        <time>2026-04-24T13:31:28Z</time>
      </trkpt>
      <trkpt lat="45.16911" lon="4.31447">
        <ele>899.9</ele>
        <time>2026-04-24T13:31:33Z</time>
      </trkpt>
      <trkpt lat="45.16905" lon="4.31443">
        <ele>901.6</ele>
        <time>2026-04-24T13:31:38Z</time>
      </trkpt>
      <trkpt lat="45.16898" lon="4.31439">
        <ele>903.4</ele>
        <time>2026-04-24T13:31:43Z</time>
      </trkpt>
      <trkpt lat="45.1689" lon="4.31436">
        <ele>905.3</ele>
        <time>2026-04-24T13:31:48Z</time>
      </trkpt>
      <trkpt lat="45.16883" lon="4.31432">
        <ele>907.1</ele>
        <time>2026-04-24T13:31:53Z</time>
      </trkpt>
      <trkpt lat="45.16876" lon="4.31429">
        <ele>908.8</ele>
        <time>2026-04-24T13:31:58Z</time>
      </trkpt>
      <trkpt lat="45.16869" lon="4.31424">
        <ele>910.6</ele>
        <time>2026-04-24T13:32:03Z</time>
      </trkpt>
      <trkpt lat="45.16862" lon="4.31423">
        <ele>912</ele>
        <time>2026-04-24T13:32:08Z</time>
      </trkpt>
      <trkpt lat="45.16856" lon="4.31423">
        <ele>913.2</ele>
        <time>2026-04-24T13:32:13Z</time>
      </trkpt>
      <trkpt lat="45.1685" lon="4.31424">
        <ele>914.3</ele>
        <time>2026-04-24T13:32:18Z</time>
      </trkpt>
      <trkpt lat="45.16844" lon="4.31424">
        <ele>915.5</ele>
        <time>2026-04-24T13:32:23Z</time>
      </trkpt>
      <trkpt lat="45.16839" lon="4.31426">
        <ele>916.3</ele>
        <time>2026-04-24T13:32:28Z</time>
      </trkpt>
      <trkpt lat="45.16834" lon="4.31429">
        <ele>917.1</ele>
        <time>2026-04-24T13:32:33Z</time>
      </trkpt>
      <trkpt lat="45.16829" lon="4.3143">
        <ele>917.5</ele>
        <time>2026-04-24T13:32:38Z</time>
      </trkpt>
      <trkpt lat="45.16823" lon="4.31431">
        <ele>917.8</ele>
        <time>2026-04-24T13:32:43Z</time>
      </trkpt>
      <trkpt lat="45.16818" lon="4.31431">
        <ele>918.1</ele>
        <time>2026-04-24T13:32:48Z</time>
      </trkpt>
      <trkpt lat="45.16813" lon="4.31432">
        <ele>918.4</ele>
        <time>2026-04-24T13:32:53Z</time>
      </trkpt>
      <trkpt lat="45.16809" lon="4.31432">
        <ele>918.6</ele>
        <time>2026-04-24T13:32:58Z</time>
      </trkpt>
      <trkpt lat="45.16805" lon="4.31434">
        <ele>918.8</ele>
        <time>2026-04-24T13:33:03Z</time>
      </trkpt>
      <trkpt lat="45.16801" lon="4.31434">
        <ele>919.1</ele>
        <time>2026-04-24T13:33:08Z</time>
      </trkpt>
      <trkpt lat="45.16797" lon="4.31433">
        <ele>919.4</ele>
        <time>2026-04-24T13:33:13Z</time>
      </trkpt>
      <trkpt lat="45.16794" lon="4.31436">
        <ele>919.4</ele>
        <time>2026-04-24T13:33:18Z</time>
      </trkpt>
      <trkpt lat="45.1679" lon="4.31437">
        <ele>919.6</ele>
        <time>2026-04-24T13:33:23Z</time>
      </trkpt>
      <trkpt lat="45.16786" lon="4.31438">
        <ele>919.9</ele>
        <time>2026-04-24T13:33:28Z</time>
      </trkpt>
      <trkpt lat="45.16782" lon="4.3144">
        <ele>920</ele>
        <time>2026-04-24T13:33:33Z</time>
      </trkpt>
      <trkpt lat="45.16777" lon="4.31445">
        <ele>920.1</ele>
        <time>2026-04-24T13:33:38Z</time>
      </trkpt>
      <trkpt lat="45.16772" lon="4.31447">
        <ele>920.4</ele>
        <time>2026-04-24T13:33:43Z</time>
      </trkpt>
      <trkpt lat="45.16768" lon="4.3145">
        <ele>920.5</ele>
        <time>2026-04-24T13:33:48Z</time>
      </trkpt>
      <trkpt lat="45.16765" lon="4.31452">
        <ele>920.7</ele>
        <time>2026-04-24T13:33:53Z</time>
      </trkpt>
      <trkpt lat="45.16761" lon="4.31455">
        <ele>920.8</ele>
        <time>2026-04-24T13:33:58Z</time>
      </trkpt>
      <trkpt lat="45.16757" lon="4.31456">
        <ele>921.1</ele>
        <time>2026-04-24T13:34:03Z</time>
      </trkpt>
      <trkpt lat="45.16752" lon="4.31455">
        <ele>921.5</ele>
        <time>2026-04-24T13:34:08Z</time>
      </trkpt>
      <trkpt lat="45.16748" lon="4.31456">
        <ele>921.6</ele>
        <time>2026-04-24T13:34:13Z</time>
      </trkpt>
      <trkpt lat="45.16744" lon="4.31458">
        <ele>921.6</ele>
        <time>2026-04-24T13:34:18Z</time>
      </trkpt>
      <trkpt lat="45.1674" lon="4.31462">
        <ele>921.5</ele>
        <time>2026-04-24T13:34:23Z</time>
      </trkpt>
      <trkpt lat="45.16733" lon="4.31462">
        <ele>921.6</ele>
        <time>2026-04-24T13:34:28Z</time>
      </trkpt>
      <trkpt lat="45.16726" lon="4.31464">
        <ele>921.7</ele>
        <time>2026-04-24T13:34:33Z</time>
      </trkpt>
      <trkpt lat="45.16719" lon="4.31466">
        <ele>921.8</ele>
        <time>2026-04-24T13:34:38Z</time>
      </trkpt>
      <trkpt lat="45.16714" lon="4.31468">
        <ele>921.9</ele>
        <time>2026-04-24T13:34:43Z</time>
      </trkpt>
      <trkpt lat="45.16708" lon="4.3147">
        <ele>922</ele>
        <time>2026-04-24T13:34:48Z</time>
      </trkpt>
      <trkpt lat="45.16702" lon="4.31474">
        <ele>922.2</ele>
        <time>2026-04-24T13:34:53Z</time>
      </trkpt>
      <trkpt lat="45.16696" lon="4.31477">
        <ele>922.3</ele>
        <time>2026-04-24T13:34:58Z</time>
      </trkpt>
      <trkpt lat="45.16692" lon="4.31479">
        <ele>922.5</ele>
        <time>2026-04-24T13:35:03Z</time>
      </trkpt>
      <trkpt lat="45.16686" lon="4.31482">
        <ele>922.7</ele>
        <time>2026-04-24T13:35:08Z</time>
      </trkpt>
      <trkpt lat="45.16681" lon="4.31488">
        <ele>923</ele>
        <time>2026-04-24T13:35:13Z</time>
      </trkpt>
      <trkpt lat="45.16676" lon="4.31491">
        <ele>923.3</ele>
        <time>2026-04-24T13:35:18Z</time>
      </trkpt>
      <trkpt lat="45.16672" lon="4.31494">
        <ele>923.6</ele>
        <time>2026-04-24T13:35:23Z</time>
      </trkpt>
      <trkpt lat="45.16665" lon="4.31496">
        <ele>923.8</ele>
        <time>2026-04-24T13:35:28Z</time>
      </trkpt>
      <trkpt lat="45.16658" lon="4.31502">
        <ele>923.7</ele>
        <time>2026-04-24T13:35:33Z</time>
      </trkpt>
      <trkpt lat="45.16652" lon="4.31507">
        <ele>923.7</ele>
        <time>2026-04-24T13:35:38Z</time>
      </trkpt>
      <trkpt lat="45.16647" lon="4.31511">
        <ele>923.7</ele>
        <time>2026-04-24T13:35:43Z</time>
      </trkpt>
      <trkpt lat="45.16642" lon="4.31512">
        <ele>923.5</ele>
        <time>2026-04-24T13:35:48Z</time>
      </trkpt>
      <trkpt lat="45.16634" lon="4.31514">
        <ele>923.3</ele>
        <time>2026-04-24T13:35:53Z</time>
      </trkpt>
      <trkpt lat="45.16629" lon="4.31517">
        <ele>923.2</ele>
        <time>2026-04-24T13:35:58Z</time>
      </trkpt>
      <trkpt lat="45.16625" lon="4.31519">
        <ele>923.1</ele>
        <time>2026-04-24T13:36:03Z</time>
      </trkpt>
      <trkpt lat="45.1662" lon="4.31521">
        <ele>923</ele>
        <time>2026-04-24T13:36:08Z</time>
      </trkpt>
      <trkpt lat="45.16613" lon="4.31525">
        <ele>922.9</ele>
        <time>2026-04-24T13:36:13Z</time>
      </trkpt>
      <trkpt lat="45.16607" lon="4.31531">
        <ele>923</ele>
        <time>2026-04-24T13:36:18Z</time>
      </trkpt>
      <trkpt lat="45.16601" lon="4.31536">
        <ele>923</ele>
        <time>2026-04-24T13:36:23Z</time>
      </trkpt>
      <trkpt lat="45.16596" lon="4.3154">
        <ele>923</ele>
        <time>2026-04-24T13:36:28Z</time>
      </trkpt>
      <trkpt lat="45.16593" lon="4.31539">
        <ele>922.8</ele>
        <time>2026-04-24T13:36:33Z</time>
      </trkpt>
      <trkpt lat="45.16591" lon="4.3154">
        <ele>922.8</ele>
        <time>2026-04-24T13:36:38Z</time>
      </trkpt>
      <trkpt lat="45.16591" lon="4.3154">
        <ele>922.8</ele>
        <time>2026-04-24T13:36:43Z</time>
      </trkpt>
      <trkpt lat="45.16591" lon="4.3154">
        <ele>922.8</ele>
        <time>2026-04-24T13:36:48Z</time>
      </trkpt>
      <trkpt lat="45.16591" lon="4.3154">
        <ele>922.8</ele>
        <time>2026-04-24T13:36:53Z</time>
      </trkpt>
      <trkpt lat="45.16591" lon="4.3154">
        <ele>922.8</ele>
        <time>2026-04-24T13:36:58Z</time>
      </trkpt>
      <trkpt lat="45.16591" lon="4.3154">
        <ele>922.8</ele>
        <time>2026-04-24T13:37:03Z</time>
      </trkpt>
      <trkpt lat="45.16587" lon="4.31543">
        <ele>922.8</ele>
        <time>2026-04-24T13:37:08Z</time>
      </trkpt>
      <trkpt lat="45.16579" lon="4.31543">
        <ele>922.5</ele>
        <time>2026-04-24T13:37:13Z</time>
      </trkpt>
      <trkpt lat="45.16574" lon="4.31547">
        <ele>922.6</ele>
        <time>2026-04-24T13:37:18Z</time>
      </trkpt>
      <trkpt lat="45.16571" lon="4.3155">
        <ele>922.8</ele>
        <time>2026-04-24T13:37:23Z</time>
      </trkpt>
      <trkpt lat="45.16571" lon="4.3155">
        <ele>922.8</ele>
        <time>2026-04-24T13:37:28Z</time>
      </trkpt>
      <trkpt lat="45.16571" lon="4.3155">
        <ele>922.8</ele>
        <time>2026-04-24T13:37:33Z</time>
      </trkpt>
      <trkpt lat="45.16571" lon="4.3155">
        <ele>922.8</ele>
        <time>2026-04-24T13:37:38Z</time>
      </trkpt>
      <trkpt lat="45.16571" lon="4.3155">
        <ele>922.8</ele>
        <time>2026-04-24T13:37:43Z</time>
      </trkpt>
      <trkpt lat="45.16571" lon="4.3155">
        <ele>922.8</ele>
        <time>2026-04-24T13:37:48Z</time>
      </trkpt>
      <trkpt lat="45.16571" lon="4.3155">
        <ele>922.8</ele>
        <time>2026-04-24T13:37:53Z</time>
      </trkpt>
      <trkpt lat="45.16571" lon="4.3155">
        <ele>922.8</ele>
        <time>2026-04-24T13:37:58Z</time>
      </trkpt>
      <trkpt lat="45.16571" lon="4.3155">
        <ele>922.8</ele>
        <time>2026-04-24T13:38:03Z</time>
      </trkpt>
      <trkpt lat="45.16571" lon="4.3155">
        <ele>922.8</ele>
        <time>2026-04-24T13:38:08Z</time>
      </trkpt>
      <trkpt lat="45.16571" lon="4.3155">
        <ele>922.8</ele>
        <time>2026-04-24T13:38:13Z</time>
      </trkpt>
      <trkpt lat="45.16571" lon="4.3155">
        <ele>922.8</ele>
        <time>2026-04-24T13:38:18Z</time>
      </trkpt>
      <trkpt lat="45.16565" lon="4.31555">
        <ele>922.9</ele>
        <time>2026-04-24T13:38:23Z</time>
      </trkpt>
      <trkpt lat="45.1656" lon="4.31556">
        <ele>922.9</ele>
        <time>2026-04-24T13:38:28Z</time>
      </trkpt>
      <trkpt lat="45.16554" lon="4.31556">
        <ele>922.8</ele>
        <time>2026-04-24T13:38:33Z</time>
      </trkpt>
      <trkpt lat="45.16549" lon="4.31556">
        <ele>922.7</ele>
        <time>2026-04-24T13:38:38Z</time>
      </trkpt>
      <trkpt lat="45.16544" lon="4.3156">
        <ele>922.8</ele>
        <time>2026-04-24T13:38:43Z</time>
      </trkpt>
      <trkpt lat="45.16538" lon="4.31563">
        <ele>922.8</ele>
        <time>2026-04-24T13:38:48Z</time>
      </trkpt>
      <trkpt lat="45.16535" lon="4.31563">
        <ele>922.8</ele>
        <time>2026-04-24T13:38:53Z</time>
      </trkpt>
      <trkpt lat="45.1653" lon="4.31564">
        <ele>922.7</ele>
        <time>2026-04-24T13:38:58Z</time>
      </trkpt>
      <trkpt lat="45.16524" lon="4.31566">
        <ele>922.7</ele>
        <time>2026-04-24T13:39:03Z</time>
      </trkpt>
      <trkpt lat="45.1652" lon="4.3157">
        <ele>922.8</ele>
        <time>2026-04-24T13:39:08Z</time>
      </trkpt>
      <trkpt lat="45.16516" lon="4.31574">
        <ele>922.9</ele>
        <time>2026-04-24T13:39:13Z</time>
      </trkpt>
      <trkpt lat="45.16512" lon="4.31579">
        <ele>923.1</ele>
        <time>2026-04-24T13:39:18Z</time>
      </trkpt>
      <trkpt lat="45.16508" lon="4.31583">
        <ele>923.2</ele>
        <time>2026-04-24T13:39:23Z</time>
      </trkpt>
      <trkpt lat="45.16499" lon="4.31589">
        <ele>924</ele>
        <time>2026-04-24T13:39:28Z</time>
      </trkpt>
      <trkpt lat="45.16493" lon="4.31594">
        <ele>925.4</ele>
        <time>2026-04-24T13:39:33Z</time>
      </trkpt>
      <trkpt lat="45.16487" lon="4.31596">
        <ele>926.3</ele>
        <time>2026-04-24T13:39:38Z</time>
      </trkpt>
      <trkpt lat="45.16481" lon="4.31598">
        <ele>927.1</ele>
        <time>2026-04-24T13:39:43Z</time>
      </trkpt>
      <trkpt lat="45.16475" lon="4.316">
        <ele>927.9</ele>
        <time>2026-04-24T13:39:48Z</time>
      </trkpt>
      <trkpt lat="45.16469" lon="4.31598">
        <ele>928.2</ele>
        <time>2026-04-24T13:39:53Z</time>
      </trkpt>
      <trkpt lat="45.16462" lon="4.31598">
        <ele>928.9</ele>
        <time>2026-04-24T13:39:58Z</time>
      </trkpt>
      <trkpt lat="45.16455" lon="4.31599">
        <ele>929.6</ele>
        <time>2026-04-24T13:40:03Z</time>
      </trkpt>
      <trkpt lat="45.16448" lon="4.316">
        <ele>930.3</ele>
        <time>2026-04-24T13:40:08Z</time>
      </trkpt>
      <trkpt lat="45.16442" lon="4.31603">
        <ele>931.1</ele>
        <time>2026-04-24T13:40:13Z</time>
      </trkpt>
      <trkpt lat="45.16434" lon="4.31606">
        <ele>931.9</ele>
        <time>2026-04-24T13:40:18Z</time>
      </trkpt>
      <trkpt lat="45.16426" lon="4.31608">
        <ele>932.6</ele>
        <time>2026-04-24T13:40:23Z</time>
      </trkpt>
      <trkpt lat="45.16419" lon="4.31609">
        <ele>933.1</ele>
        <time>2026-04-24T13:40:28Z</time>
      </trkpt>
      <trkpt lat="45.16412" lon="4.31613">
        <ele>934</ele>
        <time>2026-04-24T13:40:33Z</time>
      </trkpt>
      <trkpt lat="45.16406" lon="4.31616">
        <ele>934.8</ele>
        <time>2026-04-24T13:40:38Z</time>
      </trkpt>
      <trkpt lat="45.164" lon="4.3162">
        <ele>935.6</ele>
        <time>2026-04-24T13:40:43Z</time>
      </trkpt>
      <trkpt lat="45.16394" lon="4.31624">
        <ele>936.4</ele>
        <time>2026-04-24T13:40:48Z</time>
      </trkpt>
      <trkpt lat="45.16388" lon="4.31629">
        <ele>937.1</ele>
        <time>2026-04-24T13:40:53Z</time>
      </trkpt>
      <trkpt lat="45.16383" lon="4.31636">
        <ele>937.6</ele>
        <time>2026-04-24T13:40:58Z</time>
      </trkpt>
      <trkpt lat="45.16378" lon="4.31641">
        <ele>938.1</ele>
        <time>2026-04-24T13:41:03Z</time>
      </trkpt>
      <trkpt lat="45.16373" lon="4.31643">
        <ele>938.7</ele>
        <time>2026-04-24T13:41:08Z</time>
      </trkpt>
      <trkpt lat="45.1637" lon="4.31647">
        <ele>938.9</ele>
        <time>2026-04-24T13:41:13Z</time>
      </trkpt>
      <trkpt lat="45.16368" lon="4.31653">
        <ele>939</ele>
        <time>2026-04-24T13:41:18Z</time>
      </trkpt>
      <trkpt lat="45.16364" lon="4.31661">
        <ele>939.2</ele>
        <time>2026-04-24T13:41:23Z</time>
      </trkpt>
      <trkpt lat="45.1636" lon="4.31666">
        <ele>939.5</ele>
        <time>2026-04-24T13:41:28Z</time>
      </trkpt>
      <trkpt lat="45.16354" lon="4.31671">
        <ele>939.9</ele>
        <time>2026-04-24T13:41:33Z</time>
      </trkpt>
      <trkpt lat="45.16348" lon="4.31676">
        <ele>940.4</ele>
        <time>2026-04-24T13:41:38Z</time>
      </trkpt>
      <trkpt lat="45.16343" lon="4.31679">
        <ele>940.7</ele>
        <time>2026-04-24T13:41:43Z</time>
      </trkpt>
      <trkpt lat="45.16337" lon="4.31684">
        <ele>940.9</ele>
        <time>2026-04-24T13:41:48Z</time>
      </trkpt>
      <trkpt lat="45.16331" lon="4.31688">
        <ele>941</ele>
        <time>2026-04-24T13:41:53Z</time>
      </trkpt>
      <trkpt lat="45.16324" lon="4.31691">
        <ele>940.8</ele>
        <time>2026-04-24T13:41:58Z</time>
      </trkpt>
      <trkpt lat="45.16318" lon="4.31694">
        <ele>940.7</ele>
        <time>2026-04-24T13:42:03Z</time>
      </trkpt>
      <trkpt lat="45.16312" lon="4.31696">
        <ele>940.6</ele>
        <time>2026-04-24T13:42:08Z</time>
      </trkpt>
      <trkpt lat="45.16307" lon="4.31698">
        <ele>940.5</ele>
        <time>2026-04-24T13:42:13Z</time>
      </trkpt>
      <trkpt lat="45.163" lon="4.31697">
        <ele>940.5</ele>
        <time>2026-04-24T13:42:18Z</time>
      </trkpt>
      <trkpt lat="45.16292" lon="4.31689">
        <ele>941</ele>
        <time>2026-04-24T13:42:23Z</time>
      </trkpt>
      <trkpt lat="45.16286" lon="4.31683">
        <ele>941.5</ele>
        <time>2026-04-24T13:42:28Z</time>
      </trkpt>
      <trkpt lat="45.16281" lon="4.3168">
        <ele>941.7</ele>
        <time>2026-04-24T13:42:33Z</time>
      </trkpt>
      <trkpt lat="45.16276" lon="4.31678">
        <ele>941.9</ele>
        <time>2026-04-24T13:42:38Z</time>
      </trkpt>
      <trkpt lat="45.16272" lon="4.31674">
        <ele>942.2</ele>
        <time>2026-04-24T13:42:43Z</time>
      </trkpt>
      <trkpt lat="45.16268" lon="4.31672">
        <ele>942.4</ele>
        <time>2026-04-24T13:42:48Z</time>
      </trkpt>
      <trkpt lat="45.16263" lon="4.31668">
        <ele>942.7</ele>
        <time>2026-04-24T13:42:53Z</time>
      </trkpt>
      <trkpt lat="45.16258" lon="4.31665">
        <ele>942.9</ele>
        <time>2026-04-24T13:42:58Z</time>
      </trkpt>
      <trkpt lat="45.16254" lon="4.31665">
        <ele>943</ele>
        <time>2026-04-24T13:43:03Z</time>
      </trkpt>
      <trkpt lat="45.1625" lon="4.31666">
        <ele>943</ele>
        <time>2026-04-24T13:43:08Z</time>
      </trkpt>
      <trkpt lat="45.16245" lon="4.31667">
        <ele>942.7</ele>
        <time>2026-04-24T13:43:13Z</time>
      </trkpt>
      <trkpt lat="45.1624" lon="4.31667">
        <ele>942.5</ele>
        <time>2026-04-24T13:43:18Z</time>
      </trkpt>
      <trkpt lat="45.16235" lon="4.31667">
        <ele>942.3</ele>
        <time>2026-04-24T13:43:23Z</time>
      </trkpt>
      <trkpt lat="45.1623" lon="4.31669">
        <ele>941.9</ele>
        <time>2026-04-24T13:43:28Z</time>
      </trkpt>
      <trkpt lat="45.16223" lon="4.31673">
        <ele>941.3</ele>
        <time>2026-04-24T13:43:33Z</time>
      </trkpt>
      <trkpt lat="45.16217" lon="4.31677">
        <ele>940.9</ele>
        <time>2026-04-24T13:43:38Z</time>
      </trkpt>
      <trkpt lat="45.16212" lon="4.31682">
        <ele>940.5</ele>
        <time>2026-04-24T13:43:43Z</time>
      </trkpt>
      <trkpt lat="45.16206" lon="4.31686">
        <ele>940.1</ele>
        <time>2026-04-24T13:43:48Z</time>
      </trkpt>
      <trkpt lat="45.162" lon="4.31689">
        <ele>939.8</ele>
        <time>2026-04-24T13:43:53Z</time>
      </trkpt>
      <trkpt lat="45.16195" lon="4.31692">
        <ele>939.6</ele>
        <time>2026-04-24T13:43:58Z</time>
      </trkpt>
      <trkpt lat="45.16188" lon="4.31696">
        <ele>939.4</ele>
        <time>2026-04-24T13:44:03Z</time>
      </trkpt>
      <trkpt lat="45.16182" lon="4.31698">
        <ele>939.3</ele>
        <time>2026-04-24T13:44:08Z</time>
      </trkpt>
      <trkpt lat="45.16177" lon="4.317">
        <ele>939.1</ele>
        <time>2026-04-24T13:44:13Z</time>
      </trkpt>
      <trkpt lat="45.16171" lon="4.31703">
        <ele>939</ele>
        <time>2026-04-24T13:44:18Z</time>
      </trkpt>
      <trkpt lat="45.16165" lon="4.31706">
        <ele>938.9</ele>
        <time>2026-04-24T13:44:23Z</time>
      </trkpt>
      <trkpt lat="45.16159" lon="4.31707">
        <ele>938.6</ele>
        <time>2026-04-24T13:44:28Z</time>
      </trkpt>
      <trkpt lat="45.16155" lon="4.31708">
        <ele>938.4</ele>
        <time>2026-04-24T13:44:33Z</time>
      </trkpt>
      <trkpt lat="45.16147" lon="4.31711">
        <ele>938.1</ele>
        <time>2026-04-24T13:44:38Z</time>
      </trkpt>
      <trkpt lat="45.16138" lon="4.31716">
        <ele>937.7</ele>
        <time>2026-04-24T13:44:43Z</time>
      </trkpt>
      <trkpt lat="45.1613" lon="4.31721">
        <ele>937.4</ele>
        <time>2026-04-24T13:44:48Z</time>
      </trkpt>
      <trkpt lat="45.16122" lon="4.31726">
        <ele>937.1</ele>
        <time>2026-04-24T13:44:53Z</time>
      </trkpt>
      <trkpt lat="45.16115" lon="4.3173">
        <ele>936.8</ele>
        <time>2026-04-24T13:44:58Z</time>
      </trkpt>
      <trkpt lat="45.16111" lon="4.31733">
        <ele>936.7</ele>
        <time>2026-04-24T13:45:03Z</time>
      </trkpt>
      <trkpt lat="45.16107" lon="4.3174">
        <ele>936.7</ele>
        <time>2026-04-24T13:45:08Z</time>
      </trkpt>
      <trkpt lat="45.16102" lon="4.31747">
        <ele>936.6</ele>
        <time>2026-04-24T13:45:13Z</time>
      </trkpt>
      <trkpt lat="45.16097" lon="4.31751">
        <ele>936.5</ele>
        <time>2026-04-24T13:45:18Z</time>
      </trkpt>
      <trkpt lat="45.16093" lon="4.31751">
        <ele>936.3</ele>
        <time>2026-04-24T13:45:23Z</time>
      </trkpt>
      <trkpt lat="45.16088" lon="4.31755">
        <ele>936.1</ele>
        <time>2026-04-24T13:45:28Z</time>
      </trkpt>
      <trkpt lat="45.16082" lon="4.31758">
        <ele>936</ele>
        <time>2026-04-24T13:45:33Z</time>
      </trkpt>
      <trkpt lat="45.16077" lon="4.31761">
        <ele>936.1</ele>
        <time>2026-04-24T13:45:38Z</time>
      </trkpt>
      <trkpt lat="45.16073" lon="4.31766">
        <ele>936.2</ele>
        <time>2026-04-24T13:45:43Z</time>
      </trkpt>
      <trkpt lat="45.16068" lon="4.31773">
        <ele>936.2</ele>
        <time>2026-04-24T13:45:48Z</time>
      </trkpt>
      <trkpt lat="45.16062" lon="4.31777">
        <ele>936.3</ele>
        <time>2026-04-24T13:45:53Z</time>
      </trkpt>
      <trkpt lat="45.16054" lon="4.31786">
        <ele>936.2</ele>
        <time>2026-04-24T13:45:58Z</time>
      </trkpt>
      <trkpt lat="45.16045" lon="4.31791">
        <ele>936.2</ele>
        <time>2026-04-24T13:46:03Z</time>
      </trkpt>
      <trkpt lat="45.16038" lon="4.31792">
        <ele>936.3</ele>
        <time>2026-04-24T13:46:08Z</time>
      </trkpt>
      <trkpt lat="45.1603" lon="4.31795">
        <ele>936.3</ele>
        <time>2026-04-24T13:46:13Z</time>
      </trkpt>
      <trkpt lat="45.16023" lon="4.31798">
        <ele>936.2</ele>
        <time>2026-04-24T13:46:18Z</time>
      </trkpt>
      <trkpt lat="45.16015" lon="4.31802">
        <ele>936.1</ele>
        <time>2026-04-24T13:46:23Z</time>
      </trkpt>
      <trkpt lat="45.16009" lon="4.31807">
        <ele>935.8</ele>
        <time>2026-04-24T13:46:28Z</time>
      </trkpt>
      <trkpt lat="45.16004" lon="4.31811">
        <ele>935.6</ele>
        <time>2026-04-24T13:46:33Z</time>
      </trkpt>
      <trkpt lat="45.15997" lon="4.31815">
        <ele>935.2</ele>
        <time>2026-04-24T13:46:38Z</time>
      </trkpt>
      <trkpt lat="45.15991" lon="4.3182">
        <ele>934.7</ele>
        <time>2026-04-24T13:46:43Z</time>
      </trkpt>
      <trkpt lat="45.15984" lon="4.31824">
        <ele>934.4</ele>
        <time>2026-04-24T13:46:48Z</time>
      </trkpt>
      <trkpt lat="45.15978" lon="4.31825">
        <ele>934.2</ele>
        <time>2026-04-24T13:46:53Z</time>
      </trkpt>
      <trkpt lat="45.1597" lon="4.31825">
        <ele>934</ele>
        <time>2026-04-24T13:46:58Z</time>
      </trkpt>
      <trkpt lat="45.15961" lon="4.31822">
        <ele>934</ele>
        <time>2026-04-24T13:47:03Z</time>
      </trkpt>
      <trkpt lat="45.15955" lon="4.31821">
        <ele>933.9</ele>
        <time>2026-04-24T13:47:08Z</time>
      </trkpt>
      <trkpt lat="45.15948" lon="4.31819">
        <ele>933.8</ele>
        <time>2026-04-24T13:47:13Z</time>
      </trkpt>
      <trkpt lat="45.15941" lon="4.31819">
        <ele>933.6</ele>
        <time>2026-04-24T13:47:18Z</time>
      </trkpt>
      <trkpt lat="45.15937" lon="4.31819">
        <ele>933.5</ele>
        <time>2026-04-24T13:47:23Z</time>
      </trkpt>
      <trkpt lat="45.15931" lon="4.31819">
        <ele>933.3</ele>
        <time>2026-04-24T13:47:28Z</time>
      </trkpt>
      <trkpt lat="45.15925" lon="4.31818">
        <ele>933.2</ele>
        <time>2026-04-24T13:47:33Z</time>
      </trkpt>
      <trkpt lat="45.15918" lon="4.31818">
        <ele>933</ele>
        <time>2026-04-24T13:47:38Z</time>
      </trkpt>
      <trkpt lat="45.15911" lon="4.31819">
        <ele>932.9</ele>
        <time>2026-04-24T13:47:43Z</time>
      </trkpt>
      <trkpt lat="45.15904" lon="4.31821">
        <ele>932.7</ele>
        <time>2026-04-24T13:47:48Z</time>
      </trkpt>
      <trkpt lat="45.15898" lon="4.31822">
        <ele>932.6</ele>
        <time>2026-04-24T13:47:53Z</time>
      </trkpt>
      <trkpt lat="45.15892" lon="4.31822">
        <ele>932.4</ele>
        <time>2026-04-24T13:47:58Z</time>
      </trkpt>
      <trkpt lat="45.15887" lon="4.31823">
        <ele>932.3</ele>
        <time>2026-04-24T13:48:03Z</time>
      </trkpt>
      <trkpt lat="45.15881" lon="4.31822">
        <ele>932.2</ele>
        <time>2026-04-24T13:48:08Z</time>
      </trkpt>
      <trkpt lat="45.15874" lon="4.31819">
        <ele>932.1</ele>
        <time>2026-04-24T13:48:13Z</time>
      </trkpt>
      <trkpt lat="45.15867" lon="4.31817">
        <ele>931.9</ele>
        <time>2026-04-24T13:48:18Z</time>
      </trkpt>
      <trkpt lat="45.15861" lon="4.31814">
        <ele>931.8</ele>
        <time>2026-04-24T13:48:23Z</time>
      </trkpt>
      <trkpt lat="45.15855" lon="4.31811">
        <ele>931.7</ele>
        <time>2026-04-24T13:48:28Z</time>
      </trkpt>
      <trkpt lat="45.15848" lon="4.31808">
        <ele>931.6</ele>
        <time>2026-04-24T13:48:33Z</time>
      </trkpt>
      <trkpt lat="45.15842" lon="4.31804">
        <ele>931.5</ele>
        <time>2026-04-24T13:48:38Z</time>
      </trkpt>
      <trkpt lat="45.15836" lon="4.31799">
        <ele>931.5</ele>
        <time>2026-04-24T13:48:43Z</time>
      </trkpt>
      <trkpt lat="45.1583" lon="4.31794">
        <ele>931.5</ele>
        <time>2026-04-24T13:48:48Z</time>
      </trkpt>
      <trkpt lat="45.15823" lon="4.3179">
        <ele>931.7</ele>
        <time>2026-04-24T13:48:53Z</time>
      </trkpt>
      <trkpt lat="45.15814" lon="4.31786">
        <ele>931.9</ele>
        <time>2026-04-24T13:48:58Z</time>
      </trkpt>
      <trkpt lat="45.15807" lon="4.31783">
        <ele>932.1</ele>
        <time>2026-04-24T13:49:03Z</time>
      </trkpt>
      <trkpt lat="45.15799" lon="4.31778">
        <ele>932.3</ele>
        <time>2026-04-24T13:49:08Z</time>
      </trkpt>
      <trkpt lat="45.15794" lon="4.31777">
        <ele>932.5</ele>
        <time>2026-04-24T13:49:13Z</time>
      </trkpt>
      <trkpt lat="45.15794" lon="4.31776">
        <ele>932.5</ele>
        <time>2026-04-24T13:49:18Z</time>
      </trkpt>
      <trkpt lat="45.15794" lon="4.31776">
        <ele>932.5</ele>
        <time>2026-04-24T13:49:23Z</time>
      </trkpt>
      <trkpt lat="45.15788" lon="4.31772">
        <ele>932.7</ele>
        <time>2026-04-24T13:49:28Z</time>
      </trkpt>
      <trkpt lat="45.15781" lon="4.31767">
        <ele>932.9</ele>
        <time>2026-04-24T13:49:33Z</time>
      </trkpt>
      <trkpt lat="45.15773" lon="4.31762">
        <ele>933.2</ele>
        <time>2026-04-24T13:49:38Z</time>
      </trkpt>
      <trkpt lat="45.15768" lon="4.31756">
        <ele>933.4</ele>
        <time>2026-04-24T13:49:43Z</time>
      </trkpt>
      <trkpt lat="45.15761" lon="4.31753">
        <ele>933.7</ele>
        <time>2026-04-24T13:49:48Z</time>
      </trkpt>
      <trkpt lat="45.15754" lon="4.3175">
        <ele>933.9</ele>
        <time>2026-04-24T13:49:53Z</time>
      </trkpt>
      <trkpt lat="45.15748" lon="4.31746">
        <ele>934</ele>
        <time>2026-04-24T13:49:58Z</time>
      </trkpt>
      <trkpt lat="45.15741" lon="4.31742">
        <ele>934</ele>
        <time>2026-04-24T13:50:03Z</time>
      </trkpt>
      <trkpt lat="45.15735" lon="4.31739">
        <ele>933.9</ele>
        <time>2026-04-24T13:50:08Z</time>
      </trkpt>
      <trkpt lat="45.15728" lon="4.31734">
        <ele>933.8</ele>
        <time>2026-04-24T13:50:13Z</time>
      </trkpt>
      <trkpt lat="45.15721" lon="4.31729">
        <ele>933.7</ele>
        <time>2026-04-24T13:50:18Z</time>
      </trkpt>
      <trkpt lat="45.15715" lon="4.31726">
        <ele>933.6</ele>
        <time>2026-04-24T13:50:23Z</time>
      </trkpt>
      <trkpt lat="45.15709" lon="4.31722">
        <ele>933.5</ele>
        <time>2026-04-24T13:50:28Z</time>
      </trkpt>
      <trkpt lat="45.15701" lon="4.31717">
        <ele>933.3</ele>
        <time>2026-04-24T13:50:33Z</time>
      </trkpt>
      <trkpt lat="45.15694" lon="4.31712">
        <ele>933.2</ele>
        <time>2026-04-24T13:50:38Z</time>
      </trkpt>
      <trkpt lat="45.15687" lon="4.31709">
        <ele>933</ele>
        <time>2026-04-24T13:50:43Z</time>
      </trkpt>
      <trkpt lat="45.1568" lon="4.31703">
        <ele>932.8</ele>
        <time>2026-04-24T13:50:48Z</time>
      </trkpt>
      <trkpt lat="45.15673" lon="4.317">
        <ele>932.6</ele>
        <time>2026-04-24T13:50:53Z</time>
      </trkpt>
      <trkpt lat="45.15666" lon="4.31696">
        <ele>932.3</ele>
        <time>2026-04-24T13:50:58Z</time>
      </trkpt>
      <trkpt lat="45.15659" lon="4.31691">
        <ele>931.6</ele>
        <time>2026-04-24T13:51:03Z</time>
      </trkpt>
      <trkpt lat="45.15651" lon="4.31686">
        <ele>930.8</ele>
        <time>2026-04-24T13:51:08Z</time>
      </trkpt>
      <trkpt lat="45.15644" lon="4.31682">
        <ele>930.1</ele>
        <time>2026-04-24T13:51:13Z</time>
      </trkpt>
      <trkpt lat="45.15638" lon="4.31678">
        <ele>929.4</ele>
        <time>2026-04-24T13:51:18Z</time>
      </trkpt>
      <trkpt lat="45.15632" lon="4.31674">
        <ele>928.8</ele>
        <time>2026-04-24T13:51:23Z</time>
      </trkpt>
      <trkpt lat="45.15626" lon="4.31668">
        <ele>928.1</ele>
        <time>2026-04-24T13:51:28Z</time>
      </trkpt>
      <trkpt lat="45.15619" lon="4.31664">
        <ele>927.3</ele>
        <time>2026-04-24T13:51:33Z</time>
      </trkpt>
      <trkpt lat="45.15613" lon="4.31663">
        <ele>926.7</ele>
        <time>2026-04-24T13:51:38Z</time>
      </trkpt>
      <trkpt lat="45.15612" lon="4.31666">
        <ele>926.7</ele>
        <time>2026-04-24T13:51:43Z</time>
      </trkpt>
      <trkpt lat="45.15613" lon="4.31667">
        <ele>926.9</ele>
        <time>2026-04-24T13:51:48Z</time>
      </trkpt>
      <trkpt lat="45.15613" lon="4.31667">
        <ele>926.9</ele>
        <time>2026-04-24T13:51:53Z</time>
      </trkpt>
      <trkpt lat="45.15609" lon="4.31665">
        <ele>926.4</ele>
        <time>2026-04-24T13:51:58Z</time>
      </trkpt>
      <trkpt lat="45.15606" lon="4.31664">
        <ele>926.1</ele>
        <time>2026-04-24T13:52:03Z</time>
      </trkpt>
      <trkpt lat="45.15606" lon="4.31663">
        <ele>926</ele>
        <time>2026-04-24T13:52:08Z</time>
      </trkpt>
      <trkpt lat="45.15603" lon="4.31666">
        <ele>925.9</ele>
        <time>2026-04-24T13:52:13Z</time>
      </trkpt>
      <trkpt lat="45.156" lon="4.31665">
        <ele>925.5</ele>
        <time>2026-04-24T13:52:18Z</time>
      </trkpt>
      <trkpt lat="45.15599" lon="4.31666">
        <ele>925.5</ele>
        <time>2026-04-24T13:52:23Z</time>
      </trkpt>
      <trkpt lat="45.15599" lon="4.31668">
        <ele>925.5</ele>
        <time>2026-04-24T13:52:28Z</time>
      </trkpt>
      <trkpt lat="45.15601" lon="4.31668">
        <ele>925.7</ele>
        <time>2026-04-24T13:52:33Z</time>
      </trkpt>
      <trkpt lat="45.15597" lon="4.31664">
        <ele>925.2</ele>
        <time>2026-04-24T13:52:38Z</time>
      </trkpt>
      <trkpt lat="45.15592" lon="4.3166">
        <ele>924.5</ele>
        <time>2026-04-24T13:52:43Z</time>
      </trkpt>
      <trkpt lat="45.15586" lon="4.31655">
        <ele>923.7</ele>
        <time>2026-04-24T13:52:48Z</time>
      </trkpt>
      <trkpt lat="45.15581" lon="4.31648">
        <ele>922.9</ele>
        <time>2026-04-24T13:52:53Z</time>
      </trkpt>
      <trkpt lat="45.15574" lon="4.31644">
        <ele>921.9</ele>
        <time>2026-04-24T13:52:58Z</time>
      </trkpt>
      <trkpt lat="45.15567" lon="4.31641">
        <ele>921</ele>
        <time>2026-04-24T13:53:03Z</time>
      </trkpt>
      <trkpt lat="45.15563" lon="4.31633">
        <ele>920.1</ele>
        <time>2026-04-24T13:53:08Z</time>
      </trkpt>
      <trkpt lat="45.1556" lon="4.31625">
        <ele>919.3</ele>
        <time>2026-04-24T13:53:13Z</time>
      </trkpt>
      <trkpt lat="45.15556" lon="4.3162">
        <ele>918.6</ele>
        <time>2026-04-24T13:53:18Z</time>
      </trkpt>
      <trkpt lat="45.15549" lon="4.31616">
        <ele>917.5</ele>
        <time>2026-04-24T13:53:23Z</time>
      </trkpt>
      <trkpt lat="45.15544" lon="4.31613">
        <ele>916.7</ele>
        <time>2026-04-24T13:53:28Z</time>
      </trkpt>
      <trkpt lat="45.1554" lon="4.31605">
        <ele>915.7</ele>
        <time>2026-04-24T13:53:33Z</time>
      </trkpt>
      <trkpt lat="45.15536" lon="4.31599">
        <ele>914.8</ele>
        <time>2026-04-24T13:53:38Z</time>
      </trkpt>
      <trkpt lat="45.1553" lon="4.31594">
        <ele>913.7</ele>
        <time>2026-04-24T13:53:43Z</time>
      </trkpt>
      <trkpt lat="45.15525" lon="4.31594">
        <ele>913.1</ele>
        <time>2026-04-24T13:53:48Z</time>
      </trkpt>
      <trkpt lat="45.15522" lon="4.31586">
        <ele>912.1</ele>
        <time>2026-04-24T13:53:53Z</time>
      </trkpt>
      <trkpt lat="45.15516" lon="4.31574">
        <ele>910.7</ele>
        <time>2026-04-24T13:53:58Z</time>
      </trkpt>
      <trkpt lat="45.15511" lon="4.31564">
        <ele>909.7</ele>
        <time>2026-04-24T13:54:03Z</time>
      </trkpt>
      <trkpt lat="45.15507" lon="4.31558">
        <ele>908.9</ele>
        <time>2026-04-24T13:54:08Z</time>
      </trkpt>
      <trkpt lat="45.15504" lon="4.31548">
        <ele>908.2</ele>
        <time>2026-04-24T13:54:13Z</time>
      </trkpt>
      <trkpt lat="45.15501" lon="4.31542">
        <ele>907.6</ele>
        <time>2026-04-24T13:54:18Z</time>
      </trkpt>
      <trkpt lat="45.15494" lon="4.31543">
        <ele>907</ele>
        <time>2026-04-24T13:54:23Z</time>
      </trkpt>
      <trkpt lat="45.15488" lon="4.31543">
        <ele>906.4</ele>
        <time>2026-04-24T13:54:28Z</time>
      </trkpt>
      <trkpt lat="45.15481" lon="4.31544">
        <ele>905.7</ele>
        <time>2026-04-24T13:54:33Z</time>
      </trkpt>
      <trkpt lat="45.15473" lon="4.31546">
        <ele>905</ele>
        <time>2026-04-24T13:54:38Z</time>
      </trkpt>
      <trkpt lat="45.15467" lon="4.31546">
        <ele>904.4</ele>
        <time>2026-04-24T13:54:43Z</time>
      </trkpt>
      <trkpt lat="45.15462" lon="4.31547">
        <ele>903.9</ele>
        <time>2026-04-24T13:54:48Z</time>
      </trkpt>
      <trkpt lat="45.15452" lon="4.31546">
        <ele>902.9</ele>
        <time>2026-04-24T13:54:53Z</time>
      </trkpt>
      <trkpt lat="45.15446" lon="4.31547">
        <ele>902.3</ele>
        <time>2026-04-24T13:54:58Z</time>
      </trkpt>
      <trkpt lat="45.15445" lon="4.31544">
        <ele>902.2</ele>
        <time>2026-04-24T13:55:03Z</time>
      </trkpt>
      <trkpt lat="45.15445" lon="4.31544">
        <ele>902.2</ele>
        <time>2026-04-24T13:55:08Z</time>
      </trkpt>
      <trkpt lat="45.15445" lon="4.31544">
        <ele>902.2</ele>
        <time>2026-04-24T13:55:13Z</time>
      </trkpt>
      <trkpt lat="45.15445" lon="4.31544">
        <ele>902.2</ele>
        <time>2026-04-24T13:55:18Z</time>
      </trkpt>
      <trkpt lat="45.15445" lon="4.31544">
        <ele>902.2</ele>
        <time>2026-04-24T13:55:23Z</time>
      </trkpt>
      <trkpt lat="45.15442" lon="4.31548">
        <ele>901.9</ele>
        <time>2026-04-24T13:55:28Z</time>
      </trkpt>
      <trkpt lat="45.15435" lon="4.31551">
        <ele>901.2</ele>
        <time>2026-04-24T13:55:33Z</time>
      </trkpt>
      <trkpt lat="45.15427" lon="4.31552">
        <ele>900.4</ele>
        <time>2026-04-24T13:55:38Z</time>
      </trkpt>
      <trkpt lat="45.15421" lon="4.31548">
        <ele>899.9</ele>
        <time>2026-04-24T13:55:43Z</time>
      </trkpt>
      <trkpt lat="45.15415" lon="4.31539">
        <ele>899.5</ele>
        <time>2026-04-24T13:55:48Z</time>
      </trkpt>
      <trkpt lat="45.1541" lon="4.31533">
        <ele>899.3</ele>
        <time>2026-04-24T13:55:53Z</time>
      </trkpt>
      <trkpt lat="45.15405" lon="4.31525">
        <ele>899.1</ele>
        <time>2026-04-24T13:55:58Z</time>
      </trkpt>
      <trkpt lat="45.154" lon="4.3152">
        <ele>898.9</ele>
        <time>2026-04-24T13:56:03Z</time>
      </trkpt>
      <trkpt lat="45.15393" lon="4.31514">
        <ele>898.6</ele>
        <time>2026-04-24T13:56:08Z</time>
      </trkpt>
      <trkpt lat="45.15385" lon="4.31511">
        <ele>898.1</ele>
        <time>2026-04-24T13:56:13Z</time>
      </trkpt>
      <trkpt lat="45.15377" lon="4.31509">
        <ele>897.7</ele>
        <time>2026-04-24T13:56:18Z</time>
      </trkpt>
      <trkpt lat="45.15371" lon="4.31507">
        <ele>897.3</ele>
        <time>2026-04-24T13:56:23Z</time>
      </trkpt>
      <trkpt lat="45.15363" lon="4.31505">
        <ele>896.8</ele>
        <time>2026-04-24T13:56:28Z</time>
      </trkpt>
      <trkpt lat="45.15356" lon="4.31504">
        <ele>896.4</ele>
        <time>2026-04-24T13:56:33Z</time>
      </trkpt>
      <trkpt lat="45.15348" lon="4.31502">
        <ele>895.9</ele>
        <time>2026-04-24T13:56:38Z</time>
      </trkpt>
      <trkpt lat="45.15341" lon="4.31501">
        <ele>895.5</ele>
        <time>2026-04-24T13:56:43Z</time>
      </trkpt>
      <trkpt lat="45.15334" lon="4.31502">
        <ele>895.1</ele>
        <time>2026-04-24T13:56:48Z</time>
      </trkpt>
      <trkpt lat="45.15327" lon="4.31504">
        <ele>895</ele>
        <time>2026-04-24T13:56:53Z</time>
      </trkpt>
      <trkpt lat="45.1532" lon="4.31503">
        <ele>894.8</ele>
        <time>2026-04-24T13:56:58Z</time>
      </trkpt>
      <trkpt lat="45.15317" lon="4.31499">
        <ele>894.6</ele>
        <time>2026-04-24T13:57:03Z</time>
      </trkpt>
      <trkpt lat="45.15314" lon="4.31498">
        <ele>894.6</ele>
        <time>2026-04-24T13:57:08Z</time>
      </trkpt>
      <trkpt lat="45.15311" lon="4.31507">
        <ele>894.7</ele>
        <time>2026-04-24T13:57:13Z</time>
      </trkpt>
      <trkpt lat="45.15307" lon="4.3151">
        <ele>894.7</ele>
        <time>2026-04-24T13:57:18Z</time>
      </trkpt>
      <trkpt lat="45.15301" lon="4.3151">
        <ele>894.6</ele>
        <time>2026-04-24T13:57:23Z</time>
      </trkpt>
      <trkpt lat="45.15295" lon="4.31509">
        <ele>894.4</ele>
        <time>2026-04-24T13:57:28Z</time>
      </trkpt>
      <trkpt lat="45.15291" lon="4.31507">
        <ele>894.3</ele>
        <time>2026-04-24T13:57:33Z</time>
      </trkpt>
      <trkpt lat="45.1529" lon="4.315">
        <ele>894</ele>
        <time>2026-04-24T13:57:38Z</time>
      </trkpt>
      <trkpt lat="45.15291" lon="4.31496">
        <ele>894</ele>
        <time>2026-04-24T13:57:43Z</time>
      </trkpt>
      <trkpt lat="45.15291" lon="4.31496">
        <ele>894</ele>
        <time>2026-04-24T13:57:43Z</time>
      </trkpt>
      <trkpt lat="45.15296" lon="4.315">
        <ele>894.1</ele>
        <time>2026-04-24T14:01:32Z</time>
      </trkpt>
      <trkpt lat="45.15293" lon="4.31502">
        <ele>894.1</ele>
        <time>2026-04-24T14:01:37Z</time>
      </trkpt>
      <trkpt lat="45.15289" lon="4.31503">
        <ele>894.1</ele>
        <time>2026-04-24T14:01:42Z</time>
      </trkpt>
      <trkpt lat="45.15285" lon="4.31505">
        <ele>894.1</ele>
        <time>2026-04-24T14:01:47Z</time>
      </trkpt>
      <trkpt lat="45.15278" lon="4.31502">
        <ele>893.8</ele>
        <time>2026-04-24T14:01:52Z</time>
      </trkpt>
      <trkpt lat="45.15273" lon="4.31501">
        <ele>893.6</ele>
        <time>2026-04-24T14:01:57Z</time>
      </trkpt>
      <trkpt lat="45.15266" lon="4.31499">
        <ele>893.4</ele>
        <time>2026-04-24T14:02:02Z</time>
      </trkpt>
      <trkpt lat="45.1526" lon="4.31498">
        <ele>893.2</ele>
        <time>2026-04-24T14:02:07Z</time>
      </trkpt>
      <trkpt lat="45.15254" lon="4.31496">
        <ele>893</ele>
        <time>2026-04-24T14:02:12Z</time>
      </trkpt>
      <trkpt lat="45.15248" lon="4.31495">
        <ele>892.9</ele>
        <time>2026-04-24T14:02:17Z</time>
      </trkpt>
      <trkpt lat="45.15243" lon="4.31493">
        <ele>892.9</ele>
        <time>2026-04-24T14:02:22Z</time>
      </trkpt>
      <trkpt lat="45.15239" lon="4.31488">
        <ele>892.7</ele>
        <time>2026-04-24T14:02:27Z</time>
      </trkpt>
      <trkpt lat="45.15239" lon="4.31482">
        <ele>892.6</ele>
        <time>2026-04-24T14:02:32Z</time>
      </trkpt>
      <trkpt lat="45.1524" lon="4.31481">
        <ele>892.5</ele>
        <time>2026-04-24T14:02:37Z</time>
      </trkpt>
      <trkpt lat="45.1524" lon="4.31481">
        <ele>892.5</ele>
        <time>2026-04-24T14:02:42Z</time>
      </trkpt>
      <trkpt lat="45.15241" lon="4.31477">
        <ele>892.4</ele>
        <time>2026-04-24T14:02:47Z</time>
      </trkpt>
      <trkpt lat="45.15239" lon="4.31471">
        <ele>892.2</ele>
        <time>2026-04-24T14:02:52Z</time>
      </trkpt>
      <trkpt lat="45.15236" lon="4.31471">
        <ele>892.2</ele>
        <time>2026-04-24T14:02:57Z</time>
      </trkpt>
      <trkpt lat="45.15232" lon="4.31463">
        <ele>891.8</ele>
        <time>2026-04-24T14:03:02Z</time>
      </trkpt>
      <trkpt lat="45.15232" lon="4.31455">
        <ele>891.6</ele>
        <time>2026-04-24T14:03:07Z</time>
      </trkpt>
      <trkpt lat="45.1523" lon="4.31447">
        <ele>891.2</ele>
        <time>2026-04-24T14:03:12Z</time>
      </trkpt>
      <trkpt lat="45.15229" lon="4.3144">
        <ele>890.9</ele>
        <time>2026-04-24T14:03:17Z</time>
      </trkpt>
      <trkpt lat="45.15227" lon="4.31433">
        <ele>890.6</ele>
        <time>2026-04-24T14:03:22Z</time>
      </trkpt>
      <trkpt lat="45.15225" lon="4.31424">
        <ele>890.1</ele>
        <time>2026-04-24T14:03:27Z</time>
      </trkpt>
      <trkpt lat="45.15222" lon="4.31417">
        <ele>889.7</ele>
        <time>2026-04-24T14:03:32Z</time>
      </trkpt>
      <trkpt lat="45.15218" lon="4.31411">
        <ele>889.3</ele>
        <time>2026-04-24T14:03:37Z</time>
      </trkpt>
      <trkpt lat="45.15215" lon="4.31407">
        <ele>889.1</ele>
        <time>2026-04-24T14:03:42Z</time>
      </trkpt>
      <trkpt lat="45.15213" lon="4.31405">
        <ele>889</ele>
        <time>2026-04-24T14:03:47Z</time>
      </trkpt>
      <trkpt lat="45.1521" lon="4.31407">
        <ele>888.9</ele>
        <time>2026-04-24T14:03:52Z</time>
      </trkpt>
      <trkpt lat="45.1521" lon="4.31407">
        <ele>888.9</ele>
        <time>2026-04-24T14:03:57Z</time>
      </trkpt>
      <trkpt lat="45.1521" lon="4.31407">
        <ele>888.9</ele>
        <time>2026-04-24T14:04:02Z</time>
      </trkpt>
      <trkpt lat="45.1521" lon="4.31407">
        <ele>888.9</ele>
        <time>2026-04-24T14:04:07Z</time>
      </trkpt>
      <trkpt lat="45.15211" lon="4.31409">
        <ele>889</ele>
        <time>2026-04-24T14:04:12Z</time>
      </trkpt>
      <trkpt lat="45.15221" lon="4.31436">
        <ele>890.5</ele>
        <time>2026-04-25T06:14:31Z</time>
      </trkpt>
      <trkpt lat="45.15215" lon="4.31423">
        <ele>889.6</ele>
        <time>2026-04-25T06:14:37Z</time>
      </trkpt>
      <trkpt lat="45.15215" lon="4.31417">
        <ele>889.3</ele>
        <time>2026-04-25T06:14:42Z</time>
      </trkpt>
      <trkpt lat="45.15216" lon="4.3141">
        <ele>889.2</ele>
        <time>2026-04-25T06:14:47Z</time>
      </trkpt>
      <trkpt lat="45.15216" lon="4.3141">
        <ele>889.2</ele>
        <time>2026-04-25T06:14:52Z</time>
      </trkpt>
      <trkpt lat="45.15216" lon="4.3141">
        <ele>889.2</ele>
        <time>2026-04-25T06:14:57Z</time>
      </trkpt>
      <trkpt lat="45.1522" lon="4.31413">
        <ele>889.5</ele>
        <time>2026-04-25T06:15:02Z</time>
      </trkpt>
      <trkpt lat="45.1522" lon="4.31417">
        <ele>889.6</ele>
        <time>2026-04-25T06:15:07Z</time>
      </trkpt>
      <trkpt lat="45.15222" lon="4.31422">
        <ele>889.9</ele>
        <time>2026-04-25T06:15:12Z</time>
      </trkpt>
      <trkpt lat="45.15225" lon="4.31427">
        <ele>890.2</ele>
        <time>2026-04-25T06:15:17Z</time>
      </trkpt>
      <trkpt lat="45.15227" lon="4.31434">
        <ele>890.6</ele>
        <time>2026-04-25T06:15:22Z</time>
      </trkpt>
      <trkpt lat="45.15228" lon="4.31441">
        <ele>890.9</ele>
        <time>2026-04-25T06:15:27Z</time>
      </trkpt>
      <trkpt lat="45.1523" lon="4.31451">
        <ele>891.4</ele>
        <time>2026-04-25T06:15:32Z</time>
      </trkpt>
      <trkpt lat="45.15232" lon="4.31459">
        <ele>891.7</ele>
        <time>2026-04-25T06:15:37Z</time>
      </trkpt>
      <trkpt lat="45.15234" lon="4.31467">
        <ele>892</ele>
        <time>2026-04-25T06:15:42Z</time>
      </trkpt>
      <trkpt lat="45.15233" lon="4.31475">
        <ele>892.3</ele>
        <time>2026-04-25T06:15:47Z</time>
      </trkpt>
      <trkpt lat="45.15232" lon="4.31481">
        <ele>892.5</ele>
        <time>2026-04-25T06:15:52Z</time>
      </trkpt>
      <trkpt lat="45.15227" lon="4.31488">
        <ele>892.8</ele>
        <time>2026-04-25T06:15:57Z</time>
      </trkpt>
      <trkpt lat="45.15222" lon="4.31494">
        <ele>893.1</ele>
        <time>2026-04-25T06:16:02Z</time>
      </trkpt>
      <trkpt lat="45.15217" lon="4.31497">
        <ele>893.3</ele>
        <time>2026-04-25T06:16:07Z</time>
      </trkpt>
      <trkpt lat="45.15215" lon="4.31498">
        <ele>893.3</ele>
        <time>2026-04-25T06:16:12Z</time>
      </trkpt>
      <trkpt lat="45.15211" lon="4.315">
        <ele>893.5</ele>
        <time>2026-04-25T06:16:17Z</time>
      </trkpt>
      <trkpt lat="45.15205" lon="4.31497">
        <ele>893.4</ele>
        <time>2026-04-25T06:16:22Z</time>
      </trkpt>
      <trkpt lat="45.15198" lon="4.31496">
        <ele>893.4</ele>
        <time>2026-04-25T06:16:27Z</time>
      </trkpt>
      <trkpt lat="45.15192" lon="4.31497">
        <ele>893.5</ele>
        <time>2026-04-25T06:16:32Z</time>
      </trkpt>
      <trkpt lat="45.15185" lon="4.31499">
        <ele>893.7</ele>
        <time>2026-04-25T06:16:37Z</time>
      </trkpt>
      <trkpt lat="45.1518" lon="4.31502">
        <ele>894</ele>
        <time>2026-04-25T06:16:42Z</time>
      </trkpt>
      <trkpt lat="45.15175" lon="4.31506">
        <ele>894.3</ele>
        <time>2026-04-25T06:16:47Z</time>
      </trkpt>
      <trkpt lat="45.15169" lon="4.3151">
        <ele>894.6</ele>
        <time>2026-04-25T06:16:52Z</time>
      </trkpt>
      <trkpt lat="45.15163" lon="4.31516">
        <ele>894.9</ele>
        <time>2026-04-25T06:16:57Z</time>
      </trkpt>
      <trkpt lat="45.15158" lon="4.31521">
        <ele>895.2</ele>
        <time>2026-04-25T06:17:02Z</time>
      </trkpt>
      <trkpt lat="45.15153" lon="4.31524">
        <ele>895.3</ele>
        <time>2026-04-25T06:17:07Z</time>
      </trkpt>
      <trkpt lat="45.15147" lon="4.31531">
        <ele>895.6</ele>
        <time>2026-04-25T06:17:12Z</time>
      </trkpt>
      <trkpt lat="45.15142" lon="4.31536">
        <ele>895.8</ele>
        <time>2026-04-25T06:17:17Z</time>
      </trkpt>
      <trkpt lat="45.15136" lon="4.31541">
        <ele>895.9</ele>
        <time>2026-04-25T06:17:22Z</time>
      </trkpt>
      <trkpt lat="45.1513" lon="4.31546">
        <ele>896</ele>
        <time>2026-04-25T06:17:27Z</time>
      </trkpt>
      <trkpt lat="45.15127" lon="4.31549">
        <ele>896.1</ele>
        <time>2026-04-25T06:17:32Z</time>
      </trkpt>
      <trkpt lat="45.15122" lon="4.3155">
        <ele>896</ele>
        <time>2026-04-25T06:17:37Z</time>
      </trkpt>
      <trkpt lat="45.15114" lon="4.31553">
        <ele>896</ele>
        <time>2026-04-25T06:17:42Z</time>
      </trkpt>
      <trkpt lat="45.15109" lon="4.31555">
        <ele>895.9</ele>
        <time>2026-04-25T06:17:47Z</time>
      </trkpt>
      <trkpt lat="45.15103" lon="4.31559">
        <ele>895.9</ele>
        <time>2026-04-25T06:17:52Z</time>
      </trkpt>
      <trkpt lat="45.15098" lon="4.3156">
        <ele>895.8</ele>
        <time>2026-04-25T06:17:57Z</time>
      </trkpt>
      <trkpt lat="45.15092" lon="4.31561">
        <ele>895.7</ele>
        <time>2026-04-25T06:18:02Z</time>
      </trkpt>
      <trkpt lat="45.15085" lon="4.31562">
        <ele>895.5</ele>
        <time>2026-04-25T06:18:07Z</time>
      </trkpt>
      <trkpt lat="45.15078" lon="4.31561">
        <ele>894.9</ele>
        <time>2026-04-25T06:18:12Z</time>
      </trkpt>
      <trkpt lat="45.15077" lon="4.31561">
        <ele>894.8</ele>
        <time>2026-04-25T06:18:17Z</time>
      </trkpt>
      <trkpt lat="45.15077" lon="4.31561">
        <ele>894.8</ele>
        <time>2026-04-25T06:18:22Z</time>
      </trkpt>
      <trkpt lat="45.15077" lon="4.31561">
        <ele>894.8</ele>
        <time>2026-04-25T06:18:27Z</time>
      </trkpt>
      <trkpt lat="45.15077" lon="4.31561">
        <ele>894.8</ele>
        <time>2026-04-25T06:18:32Z</time>
      </trkpt>
      <trkpt lat="45.15077" lon="4.31561">
        <ele>894.8</ele>
        <time>2026-04-25T06:18:37Z</time>
      </trkpt>
      <trkpt lat="45.1507" lon="4.31559">
        <ele>894.1</ele>
        <time>2026-04-25T06:18:42Z</time>
      </trkpt>
      <trkpt lat="45.15063" lon="4.31556">
        <ele>893.3</ele>
        <time>2026-04-25T06:18:47Z</time>
      </trkpt>
      <trkpt lat="45.15056" lon="4.31553">
        <ele>892.6</ele>
        <time>2026-04-25T06:18:52Z</time>
      </trkpt>
      <trkpt lat="45.15049" lon="4.31551">
        <ele>891.8</ele>
        <time>2026-04-25T06:18:57Z</time>
      </trkpt>
      <trkpt lat="45.15043" lon="4.31553">
        <ele>891.3</ele>
        <time>2026-04-25T06:19:02Z</time>
      </trkpt>
      <trkpt lat="45.15037" lon="4.31557">
        <ele>890.7</ele>
        <time>2026-04-25T06:19:07Z</time>
      </trkpt>
      <trkpt lat="45.15032" lon="4.31563">
        <ele>890.3</ele>
        <time>2026-04-25T06:19:12Z</time>
      </trkpt>
      <trkpt lat="45.15026" lon="4.31569">
        <ele>889.7</ele>
        <time>2026-04-25T06:19:17Z</time>
      </trkpt>
      <trkpt lat="45.15021" lon="4.31575">
        <ele>889.2</ele>
        <time>2026-04-25T06:19:22Z</time>
      </trkpt>
      <trkpt lat="45.15016" lon="4.31582">
        <ele>888.7</ele>
        <time>2026-04-25T06:19:27Z</time>
      </trkpt>
      <trkpt lat="45.15011" lon="4.31588">
        <ele>888.2</ele>
        <time>2026-04-25T06:19:32Z</time>
      </trkpt>
      <trkpt lat="45.15007" lon="4.31596">
        <ele>887.9</ele>
        <time>2026-04-25T06:19:37Z</time>
      </trkpt>
      <trkpt lat="45.15004" lon="4.316">
        <ele>887.6</ele>
        <time>2026-04-25T06:19:42Z</time>
      </trkpt>
      <trkpt lat="45.15" lon="4.31606">
        <ele>887.3</ele>
        <time>2026-04-25T06:19:47Z</time>
      </trkpt>
      <trkpt lat="45.14995" lon="4.31612">
        <ele>887.3</ele>
        <time>2026-04-25T06:19:52Z</time>
      </trkpt>
      <trkpt lat="45.14991" lon="4.3162">
        <ele>887.4</ele>
        <time>2026-04-25T06:19:57Z</time>
      </trkpt>
      <trkpt lat="45.14987" lon="4.31629">
        <ele>887.5</ele>
        <time>2026-04-25T06:20:02Z</time>
      </trkpt>
      <trkpt lat="45.14984" lon="4.31635">
        <ele>887.5</ele>
        <time>2026-04-25T06:20:07Z</time>
      </trkpt>
      <trkpt lat="45.14983" lon="4.31639">
        <ele>887.5</ele>
        <time>2026-04-25T06:20:12Z</time>
      </trkpt>
      <trkpt lat="45.14983" lon="4.3164">
        <ele>887.5</ele>
        <time>2026-04-25T06:20:17Z</time>
      </trkpt>
      <trkpt lat="45.14983" lon="4.3164">
        <ele>887.5</ele>
        <time>2026-04-25T06:20:22Z</time>
      </trkpt>
      <trkpt lat="45.14983" lon="4.3164">
        <ele>887.5</ele>
        <time>2026-04-25T06:20:27Z</time>
      </trkpt>
      <trkpt lat="45.14983" lon="4.3164">
        <ele>887.5</ele>
        <time>2026-04-25T06:20:32Z</time>
      </trkpt>
      <trkpt lat="45.14983" lon="4.3164">
        <ele>887.5</ele>
        <time>2026-04-25T06:20:37Z</time>
      </trkpt>
      <trkpt lat="45.14983" lon="4.3164">
        <ele>887.5</ele>
        <time>2026-04-25T06:20:42Z</time>
      </trkpt>
      <trkpt lat="45.14983" lon="4.3164">
        <ele>887.5</ele>
        <time>2026-04-25T06:20:47Z</time>
      </trkpt>
      <trkpt lat="45.14983" lon="4.3164">
        <ele>887.5</ele>
        <time>2026-04-25T06:20:52Z</time>
      </trkpt>
      <trkpt lat="45.14983" lon="4.3164">
        <ele>887.5</ele>
        <time>2026-04-25T06:20:57Z</time>
      </trkpt>
      <trkpt lat="45.14983" lon="4.3164">
        <ele>887.5</ele>
        <time>2026-04-25T06:21:02Z</time>
      </trkpt>
      <trkpt lat="45.14983" lon="4.3164">
        <ele>887.5</ele>
        <time>2026-04-25T06:21:07Z</time>
      </trkpt>
      <trkpt lat="45.14983" lon="4.3164">
        <ele>887.5</ele>
        <time>2026-04-25T06:21:12Z</time>
      </trkpt>
      <trkpt lat="45.14983" lon="4.3164">
        <ele>887.5</ele>
        <time>2026-04-25T06:21:17Z</time>
      </trkpt>
      <trkpt lat="45.14983" lon="4.3164">
        <ele>887.5</ele>
        <time>2026-04-25T06:21:22Z</time>
      </trkpt>
      <trkpt lat="45.14983" lon="4.3164">
        <ele>887.5</ele>
        <time>2026-04-25T06:21:27Z</time>
      </trkpt>
      <trkpt lat="45.14983" lon="4.3164">
        <ele>887.5</ele>
        <time>2026-04-25T06:21:32Z</time>
      </trkpt>
      <trkpt lat="45.14983" lon="4.3164">
        <ele>887.5</ele>
        <time>2026-04-25T06:21:37Z</time>
      </trkpt>
      <trkpt lat="45.14981" lon="4.31642">
        <ele>887.5</ele>
        <time>2026-04-25T06:21:42Z</time>
      </trkpt>
      <trkpt lat="45.14976" lon="4.3165">
        <ele>887.6</ele>
        <time>2026-04-25T06:21:47Z</time>
      </trkpt>
      <trkpt lat="45.14972" lon="4.31656">
        <ele>887.6</ele>
        <time>2026-04-25T06:21:52Z</time>
      </trkpt>
      <trkpt lat="45.14968" lon="4.31665">
        <ele>887.6</ele>
        <time>2026-04-25T06:21:57Z</time>
      </trkpt>
      <trkpt lat="45.14965" lon="4.31674">
        <ele>887.8</ele>
        <time>2026-04-25T06:22:02Z</time>
      </trkpt>
      <trkpt lat="45.14961" lon="4.31683">
        <ele>887.9</ele>
        <time>2026-04-25T06:22:07Z</time>
      </trkpt>
      <trkpt lat="45.14958" lon="4.31692">
        <ele>888.1</ele>
        <time>2026-04-25T06:22:12Z</time>
      </trkpt>
      <trkpt lat="45.14956" lon="4.31701">
        <ele>888.3</ele>
        <time>2026-04-25T06:22:17Z</time>
      </trkpt>
      <trkpt lat="45.14955" lon="4.31707">
        <ele>888.4</ele>
        <time>2026-04-25T06:22:22Z</time>
      </trkpt>
      <trkpt lat="45.14954" lon="4.3171">
        <ele>888.4</ele>
        <time>2026-04-25T06:22:27Z</time>
      </trkpt>
      <trkpt lat="45.14954" lon="4.31712">
        <ele>888.5</ele>
        <time>2026-04-25T06:22:32Z</time>
      </trkpt>
      <trkpt lat="45.14952" lon="4.31715">
        <ele>888.5</ele>
        <time>2026-04-25T06:22:37Z</time>
      </trkpt>
      <trkpt lat="45.14946" lon="4.31718">
        <ele>888.4</ele>
        <time>2026-04-25T06:22:42Z</time>
      </trkpt>
      <trkpt lat="45.14939" lon="4.31715">
        <ele>888.2</ele>
        <time>2026-04-25T06:22:47Z</time>
      </trkpt>
      <trkpt lat="45.14932" lon="4.3171">
        <ele>887.9</ele>
        <time>2026-04-25T06:22:52Z</time>
      </trkpt>
      <trkpt lat="45.14925" lon="4.31704">
        <ele>887.6</ele>
        <time>2026-04-25T06:22:57Z</time>
      </trkpt>
      <trkpt lat="45.1492" lon="4.31697">
        <ele>887.4</ele>
        <time>2026-04-25T06:23:02Z</time>
      </trkpt>
      <trkpt lat="45.14914" lon="4.3169">
        <ele>887.4</ele>
        <time>2026-04-25T06:23:07Z</time>
      </trkpt>
      <trkpt lat="45.14907" lon="4.31685">
        <ele>887.7</ele>
        <time>2026-04-25T06:23:12Z</time>
      </trkpt>
      <trkpt lat="45.14901" lon="4.31679">
        <ele>888</ele>
        <time>2026-04-25T06:23:17Z</time>
      </trkpt>
      <trkpt lat="45.14895" lon="4.31674">
        <ele>888.3</ele>
        <time>2026-04-25T06:23:22Z</time>
      </trkpt>
      <trkpt lat="45.14888" lon="4.31673">
        <ele>888.7</ele>
        <time>2026-04-25T06:23:27Z</time>
      </trkpt>
      <trkpt lat="45.1488" lon="4.31674">
        <ele>889.2</ele>
        <time>2026-04-25T06:23:32Z</time>
      </trkpt>
      <trkpt lat="45.14872" lon="4.31674">
        <ele>889.6</ele>
        <time>2026-04-25T06:23:37Z</time>
      </trkpt>
      <trkpt lat="45.14864" lon="4.31672">
        <ele>890.1</ele>
        <time>2026-04-25T06:23:42Z</time>
      </trkpt>
      <trkpt lat="45.14857" lon="4.31668">
        <ele>890.6</ele>
        <time>2026-04-25T06:23:47Z</time>
      </trkpt>
      <trkpt lat="45.14851" lon="4.31665">
        <ele>891.1</ele>
        <time>2026-04-25T06:23:52Z</time>
      </trkpt>
      <trkpt lat="45.14846" lon="4.31663">
        <ele>891.5</ele>
        <time>2026-04-25T06:23:57Z</time>
      </trkpt>
      <trkpt lat="45.1484" lon="4.31659">
        <ele>892.3</ele>
        <time>2026-04-25T06:24:02Z</time>
      </trkpt>
      <trkpt lat="45.14835" lon="4.31656">
        <ele>892.9</ele>
        <time>2026-04-25T06:24:07Z</time>
      </trkpt>
      <trkpt lat="45.1483" lon="4.31654">
        <ele>893.6</ele>
        <time>2026-04-25T06:24:12Z</time>
      </trkpt>
      <trkpt lat="45.14824" lon="4.31647">
        <ele>894.9</ele>
        <time>2026-04-25T06:24:17Z</time>
      </trkpt>
      <trkpt lat="45.14819" lon="4.31641">
        <ele>896</ele>
        <time>2026-04-25T06:24:22Z</time>
      </trkpt>
      <trkpt lat="45.14814" lon="4.31635">
        <ele>897.2</ele>
        <time>2026-04-25T06:24:27Z</time>
      </trkpt>
      <trkpt lat="45.14807" lon="4.31633">
        <ele>898.1</ele>
        <time>2026-04-25T06:24:32Z</time>
      </trkpt>
      <trkpt lat="45.14802" lon="4.31633">
        <ele>898.7</ele>
        <time>2026-04-25T06:24:37Z</time>
      </trkpt>
      <trkpt lat="45.14792" lon="4.31639">
        <ele>899.1</ele>
        <time>2026-04-25T06:24:42Z</time>
      </trkpt>
      <trkpt lat="45.14787" lon="4.31644">
        <ele>899.1</ele>
        <time>2026-04-25T06:24:47Z</time>
      </trkpt>
      <trkpt lat="45.14781" lon="4.31649">
        <ele>899.1</ele>
        <time>2026-04-25T06:24:52Z</time>
      </trkpt>
      <trkpt lat="45.14778" lon="4.31656">
        <ele>898.6</ele>
        <time>2026-04-25T06:24:57Z</time>
      </trkpt>
      <trkpt lat="45.14774" lon="4.3166">
        <ele>898.5</ele>
        <time>2026-04-25T06:25:02Z</time>
      </trkpt>
      <trkpt lat="45.1477" lon="4.31666">
        <ele>898.2</ele>
        <time>2026-04-25T06:25:07Z</time>
      </trkpt>
      <trkpt lat="45.14765" lon="4.31672">
        <ele>898.3</ele>
        <time>2026-04-25T06:25:12Z</time>
      </trkpt>
      <trkpt lat="45.1476" lon="4.31678">
        <ele>898.5</ele>
        <time>2026-04-25T06:25:17Z</time>
      </trkpt>
      <trkpt lat="45.14755" lon="4.31684">
        <ele>898.7</ele>
        <time>2026-04-25T06:25:22Z</time>
      </trkpt>
      <trkpt lat="45.1475" lon="4.3169">
        <ele>898.9</ele>
        <time>2026-04-25T06:25:27Z</time>
      </trkpt>
      <trkpt lat="45.14745" lon="4.31696">
        <ele>899.6</ele>
        <time>2026-04-25T06:25:32Z</time>
      </trkpt>
      <trkpt lat="45.1474" lon="4.31703">
        <ele>900.2</ele>
        <time>2026-04-25T06:25:37Z</time>
      </trkpt>
      <trkpt lat="45.14735" lon="4.31709">
        <ele>900.9</ele>
        <time>2026-04-25T06:25:42Z</time>
      </trkpt>
      <trkpt lat="45.14731" lon="4.31715">
        <ele>901.4</ele>
        <time>2026-04-25T06:25:47Z</time>
      </trkpt>
      <trkpt lat="45.14726" lon="4.31721">
        <ele>902.1</ele>
        <time>2026-04-25T06:25:52Z</time>
      </trkpt>
      <trkpt lat="45.14723" lon="4.31728">
        <ele>902.3</ele>
        <time>2026-04-25T06:25:57Z</time>
      </trkpt>
      <trkpt lat="45.14717" lon="4.31733">
        <ele>903.2</ele>
        <time>2026-04-25T06:26:02Z</time>
      </trkpt>
      <trkpt lat="45.14712" lon="4.3174">
        <ele>903.8</ele>
        <time>2026-04-25T06:26:07Z</time>
      </trkpt>
      <trkpt lat="45.14707" lon="4.31745">
        <ele>904.5</ele>
        <time>2026-04-25T06:26:12Z</time>
      </trkpt>
      <trkpt lat="45.147" lon="4.3175">
        <ele>905.6</ele>
        <time>2026-04-25T06:26:17Z</time>
      </trkpt>
      <trkpt lat="45.14695" lon="4.31754">
        <ele>906.2</ele>
        <time>2026-04-25T06:26:22Z</time>
      </trkpt>
      <trkpt lat="45.14689" lon="4.31759">
        <ele>906.8</ele>
        <time>2026-04-25T06:26:27Z</time>
      </trkpt>
      <trkpt lat="45.14684" lon="4.31762">
        <ele>907.3</ele>
        <time>2026-04-25T06:26:32Z</time>
      </trkpt>
      <trkpt lat="45.14678" lon="4.31765">
        <ele>908</ele>
        <time>2026-04-25T06:26:37Z</time>
      </trkpt>
      <trkpt lat="45.14672" lon="4.31767">
        <ele>908.8</ele>
        <time>2026-04-25T06:26:42Z</time>
      </trkpt>
      <trkpt lat="45.14666" lon="4.3177">
        <ele>909.5</ele>
        <time>2026-04-25T06:26:47Z</time>
      </trkpt>
      <trkpt lat="45.14661" lon="4.31773">
        <ele>910</ele>
        <time>2026-04-25T06:26:52Z</time>
      </trkpt>
      <trkpt lat="45.14656" lon="4.31775">
        <ele>910.6</ele>
        <time>2026-04-25T06:26:57Z</time>
      </trkpt>
      <trkpt lat="45.14649" lon="4.31778">
        <ele>911.5</ele>
        <time>2026-04-25T06:27:02Z</time>
      </trkpt>
      <trkpt lat="45.14645" lon="4.31781">
        <ele>911.9</ele>
        <time>2026-04-25T06:27:07Z</time>
      </trkpt>
      <trkpt lat="45.14642" lon="4.31782">
        <ele>912.3</ele>
        <time>2026-04-25T06:27:12Z</time>
      </trkpt>
      <trkpt lat="45.14637" lon="4.31783">
        <ele>913.1</ele>
        <time>2026-04-25T06:27:17Z</time>
      </trkpt>
      <trkpt lat="45.14633" lon="4.31785">
        <ele>913.7</ele>
        <time>2026-04-25T06:27:22Z</time>
      </trkpt>
      <trkpt lat="45.1463" lon="4.31787">
        <ele>914</ele>
        <time>2026-04-25T06:27:27Z</time>
      </trkpt>
      <trkpt lat="45.14626" lon="4.31789">
        <ele>914.6</ele>
        <time>2026-04-25T06:27:32Z</time>
      </trkpt>
      <trkpt lat="45.14623" lon="4.31791">
        <ele>914.9</ele>
        <time>2026-04-25T06:27:37Z</time>
      </trkpt>
      <trkpt lat="45.1462" lon="4.31793">
        <ele>915.3</ele>
        <time>2026-04-25T06:27:42Z</time>
      </trkpt>
      <trkpt lat="45.14619" lon="4.31794">
        <ele>915.4</ele>
        <time>2026-04-25T06:27:47Z</time>
      </trkpt>
      <trkpt lat="45.14619" lon="4.31794">
        <ele>915.4</ele>
        <time>2026-04-25T06:27:52Z</time>
      </trkpt>
      <trkpt lat="45.14619" lon="4.31794">
        <ele>915.4</ele>
        <time>2026-04-25T06:27:57Z</time>
      </trkpt>
      <trkpt lat="45.14619" lon="4.31794">
        <ele>915.4</ele>
        <time>2026-04-25T06:28:02Z</time>
      </trkpt>
      <trkpt lat="45.14619" lon="4.31794">
        <ele>915.4</ele>
        <time>2026-04-25T06:28:07Z</time>
      </trkpt>
      <trkpt lat="45.14619" lon="4.31794">
        <ele>915.4</ele>
        <time>2026-04-25T06:28:12Z</time>
      </trkpt>
      <trkpt lat="45.14619" lon="4.31794">
        <ele>915.4</ele>
        <time>2026-04-25T06:28:17Z</time>
      </trkpt>
      <trkpt lat="45.14619" lon="4.31794">
        <ele>915.4</ele>
        <time>2026-04-25T06:28:22Z</time>
      </trkpt>
      <trkpt lat="45.14619" lon="4.31794">
        <ele>915.4</ele>
        <time>2026-04-25T06:28:27Z</time>
      </trkpt>
      <trkpt lat="45.14619" lon="4.31794">
        <ele>915.4</ele>
        <time>2026-04-25T06:28:32Z</time>
      </trkpt>
      <trkpt lat="45.14619" lon="4.31794">
        <ele>915.4</ele>
        <time>2026-04-25T06:28:37Z</time>
      </trkpt>
      <trkpt lat="45.14619" lon="4.31794">
        <ele>915.4</ele>
        <time>2026-04-25T06:28:42Z</time>
      </trkpt>
      <trkpt lat="45.14616" lon="4.31802">
        <ele>915.3</ele>
        <time>2026-04-25T06:28:47Z</time>
      </trkpt>
      <trkpt lat="45.1461" lon="4.31804">
        <ele>916.4</ele>
        <time>2026-04-25T06:28:52Z</time>
      </trkpt>
      <trkpt lat="45.14606" lon="4.31806">
        <ele>917</ele>
        <time>2026-04-25T06:28:57Z</time>
      </trkpt>
      <trkpt lat="45.14601" lon="4.3181">
        <ele>917.7</ele>
        <time>2026-04-25T06:29:02Z</time>
      </trkpt>
      <trkpt lat="45.14594" lon="4.31814">
        <ele>918.9</ele>
        <time>2026-04-25T06:29:07Z</time>
      </trkpt>
      <trkpt lat="45.14588" lon="4.3182">
        <ele>919.8</ele>
        <time>2026-04-25T06:29:12Z</time>
      </trkpt>
      <trkpt lat="45.14583" lon="4.31824">
        <ele>920.6</ele>
        <time>2026-04-25T06:29:17Z</time>
      </trkpt>
      <trkpt lat="45.14577" lon="4.31829">
        <ele>921.5</ele>
        <time>2026-04-25T06:29:22Z</time>
      </trkpt>
      <trkpt lat="45.14569" lon="4.31833">
        <ele>922.9</ele>
        <time>2026-04-25T06:29:27Z</time>
      </trkpt>
      <trkpt lat="45.14563" lon="4.31837">
        <ele>923.7</ele>
        <time>2026-04-25T06:29:32Z</time>
      </trkpt>
      <trkpt lat="45.14558" lon="4.31839">
        <ele>924.5</ele>
        <time>2026-04-25T06:29:37Z</time>
      </trkpt>
      <trkpt lat="45.1455" lon="4.31841">
        <ele>926</ele>
        <time>2026-04-25T06:29:42Z</time>
      </trkpt>
      <trkpt lat="45.14542" lon="4.31843">
        <ele>927.4</ele>
        <time>2026-04-25T06:29:47Z</time>
      </trkpt>
      <trkpt lat="45.14534" lon="4.31844">
        <ele>929</ele>
        <time>2026-04-25T06:29:52Z</time>
      </trkpt>
      <trkpt lat="45.14527" lon="4.31847">
        <ele>930.2</ele>
        <time>2026-04-25T06:29:57Z</time>
      </trkpt>
      <trkpt lat="45.14521" lon="4.3185">
        <ele>931.3</ele>
        <time>2026-04-25T06:30:02Z</time>
      </trkpt>
      <trkpt lat="45.14517" lon="4.31854">
        <ele>931.8</ele>
        <time>2026-04-25T06:30:07Z</time>
      </trkpt>
      <trkpt lat="45.14512" lon="4.31858">
        <ele>932.6</ele>
        <time>2026-04-25T06:30:12Z</time>
      </trkpt>
      <trkpt lat="45.14505" lon="4.31864">
        <ele>933.7</ele>
        <time>2026-04-25T06:30:17Z</time>
      </trkpt>
      <trkpt lat="45.14498" lon="4.3187">
        <ele>934.5</ele>
        <time>2026-04-25T06:30:22Z</time>
      </trkpt>
      <trkpt lat="45.14494" lon="4.31876">
        <ele>934.4</ele>
        <time>2026-04-25T06:30:27Z</time>
      </trkpt>
      <trkpt lat="45.1449" lon="4.31881">
        <ele>934.4</ele>
        <time>2026-04-25T06:30:32Z</time>
      </trkpt>
      <trkpt lat="45.14486" lon="4.31888">
        <ele>934.3</ele>
        <time>2026-04-25T06:30:37Z</time>
      </trkpt>
      <trkpt lat="45.14481" lon="4.31894">
        <ele>934.4</ele>
        <time>2026-04-25T06:30:42Z</time>
      </trkpt>
      <trkpt lat="45.14475" lon="4.31904">
        <ele>934.4</ele>
        <time>2026-04-25T06:30:47Z</time>
      </trkpt>
      <trkpt lat="45.14473" lon="4.31914">
        <ele>934.1</ele>
        <time>2026-04-25T06:30:52Z</time>
      </trkpt>
      <trkpt lat="45.14467" lon="4.31921">
        <ele>934.5</ele>
        <time>2026-04-25T06:30:57Z</time>
      </trkpt>
      <trkpt lat="45.14465" lon="4.31925">
        <ele>934.7</ele>
        <time>2026-04-25T06:31:02Z</time>
      </trkpt>
      <trkpt lat="45.14463" lon="4.3193">
        <ele>934.9</ele>
        <time>2026-04-25T06:31:07Z</time>
      </trkpt>
      <trkpt lat="45.1446" lon="4.31934">
        <ele>935.2</ele>
        <time>2026-04-25T06:31:12Z</time>
      </trkpt>
      <trkpt lat="45.14455" lon="4.31948">
        <ele>935.7</ele>
        <time>2026-04-25T06:31:17Z</time>
      </trkpt>
      <trkpt lat="45.14454" lon="4.31954">
        <ele>935.7</ele>
        <time>2026-04-25T06:31:22Z</time>
      </trkpt>
      <trkpt lat="45.14453" lon="4.31966">
        <ele>935.7</ele>
        <time>2026-04-25T06:31:27Z</time>
      </trkpt>
      <trkpt lat="45.14452" lon="4.31975">
        <ele>935.8</ele>
        <time>2026-04-25T06:31:32Z</time>
      </trkpt>
      <trkpt lat="45.14451" lon="4.31986">
        <ele>935.8</ele>
        <time>2026-04-25T06:31:37Z</time>
      </trkpt>
      <trkpt lat="45.14448" lon="4.31996">
        <ele>936</ele>
        <time>2026-04-25T06:31:42Z</time>
      </trkpt>
      <trkpt lat="45.14445" lon="4.32005">
        <ele>936.3</ele>
        <time>2026-04-25T06:31:47Z</time>
      </trkpt>
      <trkpt lat="45.14444" lon="4.32007">
        <ele>936.4</ele>
        <time>2026-04-25T06:31:52Z</time>
      </trkpt>
      <trkpt lat="45.14443" lon="4.32007">
        <ele>936.5</ele>
        <time>2026-04-25T06:31:57Z</time>
      </trkpt>
      <trkpt lat="45.1444" lon="4.32009">
        <ele>936.8</ele>
        <time>2026-04-25T06:32:02Z</time>
      </trkpt>
      <trkpt lat="45.14436" lon="4.3201">
        <ele>937.2</ele>
        <time>2026-04-25T06:32:07Z</time>
      </trkpt>
      <trkpt lat="45.14432" lon="4.32013">
        <ele>937.6</ele>
        <time>2026-04-25T06:32:12Z</time>
      </trkpt>
      <trkpt lat="45.14429" lon="4.32013">
        <ele>937.9</ele>
        <time>2026-04-25T06:32:17Z</time>
      </trkpt>
      <trkpt lat="45.14426" lon="4.32014">
        <ele>938.2</ele>
        <time>2026-04-25T06:32:22Z</time>
      </trkpt>
      <trkpt lat="45.14421" lon="4.32014">
        <ele>938.7</ele>
        <time>2026-04-25T06:32:27Z</time>
      </trkpt>
      <trkpt lat="45.14416" lon="4.32013">
        <ele>939.2</ele>
        <time>2026-04-25T06:32:32Z</time>
      </trkpt>
      <trkpt lat="45.1441" lon="4.32012">
        <ele>939.5</ele>
        <time>2026-04-25T06:32:37Z</time>
      </trkpt>
      <trkpt lat="45.14402" lon="4.32013">
        <ele>939.8</ele>
        <time>2026-04-25T06:32:42Z</time>
      </trkpt>
      <trkpt lat="45.14395" lon="4.32013">
        <ele>940.2</ele>
        <time>2026-04-25T06:32:47Z</time>
      </trkpt>
      <trkpt lat="45.14391" lon="4.32011">
        <ele>940.3</ele>
        <time>2026-04-25T06:32:52Z</time>
      </trkpt>
      <trkpt lat="45.14386" lon="4.32009">
        <ele>940.5</ele>
        <time>2026-04-25T06:32:57Z</time>
      </trkpt>
      <trkpt lat="45.14383" lon="4.32006">
        <ele>940.5</ele>
        <time>2026-04-25T06:33:02Z</time>
      </trkpt>
      <trkpt lat="45.14378" lon="4.32003">
        <ele>940.5</ele>
        <time>2026-04-25T06:33:07Z</time>
      </trkpt>
      <trkpt lat="45.14373" lon="4.32001">
        <ele>940.6</ele>
        <time>2026-04-25T06:33:12Z</time>
      </trkpt>
      <trkpt lat="45.14368" lon="4.31998">
        <ele>940.7</ele>
        <time>2026-04-25T06:33:17Z</time>
      </trkpt>
      <trkpt lat="45.14363" lon="4.31998">
        <ele>940.9</ele>
        <time>2026-04-25T06:33:22Z</time>
      </trkpt>
      <trkpt lat="45.14359" lon="4.31995">
        <ele>941.1</ele>
        <time>2026-04-25T06:33:27Z</time>
      </trkpt>
      <trkpt lat="45.14355" lon="4.31991">
        <ele>941.2</ele>
        <time>2026-04-25T06:33:32Z</time>
      </trkpt>
      <trkpt lat="45.1435" lon="4.31987">
        <ele>941.3</ele>
        <time>2026-04-25T06:33:37Z</time>
      </trkpt>
      <trkpt lat="45.14343" lon="4.31984">
        <ele>941.5</ele>
        <time>2026-04-25T06:33:42Z</time>
      </trkpt>
      <trkpt lat="45.14337" lon="4.31981">
        <ele>941.7</ele>
        <time>2026-04-25T06:33:47Z</time>
      </trkpt>
      <trkpt lat="45.14333" lon="4.3198">
        <ele>941.7</ele>
        <time>2026-04-25T06:33:52Z</time>
      </trkpt>
      <trkpt lat="45.14327" lon="4.3198">
        <ele>941.5</ele>
        <time>2026-04-25T06:33:57Z</time>
      </trkpt>
      <trkpt lat="45.1432" lon="4.31982">
        <ele>941.3</ele>
        <time>2026-04-25T06:34:02Z</time>
      </trkpt>
      <trkpt lat="45.14312" lon="4.31983">
        <ele>941</ele>
        <time>2026-04-25T06:34:07Z</time>
      </trkpt>
      <trkpt lat="45.14305" lon="4.31986">
        <ele>940.7</ele>
        <time>2026-04-25T06:34:12Z</time>
      </trkpt>
      <trkpt lat="45.14298" lon="4.31986">
        <ele>940.4</ele>
        <time>2026-04-25T06:34:17Z</time>
      </trkpt>
      <trkpt lat="45.14291" lon="4.31988">
        <ele>940.1</ele>
        <time>2026-04-25T06:34:22Z</time>
      </trkpt>
      <trkpt lat="45.14283" lon="4.3199">
        <ele>939.8</ele>
        <time>2026-04-25T06:34:27Z</time>
      </trkpt>
      <trkpt lat="45.14276" lon="4.31993">
        <ele>939.4</ele>
        <time>2026-04-25T06:34:32Z</time>
      </trkpt>
      <trkpt lat="45.14271" lon="4.31997">
        <ele>939.1</ele>
        <time>2026-04-25T06:34:37Z</time>
      </trkpt>
      <trkpt lat="45.14267" lon="4.32001">
        <ele>938.9</ele>
        <time>2026-04-25T06:34:42Z</time>
      </trkpt>
      <trkpt lat="45.14265" lon="4.32003">
        <ele>939.1</ele>
        <time>2026-04-25T06:34:47Z</time>
      </trkpt>
      <trkpt lat="45.14261" lon="4.32008">
        <ele>939.4</ele>
        <time>2026-04-25T06:34:52Z</time>
      </trkpt>
      <trkpt lat="45.14259" lon="4.3201">
        <ele>939.6</ele>
        <time>2026-04-25T06:34:57Z</time>
      </trkpt>
      <trkpt lat="45.14251" lon="4.32011">
        <ele>939.4</ele>
        <time>2026-04-25T06:35:02Z</time>
      </trkpt>
      <trkpt lat="45.14242" lon="4.3201">
        <ele>939.9</ele>
        <time>2026-04-25T06:35:07Z</time>
      </trkpt>
      <trkpt lat="45.14235" lon="4.32011">
        <ele>940.7</ele>
        <time>2026-04-25T06:35:12Z</time>
      </trkpt>
      <trkpt lat="45.14229" lon="4.32013">
        <ele>941.4</ele>
        <time>2026-04-25T06:35:17Z</time>
      </trkpt>
      <trkpt lat="45.14223" lon="4.32015">
        <ele>942.2</ele>
        <time>2026-04-25T06:35:22Z</time>
      </trkpt>
      <trkpt lat="45.14217" lon="4.32019">
        <ele>943.1</ele>
        <time>2026-04-25T06:35:27Z</time>
      </trkpt>
      <trkpt lat="45.14212" lon="4.32022">
        <ele>943.8</ele>
        <time>2026-04-25T06:35:32Z</time>
      </trkpt>
      <trkpt lat="45.14206" lon="4.32025">
        <ele>944.6</ele>
        <time>2026-04-25T06:35:37Z</time>
      </trkpt>
      <trkpt lat="45.142" lon="4.32027">
        <ele>945.3</ele>
        <time>2026-04-25T06:35:42Z</time>
      </trkpt>
      <trkpt lat="45.14195" lon="4.3203">
        <ele>945.9</ele>
        <time>2026-04-25T06:35:47Z</time>
      </trkpt>
      <trkpt lat="45.14191" lon="4.32032">
        <ele>946.4</ele>
        <time>2026-04-25T06:35:52Z</time>
      </trkpt>
      <trkpt lat="45.14187" lon="4.32032">
        <ele>946.7</ele>
        <time>2026-04-25T06:35:57Z</time>
      </trkpt>
      <trkpt lat="45.14182" lon="4.32032">
        <ele>947.1</ele>
        <time>2026-04-25T06:36:02Z</time>
      </trkpt>
      <trkpt lat="45.14174" lon="4.32032">
        <ele>947.7</ele>
        <time>2026-04-25T06:36:07Z</time>
      </trkpt>
      <trkpt lat="45.14166" lon="4.32035">
        <ele>948.5</ele>
        <time>2026-04-25T06:36:12Z</time>
      </trkpt>
      <trkpt lat="45.14157" lon="4.32036">
        <ele>947.8</ele>
        <time>2026-04-25T06:36:17Z</time>
      </trkpt>
      <trkpt lat="45.14151" lon="4.3204">
        <ele>947.6</ele>
        <time>2026-04-25T06:36:22Z</time>
      </trkpt>
      <trkpt lat="45.14146" lon="4.32042">
        <ele>947.3</ele>
        <time>2026-04-25T06:36:27Z</time>
      </trkpt>
      <trkpt lat="45.14142" lon="4.32045">
        <ele>947.1</ele>
        <time>2026-04-25T06:36:32Z</time>
      </trkpt>
      <trkpt lat="45.14133" lon="4.32051">
        <ele>946.7</ele>
        <time>2026-04-25T06:36:37Z</time>
      </trkpt>
      <trkpt lat="45.14125" lon="4.32053">
        <ele>946</ele>
        <time>2026-04-25T06:36:42Z</time>
      </trkpt>
      <trkpt lat="45.14117" lon="4.32056">
        <ele>945.4</ele>
        <time>2026-04-25T06:36:47Z</time>
      </trkpt>
      <trkpt lat="45.14111" lon="4.32056">
        <ele>944.9</ele>
        <time>2026-04-25T06:36:52Z</time>
      </trkpt>
      <trkpt lat="45.14104" lon="4.32059">
        <ele>944.4</ele>
        <time>2026-04-25T06:36:57Z</time>
      </trkpt>
      <trkpt lat="45.14095" lon="4.32061">
        <ele>943.6</ele>
        <time>2026-04-25T06:37:02Z</time>
      </trkpt>
      <trkpt lat="45.14087" lon="4.32063">
        <ele>942.9</ele>
        <time>2026-04-25T06:37:07Z</time>
      </trkpt>
      <trkpt lat="45.14082" lon="4.32064">
        <ele>942.6</ele>
        <time>2026-04-25T06:37:12Z</time>
      </trkpt>
      <trkpt lat="45.14076" lon="4.32067">
        <ele>942.9</ele>
        <time>2026-04-25T06:37:17Z</time>
      </trkpt>
      <trkpt lat="45.1407" lon="4.32072">
        <ele>943.3</ele>
        <time>2026-04-25T06:37:22Z</time>
      </trkpt>
      <trkpt lat="45.14064" lon="4.32074">
        <ele>943.5</ele>
        <time>2026-04-25T06:37:27Z</time>
      </trkpt>
      <trkpt lat="45.14057" lon="4.32075">
        <ele>943.8</ele>
        <time>2026-04-25T06:37:32Z</time>
      </trkpt>
      <trkpt lat="45.1405" lon="4.32076">
        <ele>944.1</ele>
        <time>2026-04-25T06:37:37Z</time>
      </trkpt>
      <trkpt lat="45.14042" lon="4.32076">
        <ele>944.4</ele>
        <time>2026-04-25T06:37:42Z</time>
      </trkpt>
      <trkpt lat="45.14034" lon="4.32079">
        <ele>944.7</ele>
        <time>2026-04-25T06:37:47Z</time>
      </trkpt>
      <trkpt lat="45.14026" lon="4.3208">
        <ele>945</ele>
        <time>2026-04-25T06:37:52Z</time>
      </trkpt>
      <trkpt lat="45.14019" lon="4.32083">
        <ele>945.3</ele>
        <time>2026-04-25T06:37:57Z</time>
      </trkpt>
      <trkpt lat="45.14012" lon="4.32083">
        <ele>945.6</ele>
        <time>2026-04-25T06:38:02Z</time>
      </trkpt>
      <trkpt lat="45.14005" lon="4.32086">
        <ele>945.7</ele>
        <time>2026-04-25T06:38:07Z</time>
      </trkpt>
      <trkpt lat="45.13997" lon="4.32089">
        <ele>946.3</ele>
        <time>2026-04-25T06:38:12Z</time>
      </trkpt>
      <trkpt lat="45.13992" lon="4.32091">
        <ele>946.9</ele>
        <time>2026-04-25T06:38:17Z</time>
      </trkpt>
      <trkpt lat="45.13985" lon="4.32095">
        <ele>947.8</ele>
        <time>2026-04-25T06:38:22Z</time>
      </trkpt>
      <trkpt lat="45.13979" lon="4.32098">
        <ele>948.5</ele>
        <time>2026-04-25T06:38:27Z</time>
      </trkpt>
      <trkpt lat="45.13973" lon="4.32101">
        <ele>949.2</ele>
        <time>2026-04-25T06:38:32Z</time>
      </trkpt>
      <trkpt lat="45.13966" lon="4.32106">
        <ele>949.9</ele>
        <time>2026-04-25T06:38:37Z</time>
      </trkpt>
      <trkpt lat="45.13958" lon="4.32109">
        <ele>950.9</ele>
        <time>2026-04-25T06:38:42Z</time>
      </trkpt>
      <trkpt lat="45.13951" lon="4.32113">
        <ele>951.5</ele>
        <time>2026-04-25T06:38:47Z</time>
      </trkpt>
      <trkpt lat="45.13946" lon="4.32116">
        <ele>952</ele>
        <time>2026-04-25T06:38:52Z</time>
      </trkpt>
      <trkpt lat="45.1394" lon="4.32117">
        <ele>952.7</ele>
        <time>2026-04-25T06:38:57Z</time>
      </trkpt>
      <trkpt lat="45.13932" lon="4.32119">
        <ele>953.6</ele>
        <time>2026-04-25T06:39:02Z</time>
      </trkpt>
      <trkpt lat="45.13925" lon="4.32122">
        <ele>954.2</ele>
        <time>2026-04-25T06:39:07Z</time>
      </trkpt>
      <trkpt lat="45.13919" lon="4.32125">
        <ele>954.7</ele>
        <time>2026-04-25T06:39:12Z</time>
      </trkpt>
      <trkpt lat="45.13911" lon="4.32125">
        <ele>954.5</ele>
        <time>2026-04-25T06:39:17Z</time>
      </trkpt>
      <trkpt lat="45.13904" lon="4.32131">
        <ele>953.4</ele>
        <time>2026-04-25T06:39:22Z</time>
      </trkpt>
      <trkpt lat="45.13898" lon="4.32137">
        <ele>952.5</ele>
        <time>2026-04-25T06:39:27Z</time>
      </trkpt>
      <trkpt lat="45.13891" lon="4.32143">
        <ele>951.6</ele>
        <time>2026-04-25T06:39:32Z</time>
      </trkpt>
      <trkpt lat="45.13887" lon="4.3215">
        <ele>950.9</ele>
        <time>2026-04-25T06:39:37Z</time>
      </trkpt>
      <trkpt lat="45.13882" lon="4.32156">
        <ele>950.3</ele>
        <time>2026-04-25T06:39:42Z</time>
      </trkpt>
      <trkpt lat="45.13877" lon="4.3216">
        <ele>949.9</ele>
        <time>2026-04-25T06:39:47Z</time>
      </trkpt>
      <trkpt lat="45.1388" lon="4.32155">
        <ele>950.2</ele>
        <time>2026-04-25T06:39:52Z</time>
      </trkpt>
      <trkpt lat="45.13883" lon="4.32149">
        <ele>950.7</ele>
        <time>2026-04-25T06:39:57Z</time>
      </trkpt>
      <trkpt lat="45.13882" lon="4.32143">
        <ele>951</ele>
        <time>2026-04-25T06:40:02Z</time>
      </trkpt>
      <trkpt lat="45.1388" lon="4.32138">
        <ele>951.1</ele>
        <time>2026-04-25T06:40:07Z</time>
      </trkpt>
      <trkpt lat="45.13878" lon="4.32133">
        <ele>951.2</ele>
        <time>2026-04-25T06:40:12Z</time>
      </trkpt>
      <trkpt lat="45.13876" lon="4.32129">
        <ele>951.2</ele>
        <time>2026-04-25T06:40:17Z</time>
      </trkpt>
      <trkpt lat="45.13874" lon="4.32128">
        <ele>951</ele>
        <time>2026-04-25T06:40:22Z</time>
      </trkpt>
      <trkpt lat="45.13874" lon="4.32128">
        <ele>951</ele>
        <time>2026-04-25T06:40:27Z</time>
      </trkpt>
      <trkpt lat="45.13874" lon="4.32128">
        <ele>951</ele>
        <time>2026-04-25T06:40:32Z</time>
      </trkpt>
      <trkpt lat="45.13874" lon="4.32128">
        <ele>951</ele>
        <time>2026-04-25T06:40:37Z</time>
      </trkpt>
      <trkpt lat="45.13874" lon="4.32128">
        <ele>951</ele>
        <time>2026-04-25T06:40:42Z</time>
      </trkpt>
      <trkpt lat="45.13868" lon="4.32117">
        <ele>950.9</ele>
        <time>2026-04-25T06:40:47Z</time>
      </trkpt>
      <trkpt lat="45.13867" lon="4.3211">
        <ele>951</ele>
        <time>2026-04-25T06:40:52Z</time>
      </trkpt>
      <trkpt lat="45.13864" lon="4.32103">
        <ele>950.9</ele>
        <time>2026-04-25T06:40:57Z</time>
      </trkpt>
      <trkpt lat="45.13861" lon="4.32095">
        <ele>950.7</ele>
        <time>2026-04-25T06:41:02Z</time>
      </trkpt>
      <trkpt lat="45.13859" lon="4.32088">
        <ele>950.6</ele>
        <time>2026-04-25T06:41:07Z</time>
      </trkpt>
      <trkpt lat="45.13856" lon="4.32081">
        <ele>950.4</ele>
        <time>2026-04-25T06:41:12Z</time>
      </trkpt>
      <trkpt lat="45.13852" lon="4.32075">
        <ele>950.2</ele>
        <time>2026-04-25T06:41:17Z</time>
      </trkpt>
      <trkpt lat="45.1385" lon="4.32068">
        <ele>950.4</ele>
        <time>2026-04-25T06:41:22Z</time>
      </trkpt>
      <trkpt lat="45.13847" lon="4.32062">
        <ele>950.3</ele>
        <time>2026-04-25T06:41:27Z</time>
      </trkpt>
      <trkpt lat="45.13844" lon="4.32057">
        <ele>950.3</ele>
        <time>2026-04-25T06:41:32Z</time>
      </trkpt>
      <trkpt lat="45.13839" lon="4.32048">
        <ele>950.2</ele>
        <time>2026-04-25T06:41:37Z</time>
      </trkpt>
      <trkpt lat="45.13834" lon="4.32041">
        <ele>950.1</ele>
        <time>2026-04-25T06:41:42Z</time>
      </trkpt>
      <trkpt lat="45.13832" lon="4.32038">
        <ele>950.1</ele>
        <time>2026-04-25T06:41:47Z</time>
      </trkpt>
      <trkpt lat="45.13829" lon="4.32032">
        <ele>950.1</ele>
        <time>2026-04-25T06:41:52Z</time>
      </trkpt>
      <trkpt lat="45.13827" lon="4.32025">
        <ele>950.3</ele>
        <time>2026-04-25T06:41:57Z</time>
      </trkpt>
      <trkpt lat="45.13823" lon="4.32021">
        <ele>950</ele>
        <time>2026-04-25T06:42:02Z</time>
      </trkpt>
      <trkpt lat="45.13819" lon="4.32015">
        <ele>949.8</ele>
        <time>2026-04-25T06:42:07Z</time>
      </trkpt>
      <trkpt lat="45.13814" lon="4.32009">
        <ele>949.3</ele>
        <time>2026-04-25T06:42:12Z</time>
      </trkpt>
      <trkpt lat="45.13811" lon="4.32004">
        <ele>949.1</ele>
        <time>2026-04-25T06:42:17Z</time>
      </trkpt>
      <trkpt lat="45.13809" lon="4.31995">
        <ele>948.9</ele>
        <time>2026-04-25T06:42:22Z</time>
      </trkpt>
      <trkpt lat="45.13804" lon="4.31988">
        <ele>948</ele>
        <time>2026-04-25T06:42:27Z</time>
      </trkpt>
      <trkpt lat="45.138" lon="4.3198">
        <ele>947.4</ele>
        <time>2026-04-25T06:42:32Z</time>
      </trkpt>
      <trkpt lat="45.13794" lon="4.31974">
        <ele>946.6</ele>
        <time>2026-04-25T06:42:37Z</time>
      </trkpt>
      <trkpt lat="45.13789" lon="4.31971">
        <ele>946</ele>
        <time>2026-04-25T06:42:42Z</time>
      </trkpt>
      <trkpt lat="45.13781" lon="4.31968">
        <ele>945</ele>
        <time>2026-04-25T06:42:47Z</time>
      </trkpt>
      <trkpt lat="45.13774" lon="4.31966">
        <ele>944.1</ele>
        <time>2026-04-25T06:42:52Z</time>
      </trkpt>
      <trkpt lat="45.13766" lon="4.31963">
        <ele>943.2</ele>
        <time>2026-04-25T06:42:57Z</time>
      </trkpt>
      <trkpt lat="45.13761" lon="4.31956">
        <ele>942.9</ele>
        <time>2026-04-25T06:43:02Z</time>
      </trkpt>
      <trkpt lat="45.13757" lon="4.3195">
        <ele>942.8</ele>
        <time>2026-04-25T06:43:07Z</time>
      </trkpt>
      <trkpt lat="45.13751" lon="4.31945">
        <ele>942.4</ele>
        <time>2026-04-25T06:43:12Z</time>
      </trkpt>
      <trkpt lat="45.13746" lon="4.31939">
        <ele>942.3</ele>
        <time>2026-04-25T06:43:17Z</time>
      </trkpt>
      <trkpt lat="45.1374" lon="4.31934">
        <ele>942</ele>
        <time>2026-04-25T06:43:22Z</time>
      </trkpt>
      <trkpt lat="45.13733" lon="4.31929">
        <ele>941.6</ele>
        <time>2026-04-25T06:43:27Z</time>
      </trkpt>
      <trkpt lat="45.13727" lon="4.31926">
        <ele>941</ele>
        <time>2026-04-25T06:43:32Z</time>
      </trkpt>
      <trkpt lat="45.13722" lon="4.31921">
        <ele>940.6</ele>
        <time>2026-04-25T06:43:37Z</time>
      </trkpt>
      <trkpt lat="45.13714" lon="4.31915">
        <ele>939.6</ele>
        <time>2026-04-25T06:43:42Z</time>
      </trkpt>
      <trkpt lat="45.13707" lon="4.31911">
        <ele>938.6</ele>
        <time>2026-04-25T06:43:47Z</time>
      </trkpt>
      <trkpt lat="45.13703" lon="4.31904">
        <ele>937.9</ele>
        <time>2026-04-25T06:43:52Z</time>
      </trkpt>
      <trkpt lat="45.13699" lon="4.31897">
        <ele>937.2</ele>
        <time>2026-04-25T06:43:57Z</time>
      </trkpt>
      <trkpt lat="45.13695" lon="4.31895">
        <ele>936.7</ele>
        <time>2026-04-25T06:44:02Z</time>
      </trkpt>
      <trkpt lat="45.13692" lon="4.3189">
        <ele>936.2</ele>
        <time>2026-04-25T06:44:07Z</time>
      </trkpt>
      <trkpt lat="45.13689" lon="4.31884">
        <ele>935.7</ele>
        <time>2026-04-25T06:44:12Z</time>
      </trkpt>
      <trkpt lat="45.13688" lon="4.31876">
        <ele>935.3</ele>
        <time>2026-04-25T06:44:17Z</time>
      </trkpt>
      <trkpt lat="45.13688" lon="4.31868">
        <ele>935.1</ele>
        <time>2026-04-25T06:44:22Z</time>
      </trkpt>
      <trkpt lat="45.1369" lon="4.31861">
        <ele>935.1</ele>
        <time>2026-04-25T06:44:27Z</time>
      </trkpt>
      <trkpt lat="45.13692" lon="4.31851">
        <ele>935</ele>
        <time>2026-04-25T06:44:32Z</time>
      </trkpt>
      <trkpt lat="45.13693" lon="4.31841">
        <ele>934.8</ele>
        <time>2026-04-25T06:44:37Z</time>
      </trkpt>
      <trkpt lat="45.13694" lon="4.31834">
        <ele>934.6</ele>
        <time>2026-04-25T06:44:42Z</time>
      </trkpt>
      <trkpt lat="45.13695" lon="4.31825">
        <ele>934.4</ele>
        <time>2026-04-25T06:44:47Z</time>
      </trkpt>
      <trkpt lat="45.13695" lon="4.31816">
        <ele>934.2</ele>
        <time>2026-04-25T06:44:52Z</time>
      </trkpt>
      <trkpt lat="45.13695" lon="4.31804">
        <ele>933.8</ele>
        <time>2026-04-25T06:44:57Z</time>
      </trkpt>
      <trkpt lat="45.13691" lon="4.31794">
        <ele>933.2</ele>
        <time>2026-04-25T06:45:02Z</time>
      </trkpt>
      <trkpt lat="45.13686" lon="4.31778">
        <ele>932.4</ele>
        <time>2026-04-25T06:45:07Z</time>
      </trkpt>
      <trkpt lat="45.13681" lon="4.31767">
        <ele>931.9</ele>
        <time>2026-04-25T06:45:12Z</time>
      </trkpt>
      <trkpt lat="45.13678" lon="4.3176">
        <ele>931.6</ele>
        <time>2026-04-25T06:45:17Z</time>
      </trkpt>
      <trkpt lat="45.13674" lon="4.31751">
        <ele>931.3</ele>
        <time>2026-04-25T06:45:22Z</time>
      </trkpt>
      <trkpt lat="45.13671" lon="4.31743">
        <ele>931.2</ele>
        <time>2026-04-25T06:45:27Z</time>
      </trkpt>
      <trkpt lat="45.13667" lon="4.31734">
        <ele>931</ele>
        <time>2026-04-25T06:45:32Z</time>
      </trkpt>
      <trkpt lat="45.13662" lon="4.31723">
        <ele>931</ele>
        <time>2026-04-25T06:45:37Z</time>
      </trkpt>
      <trkpt lat="45.13659" lon="4.31715">
        <ele>930.9</ele>
        <time>2026-04-25T06:45:42Z</time>
      </trkpt>
      <trkpt lat="45.13655" lon="4.31706">
        <ele>930.9</ele>
        <time>2026-04-25T06:45:47Z</time>
      </trkpt>
      <trkpt lat="45.1365" lon="4.317">
        <ele>930.8</ele>
        <time>2026-04-25T06:45:52Z</time>
      </trkpt>
      <trkpt lat="45.13643" lon="4.317">
        <ele>930.7</ele>
        <time>2026-04-25T06:45:57Z</time>
      </trkpt>
      <trkpt lat="45.13636" lon="4.31703">
        <ele>930.6</ele>
        <time>2026-04-25T06:46:02Z</time>
      </trkpt>
      <trkpt lat="45.1363" lon="4.31703">
        <ele>930.5</ele>
        <time>2026-04-25T06:46:07Z</time>
      </trkpt>
      <trkpt lat="45.13623" lon="4.31701">
        <ele>930.4</ele>
        <time>2026-04-25T06:46:12Z</time>
      </trkpt>
      <trkpt lat="45.13617" lon="4.31693">
        <ele>930.2</ele>
        <time>2026-04-25T06:46:17Z</time>
      </trkpt>
      <trkpt lat="45.13613" lon="4.31685">
        <ele>930</ele>
        <time>2026-04-25T06:46:22Z</time>
      </trkpt>
      <trkpt lat="45.13609" lon="4.31676">
        <ele>929.8</ele>
        <time>2026-04-25T06:46:27Z</time>
      </trkpt>
      <trkpt lat="45.13602" lon="4.31671">
        <ele>929.5</ele>
        <time>2026-04-25T06:46:32Z</time>
      </trkpt>
      <trkpt lat="45.13595" lon="4.31664">
        <ele>929.3</ele>
        <time>2026-04-25T06:46:37Z</time>
      </trkpt>
      <trkpt lat="45.13589" lon="4.31658">
        <ele>929.1</ele>
        <time>2026-04-25T06:46:42Z</time>
      </trkpt>
      <trkpt lat="45.13583" lon="4.3165">
        <ele>929</ele>
        <time>2026-04-25T06:46:47Z</time>
      </trkpt>
      <trkpt lat="45.13578" lon="4.31643">
        <ele>929.1</ele>
        <time>2026-04-25T06:46:52Z</time>
      </trkpt>
      <trkpt lat="45.13572" lon="4.31635">
        <ele>929.1</ele>
        <time>2026-04-25T06:46:57Z</time>
      </trkpt>
      <trkpt lat="45.13567" lon="4.31628">
        <ele>929.1</ele>
        <time>2026-04-25T06:47:02Z</time>
      </trkpt>
      <trkpt lat="45.1356" lon="4.31621">
        <ele>929.1</ele>
        <time>2026-04-25T06:47:07Z</time>
      </trkpt>
      <trkpt lat="45.13554" lon="4.31614">
        <ele>929</ele>
        <time>2026-04-25T06:47:12Z</time>
      </trkpt>
      <trkpt lat="45.13549" lon="4.31609">
        <ele>929</ele>
        <time>2026-04-25T06:47:17Z</time>
      </trkpt>
      <trkpt lat="45.13546" lon="4.31602">
        <ele>928.9</ele>
        <time>2026-04-25T06:47:22Z</time>
      </trkpt>
      <trkpt lat="45.13541" lon="4.31594">
        <ele>928.7</ele>
        <time>2026-04-25T06:47:27Z</time>
      </trkpt>
      <trkpt lat="45.13538" lon="4.31586">
        <ele>928.5</ele>
        <time>2026-04-25T06:47:32Z</time>
      </trkpt>
      <trkpt lat="45.13533" lon="4.31575">
        <ele>928.1</ele>
        <time>2026-04-25T06:47:37Z</time>
      </trkpt>
      <trkpt lat="45.13531" lon="4.31567">
        <ele>927.8</ele>
        <time>2026-04-25T06:47:42Z</time>
      </trkpt>
      <trkpt lat="45.13527" lon="4.31557">
        <ele>927.4</ele>
        <time>2026-04-25T06:47:47Z</time>
      </trkpt>
      <trkpt lat="45.13525" lon="4.31554">
        <ele>927.2</ele>
        <time>2026-04-25T06:47:52Z</time>
      </trkpt>
      <trkpt lat="45.13524" lon="4.31553">
        <ele>927.2</ele>
        <time>2026-04-25T06:47:57Z</time>
      </trkpt>
      <trkpt lat="45.13524" lon="4.31552">
        <ele>927.2</ele>
        <time>2026-04-25T06:48:02Z</time>
      </trkpt>
      <trkpt lat="45.13524" lon="4.31552">
        <ele>927.2</ele>
        <time>2026-04-25T06:48:07Z</time>
      </trkpt>
      <trkpt lat="45.13524" lon="4.31552">
        <ele>927.2</ele>
        <time>2026-04-25T06:48:12Z</time>
      </trkpt>
      <trkpt lat="45.13524" lon="4.31552">
        <ele>927.2</ele>
        <time>2026-04-25T06:48:17Z</time>
      </trkpt>
      <trkpt lat="45.13524" lon="4.31552">
        <ele>927.2</ele>
        <time>2026-04-25T06:48:22Z</time>
      </trkpt>
      <trkpt lat="45.13524" lon="4.31552">
        <ele>927.2</ele>
        <time>2026-04-25T06:48:27Z</time>
      </trkpt>
      <trkpt lat="45.13524" lon="4.31552">
        <ele>927.2</ele>
        <time>2026-04-25T06:48:32Z</time>
      </trkpt>
      <trkpt lat="45.13524" lon="4.31552">
        <ele>927.2</ele>
        <time>2026-04-25T06:48:37Z</time>
      </trkpt>
      <trkpt lat="45.13524" lon="4.31552">
        <ele>927.2</ele>
        <time>2026-04-25T06:48:42Z</time>
      </trkpt>
      <trkpt lat="45.13524" lon="4.31552">
        <ele>927.2</ele>
        <time>2026-04-25T06:48:47Z</time>
      </trkpt>
      <trkpt lat="45.13524" lon="4.31552">
        <ele>927.2</ele>
        <time>2026-04-25T06:48:52Z</time>
      </trkpt>
      <trkpt lat="45.13524" lon="4.31552">
        <ele>927.2</ele>
        <time>2026-04-25T06:48:57Z</time>
      </trkpt>
      <trkpt lat="45.13524" lon="4.31552">
        <ele>927.2</ele>
        <time>2026-04-25T06:49:02Z</time>
      </trkpt>
      <trkpt lat="45.13524" lon="4.31552">
        <ele>927.2</ele>
        <time>2026-04-25T06:49:07Z</time>
      </trkpt>
      <trkpt lat="45.13524" lon="4.31552">
        <ele>927.2</ele>
        <time>2026-04-25T06:49:12Z</time>
      </trkpt>
      <trkpt lat="45.13524" lon="4.31552">
        <ele>927.2</ele>
        <time>2026-04-25T06:49:17Z</time>
      </trkpt>
      <trkpt lat="45.13524" lon="4.31552">
        <ele>927.2</ele>
        <time>2026-04-25T06:49:22Z</time>
      </trkpt>
      <trkpt lat="45.13524" lon="4.31552">
        <ele>927.2</ele>
        <time>2026-04-25T06:49:27Z</time>
      </trkpt>
      <trkpt lat="45.13524" lon="4.31552">
        <ele>927.2</ele>
        <time>2026-04-25T06:49:32Z</time>
      </trkpt>
      <trkpt lat="45.13524" lon="4.31552">
        <ele>927.2</ele>
        <time>2026-04-25T06:49:37Z</time>
      </trkpt>
      <trkpt lat="45.13524" lon="4.31552">
        <ele>927.2</ele>
        <time>2026-04-25T06:49:42Z</time>
      </trkpt>
      <trkpt lat="45.13524" lon="4.31552">
        <ele>927.2</ele>
        <time>2026-04-25T06:49:47Z</time>
      </trkpt>
      <trkpt lat="45.13524" lon="4.31552">
        <ele>927.2</ele>
        <time>2026-04-25T06:49:52Z</time>
      </trkpt>
      <trkpt lat="45.13524" lon="4.31552">
        <ele>927.2</ele>
        <time>2026-04-25T06:49:57Z</time>
      </trkpt>
      <trkpt lat="45.13524" lon="4.31552">
        <ele>927.2</ele>
        <time>2026-04-25T06:50:02Z</time>
      </trkpt>
      <trkpt lat="45.13524" lon="4.31552">
        <ele>927.2</ele>
        <time>2026-04-25T06:50:07Z</time>
      </trkpt>
      <trkpt lat="45.13524" lon="4.31552">
        <ele>927.2</ele>
        <time>2026-04-25T06:50:12Z</time>
      </trkpt>
      <trkpt lat="45.13524" lon="4.31552">
        <ele>927.2</ele>
        <time>2026-04-25T06:50:17Z</time>
      </trkpt>
      <trkpt lat="45.13524" lon="4.31552">
        <ele>927.2</ele>
        <time>2026-04-25T06:50:22Z</time>
      </trkpt>
      <trkpt lat="45.13524" lon="4.31552">
        <ele>927.2</ele>
        <time>2026-04-25T06:50:27Z</time>
      </trkpt>
      <trkpt lat="45.13524" lon="4.31552">
        <ele>927.2</ele>
        <time>2026-04-25T06:50:32Z</time>
      </trkpt>
      <trkpt lat="45.13524" lon="4.31552">
        <ele>927.2</ele>
        <time>2026-04-25T06:50:37Z</time>
      </trkpt>
      <trkpt lat="45.13524" lon="4.31552">
        <ele>927.2</ele>
        <time>2026-04-25T06:50:42Z</time>
      </trkpt>
      <trkpt lat="45.13524" lon="4.31552">
        <ele>927.2</ele>
        <time>2026-04-25T06:50:47Z</time>
      </trkpt>
      <trkpt lat="45.13524" lon="4.31552">
        <ele>927.2</ele>
        <time>2026-04-25T06:50:52Z</time>
      </trkpt>
      <trkpt lat="45.13524" lon="4.31552">
        <ele>927.2</ele>
        <time>2026-04-25T06:50:57Z</time>
      </trkpt>
      <trkpt lat="45.13524" lon="4.31552">
        <ele>927.2</ele>
        <time>2026-04-25T06:51:02Z</time>
      </trkpt>
      <trkpt lat="45.13524" lon="4.31552">
        <ele>927.2</ele>
        <time>2026-04-25T06:51:07Z</time>
      </trkpt>
      <trkpt lat="45.13524" lon="4.31552">
        <ele>927.2</ele>
        <time>2026-04-25T06:51:12Z</time>
      </trkpt>
      <trkpt lat="45.13524" lon="4.31552">
        <ele>927.2</ele>
        <time>2026-04-25T06:51:17Z</time>
      </trkpt>
      <trkpt lat="45.13524" lon="4.31552">
        <ele>927.2</ele>
        <time>2026-04-25T06:51:22Z</time>
      </trkpt>
      <trkpt lat="45.13524" lon="4.31552">
        <ele>927.2</ele>
        <time>2026-04-25T06:51:27Z</time>
      </trkpt>
      <trkpt lat="45.13524" lon="4.31552">
        <ele>927.2</ele>
        <time>2026-04-25T06:51:32Z</time>
      </trkpt>
      <trkpt lat="45.13519" lon="4.31541">
        <ele>926.7</ele>
        <time>2026-04-25T06:51:37Z</time>
      </trkpt>
      <trkpt lat="45.13516" lon="4.31533">
        <ele>926.4</ele>
        <time>2026-04-25T06:51:42Z</time>
      </trkpt>
      <trkpt lat="45.13513" lon="4.31522">
        <ele>925.9</ele>
        <time>2026-04-25T06:51:47Z</time>
      </trkpt>
      <trkpt lat="45.1351" lon="4.31511">
        <ele>925.5</ele>
        <time>2026-04-25T06:51:52Z</time>
      </trkpt>
      <trkpt lat="45.13506" lon="4.31502">
        <ele>925.1</ele>
        <time>2026-04-25T06:51:57Z</time>
      </trkpt>
      <trkpt lat="45.13503" lon="4.31493">
        <ele>924.9</ele>
        <time>2026-04-25T06:52:02Z</time>
      </trkpt>
      <trkpt lat="45.13499" lon="4.31483">
        <ele>924.6</ele>
        <time>2026-04-25T06:52:07Z</time>
      </trkpt>
      <trkpt lat="45.13496" lon="4.31473">
        <ele>924.2</ele>
        <time>2026-04-25T06:52:12Z</time>
      </trkpt>
      <trkpt lat="45.13494" lon="4.31463">
        <ele>924</ele>
        <time>2026-04-25T06:52:17Z</time>
      </trkpt>
      <trkpt lat="45.1349" lon="4.31454">
        <ele>923.7</ele>
        <time>2026-04-25T06:52:22Z</time>
      </trkpt>
      <trkpt lat="45.13486" lon="4.31446">
        <ele>923.4</ele>
        <time>2026-04-25T06:52:27Z</time>
      </trkpt>
      <trkpt lat="45.13481" lon="4.31439">
        <ele>923.2</ele>
        <time>2026-04-25T06:52:32Z</time>
      </trkpt>
      <trkpt lat="45.13479" lon="4.31426">
        <ele>922.9</ele>
        <time>2026-04-25T06:52:37Z</time>
      </trkpt>
      <trkpt lat="45.13477" lon="4.31413">
        <ele>922.7</ele>
        <time>2026-04-25T06:52:42Z</time>
      </trkpt>
      <trkpt lat="45.13472" lon="4.31403">
        <ele>922.8</ele>
        <time>2026-04-25T06:52:47Z</time>
      </trkpt>
      <trkpt lat="45.13468" lon="4.31394">
        <ele>923</ele>
        <time>2026-04-25T06:52:52Z</time>
      </trkpt>
      <trkpt lat="45.13466" lon="4.31384">
        <ele>923.2</ele>
        <time>2026-04-25T06:52:57Z</time>
      </trkpt>
      <trkpt lat="45.1346" lon="4.31376">
        <ele>923.7</ele>
        <time>2026-04-25T06:53:02Z</time>
      </trkpt>
      <trkpt lat="45.13456" lon="4.31368">
        <ele>924.1</ele>
        <time>2026-04-25T06:53:07Z</time>
      </trkpt>
      <trkpt lat="45.13453" lon="4.31362">
        <ele>924.5</ele>
        <time>2026-04-25T06:53:12Z</time>
      </trkpt>
      <trkpt lat="45.13453" lon="4.31362">
        <ele>924.5</ele>
        <time>2026-04-25T06:53:17Z</time>
      </trkpt>
      <trkpt lat="45.1345" lon="4.31355">
        <ele>924.9</ele>
        <time>2026-04-25T06:53:22Z</time>
      </trkpt>
      <trkpt lat="45.13446" lon="4.31346">
        <ele>925.6</ele>
        <time>2026-04-25T06:53:27Z</time>
      </trkpt>
      <trkpt lat="45.13443" lon="4.31336">
        <ele>926.3</ele>
        <time>2026-04-25T06:53:32Z</time>
      </trkpt>
      <trkpt lat="45.13441" lon="4.31326">
        <ele>927.5</ele>
        <time>2026-04-25T06:53:37Z</time>
      </trkpt>
      <trkpt lat="45.13437" lon="4.31316">
        <ele>929.1</ele>
        <time>2026-04-25T06:53:42Z</time>
      </trkpt>
      <trkpt lat="45.13431" lon="4.31309">
        <ele>930.7</ele>
        <time>2026-04-25T06:53:47Z</time>
      </trkpt>
      <trkpt lat="45.13425" lon="4.31309">
        <ele>931.4</ele>
        <time>2026-04-25T06:53:52Z</time>
      </trkpt>
      <trkpt lat="45.13418" lon="4.31311">
        <ele>932</ele>
        <time>2026-04-25T06:53:57Z</time>
      </trkpt>
      <trkpt lat="45.13411" lon="4.31312">
        <ele>933.2</ele>
        <time>2026-04-25T06:54:02Z</time>
      </trkpt>
      <trkpt lat="45.13403" lon="4.31312">
        <ele>934.9</ele>
        <time>2026-04-25T06:54:07Z</time>
      </trkpt>
      <trkpt lat="45.13399" lon="4.31307">
        <ele>936.4</ele>
        <time>2026-04-25T06:54:12Z</time>
      </trkpt>
      <trkpt lat="45.13394" lon="4.31301">
        <ele>938.2</ele>
        <time>2026-04-25T06:54:17Z</time>
      </trkpt>
      <trkpt lat="45.1339" lon="4.31295">
        <ele>939.8</ele>
        <time>2026-04-25T06:54:22Z</time>
      </trkpt>
      <trkpt lat="45.13385" lon="4.3129">
        <ele>941.5</ele>
        <time>2026-04-25T06:54:27Z</time>
      </trkpt>
      <trkpt lat="45.1338" lon="4.31283">
        <ele>943.4</ele>
        <time>2026-04-25T06:54:32Z</time>
      </trkpt>
      <trkpt lat="45.13377" lon="4.31277">
        <ele>944.7</ele>
        <time>2026-04-25T06:54:37Z</time>
      </trkpt>
      <trkpt lat="45.13372" lon="4.3127">
        <ele>946.5</ele>
        <time>2026-04-25T06:54:42Z</time>
      </trkpt>
      <trkpt lat="45.13369" lon="4.31267">
        <ele>947.5</ele>
        <time>2026-04-25T06:54:47Z</time>
      </trkpt>
      <trkpt lat="45.13366" lon="4.31264">
        <ele>948.4</ele>
        <time>2026-04-25T06:54:52Z</time>
      </trkpt>
      <trkpt lat="45.13362" lon="4.31262">
        <ele>949.4</ele>
        <time>2026-04-25T06:54:57Z</time>
      </trkpt>
      <trkpt lat="45.13359" lon="4.31259">
        <ele>950.3</ele>
        <time>2026-04-25T06:55:02Z</time>
      </trkpt>
      <trkpt lat="45.13355" lon="4.31256">
        <ele>951.4</ele>
        <time>2026-04-25T06:55:07Z</time>
      </trkpt>
      <trkpt lat="45.13352" lon="4.31253">
        <ele>952.3</ele>
        <time>2026-04-25T06:55:12Z</time>
      </trkpt>
      <trkpt lat="45.13349" lon="4.3125">
        <ele>953.2</ele>
        <time>2026-04-25T06:55:17Z</time>
      </trkpt>
      <trkpt lat="45.13346" lon="4.31246">
        <ele>954.1</ele>
        <time>2026-04-25T06:55:22Z</time>
      </trkpt>
      <trkpt lat="45.13344" lon="4.31241">
        <ele>954.9</ele>
        <time>2026-04-25T06:55:27Z</time>
      </trkpt>
      <trkpt lat="45.13344" lon="4.31236">
        <ele>955.3</ele>
        <time>2026-04-25T06:55:32Z</time>
      </trkpt>
      <trkpt lat="45.13345" lon="4.31233">
        <ele>955.4</ele>
        <time>2026-04-25T06:55:37Z</time>
      </trkpt>
      <trkpt lat="45.13344" lon="4.31232">
        <ele>955.6</ele>
        <time>2026-04-25T06:55:42Z</time>
      </trkpt>
      <trkpt lat="45.13344" lon="4.31232">
        <ele>955.6</ele>
        <time>2026-04-25T06:55:47Z</time>
      </trkpt>
      <trkpt lat="45.13344" lon="4.31232">
        <ele>955.6</ele>
        <time>2026-04-25T06:55:52Z</time>
      </trkpt>
      <trkpt lat="45.13344" lon="4.31232">
        <ele>955.6</ele>
        <time>2026-04-25T06:55:57Z</time>
      </trkpt>
      <trkpt lat="45.1334" lon="4.31218">
        <ele>957.5</ele>
        <time>2026-04-25T06:56:02Z</time>
      </trkpt>
      <trkpt lat="45.1334" lon="4.31213">
        <ele>958</ele>
        <time>2026-04-25T06:56:07Z</time>
      </trkpt>
      <trkpt lat="45.13338" lon="4.31204">
        <ele>959.1</ele>
        <time>2026-04-25T06:56:12Z</time>
      </trkpt>
      <trkpt lat="45.13336" lon="4.31197">
        <ele>960</ele>
        <time>2026-04-25T06:56:17Z</time>
      </trkpt>
      <trkpt lat="45.13336" lon="4.31189">
        <ele>960.7</ele>
        <time>2026-04-25T06:56:22Z</time>
      </trkpt>
      <trkpt lat="45.13335" lon="4.31185">
        <ele>961.2</ele>
        <time>2026-04-25T06:56:27Z</time>
      </trkpt>
      <trkpt lat="45.13333" lon="4.31182">
        <ele>961.7</ele>
        <time>2026-04-25T06:56:32Z</time>
      </trkpt>
      <trkpt lat="45.13333" lon="4.31176">
        <ele>962.2</ele>
        <time>2026-04-25T06:56:37Z</time>
      </trkpt>
      <trkpt lat="45.13334" lon="4.31169">
        <ele>962.7</ele>
        <time>2026-04-25T06:56:42Z</time>
      </trkpt>
      <trkpt lat="45.13336" lon="4.31164">
        <ele>962.8</ele>
        <time>2026-04-25T06:56:47Z</time>
      </trkpt>
      <trkpt lat="45.13335" lon="4.3116">
        <ele>963.4</ele>
        <time>2026-04-25T06:56:52Z</time>
      </trkpt>
      <trkpt lat="45.13336" lon="4.31154">
        <ele>963.8</ele>
        <time>2026-04-25T06:56:57Z</time>
      </trkpt>
      <trkpt lat="45.13334" lon="4.31148">
        <ele>964.7</ele>
        <time>2026-04-25T06:57:02Z</time>
      </trkpt>
      <trkpt lat="45.13332" lon="4.31146">
        <ele>965</ele>
        <time>2026-04-25T06:57:07Z</time>
      </trkpt>
      <trkpt lat="45.13332" lon="4.31146">
        <ele>965</ele>
        <time>2026-04-25T06:57:12Z</time>
      </trkpt>
      <trkpt lat="45.13332" lon="4.31146">
        <ele>965</ele>
        <time>2026-04-25T06:57:17Z</time>
      </trkpt>
      <trkpt lat="45.13332" lon="4.31146">
        <ele>965</ele>
        <time>2026-04-25T06:57:22Z</time>
      </trkpt>
      <trkpt lat="45.13332" lon="4.31131">
        <ele>966.5</ele>
        <time>2026-04-25T06:57:27Z</time>
      </trkpt>
      <trkpt lat="45.13333" lon="4.31124">
        <ele>967.1</ele>
        <time>2026-04-25T06:57:32Z</time>
      </trkpt>
      <trkpt lat="45.13333" lon="4.31119">
        <ele>967.6</ele>
        <time>2026-04-25T06:57:37Z</time>
      </trkpt>
      <trkpt lat="45.13335" lon="4.31112">
        <ele>968</ele>
        <time>2026-04-25T06:57:42Z</time>
      </trkpt>
      <trkpt lat="45.13336" lon="4.31106">
        <ele>968.5</ele>
        <time>2026-04-25T06:57:47Z</time>
      </trkpt>
      <trkpt lat="45.13337" lon="4.311">
        <ele>968.9</ele>
        <time>2026-04-25T06:57:52Z</time>
      </trkpt>
      <trkpt lat="45.13336" lon="4.31093">
        <ele>969.7</ele>
        <time>2026-04-25T06:57:57Z</time>
      </trkpt>
      <trkpt lat="45.13334" lon="4.31088">
        <ele>970.5</ele>
        <time>2026-04-25T06:58:02Z</time>
      </trkpt>
      <trkpt lat="45.13328" lon="4.31082">
        <ele>971.4</ele>
        <time>2026-04-25T06:58:07Z</time>
      </trkpt>
      <trkpt lat="45.13326" lon="4.31076">
        <ele>972.1</ele>
        <time>2026-04-25T06:58:12Z</time>
      </trkpt>
      <trkpt lat="45.13324" lon="4.31072">
        <ele>972.5</ele>
        <time>2026-04-25T06:58:17Z</time>
      </trkpt>
      <trkpt lat="45.13322" lon="4.31068">
        <ele>973</ele>
        <time>2026-04-25T06:58:22Z</time>
      </trkpt>
      <trkpt lat="45.13319" lon="4.31065">
        <ele>973.5</ele>
        <time>2026-04-25T06:58:27Z</time>
      </trkpt>
      <trkpt lat="45.13318" lon="4.31062">
        <ele>973.8</ele>
        <time>2026-04-25T06:58:32Z</time>
      </trkpt>
      <trkpt lat="45.13317" lon="4.31057">
        <ele>974.3</ele>
        <time>2026-04-25T06:58:37Z</time>
      </trkpt>
      <trkpt lat="45.13318" lon="4.31053">
        <ele>974.6</ele>
        <time>2026-04-25T06:58:42Z</time>
      </trkpt>
      <trkpt lat="45.13318" lon="4.31052">
        <ele>974.7</ele>
        <time>2026-04-25T06:58:47Z</time>
      </trkpt>
      <trkpt lat="45.13313" lon="4.31045">
        <ele>975.7</ele>
        <time>2026-04-25T06:58:52Z</time>
      </trkpt>
      <trkpt lat="45.13311" lon="4.31041">
        <ele>976.2</ele>
        <time>2026-04-25T06:58:57Z</time>
      </trkpt>
      <trkpt lat="45.13309" lon="4.31038">
        <ele>976.6</ele>
        <time>2026-04-25T06:59:02Z</time>
      </trkpt>
      <trkpt lat="45.13307" lon="4.31035">
        <ele>977</ele>
        <time>2026-04-25T06:59:07Z</time>
      </trkpt>
      <trkpt lat="45.13305" lon="4.31029">
        <ele>977.7</ele>
        <time>2026-04-25T06:59:12Z</time>
      </trkpt>
      <trkpt lat="45.133" lon="4.31022">
        <ele>978.7</ele>
        <time>2026-04-25T06:59:17Z</time>
      </trkpt>
      <trkpt lat="45.133" lon="4.31014">
        <ele>979.5</ele>
        <time>2026-04-25T06:59:22Z</time>
      </trkpt>
      <trkpt lat="45.13297" lon="4.3101">
        <ele>980.1</ele>
        <time>2026-04-25T06:59:27Z</time>
      </trkpt>
      <trkpt lat="45.13294" lon="4.31006">
        <ele>980.7</ele>
        <time>2026-04-25T06:59:32Z</time>
      </trkpt>
      <trkpt lat="45.13292" lon="4.31003">
        <ele>981.2</ele>
        <time>2026-04-25T06:59:37Z</time>
      </trkpt>
      <trkpt lat="45.13291" lon="4.31002">
        <ele>981.4</ele>
        <time>2026-04-25T06:59:42Z</time>
      </trkpt>
      <trkpt lat="45.13284" lon="4.30996">
        <ele>982.1</ele>
        <time>2026-04-25T06:59:47Z</time>
      </trkpt>
      <trkpt lat="45.13282" lon="4.30991">
        <ele>982.3</ele>
        <time>2026-04-25T06:59:52Z</time>
      </trkpt>
      <trkpt lat="45.13279" lon="4.30988">
        <ele>982.5</ele>
        <time>2026-04-25T06:59:57Z</time>
      </trkpt>
      <trkpt lat="45.13277" lon="4.30983">
        <ele>982.7</ele>
        <time>2026-04-25T07:00:02Z</time>
      </trkpt>
      <trkpt lat="45.13273" lon="4.30979">
        <ele>983</ele>
        <time>2026-04-25T07:00:07Z</time>
      </trkpt>
      <trkpt lat="45.13269" lon="4.30974">
        <ele>983.3</ele>
        <time>2026-04-25T07:00:12Z</time>
      </trkpt>
      <trkpt lat="45.13266" lon="4.30969">
        <ele>983.6</ele>
        <time>2026-04-25T07:00:17Z</time>
      </trkpt>
      <trkpt lat="45.13262" lon="4.30963">
        <ele>983.9</ele>
        <time>2026-04-25T07:00:22Z</time>
      </trkpt>
      <trkpt lat="45.13258" lon="4.30956">
        <ele>984.3</ele>
        <time>2026-04-25T07:00:27Z</time>
      </trkpt>
      <trkpt lat="45.13256" lon="4.30949">
        <ele>984.5</ele>
        <time>2026-04-25T07:00:32Z</time>
      </trkpt>
      <trkpt lat="45.13255" lon="4.30941">
        <ele>984.5</ele>
        <time>2026-04-25T07:00:37Z</time>
      </trkpt>
      <trkpt lat="45.13253" lon="4.30934">
        <ele>984.7</ele>
        <time>2026-04-25T07:00:42Z</time>
      </trkpt>
      <trkpt lat="45.13249" lon="4.30928">
        <ele>985.1</ele>
        <time>2026-04-25T07:00:47Z</time>
      </trkpt>
      <trkpt lat="45.13242" lon="4.30919">
        <ele>985.7</ele>
        <time>2026-04-25T07:00:52Z</time>
      </trkpt>
      <trkpt lat="45.13236" lon="4.30913">
        <ele>986.1</ele>
        <time>2026-04-25T07:00:57Z</time>
      </trkpt>
      <trkpt lat="45.13232" lon="4.30907">
        <ele>986.4</ele>
        <time>2026-04-25T07:01:02Z</time>
      </trkpt>
      <trkpt lat="45.13227" lon="4.30902">
        <ele>986.9</ele>
        <time>2026-04-25T07:01:07Z</time>
      </trkpt>
      <trkpt lat="45.13223" lon="4.30898">
        <ele>987.2</ele>
        <time>2026-04-25T07:01:12Z</time>
      </trkpt>
      <trkpt lat="45.1322" lon="4.30895">
        <ele>987.4</ele>
        <time>2026-04-25T07:01:17Z</time>
      </trkpt>
      <trkpt lat="45.13213" lon="4.30888">
        <ele>988.1</ele>
        <time>2026-04-25T07:01:22Z</time>
      </trkpt>
      <trkpt lat="45.13209" lon="4.30881">
        <ele>988.4</ele>
        <time>2026-04-25T07:01:27Z</time>
      </trkpt>
      <trkpt lat="45.13203" lon="4.30874">
        <ele>989</ele>
        <time>2026-04-25T07:01:32Z</time>
      </trkpt>
      <trkpt lat="45.13199" lon="4.30867">
        <ele>989.4</ele>
        <time>2026-04-25T07:01:37Z</time>
      </trkpt>
      <trkpt lat="45.13194" lon="4.30861">
        <ele>989.9</ele>
        <time>2026-04-25T07:01:42Z</time>
      </trkpt>
      <trkpt lat="45.13188" lon="4.30853">
        <ele>990.6</ele>
        <time>2026-04-25T07:01:47Z</time>
      </trkpt>
      <trkpt lat="45.13183" lon="4.30844">
        <ele>991.2</ele>
        <time>2026-04-25T07:01:52Z</time>
      </trkpt>
      <trkpt lat="45.13178" lon="4.30837">
        <ele>991.7</ele>
        <time>2026-04-25T07:01:57Z</time>
      </trkpt>
      <trkpt lat="45.13174" lon="4.30831">
        <ele>992.2</ele>
        <time>2026-04-25T07:02:02Z</time>
      </trkpt>
      <trkpt lat="45.13169" lon="4.3082">
        <ele>992.7</ele>
        <time>2026-04-25T07:02:07Z</time>
      </trkpt>
      <trkpt lat="45.13166" lon="4.3081">
        <ele>993</ele>
        <time>2026-04-25T07:02:12Z</time>
      </trkpt>
      <trkpt lat="45.13164" lon="4.30801">
        <ele>993.1</ele>
        <time>2026-04-25T07:02:17Z</time>
      </trkpt>
      <trkpt lat="45.13162" lon="4.30792">
        <ele>993.1</ele>
        <time>2026-04-25T07:02:22Z</time>
      </trkpt>
      <trkpt lat="45.13157" lon="4.30782">
        <ele>993.3</ele>
        <time>2026-04-25T07:02:27Z</time>
      </trkpt>
      <trkpt lat="45.13151" lon="4.30774">
        <ele>993.5</ele>
        <time>2026-04-25T07:02:32Z</time>
      </trkpt>
      <trkpt lat="45.1315" lon="4.3077">
        <ele>993.6</ele>
        <time>2026-04-25T07:02:37Z</time>
      </trkpt>
      <trkpt lat="45.13147" lon="4.30767">
        <ele>993.7</ele>
        <time>2026-04-25T07:02:42Z</time>
      </trkpt>
      <trkpt lat="45.13143" lon="4.30762">
        <ele>993.8</ele>
        <time>2026-04-25T07:02:47Z</time>
      </trkpt>
      <trkpt lat="45.13136" lon="4.30753">
        <ele>994.1</ele>
        <time>2026-04-25T07:02:52Z</time>
      </trkpt>
      <trkpt lat="45.1313" lon="4.30746">
        <ele>994.2</ele>
        <time>2026-04-25T07:02:57Z</time>
      </trkpt>
      <trkpt lat="45.13126" lon="4.30739">
        <ele>994.2</ele>
        <time>2026-04-25T07:03:02Z</time>
      </trkpt>
      <trkpt lat="45.13122" lon="4.30732">
        <ele>994.2</ele>
        <time>2026-04-25T07:03:07Z</time>
      </trkpt>
      <trkpt lat="45.13118" lon="4.30727">
        <ele>994.2</ele>
        <time>2026-04-25T07:03:12Z</time>
      </trkpt>
      <trkpt lat="45.13114" lon="4.30725">
        <ele>994.3</ele>
        <time>2026-04-25T07:03:17Z</time>
      </trkpt>
      <trkpt lat="45.13108" lon="4.30723">
        <ele>994.5</ele>
        <time>2026-04-25T07:03:22Z</time>
      </trkpt>
      <trkpt lat="45.13102" lon="4.30719">
        <ele>994.6</ele>
        <time>2026-04-25T07:03:27Z</time>
      </trkpt>
      <trkpt lat="45.13098" lon="4.30713">
        <ele>994.6</ele>
        <time>2026-04-25T07:03:32Z</time>
      </trkpt>
      <trkpt lat="45.13092" lon="4.30708">
        <ele>994.7</ele>
        <time>2026-04-25T07:03:37Z</time>
      </trkpt>
      <trkpt lat="45.13087" lon="4.30702">
        <ele>994.7</ele>
        <time>2026-04-25T07:03:42Z</time>
      </trkpt>
      <trkpt lat="45.13084" lon="4.30694">
        <ele>994.6</ele>
        <time>2026-04-25T07:03:47Z</time>
      </trkpt>
      <trkpt lat="45.13081" lon="4.30686">
        <ele>994.4</ele>
        <time>2026-04-25T07:03:52Z</time>
      </trkpt>
      <trkpt lat="45.13078" lon="4.30679">
        <ele>994.2</ele>
        <time>2026-04-25T07:03:57Z</time>
      </trkpt>
      <trkpt lat="45.13075" lon="4.30674">
        <ele>994.1</ele>
        <time>2026-04-25T07:04:02Z</time>
      </trkpt>
      <trkpt lat="45.13069" lon="4.30661">
        <ele>993.5</ele>
        <time>2026-04-25T07:04:07Z</time>
      </trkpt>
      <trkpt lat="45.13064" lon="4.3065">
        <ele>992.9</ele>
        <time>2026-04-25T07:04:12Z</time>
      </trkpt>
      <trkpt lat="45.13059" lon="4.30644">
        <ele>992.6</ele>
        <time>2026-04-25T07:04:17Z</time>
      </trkpt>
      <trkpt lat="45.13055" lon="4.30637">
        <ele>992.2</ele>
        <time>2026-04-25T07:04:22Z</time>
      </trkpt>
      <trkpt lat="45.13051" lon="4.3063">
        <ele>991.9</ele>
        <time>2026-04-25T07:04:27Z</time>
      </trkpt>
      <trkpt lat="45.13045" lon="4.30621">
        <ele>991.6</ele>
        <time>2026-04-25T07:04:32Z</time>
      </trkpt>
      <trkpt lat="45.1304" lon="4.30615">
        <ele>991.3</ele>
        <time>2026-04-25T07:04:37Z</time>
      </trkpt>
      <trkpt lat="45.13034" lon="4.30609">
        <ele>991.2</ele>
        <time>2026-04-25T07:04:42Z</time>
      </trkpt>
      <trkpt lat="45.13028" lon="4.30602">
        <ele>991</ele>
        <time>2026-04-25T07:04:47Z</time>
      </trkpt>
      <trkpt lat="45.13023" lon="4.30597">
        <ele>990.9</ele>
        <time>2026-04-25T07:04:52Z</time>
      </trkpt>
      <trkpt lat="45.13019" lon="4.3059">
        <ele>990.8</ele>
        <time>2026-04-25T07:04:57Z</time>
      </trkpt>
      <trkpt lat="45.13014" lon="4.30584">
        <ele>990.7</ele>
        <time>2026-04-25T07:05:02Z</time>
      </trkpt>
      <trkpt lat="45.13008" lon="4.30578">
        <ele>990.7</ele>
        <time>2026-04-25T07:05:07Z</time>
      </trkpt>
      <trkpt lat="45.13001" lon="4.30571">
        <ele>990.8</ele>
        <time>2026-04-25T07:05:12Z</time>
      </trkpt>
      <trkpt lat="45.12995" lon="4.30566">
        <ele>990.5</ele>
        <time>2026-04-25T07:05:17Z</time>
      </trkpt>
      <trkpt lat="45.12989" lon="4.30561">
        <ele>990.2</ele>
        <time>2026-04-25T07:05:22Z</time>
      </trkpt>
      <trkpt lat="45.12982" lon="4.30553">
        <ele>989.8</ele>
        <time>2026-04-25T07:05:27Z</time>
      </trkpt>
      <trkpt lat="45.12976" lon="4.30545">
        <ele>989.5</ele>
        <time>2026-04-25T07:05:32Z</time>
      </trkpt>
      <trkpt lat="45.12971" lon="4.3054">
        <ele>989.3</ele>
        <time>2026-04-25T07:05:37Z</time>
      </trkpt>
      <trkpt lat="45.1297" lon="4.30539">
        <ele>989.2</ele>
        <time>2026-04-25T07:05:42Z</time>
      </trkpt>
      <trkpt lat="45.1297" lon="4.30539">
        <ele>989.2</ele>
        <time>2026-04-25T07:05:47Z</time>
      </trkpt>
      <trkpt lat="45.1297" lon="4.30539">
        <ele>989.2</ele>
        <time>2026-04-25T07:05:52Z</time>
      </trkpt>
      <trkpt lat="45.1297" lon="4.30539">
        <ele>989.2</ele>
        <time>2026-04-25T07:05:57Z</time>
      </trkpt>
      <trkpt lat="45.1297" lon="4.30539">
        <ele>989.2</ele>
        <time>2026-04-25T07:06:02Z</time>
      </trkpt>
      <trkpt lat="45.1297" lon="4.30539">
        <ele>989.2</ele>
        <time>2026-04-25T07:06:07Z</time>
      </trkpt>
      <trkpt lat="45.1297" lon="4.30539">
        <ele>989.2</ele>
        <time>2026-04-25T07:06:12Z</time>
      </trkpt>
      <trkpt lat="45.1297" lon="4.30539">
        <ele>989.2</ele>
        <time>2026-04-25T07:06:17Z</time>
      </trkpt>
      <trkpt lat="45.1297" lon="4.30539">
        <ele>989.2</ele>
        <time>2026-04-25T07:06:22Z</time>
      </trkpt>
      <trkpt lat="45.1297" lon="4.30539">
        <ele>989.2</ele>
        <time>2026-04-25T07:06:27Z</time>
      </trkpt>
      <trkpt lat="45.12964" lon="4.30539">
        <ele>989</ele>
        <time>2026-04-25T07:06:32Z</time>
      </trkpt>
      <trkpt lat="45.12959" lon="4.30527">
        <ele>988.9</ele>
        <time>2026-04-25T07:06:37Z</time>
      </trkpt>
      <trkpt lat="45.12953" lon="4.30518">
        <ele>988.7</ele>
        <time>2026-04-25T07:06:42Z</time>
      </trkpt>
      <trkpt lat="45.12949" lon="4.30513">
        <ele>988.6</ele>
        <time>2026-04-25T07:06:47Z</time>
      </trkpt>
      <trkpt lat="45.12941" lon="4.30506">
        <ele>988.5</ele>
        <time>2026-04-25T07:06:52Z</time>
      </trkpt>
      <trkpt lat="45.12936" lon="4.30499">
        <ele>988.5</ele>
        <time>2026-04-25T07:06:57Z</time>
      </trkpt>
      <trkpt lat="45.1293" lon="4.30492">
        <ele>988.3</ele>
        <time>2026-04-25T07:07:02Z</time>
      </trkpt>
      <trkpt lat="45.12925" lon="4.30483">
        <ele>988.3</ele>
        <time>2026-04-25T07:07:07Z</time>
      </trkpt>
      <trkpt lat="45.1292" lon="4.30473">
        <ele>988.3</ele>
        <time>2026-04-25T07:07:12Z</time>
      </trkpt>
      <trkpt lat="45.12916" lon="4.30467">
        <ele>988.3</ele>
        <time>2026-04-25T07:07:17Z</time>
      </trkpt>
      <trkpt lat="45.12911" lon="4.30461">
        <ele>987.9</ele>
        <time>2026-04-25T07:07:22Z</time>
      </trkpt>
      <trkpt lat="45.12904" lon="4.30452">
        <ele>987.4</ele>
        <time>2026-04-25T07:07:27Z</time>
      </trkpt>
      <trkpt lat="45.12899" lon="4.30443">
        <ele>987.1</ele>
        <time>2026-04-25T07:07:32Z</time>
      </trkpt>
      <trkpt lat="45.12896" lon="4.30434">
        <ele>987</ele>
        <time>2026-04-25T07:07:37Z</time>
      </trkpt>
      <trkpt lat="45.12891" lon="4.30425">
        <ele>986.7</ele>
        <time>2026-04-25T07:07:42Z</time>
      </trkpt>
      <trkpt lat="45.12887" lon="4.30417">
        <ele>986.5</ele>
        <time>2026-04-25T07:07:47Z</time>
      </trkpt>
      <trkpt lat="45.12883" lon="4.30408">
        <ele>985.3</ele>
        <time>2026-04-25T07:07:52Z</time>
      </trkpt>
      <trkpt lat="45.12881" lon="4.30399">
        <ele>984.2</ele>
        <time>2026-04-25T07:07:57Z</time>
      </trkpt>
      <trkpt lat="45.12877" lon="4.3039">
        <ele>982.8</ele>
        <time>2026-04-25T07:08:02Z</time>
      </trkpt>
      <trkpt lat="45.12874" lon="4.3038">
        <ele>981.4</ele>
        <time>2026-04-25T07:08:07Z</time>
      </trkpt>
      <trkpt lat="45.12871" lon="4.3037">
        <ele>980</ele>
        <time>2026-04-25T07:08:12Z</time>
      </trkpt>
      <trkpt lat="45.12868" lon="4.30361">
        <ele>978.7</ele>
        <time>2026-04-25T07:08:17Z</time>
      </trkpt>
      <trkpt lat="45.12862" lon="4.3035">
        <ele>976.7</ele>
        <time>2026-04-25T07:08:22Z</time>
      </trkpt>
      <trkpt lat="45.12855" lon="4.30348">
        <ele>975.6</ele>
        <time>2026-04-25T07:08:27Z</time>
      </trkpt>
      <trkpt lat="45.1285" lon="4.30352">
        <ele>975.5</ele>
        <time>2026-04-25T07:08:32Z</time>
      </trkpt>
      <trkpt lat="45.12842" lon="4.30358">
        <ele>975.3</ele>
        <time>2026-04-25T07:08:37Z</time>
      </trkpt>
      <trkpt lat="45.12835" lon="4.30363">
        <ele>975.1</ele>
        <time>2026-04-25T07:08:42Z</time>
      </trkpt>
      <trkpt lat="45.12828" lon="4.30367">
        <ele>974.3</ele>
        <time>2026-04-25T07:08:47Z</time>
      </trkpt>
      <trkpt lat="45.12821" lon="4.30372">
        <ele>973.4</ele>
        <time>2026-04-25T07:08:52Z</time>
      </trkpt>
      <trkpt lat="45.12815" lon="4.30373">
        <ele>972.2</ele>
        <time>2026-04-25T07:08:57Z</time>
      </trkpt>
      <trkpt lat="45.12809" lon="4.30371">
        <ele>970.6</ele>
        <time>2026-04-25T07:09:02Z</time>
      </trkpt>
      <trkpt lat="45.12802" lon="4.30367">
        <ele>968.5</ele>
        <time>2026-04-25T07:09:07Z</time>
      </trkpt>
      <trkpt lat="45.12798" lon="4.30364">
        <ele>967.1</ele>
        <time>2026-04-25T07:09:12Z</time>
      </trkpt>
      <trkpt lat="45.12798" lon="4.30361">
        <ele>966.7</ele>
        <time>2026-04-25T07:09:17Z</time>
      </trkpt>
      <trkpt lat="45.12803" lon="4.30358">
        <ele>967.4</ele>
        <time>2026-04-25T07:09:22Z</time>
      </trkpt>
      <trkpt lat="45.12807" lon="4.30351">
        <ele>967.4</ele>
        <time>2026-04-25T07:09:27Z</time>
      </trkpt>
      <trkpt lat="45.12813" lon="4.30346">
        <ele>968.1</ele>
        <time>2026-04-25T07:09:32Z</time>
      </trkpt>
      <trkpt lat="45.12818" lon="4.30339">
        <ele>968.3</ele>
        <time>2026-04-25T07:09:37Z</time>
      </trkpt>
      <trkpt lat="45.12822" lon="4.30329">
        <ele>967.5</ele>
        <time>2026-04-25T07:09:42Z</time>
      </trkpt>
      <trkpt lat="45.12826" lon="4.30322">
        <ele>966.9</ele>
        <time>2026-04-25T07:09:47Z</time>
      </trkpt>
      <trkpt lat="45.12827" lon="4.30312">
        <ele>965</ele>
        <time>2026-04-25T07:09:52Z</time>
      </trkpt>
      <trkpt lat="45.12832" lon="4.30303">
        <ele>964.2</ele>
        <time>2026-04-25T07:09:57Z</time>
      </trkpt>
      <trkpt lat="45.12834" lon="4.30296">
        <ele>963.1</ele>
        <time>2026-04-25T07:10:02Z</time>
      </trkpt>
      <trkpt lat="45.12837" lon="4.3029">
        <ele>962.3</ele>
        <time>2026-04-25T07:10:07Z</time>
      </trkpt>
      <trkpt lat="45.1284" lon="4.30282">
        <ele>961.2</ele>
        <time>2026-04-25T07:10:12Z</time>
      </trkpt>
      <trkpt lat="45.12842" lon="4.30274">
        <ele>959.9</ele>
        <time>2026-04-25T07:10:17Z</time>
      </trkpt>
      <trkpt lat="45.12843" lon="4.30266">
        <ele>958.5</ele>
        <time>2026-04-25T07:10:22Z</time>
      </trkpt>
      <trkpt lat="45.12844" lon="4.30258">
        <ele>957.1</ele>
        <time>2026-04-25T07:10:27Z</time>
      </trkpt>
      <trkpt lat="45.12847" lon="4.30249">
        <ele>956</ele>
        <time>2026-04-25T07:10:32Z</time>
      </trkpt>
      <trkpt lat="45.12846" lon="4.3024">
        <ele>954.5</ele>
        <time>2026-04-25T07:10:37Z</time>
      </trkpt>
      <trkpt lat="45.12844" lon="4.30232">
        <ele>953</ele>
        <time>2026-04-25T07:10:42Z</time>
      </trkpt>
      <trkpt lat="45.12841" lon="4.30227">
        <ele>951.7</ele>
        <time>2026-04-25T07:10:47Z</time>
      </trkpt>
      <trkpt lat="45.12837" lon="4.30221">
        <ele>950</ele>
        <time>2026-04-25T07:10:52Z</time>
      </trkpt>
      <trkpt lat="45.12833" lon="4.30214">
        <ele>948.2</ele>
        <time>2026-04-25T07:10:57Z</time>
      </trkpt>
      <trkpt lat="45.12832" lon="4.30207">
        <ele>947.1</ele>
        <time>2026-04-25T07:11:02Z</time>
      </trkpt>
      <trkpt lat="45.12829" lon="4.30203">
        <ele>946</ele>
        <time>2026-04-25T07:11:07Z</time>
      </trkpt>
      <trkpt lat="45.12829" lon="4.30199">
        <ele>945.4</ele>
        <time>2026-04-25T07:11:12Z</time>
      </trkpt>
      <trkpt lat="45.12826" lon="4.30196">
        <ele>944.4</ele>
        <time>2026-04-25T07:11:17Z</time>
      </trkpt>
      <trkpt lat="45.12824" lon="4.30192">
        <ele>943.5</ele>
        <time>2026-04-25T07:11:22Z</time>
      </trkpt>
      <trkpt lat="45.12822" lon="4.30189">
        <ele>942.7</ele>
        <time>2026-04-25T07:11:27Z</time>
      </trkpt>
      <trkpt lat="45.1282" lon="4.30186">
        <ele>941.9</ele>
        <time>2026-04-25T07:11:32Z</time>
      </trkpt>
      <trkpt lat="45.12819" lon="4.30184">
        <ele>941.4</ele>
        <time>2026-04-25T07:11:37Z</time>
      </trkpt>
      <trkpt lat="45.12816" lon="4.30178">
        <ele>940</ele>
        <time>2026-04-25T07:11:42Z</time>
      </trkpt>
      <trkpt lat="45.12814" lon="4.30172">
        <ele>938.8</ele>
        <time>2026-04-25T07:11:47Z</time>
      </trkpt>
      <trkpt lat="45.1281" lon="4.30167">
        <ele>937.3</ele>
        <time>2026-04-25T07:11:52Z</time>
      </trkpt>
      <trkpt lat="45.12807" lon="4.30161">
        <ele>936.4</ele>
        <time>2026-04-25T07:11:57Z</time>
      </trkpt>
      <trkpt lat="45.12806" lon="4.30155">
        <ele>936</ele>
        <time>2026-04-25T07:12:02Z</time>
      </trkpt>
      <trkpt lat="45.12808" lon="4.30153">
        <ele>936.3</ele>
        <time>2026-04-25T07:12:07Z</time>
      </trkpt>
      <trkpt lat="45.12809" lon="4.30154">
        <ele>936.5</ele>
        <time>2026-04-25T07:12:12Z</time>
      </trkpt>
      <trkpt lat="45.12809" lon="4.30154">
        <ele>936.5</ele>
        <time>2026-04-25T07:12:17Z</time>
      </trkpt>
      <trkpt lat="45.12809" lon="4.30154">
        <ele>936.5</ele>
        <time>2026-04-25T07:12:22Z</time>
      </trkpt>
      <trkpt lat="45.12809" lon="4.30154">
        <ele>936.5</ele>
        <time>2026-04-25T07:12:27Z</time>
      </trkpt>
      <trkpt lat="45.12809" lon="4.30154">
        <ele>936.5</ele>
        <time>2026-04-25T07:12:32Z</time>
      </trkpt>
      <trkpt lat="45.12805" lon="4.3015">
        <ele>935.6</ele>
        <time>2026-04-25T07:12:37Z</time>
      </trkpt>
      <trkpt lat="45.12803" lon="4.30141">
        <ele>934.9</ele>
        <time>2026-04-25T07:12:42Z</time>
      </trkpt>
      <trkpt lat="45.12802" lon="4.30131">
        <ele>934.4</ele>
        <time>2026-04-25T07:12:47Z</time>
      </trkpt>
      <trkpt lat="45.12801" lon="4.30121">
        <ele>933.9</ele>
        <time>2026-04-25T07:12:52Z</time>
      </trkpt>
      <trkpt lat="45.12799" lon="4.3011">
        <ele>933.3</ele>
        <time>2026-04-25T07:12:57Z</time>
      </trkpt>
      <trkpt lat="45.12796" lon="4.30103">
        <ele>932.6</ele>
        <time>2026-04-25T07:13:02Z</time>
      </trkpt>
      <trkpt lat="45.12796" lon="4.301">
        <ele>932.5</ele>
        <time>2026-04-25T07:13:07Z</time>
      </trkpt>
      <trkpt lat="45.12796" lon="4.30099">
        <ele>932.5</ele>
        <time>2026-04-25T07:13:12Z</time>
      </trkpt>
      <trkpt lat="45.12796" lon="4.30099">
        <ele>932.5</ele>
        <time>2026-04-25T07:13:17Z</time>
      </trkpt>
      <trkpt lat="45.12796" lon="4.30099">
        <ele>932.5</ele>
        <time>2026-04-25T07:13:22Z</time>
      </trkpt>
      <trkpt lat="45.12796" lon="4.30099">
        <ele>932.5</ele>
        <time>2026-04-25T07:13:27Z</time>
      </trkpt>
      <trkpt lat="45.12793" lon="4.30096">
        <ele>932</ele>
        <time>2026-04-25T07:13:32Z</time>
      </trkpt>
      <trkpt lat="45.12787" lon="4.3009">
        <ele>931</ele>
        <time>2026-04-25T07:13:37Z</time>
      </trkpt>
      <trkpt lat="45.12781" lon="4.30084">
        <ele>930.1</ele>
        <time>2026-04-25T07:13:42Z</time>
      </trkpt>
      <trkpt lat="45.12776" lon="4.30078">
        <ele>929.4</ele>
        <time>2026-04-25T07:13:47Z</time>
      </trkpt>
      <trkpt lat="45.1277" lon="4.30071">
        <ele>928.5</ele>
        <time>2026-04-25T07:13:52Z</time>
      </trkpt>
      <trkpt lat="45.12765" lon="4.30061">
        <ele>927.8</ele>
        <time>2026-04-25T07:13:57Z</time>
      </trkpt>
      <trkpt lat="45.12761" lon="4.30052">
        <ele>927.1</ele>
        <time>2026-04-25T07:14:02Z</time>
      </trkpt>
      <trkpt lat="45.12755" lon="4.30047">
        <ele>926.3</ele>
        <time>2026-04-25T07:14:07Z</time>
      </trkpt>
      <trkpt lat="45.12748" lon="4.30047">
        <ele>925.3</ele>
        <time>2026-04-25T07:14:12Z</time>
      </trkpt>
      <trkpt lat="45.12742" lon="4.3005">
        <ele>924.5</ele>
        <time>2026-04-25T07:14:17Z</time>
      </trkpt>
      <trkpt lat="45.12736" lon="4.30052">
        <ele>923.7</ele>
        <time>2026-04-25T07:14:22Z</time>
      </trkpt>
      <trkpt lat="45.12727" lon="4.30053">
        <ele>922.4</ele>
        <time>2026-04-25T07:14:27Z</time>
      </trkpt>
      <trkpt lat="45.12721" lon="4.30047">
        <ele>921.6</ele>
        <time>2026-04-25T07:14:32Z</time>
      </trkpt>
      <trkpt lat="45.12718" lon="4.30038">
        <ele>921.3</ele>
        <time>2026-04-25T07:14:37Z</time>
      </trkpt>
      <trkpt lat="45.12717" lon="4.30026">
        <ele>921.3</ele>
        <time>2026-04-25T07:14:42Z</time>
      </trkpt>
      <trkpt lat="45.12716" lon="4.30017">
        <ele>921.2</ele>
        <time>2026-04-25T07:14:47Z</time>
      </trkpt>
      <trkpt lat="45.12715" lon="4.30008">
        <ele>921.2</ele>
        <time>2026-04-25T07:14:52Z</time>
      </trkpt>
      <trkpt lat="45.12714" lon="4.29999">
        <ele>921.1</ele>
        <time>2026-04-25T07:14:57Z</time>
      </trkpt>
      <trkpt lat="45.12713" lon="4.29989">
        <ele>921.2</ele>
        <time>2026-04-25T07:15:02Z</time>
      </trkpt>
      <trkpt lat="45.12711" lon="4.29981">
        <ele>921.1</ele>
        <time>2026-04-25T07:15:07Z</time>
      </trkpt>
      <trkpt lat="45.12711" lon="4.2997">
        <ele>921.3</ele>
        <time>2026-04-25T07:15:12Z</time>
      </trkpt>
      <trkpt lat="45.12709" lon="4.2996">
        <ele>921.3</ele>
        <time>2026-04-25T07:15:17Z</time>
      </trkpt>
      <trkpt lat="45.12706" lon="4.29952">
        <ele>921.2</ele>
        <time>2026-04-25T07:15:22Z</time>
      </trkpt>
      <trkpt lat="45.12702" lon="4.29943">
        <ele>921.1</ele>
        <time>2026-04-25T07:15:27Z</time>
      </trkpt>
      <trkpt lat="45.12698" lon="4.29932">
        <ele>921.1</ele>
        <time>2026-04-25T07:15:32Z</time>
      </trkpt>
      <trkpt lat="45.12693" lon="4.29923">
        <ele>921.1</ele>
        <time>2026-04-25T07:15:37Z</time>
      </trkpt>
      <trkpt lat="45.12689" lon="4.29913">
        <ele>921</ele>
        <time>2026-04-25T07:15:42Z</time>
      </trkpt>
      <trkpt lat="45.12685" lon="4.29904">
        <ele>920.5</ele>
        <time>2026-04-25T07:15:47Z</time>
      </trkpt>
      <trkpt lat="45.12681" lon="4.29896">
        <ele>920.1</ele>
        <time>2026-04-25T07:15:52Z</time>
      </trkpt>
      <trkpt lat="45.12678" lon="4.29888">
        <ele>919.8</ele>
        <time>2026-04-25T07:15:57Z</time>
      </trkpt>
      <trkpt lat="45.12672" lon="4.29883">
        <ele>919.4</ele>
        <time>2026-04-25T07:16:02Z</time>
      </trkpt>
      <trkpt lat="45.1267" lon="4.29881">
        <ele>919.3</ele>
        <time>2026-04-25T07:16:07Z</time>
      </trkpt>
      <trkpt lat="45.1267" lon="4.29879">
        <ele>919.2</ele>
        <time>2026-04-25T07:16:12Z</time>
      </trkpt>
      <trkpt lat="45.1267" lon="4.29879">
        <ele>919.2</ele>
        <time>2026-04-25T07:16:17Z</time>
      </trkpt>
      <trkpt lat="45.12667" lon="4.29883">
        <ele>919.2</ele>
        <time>2026-04-25T07:16:22Z</time>
      </trkpt>
      <trkpt lat="45.12661" lon="4.29888">
        <ele>918.9</ele>
        <time>2026-04-25T07:16:27Z</time>
      </trkpt>
      <trkpt lat="45.12652" lon="4.29893">
        <ele>918.5</ele>
        <time>2026-04-25T07:16:32Z</time>
      </trkpt>
      <trkpt lat="45.12647" lon="4.299">
        <ele>918.3</ele>
        <time>2026-04-25T07:16:37Z</time>
      </trkpt>
      <trkpt lat="45.12643" lon="4.29906">
        <ele>918.3</ele>
        <time>2026-04-25T07:16:42Z</time>
      </trkpt>
      <trkpt lat="45.12637" lon="4.29916">
        <ele>918.2</ele>
        <time>2026-04-25T07:16:47Z</time>
      </trkpt>
      <trkpt lat="45.12631" lon="4.29923">
        <ele>917.7</ele>
        <time>2026-04-25T07:16:52Z</time>
      </trkpt>
      <trkpt lat="45.12626" lon="4.2993">
        <ele>917.2</ele>
        <time>2026-04-25T07:16:57Z</time>
      </trkpt>
      <trkpt lat="45.12622" lon="4.29939">
        <ele>916.7</ele>
        <time>2026-04-25T07:17:02Z</time>
      </trkpt>
      <trkpt lat="45.12619" lon="4.29945">
        <ele>916.4</ele>
        <time>2026-04-25T07:17:07Z</time>
      </trkpt>
      <trkpt lat="45.12615" lon="4.29952">
        <ele>916</ele>
        <time>2026-04-25T07:17:12Z</time>
      </trkpt>
      <trkpt lat="45.1261" lon="4.29959">
        <ele>915.6</ele>
        <time>2026-04-25T07:17:17Z</time>
      </trkpt>
      <trkpt lat="45.12606" lon="4.29965">
        <ele>915.3</ele>
        <time>2026-04-25T07:17:22Z</time>
      </trkpt>
      <trkpt lat="45.126" lon="4.29973">
        <ele>914.9</ele>
        <time>2026-04-25T07:17:27Z</time>
      </trkpt>
      <trkpt lat="45.12597" lon="4.29978">
        <ele>914.7</ele>
        <time>2026-04-25T07:17:32Z</time>
      </trkpt>
      <trkpt lat="45.12591" lon="4.29986">
        <ele>914.4</ele>
        <time>2026-04-25T07:17:37Z</time>
      </trkpt>
      <trkpt lat="45.12585" lon="4.29993">
        <ele>914.1</ele>
        <time>2026-04-25T07:17:42Z</time>
      </trkpt>
      <trkpt lat="45.12582" lon="4.3">
        <ele>913.9</ele>
        <time>2026-04-25T07:17:47Z</time>
      </trkpt>
      <trkpt lat="45.12578" lon="4.30008">
        <ele>912.9</ele>
        <time>2026-04-25T07:17:52Z</time>
      </trkpt>
      <trkpt lat="45.12574" lon="4.30015">
        <ele>912.1</ele>
        <time>2026-04-25T07:17:57Z</time>
      </trkpt>
      <trkpt lat="45.12571" lon="4.30018">
        <ele>911.7</ele>
        <time>2026-04-25T07:18:02Z</time>
      </trkpt>
      <trkpt lat="45.12568" lon="4.30023">
        <ele>911.1</ele>
        <time>2026-04-25T07:18:07Z</time>
      </trkpt>
      <trkpt lat="45.12564" lon="4.30031">
        <ele>910.2</ele>
        <time>2026-04-25T07:18:12Z</time>
      </trkpt>
      <trkpt lat="45.1256" lon="4.30038">
        <ele>909.5</ele>
        <time>2026-04-25T07:18:17Z</time>
      </trkpt>
      <trkpt lat="45.12555" lon="4.30045">
        <ele>908.7</ele>
        <time>2026-04-25T07:18:22Z</time>
      </trkpt>
      <trkpt lat="45.12551" lon="4.30051">
        <ele>908.1</ele>
        <time>2026-04-25T07:18:27Z</time>
      </trkpt>
      <trkpt lat="45.12547" lon="4.3006">
        <ele>907.3</ele>
        <time>2026-04-25T07:18:32Z</time>
      </trkpt>
      <trkpt lat="45.12542" lon="4.3007">
        <ele>906.5</ele>
        <time>2026-04-25T07:18:37Z</time>
      </trkpt>
      <trkpt lat="45.12538" lon="4.30078">
        <ele>905.8</ele>
        <time>2026-04-25T07:18:42Z</time>
      </trkpt>
      <trkpt lat="45.12532" lon="4.30088">
        <ele>904.9</ele>
        <time>2026-04-25T07:18:47Z</time>
      </trkpt>
      <trkpt lat="45.12529" lon="4.30095">
        <ele>904</ele>
        <time>2026-04-25T07:18:52Z</time>
      </trkpt>
      <trkpt lat="45.12527" lon="4.30105">
        <ele>902.9</ele>
        <time>2026-04-25T07:18:57Z</time>
      </trkpt>
      <trkpt lat="45.12526" lon="4.30116">
        <ele>901.7</ele>
        <time>2026-04-25T07:19:02Z</time>
      </trkpt>
      <trkpt lat="45.12526" lon="4.30129">
        <ele>900.2</ele>
        <time>2026-04-25T07:19:07Z</time>
      </trkpt>
      <trkpt lat="45.12526" lon="4.30139">
        <ele>899.1</ele>
        <time>2026-04-25T07:19:12Z</time>
      </trkpt>
      <trkpt lat="45.12527" lon="4.30151">
        <ele>897.8</ele>
        <time>2026-04-25T07:19:17Z</time>
      </trkpt>
      <trkpt lat="45.12528" lon="4.30162">
        <ele>896.5</ele>
        <time>2026-04-25T07:19:22Z</time>
      </trkpt>
      <trkpt lat="45.12527" lon="4.30175">
        <ele>895.4</ele>
        <time>2026-04-25T07:19:27Z</time>
      </trkpt>
      <trkpt lat="45.12524" lon="4.30187">
        <ele>894.4</ele>
        <time>2026-04-25T07:19:32Z</time>
      </trkpt>
      <trkpt lat="45.12518" lon="4.30196">
        <ele>893.4</ele>
        <time>2026-04-25T07:19:37Z</time>
      </trkpt>
      <trkpt lat="45.12512" lon="4.30203">
        <ele>892.6</ele>
        <time>2026-04-25T07:19:42Z</time>
      </trkpt>
      <trkpt lat="45.12507" lon="4.30214">
        <ele>891.3</ele>
        <time>2026-04-25T07:19:47Z</time>
      </trkpt>
      <trkpt lat="45.12502" lon="4.30223">
        <ele>890</ele>
        <time>2026-04-25T07:19:52Z</time>
      </trkpt>
      <trkpt lat="45.12497" lon="4.30231">
        <ele>888.9</ele>
        <time>2026-04-25T07:19:57Z</time>
      </trkpt>
      <trkpt lat="45.12495" lon="4.30241">
        <ele>887.7</ele>
        <time>2026-04-25T07:20:02Z</time>
      </trkpt>
      <trkpt lat="45.12491" lon="4.30247">
        <ele>886.9</ele>
        <time>2026-04-25T07:20:07Z</time>
      </trkpt>
      <trkpt lat="45.12487" lon="4.30256">
        <ele>886.8</ele>
        <time>2026-04-25T07:20:12Z</time>
      </trkpt>
      <trkpt lat="45.12481" lon="4.30265">
        <ele>887.1</ele>
        <time>2026-04-25T07:20:17Z</time>
      </trkpt>
      <trkpt lat="45.12476" lon="4.30273">
        <ele>887.4</ele>
        <time>2026-04-25T07:20:22Z</time>
      </trkpt>
      <trkpt lat="45.12472" lon="4.30281">
        <ele>887.8</ele>
        <time>2026-04-25T07:20:27Z</time>
      </trkpt>
      <trkpt lat="45.12468" lon="4.30286">
        <ele>887.9</ele>
        <time>2026-04-25T07:20:32Z</time>
      </trkpt>
      <trkpt lat="45.12463" lon="4.30295">
        <ele>888.2</ele>
        <time>2026-04-25T07:20:37Z</time>
      </trkpt>
      <trkpt lat="45.12459" lon="4.30302">
        <ele>888.5</ele>
        <time>2026-04-25T07:20:42Z</time>
      </trkpt>
      <trkpt lat="45.12454" lon="4.3031">
        <ele>888.7</ele>
        <time>2026-04-25T07:20:47Z</time>
      </trkpt>
      <trkpt lat="45.12448" lon="4.30319">
        <ele>889</ele>
        <time>2026-04-25T07:20:52Z</time>
      </trkpt>
      <trkpt lat="45.12443" lon="4.30329">
        <ele>889.3</ele>
        <time>2026-04-25T07:20:57Z</time>
      </trkpt>
      <trkpt lat="45.12437" lon="4.30338">
        <ele>889.6</ele>
        <time>2026-04-25T07:21:02Z</time>
      </trkpt>
      <trkpt lat="45.12432" lon="4.30347">
        <ele>890</ele>
        <time>2026-04-25T07:21:07Z</time>
      </trkpt>
      <trkpt lat="45.12426" lon="4.30355">
        <ele>890.2</ele>
        <time>2026-04-25T07:21:12Z</time>
      </trkpt>
      <trkpt lat="45.12422" lon="4.30362">
        <ele>890.5</ele>
        <time>2026-04-25T07:21:17Z</time>
      </trkpt>
      <trkpt lat="45.12419" lon="4.30368">
        <ele>890.7</ele>
        <time>2026-04-25T07:21:22Z</time>
      </trkpt>
      <trkpt lat="45.12413" lon="4.30374">
        <ele>890.7</ele>
        <time>2026-04-25T07:21:27Z</time>
      </trkpt>
      <trkpt lat="45.12408" lon="4.30382">
        <ele>891.2</ele>
        <time>2026-04-25T07:21:32Z</time>
      </trkpt>
      <trkpt lat="45.12403" lon="4.30391">
        <ele>891.7</ele>
        <time>2026-04-25T07:21:37Z</time>
      </trkpt>
      <trkpt lat="45.12399" lon="4.30401">
        <ele>892.6</ele>
        <time>2026-04-25T07:21:42Z</time>
      </trkpt>
      <trkpt lat="45.12392" lon="4.30408">
        <ele>893.1</ele>
        <time>2026-04-25T07:21:47Z</time>
      </trkpt>
      <trkpt lat="45.12388" lon="4.30418">
        <ele>894</ele>
        <time>2026-04-25T07:21:52Z</time>
      </trkpt>
      <trkpt lat="45.12384" lon="4.30424">
        <ele>894.2</ele>
        <time>2026-04-25T07:21:57Z</time>
      </trkpt>
      <trkpt lat="45.12383" lon="4.30429">
        <ele>894.4</ele>
        <time>2026-04-25T07:22:02Z</time>
      </trkpt>
      <trkpt lat="45.1238" lon="4.30434">
        <ele>894.5</ele>
        <time>2026-04-25T07:22:07Z</time>
      </trkpt>
      <trkpt lat="45.12376" lon="4.3044">
        <ele>894.7</ele>
        <time>2026-04-25T07:22:12Z</time>
      </trkpt>
      <trkpt lat="45.12372" lon="4.30448">
        <ele>895</ele>
        <time>2026-04-25T07:22:17Z</time>
      </trkpt>
      <trkpt lat="45.12368" lon="4.30455">
        <ele>895.2</ele>
        <time>2026-04-25T07:22:22Z</time>
      </trkpt>
      <trkpt lat="45.12363" lon="4.30462">
        <ele>895.4</ele>
        <time>2026-04-25T07:22:27Z</time>
      </trkpt>
      <trkpt lat="45.12356" lon="4.3047">
        <ele>895.7</ele>
        <time>2026-04-25T07:22:32Z</time>
      </trkpt>
      <trkpt lat="45.12349" lon="4.30479">
        <ele>896.1</ele>
        <time>2026-04-25T07:22:37Z</time>
      </trkpt>
      <trkpt lat="45.12345" lon="4.30486">
        <ele>896.4</ele>
        <time>2026-04-25T07:22:42Z</time>
      </trkpt>
      <trkpt lat="45.1234" lon="4.30488">
        <ele>896.5</ele>
        <time>2026-04-25T07:22:47Z</time>
      </trkpt>
      <trkpt lat="45.12338" lon="4.30484">
        <ele>896.4</ele>
        <time>2026-04-25T07:22:52Z</time>
      </trkpt>
      <trkpt lat="45.12338" lon="4.30478">
        <ele>896.2</ele>
        <time>2026-04-25T07:22:57Z</time>
      </trkpt>
      <trkpt lat="45.12335" lon="4.30472">
        <ele>896</ele>
        <time>2026-04-25T07:23:02Z</time>
      </trkpt>
      <trkpt lat="45.12331" lon="4.3046">
        <ele>895.3</ele>
        <time>2026-04-25T07:23:07Z</time>
      </trkpt>
      <trkpt lat="45.12327" lon="4.3045">
        <ele>894.4</ele>
        <time>2026-04-25T07:23:12Z</time>
      </trkpt>
      <trkpt lat="45.12322" lon="4.30442">
        <ele>893.5</ele>
        <time>2026-04-25T07:23:17Z</time>
      </trkpt>
      <trkpt lat="45.12318" lon="4.30435">
        <ele>892.7</ele>
        <time>2026-04-25T07:23:22Z</time>
      </trkpt>
      <trkpt lat="45.12315" lon="4.3043">
        <ele>892.1</ele>
        <time>2026-04-25T07:23:27Z</time>
      </trkpt>
      <trkpt lat="45.12312" lon="4.30428">
        <ele>891.6</ele>
        <time>2026-04-25T07:23:32Z</time>
      </trkpt>
      <trkpt lat="45.12312" lon="4.30427">
        <ele>891.6</ele>
        <time>2026-04-25T07:23:37Z</time>
      </trkpt>
      <trkpt lat="45.12312" lon="4.30427">
        <ele>891.6</ele>
        <time>2026-04-25T07:23:42Z</time>
      </trkpt>
      <trkpt lat="45.12312" lon="4.30427">
        <ele>891.6</ele>
        <time>2026-04-25T07:23:47Z</time>
      </trkpt>
      <trkpt lat="45.12312" lon="4.30427">
        <ele>891.6</ele>
        <time>2026-04-25T07:23:52Z</time>
      </trkpt>
      <trkpt lat="45.12312" lon="4.30427">
        <ele>891.6</ele>
        <time>2026-04-25T07:23:57Z</time>
      </trkpt>
      <trkpt lat="45.1231" lon="4.30424">
        <ele>891.2</ele>
        <time>2026-04-25T07:24:02Z</time>
      </trkpt>
      <trkpt lat="45.12306" lon="4.30422">
        <ele>890.6</ele>
        <time>2026-04-25T07:24:07Z</time>
      </trkpt>
      <trkpt lat="45.12305" lon="4.30424">
        <ele>890.6</ele>
        <time>2026-04-25T07:24:12Z</time>
      </trkpt>
      <trkpt lat="45.12304" lon="4.30423">
        <ele>890.4</ele>
        <time>2026-04-25T07:24:17Z</time>
      </trkpt>
      <trkpt lat="45.12297" lon="4.30419">
        <ele>889.3</ele>
        <time>2026-04-25T07:24:22Z</time>
      </trkpt>
      <trkpt lat="45.12293" lon="4.30412">
        <ele>887.9</ele>
        <time>2026-04-25T07:24:27Z</time>
      </trkpt>
      <trkpt lat="45.12289" lon="4.30407">
        <ele>886.6</ele>
        <time>2026-04-25T07:24:32Z</time>
      </trkpt>
      <trkpt lat="45.12287" lon="4.30403">
        <ele>885.7</ele>
        <time>2026-04-25T07:24:37Z</time>
      </trkpt>
      <trkpt lat="45.12285" lon="4.30399">
        <ele>884.8</ele>
        <time>2026-04-25T07:24:42Z</time>
      </trkpt>
      <trkpt lat="45.1228" lon="4.30395">
        <ele>883.5</ele>
        <time>2026-04-25T07:24:47Z</time>
      </trkpt>
      <trkpt lat="45.12275" lon="4.30391">
        <ele>882.2</ele>
        <time>2026-04-25T07:24:52Z</time>
      </trkpt>
      <trkpt lat="45.12269" lon="4.3039">
        <ele>881.3</ele>
        <time>2026-04-25T07:24:57Z</time>
      </trkpt>
      <trkpt lat="45.12267" lon="4.30387">
        <ele>880.5</ele>
        <time>2026-04-25T07:25:02Z</time>
      </trkpt>
      <trkpt lat="45.12269" lon="4.30383">
        <ele>880.2</ele>
        <time>2026-04-25T07:25:07Z</time>
      </trkpt>
      <trkpt lat="45.12273" lon="4.30378">
        <ele>879.9</ele>
        <time>2026-04-25T07:25:12Z</time>
      </trkpt>
      <trkpt lat="45.12271" lon="4.30369">
        <ele>878.2</ele>
        <time>2026-04-25T07:25:17Z</time>
      </trkpt>
      <trkpt lat="45.12269" lon="4.3036">
        <ele>876.5</ele>
        <time>2026-04-25T07:25:22Z</time>
      </trkpt>
      <trkpt lat="45.12266" lon="4.30351">
        <ele>874.7</ele>
        <time>2026-04-25T07:25:27Z</time>
      </trkpt>
      <trkpt lat="45.12266" lon="4.30344">
        <ele>873.6</ele>
        <time>2026-04-25T07:25:32Z</time>
      </trkpt>
      <trkpt lat="45.12264" lon="4.30337">
        <ele>872.3</ele>
        <time>2026-04-25T07:25:37Z</time>
      </trkpt>
      <trkpt lat="45.12263" lon="4.30328">
        <ele>871.6</ele>
        <time>2026-04-25T07:25:42Z</time>
      </trkpt>
      <trkpt lat="45.12263" lon="4.30323">
        <ele>871.7</ele>
        <time>2026-04-25T07:25:47Z</time>
      </trkpt>
      <trkpt lat="45.12261" lon="4.3032">
        <ele>871.5</ele>
        <time>2026-04-25T07:25:52Z</time>
      </trkpt>
      <trkpt lat="45.1226" lon="4.30312">
        <ele>871.6</ele>
        <time>2026-04-25T07:25:57Z</time>
      </trkpt>
      <trkpt lat="45.1226" lon="4.30306">
        <ele>871.7</ele>
        <time>2026-04-25T07:26:02Z</time>
      </trkpt>
      <trkpt lat="45.12258" lon="4.30298">
        <ele>871.7</ele>
        <time>2026-04-25T07:26:07Z</time>
      </trkpt>
      <trkpt lat="45.12256" lon="4.30293">
        <ele>871.8</ele>
        <time>2026-04-25T07:26:12Z</time>
      </trkpt>
      <trkpt lat="45.12256" lon="4.30286">
        <ele>871.9</ele>
        <time>2026-04-25T07:26:17Z</time>
      </trkpt>
      <trkpt lat="45.12254" lon="4.30279">
        <ele>872.1</ele>
        <time>2026-04-25T07:26:22Z</time>
      </trkpt>
      <trkpt lat="45.1225" lon="4.3027">
        <ele>872.3</ele>
        <time>2026-04-25T07:26:27Z</time>
      </trkpt>
      <trkpt lat="45.12245" lon="4.30263">
        <ele>873</ele>
        <time>2026-04-25T07:26:32Z</time>
      </trkpt>
      <trkpt lat="45.12242" lon="4.30261">
        <ele>873.3</ele>
        <time>2026-04-25T07:26:37Z</time>
      </trkpt>
      <trkpt lat="45.12237" lon="4.30264">
        <ele>873.6</ele>
        <time>2026-04-25T07:26:42Z</time>
      </trkpt>
      <trkpt lat="45.12237" lon="4.30265">
        <ele>873.5</ele>
        <time>2026-04-25T07:26:47Z</time>
      </trkpt>
      <trkpt lat="45.12237" lon="4.30265">
        <ele>873.5</ele>
        <time>2026-04-25T07:26:52Z</time>
      </trkpt>
      <trkpt lat="45.12237" lon="4.30265">
        <ele>873.5</ele>
        <time>2026-04-25T07:26:57Z</time>
      </trkpt>
      <trkpt lat="45.12237" lon="4.30265">
        <ele>873.5</ele>
        <time>2026-04-25T07:27:02Z</time>
      </trkpt>
      <trkpt lat="45.12237" lon="4.30265">
        <ele>873.5</ele>
        <time>2026-04-25T07:27:07Z</time>
      </trkpt>
      <trkpt lat="45.12237" lon="4.30265">
        <ele>873.5</ele>
        <time>2026-04-25T07:27:12Z</time>
      </trkpt>
      <trkpt lat="45.12237" lon="4.30265">
        <ele>873.5</ele>
        <time>2026-04-25T07:27:17Z</time>
      </trkpt>
      <trkpt lat="45.12237" lon="4.30265">
        <ele>873.5</ele>
        <time>2026-04-25T07:27:22Z</time>
      </trkpt>
      <trkpt lat="45.12237" lon="4.30265">
        <ele>873.5</ele>
        <time>2026-04-25T07:27:27Z</time>
      </trkpt>
      <trkpt lat="45.12237" lon="4.30265">
        <ele>873.5</ele>
        <time>2026-04-25T07:27:32Z</time>
      </trkpt>
      <trkpt lat="45.12237" lon="4.30265">
        <ele>873.5</ele>
        <time>2026-04-25T07:27:37Z</time>
      </trkpt>
      <trkpt lat="45.12237" lon="4.30265">
        <ele>873.5</ele>
        <time>2026-04-25T07:27:42Z</time>
      </trkpt>
      <trkpt lat="45.12237" lon="4.30265">
        <ele>873.5</ele>
        <time>2026-04-25T07:27:47Z</time>
      </trkpt>
      <trkpt lat="45.12237" lon="4.30265">
        <ele>873.5</ele>
        <time>2026-04-25T07:27:52Z</time>
      </trkpt>
      <trkpt lat="45.12234" lon="4.30257">
        <ele>874.3</ele>
        <time>2026-04-25T07:27:57Z</time>
      </trkpt>
      <trkpt lat="45.12232" lon="4.3025">
        <ele>874.9</ele>
        <time>2026-04-25T07:28:02Z</time>
      </trkpt>
      <trkpt lat="45.12228" lon="4.30247">
        <ele>875.6</ele>
        <time>2026-04-25T07:28:07Z</time>
      </trkpt>
      <trkpt lat="45.12226" lon="4.30239">
        <ele>876.3</ele>
        <time>2026-04-25T07:28:12Z</time>
      </trkpt>
      <trkpt lat="45.12224" lon="4.30232">
        <ele>876.9</ele>
        <time>2026-04-25T07:28:17Z</time>
      </trkpt>
      <trkpt lat="45.1222" lon="4.30225">
        <ele>877.7</ele>
        <time>2026-04-25T07:28:22Z</time>
      </trkpt>
      <trkpt lat="45.12216" lon="4.30215">
        <ele>878.8</ele>
        <time>2026-04-25T07:28:27Z</time>
      </trkpt>
      <trkpt lat="45.12213" lon="4.30207">
        <ele>879.6</ele>
        <time>2026-04-25T07:28:32Z</time>
      </trkpt>
      <trkpt lat="45.1221" lon="4.30199">
        <ele>880.4</ele>
        <time>2026-04-25T07:28:37Z</time>
      </trkpt>
      <trkpt lat="45.12209" lon="4.30189">
        <ele>881.1</ele>
        <time>2026-04-25T07:28:42Z</time>
      </trkpt>
      <trkpt lat="45.12208" lon="4.30183">
        <ele>881.6</ele>
        <time>2026-04-25T07:28:47Z</time>
      </trkpt>
      <trkpt lat="45.12206" lon="4.30176">
        <ele>882.2</ele>
        <time>2026-04-25T07:28:52Z</time>
      </trkpt>
      <trkpt lat="45.12205" lon="4.30168">
        <ele>882.8</ele>
        <time>2026-04-25T07:28:57Z</time>
      </trkpt>
      <trkpt lat="45.12208" lon="4.3016">
        <ele>882</ele>
        <time>2026-04-25T07:29:02Z</time>
      </trkpt>
      <trkpt lat="45.12208" lon="4.30155">
        <ele>881.6</ele>
        <time>2026-04-25T07:29:07Z</time>
      </trkpt>
      <trkpt lat="45.12206" lon="4.3015">
        <ele>881.4</ele>
        <time>2026-04-25T07:29:12Z</time>
      </trkpt>
      <trkpt lat="45.12203" lon="4.30143">
        <ele>881.1</ele>
        <time>2026-04-25T07:29:17Z</time>
      </trkpt>
      <trkpt lat="45.12202" lon="4.30141">
        <ele>881.1</ele>
        <time>2026-04-25T07:29:22Z</time>
      </trkpt>
      <trkpt lat="45.12202" lon="4.30141">
        <ele>881.1</ele>
        <time>2026-04-25T07:29:27Z</time>
      </trkpt>
      <trkpt lat="45.12202" lon="4.30141">
        <ele>881.1</ele>
        <time>2026-04-25T07:29:32Z</time>
      </trkpt>
      <trkpt lat="45.12202" lon="4.30141">
        <ele>881.1</ele>
        <time>2026-04-25T07:29:37Z</time>
      </trkpt>
      <trkpt lat="45.12202" lon="4.30141">
        <ele>881.1</ele>
        <time>2026-04-25T07:29:42Z</time>
      </trkpt>
      <trkpt lat="45.12198" lon="4.30136">
        <ele>881</ele>
        <time>2026-04-25T07:29:47Z</time>
      </trkpt>
      <trkpt lat="45.12198" lon="4.30129">
        <ele>880.4</ele>
        <time>2026-04-25T07:29:52Z</time>
      </trkpt>
      <trkpt lat="45.12199" lon="4.30128">
        <ele>880.2</ele>
        <time>2026-04-25T07:29:57Z</time>
      </trkpt>
      <trkpt lat="45.12199" lon="4.30128">
        <ele>880.2</ele>
        <time>2026-04-25T07:30:02Z</time>
      </trkpt>
      <trkpt lat="45.12199" lon="4.30128">
        <ele>880.2</ele>
        <time>2026-04-25T07:30:07Z</time>
      </trkpt>
      <trkpt lat="45.12196" lon="4.3012">
        <ele>879.8</ele>
        <time>2026-04-25T07:30:12Z</time>
      </trkpt>
      <trkpt lat="45.12195" lon="4.30111">
        <ele>879.1</ele>
        <time>2026-04-25T07:30:17Z</time>
      </trkpt>
      <trkpt lat="45.12191" lon="4.30103">
        <ele>878.6</ele>
        <time>2026-04-25T07:30:22Z</time>
      </trkpt>
      <trkpt lat="45.12188" lon="4.30094">
        <ele>878</ele>
        <time>2026-04-25T07:30:27Z</time>
      </trkpt>
      <trkpt lat="45.12186" lon="4.30089">
        <ele>877.6</ele>
        <time>2026-04-25T07:30:32Z</time>
      </trkpt>
      <trkpt lat="45.12181" lon="4.30081">
        <ele>877.2</ele>
        <time>2026-04-25T07:30:37Z</time>
      </trkpt>
      <trkpt lat="45.12178" lon="4.30074">
        <ele>876.9</ele>
        <time>2026-04-25T07:30:42Z</time>
      </trkpt>
      <trkpt lat="45.12175" lon="4.30067">
        <ele>876.7</ele>
        <time>2026-04-25T07:30:47Z</time>
      </trkpt>
      <trkpt lat="45.12172" lon="4.30059">
        <ele>876.3</ele>
        <time>2026-04-25T07:30:52Z</time>
      </trkpt>
      <trkpt lat="45.1217" lon="4.30052">
        <ele>876</ele>
        <time>2026-04-25T07:30:57Z</time>
      </trkpt>
      <trkpt lat="45.12168" lon="4.30046">
        <ele>875.7</ele>
        <time>2026-04-25T07:31:02Z</time>
      </trkpt>
      <trkpt lat="45.12165" lon="4.30039">
        <ele>875.3</ele>
        <time>2026-04-25T07:31:07Z</time>
      </trkpt>
      <trkpt lat="45.12162" lon="4.30034">
        <ele>875.1</ele>
        <time>2026-04-25T07:31:12Z</time>
      </trkpt>
      <trkpt lat="45.12159" lon="4.3003">
        <ele>874.8</ele>
        <time>2026-04-25T07:31:17Z</time>
      </trkpt>
      <trkpt lat="45.12156" lon="4.30029">
        <ele>874.8</ele>
        <time>2026-04-25T07:31:22Z</time>
      </trkpt>
      <trkpt lat="45.12153" lon="4.30028">
        <ele>874.7</ele>
        <time>2026-04-25T07:31:27Z</time>
      </trkpt>
      <trkpt lat="45.12149" lon="4.30027">
        <ele>874.7</ele>
        <time>2026-04-25T07:31:32Z</time>
      </trkpt>
      <trkpt lat="45.12144" lon="4.30028">
        <ele>874.8</ele>
        <time>2026-04-25T07:31:37Z</time>
      </trkpt>
      <trkpt lat="45.12138" lon="4.30028">
        <ele>874.8</ele>
        <time>2026-04-25T07:31:42Z</time>
      </trkpt>
      <trkpt lat="45.12131" lon="4.30027">
        <ele>874.8</ele>
        <time>2026-04-25T07:31:47Z</time>
      </trkpt>
      <trkpt lat="45.12127" lon="4.30026">
        <ele>874.7</ele>
        <time>2026-04-25T07:31:52Z</time>
      </trkpt>
      <trkpt lat="45.12123" lon="4.30024">
        <ele>874.7</ele>
        <time>2026-04-25T07:31:57Z</time>
      </trkpt>
      <trkpt lat="45.12122" lon="4.30025">
        <ele>874.7</ele>
        <time>2026-04-25T07:32:02Z</time>
      </trkpt>
      <trkpt lat="45.12122" lon="4.30025">
        <ele>874.7</ele>
        <time>2026-04-25T07:32:07Z</time>
      </trkpt>
      <trkpt lat="45.12122" lon="4.30025">
        <ele>874.7</ele>
        <time>2026-04-25T07:32:12Z</time>
      </trkpt>
      <trkpt lat="45.12122" lon="4.30025">
        <ele>874.7</ele>
        <time>2026-04-25T07:32:17Z</time>
      </trkpt>
      <trkpt lat="45.12117" lon="4.30025">
        <ele>874.7</ele>
        <time>2026-04-25T07:32:22Z</time>
      </trkpt>
      <trkpt lat="45.12109" lon="4.30028">
        <ele>874.9</ele>
        <time>2026-04-25T07:32:27Z</time>
      </trkpt>
      <trkpt lat="45.12102" lon="4.30028">
        <ele>874.9</ele>
        <time>2026-04-25T07:32:32Z</time>
      </trkpt>
      <trkpt lat="45.12095" lon="4.30028">
        <ele>875</ele>
        <time>2026-04-25T07:32:37Z</time>
      </trkpt>
      <trkpt lat="45.12089" lon="4.30028">
        <ele>875</ele>
        <time>2026-04-25T07:32:42Z</time>
      </trkpt>
      <trkpt lat="45.12087" lon="4.30028">
        <ele>875</ele>
        <time>2026-04-25T07:32:47Z</time>
      </trkpt>
      <trkpt lat="45.12086" lon="4.30027">
        <ele>875</ele>
        <time>2026-04-25T07:32:52Z</time>
      </trkpt>
      <trkpt lat="45.12082" lon="4.30023">
        <ele>874.8</ele>
        <time>2026-04-25T07:32:57Z</time>
      </trkpt>
      <trkpt lat="45.12075" lon="4.30021">
        <ele>874.6</ele>
        <time>2026-04-25T07:33:02Z</time>
      </trkpt>
      <trkpt lat="45.12068" lon="4.30017">
        <ele>874.2</ele>
        <time>2026-04-25T07:33:07Z</time>
      </trkpt>
      <trkpt lat="45.12063" lon="4.30013">
        <ele>874</ele>
        <time>2026-04-25T07:33:12Z</time>
      </trkpt>
      <trkpt lat="45.12056" lon="4.3001">
        <ele>873.7</ele>
        <time>2026-04-25T07:33:17Z</time>
      </trkpt>
      <trkpt lat="45.1205" lon="4.30008">
        <ele>873.5</ele>
        <time>2026-04-25T07:33:22Z</time>
      </trkpt>
      <trkpt lat="45.12045" lon="4.30005">
        <ele>873.3</ele>
        <time>2026-04-25T07:33:27Z</time>
      </trkpt>
      <trkpt lat="45.1204" lon="4.30003">
        <ele>873.1</ele>
        <time>2026-04-25T07:33:32Z</time>
      </trkpt>
      <trkpt lat="45.12034" lon="4.3">
        <ele>872.8</ele>
        <time>2026-04-25T07:33:37Z</time>
      </trkpt>
      <trkpt lat="45.12026" lon="4.29996">
        <ele>872.4</ele>
        <time>2026-04-25T07:33:42Z</time>
      </trkpt>
      <trkpt lat="45.12019" lon="4.29993">
        <ele>872.1</ele>
        <time>2026-04-25T07:33:47Z</time>
      </trkpt>
      <trkpt lat="45.12012" lon="4.29988">
        <ele>871.6</ele>
        <time>2026-04-25T07:33:52Z</time>
      </trkpt>
      <trkpt lat="45.12006" lon="4.29985">
        <ele>871.3</ele>
        <time>2026-04-25T07:33:57Z</time>
      </trkpt>
      <trkpt lat="45.11999" lon="4.2998">
        <ele>870.7</ele>
        <time>2026-04-25T07:34:02Z</time>
      </trkpt>
      <trkpt lat="45.11993" lon="4.29974">
        <ele>870</ele>
        <time>2026-04-25T07:34:07Z</time>
      </trkpt>
      <trkpt lat="45.11987" lon="4.2997">
        <ele>869.4</ele>
        <time>2026-04-25T07:34:12Z</time>
      </trkpt>
      <trkpt lat="45.11979" lon="4.29965">
        <ele>868.7</ele>
        <time>2026-04-25T07:34:17Z</time>
      </trkpt>
      <trkpt lat="45.11972" lon="4.29962">
        <ele>868.1</ele>
        <time>2026-04-25T07:34:22Z</time>
      </trkpt>
      <trkpt lat="45.11964" lon="4.29957">
        <ele>867.5</ele>
        <time>2026-04-25T07:34:27Z</time>
      </trkpt>
      <trkpt lat="45.11958" lon="4.2995">
        <ele>867</ele>
        <time>2026-04-25T07:34:32Z</time>
      </trkpt>
      <trkpt lat="45.11952" lon="4.29945">
        <ele>866.6</ele>
        <time>2026-04-25T07:34:37Z</time>
      </trkpt>
      <trkpt lat="45.11947" lon="4.2994">
        <ele>866.2</ele>
        <time>2026-04-25T07:34:42Z</time>
      </trkpt>
      <trkpt lat="45.11946" lon="4.29939">
        <ele>866.2</ele>
        <time>2026-04-25T07:34:47Z</time>
      </trkpt>
      <trkpt lat="45.11943" lon="4.29937">
        <ele>866</ele>
        <time>2026-04-25T07:34:52Z</time>
      </trkpt>
      <trkpt lat="45.11937" lon="4.2993">
        <ele>865.7</ele>
        <time>2026-04-25T07:34:57Z</time>
      </trkpt>
      <trkpt lat="45.1193" lon="4.29925">
        <ele>865.4</ele>
        <time>2026-04-25T07:35:02Z</time>
      </trkpt>
      <trkpt lat="45.11925" lon="4.2992">
        <ele>865.2</ele>
        <time>2026-04-25T07:35:07Z</time>
      </trkpt>
      <trkpt lat="45.11918" lon="4.29915">
        <ele>865</ele>
        <time>2026-04-25T07:35:12Z</time>
      </trkpt>
      <trkpt lat="45.11911" lon="4.29912">
        <ele>865.4</ele>
        <time>2026-04-25T07:35:17Z</time>
      </trkpt>
      <trkpt lat="45.11903" lon="4.29911">
        <ele>866</ele>
        <time>2026-04-25T07:35:22Z</time>
      </trkpt>
      <trkpt lat="45.11896" lon="4.29915">
        <ele>866.7</ele>
        <time>2026-04-25T07:35:27Z</time>
      </trkpt>
      <trkpt lat="45.11888" lon="4.29917">
        <ele>867.4</ele>
        <time>2026-04-25T07:35:32Z</time>
      </trkpt>
      <trkpt lat="45.11881" lon="4.29916">
        <ele>868</ele>
        <time>2026-04-25T07:35:37Z</time>
      </trkpt>
      <trkpt lat="45.11874" lon="4.29909">
        <ele>868.5</ele>
        <time>2026-04-25T07:35:42Z</time>
      </trkpt>
      <trkpt lat="45.11869" lon="4.29902">
        <ele>868.9</ele>
        <time>2026-04-25T07:35:47Z</time>
      </trkpt>
      <trkpt lat="45.11864" lon="4.29894">
        <ele>869.2</ele>
        <time>2026-04-25T07:35:52Z</time>
      </trkpt>
      <trkpt lat="45.11858" lon="4.29885">
        <ele>869.7</ele>
        <time>2026-04-25T07:35:57Z</time>
      </trkpt>
      <trkpt lat="45.11853" lon="4.29877">
        <ele>870.1</ele>
        <time>2026-04-25T07:36:02Z</time>
      </trkpt>
      <trkpt lat="45.11849" lon="4.29868">
        <ele>870.5</ele>
        <time>2026-04-25T07:36:07Z</time>
      </trkpt>
      <trkpt lat="45.11844" lon="4.29859">
        <ele>870.9</ele>
        <time>2026-04-25T07:36:12Z</time>
      </trkpt>
      <trkpt lat="45.1184" lon="4.29849">
        <ele>871.3</ele>
        <time>2026-04-25T07:36:17Z</time>
      </trkpt>
      <trkpt lat="45.11835" lon="4.2984">
        <ele>871.8</ele>
        <time>2026-04-25T07:36:22Z</time>
      </trkpt>
      <trkpt lat="45.11831" lon="4.29831">
        <ele>872.5</ele>
        <time>2026-04-25T07:36:27Z</time>
      </trkpt>
      <trkpt lat="45.11827" lon="4.29822">
        <ele>873.7</ele>
        <time>2026-04-25T07:36:32Z</time>
      </trkpt>
      <trkpt lat="45.11823" lon="4.29812">
        <ele>875</ele>
        <time>2026-04-25T07:36:37Z</time>
      </trkpt>
      <trkpt lat="45.11819" lon="4.29802">
        <ele>876.2</ele>
        <time>2026-04-25T07:36:42Z</time>
      </trkpt>
      <trkpt lat="45.11815" lon="4.29793">
        <ele>877.3</ele>
        <time>2026-04-25T07:36:47Z</time>
      </trkpt>
      <trkpt lat="45.11812" lon="4.29783">
        <ele>878.3</ele>
        <time>2026-04-25T07:36:52Z</time>
      </trkpt>
      <trkpt lat="45.11809" lon="4.29774">
        <ele>879.2</ele>
        <time>2026-04-25T07:36:57Z</time>
      </trkpt>
      <trkpt lat="45.11805" lon="4.29764">
        <ele>880.1</ele>
        <time>2026-04-25T07:37:02Z</time>
      </trkpt>
      <trkpt lat="45.11803" lon="4.29754">
        <ele>880.9</ele>
        <time>2026-04-25T07:37:07Z</time>
      </trkpt>
      <trkpt lat="45.11801" lon="4.29745">
        <ele>881.1</ele>
        <time>2026-04-25T07:37:12Z</time>
      </trkpt>
      <trkpt lat="45.11798" lon="4.29735">
        <ele>880.9</ele>
        <time>2026-04-25T07:37:17Z</time>
      </trkpt>
      <trkpt lat="45.11796" lon="4.29725">
        <ele>880.7</ele>
        <time>2026-04-25T07:37:22Z</time>
      </trkpt>
      <trkpt lat="45.11793" lon="4.29716">
        <ele>880.5</ele>
        <time>2026-04-25T07:37:27Z</time>
      </trkpt>
      <trkpt lat="45.11791" lon="4.29707">
        <ele>880.2</ele>
        <time>2026-04-25T07:37:32Z</time>
      </trkpt>
      <trkpt lat="45.11789" lon="4.29698">
        <ele>880</ele>
        <time>2026-04-25T07:37:37Z</time>
      </trkpt>
      <trkpt lat="45.11786" lon="4.2969">
        <ele>879.8</ele>
        <time>2026-04-25T07:37:42Z</time>
      </trkpt>
      <trkpt lat="45.11783" lon="4.29678">
        <ele>879.5</ele>
        <time>2026-04-25T07:37:47Z</time>
      </trkpt>
      <trkpt lat="45.11782" lon="4.29667">
        <ele>879.1</ele>
        <time>2026-04-25T07:37:52Z</time>
      </trkpt>
      <trkpt lat="45.1178" lon="4.29658">
        <ele>878.4</ele>
        <time>2026-04-25T07:37:57Z</time>
      </trkpt>
      <trkpt lat="45.11778" lon="4.29654">
        <ele>878.2</ele>
        <time>2026-04-25T07:38:02Z</time>
      </trkpt>
      <trkpt lat="45.11777" lon="4.29651">
        <ele>877.9</ele>
        <time>2026-04-25T07:38:07Z</time>
      </trkpt>
      <trkpt lat="45.11775" lon="4.29642">
        <ele>877.3</ele>
        <time>2026-04-25T07:38:12Z</time>
      </trkpt>
      <trkpt lat="45.11772" lon="4.29633">
        <ele>876.6</ele>
        <time>2026-04-25T07:38:17Z</time>
      </trkpt>
      <trkpt lat="45.11771" lon="4.29624">
        <ele>875.9</ele>
        <time>2026-04-25T07:38:22Z</time>
      </trkpt>
      <trkpt lat="45.11767" lon="4.29615">
        <ele>875.4</ele>
        <time>2026-04-25T07:38:27Z</time>
      </trkpt>
      <trkpt lat="45.11764" lon="4.29608">
        <ele>875</ele>
        <time>2026-04-25T07:38:32Z</time>
      </trkpt>
      <trkpt lat="45.11761" lon="4.29602">
        <ele>874.7</ele>
        <time>2026-04-25T07:38:37Z</time>
      </trkpt>
      <trkpt lat="45.11761" lon="4.29601">
        <ele>874.6</ele>
        <time>2026-04-25T07:38:42Z</time>
      </trkpt>
      <trkpt lat="45.11759" lon="4.29594">
        <ele>874.2</ele>
        <time>2026-04-25T07:38:47Z</time>
      </trkpt>
      <trkpt lat="45.11754" lon="4.29586">
        <ele>873.9</ele>
        <time>2026-04-25T07:38:52Z</time>
      </trkpt>
      <trkpt lat="45.11749" lon="4.29577">
        <ele>873.1</ele>
        <time>2026-04-25T07:38:57Z</time>
      </trkpt>
      <trkpt lat="45.11744" lon="4.29569">
        <ele>871.6</ele>
        <time>2026-04-25T07:39:02Z</time>
      </trkpt>
      <trkpt lat="45.11738" lon="4.29561">
        <ele>870.2</ele>
        <time>2026-04-25T07:39:07Z</time>
      </trkpt>
      <trkpt lat="45.11733" lon="4.29557">
        <ele>869.4</ele>
        <time>2026-04-25T07:39:12Z</time>
      </trkpt>
      <trkpt lat="45.11726" lon="4.29551">
        <ele>868.3</ele>
        <time>2026-04-25T07:39:17Z</time>
      </trkpt>
      <trkpt lat="45.11719" lon="4.29541">
        <ele>866.9</ele>
        <time>2026-04-25T07:39:22Z</time>
      </trkpt>
      <trkpt lat="45.11713" lon="4.29537">
        <ele>866.3</ele>
        <time>2026-04-25T07:39:27Z</time>
      </trkpt>
      <trkpt lat="45.11706" lon="4.29535">
        <ele>865.8</ele>
        <time>2026-04-25T07:39:32Z</time>
      </trkpt>
      <trkpt lat="45.11699" lon="4.29533">
        <ele>865.4</ele>
        <time>2026-04-25T07:39:37Z</time>
      </trkpt>
      <trkpt lat="45.11691" lon="4.29531">
        <ele>865</ele>
        <time>2026-04-25T07:39:42Z</time>
      </trkpt>
      <trkpt lat="45.11684" lon="4.29531">
        <ele>864.7</ele>
        <time>2026-04-25T07:39:47Z</time>
      </trkpt>
      <trkpt lat="45.11675" lon="4.29528">
        <ele>864.3</ele>
        <time>2026-04-25T07:39:52Z</time>
      </trkpt>
      <trkpt lat="45.11667" lon="4.29527">
        <ele>864</ele>
        <time>2026-04-25T07:39:57Z</time>
      </trkpt>
      <trkpt lat="45.11661" lon="4.29524">
        <ele>863.3</ele>
        <time>2026-04-25T07:40:02Z</time>
      </trkpt>
      <trkpt lat="45.11655" lon="4.29517">
        <ele>862.5</ele>
        <time>2026-04-25T07:40:07Z</time>
      </trkpt>
      <trkpt lat="45.11647" lon="4.29511">
        <ele>861.5</ele>
        <time>2026-04-25T07:40:12Z</time>
      </trkpt>
      <trkpt lat="45.11641" lon="4.29505">
        <ele>860.7</ele>
        <time>2026-04-25T07:40:17Z</time>
      </trkpt>
      <trkpt lat="45.11636" lon="4.29498">
        <ele>859.9</ele>
        <time>2026-04-25T07:40:22Z</time>
      </trkpt>
      <trkpt lat="45.11629" lon="4.29491">
        <ele>858.8</ele>
        <time>2026-04-25T07:40:27Z</time>
      </trkpt>
      <trkpt lat="45.11622" lon="4.29484">
        <ele>857.7</ele>
        <time>2026-04-25T07:40:32Z</time>
      </trkpt>
      <trkpt lat="45.11616" lon="4.29478">
        <ele>856.8</ele>
        <time>2026-04-25T07:40:37Z</time>
      </trkpt>
      <trkpt lat="45.11611" lon="4.29472">
        <ele>856</ele>
        <time>2026-04-25T07:40:42Z</time>
      </trkpt>
      <trkpt lat="45.11605" lon="4.29466">
        <ele>855.1</ele>
        <time>2026-04-25T07:40:47Z</time>
      </trkpt>
      <trkpt lat="45.11599" lon="4.2946">
        <ele>854.3</ele>
        <time>2026-04-25T07:40:52Z</time>
      </trkpt>
      <trkpt lat="45.11593" lon="4.29455">
        <ele>853.6</ele>
        <time>2026-04-25T07:40:57Z</time>
      </trkpt>
      <trkpt lat="45.11587" lon="4.2945">
        <ele>852.9</ele>
        <time>2026-04-25T07:41:02Z</time>
      </trkpt>
      <trkpt lat="45.11581" lon="4.29447">
        <ele>852.4</ele>
        <time>2026-04-25T07:41:07Z</time>
      </trkpt>
      <trkpt lat="45.11574" lon="4.29442">
        <ele>852</ele>
        <time>2026-04-25T07:41:12Z</time>
      </trkpt>
      <trkpt lat="45.11569" lon="4.29439">
        <ele>851.8</ele>
        <time>2026-04-25T07:41:17Z</time>
      </trkpt>
      <trkpt lat="45.11563" lon="4.29431">
        <ele>851.3</ele>
        <time>2026-04-25T07:41:22Z</time>
      </trkpt>
      <trkpt lat="45.11557" lon="4.29425">
        <ele>851</ele>
        <time>2026-04-25T07:41:27Z</time>
      </trkpt>
      <trkpt lat="45.1155" lon="4.29416">
        <ele>850.6</ele>
        <time>2026-04-25T07:41:32Z</time>
      </trkpt>
      <trkpt lat="45.11545" lon="4.2941">
        <ele>850.3</ele>
        <time>2026-04-25T07:41:37Z</time>
      </trkpt>
      <trkpt lat="45.11538" lon="4.29406">
        <ele>850.2</ele>
        <time>2026-04-25T07:41:42Z</time>
      </trkpt>
      <trkpt lat="45.11532" lon="4.29399">
        <ele>849.9</ele>
        <time>2026-04-25T07:41:47Z</time>
      </trkpt>
      <trkpt lat="45.11526" lon="4.29394">
        <ele>849.8</ele>
        <time>2026-04-25T07:41:52Z</time>
      </trkpt>
      <trkpt lat="45.11519" lon="4.29388">
        <ele>849.6</ele>
        <time>2026-04-25T07:41:57Z</time>
      </trkpt>
      <trkpt lat="45.11513" lon="4.2938">
        <ele>849.5</ele>
        <time>2026-04-25T07:42:02Z</time>
      </trkpt>
      <trkpt lat="45.11508" lon="4.29378">
        <ele>849.5</ele>
        <time>2026-04-25T07:42:07Z</time>
      </trkpt>
      <trkpt lat="45.11504" lon="4.29374">
        <ele>849.5</ele>
        <time>2026-04-25T07:42:12Z</time>
      </trkpt>
      <trkpt lat="45.115" lon="4.29372">
        <ele>849.5</ele>
        <time>2026-04-25T07:42:17Z</time>
      </trkpt>
      <trkpt lat="45.11503" lon="4.29369">
        <ele>849.4</ele>
        <time>2026-04-25T07:42:22Z</time>
      </trkpt>
      <trkpt lat="45.11503" lon="4.29366">
        <ele>849.4</ele>
        <time>2026-04-25T07:42:27Z</time>
      </trkpt>
      <trkpt lat="45.11503" lon="4.29366">
        <ele>849.4</ele>
        <time>2026-04-25T07:42:32Z</time>
      </trkpt>
      <trkpt lat="45.11503" lon="4.29366">
        <ele>849.4</ele>
        <time>2026-04-25T07:42:37Z</time>
      </trkpt>
      <trkpt lat="45.11503" lon="4.29366">
        <ele>849.4</ele>
        <time>2026-04-25T07:42:42Z</time>
      </trkpt>
      <trkpt lat="45.11503" lon="4.29366">
        <ele>849.4</ele>
        <time>2026-04-25T07:42:47Z</time>
      </trkpt>
      <trkpt lat="45.11503" lon="4.29366">
        <ele>849.4</ele>
        <time>2026-04-25T07:42:52Z</time>
      </trkpt>
      <trkpt lat="45.11503" lon="4.29366">
        <ele>849.4</ele>
        <time>2026-04-25T07:42:57Z</time>
      </trkpt>
      <trkpt lat="45.11503" lon="4.29366">
        <ele>849.4</ele>
        <time>2026-04-25T07:43:02Z</time>
      </trkpt>
      <trkpt lat="45.11503" lon="4.29366">
        <ele>849.4</ele>
        <time>2026-04-25T07:43:07Z</time>
      </trkpt>
      <trkpt lat="45.11503" lon="4.29366">
        <ele>849.4</ele>
        <time>2026-04-25T07:43:12Z</time>
      </trkpt>
      <trkpt lat="45.11503" lon="4.29366">
        <ele>849.4</ele>
        <time>2026-04-25T07:43:17Z</time>
      </trkpt>
      <trkpt lat="45.11503" lon="4.29366">
        <ele>849.4</ele>
        <time>2026-04-25T07:43:22Z</time>
      </trkpt>
      <trkpt lat="45.11503" lon="4.29366">
        <ele>849.4</ele>
        <time>2026-04-25T07:43:27Z</time>
      </trkpt>
      <trkpt lat="45.11503" lon="4.29366">
        <ele>849.4</ele>
        <time>2026-04-25T07:43:32Z</time>
      </trkpt>
      <trkpt lat="45.11503" lon="4.29366">
        <ele>849.4</ele>
        <time>2026-04-25T07:43:37Z</time>
      </trkpt>
      <trkpt lat="45.11503" lon="4.29366">
        <ele>849.4</ele>
        <time>2026-04-25T07:43:42Z</time>
      </trkpt>
      <trkpt lat="45.11503" lon="4.29366">
        <ele>849.4</ele>
        <time>2026-04-25T07:43:47Z</time>
      </trkpt>
      <trkpt lat="45.11503" lon="4.29366">
        <ele>849.4</ele>
        <time>2026-04-25T07:43:52Z</time>
      </trkpt>
      <trkpt lat="45.11503" lon="4.29366">
        <ele>849.4</ele>
        <time>2026-04-25T07:43:57Z</time>
      </trkpt>
      <trkpt lat="45.11503" lon="4.29366">
        <ele>849.4</ele>
        <time>2026-04-25T07:44:02Z</time>
      </trkpt>
      <trkpt lat="45.11503" lon="4.29366">
        <ele>849.4</ele>
        <time>2026-04-25T07:44:07Z</time>
      </trkpt>
      <trkpt lat="45.11503" lon="4.29366">
        <ele>849.4</ele>
        <time>2026-04-25T07:44:12Z</time>
      </trkpt>
      <trkpt lat="45.11503" lon="4.29366">
        <ele>849.4</ele>
        <time>2026-04-25T07:44:17Z</time>
      </trkpt>
      <trkpt lat="45.11503" lon="4.29366">
        <ele>849.4</ele>
        <time>2026-04-25T07:44:22Z</time>
      </trkpt>
      <trkpt lat="45.11503" lon="4.29366">
        <ele>849.4</ele>
        <time>2026-04-25T07:44:27Z</time>
      </trkpt>
      <trkpt lat="45.11503" lon="4.29366">
        <ele>849.4</ele>
        <time>2026-04-25T07:44:32Z</time>
      </trkpt>
      <trkpt lat="45.11503" lon="4.29366">
        <ele>849.4</ele>
        <time>2026-04-25T07:44:37Z</time>
      </trkpt>
      <trkpt lat="45.11503" lon="4.29366">
        <ele>849.4</ele>
        <time>2026-04-25T07:44:42Z</time>
      </trkpt>
      <trkpt lat="45.11503" lon="4.29366">
        <ele>849.4</ele>
        <time>2026-04-25T07:44:47Z</time>
      </trkpt>
      <trkpt lat="45.11503" lon="4.29366">
        <ele>849.4</ele>
        <time>2026-04-25T07:44:52Z</time>
      </trkpt>
      <trkpt lat="45.11503" lon="4.29366">
        <ele>849.4</ele>
        <time>2026-04-25T07:44:57Z</time>
      </trkpt>
      <trkpt lat="45.11503" lon="4.29366">
        <ele>849.4</ele>
        <time>2026-04-25T07:45:02Z</time>
      </trkpt>
      <trkpt lat="45.11503" lon="4.29366">
        <ele>849.4</ele>
        <time>2026-04-25T07:45:07Z</time>
      </trkpt>
      <trkpt lat="45.11503" lon="4.29366">
        <ele>849.4</ele>
        <time>2026-04-25T07:45:12Z</time>
      </trkpt>
      <trkpt lat="45.11503" lon="4.29366">
        <ele>849.4</ele>
        <time>2026-04-25T07:45:17Z</time>
      </trkpt>
      <trkpt lat="45.11503" lon="4.29366">
        <ele>849.4</ele>
        <time>2026-04-25T07:45:22Z</time>
      </trkpt>
      <trkpt lat="45.11503" lon="4.29366">
        <ele>849.4</ele>
        <time>2026-04-25T07:45:27Z</time>
      </trkpt>
      <trkpt lat="45.11503" lon="4.29366">
        <ele>849.4</ele>
        <time>2026-04-25T07:45:32Z</time>
      </trkpt>
      <trkpt lat="45.11503" lon="4.29366">
        <ele>849.4</ele>
        <time>2026-04-25T07:45:37Z</time>
      </trkpt>
      <trkpt lat="45.11503" lon="4.29366">
        <ele>849.4</ele>
        <time>2026-04-25T07:45:42Z</time>
      </trkpt>
      <trkpt lat="45.11503" lon="4.29366">
        <ele>849.4</ele>
        <time>2026-04-25T07:45:47Z</time>
      </trkpt>
      <trkpt lat="45.11503" lon="4.29366">
        <ele>849.4</ele>
        <time>2026-04-25T07:45:52Z</time>
      </trkpt>
      <trkpt lat="45.11499" lon="4.29365">
        <ele>849.4</ele>
        <time>2026-04-25T07:45:57Z</time>
      </trkpt>
      <trkpt lat="45.11497" lon="4.29362">
        <ele>849.3</ele>
        <time>2026-04-25T07:46:02Z</time>
      </trkpt>
      <trkpt lat="45.11498" lon="4.29358">
        <ele>849.3</ele>
        <time>2026-04-25T07:46:07Z</time>
      </trkpt>
      <trkpt lat="45.11498" lon="4.29358">
        <ele>849.3</ele>
        <time>2026-04-25T07:46:12Z</time>
      </trkpt>
      <trkpt lat="45.11498" lon="4.29358">
        <ele>849.3</ele>
        <time>2026-04-25T07:46:17Z</time>
      </trkpt>
      <trkpt lat="45.11498" lon="4.29358">
        <ele>849.3</ele>
        <time>2026-04-25T07:46:22Z</time>
      </trkpt>
      <trkpt lat="45.11498" lon="4.29358">
        <ele>849.3</ele>
        <time>2026-04-25T07:46:27Z</time>
      </trkpt>
      <trkpt lat="45.1149" lon="4.29358">
        <ele>849.1</ele>
        <time>2026-04-25T07:46:32Z</time>
      </trkpt>
      <trkpt lat="45.11488" lon="4.29355">
        <ele>849</ele>
        <time>2026-04-25T07:46:37Z</time>
      </trkpt>
      <trkpt lat="45.11486" lon="4.29351">
        <ele>848.9</ele>
        <time>2026-04-25T07:46:42Z</time>
      </trkpt>
      <trkpt lat="45.1148" lon="4.29342">
        <ele>848.6</ele>
        <time>2026-04-25T07:46:47Z</time>
      </trkpt>
      <trkpt lat="45.11475" lon="4.29342">
        <ele>848.5</ele>
        <time>2026-04-25T07:46:52Z</time>
      </trkpt>
      <trkpt lat="45.11473" lon="4.29342">
        <ele>848.5</ele>
        <time>2026-04-25T07:46:57Z</time>
      </trkpt>
      <trkpt lat="45.11473" lon="4.29342">
        <ele>848.5</ele>
        <time>2026-04-25T07:47:02Z</time>
      </trkpt>
      <trkpt lat="45.1148" lon="4.29338">
        <ele>848.6</ele>
        <time>2026-04-25T07:47:07Z</time>
      </trkpt>
      <trkpt lat="45.11483" lon="4.29325">
        <ele>848.5</ele>
        <time>2026-04-25T07:47:12Z</time>
      </trkpt>
      <trkpt lat="45.11486" lon="4.29311">
        <ele>848.4</ele>
        <time>2026-04-25T07:47:17Z</time>
      </trkpt>
      <trkpt lat="45.11488" lon="4.293">
        <ele>848.3</ele>
        <time>2026-04-25T07:47:22Z</time>
      </trkpt>
      <trkpt lat="45.11486" lon="4.29292">
        <ele>848.2</ele>
        <time>2026-04-25T07:47:27Z</time>
      </trkpt>
      <trkpt lat="45.11485" lon="4.29286">
        <ele>848.1</ele>
        <time>2026-04-25T07:47:32Z</time>
      </trkpt>
      <trkpt lat="45.11482" lon="4.29284">
        <ele>848</ele>
        <time>2026-04-25T07:47:37Z</time>
      </trkpt>
      <trkpt lat="45.11482" lon="4.29278">
        <ele>847.9</ele>
        <time>2026-04-25T07:47:42Z</time>
      </trkpt>
      <trkpt lat="45.11484" lon="4.29267">
        <ele>847.8</ele>
        <time>2026-04-25T07:47:47Z</time>
      </trkpt>
      <trkpt lat="45.11487" lon="4.29256">
        <ele>847.8</ele>
        <time>2026-04-25T07:47:52Z</time>
      </trkpt>
      <trkpt lat="45.11491" lon="4.29246">
        <ele>847.7</ele>
        <time>2026-04-25T07:47:57Z</time>
      </trkpt>
      <trkpt lat="45.11495" lon="4.2924">
        <ele>847.8</ele>
        <time>2026-04-25T07:48:02Z</time>
      </trkpt>
      <trkpt lat="45.11498" lon="4.29227">
        <ele>847.7</ele>
        <time>2026-04-25T07:48:07Z</time>
      </trkpt>
      <trkpt lat="45.11499" lon="4.29216">
        <ele>847.6</ele>
        <time>2026-04-25T07:48:12Z</time>
      </trkpt>
      <trkpt lat="45.11498" lon="4.29204">
        <ele>847.4</ele>
        <time>2026-04-25T07:48:17Z</time>
      </trkpt>
      <trkpt lat="45.11497" lon="4.29195">
        <ele>847.3</ele>
        <time>2026-04-25T07:48:22Z</time>
      </trkpt>
      <trkpt lat="45.11496" lon="4.29185">
        <ele>847.2</ele>
        <time>2026-04-25T07:48:27Z</time>
      </trkpt>
      <trkpt lat="45.11496" lon="4.29173">
        <ele>847.1</ele>
        <time>2026-04-25T07:48:32Z</time>
      </trkpt>
      <trkpt lat="45.11495" lon="4.29165">
        <ele>847</ele>
        <time>2026-04-25T07:48:37Z</time>
      </trkpt>
      <trkpt lat="45.11495" lon="4.29156">
        <ele>847</ele>
        <time>2026-04-25T07:48:42Z</time>
      </trkpt>
      <trkpt lat="45.11496" lon="4.29148">
        <ele>847</ele>
        <time>2026-04-25T07:48:47Z</time>
      </trkpt>
      <trkpt lat="45.11496" lon="4.29145">
        <ele>847</ele>
        <time>2026-04-25T07:48:52Z</time>
      </trkpt>
      <trkpt lat="45.11496" lon="4.29145">
        <ele>847</ele>
        <time>2026-04-25T07:48:57Z</time>
      </trkpt>
      <trkpt lat="45.11496" lon="4.29145">
        <ele>847</ele>
        <time>2026-04-25T07:49:02Z</time>
      </trkpt>
      <trkpt lat="45.11496" lon="4.29145">
        <ele>847</ele>
        <time>2026-04-25T07:49:07Z</time>
      </trkpt>
      <trkpt lat="45.11496" lon="4.29145">
        <ele>847</ele>
        <time>2026-04-25T07:49:12Z</time>
      </trkpt>
      <trkpt lat="45.11496" lon="4.29145">
        <ele>847</ele>
        <time>2026-04-25T07:49:17Z</time>
      </trkpt>
      <trkpt lat="45.11496" lon="4.29145">
        <ele>847</ele>
        <time>2026-04-25T07:49:22Z</time>
      </trkpt>
      <trkpt lat="45.11496" lon="4.29145">
        <ele>847</ele>
        <time>2026-04-25T07:49:27Z</time>
      </trkpt>
      <trkpt lat="45.11496" lon="4.29145">
        <ele>847</ele>
        <time>2026-04-25T07:49:32Z</time>
      </trkpt>
      <trkpt lat="45.11496" lon="4.29145">
        <ele>847</ele>
        <time>2026-04-25T07:49:37Z</time>
      </trkpt>
      <trkpt lat="45.11496" lon="4.29145">
        <ele>847</ele>
        <time>2026-04-25T07:49:42Z</time>
      </trkpt>
      <trkpt lat="45.11496" lon="4.29145">
        <ele>847</ele>
        <time>2026-04-25T07:49:47Z</time>
      </trkpt>
      <trkpt lat="45.11496" lon="4.29145">
        <ele>847</ele>
        <time>2026-04-25T07:49:52Z</time>
      </trkpt>
      <trkpt lat="45.11496" lon="4.29145">
        <ele>847</ele>
        <time>2026-04-25T07:49:57Z</time>
      </trkpt>
      <trkpt lat="45.11496" lon="4.29145">
        <ele>847</ele>
        <time>2026-04-25T07:50:02Z</time>
      </trkpt>
      <trkpt lat="45.11494" lon="4.29142">
        <ele>847</ele>
        <time>2026-04-25T07:50:07Z</time>
      </trkpt>
      <trkpt lat="45.11493" lon="4.29142">
        <ele>847</ele>
        <time>2026-04-25T07:50:12Z</time>
      </trkpt>
      <trkpt lat="45.11493" lon="4.29136">
        <ele>847</ele>
        <time>2026-04-25T07:50:17Z</time>
      </trkpt>
      <trkpt lat="45.11496" lon="4.29128">
        <ele>847</ele>
        <time>2026-04-25T07:50:22Z</time>
      </trkpt>
      <trkpt lat="45.11495" lon="4.29124">
        <ele>847</ele>
        <time>2026-04-25T07:50:27Z</time>
      </trkpt>
      <trkpt lat="45.1149" lon="4.29122">
        <ele>847</ele>
        <time>2026-04-25T07:50:32Z</time>
      </trkpt>
      <trkpt lat="45.11485" lon="4.29119">
        <ele>847</ele>
        <time>2026-04-25T07:50:37Z</time>
      </trkpt>
      <trkpt lat="45.11478" lon="4.29119">
        <ele>847</ele>
        <time>2026-04-25T07:50:42Z</time>
      </trkpt>
      <trkpt lat="45.11476" lon="4.29117">
        <ele>847</ele>
        <time>2026-04-25T07:50:47Z</time>
      </trkpt>
      <trkpt lat="45.11474" lon="4.2911">
        <ele>847</ele>
        <time>2026-04-25T07:50:52Z</time>
      </trkpt>
      <trkpt lat="45.11469" lon="4.291">
        <ele>847</ele>
        <time>2026-04-25T07:50:57Z</time>
      </trkpt>
      <trkpt lat="45.1146" lon="4.29097">
        <ele>847</ele>
        <time>2026-04-25T07:51:02Z</time>
      </trkpt>
      <trkpt lat="45.11457" lon="4.29095">
        <ele>847</ele>
        <time>2026-04-25T07:51:07Z</time>
      </trkpt>
      <trkpt lat="45.1146" lon="4.29083">
        <ele>847</ele>
        <time>2026-04-25T07:51:12Z</time>
      </trkpt>
      <trkpt lat="45.11463" lon="4.29071">
        <ele>847.6</ele>
        <time>2026-04-25T07:51:17Z</time>
      </trkpt>
      <trkpt lat="45.11464" lon="4.29062">
        <ele>848</ele>
        <time>2026-04-25T07:51:22Z</time>
      </trkpt>
      <trkpt lat="45.11464" lon="4.29062">
        <ele>848</ele>
        <time>2026-04-25T07:51:27Z</time>
      </trkpt>
      <trkpt lat="45.11464" lon="4.29062">
        <ele>848</ele>
        <time>2026-04-25T07:51:32Z</time>
      </trkpt>
      <trkpt lat="45.11452" lon="4.29062">
        <ele>848.1</ele>
        <time>2026-04-25T07:51:37Z</time>
      </trkpt>
      <trkpt lat="45.11451" lon="4.29055">
        <ele>848.4</ele>
        <time>2026-04-25T07:51:42Z</time>
      </trkpt>
      <trkpt lat="45.11451" lon="4.29047">
        <ele>848.8</ele>
        <time>2026-04-25T07:51:47Z</time>
      </trkpt>
      <trkpt lat="45.11456" lon="4.29047">
        <ele>848.8</ele>
        <time>2026-04-25T07:51:52Z</time>
      </trkpt>
      <trkpt lat="45.11461" lon="4.2905">
        <ele>848.6</ele>
        <time>2026-04-25T07:51:57Z</time>
      </trkpt>
      <trkpt lat="45.11465" lon="4.29049">
        <ele>848.6</ele>
        <time>2026-04-25T07:52:02Z</time>
      </trkpt>
      <trkpt lat="45.11469" lon="4.29047">
        <ele>848.6</ele>
        <time>2026-04-25T07:52:07Z</time>
      </trkpt>
      <trkpt lat="45.11473" lon="4.29046">
        <ele>848.6</ele>
        <time>2026-04-25T07:52:12Z</time>
      </trkpt>
      <trkpt lat="45.11474" lon="4.29046">
        <ele>848.6</ele>
        <time>2026-04-25T07:52:17Z</time>
      </trkpt>
      <trkpt lat="45.11473" lon="4.29043">
        <ele>848.8</ele>
        <time>2026-04-25T07:52:22Z</time>
      </trkpt>
      <trkpt lat="45.11467" lon="4.29041">
        <ele>848.9</ele>
        <time>2026-04-25T07:52:27Z</time>
      </trkpt>
      <trkpt lat="45.11461" lon="4.29043">
        <ele>848.9</ele>
        <time>2026-04-25T07:52:32Z</time>
      </trkpt>
      <trkpt lat="45.11453" lon="4.29041">
        <ele>849.1</ele>
        <time>2026-04-25T07:52:37Z</time>
      </trkpt>
      <trkpt lat="45.11451" lon="4.29043">
        <ele>849</ele>
        <time>2026-04-25T07:52:42Z</time>
      </trkpt>
      <trkpt lat="45.1145" lon="4.29047">
        <ele>848.8</ele>
        <time>2026-04-25T07:52:47Z</time>
      </trkpt>
      <trkpt lat="45.11449" lon="4.29059">
        <ele>848.2</ele>
        <time>2026-04-25T07:52:52Z</time>
      </trkpt>
      <trkpt lat="45.1145" lon="4.29067">
        <ele>847.8</ele>
        <time>2026-04-25T07:52:57Z</time>
      </trkpt>
      <trkpt lat="45.11449" lon="4.29075">
        <ele>847.4</ele>
        <time>2026-04-25T07:53:02Z</time>
      </trkpt>
      <trkpt lat="45.11447" lon="4.29087">
        <ele>847</ele>
        <time>2026-04-25T07:53:07Z</time>
      </trkpt>
      <trkpt lat="45.11447" lon="4.29098">
        <ele>847</ele>
        <time>2026-04-25T07:53:12Z</time>
      </trkpt>
      <trkpt lat="45.11448" lon="4.29106">
        <ele>847</ele>
        <time>2026-04-25T07:53:17Z</time>
      </trkpt>
      <trkpt lat="45.11447" lon="4.2912">
        <ele>847</ele>
        <time>2026-04-25T07:53:22Z</time>
      </trkpt>
      <trkpt lat="45.11447" lon="4.29127">
        <ele>847</ele>
        <time>2026-04-25T07:53:27Z</time>
      </trkpt>
      <trkpt lat="45.11446" lon="4.29139">
        <ele>847</ele>
        <time>2026-04-25T07:53:32Z</time>
      </trkpt>
      <trkpt lat="45.11446" lon="4.2915">
        <ele>847</ele>
        <time>2026-04-25T07:53:37Z</time>
      </trkpt>
      <trkpt lat="45.11445" lon="4.29162">
        <ele>847</ele>
        <time>2026-04-25T07:53:42Z</time>
      </trkpt>
      <trkpt lat="45.11445" lon="4.29168">
        <ele>847</ele>
        <time>2026-04-25T07:53:47Z</time>
      </trkpt>
      <trkpt lat="45.11445" lon="4.29168">
        <ele>847</ele>
        <time>2026-04-25T07:53:47Z</time>
      </trkpt>
      <trkpt lat="45.11437" lon="4.2917">
        <ele>847</ele>
        <time>2026-04-25T07:59:26Z</time>
      </trkpt>
      <trkpt lat="45.11437" lon="4.2917">
        <ele>847</ele>
        <time>2026-04-25T07:59:33Z</time>
      </trkpt>
      <trkpt lat="45.11443" lon="4.29168">
        <ele>847</ele>
        <time>2026-04-25T07:59:38Z</time>
      </trkpt>
      <trkpt lat="45.11446" lon="4.29159">
        <ele>847</ele>
        <time>2026-04-25T07:59:43Z</time>
      </trkpt>
      <trkpt lat="45.11447" lon="4.29152">
        <ele>847</ele>
        <time>2026-04-25T07:59:48Z</time>
      </trkpt>
      <trkpt lat="45.11447" lon="4.29142">
        <ele>847</ele>
        <time>2026-04-25T07:59:53Z</time>
      </trkpt>
      <trkpt lat="45.11447" lon="4.29139">
        <ele>847</ele>
        <time>2026-04-25T07:59:58Z</time>
      </trkpt>
      <trkpt lat="45.11448" lon="4.29137">
        <ele>847</ele>
        <time>2026-04-25T08:00:03Z</time>
      </trkpt>
      <trkpt lat="45.11448" lon="4.29132">
        <ele>847</ele>
        <time>2026-04-25T08:00:08Z</time>
      </trkpt>
      <trkpt lat="45.11448" lon="4.29127">
        <ele>847</ele>
        <time>2026-04-25T08:00:13Z</time>
      </trkpt>
      <trkpt lat="45.11448" lon="4.29119">
        <ele>847</ele>
        <time>2026-04-25T08:00:18Z</time>
      </trkpt>
      <trkpt lat="45.11449" lon="4.2911">
        <ele>847</ele>
        <time>2026-04-25T08:00:23Z</time>
      </trkpt>
      <trkpt lat="45.11449" lon="4.291">
        <ele>847</ele>
        <time>2026-04-25T08:00:28Z</time>
      </trkpt>
      <trkpt lat="45.1145" lon="4.29087">
        <ele>847</ele>
        <time>2026-04-25T08:00:33Z</time>
      </trkpt>
      <trkpt lat="45.11451" lon="4.29073">
        <ele>847.5</ele>
        <time>2026-04-25T08:00:38Z</time>
      </trkpt>
      <trkpt lat="45.11452" lon="4.29063">
        <ele>848</ele>
        <time>2026-04-25T08:00:43Z</time>
      </trkpt>
      <trkpt lat="45.11455" lon="4.29055">
        <ele>848.4</ele>
        <time>2026-04-25T08:00:48Z</time>
      </trkpt>
      <trkpt lat="45.11456" lon="4.29048">
        <ele>848.7</ele>
        <time>2026-04-25T08:00:53Z</time>
      </trkpt>
      <trkpt lat="45.11455" lon="4.29041">
        <ele>849.1</ele>
        <time>2026-04-25T08:00:58Z</time>
      </trkpt>
      <trkpt lat="45.11457" lon="4.29027">
        <ele>849.7</ele>
        <time>2026-04-25T08:01:03Z</time>
      </trkpt>
      <trkpt lat="45.11459" lon="4.29018">
        <ele>850.1</ele>
        <time>2026-04-25T08:01:08Z</time>
      </trkpt>
      <trkpt lat="45.11462" lon="4.29009">
        <ele>850.5</ele>
        <time>2026-04-25T08:01:13Z</time>
      </trkpt>
      <trkpt lat="45.11461" lon="4.29">
        <ele>850.9</ele>
        <time>2026-04-25T08:01:18Z</time>
      </trkpt>
      <trkpt lat="45.11459" lon="4.28996">
        <ele>851.5</ele>
        <time>2026-04-25T08:01:23Z</time>
      </trkpt>
      <trkpt lat="45.11456" lon="4.28996">
        <ele>851.5</ele>
        <time>2026-04-25T08:01:28Z</time>
      </trkpt>
      <trkpt lat="45.11455" lon="4.28989">
        <ele>852.4</ele>
        <time>2026-04-25T08:01:33Z</time>
      </trkpt>
      <trkpt lat="45.11458" lon="4.2898">
        <ele>853.4</ele>
        <time>2026-04-25T08:01:38Z</time>
      </trkpt>
      <trkpt lat="45.11461" lon="4.28971">
        <ele>854.3</ele>
        <time>2026-04-25T08:01:43Z</time>
      </trkpt>
      <trkpt lat="45.11465" lon="4.28961">
        <ele>855.2</ele>
        <time>2026-04-25T08:01:48Z</time>
      </trkpt>
      <trkpt lat="45.11474" lon="4.28954">
        <ele>855.3</ele>
        <time>2026-04-25T08:01:53Z</time>
      </trkpt>
      <trkpt lat="45.1148" lon="4.28951">
        <ele>855.1</ele>
        <time>2026-04-25T08:01:58Z</time>
      </trkpt>
      <trkpt lat="45.11486" lon="4.28946">
        <ele>855.1</ele>
        <time>2026-04-25T08:02:03Z</time>
      </trkpt>
      <trkpt lat="45.1149" lon="4.28939">
        <ele>855.3</ele>
        <time>2026-04-25T08:02:08Z</time>
      </trkpt>
      <trkpt lat="45.11496" lon="4.28937">
        <ele>854.9</ele>
        <time>2026-04-25T08:02:13Z</time>
      </trkpt>
      <trkpt lat="45.11501" lon="4.2893">
        <ele>855</ele>
        <time>2026-04-25T08:02:18Z</time>
      </trkpt>
      <trkpt lat="45.11504" lon="4.28927">
        <ele>854.9</ele>
        <time>2026-04-25T08:02:23Z</time>
      </trkpt>
      <trkpt lat="45.11507" lon="4.28919">
        <ele>855.2</ele>
        <time>2026-04-25T08:02:28Z</time>
      </trkpt>
      <trkpt lat="45.1151" lon="4.28914">
        <ele>855.1</ele>
        <time>2026-04-25T08:02:33Z</time>
      </trkpt>
      <trkpt lat="45.11511" lon="4.28911">
        <ele>855.1</ele>
        <time>2026-04-25T08:02:38Z</time>
      </trkpt>
      <trkpt lat="45.11512" lon="4.28911">
        <ele>855</ele>
        <time>2026-04-25T08:02:43Z</time>
      </trkpt>
      <trkpt lat="45.11512" lon="4.28911">
        <ele>855</ele>
        <time>2026-04-25T08:02:48Z</time>
      </trkpt>
      <trkpt lat="45.11512" lon="4.28911">
        <ele>855</ele>
        <time>2026-04-25T08:02:53Z</time>
      </trkpt>
      <trkpt lat="45.11512" lon="4.28911">
        <ele>855</ele>
        <time>2026-04-25T08:02:58Z</time>
      </trkpt>
      <trkpt lat="45.11512" lon="4.28911">
        <ele>855</ele>
        <time>2026-04-25T08:03:03Z</time>
      </trkpt>
      <trkpt lat="45.11519" lon="4.28904">
        <ele>854.5</ele>
        <time>2026-04-25T08:03:08Z</time>
      </trkpt>
      <trkpt lat="45.11519" lon="4.28904">
        <ele>854.5</ele>
        <time>2026-04-25T08:03:13Z</time>
      </trkpt>
      <trkpt lat="45.11519" lon="4.28904">
        <ele>854.5</ele>
        <time>2026-04-25T08:03:18Z</time>
      </trkpt>
      <trkpt lat="45.11519" lon="4.28904">
        <ele>854.5</ele>
        <time>2026-04-25T08:03:23Z</time>
      </trkpt>
      <trkpt lat="45.11519" lon="4.28904">
        <ele>854.5</ele>
        <time>2026-04-25T08:03:28Z</time>
      </trkpt>
      <trkpt lat="45.11519" lon="4.28904">
        <ele>854.5</ele>
        <time>2026-04-25T08:03:33Z</time>
      </trkpt>
      <trkpt lat="45.11519" lon="4.28904">
        <ele>854.5</ele>
        <time>2026-04-25T08:03:38Z</time>
      </trkpt>
      <trkpt lat="45.11519" lon="4.28904">
        <ele>854.5</ele>
        <time>2026-04-25T08:03:43Z</time>
      </trkpt>
      <trkpt lat="45.11525" lon="4.28895">
        <ele>853.9</ele>
        <time>2026-04-25T08:03:48Z</time>
      </trkpt>
      <trkpt lat="45.1153" lon="4.28894">
        <ele>853.3</ele>
        <time>2026-04-25T08:03:53Z</time>
      </trkpt>
      <trkpt lat="45.11533" lon="4.28894">
        <ele>853</ele>
        <time>2026-04-25T08:03:59Z</time>
      </trkpt>
      <trkpt lat="45.11534" lon="4.28894">
        <ele>852.8</ele>
        <time>2026-04-25T08:04:04Z</time>
      </trkpt>
      <trkpt lat="45.11532" lon="4.28895">
        <ele>853.1</ele>
        <time>2026-04-25T08:04:09Z</time>
      </trkpt>
      <trkpt lat="45.11534" lon="4.28901">
        <ele>852.8</ele>
        <time>2026-04-25T08:04:14Z</time>
      </trkpt>
      <trkpt lat="45.11536" lon="4.28908">
        <ele>852.6</ele>
        <time>2026-04-25T08:04:19Z</time>
      </trkpt>
      <trkpt lat="45.11536" lon="4.28915">
        <ele>852.5</ele>
        <time>2026-04-25T08:04:24Z</time>
      </trkpt>
      <trkpt lat="45.11535" lon="4.28925">
        <ele>852.4</ele>
        <time>2026-04-25T08:04:29Z</time>
      </trkpt>
      <trkpt lat="45.11533" lon="4.28931">
        <ele>852.4</ele>
        <time>2026-04-25T08:04:34Z</time>
      </trkpt>
      <trkpt lat="45.11531" lon="4.28937">
        <ele>852.4</ele>
        <time>2026-04-25T08:04:39Z</time>
      </trkpt>
      <trkpt lat="45.11531" lon="4.28939">
        <ele>852.3</ele>
        <time>2026-04-25T08:04:44Z</time>
      </trkpt>
      <trkpt lat="45.11528" lon="4.28945">
        <ele>852.3</ele>
        <time>2026-04-25T08:04:49Z</time>
      </trkpt>
      <trkpt lat="45.11527" lon="4.28949">
        <ele>852.2</ele>
        <time>2026-04-25T08:04:54Z</time>
      </trkpt>
      <trkpt lat="45.11532" lon="4.28944">
        <ele>852.1</ele>
        <time>2026-04-25T08:04:59Z</time>
      </trkpt>
      <trkpt lat="45.11536" lon="4.28937">
        <ele>852</ele>
        <time>2026-04-25T08:05:04Z</time>
      </trkpt>
      <trkpt lat="45.11538" lon="4.2893">
        <ele>852</ele>
        <time>2026-04-25T08:05:09Z</time>
      </trkpt>
      <trkpt lat="45.11539" lon="4.28924">
        <ele>852.1</ele>
        <time>2026-04-25T08:05:14Z</time>
      </trkpt>
      <trkpt lat="45.1154" lon="4.2892">
        <ele>852.1</ele>
        <time>2026-04-25T08:05:19Z</time>
      </trkpt>
      <trkpt lat="45.11536" lon="4.28911">
        <ele>852.6</ele>
        <time>2026-04-25T08:05:24Z</time>
      </trkpt>
      <trkpt lat="45.1153" lon="4.28901">
        <ele>853.3</ele>
        <time>2026-04-25T08:05:29Z</time>
      </trkpt>
      <trkpt lat="45.11525" lon="4.28904">
        <ele>853.8</ele>
        <time>2026-04-25T08:05:34Z</time>
      </trkpt>
      <trkpt lat="45.11521" lon="4.28904">
        <ele>854.2</ele>
        <time>2026-04-25T08:05:39Z</time>
      </trkpt>
      <trkpt lat="45.11521" lon="4.28904">
        <ele>854.2</ele>
        <time>2026-04-25T08:05:39Z</time>
      </trkpt>
      <trkpt lat="45.11526" lon="4.28904">
        <ele>853.7</ele>
        <time>2026-04-25T08:09:58Z</time>
      </trkpt>
      <trkpt lat="45.11526" lon="4.28904">
        <ele>853.7</ele>
        <time>2026-04-25T08:10:03Z</time>
      </trkpt>
      <trkpt lat="45.11521" lon="4.28903">
        <ele>854.3</ele>
        <time>2026-04-25T08:10:08Z</time>
      </trkpt>
      <trkpt lat="45.11521" lon="4.28902">
        <ele>854.3</ele>
        <time>2026-04-25T08:10:13Z</time>
      </trkpt>
      <trkpt lat="45.11521" lon="4.28902">
        <ele>854.3</ele>
        <time>2026-04-25T08:10:18Z</time>
      </trkpt>
      <trkpt lat="45.11521" lon="4.28902">
        <ele>854.3</ele>
        <time>2026-04-25T08:10:23Z</time>
      </trkpt>
      <trkpt lat="45.11521" lon="4.28902">
        <ele>854.3</ele>
        <time>2026-04-25T08:10:28Z</time>
      </trkpt>
      <trkpt lat="45.11523" lon="4.28896">
        <ele>854.2</ele>
        <time>2026-04-25T08:10:33Z</time>
      </trkpt>
      <trkpt lat="45.11525" lon="4.28895">
        <ele>853.9</ele>
        <time>2026-04-25T08:10:38Z</time>
      </trkpt>
      <trkpt lat="45.11528" lon="4.28892">
        <ele>853.6</ele>
        <time>2026-04-25T08:10:43Z</time>
      </trkpt>
      <trkpt lat="45.11533" lon="4.28889">
        <ele>853</ele>
        <time>2026-04-25T08:10:48Z</time>
      </trkpt>
      <trkpt lat="45.11536" lon="4.28884">
        <ele>852.6</ele>
        <time>2026-04-25T08:10:53Z</time>
      </trkpt>
      <trkpt lat="45.11545" lon="4.2888">
        <ele>851.3</ele>
        <time>2026-04-25T08:10:58Z</time>
      </trkpt>
      <trkpt lat="45.11552" lon="4.28876">
        <ele>850.2</ele>
        <time>2026-04-25T08:11:03Z</time>
      </trkpt>
      <trkpt lat="45.11557" lon="4.28868">
        <ele>849.3</ele>
        <time>2026-04-25T08:11:08Z</time>
      </trkpt>
      <trkpt lat="45.11558" lon="4.2887">
        <ele>849.2</ele>
        <time>2026-04-25T08:11:13Z</time>
      </trkpt>
      <trkpt lat="45.11559" lon="4.2887">
        <ele>849</ele>
        <time>2026-04-25T08:11:18Z</time>
      </trkpt>
      <trkpt lat="45.11561" lon="4.28866">
        <ele>848.6</ele>
        <time>2026-04-25T08:11:23Z</time>
      </trkpt>
      <trkpt lat="45.11566" lon="4.28858">
        <ele>847.5</ele>
        <time>2026-04-25T08:11:28Z</time>
      </trkpt>
      <trkpt lat="45.11572" lon="4.28848">
        <ele>846</ele>
        <time>2026-04-25T08:11:33Z</time>
      </trkpt>
      <trkpt lat="45.11575" lon="4.28843">
        <ele>845.2</ele>
        <time>2026-04-25T08:11:38Z</time>
      </trkpt>
      <trkpt lat="45.1158" lon="4.28839">
        <ele>844</ele>
        <time>2026-04-25T08:11:43Z</time>
      </trkpt>
      <trkpt lat="45.11585" lon="4.28831">
        <ele>842.9</ele>
        <time>2026-04-25T08:11:48Z</time>
      </trkpt>
      <trkpt lat="45.11589" lon="4.28823">
        <ele>842.4</ele>
        <time>2026-04-25T08:11:53Z</time>
      </trkpt>
      <trkpt lat="45.11594" lon="4.28818">
        <ele>842</ele>
        <time>2026-04-25T08:11:58Z</time>
      </trkpt>
      <trkpt lat="45.11597" lon="4.28808">
        <ele>841.4</ele>
        <time>2026-04-25T08:12:03Z</time>
      </trkpt>
      <trkpt lat="45.11599" lon="4.28801">
        <ele>841</ele>
        <time>2026-04-25T08:12:08Z</time>
      </trkpt>
      <trkpt lat="45.11598" lon="4.28798">
        <ele>840.8</ele>
        <time>2026-04-25T08:12:13Z</time>
      </trkpt>
      <trkpt lat="45.11597" lon="4.28799">
        <ele>840.9</ele>
        <time>2026-04-25T08:12:18Z</time>
      </trkpt>
      <trkpt lat="45.11597" lon="4.28799">
        <ele>840.9</ele>
        <time>2026-04-25T08:12:23Z</time>
      </trkpt>
      <trkpt lat="45.11597" lon="4.28799">
        <ele>840.9</ele>
        <time>2026-04-25T08:12:28Z</time>
      </trkpt>
      <trkpt lat="45.11597" lon="4.28799">
        <ele>840.9</ele>
        <time>2026-04-25T08:12:33Z</time>
      </trkpt>
      <trkpt lat="45.11597" lon="4.28799">
        <ele>840.9</ele>
        <time>2026-04-25T08:12:38Z</time>
      </trkpt>
      <trkpt lat="45.11597" lon="4.28799">
        <ele>840.9</ele>
        <time>2026-04-25T08:12:43Z</time>
      </trkpt>
      <trkpt lat="45.11597" lon="4.28799">
        <ele>840.9</ele>
        <time>2026-04-25T08:12:48Z</time>
      </trkpt>
      <trkpt lat="45.11597" lon="4.28799">
        <ele>840.9</ele>
        <time>2026-04-25T08:12:53Z</time>
      </trkpt>
      <trkpt lat="45.11593" lon="4.28801">
        <ele>841.2</ele>
        <time>2026-04-25T08:12:58Z</time>
      </trkpt>
      <trkpt lat="45.1159" lon="4.28809">
        <ele>841.7</ele>
        <time>2026-04-25T08:13:03Z</time>
      </trkpt>
      <trkpt lat="45.11588" lon="4.28818">
        <ele>842.2</ele>
        <time>2026-04-25T08:13:08Z</time>
      </trkpt>
      <trkpt lat="45.11586" lon="4.28824">
        <ele>842.5</ele>
        <time>2026-04-25T08:13:13Z</time>
      </trkpt>
      <trkpt lat="45.11581" lon="4.2883">
        <ele>843.3</ele>
        <time>2026-04-25T08:13:18Z</time>
      </trkpt>
      <trkpt lat="45.11578" lon="4.28836">
        <ele>844.2</ele>
        <time>2026-04-25T08:13:23Z</time>
      </trkpt>
      <trkpt lat="45.11574" lon="4.28842">
        <ele>845.3</ele>
        <time>2026-04-25T08:13:28Z</time>
      </trkpt>
      <trkpt lat="45.11569" lon="4.2885">
        <ele>846.6</ele>
        <time>2026-04-25T08:13:33Z</time>
      </trkpt>
      <trkpt lat="45.11562" lon="4.28857">
        <ele>848.1</ele>
        <time>2026-04-25T08:13:38Z</time>
      </trkpt>
      <trkpt lat="45.11557" lon="4.28864">
        <ele>849.2</ele>
        <time>2026-04-25T08:13:43Z</time>
      </trkpt>
      <trkpt lat="45.11555" lon="4.28868">
        <ele>849.6</ele>
        <time>2026-04-25T08:13:48Z</time>
      </trkpt>
      <trkpt lat="45.11555" lon="4.28869">
        <ele>849.6</ele>
        <time>2026-04-25T08:13:53Z</time>
      </trkpt>
      <trkpt lat="45.11555" lon="4.2887">
        <ele>849.6</ele>
        <time>2026-04-25T08:13:58Z</time>
      </trkpt>
      <trkpt lat="45.11555" lon="4.2887">
        <ele>849.6</ele>
        <time>2026-04-25T08:14:03Z</time>
      </trkpt>
      <trkpt lat="45.11555" lon="4.2887">
        <ele>849.6</ele>
        <time>2026-04-25T08:14:08Z</time>
      </trkpt>
      <trkpt lat="45.11555" lon="4.2887">
        <ele>849.6</ele>
        <time>2026-04-25T08:14:13Z</time>
      </trkpt>
      <trkpt lat="45.11555" lon="4.2887">
        <ele>849.6</ele>
        <time>2026-04-25T08:14:18Z</time>
      </trkpt>
      <trkpt lat="45.11555" lon="4.2887">
        <ele>849.6</ele>
        <time>2026-04-25T08:14:23Z</time>
      </trkpt>
      <trkpt lat="45.11552" lon="4.28875">
        <ele>850.2</ele>
        <time>2026-04-25T08:14:28Z</time>
      </trkpt>
      <trkpt lat="45.11548" lon="4.2888">
        <ele>850.9</ele>
        <time>2026-04-25T08:14:33Z</time>
      </trkpt>
      <trkpt lat="45.11543" lon="4.28884">
        <ele>851.6</ele>
        <time>2026-04-25T08:14:38Z</time>
      </trkpt>
      <trkpt lat="45.11538" lon="4.28886">
        <ele>852.3</ele>
        <time>2026-04-25T08:14:43Z</time>
      </trkpt>
      <trkpt lat="45.11535" lon="4.28889">
        <ele>852.7</ele>
        <time>2026-04-25T08:14:48Z</time>
      </trkpt>
      <trkpt lat="45.11531" lon="4.28893">
        <ele>853.2</ele>
        <time>2026-04-25T08:14:53Z</time>
      </trkpt>
      <trkpt lat="45.11528" lon="4.28897">
        <ele>853.5</ele>
        <time>2026-04-25T08:14:58Z</time>
      </trkpt>
      <trkpt lat="45.11526" lon="4.28898">
        <ele>853.8</ele>
        <time>2026-04-25T08:15:03Z</time>
      </trkpt>
      <trkpt lat="45.11523" lon="4.28899">
        <ele>854.1</ele>
        <time>2026-04-25T08:15:08Z</time>
      </trkpt>
      <trkpt lat="45.11515" lon="4.289">
        <ele>855</ele>
        <time>2026-04-25T08:15:13Z</time>
      </trkpt>
      <trkpt lat="45.11514" lon="4.28884">
        <ele>855.6</ele>
        <time>2026-04-25T08:15:18Z</time>
      </trkpt>
      <trkpt lat="45.11509" lon="4.28867">
        <ele>856.9</ele>
        <time>2026-04-25T08:15:23Z</time>
      </trkpt>
      <trkpt lat="45.11505" lon="4.28857">
        <ele>858</ele>
        <time>2026-04-25T08:15:28Z</time>
      </trkpt>
      <trkpt lat="45.11503" lon="4.28851">
        <ele>858.6</ele>
        <time>2026-04-25T08:15:33Z</time>
      </trkpt>
      <trkpt lat="45.11501" lon="4.28841">
        <ele>859.4</ele>
        <time>2026-04-25T08:15:38Z</time>
      </trkpt>
      <trkpt lat="45.11501" lon="4.28829">
        <ele>859.6</ele>
        <time>2026-04-25T08:15:43Z</time>
      </trkpt>
      <trkpt lat="45.115" lon="4.28816">
        <ele>859.2</ele>
        <time>2026-04-25T08:15:48Z</time>
      </trkpt>
      <trkpt lat="45.11496" lon="4.28806">
        <ele>859.2</ele>
        <time>2026-04-25T08:15:53Z</time>
      </trkpt>
      <trkpt lat="45.11492" lon="4.28797">
        <ele>859.3</ele>
        <time>2026-04-25T08:15:58Z</time>
      </trkpt>
      <trkpt lat="45.1149" lon="4.28792">
        <ele>859.3</ele>
        <time>2026-04-25T08:16:03Z</time>
      </trkpt>
      <trkpt lat="45.11488" lon="4.28787">
        <ele>859.4</ele>
        <time>2026-04-25T08:16:08Z</time>
      </trkpt>
      <trkpt lat="45.11489" lon="4.28785">
        <ele>859.2</ele>
        <time>2026-04-25T08:16:13Z</time>
      </trkpt>
      <trkpt lat="45.11489" lon="4.2878">
        <ele>858.9</ele>
        <time>2026-04-25T08:16:18Z</time>
      </trkpt>
      <trkpt lat="45.11485" lon="4.28774">
        <ele>859.2</ele>
        <time>2026-04-25T08:16:23Z</time>
      </trkpt>
      <trkpt lat="45.11483" lon="4.28766">
        <ele>859.1</ele>
        <time>2026-04-25T08:16:28Z</time>
      </trkpt>
      <trkpt lat="45.11481" lon="4.28758">
        <ele>859.1</ele>
        <time>2026-04-25T08:16:33Z</time>
      </trkpt>
      <trkpt lat="45.1148" lon="4.2875">
        <ele>858.9</ele>
        <time>2026-04-25T08:16:38Z</time>
      </trkpt>
      <trkpt lat="45.11479" lon="4.28742">
        <ele>858.7</ele>
        <time>2026-04-25T08:16:43Z</time>
      </trkpt>
      <trkpt lat="45.11477" lon="4.28735">
        <ele>858.7</ele>
        <time>2026-04-25T08:16:48Z</time>
      </trkpt>
      <trkpt lat="45.11475" lon="4.28726">
        <ele>858.6</ele>
        <time>2026-04-25T08:16:53Z</time>
      </trkpt>
      <trkpt lat="45.11476" lon="4.2872">
        <ele>858.2</ele>
        <time>2026-04-25T08:16:58Z</time>
      </trkpt>
      <trkpt lat="45.11476" lon="4.28709">
        <ele>857.7</ele>
        <time>2026-04-25T08:17:03Z</time>
      </trkpt>
      <trkpt lat="45.11478" lon="4.28699">
        <ele>856.9</ele>
        <time>2026-04-25T08:17:08Z</time>
      </trkpt>
      <trkpt lat="45.1148" lon="4.2869">
        <ele>856.1</ele>
        <time>2026-04-25T08:17:13Z</time>
      </trkpt>
      <trkpt lat="45.1148" lon="4.28686">
        <ele>856</ele>
        <time>2026-04-25T08:17:18Z</time>
      </trkpt>
      <trkpt lat="45.11484" lon="4.2868">
        <ele>854.9</ele>
        <time>2026-04-25T08:17:23Z</time>
      </trkpt>
      <trkpt lat="45.11488" lon="4.28677">
        <ele>854</ele>
        <time>2026-04-25T08:17:28Z</time>
      </trkpt>
      <trkpt lat="45.1149" lon="4.28675">
        <ele>853.5</ele>
        <time>2026-04-25T08:17:33Z</time>
      </trkpt>
      <trkpt lat="45.11491" lon="4.28674">
        <ele>853.2</ele>
        <time>2026-04-25T08:17:38Z</time>
      </trkpt>
      <trkpt lat="45.11491" lon="4.28674">
        <ele>853.2</ele>
        <time>2026-04-25T08:17:43Z</time>
      </trkpt>
      <trkpt lat="45.11491" lon="4.28674">
        <ele>853.2</ele>
        <time>2026-04-25T08:17:48Z</time>
      </trkpt>
      <trkpt lat="45.11491" lon="4.28674">
        <ele>853.2</ele>
        <time>2026-04-25T08:17:53Z</time>
      </trkpt>
      <trkpt lat="45.11491" lon="4.28674">
        <ele>853.2</ele>
        <time>2026-04-25T08:17:58Z</time>
      </trkpt>
      <trkpt lat="45.11491" lon="4.28674">
        <ele>853.2</ele>
        <time>2026-04-25T08:18:03Z</time>
      </trkpt>
      <trkpt lat="45.11493" lon="4.28667">
        <ele>852.4</ele>
        <time>2026-04-25T08:18:08Z</time>
      </trkpt>
      <trkpt lat="45.11498" lon="4.28661">
        <ele>851.2</ele>
        <time>2026-04-25T08:18:13Z</time>
      </trkpt>
      <trkpt lat="45.11503" lon="4.28655">
        <ele>849.9</ele>
        <time>2026-04-25T08:18:18Z</time>
      </trkpt>
      <trkpt lat="45.11509" lon="4.28649">
        <ele>848.5</ele>
        <time>2026-04-25T08:18:23Z</time>
      </trkpt>
      <trkpt lat="45.11507" lon="4.28641">
        <ele>848.6</ele>
        <time>2026-04-25T08:18:28Z</time>
      </trkpt>
      <trkpt lat="45.11502" lon="4.28632">
        <ele>849.3</ele>
        <time>2026-04-25T08:18:33Z</time>
      </trkpt>
      <trkpt lat="45.11498" lon="4.28624">
        <ele>849.9</ele>
        <time>2026-04-25T08:18:38Z</time>
      </trkpt>
      <trkpt lat="45.11497" lon="4.28615">
        <ele>849.8</ele>
        <time>2026-04-25T08:18:43Z</time>
      </trkpt>
      <trkpt lat="45.11495" lon="4.28604">
        <ele>849.9</ele>
        <time>2026-04-25T08:18:48Z</time>
      </trkpt>
      <trkpt lat="45.11493" lon="4.28594">
        <ele>850.1</ele>
        <time>2026-04-25T08:18:53Z</time>
      </trkpt>
      <trkpt lat="45.11492" lon="4.28586">
        <ele>850.1</ele>
        <time>2026-04-25T08:18:58Z</time>
      </trkpt>
      <trkpt lat="45.11492" lon="4.28577">
        <ele>850.1</ele>
        <time>2026-04-25T08:19:03Z</time>
      </trkpt>
      <trkpt lat="45.11492" lon="4.28567">
        <ele>850.3</ele>
        <time>2026-04-25T08:19:08Z</time>
      </trkpt>
      <trkpt lat="45.11493" lon="4.28558">
        <ele>850.3</ele>
        <time>2026-04-25T08:19:13Z</time>
      </trkpt>
      <trkpt lat="45.11492" lon="4.28545">
        <ele>850.8</ele>
        <time>2026-04-25T08:19:18Z</time>
      </trkpt>
      <trkpt lat="45.11491" lon="4.28535">
        <ele>851.2</ele>
        <time>2026-04-25T08:19:23Z</time>
      </trkpt>
      <trkpt lat="45.11491" lon="4.28526">
        <ele>851.3</ele>
        <time>2026-04-25T08:19:28Z</time>
      </trkpt>
      <trkpt lat="45.1149" lon="4.28518">
        <ele>851.7</ele>
        <time>2026-04-25T08:19:33Z</time>
      </trkpt>
      <trkpt lat="45.1149" lon="4.2851">
        <ele>851.9</ele>
        <time>2026-04-25T08:19:38Z</time>
      </trkpt>
      <trkpt lat="45.11489" lon="4.28497">
        <ele>852.5</ele>
        <time>2026-04-25T08:19:43Z</time>
      </trkpt>
      <trkpt lat="45.11489" lon="4.28486">
        <ele>853.3</ele>
        <time>2026-04-25T08:19:48Z</time>
      </trkpt>
      <trkpt lat="45.11489" lon="4.28476">
        <ele>854</ele>
        <time>2026-04-25T08:19:53Z</time>
      </trkpt>
      <trkpt lat="45.11488" lon="4.28466">
        <ele>854.9</ele>
        <time>2026-04-25T08:19:58Z</time>
      </trkpt>
      <trkpt lat="45.11497" lon="4.28454">
        <ele>854.3</ele>
        <time>2026-04-25T08:20:03Z</time>
      </trkpt>
      <trkpt lat="45.11501" lon="4.28444">
        <ele>854.5</ele>
        <time>2026-04-25T08:20:08Z</time>
      </trkpt>
      <trkpt lat="45.11503" lon="4.28434">
        <ele>854.8</ele>
        <time>2026-04-25T08:20:13Z</time>
      </trkpt>
      <trkpt lat="45.11505" lon="4.28424">
        <ele>855</ele>
        <time>2026-04-25T08:20:18Z</time>
      </trkpt>
      <trkpt lat="45.11508" lon="4.28415">
        <ele>854.8</ele>
        <time>2026-04-25T08:20:23Z</time>
      </trkpt>
      <trkpt lat="45.11507" lon="4.28406">
        <ele>855.3</ele>
        <time>2026-04-25T08:20:28Z</time>
      </trkpt>
      <trkpt lat="45.11509" lon="4.28394">
        <ele>855.1</ele>
        <time>2026-04-25T08:20:33Z</time>
      </trkpt>
      <trkpt lat="45.1151" lon="4.28383">
        <ele>855.1</ele>
        <time>2026-04-25T08:20:38Z</time>
      </trkpt>
      <trkpt lat="45.11511" lon="4.28372">
        <ele>855.2</ele>
        <time>2026-04-25T08:20:43Z</time>
      </trkpt>
      <trkpt lat="45.11515" lon="4.28362">
        <ele>854.4</ele>
        <time>2026-04-25T08:20:48Z</time>
      </trkpt>
      <trkpt lat="45.11522" lon="4.28356">
        <ele>852.8</ele>
        <time>2026-04-25T08:20:53Z</time>
      </trkpt>
      <trkpt lat="45.11528" lon="4.28353">
        <ele>851.3</ele>
        <time>2026-04-25T08:20:58Z</time>
      </trkpt>
      <trkpt lat="45.11535" lon="4.28354">
        <ele>849.5</ele>
        <time>2026-04-25T08:21:03Z</time>
      </trkpt>
      <trkpt lat="45.11541" lon="4.28353">
        <ele>848</ele>
        <time>2026-04-25T08:21:08Z</time>
      </trkpt>
      <trkpt lat="45.11546" lon="4.28346">
        <ele>846.9</ele>
        <time>2026-04-25T08:21:13Z</time>
      </trkpt>
      <trkpt lat="45.11546" lon="4.28342">
        <ele>847.1</ele>
        <time>2026-04-25T08:21:18Z</time>
      </trkpt>
      <trkpt lat="45.11544" lon="4.28341">
        <ele>847.6</ele>
        <time>2026-04-25T08:21:23Z</time>
      </trkpt>
      <trkpt lat="45.11544" lon="4.2834">
        <ele>847.7</ele>
        <time>2026-04-25T08:21:28Z</time>
      </trkpt>
      <trkpt lat="45.11544" lon="4.2834">
        <ele>847.7</ele>
        <time>2026-04-25T08:21:33Z</time>
      </trkpt>
      <trkpt lat="45.11544" lon="4.2834">
        <ele>847.7</ele>
        <time>2026-04-25T08:21:38Z</time>
      </trkpt>
      <trkpt lat="45.11544" lon="4.2834">
        <ele>847.7</ele>
        <time>2026-04-25T08:21:43Z</time>
      </trkpt>
      <trkpt lat="45.11544" lon="4.2834">
        <ele>847.7</ele>
        <time>2026-04-25T08:21:48Z</time>
      </trkpt>
      <trkpt lat="45.11544" lon="4.2834">
        <ele>847.7</ele>
        <time>2026-04-25T08:21:53Z</time>
      </trkpt>
      <trkpt lat="45.11544" lon="4.2834">
        <ele>847.7</ele>
        <time>2026-04-25T08:21:58Z</time>
      </trkpt>
      <trkpt lat="45.11544" lon="4.2834">
        <ele>847.7</ele>
        <time>2026-04-25T08:22:03Z</time>
      </trkpt>
      <trkpt lat="45.11544" lon="4.2834">
        <ele>847.7</ele>
        <time>2026-04-25T08:22:08Z</time>
      </trkpt>
      <trkpt lat="45.11544" lon="4.2834">
        <ele>847.7</ele>
        <time>2026-04-25T08:22:13Z</time>
      </trkpt>
      <trkpt lat="45.11544" lon="4.2834">
        <ele>847.7</ele>
        <time>2026-04-25T08:22:18Z</time>
      </trkpt>
      <trkpt lat="45.11544" lon="4.2834">
        <ele>847.7</ele>
        <time>2026-04-25T08:22:23Z</time>
      </trkpt>
      <trkpt lat="45.11544" lon="4.2834">
        <ele>847.7</ele>
        <time>2026-04-25T08:22:28Z</time>
      </trkpt>
      <trkpt lat="45.11544" lon="4.2834">
        <ele>847.7</ele>
        <time>2026-04-25T08:22:33Z</time>
      </trkpt>
      <trkpt lat="45.11544" lon="4.2834">
        <ele>847.7</ele>
        <time>2026-04-25T08:22:38Z</time>
      </trkpt>
      <trkpt lat="45.11544" lon="4.2834">
        <ele>847.7</ele>
        <time>2026-04-25T08:22:43Z</time>
      </trkpt>
      <trkpt lat="45.11544" lon="4.2834">
        <ele>847.7</ele>
        <time>2026-04-25T08:22:48Z</time>
      </trkpt>
      <trkpt lat="45.11544" lon="4.2834">
        <ele>847.7</ele>
        <time>2026-04-25T08:22:53Z</time>
      </trkpt>
      <trkpt lat="45.11544" lon="4.2834">
        <ele>847.7</ele>
        <time>2026-04-25T08:22:58Z</time>
      </trkpt>
      <trkpt lat="45.11544" lon="4.2834">
        <ele>847.7</ele>
        <time>2026-04-25T08:23:03Z</time>
      </trkpt>
      <trkpt lat="45.11545" lon="4.28335">
        <ele>847.6</ele>
        <time>2026-04-25T08:23:08Z</time>
      </trkpt>
      <trkpt lat="45.11546" lon="4.28327">
        <ele>847</ele>
        <time>2026-04-25T08:23:13Z</time>
      </trkpt>
      <trkpt lat="45.11548" lon="4.28318">
        <ele>846</ele>
        <time>2026-04-25T08:23:18Z</time>
      </trkpt>
      <trkpt lat="45.1155" lon="4.2831">
        <ele>845</ele>
        <time>2026-04-25T08:23:23Z</time>
      </trkpt>
      <trkpt lat="45.11552" lon="4.283">
        <ele>843.9</ele>
        <time>2026-04-25T08:23:28Z</time>
      </trkpt>
      <trkpt lat="45.11552" lon="4.28289">
        <ele>843.3</ele>
        <time>2026-04-25T08:23:33Z</time>
      </trkpt>
      <trkpt lat="45.11553" lon="4.28279">
        <ele>842.5</ele>
        <time>2026-04-25T08:23:38Z</time>
      </trkpt>
      <trkpt lat="45.11554" lon="4.28267">
        <ele>841.6</ele>
        <time>2026-04-25T08:23:43Z</time>
      </trkpt>
      <trkpt lat="45.11555" lon="4.28257">
        <ele>840.8</ele>
        <time>2026-04-25T08:23:48Z</time>
      </trkpt>
      <trkpt lat="45.11558" lon="4.28244">
        <ele>839.6</ele>
        <time>2026-04-25T08:23:53Z</time>
      </trkpt>
      <trkpt lat="45.11559" lon="4.28234">
        <ele>839</ele>
        <time>2026-04-25T08:23:58Z</time>
      </trkpt>
      <trkpt lat="45.11552" lon="4.28224">
        <ele>839.7</ele>
        <time>2026-04-25T08:24:03Z</time>
      </trkpt>
      <trkpt lat="45.11549" lon="4.28214">
        <ele>839.7</ele>
        <time>2026-04-25T08:24:08Z</time>
      </trkpt>
      <trkpt lat="45.11547" lon="4.28205">
        <ele>839.5</ele>
        <time>2026-04-25T08:24:13Z</time>
      </trkpt>
      <trkpt lat="45.11547" lon="4.28195">
        <ele>838.9</ele>
        <time>2026-04-25T08:24:18Z</time>
      </trkpt>
      <trkpt lat="45.11547" lon="4.28188">
        <ele>838.5</ele>
        <time>2026-04-25T08:24:23Z</time>
      </trkpt>
      <trkpt lat="45.11543" lon="4.28179">
        <ele>838.6</ele>
        <time>2026-04-25T08:24:28Z</time>
      </trkpt>
      <trkpt lat="45.11542" lon="4.2817">
        <ele>838.2</ele>
        <time>2026-04-25T08:24:33Z</time>
      </trkpt>
      <trkpt lat="45.11541" lon="4.28162">
        <ele>838.1</ele>
        <time>2026-04-25T08:24:38Z</time>
      </trkpt>
      <trkpt lat="45.11541" lon="4.28159">
        <ele>838</ele>
        <time>2026-04-25T08:24:43Z</time>
      </trkpt>
      <trkpt lat="45.1154" lon="4.28158">
        <ele>838.1</ele>
        <time>2026-04-25T08:24:48Z</time>
      </trkpt>
      <trkpt lat="45.1154" lon="4.28158">
        <ele>838.1</ele>
        <time>2026-04-25T08:24:53Z</time>
      </trkpt>
      <trkpt lat="45.1154" lon="4.28158">
        <ele>838.1</ele>
        <time>2026-04-25T08:24:58Z</time>
      </trkpt>
      <trkpt lat="45.1154" lon="4.28158">
        <ele>838.1</ele>
        <time>2026-04-25T08:25:03Z</time>
      </trkpt>
      <trkpt lat="45.1154" lon="4.28158">
        <ele>838.1</ele>
        <time>2026-04-25T08:25:08Z</time>
      </trkpt>
      <trkpt lat="45.11543" lon="4.28159">
        <ele>837.8</ele>
        <time>2026-04-25T08:25:13Z</time>
      </trkpt>
      <trkpt lat="45.11548" lon="4.28163">
        <ele>837.2</ele>
        <time>2026-04-25T08:25:18Z</time>
      </trkpt>
      <trkpt lat="45.1155" lon="4.28173">
        <ele>837.3</ele>
        <time>2026-04-25T08:25:23Z</time>
      </trkpt>
      <trkpt lat="45.11555" lon="4.28179">
        <ele>837</ele>
        <time>2026-04-25T08:25:28Z</time>
      </trkpt>
      <trkpt lat="45.11562" lon="4.28178">
        <ele>836</ele>
        <time>2026-04-25T08:25:33Z</time>
      </trkpt>
      <trkpt lat="45.11566" lon="4.2818">
        <ele>835.6</ele>
        <time>2026-04-25T08:25:38Z</time>
      </trkpt>
      <trkpt lat="45.11571" lon="4.28181">
        <ele>835</ele>
        <time>2026-04-25T08:25:43Z</time>
      </trkpt>
      <trkpt lat="45.11578" lon="4.28181">
        <ele>834.1</ele>
        <time>2026-04-25T08:25:48Z</time>
      </trkpt>
      <trkpt lat="45.11583" lon="4.28183">
        <ele>833.4</ele>
        <time>2026-04-25T08:25:53Z</time>
      </trkpt>
      <trkpt lat="45.11586" lon="4.28183">
        <ele>833.4</ele>
        <time>2026-04-25T08:25:58Z</time>
      </trkpt>
      <trkpt lat="45.11587" lon="4.28184">
        <ele>833.4</ele>
        <time>2026-04-25T08:26:03Z</time>
      </trkpt>
      <trkpt lat="45.11588" lon="4.28183">
        <ele>833.4</ele>
        <time>2026-04-25T08:26:08Z</time>
      </trkpt>
      <trkpt lat="45.11597" lon="4.28184">
        <ele>833.4</ele>
        <time>2026-04-25T08:26:13Z</time>
      </trkpt>
      <trkpt lat="45.11602" lon="4.28179">
        <ele>833.3</ele>
        <time>2026-04-25T08:26:18Z</time>
      </trkpt>
      <trkpt lat="45.11605" lon="4.2817">
        <ele>833.1</ele>
        <time>2026-04-25T08:26:23Z</time>
      </trkpt>
      <trkpt lat="45.11606" lon="4.28161">
        <ele>833.1</ele>
        <time>2026-04-25T08:26:28Z</time>
      </trkpt>
      <trkpt lat="45.11607" lon="4.28152">
        <ele>833.2</ele>
        <time>2026-04-25T08:26:33Z</time>
      </trkpt>
      <trkpt lat="45.1161" lon="4.28143">
        <ele>833.3</ele>
        <time>2026-04-25T08:26:38Z</time>
      </trkpt>
      <trkpt lat="45.1161" lon="4.28133">
        <ele>833.4</ele>
        <time>2026-04-25T08:26:43Z</time>
      </trkpt>
      <trkpt lat="45.11609" lon="4.28129">
        <ele>833.5</ele>
        <time>2026-04-25T08:26:48Z</time>
      </trkpt>
      <trkpt lat="45.11609" lon="4.28129">
        <ele>833.5</ele>
        <time>2026-04-25T08:26:53Z</time>
      </trkpt>
      <trkpt lat="45.11609" lon="4.28129">
        <ele>833.5</ele>
        <time>2026-04-25T08:26:58Z</time>
      </trkpt>
      <trkpt lat="45.11609" lon="4.28123">
        <ele>833.5</ele>
        <time>2026-04-25T08:27:03Z</time>
      </trkpt>
      <trkpt lat="45.11609" lon="4.28114">
        <ele>833.6</ele>
        <time>2026-04-25T08:27:08Z</time>
      </trkpt>
      <trkpt lat="45.11609" lon="4.28102">
        <ele>833.8</ele>
        <time>2026-04-25T08:27:13Z</time>
      </trkpt>
      <trkpt lat="45.11608" lon="4.28092">
        <ele>833.9</ele>
        <time>2026-04-25T08:27:18Z</time>
      </trkpt>
      <trkpt lat="45.11606" lon="4.28084">
        <ele>834</ele>
        <time>2026-04-25T08:27:23Z</time>
      </trkpt>
      <trkpt lat="45.11606" lon="4.28073">
        <ele>834.1</ele>
        <time>2026-04-25T08:27:28Z</time>
      </trkpt>
      <trkpt lat="45.11612" lon="4.28067">
        <ele>834.3</ele>
        <time>2026-04-25T08:27:33Z</time>
      </trkpt>
      <trkpt lat="45.11615" lon="4.28058">
        <ele>834.5</ele>
        <time>2026-04-25T08:27:38Z</time>
      </trkpt>
      <trkpt lat="45.11616" lon="4.28051">
        <ele>834.6</ele>
        <time>2026-04-25T08:27:43Z</time>
      </trkpt>
      <trkpt lat="45.11616" lon="4.28039">
        <ele>834.8</ele>
        <time>2026-04-25T08:27:48Z</time>
      </trkpt>
      <trkpt lat="45.11617" lon="4.2803">
        <ele>835</ele>
        <time>2026-04-25T08:27:53Z</time>
      </trkpt>
      <trkpt lat="45.11619" lon="4.28021">
        <ele>835.3</ele>
        <time>2026-04-25T08:27:58Z</time>
      </trkpt>
      <trkpt lat="45.11619" lon="4.28012">
        <ele>835.5</ele>
        <time>2026-04-25T08:28:03Z</time>
      </trkpt>
      <trkpt lat="45.1162" lon="4.28002">
        <ele>835.7</ele>
        <time>2026-04-25T08:28:08Z</time>
      </trkpt>
      <trkpt lat="45.1162" lon="4.27994">
        <ele>835.8</ele>
        <time>2026-04-25T08:28:13Z</time>
      </trkpt>
      <trkpt lat="45.11619" lon="4.27984">
        <ele>835.8</ele>
        <time>2026-04-25T08:28:18Z</time>
      </trkpt>
      <trkpt lat="45.11621" lon="4.27973">
        <ele>835.9</ele>
        <time>2026-04-25T08:28:23Z</time>
      </trkpt>
      <trkpt lat="45.11621" lon="4.27964">
        <ele>836</ele>
        <time>2026-04-25T08:28:28Z</time>
      </trkpt>
      <trkpt lat="45.11621" lon="4.27954">
        <ele>836</ele>
        <time>2026-04-25T08:28:33Z</time>
      </trkpt>
      <trkpt lat="45.11622" lon="4.27944">
        <ele>836.1</ele>
        <time>2026-04-25T08:28:38Z</time>
      </trkpt>
      <trkpt lat="45.11624" lon="4.27935">
        <ele>836.3</ele>
        <time>2026-04-25T08:28:43Z</time>
      </trkpt>
      <trkpt lat="45.11625" lon="4.27924">
        <ele>836.5</ele>
        <time>2026-04-25T08:28:48Z</time>
      </trkpt>
      <trkpt lat="45.11626" lon="4.27914">
        <ele>836.7</ele>
        <time>2026-04-25T08:28:53Z</time>
      </trkpt>
      <trkpt lat="45.11625" lon="4.27905">
        <ele>836.8</ele>
        <time>2026-04-25T08:28:58Z</time>
      </trkpt>
      <trkpt lat="45.11624" lon="4.27896">
        <ele>837</ele>
        <time>2026-04-25T08:29:03Z</time>
      </trkpt>
      <trkpt lat="45.11624" lon="4.27885">
        <ele>837.4</ele>
        <time>2026-04-25T08:29:08Z</time>
      </trkpt>
      <trkpt lat="45.11623" lon="4.27874">
        <ele>837.6</ele>
        <time>2026-04-25T08:29:13Z</time>
      </trkpt>
      <trkpt lat="45.11622" lon="4.27864">
        <ele>837.8</ele>
        <time>2026-04-25T08:29:18Z</time>
      </trkpt>
      <trkpt lat="45.11624" lon="4.27853">
        <ele>838.3</ele>
        <time>2026-04-25T08:29:23Z</time>
      </trkpt>
      <trkpt lat="45.11627" lon="4.27843">
        <ele>838.9</ele>
        <time>2026-04-25T08:29:28Z</time>
      </trkpt>
      <trkpt lat="45.1163" lon="4.27834">
        <ele>839.5</ele>
        <time>2026-04-25T08:29:33Z</time>
      </trkpt>
      <trkpt lat="45.11633" lon="4.27825">
        <ele>840.4</ele>
        <time>2026-04-25T08:29:38Z</time>
      </trkpt>
      <trkpt lat="45.11635" lon="4.27815">
        <ele>841.2</ele>
        <time>2026-04-25T08:29:43Z</time>
      </trkpt>
      <trkpt lat="45.11635" lon="4.27807">
        <ele>841.8</ele>
        <time>2026-04-25T08:29:48Z</time>
      </trkpt>
      <trkpt lat="45.11635" lon="4.27798">
        <ele>842.4</ele>
        <time>2026-04-25T08:29:53Z</time>
      </trkpt>
      <trkpt lat="45.11635" lon="4.2779">
        <ele>843</ele>
        <time>2026-04-25T08:29:58Z</time>
      </trkpt>
      <trkpt lat="45.11637" lon="4.2778">
        <ele>843.7</ele>
        <time>2026-04-25T08:30:03Z</time>
      </trkpt>
      <trkpt lat="45.11639" lon="4.27769">
        <ele>844.5</ele>
        <time>2026-04-25T08:30:08Z</time>
      </trkpt>
      <trkpt lat="45.11642" lon="4.27758">
        <ele>845.1</ele>
        <time>2026-04-25T08:30:13Z</time>
      </trkpt>
      <trkpt lat="45.11644" lon="4.2775">
        <ele>845.5</ele>
        <time>2026-04-25T08:30:18Z</time>
      </trkpt>
      <trkpt lat="45.11644" lon="4.27739">
        <ele>846.4</ele>
        <time>2026-04-25T08:30:23Z</time>
      </trkpt>
      <trkpt lat="45.11644" lon="4.2773">
        <ele>847.1</ele>
        <time>2026-04-25T08:30:28Z</time>
      </trkpt>
      <trkpt lat="45.11646" lon="4.27721">
        <ele>847.7</ele>
        <time>2026-04-25T08:30:33Z</time>
      </trkpt>
      <trkpt lat="45.11648" lon="4.27712">
        <ele>848.2</ele>
        <time>2026-04-25T08:30:38Z</time>
      </trkpt>
      <trkpt lat="45.11646" lon="4.27697">
        <ele>849.5</ele>
        <time>2026-04-25T08:30:43Z</time>
      </trkpt>
      <trkpt lat="45.11647" lon="4.27689">
        <ele>850</ele>
        <time>2026-04-25T08:30:48Z</time>
      </trkpt>
      <trkpt lat="45.11641" lon="4.27679">
        <ele>851.2</ele>
        <time>2026-04-25T08:30:53Z</time>
      </trkpt>
      <trkpt lat="45.11641" lon="4.27671">
        <ele>851.8</ele>
        <time>2026-04-25T08:30:58Z</time>
      </trkpt>
      <trkpt lat="45.11641" lon="4.27671">
        <ele>851.8</ele>
        <time>2026-04-25T08:31:03Z</time>
      </trkpt>
      <trkpt lat="45.11641" lon="4.27671">
        <ele>851.8</ele>
        <time>2026-04-25T08:31:08Z</time>
      </trkpt>
      <trkpt lat="45.11641" lon="4.27664">
        <ele>852.3</ele>
        <time>2026-04-25T08:31:13Z</time>
      </trkpt>
      <trkpt lat="45.11642" lon="4.27654">
        <ele>852.9</ele>
        <time>2026-04-25T08:31:18Z</time>
      </trkpt>
      <trkpt lat="45.11644" lon="4.27645">
        <ele>853.4</ele>
        <time>2026-04-25T08:31:23Z</time>
      </trkpt>
      <trkpt lat="45.11646" lon="4.27637">
        <ele>853.8</ele>
        <time>2026-04-25T08:31:28Z</time>
      </trkpt>
      <trkpt lat="45.11643" lon="4.27629">
        <ele>854.6</ele>
        <time>2026-04-25T08:31:33Z</time>
      </trkpt>
      <trkpt lat="45.11639" lon="4.27617">
        <ele>855.7</ele>
        <time>2026-04-25T08:31:38Z</time>
      </trkpt>
      <trkpt lat="45.11638" lon="4.2761">
        <ele>856.3</ele>
        <time>2026-04-25T08:31:43Z</time>
      </trkpt>
      <trkpt lat="45.11636" lon="4.27598">
        <ele>857.2</ele>
        <time>2026-04-25T08:31:48Z</time>
      </trkpt>
      <trkpt lat="45.1164" lon="4.2759">
        <ele>857.5</ele>
        <time>2026-04-25T08:31:53Z</time>
      </trkpt>
      <trkpt lat="45.11643" lon="4.27582">
        <ele>857.8</ele>
        <time>2026-04-25T08:31:58Z</time>
      </trkpt>
      <trkpt lat="45.11645" lon="4.27574">
        <ele>858.2</ele>
        <time>2026-04-25T08:32:03Z</time>
      </trkpt>
      <trkpt lat="45.11647" lon="4.27564">
        <ele>858.8</ele>
        <time>2026-04-25T08:32:08Z</time>
      </trkpt>
      <trkpt lat="45.11648" lon="4.27556">
        <ele>859.2</ele>
        <time>2026-04-25T08:32:13Z</time>
      </trkpt>
      <trkpt lat="45.11648" lon="4.27548">
        <ele>859.8</ele>
        <time>2026-04-25T08:32:18Z</time>
      </trkpt>
      <trkpt lat="45.1165" lon="4.2754">
        <ele>860.2</ele>
        <time>2026-04-25T08:32:23Z</time>
      </trkpt>
      <trkpt lat="45.11651" lon="4.27532">
        <ele>860.7</ele>
        <time>2026-04-25T08:32:28Z</time>
      </trkpt>
      <trkpt lat="45.11652" lon="4.27526">
        <ele>861.1</ele>
        <time>2026-04-25T08:32:33Z</time>
      </trkpt>
      <trkpt lat="45.11654" lon="4.27518">
        <ele>861.5</ele>
        <time>2026-04-25T08:32:38Z</time>
      </trkpt>
      <trkpt lat="45.11655" lon="4.2751">
        <ele>862</ele>
        <time>2026-04-25T08:32:43Z</time>
      </trkpt>
      <trkpt lat="45.11656" lon="4.27501">
        <ele>862.6</ele>
        <time>2026-04-25T08:32:48Z</time>
      </trkpt>
      <trkpt lat="45.11658" lon="4.27493">
        <ele>863.4</ele>
        <time>2026-04-25T08:32:53Z</time>
      </trkpt>
      <trkpt lat="45.11657" lon="4.27486">
        <ele>864.4</ele>
        <time>2026-04-25T08:32:58Z</time>
      </trkpt>
      <trkpt lat="45.11657" lon="4.27479">
        <ele>865.3</ele>
        <time>2026-04-25T08:33:03Z</time>
      </trkpt>
      <trkpt lat="45.11658" lon="4.27472">
        <ele>866.1</ele>
        <time>2026-04-25T08:33:08Z</time>
      </trkpt>
      <trkpt lat="45.11659" lon="4.27464">
        <ele>867.1</ele>
        <time>2026-04-25T08:33:13Z</time>
      </trkpt>
      <trkpt lat="45.11659" lon="4.27457">
        <ele>868</ele>
        <time>2026-04-25T08:33:18Z</time>
      </trkpt>
      <trkpt lat="45.11659" lon="4.27452">
        <ele>868.6</ele>
        <time>2026-04-25T08:33:23Z</time>
      </trkpt>
      <trkpt lat="45.1166" lon="4.27444">
        <ele>869.6</ele>
        <time>2026-04-25T08:33:28Z</time>
      </trkpt>
      <trkpt lat="45.1166" lon="4.27437">
        <ele>870.5</ele>
        <time>2026-04-25T08:33:33Z</time>
      </trkpt>
      <trkpt lat="45.1166" lon="4.27428">
        <ele>871.7</ele>
        <time>2026-04-25T08:33:38Z</time>
      </trkpt>
      <trkpt lat="45.1166" lon="4.27421">
        <ele>872.6</ele>
        <time>2026-04-25T08:33:43Z</time>
      </trkpt>
      <trkpt lat="45.1166" lon="4.27416">
        <ele>873.2</ele>
        <time>2026-04-25T08:33:48Z</time>
      </trkpt>
      <trkpt lat="45.1166" lon="4.27409">
        <ele>874.1</ele>
        <time>2026-04-25T08:33:53Z</time>
      </trkpt>
      <trkpt lat="45.11661" lon="4.27401">
        <ele>875</ele>
        <time>2026-04-25T08:33:58Z</time>
      </trkpt>
      <trkpt lat="45.11661" lon="4.27394">
        <ele>875.8</ele>
        <time>2026-04-25T08:34:03Z</time>
      </trkpt>
      <trkpt lat="45.11662" lon="4.27388">
        <ele>876.5</ele>
        <time>2026-04-25T08:34:08Z</time>
      </trkpt>
      <trkpt lat="45.11662" lon="4.2738">
        <ele>877.5</ele>
        <time>2026-04-25T08:34:13Z</time>
      </trkpt>
      <trkpt lat="45.11662" lon="4.27373">
        <ele>878.3</ele>
        <time>2026-04-25T08:34:18Z</time>
      </trkpt>
      <trkpt lat="45.11663" lon="4.27365">
        <ele>879.2</ele>
        <time>2026-04-25T08:34:23Z</time>
      </trkpt>
      <trkpt lat="45.11665" lon="4.27355">
        <ele>880.4</ele>
        <time>2026-04-25T08:34:28Z</time>
      </trkpt>
      <trkpt lat="45.11665" lon="4.27348">
        <ele>881.2</ele>
        <time>2026-04-25T08:34:33Z</time>
      </trkpt>
      <trkpt lat="45.11664" lon="4.2734">
        <ele>882.2</ele>
        <time>2026-04-25T08:34:38Z</time>
      </trkpt>
      <trkpt lat="45.11661" lon="4.27331">
        <ele>883.1</ele>
        <time>2026-04-25T08:34:43Z</time>
      </trkpt>
      <trkpt lat="45.11659" lon="4.27323">
        <ele>883.3</ele>
        <time>2026-04-25T08:34:48Z</time>
      </trkpt>
      <trkpt lat="45.11657" lon="4.27314">
        <ele>883.6</ele>
        <time>2026-04-25T08:34:53Z</time>
      </trkpt>
      <trkpt lat="45.11655" lon="4.27306">
        <ele>883.9</ele>
        <time>2026-04-25T08:34:58Z</time>
      </trkpt>
      <trkpt lat="45.11653" lon="4.27299">
        <ele>884.2</ele>
        <time>2026-04-25T08:35:03Z</time>
      </trkpt>
      <trkpt lat="45.1165" lon="4.27291">
        <ele>884.5</ele>
        <time>2026-04-25T08:35:08Z</time>
      </trkpt>
      <trkpt lat="45.11647" lon="4.27283">
        <ele>884.9</ele>
        <time>2026-04-25T08:35:13Z</time>
      </trkpt>
      <trkpt lat="45.11645" lon="4.27276">
        <ele>885.3</ele>
        <time>2026-04-25T08:35:18Z</time>
      </trkpt>
      <trkpt lat="45.11641" lon="4.27268">
        <ele>885.8</ele>
        <time>2026-04-25T08:35:23Z</time>
      </trkpt>
      <trkpt lat="45.11639" lon="4.27259">
        <ele>886.3</ele>
        <time>2026-04-25T08:35:28Z</time>
      </trkpt>
      <trkpt lat="45.11636" lon="4.27251">
        <ele>886.8</ele>
        <time>2026-04-25T08:35:33Z</time>
      </trkpt>
      <trkpt lat="45.11634" lon="4.27242">
        <ele>887.4</ele>
        <time>2026-04-25T08:35:38Z</time>
      </trkpt>
      <trkpt lat="45.1163" lon="4.27235">
        <ele>888.1</ele>
        <time>2026-04-25T08:35:43Z</time>
      </trkpt>
      <trkpt lat="45.11628" lon="4.27227">
        <ele>888.8</ele>
        <time>2026-04-25T08:35:48Z</time>
      </trkpt>
      <trkpt lat="45.11625" lon="4.27219">
        <ele>889.5</ele>
        <time>2026-04-25T08:35:53Z</time>
      </trkpt>
      <trkpt lat="45.11623" lon="4.27211">
        <ele>890.3</ele>
        <time>2026-04-25T08:35:58Z</time>
      </trkpt>
      <trkpt lat="45.11619" lon="4.27204">
        <ele>891.2</ele>
        <time>2026-04-25T08:36:03Z</time>
      </trkpt>
      <trkpt lat="45.11616" lon="4.27195">
        <ele>892.2</ele>
        <time>2026-04-25T08:36:08Z</time>
      </trkpt>
      <trkpt lat="45.11612" lon="4.27189">
        <ele>893.1</ele>
        <time>2026-04-25T08:36:13Z</time>
      </trkpt>
      <trkpt lat="45.11609" lon="4.27182">
        <ele>894</ele>
        <time>2026-04-25T08:36:18Z</time>
      </trkpt>
      <trkpt lat="45.11604" lon="4.27173">
        <ele>895.5</ele>
        <time>2026-04-25T08:36:23Z</time>
      </trkpt>
      <trkpt lat="45.11602" lon="4.27164">
        <ele>896.7</ele>
        <time>2026-04-25T08:36:28Z</time>
      </trkpt>
      <trkpt lat="45.11598" lon="4.27156">
        <ele>898.3</ele>
        <time>2026-04-25T08:36:33Z</time>
      </trkpt>
      <trkpt lat="45.11594" lon="4.27147">
        <ele>900.1</ele>
        <time>2026-04-25T08:36:38Z</time>
      </trkpt>
      <trkpt lat="45.11591" lon="4.27138">
        <ele>901.8</ele>
        <time>2026-04-25T08:36:43Z</time>
      </trkpt>
      <trkpt lat="45.11588" lon="4.27131">
        <ele>903.3</ele>
        <time>2026-04-25T08:36:48Z</time>
      </trkpt>
      <trkpt lat="45.11583" lon="4.27123">
        <ele>905.3</ele>
        <time>2026-04-25T08:36:53Z</time>
      </trkpt>
      <trkpt lat="45.1158" lon="4.27114">
        <ele>906.7</ele>
        <time>2026-04-25T08:36:58Z</time>
      </trkpt>
      <trkpt lat="45.11576" lon="4.27107">
        <ele>907.8</ele>
        <time>2026-04-25T08:37:03Z</time>
      </trkpt>
      <trkpt lat="45.11573" lon="4.27099">
        <ele>909</ele>
        <time>2026-04-25T08:37:08Z</time>
      </trkpt>
      <trkpt lat="45.1157" lon="4.27091">
        <ele>910.2</ele>
        <time>2026-04-25T08:37:13Z</time>
      </trkpt>
      <trkpt lat="45.11567" lon="4.27082">
        <ele>911.3</ele>
        <time>2026-04-25T08:37:18Z</time>
      </trkpt>
      <trkpt lat="45.11564" lon="4.27075">
        <ele>911</ele>
        <time>2026-04-25T08:37:23Z</time>
      </trkpt>
      <trkpt lat="45.11562" lon="4.27068">
        <ele>910.6</ele>
        <time>2026-04-25T08:37:28Z</time>
      </trkpt>
      <trkpt lat="45.11559" lon="4.2706">
        <ele>910.2</ele>
        <time>2026-04-25T08:37:33Z</time>
      </trkpt>
      <trkpt lat="45.11556" lon="4.27052">
        <ele>909.8</ele>
        <time>2026-04-25T08:37:38Z</time>
      </trkpt>
      <trkpt lat="45.11555" lon="4.27044">
        <ele>909.3</ele>
        <time>2026-04-25T08:37:43Z</time>
      </trkpt>
      <trkpt lat="45.11554" lon="4.27037">
        <ele>908.9</ele>
        <time>2026-04-25T08:37:48Z</time>
      </trkpt>
      <trkpt lat="45.11551" lon="4.27029">
        <ele>908.4</ele>
        <time>2026-04-25T08:37:53Z</time>
      </trkpt>
      <trkpt lat="45.11548" lon="4.27019">
        <ele>907.8</ele>
        <time>2026-04-25T08:37:58Z</time>
      </trkpt>
      <trkpt lat="45.11544" lon="4.2701">
        <ele>907.2</ele>
        <time>2026-04-25T08:38:03Z</time>
      </trkpt>
      <trkpt lat="45.1154" lon="4.27">
        <ele>906.5</ele>
        <time>2026-04-25T08:38:08Z</time>
      </trkpt>
      <trkpt lat="45.11536" lon="4.26991">
        <ele>906.1</ele>
        <time>2026-04-25T08:38:13Z</time>
      </trkpt>
      <trkpt lat="45.11533" lon="4.26983">
        <ele>905.7</ele>
        <time>2026-04-25T08:38:18Z</time>
      </trkpt>
      <trkpt lat="45.11529" lon="4.26975">
        <ele>905.3</ele>
        <time>2026-04-25T08:38:23Z</time>
      </trkpt>
      <trkpt lat="45.11526" lon="4.26964">
        <ele>904.7</ele>
        <time>2026-04-25T08:38:28Z</time>
      </trkpt>
      <trkpt lat="45.11523" lon="4.26956">
        <ele>904.2</ele>
        <time>2026-04-25T08:38:33Z</time>
      </trkpt>
      <trkpt lat="45.1152" lon="4.26946">
        <ele>903.6</ele>
        <time>2026-04-25T08:38:38Z</time>
      </trkpt>
      <trkpt lat="45.11518" lon="4.26938">
        <ele>903.1</ele>
        <time>2026-04-25T08:38:43Z</time>
      </trkpt>
      <trkpt lat="45.11516" lon="4.26928">
        <ele>902.5</ele>
        <time>2026-04-25T08:38:48Z</time>
      </trkpt>
      <trkpt lat="45.11515" lon="4.2692">
        <ele>902.1</ele>
        <time>2026-04-25T08:38:53Z</time>
      </trkpt>
      <trkpt lat="45.11512" lon="4.26911">
        <ele>902.1</ele>
        <time>2026-04-25T08:38:58Z</time>
      </trkpt>
      <trkpt lat="45.1151" lon="4.269">
        <ele>902.7</ele>
        <time>2026-04-25T08:39:03Z</time>
      </trkpt>
      <trkpt lat="45.11507" lon="4.26893">
        <ele>902.9</ele>
        <time>2026-04-25T08:39:08Z</time>
      </trkpt>
      <trkpt lat="45.11507" lon="4.26879">
        <ele>903.8</ele>
        <time>2026-04-25T08:39:13Z</time>
      </trkpt>
      <trkpt lat="45.11512" lon="4.26873">
        <ele>904.6</ele>
        <time>2026-04-25T08:39:18Z</time>
      </trkpt>
      <trkpt lat="45.11517" lon="4.26866">
        <ele>905.6</ele>
        <time>2026-04-25T08:39:23Z</time>
      </trkpt>
      <trkpt lat="45.1152" lon="4.26859">
        <ele>906.3</ele>
        <time>2026-04-25T08:39:28Z</time>
      </trkpt>
      <trkpt lat="45.11525" lon="4.26852">
        <ele>907.3</ele>
        <time>2026-04-25T08:39:33Z</time>
      </trkpt>
      <trkpt lat="45.11528" lon="4.26846">
        <ele>908.1</ele>
        <time>2026-04-25T08:39:38Z</time>
      </trkpt>
      <trkpt lat="45.11532" lon="4.26841">
        <ele>908.9</ele>
        <time>2026-04-25T08:39:43Z</time>
      </trkpt>
      <trkpt lat="45.11534" lon="4.26837">
        <ele>909.4</ele>
        <time>2026-04-25T08:39:48Z</time>
      </trkpt>
      <trkpt lat="45.11534" lon="4.26834">
        <ele>909.6</ele>
        <time>2026-04-25T08:39:53Z</time>
      </trkpt>
      <trkpt lat="45.11536" lon="4.26834">
        <ele>909.8</ele>
        <time>2026-04-25T08:39:58Z</time>
      </trkpt>
      <trkpt lat="45.11536" lon="4.26834">
        <ele>909.8</ele>
        <time>2026-04-25T08:40:03Z</time>
      </trkpt>
      <trkpt lat="45.11536" lon="4.26834">
        <ele>909.8</ele>
        <time>2026-04-25T08:40:08Z</time>
      </trkpt>
      <trkpt lat="45.11536" lon="4.26834">
        <ele>909.8</ele>
        <time>2026-04-25T08:40:13Z</time>
      </trkpt>
      <trkpt lat="45.11536" lon="4.26834">
        <ele>909.8</ele>
        <time>2026-04-25T08:40:18Z</time>
      </trkpt>
      <trkpt lat="45.11536" lon="4.26834">
        <ele>909.8</ele>
        <time>2026-04-25T08:40:23Z</time>
      </trkpt>
      <trkpt lat="45.11536" lon="4.26834">
        <ele>909.8</ele>
        <time>2026-04-25T08:40:28Z</time>
      </trkpt>
      <trkpt lat="45.11536" lon="4.26834">
        <ele>909.8</ele>
        <time>2026-04-25T08:40:33Z</time>
      </trkpt>
      <trkpt lat="45.11536" lon="4.26834">
        <ele>909.8</ele>
        <time>2026-04-25T08:40:38Z</time>
      </trkpt>
      <trkpt lat="45.11536" lon="4.26834">
        <ele>909.8</ele>
        <time>2026-04-25T08:40:43Z</time>
      </trkpt>
      <trkpt lat="45.11536" lon="4.26834">
        <ele>909.8</ele>
        <time>2026-04-25T08:40:48Z</time>
      </trkpt>
      <trkpt lat="45.11536" lon="4.26834">
        <ele>909.8</ele>
        <time>2026-04-25T08:40:53Z</time>
      </trkpt>
      <trkpt lat="45.11536" lon="4.26834">
        <ele>909.8</ele>
        <time>2026-04-25T08:40:58Z</time>
      </trkpt>
      <trkpt lat="45.11536" lon="4.26834">
        <ele>909.8</ele>
        <time>2026-04-25T08:41:03Z</time>
      </trkpt>
      <trkpt lat="45.11536" lon="4.26834">
        <ele>909.8</ele>
        <time>2026-04-25T08:41:08Z</time>
      </trkpt>
      <trkpt lat="45.11536" lon="4.26834">
        <ele>909.8</ele>
        <time>2026-04-25T08:41:13Z</time>
      </trkpt>
      <trkpt lat="45.11536" lon="4.26834">
        <ele>909.8</ele>
        <time>2026-04-25T08:41:18Z</time>
      </trkpt>
      <trkpt lat="45.11536" lon="4.26834">
        <ele>909.8</ele>
        <time>2026-04-25T08:41:23Z</time>
      </trkpt>
      <trkpt lat="45.11536" lon="4.26834">
        <ele>909.8</ele>
        <time>2026-04-25T08:41:28Z</time>
      </trkpt>
      <trkpt lat="45.11536" lon="4.26834">
        <ele>909.8</ele>
        <time>2026-04-25T08:41:33Z</time>
      </trkpt>
      <trkpt lat="45.11536" lon="4.26834">
        <ele>909.8</ele>
        <time>2026-04-25T08:41:38Z</time>
      </trkpt>
      <trkpt lat="45.11536" lon="4.26834">
        <ele>909.8</ele>
        <time>2026-04-25T08:41:43Z</time>
      </trkpt>
      <trkpt lat="45.11536" lon="4.26834">
        <ele>909.8</ele>
        <time>2026-04-25T08:41:48Z</time>
      </trkpt>
      <trkpt lat="45.11536" lon="4.26834">
        <ele>909.8</ele>
        <time>2026-04-25T08:41:53Z</time>
      </trkpt>
      <trkpt lat="45.11536" lon="4.26834">
        <ele>909.8</ele>
        <time>2026-04-25T08:41:58Z</time>
      </trkpt>
      <trkpt lat="45.11536" lon="4.26834">
        <ele>909.8</ele>
        <time>2026-04-25T08:42:03Z</time>
      </trkpt>
      <trkpt lat="45.11536" lon="4.26834">
        <ele>909.8</ele>
        <time>2026-04-25T08:42:08Z</time>
      </trkpt>
      <trkpt lat="45.11536" lon="4.26834">
        <ele>909.8</ele>
        <time>2026-04-25T08:42:13Z</time>
      </trkpt>
      <trkpt lat="45.11536" lon="4.26834">
        <ele>909.8</ele>
        <time>2026-04-25T08:42:18Z</time>
      </trkpt>
      <trkpt lat="45.11536" lon="4.26834">
        <ele>909.8</ele>
        <time>2026-04-25T08:42:23Z</time>
      </trkpt>
      <trkpt lat="45.11536" lon="4.26834">
        <ele>909.8</ele>
        <time>2026-04-25T08:42:28Z</time>
      </trkpt>
      <trkpt lat="45.11536" lon="4.26834">
        <ele>909.8</ele>
        <time>2026-04-25T08:42:33Z</time>
      </trkpt>
      <trkpt lat="45.11536" lon="4.26834">
        <ele>909.8</ele>
        <time>2026-04-25T08:42:38Z</time>
      </trkpt>
      <trkpt lat="45.11536" lon="4.26834">
        <ele>909.8</ele>
        <time>2026-04-25T08:42:43Z</time>
      </trkpt>
      <trkpt lat="45.11536" lon="4.26834">
        <ele>909.8</ele>
        <time>2026-04-25T08:42:48Z</time>
      </trkpt>
      <trkpt lat="45.11536" lon="4.26834">
        <ele>909.8</ele>
        <time>2026-04-25T08:42:53Z</time>
      </trkpt>
      <trkpt lat="45.11536" lon="4.26821">
        <ele>910.3</ele>
        <time>2026-04-25T08:42:58Z</time>
      </trkpt>
      <trkpt lat="45.11538" lon="4.26812">
        <ele>910.8</ele>
        <time>2026-04-25T08:43:03Z</time>
      </trkpt>
      <trkpt lat="45.1154" lon="4.26804">
        <ele>911.2</ele>
        <time>2026-04-25T08:43:08Z</time>
      </trkpt>
      <trkpt lat="45.11542" lon="4.26797">
        <ele>911.6</ele>
        <time>2026-04-25T08:43:13Z</time>
      </trkpt>
      <trkpt lat="45.11542" lon="4.26789">
        <ele>911.9</ele>
        <time>2026-04-25T08:43:18Z</time>
      </trkpt>
      <trkpt lat="45.11542" lon="4.26781">
        <ele>912.1</ele>
        <time>2026-04-25T08:43:23Z</time>
      </trkpt>
      <trkpt lat="45.11543" lon="4.26777">
        <ele>912.3</ele>
        <time>2026-04-25T08:43:28Z</time>
      </trkpt>
      <trkpt lat="45.11546" lon="4.26768">
        <ele>912.9</ele>
        <time>2026-04-25T08:43:33Z</time>
      </trkpt>
      <trkpt lat="45.11548" lon="4.2676">
        <ele>913.3</ele>
        <time>2026-04-25T08:43:38Z</time>
      </trkpt>
      <trkpt lat="45.1155" lon="4.26751">
        <ele>913.8</ele>
        <time>2026-04-25T08:43:43Z</time>
      </trkpt>
      <trkpt lat="45.11548" lon="4.26744">
        <ele>914</ele>
        <time>2026-04-25T08:43:48Z</time>
      </trkpt>
      <trkpt lat="45.11546" lon="4.26732">
        <ele>914.6</ele>
        <time>2026-04-25T08:43:53Z</time>
      </trkpt>
      <trkpt lat="45.11545" lon="4.26724">
        <ele>915</ele>
        <time>2026-04-25T08:43:58Z</time>
      </trkpt>
      <trkpt lat="45.11545" lon="4.26714">
        <ele>915.6</ele>
        <time>2026-04-25T08:44:03Z</time>
      </trkpt>
      <trkpt lat="45.11544" lon="4.26704">
        <ele>916.2</ele>
        <time>2026-04-25T08:44:08Z</time>
      </trkpt>
      <trkpt lat="45.11543" lon="4.26693">
        <ele>916.9</ele>
        <time>2026-04-25T08:44:13Z</time>
      </trkpt>
      <trkpt lat="45.11542" lon="4.26686">
        <ele>917.2</ele>
        <time>2026-04-25T08:44:18Z</time>
      </trkpt>
      <trkpt lat="45.11542" lon="4.26679">
        <ele>917.7</ele>
        <time>2026-04-25T08:44:23Z</time>
      </trkpt>
      <trkpt lat="45.1154" lon="4.2667">
        <ele>918.2</ele>
        <time>2026-04-25T08:44:28Z</time>
      </trkpt>
      <trkpt lat="45.11537" lon="4.26659">
        <ele>917.8</ele>
        <time>2026-04-25T08:44:33Z</time>
      </trkpt>
      <trkpt lat="45.11533" lon="4.26644">
        <ele>916.8</ele>
        <time>2026-04-25T08:44:38Z</time>
      </trkpt>
      <trkpt lat="45.11529" lon="4.26631">
        <ele>916</ele>
        <time>2026-04-25T08:44:43Z</time>
      </trkpt>
      <trkpt lat="45.11527" lon="4.26619">
        <ele>915.3</ele>
        <time>2026-04-25T08:44:48Z</time>
      </trkpt>
      <trkpt lat="45.11528" lon="4.26611">
        <ele>915</ele>
        <time>2026-04-25T08:44:53Z</time>
      </trkpt>
      <trkpt lat="45.11526" lon="4.26604">
        <ele>914.6</ele>
        <time>2026-04-25T08:44:58Z</time>
      </trkpt>
      <trkpt lat="45.11524" lon="4.26594">
        <ele>914.1</ele>
        <time>2026-04-25T08:45:03Z</time>
      </trkpt>
      <trkpt lat="45.11524" lon="4.26585">
        <ele>913.7</ele>
        <time>2026-04-25T08:45:08Z</time>
      </trkpt>
      <trkpt lat="45.11524" lon="4.26573">
        <ele>912.7</ele>
        <time>2026-04-25T08:45:13Z</time>
      </trkpt>
      <trkpt lat="45.11525" lon="4.26562">
        <ele>911.7</ele>
        <time>2026-04-25T08:45:18Z</time>
      </trkpt>
      <trkpt lat="45.11526" lon="4.26553">
        <ele>911</ele>
        <time>2026-04-25T08:45:23Z</time>
      </trkpt>
      <trkpt lat="45.11526" lon="4.26544">
        <ele>910.2</ele>
        <time>2026-04-25T08:45:28Z</time>
      </trkpt>
      <trkpt lat="45.11526" lon="4.26535">
        <ele>909.4</ele>
        <time>2026-04-25T08:45:33Z</time>
      </trkpt>
      <trkpt lat="45.11526" lon="4.26523">
        <ele>908.3</ele>
        <time>2026-04-25T08:45:38Z</time>
      </trkpt>
      <trkpt lat="45.11524" lon="4.26514">
        <ele>907.5</ele>
        <time>2026-04-25T08:45:43Z</time>
      </trkpt>
      <trkpt lat="45.11522" lon="4.26504">
        <ele>906.6</ele>
        <time>2026-04-25T08:45:48Z</time>
      </trkpt>
      <trkpt lat="45.11519" lon="4.26493">
        <ele>905.3</ele>
        <time>2026-04-25T08:45:53Z</time>
      </trkpt>
      <trkpt lat="45.11517" lon="4.26483">
        <ele>904.1</ele>
        <time>2026-04-25T08:45:58Z</time>
      </trkpt>
      <trkpt lat="45.11512" lon="4.26469">
        <ele>902.3</ele>
        <time>2026-04-25T08:46:03Z</time>
      </trkpt>
      <trkpt lat="45.11507" lon="4.26456">
        <ele>900.7</ele>
        <time>2026-04-25T08:46:08Z</time>
      </trkpt>
      <trkpt lat="45.11502" lon="4.26448">
        <ele>899.8</ele>
        <time>2026-04-25T08:46:13Z</time>
      </trkpt>
      <trkpt lat="45.11497" lon="4.26443">
        <ele>899.2</ele>
        <time>2026-04-25T08:46:18Z</time>
      </trkpt>
      <trkpt lat="45.11492" lon="4.2644">
        <ele>898.9</ele>
        <time>2026-04-25T08:46:23Z</time>
      </trkpt>
      <trkpt lat="45.11487" lon="4.26436">
        <ele>898.5</ele>
        <time>2026-04-25T08:46:28Z</time>
      </trkpt>
      <trkpt lat="45.11478" lon="4.26431">
        <ele>898.1</ele>
        <time>2026-04-25T08:46:33Z</time>
      </trkpt>
      <trkpt lat="45.11472" lon="4.26425">
        <ele>897.6</ele>
        <time>2026-04-25T08:46:38Z</time>
      </trkpt>
      <trkpt lat="45.11466" lon="4.26421">
        <ele>897.3</ele>
        <time>2026-04-25T08:46:43Z</time>
      </trkpt>
      <trkpt lat="45.11458" lon="4.26417">
        <ele>897</ele>
        <time>2026-04-25T08:46:48Z</time>
      </trkpt>
      <trkpt lat="45.1145" lon="4.26415">
        <ele>897.1</ele>
        <time>2026-04-25T08:46:53Z</time>
      </trkpt>
      <trkpt lat="45.11443" lon="4.26409">
        <ele>896.8</ele>
        <time>2026-04-25T08:46:58Z</time>
      </trkpt>
      <trkpt lat="45.11438" lon="4.26404">
        <ele>896.5</ele>
        <time>2026-04-25T08:47:03Z</time>
      </trkpt>
      <trkpt lat="45.11434" lon="4.26397">
        <ele>896</ele>
        <time>2026-04-25T08:47:08Z</time>
      </trkpt>
      <trkpt lat="45.11432" lon="4.2639">
        <ele>895.5</ele>
        <time>2026-04-25T08:47:13Z</time>
      </trkpt>
      <trkpt lat="45.11433" lon="4.26383">
        <ele>894.9</ele>
        <time>2026-04-25T08:47:18Z</time>
      </trkpt>
      <trkpt lat="45.11437" lon="4.26375">
        <ele>894.3</ele>
        <time>2026-04-25T08:47:23Z</time>
      </trkpt>
      <trkpt lat="45.11441" lon="4.2637">
        <ele>893.8</ele>
        <time>2026-04-25T08:47:28Z</time>
      </trkpt>
      <trkpt lat="45.11445" lon="4.26362">
        <ele>893.2</ele>
        <time>2026-04-25T08:47:33Z</time>
      </trkpt>
      <trkpt lat="45.11449" lon="4.26354">
        <ele>892.5</ele>
        <time>2026-04-25T08:47:38Z</time>
      </trkpt>
      <trkpt lat="45.11456" lon="4.26349">
        <ele>892.1</ele>
        <time>2026-04-25T08:47:43Z</time>
      </trkpt>
      <trkpt lat="45.11461" lon="4.2634">
        <ele>891.5</ele>
        <time>2026-04-25T08:47:48Z</time>
      </trkpt>
      <trkpt lat="45.11465" lon="4.26333">
        <ele>891</ele>
        <time>2026-04-25T08:47:53Z</time>
      </trkpt>
      <trkpt lat="45.11469" lon="4.26325">
        <ele>890.4</ele>
        <time>2026-04-25T08:47:58Z</time>
      </trkpt>
      <trkpt lat="45.11473" lon="4.26316">
        <ele>889.8</ele>
        <time>2026-04-25T08:48:03Z</time>
      </trkpt>
      <trkpt lat="45.11477" lon="4.26308">
        <ele>889.2</ele>
        <time>2026-04-25T08:48:08Z</time>
      </trkpt>
      <trkpt lat="45.11483" lon="4.26299">
        <ele>888.5</ele>
        <time>2026-04-25T08:48:13Z</time>
      </trkpt>
      <trkpt lat="45.11491" lon="4.26296">
        <ele>888.1</ele>
        <time>2026-04-25T08:48:18Z</time>
      </trkpt>
      <trkpt lat="45.11496" lon="4.26287">
        <ele>887.2</ele>
        <time>2026-04-25T08:48:23Z</time>
      </trkpt>
      <trkpt lat="45.11501" lon="4.26278">
        <ele>886.3</ele>
        <time>2026-04-25T08:48:28Z</time>
      </trkpt>
      <trkpt lat="45.11508" lon="4.26273">
        <ele>885.7</ele>
        <time>2026-04-25T08:48:33Z</time>
      </trkpt>
      <trkpt lat="45.11515" lon="4.26268">
        <ele>885.2</ele>
        <time>2026-04-25T08:48:38Z</time>
      </trkpt>
      <trkpt lat="45.11519" lon="4.26264">
        <ele>884.9</ele>
        <time>2026-04-25T08:48:43Z</time>
      </trkpt>
      <trkpt lat="45.11523" lon="4.26258">
        <ele>884.5</ele>
        <time>2026-04-25T08:48:48Z</time>
      </trkpt>
      <trkpt lat="45.11528" lon="4.2625">
        <ele>884</ele>
        <time>2026-04-25T08:48:53Z</time>
      </trkpt>
      <trkpt lat="45.11529" lon="4.26242">
        <ele>884</ele>
        <time>2026-04-25T08:48:58Z</time>
      </trkpt>
      <trkpt lat="45.11529" lon="4.26234">
        <ele>884.1</ele>
        <time>2026-04-25T08:49:03Z</time>
      </trkpt>
      <trkpt lat="45.11529" lon="4.26225">
        <ele>884.1</ele>
        <time>2026-04-25T08:49:08Z</time>
      </trkpt>
      <trkpt lat="45.11529" lon="4.26217">
        <ele>884.2</ele>
        <time>2026-04-25T08:49:13Z</time>
      </trkpt>
      <trkpt lat="45.11529" lon="4.2621">
        <ele>884.2</ele>
        <time>2026-04-25T08:49:18Z</time>
      </trkpt>
      <trkpt lat="45.1153" lon="4.26201">
        <ele>884.3</ele>
        <time>2026-04-25T08:49:23Z</time>
      </trkpt>
      <trkpt lat="45.1153" lon="4.26194">
        <ele>884.3</ele>
        <time>2026-04-25T08:49:28Z</time>
      </trkpt>
      <trkpt lat="45.11531" lon="4.26187">
        <ele>884.4</ele>
        <time>2026-04-25T08:49:33Z</time>
      </trkpt>
      <trkpt lat="45.11532" lon="4.26181">
        <ele>884.4</ele>
        <time>2026-04-25T08:49:38Z</time>
      </trkpt>
      <trkpt lat="45.11532" lon="4.26174">
        <ele>884.5</ele>
        <time>2026-04-25T08:49:43Z</time>
      </trkpt>
      <trkpt lat="45.11532" lon="4.26166">
        <ele>884.6</ele>
        <time>2026-04-25T08:49:48Z</time>
      </trkpt>
      <trkpt lat="45.11533" lon="4.26161">
        <ele>885.1</ele>
        <time>2026-04-25T08:49:53Z</time>
      </trkpt>
      <trkpt lat="45.11533" lon="4.26153">
        <ele>885.9</ele>
        <time>2026-04-25T08:49:58Z</time>
      </trkpt>
      <trkpt lat="45.11533" lon="4.26146">
        <ele>886.5</ele>
        <time>2026-04-25T08:50:03Z</time>
      </trkpt>
      <trkpt lat="45.11532" lon="4.26139">
        <ele>887.1</ele>
        <time>2026-04-25T08:50:08Z</time>
      </trkpt>
      <trkpt lat="45.11533" lon="4.2613">
        <ele>888</ele>
        <time>2026-04-25T08:50:13Z</time>
      </trkpt>
      <trkpt lat="45.11534" lon="4.26121">
        <ele>888.9</ele>
        <time>2026-04-25T08:50:18Z</time>
      </trkpt>
      <trkpt lat="45.11534" lon="4.26113">
        <ele>889.6</ele>
        <time>2026-04-25T08:50:23Z</time>
      </trkpt>
      <trkpt lat="45.11534" lon="4.26106">
        <ele>890.3</ele>
        <time>2026-04-25T08:50:28Z</time>
      </trkpt>
      <trkpt lat="45.11534" lon="4.26098">
        <ele>891</ele>
        <time>2026-04-25T08:50:33Z</time>
      </trkpt>
      <trkpt lat="45.11534" lon="4.2609">
        <ele>891.8</ele>
        <time>2026-04-25T08:50:38Z</time>
      </trkpt>
      <trkpt lat="45.11534" lon="4.26083">
        <ele>892.5</ele>
        <time>2026-04-25T08:50:43Z</time>
      </trkpt>
      <trkpt lat="45.11536" lon="4.26078">
        <ele>893.1</ele>
        <time>2026-04-25T08:50:48Z</time>
      </trkpt>
      <trkpt lat="45.11536" lon="4.26069">
        <ele>894.3</ele>
        <time>2026-04-25T08:50:53Z</time>
      </trkpt>
      <trkpt lat="45.11536" lon="4.26065">
        <ele>894.8</ele>
        <time>2026-04-25T08:50:58Z</time>
      </trkpt>
      <trkpt lat="45.11536" lon="4.2606">
        <ele>895.5</ele>
        <time>2026-04-25T08:51:03Z</time>
      </trkpt>
      <trkpt lat="45.11534" lon="4.26051">
        <ele>896.7</ele>
        <time>2026-04-25T08:51:08Z</time>
      </trkpt>
      <trkpt lat="45.11535" lon="4.26044">
        <ele>897.6</ele>
        <time>2026-04-25T08:51:13Z</time>
      </trkpt>
      <trkpt lat="45.11536" lon="4.26036">
        <ele>898.6</ele>
        <time>2026-04-25T08:51:18Z</time>
      </trkpt>
      <trkpt lat="45.11538" lon="4.26029">
        <ele>899.4</ele>
        <time>2026-04-25T08:51:23Z</time>
      </trkpt>
      <trkpt lat="45.1154" lon="4.2602">
        <ele>900.5</ele>
        <time>2026-04-25T08:51:28Z</time>
      </trkpt>
      <trkpt lat="45.11541" lon="4.2601">
        <ele>901.8</ele>
        <time>2026-04-25T08:51:33Z</time>
      </trkpt>
      <trkpt lat="45.11541" lon="4.26003">
        <ele>902.7</ele>
        <time>2026-04-25T08:51:38Z</time>
      </trkpt>
      <trkpt lat="45.11541" lon="4.25996">
        <ele>903.3</ele>
        <time>2026-04-25T08:51:43Z</time>
      </trkpt>
      <trkpt lat="45.11541" lon="4.25987">
        <ele>904</ele>
        <time>2026-04-25T08:51:48Z</time>
      </trkpt>
      <trkpt lat="45.11541" lon="4.2598">
        <ele>904.6</ele>
        <time>2026-04-25T08:51:53Z</time>
      </trkpt>
      <trkpt lat="45.11542" lon="4.25971">
        <ele>905.2</ele>
        <time>2026-04-25T08:51:58Z</time>
      </trkpt>
      <trkpt lat="45.11543" lon="4.25963">
        <ele>905.8</ele>
        <time>2026-04-25T08:52:03Z</time>
      </trkpt>
      <trkpt lat="45.11542" lon="4.25956">
        <ele>906.4</ele>
        <time>2026-04-25T08:52:08Z</time>
      </trkpt>
      <trkpt lat="45.11538" lon="4.25952">
        <ele>907</ele>
        <time>2026-04-25T08:52:13Z</time>
      </trkpt>
      <trkpt lat="45.1153" lon="4.25951">
        <ele>907.6</ele>
        <time>2026-04-25T08:52:18Z</time>
      </trkpt>
      <trkpt lat="45.11522" lon="4.25953">
        <ele>908</ele>
        <time>2026-04-25T08:52:23Z</time>
      </trkpt>
      <trkpt lat="45.11516" lon="4.25954">
        <ele>908.3</ele>
        <time>2026-04-25T08:52:28Z</time>
      </trkpt>
      <trkpt lat="45.11512" lon="4.25955">
        <ele>908.5</ele>
        <time>2026-04-25T08:52:33Z</time>
      </trkpt>
      <trkpt lat="45.11504" lon="4.25956">
        <ele>909</ele>
        <time>2026-04-25T08:52:38Z</time>
      </trkpt>
      <trkpt lat="45.11497" lon="4.25958">
        <ele>909.1</ele>
        <time>2026-04-25T08:52:43Z</time>
      </trkpt>
      <trkpt lat="45.11488" lon="4.2596">
        <ele>909.3</ele>
        <time>2026-04-25T08:52:48Z</time>
      </trkpt>
      <trkpt lat="45.1148" lon="4.25961">
        <ele>909.5</ele>
        <time>2026-04-25T08:52:53Z</time>
      </trkpt>
      <trkpt lat="45.11474" lon="4.25961">
        <ele>909.7</ele>
        <time>2026-04-25T08:52:58Z</time>
      </trkpt>
      <trkpt lat="45.11468" lon="4.25963">
        <ele>909.8</ele>
        <time>2026-04-25T08:53:03Z</time>
      </trkpt>
      <trkpt lat="45.11461" lon="4.25961">
        <ele>910.2</ele>
        <time>2026-04-25T08:53:08Z</time>
      </trkpt>
      <trkpt lat="45.11454" lon="4.2596">
        <ele>910.5</ele>
        <time>2026-04-25T08:53:13Z</time>
      </trkpt>
      <trkpt lat="45.11447" lon="4.2596">
        <ele>910.8</ele>
        <time>2026-04-25T08:53:18Z</time>
      </trkpt>
      <trkpt lat="45.1144" lon="4.25958">
        <ele>911.2</ele>
        <time>2026-04-25T08:53:23Z</time>
      </trkpt>
      <trkpt lat="45.11434" lon="4.25957">
        <ele>911.5</ele>
        <time>2026-04-25T08:53:28Z</time>
      </trkpt>
      <trkpt lat="45.11428" lon="4.25954">
        <ele>911.8</ele>
        <time>2026-04-25T08:53:33Z</time>
      </trkpt>
      <trkpt lat="45.11424" lon="4.25953">
        <ele>912</ele>
        <time>2026-04-25T08:53:38Z</time>
      </trkpt>
      <trkpt lat="45.11417" lon="4.25952">
        <ele>912.3</ele>
        <time>2026-04-25T08:53:43Z</time>
      </trkpt>
      <trkpt lat="45.1141" lon="4.25951">
        <ele>912.6</ele>
        <time>2026-04-25T08:53:48Z</time>
      </trkpt>
      <trkpt lat="45.11404" lon="4.25949">
        <ele>912.9</ele>
        <time>2026-04-25T08:53:53Z</time>
      </trkpt>
      <trkpt lat="45.114" lon="4.25946">
        <ele>913.2</ele>
        <time>2026-04-25T08:53:58Z</time>
      </trkpt>
      <trkpt lat="45.11396" lon="4.25944">
        <ele>913.4</ele>
        <time>2026-04-25T08:54:03Z</time>
      </trkpt>
      <trkpt lat="45.11391" lon="4.25941">
        <ele>913.8</ele>
        <time>2026-04-25T08:54:08Z</time>
      </trkpt>
      <trkpt lat="45.11386" lon="4.25938">
        <ele>914.1</ele>
        <time>2026-04-25T08:54:13Z</time>
      </trkpt>
      <trkpt lat="45.11381" lon="4.25934">
        <ele>914.5</ele>
        <time>2026-04-25T08:54:18Z</time>
      </trkpt>
      <trkpt lat="45.11379" lon="4.25931">
        <ele>914.7</ele>
        <time>2026-04-25T08:54:23Z</time>
      </trkpt>
      <trkpt lat="45.11376" lon="4.25931">
        <ele>914.8</ele>
        <time>2026-04-25T08:54:28Z</time>
      </trkpt>
      <trkpt lat="45.11375" lon="4.25931">
        <ele>914.8</ele>
        <time>2026-04-25T08:54:33Z</time>
      </trkpt>
      <trkpt lat="45.11375" lon="4.25931">
        <ele>914.8</ele>
        <time>2026-04-25T08:54:38Z</time>
      </trkpt>
      <trkpt lat="45.11372" lon="4.25925">
        <ele>915.2</ele>
        <time>2026-04-25T08:54:43Z</time>
      </trkpt>
      <trkpt lat="45.1137" lon="4.25918">
        <ele>915.6</ele>
        <time>2026-04-25T08:54:48Z</time>
      </trkpt>
      <trkpt lat="45.1137" lon="4.25918">
        <ele>915.6</ele>
        <time>2026-04-25T08:54:53Z</time>
      </trkpt>
      <trkpt lat="45.1137" lon="4.25918">
        <ele>915.6</ele>
        <time>2026-04-25T08:54:58Z</time>
      </trkpt>
      <trkpt lat="45.1137" lon="4.25918">
        <ele>915.6</ele>
        <time>2026-04-25T08:55:03Z</time>
      </trkpt>
      <trkpt lat="45.1137" lon="4.25918">
        <ele>915.6</ele>
        <time>2026-04-25T08:55:08Z</time>
      </trkpt>
      <trkpt lat="45.11368" lon="4.25915">
        <ele>915.9</ele>
        <time>2026-04-25T08:55:13Z</time>
      </trkpt>
      <trkpt lat="45.11366" lon="4.25905">
        <ele>916.6</ele>
        <time>2026-04-25T08:55:18Z</time>
      </trkpt>
      <trkpt lat="45.11364" lon="4.25894">
        <ele>917.4</ele>
        <time>2026-04-25T08:55:23Z</time>
      </trkpt>
      <trkpt lat="45.11364" lon="4.25886">
        <ele>917.9</ele>
        <time>2026-04-25T08:55:28Z</time>
      </trkpt>
      <trkpt lat="45.11363" lon="4.25877">
        <ele>918.5</ele>
        <time>2026-04-25T08:55:33Z</time>
      </trkpt>
      <trkpt lat="45.11362" lon="4.25868">
        <ele>919.1</ele>
        <time>2026-04-25T08:55:38Z</time>
      </trkpt>
      <trkpt lat="45.11362" lon="4.2586">
        <ele>919.6</ele>
        <time>2026-04-25T08:55:43Z</time>
      </trkpt>
      <trkpt lat="45.1136" lon="4.25852">
        <ele>920.2</ele>
        <time>2026-04-25T08:55:48Z</time>
      </trkpt>
      <trkpt lat="45.11359" lon="4.25844">
        <ele>920.7</ele>
        <time>2026-04-25T08:55:53Z</time>
      </trkpt>
      <trkpt lat="45.11359" lon="4.25835">
        <ele>921.3</ele>
        <time>2026-04-25T08:55:58Z</time>
      </trkpt>
      <trkpt lat="45.11358" lon="4.25827">
        <ele>921.6</ele>
        <time>2026-04-25T08:56:03Z</time>
      </trkpt>
      <trkpt lat="45.11358" lon="4.25818">
        <ele>921.8</ele>
        <time>2026-04-25T08:56:08Z</time>
      </trkpt>
      <trkpt lat="45.11357" lon="4.2581">
        <ele>922</ele>
        <time>2026-04-25T08:56:13Z</time>
      </trkpt>
      <trkpt lat="45.11353" lon="4.25802">
        <ele>922.3</ele>
        <time>2026-04-25T08:56:18Z</time>
      </trkpt>
      <trkpt lat="45.11351" lon="4.25793">
        <ele>922.5</ele>
        <time>2026-04-25T08:56:23Z</time>
      </trkpt>
      <trkpt lat="45.11348" lon="4.25785">
        <ele>922.8</ele>
        <time>2026-04-25T08:56:28Z</time>
      </trkpt>
      <trkpt lat="45.11345" lon="4.25779">
        <ele>923</ele>
        <time>2026-04-25T08:56:33Z</time>
      </trkpt>
      <trkpt lat="45.11342" lon="4.25773">
        <ele>923.2</ele>
        <time>2026-04-25T08:56:38Z</time>
      </trkpt>
      <trkpt lat="45.11338" lon="4.25765">
        <ele>923.5</ele>
        <time>2026-04-25T08:56:43Z</time>
      </trkpt>
      <trkpt lat="45.11335" lon="4.25759">
        <ele>923.7</ele>
        <time>2026-04-25T08:56:48Z</time>
      </trkpt>
      <trkpt lat="45.1133" lon="4.25751">
        <ele>923.9</ele>
        <time>2026-04-25T08:56:53Z</time>
      </trkpt>
      <trkpt lat="45.11326" lon="4.25741">
        <ele>924.2</ele>
        <time>2026-04-25T08:56:58Z</time>
      </trkpt>
      <trkpt lat="45.11322" lon="4.25733">
        <ele>924.4</ele>
        <time>2026-04-25T08:57:03Z</time>
      </trkpt>
      <trkpt lat="45.11316" lon="4.25723">
        <ele>924.7</ele>
        <time>2026-04-25T08:57:08Z</time>
      </trkpt>
      <trkpt lat="45.11312" lon="4.25716">
        <ele>924.9</ele>
        <time>2026-04-25T08:57:13Z</time>
      </trkpt>
      <trkpt lat="45.11309" lon="4.25708">
        <ele>925.1</ele>
        <time>2026-04-25T08:57:18Z</time>
      </trkpt>
      <trkpt lat="45.11305" lon="4.257">
        <ele>925.4</ele>
        <time>2026-04-25T08:57:23Z</time>
      </trkpt>
      <trkpt lat="45.113" lon="4.25691">
        <ele>925.6</ele>
        <time>2026-04-25T08:57:28Z</time>
      </trkpt>
      <trkpt lat="45.11297" lon="4.25684">
        <ele>925.9</ele>
        <time>2026-04-25T08:57:33Z</time>
      </trkpt>
      <trkpt lat="45.11293" lon="4.25677">
        <ele>926.1</ele>
        <time>2026-04-25T08:57:38Z</time>
      </trkpt>
      <trkpt lat="45.11289" lon="4.2567">
        <ele>926.2</ele>
        <time>2026-04-25T08:57:43Z</time>
      </trkpt>
      <trkpt lat="45.11285" lon="4.25662">
        <ele>926.5</ele>
        <time>2026-04-25T08:57:48Z</time>
      </trkpt>
      <trkpt lat="45.11282" lon="4.25656">
        <ele>926.8</ele>
        <time>2026-04-25T08:57:53Z</time>
      </trkpt>
      <trkpt lat="45.11278" lon="4.25646">
        <ele>927.2</ele>
        <time>2026-04-25T08:57:58Z</time>
      </trkpt>
      <trkpt lat="45.11273" lon="4.25637">
        <ele>927.4</ele>
        <time>2026-04-25T08:58:03Z</time>
      </trkpt>
      <trkpt lat="45.11269" lon="4.2563">
        <ele>927.6</ele>
        <time>2026-04-25T08:58:08Z</time>
      </trkpt>
      <trkpt lat="45.11265" lon="4.2562">
        <ele>928</ele>
        <time>2026-04-25T08:58:13Z</time>
      </trkpt>
      <trkpt lat="45.11261" lon="4.25613">
        <ele>928.1</ele>
        <time>2026-04-25T08:58:18Z</time>
      </trkpt>
      <trkpt lat="45.11259" lon="4.25605">
        <ele>928.4</ele>
        <time>2026-04-25T08:58:23Z</time>
      </trkpt>
      <trkpt lat="45.11256" lon="4.25599">
        <ele>928.6</ele>
        <time>2026-04-25T08:58:28Z</time>
      </trkpt>
      <trkpt lat="45.11253" lon="4.25592">
        <ele>928.8</ele>
        <time>2026-04-25T08:58:33Z</time>
      </trkpt>
      <trkpt lat="45.11248" lon="4.25583">
        <ele>928.7</ele>
        <time>2026-04-25T08:58:38Z</time>
      </trkpt>
      <trkpt lat="45.11243" lon="4.25575">
        <ele>928.6</ele>
        <time>2026-04-25T08:58:43Z</time>
      </trkpt>
      <trkpt lat="45.11238" lon="4.25564">
        <ele>928.7</ele>
        <time>2026-04-25T08:58:48Z</time>
      </trkpt>
      <trkpt lat="45.11234" lon="4.25556">
        <ele>928.7</ele>
        <time>2026-04-25T08:58:53Z</time>
      </trkpt>
      <trkpt lat="45.11229" lon="4.2555">
        <ele>928.5</ele>
        <time>2026-04-25T08:58:58Z</time>
      </trkpt>
      <trkpt lat="45.11225" lon="4.25542">
        <ele>928.5</ele>
        <time>2026-04-25T08:59:03Z</time>
      </trkpt>
      <trkpt lat="45.11223" lon="4.25534">
        <ele>928.9</ele>
        <time>2026-04-25T08:59:08Z</time>
      </trkpt>
      <trkpt lat="45.1122" lon="4.25523">
        <ele>929.3</ele>
        <time>2026-04-25T08:59:13Z</time>
      </trkpt>
      <trkpt lat="45.11215" lon="4.25517">
        <ele>929.1</ele>
        <time>2026-04-25T08:59:18Z</time>
      </trkpt>
      <trkpt lat="45.11209" lon="4.25508">
        <ele>929</ele>
        <time>2026-04-25T08:59:23Z</time>
      </trkpt>
      <trkpt lat="45.11206" lon="4.25498">
        <ele>929.3</ele>
        <time>2026-04-25T08:59:28Z</time>
      </trkpt>
      <trkpt lat="45.11204" lon="4.2549">
        <ele>929.5</ele>
        <time>2026-04-25T08:59:33Z</time>
      </trkpt>
      <trkpt lat="45.112" lon="4.25483">
        <ele>929.4</ele>
        <time>2026-04-25T08:59:38Z</time>
      </trkpt>
      <trkpt lat="45.11196" lon="4.25477">
        <ele>929.2</ele>
        <time>2026-04-25T08:59:43Z</time>
      </trkpt>
      <trkpt lat="45.11193" lon="4.2547">
        <ele>929.3</ele>
        <time>2026-04-25T08:59:48Z</time>
      </trkpt>
      <trkpt lat="45.11191" lon="4.2546">
        <ele>929.7</ele>
        <time>2026-04-25T08:59:53Z</time>
      </trkpt>
      <trkpt lat="45.11189" lon="4.25453">
        <ele>929.9</ele>
        <time>2026-04-25T08:59:58Z</time>
      </trkpt>
      <trkpt lat="45.11188" lon="4.25442">
        <ele>930.5</ele>
        <time>2026-04-25T09:00:03Z</time>
      </trkpt>
      <trkpt lat="45.11188" lon="4.25435">
        <ele>930.9</ele>
        <time>2026-04-25T09:00:08Z</time>
      </trkpt>
      <trkpt lat="45.11184" lon="4.25428">
        <ele>930.9</ele>
        <time>2026-04-25T09:00:13Z</time>
      </trkpt>
      <trkpt lat="45.1118" lon="4.25427">
        <ele>930.6</ele>
        <time>2026-04-25T09:00:18Z</time>
      </trkpt>
      <trkpt lat="45.1118" lon="4.25427">
        <ele>930.6</ele>
        <time>2026-04-25T09:00:23Z</time>
      </trkpt>
      <trkpt lat="45.1118" lon="4.25427">
        <ele>930.6</ele>
        <time>2026-04-25T09:00:28Z</time>
      </trkpt>
      <trkpt lat="45.1118" lon="4.25427">
        <ele>930.6</ele>
        <time>2026-04-25T09:00:33Z</time>
      </trkpt>
      <trkpt lat="45.11179" lon="4.25414">
        <ele>931.3</ele>
        <time>2026-04-25T09:00:38Z</time>
      </trkpt>
      <trkpt lat="45.11178" lon="4.25404">
        <ele>931.5</ele>
        <time>2026-04-25T09:00:43Z</time>
      </trkpt>
      <trkpt lat="45.11178" lon="4.25396">
        <ele>931.7</ele>
        <time>2026-04-25T09:00:48Z</time>
      </trkpt>
      <trkpt lat="45.11177" lon="4.25385">
        <ele>931.9</ele>
        <time>2026-04-25T09:00:53Z</time>
      </trkpt>
      <trkpt lat="45.11176" lon="4.25375">
        <ele>932.1</ele>
        <time>2026-04-25T09:00:58Z</time>
      </trkpt>
      <trkpt lat="45.11171" lon="4.25365">
        <ele>931.8</ele>
        <time>2026-04-25T09:01:03Z</time>
      </trkpt>
      <trkpt lat="45.11167" lon="4.25355">
        <ele>931.5</ele>
        <time>2026-04-25T09:01:08Z</time>
      </trkpt>
      <trkpt lat="45.11164" lon="4.25346">
        <ele>931.4</ele>
        <time>2026-04-25T09:01:13Z</time>
      </trkpt>
      <trkpt lat="45.11161" lon="4.25339">
        <ele>931.3</ele>
        <time>2026-04-25T09:01:18Z</time>
      </trkpt>
      <trkpt lat="45.11158" lon="4.25326">
        <ele>931.2</ele>
        <time>2026-04-25T09:01:23Z</time>
      </trkpt>
      <trkpt lat="45.11156" lon="4.25315">
        <ele>931</ele>
        <time>2026-04-25T09:01:28Z</time>
      </trkpt>
      <trkpt lat="45.11153" lon="4.25303">
        <ele>930.9</ele>
        <time>2026-04-25T09:01:33Z</time>
      </trkpt>
      <trkpt lat="45.11153" lon="4.25293">
        <ele>930.9</ele>
        <time>2026-04-25T09:01:38Z</time>
      </trkpt>
      <trkpt lat="45.11154" lon="4.25283">
        <ele>931</ele>
        <time>2026-04-25T09:01:43Z</time>
      </trkpt>
      <trkpt lat="45.11154" lon="4.25276">
        <ele>931</ele>
        <time>2026-04-25T09:01:48Z</time>
      </trkpt>
      <trkpt lat="45.11154" lon="4.25267">
        <ele>931.1</ele>
        <time>2026-04-25T09:01:53Z</time>
      </trkpt>
      <trkpt lat="45.11155" lon="4.2526">
        <ele>931.1</ele>
        <time>2026-04-25T09:01:58Z</time>
      </trkpt>
      <trkpt lat="45.11154" lon="4.25249">
        <ele>931.2</ele>
        <time>2026-04-25T09:02:03Z</time>
      </trkpt>
      <trkpt lat="45.11155" lon="4.25237">
        <ele>931.7</ele>
        <time>2026-04-25T09:02:08Z</time>
      </trkpt>
      <trkpt lat="45.11155" lon="4.25224">
        <ele>932.2</ele>
        <time>2026-04-25T09:02:13Z</time>
      </trkpt>
      <trkpt lat="45.11154" lon="4.25212">
        <ele>932.8</ele>
        <time>2026-04-25T09:02:18Z</time>
      </trkpt>
      <trkpt lat="45.11154" lon="4.25201">
        <ele>933.2</ele>
        <time>2026-04-25T09:02:23Z</time>
      </trkpt>
      <trkpt lat="45.11153" lon="4.25192">
        <ele>933.7</ele>
        <time>2026-04-25T09:02:28Z</time>
      </trkpt>
      <trkpt lat="45.11153" lon="4.25182">
        <ele>934.1</ele>
        <time>2026-04-25T09:02:33Z</time>
      </trkpt>
      <trkpt lat="45.11152" lon="4.25171">
        <ele>934.7</ele>
        <time>2026-04-25T09:02:38Z</time>
      </trkpt>
      <trkpt lat="45.1115" lon="4.25161">
        <ele>935.4</ele>
        <time>2026-04-25T09:02:43Z</time>
      </trkpt>
      <trkpt lat="45.11147" lon="4.25152">
        <ele>936.1</ele>
        <time>2026-04-25T09:02:48Z</time>
      </trkpt>
      <trkpt lat="45.11141" lon="4.25142">
        <ele>937.3</ele>
        <time>2026-04-25T09:02:53Z</time>
      </trkpt>
      <trkpt lat="45.11137" lon="4.25133">
        <ele>938.3</ele>
        <time>2026-04-25T09:02:58Z</time>
      </trkpt>
      <trkpt lat="45.11132" lon="4.25125">
        <ele>939.5</ele>
        <time>2026-04-25T09:03:03Z</time>
      </trkpt>
      <trkpt lat="45.11128" lon="4.25117">
        <ele>940.6</ele>
        <time>2026-04-25T09:03:08Z</time>
      </trkpt>
      <trkpt lat="45.11124" lon="4.25107">
        <ele>941.9</ele>
        <time>2026-04-25T09:03:13Z</time>
      </trkpt>
      <trkpt lat="45.11124" lon="4.25104">
        <ele>942.1</ele>
        <time>2026-04-25T09:03:18Z</time>
      </trkpt>
      <trkpt lat="45.11123" lon="4.25101">
        <ele>942.4</ele>
        <time>2026-04-25T09:03:23Z</time>
      </trkpt>
      <trkpt lat="45.11123" lon="4.251">
        <ele>942.5</ele>
        <time>2026-04-25T09:03:28Z</time>
      </trkpt>
      <trkpt lat="45.11123" lon="4.251">
        <ele>942.5</ele>
        <time>2026-04-25T09:03:33Z</time>
      </trkpt>
      <trkpt lat="45.11123" lon="4.251">
        <ele>942.5</ele>
        <time>2026-04-25T09:03:38Z</time>
      </trkpt>
      <trkpt lat="45.11123" lon="4.251">
        <ele>942.5</ele>
        <time>2026-04-25T09:03:43Z</time>
      </trkpt>
      <trkpt lat="45.11123" lon="4.251">
        <ele>942.5</ele>
        <time>2026-04-25T09:03:48Z</time>
      </trkpt>
      <trkpt lat="45.11123" lon="4.251">
        <ele>942.5</ele>
        <time>2026-04-25T09:03:53Z</time>
      </trkpt>
      <trkpt lat="45.11123" lon="4.251">
        <ele>942.5</ele>
        <time>2026-04-25T09:03:58Z</time>
      </trkpt>
      <trkpt lat="45.11123" lon="4.251">
        <ele>942.5</ele>
        <time>2026-04-25T09:04:03Z</time>
      </trkpt>
      <trkpt lat="45.11119" lon="4.25097">
        <ele>943.5</ele>
        <time>2026-04-25T09:04:08Z</time>
      </trkpt>
      <trkpt lat="45.11112" lon="4.25093">
        <ele>945.2</ele>
        <time>2026-04-25T09:04:13Z</time>
      </trkpt>
      <trkpt lat="45.11106" lon="4.25085">
        <ele>947</ele>
        <time>2026-04-25T09:04:18Z</time>
      </trkpt>
      <trkpt lat="45.11102" lon="4.25079">
        <ele>947.8</ele>
        <time>2026-04-25T09:04:23Z</time>
      </trkpt>
      <trkpt lat="45.11097" lon="4.25072">
        <ele>948.7</ele>
        <time>2026-04-25T09:04:28Z</time>
      </trkpt>
      <trkpt lat="45.11093" lon="4.25064">
        <ele>949.3</ele>
        <time>2026-04-25T09:04:33Z</time>
      </trkpt>
      <trkpt lat="45.11088" lon="4.25056">
        <ele>950.1</ele>
        <time>2026-04-25T09:04:38Z</time>
      </trkpt>
      <trkpt lat="45.11083" lon="4.25047">
        <ele>950.8</ele>
        <time>2026-04-25T09:04:43Z</time>
      </trkpt>
      <trkpt lat="45.1108" lon="4.25037">
        <ele>951.1</ele>
        <time>2026-04-25T09:04:48Z</time>
      </trkpt>
      <trkpt lat="45.11077" lon="4.2503">
        <ele>951.5</ele>
        <time>2026-04-25T09:04:53Z</time>
      </trkpt>
      <trkpt lat="45.11072" lon="4.2502">
        <ele>952.2</ele>
        <time>2026-04-25T09:04:58Z</time>
      </trkpt>
      <trkpt lat="45.11067" lon="4.25012">
        <ele>953</ele>
        <time>2026-04-25T09:05:03Z</time>
      </trkpt>
      <trkpt lat="45.11064" lon="4.25004">
        <ele>953.3</ele>
        <time>2026-04-25T09:05:08Z</time>
      </trkpt>
      <trkpt lat="45.11063" lon="4.25001">
        <ele>953.4</ele>
        <time>2026-04-25T09:05:13Z</time>
      </trkpt>
      <trkpt lat="45.1106" lon="4.24992">
        <ele>953.1</ele>
        <time>2026-04-25T09:05:18Z</time>
      </trkpt>
      <trkpt lat="45.11056" lon="4.24983">
        <ele>952.9</ele>
        <time>2026-04-25T09:05:23Z</time>
      </trkpt>
      <trkpt lat="45.11052" lon="4.24974">
        <ele>952.7</ele>
        <time>2026-04-25T09:05:28Z</time>
      </trkpt>
      <trkpt lat="45.11047" lon="4.24966">
        <ele>952.8</ele>
        <time>2026-04-25T09:05:33Z</time>
      </trkpt>
      <trkpt lat="45.11042" lon="4.24964">
        <ele>953.6</ele>
        <time>2026-04-25T09:05:38Z</time>
      </trkpt>
      <trkpt lat="45.11035" lon="4.24965">
        <ele>955.2</ele>
        <time>2026-04-25T09:05:43Z</time>
      </trkpt>
      <trkpt lat="45.11027" lon="4.24966">
        <ele>956.9</ele>
        <time>2026-04-25T09:05:48Z</time>
      </trkpt>
      <trkpt lat="45.1102" lon="4.24968">
        <ele>958.6</ele>
        <time>2026-04-25T09:05:53Z</time>
      </trkpt>
      <trkpt lat="45.11013" lon="4.24968">
        <ele>960.1</ele>
        <time>2026-04-25T09:05:58Z</time>
      </trkpt>
      <trkpt lat="45.11008" lon="4.24969">
        <ele>961.3</ele>
        <time>2026-04-25T09:06:03Z</time>
      </trkpt>
      <trkpt lat="45.11003" lon="4.24969">
        <ele>962.3</ele>
        <time>2026-04-25T09:06:08Z</time>
      </trkpt>
      <trkpt lat="45.10997" lon="4.2497">
        <ele>963.3</ele>
        <time>2026-04-25T09:06:13Z</time>
      </trkpt>
      <trkpt lat="45.10993" lon="4.24968">
        <ele>963.4</ele>
        <time>2026-04-25T09:06:18Z</time>
      </trkpt>
      <trkpt lat="45.1099" lon="4.24965">
        <ele>963.3</ele>
        <time>2026-04-25T09:06:23Z</time>
      </trkpt>
      <trkpt lat="45.10987" lon="4.24964">
        <ele>963.5</ele>
        <time>2026-04-25T09:06:28Z</time>
      </trkpt>
      <trkpt lat="45.10984" lon="4.24962">
        <ele>963.6</ele>
        <time>2026-04-25T09:06:33Z</time>
      </trkpt>
      <trkpt lat="45.10981" lon="4.24958">
        <ele>963.4</ele>
        <time>2026-04-25T09:06:38Z</time>
      </trkpt>
      <trkpt lat="45.10978" lon="4.24955">
        <ele>963.4</ele>
        <time>2026-04-25T09:06:43Z</time>
      </trkpt>
      <trkpt lat="45.10975" lon="4.24953">
        <ele>963.5</ele>
        <time>2026-04-25T09:06:48Z</time>
      </trkpt>
      <trkpt lat="45.10971" lon="4.2495">
        <ele>963.6</ele>
        <time>2026-04-25T09:06:53Z</time>
      </trkpt>
      <trkpt lat="45.10968" lon="4.24945">
        <ele>963.4</ele>
        <time>2026-04-25T09:06:58Z</time>
      </trkpt>
      <trkpt lat="45.10964" lon="4.24941">
        <ele>963.5</ele>
        <time>2026-04-25T09:07:03Z</time>
      </trkpt>
      <trkpt lat="45.10962" lon="4.24939">
        <ele>963.6</ele>
        <time>2026-04-25T09:07:08Z</time>
      </trkpt>
      <trkpt lat="45.1096" lon="4.24938">
        <ele>963.7</ele>
        <time>2026-04-25T09:07:13Z</time>
      </trkpt>
      <trkpt lat="45.10959" lon="4.24935">
        <ele>963.6</ele>
        <time>2026-04-25T09:07:18Z</time>
      </trkpt>
      <trkpt lat="45.10957" lon="4.24934">
        <ele>963.7</ele>
        <time>2026-04-25T09:07:23Z</time>
      </trkpt>
      <trkpt lat="45.10952" lon="4.24931">
        <ele>964.1</ele>
        <time>2026-04-25T09:07:28Z</time>
      </trkpt>
      <trkpt lat="45.10947" lon="4.24928">
        <ele>964.5</ele>
        <time>2026-04-25T09:07:33Z</time>
      </trkpt>
      <trkpt lat="45.10942" lon="4.24927">
        <ele>965.1</ele>
        <time>2026-04-25T09:07:38Z</time>
      </trkpt>
      <trkpt lat="45.10939" lon="4.24922">
        <ele>965.2</ele>
        <time>2026-04-25T09:07:43Z</time>
      </trkpt>
      <trkpt lat="45.10934" lon="4.24917">
        <ele>965.5</ele>
        <time>2026-04-25T09:07:48Z</time>
      </trkpt>
      <trkpt lat="45.1093" lon="4.24912">
        <ele>965.4</ele>
        <time>2026-04-25T09:07:53Z</time>
      </trkpt>
      <trkpt lat="45.10925" lon="4.24912">
        <ele>966.1</ele>
        <time>2026-04-25T09:07:58Z</time>
      </trkpt>
      <trkpt lat="45.10919" lon="4.2491">
        <ele>966.7</ele>
        <time>2026-04-25T09:08:03Z</time>
      </trkpt>
      <trkpt lat="45.10915" lon="4.24905">
        <ele>966.2</ele>
        <time>2026-04-25T09:08:08Z</time>
      </trkpt>
      <trkpt lat="45.10912" lon="4.24901">
        <ele>965.4</ele>
        <time>2026-04-25T09:08:13Z</time>
      </trkpt>
      <trkpt lat="45.10908" lon="4.24896">
        <ele>964.5</ele>
        <time>2026-04-25T09:08:18Z</time>
      </trkpt>
      <trkpt lat="45.10903" lon="4.24891">
        <ele>963.5</ele>
        <time>2026-04-25T09:08:23Z</time>
      </trkpt>
      <trkpt lat="45.10898" lon="4.2489">
        <ele>963.1</ele>
        <time>2026-04-25T09:08:28Z</time>
      </trkpt>
      <trkpt lat="45.10894" lon="4.24885">
        <ele>962.3</ele>
        <time>2026-04-25T09:08:33Z</time>
      </trkpt>
      <trkpt lat="45.10889" lon="4.24883">
        <ele>961.8</ele>
        <time>2026-04-25T09:08:38Z</time>
      </trkpt>
      <trkpt lat="45.10884" lon="4.24879">
        <ele>961.1</ele>
        <time>2026-04-25T09:08:43Z</time>
      </trkpt>
      <trkpt lat="45.10878" lon="4.24876">
        <ele>960.5</ele>
        <time>2026-04-25T09:08:48Z</time>
      </trkpt>
      <trkpt lat="45.10872" lon="4.24873">
        <ele>959.9</ele>
        <time>2026-04-25T09:08:53Z</time>
      </trkpt>
      <trkpt lat="45.10867" lon="4.24871">
        <ele>959.5</ele>
        <time>2026-04-25T09:08:58Z</time>
      </trkpt>
      <trkpt lat="45.10862" lon="4.24873">
        <ele>959.5</ele>
        <time>2026-04-25T09:09:03Z</time>
      </trkpt>
      <trkpt lat="45.10856" lon="4.24873">
        <ele>959.3</ele>
        <time>2026-04-25T09:09:08Z</time>
      </trkpt>
      <trkpt lat="45.1085" lon="4.24873">
        <ele>959</ele>
        <time>2026-04-25T09:09:13Z</time>
      </trkpt>
      <trkpt lat="45.10843" lon="4.24873">
        <ele>958.8</ele>
        <time>2026-04-25T09:09:18Z</time>
      </trkpt>
      <trkpt lat="45.10838" lon="4.24871">
        <ele>958.4</ele>
        <time>2026-04-25T09:09:23Z</time>
      </trkpt>
      <trkpt lat="45.10831" lon="4.2487">
        <ele>958.1</ele>
        <time>2026-04-25T09:09:28Z</time>
      </trkpt>
      <trkpt lat="45.10824" lon="4.2487">
        <ele>957.8</ele>
        <time>2026-04-25T09:09:33Z</time>
      </trkpt>
      <trkpt lat="45.10817" lon="4.24869">
        <ele>957.5</ele>
        <time>2026-04-25T09:09:38Z</time>
      </trkpt>
      <trkpt lat="45.10809" lon="4.24869">
        <ele>957.2</ele>
        <time>2026-04-25T09:09:43Z</time>
      </trkpt>
      <trkpt lat="45.10803" lon="4.24869">
        <ele>956.9</ele>
        <time>2026-04-25T09:09:48Z</time>
      </trkpt>
      <trkpt lat="45.10795" lon="4.24869">
        <ele>956.6</ele>
        <time>2026-04-25T09:09:53Z</time>
      </trkpt>
      <trkpt lat="45.10787" lon="4.24868">
        <ele>956.3</ele>
        <time>2026-04-25T09:09:58Z</time>
      </trkpt>
      <trkpt lat="45.10781" lon="4.24868">
        <ele>956</ele>
        <time>2026-04-25T09:10:03Z</time>
      </trkpt>
      <trkpt lat="45.10773" lon="4.24868">
        <ele>955.7</ele>
        <time>2026-04-25T09:10:08Z</time>
      </trkpt>
      <trkpt lat="45.10767" lon="4.2487">
        <ele>955.6</ele>
        <time>2026-04-25T09:10:13Z</time>
      </trkpt>
      <trkpt lat="45.1076" lon="4.24871">
        <ele>955.3</ele>
        <time>2026-04-25T09:10:18Z</time>
      </trkpt>
      <trkpt lat="45.10753" lon="4.24873">
        <ele>955.1</ele>
        <time>2026-04-25T09:10:23Z</time>
      </trkpt>
      <trkpt lat="45.10746" lon="4.24876">
        <ele>955.2</ele>
        <time>2026-04-25T09:10:28Z</time>
      </trkpt>
      <trkpt lat="45.10739" lon="4.24877">
        <ele>955.7</ele>
        <time>2026-04-25T09:10:33Z</time>
      </trkpt>
      <trkpt lat="45.10736" lon="4.24878">
        <ele>955.9</ele>
        <time>2026-04-25T09:10:38Z</time>
      </trkpt>
      <trkpt lat="45.10738" lon="4.24873">
        <ele>955.6</ele>
        <time>2026-04-25T09:10:43Z</time>
      </trkpt>
      <trkpt lat="45.10736" lon="4.24867">
        <ele>955.5</ele>
        <time>2026-04-25T09:10:48Z</time>
      </trkpt>
      <trkpt lat="45.10735" lon="4.24865">
        <ele>955.4</ele>
        <time>2026-04-25T09:10:53Z</time>
      </trkpt>
      <trkpt lat="45.10735" lon="4.24865">
        <ele>955.4</ele>
        <time>2026-04-25T09:10:58Z</time>
      </trkpt>
      <trkpt lat="45.10736" lon="4.24861">
        <ele>955.2</ele>
        <time>2026-04-25T09:11:03Z</time>
      </trkpt>
      <trkpt lat="45.10736" lon="4.24861">
        <ele>955.2</ele>
        <time>2026-04-25T09:11:08Z</time>
      </trkpt>
      <trkpt lat="45.10736" lon="4.24861">
        <ele>955.2</ele>
        <time>2026-04-25T09:11:13Z</time>
      </trkpt>
      <trkpt lat="45.10736" lon="4.24861">
        <ele>955.2</ele>
        <time>2026-04-25T09:11:18Z</time>
      </trkpt>
      <trkpt lat="45.10736" lon="4.24861">
        <ele>955.2</ele>
        <time>2026-04-25T09:11:23Z</time>
      </trkpt>
      <trkpt lat="45.10736" lon="4.24861">
        <ele>955.2</ele>
        <time>2026-04-25T09:11:28Z</time>
      </trkpt>
      <trkpt lat="45.10734" lon="4.24859">
        <ele>955.2</ele>
        <time>2026-04-25T09:11:33Z</time>
      </trkpt>
      <trkpt lat="45.10734" lon="4.24849">
        <ele>954.8</ele>
        <time>2026-04-25T09:11:38Z</time>
      </trkpt>
      <trkpt lat="45.10732" lon="4.24838">
        <ele>954.4</ele>
        <time>2026-04-25T09:11:43Z</time>
      </trkpt>
      <trkpt lat="45.1073" lon="4.24829">
        <ele>954</ele>
        <time>2026-04-25T09:11:48Z</time>
      </trkpt>
      <trkpt lat="45.10728" lon="4.24816">
        <ele>953.4</ele>
        <time>2026-04-25T09:11:53Z</time>
      </trkpt>
      <trkpt lat="45.10725" lon="4.24805">
        <ele>952.9</ele>
        <time>2026-04-25T09:11:58Z</time>
      </trkpt>
      <trkpt lat="45.10726" lon="4.24799">
        <ele>952.6</ele>
        <time>2026-04-25T09:12:03Z</time>
      </trkpt>
      <trkpt lat="45.10731" lon="4.24789">
        <ele>952.1</ele>
        <time>2026-04-25T09:12:08Z</time>
      </trkpt>
      <trkpt lat="45.10732" lon="4.24781">
        <ele>951.7</ele>
        <time>2026-04-25T09:12:13Z</time>
      </trkpt>
      <trkpt lat="45.10734" lon="4.24772">
        <ele>951.2</ele>
        <time>2026-04-25T09:12:18Z</time>
      </trkpt>
      <trkpt lat="45.10736" lon="4.24763">
        <ele>950.8</ele>
        <time>2026-04-25T09:12:23Z</time>
      </trkpt>
      <trkpt lat="45.10737" lon="4.24754">
        <ele>950.3</ele>
        <time>2026-04-25T09:12:28Z</time>
      </trkpt>
      <trkpt lat="45.10736" lon="4.24743">
        <ele>950</ele>
        <time>2026-04-25T09:12:33Z</time>
      </trkpt>
      <trkpt lat="45.10735" lon="4.24733">
        <ele>949.8</ele>
        <time>2026-04-25T09:12:38Z</time>
      </trkpt>
      <trkpt lat="45.10736" lon="4.24721">
        <ele>949.5</ele>
        <time>2026-04-25T09:12:43Z</time>
      </trkpt>
      <trkpt lat="45.10735" lon="4.2471">
        <ele>949.2</ele>
        <time>2026-04-25T09:12:48Z</time>
      </trkpt>
      <trkpt lat="45.10733" lon="4.24698">
        <ele>949</ele>
        <time>2026-04-25T09:12:53Z</time>
      </trkpt>
      <trkpt lat="45.10731" lon="4.24686">
        <ele>948.7</ele>
        <time>2026-04-25T09:12:58Z</time>
      </trkpt>
      <trkpt lat="45.1073" lon="4.24674">
        <ele>948.4</ele>
        <time>2026-04-25T09:13:03Z</time>
      </trkpt>
      <trkpt lat="45.1073" lon="4.24662">
        <ele>948.2</ele>
        <time>2026-04-25T09:13:08Z</time>
      </trkpt>
      <trkpt lat="45.1073" lon="4.24653">
        <ele>948</ele>
        <time>2026-04-25T09:13:13Z</time>
      </trkpt>
      <trkpt lat="45.10729" lon="4.24644">
        <ele>947.8</ele>
        <time>2026-04-25T09:13:18Z</time>
      </trkpt>
      <trkpt lat="45.10729" lon="4.24636">
        <ele>947.7</ele>
        <time>2026-04-25T09:13:23Z</time>
      </trkpt>
      <trkpt lat="45.10729" lon="4.24626">
        <ele>947.5</ele>
        <time>2026-04-25T09:13:28Z</time>
      </trkpt>
      <trkpt lat="45.10729" lon="4.24615">
        <ele>947.3</ele>
        <time>2026-04-25T09:13:33Z</time>
      </trkpt>
      <trkpt lat="45.10729" lon="4.24604">
        <ele>947.1</ele>
        <time>2026-04-25T09:13:38Z</time>
      </trkpt>
      <trkpt lat="45.10728" lon="4.24594">
        <ele>947</ele>
        <time>2026-04-25T09:13:43Z</time>
      </trkpt>
      <trkpt lat="45.10726" lon="4.24585">
        <ele>946.9</ele>
        <time>2026-04-25T09:13:48Z</time>
      </trkpt>
      <trkpt lat="45.10725" lon="4.24572">
        <ele>946.9</ele>
        <time>2026-04-25T09:13:53Z</time>
      </trkpt>
      <trkpt lat="45.10726" lon="4.24562">
        <ele>946.9</ele>
        <time>2026-04-25T09:13:58Z</time>
      </trkpt>
      <trkpt lat="45.10727" lon="4.24554">
        <ele>946.8</ele>
        <time>2026-04-25T09:14:03Z</time>
      </trkpt>
      <trkpt lat="45.10728" lon="4.24548">
        <ele>946.8</ele>
        <time>2026-04-25T09:14:08Z</time>
      </trkpt>
      <trkpt lat="45.10728" lon="4.2454">
        <ele>946.8</ele>
        <time>2026-04-25T09:14:13Z</time>
      </trkpt>
      <trkpt lat="45.10725" lon="4.2453">
        <ele>946.9</ele>
        <time>2026-04-25T09:14:18Z</time>
      </trkpt>
      <trkpt lat="45.10721" lon="4.24522">
        <ele>947</ele>
        <time>2026-04-25T09:14:23Z</time>
      </trkpt>
      <trkpt lat="45.10717" lon="4.24513">
        <ele>947.2</ele>
        <time>2026-04-25T09:14:28Z</time>
      </trkpt>
      <trkpt lat="45.10711" lon="4.24503">
        <ele>947.4</ele>
        <time>2026-04-25T09:14:33Z</time>
      </trkpt>
      <trkpt lat="45.10707" lon="4.24493">
        <ele>947.8</ele>
        <time>2026-04-25T09:14:38Z</time>
      </trkpt>
      <trkpt lat="45.10704" lon="4.24481">
        <ele>948.3</ele>
        <time>2026-04-25T09:14:43Z</time>
      </trkpt>
      <trkpt lat="45.10702" lon="4.24469">
        <ele>948.8</ele>
        <time>2026-04-25T09:14:48Z</time>
      </trkpt>
      <trkpt lat="45.107" lon="4.2446">
        <ele>949.1</ele>
        <time>2026-04-25T09:14:53Z</time>
      </trkpt>
      <trkpt lat="45.10698" lon="4.2445">
        <ele>949.5</ele>
        <time>2026-04-25T09:14:58Z</time>
      </trkpt>
      <trkpt lat="45.10696" lon="4.24438">
        <ele>950</ele>
        <time>2026-04-25T09:15:03Z</time>
      </trkpt>
      <trkpt lat="45.10694" lon="4.24428">
        <ele>950.3</ele>
        <time>2026-04-25T09:15:08Z</time>
      </trkpt>
      <trkpt lat="45.10692" lon="4.24418">
        <ele>950.7</ele>
        <time>2026-04-25T09:15:13Z</time>
      </trkpt>
      <trkpt lat="45.1069" lon="4.24408">
        <ele>950.7</ele>
        <time>2026-04-25T09:15:18Z</time>
      </trkpt>
      <trkpt lat="45.10688" lon="4.24399">
        <ele>950.7</ele>
        <time>2026-04-25T09:15:23Z</time>
      </trkpt>
      <trkpt lat="45.10685" lon="4.2439">
        <ele>950.7</ele>
        <time>2026-04-25T09:15:28Z</time>
      </trkpt>
      <trkpt lat="45.10683" lon="4.2438">
        <ele>950.6</ele>
        <time>2026-04-25T09:15:33Z</time>
      </trkpt>
      <trkpt lat="45.10683" lon="4.24372">
        <ele>950.6</ele>
        <time>2026-04-25T09:15:38Z</time>
      </trkpt>
      <trkpt lat="45.1068" lon="4.24363">
        <ele>950.5</ele>
        <time>2026-04-25T09:15:43Z</time>
      </trkpt>
      <trkpt lat="45.10677" lon="4.24356">
        <ele>950.4</ele>
        <time>2026-04-25T09:15:48Z</time>
      </trkpt>
      <trkpt lat="45.10672" lon="4.24349">
        <ele>950.3</ele>
        <time>2026-04-25T09:15:53Z</time>
      </trkpt>
      <trkpt lat="45.10666" lon="4.24342">
        <ele>950.1</ele>
        <time>2026-04-25T09:15:58Z</time>
      </trkpt>
      <trkpt lat="45.10661" lon="4.24336">
        <ele>949.8</ele>
        <time>2026-04-25T09:16:03Z</time>
      </trkpt>
      <trkpt lat="45.10659" lon="4.24333">
        <ele>949.7</ele>
        <time>2026-04-25T09:16:08Z</time>
      </trkpt>
      <trkpt lat="45.10658" lon="4.24327">
        <ele>949.7</ele>
        <time>2026-04-25T09:16:13Z</time>
      </trkpt>
      <trkpt lat="45.10655" lon="4.24319">
        <ele>949.6</ele>
        <time>2026-04-25T09:16:18Z</time>
      </trkpt>
      <trkpt lat="45.10649" lon="4.24311">
        <ele>949.4</ele>
        <time>2026-04-25T09:16:23Z</time>
      </trkpt>
      <trkpt lat="45.10644" lon="4.24302">
        <ele>949.2</ele>
        <time>2026-04-25T09:16:28Z</time>
      </trkpt>
      <trkpt lat="45.10641" lon="4.24293">
        <ele>949.1</ele>
        <time>2026-04-25T09:16:33Z</time>
      </trkpt>
      <trkpt lat="45.10638" lon="4.24286">
        <ele>949</ele>
        <time>2026-04-25T09:16:38Z</time>
      </trkpt>
      <trkpt lat="45.10633" lon="4.24279">
        <ele>948.8</ele>
        <time>2026-04-25T09:16:43Z</time>
      </trkpt>
      <trkpt lat="45.10628" lon="4.24271">
        <ele>948.6</ele>
        <time>2026-04-25T09:16:48Z</time>
      </trkpt>
      <trkpt lat="45.10624" lon="4.24262">
        <ele>948.5</ele>
        <time>2026-04-25T09:16:53Z</time>
      </trkpt>
      <trkpt lat="45.10619" lon="4.24254">
        <ele>948.3</ele>
        <time>2026-04-25T09:16:58Z</time>
      </trkpt>
      <trkpt lat="45.10614" lon="4.2425">
        <ele>948.1</ele>
        <time>2026-04-25T09:17:03Z</time>
      </trkpt>
      <trkpt lat="45.10607" lon="4.2425">
        <ele>947.9</ele>
        <time>2026-04-25T09:17:08Z</time>
      </trkpt>
      <trkpt lat="45.10604" lon="4.24246">
        <ele>947.8</ele>
        <time>2026-04-25T09:17:13Z</time>
      </trkpt>
      <trkpt lat="45.10601" lon="4.24241">
        <ele>947.7</ele>
        <time>2026-04-25T09:17:18Z</time>
      </trkpt>
      <trkpt lat="45.10599" lon="4.24233">
        <ele>947.7</ele>
        <time>2026-04-25T09:17:23Z</time>
      </trkpt>
      <trkpt lat="45.10601" lon="4.2423">
        <ele>947.8</ele>
        <time>2026-04-25T09:17:28Z</time>
      </trkpt>
      <trkpt lat="45.10602" lon="4.24229">
        <ele>947.9</ele>
        <time>2026-04-25T09:17:33Z</time>
      </trkpt>
      <trkpt lat="45.10602" lon="4.24229">
        <ele>947.9</ele>
        <time>2026-04-25T09:17:38Z</time>
      </trkpt>
      <trkpt lat="45.10602" lon="4.24229">
        <ele>947.9</ele>
        <time>2026-04-25T09:17:43Z</time>
      </trkpt>
      <trkpt lat="45.10602" lon="4.24229">
        <ele>947.9</ele>
        <time>2026-04-25T09:17:48Z</time>
      </trkpt>
      <trkpt lat="45.10602" lon="4.24229">
        <ele>947.9</ele>
        <time>2026-04-25T09:17:53Z</time>
      </trkpt>
      <trkpt lat="45.10602" lon="4.24229">
        <ele>947.9</ele>
        <time>2026-04-25T09:17:58Z</time>
      </trkpt>
      <trkpt lat="45.10602" lon="4.24229">
        <ele>947.9</ele>
        <time>2026-04-25T09:18:03Z</time>
      </trkpt>
      <trkpt lat="45.10602" lon="4.24229">
        <ele>947.9</ele>
        <time>2026-04-25T09:18:08Z</time>
      </trkpt>
      <trkpt lat="45.10602" lon="4.24229">
        <ele>947.9</ele>
        <time>2026-04-25T09:18:13Z</time>
      </trkpt>
      <trkpt lat="45.10604" lon="4.24221">
        <ele>948</ele>
        <time>2026-04-25T09:18:18Z</time>
      </trkpt>
      <trkpt lat="45.10605" lon="4.24215">
        <ele>948.1</ele>
        <time>2026-04-25T09:18:23Z</time>
      </trkpt>
      <trkpt lat="45.10607" lon="4.2421">
        <ele>948.2</ele>
        <time>2026-04-25T09:18:28Z</time>
      </trkpt>
      <trkpt lat="45.10612" lon="4.2421">
        <ele>948.3</ele>
        <time>2026-04-25T09:18:33Z</time>
      </trkpt>
      <trkpt lat="45.10616" lon="4.24207">
        <ele>948.5</ele>
        <time>2026-04-25T09:18:38Z</time>
      </trkpt>
      <trkpt lat="45.10621" lon="4.24208">
        <ele>948.6</ele>
        <time>2026-04-25T09:18:43Z</time>
      </trkpt>
      <trkpt lat="45.10628" lon="4.24207">
        <ele>948.8</ele>
        <time>2026-04-25T09:18:48Z</time>
      </trkpt>
      <trkpt lat="45.10634" lon="4.24206">
        <ele>949</ele>
        <time>2026-04-25T09:18:53Z</time>
      </trkpt>
      <trkpt lat="45.1064" lon="4.24204">
        <ele>949.2</ele>
        <time>2026-04-25T09:18:58Z</time>
      </trkpt>
      <trkpt lat="45.10645" lon="4.24204">
        <ele>949.4</ele>
        <time>2026-04-25T09:19:03Z</time>
      </trkpt>
      <trkpt lat="45.10654" lon="4.24203">
        <ele>949.6</ele>
        <time>2026-04-25T09:19:08Z</time>
      </trkpt>
      <trkpt lat="45.10661" lon="4.24202">
        <ele>949.8</ele>
        <time>2026-04-25T09:19:13Z</time>
      </trkpt>
      <trkpt lat="45.10668" lon="4.24203">
        <ele>950.1</ele>
        <time>2026-04-25T09:19:18Z</time>
      </trkpt>
      <trkpt lat="45.10671" lon="4.24203">
        <ele>950.3</ele>
        <time>2026-04-25T09:19:23Z</time>
      </trkpt>
      <trkpt lat="45.10678" lon="4.24205">
        <ele>950.8</ele>
        <time>2026-04-25T09:19:28Z</time>
      </trkpt>
      <trkpt lat="45.10683" lon="4.24206">
        <ele>951.2</ele>
        <time>2026-04-25T09:19:33Z</time>
      </trkpt>
      <trkpt lat="45.10683" lon="4.24208">
        <ele>951.2</ele>
        <time>2026-04-25T09:19:38Z</time>
      </trkpt>
      <trkpt lat="45.10683" lon="4.24208">
        <ele>951.2</ele>
        <time>2026-04-25T09:19:43Z</time>
      </trkpt>
      <trkpt lat="45.10683" lon="4.24208">
        <ele>951.2</ele>
        <time>2026-04-25T09:19:48Z</time>
      </trkpt>
      <trkpt lat="45.10683" lon="4.24208">
        <ele>951.2</ele>
        <time>2026-04-25T09:19:53Z</time>
      </trkpt>
      <trkpt lat="45.10683" lon="4.24208">
        <ele>951.2</ele>
        <time>2026-04-25T09:19:58Z</time>
      </trkpt>
      <trkpt lat="45.10683" lon="4.24208">
        <ele>951.2</ele>
        <time>2026-04-25T09:20:03Z</time>
      </trkpt>
      <trkpt lat="45.10683" lon="4.24208">
        <ele>951.2</ele>
        <time>2026-04-25T09:20:08Z</time>
      </trkpt>
      <trkpt lat="45.10683" lon="4.24208">
        <ele>951.2</ele>
        <time>2026-04-25T09:20:13Z</time>
      </trkpt>
      <trkpt lat="45.10683" lon="4.24208">
        <ele>951.2</ele>
        <time>2026-04-25T09:20:18Z</time>
      </trkpt>
      <trkpt lat="45.10683" lon="4.24208">
        <ele>951.2</ele>
        <time>2026-04-25T09:20:23Z</time>
      </trkpt>
      <trkpt lat="45.10683" lon="4.24208">
        <ele>951.2</ele>
        <time>2026-04-25T09:20:28Z</time>
      </trkpt>
      <trkpt lat="45.10683" lon="4.24208">
        <ele>951.2</ele>
        <time>2026-04-25T09:20:33Z</time>
      </trkpt>
      <trkpt lat="45.10683" lon="4.24208">
        <ele>951.2</ele>
        <time>2026-04-25T09:20:38Z</time>
      </trkpt>
      <trkpt lat="45.10681" lon="4.24206">
        <ele>951</ele>
        <time>2026-04-25T09:20:43Z</time>
      </trkpt>
      <trkpt lat="45.10676" lon="4.24204">
        <ele>950.7</ele>
        <time>2026-04-25T09:20:48Z</time>
      </trkpt>
      <trkpt lat="45.1067" lon="4.24204">
        <ele>950.2</ele>
        <time>2026-04-25T09:20:53Z</time>
      </trkpt>
      <trkpt lat="45.10667" lon="4.24205">
        <ele>950</ele>
        <time>2026-04-25T09:20:58Z</time>
      </trkpt>
      <trkpt lat="45.10659" lon="4.24205">
        <ele>949.8</ele>
        <time>2026-04-25T09:21:03Z</time>
      </trkpt>
      <trkpt lat="45.10654" lon="4.24205">
        <ele>949.6</ele>
        <time>2026-04-25T09:21:08Z</time>
      </trkpt>
      <trkpt lat="45.10649" lon="4.24206">
        <ele>949.5</ele>
        <time>2026-04-25T09:21:13Z</time>
      </trkpt>
      <trkpt lat="45.10641" lon="4.24205">
        <ele>949.2</ele>
        <time>2026-04-25T09:21:18Z</time>
      </trkpt>
      <trkpt lat="45.10632" lon="4.24201">
        <ele>949</ele>
        <time>2026-04-25T09:21:23Z</time>
      </trkpt>
      <trkpt lat="45.10623" lon="4.24204">
        <ele>948.7</ele>
        <time>2026-04-25T09:21:28Z</time>
      </trkpt>
      <trkpt lat="45.10616" lon="4.24206">
        <ele>948.5</ele>
        <time>2026-04-25T09:21:33Z</time>
      </trkpt>
      <trkpt lat="45.10609" lon="4.24208">
        <ele>948.3</ele>
        <time>2026-04-25T09:21:38Z</time>
      </trkpt>
      <trkpt lat="45.10604" lon="4.24206">
        <ele>948.1</ele>
        <time>2026-04-25T09:21:43Z</time>
      </trkpt>
      <trkpt lat="45.106" lon="4.24197">
        <ele>948.1</ele>
        <time>2026-04-25T09:21:48Z</time>
      </trkpt>
      <trkpt lat="45.10597" lon="4.24188">
        <ele>948.1</ele>
        <time>2026-04-25T09:21:53Z</time>
      </trkpt>
      <trkpt lat="45.10594" lon="4.24176">
        <ele>948.2</ele>
        <time>2026-04-25T09:21:58Z</time>
      </trkpt>
      <trkpt lat="45.1059" lon="4.24166">
        <ele>948.1</ele>
        <time>2026-04-25T09:22:03Z</time>
      </trkpt>
      <trkpt lat="45.10586" lon="4.24158">
        <ele>947.4</ele>
        <time>2026-04-25T09:22:08Z</time>
      </trkpt>
      <trkpt lat="45.10579" lon="4.24152">
        <ele>946.8</ele>
        <time>2026-04-25T09:22:13Z</time>
      </trkpt>
      <trkpt lat="45.10572" lon="4.24149">
        <ele>946.2</ele>
        <time>2026-04-25T09:22:18Z</time>
      </trkpt>
      <trkpt lat="45.10565" lon="4.24145">
        <ele>945.7</ele>
        <time>2026-04-25T09:22:23Z</time>
      </trkpt>
      <trkpt lat="45.10557" lon="4.24137">
        <ele>944.8</ele>
        <time>2026-04-25T09:22:28Z</time>
      </trkpt>
      <trkpt lat="45.10549" lon="4.24133">
        <ele>944.3</ele>
        <time>2026-04-25T09:22:33Z</time>
      </trkpt>
      <trkpt lat="45.10544" lon="4.24127">
        <ele>943.7</ele>
        <time>2026-04-25T09:22:38Z</time>
      </trkpt>
      <trkpt lat="45.10539" lon="4.24121">
        <ele>943.2</ele>
        <time>2026-04-25T09:22:43Z</time>
      </trkpt>
      <trkpt lat="45.10535" lon="4.24119">
        <ele>942.9</ele>
        <time>2026-04-25T09:22:48Z</time>
      </trkpt>
      <trkpt lat="45.10531" lon="4.24114">
        <ele>942.5</ele>
        <time>2026-04-25T09:22:53Z</time>
      </trkpt>
      <trkpt lat="45.10526" lon="4.24104">
        <ele>941.8</ele>
        <time>2026-04-25T09:22:58Z</time>
      </trkpt>
      <trkpt lat="45.10526" lon="4.24104">
        <ele>941.8</ele>
        <time>2026-04-25T09:23:03Z</time>
      </trkpt>
      <trkpt lat="45.10525" lon="4.24102">
        <ele>941.6</ele>
        <time>2026-04-25T09:23:08Z</time>
      </trkpt>
      <trkpt lat="45.1052" lon="4.241">
        <ele>941.4</ele>
        <time>2026-04-25T09:23:13Z</time>
      </trkpt>
      <trkpt lat="45.10517" lon="4.24096">
        <ele>941.1</ele>
        <time>2026-04-25T09:23:18Z</time>
      </trkpt>
      <trkpt lat="45.1051" lon="4.2409">
        <ele>940.6</ele>
        <time>2026-04-25T09:23:23Z</time>
      </trkpt>
      <trkpt lat="45.10502" lon="4.24085">
        <ele>940.1</ele>
        <time>2026-04-25T09:23:28Z</time>
      </trkpt>
      <trkpt lat="45.10495" lon="4.24077">
        <ele>939.7</ele>
        <time>2026-04-25T09:23:33Z</time>
      </trkpt>
      <trkpt lat="45.1049" lon="4.24071">
        <ele>939.5</ele>
        <time>2026-04-25T09:23:38Z</time>
      </trkpt>
      <trkpt lat="45.10485" lon="4.24064">
        <ele>939.2</ele>
        <time>2026-04-25T09:23:43Z</time>
      </trkpt>
      <trkpt lat="45.10479" lon="4.2406">
        <ele>939.3</ele>
        <time>2026-04-25T09:23:48Z</time>
      </trkpt>
      <trkpt lat="45.10474" lon="4.24056">
        <ele>939.3</ele>
        <time>2026-04-25T09:23:53Z</time>
      </trkpt>
      <trkpt lat="45.10469" lon="4.24047">
        <ele>939</ele>
        <time>2026-04-25T09:23:58Z</time>
      </trkpt>
      <trkpt lat="45.10463" lon="4.24039">
        <ele>938.9</ele>
        <time>2026-04-25T09:24:03Z</time>
      </trkpt>
      <trkpt lat="45.10458" lon="4.24032">
        <ele>938.8</ele>
        <time>2026-04-25T09:24:08Z</time>
      </trkpt>
      <trkpt lat="45.10451" lon="4.24026">
        <ele>939.1</ele>
        <time>2026-04-25T09:24:13Z</time>
      </trkpt>
      <trkpt lat="45.10445" lon="4.24022">
        <ele>939.4</ele>
        <time>2026-04-25T09:24:18Z</time>
      </trkpt>
      <trkpt lat="45.10439" lon="4.24019">
        <ele>939.7</ele>
        <time>2026-04-25T09:24:23Z</time>
      </trkpt>
      <trkpt lat="45.10431" lon="4.24013">
        <ele>940.2</ele>
        <time>2026-04-25T09:24:28Z</time>
      </trkpt>
      <trkpt lat="45.10424" lon="4.24009">
        <ele>940.7</ele>
        <time>2026-04-25T09:24:33Z</time>
      </trkpt>
      <trkpt lat="45.10418" lon="4.24007">
        <ele>941.2</ele>
        <time>2026-04-25T09:24:38Z</time>
      </trkpt>
      <trkpt lat="45.10413" lon="4.24001">
        <ele>941.1</ele>
        <time>2026-04-25T09:24:43Z</time>
      </trkpt>
      <trkpt lat="45.10407" lon="4.23997">
        <ele>940.7</ele>
        <time>2026-04-25T09:24:48Z</time>
      </trkpt>
      <trkpt lat="45.10401" lon="4.23992">
        <ele>940</ele>
        <time>2026-04-25T09:24:53Z</time>
      </trkpt>
      <trkpt lat="45.10399" lon="4.23985">
        <ele>938.9</ele>
        <time>2026-04-25T09:24:58Z</time>
      </trkpt>
      <trkpt lat="45.104" lon="4.23978">
        <ele>937.8</ele>
        <time>2026-04-25T09:25:03Z</time>
      </trkpt>
      <trkpt lat="45.10404" lon="4.23965">
        <ele>935.8</ele>
        <time>2026-04-25T09:25:08Z</time>
      </trkpt>
      <trkpt lat="45.10407" lon="4.23956">
        <ele>934.3</ele>
        <time>2026-04-25T09:25:13Z</time>
      </trkpt>
      <trkpt lat="45.1041" lon="4.23947">
        <ele>932.9</ele>
        <time>2026-04-25T09:25:18Z</time>
      </trkpt>
      <trkpt lat="45.10414" lon="4.23939">
        <ele>931.5</ele>
        <time>2026-04-25T09:25:23Z</time>
      </trkpt>
      <trkpt lat="45.10418" lon="4.23931">
        <ele>930.2</ele>
        <time>2026-04-25T09:25:28Z</time>
      </trkpt>
      <trkpt lat="45.10424" lon="4.23923">
        <ele>928.6</ele>
        <time>2026-04-25T09:25:33Z</time>
      </trkpt>
      <trkpt lat="45.10428" lon="4.23915">
        <ele>927.2</ele>
        <time>2026-04-25T09:25:38Z</time>
      </trkpt>
      <trkpt lat="45.10432" lon="4.23905">
        <ele>925.8</ele>
        <time>2026-04-25T09:25:43Z</time>
      </trkpt>
      <trkpt lat="45.10437" lon="4.23897">
        <ele>924.7</ele>
        <time>2026-04-25T09:25:48Z</time>
      </trkpt>
      <trkpt lat="45.10441" lon="4.23892">
        <ele>923.9</ele>
        <time>2026-04-25T09:25:53Z</time>
      </trkpt>
      <trkpt lat="45.10443" lon="4.23883">
        <ele>922.8</ele>
        <time>2026-04-25T09:25:58Z</time>
      </trkpt>
      <trkpt lat="45.10445" lon="4.23875">
        <ele>921.8</ele>
        <time>2026-04-25T09:26:03Z</time>
      </trkpt>
      <trkpt lat="45.10447" lon="4.23866">
        <ele>920.7</ele>
        <time>2026-04-25T09:26:08Z</time>
      </trkpt>
      <trkpt lat="45.10447" lon="4.23856">
        <ele>919.6</ele>
        <time>2026-04-25T09:26:13Z</time>
      </trkpt>
      <trkpt lat="45.10447" lon="4.23847">
        <ele>918.6</ele>
        <time>2026-04-25T09:26:18Z</time>
      </trkpt>
      <trkpt lat="45.10446" lon="4.23838">
        <ele>917.5</ele>
        <time>2026-04-25T09:26:23Z</time>
      </trkpt>
      <trkpt lat="45.10444" lon="4.23828">
        <ele>916.7</ele>
        <time>2026-04-25T09:26:28Z</time>
      </trkpt>
      <trkpt lat="45.10441" lon="4.23818">
        <ele>916.3</ele>
        <time>2026-04-25T09:26:33Z</time>
      </trkpt>
      <trkpt lat="45.10437" lon="4.2381">
        <ele>916</ele>
        <time>2026-04-25T09:26:38Z</time>
      </trkpt>
      <trkpt lat="45.10434" lon="4.238">
        <ele>915.6</ele>
        <time>2026-04-25T09:26:43Z</time>
      </trkpt>
      <trkpt lat="45.10432" lon="4.23793">
        <ele>915.3</ele>
        <time>2026-04-25T09:26:48Z</time>
      </trkpt>
      <trkpt lat="45.1043" lon="4.23786">
        <ele>915</ele>
        <time>2026-04-25T09:26:53Z</time>
      </trkpt>
      <trkpt lat="45.10428" lon="4.23779">
        <ele>914.8</ele>
        <time>2026-04-25T09:26:58Z</time>
      </trkpt>
      <trkpt lat="45.10427" lon="4.2377">
        <ele>914.4</ele>
        <time>2026-04-25T09:27:03Z</time>
      </trkpt>
      <trkpt lat="45.10426" lon="4.23759">
        <ele>914</ele>
        <time>2026-04-25T09:27:08Z</time>
      </trkpt>
      <trkpt lat="45.10424" lon="4.23747">
        <ele>913.8</ele>
        <time>2026-04-25T09:27:13Z</time>
      </trkpt>
      <trkpt lat="45.10424" lon="4.23737">
        <ele>913.9</ele>
        <time>2026-04-25T09:27:18Z</time>
      </trkpt>
      <trkpt lat="45.10423" lon="4.23725">
        <ele>914.1</ele>
        <time>2026-04-25T09:27:23Z</time>
      </trkpt>
      <trkpt lat="45.10423" lon="4.23713">
        <ele>914.2</ele>
        <time>2026-04-25T09:27:28Z</time>
      </trkpt>
      <trkpt lat="45.10423" lon="4.237">
        <ele>914.4</ele>
        <time>2026-04-25T09:27:33Z</time>
      </trkpt>
      <trkpt lat="45.10421" lon="4.23687">
        <ele>914.6</ele>
        <time>2026-04-25T09:27:38Z</time>
      </trkpt>
      <trkpt lat="45.10418" lon="4.23675">
        <ele>914.9</ele>
        <time>2026-04-25T09:27:43Z</time>
      </trkpt>
      <trkpt lat="45.10415" lon="4.23665">
        <ele>915.4</ele>
        <time>2026-04-25T09:27:48Z</time>
      </trkpt>
      <trkpt lat="45.10411" lon="4.23654">
        <ele>916.7</ele>
        <time>2026-04-25T09:27:53Z</time>
      </trkpt>
      <trkpt lat="45.10407" lon="4.23647">
        <ele>917.9</ele>
        <time>2026-04-25T09:27:58Z</time>
      </trkpt>
      <trkpt lat="45.10405" lon="4.2364">
        <ele>918.6</ele>
        <time>2026-04-25T09:28:03Z</time>
      </trkpt>
      <trkpt lat="45.10403" lon="4.23634">
        <ele>919.4</ele>
        <time>2026-04-25T09:28:08Z</time>
      </trkpt>
      <trkpt lat="45.10402" lon="4.23628">
        <ele>919.9</ele>
        <time>2026-04-25T09:28:13Z</time>
      </trkpt>
      <trkpt lat="45.10406" lon="4.23624">
        <ele>919.5</ele>
        <time>2026-04-25T09:28:18Z</time>
      </trkpt>
      <trkpt lat="45.10412" lon="4.23619">
        <ele>918.7</ele>
        <time>2026-04-25T09:28:23Z</time>
      </trkpt>
      <trkpt lat="45.1042" lon="4.23615">
        <ele>918</ele>
        <time>2026-04-25T09:28:28Z</time>
      </trkpt>
      <trkpt lat="45.10429" lon="4.23611">
        <ele>917.9</ele>
        <time>2026-04-25T09:28:33Z</time>
      </trkpt>
      <trkpt lat="45.10437" lon="4.23609">
        <ele>917.7</ele>
        <time>2026-04-25T09:28:38Z</time>
      </trkpt>
      <trkpt lat="45.10443" lon="4.23608">
        <ele>917.6</ele>
        <time>2026-04-25T09:28:43Z</time>
      </trkpt>
      <trkpt lat="45.10448" lon="4.23605">
        <ele>917.6</ele>
        <time>2026-04-25T09:28:48Z</time>
      </trkpt>
      <trkpt lat="45.10454" lon="4.236">
        <ele>917.7</ele>
        <time>2026-04-25T09:28:53Z</time>
      </trkpt>
      <trkpt lat="45.10461" lon="4.23596">
        <ele>917.6</ele>
        <time>2026-04-25T09:28:58Z</time>
      </trkpt>
      <trkpt lat="45.10469" lon="4.23591">
        <ele>917.7</ele>
        <time>2026-04-25T09:29:03Z</time>
      </trkpt>
      <trkpt lat="45.10475" lon="4.23589">
        <ele>917.6</ele>
        <time>2026-04-25T09:29:08Z</time>
      </trkpt>
      <trkpt lat="45.10483" lon="4.23587">
        <ele>917.4</ele>
        <time>2026-04-25T09:29:13Z</time>
      </trkpt>
      <trkpt lat="45.1049" lon="4.23582">
        <ele>917.4</ele>
        <time>2026-04-25T09:29:18Z</time>
      </trkpt>
      <trkpt lat="45.10497" lon="4.2358">
        <ele>917.1</ele>
        <time>2026-04-25T09:29:23Z</time>
      </trkpt>
      <trkpt lat="45.10507" lon="4.23576">
        <ele>916.6</ele>
        <time>2026-04-25T09:29:28Z</time>
      </trkpt>
      <trkpt lat="45.10514" lon="4.23573">
        <ele>916.1</ele>
        <time>2026-04-25T09:29:33Z</time>
      </trkpt>
      <trkpt lat="45.1052" lon="4.2357">
        <ele>915.8</ele>
        <time>2026-04-25T09:29:38Z</time>
      </trkpt>
      <trkpt lat="45.10528" lon="4.23565">
        <ele>915.3</ele>
        <time>2026-04-25T09:29:43Z</time>
      </trkpt>
      <trkpt lat="45.10535" lon="4.23563">
        <ele>914.8</ele>
        <time>2026-04-25T09:29:48Z</time>
      </trkpt>
      <trkpt lat="45.10543" lon="4.23559">
        <ele>914.3</ele>
        <time>2026-04-25T09:29:53Z</time>
      </trkpt>
      <trkpt lat="45.10551" lon="4.23554">
        <ele>913.9</ele>
        <time>2026-04-25T09:29:58Z</time>
      </trkpt>
      <trkpt lat="45.10558" lon="4.23551">
        <ele>913.5</ele>
        <time>2026-04-25T09:30:03Z</time>
      </trkpt>
      <trkpt lat="45.10567" lon="4.23548">
        <ele>912.9</ele>
        <time>2026-04-25T09:30:08Z</time>
      </trkpt>
      <trkpt lat="45.10573" lon="4.23544">
        <ele>912.6</ele>
        <time>2026-04-25T09:30:13Z</time>
      </trkpt>
      <trkpt lat="45.10578" lon="4.23535">
        <ele>912.5</ele>
        <time>2026-04-25T09:30:18Z</time>
      </trkpt>
      <trkpt lat="45.10581" lon="4.23525">
        <ele>912.5</ele>
        <time>2026-04-25T09:30:23Z</time>
      </trkpt>
      <trkpt lat="45.10578" lon="4.23513">
        <ele>913</ele>
        <time>2026-04-25T09:30:28Z</time>
      </trkpt>
      <trkpt lat="45.10574" lon="4.23502">
        <ele>913.5</ele>
        <time>2026-04-25T09:30:33Z</time>
      </trkpt>
      <trkpt lat="45.10572" lon="4.23492">
        <ele>913.3</ele>
        <time>2026-04-25T09:30:38Z</time>
      </trkpt>
      <trkpt lat="45.10569" lon="4.23481">
        <ele>912.8</ele>
        <time>2026-04-25T09:30:43Z</time>
      </trkpt>
      <trkpt lat="45.10566" lon="4.23471">
        <ele>912.4</ele>
        <time>2026-04-25T09:30:48Z</time>
      </trkpt>
      <trkpt lat="45.10563" lon="4.23464">
        <ele>912.2</ele>
        <time>2026-04-25T09:30:53Z</time>
      </trkpt>
      <trkpt lat="45.10559" lon="4.23456">
        <ele>911.9</ele>
        <time>2026-04-25T09:30:58Z</time>
      </trkpt>
      <trkpt lat="45.10554" lon="4.23447">
        <ele>911.5</ele>
        <time>2026-04-25T09:31:03Z</time>
      </trkpt>
      <trkpt lat="45.10548" lon="4.2344">
        <ele>911.3</ele>
        <time>2026-04-25T09:31:08Z</time>
      </trkpt>
      <trkpt lat="45.10546" lon="4.23437">
        <ele>911.2</ele>
        <time>2026-04-25T09:31:13Z</time>
      </trkpt>
      <trkpt lat="45.1054" lon="4.23432">
        <ele>911.1</ele>
        <time>2026-04-25T09:31:18Z</time>
      </trkpt>
      <trkpt lat="45.10534" lon="4.23425">
        <ele>910.8</ele>
        <time>2026-04-25T09:31:23Z</time>
      </trkpt>
      <trkpt lat="45.10531" lon="4.23418">
        <ele>910.4</ele>
        <time>2026-04-25T09:31:28Z</time>
      </trkpt>
      <trkpt lat="45.1053" lon="4.23409">
        <ele>910.4</ele>
        <time>2026-04-25T09:31:33Z</time>
      </trkpt>
      <trkpt lat="45.1053" lon="4.23402">
        <ele>910.5</ele>
        <time>2026-04-25T09:31:38Z</time>
      </trkpt>
      <trkpt lat="45.10527" lon="4.23396">
        <ele>910.6</ele>
        <time>2026-04-25T09:31:43Z</time>
      </trkpt>
      <trkpt lat="45.10524" lon="4.2339">
        <ele>910.7</ele>
        <time>2026-04-25T09:31:48Z</time>
      </trkpt>
      <trkpt lat="45.1052" lon="4.23384">
        <ele>910.9</ele>
        <time>2026-04-25T09:31:53Z</time>
      </trkpt>
      <trkpt lat="45.10516" lon="4.23377">
        <ele>911.1</ele>
        <time>2026-04-25T09:31:58Z</time>
      </trkpt>
      <trkpt lat="45.10512" lon="4.23371">
        <ele>911.3</ele>
        <time>2026-04-25T09:32:03Z</time>
      </trkpt>
      <trkpt lat="45.10511" lon="4.23364">
        <ele>911.4</ele>
        <time>2026-04-25T09:32:08Z</time>
      </trkpt>
      <trkpt lat="45.10509" lon="4.23357">
        <ele>911.5</ele>
        <time>2026-04-25T09:32:13Z</time>
      </trkpt>
      <trkpt lat="45.10505" lon="4.2335">
        <ele>911.7</ele>
        <time>2026-04-25T09:32:18Z</time>
      </trkpt>
      <trkpt lat="45.10502" lon="4.23343">
        <ele>911.8</ele>
        <time>2026-04-25T09:32:23Z</time>
      </trkpt>
      <trkpt lat="45.10496" lon="4.23336">
        <ele>912</ele>
        <time>2026-04-25T09:32:28Z</time>
      </trkpt>
      <trkpt lat="45.10493" lon="4.23325">
        <ele>912.4</ele>
        <time>2026-04-25T09:32:33Z</time>
      </trkpt>
      <trkpt lat="45.1049" lon="4.23314">
        <ele>912.9</ele>
        <time>2026-04-25T09:32:38Z</time>
      </trkpt>
      <trkpt lat="45.10487" lon="4.23307">
        <ele>913.2</ele>
        <time>2026-04-25T09:32:43Z</time>
      </trkpt>
      <trkpt lat="45.10486" lon="4.233">
        <ele>913.5</ele>
        <time>2026-04-25T09:32:48Z</time>
      </trkpt>
      <trkpt lat="45.10485" lon="4.23292">
        <ele>913.9</ele>
        <time>2026-04-25T09:32:53Z</time>
      </trkpt>
      <trkpt lat="45.10485" lon="4.23284">
        <ele>914.3</ele>
        <time>2026-04-25T09:32:58Z</time>
      </trkpt>
      <trkpt lat="45.10483" lon="4.23274">
        <ele>914.7</ele>
        <time>2026-04-25T09:33:03Z</time>
      </trkpt>
      <trkpt lat="45.10481" lon="4.23263">
        <ele>915.2</ele>
        <time>2026-04-25T09:33:08Z</time>
      </trkpt>
      <trkpt lat="45.10478" lon="4.23254">
        <ele>915.6</ele>
        <time>2026-04-25T09:33:13Z</time>
      </trkpt>
      <trkpt lat="45.10478" lon="4.23249">
        <ele>915.8</ele>
        <time>2026-04-25T09:33:18Z</time>
      </trkpt>
      <trkpt lat="45.10472" lon="4.23242">
        <ele>916.2</ele>
        <time>2026-04-25T09:33:23Z</time>
      </trkpt>
      <trkpt lat="45.10467" lon="4.23236">
        <ele>916.6</ele>
        <time>2026-04-25T09:33:28Z</time>
      </trkpt>
      <trkpt lat="45.10463" lon="4.23227">
        <ele>917.3</ele>
        <time>2026-04-25T09:33:33Z</time>
      </trkpt>
      <trkpt lat="45.10459" lon="4.23222">
        <ele>917.7</ele>
        <time>2026-04-25T09:33:38Z</time>
      </trkpt>
      <trkpt lat="45.10456" lon="4.23216">
        <ele>918.2</ele>
        <time>2026-04-25T09:33:43Z</time>
      </trkpt>
      <trkpt lat="45.10453" lon="4.2321">
        <ele>918.6</ele>
        <time>2026-04-25T09:33:48Z</time>
      </trkpt>
      <trkpt lat="45.10449" lon="4.23203">
        <ele>919.2</ele>
        <time>2026-04-25T09:33:53Z</time>
      </trkpt>
      <trkpt lat="45.10444" lon="4.23195">
        <ele>920</ele>
        <time>2026-04-25T09:33:58Z</time>
      </trkpt>
      <trkpt lat="45.1044" lon="4.23188">
        <ele>920.6</ele>
        <time>2026-04-25T09:34:03Z</time>
      </trkpt>
      <trkpt lat="45.10436" lon="4.23181">
        <ele>921.3</ele>
        <time>2026-04-25T09:34:08Z</time>
      </trkpt>
      <trkpt lat="45.10433" lon="4.23174">
        <ele>922</ele>
        <time>2026-04-25T09:34:13Z</time>
      </trkpt>
      <trkpt lat="45.10431" lon="4.23167">
        <ele>922.6</ele>
        <time>2026-04-25T09:34:18Z</time>
      </trkpt>
      <trkpt lat="45.1043" lon="4.2316">
        <ele>923.5</ele>
        <time>2026-04-25T09:34:23Z</time>
      </trkpt>
      <trkpt lat="45.10429" lon="4.23152">
        <ele>924.6</ele>
        <time>2026-04-25T09:34:28Z</time>
      </trkpt>
      <trkpt lat="45.1043" lon="4.23146">
        <ele>925.3</ele>
        <time>2026-04-25T09:34:33Z</time>
      </trkpt>
      <trkpt lat="45.10432" lon="4.23136">
        <ele>926.5</ele>
        <time>2026-04-25T09:34:38Z</time>
      </trkpt>
      <trkpt lat="45.10434" lon="4.23129">
        <ele>927.3</ele>
        <time>2026-04-25T09:34:43Z</time>
      </trkpt>
      <trkpt lat="45.10436" lon="4.23121">
        <ele>928.2</ele>
        <time>2026-04-25T09:34:48Z</time>
      </trkpt>
      <trkpt lat="45.10437" lon="4.23115">
        <ele>928.9</ele>
        <time>2026-04-25T09:34:53Z</time>
      </trkpt>
      <trkpt lat="45.10438" lon="4.23108">
        <ele>929.7</ele>
        <time>2026-04-25T09:34:58Z</time>
      </trkpt>
      <trkpt lat="45.10441" lon="4.23102">
        <ele>930.3</ele>
        <time>2026-04-25T09:35:03Z</time>
      </trkpt>
      <trkpt lat="45.10444" lon="4.23095">
        <ele>931</ele>
        <time>2026-04-25T09:35:08Z</time>
      </trkpt>
      <trkpt lat="45.10446" lon="4.23088">
        <ele>931.7</ele>
        <time>2026-04-25T09:35:13Z</time>
      </trkpt>
      <trkpt lat="45.10446" lon="4.23081">
        <ele>932.6</ele>
        <time>2026-04-25T09:35:18Z</time>
      </trkpt>
      <trkpt lat="45.10444" lon="4.23075">
        <ele>933.7</ele>
        <time>2026-04-25T09:35:23Z</time>
      </trkpt>
      <trkpt lat="45.10442" lon="4.2307">
        <ele>934.6</ele>
        <time>2026-04-25T09:35:28Z</time>
      </trkpt>
      <trkpt lat="45.10439" lon="4.23064">
        <ele>935.8</ele>
        <time>2026-04-25T09:35:33Z</time>
      </trkpt>
      <trkpt lat="45.10438" lon="4.23057">
        <ele>937</ele>
        <time>2026-04-25T09:35:38Z</time>
      </trkpt>
      <trkpt lat="45.10437" lon="4.23052">
        <ele>937.9</ele>
        <time>2026-04-25T09:35:43Z</time>
      </trkpt>
      <trkpt lat="45.10434" lon="4.23047">
        <ele>938.9</ele>
        <time>2026-04-25T09:35:48Z</time>
      </trkpt>
      <trkpt lat="45.10433" lon="4.23041">
        <ele>939.9</ele>
        <time>2026-04-25T09:35:53Z</time>
      </trkpt>
      <trkpt lat="45.10431" lon="4.23034">
        <ele>941.2</ele>
        <time>2026-04-25T09:35:58Z</time>
      </trkpt>
      <trkpt lat="45.10429" lon="4.23027">
        <ele>942.5</ele>
        <time>2026-04-25T09:36:03Z</time>
      </trkpt>
      <trkpt lat="45.10427" lon="4.23019">
        <ele>944</ele>
        <time>2026-04-25T09:36:08Z</time>
      </trkpt>
      <trkpt lat="45.10425" lon="4.23012">
        <ele>945.3</ele>
        <time>2026-04-25T09:36:13Z</time>
      </trkpt>
      <trkpt lat="45.10424" lon="4.23005">
        <ele>946.6</ele>
        <time>2026-04-25T09:36:18Z</time>
      </trkpt>
      <trkpt lat="45.10422" lon="4.22998">
        <ele>947.8</ele>
        <time>2026-04-25T09:36:23Z</time>
      </trkpt>
      <trkpt lat="45.10422" lon="4.2299">
        <ele>948.7</ele>
        <time>2026-04-25T09:36:28Z</time>
      </trkpt>
      <trkpt lat="45.10421" lon="4.22984">
        <ele>949.5</ele>
        <time>2026-04-25T09:36:33Z</time>
      </trkpt>
      <trkpt lat="45.10419" lon="4.22978">
        <ele>950.4</ele>
        <time>2026-04-25T09:36:38Z</time>
      </trkpt>
      <trkpt lat="45.10417" lon="4.22972">
        <ele>951.3</ele>
        <time>2026-04-25T09:36:43Z</time>
      </trkpt>
      <trkpt lat="45.10416" lon="4.22967">
        <ele>952</ele>
        <time>2026-04-25T09:36:48Z</time>
      </trkpt>
      <trkpt lat="45.10415" lon="4.22961">
        <ele>952.7</ele>
        <time>2026-04-25T09:36:53Z</time>
      </trkpt>
      <trkpt lat="45.10414" lon="4.22957">
        <ele>953.1</ele>
        <time>2026-04-25T09:36:58Z</time>
      </trkpt>
      <trkpt lat="45.10413" lon="4.22953">
        <ele>953.6</ele>
        <time>2026-04-25T09:37:03Z</time>
      </trkpt>
      <trkpt lat="45.10411" lon="4.22946">
        <ele>954.5</ele>
        <time>2026-04-25T09:37:08Z</time>
      </trkpt>
      <trkpt lat="45.10409" lon="4.22938">
        <ele>955.4</ele>
        <time>2026-04-25T09:37:13Z</time>
      </trkpt>
      <trkpt lat="45.10408" lon="4.22931">
        <ele>956.3</ele>
        <time>2026-04-25T09:37:18Z</time>
      </trkpt>
      <trkpt lat="45.10407" lon="4.22926">
        <ele>956.9</ele>
        <time>2026-04-25T09:37:23Z</time>
      </trkpt>
      <trkpt lat="45.10405" lon="4.2292">
        <ele>957.6</ele>
        <time>2026-04-25T09:37:28Z</time>
      </trkpt>
      <trkpt lat="45.10405" lon="4.22914">
        <ele>958.2</ele>
        <time>2026-04-25T09:37:33Z</time>
      </trkpt>
      <trkpt lat="45.10405" lon="4.22909">
        <ele>958.5</ele>
        <time>2026-04-25T09:37:38Z</time>
      </trkpt>
      <trkpt lat="45.10403" lon="4.22904">
        <ele>958.8</ele>
        <time>2026-04-25T09:37:43Z</time>
      </trkpt>
      <trkpt lat="45.10401" lon="4.22897">
        <ele>959.3</ele>
        <time>2026-04-25T09:37:48Z</time>
      </trkpt>
      <trkpt lat="45.104" lon="4.2289">
        <ele>959.8</ele>
        <time>2026-04-25T09:37:53Z</time>
      </trkpt>
      <trkpt lat="45.10398" lon="4.22884">
        <ele>960.2</ele>
        <time>2026-04-25T09:37:58Z</time>
      </trkpt>
      <trkpt lat="45.10396" lon="4.22877">
        <ele>960.7</ele>
        <time>2026-04-25T09:38:03Z</time>
      </trkpt>
      <trkpt lat="45.10394" lon="4.22871">
        <ele>961.2</ele>
        <time>2026-04-25T09:38:08Z</time>
      </trkpt>
      <trkpt lat="45.10392" lon="4.22864">
        <ele>961.7</ele>
        <time>2026-04-25T09:38:13Z</time>
      </trkpt>
      <trkpt lat="45.1039" lon="4.22857">
        <ele>962.3</ele>
        <time>2026-04-25T09:38:18Z</time>
      </trkpt>
      <trkpt lat="45.1039" lon="4.22852">
        <ele>962.6</ele>
        <time>2026-04-25T09:38:23Z</time>
      </trkpt>
      <trkpt lat="45.10387" lon="4.22845">
        <ele>963.2</ele>
        <time>2026-04-25T09:38:28Z</time>
      </trkpt>
      <trkpt lat="45.10385" lon="4.22839">
        <ele>963.7</ele>
        <time>2026-04-25T09:38:33Z</time>
      </trkpt>
      <trkpt lat="45.10385" lon="4.22834">
        <ele>964.1</ele>
        <time>2026-04-25T09:38:38Z</time>
      </trkpt>
      <trkpt lat="45.10385" lon="4.22828">
        <ele>964.3</ele>
        <time>2026-04-25T09:38:43Z</time>
      </trkpt>
      <trkpt lat="45.10384" lon="4.2282">
        <ele>964.5</ele>
        <time>2026-04-25T09:38:48Z</time>
      </trkpt>
      <trkpt lat="45.10383" lon="4.22814">
        <ele>964.7</ele>
        <time>2026-04-25T09:38:53Z</time>
      </trkpt>
      <trkpt lat="45.10381" lon="4.22807">
        <ele>964.9</ele>
        <time>2026-04-25T09:38:58Z</time>
      </trkpt>
      <trkpt lat="45.10378" lon="4.228">
        <ele>965.2</ele>
        <time>2026-04-25T09:39:03Z</time>
      </trkpt>
      <trkpt lat="45.10378" lon="4.22793">
        <ele>965.4</ele>
        <time>2026-04-25T09:39:08Z</time>
      </trkpt>
      <trkpt lat="45.10375" lon="4.22784">
        <ele>965.7</ele>
        <time>2026-04-25T09:39:13Z</time>
      </trkpt>
      <trkpt lat="45.1037" lon="4.22776">
        <ele>966.1</ele>
        <time>2026-04-25T09:39:18Z</time>
      </trkpt>
      <trkpt lat="45.10366" lon="4.22769">
        <ele>966.4</ele>
        <time>2026-04-25T09:39:23Z</time>
      </trkpt>
      <trkpt lat="45.10363" lon="4.22762">
        <ele>966.6</ele>
        <time>2026-04-25T09:39:28Z</time>
      </trkpt>
      <trkpt lat="45.10359" lon="4.22754">
        <ele>967</ele>
        <time>2026-04-25T09:39:33Z</time>
      </trkpt>
      <trkpt lat="45.10356" lon="4.22745">
        <ele>967</ele>
        <time>2026-04-25T09:39:38Z</time>
      </trkpt>
      <trkpt lat="45.10352" lon="4.22741">
        <ele>967</ele>
        <time>2026-04-25T09:39:43Z</time>
      </trkpt>
      <trkpt lat="45.10348" lon="4.22734">
        <ele>966.8</ele>
        <time>2026-04-25T09:39:48Z</time>
      </trkpt>
      <trkpt lat="45.10344" lon="4.22725">
        <ele>966.6</ele>
        <time>2026-04-25T09:39:53Z</time>
      </trkpt>
      <trkpt lat="45.10339" lon="4.22718">
        <ele>966.4</ele>
        <time>2026-04-25T09:39:58Z</time>
      </trkpt>
      <trkpt lat="45.10333" lon="4.22711">
        <ele>966.1</ele>
        <time>2026-04-25T09:40:03Z</time>
      </trkpt>
      <trkpt lat="45.10329" lon="4.22706">
        <ele>965.7</ele>
        <time>2026-04-25T09:40:08Z</time>
      </trkpt>
      <trkpt lat="45.10323" lon="4.22702">
        <ele>965.3</ele>
        <time>2026-04-25T09:40:13Z</time>
      </trkpt>
      <trkpt lat="45.10319" lon="4.22695">
        <ele>964.7</ele>
        <time>2026-04-25T09:40:18Z</time>
      </trkpt>
      <trkpt lat="45.10314" lon="4.2269">
        <ele>964.3</ele>
        <time>2026-04-25T09:40:23Z</time>
      </trkpt>
      <trkpt lat="45.1031" lon="4.22684">
        <ele>963.8</ele>
        <time>2026-04-25T09:40:28Z</time>
      </trkpt>
      <trkpt lat="45.10304" lon="4.22678">
        <ele>963.2</ele>
        <time>2026-04-25T09:40:33Z</time>
      </trkpt>
      <trkpt lat="45.10299" lon="4.22673">
        <ele>962.7</ele>
        <time>2026-04-25T09:40:38Z</time>
      </trkpt>
      <trkpt lat="45.10293" lon="4.22666">
        <ele>962.1</ele>
        <time>2026-04-25T09:40:43Z</time>
      </trkpt>
      <trkpt lat="45.10288" lon="4.22656">
        <ele>961.8</ele>
        <time>2026-04-25T09:40:48Z</time>
      </trkpt>
      <trkpt lat="45.10283" lon="4.22647">
        <ele>961.4</ele>
        <time>2026-04-25T09:40:53Z</time>
      </trkpt>
      <trkpt lat="45.10278" lon="4.2264">
        <ele>961.1</ele>
        <time>2026-04-25T09:40:58Z</time>
      </trkpt>
      <trkpt lat="45.10274" lon="4.22633">
        <ele>960.9</ele>
        <time>2026-04-25T09:41:03Z</time>
      </trkpt>
      <trkpt lat="45.10269" lon="4.22624">
        <ele>960.5</ele>
        <time>2026-04-25T09:41:08Z</time>
      </trkpt>
      <trkpt lat="45.10265" lon="4.22617">
        <ele>960.2</ele>
        <time>2026-04-25T09:41:13Z</time>
      </trkpt>
      <trkpt lat="45.10261" lon="4.22608">
        <ele>959.9</ele>
        <time>2026-04-25T09:41:18Z</time>
      </trkpt>
      <trkpt lat="45.10257" lon="4.22599">
        <ele>959.6</ele>
        <time>2026-04-25T09:41:23Z</time>
      </trkpt>
      <trkpt lat="45.10253" lon="4.22592">
        <ele>959.3</ele>
        <time>2026-04-25T09:41:28Z</time>
      </trkpt>
      <trkpt lat="45.10249" lon="4.22584">
        <ele>959</ele>
        <time>2026-04-25T09:41:33Z</time>
      </trkpt>
      <trkpt lat="45.10243" lon="4.22576">
        <ele>959.6</ele>
        <time>2026-04-25T09:41:38Z</time>
      </trkpt>
      <trkpt lat="45.10239" lon="4.22568">
        <ele>960.1</ele>
        <time>2026-04-25T09:41:43Z</time>
      </trkpt>
      <trkpt lat="45.10234" lon="4.2256">
        <ele>960.6</ele>
        <time>2026-04-25T09:41:48Z</time>
      </trkpt>
      <trkpt lat="45.1023" lon="4.22552">
        <ele>961.1</ele>
        <time>2026-04-25T09:41:53Z</time>
      </trkpt>
      <trkpt lat="45.10224" lon="4.22545">
        <ele>961.6</ele>
        <time>2026-04-25T09:41:58Z</time>
      </trkpt>
      <trkpt lat="45.1022" lon="4.22536">
        <ele>962.1</ele>
        <time>2026-04-25T09:42:03Z</time>
      </trkpt>
      <trkpt lat="45.10215" lon="4.22528">
        <ele>962.6</ele>
        <time>2026-04-25T09:42:08Z</time>
      </trkpt>
      <trkpt lat="45.10211" lon="4.22518">
        <ele>963.2</ele>
        <time>2026-04-25T09:42:13Z</time>
      </trkpt>
      <trkpt lat="45.10207" lon="4.2251">
        <ele>963.6</ele>
        <time>2026-04-25T09:42:18Z</time>
      </trkpt>
      <trkpt lat="45.10204" lon="4.22501">
        <ele>964.1</ele>
        <time>2026-04-25T09:42:23Z</time>
      </trkpt>
      <trkpt lat="45.10201" lon="4.22493">
        <ele>964.4</ele>
        <time>2026-04-25T09:42:28Z</time>
      </trkpt>
      <trkpt lat="45.10198" lon="4.22485">
        <ele>964.7</ele>
        <time>2026-04-25T09:42:33Z</time>
      </trkpt>
      <trkpt lat="45.10195" lon="4.22476">
        <ele>965.1</ele>
        <time>2026-04-25T09:42:38Z</time>
      </trkpt>
      <trkpt lat="45.10192" lon="4.22468">
        <ele>965.4</ele>
        <time>2026-04-25T09:42:43Z</time>
      </trkpt>
      <trkpt lat="45.10191" lon="4.2246">
        <ele>965.7</ele>
        <time>2026-04-25T09:42:48Z</time>
      </trkpt>
      <trkpt lat="45.10188" lon="4.22452">
        <ele>965.9</ele>
        <time>2026-04-25T09:42:53Z</time>
      </trkpt>
      <trkpt lat="45.10186" lon="4.22444">
        <ele>966.2</ele>
        <time>2026-04-25T09:42:58Z</time>
      </trkpt>
      <trkpt lat="45.10185" lon="4.22437">
        <ele>966.4</ele>
        <time>2026-04-25T09:43:03Z</time>
      </trkpt>
      <trkpt lat="45.10184" lon="4.2243">
        <ele>966.6</ele>
        <time>2026-04-25T09:43:08Z</time>
      </trkpt>
      <trkpt lat="45.10182" lon="4.22421">
        <ele>966.9</ele>
        <time>2026-04-25T09:43:13Z</time>
      </trkpt>
      <trkpt lat="45.10181" lon="4.22414">
        <ele>967</ele>
        <time>2026-04-25T09:43:18Z</time>
      </trkpt>
      <trkpt lat="45.10183" lon="4.22406">
        <ele>967.2</ele>
        <time>2026-04-25T09:43:23Z</time>
      </trkpt>
      <trkpt lat="45.10185" lon="4.224">
        <ele>967.3</ele>
        <time>2026-04-25T09:43:28Z</time>
      </trkpt>
      <trkpt lat="45.10183" lon="4.22392">
        <ele>967.4</ele>
        <time>2026-04-25T09:43:33Z</time>
      </trkpt>
      <trkpt lat="45.1018" lon="4.22384">
        <ele>967.5</ele>
        <time>2026-04-25T09:43:38Z</time>
      </trkpt>
      <trkpt lat="45.10178" lon="4.22375">
        <ele>967.6</ele>
        <time>2026-04-25T09:43:43Z</time>
      </trkpt>
      <trkpt lat="45.10176" lon="4.22366">
        <ele>967.7</ele>
        <time>2026-04-25T09:43:48Z</time>
      </trkpt>
      <trkpt lat="45.10175" lon="4.22359">
        <ele>967.8</ele>
        <time>2026-04-25T09:43:53Z</time>
      </trkpt>
      <trkpt lat="45.10174" lon="4.22351">
        <ele>967.9</ele>
        <time>2026-04-25T09:43:58Z</time>
      </trkpt>
      <trkpt lat="45.10173" lon="4.22342">
        <ele>968</ele>
        <time>2026-04-25T09:44:03Z</time>
      </trkpt>
      <trkpt lat="45.10171" lon="4.22333">
        <ele>968.1</ele>
        <time>2026-04-25T09:44:08Z</time>
      </trkpt>
      <trkpt lat="45.10168" lon="4.22323">
        <ele>968.3</ele>
        <time>2026-04-25T09:44:13Z</time>
      </trkpt>
      <trkpt lat="45.10169" lon="4.22313">
        <ele>968.5</ele>
        <time>2026-04-25T09:44:18Z</time>
      </trkpt>
      <trkpt lat="45.10168" lon="4.22305">
        <ele>968.7</ele>
        <time>2026-04-25T09:44:23Z</time>
      </trkpt>
      <trkpt lat="45.10167" lon="4.22294">
        <ele>969</ele>
        <time>2026-04-25T09:44:28Z</time>
      </trkpt>
      <trkpt lat="45.10165" lon="4.22287">
        <ele>969.1</ele>
        <time>2026-04-25T09:44:33Z</time>
      </trkpt>
      <trkpt lat="45.10165" lon="4.22278">
        <ele>969.4</ele>
        <time>2026-04-25T09:44:38Z</time>
      </trkpt>
      <trkpt lat="45.10164" lon="4.22268">
        <ele>969.6</ele>
        <time>2026-04-25T09:44:43Z</time>
      </trkpt>
      <trkpt lat="45.10165" lon="4.2226">
        <ele>969.8</ele>
        <time>2026-04-25T09:44:48Z</time>
      </trkpt>
      <trkpt lat="45.10166" lon="4.22253">
        <ele>969.9</ele>
        <time>2026-04-25T09:44:53Z</time>
      </trkpt>
      <trkpt lat="45.10166" lon="4.22244">
        <ele>970.4</ele>
        <time>2026-04-25T09:44:58Z</time>
      </trkpt>
      <trkpt lat="45.10167" lon="4.22233">
        <ele>971</ele>
        <time>2026-04-25T09:45:03Z</time>
      </trkpt>
      <trkpt lat="45.10166" lon="4.22224">
        <ele>971.6</ele>
        <time>2026-04-25T09:45:08Z</time>
      </trkpt>
      <trkpt lat="45.10164" lon="4.22213">
        <ele>972.3</ele>
        <time>2026-04-25T09:45:13Z</time>
      </trkpt>
      <trkpt lat="45.10163" lon="4.22205">
        <ele>972.9</ele>
        <time>2026-04-25T09:45:18Z</time>
      </trkpt>
      <trkpt lat="45.10163" lon="4.22195">
        <ele>973.5</ele>
        <time>2026-04-25T09:45:23Z</time>
      </trkpt>
      <trkpt lat="45.1016" lon="4.22185">
        <ele>974.3</ele>
        <time>2026-04-25T09:45:28Z</time>
      </trkpt>
      <trkpt lat="45.10159" lon="4.22175">
        <ele>975</ele>
        <time>2026-04-25T09:45:33Z</time>
      </trkpt>
      <trkpt lat="45.10157" lon="4.22164">
        <ele>976.1</ele>
        <time>2026-04-25T09:45:38Z</time>
      </trkpt>
      <trkpt lat="45.10155" lon="4.22155">
        <ele>977.6</ele>
        <time>2026-04-25T09:45:43Z</time>
      </trkpt>
      <trkpt lat="45.10154" lon="4.22146">
        <ele>979.1</ele>
        <time>2026-04-25T09:45:48Z</time>
      </trkpt>
      <trkpt lat="45.10154" lon="4.2214">
        <ele>980</ele>
        <time>2026-04-25T09:45:53Z</time>
      </trkpt>
      <trkpt lat="45.10153" lon="4.22132">
        <ele>981.3</ele>
        <time>2026-04-25T09:45:58Z</time>
      </trkpt>
      <trkpt lat="45.10152" lon="4.22123">
        <ele>982.7</ele>
        <time>2026-04-25T09:46:03Z</time>
      </trkpt>
      <trkpt lat="45.10151" lon="4.22116">
        <ele>983.8</ele>
        <time>2026-04-25T09:46:08Z</time>
      </trkpt>
      <trkpt lat="45.1015" lon="4.22108">
        <ele>985.1</ele>
        <time>2026-04-25T09:46:13Z</time>
      </trkpt>
      <trkpt lat="45.10149" lon="4.22101">
        <ele>986.2</ele>
        <time>2026-04-25T09:46:18Z</time>
      </trkpt>
      <trkpt lat="45.10148" lon="4.22095">
        <ele>987.1</ele>
        <time>2026-04-25T09:46:23Z</time>
      </trkpt>
      <trkpt lat="45.10147" lon="4.22088">
        <ele>988.2</ele>
        <time>2026-04-25T09:46:28Z</time>
      </trkpt>
      <trkpt lat="45.10145" lon="4.22082">
        <ele>989.2</ele>
        <time>2026-04-25T09:46:33Z</time>
      </trkpt>
      <trkpt lat="45.10145" lon="4.22075">
        <ele>989.9</ele>
        <time>2026-04-25T09:46:38Z</time>
      </trkpt>
      <trkpt lat="45.10146" lon="4.22071">
        <ele>990.3</ele>
        <time>2026-04-25T09:46:43Z</time>
      </trkpt>
      <trkpt lat="45.10146" lon="4.22067">
        <ele>990.7</ele>
        <time>2026-04-25T09:46:48Z</time>
      </trkpt>
      <trkpt lat="45.10144" lon="4.22063">
        <ele>991.2</ele>
        <time>2026-04-25T09:46:53Z</time>
      </trkpt>
      <trkpt lat="45.10143" lon="4.22058">
        <ele>991.8</ele>
        <time>2026-04-25T09:46:58Z</time>
      </trkpt>
      <trkpt lat="45.10143" lon="4.22051">
        <ele>992.5</ele>
        <time>2026-04-25T09:47:03Z</time>
      </trkpt>
      <trkpt lat="45.10142" lon="4.22045">
        <ele>993.2</ele>
        <time>2026-04-25T09:47:08Z</time>
      </trkpt>
      <trkpt lat="45.10142" lon="4.22038">
        <ele>993.9</ele>
        <time>2026-04-25T09:47:13Z</time>
      </trkpt>
      <trkpt lat="45.10141" lon="4.22032">
        <ele>994.6</ele>
        <time>2026-04-25T09:47:18Z</time>
      </trkpt>
      <trkpt lat="45.1014" lon="4.22026">
        <ele>995.3</ele>
        <time>2026-04-25T09:47:23Z</time>
      </trkpt>
      <trkpt lat="45.10138" lon="4.2202">
        <ele>996</ele>
        <time>2026-04-25T09:47:28Z</time>
      </trkpt>
      <trkpt lat="45.10137" lon="4.22013">
        <ele>996.7</ele>
        <time>2026-04-25T09:47:33Z</time>
      </trkpt>
      <trkpt lat="45.10135" lon="4.22007">
        <ele>997.4</ele>
        <time>2026-04-25T09:47:38Z</time>
      </trkpt>
      <trkpt lat="45.10133" lon="4.21999">
        <ele>998.3</ele>
        <time>2026-04-25T09:47:43Z</time>
      </trkpt>
      <trkpt lat="45.10131" lon="4.21992">
        <ele>998.7</ele>
        <time>2026-04-25T09:47:48Z</time>
      </trkpt>
      <trkpt lat="45.10131" lon="4.21987">
        <ele>998.9</ele>
        <time>2026-04-25T09:47:53Z</time>
      </trkpt>
      <trkpt lat="45.1013" lon="4.21979">
        <ele>999.4</ele>
        <time>2026-04-25T09:47:58Z</time>
      </trkpt>
      <trkpt lat="45.1013" lon="4.21972">
        <ele>999.7</ele>
        <time>2026-04-25T09:48:03Z</time>
      </trkpt>
      <trkpt lat="45.10129" lon="4.21965">
        <ele>1000.1</ele>
        <time>2026-04-25T09:48:08Z</time>
      </trkpt>
      <trkpt lat="45.10128" lon="4.21957">
        <ele>1000.5</ele>
        <time>2026-04-25T09:48:13Z</time>
      </trkpt>
      <trkpt lat="45.10126" lon="4.21951">
        <ele>1000.8</ele>
        <time>2026-04-25T09:48:18Z</time>
      </trkpt>
      <trkpt lat="45.10125" lon="4.21947">
        <ele>1001</ele>
        <time>2026-04-25T09:48:23Z</time>
      </trkpt>
      <trkpt lat="45.10124" lon="4.2194">
        <ele>1001.4</ele>
        <time>2026-04-25T09:48:28Z</time>
      </trkpt>
      <trkpt lat="45.10123" lon="4.21933">
        <ele>1001.7</ele>
        <time>2026-04-25T09:48:33Z</time>
      </trkpt>
      <trkpt lat="45.10122" lon="4.21927">
        <ele>1002</ele>
        <time>2026-04-25T09:48:38Z</time>
      </trkpt>
      <trkpt lat="45.1012" lon="4.2192">
        <ele>1002.4</ele>
        <time>2026-04-25T09:48:43Z</time>
      </trkpt>
      <trkpt lat="45.10118" lon="4.21914">
        <ele>1002.5</ele>
        <time>2026-04-25T09:48:48Z</time>
      </trkpt>
      <trkpt lat="45.10116" lon="4.21907">
        <ele>1002.4</ele>
        <time>2026-04-25T09:48:53Z</time>
      </trkpt>
      <trkpt lat="45.10114" lon="4.219">
        <ele>1002.2</ele>
        <time>2026-04-25T09:48:58Z</time>
      </trkpt>
      <trkpt lat="45.10112" lon="4.21893">
        <ele>1002</ele>
        <time>2026-04-25T09:49:03Z</time>
      </trkpt>
      <trkpt lat="45.10111" lon="4.21886">
        <ele>1001.8</ele>
        <time>2026-04-25T09:49:08Z</time>
      </trkpt>
      <trkpt lat="45.10109" lon="4.21879">
        <ele>1001.6</ele>
        <time>2026-04-25T09:49:13Z</time>
      </trkpt>
      <trkpt lat="45.10108" lon="4.2187">
        <ele>1001.4</ele>
        <time>2026-04-25T09:49:18Z</time>
      </trkpt>
      <trkpt lat="45.10104" lon="4.21862">
        <ele>1001.1</ele>
        <time>2026-04-25T09:49:23Z</time>
      </trkpt>
      <trkpt lat="45.10101" lon="4.21855">
        <ele>1000.9</ele>
        <time>2026-04-25T09:49:28Z</time>
      </trkpt>
      <trkpt lat="45.10098" lon="4.21847">
        <ele>1000.6</ele>
        <time>2026-04-25T09:49:33Z</time>
      </trkpt>
      <trkpt lat="45.10095" lon="4.2184">
        <ele>1000.4</ele>
        <time>2026-04-25T09:49:38Z</time>
      </trkpt>
      <trkpt lat="45.10093" lon="4.21831">
        <ele>1000.2</ele>
        <time>2026-04-25T09:49:43Z</time>
      </trkpt>
      <trkpt lat="45.10089" lon="4.21823">
        <ele>1000.6</ele>
        <time>2026-04-25T09:49:48Z</time>
      </trkpt>
      <trkpt lat="45.10086" lon="4.21812">
        <ele>1001.1</ele>
        <time>2026-04-25T09:49:53Z</time>
      </trkpt>
      <trkpt lat="45.10084" lon="4.21804">
        <ele>1001.4</ele>
        <time>2026-04-25T09:49:58Z</time>
      </trkpt>
      <trkpt lat="45.10081" lon="4.21793">
        <ele>1001.9</ele>
        <time>2026-04-25T09:50:03Z</time>
      </trkpt>
      <trkpt lat="45.10077" lon="4.21784">
        <ele>1002.3</ele>
        <time>2026-04-25T09:50:08Z</time>
      </trkpt>
      <trkpt lat="45.10075" lon="4.21776">
        <ele>1002.7</ele>
        <time>2026-04-25T09:50:13Z</time>
      </trkpt>
      <trkpt lat="45.10072" lon="4.21767">
        <ele>1003.2</ele>
        <time>2026-04-25T09:50:18Z</time>
      </trkpt>
      <trkpt lat="45.10069" lon="4.21758">
        <ele>1003.7</ele>
        <time>2026-04-25T09:50:23Z</time>
      </trkpt>
      <trkpt lat="45.10068" lon="4.2175">
        <ele>1004.2</ele>
        <time>2026-04-25T09:50:28Z</time>
      </trkpt>
      <trkpt lat="45.10066" lon="4.2174">
        <ele>1004.8</ele>
        <time>2026-04-25T09:50:33Z</time>
      </trkpt>
      <trkpt lat="45.10063" lon="4.21732">
        <ele>1005.4</ele>
        <time>2026-04-25T09:50:38Z</time>
      </trkpt>
      <trkpt lat="45.1006" lon="4.21724">
        <ele>1005.9</ele>
        <time>2026-04-25T09:50:43Z</time>
      </trkpt>
      <trkpt lat="45.10057" lon="4.2172">
        <ele>1006.2</ele>
        <time>2026-04-25T09:50:48Z</time>
      </trkpt>
      <trkpt lat="45.10054" lon="4.21713">
        <ele>1006.7</ele>
        <time>2026-04-25T09:50:53Z</time>
      </trkpt>
      <trkpt lat="45.1005" lon="4.21706">
        <ele>1007.3</ele>
        <time>2026-04-25T09:50:58Z</time>
      </trkpt>
      <trkpt lat="45.10046" lon="4.21696">
        <ele>1008</ele>
        <time>2026-04-25T09:51:03Z</time>
      </trkpt>
      <trkpt lat="45.10043" lon="4.2169">
        <ele>1008.4</ele>
        <time>2026-04-25T09:51:08Z</time>
      </trkpt>
      <trkpt lat="45.1004" lon="4.21681">
        <ele>1009.1</ele>
        <time>2026-04-25T09:51:13Z</time>
      </trkpt>
      <trkpt lat="45.10036" lon="4.21675">
        <ele>1009.6</ele>
        <time>2026-04-25T09:51:18Z</time>
      </trkpt>
      <trkpt lat="45.10032" lon="4.21667">
        <ele>1010.2</ele>
        <time>2026-04-25T09:51:23Z</time>
      </trkpt>
      <trkpt lat="45.10028" lon="4.21658">
        <ele>1010.8</ele>
        <time>2026-04-25T09:51:28Z</time>
      </trkpt>
      <trkpt lat="45.10022" lon="4.2165">
        <ele>1011.4</ele>
        <time>2026-04-25T09:51:33Z</time>
      </trkpt>
      <trkpt lat="45.10018" lon="4.21643">
        <ele>1011.9</ele>
        <time>2026-04-25T09:51:38Z</time>
      </trkpt>
      <trkpt lat="45.10013" lon="4.21635">
        <ele>1012.5</ele>
        <time>2026-04-25T09:51:43Z</time>
      </trkpt>
      <trkpt lat="45.10009" lon="4.21628">
        <ele>1013</ele>
        <time>2026-04-25T09:51:48Z</time>
      </trkpt>
      <trkpt lat="45.10004" lon="4.2162">
        <ele>1013.7</ele>
        <time>2026-04-25T09:51:53Z</time>
      </trkpt>
      <trkpt lat="45.1" lon="4.21612">
        <ele>1014.3</ele>
        <time>2026-04-25T09:51:58Z</time>
      </trkpt>
      <trkpt lat="45.09996" lon="4.21604">
        <ele>1015.2</ele>
        <time>2026-04-25T09:52:03Z</time>
      </trkpt>
      <trkpt lat="45.09993" lon="4.21597">
        <ele>1015.9</ele>
        <time>2026-04-25T09:52:08Z</time>
      </trkpt>
      <trkpt lat="45.09989" lon="4.21589">
        <ele>1016.8</ele>
        <time>2026-04-25T09:52:13Z</time>
      </trkpt>
      <trkpt lat="45.09986" lon="4.2158">
        <ele>1017.4</ele>
        <time>2026-04-25T09:52:18Z</time>
      </trkpt>
      <trkpt lat="45.09983" lon="4.21572">
        <ele>1017.8</ele>
        <time>2026-04-25T09:52:23Z</time>
      </trkpt>
      <trkpt lat="45.0998" lon="4.21563">
        <ele>1018.3</ele>
        <time>2026-04-25T09:52:28Z</time>
      </trkpt>
      <trkpt lat="45.09976" lon="4.21557">
        <ele>1018.8</ele>
        <time>2026-04-25T09:52:33Z</time>
      </trkpt>
      <trkpt lat="45.09974" lon="4.2155">
        <ele>1019</ele>
        <time>2026-04-25T09:52:38Z</time>
      </trkpt>
      <trkpt lat="45.0997" lon="4.21543">
        <ele>1019.5</ele>
        <time>2026-04-25T09:52:43Z</time>
      </trkpt>
      <trkpt lat="45.09967" lon="4.21537">
        <ele>1019.8</ele>
        <time>2026-04-25T09:52:48Z</time>
      </trkpt>
      <trkpt lat="45.09964" lon="4.21529">
        <ele>1020.2</ele>
        <time>2026-04-25T09:52:53Z</time>
      </trkpt>
      <trkpt lat="45.09961" lon="4.21526">
        <ele>1020.5</ele>
        <time>2026-04-25T09:52:58Z</time>
      </trkpt>
      <trkpt lat="45.09957" lon="4.21519">
        <ele>1020.9</ele>
        <time>2026-04-25T09:53:03Z</time>
      </trkpt>
      <trkpt lat="45.09953" lon="4.21513">
        <ele>1021.2</ele>
        <time>2026-04-25T09:53:08Z</time>
      </trkpt>
      <trkpt lat="45.09948" lon="4.21508">
        <ele>1021.7</ele>
        <time>2026-04-25T09:53:13Z</time>
      </trkpt>
      <trkpt lat="45.09943" lon="4.21501">
        <ele>1022.1</ele>
        <time>2026-04-25T09:53:18Z</time>
      </trkpt>
      <trkpt lat="45.09938" lon="4.21495">
        <ele>1022.2</ele>
        <time>2026-04-25T09:53:23Z</time>
      </trkpt>
      <trkpt lat="45.09936" lon="4.21491">
        <ele>1022.1</ele>
        <time>2026-04-25T09:53:28Z</time>
      </trkpt>
      <trkpt lat="45.09932" lon="4.21489">
        <ele>1022.3</ele>
        <time>2026-04-25T09:53:33Z</time>
      </trkpt>
      <trkpt lat="45.09927" lon="4.21484">
        <ele>1022.4</ele>
        <time>2026-04-25T09:53:38Z</time>
      </trkpt>
      <trkpt lat="45.09921" lon="4.2148">
        <ele>1022.5</ele>
        <time>2026-04-25T09:53:43Z</time>
      </trkpt>
      <trkpt lat="45.09915" lon="4.21477">
        <ele>1022.7</ele>
        <time>2026-04-25T09:53:48Z</time>
      </trkpt>
      <trkpt lat="45.0991" lon="4.21472">
        <ele>1022.6</ele>
        <time>2026-04-25T09:53:53Z</time>
      </trkpt>
      <trkpt lat="45.09904" lon="4.21468">
        <ele>1022.5</ele>
        <time>2026-04-25T09:53:58Z</time>
      </trkpt>
      <trkpt lat="45.099" lon="4.21463">
        <ele>1022.3</ele>
        <time>2026-04-25T09:54:03Z</time>
      </trkpt>
      <trkpt lat="45.09895" lon="4.21456">
        <ele>1022</ele>
        <time>2026-04-25T09:54:08Z</time>
      </trkpt>
      <trkpt lat="45.0989" lon="4.21452">
        <ele>1021.8</ele>
        <time>2026-04-25T09:54:13Z</time>
      </trkpt>
      <trkpt lat="45.09886" lon="4.21448">
        <ele>1021.6</ele>
        <time>2026-04-25T09:54:18Z</time>
      </trkpt>
      <trkpt lat="45.09883" lon="4.21447">
        <ele>1021.6</ele>
        <time>2026-04-25T09:54:23Z</time>
      </trkpt>
      <trkpt lat="45.09883" lon="4.21447">
        <ele>1021.6</ele>
        <time>2026-04-25T09:54:28Z</time>
      </trkpt>
      <trkpt lat="45.09883" lon="4.21447">
        <ele>1021.6</ele>
        <time>2026-04-25T09:54:33Z</time>
      </trkpt>
      <trkpt lat="45.09883" lon="4.21447">
        <ele>1021.6</ele>
        <time>2026-04-25T09:54:38Z</time>
      </trkpt>
      <trkpt lat="45.09883" lon="4.21447">
        <ele>1021.6</ele>
        <time>2026-04-25T09:54:43Z</time>
      </trkpt>
      <trkpt lat="45.09883" lon="4.21447">
        <ele>1021.6</ele>
        <time>2026-04-25T09:54:48Z</time>
      </trkpt>
      <trkpt lat="45.09883" lon="4.21447">
        <ele>1021.6</ele>
        <time>2026-04-25T09:54:53Z</time>
      </trkpt>
      <trkpt lat="45.09883" lon="4.21447">
        <ele>1021.6</ele>
        <time>2026-04-25T09:54:58Z</time>
      </trkpt>
      <trkpt lat="45.09883" lon="4.21447">
        <ele>1021.6</ele>
        <time>2026-04-25T09:55:03Z</time>
      </trkpt>
      <trkpt lat="45.09883" lon="4.21447">
        <ele>1021.6</ele>
        <time>2026-04-25T09:55:08Z</time>
      </trkpt>
      <trkpt lat="45.09883" lon="4.21447">
        <ele>1021.6</ele>
        <time>2026-04-25T09:55:13Z</time>
      </trkpt>
      <trkpt lat="45.09883" lon="4.21447">
        <ele>1021.6</ele>
        <time>2026-04-25T09:55:18Z</time>
      </trkpt>
      <trkpt lat="45.09883" lon="4.21447">
        <ele>1021.6</ele>
        <time>2026-04-25T09:55:23Z</time>
      </trkpt>
      <trkpt lat="45.09883" lon="4.21447">
        <ele>1021.6</ele>
        <time>2026-04-25T09:55:28Z</time>
      </trkpt>
      <trkpt lat="45.09883" lon="4.21447">
        <ele>1021.6</ele>
        <time>2026-04-25T09:55:33Z</time>
      </trkpt>
      <trkpt lat="45.09883" lon="4.21447">
        <ele>1021.6</ele>
        <time>2026-04-25T09:55:38Z</time>
      </trkpt>
      <trkpt lat="45.09883" lon="4.21447">
        <ele>1021.6</ele>
        <time>2026-04-25T09:55:43Z</time>
      </trkpt>
      <trkpt lat="45.09883" lon="4.21447">
        <ele>1021.6</ele>
        <time>2026-04-25T09:55:48Z</time>
      </trkpt>
      <trkpt lat="45.09883" lon="4.21447">
        <ele>1021.6</ele>
        <time>2026-04-25T09:55:53Z</time>
      </trkpt>
      <trkpt lat="45.09883" lon="4.21447">
        <ele>1021.6</ele>
        <time>2026-04-25T09:55:58Z</time>
      </trkpt>
      <trkpt lat="45.09883" lon="4.21447">
        <ele>1021.6</ele>
        <time>2026-04-25T09:56:03Z</time>
      </trkpt>
      <trkpt lat="45.09883" lon="4.21447">
        <ele>1021.6</ele>
        <time>2026-04-25T09:56:08Z</time>
      </trkpt>
      <trkpt lat="45.09883" lon="4.21447">
        <ele>1021.6</ele>
        <time>2026-04-25T09:56:13Z</time>
      </trkpt>
      <trkpt lat="45.09883" lon="4.21447">
        <ele>1021.6</ele>
        <time>2026-04-25T09:56:18Z</time>
      </trkpt>
      <trkpt lat="45.09883" lon="4.21447">
        <ele>1021.6</ele>
        <time>2026-04-25T09:56:23Z</time>
      </trkpt>
      <trkpt lat="45.09883" lon="4.21447">
        <ele>1021.6</ele>
        <time>2026-04-25T09:56:28Z</time>
      </trkpt>
      <trkpt lat="45.09883" lon="4.21447">
        <ele>1021.6</ele>
        <time>2026-04-25T09:56:33Z</time>
      </trkpt>
      <trkpt lat="45.09883" lon="4.21447">
        <ele>1021.6</ele>
        <time>2026-04-25T09:56:38Z</time>
      </trkpt>
      <trkpt lat="45.09883" lon="4.21447">
        <ele>1021.6</ele>
        <time>2026-04-25T09:56:43Z</time>
      </trkpt>
      <trkpt lat="45.09883" lon="4.21447">
        <ele>1021.6</ele>
        <time>2026-04-25T09:56:48Z</time>
      </trkpt>
      <trkpt lat="45.09883" lon="4.21447">
        <ele>1021.6</ele>
        <time>2026-04-25T09:56:53Z</time>
      </trkpt>
      <trkpt lat="45.09883" lon="4.21447">
        <ele>1021.6</ele>
        <time>2026-04-25T09:56:58Z</time>
      </trkpt>
      <trkpt lat="45.09883" lon="4.21447">
        <ele>1021.6</ele>
        <time>2026-04-25T09:57:03Z</time>
      </trkpt>
      <trkpt lat="45.09883" lon="4.21447">
        <ele>1021.6</ele>
        <time>2026-04-25T09:57:08Z</time>
      </trkpt>
      <trkpt lat="45.09883" lon="4.21447">
        <ele>1021.6</ele>
        <time>2026-04-25T09:57:13Z</time>
      </trkpt>
      <trkpt lat="45.09883" lon="4.21447">
        <ele>1021.6</ele>
        <time>2026-04-25T09:57:18Z</time>
      </trkpt>
      <trkpt lat="45.09883" lon="4.21447">
        <ele>1021.6</ele>
        <time>2026-04-25T09:57:23Z</time>
      </trkpt>
      <trkpt lat="45.09883" lon="4.21447">
        <ele>1021.6</ele>
        <time>2026-04-25T09:57:28Z</time>
      </trkpt>
      <trkpt lat="45.09883" lon="4.21447">
        <ele>1021.6</ele>
        <time>2026-04-25T09:57:33Z</time>
      </trkpt>
      <trkpt lat="45.09883" lon="4.21447">
        <ele>1021.6</ele>
        <time>2026-04-25T09:57:38Z</time>
      </trkpt>
      <trkpt lat="45.09883" lon="4.21447">
        <ele>1021.6</ele>
        <time>2026-04-25T09:57:43Z</time>
      </trkpt>
      <trkpt lat="45.09883" lon="4.21447">
        <ele>1021.6</ele>
        <time>2026-04-25T09:57:48Z</time>
      </trkpt>
      <trkpt lat="45.09883" lon="4.21447">
        <ele>1021.6</ele>
        <time>2026-04-25T09:57:53Z</time>
      </trkpt>
      <trkpt lat="45.09883" lon="4.21447">
        <ele>1021.6</ele>
        <time>2026-04-25T09:57:58Z</time>
      </trkpt>
      <trkpt lat="45.09883" lon="4.21447">
        <ele>1021.6</ele>
        <time>2026-04-25T09:58:03Z</time>
      </trkpt>
      <trkpt lat="45.09883" lon="4.21447">
        <ele>1021.6</ele>
        <time>2026-04-25T09:58:08Z</time>
      </trkpt>
      <trkpt lat="45.09883" lon="4.21447">
        <ele>1021.6</ele>
        <time>2026-04-25T09:58:13Z</time>
      </trkpt>
      <trkpt lat="45.09883" lon="4.21447">
        <ele>1021.6</ele>
        <time>2026-04-25T09:58:18Z</time>
      </trkpt>
      <trkpt lat="45.09883" lon="4.21447">
        <ele>1021.6</ele>
        <time>2026-04-25T09:58:23Z</time>
      </trkpt>
      <trkpt lat="45.09883" lon="4.21447">
        <ele>1021.6</ele>
        <time>2026-04-25T09:58:28Z</time>
      </trkpt>
      <trkpt lat="45.09883" lon="4.21447">
        <ele>1021.6</ele>
        <time>2026-04-25T09:58:33Z</time>
      </trkpt>
      <trkpt lat="45.09883" lon="4.21447">
        <ele>1021.6</ele>
        <time>2026-04-25T09:58:38Z</time>
      </trkpt>
      <trkpt lat="45.09883" lon="4.21447">
        <ele>1021.6</ele>
        <time>2026-04-25T09:58:43Z</time>
      </trkpt>
      <trkpt lat="45.09883" lon="4.21447">
        <ele>1021.6</ele>
        <time>2026-04-25T09:58:48Z</time>
      </trkpt>
      <trkpt lat="45.09883" lon="4.21447">
        <ele>1021.6</ele>
        <time>2026-04-25T09:58:53Z</time>
      </trkpt>
      <trkpt lat="45.09883" lon="4.21447">
        <ele>1021.6</ele>
        <time>2026-04-25T09:58:58Z</time>
      </trkpt>
      <trkpt lat="45.09883" lon="4.21447">
        <ele>1021.6</ele>
        <time>2026-04-25T09:59:03Z</time>
      </trkpt>
      <trkpt lat="45.09883" lon="4.21447">
        <ele>1021.6</ele>
        <time>2026-04-25T09:59:08Z</time>
      </trkpt>
      <trkpt lat="45.09883" lon="4.21447">
        <ele>1021.6</ele>
        <time>2026-04-25T09:59:13Z</time>
      </trkpt>
      <trkpt lat="45.09883" lon="4.21447">
        <ele>1021.6</ele>
        <time>2026-04-25T09:59:18Z</time>
      </trkpt>
      <trkpt lat="45.09883" lon="4.21447">
        <ele>1021.6</ele>
        <time>2026-04-25T09:59:23Z</time>
      </trkpt>
      <trkpt lat="45.09883" lon="4.21447">
        <ele>1021.6</ele>
        <time>2026-04-25T09:59:28Z</time>
      </trkpt>
      <trkpt lat="45.09883" lon="4.21447">
        <ele>1021.6</ele>
        <time>2026-04-25T09:59:33Z</time>
      </trkpt>
      <trkpt lat="45.09883" lon="4.21447">
        <ele>1021.6</ele>
        <time>2026-04-25T09:59:38Z</time>
      </trkpt>
      <trkpt lat="45.09883" lon="4.21447">
        <ele>1021.6</ele>
        <time>2026-04-25T09:59:43Z</time>
      </trkpt>
      <trkpt lat="45.09883" lon="4.21447">
        <ele>1021.6</ele>
        <time>2026-04-25T09:59:48Z</time>
      </trkpt>
      <trkpt lat="45.09883" lon="4.21447">
        <ele>1021.6</ele>
        <time>2026-04-25T09:59:53Z</time>
      </trkpt>
      <trkpt lat="45.09883" lon="4.21447">
        <ele>1021.6</ele>
        <time>2026-04-25T09:59:58Z</time>
      </trkpt>
      <trkpt lat="45.09883" lon="4.21447">
        <ele>1021.6</ele>
        <time>2026-04-25T10:00:03Z</time>
      </trkpt>
      <trkpt lat="45.09883" lon="4.21447">
        <ele>1021.6</ele>
        <time>2026-04-25T10:00:08Z</time>
      </trkpt>
      <trkpt lat="45.09883" lon="4.21447">
        <ele>1021.6</ele>
        <time>2026-04-25T10:00:13Z</time>
      </trkpt>
      <trkpt lat="45.09883" lon="4.21447">
        <ele>1021.6</ele>
        <time>2026-04-25T10:00:18Z</time>
      </trkpt>
      <trkpt lat="45.09883" lon="4.21447">
        <ele>1021.6</ele>
        <time>2026-04-25T10:00:23Z</time>
      </trkpt>
      <trkpt lat="45.09883" lon="4.21447">
        <ele>1021.6</ele>
        <time>2026-04-25T10:00:28Z</time>
      </trkpt>
      <trkpt lat="45.09883" lon="4.21447">
        <ele>1021.6</ele>
        <time>2026-04-25T10:00:33Z</time>
      </trkpt>
      <trkpt lat="45.09883" lon="4.21447">
        <ele>1021.6</ele>
        <time>2026-04-25T10:00:38Z</time>
      </trkpt>
      <trkpt lat="45.09883" lon="4.21447">
        <ele>1021.6</ele>
        <time>2026-04-25T10:00:43Z</time>
      </trkpt>
      <trkpt lat="45.09883" lon="4.21447">
        <ele>1021.6</ele>
        <time>2026-04-25T10:00:48Z</time>
      </trkpt>
      <trkpt lat="45.09883" lon="4.21447">
        <ele>1021.6</ele>
        <time>2026-04-25T10:00:53Z</time>
      </trkpt>
      <trkpt lat="45.09883" lon="4.21447">
        <ele>1021.6</ele>
        <time>2026-04-25T10:00:58Z</time>
      </trkpt>
      <trkpt lat="45.09883" lon="4.21447">
        <ele>1021.6</ele>
        <time>2026-04-25T10:01:03Z</time>
      </trkpt>
      <trkpt lat="45.09883" lon="4.21447">
        <ele>1021.6</ele>
        <time>2026-04-25T10:01:08Z</time>
      </trkpt>
      <trkpt lat="45.09883" lon="4.21447">
        <ele>1021.6</ele>
        <time>2026-04-25T10:01:13Z</time>
      </trkpt>
      <trkpt lat="45.09883" lon="4.21447">
        <ele>1021.6</ele>
        <time>2026-04-25T10:01:18Z</time>
      </trkpt>
      <trkpt lat="45.09883" lon="4.21447">
        <ele>1021.6</ele>
        <time>2026-04-25T10:01:23Z</time>
      </trkpt>
      <trkpt lat="45.09883" lon="4.21447">
        <ele>1021.6</ele>
        <time>2026-04-25T10:01:28Z</time>
      </trkpt>
      <trkpt lat="45.09883" lon="4.21447">
        <ele>1021.6</ele>
        <time>2026-04-25T10:01:33Z</time>
      </trkpt>
      <trkpt lat="45.09883" lon="4.21447">
        <ele>1021.6</ele>
        <time>2026-04-25T10:01:38Z</time>
      </trkpt>
      <trkpt lat="45.09883" lon="4.21447">
        <ele>1021.6</ele>
        <time>2026-04-25T10:01:43Z</time>
      </trkpt>
      <trkpt lat="45.09883" lon="4.21447">
        <ele>1021.6</ele>
        <time>2026-04-25T10:01:48Z</time>
      </trkpt>
      <trkpt lat="45.09883" lon="4.21447">
        <ele>1021.6</ele>
        <time>2026-04-25T10:01:53Z</time>
      </trkpt>
      <trkpt lat="45.09883" lon="4.21447">
        <ele>1021.6</ele>
        <time>2026-04-25T10:01:58Z</time>
      </trkpt>
      <trkpt lat="45.09883" lon="4.21447">
        <ele>1021.6</ele>
        <time>2026-04-25T10:02:03Z</time>
      </trkpt>
      <trkpt lat="45.09883" lon="4.21447">
        <ele>1021.6</ele>
        <time>2026-04-25T10:02:08Z</time>
      </trkpt>
      <trkpt lat="45.09883" lon="4.21447">
        <ele>1021.6</ele>
        <time>2026-04-25T10:02:13Z</time>
      </trkpt>
      <trkpt lat="45.09883" lon="4.21447">
        <ele>1021.6</ele>
        <time>2026-04-25T10:02:18Z</time>
      </trkpt>
      <trkpt lat="45.09883" lon="4.21447">
        <ele>1021.6</ele>
        <time>2026-04-25T10:02:23Z</time>
      </trkpt>
      <trkpt lat="45.09883" lon="4.21447">
        <ele>1021.6</ele>
        <time>2026-04-25T10:02:28Z</time>
      </trkpt>
      <trkpt lat="45.09883" lon="4.21447">
        <ele>1021.6</ele>
        <time>2026-04-25T10:02:33Z</time>
      </trkpt>
      <trkpt lat="45.09883" lon="4.21447">
        <ele>1021.6</ele>
        <time>2026-04-25T10:02:38Z</time>
      </trkpt>
      <trkpt lat="45.09883" lon="4.21447">
        <ele>1021.6</ele>
        <time>2026-04-25T10:02:43Z</time>
      </trkpt>
      <trkpt lat="45.09883" lon="4.21447">
        <ele>1021.6</ele>
        <time>2026-04-25T10:02:48Z</time>
      </trkpt>
      <trkpt lat="45.09883" lon="4.21447">
        <ele>1021.6</ele>
        <time>2026-04-25T10:02:53Z</time>
      </trkpt>
      <trkpt lat="45.09883" lon="4.21447">
        <ele>1021.6</ele>
        <time>2026-04-25T10:02:58Z</time>
      </trkpt>
      <trkpt lat="45.09883" lon="4.21447">
        <ele>1021.6</ele>
        <time>2026-04-25T10:03:03Z</time>
      </trkpt>
      <trkpt lat="45.09883" lon="4.21447">
        <ele>1021.6</ele>
        <time>2026-04-25T10:03:08Z</time>
      </trkpt>
      <trkpt lat="45.09883" lon="4.21447">
        <ele>1021.6</ele>
        <time>2026-04-25T10:03:13Z</time>
      </trkpt>
      <trkpt lat="45.09883" lon="4.21447">
        <ele>1021.6</ele>
        <time>2026-04-25T10:03:18Z</time>
      </trkpt>
      <trkpt lat="45.09883" lon="4.21447">
        <ele>1021.6</ele>
        <time>2026-04-25T10:03:23Z</time>
      </trkpt>
      <trkpt lat="45.09883" lon="4.21447">
        <ele>1021.6</ele>
        <time>2026-04-25T10:03:28Z</time>
      </trkpt>
      <trkpt lat="45.09883" lon="4.21447">
        <ele>1021.6</ele>
        <time>2026-04-25T10:03:33Z</time>
      </trkpt>
      <trkpt lat="45.09883" lon="4.21443">
        <ele>1021.2</ele>
        <time>2026-04-25T10:03:38Z</time>
      </trkpt>
      <trkpt lat="45.09883" lon="4.21443">
        <ele>1021.2</ele>
        <time>2026-04-25T10:03:43Z</time>
      </trkpt>
      <trkpt lat="45.09883" lon="4.21443">
        <ele>1021.2</ele>
        <time>2026-04-25T10:03:48Z</time>
      </trkpt>
      <trkpt lat="45.09883" lon="4.21443">
        <ele>1021.2</ele>
        <time>2026-04-25T10:03:53Z</time>
      </trkpt>
      <trkpt lat="45.09883" lon="4.21443">
        <ele>1021.2</ele>
        <time>2026-04-25T10:03:58Z</time>
      </trkpt>
      <trkpt lat="45.09883" lon="4.21443">
        <ele>1021.2</ele>
        <time>2026-04-25T10:04:03Z</time>
      </trkpt>
      <trkpt lat="45.09883" lon="4.21443">
        <ele>1021.2</ele>
        <time>2026-04-25T10:04:08Z</time>
      </trkpt>
      <trkpt lat="45.09883" lon="4.21443">
        <ele>1021.2</ele>
        <time>2026-04-25T10:04:13Z</time>
      </trkpt>
      <trkpt lat="45.09883" lon="4.21443">
        <ele>1021.2</ele>
        <time>2026-04-25T10:04:18Z</time>
      </trkpt>
      <trkpt lat="45.09883" lon="4.21443">
        <ele>1021.2</ele>
        <time>2026-04-25T10:04:23Z</time>
      </trkpt>
      <trkpt lat="45.09883" lon="4.21443">
        <ele>1021.2</ele>
        <time>2026-04-25T10:04:28Z</time>
      </trkpt>
      <trkpt lat="45.09883" lon="4.21443">
        <ele>1021.2</ele>
        <time>2026-04-25T10:04:33Z</time>
      </trkpt>
      <trkpt lat="45.09883" lon="4.21443">
        <ele>1021.2</ele>
        <time>2026-04-25T10:04:38Z</time>
      </trkpt>
      <trkpt lat="45.09883" lon="4.21443">
        <ele>1021.2</ele>
        <time>2026-04-25T10:04:43Z</time>
      </trkpt>
      <trkpt lat="45.09883" lon="4.21443">
        <ele>1021.2</ele>
        <time>2026-04-25T10:04:48Z</time>
      </trkpt>
      <trkpt lat="45.09883" lon="4.21443">
        <ele>1021.2</ele>
        <time>2026-04-25T10:04:53Z</time>
      </trkpt>
      <trkpt lat="45.09883" lon="4.21443">
        <ele>1021.2</ele>
        <time>2026-04-25T10:04:58Z</time>
      </trkpt>
      <trkpt lat="45.09883" lon="4.21443">
        <ele>1021.2</ele>
        <time>2026-04-25T10:05:03Z</time>
      </trkpt>
      <trkpt lat="45.09883" lon="4.21443">
        <ele>1021.2</ele>
        <time>2026-04-25T10:05:08Z</time>
      </trkpt>
      <trkpt lat="45.09883" lon="4.21443">
        <ele>1021.2</ele>
        <time>2026-04-25T10:05:13Z</time>
      </trkpt>
      <trkpt lat="45.09883" lon="4.21443">
        <ele>1021.2</ele>
        <time>2026-04-25T10:05:18Z</time>
      </trkpt>
      <trkpt lat="45.09883" lon="4.21443">
        <ele>1021.2</ele>
        <time>2026-04-25T10:05:23Z</time>
      </trkpt>
      <trkpt lat="45.09883" lon="4.21443">
        <ele>1021.2</ele>
        <time>2026-04-25T10:05:28Z</time>
      </trkpt>
      <trkpt lat="45.09883" lon="4.21443">
        <ele>1021.2</ele>
        <time>2026-04-25T10:05:33Z</time>
      </trkpt>
      <trkpt lat="45.09883" lon="4.21443">
        <ele>1021.2</ele>
        <time>2026-04-25T10:05:38Z</time>
      </trkpt>
      <trkpt lat="45.09883" lon="4.21443">
        <ele>1021.2</ele>
        <time>2026-04-25T10:05:43Z</time>
      </trkpt>
      <trkpt lat="45.09883" lon="4.21443">
        <ele>1021.2</ele>
        <time>2026-04-25T10:05:48Z</time>
      </trkpt>
      <trkpt lat="45.09883" lon="4.21443">
        <ele>1021.2</ele>
        <time>2026-04-25T10:05:53Z</time>
      </trkpt>
      <trkpt lat="45.09883" lon="4.21443">
        <ele>1021.2</ele>
        <time>2026-04-25T10:05:58Z</time>
      </trkpt>
      <trkpt lat="45.09883" lon="4.21443">
        <ele>1021.2</ele>
        <time>2026-04-25T10:06:03Z</time>
      </trkpt>
      <trkpt lat="45.09883" lon="4.21443">
        <ele>1021.2</ele>
        <time>2026-04-25T10:06:08Z</time>
      </trkpt>
      <trkpt lat="45.09883" lon="4.21443">
        <ele>1021.2</ele>
        <time>2026-04-25T10:06:13Z</time>
      </trkpt>
      <trkpt lat="45.09883" lon="4.21443">
        <ele>1021.2</ele>
        <time>2026-04-25T10:06:18Z</time>
      </trkpt>
      <trkpt lat="45.09883" lon="4.21443">
        <ele>1021.2</ele>
        <time>2026-04-25T10:06:23Z</time>
      </trkpt>
      <trkpt lat="45.09883" lon="4.21443">
        <ele>1021.2</ele>
        <time>2026-04-25T10:06:28Z</time>
      </trkpt>
      <trkpt lat="45.09883" lon="4.21443">
        <ele>1021.2</ele>
        <time>2026-04-25T10:06:33Z</time>
      </trkpt>
      <trkpt lat="45.09883" lon="4.21443">
        <ele>1021.2</ele>
        <time>2026-04-25T10:06:38Z</time>
      </trkpt>
      <trkpt lat="45.09883" lon="4.21443">
        <ele>1021.2</ele>
        <time>2026-04-25T10:06:43Z</time>
      </trkpt>
      <trkpt lat="45.09883" lon="4.21443">
        <ele>1021.2</ele>
        <time>2026-04-25T10:06:48Z</time>
      </trkpt>
      <trkpt lat="45.09883" lon="4.21443">
        <ele>1021.2</ele>
        <time>2026-04-25T10:06:53Z</time>
      </trkpt>
      <trkpt lat="45.09883" lon="4.21443">
        <ele>1021.2</ele>
        <time>2026-04-25T10:06:58Z</time>
      </trkpt>
      <trkpt lat="45.09883" lon="4.21443">
        <ele>1021.2</ele>
        <time>2026-04-25T10:07:03Z</time>
      </trkpt>
      <trkpt lat="45.09883" lon="4.21443">
        <ele>1021.2</ele>
        <time>2026-04-25T10:07:08Z</time>
      </trkpt>
      <trkpt lat="45.09883" lon="4.21443">
        <ele>1021.2</ele>
        <time>2026-04-25T10:07:13Z</time>
      </trkpt>
      <trkpt lat="45.09883" lon="4.21443">
        <ele>1021.2</ele>
        <time>2026-04-25T10:07:18Z</time>
      </trkpt>
      <trkpt lat="45.09883" lon="4.21443">
        <ele>1021.2</ele>
        <time>2026-04-25T10:07:23Z</time>
      </trkpt>
      <trkpt lat="45.09883" lon="4.21443">
        <ele>1021.2</ele>
        <time>2026-04-25T10:07:28Z</time>
      </trkpt>
      <trkpt lat="45.09883" lon="4.21443">
        <ele>1021.2</ele>
        <time>2026-04-25T10:07:33Z</time>
      </trkpt>
      <trkpt lat="45.09883" lon="4.21443">
        <ele>1021.2</ele>
        <time>2026-04-25T10:07:38Z</time>
      </trkpt>
      <trkpt lat="45.09883" lon="4.21443">
        <ele>1021.2</ele>
        <time>2026-04-25T10:07:43Z</time>
      </trkpt>
      <trkpt lat="45.09883" lon="4.21443">
        <ele>1021.2</ele>
        <time>2026-04-25T10:07:48Z</time>
      </trkpt>
      <trkpt lat="45.09883" lon="4.21443">
        <ele>1021.2</ele>
        <time>2026-04-25T10:07:53Z</time>
      </trkpt>
      <trkpt lat="45.09883" lon="4.21443">
        <ele>1021.2</ele>
        <time>2026-04-25T10:07:58Z</time>
      </trkpt>
      <trkpt lat="45.09883" lon="4.21443">
        <ele>1021.2</ele>
        <time>2026-04-25T10:08:03Z</time>
      </trkpt>
      <trkpt lat="45.09883" lon="4.21443">
        <ele>1021.2</ele>
        <time>2026-04-25T10:08:08Z</time>
      </trkpt>
      <trkpt lat="45.09883" lon="4.21443">
        <ele>1021.2</ele>
        <time>2026-04-25T10:08:13Z</time>
      </trkpt>
      <trkpt lat="45.09883" lon="4.21443">
        <ele>1021.2</ele>
        <time>2026-04-25T10:08:18Z</time>
      </trkpt>
      <trkpt lat="45.09883" lon="4.21443">
        <ele>1021.2</ele>
        <time>2026-04-25T10:08:23Z</time>
      </trkpt>
      <trkpt lat="45.09883" lon="4.21443">
        <ele>1021.2</ele>
        <time>2026-04-25T10:08:28Z</time>
      </trkpt>
      <trkpt lat="45.09883" lon="4.21443">
        <ele>1021.2</ele>
        <time>2026-04-25T10:08:33Z</time>
      </trkpt>
      <trkpt lat="45.09883" lon="4.21443">
        <ele>1021.2</ele>
        <time>2026-04-25T10:08:38Z</time>
      </trkpt>
      <trkpt lat="45.09883" lon="4.21443">
        <ele>1021.2</ele>
        <time>2026-04-25T10:08:43Z</time>
      </trkpt>
      <trkpt lat="45.09883" lon="4.21443">
        <ele>1021.2</ele>
        <time>2026-04-25T10:08:48Z</time>
      </trkpt>
      <trkpt lat="45.09883" lon="4.21443">
        <ele>1021.2</ele>
        <time>2026-04-25T10:08:53Z</time>
      </trkpt>
      <trkpt lat="45.09883" lon="4.21443">
        <ele>1021.2</ele>
        <time>2026-04-25T10:08:58Z</time>
      </trkpt>
      <trkpt lat="45.09883" lon="4.21443">
        <ele>1021.2</ele>
        <time>2026-04-25T10:09:03Z</time>
      </trkpt>
      <trkpt lat="45.09883" lon="4.21443">
        <ele>1021.2</ele>
        <time>2026-04-25T10:09:08Z</time>
      </trkpt>
      <trkpt lat="45.09883" lon="4.21443">
        <ele>1021.2</ele>
        <time>2026-04-25T10:09:13Z</time>
      </trkpt>
      <trkpt lat="45.09883" lon="4.21443">
        <ele>1021.2</ele>
        <time>2026-04-25T10:09:18Z</time>
      </trkpt>
      <trkpt lat="45.09883" lon="4.21443">
        <ele>1021.2</ele>
        <time>2026-04-25T10:09:23Z</time>
      </trkpt>
      <trkpt lat="45.09883" lon="4.21443">
        <ele>1021.2</ele>
        <time>2026-04-25T10:09:28Z</time>
      </trkpt>
      <trkpt lat="45.09883" lon="4.21443">
        <ele>1021.2</ele>
        <time>2026-04-25T10:09:33Z</time>
      </trkpt>
      <trkpt lat="45.09883" lon="4.21443">
        <ele>1021.2</ele>
        <time>2026-04-25T10:09:38Z</time>
      </trkpt>
      <trkpt lat="45.09883" lon="4.21443">
        <ele>1021.2</ele>
        <time>2026-04-25T10:09:43Z</time>
      </trkpt>
      <trkpt lat="45.09883" lon="4.21443">
        <ele>1021.2</ele>
        <time>2026-04-25T10:09:48Z</time>
      </trkpt>
      <trkpt lat="45.09883" lon="4.21443">
        <ele>1021.2</ele>
        <time>2026-04-25T10:09:53Z</time>
      </trkpt>
      <trkpt lat="45.09883" lon="4.21443">
        <ele>1021.2</ele>
        <time>2026-04-25T10:09:58Z</time>
      </trkpt>
      <trkpt lat="45.09883" lon="4.21443">
        <ele>1021.2</ele>
        <time>2026-04-25T10:10:03Z</time>
      </trkpt>
      <trkpt lat="45.09883" lon="4.21443">
        <ele>1021.2</ele>
        <time>2026-04-25T10:10:08Z</time>
      </trkpt>
      <trkpt lat="45.09883" lon="4.21443">
        <ele>1021.2</ele>
        <time>2026-04-25T10:10:13Z</time>
      </trkpt>
      <trkpt lat="45.09883" lon="4.21443">
        <ele>1021.2</ele>
        <time>2026-04-25T10:10:18Z</time>
      </trkpt>
      <trkpt lat="45.09883" lon="4.21443">
        <ele>1021.2</ele>
        <time>2026-04-25T10:10:23Z</time>
      </trkpt>
      <trkpt lat="45.09883" lon="4.21443">
        <ele>1021.2</ele>
        <time>2026-04-25T10:10:28Z</time>
      </trkpt>
      <trkpt lat="45.09883" lon="4.21443">
        <ele>1021.2</ele>
        <time>2026-04-25T10:10:33Z</time>
      </trkpt>
      <trkpt lat="45.09883" lon="4.21443">
        <ele>1021.2</ele>
        <time>2026-04-25T10:10:38Z</time>
      </trkpt>
      <trkpt lat="45.09883" lon="4.21443">
        <ele>1021.2</ele>
        <time>2026-04-25T10:10:43Z</time>
      </trkpt>
      <trkpt lat="45.09883" lon="4.21443">
        <ele>1021.2</ele>
        <time>2026-04-25T10:10:48Z</time>
      </trkpt>
      <trkpt lat="45.09883" lon="4.21443">
        <ele>1021.2</ele>
        <time>2026-04-25T10:10:53Z</time>
      </trkpt>
      <trkpt lat="45.09883" lon="4.21443">
        <ele>1021.2</ele>
        <time>2026-04-25T10:10:58Z</time>
      </trkpt>
      <trkpt lat="45.09883" lon="4.21443">
        <ele>1021.2</ele>
        <time>2026-04-25T10:11:03Z</time>
      </trkpt>
      <trkpt lat="45.09883" lon="4.21443">
        <ele>1021.2</ele>
        <time>2026-04-25T10:11:08Z</time>
      </trkpt>
      <trkpt lat="45.09883" lon="4.21443">
        <ele>1021.2</ele>
        <time>2026-04-25T10:11:13Z</time>
      </trkpt>
      <trkpt lat="45.09883" lon="4.21443">
        <ele>1021.2</ele>
        <time>2026-04-25T10:11:18Z</time>
      </trkpt>
      <trkpt lat="45.09883" lon="4.21443">
        <ele>1021.2</ele>
        <time>2026-04-25T10:11:23Z</time>
      </trkpt>
      <trkpt lat="45.09883" lon="4.21443">
        <ele>1021.2</ele>
        <time>2026-04-25T10:11:28Z</time>
      </trkpt>
      <trkpt lat="45.09883" lon="4.21443">
        <ele>1021.2</ele>
        <time>2026-04-25T10:11:33Z</time>
      </trkpt>
      <trkpt lat="45.09883" lon="4.21443">
        <ele>1021.2</ele>
        <time>2026-04-25T10:11:38Z</time>
      </trkpt>
      <trkpt lat="45.09883" lon="4.21443">
        <ele>1021.2</ele>
        <time>2026-04-25T10:11:43Z</time>
      </trkpt>
      <trkpt lat="45.09883" lon="4.21443">
        <ele>1021.2</ele>
        <time>2026-04-25T10:11:48Z</time>
      </trkpt>
      <trkpt lat="45.09883" lon="4.21443">
        <ele>1021.2</ele>
        <time>2026-04-25T10:11:53Z</time>
      </trkpt>
      <trkpt lat="45.09883" lon="4.21443">
        <ele>1021.2</ele>
        <time>2026-04-25T10:11:58Z</time>
      </trkpt>
      <trkpt lat="45.09883" lon="4.21443">
        <ele>1021.2</ele>
        <time>2026-04-25T10:12:03Z</time>
      </trkpt>
      <trkpt lat="45.09883" lon="4.21443">
        <ele>1021.2</ele>
        <time>2026-04-25T10:12:08Z</time>
      </trkpt>
      <trkpt lat="45.09883" lon="4.21443">
        <ele>1021.2</ele>
        <time>2026-04-25T10:12:13Z</time>
      </trkpt>
      <trkpt lat="45.09883" lon="4.21443">
        <ele>1021.2</ele>
        <time>2026-04-25T10:12:18Z</time>
      </trkpt>
      <trkpt lat="45.09883" lon="4.21443">
        <ele>1021.2</ele>
        <time>2026-04-25T10:12:23Z</time>
      </trkpt>
      <trkpt lat="45.09883" lon="4.21443">
        <ele>1021.2</ele>
        <time>2026-04-25T10:12:28Z</time>
      </trkpt>
      <trkpt lat="45.09883" lon="4.21443">
        <ele>1021.2</ele>
        <time>2026-04-25T10:12:33Z</time>
      </trkpt>
      <trkpt lat="45.09883" lon="4.21443">
        <ele>1021.2</ele>
        <time>2026-04-25T10:12:38Z</time>
      </trkpt>
      <trkpt lat="45.09883" lon="4.21443">
        <ele>1021.2</ele>
        <time>2026-04-25T10:12:43Z</time>
      </trkpt>
      <trkpt lat="45.09883" lon="4.21443">
        <ele>1021.2</ele>
        <time>2026-04-25T10:12:48Z</time>
      </trkpt>
      <trkpt lat="45.09883" lon="4.21443">
        <ele>1021.2</ele>
        <time>2026-04-25T10:12:53Z</time>
      </trkpt>
      <trkpt lat="45.09883" lon="4.21443">
        <ele>1021.2</ele>
        <time>2026-04-25T10:12:58Z</time>
      </trkpt>
      <trkpt lat="45.09883" lon="4.21443">
        <ele>1021.2</ele>
        <time>2026-04-25T10:13:03Z</time>
      </trkpt>
      <trkpt lat="45.09883" lon="4.21443">
        <ele>1021.2</ele>
        <time>2026-04-25T10:13:08Z</time>
      </trkpt>
      <trkpt lat="45.09883" lon="4.21443">
        <ele>1021.2</ele>
        <time>2026-04-25T10:13:13Z</time>
      </trkpt>
      <trkpt lat="45.09883" lon="4.21443">
        <ele>1021.2</ele>
        <time>2026-04-25T10:13:18Z</time>
      </trkpt>
      <trkpt lat="45.09883" lon="4.21443">
        <ele>1021.2</ele>
        <time>2026-04-25T10:13:23Z</time>
      </trkpt>
      <trkpt lat="45.09883" lon="4.21443">
        <ele>1021.2</ele>
        <time>2026-04-25T10:13:28Z</time>
      </trkpt>
      <trkpt lat="45.09883" lon="4.21443">
        <ele>1021.2</ele>
        <time>2026-04-25T10:13:33Z</time>
      </trkpt>
      <trkpt lat="45.09883" lon="4.21443">
        <ele>1021.2</ele>
        <time>2026-04-25T10:13:38Z</time>
      </trkpt>
      <trkpt lat="45.09883" lon="4.21443">
        <ele>1021.2</ele>
        <time>2026-04-25T10:13:43Z</time>
      </trkpt>
      <trkpt lat="45.09883" lon="4.21443">
        <ele>1021.2</ele>
        <time>2026-04-25T10:13:48Z</time>
      </trkpt>
      <trkpt lat="45.09883" lon="4.21443">
        <ele>1021.2</ele>
        <time>2026-04-25T10:13:53Z</time>
      </trkpt>
      <trkpt lat="45.09883" lon="4.21443">
        <ele>1021.2</ele>
        <time>2026-04-25T10:13:58Z</time>
      </trkpt>
      <trkpt lat="45.09883" lon="4.21443">
        <ele>1021.2</ele>
        <time>2026-04-25T10:14:03Z</time>
      </trkpt>
      <trkpt lat="45.09883" lon="4.21443">
        <ele>1021.2</ele>
        <time>2026-04-25T10:14:08Z</time>
      </trkpt>
      <trkpt lat="45.09883" lon="4.21443">
        <ele>1021.2</ele>
        <time>2026-04-25T10:14:13Z</time>
      </trkpt>
      <trkpt lat="45.09883" lon="4.21443">
        <ele>1021.2</ele>
        <time>2026-04-25T10:14:18Z</time>
      </trkpt>
      <trkpt lat="45.09883" lon="4.21443">
        <ele>1021.2</ele>
        <time>2026-04-25T10:14:23Z</time>
      </trkpt>
      <trkpt lat="45.09883" lon="4.21443">
        <ele>1021.2</ele>
        <time>2026-04-25T10:14:28Z</time>
      </trkpt>
      <trkpt lat="45.09883" lon="4.21443">
        <ele>1021.2</ele>
        <time>2026-04-25T10:14:33Z</time>
      </trkpt>
      <trkpt lat="45.09883" lon="4.21443">
        <ele>1021.2</ele>
        <time>2026-04-25T10:14:38Z</time>
      </trkpt>
      <trkpt lat="45.09883" lon="4.21443">
        <ele>1021.2</ele>
        <time>2026-04-25T10:14:43Z</time>
      </trkpt>
      <trkpt lat="45.09883" lon="4.21443">
        <ele>1021.2</ele>
        <time>2026-04-25T10:14:48Z</time>
      </trkpt>
      <trkpt lat="45.09883" lon="4.21443">
        <ele>1021.2</ele>
        <time>2026-04-25T10:14:53Z</time>
      </trkpt>
      <trkpt lat="45.09883" lon="4.21443">
        <ele>1021.2</ele>
        <time>2026-04-25T10:14:58Z</time>
      </trkpt>
      <trkpt lat="45.09883" lon="4.21443">
        <ele>1021.2</ele>
        <time>2026-04-25T10:15:03Z</time>
      </trkpt>
      <trkpt lat="45.09883" lon="4.21443">
        <ele>1021.2</ele>
        <time>2026-04-25T10:15:08Z</time>
      </trkpt>
      <trkpt lat="45.09883" lon="4.21443">
        <ele>1021.2</ele>
        <time>2026-04-25T10:15:13Z</time>
      </trkpt>
      <trkpt lat="45.09883" lon="4.21443">
        <ele>1021.2</ele>
        <time>2026-04-25T10:15:18Z</time>
      </trkpt>
      <trkpt lat="45.09883" lon="4.21443">
        <ele>1021.2</ele>
        <time>2026-04-25T10:15:23Z</time>
      </trkpt>
      <trkpt lat="45.09883" lon="4.21443">
        <ele>1021.2</ele>
        <time>2026-04-25T10:15:28Z</time>
      </trkpt>
      <trkpt lat="45.09883" lon="4.21443">
        <ele>1021.2</ele>
        <time>2026-04-25T10:15:33Z</time>
      </trkpt>
      <trkpt lat="45.09883" lon="4.21443">
        <ele>1021.2</ele>
        <time>2026-04-25T10:15:38Z</time>
      </trkpt>
      <trkpt lat="45.09883" lon="4.21443">
        <ele>1021.2</ele>
        <time>2026-04-25T10:15:43Z</time>
      </trkpt>
      <trkpt lat="45.09883" lon="4.21443">
        <ele>1021.2</ele>
        <time>2026-04-25T10:15:48Z</time>
      </trkpt>
      <trkpt lat="45.09883" lon="4.21443">
        <ele>1021.2</ele>
        <time>2026-04-25T10:15:53Z</time>
      </trkpt>
      <trkpt lat="45.09883" lon="4.21443">
        <ele>1021.2</ele>
        <time>2026-04-25T10:15:58Z</time>
      </trkpt>
      <trkpt lat="45.09883" lon="4.21443">
        <ele>1021.2</ele>
        <time>2026-04-25T10:16:03Z</time>
      </trkpt>
      <trkpt lat="45.09883" lon="4.21443">
        <ele>1021.2</ele>
        <time>2026-04-25T10:16:08Z</time>
      </trkpt>
      <trkpt lat="45.09883" lon="4.21443">
        <ele>1021.2</ele>
        <time>2026-04-25T10:16:13Z</time>
      </trkpt>
      <trkpt lat="45.09883" lon="4.21443">
        <ele>1021.2</ele>
        <time>2026-04-25T10:16:18Z</time>
      </trkpt>
      <trkpt lat="45.09883" lon="4.21443">
        <ele>1021.2</ele>
        <time>2026-04-25T10:16:23Z</time>
      </trkpt>
      <trkpt lat="45.09883" lon="4.21443">
        <ele>1021.2</ele>
        <time>2026-04-25T10:16:28Z</time>
      </trkpt>
      <trkpt lat="45.09883" lon="4.21443">
        <ele>1021.2</ele>
        <time>2026-04-25T10:16:33Z</time>
      </trkpt>
      <trkpt lat="45.09883" lon="4.21443">
        <ele>1021.2</ele>
        <time>2026-04-25T10:16:38Z</time>
      </trkpt>
      <trkpt lat="45.09883" lon="4.21443">
        <ele>1021.2</ele>
        <time>2026-04-25T10:16:43Z</time>
      </trkpt>
      <trkpt lat="45.09883" lon="4.21443">
        <ele>1021.2</ele>
        <time>2026-04-25T10:16:48Z</time>
      </trkpt>
      <trkpt lat="45.09883" lon="4.21443">
        <ele>1021.2</ele>
        <time>2026-04-25T10:16:48Z</time>
      </trkpt>
      <trkpt lat="45.09886" lon="4.21443">
        <ele>1021.2</ele>
        <time>2026-04-25T10:16:55Z</time>
      </trkpt>
      <trkpt lat="45.09881" lon="4.21445">
        <ele>1021.4</ele>
        <time>2026-04-25T10:17:00Z</time>
      </trkpt>
      <trkpt lat="45.09878" lon="4.21442">
        <ele>1021.2</ele>
        <time>2026-04-25T10:17:06Z</time>
      </trkpt>
      <trkpt lat="45.09875" lon="4.2144">
        <ele>1021.1</ele>
        <time>2026-04-25T10:17:11Z</time>
      </trkpt>
      <trkpt lat="45.09872" lon="4.21438">
        <ele>1021</ele>
        <time>2026-04-25T10:17:16Z</time>
      </trkpt>
      <trkpt lat="45.09868" lon="4.21436">
        <ele>1020.8</ele>
        <time>2026-04-25T10:17:21Z</time>
      </trkpt>
      <trkpt lat="45.09863" lon="4.21433">
        <ele>1020.6</ele>
        <time>2026-04-25T10:17:26Z</time>
      </trkpt>
      <trkpt lat="45.09857" lon="4.21431">
        <ele>1020.5</ele>
        <time>2026-04-25T10:17:31Z</time>
      </trkpt>
      <trkpt lat="45.09851" lon="4.21428">
        <ele>1020.2</ele>
        <time>2026-04-25T10:17:36Z</time>
      </trkpt>
      <trkpt lat="45.09845" lon="4.21425">
        <ele>1019.9</ele>
        <time>2026-04-25T10:17:41Z</time>
      </trkpt>
      <trkpt lat="45.09839" lon="4.21421">
        <ele>1019.5</ele>
        <time>2026-04-25T10:17:46Z</time>
      </trkpt>
      <trkpt lat="45.09832" lon="4.21416">
        <ele>1019</ele>
        <time>2026-04-25T10:17:51Z</time>
      </trkpt>
      <trkpt lat="45.09826" lon="4.21411">
        <ele>1019.1</ele>
        <time>2026-04-25T10:17:56Z</time>
      </trkpt>
      <trkpt lat="45.09821" lon="4.21405">
        <ele>1019.2</ele>
        <time>2026-04-25T10:18:01Z</time>
      </trkpt>
      <trkpt lat="45.09815" lon="4.214">
        <ele>1019.4</ele>
        <time>2026-04-25T10:18:06Z</time>
      </trkpt>
      <trkpt lat="45.0981" lon="4.21394">
        <ele>1019.5</ele>
        <time>2026-04-25T10:18:11Z</time>
      </trkpt>
      <trkpt lat="45.09805" lon="4.2139">
        <ele>1019.7</ele>
        <time>2026-04-25T10:18:16Z</time>
      </trkpt>
      <trkpt lat="45.09799" lon="4.21383">
        <ele>1019.9</ele>
        <time>2026-04-25T10:18:21Z</time>
      </trkpt>
      <trkpt lat="45.09794" lon="4.21376">
        <ele>1020.1</ele>
        <time>2026-04-25T10:18:26Z</time>
      </trkpt>
      <trkpt lat="45.09789" lon="4.21369">
        <ele>1020.4</ele>
        <time>2026-04-25T10:18:31Z</time>
      </trkpt>
      <trkpt lat="45.09785" lon="4.21361">
        <ele>1020.7</ele>
        <time>2026-04-25T10:18:36Z</time>
      </trkpt>
      <trkpt lat="45.09781" lon="4.21354">
        <ele>1020.9</ele>
        <time>2026-04-25T10:18:41Z</time>
      </trkpt>
      <trkpt lat="45.09778" lon="4.21346">
        <ele>1021.2</ele>
        <time>2026-04-25T10:18:46Z</time>
      </trkpt>
      <trkpt lat="45.09775" lon="4.21338">
        <ele>1021.4</ele>
        <time>2026-04-25T10:18:51Z</time>
      </trkpt>
      <trkpt lat="45.0977" lon="4.21329">
        <ele>1021.7</ele>
        <time>2026-04-25T10:18:56Z</time>
      </trkpt>
      <trkpt lat="45.09767" lon="4.21319">
        <ele>1021.8</ele>
        <time>2026-04-25T10:19:01Z</time>
      </trkpt>
      <trkpt lat="45.09764" lon="4.21309">
        <ele>1021.9</ele>
        <time>2026-04-25T10:19:06Z</time>
      </trkpt>
      <trkpt lat="45.09761" lon="4.21301">
        <ele>1022</ele>
        <time>2026-04-25T10:19:11Z</time>
      </trkpt>
      <trkpt lat="45.09757" lon="4.21292">
        <ele>1022.1</ele>
        <time>2026-04-25T10:19:16Z</time>
      </trkpt>
      <trkpt lat="45.09754" lon="4.21283">
        <ele>1022.2</ele>
        <time>2026-04-25T10:19:21Z</time>
      </trkpt>
      <trkpt lat="45.09751" lon="4.21273">
        <ele>1022.2</ele>
        <time>2026-04-25T10:19:26Z</time>
      </trkpt>
      <trkpt lat="45.09747" lon="4.21264">
        <ele>1022.2</ele>
        <time>2026-04-25T10:19:31Z</time>
      </trkpt>
      <trkpt lat="45.09743" lon="4.21257">
        <ele>1022.2</ele>
        <time>2026-04-25T10:19:36Z</time>
      </trkpt>
      <trkpt lat="45.0974" lon="4.2125">
        <ele>1022.1</ele>
        <time>2026-04-25T10:19:41Z</time>
      </trkpt>
      <trkpt lat="45.09735" lon="4.21242">
        <ele>1021.9</ele>
        <time>2026-04-25T10:19:46Z</time>
      </trkpt>
      <trkpt lat="45.0973" lon="4.21234">
        <ele>1021.7</ele>
        <time>2026-04-25T10:19:51Z</time>
      </trkpt>
      <trkpt lat="45.09725" lon="4.21227">
        <ele>1021.5</ele>
        <time>2026-04-25T10:19:56Z</time>
      </trkpt>
      <trkpt lat="45.0972" lon="4.2122">
        <ele>1021.4</ele>
        <time>2026-04-25T10:20:01Z</time>
      </trkpt>
      <trkpt lat="45.09714" lon="4.21213">
        <ele>1021.4</ele>
        <time>2026-04-25T10:20:06Z</time>
      </trkpt>
      <trkpt lat="45.09708" lon="4.21208">
        <ele>1021.5</ele>
        <time>2026-04-25T10:20:11Z</time>
      </trkpt>
      <trkpt lat="45.09702" lon="4.21202">
        <ele>1021.6</ele>
        <time>2026-04-25T10:20:16Z</time>
      </trkpt>
      <trkpt lat="45.09696" lon="4.21196">
        <ele>1021.7</ele>
        <time>2026-04-25T10:20:21Z</time>
      </trkpt>
      <trkpt lat="45.09689" lon="4.2119">
        <ele>1022</ele>
        <time>2026-04-25T10:20:26Z</time>
      </trkpt>
      <trkpt lat="45.09683" lon="4.21185">
        <ele>1022.2</ele>
        <time>2026-04-25T10:20:31Z</time>
      </trkpt>
      <trkpt lat="45.09677" lon="4.21179">
        <ele>1022.5</ele>
        <time>2026-04-25T10:20:36Z</time>
      </trkpt>
      <trkpt lat="45.09671" lon="4.21174">
        <ele>1022.8</ele>
        <time>2026-04-25T10:20:41Z</time>
      </trkpt>
      <trkpt lat="45.09665" lon="4.21169">
        <ele>1023</ele>
        <time>2026-04-25T10:20:46Z</time>
      </trkpt>
      <trkpt lat="45.0966" lon="4.21164">
        <ele>1023</ele>
        <time>2026-04-25T10:20:51Z</time>
      </trkpt>
      <trkpt lat="45.09653" lon="4.21159">
        <ele>1022.9</ele>
        <time>2026-04-25T10:20:56Z</time>
      </trkpt>
      <trkpt lat="45.09648" lon="4.21154">
        <ele>1022.8</ele>
        <time>2026-04-25T10:21:01Z</time>
      </trkpt>
      <trkpt lat="45.09642" lon="4.21148">
        <ele>1022.7</ele>
        <time>2026-04-25T10:21:06Z</time>
      </trkpt>
      <trkpt lat="45.09636" lon="4.21143">
        <ele>1022.6</ele>
        <time>2026-04-25T10:21:11Z</time>
      </trkpt>
      <trkpt lat="45.0963" lon="4.21137">
        <ele>1022.5</ele>
        <time>2026-04-25T10:21:16Z</time>
      </trkpt>
      <trkpt lat="45.09626" lon="4.21131">
        <ele>1022.4</ele>
        <time>2026-04-25T10:21:21Z</time>
      </trkpt>
      <trkpt lat="45.0962" lon="4.21122">
        <ele>1022.2</ele>
        <time>2026-04-25T10:21:26Z</time>
      </trkpt>
      <trkpt lat="45.09616" lon="4.21115">
        <ele>1022</ele>
        <time>2026-04-25T10:21:31Z</time>
      </trkpt>
      <trkpt lat="45.09612" lon="4.21111">
        <ele>1021.9</ele>
        <time>2026-04-25T10:21:36Z</time>
      </trkpt>
      <trkpt lat="45.09608" lon="4.21105">
        <ele>1021.7</ele>
        <time>2026-04-25T10:21:41Z</time>
      </trkpt>
      <trkpt lat="45.09603" lon="4.21099">
        <ele>1021.6</ele>
        <time>2026-04-25T10:21:46Z</time>
      </trkpt>
      <trkpt lat="45.09598" lon="4.2109">
        <ele>1021.3</ele>
        <time>2026-04-25T10:21:51Z</time>
      </trkpt>
      <trkpt lat="45.09593" lon="4.21082">
        <ele>1021.1</ele>
        <time>2026-04-25T10:21:56Z</time>
      </trkpt>
      <trkpt lat="45.0959" lon="4.21072">
        <ele>1021</ele>
        <time>2026-04-25T10:22:01Z</time>
      </trkpt>
      <trkpt lat="45.09587" lon="4.21062">
        <ele>1020.8</ele>
        <time>2026-04-25T10:22:06Z</time>
      </trkpt>
      <trkpt lat="45.09584" lon="4.21055">
        <ele>1020.7</ele>
        <time>2026-04-25T10:22:11Z</time>
      </trkpt>
      <trkpt lat="45.09581" lon="4.21048">
        <ele>1020.5</ele>
        <time>2026-04-25T10:22:16Z</time>
      </trkpt>
      <trkpt lat="45.09578" lon="4.2104">
        <ele>1020.3</ele>
        <time>2026-04-25T10:22:21Z</time>
      </trkpt>
      <trkpt lat="45.09575" lon="4.21031">
        <ele>1020</ele>
        <time>2026-04-25T10:22:26Z</time>
      </trkpt>
      <trkpt lat="45.09571" lon="4.21023">
        <ele>1019.8</ele>
        <time>2026-04-25T10:22:31Z</time>
      </trkpt>
      <trkpt lat="45.09569" lon="4.21013">
        <ele>1019.5</ele>
        <time>2026-04-25T10:22:36Z</time>
      </trkpt>
      <trkpt lat="45.09565" lon="4.21005">
        <ele>1019.2</ele>
        <time>2026-04-25T10:22:41Z</time>
      </trkpt>
      <trkpt lat="45.09559" lon="4.20997">
        <ele>1018.9</ele>
        <time>2026-04-25T10:22:46Z</time>
      </trkpt>
      <trkpt lat="45.09557" lon="4.20991">
        <ele>1018.9</ele>
        <time>2026-04-25T10:22:51Z</time>
      </trkpt>
      <trkpt lat="45.09553" lon="4.20984">
        <ele>1018.8</ele>
        <time>2026-04-25T10:22:56Z</time>
      </trkpt>
      <trkpt lat="45.09551" lon="4.20979">
        <ele>1018.7</ele>
        <time>2026-04-25T10:23:01Z</time>
      </trkpt>
      <trkpt lat="45.09551" lon="4.20978">
        <ele>1018.7</ele>
        <time>2026-04-25T10:23:06Z</time>
      </trkpt>
      <trkpt lat="45.09551" lon="4.20978">
        <ele>1018.7</ele>
        <time>2026-04-25T10:23:11Z</time>
      </trkpt>
      <trkpt lat="45.09551" lon="4.20978">
        <ele>1018.7</ele>
        <time>2026-04-25T10:23:16Z</time>
      </trkpt>
      <trkpt lat="45.09551" lon="4.20978">
        <ele>1018.7</ele>
        <time>2026-04-25T10:23:21Z</time>
      </trkpt>
      <trkpt lat="45.09551" lon="4.20978">
        <ele>1018.7</ele>
        <time>2026-04-25T10:23:26Z</time>
      </trkpt>
      <trkpt lat="45.09551" lon="4.20978">
        <ele>1018.7</ele>
        <time>2026-04-25T10:23:31Z</time>
      </trkpt>
      <trkpt lat="45.09551" lon="4.20978">
        <ele>1018.7</ele>
        <time>2026-04-25T10:23:36Z</time>
      </trkpt>
      <trkpt lat="45.09551" lon="4.20978">
        <ele>1018.7</ele>
        <time>2026-04-25T10:23:41Z</time>
      </trkpt>
      <trkpt lat="45.09551" lon="4.20978">
        <ele>1018.7</ele>
        <time>2026-04-25T10:23:46Z</time>
      </trkpt>
      <trkpt lat="45.09551" lon="4.20978">
        <ele>1018.7</ele>
        <time>2026-04-25T10:23:51Z</time>
      </trkpt>
      <trkpt lat="45.09551" lon="4.20978">
        <ele>1018.7</ele>
        <time>2026-04-25T10:23:56Z</time>
      </trkpt>
      <trkpt lat="45.09551" lon="4.20978">
        <ele>1018.7</ele>
        <time>2026-04-25T10:24:01Z</time>
      </trkpt>
      <trkpt lat="45.09551" lon="4.20978">
        <ele>1018.7</ele>
        <time>2026-04-25T10:24:06Z</time>
      </trkpt>
      <trkpt lat="45.09551" lon="4.20978">
        <ele>1018.7</ele>
        <time>2026-04-25T10:24:11Z</time>
      </trkpt>
      <trkpt lat="45.09551" lon="4.20978">
        <ele>1018.7</ele>
        <time>2026-04-25T10:24:16Z</time>
      </trkpt>
      <trkpt lat="45.09551" lon="4.20978">
        <ele>1018.7</ele>
        <time>2026-04-25T10:24:21Z</time>
      </trkpt>
      <trkpt lat="45.09551" lon="4.20978">
        <ele>1018.7</ele>
        <time>2026-04-25T10:24:26Z</time>
      </trkpt>
      <trkpt lat="45.09551" lon="4.20978">
        <ele>1018.7</ele>
        <time>2026-04-25T10:24:31Z</time>
      </trkpt>
      <trkpt lat="45.09551" lon="4.20978">
        <ele>1018.7</ele>
        <time>2026-04-25T10:24:36Z</time>
      </trkpt>
      <trkpt lat="45.09551" lon="4.20978">
        <ele>1018.7</ele>
        <time>2026-04-25T10:24:41Z</time>
      </trkpt>
      <trkpt lat="45.09551" lon="4.20978">
        <ele>1018.7</ele>
        <time>2026-04-25T10:24:46Z</time>
      </trkpt>
      <trkpt lat="45.09551" lon="4.20978">
        <ele>1018.7</ele>
        <time>2026-04-25T10:24:51Z</time>
      </trkpt>
      <trkpt lat="45.09551" lon="4.20978">
        <ele>1018.7</ele>
        <time>2026-04-25T10:24:56Z</time>
      </trkpt>
      <trkpt lat="45.09551" lon="4.20978">
        <ele>1018.7</ele>
        <time>2026-04-25T10:25:01Z</time>
      </trkpt>
      <trkpt lat="45.09551" lon="4.20978">
        <ele>1018.7</ele>
        <time>2026-04-25T10:25:06Z</time>
      </trkpt>
      <trkpt lat="45.09551" lon="4.20978">
        <ele>1018.7</ele>
        <time>2026-04-25T10:25:11Z</time>
      </trkpt>
      <trkpt lat="45.09551" lon="4.20978">
        <ele>1018.7</ele>
        <time>2026-04-25T10:25:16Z</time>
      </trkpt>
      <trkpt lat="45.09551" lon="4.20978">
        <ele>1018.7</ele>
        <time>2026-04-25T10:25:21Z</time>
      </trkpt>
      <trkpt lat="45.09551" lon="4.20978">
        <ele>1018.7</ele>
        <time>2026-04-25T10:25:26Z</time>
      </trkpt>
      <trkpt lat="45.09551" lon="4.20978">
        <ele>1018.7</ele>
        <time>2026-04-25T10:25:31Z</time>
      </trkpt>
      <trkpt lat="45.09551" lon="4.20978">
        <ele>1018.7</ele>
        <time>2026-04-25T10:25:36Z</time>
      </trkpt>
      <trkpt lat="45.09551" lon="4.20978">
        <ele>1018.7</ele>
        <time>2026-04-25T10:25:41Z</time>
      </trkpt>
      <trkpt lat="45.09551" lon="4.20978">
        <ele>1018.7</ele>
        <time>2026-04-25T10:25:46Z</time>
      </trkpt>
      <trkpt lat="45.09551" lon="4.20978">
        <ele>1018.7</ele>
        <time>2026-04-25T10:25:51Z</time>
      </trkpt>
      <trkpt lat="45.09551" lon="4.20978">
        <ele>1018.7</ele>
        <time>2026-04-25T10:25:56Z</time>
      </trkpt>
      <trkpt lat="45.09551" lon="4.20978">
        <ele>1018.7</ele>
        <time>2026-04-25T10:26:01Z</time>
      </trkpt>
      <trkpt lat="45.09551" lon="4.20978">
        <ele>1018.7</ele>
        <time>2026-04-25T10:26:06Z</time>
      </trkpt>
      <trkpt lat="45.09551" lon="4.20978">
        <ele>1018.7</ele>
        <time>2026-04-25T10:26:11Z</time>
      </trkpt>
      <trkpt lat="45.09551" lon="4.20978">
        <ele>1018.7</ele>
        <time>2026-04-25T10:26:16Z</time>
      </trkpt>
      <trkpt lat="45.09551" lon="4.20978">
        <ele>1018.7</ele>
        <time>2026-04-25T10:26:21Z</time>
      </trkpt>
      <trkpt lat="45.09551" lon="4.20978">
        <ele>1018.7</ele>
        <time>2026-04-25T10:26:26Z</time>
      </trkpt>
      <trkpt lat="45.09551" lon="4.20978">
        <ele>1018.7</ele>
        <time>2026-04-25T10:26:31Z</time>
      </trkpt>
      <trkpt lat="45.09551" lon="4.20968">
        <ele>1018.9</ele>
        <time>2026-04-25T10:26:36Z</time>
      </trkpt>
      <trkpt lat="45.09553" lon="4.20961">
        <ele>1019.1</ele>
        <time>2026-04-25T10:26:41Z</time>
      </trkpt>
      <trkpt lat="45.09555" lon="4.20953">
        <ele>1019.4</ele>
        <time>2026-04-25T10:26:46Z</time>
      </trkpt>
      <trkpt lat="45.09557" lon="4.20947">
        <ele>1019.6</ele>
        <time>2026-04-25T10:26:51Z</time>
      </trkpt>
      <trkpt lat="45.09562" lon="4.20948">
        <ele>1020</ele>
        <time>2026-04-25T10:26:56Z</time>
      </trkpt>
      <trkpt lat="45.09569" lon="4.20949">
        <ele>1020.6</ele>
        <time>2026-04-25T10:27:01Z</time>
      </trkpt>
      <trkpt lat="45.09576" lon="4.20951">
        <ele>1021.2</ele>
        <time>2026-04-25T10:27:06Z</time>
      </trkpt>
      <trkpt lat="45.09581" lon="4.20945">
        <ele>1021.8</ele>
        <time>2026-04-25T10:27:11Z</time>
      </trkpt>
      <trkpt lat="45.09583" lon="4.20936">
        <ele>1022.3</ele>
        <time>2026-04-25T10:27:16Z</time>
      </trkpt>
      <trkpt lat="45.09583" lon="4.20936">
        <ele>1022.3</ele>
        <time>2026-04-25T10:27:21Z</time>
      </trkpt>
      <trkpt lat="45.09583" lon="4.20936">
        <ele>1022.3</ele>
        <time>2026-04-25T10:27:26Z</time>
      </trkpt>
      <trkpt lat="45.09583" lon="4.20936">
        <ele>1022.3</ele>
        <time>2026-04-25T10:27:31Z</time>
      </trkpt>
      <trkpt lat="45.09584" lon="4.20932">
        <ele>1022.5</ele>
        <time>2026-04-25T10:27:36Z</time>
      </trkpt>
      <trkpt lat="45.09584" lon="4.20921">
        <ele>1022.9</ele>
        <time>2026-04-25T10:27:41Z</time>
      </trkpt>
      <trkpt lat="45.09585" lon="4.20914">
        <ele>1023.1</ele>
        <time>2026-04-25T10:27:46Z</time>
      </trkpt>
      <trkpt lat="45.09588" lon="4.20905">
        <ele>1023.5</ele>
        <time>2026-04-25T10:27:51Z</time>
      </trkpt>
      <trkpt lat="45.09592" lon="4.20897">
        <ele>1023.9</ele>
        <time>2026-04-25T10:27:56Z</time>
      </trkpt>
      <trkpt lat="45.09593" lon="4.20889">
        <ele>1024.2</ele>
        <time>2026-04-25T10:28:01Z</time>
      </trkpt>
      <trkpt lat="45.09596" lon="4.20881">
        <ele>1024.6</ele>
        <time>2026-04-25T10:28:06Z</time>
      </trkpt>
      <trkpt lat="45.09598" lon="4.20873">
        <ele>1024.9</ele>
        <time>2026-04-25T10:28:11Z</time>
      </trkpt>
      <trkpt lat="45.09601" lon="4.20864">
        <ele>1025.4</ele>
        <time>2026-04-25T10:28:16Z</time>
      </trkpt>
      <trkpt lat="45.09603" lon="4.20855">
        <ele>1025.9</ele>
        <time>2026-04-25T10:28:21Z</time>
      </trkpt>
      <trkpt lat="45.09606" lon="4.20846">
        <ele>1026.4</ele>
        <time>2026-04-25T10:28:26Z</time>
      </trkpt>
      <trkpt lat="45.09609" lon="4.20838">
        <ele>1027</ele>
        <time>2026-04-25T10:28:31Z</time>
      </trkpt>
      <trkpt lat="45.0961" lon="4.20828">
        <ele>1027.4</ele>
        <time>2026-04-25T10:28:36Z</time>
      </trkpt>
      <trkpt lat="45.09612" lon="4.20821">
        <ele>1027.9</ele>
        <time>2026-04-25T10:28:41Z</time>
      </trkpt>
      <trkpt lat="45.09613" lon="4.20812">
        <ele>1028.3</ele>
        <time>2026-04-25T10:28:46Z</time>
      </trkpt>
      <trkpt lat="45.09615" lon="4.20804">
        <ele>1028.7</ele>
        <time>2026-04-25T10:28:51Z</time>
      </trkpt>
      <trkpt lat="45.09618" lon="4.20797">
        <ele>1029.2</ele>
        <time>2026-04-25T10:28:56Z</time>
      </trkpt>
      <trkpt lat="45.09619" lon="4.20788">
        <ele>1029.6</ele>
        <time>2026-04-25T10:29:01Z</time>
      </trkpt>
      <trkpt lat="45.0962" lon="4.20779">
        <ele>1030</ele>
        <time>2026-04-25T10:29:06Z</time>
      </trkpt>
      <trkpt lat="45.09622" lon="4.20772">
        <ele>1030.5</ele>
        <time>2026-04-25T10:29:11Z</time>
      </trkpt>
      <trkpt lat="45.09626" lon="4.20765">
        <ele>1031</ele>
        <time>2026-04-25T10:29:16Z</time>
      </trkpt>
      <trkpt lat="45.09627" lon="4.20757">
        <ele>1031.4</ele>
        <time>2026-04-25T10:29:21Z</time>
      </trkpt>
      <trkpt lat="45.09627" lon="4.20748">
        <ele>1031.8</ele>
        <time>2026-04-25T10:29:26Z</time>
      </trkpt>
      <trkpt lat="45.09629" lon="4.20741">
        <ele>1032.2</ele>
        <time>2026-04-25T10:29:31Z</time>
      </trkpt>
      <trkpt lat="45.09628" lon="4.20732">
        <ele>1032.5</ele>
        <time>2026-04-25T10:29:36Z</time>
      </trkpt>
      <trkpt lat="45.09628" lon="4.20726">
        <ele>1032.8</ele>
        <time>2026-04-25T10:29:41Z</time>
      </trkpt>
      <trkpt lat="45.09628" lon="4.20718">
        <ele>1033.1</ele>
        <time>2026-04-25T10:29:46Z</time>
      </trkpt>
      <trkpt lat="45.09627" lon="4.2071">
        <ele>1033.4</ele>
        <time>2026-04-25T10:29:51Z</time>
      </trkpt>
      <trkpt lat="45.09626" lon="4.20702">
        <ele>1033.6</ele>
        <time>2026-04-25T10:29:56Z</time>
      </trkpt>
      <trkpt lat="45.09626" lon="4.20693">
        <ele>1034</ele>
        <time>2026-04-25T10:30:01Z</time>
      </trkpt>
      <trkpt lat="45.09625" lon="4.20685">
        <ele>1034.2</ele>
        <time>2026-04-25T10:30:06Z</time>
      </trkpt>
      <trkpt lat="45.09625" lon="4.20677">
        <ele>1034.6</ele>
        <time>2026-04-25T10:30:11Z</time>
      </trkpt>
      <trkpt lat="45.09626" lon="4.20668">
        <ele>1035.1</ele>
        <time>2026-04-25T10:30:16Z</time>
      </trkpt>
      <trkpt lat="45.09625" lon="4.20657">
        <ele>1035.3</ele>
        <time>2026-04-25T10:30:21Z</time>
      </trkpt>
      <trkpt lat="45.09626" lon="4.2065">
        <ele>1035.7</ele>
        <time>2026-04-25T10:30:26Z</time>
      </trkpt>
      <trkpt lat="45.09628" lon="4.20645">
        <ele>1036.1</ele>
        <time>2026-04-25T10:30:31Z</time>
      </trkpt>
      <trkpt lat="45.09627" lon="4.2064">
        <ele>1036.2</ele>
        <time>2026-04-25T10:30:36Z</time>
      </trkpt>
      <trkpt lat="45.09628" lon="4.20632">
        <ele>1036.5</ele>
        <time>2026-04-25T10:30:41Z</time>
      </trkpt>
      <trkpt lat="45.09632" lon="4.20628">
        <ele>1037.1</ele>
        <time>2026-04-25T10:30:46Z</time>
      </trkpt>
      <trkpt lat="45.09634" lon="4.20627">
        <ele>1037.3</ele>
        <time>2026-04-25T10:30:51Z</time>
      </trkpt>
      <trkpt lat="45.09635" lon="4.20627">
        <ele>1037.4</ele>
        <time>2026-04-25T10:30:56Z</time>
      </trkpt>
      <trkpt lat="45.09635" lon="4.20627">
        <ele>1037.4</ele>
        <time>2026-04-25T10:31:01Z</time>
      </trkpt>
      <trkpt lat="45.09636" lon="4.20627">
        <ele>1037.5</ele>
        <time>2026-04-25T10:31:06Z</time>
      </trkpt>
      <trkpt lat="45.09641" lon="4.20625">
        <ele>1038</ele>
        <time>2026-04-25T10:31:11Z</time>
      </trkpt>
      <trkpt lat="45.09646" lon="4.20623">
        <ele>1038.6</ele>
        <time>2026-04-25T10:31:16Z</time>
      </trkpt>
      <trkpt lat="45.09651" lon="4.20622">
        <ele>1039.1</ele>
        <time>2026-04-25T10:31:21Z</time>
      </trkpt>
      <trkpt lat="45.09655" lon="4.20621">
        <ele>1039.5</ele>
        <time>2026-04-25T10:31:26Z</time>
      </trkpt>
      <trkpt lat="45.09661" lon="4.20616">
        <ele>1040.1</ele>
        <time>2026-04-25T10:31:31Z</time>
      </trkpt>
      <trkpt lat="45.09667" lon="4.20611">
        <ele>1040.7</ele>
        <time>2026-04-25T10:31:36Z</time>
      </trkpt>
      <trkpt lat="45.09673" lon="4.20606">
        <ele>1041.3</ele>
        <time>2026-04-25T10:31:41Z</time>
      </trkpt>
      <trkpt lat="45.09677" lon="4.20599">
        <ele>1041.8</ele>
        <time>2026-04-25T10:31:46Z</time>
      </trkpt>
      <trkpt lat="45.09678" lon="4.20598">
        <ele>1041.9</ele>
        <time>2026-04-25T10:31:51Z</time>
      </trkpt>
      <trkpt lat="45.09678" lon="4.20597">
        <ele>1041.9</ele>
        <time>2026-04-25T10:31:56Z</time>
      </trkpt>
      <trkpt lat="45.09677" lon="4.2059">
        <ele>1041.9</ele>
        <time>2026-04-25T10:32:01Z</time>
      </trkpt>
      <trkpt lat="45.09679" lon="4.20581">
        <ele>1042.2</ele>
        <time>2026-04-25T10:32:06Z</time>
      </trkpt>
      <trkpt lat="45.09682" lon="4.20573">
        <ele>1042.7</ele>
        <time>2026-04-25T10:32:11Z</time>
      </trkpt>
      <trkpt lat="45.09684" lon="4.20572">
        <ele>1042.9</ele>
        <time>2026-04-25T10:32:16Z</time>
      </trkpt>
      <trkpt lat="45.09685" lon="4.20572">
        <ele>1042.9</ele>
        <time>2026-04-25T10:32:21Z</time>
      </trkpt>
      <trkpt lat="45.09685" lon="4.20572">
        <ele>1042.9</ele>
        <time>2026-04-25T10:32:26Z</time>
      </trkpt>
      <trkpt lat="45.09681" lon="4.20567">
        <ele>1042.7</ele>
        <time>2026-04-25T10:32:31Z</time>
      </trkpt>
      <trkpt lat="45.09678" lon="4.20559">
        <ele>1042.6</ele>
        <time>2026-04-25T10:32:36Z</time>
      </trkpt>
      <trkpt lat="45.09675" lon="4.20553">
        <ele>1042.4</ele>
        <time>2026-04-25T10:32:41Z</time>
      </trkpt>
      <trkpt lat="45.09675" lon="4.20552">
        <ele>1042.4</ele>
        <time>2026-04-25T10:32:46Z</time>
      </trkpt>
      <trkpt lat="45.09674" lon="4.20551">
        <ele>1042.4</ele>
        <time>2026-04-25T10:32:51Z</time>
      </trkpt>
      <trkpt lat="45.09672" lon="4.20551">
        <ele>1042.2</ele>
        <time>2026-04-25T10:32:56Z</time>
      </trkpt>
      <trkpt lat="45.09674" lon="4.20543">
        <ele>1042.5</ele>
        <time>2026-04-25T10:33:01Z</time>
      </trkpt>
      <trkpt lat="45.09677" lon="4.20536">
        <ele>1042.9</ele>
        <time>2026-04-25T10:33:06Z</time>
      </trkpt>
      <trkpt lat="45.09681" lon="4.20529">
        <ele>1043.3</ele>
        <time>2026-04-25T10:33:11Z</time>
      </trkpt>
      <trkpt lat="45.09686" lon="4.20521">
        <ele>1043.8</ele>
        <time>2026-04-25T10:33:16Z</time>
      </trkpt>
      <trkpt lat="45.09687" lon="4.20513">
        <ele>1044</ele>
        <time>2026-04-25T10:33:21Z</time>
      </trkpt>
      <trkpt lat="45.09686" lon="4.20509">
        <ele>1044</ele>
        <time>2026-04-25T10:33:26Z</time>
      </trkpt>
      <trkpt lat="45.09685" lon="4.20505">
        <ele>1044</ele>
        <time>2026-04-25T10:33:31Z</time>
      </trkpt>
      <trkpt lat="45.09685" lon="4.20504">
        <ele>1044</ele>
        <time>2026-04-25T10:33:36Z</time>
      </trkpt>
      <trkpt lat="45.09679" lon="4.20496">
        <ele>1043.8</ele>
        <time>2026-04-25T10:33:41Z</time>
      </trkpt>
      <trkpt lat="45.09673" lon="4.20494">
        <ele>1043.4</ele>
        <time>2026-04-25T10:33:46Z</time>
      </trkpt>
      <trkpt lat="45.09669" lon="4.20488">
        <ele>1043.3</ele>
        <time>2026-04-25T10:33:51Z</time>
      </trkpt>
      <trkpt lat="45.09666" lon="4.20483">
        <ele>1043.2</ele>
        <time>2026-04-25T10:33:56Z</time>
      </trkpt>
      <trkpt lat="45.09666" lon="4.20476">
        <ele>1043.3</ele>
        <time>2026-04-25T10:34:01Z</time>
      </trkpt>
      <trkpt lat="45.09666" lon="4.20468">
        <ele>1043.4</ele>
        <time>2026-04-25T10:34:06Z</time>
      </trkpt>
      <trkpt lat="45.09663" lon="4.20459">
        <ele>1043.6</ele>
        <time>2026-04-25T10:34:11Z</time>
      </trkpt>
      <trkpt lat="45.09661" lon="4.2045">
        <ele>1043.7</ele>
        <time>2026-04-25T10:34:16Z</time>
      </trkpt>
      <trkpt lat="45.09658" lon="4.20449">
        <ele>1043.8</ele>
        <time>2026-04-25T10:34:21Z</time>
      </trkpt>
      <trkpt lat="45.09656" lon="4.2045">
        <ele>1043.8</ele>
        <time>2026-04-25T10:34:26Z</time>
      </trkpt>
      <trkpt lat="45.09654" lon="4.20449">
        <ele>1043.9</ele>
        <time>2026-04-25T10:34:31Z</time>
      </trkpt>
      <trkpt lat="45.09648" lon="4.20447">
        <ele>1044.1</ele>
        <time>2026-04-25T10:34:36Z</time>
      </trkpt>
      <trkpt lat="45.09641" lon="4.20447">
        <ele>1044.2</ele>
        <time>2026-04-25T10:34:41Z</time>
      </trkpt>
      <trkpt lat="45.09631" lon="4.2045">
        <ele>1044.4</ele>
        <time>2026-04-25T10:34:46Z</time>
      </trkpt>
      <trkpt lat="45.09624" lon="4.20448">
        <ele>1044.6</ele>
        <time>2026-04-25T10:34:51Z</time>
      </trkpt>
      <trkpt lat="45.09618" lon="4.20443">
        <ele>1044.9</ele>
        <time>2026-04-25T10:34:56Z</time>
      </trkpt>
      <trkpt lat="45.09613" lon="4.20438">
        <ele>1045.2</ele>
        <time>2026-04-25T10:35:01Z</time>
      </trkpt>
      <trkpt lat="45.09607" lon="4.20435">
        <ele>1045.5</ele>
        <time>2026-04-25T10:35:06Z</time>
      </trkpt>
      <trkpt lat="45.096" lon="4.20432">
        <ele>1045.8</ele>
        <time>2026-04-25T10:35:11Z</time>
      </trkpt>
      <trkpt lat="45.09596" lon="4.20431">
        <ele>1045.9</ele>
        <time>2026-04-25T10:35:16Z</time>
      </trkpt>
      <trkpt lat="45.0959" lon="4.20427">
        <ele>1046.3</ele>
        <time>2026-04-25T10:35:21Z</time>
      </trkpt>
      <trkpt lat="45.09582" lon="4.20424">
        <ele>1046.7</ele>
        <time>2026-04-25T10:35:26Z</time>
      </trkpt>
      <trkpt lat="45.09573" lon="4.20427">
        <ele>1046.6</ele>
        <time>2026-04-25T10:35:31Z</time>
      </trkpt>
      <trkpt lat="45.09567" lon="4.20422">
        <ele>1047</ele>
        <time>2026-04-25T10:35:36Z</time>
      </trkpt>
      <trkpt lat="45.0956" lon="4.20419">
        <ele>1047.2</ele>
        <time>2026-04-25T10:35:41Z</time>
      </trkpt>
      <trkpt lat="45.09553" lon="4.20417">
        <ele>1047.3</ele>
        <time>2026-04-25T10:35:46Z</time>
      </trkpt>
      <trkpt lat="45.09546" lon="4.20416">
        <ele>1047.4</ele>
        <time>2026-04-25T10:35:51Z</time>
      </trkpt>
      <trkpt lat="45.09539" lon="4.20414">
        <ele>1047.5</ele>
        <time>2026-04-25T10:35:56Z</time>
      </trkpt>
      <trkpt lat="45.09532" lon="4.20412">
        <ele>1047.5</ele>
        <time>2026-04-25T10:36:01Z</time>
      </trkpt>
      <trkpt lat="45.09525" lon="4.20408">
        <ele>1047.5</ele>
        <time>2026-04-25T10:36:06Z</time>
      </trkpt>
      <trkpt lat="45.09519" lon="4.20403">
        <ele>1047.4</ele>
        <time>2026-04-25T10:36:11Z</time>
      </trkpt>
      <trkpt lat="45.09513" lon="4.20399">
        <ele>1047.4</ele>
        <time>2026-04-25T10:36:16Z</time>
      </trkpt>
      <trkpt lat="45.09506" lon="4.20395">
        <ele>1047.4</ele>
        <time>2026-04-25T10:36:21Z</time>
      </trkpt>
      <trkpt lat="45.09499" lon="4.2039">
        <ele>1047.3</ele>
        <time>2026-04-25T10:36:26Z</time>
      </trkpt>
      <trkpt lat="45.09491" lon="4.20384">
        <ele>1046.9</ele>
        <time>2026-04-25T10:36:31Z</time>
      </trkpt>
      <trkpt lat="45.09484" lon="4.2038">
        <ele>1046.5</ele>
        <time>2026-04-25T10:36:36Z</time>
      </trkpt>
      <trkpt lat="45.09479" lon="4.20373">
        <ele>1046.2</ele>
        <time>2026-04-25T10:36:41Z</time>
      </trkpt>
      <trkpt lat="45.09475" lon="4.20366">
        <ele>1045.9</ele>
        <time>2026-04-25T10:36:46Z</time>
      </trkpt>
      <trkpt lat="45.0947" lon="4.20363">
        <ele>1045.6</ele>
        <time>2026-04-25T10:36:51Z</time>
      </trkpt>
      <trkpt lat="45.09464" lon="4.20358">
        <ele>1045.3</ele>
        <time>2026-04-25T10:36:56Z</time>
      </trkpt>
      <trkpt lat="45.09458" lon="4.20353">
        <ele>1045</ele>
        <time>2026-04-25T10:37:01Z</time>
      </trkpt>
      <trkpt lat="45.09449" lon="4.2035">
        <ele>1044.6</ele>
        <time>2026-04-25T10:37:06Z</time>
      </trkpt>
      <trkpt lat="45.09443" lon="4.20343">
        <ele>1044.2</ele>
        <time>2026-04-25T10:37:11Z</time>
      </trkpt>
      <trkpt lat="45.09434" lon="4.20334">
        <ele>1043.6</ele>
        <time>2026-04-25T10:37:16Z</time>
      </trkpt>
      <trkpt lat="45.09428" lon="4.20324">
        <ele>1043.1</ele>
        <time>2026-04-25T10:37:21Z</time>
      </trkpt>
      <trkpt lat="45.09422" lon="4.20319">
        <ele>1042.8</ele>
        <time>2026-04-25T10:37:26Z</time>
      </trkpt>
      <trkpt lat="45.09423" lon="4.20315">
        <ele>1042.7</ele>
        <time>2026-04-25T10:37:31Z</time>
      </trkpt>
      <trkpt lat="45.09429" lon="4.20313">
        <ele>1042.8</ele>
        <time>2026-04-25T10:37:36Z</time>
      </trkpt>
      <trkpt lat="45.09427" lon="4.20311">
        <ele>1042.7</ele>
        <time>2026-04-25T10:37:41Z</time>
      </trkpt>
      <trkpt lat="45.09418" lon="4.20306">
        <ele>1042.4</ele>
        <time>2026-04-25T10:37:46Z</time>
      </trkpt>
      <trkpt lat="45.09411" lon="4.20305">
        <ele>1042</ele>
        <time>2026-04-25T10:37:51Z</time>
      </trkpt>
      <trkpt lat="45.09403" lon="4.20303">
        <ele>1041.6</ele>
        <time>2026-04-25T10:37:56Z</time>
      </trkpt>
      <trkpt lat="45.09397" lon="4.20296">
        <ele>1041.2</ele>
        <time>2026-04-25T10:38:01Z</time>
      </trkpt>
      <trkpt lat="45.09392" lon="4.20291">
        <ele>1041</ele>
        <time>2026-04-25T10:38:06Z</time>
      </trkpt>
      <trkpt lat="45.09388" lon="4.20284">
        <ele>1040.7</ele>
        <time>2026-04-25T10:38:11Z</time>
      </trkpt>
      <trkpt lat="45.09383" lon="4.20276">
        <ele>1040.4</ele>
        <time>2026-04-25T10:38:16Z</time>
      </trkpt>
      <trkpt lat="45.09375" lon="4.20267">
        <ele>1040.1</ele>
        <time>2026-04-25T10:38:21Z</time>
      </trkpt>
      <trkpt lat="45.09369" lon="4.20262">
        <ele>1039.9</ele>
        <time>2026-04-25T10:38:26Z</time>
      </trkpt>
      <trkpt lat="45.09364" lon="4.20255">
        <ele>1039.7</ele>
        <time>2026-04-25T10:38:31Z</time>
      </trkpt>
      <trkpt lat="45.0936" lon="4.20246">
        <ele>1039.7</ele>
        <time>2026-04-25T10:38:36Z</time>
      </trkpt>
      <trkpt lat="45.09357" lon="4.20235">
        <ele>1039.7</ele>
        <time>2026-04-25T10:38:41Z</time>
      </trkpt>
      <trkpt lat="45.09358" lon="4.20224">
        <ele>1039.8</ele>
        <time>2026-04-25T10:38:46Z</time>
      </trkpt>
      <trkpt lat="45.09359" lon="4.20216">
        <ele>1039.9</ele>
        <time>2026-04-25T10:38:51Z</time>
      </trkpt>
      <trkpt lat="45.0936" lon="4.20206">
        <ele>1040</ele>
        <time>2026-04-25T10:38:56Z</time>
      </trkpt>
      <trkpt lat="45.09361" lon="4.20194">
        <ele>1040.1</ele>
        <time>2026-04-25T10:39:01Z</time>
      </trkpt>
      <trkpt lat="45.09362" lon="4.20183">
        <ele>1040.2</ele>
        <time>2026-04-25T10:39:06Z</time>
      </trkpt>
      <trkpt lat="45.09363" lon="4.20174">
        <ele>1040.3</ele>
        <time>2026-04-25T10:39:11Z</time>
      </trkpt>
      <trkpt lat="45.09365" lon="4.20164">
        <ele>1040.4</ele>
        <time>2026-04-25T10:39:16Z</time>
      </trkpt>
      <trkpt lat="45.09365" lon="4.20155">
        <ele>1040.4</ele>
        <time>2026-04-25T10:39:21Z</time>
      </trkpt>
      <trkpt lat="45.09366" lon="4.20147">
        <ele>1040.4</ele>
        <time>2026-04-25T10:39:26Z</time>
      </trkpt>
      <trkpt lat="45.09368" lon="4.2014">
        <ele>1040.5</ele>
        <time>2026-04-25T10:39:31Z</time>
      </trkpt>
      <trkpt lat="45.09369" lon="4.20132">
        <ele>1040.5</ele>
        <time>2026-04-25T10:39:36Z</time>
      </trkpt>
      <trkpt lat="45.09367" lon="4.20126">
        <ele>1040.5</ele>
        <time>2026-04-25T10:39:41Z</time>
      </trkpt>
      <trkpt lat="45.09361" lon="4.20122">
        <ele>1040.3</ele>
        <time>2026-04-25T10:39:46Z</time>
      </trkpt>
      <trkpt lat="45.0936" lon="4.20121">
        <ele>1040.3</ele>
        <time>2026-04-25T10:39:51Z</time>
      </trkpt>
      <trkpt lat="45.0936" lon="4.20121">
        <ele>1040.3</ele>
        <time>2026-04-25T10:39:56Z</time>
      </trkpt>
      <trkpt lat="45.0936" lon="4.20121">
        <ele>1040.3</ele>
        <time>2026-04-25T10:40:01Z</time>
      </trkpt>
      <trkpt lat="45.0936" lon="4.20121">
        <ele>1040.3</ele>
        <time>2026-04-25T10:40:06Z</time>
      </trkpt>
      <trkpt lat="45.09362" lon="4.20115">
        <ele>1040.4</ele>
        <time>2026-04-25T10:40:11Z</time>
      </trkpt>
      <trkpt lat="45.09364" lon="4.20106">
        <ele>1040.4</ele>
        <time>2026-04-25T10:40:16Z</time>
      </trkpt>
      <trkpt lat="45.09365" lon="4.20095">
        <ele>1040.5</ele>
        <time>2026-04-25T10:40:21Z</time>
      </trkpt>
      <trkpt lat="45.09365" lon="4.20091">
        <ele>1040.5</ele>
        <time>2026-04-25T10:40:26Z</time>
      </trkpt>
      <trkpt lat="45.09362" lon="4.2009">
        <ele>1040.4</ele>
        <time>2026-04-25T10:40:31Z</time>
      </trkpt>
      <trkpt lat="45.09362" lon="4.20089">
        <ele>1040.4</ele>
        <time>2026-04-25T10:40:36Z</time>
      </trkpt>
      <trkpt lat="45.09366" lon="4.20098">
        <ele>1040.5</ele>
        <time>2026-04-25T10:40:41Z</time>
      </trkpt>
      <trkpt lat="45.09367" lon="4.20098">
        <ele>1040.6</ele>
        <time>2026-04-25T10:40:46Z</time>
      </trkpt>
      <trkpt lat="45.09367" lon="4.20098">
        <ele>1040.6</ele>
        <time>2026-04-25T10:40:51Z</time>
      </trkpt>
      <trkpt lat="45.0937" lon="4.201">
        <ele>1040.7</ele>
        <time>2026-04-25T10:40:56Z</time>
      </trkpt>
      <trkpt lat="45.09375" lon="4.20099">
        <ele>1040.9</ele>
        <time>2026-04-25T10:41:01Z</time>
      </trkpt>
      <trkpt lat="45.0938" lon="4.20096">
        <ele>1041.1</ele>
        <time>2026-04-25T10:41:06Z</time>
      </trkpt>
      <trkpt lat="45.09388" lon="4.20095">
        <ele>1041.5</ele>
        <time>2026-04-25T10:41:11Z</time>
      </trkpt>
      <trkpt lat="45.09396" lon="4.20093">
        <ele>1041.9</ele>
        <time>2026-04-25T10:41:16Z</time>
      </trkpt>
      <trkpt lat="45.09405" lon="4.20091">
        <ele>1042.3</ele>
        <time>2026-04-25T10:41:21Z</time>
      </trkpt>
      <trkpt lat="45.09412" lon="4.20088">
        <ele>1042.7</ele>
        <time>2026-04-25T10:41:26Z</time>
      </trkpt>
      <trkpt lat="45.09418" lon="4.20084">
        <ele>1042.9</ele>
        <time>2026-04-25T10:41:31Z</time>
      </trkpt>
      <trkpt lat="45.09424" lon="4.20081">
        <ele>1042.7</ele>
        <time>2026-04-25T10:41:36Z</time>
      </trkpt>
      <trkpt lat="45.09433" lon="4.20078">
        <ele>1042.2</ele>
        <time>2026-04-25T10:41:41Z</time>
      </trkpt>
      <trkpt lat="45.0944" lon="4.20075">
        <ele>1042</ele>
        <time>2026-04-25T10:41:46Z</time>
      </trkpt>
      <trkpt lat="45.09448" lon="4.20073">
        <ele>1041.6</ele>
        <time>2026-04-25T10:41:51Z</time>
      </trkpt>
      <trkpt lat="45.09454" lon="4.2007">
        <ele>1041.5</ele>
        <time>2026-04-25T10:41:56Z</time>
      </trkpt>
      <trkpt lat="45.09459" lon="4.20068">
        <ele>1041.3</ele>
        <time>2026-04-25T10:42:01Z</time>
      </trkpt>
      <trkpt lat="45.09466" lon="4.20066">
        <ele>1041</ele>
        <time>2026-04-25T10:42:06Z</time>
      </trkpt>
      <trkpt lat="45.09472" lon="4.20064">
        <ele>1040.8</ele>
        <time>2026-04-25T10:42:11Z</time>
      </trkpt>
      <trkpt lat="45.09476" lon="4.20062">
        <ele>1040.8</ele>
        <time>2026-04-25T10:42:16Z</time>
      </trkpt>
      <trkpt lat="45.09483" lon="4.20059">
        <ele>1040.6</ele>
        <time>2026-04-25T10:42:21Z</time>
      </trkpt>
      <trkpt lat="45.0949" lon="4.20055">
        <ele>1040.5</ele>
        <time>2026-04-25T10:42:26Z</time>
      </trkpt>
      <trkpt lat="45.09497" lon="4.20053">
        <ele>1040.3</ele>
        <time>2026-04-25T10:42:31Z</time>
      </trkpt>
      <trkpt lat="45.09506" lon="4.20049">
        <ele>1039.7</ele>
        <time>2026-04-25T10:42:36Z</time>
      </trkpt>
      <trkpt lat="45.09516" lon="4.20047">
        <ele>1038.6</ele>
        <time>2026-04-25T10:42:41Z</time>
      </trkpt>
      <trkpt lat="45.09522" lon="4.20043">
        <ele>1038</ele>
        <time>2026-04-25T10:42:46Z</time>
      </trkpt>
      <trkpt lat="45.09529" lon="4.20039">
        <ele>1037.3</ele>
        <time>2026-04-25T10:42:51Z</time>
      </trkpt>
      <trkpt lat="45.09534" lon="4.20036">
        <ele>1036.8</ele>
        <time>2026-04-25T10:42:56Z</time>
      </trkpt>
      <trkpt lat="45.0954" lon="4.20028">
        <ele>1036.4</ele>
        <time>2026-04-25T10:43:01Z</time>
      </trkpt>
      <trkpt lat="45.09544" lon="4.20018">
        <ele>1036.3</ele>
        <time>2026-04-25T10:43:06Z</time>
      </trkpt>
      <trkpt lat="45.09548" lon="4.2001">
        <ele>1036.1</ele>
        <time>2026-04-25T10:43:11Z</time>
      </trkpt>
      <trkpt lat="45.09551" lon="4.20002">
        <ele>1036</ele>
        <time>2026-04-25T10:43:16Z</time>
      </trkpt>
      <trkpt lat="45.09554" lon="4.19991">
        <ele>1036.4</ele>
        <time>2026-04-25T10:43:21Z</time>
      </trkpt>
      <trkpt lat="45.09556" lon="4.19981">
        <ele>1037.1</ele>
        <time>2026-04-25T10:43:26Z</time>
      </trkpt>
      <trkpt lat="45.09558" lon="4.19971">
        <ele>1037.7</ele>
        <time>2026-04-25T10:43:31Z</time>
      </trkpt>
      <trkpt lat="45.09562" lon="4.19965">
        <ele>1037.7</ele>
        <time>2026-04-25T10:43:36Z</time>
      </trkpt>
      <trkpt lat="45.09563" lon="4.19964">
        <ele>1037.6</ele>
        <time>2026-04-25T10:43:41Z</time>
      </trkpt>
      <trkpt lat="45.09564" lon="4.19964">
        <ele>1037.5</ele>
        <time>2026-04-25T10:43:46Z</time>
      </trkpt>
      <trkpt lat="45.09567" lon="4.19948">
        <ele>1038.5</ele>
        <time>2026-04-25T10:43:51Z</time>
      </trkpt>
      <trkpt lat="45.09569" lon="4.19939">
        <ele>1039.1</ele>
        <time>2026-04-25T10:43:56Z</time>
      </trkpt>
      <trkpt lat="45.09573" lon="4.19928">
        <ele>1039.5</ele>
        <time>2026-04-25T10:44:01Z</time>
      </trkpt>
      <trkpt lat="45.09575" lon="4.19918">
        <ele>1040.2</ele>
        <time>2026-04-25T10:44:06Z</time>
      </trkpt>
      <trkpt lat="45.09577" lon="4.19907">
        <ele>1041.1</ele>
        <time>2026-04-25T10:44:11Z</time>
      </trkpt>
      <trkpt lat="45.09579" lon="4.19897">
        <ele>1042</ele>
        <time>2026-04-25T10:44:16Z</time>
      </trkpt>
      <trkpt lat="45.09582" lon="4.19887">
        <ele>1042.8</ele>
        <time>2026-04-25T10:44:21Z</time>
      </trkpt>
      <trkpt lat="45.09584" lon="4.19876">
        <ele>1043.7</ele>
        <time>2026-04-25T10:44:26Z</time>
      </trkpt>
      <trkpt lat="45.09586" lon="4.19865">
        <ele>1044.3</ele>
        <time>2026-04-25T10:44:31Z</time>
      </trkpt>
      <trkpt lat="45.09587" lon="4.19857">
        <ele>1044.9</ele>
        <time>2026-04-25T10:44:36Z</time>
      </trkpt>
      <trkpt lat="45.09591" lon="4.1985">
        <ele>1044.4</ele>
        <time>2026-04-25T10:44:41Z</time>
      </trkpt>
      <trkpt lat="45.09593" lon="4.19845">
        <ele>1044.2</ele>
        <time>2026-04-25T10:44:46Z</time>
      </trkpt>
      <trkpt lat="45.09593" lon="4.19836">
        <ele>1045.2</ele>
        <time>2026-04-25T10:44:51Z</time>
      </trkpt>
      <trkpt lat="45.09592" lon="4.19828">
        <ele>1045.7</ele>
        <time>2026-04-25T10:44:56Z</time>
      </trkpt>
      <trkpt lat="45.0959" lon="4.19823">
        <ele>1046.3</ele>
        <time>2026-04-25T10:45:01Z</time>
      </trkpt>
      <trkpt lat="45.0959" lon="4.1982">
        <ele>1046.2</ele>
        <time>2026-04-25T10:45:06Z</time>
      </trkpt>
      <trkpt lat="45.09589" lon="4.1982">
        <ele>1046.5</ele>
        <time>2026-04-25T10:45:11Z</time>
      </trkpt>
      <trkpt lat="45.09589" lon="4.1982">
        <ele>1046.5</ele>
        <time>2026-04-25T10:45:16Z</time>
      </trkpt>
      <trkpt lat="45.09589" lon="4.1982">
        <ele>1046.5</ele>
        <time>2026-04-25T10:45:21Z</time>
      </trkpt>
      <trkpt lat="45.09589" lon="4.1982">
        <ele>1046.5</ele>
        <time>2026-04-25T10:45:26Z</time>
      </trkpt>
      <trkpt lat="45.09589" lon="4.1982">
        <ele>1046.5</ele>
        <time>2026-04-25T10:45:31Z</time>
      </trkpt>
      <trkpt lat="45.09589" lon="4.1982">
        <ele>1046.5</ele>
        <time>2026-04-25T10:45:36Z</time>
      </trkpt>
      <trkpt lat="45.09589" lon="4.1982">
        <ele>1046.5</ele>
        <time>2026-04-25T10:45:41Z</time>
      </trkpt>
      <trkpt lat="45.09589" lon="4.1982">
        <ele>1046.5</ele>
        <time>2026-04-25T10:45:46Z</time>
      </trkpt>
      <trkpt lat="45.09589" lon="4.1982">
        <ele>1046.5</ele>
        <time>2026-04-25T10:45:51Z</time>
      </trkpt>
      <trkpt lat="45.09589" lon="4.1982">
        <ele>1046.5</ele>
        <time>2026-04-25T10:45:56Z</time>
      </trkpt>
      <trkpt lat="45.09589" lon="4.1982">
        <ele>1046.5</ele>
        <time>2026-04-25T10:46:01Z</time>
      </trkpt>
      <trkpt lat="45.09589" lon="4.1982">
        <ele>1046.5</ele>
        <time>2026-04-25T10:46:06Z</time>
      </trkpt>
      <trkpt lat="45.09589" lon="4.1982">
        <ele>1046.5</ele>
        <time>2026-04-25T10:46:11Z</time>
      </trkpt>
      <trkpt lat="45.09589" lon="4.1982">
        <ele>1046.5</ele>
        <time>2026-04-25T10:46:16Z</time>
      </trkpt>
      <trkpt lat="45.09589" lon="4.1982">
        <ele>1046.5</ele>
        <time>2026-04-25T10:46:21Z</time>
      </trkpt>
      <trkpt lat="45.09589" lon="4.1982">
        <ele>1046.5</ele>
        <time>2026-04-25T10:46:26Z</time>
      </trkpt>
      <trkpt lat="45.09589" lon="4.1982">
        <ele>1046.5</ele>
        <time>2026-04-25T10:46:31Z</time>
      </trkpt>
      <trkpt lat="45.09589" lon="4.1982">
        <ele>1046.5</ele>
        <time>2026-04-25T10:46:36Z</time>
      </trkpt>
      <trkpt lat="45.09589" lon="4.1982">
        <ele>1046.5</ele>
        <time>2026-04-25T10:46:41Z</time>
      </trkpt>
      <trkpt lat="45.09589" lon="4.1982">
        <ele>1046.5</ele>
        <time>2026-04-25T10:46:46Z</time>
      </trkpt>
      <trkpt lat="45.09589" lon="4.1982">
        <ele>1046.5</ele>
        <time>2026-04-25T10:46:51Z</time>
      </trkpt>
      <trkpt lat="45.09589" lon="4.1982">
        <ele>1046.5</ele>
        <time>2026-04-25T10:46:56Z</time>
      </trkpt>
      <trkpt lat="45.09589" lon="4.1982">
        <ele>1046.5</ele>
        <time>2026-04-25T10:47:01Z</time>
      </trkpt>
      <trkpt lat="45.09589" lon="4.1982">
        <ele>1046.5</ele>
        <time>2026-04-25T10:47:06Z</time>
      </trkpt>
      <trkpt lat="45.09589" lon="4.1982">
        <ele>1046.5</ele>
        <time>2026-04-25T10:47:11Z</time>
      </trkpt>
      <trkpt lat="45.09589" lon="4.1982">
        <ele>1046.5</ele>
        <time>2026-04-25T10:47:16Z</time>
      </trkpt>
      <trkpt lat="45.09589" lon="4.1982">
        <ele>1046.5</ele>
        <time>2026-04-25T10:47:21Z</time>
      </trkpt>
      <trkpt lat="45.09589" lon="4.1982">
        <ele>1046.5</ele>
        <time>2026-04-25T10:47:26Z</time>
      </trkpt>
      <trkpt lat="45.09589" lon="4.1982">
        <ele>1046.5</ele>
        <time>2026-04-25T10:47:31Z</time>
      </trkpt>
      <trkpt lat="45.09589" lon="4.1982">
        <ele>1046.5</ele>
        <time>2026-04-25T10:47:36Z</time>
      </trkpt>
      <trkpt lat="45.09589" lon="4.1982">
        <ele>1046.5</ele>
        <time>2026-04-25T10:47:41Z</time>
      </trkpt>
      <trkpt lat="45.09589" lon="4.1982">
        <ele>1046.5</ele>
        <time>2026-04-25T10:47:46Z</time>
      </trkpt>
      <trkpt lat="45.09589" lon="4.1982">
        <ele>1046.5</ele>
        <time>2026-04-25T10:47:51Z</time>
      </trkpt>
      <trkpt lat="45.09589" lon="4.1982">
        <ele>1046.5</ele>
        <time>2026-04-25T10:47:56Z</time>
      </trkpt>
      <trkpt lat="45.09589" lon="4.1982">
        <ele>1046.5</ele>
        <time>2026-04-25T10:48:01Z</time>
      </trkpt>
      <trkpt lat="45.09589" lon="4.1982">
        <ele>1046.5</ele>
        <time>2026-04-25T10:48:06Z</time>
      </trkpt>
      <trkpt lat="45.09589" lon="4.1982">
        <ele>1046.5</ele>
        <time>2026-04-25T10:48:11Z</time>
      </trkpt>
      <trkpt lat="45.09589" lon="4.1982">
        <ele>1046.5</ele>
        <time>2026-04-25T10:48:16Z</time>
      </trkpt>
      <trkpt lat="45.09589" lon="4.1982">
        <ele>1046.5</ele>
        <time>2026-04-25T10:48:21Z</time>
      </trkpt>
      <trkpt lat="45.09589" lon="4.1982">
        <ele>1046.5</ele>
        <time>2026-04-25T10:48:26Z</time>
      </trkpt>
      <trkpt lat="45.09598" lon="4.1981">
        <ele>1043.2</ele>
        <time>2026-04-25T10:48:31Z</time>
      </trkpt>
      <trkpt lat="45.096" lon="4.198">
        <ele>1042.3</ele>
        <time>2026-04-25T10:48:36Z</time>
      </trkpt>
      <trkpt lat="45.09601" lon="4.19791">
        <ele>1041.8</ele>
        <time>2026-04-25T10:48:41Z</time>
      </trkpt>
      <trkpt lat="45.09599" lon="4.19783">
        <ele>1042.2</ele>
        <time>2026-04-25T10:48:46Z</time>
      </trkpt>
      <trkpt lat="45.096" lon="4.19773">
        <ele>1041.7</ele>
        <time>2026-04-25T10:48:51Z</time>
      </trkpt>
      <trkpt lat="45.096" lon="4.19765">
        <ele>1041.5</ele>
        <time>2026-04-25T10:48:56Z</time>
      </trkpt>
      <trkpt lat="45.096" lon="4.19755">
        <ele>1041.3</ele>
        <time>2026-04-25T10:49:01Z</time>
      </trkpt>
      <trkpt lat="45.09597" lon="4.19746">
        <ele>1041.6</ele>
        <time>2026-04-25T10:49:06Z</time>
      </trkpt>
      <trkpt lat="45.09595" lon="4.19736">
        <ele>1041.1</ele>
        <time>2026-04-25T10:49:11Z</time>
      </trkpt>
      <trkpt lat="45.09593" lon="4.19727">
        <ele>1040.6</ele>
        <time>2026-04-25T10:49:16Z</time>
      </trkpt>
      <trkpt lat="45.09593" lon="4.19718">
        <ele>1039.6</ele>
        <time>2026-04-25T10:49:21Z</time>
      </trkpt>
      <trkpt lat="45.09593" lon="4.1971">
        <ele>1038.8</ele>
        <time>2026-04-25T10:49:26Z</time>
      </trkpt>
      <trkpt lat="45.09593" lon="4.19706">
        <ele>1038.3</ele>
        <time>2026-04-25T10:49:31Z</time>
      </trkpt>
      <trkpt lat="45.09593" lon="4.19705">
        <ele>1038.2</ele>
        <time>2026-04-25T10:49:36Z</time>
      </trkpt>
      <trkpt lat="45.09593" lon="4.19697">
        <ele>1037.3</ele>
        <time>2026-04-25T10:49:41Z</time>
      </trkpt>
      <trkpt lat="45.09592" lon="4.19686">
        <ele>1036.3</ele>
        <time>2026-04-25T10:49:46Z</time>
      </trkpt>
      <trkpt lat="45.09592" lon="4.19676">
        <ele>1035.2</ele>
        <time>2026-04-25T10:49:51Z</time>
      </trkpt>
      <trkpt lat="45.09591" lon="4.19669">
        <ele>1034.6</ele>
        <time>2026-04-25T10:49:56Z</time>
      </trkpt>
      <trkpt lat="45.09591" lon="4.19662">
        <ele>1033.9</ele>
        <time>2026-04-25T10:50:01Z</time>
      </trkpt>
      <trkpt lat="45.09593" lon="4.19654">
        <ele>1032.8</ele>
        <time>2026-04-25T10:50:06Z</time>
      </trkpt>
      <trkpt lat="45.09592" lon="4.19646">
        <ele>1032.3</ele>
        <time>2026-04-25T10:50:11Z</time>
      </trkpt>
      <trkpt lat="45.09592" lon="4.19637">
        <ele>1031.5</ele>
        <time>2026-04-25T10:50:16Z</time>
      </trkpt>
      <trkpt lat="45.09591" lon="4.19628">
        <ele>1030.9</ele>
        <time>2026-04-25T10:50:21Z</time>
      </trkpt>
      <trkpt lat="45.09586" lon="4.19619">
        <ele>1031.3</ele>
        <time>2026-04-25T10:50:26Z</time>
      </trkpt>
      <trkpt lat="45.09583" lon="4.19611">
        <ele>1031.4</ele>
        <time>2026-04-25T10:50:31Z</time>
      </trkpt>
      <trkpt lat="45.09579" lon="4.196">
        <ele>1031.3</ele>
        <time>2026-04-25T10:50:36Z</time>
      </trkpt>
      <trkpt lat="45.09576" lon="4.19591">
        <ele>1031.2</ele>
        <time>2026-04-25T10:50:41Z</time>
      </trkpt>
      <trkpt lat="45.09574" lon="4.19581">
        <ele>1030.7</ele>
        <time>2026-04-25T10:50:46Z</time>
      </trkpt>
      <trkpt lat="45.09572" lon="4.19574">
        <ele>1030.4</ele>
        <time>2026-04-25T10:50:51Z</time>
      </trkpt>
      <trkpt lat="45.09572" lon="4.19559">
        <ele>1028.6</ele>
        <time>2026-04-25T10:50:56Z</time>
      </trkpt>
      <trkpt lat="45.0957" lon="4.19543">
        <ele>1027.3</ele>
        <time>2026-04-25T10:51:01Z</time>
      </trkpt>
      <trkpt lat="45.09569" lon="4.1953">
        <ele>1026</ele>
        <time>2026-04-25T10:51:06Z</time>
      </trkpt>
      <trkpt lat="45.09569" lon="4.19519">
        <ele>1024.8</ele>
        <time>2026-04-25T10:51:11Z</time>
      </trkpt>
      <trkpt lat="45.09569" lon="4.19509">
        <ele>1023.7</ele>
        <time>2026-04-25T10:51:16Z</time>
      </trkpt>
      <trkpt lat="45.09567" lon="4.195">
        <ele>1023.3</ele>
        <time>2026-04-25T10:51:21Z</time>
      </trkpt>
      <trkpt lat="45.09566" lon="4.19489">
        <ele>1023.1</ele>
        <time>2026-04-25T10:51:26Z</time>
      </trkpt>
      <trkpt lat="45.09567" lon="4.19481">
        <ele>1022.5</ele>
        <time>2026-04-25T10:51:31Z</time>
      </trkpt>
      <trkpt lat="45.09567" lon="4.19473">
        <ele>1022.1</ele>
        <time>2026-04-25T10:51:36Z</time>
      </trkpt>
      <trkpt lat="45.09566" lon="4.19465">
        <ele>1022.1</ele>
        <time>2026-04-25T10:51:41Z</time>
      </trkpt>
      <trkpt lat="45.09566" lon="4.19458">
        <ele>1021.8</ele>
        <time>2026-04-25T10:51:46Z</time>
      </trkpt>
      <trkpt lat="45.09566" lon="4.19448">
        <ele>1021.4</ele>
        <time>2026-04-25T10:51:51Z</time>
      </trkpt>
      <trkpt lat="45.09564" lon="4.19439">
        <ele>1021.6</ele>
        <time>2026-04-25T10:51:56Z</time>
      </trkpt>
      <trkpt lat="45.09563" lon="4.19431">
        <ele>1021.5</ele>
        <time>2026-04-25T10:52:01Z</time>
      </trkpt>
      <trkpt lat="45.09561" lon="4.19422">
        <ele>1021.7</ele>
        <time>2026-04-25T10:52:06Z</time>
      </trkpt>
      <trkpt lat="45.09558" lon="4.19413">
        <ele>1022.4</ele>
        <time>2026-04-25T10:52:11Z</time>
      </trkpt>
      <trkpt lat="45.09557" lon="4.19406">
        <ele>1022.8</ele>
        <time>2026-04-25T10:52:16Z</time>
      </trkpt>
      <trkpt lat="45.09555" lon="4.19398">
        <ele>1023.5</ele>
        <time>2026-04-25T10:52:21Z</time>
      </trkpt>
      <trkpt lat="45.09553" lon="4.19388">
        <ele>1024.3</ele>
        <time>2026-04-25T10:52:26Z</time>
      </trkpt>
      <trkpt lat="45.09552" lon="4.19376">
        <ele>1024.8</ele>
        <time>2026-04-25T10:52:31Z</time>
      </trkpt>
      <trkpt lat="45.09551" lon="4.19367">
        <ele>1025.2</ele>
        <time>2026-04-25T10:52:36Z</time>
      </trkpt>
      <trkpt lat="45.09549" lon="4.19357">
        <ele>1025.9</ele>
        <time>2026-04-25T10:52:41Z</time>
      </trkpt>
      <trkpt lat="45.09545" lon="4.19347">
        <ele>1027</ele>
        <time>2026-04-25T10:52:46Z</time>
      </trkpt>
      <trkpt lat="45.09543" lon="4.19337">
        <ele>1027.6</ele>
        <time>2026-04-25T10:52:51Z</time>
      </trkpt>
      <trkpt lat="45.09542" lon="4.19327">
        <ele>1027.9</ele>
        <time>2026-04-25T10:52:56Z</time>
      </trkpt>
      <trkpt lat="45.09542" lon="4.19319">
        <ele>1027.9</ele>
        <time>2026-04-25T10:53:01Z</time>
      </trkpt>
      <trkpt lat="45.0954" lon="4.19313">
        <ele>1028.4</ele>
        <time>2026-04-25T10:53:06Z</time>
      </trkpt>
      <trkpt lat="45.0954" lon="4.19306">
        <ele>1028.4</ele>
        <time>2026-04-25T10:53:11Z</time>
      </trkpt>
      <trkpt lat="45.09539" lon="4.193">
        <ele>1028.6</ele>
        <time>2026-04-25T10:53:16Z</time>
      </trkpt>
      <trkpt lat="45.0954" lon="4.19292">
        <ele>1028.4</ele>
        <time>2026-04-25T10:53:21Z</time>
      </trkpt>
      <trkpt lat="45.09539" lon="4.19284">
        <ele>1028.6</ele>
        <time>2026-04-25T10:53:26Z</time>
      </trkpt>
      <trkpt lat="45.09538" lon="4.19276">
        <ele>1028.9</ele>
        <time>2026-04-25T10:53:31Z</time>
      </trkpt>
      <trkpt lat="45.09537" lon="4.19268">
        <ele>1029.1</ele>
        <time>2026-04-25T10:53:36Z</time>
      </trkpt>
      <trkpt lat="45.09535" lon="4.19262">
        <ele>1029.6</ele>
        <time>2026-04-25T10:53:41Z</time>
      </trkpt>
      <trkpt lat="45.09534" lon="4.19251">
        <ele>1029.8</ele>
        <time>2026-04-25T10:53:46Z</time>
      </trkpt>
      <trkpt lat="45.09531" lon="4.19243">
        <ele>1030.4</ele>
        <time>2026-04-25T10:53:51Z</time>
      </trkpt>
      <trkpt lat="45.09531" lon="4.19236">
        <ele>1030.2</ele>
        <time>2026-04-25T10:53:56Z</time>
      </trkpt>
      <trkpt lat="45.0953" lon="4.19225">
        <ele>1030.2</ele>
        <time>2026-04-25T10:54:01Z</time>
      </trkpt>
      <trkpt lat="45.09529" lon="4.19218">
        <ele>1030.3</ele>
        <time>2026-04-25T10:54:06Z</time>
      </trkpt>
      <trkpt lat="45.09528" lon="4.19209">
        <ele>1030.3</ele>
        <time>2026-04-25T10:54:11Z</time>
      </trkpt>
      <trkpt lat="45.09528" lon="4.19195">
        <ele>1030</ele>
        <time>2026-04-25T10:54:16Z</time>
      </trkpt>
      <trkpt lat="45.09527" lon="4.19188">
        <ele>1030</ele>
        <time>2026-04-25T10:54:21Z</time>
      </trkpt>
      <trkpt lat="45.09525" lon="4.19181">
        <ele>1030.3</ele>
        <time>2026-04-25T10:54:26Z</time>
      </trkpt>
      <trkpt lat="45.09524" lon="4.1917">
        <ele>1030.3</ele>
        <time>2026-04-25T10:54:31Z</time>
      </trkpt>
      <trkpt lat="45.09523" lon="4.1916">
        <ele>1030.6</ele>
        <time>2026-04-25T10:54:36Z</time>
      </trkpt>
      <trkpt lat="45.09521" lon="4.19151">
        <ele>1031.1</ele>
        <time>2026-04-25T10:54:41Z</time>
      </trkpt>
      <trkpt lat="45.0952" lon="4.19141">
        <ele>1031.5</ele>
        <time>2026-04-25T10:54:46Z</time>
      </trkpt>
      <trkpt lat="45.09519" lon="4.19131">
        <ele>1031.9</ele>
        <time>2026-04-25T10:54:51Z</time>
      </trkpt>
      <trkpt lat="45.09518" lon="4.19123">
        <ele>1032.2</ele>
        <time>2026-04-25T10:54:56Z</time>
      </trkpt>
      <trkpt lat="45.09516" lon="4.19114">
        <ele>1032.8</ele>
        <time>2026-04-25T10:55:01Z</time>
      </trkpt>
      <trkpt lat="45.09515" lon="4.19103">
        <ele>1033.2</ele>
        <time>2026-04-25T10:55:06Z</time>
      </trkpt>
      <trkpt lat="45.09513" lon="4.19094">
        <ele>1033.8</ele>
        <time>2026-04-25T10:55:11Z</time>
      </trkpt>
      <trkpt lat="45.09508" lon="4.19086">
        <ele>1035</ele>
        <time>2026-04-25T10:55:16Z</time>
      </trkpt>
      <trkpt lat="45.09503" lon="4.19076">
        <ele>1036.3</ele>
        <time>2026-04-25T10:55:21Z</time>
      </trkpt>
      <trkpt lat="45.09501" lon="4.19067">
        <ele>1036.8</ele>
        <time>2026-04-25T10:55:26Z</time>
      </trkpt>
      <trkpt lat="45.09498" lon="4.19058">
        <ele>1037.6</ele>
        <time>2026-04-25T10:55:31Z</time>
      </trkpt>
      <trkpt lat="45.09494" lon="4.19048">
        <ele>1038.8</ele>
        <time>2026-04-25T10:55:36Z</time>
      </trkpt>
      <trkpt lat="45.09492" lon="4.19038">
        <ele>1039.4</ele>
        <time>2026-04-25T10:55:41Z</time>
      </trkpt>
      <trkpt lat="45.09489" lon="4.1903">
        <ele>1040.2</ele>
        <time>2026-04-25T10:55:46Z</time>
      </trkpt>
      <trkpt lat="45.09486" lon="4.19021">
        <ele>1041</ele>
        <time>2026-04-25T10:55:51Z</time>
      </trkpt>
      <trkpt lat="45.09484" lon="4.19013">
        <ele>1041.5</ele>
        <time>2026-04-25T10:55:56Z</time>
      </trkpt>
      <trkpt lat="45.09482" lon="4.19007">
        <ele>1042</ele>
        <time>2026-04-25T10:56:01Z</time>
      </trkpt>
      <trkpt lat="45.09479" lon="4.19003">
        <ele>1042.8</ele>
        <time>2026-04-25T10:56:06Z</time>
      </trkpt>
      <trkpt lat="45.09477" lon="4.18999">
        <ele>1043.3</ele>
        <time>2026-04-25T10:56:11Z</time>
      </trkpt>
      <trkpt lat="45.09476" lon="4.18999">
        <ele>1043.6</ele>
        <time>2026-04-25T10:56:16Z</time>
      </trkpt>
      <trkpt lat="45.09476" lon="4.18999">
        <ele>1043.6</ele>
        <time>2026-04-25T10:56:21Z</time>
      </trkpt>
      <trkpt lat="45.09475" lon="4.18995">
        <ele>1043.9</ele>
        <time>2026-04-25T10:56:26Z</time>
      </trkpt>
      <trkpt lat="45.09475" lon="4.1899">
        <ele>1043.8</ele>
        <time>2026-04-25T10:56:31Z</time>
      </trkpt>
      <trkpt lat="45.09474" lon="4.18984">
        <ele>1044</ele>
        <time>2026-04-25T10:56:36Z</time>
      </trkpt>
      <trkpt lat="45.09474" lon="4.18976">
        <ele>1043.9</ele>
        <time>2026-04-25T10:56:41Z</time>
      </trkpt>
      <trkpt lat="45.09474" lon="4.18969">
        <ele>1043.9</ele>
        <time>2026-04-25T10:56:46Z</time>
      </trkpt>
      <trkpt lat="45.09474" lon="4.18961">
        <ele>1043.8</ele>
        <time>2026-04-25T10:56:51Z</time>
      </trkpt>
      <trkpt lat="45.09474" lon="4.18954">
        <ele>1043.7</ele>
        <time>2026-04-25T10:56:56Z</time>
      </trkpt>
      <trkpt lat="45.09475" lon="4.18946">
        <ele>1043.4</ele>
        <time>2026-04-25T10:57:01Z</time>
      </trkpt>
      <trkpt lat="45.09475" lon="4.18937">
        <ele>1043.3</ele>
        <time>2026-04-25T10:57:06Z</time>
      </trkpt>
      <trkpt lat="45.09476" lon="4.18927">
        <ele>1043</ele>
        <time>2026-04-25T10:57:11Z</time>
      </trkpt>
      <trkpt lat="45.09476" lon="4.18918">
        <ele>1042.9</ele>
        <time>2026-04-25T10:57:16Z</time>
      </trkpt>
      <trkpt lat="45.09477" lon="4.18909">
        <ele>1042.7</ele>
        <time>2026-04-25T10:57:21Z</time>
      </trkpt>
      <trkpt lat="45.09478" lon="4.189">
        <ele>1042.6</ele>
        <time>2026-04-25T10:57:26Z</time>
      </trkpt>
      <trkpt lat="45.09478" lon="4.1889">
        <ele>1042.7</ele>
        <time>2026-04-25T10:57:31Z</time>
      </trkpt>
      <trkpt lat="45.09478" lon="4.18882">
        <ele>1042.8</ele>
        <time>2026-04-25T10:57:36Z</time>
      </trkpt>
      <trkpt lat="45.09478" lon="4.18874">
        <ele>1042.8</ele>
        <time>2026-04-25T10:57:41Z</time>
      </trkpt>
      <trkpt lat="45.09481" lon="4.18866">
        <ele>1042.4</ele>
        <time>2026-04-25T10:57:46Z</time>
      </trkpt>
      <trkpt lat="45.09482" lon="4.18858">
        <ele>1042.3</ele>
        <time>2026-04-25T10:57:51Z</time>
      </trkpt>
      <trkpt lat="45.09485" lon="4.18848">
        <ele>1042</ele>
        <time>2026-04-25T10:57:56Z</time>
      </trkpt>
      <trkpt lat="45.09486" lon="4.18842">
        <ele>1041.9</ele>
        <time>2026-04-25T10:58:01Z</time>
      </trkpt>
      <trkpt lat="45.09489" lon="4.18834">
        <ele>1041.6</ele>
        <time>2026-04-25T10:58:06Z</time>
      </trkpt>
      <trkpt lat="45.0949" lon="4.18825">
        <ele>1041.4</ele>
        <time>2026-04-25T10:58:11Z</time>
      </trkpt>
      <trkpt lat="45.09493" lon="4.18817">
        <ele>1040.9</ele>
        <time>2026-04-25T10:58:16Z</time>
      </trkpt>
      <trkpt lat="45.09496" lon="4.18811">
        <ele>1040.5</ele>
        <time>2026-04-25T10:58:21Z</time>
      </trkpt>
      <trkpt lat="45.09498" lon="4.18805">
        <ele>1040.2</ele>
        <time>2026-04-25T10:58:26Z</time>
      </trkpt>
      <trkpt lat="45.09501" lon="4.188">
        <ele>1039.9</ele>
        <time>2026-04-25T10:58:31Z</time>
      </trkpt>
      <trkpt lat="45.09506" lon="4.18792">
        <ele>1039.5</ele>
        <time>2026-04-25T10:58:36Z</time>
      </trkpt>
      <trkpt lat="45.09511" lon="4.18784">
        <ele>1039.1</ele>
        <time>2026-04-25T10:58:41Z</time>
      </trkpt>
      <trkpt lat="45.09514" lon="4.18775">
        <ele>1039</ele>
        <time>2026-04-25T10:58:46Z</time>
      </trkpt>
      <trkpt lat="45.09519" lon="4.18767">
        <ele>1038.8</ele>
        <time>2026-04-25T10:58:51Z</time>
      </trkpt>
      <trkpt lat="45.09523" lon="4.18758">
        <ele>1038.7</ele>
        <time>2026-04-25T10:58:56Z</time>
      </trkpt>
      <trkpt lat="45.09527" lon="4.18751">
        <ele>1038.7</ele>
        <time>2026-04-25T10:59:01Z</time>
      </trkpt>
      <trkpt lat="45.09531" lon="4.18743">
        <ele>1038.2</ele>
        <time>2026-04-25T10:59:06Z</time>
      </trkpt>
      <trkpt lat="45.09532" lon="4.18737">
        <ele>1038</ele>
        <time>2026-04-25T10:59:11Z</time>
      </trkpt>
      <trkpt lat="45.0953" lon="4.18732">
        <ele>1037.9</ele>
        <time>2026-04-25T10:59:16Z</time>
      </trkpt>
      <trkpt lat="45.09523" lon="4.18731">
        <ele>1038.1</ele>
        <time>2026-04-25T10:59:21Z</time>
      </trkpt>
      <trkpt lat="45.09517" lon="4.18732">
        <ele>1038.4</ele>
        <time>2026-04-25T10:59:26Z</time>
      </trkpt>
      <trkpt lat="45.0951" lon="4.18734">
        <ele>1038.8</ele>
        <time>2026-04-25T10:59:31Z</time>
      </trkpt>
      <trkpt lat="45.09504" lon="4.18734">
        <ele>1039.1</ele>
        <time>2026-04-25T10:59:36Z</time>
      </trkpt>
      <trkpt lat="45.09497" lon="4.18735">
        <ele>1039.5</ele>
        <time>2026-04-25T10:59:41Z</time>
      </trkpt>
      <trkpt lat="45.0949" lon="4.18736">
        <ele>1039.9</ele>
        <time>2026-04-25T10:59:46Z</time>
      </trkpt>
      <trkpt lat="45.09483" lon="4.18736">
        <ele>1040.4</ele>
        <time>2026-04-25T10:59:51Z</time>
      </trkpt>
      <trkpt lat="45.09476" lon="4.18737">
        <ele>1040.9</ele>
        <time>2026-04-25T10:59:56Z</time>
      </trkpt>
      <trkpt lat="45.0947" lon="4.18737">
        <ele>1041.3</ele>
        <time>2026-04-25T11:00:01Z</time>
      </trkpt>
      <trkpt lat="45.09463" lon="4.18736">
        <ele>1041.6</ele>
        <time>2026-04-25T11:00:06Z</time>
      </trkpt>
      <trkpt lat="45.09455" lon="4.18738">
        <ele>1042.3</ele>
        <time>2026-04-25T11:00:11Z</time>
      </trkpt>
      <trkpt lat="45.09448" lon="4.18737">
        <ele>1042.6</ele>
        <time>2026-04-25T11:00:16Z</time>
      </trkpt>
      <trkpt lat="45.09441" lon="4.18738">
        <ele>1043.2</ele>
        <time>2026-04-25T11:00:21Z</time>
      </trkpt>
      <trkpt lat="45.09435" lon="4.18738">
        <ele>1043.5</ele>
        <time>2026-04-25T11:00:26Z</time>
      </trkpt>
      <trkpt lat="45.09431" lon="4.18739">
        <ele>1043.9</ele>
        <time>2026-04-25T11:00:31Z</time>
      </trkpt>
      <trkpt lat="45.09431" lon="4.1874">
        <ele>1044</ele>
        <time>2026-04-25T11:00:36Z</time>
      </trkpt>
      <trkpt lat="45.09427" lon="4.1874">
        <ele>1044.3</ele>
        <time>2026-04-25T11:00:41Z</time>
      </trkpt>
      <trkpt lat="45.09421" lon="4.18743">
        <ele>1045</ele>
        <time>2026-04-25T11:00:46Z</time>
      </trkpt>
      <trkpt lat="45.09415" lon="4.18745">
        <ele>1045.6</ele>
        <time>2026-04-25T11:00:51Z</time>
      </trkpt>
      <trkpt lat="45.09408" lon="4.18747">
        <ele>1046.2</ele>
        <time>2026-04-25T11:00:56Z</time>
      </trkpt>
      <trkpt lat="45.09402" lon="4.1875">
        <ele>1046.9</ele>
        <time>2026-04-25T11:01:01Z</time>
      </trkpt>
      <trkpt lat="45.09397" lon="4.18752">
        <ele>1047.4</ele>
        <time>2026-04-25T11:01:06Z</time>
      </trkpt>
      <trkpt lat="45.09392" lon="4.18754">
        <ele>1047.9</ele>
        <time>2026-04-25T11:01:11Z</time>
      </trkpt>
      <trkpt lat="45.09386" lon="4.18758">
        <ele>1048.8</ele>
        <time>2026-04-25T11:01:16Z</time>
      </trkpt>
      <trkpt lat="45.09381" lon="4.1876">
        <ele>1049.4</ele>
        <time>2026-04-25T11:01:21Z</time>
      </trkpt>
      <trkpt lat="45.09379" lon="4.18762">
        <ele>1049.8</ele>
        <time>2026-04-25T11:01:26Z</time>
      </trkpt>
      <trkpt lat="45.09375" lon="4.18764">
        <ele>1050.3</ele>
        <time>2026-04-25T11:01:31Z</time>
      </trkpt>
      <trkpt lat="45.09371" lon="4.18768">
        <ele>1051.2</ele>
        <time>2026-04-25T11:01:36Z</time>
      </trkpt>
      <trkpt lat="45.09367" lon="4.18772">
        <ele>1052.1</ele>
        <time>2026-04-25T11:01:41Z</time>
      </trkpt>
      <trkpt lat="45.09362" lon="4.18774">
        <ele>1052.9</ele>
        <time>2026-04-25T11:01:46Z</time>
      </trkpt>
      <trkpt lat="45.09358" lon="4.18776">
        <ele>1053.6</ele>
        <time>2026-04-25T11:01:51Z</time>
      </trkpt>
      <trkpt lat="45.09353" lon="4.18779">
        <ele>1054.6</ele>
        <time>2026-04-25T11:01:56Z</time>
      </trkpt>
      <trkpt lat="45.09349" lon="4.18782">
        <ele>1055.5</ele>
        <time>2026-04-25T11:02:01Z</time>
      </trkpt>
      <trkpt lat="45.09344" lon="4.18786">
        <ele>1056.7</ele>
        <time>2026-04-25T11:02:06Z</time>
      </trkpt>
      <trkpt lat="45.0934" lon="4.18788">
        <ele>1057.5</ele>
        <time>2026-04-25T11:02:11Z</time>
      </trkpt>
      <trkpt lat="45.09335" lon="4.18791">
        <ele>1058.7</ele>
        <time>2026-04-25T11:02:16Z</time>
      </trkpt>
      <trkpt lat="45.09329" lon="4.18792">
        <ele>1059.6</ele>
        <time>2026-04-25T11:02:21Z</time>
      </trkpt>
      <trkpt lat="45.09324" lon="4.18789">
        <ele>1059.5</ele>
        <time>2026-04-25T11:02:26Z</time>
      </trkpt>
      <trkpt lat="45.09318" lon="4.18785">
        <ele>1059.5</ele>
        <time>2026-04-25T11:02:31Z</time>
      </trkpt>
      <trkpt lat="45.09315" lon="4.1878">
        <ele>1058.8</ele>
        <time>2026-04-25T11:02:36Z</time>
      </trkpt>
      <trkpt lat="45.0931" lon="4.18776">
        <ele>1058.6</ele>
        <time>2026-04-25T11:02:41Z</time>
      </trkpt>
      <trkpt lat="45.09306" lon="4.18771">
        <ele>1058.1</ele>
        <time>2026-04-25T11:02:46Z</time>
      </trkpt>
      <trkpt lat="45.093" lon="4.18766">
        <ele>1057.7</ele>
        <time>2026-04-25T11:02:51Z</time>
      </trkpt>
      <trkpt lat="45.09296" lon="4.1876">
        <ele>1057</ele>
        <time>2026-04-25T11:02:56Z</time>
      </trkpt>
      <trkpt lat="45.09297" lon="4.18757">
        <ele>1056.3</ele>
        <time>2026-04-25T11:03:01Z</time>
      </trkpt>
      <trkpt lat="45.09296" lon="4.18756">
        <ele>1056.2</ele>
        <time>2026-04-25T11:03:06Z</time>
      </trkpt>
      <trkpt lat="45.09296" lon="4.18756">
        <ele>1056.2</ele>
        <time>2026-04-25T11:03:11Z</time>
      </trkpt>
      <trkpt lat="45.09295" lon="4.18756">
        <ele>1056.3</ele>
        <time>2026-04-25T11:03:16Z</time>
      </trkpt>
      <trkpt lat="45.09289" lon="4.18754">
        <ele>1056.6</ele>
        <time>2026-04-25T11:03:21Z</time>
      </trkpt>
      <trkpt lat="45.09284" lon="4.1875">
        <ele>1056.3</ele>
        <time>2026-04-25T11:03:26Z</time>
      </trkpt>
      <trkpt lat="45.09277" lon="4.18748">
        <ele>1056.8</ele>
        <time>2026-04-25T11:03:31Z</time>
      </trkpt>
      <trkpt lat="45.09271" lon="4.18743">
        <ele>1056.8</ele>
        <time>2026-04-25T11:03:36Z</time>
      </trkpt>
      <trkpt lat="45.09265" lon="4.18737">
        <ele>1056.6</ele>
        <time>2026-04-25T11:03:41Z</time>
      </trkpt>
      <trkpt lat="45.09259" lon="4.18734">
        <ele>1056.9</ele>
        <time>2026-04-25T11:03:46Z</time>
      </trkpt>
      <trkpt lat="45.09251" lon="4.18727">
        <ele>1056.8</ele>
        <time>2026-04-25T11:03:51Z</time>
      </trkpt>
      <trkpt lat="45.09243" lon="4.18721">
        <ele>1057.6</ele>
        <time>2026-04-25T11:03:56Z</time>
      </trkpt>
      <trkpt lat="45.09235" lon="4.18716">
        <ele>1058.6</ele>
        <time>2026-04-25T11:04:01Z</time>
      </trkpt>
      <trkpt lat="45.09229" lon="4.18711">
        <ele>1059.1</ele>
        <time>2026-04-25T11:04:06Z</time>
      </trkpt>
      <trkpt lat="45.09224" lon="4.18706">
        <ele>1059.5</ele>
        <time>2026-04-25T11:04:11Z</time>
      </trkpt>
      <trkpt lat="45.0922" lon="4.187">
        <ele>1059.5</ele>
        <time>2026-04-25T11:04:16Z</time>
      </trkpt>
      <trkpt lat="45.09216" lon="4.18691">
        <ele>1059.1</ele>
        <time>2026-04-25T11:04:21Z</time>
      </trkpt>
      <trkpt lat="45.09211" lon="4.18681">
        <ele>1058.8</ele>
        <time>2026-04-25T11:04:26Z</time>
      </trkpt>
      <trkpt lat="45.09208" lon="4.1867">
        <ele>1058</ele>
        <time>2026-04-25T11:04:31Z</time>
      </trkpt>
      <trkpt lat="45.09203" lon="4.18659">
        <ele>1057.3</ele>
        <time>2026-04-25T11:04:36Z</time>
      </trkpt>
      <trkpt lat="45.092" lon="4.1865">
        <ele>1056.4</ele>
        <time>2026-04-25T11:04:41Z</time>
      </trkpt>
      <trkpt lat="45.09195" lon="4.18641">
        <ele>1055.7</ele>
        <time>2026-04-25T11:04:46Z</time>
      </trkpt>
      <trkpt lat="45.09191" lon="4.18632">
        <ele>1054.8</ele>
        <time>2026-04-25T11:04:51Z</time>
      </trkpt>
      <trkpt lat="45.09187" lon="4.18622">
        <ele>1053.5</ele>
        <time>2026-04-25T11:04:56Z</time>
      </trkpt>
      <trkpt lat="45.09184" lon="4.18612">
        <ele>1052</ele>
        <time>2026-04-25T11:05:01Z</time>
      </trkpt>
      <trkpt lat="45.0918" lon="4.18602">
        <ele>1050.6</ele>
        <time>2026-04-25T11:05:06Z</time>
      </trkpt>
      <trkpt lat="45.09176" lon="4.18593">
        <ele>1049.2</ele>
        <time>2026-04-25T11:05:11Z</time>
      </trkpt>
      <trkpt lat="45.09172" lon="4.18582">
        <ele>1047.4</ele>
        <time>2026-04-25T11:05:16Z</time>
      </trkpt>
      <trkpt lat="45.09169" lon="4.18572">
        <ele>1046.9</ele>
        <time>2026-04-25T11:05:21Z</time>
      </trkpt>
      <trkpt lat="45.09164" lon="4.18563">
        <ele>1046.6</ele>
        <time>2026-04-25T11:05:26Z</time>
      </trkpt>
      <trkpt lat="45.09159" lon="4.18554">
        <ele>1046.4</ele>
        <time>2026-04-25T11:05:31Z</time>
      </trkpt>
      <trkpt lat="45.09155" lon="4.18546">
        <ele>1046.1</ele>
        <time>2026-04-25T11:05:36Z</time>
      </trkpt>
      <trkpt lat="45.0915" lon="4.18536">
        <ele>1045.7</ele>
        <time>2026-04-25T11:05:41Z</time>
      </trkpt>
      <trkpt lat="45.09145" lon="4.18529">
        <ele>1045.5</ele>
        <time>2026-04-25T11:05:46Z</time>
      </trkpt>
      <trkpt lat="45.09141" lon="4.18521">
        <ele>1045.2</ele>
        <time>2026-04-25T11:05:51Z</time>
      </trkpt>
      <trkpt lat="45.09136" lon="4.18511">
        <ele>1044.6</ele>
        <time>2026-04-25T11:05:56Z</time>
      </trkpt>
      <trkpt lat="45.09131" lon="4.18503">
        <ele>1044.3</ele>
        <time>2026-04-25T11:06:01Z</time>
      </trkpt>
      <trkpt lat="45.09127" lon="4.18494">
        <ele>1043.9</ele>
        <time>2026-04-25T11:06:06Z</time>
      </trkpt>
      <trkpt lat="45.09123" lon="4.18483">
        <ele>1043.3</ele>
        <time>2026-04-25T11:06:11Z</time>
      </trkpt>
      <trkpt lat="45.09118" lon="4.18475">
        <ele>1043.1</ele>
        <time>2026-04-25T11:06:16Z</time>
      </trkpt>
      <trkpt lat="45.09114" lon="4.18467">
        <ele>1042.8</ele>
        <time>2026-04-25T11:06:21Z</time>
      </trkpt>
      <trkpt lat="45.09109" lon="4.18458">
        <ele>1042.5</ele>
        <time>2026-04-25T11:06:26Z</time>
      </trkpt>
      <trkpt lat="45.09104" lon="4.1845">
        <ele>1042.2</ele>
        <time>2026-04-25T11:06:31Z</time>
      </trkpt>
      <trkpt lat="45.091" lon="4.18441">
        <ele>1041.8</ele>
        <time>2026-04-25T11:06:36Z</time>
      </trkpt>
      <trkpt lat="45.09095" lon="4.1843">
        <ele>1041.3</ele>
        <time>2026-04-25T11:06:41Z</time>
      </trkpt>
      <trkpt lat="45.0909" lon="4.18422">
        <ele>1041</ele>
        <time>2026-04-25T11:06:46Z</time>
      </trkpt>
      <trkpt lat="45.09085" lon="4.18415">
        <ele>1040.7</ele>
        <time>2026-04-25T11:06:51Z</time>
      </trkpt>
      <trkpt lat="45.0908" lon="4.18407">
        <ele>1040</ele>
        <time>2026-04-25T11:06:56Z</time>
      </trkpt>
      <trkpt lat="45.09074" lon="4.184">
        <ele>1039.4</ele>
        <time>2026-04-25T11:07:01Z</time>
      </trkpt>
      <trkpt lat="45.09068" lon="4.18394">
        <ele>1038.9</ele>
        <time>2026-04-25T11:07:06Z</time>
      </trkpt>
      <trkpt lat="45.09062" lon="4.18386">
        <ele>1038.1</ele>
        <time>2026-04-25T11:07:11Z</time>
      </trkpt>
      <trkpt lat="45.09057" lon="4.18378">
        <ele>1037.3</ele>
        <time>2026-04-25T11:07:16Z</time>
      </trkpt>
      <trkpt lat="45.0905" lon="4.1837">
        <ele>1036.5</ele>
        <time>2026-04-25T11:07:21Z</time>
      </trkpt>
      <trkpt lat="45.09045" lon="4.18363">
        <ele>1035.8</ele>
        <time>2026-04-25T11:07:26Z</time>
      </trkpt>
      <trkpt lat="45.0904" lon="4.18356">
        <ele>1035.1</ele>
        <time>2026-04-25T11:07:31Z</time>
      </trkpt>
      <trkpt lat="45.09034" lon="4.1835">
        <ele>1034.5</ele>
        <time>2026-04-25T11:07:36Z</time>
      </trkpt>
      <trkpt lat="45.09027" lon="4.18342">
        <ele>1033.7</ele>
        <time>2026-04-25T11:07:41Z</time>
      </trkpt>
      <trkpt lat="45.0902" lon="4.18338">
        <ele>1033.3</ele>
        <time>2026-04-25T11:07:46Z</time>
      </trkpt>
      <trkpt lat="45.09016" lon="4.18333">
        <ele>1032.8</ele>
        <time>2026-04-25T11:07:51Z</time>
      </trkpt>
      <trkpt lat="45.09016" lon="4.18332">
        <ele>1032.7</ele>
        <time>2026-04-25T11:07:56Z</time>
      </trkpt>
      <trkpt lat="45.09015" lon="4.18332">
        <ele>1032.7</ele>
        <time>2026-04-25T11:08:01Z</time>
      </trkpt>
      <trkpt lat="45.09015" lon="4.18332">
        <ele>1032.7</ele>
        <time>2026-04-25T11:08:06Z</time>
      </trkpt>
      <trkpt lat="45.09013" lon="4.18331">
        <ele>1032.6</ele>
        <time>2026-04-25T11:08:11Z</time>
      </trkpt>
      <trkpt lat="45.0901" lon="4.18328">
        <ele>1032.3</ele>
        <time>2026-04-25T11:08:16Z</time>
      </trkpt>
      <trkpt lat="45.09006" lon="4.18326">
        <ele>1032.1</ele>
        <time>2026-04-25T11:08:21Z</time>
      </trkpt>
      <trkpt lat="45.09" lon="4.18323">
        <ele>1031.9</ele>
        <time>2026-04-25T11:08:26Z</time>
      </trkpt>
      <trkpt lat="45.08993" lon="4.18321">
        <ele>1032</ele>
        <time>2026-04-25T11:08:31Z</time>
      </trkpt>
      <trkpt lat="45.08986" lon="4.18318">
        <ele>1032.1</ele>
        <time>2026-04-25T11:08:36Z</time>
      </trkpt>
      <trkpt lat="45.0898" lon="4.18316">
        <ele>1032.2</ele>
        <time>2026-04-25T11:08:41Z</time>
      </trkpt>
      <trkpt lat="45.08972" lon="4.18311">
        <ele>1032.1</ele>
        <time>2026-04-25T11:08:46Z</time>
      </trkpt>
      <trkpt lat="45.08964" lon="4.18305">
        <ele>1032</ele>
        <time>2026-04-25T11:08:51Z</time>
      </trkpt>
      <trkpt lat="45.08957" lon="4.18302">
        <ele>1032.1</ele>
        <time>2026-04-25T11:08:56Z</time>
      </trkpt>
      <trkpt lat="45.08949" lon="4.18298">
        <ele>1032.2</ele>
        <time>2026-04-25T11:09:01Z</time>
      </trkpt>
      <trkpt lat="45.08942" lon="4.18296">
        <ele>1032.4</ele>
        <time>2026-04-25T11:09:06Z</time>
      </trkpt>
      <trkpt lat="45.08936" lon="4.18292">
        <ele>1032.4</ele>
        <time>2026-04-25T11:09:11Z</time>
      </trkpt>
      <trkpt lat="45.08929" lon="4.18287">
        <ele>1032.4</ele>
        <time>2026-04-25T11:09:16Z</time>
      </trkpt>
      <trkpt lat="45.08923" lon="4.18282">
        <ele>1032.3</ele>
        <time>2026-04-25T11:09:21Z</time>
      </trkpt>
      <trkpt lat="45.08916" lon="4.18276">
        <ele>1032.2</ele>
        <time>2026-04-25T11:09:26Z</time>
      </trkpt>
      <trkpt lat="45.0891" lon="4.1827">
        <ele>1031.7</ele>
        <time>2026-04-25T11:09:31Z</time>
      </trkpt>
      <trkpt lat="45.08905" lon="4.18263">
        <ele>1031.1</ele>
        <time>2026-04-25T11:09:36Z</time>
      </trkpt>
      <trkpt lat="45.089" lon="4.18254">
        <ele>1030.3</ele>
        <time>2026-04-25T11:09:41Z</time>
      </trkpt>
      <trkpt lat="45.08895" lon="4.18246">
        <ele>1029.7</ele>
        <time>2026-04-25T11:09:46Z</time>
      </trkpt>
      <trkpt lat="45.08891" lon="4.18237">
        <ele>1028.9</ele>
        <time>2026-04-25T11:09:51Z</time>
      </trkpt>
      <trkpt lat="45.08886" lon="4.18226">
        <ele>1028</ele>
        <time>2026-04-25T11:09:56Z</time>
      </trkpt>
      <trkpt lat="45.08882" lon="4.18216">
        <ele>1027.1</ele>
        <time>2026-04-25T11:10:01Z</time>
      </trkpt>
      <trkpt lat="45.08877" lon="4.18206">
        <ele>1026.3</ele>
        <time>2026-04-25T11:10:06Z</time>
      </trkpt>
      <trkpt lat="45.08871" lon="4.18199">
        <ele>1025.7</ele>
        <time>2026-04-25T11:10:11Z</time>
      </trkpt>
      <trkpt lat="45.08867" lon="4.1819">
        <ele>1025</ele>
        <time>2026-04-25T11:10:16Z</time>
      </trkpt>
      <trkpt lat="45.08863" lon="4.18179">
        <ele>1024</ele>
        <time>2026-04-25T11:10:21Z</time>
      </trkpt>
      <trkpt lat="45.08859" lon="4.1817">
        <ele>1023.3</ele>
        <time>2026-04-25T11:10:26Z</time>
      </trkpt>
      <trkpt lat="45.08854" lon="4.18162">
        <ele>1022.5</ele>
        <time>2026-04-25T11:10:31Z</time>
      </trkpt>
      <trkpt lat="45.08849" lon="4.18153">
        <ele>1021.5</ele>
        <time>2026-04-25T11:10:36Z</time>
      </trkpt>
      <trkpt lat="45.08845" lon="4.18145">
        <ele>1020.7</ele>
        <time>2026-04-25T11:10:41Z</time>
      </trkpt>
      <trkpt lat="45.0884" lon="4.18136">
        <ele>1019.7</ele>
        <time>2026-04-25T11:10:46Z</time>
      </trkpt>
      <trkpt lat="45.08835" lon="4.18128">
        <ele>1018.8</ele>
        <time>2026-04-25T11:10:51Z</time>
      </trkpt>
      <trkpt lat="45.0883" lon="4.1812">
        <ele>1017.9</ele>
        <time>2026-04-25T11:10:56Z</time>
      </trkpt>
      <trkpt lat="45.08826" lon="4.18113">
        <ele>1017</ele>
        <time>2026-04-25T11:11:01Z</time>
      </trkpt>
      <trkpt lat="45.08821" lon="4.18105">
        <ele>1016</ele>
        <time>2026-04-25T11:11:06Z</time>
      </trkpt>
      <trkpt lat="45.08821" lon="4.181">
        <ele>1015.5</ele>
        <time>2026-04-25T11:11:11Z</time>
      </trkpt>
      <trkpt lat="45.08821" lon="4.181">
        <ele>1015.5</ele>
        <time>2026-04-25T11:11:16Z</time>
      </trkpt>
      <trkpt lat="45.08817" lon="4.18097">
        <ele>1015.1</ele>
        <time>2026-04-25T11:11:21Z</time>
      </trkpt>
      <trkpt lat="45.08815" lon="4.18093">
        <ele>1014.6</ele>
        <time>2026-04-25T11:11:26Z</time>
      </trkpt>
      <trkpt lat="45.08811" lon="4.18092">
        <ele>1014.4</ele>
        <time>2026-04-25T11:11:31Z</time>
      </trkpt>
      <trkpt lat="45.08805" lon="4.18087">
        <ele>1013.7</ele>
        <time>2026-04-25T11:11:36Z</time>
      </trkpt>
      <trkpt lat="45.08799" lon="4.18081">
        <ele>1012.9</ele>
        <time>2026-04-25T11:11:41Z</time>
      </trkpt>
      <trkpt lat="45.08796" lon="4.18073">
        <ele>1012</ele>
        <time>2026-04-25T11:11:46Z</time>
      </trkpt>
      <trkpt lat="45.08794" lon="4.1807">
        <ele>1011.7</ele>
        <time>2026-04-25T11:11:51Z</time>
      </trkpt>
      <trkpt lat="45.08788" lon="4.18068">
        <ele>1011.4</ele>
        <time>2026-04-25T11:11:56Z</time>
      </trkpt>
      <trkpt lat="45.08782" lon="4.18062">
        <ele>1010.7</ele>
        <time>2026-04-25T11:12:01Z</time>
      </trkpt>
      <trkpt lat="45.08777" lon="4.18057">
        <ele>1010.1</ele>
        <time>2026-04-25T11:12:06Z</time>
      </trkpt>
      <trkpt lat="45.0877" lon="4.18052">
        <ele>1009.6</ele>
        <time>2026-04-25T11:12:11Z</time>
      </trkpt>
      <trkpt lat="45.08763" lon="4.18045">
        <ele>1008.9</ele>
        <time>2026-04-25T11:12:16Z</time>
      </trkpt>
      <trkpt lat="45.08757" lon="4.1804">
        <ele>1008.4</ele>
        <time>2026-04-25T11:12:21Z</time>
      </trkpt>
      <trkpt lat="45.0875" lon="4.18036">
        <ele>1008</ele>
        <time>2026-04-25T11:12:26Z</time>
      </trkpt>
      <trkpt lat="45.08744" lon="4.1803">
        <ele>1007.6</ele>
        <time>2026-04-25T11:12:31Z</time>
      </trkpt>
      <trkpt lat="45.08738" lon="4.18024">
        <ele>1007.3</ele>
        <time>2026-04-25T11:12:36Z</time>
      </trkpt>
      <trkpt lat="45.08735" lon="4.18018">
        <ele>1006.8</ele>
        <time>2026-04-25T11:12:41Z</time>
      </trkpt>
      <trkpt lat="45.08733" lon="4.18015">
        <ele>1006.6</ele>
        <time>2026-04-25T11:12:46Z</time>
      </trkpt>
      <trkpt lat="45.08733" lon="4.18013">
        <ele>1006.5</ele>
        <time>2026-04-25T11:12:51Z</time>
      </trkpt>
      <trkpt lat="45.08731" lon="4.18012">
        <ele>1006.4</ele>
        <time>2026-04-25T11:12:56Z</time>
      </trkpt>
      <trkpt lat="45.08723" lon="4.18008">
        <ele>1006.3</ele>
        <time>2026-04-25T11:13:01Z</time>
      </trkpt>
      <trkpt lat="45.08717" lon="4.18002">
        <ele>1006</ele>
        <time>2026-04-25T11:13:06Z</time>
      </trkpt>
      <trkpt lat="45.08711" lon="4.17995">
        <ele>1005.4</ele>
        <time>2026-04-25T11:13:11Z</time>
      </trkpt>
      <trkpt lat="45.08705" lon="4.1799">
        <ele>1005</ele>
        <time>2026-04-25T11:13:16Z</time>
      </trkpt>
      <trkpt lat="45.08699" lon="4.17986">
        <ele>1004.7</ele>
        <time>2026-04-25T11:13:21Z</time>
      </trkpt>
      <trkpt lat="45.08697" lon="4.17987">
        <ele>1004.9</ele>
        <time>2026-04-25T11:13:26Z</time>
      </trkpt>
      <trkpt lat="45.08697" lon="4.17987">
        <ele>1004.9</ele>
        <time>2026-04-25T11:13:31Z</time>
      </trkpt>
      <trkpt lat="45.08697" lon="4.17987">
        <ele>1004.9</ele>
        <time>2026-04-25T11:13:36Z</time>
      </trkpt>
      <trkpt lat="45.08692" lon="4.1798">
        <ele>1004.3</ele>
        <time>2026-04-25T11:13:41Z</time>
      </trkpt>
      <trkpt lat="45.08686" lon="4.17974">
        <ele>1003.9</ele>
        <time>2026-04-25T11:13:46Z</time>
      </trkpt>
      <trkpt lat="45.08681" lon="4.17968">
        <ele>1003.5</ele>
        <time>2026-04-25T11:13:51Z</time>
      </trkpt>
      <trkpt lat="45.08674" lon="4.17962">
        <ele>1003.1</ele>
        <time>2026-04-25T11:13:56Z</time>
      </trkpt>
      <trkpt lat="45.08669" lon="4.17956">
        <ele>1002.7</ele>
        <time>2026-04-25T11:14:01Z</time>
      </trkpt>
      <trkpt lat="45.08664" lon="4.17949">
        <ele>1002.1</ele>
        <time>2026-04-25T11:14:06Z</time>
      </trkpt>
      <trkpt lat="45.08658" lon="4.17943">
        <ele>1001.4</ele>
        <time>2026-04-25T11:14:11Z</time>
      </trkpt>
      <trkpt lat="45.08651" lon="4.17936">
        <ele>1000.5</ele>
        <time>2026-04-25T11:14:16Z</time>
      </trkpt>
      <trkpt lat="45.08646" lon="4.1793">
        <ele>999.8</ele>
        <time>2026-04-25T11:14:21Z</time>
      </trkpt>
      <trkpt lat="45.08638" lon="4.17922">
        <ele>998.8</ele>
        <time>2026-04-25T11:14:26Z</time>
      </trkpt>
      <trkpt lat="45.08631" lon="4.17916">
        <ele>998.1</ele>
        <time>2026-04-25T11:14:31Z</time>
      </trkpt>
      <trkpt lat="45.08626" lon="4.17911">
        <ele>997.5</ele>
        <time>2026-04-25T11:14:36Z</time>
      </trkpt>
      <trkpt lat="45.08619" lon="4.17903">
        <ele>996.8</ele>
        <time>2026-04-25T11:14:41Z</time>
      </trkpt>
      <trkpt lat="45.08612" lon="4.17897">
        <ele>996.2</ele>
        <time>2026-04-25T11:14:46Z</time>
      </trkpt>
      <trkpt lat="45.08605" lon="4.17893">
        <ele>995.8</ele>
        <time>2026-04-25T11:14:51Z</time>
      </trkpt>
      <trkpt lat="45.08599" lon="4.1789">
        <ele>995.5</ele>
        <time>2026-04-25T11:14:56Z</time>
      </trkpt>
      <trkpt lat="45.08591" lon="4.17886">
        <ele>995.2</ele>
        <time>2026-04-25T11:15:01Z</time>
      </trkpt>
      <trkpt lat="45.08584" lon="4.17882">
        <ele>994.9</ele>
        <time>2026-04-25T11:15:06Z</time>
      </trkpt>
      <trkpt lat="45.08577" lon="4.17878">
        <ele>994.8</ele>
        <time>2026-04-25T11:15:11Z</time>
      </trkpt>
      <trkpt lat="45.08569" lon="4.17873">
        <ele>994.6</ele>
        <time>2026-04-25T11:15:16Z</time>
      </trkpt>
      <trkpt lat="45.08561" lon="4.17867">
        <ele>994.4</ele>
        <time>2026-04-25T11:15:21Z</time>
      </trkpt>
      <trkpt lat="45.08554" lon="4.17864">
        <ele>994.3</ele>
        <time>2026-04-25T11:15:26Z</time>
      </trkpt>
      <trkpt lat="45.08547" lon="4.17858">
        <ele>994</ele>
        <time>2026-04-25T11:15:31Z</time>
      </trkpt>
      <trkpt lat="45.08542" lon="4.17854">
        <ele>993.9</ele>
        <time>2026-04-25T11:15:36Z</time>
      </trkpt>
      <trkpt lat="45.0854" lon="4.17851">
        <ele>993.7</ele>
        <time>2026-04-25T11:15:41Z</time>
      </trkpt>
      <trkpt lat="45.08539" lon="4.17851">
        <ele>993.7</ele>
        <time>2026-04-25T11:15:46Z</time>
      </trkpt>
      <trkpt lat="45.08539" lon="4.1785">
        <ele>993.6</ele>
        <time>2026-04-25T11:15:51Z</time>
      </trkpt>
      <trkpt lat="45.08539" lon="4.1785">
        <ele>993.6</ele>
        <time>2026-04-25T11:15:56Z</time>
      </trkpt>
      <trkpt lat="45.08539" lon="4.1785">
        <ele>993.6</ele>
        <time>2026-04-25T11:16:01Z</time>
      </trkpt>
      <trkpt lat="45.08539" lon="4.1785">
        <ele>993.6</ele>
        <time>2026-04-25T11:16:06Z</time>
      </trkpt>
      <trkpt lat="45.08539" lon="4.1785">
        <ele>993.6</ele>
        <time>2026-04-25T11:16:11Z</time>
      </trkpt>
      <trkpt lat="45.08539" lon="4.1785">
        <ele>993.6</ele>
        <time>2026-04-25T11:16:16Z</time>
      </trkpt>
      <trkpt lat="45.08536" lon="4.1784">
        <ele>993</ele>
        <time>2026-04-25T11:16:21Z</time>
      </trkpt>
      <trkpt lat="45.08532" lon="4.17832">
        <ele>992.6</ele>
        <time>2026-04-25T11:16:26Z</time>
      </trkpt>
      <trkpt lat="45.08531" lon="4.17823">
        <ele>992.5</ele>
        <time>2026-04-25T11:16:31Z</time>
      </trkpt>
      <trkpt lat="45.08528" lon="4.17814">
        <ele>992.4</ele>
        <time>2026-04-25T11:16:36Z</time>
      </trkpt>
      <trkpt lat="45.08527" lon="4.17803">
        <ele>992.3</ele>
        <time>2026-04-25T11:16:41Z</time>
      </trkpt>
      <trkpt lat="45.08528" lon="4.17792">
        <ele>992.2</ele>
        <time>2026-04-25T11:16:46Z</time>
      </trkpt>
      <trkpt lat="45.08529" lon="4.17782">
        <ele>992</ele>
        <time>2026-04-25T11:16:51Z</time>
      </trkpt>
      <trkpt lat="45.08527" lon="4.1777">
        <ele>991.9</ele>
        <time>2026-04-25T11:16:56Z</time>
      </trkpt>
      <trkpt lat="45.08528" lon="4.1776">
        <ele>991.8</ele>
        <time>2026-04-25T11:17:01Z</time>
      </trkpt>
      <trkpt lat="45.08529" lon="4.1775">
        <ele>991.6</ele>
        <time>2026-04-25T11:17:06Z</time>
      </trkpt>
      <trkpt lat="45.0853" lon="4.17742">
        <ele>991.8</ele>
        <time>2026-04-25T11:17:11Z</time>
      </trkpt>
      <trkpt lat="45.08531" lon="4.1773">
        <ele>992.1</ele>
        <time>2026-04-25T11:17:16Z</time>
      </trkpt>
      <trkpt lat="45.08531" lon="4.17719">
        <ele>992.4</ele>
        <time>2026-04-25T11:17:21Z</time>
      </trkpt>
      <trkpt lat="45.08531" lon="4.1771">
        <ele>992.7</ele>
        <time>2026-04-25T11:17:26Z</time>
      </trkpt>
      <trkpt lat="45.0853" lon="4.17701">
        <ele>993.1</ele>
        <time>2026-04-25T11:17:31Z</time>
      </trkpt>
      <trkpt lat="45.08531" lon="4.17691">
        <ele>993.3</ele>
        <time>2026-04-25T11:17:36Z</time>
      </trkpt>
      <trkpt lat="45.08531" lon="4.17687">
        <ele>993.4</ele>
        <time>2026-04-25T11:17:41Z</time>
      </trkpt>
      <trkpt lat="45.0853" lon="4.17683">
        <ele>993.6</ele>
        <time>2026-04-25T11:17:46Z</time>
      </trkpt>
      <trkpt lat="45.0853" lon="4.17674">
        <ele>993.9</ele>
        <time>2026-04-25T11:17:51Z</time>
      </trkpt>
      <trkpt lat="45.08531" lon="4.17663">
        <ele>994.4</ele>
        <time>2026-04-25T11:17:56Z</time>
      </trkpt>
      <trkpt lat="45.08532" lon="4.17654">
        <ele>995.1</ele>
        <time>2026-04-25T11:18:01Z</time>
      </trkpt>
      <trkpt lat="45.08533" lon="4.17645">
        <ele>995.8</ele>
        <time>2026-04-25T11:18:06Z</time>
      </trkpt>
      <trkpt lat="45.08532" lon="4.17634">
        <ele>996.9</ele>
        <time>2026-04-25T11:18:11Z</time>
      </trkpt>
      <trkpt lat="45.08534" lon="4.17626">
        <ele>997.3</ele>
        <time>2026-04-25T11:18:16Z</time>
      </trkpt>
      <trkpt lat="45.08537" lon="4.1762">
        <ele>997.5</ele>
        <time>2026-04-25T11:18:21Z</time>
      </trkpt>
      <trkpt lat="45.08536" lon="4.17619">
        <ele>997.7</ele>
        <time>2026-04-25T11:18:26Z</time>
      </trkpt>
      <trkpt lat="45.08536" lon="4.17617">
        <ele>997.9</ele>
        <time>2026-04-25T11:18:31Z</time>
      </trkpt>
      <trkpt lat="45.0854" lon="4.1761">
        <ele>998</ele>
        <time>2026-04-25T11:18:36Z</time>
      </trkpt>
      <trkpt lat="45.08546" lon="4.17602">
        <ele>997.9</ele>
        <time>2026-04-25T11:18:41Z</time>
      </trkpt>
      <trkpt lat="45.08552" lon="4.17596">
        <ele>997.5</ele>
        <time>2026-04-25T11:18:46Z</time>
      </trkpt>
      <trkpt lat="45.08559" lon="4.17591">
        <ele>996.9</ele>
        <time>2026-04-25T11:18:51Z</time>
      </trkpt>
      <trkpt lat="45.08566" lon="4.17587">
        <ele>996.2</ele>
        <time>2026-04-25T11:18:56Z</time>
      </trkpt>
      <trkpt lat="45.08572" lon="4.17588">
        <ele>995.3</ele>
        <time>2026-04-25T11:19:01Z</time>
      </trkpt>
      <trkpt lat="45.08578" lon="4.17588">
        <ele>994.5</ele>
        <time>2026-04-25T11:19:06Z</time>
      </trkpt>
      <trkpt lat="45.08583" lon="4.1759">
        <ele>993.6</ele>
        <time>2026-04-25T11:19:11Z</time>
      </trkpt>
      <trkpt lat="45.08589" lon="4.1759">
        <ele>993.6</ele>
        <time>2026-04-25T11:19:16Z</time>
      </trkpt>
      <trkpt lat="45.08595" lon="4.17591">
        <ele>993.6</ele>
        <time>2026-04-25T11:19:21Z</time>
      </trkpt>
      <trkpt lat="45.08601" lon="4.17591">
        <ele>993.6</ele>
        <time>2026-04-25T11:19:26Z</time>
      </trkpt>
      <trkpt lat="45.08608" lon="4.1759">
        <ele>993.6</ele>
        <time>2026-04-25T11:19:31Z</time>
      </trkpt>
      <trkpt lat="45.08616" lon="4.17591">
        <ele>993.6</ele>
        <time>2026-04-25T11:19:36Z</time>
      </trkpt>
      <trkpt lat="45.08622" lon="4.1759">
        <ele>993.6</ele>
        <time>2026-04-25T11:19:41Z</time>
      </trkpt>
      <trkpt lat="45.0863" lon="4.17591">
        <ele>993.6</ele>
        <time>2026-04-25T11:19:46Z</time>
      </trkpt>
      <trkpt lat="45.08636" lon="4.1759">
        <ele>993.7</ele>
        <time>2026-04-25T11:19:51Z</time>
      </trkpt>
      <trkpt lat="45.08643" lon="4.17589">
        <ele>993.7</ele>
        <time>2026-04-25T11:19:56Z</time>
      </trkpt>
      <trkpt lat="45.0865" lon="4.17588">
        <ele>993.8</ele>
        <time>2026-04-25T11:20:01Z</time>
      </trkpt>
      <trkpt lat="45.08655" lon="4.17586">
        <ele>993.9</ele>
        <time>2026-04-25T11:20:06Z</time>
      </trkpt>
      <trkpt lat="45.08661" lon="4.17582">
        <ele>994</ele>
        <time>2026-04-25T11:20:11Z</time>
      </trkpt>
      <trkpt lat="45.08664" lon="4.17577">
        <ele>994.2</ele>
        <time>2026-04-25T11:20:16Z</time>
      </trkpt>
      <trkpt lat="45.0867" lon="4.17574">
        <ele>994.4</ele>
        <time>2026-04-25T11:20:21Z</time>
      </trkpt>
      <trkpt lat="45.08676" lon="4.17569">
        <ele>994.9</ele>
        <time>2026-04-25T11:20:26Z</time>
      </trkpt>
      <trkpt lat="45.08681" lon="4.17565">
        <ele>995.4</ele>
        <time>2026-04-25T11:20:31Z</time>
      </trkpt>
      <trkpt lat="45.08686" lon="4.17561">
        <ele>995.8</ele>
        <time>2026-04-25T11:20:36Z</time>
      </trkpt>
      <trkpt lat="45.08691" lon="4.17556">
        <ele>996.3</ele>
        <time>2026-04-25T11:20:41Z</time>
      </trkpt>
      <trkpt lat="45.08696" lon="4.17551">
        <ele>996.8</ele>
        <time>2026-04-25T11:20:46Z</time>
      </trkpt>
      <trkpt lat="45.08699" lon="4.17544">
        <ele>997.3</ele>
        <time>2026-04-25T11:20:51Z</time>
      </trkpt>
      <trkpt lat="45.08701" lon="4.17538">
        <ele>997.6</ele>
        <time>2026-04-25T11:20:56Z</time>
      </trkpt>
      <trkpt lat="45.08705" lon="4.17534">
        <ele>998</ele>
        <time>2026-04-25T11:21:01Z</time>
      </trkpt>
      <trkpt lat="45.0871" lon="4.17529">
        <ele>998.6</ele>
        <time>2026-04-25T11:21:06Z</time>
      </trkpt>
      <trkpt lat="45.08715" lon="4.17525">
        <ele>999.1</ele>
        <time>2026-04-25T11:21:11Z</time>
      </trkpt>
      <trkpt lat="45.08719" lon="4.17521">
        <ele>999.6</ele>
        <time>2026-04-25T11:21:16Z</time>
      </trkpt>
      <trkpt lat="45.08723" lon="4.17517">
        <ele>1000</ele>
        <time>2026-04-25T11:21:21Z</time>
      </trkpt>
      <trkpt lat="45.08728" lon="4.17513">
        <ele>1000.6</ele>
        <time>2026-04-25T11:21:26Z</time>
      </trkpt>
      <trkpt lat="45.08733" lon="4.1751">
        <ele>1001.1</ele>
        <time>2026-04-25T11:21:31Z</time>
      </trkpt>
      <trkpt lat="45.08737" lon="4.17507">
        <ele>1001.6</ele>
        <time>2026-04-25T11:21:36Z</time>
      </trkpt>
      <trkpt lat="45.08741" lon="4.17504">
        <ele>1002.1</ele>
        <time>2026-04-25T11:21:41Z</time>
      </trkpt>
      <trkpt lat="45.08742" lon="4.17503">
        <ele>1002.2</ele>
        <time>2026-04-25T11:21:46Z</time>
      </trkpt>
      <trkpt lat="45.08742" lon="4.17503">
        <ele>1002.2</ele>
        <time>2026-04-25T11:21:51Z</time>
      </trkpt>
      <trkpt lat="45.08742" lon="4.17503">
        <ele>1002.2</ele>
        <time>2026-04-25T11:21:56Z</time>
      </trkpt>
      <trkpt lat="45.08742" lon="4.17503">
        <ele>1002.2</ele>
        <time>2026-04-25T11:22:01Z</time>
      </trkpt>
      <trkpt lat="45.08742" lon="4.17503">
        <ele>1002.2</ele>
        <time>2026-04-25T11:22:06Z</time>
      </trkpt>
      <trkpt lat="45.08742" lon="4.17503">
        <ele>1002.2</ele>
        <time>2026-04-25T11:22:11Z</time>
      </trkpt>
      <trkpt lat="45.08742" lon="4.17503">
        <ele>1002.2</ele>
        <time>2026-04-25T11:22:16Z</time>
      </trkpt>
      <trkpt lat="45.08742" lon="4.17503">
        <ele>1002.2</ele>
        <time>2026-04-25T11:22:21Z</time>
      </trkpt>
      <trkpt lat="45.08742" lon="4.17503">
        <ele>1002.2</ele>
        <time>2026-04-25T11:22:26Z</time>
      </trkpt>
      <trkpt lat="45.08745" lon="4.17499">
        <ele>1002.7</ele>
        <time>2026-04-25T11:22:31Z</time>
      </trkpt>
      <trkpt lat="45.08751" lon="4.17495">
        <ele>1003.4</ele>
        <time>2026-04-25T11:22:36Z</time>
      </trkpt>
      <trkpt lat="45.08757" lon="4.17492">
        <ele>1004.2</ele>
        <time>2026-04-25T11:22:41Z</time>
      </trkpt>
      <trkpt lat="45.08763" lon="4.17488">
        <ele>1005</ele>
        <time>2026-04-25T11:22:46Z</time>
      </trkpt>
      <trkpt lat="45.08767" lon="4.17484">
        <ele>1005.6</ele>
        <time>2026-04-25T11:22:51Z</time>
      </trkpt>
      <trkpt lat="45.08772" lon="4.17481">
        <ele>1006.3</ele>
        <time>2026-04-25T11:22:56Z</time>
      </trkpt>
      <trkpt lat="45.08776" lon="4.17475">
        <ele>1007.1</ele>
        <time>2026-04-25T11:23:01Z</time>
      </trkpt>
      <trkpt lat="45.08781" lon="4.17469">
        <ele>1008</ele>
        <time>2026-04-25T11:23:06Z</time>
      </trkpt>
      <trkpt lat="45.08786" lon="4.17464">
        <ele>1008.8</ele>
        <time>2026-04-25T11:23:11Z</time>
      </trkpt>
      <trkpt lat="45.08792" lon="4.17457">
        <ele>1009.9</ele>
        <time>2026-04-25T11:23:16Z</time>
      </trkpt>
      <trkpt lat="45.08796" lon="4.17451">
        <ele>1010.7</ele>
        <time>2026-04-25T11:23:21Z</time>
      </trkpt>
      <trkpt lat="45.08799" lon="4.17446">
        <ele>1011.4</ele>
        <time>2026-04-25T11:23:26Z</time>
      </trkpt>
      <trkpt lat="45.08802" lon="4.17441">
        <ele>1012.1</ele>
        <time>2026-04-25T11:23:31Z</time>
      </trkpt>
      <trkpt lat="45.08805" lon="4.17436">
        <ele>1012.7</ele>
        <time>2026-04-25T11:23:36Z</time>
      </trkpt>
      <trkpt lat="45.08809" lon="4.17431">
        <ele>1013.5</ele>
        <time>2026-04-25T11:23:41Z</time>
      </trkpt>
      <trkpt lat="45.08811" lon="4.17425">
        <ele>1014.2</ele>
        <time>2026-04-25T11:23:46Z</time>
      </trkpt>
      <trkpt lat="45.08812" lon="4.17419">
        <ele>1014.8</ele>
        <time>2026-04-25T11:23:51Z</time>
      </trkpt>
      <trkpt lat="45.08812" lon="4.17412">
        <ele>1015.2</ele>
        <time>2026-04-25T11:23:56Z</time>
      </trkpt>
      <trkpt lat="45.08812" lon="4.17406">
        <ele>1015.5</ele>
        <time>2026-04-25T11:24:01Z</time>
      </trkpt>
      <trkpt lat="45.08815" lon="4.17398">
        <ele>1016.1</ele>
        <time>2026-04-25T11:24:06Z</time>
      </trkpt>
      <trkpt lat="45.0882" lon="4.17394">
        <ele>1016.8</ele>
        <time>2026-04-25T11:24:11Z</time>
      </trkpt>
      <trkpt lat="45.08822" lon="4.1739">
        <ele>1017.2</ele>
        <time>2026-04-25T11:24:16Z</time>
      </trkpt>
      <trkpt lat="45.08826" lon="4.17385">
        <ele>1017.8</ele>
        <time>2026-04-25T11:24:21Z</time>
      </trkpt>
      <trkpt lat="45.0883" lon="4.17379">
        <ele>1018.5</ele>
        <time>2026-04-25T11:24:26Z</time>
      </trkpt>
      <trkpt lat="45.08832" lon="4.17375">
        <ele>1018.9</ele>
        <time>2026-04-25T11:24:31Z</time>
      </trkpt>
      <trkpt lat="45.08836" lon="4.17369">
        <ele>1019.6</ele>
        <time>2026-04-25T11:24:36Z</time>
      </trkpt>
      <trkpt lat="45.0884" lon="4.17362">
        <ele>1020.3</ele>
        <time>2026-04-25T11:24:41Z</time>
      </trkpt>
      <trkpt lat="45.08844" lon="4.17356">
        <ele>1021.1</ele>
        <time>2026-04-25T11:24:46Z</time>
      </trkpt>
      <trkpt lat="45.08848" lon="4.17351">
        <ele>1021.7</ele>
        <time>2026-04-25T11:24:51Z</time>
      </trkpt>
      <trkpt lat="45.08853" lon="4.17346">
        <ele>1022.5</ele>
        <time>2026-04-25T11:24:56Z</time>
      </trkpt>
      <trkpt lat="45.08857" lon="4.17339">
        <ele>1023.3</ele>
        <time>2026-04-25T11:25:01Z</time>
      </trkpt>
      <trkpt lat="45.08858" lon="4.17334">
        <ele>1023.6</ele>
        <time>2026-04-25T11:25:06Z</time>
      </trkpt>
      <trkpt lat="45.08862" lon="4.17326">
        <ele>1024.4</ele>
        <time>2026-04-25T11:25:11Z</time>
      </trkpt>
      <trkpt lat="45.08867" lon="4.1732">
        <ele>1025.1</ele>
        <time>2026-04-25T11:25:16Z</time>
      </trkpt>
      <trkpt lat="45.08873" lon="4.17313">
        <ele>1026</ele>
        <time>2026-04-25T11:25:21Z</time>
      </trkpt>
      <trkpt lat="45.08878" lon="4.17306">
        <ele>1026.8</ele>
        <time>2026-04-25T11:25:26Z</time>
      </trkpt>
      <trkpt lat="45.08883" lon="4.17302">
        <ele>1027.4</ele>
        <time>2026-04-25T11:25:31Z</time>
      </trkpt>
      <trkpt lat="45.08889" lon="4.17299">
        <ele>1028.1</ele>
        <time>2026-04-25T11:25:36Z</time>
      </trkpt>
      <trkpt lat="45.08897" lon="4.17295">
        <ele>1029</ele>
        <time>2026-04-25T11:25:41Z</time>
      </trkpt>
      <trkpt lat="45.08902" lon="4.17293">
        <ele>1029.6</ele>
        <time>2026-04-25T11:25:46Z</time>
      </trkpt>
      <trkpt lat="45.08906" lon="4.17286">
        <ele>1030.1</ele>
        <time>2026-04-25T11:25:51Z</time>
      </trkpt>
      <trkpt lat="45.08908" lon="4.17278">
        <ele>1030.5</ele>
        <time>2026-04-25T11:25:56Z</time>
      </trkpt>
      <trkpt lat="45.08908" lon="4.1727">
        <ele>1030.7</ele>
        <time>2026-04-25T11:26:01Z</time>
      </trkpt>
      <trkpt lat="45.08906" lon="4.17262">
        <ele>1030.8</ele>
        <time>2026-04-25T11:26:06Z</time>
      </trkpt>
      <trkpt lat="45.08903" lon="4.17253">
        <ele>1030.8</ele>
        <time>2026-04-25T11:26:11Z</time>
      </trkpt>
      <trkpt lat="45.089" lon="4.17243">
        <ele>1030.7</ele>
        <time>2026-04-25T11:26:16Z</time>
      </trkpt>
      <trkpt lat="45.08898" lon="4.17237">
        <ele>1030.7</ele>
        <time>2026-04-25T11:26:21Z</time>
      </trkpt>
      <trkpt lat="45.08896" lon="4.17234">
        <ele>1030.6</ele>
        <time>2026-04-25T11:26:26Z</time>
      </trkpt>
      <trkpt lat="45.08896" lon="4.17234">
        <ele>1030.6</ele>
        <time>2026-04-25T11:26:31Z</time>
      </trkpt>
      <trkpt lat="45.08896" lon="4.17234">
        <ele>1030.6</ele>
        <time>2026-04-25T11:26:36Z</time>
      </trkpt>
      <trkpt lat="45.08891" lon="4.17224">
        <ele>1030.4</ele>
        <time>2026-04-25T11:26:41Z</time>
      </trkpt>
      <trkpt lat="45.08886" lon="4.17222">
        <ele>1030.1</ele>
        <time>2026-04-25T11:26:46Z</time>
      </trkpt>
      <trkpt lat="45.08885" lon="4.17222">
        <ele>1030.1</ele>
        <time>2026-04-25T11:26:51Z</time>
      </trkpt>
      <trkpt lat="45.08885" lon="4.17223">
        <ele>1030</ele>
        <time>2026-04-25T11:26:56Z</time>
      </trkpt>
      <trkpt lat="45.08885" lon="4.17223">
        <ele>1030</ele>
        <time>2026-04-25T11:27:01Z</time>
      </trkpt>
      <trkpt lat="45.08879" lon="4.17221">
        <ele>1029.7</ele>
        <time>2026-04-25T11:27:06Z</time>
      </trkpt>
      <trkpt lat="45.08874" lon="4.17216">
        <ele>1029.5</ele>
        <time>2026-04-25T11:27:11Z</time>
      </trkpt>
      <trkpt lat="45.08869" lon="4.17208">
        <ele>1029.4</ele>
        <time>2026-04-25T11:27:16Z</time>
      </trkpt>
      <trkpt lat="45.08864" lon="4.17202">
        <ele>1029.2</ele>
        <time>2026-04-25T11:27:21Z</time>
      </trkpt>
      <trkpt lat="45.08859" lon="4.17194">
        <ele>1029.2</ele>
        <time>2026-04-25T11:27:26Z</time>
      </trkpt>
      <trkpt lat="45.08854" lon="4.17188">
        <ele>1029.2</ele>
        <time>2026-04-25T11:27:31Z</time>
      </trkpt>
      <trkpt lat="45.08848" lon="4.17183">
        <ele>1029</ele>
        <time>2026-04-25T11:27:36Z</time>
      </trkpt>
      <trkpt lat="45.08841" lon="4.17178">
        <ele>1028.9</ele>
        <time>2026-04-25T11:27:41Z</time>
      </trkpt>
      <trkpt lat="45.08835" lon="4.17174">
        <ele>1028.7</ele>
        <time>2026-04-25T11:27:46Z</time>
      </trkpt>
      <trkpt lat="45.08829" lon="4.17169">
        <ele>1028.4</ele>
        <time>2026-04-25T11:27:51Z</time>
      </trkpt>
      <trkpt lat="45.08825" lon="4.17162">
        <ele>1028</ele>
        <time>2026-04-25T11:27:56Z</time>
      </trkpt>
      <trkpt lat="45.08815" lon="4.17161">
        <ele>1026.8</ele>
        <time>2026-04-25T11:28:01Z</time>
      </trkpt>
      <trkpt lat="45.08806" lon="4.17164">
        <ele>1025.7</ele>
        <time>2026-04-25T11:28:06Z</time>
      </trkpt>
      <trkpt lat="45.08802" lon="4.17163">
        <ele>1025.2</ele>
        <time>2026-04-25T11:28:11Z</time>
      </trkpt>
      <trkpt lat="45.08801" lon="4.17163">
        <ele>1025.1</ele>
        <time>2026-04-25T11:28:16Z</time>
      </trkpt>
      <trkpt lat="45.088" lon="4.17163">
        <ele>1025</ele>
        <time>2026-04-25T11:28:21Z</time>
      </trkpt>
      <trkpt lat="45.08797" lon="4.17163">
        <ele>1024.6</ele>
        <time>2026-04-25T11:28:26Z</time>
      </trkpt>
      <trkpt lat="45.08794" lon="4.17162">
        <ele>1024.3</ele>
        <time>2026-04-25T11:28:31Z</time>
      </trkpt>
      <trkpt lat="45.08789" lon="4.17161">
        <ele>1023.7</ele>
        <time>2026-04-25T11:28:36Z</time>
      </trkpt>
      <trkpt lat="45.0878" lon="4.17159">
        <ele>1022.6</ele>
        <time>2026-04-25T11:28:41Z</time>
      </trkpt>
      <trkpt lat="45.08774" lon="4.17159">
        <ele>1021.9</ele>
        <time>2026-04-25T11:28:46Z</time>
      </trkpt>
      <trkpt lat="45.08765" lon="4.17158">
        <ele>1020.8</ele>
        <time>2026-04-25T11:28:51Z</time>
      </trkpt>
      <trkpt lat="45.08758" lon="4.17156">
        <ele>1020</ele>
        <time>2026-04-25T11:28:56Z</time>
      </trkpt>
      <trkpt lat="45.08752" lon="4.17154">
        <ele>1019.2</ele>
        <time>2026-04-25T11:29:01Z</time>
      </trkpt>
      <trkpt lat="45.08745" lon="4.17148">
        <ele>1018.4</ele>
        <time>2026-04-25T11:29:06Z</time>
      </trkpt>
      <trkpt lat="45.08737" lon="4.17143">
        <ele>1017.5</ele>
        <time>2026-04-25T11:29:11Z</time>
      </trkpt>
      <trkpt lat="45.0873" lon="4.17139">
        <ele>1016.7</ele>
        <time>2026-04-25T11:29:16Z</time>
      </trkpt>
      <trkpt lat="45.08723" lon="4.17135">
        <ele>1015.9</ele>
        <time>2026-04-25T11:29:21Z</time>
      </trkpt>
      <trkpt lat="45.08716" lon="4.17131">
        <ele>1015.1</ele>
        <time>2026-04-25T11:29:26Z</time>
      </trkpt>
      <trkpt lat="45.08709" lon="4.17129">
        <ele>1014.3</ele>
        <time>2026-04-25T11:29:31Z</time>
      </trkpt>
      <trkpt lat="45.08703" lon="4.17128">
        <ele>1013.6</ele>
        <time>2026-04-25T11:29:36Z</time>
      </trkpt>
      <trkpt lat="45.08694" lon="4.17126">
        <ele>1012.6</ele>
        <time>2026-04-25T11:29:41Z</time>
      </trkpt>
      <trkpt lat="45.08685" lon="4.17126">
        <ele>1011.6</ele>
        <time>2026-04-25T11:29:46Z</time>
      </trkpt>
      <trkpt lat="45.08677" lon="4.17126">
        <ele>1010.7</ele>
        <time>2026-04-25T11:29:51Z</time>
      </trkpt>
      <trkpt lat="45.08672" lon="4.17125">
        <ele>1010.1</ele>
        <time>2026-04-25T11:29:56Z</time>
      </trkpt>
      <trkpt lat="45.08666" lon="4.17126">
        <ele>1009.5</ele>
        <time>2026-04-25T11:30:01Z</time>
      </trkpt>
      <trkpt lat="45.08658" lon="4.17127">
        <ele>1009.3</ele>
        <time>2026-04-25T11:30:06Z</time>
      </trkpt>
      <trkpt lat="45.08653" lon="4.17127">
        <ele>1009.1</ele>
        <time>2026-04-25T11:30:11Z</time>
      </trkpt>
      <trkpt lat="45.08646" lon="4.17125">
        <ele>1009</ele>
        <time>2026-04-25T11:30:16Z</time>
      </trkpt>
      <trkpt lat="45.0864" lon="4.17122">
        <ele>1008.9</ele>
        <time>2026-04-25T11:30:21Z</time>
      </trkpt>
      <trkpt lat="45.08634" lon="4.17121">
        <ele>1008.8</ele>
        <time>2026-04-25T11:30:26Z</time>
      </trkpt>
      <trkpt lat="45.08628" lon="4.17115">
        <ele>1008.8</ele>
        <time>2026-04-25T11:30:31Z</time>
      </trkpt>
      <trkpt lat="45.08624" lon="4.17109">
        <ele>1008.9</ele>
        <time>2026-04-25T11:30:36Z</time>
      </trkpt>
      <trkpt lat="45.08622" lon="4.17101">
        <ele>1009</ele>
        <time>2026-04-25T11:30:41Z</time>
      </trkpt>
      <trkpt lat="45.08618" lon="4.17096">
        <ele>1009.1</ele>
        <time>2026-04-25T11:30:46Z</time>
      </trkpt>
      <trkpt lat="45.08617" lon="4.17096">
        <ele>1009.1</ele>
        <time>2026-04-25T11:30:51Z</time>
      </trkpt>
      <trkpt lat="45.08616" lon="4.17094">
        <ele>1009.1</ele>
        <time>2026-04-25T11:30:56Z</time>
      </trkpt>
      <trkpt lat="45.08611" lon="4.17088">
        <ele>1009.2</ele>
        <time>2026-04-25T11:31:01Z</time>
      </trkpt>
      <trkpt lat="45.08605" lon="4.17085">
        <ele>1009.2</ele>
        <time>2026-04-25T11:31:06Z</time>
      </trkpt>
      <trkpt lat="45.08599" lon="4.17083">
        <ele>1009.2</ele>
        <time>2026-04-25T11:31:11Z</time>
      </trkpt>
      <trkpt lat="45.08593" lon="4.17079">
        <ele>1009.1</ele>
        <time>2026-04-25T11:31:16Z</time>
      </trkpt>
      <trkpt lat="45.08586" lon="4.17078">
        <ele>1009</ele>
        <time>2026-04-25T11:31:21Z</time>
      </trkpt>
      <trkpt lat="45.0858" lon="4.17079">
        <ele>1009.5</ele>
        <time>2026-04-25T11:31:26Z</time>
      </trkpt>
      <trkpt lat="45.08576" lon="4.17077">
        <ele>1010.1</ele>
        <time>2026-04-25T11:31:31Z</time>
      </trkpt>
      <trkpt lat="45.0857" lon="4.17078">
        <ele>1011</ele>
        <time>2026-04-25T11:31:36Z</time>
      </trkpt>
      <trkpt lat="45.08563" lon="4.17077">
        <ele>1012.1</ele>
        <time>2026-04-25T11:31:41Z</time>
      </trkpt>
      <trkpt lat="45.08555" lon="4.17077">
        <ele>1013.3</ele>
        <time>2026-04-25T11:31:46Z</time>
      </trkpt>
      <trkpt lat="45.08547" lon="4.17074">
        <ele>1014.5</ele>
        <time>2026-04-25T11:31:51Z</time>
      </trkpt>
      <trkpt lat="45.08539" lon="4.17072">
        <ele>1015.6</ele>
        <time>2026-04-25T11:31:56Z</time>
      </trkpt>
      <trkpt lat="45.08533" lon="4.17071">
        <ele>1016.5</ele>
        <time>2026-04-25T11:32:01Z</time>
      </trkpt>
      <trkpt lat="45.08526" lon="4.17068">
        <ele>1017.4</ele>
        <time>2026-04-25T11:32:06Z</time>
      </trkpt>
      <trkpt lat="45.0852" lon="4.17064">
        <ele>1018.2</ele>
        <time>2026-04-25T11:32:11Z</time>
      </trkpt>
      <trkpt lat="45.08515" lon="4.1706">
        <ele>1018.7</ele>
        <time>2026-04-25T11:32:16Z</time>
      </trkpt>
      <trkpt lat="45.0851" lon="4.17058">
        <ele>1019.4</ele>
        <time>2026-04-25T11:32:21Z</time>
      </trkpt>
      <trkpt lat="45.08505" lon="4.17053">
        <ele>1019.9</ele>
        <time>2026-04-25T11:32:26Z</time>
      </trkpt>
      <trkpt lat="45.085" lon="4.1705">
        <ele>1020.4</ele>
        <time>2026-04-25T11:32:31Z</time>
      </trkpt>
      <trkpt lat="45.08494" lon="4.17048">
        <ele>1021.2</ele>
        <time>2026-04-25T11:32:36Z</time>
      </trkpt>
      <trkpt lat="45.08488" lon="4.17047">
        <ele>1022.1</ele>
        <time>2026-04-25T11:32:41Z</time>
      </trkpt>
      <trkpt lat="45.08483" lon="4.17044">
        <ele>1022.8</ele>
        <time>2026-04-25T11:32:46Z</time>
      </trkpt>
      <trkpt lat="45.08479" lon="4.1704">
        <ele>1023.2</ele>
        <time>2026-04-25T11:32:51Z</time>
      </trkpt>
      <trkpt lat="45.08474" lon="4.17038">
        <ele>1023.9</ele>
        <time>2026-04-25T11:32:56Z</time>
      </trkpt>
      <trkpt lat="45.08469" lon="4.17035">
        <ele>1024.5</ele>
        <time>2026-04-25T11:33:01Z</time>
      </trkpt>
      <trkpt lat="45.08464" lon="4.17033">
        <ele>1025.2</ele>
        <time>2026-04-25T11:33:06Z</time>
      </trkpt>
      <trkpt lat="45.0846" lon="4.1703">
        <ele>1025.7</ele>
        <time>2026-04-25T11:33:11Z</time>
      </trkpt>
      <trkpt lat="45.08455" lon="4.17027">
        <ele>1026.3</ele>
        <time>2026-04-25T11:33:16Z</time>
      </trkpt>
      <trkpt lat="45.08451" lon="4.17025">
        <ele>1026.8</ele>
        <time>2026-04-25T11:33:21Z</time>
      </trkpt>
      <trkpt lat="45.08447" lon="4.17022">
        <ele>1027.3</ele>
        <time>2026-04-25T11:33:26Z</time>
      </trkpt>
      <trkpt lat="45.08443" lon="4.17018">
        <ele>1027.8</ele>
        <time>2026-04-25T11:33:31Z</time>
      </trkpt>
      <trkpt lat="45.08438" lon="4.17016">
        <ele>1028.4</ele>
        <time>2026-04-25T11:33:36Z</time>
      </trkpt>
      <trkpt lat="45.08434" lon="4.17013">
        <ele>1028.9</ele>
        <time>2026-04-25T11:33:41Z</time>
      </trkpt>
      <trkpt lat="45.08431" lon="4.17008">
        <ele>1029.1</ele>
        <time>2026-04-25T11:33:46Z</time>
      </trkpt>
      <trkpt lat="45.08428" lon="4.17004">
        <ele>1029.4</ele>
        <time>2026-04-25T11:33:51Z</time>
      </trkpt>
      <trkpt lat="45.08424" lon="4.17002">
        <ele>1030</ele>
        <time>2026-04-25T11:33:56Z</time>
      </trkpt>
      <trkpt lat="45.08421" lon="4.16997">
        <ele>1030.3</ele>
        <time>2026-04-25T11:34:01Z</time>
      </trkpt>
      <trkpt lat="45.08418" lon="4.16995">
        <ele>1030.7</ele>
        <time>2026-04-25T11:34:06Z</time>
      </trkpt>
      <trkpt lat="45.08414" lon="4.16992">
        <ele>1031.1</ele>
        <time>2026-04-25T11:34:11Z</time>
      </trkpt>
      <trkpt lat="45.08411" lon="4.16989">
        <ele>1031.4</ele>
        <time>2026-04-25T11:34:16Z</time>
      </trkpt>
      <trkpt lat="45.08406" lon="4.16986">
        <ele>1031.9</ele>
        <time>2026-04-25T11:34:21Z</time>
      </trkpt>
      <trkpt lat="45.08401" lon="4.16984">
        <ele>1032.4</ele>
        <time>2026-04-25T11:34:26Z</time>
      </trkpt>
      <trkpt lat="45.08398" lon="4.1698">
        <ele>1032.6</ele>
        <time>2026-04-25T11:34:31Z</time>
      </trkpt>
      <trkpt lat="45.08396" lon="4.16977">
        <ele>1032.7</ele>
        <time>2026-04-25T11:34:36Z</time>
      </trkpt>
      <trkpt lat="45.08393" lon="4.16972">
        <ele>1032.9</ele>
        <time>2026-04-25T11:34:41Z</time>
      </trkpt>
      <trkpt lat="45.08389" lon="4.16969">
        <ele>1033.2</ele>
        <time>2026-04-25T11:34:46Z</time>
      </trkpt>
      <trkpt lat="45.08385" lon="4.16966">
        <ele>1033.5</ele>
        <time>2026-04-25T11:34:51Z</time>
      </trkpt>
      <trkpt lat="45.0838" lon="4.16961">
        <ele>1033.8</ele>
        <time>2026-04-25T11:34:56Z</time>
      </trkpt>
      <trkpt lat="45.08377" lon="4.16958">
        <ele>1034</ele>
        <time>2026-04-25T11:35:01Z</time>
      </trkpt>
      <trkpt lat="45.08374" lon="4.16954">
        <ele>1034.2</ele>
        <time>2026-04-25T11:35:06Z</time>
      </trkpt>
      <trkpt lat="45.08371" lon="4.1695">
        <ele>1034.3</ele>
        <time>2026-04-25T11:35:11Z</time>
      </trkpt>
      <trkpt lat="45.08367" lon="4.16947">
        <ele>1034.6</ele>
        <time>2026-04-25T11:35:16Z</time>
      </trkpt>
      <trkpt lat="45.08364" lon="4.16942">
        <ele>1034.6</ele>
        <time>2026-04-25T11:35:21Z</time>
      </trkpt>
      <trkpt lat="45.0836" lon="4.16939">
        <ele>1034.8</ele>
        <time>2026-04-25T11:35:26Z</time>
      </trkpt>
      <trkpt lat="45.08356" lon="4.16936">
        <ele>1035.1</ele>
        <time>2026-04-25T11:35:31Z</time>
      </trkpt>
      <trkpt lat="45.08352" lon="4.16932">
        <ele>1035.2</ele>
        <time>2026-04-25T11:35:36Z</time>
      </trkpt>
      <trkpt lat="45.08348" lon="4.16928">
        <ele>1035.4</ele>
        <time>2026-04-25T11:35:41Z</time>
      </trkpt>
      <trkpt lat="45.08343" lon="4.16923">
        <ele>1035.5</ele>
        <time>2026-04-25T11:35:46Z</time>
      </trkpt>
      <trkpt lat="45.08337" lon="4.16919">
        <ele>1035.8</ele>
        <time>2026-04-25T11:35:51Z</time>
      </trkpt>
      <trkpt lat="45.08332" lon="4.16916">
        <ele>1036.1</ele>
        <time>2026-04-25T11:35:56Z</time>
      </trkpt>
      <trkpt lat="45.08327" lon="4.16913">
        <ele>1036.2</ele>
        <time>2026-04-25T11:36:01Z</time>
      </trkpt>
      <trkpt lat="45.08323" lon="4.16909">
        <ele>1036.3</ele>
        <time>2026-04-25T11:36:06Z</time>
      </trkpt>
      <trkpt lat="45.0832" lon="4.16903">
        <ele>1036.3</ele>
        <time>2026-04-25T11:36:11Z</time>
      </trkpt>
      <trkpt lat="45.08316" lon="4.16897">
        <ele>1036.3</ele>
        <time>2026-04-25T11:36:16Z</time>
      </trkpt>
      <trkpt lat="45.08312" lon="4.1689">
        <ele>1036.3</ele>
        <time>2026-04-25T11:36:21Z</time>
      </trkpt>
      <trkpt lat="45.08307" lon="4.16883">
        <ele>1036.4</ele>
        <time>2026-04-25T11:36:26Z</time>
      </trkpt>
      <trkpt lat="45.08301" lon="4.16876">
        <ele>1036.5</ele>
        <time>2026-04-25T11:36:31Z</time>
      </trkpt>
      <trkpt lat="45.08298" lon="4.16868">
        <ele>1036.4</ele>
        <time>2026-04-25T11:36:36Z</time>
      </trkpt>
      <trkpt lat="45.08294" lon="4.1686">
        <ele>1036.3</ele>
        <time>2026-04-25T11:36:41Z</time>
      </trkpt>
      <trkpt lat="45.08291" lon="4.16851">
        <ele>1036.2</ele>
        <time>2026-04-25T11:36:46Z</time>
      </trkpt>
      <trkpt lat="45.08289" lon="4.16844">
        <ele>1036</ele>
        <time>2026-04-25T11:36:51Z</time>
      </trkpt>
      <trkpt lat="45.08285" lon="4.16835">
        <ele>1036</ele>
        <time>2026-04-25T11:36:56Z</time>
      </trkpt>
      <trkpt lat="45.08282" lon="4.16826">
        <ele>1035.7</ele>
        <time>2026-04-25T11:37:01Z</time>
      </trkpt>
      <trkpt lat="45.0828" lon="4.16819">
        <ele>1035.6</ele>
        <time>2026-04-25T11:37:06Z</time>
      </trkpt>
      <trkpt lat="45.08275" lon="4.1681">
        <ele>1035.5</ele>
        <time>2026-04-25T11:37:11Z</time>
      </trkpt>
      <trkpt lat="45.08271" lon="4.16802">
        <ele>1035.4</ele>
        <time>2026-04-25T11:37:16Z</time>
      </trkpt>
      <trkpt lat="45.08266" lon="4.16795">
        <ele>1035.5</ele>
        <time>2026-04-25T11:37:21Z</time>
      </trkpt>
      <trkpt lat="45.08263" lon="4.16788">
        <ele>1035.4</ele>
        <time>2026-04-25T11:37:26Z</time>
      </trkpt>
      <trkpt lat="45.0826" lon="4.16777">
        <ele>1035.2</ele>
        <time>2026-04-25T11:37:31Z</time>
      </trkpt>
      <trkpt lat="45.08254" lon="4.16767">
        <ele>1035.3</ele>
        <time>2026-04-25T11:37:36Z</time>
      </trkpt>
      <trkpt lat="45.08252" lon="4.16758">
        <ele>1035.1</ele>
        <time>2026-04-25T11:37:41Z</time>
      </trkpt>
      <trkpt lat="45.08249" lon="4.1675">
        <ele>1035.1</ele>
        <time>2026-04-25T11:37:46Z</time>
      </trkpt>
      <trkpt lat="45.08247" lon="4.16743">
        <ele>1035.4</ele>
        <time>2026-04-25T11:37:51Z</time>
      </trkpt>
      <trkpt lat="45.08243" lon="4.16737">
        <ele>1035.9</ele>
        <time>2026-04-25T11:37:56Z</time>
      </trkpt>
      <trkpt lat="45.08239" lon="4.16728">
        <ele>1036.6</ele>
        <time>2026-04-25T11:38:01Z</time>
      </trkpt>
      <trkpt lat="45.08235" lon="4.16719">
        <ele>1037.2</ele>
        <time>2026-04-25T11:38:06Z</time>
      </trkpt>
      <trkpt lat="45.08233" lon="4.1671">
        <ele>1037.7</ele>
        <time>2026-04-25T11:38:11Z</time>
      </trkpt>
      <trkpt lat="45.08229" lon="4.16701">
        <ele>1038.4</ele>
        <time>2026-04-25T11:38:16Z</time>
      </trkpt>
      <trkpt lat="45.08228" lon="4.16693">
        <ele>1038.8</ele>
        <time>2026-04-25T11:38:21Z</time>
      </trkpt>
      <trkpt lat="45.08224" lon="4.16684">
        <ele>1039.5</ele>
        <time>2026-04-25T11:38:26Z</time>
      </trkpt>
      <trkpt lat="45.08221" lon="4.16677">
        <ele>1040.1</ele>
        <time>2026-04-25T11:38:31Z</time>
      </trkpt>
      <trkpt lat="45.0822" lon="4.16674">
        <ele>1040.3</ele>
        <time>2026-04-25T11:38:36Z</time>
      </trkpt>
      <trkpt lat="45.08219" lon="4.16669">
        <ele>1040.6</ele>
        <time>2026-04-25T11:38:41Z</time>
      </trkpt>
      <trkpt lat="45.08217" lon="4.16661">
        <ele>1041.3</ele>
        <time>2026-04-25T11:38:46Z</time>
      </trkpt>
      <trkpt lat="45.08213" lon="4.16654">
        <ele>1042.3</ele>
        <time>2026-04-25T11:38:51Z</time>
      </trkpt>
      <trkpt lat="45.08212" lon="4.16647">
        <ele>1042.9</ele>
        <time>2026-04-25T11:38:56Z</time>
      </trkpt>
      <trkpt lat="45.0821" lon="4.16639">
        <ele>1043.6</ele>
        <time>2026-04-25T11:39:01Z</time>
      </trkpt>
      <trkpt lat="45.08209" lon="4.16631">
        <ele>1044.3</ele>
        <time>2026-04-25T11:39:06Z</time>
      </trkpt>
      <trkpt lat="45.0821" lon="4.16625">
        <ele>1044.6</ele>
        <time>2026-04-25T11:39:11Z</time>
      </trkpt>
      <trkpt lat="45.08209" lon="4.16618">
        <ele>1045.1</ele>
        <time>2026-04-25T11:39:16Z</time>
      </trkpt>
      <trkpt lat="45.08207" lon="4.16611">
        <ele>1045.8</ele>
        <time>2026-04-25T11:39:21Z</time>
      </trkpt>
      <trkpt lat="45.08206" lon="4.16605">
        <ele>1046.3</ele>
        <time>2026-04-25T11:39:26Z</time>
      </trkpt>
      <trkpt lat="45.08205" lon="4.16599">
        <ele>1046.8</ele>
        <time>2026-04-25T11:39:31Z</time>
      </trkpt>
      <trkpt lat="45.08203" lon="4.16595">
        <ele>1047.3</ele>
        <time>2026-04-25T11:39:36Z</time>
      </trkpt>
      <trkpt lat="45.08201" lon="4.16592">
        <ele>1047.7</ele>
        <time>2026-04-25T11:39:41Z</time>
      </trkpt>
      <trkpt lat="45.08199" lon="4.16587">
        <ele>1048.3</ele>
        <time>2026-04-25T11:39:46Z</time>
      </trkpt>
      <trkpt lat="45.08198" lon="4.16582">
        <ele>1048.7</ele>
        <time>2026-04-25T11:39:51Z</time>
      </trkpt>
      <trkpt lat="45.08197" lon="4.16579">
        <ele>1048.9</ele>
        <time>2026-04-25T11:39:56Z</time>
      </trkpt>
      <trkpt lat="45.08195" lon="4.16575">
        <ele>1049.2</ele>
        <time>2026-04-25T11:40:01Z</time>
      </trkpt>
      <trkpt lat="45.08194" lon="4.1657">
        <ele>1049.5</ele>
        <time>2026-04-25T11:40:06Z</time>
      </trkpt>
      <trkpt lat="45.08192" lon="4.16565">
        <ele>1049.8</ele>
        <time>2026-04-25T11:40:11Z</time>
      </trkpt>
      <trkpt lat="45.08191" lon="4.16561">
        <ele>1050.1</ele>
        <time>2026-04-25T11:40:16Z</time>
      </trkpt>
      <trkpt lat="45.0819" lon="4.16556">
        <ele>1050.3</ele>
        <time>2026-04-25T11:40:21Z</time>
      </trkpt>
      <trkpt lat="45.08189" lon="4.16552">
        <ele>1050.5</ele>
        <time>2026-04-25T11:40:26Z</time>
      </trkpt>
      <trkpt lat="45.08188" lon="4.16547">
        <ele>1050.8</ele>
        <time>2026-04-25T11:40:31Z</time>
      </trkpt>
      <trkpt lat="45.08186" lon="4.16542">
        <ele>1051.1</ele>
        <time>2026-04-25T11:40:36Z</time>
      </trkpt>
      <trkpt lat="45.08183" lon="4.16538">
        <ele>1051.5</ele>
        <time>2026-04-25T11:40:41Z</time>
      </trkpt>
      <trkpt lat="45.0818" lon="4.16531">
        <ele>1052</ele>
        <time>2026-04-25T11:40:46Z</time>
      </trkpt>
      <trkpt lat="45.08176" lon="4.16525">
        <ele>1052.5</ele>
        <time>2026-04-25T11:40:51Z</time>
      </trkpt>
      <trkpt lat="45.08173" lon="4.1652">
        <ele>1053</ele>
        <time>2026-04-25T11:40:56Z</time>
      </trkpt>
      <trkpt lat="45.08168" lon="4.16516">
        <ele>1053.5</ele>
        <time>2026-04-25T11:41:01Z</time>
      </trkpt>
      <trkpt lat="45.08164" lon="4.1651">
        <ele>1053.9</ele>
        <time>2026-04-25T11:41:06Z</time>
      </trkpt>
      <trkpt lat="45.0816" lon="4.16505">
        <ele>1054.3</ele>
        <time>2026-04-25T11:41:11Z</time>
      </trkpt>
      <trkpt lat="45.08156" lon="4.165">
        <ele>1054.6</ele>
        <time>2026-04-25T11:41:16Z</time>
      </trkpt>
      <trkpt lat="45.08152" lon="4.16495">
        <ele>1054.9</ele>
        <time>2026-04-25T11:41:21Z</time>
      </trkpt>
      <trkpt lat="45.08147" lon="4.1649">
        <ele>1055.2</ele>
        <time>2026-04-25T11:41:26Z</time>
      </trkpt>
      <trkpt lat="45.08143" lon="4.16484">
        <ele>1055.4</ele>
        <time>2026-04-25T11:41:31Z</time>
      </trkpt>
      <trkpt lat="45.08138" lon="4.16479">
        <ele>1055.7</ele>
        <time>2026-04-25T11:41:36Z</time>
      </trkpt>
      <trkpt lat="45.08133" lon="4.16473">
        <ele>1056</ele>
        <time>2026-04-25T11:41:41Z</time>
      </trkpt>
      <trkpt lat="45.08129" lon="4.16468">
        <ele>1056.3</ele>
        <time>2026-04-25T11:41:46Z</time>
      </trkpt>
      <trkpt lat="45.08126" lon="4.16463">
        <ele>1056.4</ele>
        <time>2026-04-25T11:41:51Z</time>
      </trkpt>
      <trkpt lat="45.08122" lon="4.16457">
        <ele>1056.7</ele>
        <time>2026-04-25T11:41:56Z</time>
      </trkpt>
      <trkpt lat="45.08118" lon="4.1645">
        <ele>1056.9</ele>
        <time>2026-04-25T11:42:01Z</time>
      </trkpt>
      <trkpt lat="45.08114" lon="4.16443">
        <ele>1057.2</ele>
        <time>2026-04-25T11:42:06Z</time>
      </trkpt>
      <trkpt lat="45.0811" lon="4.16437">
        <ele>1057.4</ele>
        <time>2026-04-25T11:42:11Z</time>
      </trkpt>
      <trkpt lat="45.08106" lon="4.16433">
        <ele>1057.6</ele>
        <time>2026-04-25T11:42:16Z</time>
      </trkpt>
      <trkpt lat="45.08102" lon="4.16427">
        <ele>1057.9</ele>
        <time>2026-04-25T11:42:21Z</time>
      </trkpt>
      <trkpt lat="45.08098" lon="4.1642">
        <ele>1058.1</ele>
        <time>2026-04-25T11:42:26Z</time>
      </trkpt>
      <trkpt lat="45.08093" lon="4.16414">
        <ele>1058.5</ele>
        <time>2026-04-25T11:42:31Z</time>
      </trkpt>
      <trkpt lat="45.08089" lon="4.16405">
        <ele>1059.1</ele>
        <time>2026-04-25T11:42:36Z</time>
      </trkpt>
      <trkpt lat="45.08083" lon="4.16398">
        <ele>1059.7</ele>
        <time>2026-04-25T11:42:41Z</time>
      </trkpt>
      <trkpt lat="45.08079" lon="4.16391">
        <ele>1060.2</ele>
        <time>2026-04-25T11:42:46Z</time>
      </trkpt>
      <trkpt lat="45.08075" lon="4.16384">
        <ele>1060.8</ele>
        <time>2026-04-25T11:42:51Z</time>
      </trkpt>
      <trkpt lat="45.0807" lon="4.16375">
        <ele>1061.5</ele>
        <time>2026-04-25T11:42:56Z</time>
      </trkpt>
      <trkpt lat="45.08067" lon="4.16368">
        <ele>1061.9</ele>
        <time>2026-04-25T11:43:01Z</time>
      </trkpt>
      <trkpt lat="45.08065" lon="4.16363">
        <ele>1062.3</ele>
        <time>2026-04-25T11:43:06Z</time>
      </trkpt>
      <trkpt lat="45.08065" lon="4.16363">
        <ele>1062.3</ele>
        <time>2026-04-25T11:43:11Z</time>
      </trkpt>
      <trkpt lat="45.08062" lon="4.16361">
        <ele>1062.5</ele>
        <time>2026-04-25T11:43:16Z</time>
      </trkpt>
      <trkpt lat="45.08058" lon="4.16353">
        <ele>1063.1</ele>
        <time>2026-04-25T11:43:21Z</time>
      </trkpt>
      <trkpt lat="45.08054" lon="4.16345">
        <ele>1063.7</ele>
        <time>2026-04-25T11:43:26Z</time>
      </trkpt>
      <trkpt lat="45.0805" lon="4.16338">
        <ele>1064.2</ele>
        <time>2026-04-25T11:43:31Z</time>
      </trkpt>
      <trkpt lat="45.08047" lon="4.16331">
        <ele>1064.6</ele>
        <time>2026-04-25T11:43:36Z</time>
      </trkpt>
      <trkpt lat="45.08042" lon="4.16324">
        <ele>1065</ele>
        <time>2026-04-25T11:43:41Z</time>
      </trkpt>
      <trkpt lat="45.08038" lon="4.1632">
        <ele>1065.3</ele>
        <time>2026-04-25T11:43:46Z</time>
      </trkpt>
      <trkpt lat="45.08034" lon="4.16315">
        <ele>1065.6</ele>
        <time>2026-04-25T11:43:51Z</time>
      </trkpt>
      <trkpt lat="45.08029" lon="4.16308">
        <ele>1066.1</ele>
        <time>2026-04-25T11:43:56Z</time>
      </trkpt>
      <trkpt lat="45.08026" lon="4.16303">
        <ele>1066.4</ele>
        <time>2026-04-25T11:44:01Z</time>
      </trkpt>
      <trkpt lat="45.08021" lon="4.16299">
        <ele>1066.9</ele>
        <time>2026-04-25T11:44:06Z</time>
      </trkpt>
      <trkpt lat="45.08017" lon="4.16293">
        <ele>1067.3</ele>
        <time>2026-04-25T11:44:11Z</time>
      </trkpt>
      <trkpt lat="45.08013" lon="4.16287">
        <ele>1067.8</ele>
        <time>2026-04-25T11:44:16Z</time>
      </trkpt>
      <trkpt lat="45.08009" lon="4.16282">
        <ele>1068.3</ele>
        <time>2026-04-25T11:44:21Z</time>
      </trkpt>
      <trkpt lat="45.08007" lon="4.16275">
        <ele>1068.7</ele>
        <time>2026-04-25T11:44:26Z</time>
      </trkpt>
      <trkpt lat="45.08003" lon="4.16268">
        <ele>1069.2</ele>
        <time>2026-04-25T11:44:31Z</time>
      </trkpt>
      <trkpt lat="45.07999" lon="4.16261">
        <ele>1069.8</ele>
        <time>2026-04-25T11:44:36Z</time>
      </trkpt>
      <trkpt lat="45.07996" lon="4.16254">
        <ele>1070.2</ele>
        <time>2026-04-25T11:44:41Z</time>
      </trkpt>
      <trkpt lat="45.07992" lon="4.16248">
        <ele>1070.6</ele>
        <time>2026-04-25T11:44:46Z</time>
      </trkpt>
      <trkpt lat="45.07988" lon="4.16241">
        <ele>1071.1</ele>
        <time>2026-04-25T11:44:51Z</time>
      </trkpt>
      <trkpt lat="45.07983" lon="4.16233">
        <ele>1071.6</ele>
        <time>2026-04-25T11:44:56Z</time>
      </trkpt>
      <trkpt lat="45.0798" lon="4.16226">
        <ele>1072</ele>
        <time>2026-04-25T11:45:01Z</time>
      </trkpt>
      <trkpt lat="45.07976" lon="4.16219">
        <ele>1072.5</ele>
        <time>2026-04-25T11:45:06Z</time>
      </trkpt>
      <trkpt lat="45.07973" lon="4.16212">
        <ele>1072.9</ele>
        <time>2026-04-25T11:45:11Z</time>
      </trkpt>
      <trkpt lat="45.0797" lon="4.16206">
        <ele>1073.2</ele>
        <time>2026-04-25T11:45:16Z</time>
      </trkpt>
      <trkpt lat="45.07967" lon="4.162">
        <ele>1073.6</ele>
        <time>2026-04-25T11:45:21Z</time>
      </trkpt>
      <trkpt lat="45.07965" lon="4.16193">
        <ele>1073.9</ele>
        <time>2026-04-25T11:45:26Z</time>
      </trkpt>
      <trkpt lat="45.07963" lon="4.16185">
        <ele>1074.2</ele>
        <time>2026-04-25T11:45:31Z</time>
      </trkpt>
      <trkpt lat="45.07961" lon="4.16176">
        <ele>1074.6</ele>
        <time>2026-04-25T11:45:36Z</time>
      </trkpt>
      <trkpt lat="45.07958" lon="4.16167">
        <ele>1075</ele>
        <time>2026-04-25T11:45:41Z</time>
      </trkpt>
      <trkpt lat="45.07957" lon="4.1616">
        <ele>1075.3</ele>
        <time>2026-04-25T11:45:46Z</time>
      </trkpt>
      <trkpt lat="45.07955" lon="4.1615">
        <ele>1075.6</ele>
        <time>2026-04-25T11:45:51Z</time>
      </trkpt>
      <trkpt lat="45.07954" lon="4.16142">
        <ele>1075.9</ele>
        <time>2026-04-25T11:45:56Z</time>
      </trkpt>
      <trkpt lat="45.07953" lon="4.16133">
        <ele>1076.1</ele>
        <time>2026-04-25T11:46:01Z</time>
      </trkpt>
      <trkpt lat="45.07952" lon="4.16124">
        <ele>1076.4</ele>
        <time>2026-04-25T11:46:06Z</time>
      </trkpt>
      <trkpt lat="45.07951" lon="4.16117">
        <ele>1076.6</ele>
        <time>2026-04-25T11:46:11Z</time>
      </trkpt>
      <trkpt lat="45.07949" lon="4.16109">
        <ele>1076.9</ele>
        <time>2026-04-25T11:46:16Z</time>
      </trkpt>
      <trkpt lat="45.07948" lon="4.161">
        <ele>1077.1</ele>
        <time>2026-04-25T11:46:21Z</time>
      </trkpt>
      <trkpt lat="45.07947" lon="4.16092">
        <ele>1077.4</ele>
        <time>2026-04-25T11:46:26Z</time>
      </trkpt>
      <trkpt lat="45.07946" lon="4.16084">
        <ele>1077.6</ele>
        <time>2026-04-25T11:46:31Z</time>
      </trkpt>
      <trkpt lat="45.07946" lon="4.16076">
        <ele>1077.9</ele>
        <time>2026-04-25T11:46:36Z</time>
      </trkpt>
      <trkpt lat="45.07947" lon="4.16068">
        <ele>1078.1</ele>
        <time>2026-04-25T11:46:41Z</time>
      </trkpt>
      <trkpt lat="45.07946" lon="4.1606">
        <ele>1078.5</ele>
        <time>2026-04-25T11:46:46Z</time>
      </trkpt>
      <trkpt lat="45.07945" lon="4.16053">
        <ele>1078.8</ele>
        <time>2026-04-25T11:46:51Z</time>
      </trkpt>
      <trkpt lat="45.07946" lon="4.16045">
        <ele>1079.1</ele>
        <time>2026-04-25T11:46:56Z</time>
      </trkpt>
      <trkpt lat="45.07947" lon="4.16037">
        <ele>1079.4</ele>
        <time>2026-04-25T11:47:01Z</time>
      </trkpt>
      <trkpt lat="45.07948" lon="4.16029">
        <ele>1079.6</ele>
        <time>2026-04-25T11:47:06Z</time>
      </trkpt>
      <trkpt lat="45.07948" lon="4.16022">
        <ele>1079.9</ele>
        <time>2026-04-25T11:47:11Z</time>
      </trkpt>
      <trkpt lat="45.07948" lon="4.16014">
        <ele>1080.2</ele>
        <time>2026-04-25T11:47:16Z</time>
      </trkpt>
      <trkpt lat="45.07949" lon="4.16007">
        <ele>1080.4</ele>
        <time>2026-04-25T11:47:21Z</time>
      </trkpt>
      <trkpt lat="45.07949" lon="4.15999">
        <ele>1080.7</ele>
        <time>2026-04-25T11:47:26Z</time>
      </trkpt>
      <trkpt lat="45.07949" lon="4.15991">
        <ele>1081.1</ele>
        <time>2026-04-25T11:47:31Z</time>
      </trkpt>
      <trkpt lat="45.07949" lon="4.15983">
        <ele>1081.4</ele>
        <time>2026-04-25T11:47:36Z</time>
      </trkpt>
      <trkpt lat="45.07948" lon="4.15974">
        <ele>1081.9</ele>
        <time>2026-04-25T11:47:41Z</time>
      </trkpt>
      <trkpt lat="45.07947" lon="4.15967">
        <ele>1082.3</ele>
        <time>2026-04-25T11:47:46Z</time>
      </trkpt>
      <trkpt lat="45.07947" lon="4.15959">
        <ele>1082.7</ele>
        <time>2026-04-25T11:47:51Z</time>
      </trkpt>
      <trkpt lat="45.07947" lon="4.1595">
        <ele>1083.1</ele>
        <time>2026-04-25T11:47:56Z</time>
      </trkpt>
      <trkpt lat="45.07947" lon="4.15941">
        <ele>1083.5</ele>
        <time>2026-04-25T11:48:01Z</time>
      </trkpt>
      <trkpt lat="45.07947" lon="4.15933">
        <ele>1083.8</ele>
        <time>2026-04-25T11:48:06Z</time>
      </trkpt>
      <trkpt lat="45.07945" lon="4.15928">
        <ele>1084.1</ele>
        <time>2026-04-25T11:48:11Z</time>
      </trkpt>
      <trkpt lat="45.07945" lon="4.15927">
        <ele>1084.2</ele>
        <time>2026-04-25T11:48:16Z</time>
      </trkpt>
      <trkpt lat="45.07946" lon="4.15927">
        <ele>1084.1</ele>
        <time>2026-04-25T11:48:21Z</time>
      </trkpt>
      <trkpt lat="45.07945" lon="4.15923">
        <ele>1084.4</ele>
        <time>2026-04-25T11:48:26Z</time>
      </trkpt>
      <trkpt lat="45.07941" lon="4.15916">
        <ele>1084.9</ele>
        <time>2026-04-25T11:48:31Z</time>
      </trkpt>
      <trkpt lat="45.0794" lon="4.15909">
        <ele>1085.4</ele>
        <time>2026-04-25T11:48:36Z</time>
      </trkpt>
      <trkpt lat="45.07938" lon="4.15902">
        <ele>1085.9</ele>
        <time>2026-04-25T11:48:41Z</time>
      </trkpt>
      <trkpt lat="45.07935" lon="4.15895">
        <ele>1086.5</ele>
        <time>2026-04-25T11:48:46Z</time>
      </trkpt>
      <trkpt lat="45.07933" lon="4.15888">
        <ele>1087</ele>
        <time>2026-04-25T11:48:51Z</time>
      </trkpt>
      <trkpt lat="45.07932" lon="4.15882">
        <ele>1087.4</ele>
        <time>2026-04-25T11:48:56Z</time>
      </trkpt>
      <trkpt lat="45.07932" lon="4.15881">
        <ele>1087.5</ele>
        <time>2026-04-25T11:49:01Z</time>
      </trkpt>
      <trkpt lat="45.07932" lon="4.1588">
        <ele>1087.5</ele>
        <time>2026-04-25T11:49:06Z</time>
      </trkpt>
      <trkpt lat="45.0793" lon="4.15872">
        <ele>1088.1</ele>
        <time>2026-04-25T11:49:11Z</time>
      </trkpt>
      <trkpt lat="45.07927" lon="4.15867">
        <ele>1088.6</ele>
        <time>2026-04-25T11:49:16Z</time>
      </trkpt>
      <trkpt lat="45.07926" lon="4.15858">
        <ele>1089.2</ele>
        <time>2026-04-25T11:49:21Z</time>
      </trkpt>
      <trkpt lat="45.07926" lon="4.15849">
        <ele>1089.7</ele>
        <time>2026-04-25T11:49:26Z</time>
      </trkpt>
      <trkpt lat="45.07925" lon="4.15841">
        <ele>1090.2</ele>
        <time>2026-04-25T11:49:31Z</time>
      </trkpt>
      <trkpt lat="45.07924" lon="4.15834">
        <ele>1090.7</ele>
        <time>2026-04-25T11:49:36Z</time>
      </trkpt>
      <trkpt lat="45.07921" lon="4.15829">
        <ele>1091</ele>
        <time>2026-04-25T11:49:41Z</time>
      </trkpt>
      <trkpt lat="45.07919" lon="4.15823">
        <ele>1091.2</ele>
        <time>2026-04-25T11:49:46Z</time>
      </trkpt>
      <trkpt lat="45.07916" lon="4.15816">
        <ele>1091.4</ele>
        <time>2026-04-25T11:49:51Z</time>
      </trkpt>
      <trkpt lat="45.07914" lon="4.15809">
        <ele>1091.6</ele>
        <time>2026-04-25T11:49:56Z</time>
      </trkpt>
      <trkpt lat="45.07912" lon="4.15803">
        <ele>1091.8</ele>
        <time>2026-04-25T11:50:01Z</time>
      </trkpt>
      <trkpt lat="45.0791" lon="4.15795">
        <ele>1092.1</ele>
        <time>2026-04-25T11:50:06Z</time>
      </trkpt>
      <trkpt lat="45.07907" lon="4.15789">
        <ele>1092.3</ele>
        <time>2026-04-25T11:50:11Z</time>
      </trkpt>
      <trkpt lat="45.07905" lon="4.15783">
        <ele>1092.5</ele>
        <time>2026-04-25T11:50:16Z</time>
      </trkpt>
      <trkpt lat="45.07902" lon="4.15776">
        <ele>1092.7</ele>
        <time>2026-04-25T11:50:21Z</time>
      </trkpt>
      <trkpt lat="45.07899" lon="4.15768">
        <ele>1093</ele>
        <time>2026-04-25T11:50:26Z</time>
      </trkpt>
      <trkpt lat="45.07896" lon="4.15761">
        <ele>1093.2</ele>
        <time>2026-04-25T11:50:31Z</time>
      </trkpt>
      <trkpt lat="45.07893" lon="4.15755">
        <ele>1093.4</ele>
        <time>2026-04-25T11:50:36Z</time>
      </trkpt>
      <trkpt lat="45.0789" lon="4.15749">
        <ele>1093.7</ele>
        <time>2026-04-25T11:50:41Z</time>
      </trkpt>
      <trkpt lat="45.07886" lon="4.1574">
        <ele>1094</ele>
        <time>2026-04-25T11:50:46Z</time>
      </trkpt>
      <trkpt lat="45.07882" lon="4.15733">
        <ele>1094.2</ele>
        <time>2026-04-25T11:50:51Z</time>
      </trkpt>
      <trkpt lat="45.07878" lon="4.15725">
        <ele>1094.5</ele>
        <time>2026-04-25T11:50:56Z</time>
      </trkpt>
      <trkpt lat="45.07874" lon="4.15717">
        <ele>1094.8</ele>
        <time>2026-04-25T11:51:01Z</time>
      </trkpt>
      <trkpt lat="45.07869" lon="4.15709">
        <ele>1095.1</ele>
        <time>2026-04-25T11:51:06Z</time>
      </trkpt>
      <trkpt lat="45.07866" lon="4.15701">
        <ele>1095.4</ele>
        <time>2026-04-25T11:51:11Z</time>
      </trkpt>
      <trkpt lat="45.07862" lon="4.15694">
        <ele>1095.7</ele>
        <time>2026-04-25T11:51:16Z</time>
      </trkpt>
      <trkpt lat="45.07857" lon="4.15687">
        <ele>1095.9</ele>
        <time>2026-04-25T11:51:21Z</time>
      </trkpt>
      <trkpt lat="45.07853" lon="4.15679">
        <ele>1096.2</ele>
        <time>2026-04-25T11:51:26Z</time>
      </trkpt>
      <trkpt lat="45.07848" lon="4.1567">
        <ele>1096.6</ele>
        <time>2026-04-25T11:51:31Z</time>
      </trkpt>
      <trkpt lat="45.07844" lon="4.15662">
        <ele>1096.8</ele>
        <time>2026-04-25T11:51:36Z</time>
      </trkpt>
      <trkpt lat="45.07839" lon="4.15654">
        <ele>1096.9</ele>
        <time>2026-04-25T11:51:41Z</time>
      </trkpt>
      <trkpt lat="45.07837" lon="4.15648">
        <ele>1096.9</ele>
        <time>2026-04-25T11:51:46Z</time>
      </trkpt>
      <trkpt lat="45.07832" lon="4.15641">
        <ele>1097</ele>
        <time>2026-04-25T11:51:51Z</time>
      </trkpt>
      <trkpt lat="45.07827" lon="4.15634">
        <ele>1097</ele>
        <time>2026-04-25T11:51:56Z</time>
      </trkpt>
      <trkpt lat="45.07824" lon="4.15627">
        <ele>1097</ele>
        <time>2026-04-25T11:52:01Z</time>
      </trkpt>
      <trkpt lat="45.0782" lon="4.1562">
        <ele>1097</ele>
        <time>2026-04-25T11:52:06Z</time>
      </trkpt>
      <trkpt lat="45.07815" lon="4.15613">
        <ele>1097.1</ele>
        <time>2026-04-25T11:52:11Z</time>
      </trkpt>
      <trkpt lat="45.07812" lon="4.15605">
        <ele>1097.1</ele>
        <time>2026-04-25T11:52:16Z</time>
      </trkpt>
      <trkpt lat="45.07807" lon="4.156">
        <ele>1097.2</ele>
        <time>2026-04-25T11:52:21Z</time>
      </trkpt>
      <trkpt lat="45.07803" lon="4.15593">
        <ele>1097.3</ele>
        <time>2026-04-25T11:52:26Z</time>
      </trkpt>
      <trkpt lat="45.07798" lon="4.15584">
        <ele>1097.4</ele>
        <time>2026-04-25T11:52:31Z</time>
      </trkpt>
      <trkpt lat="45.07794" lon="4.15577">
        <ele>1097.4</ele>
        <time>2026-04-25T11:52:36Z</time>
      </trkpt>
      <trkpt lat="45.07792" lon="4.15573">
        <ele>1097.4</ele>
        <time>2026-04-25T11:52:41Z</time>
      </trkpt>
      <trkpt lat="45.07792" lon="4.15572">
        <ele>1097.4</ele>
        <time>2026-04-25T11:52:46Z</time>
      </trkpt>
      <trkpt lat="45.07791" lon="4.15567">
        <ele>1097.3</ele>
        <time>2026-04-25T11:52:51Z</time>
      </trkpt>
      <trkpt lat="45.07785" lon="4.15561">
        <ele>1097.3</ele>
        <time>2026-04-25T11:52:56Z</time>
      </trkpt>
      <trkpt lat="45.0778" lon="4.15553">
        <ele>1097.3</ele>
        <time>2026-04-25T11:53:01Z</time>
      </trkpt>
      <trkpt lat="45.07776" lon="4.15546">
        <ele>1097.2</ele>
        <time>2026-04-25T11:53:06Z</time>
      </trkpt>
      <trkpt lat="45.07772" lon="4.1554">
        <ele>1097.2</ele>
        <time>2026-04-25T11:53:11Z</time>
      </trkpt>
      <trkpt lat="45.07769" lon="4.15533">
        <ele>1097.2</ele>
        <time>2026-04-25T11:53:16Z</time>
      </trkpt>
      <trkpt lat="45.07764" lon="4.15526">
        <ele>1097.1</ele>
        <time>2026-04-25T11:53:21Z</time>
      </trkpt>
      <trkpt lat="45.0776" lon="4.15519">
        <ele>1097.1</ele>
        <time>2026-04-25T11:53:26Z</time>
      </trkpt>
      <trkpt lat="45.07755" lon="4.15511">
        <ele>1097.1</ele>
        <time>2026-04-25T11:53:31Z</time>
      </trkpt>
      <trkpt lat="45.07751" lon="4.15502">
        <ele>1097</ele>
        <time>2026-04-25T11:53:36Z</time>
      </trkpt>
      <trkpt lat="45.07746" lon="4.15495">
        <ele>1096.9</ele>
        <time>2026-04-25T11:53:41Z</time>
      </trkpt>
      <trkpt lat="45.07743" lon="4.15487">
        <ele>1096.9</ele>
        <time>2026-04-25T11:53:46Z</time>
      </trkpt>
      <trkpt lat="45.07738" lon="4.15478">
        <ele>1096.8</ele>
        <time>2026-04-25T11:53:51Z</time>
      </trkpt>
      <trkpt lat="45.07733" lon="4.15472">
        <ele>1096.7</ele>
        <time>2026-04-25T11:53:56Z</time>
      </trkpt>
      <trkpt lat="45.07727" lon="4.15464">
        <ele>1096.7</ele>
        <time>2026-04-25T11:54:01Z</time>
      </trkpt>
      <trkpt lat="45.07722" lon="4.15456">
        <ele>1096.7</ele>
        <time>2026-04-25T11:54:06Z</time>
      </trkpt>
      <trkpt lat="45.07717" lon="4.15449">
        <ele>1096.7</ele>
        <time>2026-04-25T11:54:11Z</time>
      </trkpt>
      <trkpt lat="45.07714" lon="4.15438">
        <ele>1096.8</ele>
        <time>2026-04-25T11:54:16Z</time>
      </trkpt>
      <trkpt lat="45.0771" lon="4.15429">
        <ele>1096.9</ele>
        <time>2026-04-25T11:54:21Z</time>
      </trkpt>
      <trkpt lat="45.07706" lon="4.15419">
        <ele>1097</ele>
        <time>2026-04-25T11:54:26Z</time>
      </trkpt>
      <trkpt lat="45.07702" lon="4.15409">
        <ele>1097.2</ele>
        <time>2026-04-25T11:54:31Z</time>
      </trkpt>
      <trkpt lat="45.07699" lon="4.15402">
        <ele>1097.5</ele>
        <time>2026-04-25T11:54:36Z</time>
      </trkpt>
      <trkpt lat="45.07696" lon="4.15397">
        <ele>1097.6</ele>
        <time>2026-04-25T11:54:41Z</time>
      </trkpt>
      <trkpt lat="45.07695" lon="4.1539">
        <ele>1097.9</ele>
        <time>2026-04-25T11:54:46Z</time>
      </trkpt>
      <trkpt lat="45.07692" lon="4.15382">
        <ele>1098.1</ele>
        <time>2026-04-25T11:54:51Z</time>
      </trkpt>
      <trkpt lat="45.07689" lon="4.15374">
        <ele>1098.4</ele>
        <time>2026-04-25T11:54:56Z</time>
      </trkpt>
      <trkpt lat="45.07687" lon="4.15364">
        <ele>1098.7</ele>
        <time>2026-04-25T11:55:01Z</time>
      </trkpt>
      <trkpt lat="45.07685" lon="4.15355">
        <ele>1099.1</ele>
        <time>2026-04-25T11:55:06Z</time>
      </trkpt>
      <trkpt lat="45.07681" lon="4.15347">
        <ele>1099.4</ele>
        <time>2026-04-25T11:55:11Z</time>
      </trkpt>
      <trkpt lat="45.07681" lon="4.15334">
        <ele>1099.8</ele>
        <time>2026-04-25T11:55:16Z</time>
      </trkpt>
      <trkpt lat="45.07681" lon="4.15326">
        <ele>1099.9</ele>
        <time>2026-04-25T11:55:21Z</time>
      </trkpt>
      <trkpt lat="45.0768" lon="4.15316">
        <ele>1100</ele>
        <time>2026-04-25T11:55:26Z</time>
      </trkpt>
      <trkpt lat="45.07679" lon="4.15307">
        <ele>1100.2</ele>
        <time>2026-04-25T11:55:31Z</time>
      </trkpt>
      <trkpt lat="45.07675" lon="4.15298">
        <ele>1100.3</ele>
        <time>2026-04-25T11:55:36Z</time>
      </trkpt>
      <trkpt lat="45.07673" lon="4.1529">
        <ele>1100.4</ele>
        <time>2026-04-25T11:55:41Z</time>
      </trkpt>
      <trkpt lat="45.07671" lon="4.1528">
        <ele>1100.6</ele>
        <time>2026-04-25T11:55:46Z</time>
      </trkpt>
      <trkpt lat="45.0767" lon="4.15271">
        <ele>1100.7</ele>
        <time>2026-04-25T11:55:51Z</time>
      </trkpt>
      <trkpt lat="45.07668" lon="4.15261">
        <ele>1100.9</ele>
        <time>2026-04-25T11:55:56Z</time>
      </trkpt>
      <trkpt lat="45.07665" lon="4.15249">
        <ele>1101</ele>
        <time>2026-04-25T11:56:01Z</time>
      </trkpt>
      <trkpt lat="45.07662" lon="4.15241">
        <ele>1101.2</ele>
        <time>2026-04-25T11:56:06Z</time>
      </trkpt>
      <trkpt lat="45.07658" lon="4.15232">
        <ele>1101.3</ele>
        <time>2026-04-25T11:56:11Z</time>
      </trkpt>
      <trkpt lat="45.07655" lon="4.15224">
        <ele>1101.5</ele>
        <time>2026-04-25T11:56:16Z</time>
      </trkpt>
      <trkpt lat="45.07654" lon="4.15214">
        <ele>1101.6</ele>
        <time>2026-04-25T11:56:21Z</time>
      </trkpt>
      <trkpt lat="45.07652" lon="4.15204">
        <ele>1101.8</ele>
        <time>2026-04-25T11:56:26Z</time>
      </trkpt>
      <trkpt lat="45.07649" lon="4.15196">
        <ele>1102</ele>
        <time>2026-04-25T11:56:31Z</time>
      </trkpt>
      <trkpt lat="45.07645" lon="4.1519">
        <ele>1102.2</ele>
        <time>2026-04-25T11:56:36Z</time>
      </trkpt>
      <trkpt lat="45.07642" lon="4.15182">
        <ele>1102.4</ele>
        <time>2026-04-25T11:56:41Z</time>
      </trkpt>
      <trkpt lat="45.07639" lon="4.15175">
        <ele>1102.5</ele>
        <time>2026-04-25T11:56:46Z</time>
      </trkpt>
      <trkpt lat="45.07639" lon="4.15169">
        <ele>1102.6</ele>
        <time>2026-04-25T11:56:51Z</time>
      </trkpt>
      <trkpt lat="45.07636" lon="4.15161">
        <ele>1102.8</ele>
        <time>2026-04-25T11:56:56Z</time>
      </trkpt>
      <trkpt lat="45.07632" lon="4.15153">
        <ele>1103.1</ele>
        <time>2026-04-25T11:57:01Z</time>
      </trkpt>
      <trkpt lat="45.07629" lon="4.15144">
        <ele>1103.3</ele>
        <time>2026-04-25T11:57:06Z</time>
      </trkpt>
      <trkpt lat="45.07625" lon="4.15135">
        <ele>1103.6</ele>
        <time>2026-04-25T11:57:11Z</time>
      </trkpt>
      <trkpt lat="45.07621" lon="4.15127">
        <ele>1103.8</ele>
        <time>2026-04-25T11:57:16Z</time>
      </trkpt>
      <trkpt lat="45.07618" lon="4.15117">
        <ele>1104.1</ele>
        <time>2026-04-25T11:57:21Z</time>
      </trkpt>
      <trkpt lat="45.07617" lon="4.15105">
        <ele>1104.4</ele>
        <time>2026-04-25T11:57:26Z</time>
      </trkpt>
      <trkpt lat="45.07617" lon="4.15095">
        <ele>1104.6</ele>
        <time>2026-04-25T11:57:31Z</time>
      </trkpt>
      <trkpt lat="45.07618" lon="4.15085">
        <ele>1104.7</ele>
        <time>2026-04-25T11:57:36Z</time>
      </trkpt>
      <trkpt lat="45.07617" lon="4.15074">
        <ele>1104.9</ele>
        <time>2026-04-25T11:57:41Z</time>
      </trkpt>
      <trkpt lat="45.07619" lon="4.15064">
        <ele>1105</ele>
        <time>2026-04-25T11:57:46Z</time>
      </trkpt>
      <trkpt lat="45.07622" lon="4.15053">
        <ele>1105</ele>
        <time>2026-04-25T11:57:51Z</time>
      </trkpt>
      <trkpt lat="45.07626" lon="4.15043">
        <ele>1104.9</ele>
        <time>2026-04-25T11:57:56Z</time>
      </trkpt>
      <trkpt lat="45.07627" lon="4.15034">
        <ele>1105</ele>
        <time>2026-04-25T11:58:01Z</time>
      </trkpt>
      <trkpt lat="45.07627" lon="4.15023">
        <ele>1105.1</ele>
        <time>2026-04-25T11:58:06Z</time>
      </trkpt>
      <trkpt lat="45.07629" lon="4.15012">
        <ele>1105.1</ele>
        <time>2026-04-25T11:58:11Z</time>
      </trkpt>
      <trkpt lat="45.0763" lon="4.15003">
        <ele>1105.2</ele>
        <time>2026-04-25T11:58:16Z</time>
      </trkpt>
      <trkpt lat="45.07632" lon="4.14993">
        <ele>1105.4</ele>
        <time>2026-04-25T11:58:21Z</time>
      </trkpt>
      <trkpt lat="45.07632" lon="4.14983">
        <ele>1105.8</ele>
        <time>2026-04-25T11:58:26Z</time>
      </trkpt>
      <trkpt lat="45.07634" lon="4.14974">
        <ele>1106</ele>
        <time>2026-04-25T11:58:31Z</time>
      </trkpt>
      <trkpt lat="45.07634" lon="4.14964">
        <ele>1106.4</ele>
        <time>2026-04-25T11:58:36Z</time>
      </trkpt>
      <trkpt lat="45.07636" lon="4.14954">
        <ele>1106.7</ele>
        <time>2026-04-25T11:58:41Z</time>
      </trkpt>
      <trkpt lat="45.07635" lon="4.14944">
        <ele>1107.2</ele>
        <time>2026-04-25T11:58:46Z</time>
      </trkpt>
      <trkpt lat="45.07633" lon="4.14933">
        <ele>1107.8</ele>
        <time>2026-04-25T11:58:51Z</time>
      </trkpt>
      <trkpt lat="45.07632" lon="4.14924">
        <ele>1108.2</ele>
        <time>2026-04-25T11:58:56Z</time>
      </trkpt>
      <trkpt lat="45.07631" lon="4.14913">
        <ele>1108.7</ele>
        <time>2026-04-25T11:59:01Z</time>
      </trkpt>
      <trkpt lat="45.0763" lon="4.14903">
        <ele>1109.1</ele>
        <time>2026-04-25T11:59:06Z</time>
      </trkpt>
      <trkpt lat="45.07626" lon="4.14895">
        <ele>1109.6</ele>
        <time>2026-04-25T11:59:11Z</time>
      </trkpt>
      <trkpt lat="45.07623" lon="4.14887">
        <ele>1110</ele>
        <time>2026-04-25T11:59:16Z</time>
      </trkpt>
      <trkpt lat="45.07621" lon="4.14878">
        <ele>1110.4</ele>
        <time>2026-04-25T11:59:21Z</time>
      </trkpt>
      <trkpt lat="45.07619" lon="4.14867">
        <ele>1110.9</ele>
        <time>2026-04-25T11:59:26Z</time>
      </trkpt>
      <trkpt lat="45.07617" lon="4.14857">
        <ele>1111.3</ele>
        <time>2026-04-25T11:59:31Z</time>
      </trkpt>
      <trkpt lat="45.07614" lon="4.14849">
        <ele>1111.7</ele>
        <time>2026-04-25T11:59:36Z</time>
      </trkpt>
      <trkpt lat="45.07613" lon="4.14839">
        <ele>1112.1</ele>
        <time>2026-04-25T11:59:41Z</time>
      </trkpt>
      <trkpt lat="45.07611" lon="4.14831">
        <ele>1112.4</ele>
        <time>2026-04-25T11:59:46Z</time>
      </trkpt>
      <trkpt lat="45.07608" lon="4.14824">
        <ele>1112.9</ele>
        <time>2026-04-25T11:59:51Z</time>
      </trkpt>
      <trkpt lat="45.07605" lon="4.14818">
        <ele>1113.3</ele>
        <time>2026-04-25T11:59:56Z</time>
      </trkpt>
      <trkpt lat="45.07603" lon="4.14812">
        <ele>1113.6</ele>
        <time>2026-04-25T12:00:01Z</time>
      </trkpt>
      <trkpt lat="45.07601" lon="4.14805">
        <ele>1114</ele>
        <time>2026-04-25T12:00:06Z</time>
      </trkpt>
      <trkpt lat="45.07598" lon="4.14799">
        <ele>1114.4</ele>
        <time>2026-04-25T12:00:11Z</time>
      </trkpt>
      <trkpt lat="45.07593" lon="4.14791">
        <ele>1114.9</ele>
        <time>2026-04-25T12:00:16Z</time>
      </trkpt>
      <trkpt lat="45.07587" lon="4.14784">
        <ele>1115.6</ele>
        <time>2026-04-25T12:00:21Z</time>
      </trkpt>
      <trkpt lat="45.07581" lon="4.14777">
        <ele>1116.2</ele>
        <time>2026-04-25T12:00:26Z</time>
      </trkpt>
      <trkpt lat="45.07573" lon="4.14772">
        <ele>1117</ele>
        <time>2026-04-25T12:00:31Z</time>
      </trkpt>
      <trkpt lat="45.07567" lon="4.14768">
        <ele>1117.7</ele>
        <time>2026-04-25T12:00:36Z</time>
      </trkpt>
      <trkpt lat="45.07561" lon="4.14766">
        <ele>1118.2</ele>
        <time>2026-04-25T12:00:41Z</time>
      </trkpt>
      <trkpt lat="45.07555" lon="4.14763">
        <ele>1118.9</ele>
        <time>2026-04-25T12:00:46Z</time>
      </trkpt>
      <trkpt lat="45.07548" lon="4.14758">
        <ele>1119.6</ele>
        <time>2026-04-25T12:00:51Z</time>
      </trkpt>
      <trkpt lat="45.0754" lon="4.14755">
        <ele>1120.4</ele>
        <time>2026-04-25T12:00:56Z</time>
      </trkpt>
      <trkpt lat="45.07533" lon="4.14753">
        <ele>1121.1</ele>
        <time>2026-04-25T12:01:01Z</time>
      </trkpt>
      <trkpt lat="45.07525" lon="4.1475">
        <ele>1121.9</ele>
        <time>2026-04-25T12:01:06Z</time>
      </trkpt>
      <trkpt lat="45.07518" lon="4.14746">
        <ele>1122.8</ele>
        <time>2026-04-25T12:01:11Z</time>
      </trkpt>
      <trkpt lat="45.07512" lon="4.14744">
        <ele>1123.4</ele>
        <time>2026-04-25T12:01:16Z</time>
      </trkpt>
      <trkpt lat="45.07507" lon="4.14743">
        <ele>1123.9</ele>
        <time>2026-04-25T12:01:21Z</time>
      </trkpt>
      <trkpt lat="45.07501" lon="4.14741">
        <ele>1124.6</ele>
        <time>2026-04-25T12:01:26Z</time>
      </trkpt>
      <trkpt lat="45.07496" lon="4.14737">
        <ele>1125.3</ele>
        <time>2026-04-25T12:01:31Z</time>
      </trkpt>
      <trkpt lat="45.0749" lon="4.14733">
        <ele>1126.1</ele>
        <time>2026-04-25T12:01:36Z</time>
      </trkpt>
      <trkpt lat="45.07484" lon="4.14729">
        <ele>1127</ele>
        <time>2026-04-25T12:01:41Z</time>
      </trkpt>
      <trkpt lat="45.07479" lon="4.14725">
        <ele>1127.7</ele>
        <time>2026-04-25T12:01:46Z</time>
      </trkpt>
      <trkpt lat="45.07475" lon="4.14717">
        <ele>1128.7</ele>
        <time>2026-04-25T12:01:51Z</time>
      </trkpt>
      <trkpt lat="45.07472" lon="4.14711">
        <ele>1129.5</ele>
        <time>2026-04-25T12:01:56Z</time>
      </trkpt>
      <trkpt lat="45.07471" lon="4.14705">
        <ele>1130.1</ele>
        <time>2026-04-25T12:02:01Z</time>
      </trkpt>
      <trkpt lat="45.0747" lon="4.14698">
        <ele>1130.7</ele>
        <time>2026-04-25T12:02:06Z</time>
      </trkpt>
      <trkpt lat="45.07469" lon="4.1469">
        <ele>1131.5</ele>
        <time>2026-04-25T12:02:11Z</time>
      </trkpt>
      <trkpt lat="45.07468" lon="4.14681">
        <ele>1132.3</ele>
        <time>2026-04-25T12:02:16Z</time>
      </trkpt>
      <trkpt lat="45.07467" lon="4.14672">
        <ele>1133.1</ele>
        <time>2026-04-25T12:02:21Z</time>
      </trkpt>
      <trkpt lat="45.07466" lon="4.14665">
        <ele>1134</ele>
        <time>2026-04-25T12:02:26Z</time>
      </trkpt>
      <trkpt lat="45.07465" lon="4.14659">
        <ele>1135.3</ele>
        <time>2026-04-25T12:02:31Z</time>
      </trkpt>
      <trkpt lat="45.07465" lon="4.14654">
        <ele>1136.2</ele>
        <time>2026-04-25T12:02:36Z</time>
      </trkpt>
      <trkpt lat="45.07465" lon="4.14649">
        <ele>1137.2</ele>
        <time>2026-04-25T12:02:41Z</time>
      </trkpt>
      <trkpt lat="45.07464" lon="4.14643">
        <ele>1138.4</ele>
        <time>2026-04-25T12:02:46Z</time>
      </trkpt>
      <trkpt lat="45.07464" lon="4.14637">
        <ele>1139.6</ele>
        <time>2026-04-25T12:02:51Z</time>
      </trkpt>
      <trkpt lat="45.07465" lon="4.14631">
        <ele>1140.6</ele>
        <time>2026-04-25T12:02:56Z</time>
      </trkpt>
      <trkpt lat="45.07464" lon="4.14626">
        <ele>1141.7</ele>
        <time>2026-04-25T12:03:01Z</time>
      </trkpt>
      <trkpt lat="45.07464" lon="4.1462">
        <ele>1142.8</ele>
        <time>2026-04-25T12:03:06Z</time>
      </trkpt>
      <trkpt lat="45.07463" lon="4.14615">
        <ele>1143.9</ele>
        <time>2026-04-25T12:03:11Z</time>
      </trkpt>
      <trkpt lat="45.07465" lon="4.1461">
        <ele>1144.7</ele>
        <time>2026-04-25T12:03:16Z</time>
      </trkpt>
      <trkpt lat="45.07466" lon="4.14604">
        <ele>1145.7</ele>
        <time>2026-04-25T12:03:21Z</time>
      </trkpt>
      <trkpt lat="45.07467" lon="4.146">
        <ele>1146.4</ele>
        <time>2026-04-25T12:03:26Z</time>
      </trkpt>
      <trkpt lat="45.07467" lon="4.14594">
        <ele>1147.5</ele>
        <time>2026-04-25T12:03:31Z</time>
      </trkpt>
      <trkpt lat="45.07468" lon="4.1459">
        <ele>1148.2</ele>
        <time>2026-04-25T12:03:36Z</time>
      </trkpt>
      <trkpt lat="45.07469" lon="4.14585">
        <ele>1149</ele>
        <time>2026-04-25T12:03:41Z</time>
      </trkpt>
      <trkpt lat="45.07472" lon="4.14581">
        <ele>1149.4</ele>
        <time>2026-04-25T12:03:46Z</time>
      </trkpt>
      <trkpt lat="45.07474" lon="4.14577">
        <ele>1149.9</ele>
        <time>2026-04-25T12:03:51Z</time>
      </trkpt>
      <trkpt lat="45.07475" lon="4.14572">
        <ele>1150.7</ele>
        <time>2026-04-25T12:03:56Z</time>
      </trkpt>
      <trkpt lat="45.07477" lon="4.14567">
        <ele>1151.4</ele>
        <time>2026-04-25T12:04:01Z</time>
      </trkpt>
      <trkpt lat="45.07479" lon="4.14563">
        <ele>1151.9</ele>
        <time>2026-04-25T12:04:06Z</time>
      </trkpt>
      <trkpt lat="45.0748" lon="4.14557">
        <ele>1152.8</ele>
        <time>2026-04-25T12:04:11Z</time>
      </trkpt>
      <trkpt lat="45.0748" lon="4.14552">
        <ele>1153.7</ele>
        <time>2026-04-25T12:04:16Z</time>
      </trkpt>
      <trkpt lat="45.07482" lon="4.14547">
        <ele>1154.4</ele>
        <time>2026-04-25T12:04:21Z</time>
      </trkpt>
      <trkpt lat="45.07484" lon="4.14542">
        <ele>1155.1</ele>
        <time>2026-04-25T12:04:26Z</time>
      </trkpt>
      <trkpt lat="45.07487" lon="4.14537">
        <ele>1155.7</ele>
        <time>2026-04-25T12:04:31Z</time>
      </trkpt>
      <trkpt lat="45.07489" lon="4.14531">
        <ele>1156.5</ele>
        <time>2026-04-25T12:04:36Z</time>
      </trkpt>
      <trkpt lat="45.07492" lon="4.14527">
        <ele>1156.9</ele>
        <time>2026-04-25T12:04:41Z</time>
      </trkpt>
      <trkpt lat="45.07494" lon="4.14521">
        <ele>1157.8</ele>
        <time>2026-04-25T12:04:46Z</time>
      </trkpt>
      <trkpt lat="45.07497" lon="4.14515">
        <ele>1158.6</ele>
        <time>2026-04-25T12:04:51Z</time>
      </trkpt>
      <trkpt lat="45.07499" lon="4.14509">
        <ele>1159.5</ele>
        <time>2026-04-25T12:04:56Z</time>
      </trkpt>
      <trkpt lat="45.07501" lon="4.14504">
        <ele>1160.1</ele>
        <time>2026-04-25T12:05:01Z</time>
      </trkpt>
      <trkpt lat="45.07502" lon="4.14498">
        <ele>1160.6</ele>
        <time>2026-04-25T12:05:06Z</time>
      </trkpt>
      <trkpt lat="45.07504" lon="4.14492">
        <ele>1160.4</ele>
        <time>2026-04-25T12:05:11Z</time>
      </trkpt>
      <trkpt lat="45.07506" lon="4.14486">
        <ele>1160.2</ele>
        <time>2026-04-25T12:05:16Z</time>
      </trkpt>
      <trkpt lat="45.07508" lon="4.1448">
        <ele>1160</ele>
        <time>2026-04-25T12:05:21Z</time>
      </trkpt>
      <trkpt lat="45.0751" lon="4.14474">
        <ele>1159.8</ele>
        <time>2026-04-25T12:05:26Z</time>
      </trkpt>
      <trkpt lat="45.07512" lon="4.14467">
        <ele>1159.7</ele>
        <time>2026-04-25T12:05:31Z</time>
      </trkpt>
      <trkpt lat="45.07515" lon="4.1446">
        <ele>1159.4</ele>
        <time>2026-04-25T12:05:36Z</time>
      </trkpt>
      <trkpt lat="45.07517" lon="4.14452">
        <ele>1159.3</ele>
        <time>2026-04-25T12:05:41Z</time>
      </trkpt>
      <trkpt lat="45.0752" lon="4.14443">
        <ele>1159.1</ele>
        <time>2026-04-25T12:05:46Z</time>
      </trkpt>
      <trkpt lat="45.07522" lon="4.14435">
        <ele>1159.1</ele>
        <time>2026-04-25T12:05:51Z</time>
      </trkpt>
      <trkpt lat="45.07524" lon="4.14428">
        <ele>1159.1</ele>
        <time>2026-04-25T12:05:56Z</time>
      </trkpt>
      <trkpt lat="45.07528" lon="4.14421">
        <ele>1158.7</ele>
        <time>2026-04-25T12:06:01Z</time>
      </trkpt>
      <trkpt lat="45.07529" lon="4.14415">
        <ele>1158.8</ele>
        <time>2026-04-25T12:06:06Z</time>
      </trkpt>
      <trkpt lat="45.07531" lon="4.14407">
        <ele>1158.7</ele>
        <time>2026-04-25T12:06:11Z</time>
      </trkpt>
      <trkpt lat="45.07531" lon="4.144">
        <ele>1158.8</ele>
        <time>2026-04-25T12:06:16Z</time>
      </trkpt>
      <trkpt lat="45.07532" lon="4.14392">
        <ele>1158.9</ele>
        <time>2026-04-25T12:06:21Z</time>
      </trkpt>
      <trkpt lat="45.07532" lon="4.14384">
        <ele>1159.1</ele>
        <time>2026-04-25T12:06:26Z</time>
      </trkpt>
      <trkpt lat="45.07532" lon="4.14376">
        <ele>1159.3</ele>
        <time>2026-04-25T12:06:31Z</time>
      </trkpt>
      <trkpt lat="45.07533" lon="4.14368">
        <ele>1159.3</ele>
        <time>2026-04-25T12:06:36Z</time>
      </trkpt>
      <trkpt lat="45.07534" lon="4.1436">
        <ele>1159.4</ele>
        <time>2026-04-25T12:06:41Z</time>
      </trkpt>
      <trkpt lat="45.07535" lon="4.14354">
        <ele>1159.4</ele>
        <time>2026-04-25T12:06:46Z</time>
      </trkpt>
      <trkpt lat="45.07534" lon="4.14347">
        <ele>1159.7</ele>
        <time>2026-04-25T12:06:51Z</time>
      </trkpt>
      <trkpt lat="45.07533" lon="4.14341">
        <ele>1160</ele>
        <time>2026-04-25T12:06:56Z</time>
      </trkpt>
      <trkpt lat="45.07534" lon="4.14334">
        <ele>1160.1</ele>
        <time>2026-04-25T12:07:01Z</time>
      </trkpt>
      <trkpt lat="45.07535" lon="4.14326">
        <ele>1160.4</ele>
        <time>2026-04-25T12:07:06Z</time>
      </trkpt>
      <trkpt lat="45.07536" lon="4.14319">
        <ele>1160.8</ele>
        <time>2026-04-25T12:07:11Z</time>
      </trkpt>
      <trkpt lat="45.07536" lon="4.14315">
        <ele>1161</ele>
        <time>2026-04-25T12:07:16Z</time>
      </trkpt>
      <trkpt lat="45.07537" lon="4.14314">
        <ele>1160.9</ele>
        <time>2026-04-25T12:07:21Z</time>
      </trkpt>
      <trkpt lat="45.07537" lon="4.14314">
        <ele>1160.9</ele>
        <time>2026-04-25T12:07:26Z</time>
      </trkpt>
      <trkpt lat="45.07535" lon="4.14308">
        <ele>1161.6</ele>
        <time>2026-04-25T12:07:31Z</time>
      </trkpt>
      <trkpt lat="45.07535" lon="4.14302">
        <ele>1162</ele>
        <time>2026-04-25T12:07:36Z</time>
      </trkpt>
      <trkpt lat="45.07534" lon="4.14295">
        <ele>1162.6</ele>
        <time>2026-04-25T12:07:41Z</time>
      </trkpt>
      <trkpt lat="45.07533" lon="4.14289">
        <ele>1163.1</ele>
        <time>2026-04-25T12:07:46Z</time>
      </trkpt>
      <trkpt lat="45.07532" lon="4.14282">
        <ele>1163.7</ele>
        <time>2026-04-25T12:07:51Z</time>
      </trkpt>
      <trkpt lat="45.0753" lon="4.14273">
        <ele>1164.6</ele>
        <time>2026-04-25T12:07:56Z</time>
      </trkpt>
      <trkpt lat="45.07529" lon="4.14267">
        <ele>1165.1</ele>
        <time>2026-04-25T12:08:01Z</time>
      </trkpt>
      <trkpt lat="45.07529" lon="4.1426">
        <ele>1165.5</ele>
        <time>2026-04-25T12:08:06Z</time>
      </trkpt>
      <trkpt lat="45.07528" lon="4.14254">
        <ele>1166</ele>
        <time>2026-04-25T12:08:11Z</time>
      </trkpt>
      <trkpt lat="45.07527" lon="4.14248">
        <ele>1166.6</ele>
        <time>2026-04-25T12:08:16Z</time>
      </trkpt>
      <trkpt lat="45.07526" lon="4.14244">
        <ele>1167</ele>
        <time>2026-04-25T12:08:21Z</time>
      </trkpt>
      <trkpt lat="45.07526" lon="4.14239">
        <ele>1167.3</ele>
        <time>2026-04-25T12:08:26Z</time>
      </trkpt>
      <trkpt lat="45.07524" lon="4.14233">
        <ele>1167.9</ele>
        <time>2026-04-25T12:08:31Z</time>
      </trkpt>
      <trkpt lat="45.07522" lon="4.1423">
        <ele>1168.4</ele>
        <time>2026-04-25T12:08:36Z</time>
      </trkpt>
      <trkpt lat="45.07518" lon="4.14229">
        <ele>1169</ele>
        <time>2026-04-25T12:08:41Z</time>
      </trkpt>
      <trkpt lat="45.07517" lon="4.14229">
        <ele>1169.2</ele>
        <time>2026-04-25T12:08:46Z</time>
      </trkpt>
      <trkpt lat="45.07517" lon="4.14229">
        <ele>1169.2</ele>
        <time>2026-04-25T12:08:51Z</time>
      </trkpt>
      <trkpt lat="45.07517" lon="4.14229">
        <ele>1169.2</ele>
        <time>2026-04-25T12:08:56Z</time>
      </trkpt>
      <trkpt lat="45.07509" lon="4.14217">
        <ele>1171.1</ele>
        <time>2026-04-25T12:09:01Z</time>
      </trkpt>
      <trkpt lat="45.07508" lon="4.1421">
        <ele>1171.7</ele>
        <time>2026-04-25T12:09:06Z</time>
      </trkpt>
      <trkpt lat="45.07507" lon="4.14204">
        <ele>1172.3</ele>
        <time>2026-04-25T12:09:11Z</time>
      </trkpt>
      <trkpt lat="45.07506" lon="4.14197">
        <ele>1172.9</ele>
        <time>2026-04-25T12:09:16Z</time>
      </trkpt>
      <trkpt lat="45.07504" lon="4.14189">
        <ele>1173.8</ele>
        <time>2026-04-25T12:09:21Z</time>
      </trkpt>
      <trkpt lat="45.07504" lon="4.14182">
        <ele>1174.3</ele>
        <time>2026-04-25T12:09:26Z</time>
      </trkpt>
      <trkpt lat="45.07504" lon="4.14178">
        <ele>1174.6</ele>
        <time>2026-04-25T12:09:31Z</time>
      </trkpt>
      <trkpt lat="45.07504" lon="4.14171">
        <ele>1175.1</ele>
        <time>2026-04-25T12:09:36Z</time>
      </trkpt>
      <trkpt lat="45.07504" lon="4.14165">
        <ele>1175.5</ele>
        <time>2026-04-25T12:09:41Z</time>
      </trkpt>
      <trkpt lat="45.07503" lon="4.14159">
        <ele>1176</ele>
        <time>2026-04-25T12:09:46Z</time>
      </trkpt>
      <trkpt lat="45.07502" lon="4.14151">
        <ele>1176.6</ele>
        <time>2026-04-25T12:09:51Z</time>
      </trkpt>
      <trkpt lat="45.07503" lon="4.14143">
        <ele>1177</ele>
        <time>2026-04-25T12:09:56Z</time>
      </trkpt>
      <trkpt lat="45.07501" lon="4.14136">
        <ele>1177.7</ele>
        <time>2026-04-25T12:10:01Z</time>
      </trkpt>
      <trkpt lat="45.07501" lon="4.14129">
        <ele>1178.1</ele>
        <time>2026-04-25T12:10:06Z</time>
      </trkpt>
      <trkpt lat="45.07501" lon="4.14122">
        <ele>1178.5</ele>
        <time>2026-04-25T12:10:11Z</time>
      </trkpt>
      <trkpt lat="45.07501" lon="4.14115">
        <ele>1179</ele>
        <time>2026-04-25T12:10:16Z</time>
      </trkpt>
      <trkpt lat="45.075" lon="4.14108">
        <ele>1179.5</ele>
        <time>2026-04-25T12:10:21Z</time>
      </trkpt>
      <trkpt lat="45.075" lon="4.141">
        <ele>1180</ele>
        <time>2026-04-25T12:10:26Z</time>
      </trkpt>
      <trkpt lat="45.07498" lon="4.14094">
        <ele>1180.6</ele>
        <time>2026-04-25T12:10:31Z</time>
      </trkpt>
      <trkpt lat="45.07496" lon="4.14088">
        <ele>1181.1</ele>
        <time>2026-04-25T12:10:36Z</time>
      </trkpt>
      <trkpt lat="45.07495" lon="4.14084">
        <ele>1181.4</ele>
        <time>2026-04-25T12:10:41Z</time>
      </trkpt>
      <trkpt lat="45.07494" lon="4.14083">
        <ele>1181.6</ele>
        <time>2026-04-25T12:10:46Z</time>
      </trkpt>
      <trkpt lat="45.07494" lon="4.14083">
        <ele>1181.6</ele>
        <time>2026-04-25T12:10:51Z</time>
      </trkpt>
      <trkpt lat="45.07494" lon="4.14083">
        <ele>1181.6</ele>
        <time>2026-04-25T12:10:56Z</time>
      </trkpt>
      <trkpt lat="45.0749" lon="4.14068">
        <ele>1182.6</ele>
        <time>2026-04-25T12:11:01Z</time>
      </trkpt>
      <trkpt lat="45.0749" lon="4.14068">
        <ele>1182.6</ele>
        <time>2026-04-25T12:11:06Z</time>
      </trkpt>
      <trkpt lat="45.07487" lon="4.14059">
        <ele>1183.4</ele>
        <time>2026-04-25T12:11:11Z</time>
      </trkpt>
      <trkpt lat="45.07486" lon="4.14054">
        <ele>1183.7</ele>
        <time>2026-04-25T12:11:16Z</time>
      </trkpt>
      <trkpt lat="45.07486" lon="4.14051">
        <ele>1183.8</ele>
        <time>2026-04-25T12:11:21Z</time>
      </trkpt>
      <trkpt lat="45.07486" lon="4.14051">
        <ele>1183.8</ele>
        <time>2026-04-25T12:11:26Z</time>
      </trkpt>
      <trkpt lat="45.07484" lon="4.1404">
        <ele>1184.6</ele>
        <time>2026-04-25T12:11:31Z</time>
      </trkpt>
      <trkpt lat="45.07483" lon="4.14034">
        <ele>1185</ele>
        <time>2026-04-25T12:11:36Z</time>
      </trkpt>
      <trkpt lat="45.07481" lon="4.1403">
        <ele>1185.5</ele>
        <time>2026-04-25T12:11:41Z</time>
      </trkpt>
      <trkpt lat="45.0748" lon="4.14025">
        <ele>1185.9</ele>
        <time>2026-04-25T12:11:46Z</time>
      </trkpt>
      <trkpt lat="45.07479" lon="4.14019">
        <ele>1186.3</ele>
        <time>2026-04-25T12:11:51Z</time>
      </trkpt>
      <trkpt lat="45.07476" lon="4.14013">
        <ele>1187.1</ele>
        <time>2026-04-25T12:11:56Z</time>
      </trkpt>
      <trkpt lat="45.07475" lon="4.14007">
        <ele>1187.5</ele>
        <time>2026-04-25T12:12:01Z</time>
      </trkpt>
      <trkpt lat="45.07474" lon="4.14003">
        <ele>1187.9</ele>
        <time>2026-04-25T12:12:06Z</time>
      </trkpt>
      <trkpt lat="45.07473" lon="4.13998">
        <ele>1188.3</ele>
        <time>2026-04-25T12:12:11Z</time>
      </trkpt>
      <trkpt lat="45.07472" lon="4.13992">
        <ele>1188.9</ele>
        <time>2026-04-25T12:12:16Z</time>
      </trkpt>
      <trkpt lat="45.07471" lon="4.13988">
        <ele>1189.3</ele>
        <time>2026-04-25T12:12:21Z</time>
      </trkpt>
      <trkpt lat="45.0747" lon="4.13982">
        <ele>1189.9</ele>
        <time>2026-04-25T12:12:26Z</time>
      </trkpt>
      <trkpt lat="45.07469" lon="4.13976">
        <ele>1190.5</ele>
        <time>2026-04-25T12:12:31Z</time>
      </trkpt>
      <trkpt lat="45.07469" lon="4.1397">
        <ele>1190.9</ele>
        <time>2026-04-25T12:12:36Z</time>
      </trkpt>
      <trkpt lat="45.07469" lon="4.13965">
        <ele>1191.2</ele>
        <time>2026-04-25T12:12:41Z</time>
      </trkpt>
      <trkpt lat="45.07468" lon="4.13959">
        <ele>1191.8</ele>
        <time>2026-04-25T12:12:46Z</time>
      </trkpt>
      <trkpt lat="45.07468" lon="4.13952">
        <ele>1192.2</ele>
        <time>2026-04-25T12:12:51Z</time>
      </trkpt>
      <trkpt lat="45.07466" lon="4.13945">
        <ele>1193</ele>
        <time>2026-04-25T12:12:56Z</time>
      </trkpt>
      <trkpt lat="45.07465" lon="4.13938">
        <ele>1193.6</ele>
        <time>2026-04-25T12:13:01Z</time>
      </trkpt>
      <trkpt lat="45.07465" lon="4.1393">
        <ele>1194.1</ele>
        <time>2026-04-25T12:13:06Z</time>
      </trkpt>
      <trkpt lat="45.07465" lon="4.13921">
        <ele>1194.7</ele>
        <time>2026-04-25T12:13:11Z</time>
      </trkpt>
      <trkpt lat="45.07465" lon="4.13912">
        <ele>1195.7</ele>
        <time>2026-04-25T12:13:16Z</time>
      </trkpt>
      <trkpt lat="45.07462" lon="4.13907">
        <ele>1196.8</ele>
        <time>2026-04-25T12:13:21Z</time>
      </trkpt>
      <trkpt lat="45.07462" lon="4.13898">
        <ele>1198.1</ele>
        <time>2026-04-25T12:13:26Z</time>
      </trkpt>
      <trkpt lat="45.07463" lon="4.13889">
        <ele>1199.2</ele>
        <time>2026-04-25T12:13:31Z</time>
      </trkpt>
      <trkpt lat="45.07463" lon="4.1388">
        <ele>1200.5</ele>
        <time>2026-04-25T12:13:36Z</time>
      </trkpt>
      <trkpt lat="45.07464" lon="4.13871">
        <ele>1201.5</ele>
        <time>2026-04-25T12:13:41Z</time>
      </trkpt>
      <trkpt lat="45.07464" lon="4.13863">
        <ele>1202.6</ele>
        <time>2026-04-25T12:13:46Z</time>
      </trkpt>
      <trkpt lat="45.07465" lon="4.13856">
        <ele>1203.4</ele>
        <time>2026-04-25T12:13:51Z</time>
      </trkpt>
      <trkpt lat="45.07465" lon="4.13849">
        <ele>1204.4</ele>
        <time>2026-04-25T12:13:56Z</time>
      </trkpt>
      <trkpt lat="45.07464" lon="4.1384">
        <ele>1205.8</ele>
        <time>2026-04-25T12:14:01Z</time>
      </trkpt>
      <trkpt lat="45.07464" lon="4.13833">
        <ele>1206.8</ele>
        <time>2026-04-25T12:14:06Z</time>
      </trkpt>
      <trkpt lat="45.07464" lon="4.13828">
        <ele>1207.3</ele>
        <time>2026-04-25T12:14:11Z</time>
      </trkpt>
      <trkpt lat="45.07465" lon="4.13826">
        <ele>1207.3</ele>
        <time>2026-04-25T12:14:16Z</time>
      </trkpt>
      <trkpt lat="45.07463" lon="4.13825">
        <ele>1207.8</ele>
        <time>2026-04-25T12:14:21Z</time>
      </trkpt>
      <trkpt lat="45.07463" lon="4.13818">
        <ele>1208.5</ele>
        <time>2026-04-25T12:14:26Z</time>
      </trkpt>
      <trkpt lat="45.07463" lon="4.13811">
        <ele>1209.2</ele>
        <time>2026-04-25T12:14:31Z</time>
      </trkpt>
      <trkpt lat="45.07463" lon="4.13802">
        <ele>1210.1</ele>
        <time>2026-04-25T12:14:36Z</time>
      </trkpt>
      <trkpt lat="45.07464" lon="4.13794">
        <ele>1210.7</ele>
        <time>2026-04-25T12:14:41Z</time>
      </trkpt>
      <trkpt lat="45.07464" lon="4.13786">
        <ele>1211.5</ele>
        <time>2026-04-25T12:14:46Z</time>
      </trkpt>
      <trkpt lat="45.07464" lon="4.13773">
        <ele>1212.8</ele>
        <time>2026-04-25T12:14:51Z</time>
      </trkpt>
      <trkpt lat="45.07465" lon="4.13763">
        <ele>1213.5</ele>
        <time>2026-04-25T12:14:56Z</time>
      </trkpt>
      <trkpt lat="45.07465" lon="4.13754">
        <ele>1214.4</ele>
        <time>2026-04-25T12:15:01Z</time>
      </trkpt>
      <trkpt lat="45.07464" lon="4.13746">
        <ele>1215.3</ele>
        <time>2026-04-25T12:15:06Z</time>
      </trkpt>
      <trkpt lat="45.07463" lon="4.13738">
        <ele>1216</ele>
        <time>2026-04-25T12:15:11Z</time>
      </trkpt>
      <trkpt lat="45.07463" lon="4.13729">
        <ele>1216.5</ele>
        <time>2026-04-25T12:15:16Z</time>
      </trkpt>
      <trkpt lat="45.07463" lon="4.1372">
        <ele>1217</ele>
        <time>2026-04-25T12:15:21Z</time>
      </trkpt>
      <trkpt lat="45.07462" lon="4.13712">
        <ele>1217.7</ele>
        <time>2026-04-25T12:15:26Z</time>
      </trkpt>
      <trkpt lat="45.07464" lon="4.13703">
        <ele>1217.7</ele>
        <time>2026-04-25T12:15:31Z</time>
      </trkpt>
      <trkpt lat="45.07464" lon="4.13694">
        <ele>1218.2</ele>
        <time>2026-04-25T12:15:36Z</time>
      </trkpt>
      <trkpt lat="45.07464" lon="4.13686">
        <ele>1218.7</ele>
        <time>2026-04-25T12:15:41Z</time>
      </trkpt>
      <trkpt lat="45.07465" lon="4.13677">
        <ele>1219</ele>
        <time>2026-04-25T12:15:46Z</time>
      </trkpt>
      <trkpt lat="45.07464" lon="4.13668">
        <ele>1219.7</ele>
        <time>2026-04-25T12:15:51Z</time>
      </trkpt>
      <trkpt lat="45.07465" lon="4.1366">
        <ele>1220.1</ele>
        <time>2026-04-25T12:15:56Z</time>
      </trkpt>
      <trkpt lat="45.07463" lon="4.13651">
        <ele>1221.3</ele>
        <time>2026-04-25T12:16:01Z</time>
      </trkpt>
      <trkpt lat="45.07463" lon="4.13642">
        <ele>1222.1</ele>
        <time>2026-04-25T12:16:06Z</time>
      </trkpt>
      <trkpt lat="45.07464" lon="4.13632">
        <ele>1222.7</ele>
        <time>2026-04-25T12:16:11Z</time>
      </trkpt>
      <trkpt lat="45.07463" lon="4.13623">
        <ele>1223.7</ele>
        <time>2026-04-25T12:16:16Z</time>
      </trkpt>
      <trkpt lat="45.07464" lon="4.13612">
        <ele>1224.4</ele>
        <time>2026-04-25T12:16:21Z</time>
      </trkpt>
      <trkpt lat="45.07464" lon="4.13604">
        <ele>1225</ele>
        <time>2026-04-25T12:16:26Z</time>
      </trkpt>
      <trkpt lat="45.07465" lon="4.13595">
        <ele>1225.6</ele>
        <time>2026-04-25T12:16:31Z</time>
      </trkpt>
      <trkpt lat="45.07465" lon="4.13585">
        <ele>1226.4</ele>
        <time>2026-04-25T12:16:36Z</time>
      </trkpt>
      <trkpt lat="45.07465" lon="4.13577">
        <ele>1227.1</ele>
        <time>2026-04-25T12:16:41Z</time>
      </trkpt>
      <trkpt lat="45.07464" lon="4.13568">
        <ele>1228.1</ele>
        <time>2026-04-25T12:16:46Z</time>
      </trkpt>
      <trkpt lat="45.07464" lon="4.1356">
        <ele>1228.8</ele>
        <time>2026-04-25T12:16:51Z</time>
      </trkpt>
      <trkpt lat="45.07464" lon="4.13551">
        <ele>1229.6</ele>
        <time>2026-04-25T12:16:56Z</time>
      </trkpt>
      <trkpt lat="45.07463" lon="4.13543">
        <ele>1230.5</ele>
        <time>2026-04-25T12:17:01Z</time>
      </trkpt>
      <trkpt lat="45.07463" lon="4.13534">
        <ele>1231.3</ele>
        <time>2026-04-25T12:17:06Z</time>
      </trkpt>
      <trkpt lat="45.07463" lon="4.13524">
        <ele>1232.1</ele>
        <time>2026-04-25T12:17:11Z</time>
      </trkpt>
      <trkpt lat="45.07463" lon="4.13515">
        <ele>1232.9</ele>
        <time>2026-04-25T12:17:16Z</time>
      </trkpt>
      <trkpt lat="45.07464" lon="4.13507">
        <ele>1233.4</ele>
        <time>2026-04-25T12:17:21Z</time>
      </trkpt>
      <trkpt lat="45.07465" lon="4.13497">
        <ele>1234</ele>
        <time>2026-04-25T12:17:26Z</time>
      </trkpt>
      <trkpt lat="45.07465" lon="4.13488">
        <ele>1234.3</ele>
        <time>2026-04-25T12:17:31Z</time>
      </trkpt>
      <trkpt lat="45.07466" lon="4.1348">
        <ele>1234.4</ele>
        <time>2026-04-25T12:17:36Z</time>
      </trkpt>
      <trkpt lat="45.07465" lon="4.13471">
        <ele>1234.9</ele>
        <time>2026-04-25T12:17:41Z</time>
      </trkpt>
      <trkpt lat="45.07464" lon="4.13461">
        <ele>1235.4</ele>
        <time>2026-04-25T12:17:46Z</time>
      </trkpt>
      <trkpt lat="45.07464" lon="4.13452">
        <ele>1235.7</ele>
        <time>2026-04-25T12:17:51Z</time>
      </trkpt>
      <trkpt lat="45.07465" lon="4.13443">
        <ele>1235.8</ele>
        <time>2026-04-25T12:17:56Z</time>
      </trkpt>
      <trkpt lat="45.07465" lon="4.13436">
        <ele>1236.1</ele>
        <time>2026-04-25T12:18:01Z</time>
      </trkpt>
      <trkpt lat="45.07464" lon="4.13426">
        <ele>1236.6</ele>
        <time>2026-04-25T12:18:06Z</time>
      </trkpt>
      <trkpt lat="45.07465" lon="4.13416">
        <ele>1236.7</ele>
        <time>2026-04-25T12:18:11Z</time>
      </trkpt>
      <trkpt lat="45.07464" lon="4.13407">
        <ele>1237.2</ele>
        <time>2026-04-25T12:18:16Z</time>
      </trkpt>
      <trkpt lat="45.07465" lon="4.13396">
        <ele>1237.3</ele>
        <time>2026-04-25T12:18:21Z</time>
      </trkpt>
      <trkpt lat="45.07465" lon="4.13388">
        <ele>1237.5</ele>
        <time>2026-04-25T12:18:26Z</time>
      </trkpt>
      <trkpt lat="45.07464" lon="4.13379">
        <ele>1237.9</ele>
        <time>2026-04-25T12:18:31Z</time>
      </trkpt>
      <trkpt lat="45.07464" lon="4.1337">
        <ele>1238.1</ele>
        <time>2026-04-25T12:18:36Z</time>
      </trkpt>
      <trkpt lat="45.07464" lon="4.13362">
        <ele>1238.3</ele>
        <time>2026-04-25T12:18:41Z</time>
      </trkpt>
      <trkpt lat="45.07463" lon="4.13354">
        <ele>1238.7</ele>
        <time>2026-04-25T12:18:46Z</time>
      </trkpt>
      <trkpt lat="45.07462" lon="4.13345">
        <ele>1239.1</ele>
        <time>2026-04-25T12:18:51Z</time>
      </trkpt>
      <trkpt lat="45.07461" lon="4.13336">
        <ele>1239.5</ele>
        <time>2026-04-25T12:18:56Z</time>
      </trkpt>
      <trkpt lat="45.0746" lon="4.13326">
        <ele>1239.9</ele>
        <time>2026-04-25T12:19:01Z</time>
      </trkpt>
      <trkpt lat="45.0746" lon="4.13317">
        <ele>1240.2</ele>
        <time>2026-04-25T12:19:06Z</time>
      </trkpt>
      <trkpt lat="45.07463" lon="4.13312">
        <ele>1239.9</ele>
        <time>2026-04-25T12:19:11Z</time>
      </trkpt>
      <trkpt lat="45.07463" lon="4.13309">
        <ele>1240</ele>
        <time>2026-04-25T12:19:16Z</time>
      </trkpt>
      <trkpt lat="45.07463" lon="4.13302">
        <ele>1240.2</ele>
        <time>2026-04-25T12:19:21Z</time>
      </trkpt>
      <trkpt lat="45.07459" lon="4.13295">
        <ele>1241</ele>
        <time>2026-04-25T12:19:26Z</time>
      </trkpt>
      <trkpt lat="45.07457" lon="4.13288">
        <ele>1241.6</ele>
        <time>2026-04-25T12:19:31Z</time>
      </trkpt>
      <trkpt lat="45.07457" lon="4.13278">
        <ele>1241.9</ele>
        <time>2026-04-25T12:19:36Z</time>
      </trkpt>
      <trkpt lat="45.07456" lon="4.13268">
        <ele>1242.3</ele>
        <time>2026-04-25T12:19:41Z</time>
      </trkpt>
      <trkpt lat="45.07453" lon="4.13258">
        <ele>1243.1</ele>
        <time>2026-04-25T12:19:46Z</time>
      </trkpt>
      <trkpt lat="45.07452" lon="4.13248">
        <ele>1243.6</ele>
        <time>2026-04-25T12:19:51Z</time>
      </trkpt>
      <trkpt lat="45.0745" lon="4.1324">
        <ele>1244.3</ele>
        <time>2026-04-25T12:19:56Z</time>
      </trkpt>
      <trkpt lat="45.07449" lon="4.1323">
        <ele>1244.9</ele>
        <time>2026-04-25T12:20:01Z</time>
      </trkpt>
      <trkpt lat="45.07445" lon="4.13223">
        <ele>1245.9</ele>
        <time>2026-04-25T12:20:06Z</time>
      </trkpt>
      <trkpt lat="45.07442" lon="4.13213">
        <ele>1246.9</ele>
        <time>2026-04-25T12:20:11Z</time>
      </trkpt>
      <trkpt lat="45.07439" lon="4.13204">
        <ele>1247.8</ele>
        <time>2026-04-25T12:20:16Z</time>
      </trkpt>
      <trkpt lat="45.0744" lon="4.13195">
        <ele>1248.1</ele>
        <time>2026-04-25T12:20:21Z</time>
      </trkpt>
      <trkpt lat="45.07438" lon="4.13186">
        <ele>1248.9</ele>
        <time>2026-04-25T12:20:26Z</time>
      </trkpt>
      <trkpt lat="45.07437" lon="4.13178">
        <ele>1249.5</ele>
        <time>2026-04-25T12:20:31Z</time>
      </trkpt>
      <trkpt lat="45.07435" lon="4.13172">
        <ele>1250.2</ele>
        <time>2026-04-25T12:20:36Z</time>
      </trkpt>
      <trkpt lat="45.07433" lon="4.13168">
        <ele>1250.8</ele>
        <time>2026-04-25T12:20:41Z</time>
      </trkpt>
      <trkpt lat="45.0743" lon="4.13162">
        <ele>1251.3</ele>
        <time>2026-04-25T12:20:46Z</time>
      </trkpt>
      <trkpt lat="45.07426" lon="4.13154">
        <ele>1251.8</ele>
        <time>2026-04-25T12:20:51Z</time>
      </trkpt>
      <trkpt lat="45.07423" lon="4.13148">
        <ele>1252.1</ele>
        <time>2026-04-25T12:20:56Z</time>
      </trkpt>
      <trkpt lat="45.07416" lon="4.13137">
        <ele>1253</ele>
        <time>2026-04-25T12:21:01Z</time>
      </trkpt>
      <trkpt lat="45.0741" lon="4.13126">
        <ele>1253.5</ele>
        <time>2026-04-25T12:21:06Z</time>
      </trkpt>
      <trkpt lat="45.07405" lon="4.13118">
        <ele>1254</ele>
        <time>2026-04-25T12:21:11Z</time>
      </trkpt>
      <trkpt lat="45.074" lon="4.1311">
        <ele>1254.5</ele>
        <time>2026-04-25T12:21:16Z</time>
      </trkpt>
      <trkpt lat="45.07396" lon="4.13103">
        <ele>1254.9</ele>
        <time>2026-04-25T12:21:21Z</time>
      </trkpt>
      <trkpt lat="45.07393" lon="4.1309">
        <ele>1254.9</ele>
        <time>2026-04-25T12:21:26Z</time>
      </trkpt>
      <trkpt lat="45.0739" lon="4.13082">
        <ele>1255.2</ele>
        <time>2026-04-25T12:21:31Z</time>
      </trkpt>
      <trkpt lat="45.07388" lon="4.13077">
        <ele>1255.5</ele>
        <time>2026-04-25T12:21:36Z</time>
      </trkpt>
      <trkpt lat="45.07386" lon="4.13074">
        <ele>1255.8</ele>
        <time>2026-04-25T12:21:41Z</time>
      </trkpt>
      <trkpt lat="45.07386" lon="4.13069">
        <ele>1255.8</ele>
        <time>2026-04-25T12:21:46Z</time>
      </trkpt>
      <trkpt lat="45.07385" lon="4.13063">
        <ele>1255.9</ele>
        <time>2026-04-25T12:21:51Z</time>
      </trkpt>
      <trkpt lat="45.07383" lon="4.13054">
        <ele>1256.3</ele>
        <time>2026-04-25T12:21:56Z</time>
      </trkpt>
      <trkpt lat="45.07382" lon="4.13044">
        <ele>1256.4</ele>
        <time>2026-04-25T12:22:01Z</time>
      </trkpt>
      <trkpt lat="45.07381" lon="4.13035">
        <ele>1256.6</ele>
        <time>2026-04-25T12:22:06Z</time>
      </trkpt>
      <trkpt lat="45.07379" lon="4.13027">
        <ele>1256.9</ele>
        <time>2026-04-25T12:22:11Z</time>
      </trkpt>
      <trkpt lat="45.07378" lon="4.1302">
        <ele>1257</ele>
        <time>2026-04-25T12:22:16Z</time>
      </trkpt>
      <trkpt lat="45.07376" lon="4.13011">
        <ele>1257.3</ele>
        <time>2026-04-25T12:22:21Z</time>
      </trkpt>
      <trkpt lat="45.07373" lon="4.13002">
        <ele>1257.8</ele>
        <time>2026-04-25T12:22:26Z</time>
      </trkpt>
      <trkpt lat="45.07369" lon="4.12994">
        <ele>1258.3</ele>
        <time>2026-04-25T12:22:31Z</time>
      </trkpt>
      <trkpt lat="45.07366" lon="4.12987">
        <ele>1258.5</ele>
        <time>2026-04-25T12:22:36Z</time>
      </trkpt>
      <trkpt lat="45.07363" lon="4.12978">
        <ele>1258.7</ele>
        <time>2026-04-25T12:22:41Z</time>
      </trkpt>
      <trkpt lat="45.07363" lon="4.12969">
        <ele>1258.4</ele>
        <time>2026-04-25T12:22:46Z</time>
      </trkpt>
      <trkpt lat="45.07361" lon="4.12962">
        <ele>1258.5</ele>
        <time>2026-04-25T12:22:51Z</time>
      </trkpt>
      <trkpt lat="45.07357" lon="4.12956">
        <ele>1258.8</ele>
        <time>2026-04-25T12:22:56Z</time>
      </trkpt>
      <trkpt lat="45.07354" lon="4.1295">
        <ele>1259</ele>
        <time>2026-04-25T12:23:01Z</time>
      </trkpt>
      <trkpt lat="45.0735" lon="4.12944">
        <ele>1259.2</ele>
        <time>2026-04-25T12:23:06Z</time>
      </trkpt>
      <trkpt lat="45.07347" lon="4.12938">
        <ele>1259.4</ele>
        <time>2026-04-25T12:23:11Z</time>
      </trkpt>
      <trkpt lat="45.07344" lon="4.12931">
        <ele>1259.4</ele>
        <time>2026-04-25T12:23:16Z</time>
      </trkpt>
      <trkpt lat="45.07343" lon="4.12926">
        <ele>1259.4</ele>
        <time>2026-04-25T12:23:21Z</time>
      </trkpt>
      <trkpt lat="45.07341" lon="4.12918">
        <ele>1259.2</ele>
        <time>2026-04-25T12:23:26Z</time>
      </trkpt>
      <trkpt lat="45.07338" lon="4.12909">
        <ele>1259</ele>
        <time>2026-04-25T12:23:31Z</time>
      </trkpt>
      <trkpt lat="45.07334" lon="4.12901">
        <ele>1259</ele>
        <time>2026-04-25T12:23:36Z</time>
      </trkpt>
      <trkpt lat="45.07331" lon="4.12895">
        <ele>1258.9</ele>
        <time>2026-04-25T12:23:41Z</time>
      </trkpt>
      <trkpt lat="45.07328" lon="4.12888">
        <ele>1258.7</ele>
        <time>2026-04-25T12:23:46Z</time>
      </trkpt>
      <trkpt lat="45.07324" lon="4.12881">
        <ele>1258.6</ele>
        <time>2026-04-25T12:23:51Z</time>
      </trkpt>
      <trkpt lat="45.07321" lon="4.12874">
        <ele>1258.4</ele>
        <time>2026-04-25T12:23:56Z</time>
      </trkpt>
      <trkpt lat="45.07319" lon="4.12867">
        <ele>1258.2</ele>
        <time>2026-04-25T12:24:01Z</time>
      </trkpt>
      <trkpt lat="45.07317" lon="4.1286">
        <ele>1258</ele>
        <time>2026-04-25T12:24:06Z</time>
      </trkpt>
      <trkpt lat="45.07316" lon="4.12851">
        <ele>1257.6</ele>
        <time>2026-04-25T12:24:11Z</time>
      </trkpt>
      <trkpt lat="45.07313" lon="4.12842">
        <ele>1257.4</ele>
        <time>2026-04-25T12:24:16Z</time>
      </trkpt>
      <trkpt lat="45.07309" lon="4.12833">
        <ele>1257.3</ele>
        <time>2026-04-25T12:24:21Z</time>
      </trkpt>
      <trkpt lat="45.07307" lon="4.12823">
        <ele>1257.8</ele>
        <time>2026-04-25T12:24:26Z</time>
      </trkpt>
      <trkpt lat="45.07306" lon="4.12813">
        <ele>1258.1</ele>
        <time>2026-04-25T12:24:31Z</time>
      </trkpt>
      <trkpt lat="45.07303" lon="4.12806">
        <ele>1258.5</ele>
        <time>2026-04-25T12:24:36Z</time>
      </trkpt>
      <trkpt lat="45.073" lon="4.12803">
        <ele>1258.9</ele>
        <time>2026-04-25T12:24:41Z</time>
      </trkpt>
      <trkpt lat="45.07297" lon="4.128">
        <ele>1259.2</ele>
        <time>2026-04-25T12:24:46Z</time>
      </trkpt>
      <trkpt lat="45.07295" lon="4.12798">
        <ele>1259.4</ele>
        <time>2026-04-25T12:24:51Z</time>
      </trkpt>
      <trkpt lat="45.07294" lon="4.12793">
        <ele>1259.5</ele>
        <time>2026-04-25T12:24:56Z</time>
      </trkpt>
      <trkpt lat="45.07293" lon="4.12788">
        <ele>1259.7</ele>
        <time>2026-04-25T12:25:01Z</time>
      </trkpt>
      <trkpt lat="45.07291" lon="4.12786">
        <ele>1259.9</ele>
        <time>2026-04-25T12:25:06Z</time>
      </trkpt>
      <trkpt lat="45.0729" lon="4.12781">
        <ele>1260.1</ele>
        <time>2026-04-25T12:25:11Z</time>
      </trkpt>
      <trkpt lat="45.0729" lon="4.12777">
        <ele>1260.1</ele>
        <time>2026-04-25T12:25:16Z</time>
      </trkpt>
      <trkpt lat="45.07288" lon="4.12771">
        <ele>1260.4</ele>
        <time>2026-04-25T12:25:21Z</time>
      </trkpt>
      <trkpt lat="45.07286" lon="4.12766">
        <ele>1260.6</ele>
        <time>2026-04-25T12:25:26Z</time>
      </trkpt>
      <trkpt lat="45.07285" lon="4.12766">
        <ele>1260.7</ele>
        <time>2026-04-25T12:25:31Z</time>
      </trkpt>
      <trkpt lat="45.07284" lon="4.12766">
        <ele>1260.7</ele>
        <time>2026-04-25T12:25:36Z</time>
      </trkpt>
      <trkpt lat="45.07284" lon="4.12766">
        <ele>1260.7</ele>
        <time>2026-04-25T12:25:41Z</time>
      </trkpt>
      <trkpt lat="45.07284" lon="4.12766">
        <ele>1260.7</ele>
        <time>2026-04-25T12:25:46Z</time>
      </trkpt>
      <trkpt lat="45.07284" lon="4.12766">
        <ele>1260.7</ele>
        <time>2026-04-25T12:25:51Z</time>
      </trkpt>
      <trkpt lat="45.07276" lon="4.1276">
        <ele>1261.3</ele>
        <time>2026-04-25T12:25:56Z</time>
      </trkpt>
      <trkpt lat="45.07274" lon="4.12752">
        <ele>1261.5</ele>
        <time>2026-04-25T12:26:01Z</time>
      </trkpt>
      <trkpt lat="45.07272" lon="4.12747">
        <ele>1261.9</ele>
        <time>2026-04-25T12:26:06Z</time>
      </trkpt>
      <trkpt lat="45.07271" lon="4.1274">
        <ele>1262.6</ele>
        <time>2026-04-25T12:26:11Z</time>
      </trkpt>
      <trkpt lat="45.07269" lon="4.12736">
        <ele>1263</ele>
        <time>2026-04-25T12:26:16Z</time>
      </trkpt>
      <trkpt lat="45.07268" lon="4.1273">
        <ele>1263.6</ele>
        <time>2026-04-25T12:26:21Z</time>
      </trkpt>
      <trkpt lat="45.07265" lon="4.12725">
        <ele>1264.2</ele>
        <time>2026-04-25T12:26:26Z</time>
      </trkpt>
      <trkpt lat="45.07263" lon="4.12719">
        <ele>1264.8</ele>
        <time>2026-04-25T12:26:31Z</time>
      </trkpt>
      <trkpt lat="45.07261" lon="4.12713">
        <ele>1265.4</ele>
        <time>2026-04-25T12:26:36Z</time>
      </trkpt>
      <trkpt lat="45.07259" lon="4.12706">
        <ele>1266.2</ele>
        <time>2026-04-25T12:26:41Z</time>
      </trkpt>
      <trkpt lat="45.07258" lon="4.12699">
        <ele>1266.8</ele>
        <time>2026-04-25T12:26:46Z</time>
      </trkpt>
      <trkpt lat="45.07257" lon="4.12693">
        <ele>1267.4</ele>
        <time>2026-04-25T12:26:51Z</time>
      </trkpt>
      <trkpt lat="45.07255" lon="4.12685">
        <ele>1268.2</ele>
        <time>2026-04-25T12:26:56Z</time>
      </trkpt>
      <trkpt lat="45.07252" lon="4.12679">
        <ele>1268.8</ele>
        <time>2026-04-25T12:27:01Z</time>
      </trkpt>
      <trkpt lat="45.07249" lon="4.12675">
        <ele>1269.3</ele>
        <time>2026-04-25T12:27:06Z</time>
      </trkpt>
      <trkpt lat="45.07247" lon="4.12671">
        <ele>1269.7</ele>
        <time>2026-04-25T12:27:11Z</time>
      </trkpt>
      <trkpt lat="45.07245" lon="4.12668">
        <ele>1270</ele>
        <time>2026-04-25T12:27:16Z</time>
      </trkpt>
      <trkpt lat="45.0724" lon="4.12663">
        <ele>1270.1</ele>
        <time>2026-04-25T12:27:21Z</time>
      </trkpt>
      <trkpt lat="45.07235" lon="4.12657">
        <ele>1270.1</ele>
        <time>2026-04-25T12:27:26Z</time>
      </trkpt>
      <trkpt lat="45.07232" lon="4.12651">
        <ele>1270.1</ele>
        <time>2026-04-25T12:27:31Z</time>
      </trkpt>
      <trkpt lat="45.07229" lon="4.12645">
        <ele>1270.1</ele>
        <time>2026-04-25T12:27:36Z</time>
      </trkpt>
      <trkpt lat="45.07226" lon="4.1264">
        <ele>1270.1</ele>
        <time>2026-04-25T12:27:41Z</time>
      </trkpt>
      <trkpt lat="45.07222" lon="4.12636">
        <ele>1270.1</ele>
        <time>2026-04-25T12:27:46Z</time>
      </trkpt>
      <trkpt lat="45.07221" lon="4.12634">
        <ele>1270.1</ele>
        <time>2026-04-25T12:27:51Z</time>
      </trkpt>
      <trkpt lat="45.07221" lon="4.12633">
        <ele>1270.1</ele>
        <time>2026-04-25T12:27:56Z</time>
      </trkpt>
      <trkpt lat="45.07221" lon="4.12633">
        <ele>1270.1</ele>
        <time>2026-04-25T12:28:01Z</time>
      </trkpt>
      <trkpt lat="45.07221" lon="4.12633">
        <ele>1270.1</ele>
        <time>2026-04-25T12:28:06Z</time>
      </trkpt>
      <trkpt lat="45.07221" lon="4.12633">
        <ele>1270.1</ele>
        <time>2026-04-25T12:28:11Z</time>
      </trkpt>
      <trkpt lat="45.07221" lon="4.12633">
        <ele>1270.1</ele>
        <time>2026-04-25T12:28:16Z</time>
      </trkpt>
      <trkpt lat="45.07221" lon="4.12633">
        <ele>1270.1</ele>
        <time>2026-04-25T12:28:21Z</time>
      </trkpt>
      <trkpt lat="45.07221" lon="4.12633">
        <ele>1270.1</ele>
        <time>2026-04-25T12:28:26Z</time>
      </trkpt>
      <trkpt lat="45.07221" lon="4.12633">
        <ele>1270.1</ele>
        <time>2026-04-25T12:28:31Z</time>
      </trkpt>
      <trkpt lat="45.07213" lon="4.12629">
        <ele>1270</ele>
        <time>2026-04-25T12:28:36Z</time>
      </trkpt>
      <trkpt lat="45.07208" lon="4.12628">
        <ele>1270</ele>
        <time>2026-04-25T12:28:41Z</time>
      </trkpt>
      <trkpt lat="45.07203" lon="4.12627">
        <ele>1270</ele>
        <time>2026-04-25T12:28:46Z</time>
      </trkpt>
      <trkpt lat="45.07197" lon="4.12624">
        <ele>1270</ele>
        <time>2026-04-25T12:28:51Z</time>
      </trkpt>
      <trkpt lat="45.07192" lon="4.12619">
        <ele>1269.9</ele>
        <time>2026-04-25T12:28:56Z</time>
      </trkpt>
      <trkpt lat="45.07189" lon="4.12611">
        <ele>1269.8</ele>
        <time>2026-04-25T12:29:01Z</time>
      </trkpt>
      <trkpt lat="45.07185" lon="4.12606">
        <ele>1269.6</ele>
        <time>2026-04-25T12:29:06Z</time>
      </trkpt>
      <trkpt lat="45.07183" lon="4.12599">
        <ele>1269.5</ele>
        <time>2026-04-25T12:29:11Z</time>
      </trkpt>
      <trkpt lat="45.0718" lon="4.12591">
        <ele>1269.3</ele>
        <time>2026-04-25T12:29:16Z</time>
      </trkpt>
      <trkpt lat="45.07178" lon="4.12583">
        <ele>1269.1</ele>
        <time>2026-04-25T12:29:21Z</time>
      </trkpt>
      <trkpt lat="45.07176" lon="4.12575">
        <ele>1269.4</ele>
        <time>2026-04-25T12:29:26Z</time>
      </trkpt>
      <trkpt lat="45.07175" lon="4.12568">
        <ele>1269.6</ele>
        <time>2026-04-25T12:29:31Z</time>
      </trkpt>
      <trkpt lat="45.07175" lon="4.12561">
        <ele>1269.8</ele>
        <time>2026-04-25T12:29:36Z</time>
      </trkpt>
      <trkpt lat="45.07173" lon="4.12553">
        <ele>1270.1</ele>
        <time>2026-04-25T12:29:41Z</time>
      </trkpt>
      <trkpt lat="45.07171" lon="4.12546">
        <ele>1270.3</ele>
        <time>2026-04-25T12:29:46Z</time>
      </trkpt>
      <trkpt lat="45.0717" lon="4.12538">
        <ele>1270.6</ele>
        <time>2026-04-25T12:29:51Z</time>
      </trkpt>
      <trkpt lat="45.07169" lon="4.12531">
        <ele>1270.8</ele>
        <time>2026-04-25T12:29:56Z</time>
      </trkpt>
      <trkpt lat="45.07168" lon="4.12523">
        <ele>1271.1</ele>
        <time>2026-04-25T12:30:01Z</time>
      </trkpt>
      <trkpt lat="45.07168" lon="4.12517">
        <ele>1271.4</ele>
        <time>2026-04-25T12:30:06Z</time>
      </trkpt>
      <trkpt lat="45.07166" lon="4.12511">
        <ele>1271.6</ele>
        <time>2026-04-25T12:30:11Z</time>
      </trkpt>
      <trkpt lat="45.07165" lon="4.12502">
        <ele>1272</ele>
        <time>2026-04-25T12:30:16Z</time>
      </trkpt>
      <trkpt lat="45.07163" lon="4.12496">
        <ele>1272.3</ele>
        <time>2026-04-25T12:30:21Z</time>
      </trkpt>
      <trkpt lat="45.07161" lon="4.1249">
        <ele>1272.7</ele>
        <time>2026-04-25T12:30:26Z</time>
      </trkpt>
      <trkpt lat="45.0716" lon="4.12482">
        <ele>1273.1</ele>
        <time>2026-04-25T12:30:31Z</time>
      </trkpt>
      <trkpt lat="45.07159" lon="4.12475">
        <ele>1273.5</ele>
        <time>2026-04-25T12:30:36Z</time>
      </trkpt>
      <trkpt lat="45.07157" lon="4.12468">
        <ele>1273.8</ele>
        <time>2026-04-25T12:30:41Z</time>
      </trkpt>
      <trkpt lat="45.07154" lon="4.12462">
        <ele>1274.1</ele>
        <time>2026-04-25T12:30:46Z</time>
      </trkpt>
      <trkpt lat="45.07151" lon="4.12455">
        <ele>1274.4</ele>
        <time>2026-04-25T12:30:51Z</time>
      </trkpt>
      <trkpt lat="45.0715" lon="4.12449">
        <ele>1274.6</ele>
        <time>2026-04-25T12:30:56Z</time>
      </trkpt>
      <trkpt lat="45.0715" lon="4.12442">
        <ele>1274.9</ele>
        <time>2026-04-25T12:31:01Z</time>
      </trkpt>
      <trkpt lat="45.0715" lon="4.12435">
        <ele>1275.2</ele>
        <time>2026-04-25T12:31:06Z</time>
      </trkpt>
      <trkpt lat="45.07147" lon="4.12428">
        <ele>1275.4</ele>
        <time>2026-04-25T12:31:11Z</time>
      </trkpt>
      <trkpt lat="45.07144" lon="4.12422">
        <ele>1275.4</ele>
        <time>2026-04-25T12:31:16Z</time>
      </trkpt>
      <trkpt lat="45.07142" lon="4.12416">
        <ele>1275.5</ele>
        <time>2026-04-25T12:31:21Z</time>
      </trkpt>
      <trkpt lat="45.0714" lon="4.12415">
        <ele>1275.4</ele>
        <time>2026-04-25T12:31:26Z</time>
      </trkpt>
      <trkpt lat="45.07138" lon="4.12409">
        <ele>1275.4</ele>
        <time>2026-04-25T12:31:31Z</time>
      </trkpt>
      <trkpt lat="45.07134" lon="4.12402">
        <ele>1275.3</ele>
        <time>2026-04-25T12:31:36Z</time>
      </trkpt>
      <trkpt lat="45.07131" lon="4.12395">
        <ele>1275.3</ele>
        <time>2026-04-25T12:31:41Z</time>
      </trkpt>
      <trkpt lat="45.07127" lon="4.12389">
        <ele>1275.1</ele>
        <time>2026-04-25T12:31:46Z</time>
      </trkpt>
      <trkpt lat="45.07123" lon="4.12381">
        <ele>1275</ele>
        <time>2026-04-25T12:31:51Z</time>
      </trkpt>
      <trkpt lat="45.07119" lon="4.12373">
        <ele>1274.9</ele>
        <time>2026-04-25T12:31:56Z</time>
      </trkpt>
      <trkpt lat="45.07115" lon="4.12365">
        <ele>1274.8</ele>
        <time>2026-04-25T12:32:01Z</time>
      </trkpt>
      <trkpt lat="45.07111" lon="4.12359">
        <ele>1274.6</ele>
        <time>2026-04-25T12:32:06Z</time>
      </trkpt>
      <trkpt lat="45.07107" lon="4.12352">
        <ele>1274.4</ele>
        <time>2026-04-25T12:32:11Z</time>
      </trkpt>
      <trkpt lat="45.07104" lon="4.12347">
        <ele>1274.3</ele>
        <time>2026-04-25T12:32:16Z</time>
      </trkpt>
      <trkpt lat="45.07099" lon="4.12339">
        <ele>1274</ele>
        <time>2026-04-25T12:32:21Z</time>
      </trkpt>
      <trkpt lat="45.07094" lon="4.12333">
        <ele>1273.8</ele>
        <time>2026-04-25T12:32:26Z</time>
      </trkpt>
      <trkpt lat="45.07089" lon="4.12327">
        <ele>1273.8</ele>
        <time>2026-04-25T12:32:31Z</time>
      </trkpt>
      <trkpt lat="45.07084" lon="4.1232">
        <ele>1273.8</ele>
        <time>2026-04-25T12:32:36Z</time>
      </trkpt>
      <trkpt lat="45.07079" lon="4.12317">
        <ele>1273.7</ele>
        <time>2026-04-25T12:32:41Z</time>
      </trkpt>
      <trkpt lat="45.07074" lon="4.12312">
        <ele>1273.7</ele>
        <time>2026-04-25T12:32:46Z</time>
      </trkpt>
      <trkpt lat="45.07069" lon="4.12305">
        <ele>1273.8</ele>
        <time>2026-04-25T12:32:51Z</time>
      </trkpt>
      <trkpt lat="45.07063" lon="4.12298">
        <ele>1273.8</ele>
        <time>2026-04-25T12:32:56Z</time>
      </trkpt>
      <trkpt lat="45.07061" lon="4.12289">
        <ele>1274.2</ele>
        <time>2026-04-25T12:33:01Z</time>
      </trkpt>
      <trkpt lat="45.07057" lon="4.12279">
        <ele>1274.4</ele>
        <time>2026-04-25T12:33:06Z</time>
      </trkpt>
      <trkpt lat="45.07054" lon="4.12271">
        <ele>1274.5</ele>
        <time>2026-04-25T12:33:11Z</time>
      </trkpt>
      <trkpt lat="45.0705" lon="4.12261">
        <ele>1274.7</ele>
        <time>2026-04-25T12:33:16Z</time>
      </trkpt>
      <trkpt lat="45.07046" lon="4.12252">
        <ele>1274.8</ele>
        <time>2026-04-25T12:33:21Z</time>
      </trkpt>
      <trkpt lat="45.07042" lon="4.12243">
        <ele>1274.7</ele>
        <time>2026-04-25T12:33:26Z</time>
      </trkpt>
      <trkpt lat="45.07038" lon="4.12233">
        <ele>1274.6</ele>
        <time>2026-04-25T12:33:31Z</time>
      </trkpt>
      <trkpt lat="45.07033" lon="4.12225">
        <ele>1274.3</ele>
        <time>2026-04-25T12:33:36Z</time>
      </trkpt>
      <trkpt lat="45.07029" lon="4.12218">
        <ele>1274.1</ele>
        <time>2026-04-25T12:33:41Z</time>
      </trkpt>
      <trkpt lat="45.07025" lon="4.1221">
        <ele>1273.9</ele>
        <time>2026-04-25T12:33:46Z</time>
      </trkpt>
      <trkpt lat="45.07022" lon="4.12203">
        <ele>1273.7</ele>
        <time>2026-04-25T12:33:51Z</time>
      </trkpt>
      <trkpt lat="45.0702" lon="4.12197">
        <ele>1273.6</ele>
        <time>2026-04-25T12:33:56Z</time>
      </trkpt>
      <trkpt lat="45.07018" lon="4.1219">
        <ele>1273.5</ele>
        <time>2026-04-25T12:34:01Z</time>
      </trkpt>
      <trkpt lat="45.07015" lon="4.12183">
        <ele>1273.4</ele>
        <time>2026-04-25T12:34:06Z</time>
      </trkpt>
      <trkpt lat="45.07012" lon="4.12178">
        <ele>1273.1</ele>
        <time>2026-04-25T12:34:11Z</time>
      </trkpt>
      <trkpt lat="45.07011" lon="4.12175">
        <ele>1273.1</ele>
        <time>2026-04-25T12:34:16Z</time>
      </trkpt>
      <trkpt lat="45.07009" lon="4.12171">
        <ele>1272.9</ele>
        <time>2026-04-25T12:34:21Z</time>
      </trkpt>
      <trkpt lat="45.07009" lon="4.12171">
        <ele>1272.9</ele>
        <time>2026-04-25T12:34:26Z</time>
      </trkpt>
      <trkpt lat="45.07009" lon="4.12171">
        <ele>1272.9</ele>
        <time>2026-04-25T12:34:31Z</time>
      </trkpt>
      <trkpt lat="45.07006" lon="4.12166">
        <ele>1272.7</ele>
        <time>2026-04-25T12:34:36Z</time>
      </trkpt>
      <trkpt lat="45.07004" lon="4.12159">
        <ele>1272.9</ele>
        <time>2026-04-25T12:34:41Z</time>
      </trkpt>
      <trkpt lat="45.07003" lon="4.12152">
        <ele>1273.2</ele>
        <time>2026-04-25T12:34:46Z</time>
      </trkpt>
      <trkpt lat="45.07" lon="4.12143">
        <ele>1273.4</ele>
        <time>2026-04-25T12:34:51Z</time>
      </trkpt>
      <trkpt lat="45.06998" lon="4.12133">
        <ele>1273.8</ele>
        <time>2026-04-25T12:34:56Z</time>
      </trkpt>
      <trkpt lat="45.06996" lon="4.12123">
        <ele>1274.2</ele>
        <time>2026-04-25T12:35:01Z</time>
      </trkpt>
      <trkpt lat="45.06992" lon="4.12115">
        <ele>1274.2</ele>
        <time>2026-04-25T12:35:06Z</time>
      </trkpt>
      <trkpt lat="45.06989" lon="4.12106">
        <ele>1274.4</ele>
        <time>2026-04-25T12:35:11Z</time>
      </trkpt>
      <trkpt lat="45.06987" lon="4.12098">
        <ele>1274.6</ele>
        <time>2026-04-25T12:35:16Z</time>
      </trkpt>
      <trkpt lat="45.06984" lon="4.12089">
        <ele>1274.8</ele>
        <time>2026-04-25T12:35:21Z</time>
      </trkpt>
      <trkpt lat="45.0698" lon="4.12081">
        <ele>1274.6</ele>
        <time>2026-04-25T12:35:26Z</time>
      </trkpt>
      <trkpt lat="45.06978" lon="4.12072">
        <ele>1274.5</ele>
        <time>2026-04-25T12:35:31Z</time>
      </trkpt>
      <trkpt lat="45.06975" lon="4.12062">
        <ele>1274.3</ele>
        <time>2026-04-25T12:35:36Z</time>
      </trkpt>
      <trkpt lat="45.06973" lon="4.12053">
        <ele>1274.2</ele>
        <time>2026-04-25T12:35:41Z</time>
      </trkpt>
      <trkpt lat="45.06971" lon="4.12043">
        <ele>1274.2</ele>
        <time>2026-04-25T12:35:46Z</time>
      </trkpt>
      <trkpt lat="45.06968" lon="4.1203">
        <ele>1274</ele>
        <time>2026-04-25T12:35:51Z</time>
      </trkpt>
      <trkpt lat="45.06961" lon="4.12024">
        <ele>1273.4</ele>
        <time>2026-04-25T12:35:56Z</time>
      </trkpt>
      <trkpt lat="45.06955" lon="4.12029">
        <ele>1272.6</ele>
        <time>2026-04-25T12:36:01Z</time>
      </trkpt>
      <trkpt lat="45.06949" lon="4.12036">
        <ele>1271.8</ele>
        <time>2026-04-25T12:36:06Z</time>
      </trkpt>
      <trkpt lat="45.06944" lon="4.12041">
        <ele>1271.1</ele>
        <time>2026-04-25T12:36:11Z</time>
      </trkpt>
      <trkpt lat="45.06937" lon="4.12045">
        <ele>1270.2</ele>
        <time>2026-04-25T12:36:16Z</time>
      </trkpt>
      <trkpt lat="45.06931" lon="4.12048">
        <ele>1269.5</ele>
        <time>2026-04-25T12:36:21Z</time>
      </trkpt>
      <trkpt lat="45.06925" lon="4.12051">
        <ele>1268.7</ele>
        <time>2026-04-25T12:36:26Z</time>
      </trkpt>
      <trkpt lat="45.06918" lon="4.12055">
        <ele>1267.8</ele>
        <time>2026-04-25T12:36:31Z</time>
      </trkpt>
      <trkpt lat="45.0691" lon="4.12059">
        <ele>1267.6</ele>
        <time>2026-04-25T12:36:36Z</time>
      </trkpt>
      <trkpt lat="45.06903" lon="4.12064">
        <ele>1267.4</ele>
        <time>2026-04-25T12:36:41Z</time>
      </trkpt>
      <trkpt lat="45.06896" lon="4.12067">
        <ele>1267.2</ele>
        <time>2026-04-25T12:36:46Z</time>
      </trkpt>
      <trkpt lat="45.0689" lon="4.12069">
        <ele>1267</ele>
        <time>2026-04-25T12:36:51Z</time>
      </trkpt>
      <trkpt lat="45.06883" lon="4.12073">
        <ele>1266.7</ele>
        <time>2026-04-25T12:36:56Z</time>
      </trkpt>
      <trkpt lat="45.06875" lon="4.12072">
        <ele>1266.7</ele>
        <time>2026-04-25T12:37:01Z</time>
      </trkpt>
      <trkpt lat="45.06867" lon="4.12071">
        <ele>1266.6</ele>
        <time>2026-04-25T12:37:06Z</time>
      </trkpt>
      <trkpt lat="45.06859" lon="4.12067">
        <ele>1266.8</ele>
        <time>2026-04-25T12:37:11Z</time>
      </trkpt>
      <trkpt lat="45.06853" lon="4.12065">
        <ele>1266.9</ele>
        <time>2026-04-25T12:37:16Z</time>
      </trkpt>
      <trkpt lat="45.06843" lon="4.12061">
        <ele>1267.2</ele>
        <time>2026-04-25T12:37:21Z</time>
      </trkpt>
      <trkpt lat="45.06837" lon="4.1206">
        <ele>1267.3</ele>
        <time>2026-04-25T12:37:26Z</time>
      </trkpt>
      <trkpt lat="45.06828" lon="4.12057">
        <ele>1267.5</ele>
        <time>2026-04-25T12:37:31Z</time>
      </trkpt>
      <trkpt lat="45.06821" lon="4.12053">
        <ele>1267.8</ele>
        <time>2026-04-25T12:37:36Z</time>
      </trkpt>
      <trkpt lat="45.06817" lon="4.12048">
        <ele>1268.3</ele>
        <time>2026-04-25T12:37:41Z</time>
      </trkpt>
      <trkpt lat="45.06813" lon="4.1204">
        <ele>1268.9</ele>
        <time>2026-04-25T12:37:46Z</time>
      </trkpt>
      <trkpt lat="45.06811" lon="4.12029">
        <ele>1269.8</ele>
        <time>2026-04-25T12:37:51Z</time>
      </trkpt>
      <trkpt lat="45.0681" lon="4.12018">
        <ele>1270.7</ele>
        <time>2026-04-25T12:37:56Z</time>
      </trkpt>
      <trkpt lat="45.06808" lon="4.12007">
        <ele>1271.5</ele>
        <time>2026-04-25T12:38:01Z</time>
      </trkpt>
      <trkpt lat="45.06811" lon="4.11999">
        <ele>1272</ele>
        <time>2026-04-25T12:38:06Z</time>
      </trkpt>
      <trkpt lat="45.06812" lon="4.11988">
        <ele>1270.3</ele>
        <time>2026-04-25T12:38:11Z</time>
      </trkpt>
      <trkpt lat="45.06815" lon="4.11978">
        <ele>1268.8</ele>
        <time>2026-04-25T12:38:16Z</time>
      </trkpt>
      <trkpt lat="45.06817" lon="4.11968">
        <ele>1267.3</ele>
        <time>2026-04-25T12:38:21Z</time>
      </trkpt>
      <trkpt lat="45.06817" lon="4.11956">
        <ele>1265.4</ele>
        <time>2026-04-25T12:38:26Z</time>
      </trkpt>
      <trkpt lat="45.06819" lon="4.11948">
        <ele>1264.3</ele>
        <time>2026-04-25T12:38:31Z</time>
      </trkpt>
      <trkpt lat="45.06819" lon="4.11936">
        <ele>1262.4</ele>
        <time>2026-04-25T12:38:36Z</time>
      </trkpt>
      <trkpt lat="45.0682" lon="4.11924">
        <ele>1260.5</ele>
        <time>2026-04-25T12:38:41Z</time>
      </trkpt>
      <trkpt lat="45.06822" lon="4.11913">
        <ele>1258.6</ele>
        <time>2026-04-25T12:38:46Z</time>
      </trkpt>
      <trkpt lat="45.06823" lon="4.11902">
        <ele>1256.1</ele>
        <time>2026-04-25T12:38:51Z</time>
      </trkpt>
      <trkpt lat="45.06823" lon="4.11892">
        <ele>1253.7</ele>
        <time>2026-04-25T12:38:56Z</time>
      </trkpt>
      <trkpt lat="45.06825" lon="4.11882">
        <ele>1251.5</ele>
        <time>2026-04-25T12:39:01Z</time>
      </trkpt>
      <trkpt lat="45.06828" lon="4.11871">
        <ele>1249.2</ele>
        <time>2026-04-25T12:39:06Z</time>
      </trkpt>
      <trkpt lat="45.06829" lon="4.11861">
        <ele>1246.9</ele>
        <time>2026-04-25T12:39:11Z</time>
      </trkpt>
      <trkpt lat="45.0683" lon="4.11851">
        <ele>1244.7</ele>
        <time>2026-04-25T12:39:16Z</time>
      </trkpt>
      <trkpt lat="45.0683" lon="4.1184">
        <ele>1242.2</ele>
        <time>2026-04-25T12:39:21Z</time>
      </trkpt>
      <trkpt lat="45.06828" lon="4.1183">
        <ele>1239.7</ele>
        <time>2026-04-25T12:39:26Z</time>
      </trkpt>
      <trkpt lat="45.06826" lon="4.11822">
        <ele>1237.7</ele>
        <time>2026-04-25T12:39:31Z</time>
      </trkpt>
      <trkpt lat="45.06827" lon="4.11813">
        <ele>1235.8</ele>
        <time>2026-04-25T12:39:36Z</time>
      </trkpt>
      <trkpt lat="45.06828" lon="4.11804">
        <ele>1234</ele>
        <time>2026-04-25T12:39:41Z</time>
      </trkpt>
      <trkpt lat="45.06827" lon="4.118">
        <ele>1232.9</ele>
        <time>2026-04-25T12:39:46Z</time>
      </trkpt>
      <trkpt lat="45.06823" lon="4.118">
        <ele>1232.4</ele>
        <time>2026-04-25T12:39:51Z</time>
      </trkpt>
      <trkpt lat="45.06818" lon="4.11803">
        <ele>1232.4</ele>
        <time>2026-04-25T12:39:56Z</time>
      </trkpt>
      <trkpt lat="45.06816" lon="4.11805">
        <ele>1232.6</ele>
        <time>2026-04-25T12:40:01Z</time>
      </trkpt>
      <trkpt lat="45.06816" lon="4.11798">
        <ele>1231</ele>
        <time>2026-04-25T12:40:06Z</time>
      </trkpt>
      <trkpt lat="45.0682" lon="4.11793">
        <ele>1230.4</ele>
        <time>2026-04-25T12:40:11Z</time>
      </trkpt>
      <trkpt lat="45.06825" lon="4.11786">
        <ele>1229.5</ele>
        <time>2026-04-25T12:40:16Z</time>
      </trkpt>
      <trkpt lat="45.06826" lon="4.11786">
        <ele>1229.7</ele>
        <time>2026-04-25T12:40:21Z</time>
      </trkpt>
      <trkpt lat="45.06827" lon="4.11786">
        <ele>1229.8</ele>
        <time>2026-04-25T12:40:26Z</time>
      </trkpt>
      <trkpt lat="45.06823" lon="4.11787">
        <ele>1229.5</ele>
        <time>2026-04-25T12:40:31Z</time>
      </trkpt>
      <trkpt lat="45.06824" lon="4.11799">
        <ele>1232.3</ele>
        <time>2026-04-26T06:00:28Z</time>
      </trkpt>
      <trkpt lat="45.06824" lon="4.11791">
        <ele>1230.5</ele>
        <time>2026-04-26T06:00:33Z</time>
      </trkpt>
      <trkpt lat="45.06824" lon="4.11791">
        <ele>1230.5</ele>
        <time>2026-04-26T06:00:38Z</time>
      </trkpt>
      <trkpt lat="45.06824" lon="4.11791">
        <ele>1230.5</ele>
        <time>2026-04-26T06:00:43Z</time>
      </trkpt>
      <trkpt lat="45.06824" lon="4.11791">
        <ele>1230.5</ele>
        <time>2026-04-26T06:00:48Z</time>
      </trkpt>
      <trkpt lat="45.06824" lon="4.11789">
        <ele>1230.1</ele>
        <time>2026-04-26T06:00:53Z</time>
      </trkpt>
      <trkpt lat="45.06826" lon="4.11781">
        <ele>1228.6</ele>
        <time>2026-04-26T06:00:58Z</time>
      </trkpt>
      <trkpt lat="45.06829" lon="4.11776">
        <ele>1227.9</ele>
        <time>2026-04-26T06:01:03Z</time>
      </trkpt>
      <trkpt lat="45.06834" lon="4.11769">
        <ele>1227.3</ele>
        <time>2026-04-26T06:01:08Z</time>
      </trkpt>
      <trkpt lat="45.06836" lon="4.11762">
        <ele>1226.3</ele>
        <time>2026-04-26T06:01:13Z</time>
      </trkpt>
      <trkpt lat="45.06837" lon="4.11762">
        <ele>1226.6</ele>
        <time>2026-04-26T06:01:18Z</time>
      </trkpt>
      <trkpt lat="45.06837" lon="4.11762">
        <ele>1226.6</ele>
        <time>2026-04-26T06:01:23Z</time>
      </trkpt>
      <trkpt lat="45.06837" lon="4.11762">
        <ele>1226.6</ele>
        <time>2026-04-26T06:01:28Z</time>
      </trkpt>
      <trkpt lat="45.06837" lon="4.11762">
        <ele>1226.6</ele>
        <time>2026-04-26T06:01:33Z</time>
      </trkpt>
      <trkpt lat="45.06837" lon="4.11762">
        <ele>1226.6</ele>
        <time>2026-04-26T06:01:38Z</time>
      </trkpt>
      <trkpt lat="45.06837" lon="4.11762">
        <ele>1226.6</ele>
        <time>2026-04-26T06:01:43Z</time>
      </trkpt>
      <trkpt lat="45.06837" lon="4.11762">
        <ele>1226.6</ele>
        <time>2026-04-26T06:01:48Z</time>
      </trkpt>
      <trkpt lat="45.06837" lon="4.11762">
        <ele>1226.6</ele>
        <time>2026-04-26T06:01:53Z</time>
      </trkpt>
      <trkpt lat="45.06837" lon="4.11762">
        <ele>1226.6</ele>
        <time>2026-04-26T06:01:58Z</time>
      </trkpt>
      <trkpt lat="45.06837" lon="4.11762">
        <ele>1226.6</ele>
        <time>2026-04-26T06:02:03Z</time>
      </trkpt>
      <trkpt lat="45.06838" lon="4.11752">
        <ele>1224.8</ele>
        <time>2026-04-26T06:02:08Z</time>
      </trkpt>
      <trkpt lat="45.06841" lon="4.11745">
        <ele>1224.5</ele>
        <time>2026-04-26T06:02:13Z</time>
      </trkpt>
      <trkpt lat="45.06843" lon="4.11736">
        <ele>1223.7</ele>
        <time>2026-04-26T06:02:18Z</time>
      </trkpt>
      <trkpt lat="45.06845" lon="4.11729">
        <ele>1223.3</ele>
        <time>2026-04-26T06:02:23Z</time>
      </trkpt>
      <trkpt lat="45.06848" lon="4.11723">
        <ele>1223.3</ele>
        <time>2026-04-26T06:02:28Z</time>
      </trkpt>
      <trkpt lat="45.06851" lon="4.11715">
        <ele>1223.1</ele>
        <time>2026-04-26T06:02:33Z</time>
      </trkpt>
      <trkpt lat="45.06854" lon="4.11708">
        <ele>1223</ele>
        <time>2026-04-26T06:02:38Z</time>
      </trkpt>
      <trkpt lat="45.06857" lon="4.117">
        <ele>1222.9</ele>
        <time>2026-04-26T06:02:43Z</time>
      </trkpt>
      <trkpt lat="45.06858" lon="4.1169">
        <ele>1221.8</ele>
        <time>2026-04-26T06:02:48Z</time>
      </trkpt>
      <trkpt lat="45.06861" lon="4.11686">
        <ele>1222.3</ele>
        <time>2026-04-26T06:02:53Z</time>
      </trkpt>
      <trkpt lat="45.06862" lon="4.11692">
        <ele>1223.4</ele>
        <time>2026-04-26T06:02:58Z</time>
      </trkpt>
      <trkpt lat="45.06861" lon="4.11699">
        <ele>1224</ele>
        <time>2026-04-26T06:03:03Z</time>
      </trkpt>
      <trkpt lat="45.0686" lon="4.11706">
        <ele>1224.7</ele>
        <time>2026-04-26T06:03:08Z</time>
      </trkpt>
      <trkpt lat="45.06859" lon="4.11713">
        <ele>1225.3</ele>
        <time>2026-04-26T06:03:13Z</time>
      </trkpt>
      <trkpt lat="45.06856" lon="4.1172">
        <ele>1225.3</ele>
        <time>2026-04-26T06:03:18Z</time>
      </trkpt>
      <trkpt lat="45.06854" lon="4.11727">
        <ele>1225.7</ele>
        <time>2026-04-26T06:03:23Z</time>
      </trkpt>
      <trkpt lat="45.06853" lon="4.11734">
        <ele>1226.4</ele>
        <time>2026-04-26T06:03:28Z</time>
      </trkpt>
      <trkpt lat="45.06853" lon="4.1174">
        <ele>1227.2</ele>
        <time>2026-04-26T06:03:33Z</time>
      </trkpt>
      <trkpt lat="45.06856" lon="4.11739">
        <ele>1228</ele>
        <time>2026-04-26T06:03:38Z</time>
      </trkpt>
      <trkpt lat="45.06859" lon="4.11732">
        <ele>1227.9</ele>
        <time>2026-04-26T06:03:43Z</time>
      </trkpt>
      <trkpt lat="45.06863" lon="4.11723">
        <ele>1227.9</ele>
        <time>2026-04-26T06:03:48Z</time>
      </trkpt>
      <trkpt lat="45.06865" lon="4.11714">
        <ele>1227.3</ele>
        <time>2026-04-26T06:03:53Z</time>
      </trkpt>
      <trkpt lat="45.06866" lon="4.11706">
        <ele>1226.6</ele>
        <time>2026-04-26T06:03:58Z</time>
      </trkpt>
      <trkpt lat="45.06868" lon="4.11696">
        <ele>1225.9</ele>
        <time>2026-04-26T06:04:03Z</time>
      </trkpt>
      <trkpt lat="45.0687" lon="4.11686">
        <ele>1225.3</ele>
        <time>2026-04-26T06:04:08Z</time>
      </trkpt>
      <trkpt lat="45.06873" lon="4.11677">
        <ele>1225.1</ele>
        <time>2026-04-26T06:04:13Z</time>
      </trkpt>
      <trkpt lat="45.06875" lon="4.11668">
        <ele>1224.7</ele>
        <time>2026-04-26T06:04:18Z</time>
      </trkpt>
      <trkpt lat="45.06877" lon="4.11657">
        <ele>1224</ele>
        <time>2026-04-26T06:04:23Z</time>
      </trkpt>
      <trkpt lat="45.06879" lon="4.11647">
        <ele>1223.5</ele>
        <time>2026-04-26T06:04:28Z</time>
      </trkpt>
      <trkpt lat="45.06882" lon="4.11639">
        <ele>1223.6</ele>
        <time>2026-04-26T06:04:33Z</time>
      </trkpt>
      <trkpt lat="45.06884" lon="4.1163">
        <ele>1223.2</ele>
        <time>2026-04-26T06:04:38Z</time>
      </trkpt>
      <trkpt lat="45.06885" lon="4.11623">
        <ele>1222.7</ele>
        <time>2026-04-26T06:04:43Z</time>
      </trkpt>
      <trkpt lat="45.06887" lon="4.1162">
        <ele>1223.1</ele>
        <time>2026-04-26T06:04:48Z</time>
      </trkpt>
      <trkpt lat="45.06889" lon="4.11618">
        <ele>1223.5</ele>
        <time>2026-04-26T06:04:53Z</time>
      </trkpt>
      <trkpt lat="45.06889" lon="4.11609">
        <ele>1222.5</ele>
        <time>2026-04-26T06:04:58Z</time>
      </trkpt>
      <trkpt lat="45.0689" lon="4.116">
        <ele>1221.7</ele>
        <time>2026-04-26T06:05:03Z</time>
      </trkpt>
      <trkpt lat="45.06889" lon="4.1159">
        <ele>1220.2</ele>
        <time>2026-04-26T06:05:08Z</time>
      </trkpt>
      <trkpt lat="45.0689" lon="4.11579">
        <ele>1219.1</ele>
        <time>2026-04-26T06:05:13Z</time>
      </trkpt>
      <trkpt lat="45.06891" lon="4.11569">
        <ele>1218.2</ele>
        <time>2026-04-26T06:05:18Z</time>
      </trkpt>
      <trkpt lat="45.06891" lon="4.1156">
        <ele>1217</ele>
        <time>2026-04-26T06:05:23Z</time>
      </trkpt>
      <trkpt lat="45.06891" lon="4.1155">
        <ele>1215.6</ele>
        <time>2026-04-26T06:05:28Z</time>
      </trkpt>
      <trkpt lat="45.0689" lon="4.11541">
        <ele>1214.1</ele>
        <time>2026-04-26T06:05:33Z</time>
      </trkpt>
      <trkpt lat="45.0689" lon="4.11532">
        <ele>1212.9</ele>
        <time>2026-04-26T06:05:38Z</time>
      </trkpt>
      <trkpt lat="45.06891" lon="4.11522">
        <ele>1211.9</ele>
        <time>2026-04-26T06:05:43Z</time>
      </trkpt>
      <trkpt lat="45.06891" lon="4.1151">
        <ele>1210.3</ele>
        <time>2026-04-26T06:05:48Z</time>
      </trkpt>
      <trkpt lat="45.06891" lon="4.115">
        <ele>1209</ele>
        <time>2026-04-26T06:05:53Z</time>
      </trkpt>
      <trkpt lat="45.06892" lon="4.1149">
        <ele>1208.3</ele>
        <time>2026-04-26T06:05:58Z</time>
      </trkpt>
      <trkpt lat="45.06892" lon="4.11481">
        <ele>1207.5</ele>
        <time>2026-04-26T06:06:03Z</time>
      </trkpt>
      <trkpt lat="45.06893" lon="4.11472">
        <ele>1206.9</ele>
        <time>2026-04-26T06:06:08Z</time>
      </trkpt>
      <trkpt lat="45.06892" lon="4.11461">
        <ele>1205.6</ele>
        <time>2026-04-26T06:06:13Z</time>
      </trkpt>
      <trkpt lat="45.06891" lon="4.11451">
        <ele>1204.3</ele>
        <time>2026-04-26T06:06:18Z</time>
      </trkpt>
      <trkpt lat="45.06891" lon="4.11439">
        <ele>1203.1</ele>
        <time>2026-04-26T06:06:23Z</time>
      </trkpt>
      <trkpt lat="45.06892" lon="4.11426">
        <ele>1202.2</ele>
        <time>2026-04-26T06:06:28Z</time>
      </trkpt>
      <trkpt lat="45.06894" lon="4.11414">
        <ele>1201.7</ele>
        <time>2026-04-26T06:06:33Z</time>
      </trkpt>
      <trkpt lat="45.06897" lon="4.11405">
        <ele>1201.9</ele>
        <time>2026-04-26T06:06:38Z</time>
      </trkpt>
      <trkpt lat="45.06902" lon="4.11396">
        <ele>1202.7</ele>
        <time>2026-04-26T06:06:43Z</time>
      </trkpt>
      <trkpt lat="45.06907" lon="4.11388">
        <ele>1203.6</ele>
        <time>2026-04-26T06:06:48Z</time>
      </trkpt>
      <trkpt lat="45.06912" lon="4.11379">
        <ele>1204.4</ele>
        <time>2026-04-26T06:06:53Z</time>
      </trkpt>
      <trkpt lat="45.06916" lon="4.11371">
        <ele>1205</ele>
        <time>2026-04-26T06:06:58Z</time>
      </trkpt>
      <trkpt lat="45.0692" lon="4.11362">
        <ele>1205.6</ele>
        <time>2026-04-26T06:07:03Z</time>
      </trkpt>
      <trkpt lat="45.06923" lon="4.11353">
        <ele>1205.8</ele>
        <time>2026-04-26T06:07:08Z</time>
      </trkpt>
      <trkpt lat="45.06927" lon="4.11344">
        <ele>1206.4</ele>
        <time>2026-04-26T06:07:13Z</time>
      </trkpt>
      <trkpt lat="45.06931" lon="4.11334">
        <ele>1206.7</ele>
        <time>2026-04-26T06:07:18Z</time>
      </trkpt>
      <trkpt lat="45.06934" lon="4.11325">
        <ele>1207.2</ele>
        <time>2026-04-26T06:07:23Z</time>
      </trkpt>
      <trkpt lat="45.06938" lon="4.11315">
        <ele>1208</ele>
        <time>2026-04-26T06:07:28Z</time>
      </trkpt>
      <trkpt lat="45.0694" lon="4.11305">
        <ele>1208</ele>
        <time>2026-04-26T06:07:33Z</time>
      </trkpt>
      <trkpt lat="45.06943" lon="4.11294">
        <ele>1208.2</ele>
        <time>2026-04-26T06:07:38Z</time>
      </trkpt>
      <trkpt lat="45.06947" lon="4.11284">
        <ele>1208.7</ele>
        <time>2026-04-26T06:07:43Z</time>
      </trkpt>
      <trkpt lat="45.06948" lon="4.11274">
        <ele>1208.3</ele>
        <time>2026-04-26T06:07:48Z</time>
      </trkpt>
      <trkpt lat="45.06949" lon="4.11263">
        <ele>1207.8</ele>
        <time>2026-04-26T06:07:53Z</time>
      </trkpt>
      <trkpt lat="45.06951" lon="4.11253">
        <ele>1207.6</ele>
        <time>2026-04-26T06:07:58Z</time>
      </trkpt>
      <trkpt lat="45.06953" lon="4.11243">
        <ele>1207.8</ele>
        <time>2026-04-26T06:08:03Z</time>
      </trkpt>
      <trkpt lat="45.06955" lon="4.11234">
        <ele>1208.1</ele>
        <time>2026-04-26T06:08:08Z</time>
      </trkpt>
      <trkpt lat="45.06955" lon="4.11234">
        <ele>1208.1</ele>
        <time>2026-04-26T06:08:13Z</time>
      </trkpt>
      <trkpt lat="45.06955" lon="4.11234">
        <ele>1208.1</ele>
        <time>2026-04-26T06:08:18Z</time>
      </trkpt>
      <trkpt lat="45.06955" lon="4.11234">
        <ele>1208.1</ele>
        <time>2026-04-26T06:08:23Z</time>
      </trkpt>
      <trkpt lat="45.06955" lon="4.11234">
        <ele>1208.1</ele>
        <time>2026-04-26T06:08:28Z</time>
      </trkpt>
      <trkpt lat="45.06955" lon="4.11234">
        <ele>1208.1</ele>
        <time>2026-04-26T06:08:33Z</time>
      </trkpt>
      <trkpt lat="45.06955" lon="4.11234">
        <ele>1208.1</ele>
        <time>2026-04-26T06:08:38Z</time>
      </trkpt>
      <trkpt lat="45.06955" lon="4.11234">
        <ele>1208.1</ele>
        <time>2026-04-26T06:08:43Z</time>
      </trkpt>
      <trkpt lat="45.06955" lon="4.11234">
        <ele>1208.1</ele>
        <time>2026-04-26T06:08:48Z</time>
      </trkpt>
      <trkpt lat="45.06952" lon="4.11221">
        <ele>1207.4</ele>
        <time>2026-04-26T06:08:53Z</time>
      </trkpt>
      <trkpt lat="45.06954" lon="4.11213">
        <ele>1207.7</ele>
        <time>2026-04-26T06:08:58Z</time>
      </trkpt>
      <trkpt lat="45.06954" lon="4.11202">
        <ele>1207.6</ele>
        <time>2026-04-26T06:09:03Z</time>
      </trkpt>
      <trkpt lat="45.06953" lon="4.11191">
        <ele>1207.3</ele>
        <time>2026-04-26T06:09:08Z</time>
      </trkpt>
      <trkpt lat="45.06952" lon="4.11181">
        <ele>1207.1</ele>
        <time>2026-04-26T06:09:13Z</time>
      </trkpt>
      <trkpt lat="45.06952" lon="4.11169">
        <ele>1207</ele>
        <time>2026-04-26T06:09:18Z</time>
      </trkpt>
      <trkpt lat="45.06951" lon="4.11159">
        <ele>1207.3</ele>
        <time>2026-04-26T06:09:23Z</time>
      </trkpt>
      <trkpt lat="45.0695" lon="4.11148">
        <ele>1207.9</ele>
        <time>2026-04-26T06:09:28Z</time>
      </trkpt>
      <trkpt lat="45.06949" lon="4.11137">
        <ele>1208.6</ele>
        <time>2026-04-26T06:09:33Z</time>
      </trkpt>
      <trkpt lat="45.06947" lon="4.11126">
        <ele>1209.2</ele>
        <time>2026-04-26T06:09:38Z</time>
      </trkpt>
      <trkpt lat="45.06946" lon="4.11115">
        <ele>1209.9</ele>
        <time>2026-04-26T06:09:43Z</time>
      </trkpt>
      <trkpt lat="45.06944" lon="4.11104">
        <ele>1210.6</ele>
        <time>2026-04-26T06:09:48Z</time>
      </trkpt>
      <trkpt lat="45.06944" lon="4.11094">
        <ele>1211.5</ele>
        <time>2026-04-26T06:09:53Z</time>
      </trkpt>
      <trkpt lat="45.06943" lon="4.11082">
        <ele>1212.3</ele>
        <time>2026-04-26T06:09:58Z</time>
      </trkpt>
      <trkpt lat="45.06944" lon="4.11072">
        <ele>1212.5</ele>
        <time>2026-04-26T06:10:03Z</time>
      </trkpt>
      <trkpt lat="45.06946" lon="4.11062">
        <ele>1212.8</ele>
        <time>2026-04-26T06:10:08Z</time>
      </trkpt>
      <trkpt lat="45.0695" lon="4.11051">
        <ele>1213.1</ele>
        <time>2026-04-26T06:10:13Z</time>
      </trkpt>
      <trkpt lat="45.06954" lon="4.11043">
        <ele>1213.4</ele>
        <time>2026-04-26T06:10:18Z</time>
      </trkpt>
      <trkpt lat="45.06959" lon="4.11035">
        <ele>1213.6</ele>
        <time>2026-04-26T06:10:23Z</time>
      </trkpt>
      <trkpt lat="45.06963" lon="4.11027">
        <ele>1213.7</ele>
        <time>2026-04-26T06:10:28Z</time>
      </trkpt>
      <trkpt lat="45.06963" lon="4.11023">
        <ele>1213.8</ele>
        <time>2026-04-26T06:10:33Z</time>
      </trkpt>
      <trkpt lat="45.06964" lon="4.11022">
        <ele>1213.8</ele>
        <time>2026-04-26T06:10:38Z</time>
      </trkpt>
      <trkpt lat="45.06964" lon="4.11022">
        <ele>1213.8</ele>
        <time>2026-04-26T06:10:43Z</time>
      </trkpt>
      <trkpt lat="45.06964" lon="4.11022">
        <ele>1213.8</ele>
        <time>2026-04-26T06:10:48Z</time>
      </trkpt>
      <trkpt lat="45.06964" lon="4.11022">
        <ele>1213.8</ele>
        <time>2026-04-26T06:10:53Z</time>
      </trkpt>
      <trkpt lat="45.06964" lon="4.11022">
        <ele>1213.8</ele>
        <time>2026-04-26T06:10:58Z</time>
      </trkpt>
      <trkpt lat="45.06964" lon="4.11022">
        <ele>1213.8</ele>
        <time>2026-04-26T06:11:03Z</time>
      </trkpt>
      <trkpt lat="45.0696" lon="4.11021">
        <ele>1213.8</ele>
        <time>2026-04-26T06:11:08Z</time>
      </trkpt>
      <trkpt lat="45.0695" lon="4.11021">
        <ele>1213.6</ele>
        <time>2026-04-26T06:11:13Z</time>
      </trkpt>
      <trkpt lat="45.06944" lon="4.11018">
        <ele>1213.6</ele>
        <time>2026-04-26T06:11:18Z</time>
      </trkpt>
      <trkpt lat="45.06938" lon="4.11014">
        <ele>1213.7</ele>
        <time>2026-04-26T06:11:23Z</time>
      </trkpt>
      <trkpt lat="45.06934" lon="4.11011">
        <ele>1213.7</ele>
        <time>2026-04-26T06:11:28Z</time>
      </trkpt>
      <trkpt lat="45.06932" lon="4.11005">
        <ele>1213.9</ele>
        <time>2026-04-26T06:11:33Z</time>
      </trkpt>
      <trkpt lat="45.06929" lon="4.10994">
        <ele>1212.9</ele>
        <time>2026-04-26T06:11:38Z</time>
      </trkpt>
      <trkpt lat="45.06926" lon="4.10987">
        <ele>1211.6</ele>
        <time>2026-04-26T06:11:43Z</time>
      </trkpt>
      <trkpt lat="45.06924" lon="4.10979">
        <ele>1210.1</ele>
        <time>2026-04-26T06:11:48Z</time>
      </trkpt>
      <trkpt lat="45.06921" lon="4.10971">
        <ele>1208.5</ele>
        <time>2026-04-26T06:11:53Z</time>
      </trkpt>
      <trkpt lat="45.06917" lon="4.10966">
        <ele>1207.5</ele>
        <time>2026-04-26T06:11:58Z</time>
      </trkpt>
      <trkpt lat="45.06913" lon="4.10958">
        <ele>1204.5</ele>
        <time>2026-04-26T06:12:03Z</time>
      </trkpt>
      <trkpt lat="45.0691" lon="4.10948">
        <ele>1201.5</ele>
        <time>2026-04-26T06:12:08Z</time>
      </trkpt>
      <trkpt lat="45.06907" lon="4.10938">
        <ele>1198.6</ele>
        <time>2026-04-26T06:12:13Z</time>
      </trkpt>
      <trkpt lat="45.06903" lon="4.10928">
        <ele>1195.4</ele>
        <time>2026-04-26T06:12:18Z</time>
      </trkpt>
      <trkpt lat="45.06899" lon="4.10917">
        <ele>1192.1</ele>
        <time>2026-04-26T06:12:23Z</time>
      </trkpt>
      <trkpt lat="45.06896" lon="4.10905">
        <ele>1189.7</ele>
        <time>2026-04-26T06:12:28Z</time>
      </trkpt>
      <trkpt lat="45.06898" lon="4.10893">
        <ele>1188.9</ele>
        <time>2026-04-26T06:12:33Z</time>
      </trkpt>
      <trkpt lat="45.06903" lon="4.10887">
        <ele>1189.8</ele>
        <time>2026-04-26T06:12:38Z</time>
      </trkpt>
      <trkpt lat="45.06909" lon="4.10878">
        <ele>1190.5</ele>
        <time>2026-04-26T06:12:43Z</time>
      </trkpt>
      <trkpt lat="45.0691" lon="4.10869">
        <ele>1189.7</ele>
        <time>2026-04-26T06:12:48Z</time>
      </trkpt>
      <trkpt lat="45.0691" lon="4.1086">
        <ele>1188.6</ele>
        <time>2026-04-26T06:12:53Z</time>
      </trkpt>
      <trkpt lat="45.06911" lon="4.10853">
        <ele>1188</ele>
        <time>2026-04-26T06:12:58Z</time>
      </trkpt>
      <trkpt lat="45.06912" lon="4.10845">
        <ele>1187.2</ele>
        <time>2026-04-26T06:13:03Z</time>
      </trkpt>
      <trkpt lat="45.06913" lon="4.10838">
        <ele>1186.6</ele>
        <time>2026-04-26T06:13:08Z</time>
      </trkpt>
      <trkpt lat="45.06914" lon="4.10832">
        <ele>1186.1</ele>
        <time>2026-04-26T06:13:13Z</time>
      </trkpt>
      <trkpt lat="45.06914" lon="4.10825">
        <ele>1185.1</ele>
        <time>2026-04-26T06:13:18Z</time>
      </trkpt>
      <trkpt lat="45.06914" lon="4.10818">
        <ele>1184.1</ele>
        <time>2026-04-26T06:13:23Z</time>
      </trkpt>
      <trkpt lat="45.06914" lon="4.10812">
        <ele>1183.2</ele>
        <time>2026-04-26T06:13:28Z</time>
      </trkpt>
      <trkpt lat="45.06915" lon="4.10804">
        <ele>1182.4</ele>
        <time>2026-04-26T06:13:33Z</time>
      </trkpt>
      <trkpt lat="45.06917" lon="4.10797">
        <ele>1181.8</ele>
        <time>2026-04-26T06:13:38Z</time>
      </trkpt>
      <trkpt lat="45.06917" lon="4.10788">
        <ele>1180.5</ele>
        <time>2026-04-26T06:13:43Z</time>
      </trkpt>
      <trkpt lat="45.06919" lon="4.10779">
        <ele>1179.5</ele>
        <time>2026-04-26T06:13:48Z</time>
      </trkpt>
      <trkpt lat="45.06922" lon="4.10771">
        <ele>1178.7</ele>
        <time>2026-04-26T06:13:53Z</time>
      </trkpt>
      <trkpt lat="45.06923" lon="4.10765">
        <ele>1178</ele>
        <time>2026-04-26T06:13:58Z</time>
      </trkpt>
      <trkpt lat="45.06924" lon="4.10757">
        <ele>1177</ele>
        <time>2026-04-26T06:14:03Z</time>
      </trkpt>
      <trkpt lat="45.06926" lon="4.10751">
        <ele>1176.5</ele>
        <time>2026-04-26T06:14:08Z</time>
      </trkpt>
      <trkpt lat="45.06928" lon="4.10744">
        <ele>1175.6</ele>
        <time>2026-04-26T06:14:13Z</time>
      </trkpt>
      <trkpt lat="45.06929" lon="4.10736">
        <ele>1174.5</ele>
        <time>2026-04-26T06:14:18Z</time>
      </trkpt>
      <trkpt lat="45.06931" lon="4.10728">
        <ele>1173.5</ele>
        <time>2026-04-26T06:14:23Z</time>
      </trkpt>
      <trkpt lat="45.06934" lon="4.10717">
        <ele>1172.1</ele>
        <time>2026-04-26T06:14:28Z</time>
      </trkpt>
      <trkpt lat="45.06936" lon="4.10707">
        <ele>1170.8</ele>
        <time>2026-04-26T06:14:33Z</time>
      </trkpt>
      <trkpt lat="45.06938" lon="4.107">
        <ele>1170</ele>
        <time>2026-04-26T06:14:38Z</time>
      </trkpt>
      <trkpt lat="45.0694" lon="4.10692">
        <ele>1169</ele>
        <time>2026-04-26T06:14:43Z</time>
      </trkpt>
      <trkpt lat="45.06943" lon="4.10682">
        <ele>1167.9</ele>
        <time>2026-04-26T06:14:48Z</time>
      </trkpt>
      <trkpt lat="45.06944" lon="4.10673">
        <ele>1166.6</ele>
        <time>2026-04-26T06:14:53Z</time>
      </trkpt>
      <trkpt lat="45.06946" lon="4.10665">
        <ele>1165.8</ele>
        <time>2026-04-26T06:14:58Z</time>
      </trkpt>
      <trkpt lat="45.06948" lon="4.10655">
        <ele>1165.1</ele>
        <time>2026-04-26T06:15:03Z</time>
      </trkpt>
      <trkpt lat="45.0695" lon="4.10647">
        <ele>1164.7</ele>
        <time>2026-04-26T06:15:08Z</time>
      </trkpt>
      <trkpt lat="45.06952" lon="4.10639">
        <ele>1164.3</ele>
        <time>2026-04-26T06:15:13Z</time>
      </trkpt>
      <trkpt lat="45.06956" lon="4.10631">
        <ele>1164.2</ele>
        <time>2026-04-26T06:15:18Z</time>
      </trkpt>
      <trkpt lat="45.06962" lon="4.10627">
        <ele>1164.8</ele>
        <time>2026-04-26T06:15:23Z</time>
      </trkpt>
      <trkpt lat="45.06968" lon="4.10622">
        <ele>1165.3</ele>
        <time>2026-04-26T06:15:28Z</time>
      </trkpt>
      <trkpt lat="45.06974" lon="4.1062">
        <ele>1166.2</ele>
        <time>2026-04-26T06:15:33Z</time>
      </trkpt>
      <trkpt lat="45.0698" lon="4.10618">
        <ele>1167</ele>
        <time>2026-04-26T06:15:38Z</time>
      </trkpt>
      <trkpt lat="45.06987" lon="4.10615">
        <ele>1167.9</ele>
        <time>2026-04-26T06:15:43Z</time>
      </trkpt>
      <trkpt lat="45.06991" lon="4.10611">
        <ele>1168.1</ele>
        <time>2026-04-26T06:15:48Z</time>
      </trkpt>
      <trkpt lat="45.06992" lon="4.10608">
        <ele>1168</ele>
        <time>2026-04-26T06:15:53Z</time>
      </trkpt>
      <trkpt lat="45.06992" lon="4.10607">
        <ele>1167.9</ele>
        <time>2026-04-26T06:15:58Z</time>
      </trkpt>
      <trkpt lat="45.06992" lon="4.10607">
        <ele>1167.9</ele>
        <time>2026-04-26T06:16:03Z</time>
      </trkpt>
      <trkpt lat="45.06992" lon="4.10607">
        <ele>1167.9</ele>
        <time>2026-04-26T06:16:08Z</time>
      </trkpt>
      <trkpt lat="45.06992" lon="4.10607">
        <ele>1167.9</ele>
        <time>2026-04-26T06:16:13Z</time>
      </trkpt>
      <trkpt lat="45.06992" lon="4.10607">
        <ele>1167.9</ele>
        <time>2026-04-26T06:16:18Z</time>
      </trkpt>
      <trkpt lat="45.06992" lon="4.10607">
        <ele>1167.9</ele>
        <time>2026-04-26T06:16:23Z</time>
      </trkpt>
      <trkpt lat="45.06992" lon="4.10607">
        <ele>1167.9</ele>
        <time>2026-04-26T06:16:28Z</time>
      </trkpt>
      <trkpt lat="45.06992" lon="4.10607">
        <ele>1167.9</ele>
        <time>2026-04-26T06:16:33Z</time>
      </trkpt>
      <trkpt lat="45.06992" lon="4.10607">
        <ele>1167.9</ele>
        <time>2026-04-26T06:16:38Z</time>
      </trkpt>
      <trkpt lat="45.06992" lon="4.10607">
        <ele>1167.9</ele>
        <time>2026-04-26T06:16:43Z</time>
      </trkpt>
      <trkpt lat="45.06992" lon="4.10607">
        <ele>1167.9</ele>
        <time>2026-04-26T06:16:48Z</time>
      </trkpt>
      <trkpt lat="45.06992" lon="4.10607">
        <ele>1167.9</ele>
        <time>2026-04-26T06:16:53Z</time>
      </trkpt>
      <trkpt lat="45.06997" lon="4.10605">
        <ele>1168.6</ele>
        <time>2026-04-26T06:16:58Z</time>
      </trkpt>
      <trkpt lat="45.07003" lon="4.10606">
        <ele>1169.3</ele>
        <time>2026-04-26T06:17:03Z</time>
      </trkpt>
      <trkpt lat="45.0701" lon="4.10602">
        <ele>1169.3</ele>
        <time>2026-04-26T06:17:08Z</time>
      </trkpt>
      <trkpt lat="45.07013" lon="4.10596">
        <ele>1168.9</ele>
        <time>2026-04-26T06:17:13Z</time>
      </trkpt>
      <trkpt lat="45.07017" lon="4.1059">
        <ele>1168.5</ele>
        <time>2026-04-26T06:17:18Z</time>
      </trkpt>
      <trkpt lat="45.07021" lon="4.10583">
        <ele>1168</ele>
        <time>2026-04-26T06:17:23Z</time>
      </trkpt>
      <trkpt lat="45.07025" lon="4.10575">
        <ele>1167.6</ele>
        <time>2026-04-26T06:17:28Z</time>
      </trkpt>
      <trkpt lat="45.07029" lon="4.10568">
        <ele>1167.3</ele>
        <time>2026-04-26T06:17:33Z</time>
      </trkpt>
      <trkpt lat="45.07033" lon="4.1056">
        <ele>1166.9</ele>
        <time>2026-04-26T06:17:38Z</time>
      </trkpt>
      <trkpt lat="45.07038" lon="4.10553">
        <ele>1166.6</ele>
        <time>2026-04-26T06:17:43Z</time>
      </trkpt>
      <trkpt lat="45.07041" lon="4.10546">
        <ele>1166.3</ele>
        <time>2026-04-26T06:17:48Z</time>
      </trkpt>
      <trkpt lat="45.07045" lon="4.10539">
        <ele>1166</ele>
        <time>2026-04-26T06:17:53Z</time>
      </trkpt>
      <trkpt lat="45.07049" lon="4.10533">
        <ele>1165.7</ele>
        <time>2026-04-26T06:17:58Z</time>
      </trkpt>
      <trkpt lat="45.07055" lon="4.10527">
        <ele>1165.6</ele>
        <time>2026-04-26T06:18:03Z</time>
      </trkpt>
      <trkpt lat="45.07061" lon="4.10522">
        <ele>1165.5</ele>
        <time>2026-04-26T06:18:08Z</time>
      </trkpt>
      <trkpt lat="45.07065" lon="4.10513">
        <ele>1165.1</ele>
        <time>2026-04-26T06:18:13Z</time>
      </trkpt>
      <trkpt lat="45.07069" lon="4.10504">
        <ele>1164.6</ele>
        <time>2026-04-26T06:18:18Z</time>
      </trkpt>
      <trkpt lat="45.07075" lon="4.10499">
        <ele>1164.5</ele>
        <time>2026-04-26T06:18:23Z</time>
      </trkpt>
      <trkpt lat="45.07078" lon="4.10493">
        <ele>1164.2</ele>
        <time>2026-04-26T06:18:28Z</time>
      </trkpt>
      <trkpt lat="45.07079" lon="4.10482">
        <ele>1163.3</ele>
        <time>2026-04-26T06:18:33Z</time>
      </trkpt>
      <trkpt lat="45.07081" lon="4.10474">
        <ele>1162.7</ele>
        <time>2026-04-26T06:18:38Z</time>
      </trkpt>
      <trkpt lat="45.07083" lon="4.10466">
        <ele>1162.1</ele>
        <time>2026-04-26T06:18:43Z</time>
      </trkpt>
      <trkpt lat="45.07086" lon="4.10457">
        <ele>1161.3</ele>
        <time>2026-04-26T06:18:48Z</time>
      </trkpt>
      <trkpt lat="45.07087" lon="4.10447">
        <ele>1160.5</ele>
        <time>2026-04-26T06:18:53Z</time>
      </trkpt>
      <trkpt lat="45.07089" lon="4.10437">
        <ele>1159.6</ele>
        <time>2026-04-26T06:18:58Z</time>
      </trkpt>
      <trkpt lat="45.07093" lon="4.10429">
        <ele>1158.8</ele>
        <time>2026-04-26T06:19:03Z</time>
      </trkpt>
      <trkpt lat="45.07096" lon="4.10419">
        <ele>1157.9</ele>
        <time>2026-04-26T06:19:08Z</time>
      </trkpt>
      <trkpt lat="45.071" lon="4.1041">
        <ele>1157.1</ele>
        <time>2026-04-26T06:19:13Z</time>
      </trkpt>
      <trkpt lat="45.07104" lon="4.104">
        <ele>1156.3</ele>
        <time>2026-04-26T06:19:18Z</time>
      </trkpt>
      <trkpt lat="45.07107" lon="4.10392">
        <ele>1155.7</ele>
        <time>2026-04-26T06:19:23Z</time>
      </trkpt>
      <trkpt lat="45.07111" lon="4.10383">
        <ele>1154.9</ele>
        <time>2026-04-26T06:19:28Z</time>
      </trkpt>
      <trkpt lat="45.07116" lon="4.10377">
        <ele>1154.4</ele>
        <time>2026-04-26T06:19:33Z</time>
      </trkpt>
      <trkpt lat="45.0712" lon="4.10369">
        <ele>1153.7</ele>
        <time>2026-04-26T06:19:38Z</time>
      </trkpt>
      <trkpt lat="45.07125" lon="4.1036">
        <ele>1152.9</ele>
        <time>2026-04-26T06:19:43Z</time>
      </trkpt>
      <trkpt lat="45.07133" lon="4.10354">
        <ele>1152.3</ele>
        <time>2026-04-26T06:19:48Z</time>
      </trkpt>
      <trkpt lat="45.07139" lon="4.10345">
        <ele>1151.5</ele>
        <time>2026-04-26T06:19:53Z</time>
      </trkpt>
      <trkpt lat="45.07144" lon="4.10339">
        <ele>1151</ele>
        <time>2026-04-26T06:19:58Z</time>
      </trkpt>
      <trkpt lat="45.07148" lon="4.10331">
        <ele>1150.2</ele>
        <time>2026-04-26T06:20:03Z</time>
      </trkpt>
      <trkpt lat="45.07151" lon="4.10324">
        <ele>1149.6</ele>
        <time>2026-04-26T06:20:08Z</time>
      </trkpt>
      <trkpt lat="45.07153" lon="4.10316">
        <ele>1148.8</ele>
        <time>2026-04-26T06:20:13Z</time>
      </trkpt>
      <trkpt lat="45.07158" lon="4.10307">
        <ele>1148</ele>
        <time>2026-04-26T06:20:18Z</time>
      </trkpt>
      <trkpt lat="45.07161" lon="4.10297">
        <ele>1147.1</ele>
        <time>2026-04-26T06:20:23Z</time>
      </trkpt>
      <trkpt lat="45.07164" lon="4.10288">
        <ele>1146.2</ele>
        <time>2026-04-26T06:20:28Z</time>
      </trkpt>
      <trkpt lat="45.07168" lon="4.10279">
        <ele>1145.5</ele>
        <time>2026-04-26T06:20:33Z</time>
      </trkpt>
      <trkpt lat="45.07171" lon="4.10271">
        <ele>1145.1</ele>
        <time>2026-04-26T06:20:38Z</time>
      </trkpt>
      <trkpt lat="45.07176" lon="4.10261">
        <ele>1144.8</ele>
        <time>2026-04-26T06:20:43Z</time>
      </trkpt>
      <trkpt lat="45.0718" lon="4.10252">
        <ele>1144.4</ele>
        <time>2026-04-26T06:20:48Z</time>
      </trkpt>
      <trkpt lat="45.07181" lon="4.10244">
        <ele>1143.8</ele>
        <time>2026-04-26T06:20:53Z</time>
      </trkpt>
      <trkpt lat="45.07186" lon="4.10234">
        <ele>1143.3</ele>
        <time>2026-04-26T06:20:58Z</time>
      </trkpt>
      <trkpt lat="45.07191" lon="4.10224">
        <ele>1142.8</ele>
        <time>2026-04-26T06:21:03Z</time>
      </trkpt>
      <trkpt lat="45.07196" lon="4.10213">
        <ele>1142.3</ele>
        <time>2026-04-26T06:21:08Z</time>
      </trkpt>
      <trkpt lat="45.07198" lon="4.10204">
        <ele>1141.6</ele>
        <time>2026-04-26T06:21:13Z</time>
      </trkpt>
      <trkpt lat="45.07202" lon="4.10199">
        <ele>1141.5</ele>
        <time>2026-04-26T06:21:18Z</time>
      </trkpt>
      <trkpt lat="45.07207" lon="4.10192">
        <ele>1141.3</ele>
        <time>2026-04-26T06:21:23Z</time>
      </trkpt>
      <trkpt lat="45.07211" lon="4.10184">
        <ele>1140.9</ele>
        <time>2026-04-26T06:21:28Z</time>
      </trkpt>
      <trkpt lat="45.07215" lon="4.10176">
        <ele>1140.5</ele>
        <time>2026-04-26T06:21:33Z</time>
      </trkpt>
      <trkpt lat="45.07223" lon="4.10168">
        <ele>1140.5</ele>
        <time>2026-04-26T06:21:38Z</time>
      </trkpt>
      <trkpt lat="45.07228" lon="4.10161">
        <ele>1140.5</ele>
        <time>2026-04-26T06:21:43Z</time>
      </trkpt>
      <trkpt lat="45.07235" lon="4.10154">
        <ele>1140.7</ele>
        <time>2026-04-26T06:21:48Z</time>
      </trkpt>
      <trkpt lat="45.07242" lon="4.10148">
        <ele>1140.9</ele>
        <time>2026-04-26T06:21:53Z</time>
      </trkpt>
      <trkpt lat="45.07248" lon="4.10142">
        <ele>1141</ele>
        <time>2026-04-26T06:21:58Z</time>
      </trkpt>
      <trkpt lat="45.07255" lon="4.10135">
        <ele>1141.2</ele>
        <time>2026-04-26T06:22:03Z</time>
      </trkpt>
      <trkpt lat="45.07259" lon="4.10129">
        <ele>1141.2</ele>
        <time>2026-04-26T06:22:08Z</time>
      </trkpt>
      <trkpt lat="45.07263" lon="4.10122">
        <ele>1141.2</ele>
        <time>2026-04-26T06:22:13Z</time>
      </trkpt>
      <trkpt lat="45.07266" lon="4.10115">
        <ele>1141.1</ele>
        <time>2026-04-26T06:22:18Z</time>
      </trkpt>
      <trkpt lat="45.07265" lon="4.10109">
        <ele>1140.5</ele>
        <time>2026-04-26T06:22:23Z</time>
      </trkpt>
      <trkpt lat="45.07258" lon="4.10108">
        <ele>1139.7</ele>
        <time>2026-04-26T06:22:28Z</time>
      </trkpt>
      <trkpt lat="45.07249" lon="4.10113">
        <ele>1139.1</ele>
        <time>2026-04-26T06:22:33Z</time>
      </trkpt>
      <trkpt lat="45.0724" lon="4.10115">
        <ele>1138.5</ele>
        <time>2026-04-26T06:22:38Z</time>
      </trkpt>
      <trkpt lat="45.07234" lon="4.10118">
        <ele>1138.2</ele>
        <time>2026-04-26T06:22:43Z</time>
      </trkpt>
      <trkpt lat="45.07228" lon="4.10119">
        <ele>1137.8</ele>
        <time>2026-04-26T06:22:48Z</time>
      </trkpt>
      <trkpt lat="45.07222" lon="4.10121">
        <ele>1137.4</ele>
        <time>2026-04-26T06:22:53Z</time>
      </trkpt>
      <trkpt lat="45.07215" lon="4.10122">
        <ele>1136.9</ele>
        <time>2026-04-26T06:22:58Z</time>
      </trkpt>
      <trkpt lat="45.07207" lon="4.10123">
        <ele>1136.3</ele>
        <time>2026-04-26T06:23:03Z</time>
      </trkpt>
      <trkpt lat="45.07201" lon="4.10124">
        <ele>1135.8</ele>
        <time>2026-04-26T06:23:08Z</time>
      </trkpt>
      <trkpt lat="45.07193" lon="4.10125">
        <ele>1135.2</ele>
        <time>2026-04-26T06:23:13Z</time>
      </trkpt>
      <trkpt lat="45.07185" lon="4.10125">
        <ele>1134.5</ele>
        <time>2026-04-26T06:23:18Z</time>
      </trkpt>
      <trkpt lat="45.07178" lon="4.10126">
        <ele>1134</ele>
        <time>2026-04-26T06:23:23Z</time>
      </trkpt>
      <trkpt lat="45.07173" lon="4.10125">
        <ele>1133.5</ele>
        <time>2026-04-26T06:23:28Z</time>
      </trkpt>
      <trkpt lat="45.07172" lon="4.10123">
        <ele>1133.3</ele>
        <time>2026-04-26T06:23:33Z</time>
      </trkpt>
      <trkpt lat="45.07171" lon="4.10123">
        <ele>1133.3</ele>
        <time>2026-04-26T06:23:38Z</time>
      </trkpt>
      <trkpt lat="45.07168" lon="4.10123">
        <ele>1133</ele>
        <time>2026-04-26T06:23:43Z</time>
      </trkpt>
      <trkpt lat="45.0716" lon="4.10126">
        <ele>1132.9</ele>
        <time>2026-04-26T06:23:48Z</time>
      </trkpt>
      <trkpt lat="45.07153" lon="4.10128">
        <ele>1132.9</ele>
        <time>2026-04-26T06:23:53Z</time>
      </trkpt>
      <trkpt lat="45.07153" lon="4.10128">
        <ele>1132.9</ele>
        <time>2026-04-26T06:23:58Z</time>
      </trkpt>
      <trkpt lat="45.07153" lon="4.10128">
        <ele>1132.9</ele>
        <time>2026-04-26T06:24:03Z</time>
      </trkpt>
      <trkpt lat="45.07153" lon="4.10128">
        <ele>1132.9</ele>
        <time>2026-04-26T06:24:08Z</time>
      </trkpt>
      <trkpt lat="45.07145" lon="4.10131">
        <ele>1132.9</ele>
        <time>2026-04-26T06:24:13Z</time>
      </trkpt>
      <trkpt lat="45.07138" lon="4.10141">
        <ele>1133.5</ele>
        <time>2026-04-26T06:24:18Z</time>
      </trkpt>
      <trkpt lat="45.07133" lon="4.10148">
        <ele>1134</ele>
        <time>2026-04-26T06:24:23Z</time>
      </trkpt>
      <trkpt lat="45.07128" lon="4.10157">
        <ele>1134.7</ele>
        <time>2026-04-26T06:24:28Z</time>
      </trkpt>
      <trkpt lat="45.07123" lon="4.10163">
        <ele>1135.2</ele>
        <time>2026-04-26T06:24:33Z</time>
      </trkpt>
      <trkpt lat="45.07117" lon="4.10172">
        <ele>1136.1</ele>
        <time>2026-04-26T06:24:38Z</time>
      </trkpt>
      <trkpt lat="45.07112" lon="4.10181">
        <ele>1137</ele>
        <time>2026-04-26T06:24:43Z</time>
      </trkpt>
      <trkpt lat="45.07106" lon="4.10188">
        <ele>1137.8</ele>
        <time>2026-04-26T06:24:48Z</time>
      </trkpt>
      <trkpt lat="45.071" lon="4.10195">
        <ele>1138.5</ele>
        <time>2026-04-26T06:24:53Z</time>
      </trkpt>
      <trkpt lat="45.07095" lon="4.10203">
        <ele>1139.3</ele>
        <time>2026-04-26T06:24:58Z</time>
      </trkpt>
      <trkpt lat="45.0709" lon="4.1021">
        <ele>1140.1</ele>
        <time>2026-04-26T06:25:03Z</time>
      </trkpt>
      <trkpt lat="45.07083" lon="4.10215">
        <ele>1140.7</ele>
        <time>2026-04-26T06:25:08Z</time>
      </trkpt>
      <trkpt lat="45.07075" lon="4.1022">
        <ele>1141.6</ele>
        <time>2026-04-26T06:25:13Z</time>
      </trkpt>
      <trkpt lat="45.07068" lon="4.10222">
        <ele>1142.3</ele>
        <time>2026-04-26T06:25:18Z</time>
      </trkpt>
      <trkpt lat="45.0706" lon="4.10221">
        <ele>1142.7</ele>
        <time>2026-04-26T06:25:23Z</time>
      </trkpt>
      <trkpt lat="45.07051" lon="4.10219">
        <ele>1143.1</ele>
        <time>2026-04-26T06:25:28Z</time>
      </trkpt>
      <trkpt lat="45.07044" lon="4.10217">
        <ele>1143.3</ele>
        <time>2026-04-26T06:25:33Z</time>
      </trkpt>
      <trkpt lat="45.07037" lon="4.10216">
        <ele>1143.6</ele>
        <time>2026-04-26T06:25:38Z</time>
      </trkpt>
      <trkpt lat="45.07031" lon="4.10215">
        <ele>1143.9</ele>
        <time>2026-04-26T06:25:43Z</time>
      </trkpt>
      <trkpt lat="45.07023" lon="4.10213">
        <ele>1144.1</ele>
        <time>2026-04-26T06:25:48Z</time>
      </trkpt>
      <trkpt lat="45.07016" lon="4.10208">
        <ele>1144</ele>
        <time>2026-04-26T06:25:53Z</time>
      </trkpt>
      <trkpt lat="45.07008" lon="4.10206">
        <ele>1144.2</ele>
        <time>2026-04-26T06:25:58Z</time>
      </trkpt>
      <trkpt lat="45.07" lon="4.10201">
        <ele>1144.1</ele>
        <time>2026-04-26T06:26:03Z</time>
      </trkpt>
      <trkpt lat="45.06994" lon="4.10197">
        <ele>1143.4</ele>
        <time>2026-04-26T06:26:08Z</time>
      </trkpt>
      <trkpt lat="45.06986" lon="4.10192">
        <ele>1142.5</ele>
        <time>2026-04-26T06:26:13Z</time>
      </trkpt>
      <trkpt lat="45.06978" lon="4.10188">
        <ele>1141.7</ele>
        <time>2026-04-26T06:26:18Z</time>
      </trkpt>
      <trkpt lat="45.0697" lon="4.10184">
        <ele>1140.9</ele>
        <time>2026-04-26T06:26:23Z</time>
      </trkpt>
      <trkpt lat="45.06962" lon="4.10181">
        <ele>1140.3</ele>
        <time>2026-04-26T06:26:28Z</time>
      </trkpt>
      <trkpt lat="45.06954" lon="4.10179">
        <ele>1139.7</ele>
        <time>2026-04-26T06:26:33Z</time>
      </trkpt>
      <trkpt lat="45.06946" lon="4.10176">
        <ele>1139.1</ele>
        <time>2026-04-26T06:26:38Z</time>
      </trkpt>
      <trkpt lat="45.06939" lon="4.10174">
        <ele>1138.6</ele>
        <time>2026-04-26T06:26:43Z</time>
      </trkpt>
      <trkpt lat="45.06932" lon="4.10171">
        <ele>1138</ele>
        <time>2026-04-26T06:26:48Z</time>
      </trkpt>
      <trkpt lat="45.06925" lon="4.1017">
        <ele>1137.7</ele>
        <time>2026-04-26T06:26:53Z</time>
      </trkpt>
      <trkpt lat="45.06918" lon="4.10169">
        <ele>1137.3</ele>
        <time>2026-04-26T06:26:58Z</time>
      </trkpt>
      <trkpt lat="45.06911" lon="4.10167">
        <ele>1136.6</ele>
        <time>2026-04-26T06:27:03Z</time>
      </trkpt>
      <trkpt lat="45.06902" lon="4.10168">
        <ele>1136.1</ele>
        <time>2026-04-26T06:27:08Z</time>
      </trkpt>
      <trkpt lat="45.06895" lon="4.10167">
        <ele>1135.5</ele>
        <time>2026-04-26T06:27:13Z</time>
      </trkpt>
      <trkpt lat="45.06887" lon="4.10167">
        <ele>1134.9</ele>
        <time>2026-04-26T06:27:18Z</time>
      </trkpt>
      <trkpt lat="45.06879" lon="4.10166">
        <ele>1134.2</ele>
        <time>2026-04-26T06:27:23Z</time>
      </trkpt>
      <trkpt lat="45.06871" lon="4.10167">
        <ele>1133.7</ele>
        <time>2026-04-26T06:27:28Z</time>
      </trkpt>
      <trkpt lat="45.06864" lon="4.10166">
        <ele>1133.1</ele>
        <time>2026-04-26T06:27:33Z</time>
      </trkpt>
      <trkpt lat="45.06856" lon="4.10167">
        <ele>1132.7</ele>
        <time>2026-04-26T06:27:38Z</time>
      </trkpt>
      <trkpt lat="45.06849" lon="4.10168">
        <ele>1132.3</ele>
        <time>2026-04-26T06:27:43Z</time>
      </trkpt>
      <trkpt lat="45.06846" lon="4.10169">
        <ele>1132.1</ele>
        <time>2026-04-26T06:27:48Z</time>
      </trkpt>
      <trkpt lat="45.06846" lon="4.10169">
        <ele>1132.1</ele>
        <time>2026-04-26T06:27:53Z</time>
      </trkpt>
      <trkpt lat="45.06846" lon="4.10169">
        <ele>1132.1</ele>
        <time>2026-04-26T06:27:58Z</time>
      </trkpt>
      <trkpt lat="45.06846" lon="4.10169">
        <ele>1132.1</ele>
        <time>2026-04-26T06:28:03Z</time>
      </trkpt>
      <trkpt lat="45.06846" lon="4.10169">
        <ele>1132.1</ele>
        <time>2026-04-26T06:28:08Z</time>
      </trkpt>
      <trkpt lat="45.06846" lon="4.10169">
        <ele>1132.1</ele>
        <time>2026-04-26T06:28:13Z</time>
      </trkpt>
      <trkpt lat="45.06846" lon="4.10169">
        <ele>1132.1</ele>
        <time>2026-04-26T06:28:18Z</time>
      </trkpt>
      <trkpt lat="45.06846" lon="4.10169">
        <ele>1132.1</ele>
        <time>2026-04-26T06:28:23Z</time>
      </trkpt>
      <trkpt lat="45.06846" lon="4.10169">
        <ele>1132.1</ele>
        <time>2026-04-26T06:28:28Z</time>
      </trkpt>
      <trkpt lat="45.06846" lon="4.10169">
        <ele>1132.1</ele>
        <time>2026-04-26T06:28:33Z</time>
      </trkpt>
      <trkpt lat="45.06843" lon="4.10171">
        <ele>1132.1</ele>
        <time>2026-04-26T06:28:38Z</time>
      </trkpt>
      <trkpt lat="45.06835" lon="4.10173">
        <ele>1131.7</ele>
        <time>2026-04-26T06:28:43Z</time>
      </trkpt>
      <trkpt lat="45.06829" lon="4.10174">
        <ele>1131.3</ele>
        <time>2026-04-26T06:28:48Z</time>
      </trkpt>
      <trkpt lat="45.06821" lon="4.10177">
        <ele>1130.8</ele>
        <time>2026-04-26T06:28:53Z</time>
      </trkpt>
      <trkpt lat="45.06813" lon="4.10179">
        <ele>1130.2</ele>
        <time>2026-04-26T06:28:58Z</time>
      </trkpt>
      <trkpt lat="45.06805" lon="4.10182">
        <ele>1129.7</ele>
        <time>2026-04-26T06:29:03Z</time>
      </trkpt>
      <trkpt lat="45.06797" lon="4.10185">
        <ele>1129.2</ele>
        <time>2026-04-26T06:29:08Z</time>
      </trkpt>
      <trkpt lat="45.06789" lon="4.10188">
        <ele>1128.7</ele>
        <time>2026-04-26T06:29:13Z</time>
      </trkpt>
      <trkpt lat="45.06782" lon="4.10191">
        <ele>1128.2</ele>
        <time>2026-04-26T06:29:18Z</time>
      </trkpt>
      <trkpt lat="45.06774" lon="4.10194">
        <ele>1127.7</ele>
        <time>2026-04-26T06:29:23Z</time>
      </trkpt>
      <trkpt lat="45.06767" lon="4.10197">
        <ele>1127.3</ele>
        <time>2026-04-26T06:29:28Z</time>
      </trkpt>
      <trkpt lat="45.06759" lon="4.10199">
        <ele>1126.6</ele>
        <time>2026-04-26T06:29:33Z</time>
      </trkpt>
      <trkpt lat="45.06752" lon="4.102">
        <ele>1126</ele>
        <time>2026-04-26T06:29:38Z</time>
      </trkpt>
      <trkpt lat="45.06743" lon="4.10201">
        <ele>1125</ele>
        <time>2026-04-26T06:29:43Z</time>
      </trkpt>
      <trkpt lat="45.06735" lon="4.10203">
        <ele>1124</ele>
        <time>2026-04-26T06:29:48Z</time>
      </trkpt>
      <trkpt lat="45.06728" lon="4.10203">
        <ele>1123.1</ele>
        <time>2026-04-26T06:29:53Z</time>
      </trkpt>
      <trkpt lat="45.0672" lon="4.10203">
        <ele>1122</ele>
        <time>2026-04-26T06:29:58Z</time>
      </trkpt>
      <trkpt lat="45.06713" lon="4.10203">
        <ele>1121.1</ele>
        <time>2026-04-26T06:30:03Z</time>
      </trkpt>
      <trkpt lat="45.06704" lon="4.10202">
        <ele>1119.8</ele>
        <time>2026-04-26T06:30:08Z</time>
      </trkpt>
      <trkpt lat="45.06696" lon="4.102">
        <ele>1118.7</ele>
        <time>2026-04-26T06:30:13Z</time>
      </trkpt>
      <trkpt lat="45.06688" lon="4.102">
        <ele>1117.6</ele>
        <time>2026-04-26T06:30:18Z</time>
      </trkpt>
      <trkpt lat="45.0668" lon="4.10201">
        <ele>1116.6</ele>
        <time>2026-04-26T06:30:23Z</time>
      </trkpt>
      <trkpt lat="45.06673" lon="4.10205">
        <ele>1115.8</ele>
        <time>2026-04-26T06:30:28Z</time>
      </trkpt>
      <trkpt lat="45.06668" lon="4.10209">
        <ele>1115.2</ele>
        <time>2026-04-26T06:30:33Z</time>
      </trkpt>
      <trkpt lat="45.06661" lon="4.10215">
        <ele>1114.5</ele>
        <time>2026-04-26T06:30:38Z</time>
      </trkpt>
      <trkpt lat="45.06654" lon="4.10221">
        <ele>1113.8</ele>
        <time>2026-04-26T06:30:43Z</time>
      </trkpt>
      <trkpt lat="45.06649" lon="4.10225">
        <ele>1113.3</ele>
        <time>2026-04-26T06:30:48Z</time>
      </trkpt>
      <trkpt lat="45.06642" lon="4.10232">
        <ele>1112.6</ele>
        <time>2026-04-26T06:30:53Z</time>
      </trkpt>
      <trkpt lat="45.06636" lon="4.10239">
        <ele>1112.1</ele>
        <time>2026-04-26T06:30:58Z</time>
      </trkpt>
      <trkpt lat="45.06629" lon="4.10243">
        <ele>1111.3</ele>
        <time>2026-04-26T06:31:03Z</time>
      </trkpt>
      <trkpt lat="45.06623" lon="4.10243">
        <ele>1110.6</ele>
        <time>2026-04-26T06:31:08Z</time>
      </trkpt>
      <trkpt lat="45.06617" lon="4.10243">
        <ele>1109.9</ele>
        <time>2026-04-26T06:31:13Z</time>
      </trkpt>
      <trkpt lat="45.06614" lon="4.10243">
        <ele>1109.5</ele>
        <time>2026-04-26T06:31:18Z</time>
      </trkpt>
      <trkpt lat="45.06611" lon="4.10245">
        <ele>1109.2</ele>
        <time>2026-04-26T06:31:23Z</time>
      </trkpt>
      <trkpt lat="45.06607" lon="4.10248">
        <ele>1108.8</ele>
        <time>2026-04-26T06:31:28Z</time>
      </trkpt>
      <trkpt lat="45.06601" lon="4.1025">
        <ele>1108.1</ele>
        <time>2026-04-26T06:31:33Z</time>
      </trkpt>
      <trkpt lat="45.06594" lon="4.10253">
        <ele>1107</ele>
        <time>2026-04-26T06:31:38Z</time>
      </trkpt>
      <trkpt lat="45.06587" lon="4.10256">
        <ele>1106</ele>
        <time>2026-04-26T06:31:43Z</time>
      </trkpt>
      <trkpt lat="45.06581" lon="4.10258">
        <ele>1105.1</ele>
        <time>2026-04-26T06:31:48Z</time>
      </trkpt>
      <trkpt lat="45.06575" lon="4.10261">
        <ele>1104</ele>
        <time>2026-04-26T06:31:53Z</time>
      </trkpt>
      <trkpt lat="45.06568" lon="4.10264">
        <ele>1102.8</ele>
        <time>2026-04-26T06:31:58Z</time>
      </trkpt>
      <trkpt lat="45.06561" lon="4.10266">
        <ele>1101.6</ele>
        <time>2026-04-26T06:32:03Z</time>
      </trkpt>
      <trkpt lat="45.06554" lon="4.10269">
        <ele>1100.3</ele>
        <time>2026-04-26T06:32:08Z</time>
      </trkpt>
      <trkpt lat="45.06548" lon="4.10271">
        <ele>1099.3</ele>
        <time>2026-04-26T06:32:13Z</time>
      </trkpt>
      <trkpt lat="45.06543" lon="4.10272">
        <ele>1098.5</ele>
        <time>2026-04-26T06:32:18Z</time>
      </trkpt>
      <trkpt lat="45.06539" lon="4.1027">
        <ele>1098</ele>
        <time>2026-04-26T06:32:23Z</time>
      </trkpt>
      <trkpt lat="45.06538" lon="4.10269">
        <ele>1098</ele>
        <time>2026-04-26T06:32:28Z</time>
      </trkpt>
      <trkpt lat="45.06536" lon="4.10271">
        <ele>1097.5</ele>
        <time>2026-04-26T06:32:33Z</time>
      </trkpt>
      <trkpt lat="45.06531" lon="4.10275">
        <ele>1096.5</ele>
        <time>2026-04-26T06:32:38Z</time>
      </trkpt>
      <trkpt lat="45.06526" lon="4.10278">
        <ele>1095.5</ele>
        <time>2026-04-26T06:32:43Z</time>
      </trkpt>
      <trkpt lat="45.06519" lon="4.1028">
        <ele>1094.3</ele>
        <time>2026-04-26T06:32:48Z</time>
      </trkpt>
      <trkpt lat="45.06513" lon="4.10282">
        <ele>1093.2</ele>
        <time>2026-04-26T06:32:53Z</time>
      </trkpt>
      <trkpt lat="45.06507" lon="4.10287">
        <ele>1091.9</ele>
        <time>2026-04-26T06:32:58Z</time>
      </trkpt>
      <trkpt lat="45.06501" lon="4.10293">
        <ele>1090.5</ele>
        <time>2026-04-26T06:33:03Z</time>
      </trkpt>
      <trkpt lat="45.06497" lon="4.103">
        <ele>1089.3</ele>
        <time>2026-04-26T06:33:08Z</time>
      </trkpt>
      <trkpt lat="45.06491" lon="4.10305">
        <ele>1087.8</ele>
        <time>2026-04-26T06:33:13Z</time>
      </trkpt>
      <trkpt lat="45.06485" lon="4.10308">
        <ele>1086.5</ele>
        <time>2026-04-26T06:33:18Z</time>
      </trkpt>
      <trkpt lat="45.06481" lon="4.10314">
        <ele>1085.2</ele>
        <time>2026-04-26T06:33:23Z</time>
      </trkpt>
      <trkpt lat="45.06479" lon="4.10322">
        <ele>1084.1</ele>
        <time>2026-04-26T06:33:28Z</time>
      </trkpt>
      <trkpt lat="45.06477" lon="4.10331">
        <ele>1082.8</ele>
        <time>2026-04-26T06:33:33Z</time>
      </trkpt>
      <trkpt lat="45.06475" lon="4.10337">
        <ele>1081.7</ele>
        <time>2026-04-26T06:33:38Z</time>
      </trkpt>
      <trkpt lat="45.06472" lon="4.10342">
        <ele>1080.3</ele>
        <time>2026-04-26T06:33:43Z</time>
      </trkpt>
      <trkpt lat="45.06468" lon="4.1035">
        <ele>1078.4</ele>
        <time>2026-04-26T06:33:48Z</time>
      </trkpt>
      <trkpt lat="45.06463" lon="4.10358">
        <ele>1076.3</ele>
        <time>2026-04-26T06:33:53Z</time>
      </trkpt>
      <trkpt lat="45.0646" lon="4.10365">
        <ele>1074.7</ele>
        <time>2026-04-26T06:33:58Z</time>
      </trkpt>
      <trkpt lat="45.06458" lon="4.10371">
        <ele>1073.5</ele>
        <time>2026-04-26T06:34:03Z</time>
      </trkpt>
      <trkpt lat="45.06457" lon="4.10377">
        <ele>1072.5</ele>
        <time>2026-04-26T06:34:08Z</time>
      </trkpt>
      <trkpt lat="45.06454" lon="4.10382">
        <ele>1071.2</ele>
        <time>2026-04-26T06:34:13Z</time>
      </trkpt>
      <trkpt lat="45.06448" lon="4.10384">
        <ele>1069.9</ele>
        <time>2026-04-26T06:34:18Z</time>
      </trkpt>
      <trkpt lat="45.06442" lon="4.10383">
        <ele>1068.9</ele>
        <time>2026-04-26T06:34:23Z</time>
      </trkpt>
      <trkpt lat="45.06437" lon="4.10382">
        <ele>1068.2</ele>
        <time>2026-04-26T06:34:28Z</time>
      </trkpt>
      <trkpt lat="45.06434" lon="4.10382">
        <ele>1067.7</ele>
        <time>2026-04-26T06:34:33Z</time>
      </trkpt>
      <trkpt lat="45.06431" lon="4.10382">
        <ele>1067.1</ele>
        <time>2026-04-26T06:34:38Z</time>
      </trkpt>
      <trkpt lat="45.06431" lon="4.10382">
        <ele>1067.1</ele>
        <time>2026-04-26T06:34:43Z</time>
      </trkpt>
      <trkpt lat="45.06431" lon="4.10382">
        <ele>1067.1</ele>
        <time>2026-04-26T06:34:48Z</time>
      </trkpt>
      <trkpt lat="45.06431" lon="4.10382">
        <ele>1067.1</ele>
        <time>2026-04-26T06:34:53Z</time>
      </trkpt>
      <trkpt lat="45.06431" lon="4.10382">
        <ele>1067.1</ele>
        <time>2026-04-26T06:34:58Z</time>
      </trkpt>
      <trkpt lat="45.06431" lon="4.10382">
        <ele>1067.1</ele>
        <time>2026-04-26T06:35:03Z</time>
      </trkpt>
      <trkpt lat="45.06431" lon="4.10382">
        <ele>1067.1</ele>
        <time>2026-04-26T06:35:08Z</time>
      </trkpt>
      <trkpt lat="45.06431" lon="4.10382">
        <ele>1067.1</ele>
        <time>2026-04-26T06:35:13Z</time>
      </trkpt>
      <trkpt lat="45.06431" lon="4.10382">
        <ele>1067.1</ele>
        <time>2026-04-26T06:35:18Z</time>
      </trkpt>
      <trkpt lat="45.06431" lon="4.10382">
        <ele>1067.1</ele>
        <time>2026-04-26T06:35:23Z</time>
      </trkpt>
      <trkpt lat="45.06431" lon="4.10382">
        <ele>1067.1</ele>
        <time>2026-04-26T06:35:28Z</time>
      </trkpt>
      <trkpt lat="45.06431" lon="4.10382">
        <ele>1067.1</ele>
        <time>2026-04-26T06:35:33Z</time>
      </trkpt>
      <trkpt lat="45.06424" lon="4.10377">
        <ele>1066.6</ele>
        <time>2026-04-26T06:35:38Z</time>
      </trkpt>
      <trkpt lat="45.0642" lon="4.10378">
        <ele>1065.7</ele>
        <time>2026-04-26T06:35:43Z</time>
      </trkpt>
      <trkpt lat="45.06416" lon="4.10378">
        <ele>1065</ele>
        <time>2026-04-26T06:35:48Z</time>
      </trkpt>
      <trkpt lat="45.06413" lon="4.10376">
        <ele>1064.9</ele>
        <time>2026-04-26T06:35:53Z</time>
      </trkpt>
      <trkpt lat="45.06409" lon="4.10374">
        <ele>1064.7</ele>
        <time>2026-04-26T06:35:58Z</time>
      </trkpt>
      <trkpt lat="45.06405" lon="4.10373">
        <ele>1064.3</ele>
        <time>2026-04-26T06:36:03Z</time>
      </trkpt>
      <trkpt lat="45.06403" lon="4.10377">
        <ele>1063.5</ele>
        <time>2026-04-26T06:36:08Z</time>
      </trkpt>
      <trkpt lat="45.06405" lon="4.10385">
        <ele>1062.7</ele>
        <time>2026-04-26T06:36:13Z</time>
      </trkpt>
      <trkpt lat="45.06407" lon="4.10392">
        <ele>1062</ele>
        <time>2026-04-26T06:36:18Z</time>
      </trkpt>
      <trkpt lat="45.06411" lon="4.104">
        <ele>1061.4</ele>
        <time>2026-04-26T06:36:23Z</time>
      </trkpt>
      <trkpt lat="45.06416" lon="4.10408">
        <ele>1061.1</ele>
        <time>2026-04-26T06:36:28Z</time>
      </trkpt>
      <trkpt lat="45.06422" lon="4.10415">
        <ele>1061.1</ele>
        <time>2026-04-26T06:36:33Z</time>
      </trkpt>
      <trkpt lat="45.06427" lon="4.10421">
        <ele>1061.6</ele>
        <time>2026-04-26T06:36:38Z</time>
      </trkpt>
      <trkpt lat="45.06432" lon="4.10429">
        <ele>1062</ele>
        <time>2026-04-26T06:36:43Z</time>
      </trkpt>
      <trkpt lat="45.06438" lon="4.10435">
        <ele>1062.7</ele>
        <time>2026-04-26T06:36:48Z</time>
      </trkpt>
      <trkpt lat="45.06444" lon="4.10438">
        <ele>1063.5</ele>
        <time>2026-04-26T06:36:53Z</time>
      </trkpt>
      <trkpt lat="45.0645" lon="4.10443">
        <ele>1064.1</ele>
        <time>2026-04-26T06:36:58Z</time>
      </trkpt>
      <trkpt lat="45.06456" lon="4.10449">
        <ele>1064.7</ele>
        <time>2026-04-26T06:37:03Z</time>
      </trkpt>
      <trkpt lat="45.06461" lon="4.10457">
        <ele>1065</ele>
        <time>2026-04-26T06:37:08Z</time>
      </trkpt>
      <trkpt lat="45.06465" lon="4.10466">
        <ele>1065</ele>
        <time>2026-04-26T06:37:13Z</time>
      </trkpt>
      <trkpt lat="45.06467" lon="4.10476">
        <ele>1064.6</ele>
        <time>2026-04-26T06:37:18Z</time>
      </trkpt>
      <trkpt lat="45.06463" lon="4.10484">
        <ele>1063.6</ele>
        <time>2026-04-26T06:37:23Z</time>
      </trkpt>
      <trkpt lat="45.06458" lon="4.10492">
        <ele>1062.4</ele>
        <time>2026-04-26T06:37:28Z</time>
      </trkpt>
      <trkpt lat="45.06452" lon="4.105">
        <ele>1061.2</ele>
        <time>2026-04-26T06:37:33Z</time>
      </trkpt>
      <trkpt lat="45.06448" lon="4.10506">
        <ele>1061</ele>
        <time>2026-04-26T06:37:38Z</time>
      </trkpt>
      <trkpt lat="45.06442" lon="4.10512">
        <ele>1060.5</ele>
        <time>2026-04-26T06:37:43Z</time>
      </trkpt>
      <trkpt lat="45.06435" lon="4.10519">
        <ele>1059.9</ele>
        <time>2026-04-26T06:37:48Z</time>
      </trkpt>
      <trkpt lat="45.06428" lon="4.10532">
        <ele>1059.6</ele>
        <time>2026-04-26T06:37:53Z</time>
      </trkpt>
      <trkpt lat="45.06422" lon="4.1054">
        <ele>1059.1</ele>
        <time>2026-04-26T06:37:58Z</time>
      </trkpt>
      <trkpt lat="45.06416" lon="4.10546">
        <ele>1058.5</ele>
        <time>2026-04-26T06:38:03Z</time>
      </trkpt>
      <trkpt lat="45.06411" lon="4.10555">
        <ele>1058</ele>
        <time>2026-04-26T06:38:08Z</time>
      </trkpt>
      <trkpt lat="45.06407" lon="4.10561">
        <ele>1057.5</ele>
        <time>2026-04-26T06:38:13Z</time>
      </trkpt>
      <trkpt lat="45.06401" lon="4.1057">
        <ele>1056.8</ele>
        <time>2026-04-26T06:38:18Z</time>
      </trkpt>
      <trkpt lat="45.06396" lon="4.10577">
        <ele>1056.1</ele>
        <time>2026-04-26T06:38:23Z</time>
      </trkpt>
      <trkpt lat="45.06391" lon="4.10584">
        <ele>1055.4</ele>
        <time>2026-04-26T06:38:28Z</time>
      </trkpt>
      <trkpt lat="45.06384" lon="4.1059">
        <ele>1054.3</ele>
        <time>2026-04-26T06:38:33Z</time>
      </trkpt>
      <trkpt lat="45.06379" lon="4.10595">
        <ele>1053.6</ele>
        <time>2026-04-26T06:38:38Z</time>
      </trkpt>
      <trkpt lat="45.06372" lon="4.10601">
        <ele>1052.6</ele>
        <time>2026-04-26T06:38:43Z</time>
      </trkpt>
      <trkpt lat="45.06364" lon="4.10608">
        <ele>1051.5</ele>
        <time>2026-04-26T06:38:48Z</time>
      </trkpt>
      <trkpt lat="45.06358" lon="4.10614">
        <ele>1050.7</ele>
        <time>2026-04-26T06:38:53Z</time>
      </trkpt>
      <trkpt lat="45.06353" lon="4.1062">
        <ele>1050.1</ele>
        <time>2026-04-26T06:38:58Z</time>
      </trkpt>
      <trkpt lat="45.0635" lon="4.1062">
        <ele>1049.6</ele>
        <time>2026-04-26T06:39:03Z</time>
      </trkpt>
      <trkpt lat="45.06348" lon="4.10621">
        <ele>1049.3</ele>
        <time>2026-04-26T06:39:08Z</time>
      </trkpt>
      <trkpt lat="45.06343" lon="4.10628">
        <ele>1048.8</ele>
        <time>2026-04-26T06:39:13Z</time>
      </trkpt>
      <trkpt lat="45.06336" lon="4.10635">
        <ele>1047.9</ele>
        <time>2026-04-26T06:39:18Z</time>
      </trkpt>
      <trkpt lat="45.0633" lon="4.10641">
        <ele>1047.6</ele>
        <time>2026-04-26T06:39:23Z</time>
      </trkpt>
      <trkpt lat="45.06324" lon="4.10644">
        <ele>1047.4</ele>
        <time>2026-04-26T06:39:28Z</time>
      </trkpt>
      <trkpt lat="45.06319" lon="4.10649">
        <ele>1047.3</ele>
        <time>2026-04-26T06:39:33Z</time>
      </trkpt>
      <trkpt lat="45.06313" lon="4.10654">
        <ele>1047.2</ele>
        <time>2026-04-26T06:39:38Z</time>
      </trkpt>
      <trkpt lat="45.06307" lon="4.1066">
        <ele>1047.1</ele>
        <time>2026-04-26T06:39:43Z</time>
      </trkpt>
      <trkpt lat="45.06301" lon="4.10667">
        <ele>1047.1</ele>
        <time>2026-04-26T06:39:48Z</time>
      </trkpt>
      <trkpt lat="45.06295" lon="4.10675">
        <ele>1047.2</ele>
        <time>2026-04-26T06:39:53Z</time>
      </trkpt>
      <trkpt lat="45.06288" lon="4.10683">
        <ele>1047.4</ele>
        <time>2026-04-26T06:39:58Z</time>
      </trkpt>
      <trkpt lat="45.06281" lon="4.10689">
        <ele>1047.5</ele>
        <time>2026-04-26T06:40:03Z</time>
      </trkpt>
      <trkpt lat="45.06275" lon="4.10695">
        <ele>1047.7</ele>
        <time>2026-04-26T06:40:08Z</time>
      </trkpt>
      <trkpt lat="45.06269" lon="4.10699">
        <ele>1047.8</ele>
        <time>2026-04-26T06:40:13Z</time>
      </trkpt>
      <trkpt lat="45.06262" lon="4.10704">
        <ele>1048</ele>
        <time>2026-04-26T06:40:18Z</time>
      </trkpt>
      <trkpt lat="45.06255" lon="4.10708">
        <ele>1048.1</ele>
        <time>2026-04-26T06:40:23Z</time>
      </trkpt>
      <trkpt lat="45.06249" lon="4.10708">
        <ele>1048</ele>
        <time>2026-04-26T06:40:28Z</time>
      </trkpt>
      <trkpt lat="45.06241" lon="4.1071">
        <ele>1048.9</ele>
        <time>2026-04-26T06:40:33Z</time>
      </trkpt>
      <trkpt lat="45.06233" lon="4.10713">
        <ele>1049.8</ele>
        <time>2026-04-26T06:40:38Z</time>
      </trkpt>
      <trkpt lat="45.06226" lon="4.10713">
        <ele>1050.3</ele>
        <time>2026-04-26T06:40:43Z</time>
      </trkpt>
      <trkpt lat="45.06219" lon="4.10711">
        <ele>1050.7</ele>
        <time>2026-04-26T06:40:48Z</time>
      </trkpt>
      <trkpt lat="45.06213" lon="4.1071">
        <ele>1051.1</ele>
        <time>2026-04-26T06:40:53Z</time>
      </trkpt>
      <trkpt lat="45.06213" lon="4.10707">
        <ele>1050.8</ele>
        <time>2026-04-26T06:40:58Z</time>
      </trkpt>
      <trkpt lat="45.06212" lon="4.10707">
        <ele>1050.8</ele>
        <time>2026-04-26T06:41:03Z</time>
      </trkpt>
      <trkpt lat="45.06212" lon="4.10707">
        <ele>1050.8</ele>
        <time>2026-04-26T06:41:08Z</time>
      </trkpt>
      <trkpt lat="45.06212" lon="4.10707">
        <ele>1050.8</ele>
        <time>2026-04-26T06:41:13Z</time>
      </trkpt>
      <trkpt lat="45.06208" lon="4.1071">
        <ele>1051.4</ele>
        <time>2026-04-26T06:41:18Z</time>
      </trkpt>
      <trkpt lat="45.06202" lon="4.10712">
        <ele>1052.1</ele>
        <time>2026-04-26T06:41:23Z</time>
      </trkpt>
      <trkpt lat="45.06196" lon="4.10712">
        <ele>1052.6</ele>
        <time>2026-04-26T06:41:28Z</time>
      </trkpt>
      <trkpt lat="45.06189" lon="4.10713">
        <ele>1053.2</ele>
        <time>2026-04-26T06:41:33Z</time>
      </trkpt>
      <trkpt lat="45.06181" lon="4.10713">
        <ele>1053.9</ele>
        <time>2026-04-26T06:41:38Z</time>
      </trkpt>
      <trkpt lat="45.06175" lon="4.10715">
        <ele>1054.6</ele>
        <time>2026-04-26T06:41:43Z</time>
      </trkpt>
      <trkpt lat="45.06169" lon="4.10718">
        <ele>1055.4</ele>
        <time>2026-04-26T06:41:48Z</time>
      </trkpt>
      <trkpt lat="45.06163" lon="4.1072">
        <ele>1056</ele>
        <time>2026-04-26T06:41:53Z</time>
      </trkpt>
      <trkpt lat="45.06156" lon="4.10722">
        <ele>1056.6</ele>
        <time>2026-04-26T06:41:58Z</time>
      </trkpt>
      <trkpt lat="45.0615" lon="4.10725">
        <ele>1057.3</ele>
        <time>2026-04-26T06:42:03Z</time>
      </trkpt>
      <trkpt lat="45.06145" lon="4.10728">
        <ele>1057.9</ele>
        <time>2026-04-26T06:42:08Z</time>
      </trkpt>
      <trkpt lat="45.06139" lon="4.1073">
        <ele>1058.5</ele>
        <time>2026-04-26T06:42:13Z</time>
      </trkpt>
      <trkpt lat="45.06133" lon="4.10732">
        <ele>1059.1</ele>
        <time>2026-04-26T06:42:18Z</time>
      </trkpt>
      <trkpt lat="45.06126" lon="4.10734">
        <ele>1059.7</ele>
        <time>2026-04-26T06:42:23Z</time>
      </trkpt>
      <trkpt lat="45.0612" lon="4.10736">
        <ele>1060.3</ele>
        <time>2026-04-26T06:42:28Z</time>
      </trkpt>
      <trkpt lat="45.06114" lon="4.10739">
        <ele>1061</ele>
        <time>2026-04-26T06:42:33Z</time>
      </trkpt>
      <trkpt lat="45.0611" lon="4.10742">
        <ele>1061.5</ele>
        <time>2026-04-26T06:42:38Z</time>
      </trkpt>
      <trkpt lat="45.06104" lon="4.10743">
        <ele>1062</ele>
        <time>2026-04-26T06:42:43Z</time>
      </trkpt>
      <trkpt lat="45.061" lon="4.10744">
        <ele>1062.4</ele>
        <time>2026-04-26T06:42:48Z</time>
      </trkpt>
      <trkpt lat="45.06094" lon="4.10747">
        <ele>1063</ele>
        <time>2026-04-26T06:42:53Z</time>
      </trkpt>
      <trkpt lat="45.06089" lon="4.10745">
        <ele>1063.1</ele>
        <time>2026-04-26T06:42:58Z</time>
      </trkpt>
      <trkpt lat="45.06083" lon="4.10744">
        <ele>1063.4</ele>
        <time>2026-04-26T06:43:03Z</time>
      </trkpt>
      <trkpt lat="45.06077" lon="4.10742">
        <ele>1063.1</ele>
        <time>2026-04-26T06:43:08Z</time>
      </trkpt>
      <trkpt lat="45.06072" lon="4.1074">
        <ele>1062.9</ele>
        <time>2026-04-26T06:43:13Z</time>
      </trkpt>
      <trkpt lat="45.06066" lon="4.10737">
        <ele>1062.6</ele>
        <time>2026-04-26T06:43:18Z</time>
      </trkpt>
      <trkpt lat="45.0606" lon="4.10732">
        <ele>1062.1</ele>
        <time>2026-04-26T06:43:23Z</time>
      </trkpt>
      <trkpt lat="45.06053" lon="4.10724">
        <ele>1061.3</ele>
        <time>2026-04-26T06:43:28Z</time>
      </trkpt>
      <trkpt lat="45.06048" lon="4.1072">
        <ele>1060.9</ele>
        <time>2026-04-26T06:43:33Z</time>
      </trkpt>
      <trkpt lat="45.06042" lon="4.10715">
        <ele>1060.4</ele>
        <time>2026-04-26T06:43:38Z</time>
      </trkpt>
      <trkpt lat="45.06034" lon="4.10713">
        <ele>1060.3</ele>
        <time>2026-04-26T06:43:43Z</time>
      </trkpt>
      <trkpt lat="45.06027" lon="4.10709">
        <ele>1059.9</ele>
        <time>2026-04-26T06:43:48Z</time>
      </trkpt>
      <trkpt lat="45.0602" lon="4.10707">
        <ele>1059.7</ele>
        <time>2026-04-26T06:43:53Z</time>
      </trkpt>
      <trkpt lat="45.06013" lon="4.10705">
        <ele>1059.6</ele>
        <time>2026-04-26T06:43:58Z</time>
      </trkpt>
      <trkpt lat="45.06005" lon="4.10703">
        <ele>1059.5</ele>
        <time>2026-04-26T06:44:03Z</time>
      </trkpt>
      <trkpt lat="45.05999" lon="4.10702">
        <ele>1059.4</ele>
        <time>2026-04-26T06:44:08Z</time>
      </trkpt>
      <trkpt lat="45.05994" lon="4.10701">
        <ele>1059.1</ele>
        <time>2026-04-26T06:44:13Z</time>
      </trkpt>
      <trkpt lat="45.05985" lon="4.10697">
        <ele>1058.4</ele>
        <time>2026-04-26T06:44:18Z</time>
      </trkpt>
      <trkpt lat="45.05975" lon="4.10692">
        <ele>1057.6</ele>
        <time>2026-04-26T06:44:23Z</time>
      </trkpt>
      <trkpt lat="45.05968" lon="4.10688">
        <ele>1057</ele>
        <time>2026-04-26T06:44:28Z</time>
      </trkpt>
      <trkpt lat="45.05964" lon="4.10685">
        <ele>1056.6</ele>
        <time>2026-04-26T06:44:33Z</time>
      </trkpt>
      <trkpt lat="45.05957" lon="4.10684">
        <ele>1056.2</ele>
        <time>2026-04-26T06:44:38Z</time>
      </trkpt>
      <trkpt lat="45.0595" lon="4.10678">
        <ele>1055.4</ele>
        <time>2026-04-26T06:44:43Z</time>
      </trkpt>
      <trkpt lat="45.05941" lon="4.10673">
        <ele>1054.5</ele>
        <time>2026-04-26T06:44:48Z</time>
      </trkpt>
      <trkpt lat="45.05933" lon="4.10673">
        <ele>1054.3</ele>
        <time>2026-04-26T06:44:53Z</time>
      </trkpt>
      <trkpt lat="45.05926" lon="4.10671">
        <ele>1053.8</ele>
        <time>2026-04-26T06:44:58Z</time>
      </trkpt>
      <trkpt lat="45.05918" lon="4.10672">
        <ele>1053.6</ele>
        <time>2026-04-26T06:45:03Z</time>
      </trkpt>
      <trkpt lat="45.05911" lon="4.10673">
        <ele>1053.4</ele>
        <time>2026-04-26T06:45:08Z</time>
      </trkpt>
      <trkpt lat="45.05904" lon="4.10672">
        <ele>1053</ele>
        <time>2026-04-26T06:45:13Z</time>
      </trkpt>
      <trkpt lat="45.05899" lon="4.10671">
        <ele>1052.6</ele>
        <time>2026-04-26T06:45:18Z</time>
      </trkpt>
      <trkpt lat="45.05898" lon="4.1067">
        <ele>1052.5</ele>
        <time>2026-04-26T06:45:23Z</time>
      </trkpt>
      <trkpt lat="45.05897" lon="4.10668">
        <ele>1052.2</ele>
        <time>2026-04-26T06:45:28Z</time>
      </trkpt>
      <trkpt lat="45.05892" lon="4.10663">
        <ele>1051.4</ele>
        <time>2026-04-26T06:45:33Z</time>
      </trkpt>
      <trkpt lat="45.05886" lon="4.10656">
        <ele>1050.3</ele>
        <time>2026-04-26T06:45:38Z</time>
      </trkpt>
      <trkpt lat="45.05882" lon="4.10648">
        <ele>1049.2</ele>
        <time>2026-04-26T06:45:43Z</time>
      </trkpt>
      <trkpt lat="45.05879" lon="4.10641">
        <ele>1048.3</ele>
        <time>2026-04-26T06:45:48Z</time>
      </trkpt>
      <trkpt lat="45.05877" lon="4.10634">
        <ele>1047.4</ele>
        <time>2026-04-26T06:45:53Z</time>
      </trkpt>
      <trkpt lat="45.05877" lon="4.10631">
        <ele>1047</ele>
        <time>2026-04-26T06:45:58Z</time>
      </trkpt>
      <trkpt lat="45.05877" lon="4.1063">
        <ele>1046.9</ele>
        <time>2026-04-26T06:46:03Z</time>
      </trkpt>
      <trkpt lat="45.05877" lon="4.1063">
        <ele>1046.9</ele>
        <time>2026-04-26T06:46:08Z</time>
      </trkpt>
      <trkpt lat="45.05873" lon="4.10626">
        <ele>1046.3</ele>
        <time>2026-04-26T06:46:13Z</time>
      </trkpt>
      <trkpt lat="45.05869" lon="4.10622">
        <ele>1045.6</ele>
        <time>2026-04-26T06:46:18Z</time>
      </trkpt>
      <trkpt lat="45.05869" lon="4.10622">
        <ele>1045.6</ele>
        <time>2026-04-26T06:46:23Z</time>
      </trkpt>
      <trkpt lat="45.05869" lon="4.10622">
        <ele>1045.6</ele>
        <time>2026-04-26T06:46:28Z</time>
      </trkpt>
      <trkpt lat="45.05867" lon="4.10614">
        <ele>1044.6</ele>
        <time>2026-04-26T06:46:33Z</time>
      </trkpt>
      <trkpt lat="45.05857" lon="4.10613">
        <ele>1043.9</ele>
        <time>2026-04-26T06:46:38Z</time>
      </trkpt>
      <trkpt lat="45.05849" lon="4.10616">
        <ele>1043.8</ele>
        <time>2026-04-26T06:46:43Z</time>
      </trkpt>
      <trkpt lat="45.05842" lon="4.10617">
        <ele>1043.5</ele>
        <time>2026-04-26T06:46:48Z</time>
      </trkpt>
      <trkpt lat="45.05836" lon="4.10619">
        <ele>1043.4</ele>
        <time>2026-04-26T06:46:53Z</time>
      </trkpt>
      <trkpt lat="45.05829" lon="4.10621">
        <ele>1043.2</ele>
        <time>2026-04-26T06:46:58Z</time>
      </trkpt>
      <trkpt lat="45.05824" lon="4.10625">
        <ele>1043.4</ele>
        <time>2026-04-26T06:47:03Z</time>
      </trkpt>
      <trkpt lat="45.05822" lon="4.10624">
        <ele>1043.1</ele>
        <time>2026-04-26T06:47:08Z</time>
      </trkpt>
      <trkpt lat="45.05821" lon="4.10623">
        <ele>1042.9</ele>
        <time>2026-04-26T06:47:13Z</time>
      </trkpt>
      <trkpt lat="45.05821" lon="4.10623">
        <ele>1042.9</ele>
        <time>2026-04-26T06:47:18Z</time>
      </trkpt>
      <trkpt lat="45.05819" lon="4.10624">
        <ele>1042.9</ele>
        <time>2026-04-26T06:47:23Z</time>
      </trkpt>
      <trkpt lat="45.05812" lon="4.10631">
        <ele>1043.3</ele>
        <time>2026-04-26T06:47:28Z</time>
      </trkpt>
      <trkpt lat="45.05807" lon="4.10637">
        <ele>1043.7</ele>
        <time>2026-04-26T06:47:33Z</time>
      </trkpt>
      <trkpt lat="45.05803" lon="4.10643">
        <ele>1044.2</ele>
        <time>2026-04-26T06:47:38Z</time>
      </trkpt>
      <trkpt lat="45.05797" lon="4.10648">
        <ele>1044.5</ele>
        <time>2026-04-26T06:47:43Z</time>
      </trkpt>
      <trkpt lat="45.05791" lon="4.10651">
        <ele>1044.5</ele>
        <time>2026-04-26T06:47:48Z</time>
      </trkpt>
      <trkpt lat="45.05786" lon="4.10655">
        <ele>1044.7</ele>
        <time>2026-04-26T06:47:53Z</time>
      </trkpt>
      <trkpt lat="45.0578" lon="4.10661">
        <ele>1045.1</ele>
        <time>2026-04-26T06:47:58Z</time>
      </trkpt>
      <trkpt lat="45.05774" lon="4.10665">
        <ele>1045.2</ele>
        <time>2026-04-26T06:48:03Z</time>
      </trkpt>
      <trkpt lat="45.05767" lon="4.1067">
        <ele>1045.3</ele>
        <time>2026-04-26T06:48:08Z</time>
      </trkpt>
      <trkpt lat="45.0576" lon="4.10675">
        <ele>1045.3</ele>
        <time>2026-04-26T06:48:13Z</time>
      </trkpt>
      <trkpt lat="45.05753" lon="4.10679">
        <ele>1045.2</ele>
        <time>2026-04-26T06:48:18Z</time>
      </trkpt>
      <trkpt lat="45.05746" lon="4.10682">
        <ele>1044.8</ele>
        <time>2026-04-26T06:48:23Z</time>
      </trkpt>
      <trkpt lat="45.05741" lon="4.10682">
        <ele>1044.3</ele>
        <time>2026-04-26T06:48:28Z</time>
      </trkpt>
      <trkpt lat="45.05734" lon="4.1068">
        <ele>1043.3</ele>
        <time>2026-04-26T06:48:33Z</time>
      </trkpt>
      <trkpt lat="45.05727" lon="4.10679">
        <ele>1042.4</ele>
        <time>2026-04-26T06:48:38Z</time>
      </trkpt>
      <trkpt lat="45.0572" lon="4.10671">
        <ele>1040.8</ele>
        <time>2026-04-26T06:48:43Z</time>
      </trkpt>
      <trkpt lat="45.05717" lon="4.10663">
        <ele>1039.6</ele>
        <time>2026-04-26T06:48:48Z</time>
      </trkpt>
      <trkpt lat="45.05716" lon="4.10655">
        <ele>1038.6</ele>
        <time>2026-04-26T06:48:53Z</time>
      </trkpt>
      <trkpt lat="45.05717" lon="4.10646">
        <ele>1037.6</ele>
        <time>2026-04-26T06:48:58Z</time>
      </trkpt>
      <trkpt lat="45.05719" lon="4.10634">
        <ele>1036.4</ele>
        <time>2026-04-26T06:49:03Z</time>
      </trkpt>
      <trkpt lat="45.05722" lon="4.10624">
        <ele>1035.5</ele>
        <time>2026-04-26T06:49:08Z</time>
      </trkpt>
      <trkpt lat="45.05726" lon="4.10616">
        <ele>1035</ele>
        <time>2026-04-26T06:49:13Z</time>
      </trkpt>
      <trkpt lat="45.05731" lon="4.10609">
        <ele>1034.6</ele>
        <time>2026-04-26T06:49:18Z</time>
      </trkpt>
      <trkpt lat="45.05737" lon="4.10604">
        <ele>1034.5</ele>
        <time>2026-04-26T06:49:23Z</time>
      </trkpt>
      <trkpt lat="45.05744" lon="4.10598">
        <ele>1034.4</ele>
        <time>2026-04-26T06:49:28Z</time>
      </trkpt>
      <trkpt lat="45.0575" lon="4.10594">
        <ele>1034.4</ele>
        <time>2026-04-26T06:49:33Z</time>
      </trkpt>
      <trkpt lat="45.05752" lon="4.10593">
        <ele>1034.4</ele>
        <time>2026-04-26T06:49:38Z</time>
      </trkpt>
      <trkpt lat="45.05753" lon="4.10591">
        <ele>1034.2</ele>
        <time>2026-04-26T06:49:43Z</time>
      </trkpt>
      <trkpt lat="45.05753" lon="4.10591">
        <ele>1034.2</ele>
        <time>2026-04-26T06:49:48Z</time>
      </trkpt>
      <trkpt lat="45.05751" lon="4.10589">
        <ele>1033.8</ele>
        <time>2026-04-26T06:49:53Z</time>
      </trkpt>
      <trkpt lat="45.05743" lon="4.10585">
        <ele>1032.6</ele>
        <time>2026-04-26T06:49:58Z</time>
      </trkpt>
      <trkpt lat="45.05737" lon="4.1058">
        <ele>1031.6</ele>
        <time>2026-04-26T06:50:03Z</time>
      </trkpt>
      <trkpt lat="45.05731" lon="4.10575">
        <ele>1030.5</ele>
        <time>2026-04-26T06:50:08Z</time>
      </trkpt>
      <trkpt lat="45.05724" lon="4.10571">
        <ele>1029.5</ele>
        <time>2026-04-26T06:50:13Z</time>
      </trkpt>
      <trkpt lat="45.05718" lon="4.10567">
        <ele>1028.6</ele>
        <time>2026-04-26T06:50:18Z</time>
      </trkpt>
      <trkpt lat="45.0571" lon="4.10565">
        <ele>1027.8</ele>
        <time>2026-04-26T06:50:23Z</time>
      </trkpt>
      <trkpt lat="45.05703" lon="4.10563">
        <ele>1027</ele>
        <time>2026-04-26T06:50:28Z</time>
      </trkpt>
      <trkpt lat="45.05695" lon="4.10561">
        <ele>1026.1</ele>
        <time>2026-04-26T06:50:33Z</time>
      </trkpt>
      <trkpt lat="45.05688" lon="4.1056">
        <ele>1025.5</ele>
        <time>2026-04-26T06:50:38Z</time>
      </trkpt>
      <trkpt lat="45.0568" lon="4.10558">
        <ele>1024.6</ele>
        <time>2026-04-26T06:50:43Z</time>
      </trkpt>
      <trkpt lat="45.05676" lon="4.10555">
        <ele>1024</ele>
        <time>2026-04-26T06:50:48Z</time>
      </trkpt>
      <trkpt lat="45.05671" lon="4.10545">
        <ele>1022.7</ele>
        <time>2026-04-26T06:50:53Z</time>
      </trkpt>
      <trkpt lat="45.05669" lon="4.10535">
        <ele>1021.5</ele>
        <time>2026-04-26T06:50:58Z</time>
      </trkpt>
      <trkpt lat="45.05667" lon="4.10529">
        <ele>1020.8</ele>
        <time>2026-04-26T06:51:03Z</time>
      </trkpt>
      <trkpt lat="45.05667" lon="4.10529">
        <ele>1020.8</ele>
        <time>2026-04-26T06:51:08Z</time>
      </trkpt>
      <trkpt lat="45.05667" lon="4.10529">
        <ele>1020.8</ele>
        <time>2026-04-26T06:51:13Z</time>
      </trkpt>
      <trkpt lat="45.05667" lon="4.10529">
        <ele>1020.8</ele>
        <time>2026-04-26T06:51:18Z</time>
      </trkpt>
      <trkpt lat="45.05667" lon="4.10529">
        <ele>1020.8</ele>
        <time>2026-04-26T06:51:23Z</time>
      </trkpt>
      <trkpt lat="45.05663" lon="4.10513">
        <ele>1018.8</ele>
        <time>2026-04-26T06:51:28Z</time>
      </trkpt>
      <trkpt lat="45.0566" lon="4.10501">
        <ele>1017.4</ele>
        <time>2026-04-26T06:51:33Z</time>
      </trkpt>
      <trkpt lat="45.05656" lon="4.10494">
        <ele>1016.2</ele>
        <time>2026-04-26T06:51:38Z</time>
      </trkpt>
      <trkpt lat="45.05652" lon="4.10487">
        <ele>1015.1</ele>
        <time>2026-04-26T06:51:43Z</time>
      </trkpt>
      <trkpt lat="45.0565" lon="4.1048">
        <ele>1014.1</ele>
        <time>2026-04-26T06:51:48Z</time>
      </trkpt>
      <trkpt lat="45.05647" lon="4.10472">
        <ele>1013</ele>
        <time>2026-04-26T06:51:53Z</time>
      </trkpt>
      <trkpt lat="45.05645" lon="4.10465">
        <ele>1012.1</ele>
        <time>2026-04-26T06:51:58Z</time>
      </trkpt>
      <trkpt lat="45.05645" lon="4.10465">
        <ele>1012.1</ele>
        <time>2026-04-26T06:52:03Z</time>
      </trkpt>
      <trkpt lat="45.05645" lon="4.10465">
        <ele>1012.1</ele>
        <time>2026-04-26T06:52:08Z</time>
      </trkpt>
      <trkpt lat="45.05645" lon="4.10465">
        <ele>1012.1</ele>
        <time>2026-04-26T06:52:13Z</time>
      </trkpt>
      <trkpt lat="45.05645" lon="4.10465">
        <ele>1012.1</ele>
        <time>2026-04-26T06:52:18Z</time>
      </trkpt>
      <trkpt lat="45.05645" lon="4.10465">
        <ele>1012.1</ele>
        <time>2026-04-26T06:52:23Z</time>
      </trkpt>
      <trkpt lat="45.05645" lon="4.10465">
        <ele>1012.1</ele>
        <time>2026-04-26T06:52:28Z</time>
      </trkpt>
      <trkpt lat="45.05645" lon="4.10465">
        <ele>1012.1</ele>
        <time>2026-04-26T06:52:33Z</time>
      </trkpt>
      <trkpt lat="45.05645" lon="4.10465">
        <ele>1012.1</ele>
        <time>2026-04-26T06:52:38Z</time>
      </trkpt>
      <trkpt lat="45.05645" lon="4.10465">
        <ele>1012.1</ele>
        <time>2026-04-26T06:52:43Z</time>
      </trkpt>
      <trkpt lat="45.05645" lon="4.10465">
        <ele>1012.1</ele>
        <time>2026-04-26T06:52:48Z</time>
      </trkpt>
      <trkpt lat="45.05645" lon="4.10465">
        <ele>1012.1</ele>
        <time>2026-04-26T06:52:53Z</time>
      </trkpt>
      <trkpt lat="45.0564" lon="4.10453">
        <ele>1010.4</ele>
        <time>2026-04-26T06:52:58Z</time>
      </trkpt>
      <trkpt lat="45.0564" lon="4.10453">
        <ele>1010.4</ele>
        <time>2026-04-26T06:53:03Z</time>
      </trkpt>
      <trkpt lat="45.0564" lon="4.10453">
        <ele>1010.4</ele>
        <time>2026-04-26T06:53:08Z</time>
      </trkpt>
      <trkpt lat="45.05638" lon="4.10445">
        <ele>1009.4</ele>
        <time>2026-04-26T06:53:13Z</time>
      </trkpt>
      <trkpt lat="45.05635" lon="4.10437">
        <ele>1008.4</ele>
        <time>2026-04-26T06:53:18Z</time>
      </trkpt>
      <trkpt lat="45.05634" lon="4.10431">
        <ele>1007.7</ele>
        <time>2026-04-26T06:53:23Z</time>
      </trkpt>
      <trkpt lat="45.05632" lon="4.10425">
        <ele>1006.9</ele>
        <time>2026-04-26T06:53:28Z</time>
      </trkpt>
      <trkpt lat="45.05632" lon="4.10424">
        <ele>1006.8</ele>
        <time>2026-04-26T06:53:33Z</time>
      </trkpt>
      <trkpt lat="45.05629" lon="4.10419">
        <ele>1006.1</ele>
        <time>2026-04-26T06:53:38Z</time>
      </trkpt>
      <trkpt lat="45.05628" lon="4.10416">
        <ele>1005.7</ele>
        <time>2026-04-26T06:53:43Z</time>
      </trkpt>
      <trkpt lat="45.05626" lon="4.10409">
        <ele>1004.8</ele>
        <time>2026-04-26T06:53:48Z</time>
      </trkpt>
      <trkpt lat="45.05622" lon="4.10402">
        <ele>1003.9</ele>
        <time>2026-04-26T06:53:53Z</time>
      </trkpt>
      <trkpt lat="45.05621" lon="4.10393">
        <ele>1002.9</ele>
        <time>2026-04-26T06:53:58Z</time>
      </trkpt>
      <trkpt lat="45.05618" lon="4.10386">
        <ele>1002</ele>
        <time>2026-04-26T06:54:03Z</time>
      </trkpt>
      <trkpt lat="45.05614" lon="4.10378">
        <ele>1001</ele>
        <time>2026-04-26T06:54:08Z</time>
      </trkpt>
      <trkpt lat="45.0561" lon="4.10371">
        <ele>1000.1</ele>
        <time>2026-04-26T06:54:13Z</time>
      </trkpt>
      <trkpt lat="45.05606" lon="4.10364">
        <ele>999.1</ele>
        <time>2026-04-26T06:54:18Z</time>
      </trkpt>
      <trkpt lat="45.05601" lon="4.10358">
        <ele>998.3</ele>
        <time>2026-04-26T06:54:23Z</time>
      </trkpt>
      <trkpt lat="45.05594" lon="4.10349">
        <ele>997</ele>
        <time>2026-04-26T06:54:28Z</time>
      </trkpt>
      <trkpt lat="45.05589" lon="4.10341">
        <ele>996</ele>
        <time>2026-04-26T06:54:33Z</time>
      </trkpt>
      <trkpt lat="45.05584" lon="4.10333">
        <ele>995</ele>
        <time>2026-04-26T06:54:38Z</time>
      </trkpt>
      <trkpt lat="45.05579" lon="4.10326">
        <ele>995.1</ele>
        <time>2026-04-26T06:54:43Z</time>
      </trkpt>
      <trkpt lat="45.05574" lon="4.10316">
        <ele>995</ele>
        <time>2026-04-26T06:54:48Z</time>
      </trkpt>
      <trkpt lat="45.05568" lon="4.10309">
        <ele>995.1</ele>
        <time>2026-04-26T06:54:53Z</time>
      </trkpt>
      <trkpt lat="45.05564" lon="4.10304">
        <ele>995.2</ele>
        <time>2026-04-26T06:54:58Z</time>
      </trkpt>
      <trkpt lat="45.0556" lon="4.10295">
        <ele>995</ele>
        <time>2026-04-26T06:55:03Z</time>
      </trkpt>
      <trkpt lat="45.05555" lon="4.1029">
        <ele>995.1</ele>
        <time>2026-04-26T06:55:08Z</time>
      </trkpt>
      <trkpt lat="45.05549" lon="4.10284">
        <ele>995.2</ele>
        <time>2026-04-26T06:55:13Z</time>
      </trkpt>
      <trkpt lat="45.05544" lon="4.10279">
        <ele>995.2</ele>
        <time>2026-04-26T06:55:18Z</time>
      </trkpt>
      <trkpt lat="45.05538" lon="4.10272">
        <ele>995.2</ele>
        <time>2026-04-26T06:55:23Z</time>
      </trkpt>
      <trkpt lat="45.0553" lon="4.10265">
        <ele>995.3</ele>
        <time>2026-04-26T06:55:28Z</time>
      </trkpt>
      <trkpt lat="45.05526" lon="4.1026">
        <ele>995.2</ele>
        <time>2026-04-26T06:55:33Z</time>
      </trkpt>
      <trkpt lat="45.05519" lon="4.10255">
        <ele>995.2</ele>
        <time>2026-04-26T06:55:38Z</time>
      </trkpt>
      <trkpt lat="45.05513" lon="4.10247">
        <ele>994.8</ele>
        <time>2026-04-26T06:55:43Z</time>
      </trkpt>
      <trkpt lat="45.05506" lon="4.1024">
        <ele>994.2</ele>
        <time>2026-04-26T06:55:48Z</time>
      </trkpt>
      <trkpt lat="45.055" lon="4.10234">
        <ele>993.7</ele>
        <time>2026-04-26T06:55:53Z</time>
      </trkpt>
      <trkpt lat="45.05494" lon="4.10229">
        <ele>993.5</ele>
        <time>2026-04-26T06:55:58Z</time>
      </trkpt>
      <trkpt lat="45.05492" lon="4.10221">
        <ele>992.6</ele>
        <time>2026-04-26T06:56:03Z</time>
      </trkpt>
      <trkpt lat="45.0549" lon="4.10213">
        <ele>991.7</ele>
        <time>2026-04-26T06:56:08Z</time>
      </trkpt>
      <trkpt lat="45.05489" lon="4.10208">
        <ele>991.1</ele>
        <time>2026-04-26T06:56:13Z</time>
      </trkpt>
      <trkpt lat="45.05488" lon="4.10203">
        <ele>990.6</ele>
        <time>2026-04-26T06:56:18Z</time>
      </trkpt>
      <trkpt lat="45.05484" lon="4.10198">
        <ele>990.4</ele>
        <time>2026-04-26T06:56:23Z</time>
      </trkpt>
      <trkpt lat="45.05479" lon="4.10193">
        <ele>990.3</ele>
        <time>2026-04-26T06:56:28Z</time>
      </trkpt>
      <trkpt lat="45.05475" lon="4.10188">
        <ele>990.2</ele>
        <time>2026-04-26T06:56:33Z</time>
      </trkpt>
      <trkpt lat="45.05472" lon="4.10184">
        <ele>990.1</ele>
        <time>2026-04-26T06:56:38Z</time>
      </trkpt>
      <trkpt lat="45.05468" lon="4.10178">
        <ele>989.9</ele>
        <time>2026-04-26T06:56:43Z</time>
      </trkpt>
      <trkpt lat="45.05464" lon="4.10171">
        <ele>989.7</ele>
        <time>2026-04-26T06:56:48Z</time>
      </trkpt>
      <trkpt lat="45.05459" lon="4.10162">
        <ele>989.6</ele>
        <time>2026-04-26T06:56:53Z</time>
      </trkpt>
      <trkpt lat="45.05454" lon="4.10158">
        <ele>990.1</ele>
        <time>2026-04-26T06:56:58Z</time>
      </trkpt>
      <trkpt lat="45.0545" lon="4.10155">
        <ele>990.5</ele>
        <time>2026-04-26T06:57:03Z</time>
      </trkpt>
      <trkpt lat="45.05446" lon="4.10153">
        <ele>990.9</ele>
        <time>2026-04-26T06:57:08Z</time>
      </trkpt>
      <trkpt lat="45.05442" lon="4.10153">
        <ele>991.5</ele>
        <time>2026-04-26T06:57:13Z</time>
      </trkpt>
      <trkpt lat="45.05437" lon="4.10152">
        <ele>992.2</ele>
        <time>2026-04-26T06:57:18Z</time>
      </trkpt>
      <trkpt lat="45.05431" lon="4.10152">
        <ele>993.1</ele>
        <time>2026-04-26T06:57:23Z</time>
      </trkpt>
      <trkpt lat="45.05425" lon="4.1015">
        <ele>993.9</ele>
        <time>2026-04-26T06:57:28Z</time>
      </trkpt>
      <trkpt lat="45.05423" lon="4.10145">
        <ele>994</ele>
        <time>2026-04-26T06:57:33Z</time>
      </trkpt>
      <trkpt lat="45.05425" lon="4.10143">
        <ele>993.6</ele>
        <time>2026-04-26T06:57:38Z</time>
      </trkpt>
      <trkpt lat="45.05425" lon="4.10143">
        <ele>993.6</ele>
        <time>2026-04-26T06:57:43Z</time>
      </trkpt>
      <trkpt lat="45.05417" lon="4.10142">
        <ele>994.8</ele>
        <time>2026-04-26T06:57:48Z</time>
      </trkpt>
      <trkpt lat="45.05412" lon="4.10137">
        <ele>995.4</ele>
        <time>2026-04-26T06:57:53Z</time>
      </trkpt>
      <trkpt lat="45.05409" lon="4.10134">
        <ele>995.8</ele>
        <time>2026-04-26T06:57:58Z</time>
      </trkpt>
      <trkpt lat="45.05408" lon="4.10134">
        <ele>995.9</ele>
        <time>2026-04-26T06:58:03Z</time>
      </trkpt>
      <trkpt lat="45.05408" lon="4.10134">
        <ele>995.9</ele>
        <time>2026-04-26T06:58:08Z</time>
      </trkpt>
      <trkpt lat="45.05408" lon="4.10134">
        <ele>995.9</ele>
        <time>2026-04-26T06:58:13Z</time>
      </trkpt>
      <trkpt lat="45.05408" lon="4.10134">
        <ele>995.9</ele>
        <time>2026-04-26T06:58:18Z</time>
      </trkpt>
      <trkpt lat="45.05408" lon="4.10134">
        <ele>995.9</ele>
        <time>2026-04-26T06:58:23Z</time>
      </trkpt>
      <trkpt lat="45.05406" lon="4.1012">
        <ele>995.7</ele>
        <time>2026-04-26T06:58:28Z</time>
      </trkpt>
      <trkpt lat="45.05405" lon="4.10118">
        <ele>995.8</ele>
        <time>2026-04-26T06:58:33Z</time>
      </trkpt>
      <trkpt lat="45.05401" lon="4.10112">
        <ele>996.3</ele>
        <time>2026-04-26T06:58:38Z</time>
      </trkpt>
      <trkpt lat="45.05398" lon="4.10106">
        <ele>996.7</ele>
        <time>2026-04-26T06:58:43Z</time>
      </trkpt>
      <trkpt lat="45.05395" lon="4.10101">
        <ele>997</ele>
        <time>2026-04-26T06:58:48Z</time>
      </trkpt>
      <trkpt lat="45.05393" lon="4.10097">
        <ele>997.3</ele>
        <time>2026-04-26T06:58:53Z</time>
      </trkpt>
      <trkpt lat="45.05393" lon="4.10094">
        <ele>997.2</ele>
        <time>2026-04-26T06:58:58Z</time>
      </trkpt>
      <trkpt lat="45.05388" lon="4.10089">
        <ele>998</ele>
        <time>2026-04-26T06:59:03Z</time>
      </trkpt>
      <trkpt lat="45.05384" lon="4.10082">
        <ele>998.6</ele>
        <time>2026-04-26T06:59:08Z</time>
      </trkpt>
      <trkpt lat="45.05381" lon="4.10075">
        <ele>999.1</ele>
        <time>2026-04-26T06:59:13Z</time>
      </trkpt>
      <trkpt lat="45.05378" lon="4.10065">
        <ele>999.6</ele>
        <time>2026-04-26T06:59:18Z</time>
      </trkpt>
      <trkpt lat="45.05376" lon="4.10056">
        <ele>999.9</ele>
        <time>2026-04-26T06:59:23Z</time>
      </trkpt>
      <trkpt lat="45.05374" lon="4.10046">
        <ele>1000.3</ele>
        <time>2026-04-26T06:59:28Z</time>
      </trkpt>
      <trkpt lat="45.05373" lon="4.10037">
        <ele>1000.4</ele>
        <time>2026-04-26T06:59:33Z</time>
      </trkpt>
      <trkpt lat="45.05373" lon="4.10027">
        <ele>1000.3</ele>
        <time>2026-04-26T06:59:38Z</time>
      </trkpt>
      <trkpt lat="45.05371" lon="4.10018">
        <ele>1000.8</ele>
        <time>2026-04-26T06:59:43Z</time>
      </trkpt>
      <trkpt lat="45.05369" lon="4.10008">
        <ele>1001.2</ele>
        <time>2026-04-26T06:59:48Z</time>
      </trkpt>
      <trkpt lat="45.05368" lon="4.09997">
        <ele>1001.3</ele>
        <time>2026-04-26T06:59:53Z</time>
      </trkpt>
      <trkpt lat="45.05367" lon="4.09986">
        <ele>1001.3</ele>
        <time>2026-04-26T06:59:58Z</time>
      </trkpt>
      <trkpt lat="45.05366" lon="4.09979">
        <ele>1001.3</ele>
        <time>2026-04-26T07:00:03Z</time>
      </trkpt>
      <trkpt lat="45.05365" lon="4.09968">
        <ele>1001.3</ele>
        <time>2026-04-26T07:00:08Z</time>
      </trkpt>
      <trkpt lat="45.05364" lon="4.09958">
        <ele>1001.4</ele>
        <time>2026-04-26T07:00:13Z</time>
      </trkpt>
      <trkpt lat="45.05362" lon="4.09946">
        <ele>1001.7</ele>
        <time>2026-04-26T07:00:18Z</time>
      </trkpt>
      <trkpt lat="45.05361" lon="4.09938">
        <ele>1001.9</ele>
        <time>2026-04-26T07:00:23Z</time>
      </trkpt>
      <trkpt lat="45.05358" lon="4.09927">
        <ele>1002.7</ele>
        <time>2026-04-26T07:00:28Z</time>
      </trkpt>
      <trkpt lat="45.05357" lon="4.09917">
        <ele>1002.9</ele>
        <time>2026-04-26T07:00:33Z</time>
      </trkpt>
      <trkpt lat="45.05355" lon="4.09909">
        <ele>1003.5</ele>
        <time>2026-04-26T07:00:38Z</time>
      </trkpt>
      <trkpt lat="45.05353" lon="4.09903">
        <ele>1004.1</ele>
        <time>2026-04-26T07:00:43Z</time>
      </trkpt>
      <trkpt lat="45.0535" lon="4.09894">
        <ele>1005.1</ele>
        <time>2026-04-26T07:00:48Z</time>
      </trkpt>
      <trkpt lat="45.05348" lon="4.09885">
        <ele>1005.7</ele>
        <time>2026-04-26T07:00:53Z</time>
      </trkpt>
      <trkpt lat="45.05345" lon="4.09877">
        <ele>1006.8</ele>
        <time>2026-04-26T07:00:58Z</time>
      </trkpt>
      <trkpt lat="45.05344" lon="4.09868">
        <ele>1007</ele>
        <time>2026-04-26T07:01:03Z</time>
      </trkpt>
      <trkpt lat="45.0534" lon="4.09861">
        <ele>1008.6</ele>
        <time>2026-04-26T07:01:08Z</time>
      </trkpt>
      <trkpt lat="45.05336" lon="4.09853">
        <ele>1010.1</ele>
        <time>2026-04-26T07:01:13Z</time>
      </trkpt>
      <trkpt lat="45.05333" lon="4.09845">
        <ele>1011.2</ele>
        <time>2026-04-26T07:01:18Z</time>
      </trkpt>
      <trkpt lat="45.05332" lon="4.09836">
        <ele>1011.5</ele>
        <time>2026-04-26T07:01:23Z</time>
      </trkpt>
      <trkpt lat="45.05327" lon="4.09828">
        <ele>1012.9</ele>
        <time>2026-04-26T07:01:28Z</time>
      </trkpt>
      <trkpt lat="45.05328" lon="4.09822">
        <ele>1012.3</ele>
        <time>2026-04-26T07:01:33Z</time>
      </trkpt>
      <trkpt lat="45.05328" lon="4.09822">
        <ele>1012.3</ele>
        <time>2026-04-26T07:01:38Z</time>
      </trkpt>
      <trkpt lat="45.05328" lon="4.09822">
        <ele>1012.3</ele>
        <time>2026-04-26T07:01:43Z</time>
      </trkpt>
      <trkpt lat="45.05328" lon="4.09819">
        <ele>1012.2</ele>
        <time>2026-04-26T07:01:48Z</time>
      </trkpt>
      <trkpt lat="45.05328" lon="4.09819">
        <ele>1012.2</ele>
        <time>2026-04-26T07:01:53Z</time>
      </trkpt>
      <trkpt lat="45.05328" lon="4.09819">
        <ele>1012.2</ele>
        <time>2026-04-26T07:01:58Z</time>
      </trkpt>
      <trkpt lat="45.05328" lon="4.09819">
        <ele>1012.2</ele>
        <time>2026-04-26T07:02:03Z</time>
      </trkpt>
      <trkpt lat="45.05326" lon="4.09808">
        <ele>1012.5</ele>
        <time>2026-04-26T07:02:08Z</time>
      </trkpt>
      <trkpt lat="45.0532" lon="4.09799">
        <ele>1014.1</ele>
        <time>2026-04-26T07:02:13Z</time>
      </trkpt>
      <trkpt lat="45.05319" lon="4.09799">
        <ele>1014.5</ele>
        <time>2026-04-26T07:02:18Z</time>
      </trkpt>
      <trkpt lat="45.05318" lon="4.098">
        <ele>1014.8</ele>
        <time>2026-04-26T07:02:23Z</time>
      </trkpt>
      <trkpt lat="45.05318" lon="4.098">
        <ele>1014.8</ele>
        <time>2026-04-26T07:02:28Z</time>
      </trkpt>
      <trkpt lat="45.05318" lon="4.098">
        <ele>1014.8</ele>
        <time>2026-04-26T07:02:33Z</time>
      </trkpt>
      <trkpt lat="45.05318" lon="4.098">
        <ele>1014.8</ele>
        <time>2026-04-26T07:02:38Z</time>
      </trkpt>
      <trkpt lat="45.05318" lon="4.098">
        <ele>1014.8</ele>
        <time>2026-04-26T07:02:43Z</time>
      </trkpt>
      <trkpt lat="45.05314" lon="4.09789">
        <ele>1015.8</ele>
        <time>2026-04-26T07:02:48Z</time>
      </trkpt>
      <trkpt lat="45.0531" lon="4.09777">
        <ele>1016.7</ele>
        <time>2026-04-26T07:02:53Z</time>
      </trkpt>
      <trkpt lat="45.05308" lon="4.09765">
        <ele>1017</ele>
        <time>2026-04-26T07:02:58Z</time>
      </trkpt>
      <trkpt lat="45.05308" lon="4.09758">
        <ele>1016.8</ele>
        <time>2026-04-26T07:03:03Z</time>
      </trkpt>
      <trkpt lat="45.05306" lon="4.0975">
        <ele>1017.2</ele>
        <time>2026-04-26T07:03:08Z</time>
      </trkpt>
      <trkpt lat="45.05303" lon="4.09742">
        <ele>1017.9</ele>
        <time>2026-04-26T07:03:13Z</time>
      </trkpt>
      <trkpt lat="45.05303" lon="4.09731">
        <ele>1017.5</ele>
        <time>2026-04-26T07:03:18Z</time>
      </trkpt>
      <trkpt lat="45.05301" lon="4.09722">
        <ele>1017.8</ele>
        <time>2026-04-26T07:03:23Z</time>
      </trkpt>
      <trkpt lat="45.05295" lon="4.09713">
        <ele>1019.4</ele>
        <time>2026-04-26T07:03:28Z</time>
      </trkpt>
      <trkpt lat="45.05288" lon="4.09709">
        <ele>1021.4</ele>
        <time>2026-04-26T07:03:33Z</time>
      </trkpt>
      <trkpt lat="45.05283" lon="4.09706">
        <ele>1022.9</ele>
        <time>2026-04-26T07:03:38Z</time>
      </trkpt>
      <trkpt lat="45.05278" lon="4.09706">
        <ele>1024.5</ele>
        <time>2026-04-26T07:03:43Z</time>
      </trkpt>
      <trkpt lat="45.05277" lon="4.09704">
        <ele>1024.7</ele>
        <time>2026-04-26T07:03:48Z</time>
      </trkpt>
      <trkpt lat="45.05277" lon="4.097">
        <ele>1024.5</ele>
        <time>2026-04-26T07:03:53Z</time>
      </trkpt>
      <trkpt lat="45.05276" lon="4.09696">
        <ele>1024.6</ele>
        <time>2026-04-26T07:03:58Z</time>
      </trkpt>
      <trkpt lat="45.05273" lon="4.09689">
        <ele>1025.2</ele>
        <time>2026-04-26T07:04:03Z</time>
      </trkpt>
      <trkpt lat="45.05266" lon="4.09681">
        <ele>1027</ele>
        <time>2026-04-26T07:04:08Z</time>
      </trkpt>
      <trkpt lat="45.05263" lon="4.09673">
        <ele>1027.4</ele>
        <time>2026-04-26T07:04:13Z</time>
      </trkpt>
      <trkpt lat="45.05259" lon="4.09667">
        <ele>1028.3</ele>
        <time>2026-04-26T07:04:18Z</time>
      </trkpt>
      <trkpt lat="45.05256" lon="4.09664">
        <ele>1029</ele>
        <time>2026-04-26T07:04:23Z</time>
      </trkpt>
      <trkpt lat="45.05253" lon="4.0966">
        <ele>1029.5</ele>
        <time>2026-04-26T07:04:28Z</time>
      </trkpt>
      <trkpt lat="45.05251" lon="4.09654">
        <ele>1029.5</ele>
        <time>2026-04-26T07:04:33Z</time>
      </trkpt>
      <trkpt lat="45.05247" lon="4.09648">
        <ele>1030.1</ele>
        <time>2026-04-26T07:04:38Z</time>
      </trkpt>
      <trkpt lat="45.05243" lon="4.09644">
        <ele>1030.8</ele>
        <time>2026-04-26T07:04:43Z</time>
      </trkpt>
      <trkpt lat="45.05239" lon="4.09638">
        <ele>1031.2</ele>
        <time>2026-04-26T07:04:48Z</time>
      </trkpt>
      <trkpt lat="45.05235" lon="4.09631">
        <ele>1031.5</ele>
        <time>2026-04-26T07:04:53Z</time>
      </trkpt>
      <trkpt lat="45.05231" lon="4.09627">
        <ele>1032</ele>
        <time>2026-04-26T07:04:58Z</time>
      </trkpt>
      <trkpt lat="45.05226" lon="4.09625">
        <ele>1033</ele>
        <time>2026-04-26T07:05:03Z</time>
      </trkpt>
      <trkpt lat="45.05224" lon="4.09624">
        <ele>1033.4</ele>
        <time>2026-04-26T07:05:08Z</time>
      </trkpt>
      <trkpt lat="45.05222" lon="4.09622">
        <ele>1033.6</ele>
        <time>2026-04-26T07:05:13Z</time>
      </trkpt>
      <trkpt lat="45.05222" lon="4.09622">
        <ele>1033.6</ele>
        <time>2026-04-26T07:05:18Z</time>
      </trkpt>
      <trkpt lat="45.05217" lon="4.09614">
        <ele>1033.7</ele>
        <time>2026-04-26T07:05:23Z</time>
      </trkpt>
      <trkpt lat="45.05214" lon="4.09609">
        <ele>1033.7</ele>
        <time>2026-04-26T07:05:28Z</time>
      </trkpt>
      <trkpt lat="45.05211" lon="4.09603">
        <ele>1033.5</ele>
        <time>2026-04-26T07:05:33Z</time>
      </trkpt>
      <trkpt lat="45.05207" lon="4.09597">
        <ele>1033.4</ele>
        <time>2026-04-26T07:05:38Z</time>
      </trkpt>
      <trkpt lat="45.05204" lon="4.09592">
        <ele>1033.2</ele>
        <time>2026-04-26T07:05:43Z</time>
      </trkpt>
      <trkpt lat="45.05201" lon="4.09587">
        <ele>1033</ele>
        <time>2026-04-26T07:05:48Z</time>
      </trkpt>
      <trkpt lat="45.052" lon="4.09583">
        <ele>1032.6</ele>
        <time>2026-04-26T07:05:53Z</time>
      </trkpt>
      <trkpt lat="45.05197" lon="4.0958">
        <ele>1032.7</ele>
        <time>2026-04-26T07:05:58Z</time>
      </trkpt>
      <trkpt lat="45.05195" lon="4.09574">
        <ele>1032.2</ele>
        <time>2026-04-26T07:06:03Z</time>
      </trkpt>
      <trkpt lat="45.05191" lon="4.09567">
        <ele>1031.9</ele>
        <time>2026-04-26T07:06:08Z</time>
      </trkpt>
      <trkpt lat="45.05185" lon="4.09561">
        <ele>1032.1</ele>
        <time>2026-04-26T07:06:13Z</time>
      </trkpt>
      <trkpt lat="45.05181" lon="4.09557">
        <ele>1032.2</ele>
        <time>2026-04-26T07:06:18Z</time>
      </trkpt>
      <trkpt lat="45.05175" lon="4.09553">
        <ele>1032.5</ele>
        <time>2026-04-26T07:06:23Z</time>
      </trkpt>
      <trkpt lat="45.05171" lon="4.09548">
        <ele>1032.4</ele>
        <time>2026-04-26T07:06:28Z</time>
      </trkpt>
      <trkpt lat="45.05167" lon="4.09542">
        <ele>1032</ele>
        <time>2026-04-26T07:06:33Z</time>
      </trkpt>
      <trkpt lat="45.05163" lon="4.09539">
        <ele>1032.5</ele>
        <time>2026-04-26T07:06:38Z</time>
      </trkpt>
      <trkpt lat="45.05159" lon="4.09534">
        <ele>1032.7</ele>
        <time>2026-04-26T07:06:43Z</time>
      </trkpt>
      <trkpt lat="45.05156" lon="4.0953">
        <ele>1032.7</ele>
        <time>2026-04-26T07:06:48Z</time>
      </trkpt>
      <trkpt lat="45.05153" lon="4.09528">
        <ele>1033.1</ele>
        <time>2026-04-26T07:06:53Z</time>
      </trkpt>
      <trkpt lat="45.05147" lon="4.09522">
        <ele>1033.6</ele>
        <time>2026-04-26T07:06:58Z</time>
      </trkpt>
      <trkpt lat="45.0514" lon="4.09516">
        <ele>1034.3</ele>
        <time>2026-04-26T07:07:03Z</time>
      </trkpt>
      <trkpt lat="45.05134" lon="4.09512">
        <ele>1035</ele>
        <time>2026-04-26T07:07:08Z</time>
      </trkpt>
      <trkpt lat="45.0513" lon="4.09506">
        <ele>1034.9</ele>
        <time>2026-04-26T07:07:13Z</time>
      </trkpt>
      <trkpt lat="45.05124" lon="4.09502">
        <ele>1035.6</ele>
        <time>2026-04-26T07:07:18Z</time>
      </trkpt>
      <trkpt lat="45.05119" lon="4.09496">
        <ele>1035.7</ele>
        <time>2026-04-26T07:07:23Z</time>
      </trkpt>
      <trkpt lat="45.05114" lon="4.09491">
        <ele>1036</ele>
        <time>2026-04-26T07:07:28Z</time>
      </trkpt>
      <trkpt lat="45.05106" lon="4.09485">
        <ele>1036.8</ele>
        <time>2026-04-26T07:07:33Z</time>
      </trkpt>
      <trkpt lat="45.05099" lon="4.0948">
        <ele>1037.4</ele>
        <time>2026-04-26T07:07:38Z</time>
      </trkpt>
      <trkpt lat="45.05096" lon="4.09481">
        <ele>1038.3</ele>
        <time>2026-04-26T07:07:43Z</time>
      </trkpt>
      <trkpt lat="45.05091" lon="4.09477">
        <ele>1038.6</ele>
        <time>2026-04-26T07:07:48Z</time>
      </trkpt>
      <trkpt lat="45.05084" lon="4.0947">
        <ele>1038.7</ele>
        <time>2026-04-26T07:07:53Z</time>
      </trkpt>
      <trkpt lat="45.05077" lon="4.09465">
        <ele>1038.7</ele>
        <time>2026-04-26T07:07:58Z</time>
      </trkpt>
      <trkpt lat="45.05073" lon="4.09462">
        <ele>1038.6</ele>
        <time>2026-04-26T07:08:03Z</time>
      </trkpt>
      <trkpt lat="45.05069" lon="4.09463">
        <ele>1039.3</ele>
        <time>2026-04-26T07:08:08Z</time>
      </trkpt>
      <trkpt lat="45.05067" lon="4.09458">
        <ele>1038.5</ele>
        <time>2026-04-26T07:08:13Z</time>
      </trkpt>
      <trkpt lat="45.05067" lon="4.09458">
        <ele>1038.5</ele>
        <time>2026-04-26T07:08:18Z</time>
      </trkpt>
      <trkpt lat="45.05067" lon="4.09458">
        <ele>1038.5</ele>
        <time>2026-04-26T07:08:23Z</time>
      </trkpt>
      <trkpt lat="45.05067" lon="4.09458">
        <ele>1038.5</ele>
        <time>2026-04-26T07:08:28Z</time>
      </trkpt>
      <trkpt lat="45.05058" lon="4.09452">
        <ele>1038.2</ele>
        <time>2026-04-26T07:08:33Z</time>
      </trkpt>
      <trkpt lat="45.05053" lon="4.09445">
        <ele>1037.2</ele>
        <time>2026-04-26T07:08:38Z</time>
      </trkpt>
      <trkpt lat="45.05046" lon="4.09442">
        <ele>1037.3</ele>
        <time>2026-04-26T07:08:43Z</time>
      </trkpt>
      <trkpt lat="45.05039" lon="4.09438">
        <ele>1037</ele>
        <time>2026-04-26T07:08:48Z</time>
      </trkpt>
      <trkpt lat="45.05031" lon="4.09434">
        <ele>1036.8</ele>
        <time>2026-04-26T07:08:53Z</time>
      </trkpt>
      <trkpt lat="45.05026" lon="4.09433">
        <ele>1037.1</ele>
        <time>2026-04-26T07:08:58Z</time>
      </trkpt>
      <trkpt lat="45.0502" lon="4.09431">
        <ele>1037.2</ele>
        <time>2026-04-26T07:09:03Z</time>
      </trkpt>
      <trkpt lat="45.05013" lon="4.0943">
        <ele>1037.6</ele>
        <time>2026-04-26T07:09:08Z</time>
      </trkpt>
      <trkpt lat="45.05008" lon="4.09429">
        <ele>1037.8</ele>
        <time>2026-04-26T07:09:13Z</time>
      </trkpt>
      <trkpt lat="45.05002" lon="4.09429">
        <ele>1038.4</ele>
        <time>2026-04-26T07:09:18Z</time>
      </trkpt>
      <trkpt lat="45.04995" lon="4.09426">
        <ele>1038</ele>
        <time>2026-04-26T07:09:23Z</time>
      </trkpt>
      <trkpt lat="45.04988" lon="4.09424">
        <ele>1037.8</ele>
        <time>2026-04-26T07:09:28Z</time>
      </trkpt>
      <trkpt lat="45.04985" lon="4.09424">
        <ele>1038</ele>
        <time>2026-04-26T07:09:33Z</time>
      </trkpt>
      <trkpt lat="45.04978" lon="4.09424">
        <ele>1038.4</ele>
        <time>2026-04-26T07:09:38Z</time>
      </trkpt>
      <trkpt lat="45.0497" lon="4.09422">
        <ele>1038.3</ele>
        <time>2026-04-26T07:09:43Z</time>
      </trkpt>
      <trkpt lat="45.04963" lon="4.09421">
        <ele>1038.4</ele>
        <time>2026-04-26T07:09:48Z</time>
      </trkpt>
      <trkpt lat="45.04956" lon="4.09419">
        <ele>1038.3</ele>
        <time>2026-04-26T07:09:53Z</time>
      </trkpt>
      <trkpt lat="45.0495" lon="4.09417">
        <ele>1038.1</ele>
        <time>2026-04-26T07:09:58Z</time>
      </trkpt>
      <trkpt lat="45.04947" lon="4.09419">
        <ele>1038.8</ele>
        <time>2026-04-26T07:10:03Z</time>
      </trkpt>
      <trkpt lat="45.04946" lon="4.09421">
        <ele>1039.4</ele>
        <time>2026-04-26T07:10:08Z</time>
      </trkpt>
      <trkpt lat="45.04941" lon="4.0942">
        <ele>1039.4</ele>
        <time>2026-04-26T07:10:13Z</time>
      </trkpt>
      <trkpt lat="45.04934" lon="4.09419">
        <ele>1039.6</ele>
        <time>2026-04-26T07:10:18Z</time>
      </trkpt>
      <trkpt lat="45.04926" lon="4.09413">
        <ele>1038.9</ele>
        <time>2026-04-26T07:10:23Z</time>
      </trkpt>
      <trkpt lat="45.04922" lon="4.09406">
        <ele>1038.1</ele>
        <time>2026-04-26T07:10:28Z</time>
      </trkpt>
      <trkpt lat="45.04916" lon="4.09396">
        <ele>1037</ele>
        <time>2026-04-26T07:10:33Z</time>
      </trkpt>
      <trkpt lat="45.04916" lon="4.0939">
        <ele>1036.2</ele>
        <time>2026-04-26T07:10:38Z</time>
      </trkpt>
      <trkpt lat="45.04916" lon="4.09385">
        <ele>1035.4</ele>
        <time>2026-04-26T07:10:43Z</time>
      </trkpt>
      <trkpt lat="45.04916" lon="4.09385">
        <ele>1035.4</ele>
        <time>2026-04-26T07:10:48Z</time>
      </trkpt>
      <trkpt lat="45.04915" lon="4.09389">
        <ele>1036</ele>
        <time>2026-04-26T07:10:53Z</time>
      </trkpt>
      <trkpt lat="45.04915" lon="4.09389">
        <ele>1036</ele>
        <time>2026-04-26T07:10:58Z</time>
      </trkpt>
      <trkpt lat="45.04915" lon="4.09389">
        <ele>1036</ele>
        <time>2026-04-26T07:11:03Z</time>
      </trkpt>
      <trkpt lat="45.04915" lon="4.09389">
        <ele>1036</ele>
        <time>2026-04-26T07:11:08Z</time>
      </trkpt>
      <trkpt lat="45.04911" lon="4.09392">
        <ele>1036.5</ele>
        <time>2026-04-26T07:11:13Z</time>
      </trkpt>
      <trkpt lat="45.049" lon="4.0938">
        <ele>1034.9</ele>
        <time>2026-04-26T07:11:18Z</time>
      </trkpt>
      <trkpt lat="45.04892" lon="4.0937">
        <ele>1033.6</ele>
        <time>2026-04-26T07:11:23Z</time>
      </trkpt>
      <trkpt lat="45.04887" lon="4.09368">
        <ele>1033.3</ele>
        <time>2026-04-26T07:11:28Z</time>
      </trkpt>
      <trkpt lat="45.04883" lon="4.09365">
        <ele>1033</ele>
        <time>2026-04-26T07:11:33Z</time>
      </trkpt>
      <trkpt lat="45.04878" lon="4.09362">
        <ele>1032.6</ele>
        <time>2026-04-26T07:11:38Z</time>
      </trkpt>
      <trkpt lat="45.04872" lon="4.09358">
        <ele>1032.1</ele>
        <time>2026-04-26T07:11:43Z</time>
      </trkpt>
      <trkpt lat="45.04867" lon="4.09352">
        <ele>1031.3</ele>
        <time>2026-04-26T07:11:48Z</time>
      </trkpt>
      <trkpt lat="45.04861" lon="4.09346">
        <ele>1030.5</ele>
        <time>2026-04-26T07:11:53Z</time>
      </trkpt>
      <trkpt lat="45.04855" lon="4.09339">
        <ele>1029.6</ele>
        <time>2026-04-26T07:11:58Z</time>
      </trkpt>
      <trkpt lat="45.04847" lon="4.09333">
        <ele>1028.8</ele>
        <time>2026-04-26T07:12:03Z</time>
      </trkpt>
      <trkpt lat="45.04841" lon="4.09323">
        <ele>1027.3</ele>
        <time>2026-04-26T07:12:08Z</time>
      </trkpt>
      <trkpt lat="45.04834" lon="4.09317">
        <ele>1026.4</ele>
        <time>2026-04-26T07:12:13Z</time>
      </trkpt>
      <trkpt lat="45.0483" lon="4.09313">
        <ele>1025.8</ele>
        <time>2026-04-26T07:12:18Z</time>
      </trkpt>
      <trkpt lat="45.04824" lon="4.09305">
        <ele>1024.5</ele>
        <time>2026-04-26T07:12:23Z</time>
      </trkpt>
      <trkpt lat="45.0482" lon="4.09304">
        <ele>1024.3</ele>
        <time>2026-04-26T07:12:28Z</time>
      </trkpt>
      <trkpt lat="45.04815" lon="4.09296">
        <ele>1023.1</ele>
        <time>2026-04-26T07:12:33Z</time>
      </trkpt>
      <trkpt lat="45.0481" lon="4.09287">
        <ele>1021.6</ele>
        <time>2026-04-26T07:12:38Z</time>
      </trkpt>
      <trkpt lat="45.04809" lon="4.09285">
        <ele>1021.3</ele>
        <time>2026-04-26T07:12:43Z</time>
      </trkpt>
      <trkpt lat="45.04808" lon="4.09285">
        <ele>1021.3</ele>
        <time>2026-04-26T07:12:48Z</time>
      </trkpt>
      <trkpt lat="45.04808" lon="4.09285">
        <ele>1021.3</ele>
        <time>2026-04-26T07:12:53Z</time>
      </trkpt>
      <trkpt lat="45.04808" lon="4.09285">
        <ele>1021.3</ele>
        <time>2026-04-26T07:12:58Z</time>
      </trkpt>
      <trkpt lat="45.04808" lon="4.09285">
        <ele>1021.3</ele>
        <time>2026-04-26T07:13:03Z</time>
      </trkpt>
      <trkpt lat="45.04808" lon="4.09285">
        <ele>1021.3</ele>
        <time>2026-04-26T07:13:08Z</time>
      </trkpt>
      <trkpt lat="45.04803" lon="4.09286">
        <ele>1021.5</ele>
        <time>2026-04-26T07:13:13Z</time>
      </trkpt>
      <trkpt lat="45.04796" lon="4.09276">
        <ele>1019.9</ele>
        <time>2026-04-26T07:13:18Z</time>
      </trkpt>
      <trkpt lat="45.04789" lon="4.09269">
        <ele>1018.8</ele>
        <time>2026-04-26T07:13:23Z</time>
      </trkpt>
      <trkpt lat="45.04783" lon="4.09264">
        <ele>1018.1</ele>
        <time>2026-04-26T07:13:28Z</time>
      </trkpt>
      <trkpt lat="45.04777" lon="4.09263">
        <ele>1017.9</ele>
        <time>2026-04-26T07:13:33Z</time>
      </trkpt>
      <trkpt lat="45.04771" lon="4.09259">
        <ele>1017.3</ele>
        <time>2026-04-26T07:13:38Z</time>
      </trkpt>
      <trkpt lat="45.04764" lon="4.09257">
        <ele>1017</ele>
        <time>2026-04-26T07:13:43Z</time>
      </trkpt>
      <trkpt lat="45.04755" lon="4.09255">
        <ele>1016.7</ele>
        <time>2026-04-26T07:13:48Z</time>
      </trkpt>
      <trkpt lat="45.04749" lon="4.09254">
        <ele>1016.7</ele>
        <time>2026-04-26T07:13:53Z</time>
      </trkpt>
      <trkpt lat="45.0474" lon="4.09251">
        <ele>1017.2</ele>
        <time>2026-04-26T07:13:58Z</time>
      </trkpt>
      <trkpt lat="45.04732" lon="4.09248">
        <ele>1017.7</ele>
        <time>2026-04-26T07:14:03Z</time>
      </trkpt>
      <trkpt lat="45.04724" lon="4.09246">
        <ele>1018.3</ele>
        <time>2026-04-26T07:14:08Z</time>
      </trkpt>
      <trkpt lat="45.04718" lon="4.09246">
        <ele>1018.9</ele>
        <time>2026-04-26T07:14:13Z</time>
      </trkpt>
      <trkpt lat="45.04709" lon="4.09238">
        <ele>1018.8</ele>
        <time>2026-04-26T07:14:18Z</time>
      </trkpt>
      <trkpt lat="45.04702" lon="4.09234">
        <ele>1019</ele>
        <time>2026-04-26T07:14:23Z</time>
      </trkpt>
      <trkpt lat="45.04694" lon="4.0923">
        <ele>1019.2</ele>
        <time>2026-04-26T07:14:28Z</time>
      </trkpt>
      <trkpt lat="45.04687" lon="4.09225">
        <ele>1019.3</ele>
        <time>2026-04-26T07:14:33Z</time>
      </trkpt>
      <trkpt lat="45.0468" lon="4.0922">
        <ele>1019.3</ele>
        <time>2026-04-26T07:14:38Z</time>
      </trkpt>
      <trkpt lat="45.04674" lon="4.09216">
        <ele>1019.3</ele>
        <time>2026-04-26T07:14:43Z</time>
      </trkpt>
      <trkpt lat="45.04667" lon="4.09212">
        <ele>1019.5</ele>
        <time>2026-04-26T07:14:48Z</time>
      </trkpt>
      <trkpt lat="45.04658" lon="4.0921">
        <ele>1020.6</ele>
        <time>2026-04-26T07:14:53Z</time>
      </trkpt>
      <trkpt lat="45.0465" lon="4.09206">
        <ele>1021.2</ele>
        <time>2026-04-26T07:14:58Z</time>
      </trkpt>
      <trkpt lat="45.04644" lon="4.09203">
        <ele>1021.6</ele>
        <time>2026-04-26T07:15:03Z</time>
      </trkpt>
      <trkpt lat="45.04638" lon="4.092">
        <ele>1021.9</ele>
        <time>2026-04-26T07:15:08Z</time>
      </trkpt>
      <trkpt lat="45.04634" lon="4.09197">
        <ele>1021.8</ele>
        <time>2026-04-26T07:15:13Z</time>
      </trkpt>
      <trkpt lat="45.04627" lon="4.09195">
        <ele>1022.4</ele>
        <time>2026-04-26T07:15:18Z</time>
      </trkpt>
      <trkpt lat="45.0462" lon="4.09192">
        <ele>1022.6</ele>
        <time>2026-04-26T07:15:23Z</time>
      </trkpt>
      <trkpt lat="45.04612" lon="4.09187">
        <ele>1022.4</ele>
        <time>2026-04-26T07:15:28Z</time>
      </trkpt>
      <trkpt lat="45.04604" lon="4.09183">
        <ele>1022.4</ele>
        <time>2026-04-26T07:15:33Z</time>
      </trkpt>
      <trkpt lat="45.04597" lon="4.09178">
        <ele>1021.8</ele>
        <time>2026-04-26T07:15:38Z</time>
      </trkpt>
      <trkpt lat="45.04589" lon="4.09171">
        <ele>1020.7</ele>
        <time>2026-04-26T07:15:43Z</time>
      </trkpt>
      <trkpt lat="45.04583" lon="4.09168">
        <ele>1020.4</ele>
        <time>2026-04-26T07:15:48Z</time>
      </trkpt>
      <trkpt lat="45.04575" lon="4.09164">
        <ele>1020.1</ele>
        <time>2026-04-26T07:15:53Z</time>
      </trkpt>
      <trkpt lat="45.04569" lon="4.09162">
        <ele>1020.1</ele>
        <time>2026-04-26T07:15:58Z</time>
      </trkpt>
      <trkpt lat="45.04562" lon="4.0916">
        <ele>1020.2</ele>
        <time>2026-04-26T07:16:03Z</time>
      </trkpt>
      <trkpt lat="45.04554" lon="4.09159">
        <ele>1020.5</ele>
        <time>2026-04-26T07:16:08Z</time>
      </trkpt>
      <trkpt lat="45.04547" lon="4.09157">
        <ele>1020.6</ele>
        <time>2026-04-26T07:16:13Z</time>
      </trkpt>
      <trkpt lat="45.04544" lon="4.0916">
        <ele>1021.4</ele>
        <time>2026-04-26T07:16:18Z</time>
      </trkpt>
      <trkpt lat="45.04544" lon="4.09162">
        <ele>1021.8</ele>
        <time>2026-04-26T07:16:23Z</time>
      </trkpt>
      <trkpt lat="45.04542" lon="4.09163">
        <ele>1022.2</ele>
        <time>2026-04-26T07:16:28Z</time>
      </trkpt>
      <trkpt lat="45.04533" lon="4.09157">
        <ele>1021.5</ele>
        <time>2026-04-26T07:16:33Z</time>
      </trkpt>
      <trkpt lat="45.04527" lon="4.09152">
        <ele>1020.7</ele>
        <time>2026-04-26T07:16:38Z</time>
      </trkpt>
      <trkpt lat="45.04521" lon="4.09148">
        <ele>1020.1</ele>
        <time>2026-04-26T07:16:43Z</time>
      </trkpt>
      <trkpt lat="45.04517" lon="4.09143">
        <ele>1019.2</ele>
        <time>2026-04-26T07:16:48Z</time>
      </trkpt>
      <trkpt lat="45.04513" lon="4.09139">
        <ele>1018.4</ele>
        <time>2026-04-26T07:16:53Z</time>
      </trkpt>
      <trkpt lat="45.04509" lon="4.0913">
        <ele>1016.4</ele>
        <time>2026-04-26T07:16:58Z</time>
      </trkpt>
      <trkpt lat="45.04504" lon="4.09119">
        <ele>1013.9</ele>
        <time>2026-04-26T07:17:03Z</time>
      </trkpt>
      <trkpt lat="45.04499" lon="4.09111">
        <ele>1011.9</ele>
        <time>2026-04-26T07:17:08Z</time>
      </trkpt>
      <trkpt lat="45.04493" lon="4.09104">
        <ele>1009.9</ele>
        <time>2026-04-26T07:17:13Z</time>
      </trkpt>
      <trkpt lat="45.04487" lon="4.09098">
        <ele>1008.1</ele>
        <time>2026-04-26T07:17:18Z</time>
      </trkpt>
      <trkpt lat="45.04481" lon="4.09092">
        <ele>1006.3</ele>
        <time>2026-04-26T07:17:23Z</time>
      </trkpt>
      <trkpt lat="45.04475" lon="4.09086">
        <ele>1004.5</ele>
        <time>2026-04-26T07:17:28Z</time>
      </trkpt>
      <trkpt lat="45.0447" lon="4.09077">
        <ele>1002.8</ele>
        <time>2026-04-26T07:17:33Z</time>
      </trkpt>
      <trkpt lat="45.04462" lon="4.09069">
        <ele>1001.4</ele>
        <time>2026-04-26T07:17:38Z</time>
      </trkpt>
      <trkpt lat="45.04455" lon="4.09065">
        <ele>1000.5</ele>
        <time>2026-04-26T07:17:43Z</time>
      </trkpt>
      <trkpt lat="45.0445" lon="4.09056">
        <ele>999.1</ele>
        <time>2026-04-26T07:17:48Z</time>
      </trkpt>
      <trkpt lat="45.04445" lon="4.09048">
        <ele>997.7</ele>
        <time>2026-04-26T07:17:53Z</time>
      </trkpt>
      <trkpt lat="45.04441" lon="4.09042">
        <ele>996.7</ele>
        <time>2026-04-26T07:17:58Z</time>
      </trkpt>
      <trkpt lat="45.04437" lon="4.09034">
        <ele>995.3</ele>
        <time>2026-04-26T07:18:03Z</time>
      </trkpt>
      <trkpt lat="45.04432" lon="4.09026">
        <ele>993.9</ele>
        <time>2026-04-26T07:18:08Z</time>
      </trkpt>
      <trkpt lat="45.04429" lon="4.09021">
        <ele>992.9</ele>
        <time>2026-04-26T07:18:13Z</time>
      </trkpt>
      <trkpt lat="45.04424" lon="4.09017">
        <ele>992</ele>
        <time>2026-04-26T07:18:18Z</time>
      </trkpt>
      <trkpt lat="45.04419" lon="4.09014">
        <ele>991.2</ele>
        <time>2026-04-26T07:18:23Z</time>
      </trkpt>
      <trkpt lat="45.04414" lon="4.09011">
        <ele>990.4</ele>
        <time>2026-04-26T07:18:28Z</time>
      </trkpt>
      <trkpt lat="45.0441" lon="4.09008">
        <ele>989.8</ele>
        <time>2026-04-26T07:18:33Z</time>
      </trkpt>
      <trkpt lat="45.04404" lon="4.09005">
        <ele>989</ele>
        <time>2026-04-26T07:18:38Z</time>
      </trkpt>
      <trkpt lat="45.04399" lon="4.09">
        <ele>987.9</ele>
        <time>2026-04-26T07:18:43Z</time>
      </trkpt>
      <trkpt lat="45.04395" lon="4.08995">
        <ele>987</ele>
        <time>2026-04-26T07:18:48Z</time>
      </trkpt>
      <trkpt lat="45.04391" lon="4.08991">
        <ele>986.1</ele>
        <time>2026-04-26T07:18:53Z</time>
      </trkpt>
      <trkpt lat="45.04392" lon="4.08989">
        <ele>985.9</ele>
        <time>2026-04-26T07:18:58Z</time>
      </trkpt>
      <trkpt lat="45.04392" lon="4.08988">
        <ele>985.7</ele>
        <time>2026-04-26T07:19:03Z</time>
      </trkpt>
      <trkpt lat="45.04392" lon="4.08988">
        <ele>985.7</ele>
        <time>2026-04-26T07:19:08Z</time>
      </trkpt>
      <trkpt lat="45.04392" lon="4.08988">
        <ele>985.7</ele>
        <time>2026-04-26T07:19:13Z</time>
      </trkpt>
      <trkpt lat="45.04392" lon="4.08988">
        <ele>985.7</ele>
        <time>2026-04-26T07:19:18Z</time>
      </trkpt>
      <trkpt lat="45.04392" lon="4.08988">
        <ele>985.7</ele>
        <time>2026-04-26T07:19:23Z</time>
      </trkpt>
      <trkpt lat="45.04391" lon="4.08989">
        <ele>985.8</ele>
        <time>2026-04-26T07:19:28Z</time>
      </trkpt>
      <trkpt lat="45.04384" lon="4.08985">
        <ele>984.8</ele>
        <time>2026-04-26T07:19:33Z</time>
      </trkpt>
      <trkpt lat="45.04378" lon="4.08984">
        <ele>984.4</ele>
        <time>2026-04-26T07:19:38Z</time>
      </trkpt>
      <trkpt lat="45.04374" lon="4.08983">
        <ele>984</ele>
        <time>2026-04-26T07:19:43Z</time>
      </trkpt>
      <trkpt lat="45.04369" lon="4.0898">
        <ele>983.3</ele>
        <time>2026-04-26T07:19:48Z</time>
      </trkpt>
      <trkpt lat="45.04364" lon="4.08977">
        <ele>982.6</ele>
        <time>2026-04-26T07:19:53Z</time>
      </trkpt>
      <trkpt lat="45.04358" lon="4.08974">
        <ele>981.9</ele>
        <time>2026-04-26T07:19:58Z</time>
      </trkpt>
      <trkpt lat="45.04354" lon="4.08973">
        <ele>981.5</ele>
        <time>2026-04-26T07:20:03Z</time>
      </trkpt>
      <trkpt lat="45.04348" lon="4.08969">
        <ele>980.7</ele>
        <time>2026-04-26T07:20:08Z</time>
      </trkpt>
      <trkpt lat="45.04342" lon="4.08965">
        <ele>979.8</ele>
        <time>2026-04-26T07:20:13Z</time>
      </trkpt>
      <trkpt lat="45.04337" lon="4.08961">
        <ele>979</ele>
        <time>2026-04-26T07:20:18Z</time>
      </trkpt>
      <trkpt lat="45.04332" lon="4.08957">
        <ele>978.3</ele>
        <time>2026-04-26T07:20:23Z</time>
      </trkpt>
      <trkpt lat="45.04327" lon="4.08952">
        <ele>977.4</ele>
        <time>2026-04-26T07:20:28Z</time>
      </trkpt>
      <trkpt lat="45.04322" lon="4.08948">
        <ele>976.6</ele>
        <time>2026-04-26T07:20:33Z</time>
      </trkpt>
      <trkpt lat="45.04317" lon="4.08942">
        <ele>975.6</ele>
        <time>2026-04-26T07:20:38Z</time>
      </trkpt>
      <trkpt lat="45.04313" lon="4.08934">
        <ele>974.3</ele>
        <time>2026-04-26T07:20:43Z</time>
      </trkpt>
      <trkpt lat="45.0431" lon="4.0893">
        <ele>973.6</ele>
        <time>2026-04-26T07:20:48Z</time>
      </trkpt>
      <trkpt lat="45.04307" lon="4.08928">
        <ele>973.2</ele>
        <time>2026-04-26T07:20:53Z</time>
      </trkpt>
      <trkpt lat="45.04303" lon="4.08924">
        <ele>972.5</ele>
        <time>2026-04-26T07:20:58Z</time>
      </trkpt>
      <trkpt lat="45.04299" lon="4.0892">
        <ele>971.8</ele>
        <time>2026-04-26T07:21:03Z</time>
      </trkpt>
      <trkpt lat="45.04295" lon="4.08914">
        <ele>970.7</ele>
        <time>2026-04-26T07:21:08Z</time>
      </trkpt>
      <trkpt lat="45.0429" lon="4.08909">
        <ele>969.7</ele>
        <time>2026-04-26T07:21:13Z</time>
      </trkpt>
      <trkpt lat="45.04286" lon="4.08905">
        <ele>968.8</ele>
        <time>2026-04-26T07:21:18Z</time>
      </trkpt>
      <trkpt lat="45.04281" lon="4.089">
        <ele>967.7</ele>
        <time>2026-04-26T07:21:23Z</time>
      </trkpt>
      <trkpt lat="45.04276" lon="4.08895">
        <ele>966.6</ele>
        <time>2026-04-26T07:21:28Z</time>
      </trkpt>
      <trkpt lat="45.04271" lon="4.0889">
        <ele>965.4</ele>
        <time>2026-04-26T07:21:33Z</time>
      </trkpt>
      <trkpt lat="45.04267" lon="4.08884">
        <ele>964.2</ele>
        <time>2026-04-26T07:21:38Z</time>
      </trkpt>
      <trkpt lat="45.04261" lon="4.08878">
        <ele>962.8</ele>
        <time>2026-04-26T07:21:43Z</time>
      </trkpt>
      <trkpt lat="45.04256" lon="4.08878">
        <ele>962.4</ele>
        <time>2026-04-26T07:21:48Z</time>
      </trkpt>
      <trkpt lat="45.04249" lon="4.08878">
        <ele>961.9</ele>
        <time>2026-04-26T07:21:53Z</time>
      </trkpt>
      <trkpt lat="45.04241" lon="4.08879">
        <ele>961.1</ele>
        <time>2026-04-26T07:21:58Z</time>
      </trkpt>
      <trkpt lat="45.04236" lon="4.08878">
        <ele>960.3</ele>
        <time>2026-04-26T07:22:03Z</time>
      </trkpt>
      <trkpt lat="45.04229" lon="4.08877">
        <ele>959.3</ele>
        <time>2026-04-26T07:22:08Z</time>
      </trkpt>
      <trkpt lat="45.04224" lon="4.08878">
        <ele>958.9</ele>
        <time>2026-04-26T07:22:13Z</time>
      </trkpt>
      <trkpt lat="45.04216" lon="4.08877">
        <ele>957.7</ele>
        <time>2026-04-26T07:22:18Z</time>
      </trkpt>
      <trkpt lat="45.04209" lon="4.08879">
        <ele>957.2</ele>
        <time>2026-04-26T07:22:23Z</time>
      </trkpt>
      <trkpt lat="45.04201" lon="4.0888">
        <ele>956.3</ele>
        <time>2026-04-26T07:22:28Z</time>
      </trkpt>
      <trkpt lat="45.04195" lon="4.0888">
        <ele>955.6</ele>
        <time>2026-04-26T07:22:33Z</time>
      </trkpt>
      <trkpt lat="45.04188" lon="4.08877">
        <ele>954.3</ele>
        <time>2026-04-26T07:22:38Z</time>
      </trkpt>
      <trkpt lat="45.0418" lon="4.08876">
        <ele>953.2</ele>
        <time>2026-04-26T07:22:43Z</time>
      </trkpt>
      <trkpt lat="45.04173" lon="4.08875">
        <ele>952.3</ele>
        <time>2026-04-26T07:22:48Z</time>
      </trkpt>
      <trkpt lat="45.04166" lon="4.08875">
        <ele>951.5</ele>
        <time>2026-04-26T07:22:53Z</time>
      </trkpt>
      <trkpt lat="45.0416" lon="4.08875">
        <ele>951.1</ele>
        <time>2026-04-26T07:22:58Z</time>
      </trkpt>
      <trkpt lat="45.04152" lon="4.08877">
        <ele>950.9</ele>
        <time>2026-04-26T07:23:03Z</time>
      </trkpt>
      <trkpt lat="45.04147" lon="4.08875">
        <ele>950.4</ele>
        <time>2026-04-26T07:23:08Z</time>
      </trkpt>
      <trkpt lat="45.04143" lon="4.08875">
        <ele>950.2</ele>
        <time>2026-04-26T07:23:13Z</time>
      </trkpt>
      <trkpt lat="45.04141" lon="4.08876">
        <ele>950.2</ele>
        <time>2026-04-26T07:23:18Z</time>
      </trkpt>
      <trkpt lat="45.04139" lon="4.08878">
        <ele>950.3</ele>
        <time>2026-04-26T07:23:23Z</time>
      </trkpt>
      <trkpt lat="45.04134" lon="4.08876">
        <ele>949.8</ele>
        <time>2026-04-26T07:23:28Z</time>
      </trkpt>
      <trkpt lat="45.04128" lon="4.08877">
        <ele>949.6</ele>
        <time>2026-04-26T07:23:33Z</time>
      </trkpt>
      <trkpt lat="45.04124" lon="4.08876">
        <ele>949.3</ele>
        <time>2026-04-26T07:23:38Z</time>
      </trkpt>
      <trkpt lat="45.04117" lon="4.08875">
        <ele>948.8</ele>
        <time>2026-04-26T07:23:43Z</time>
      </trkpt>
      <trkpt lat="45.04112" lon="4.08874">
        <ele>948.5</ele>
        <time>2026-04-26T07:23:48Z</time>
      </trkpt>
      <trkpt lat="45.04107" lon="4.08873">
        <ele>948.1</ele>
        <time>2026-04-26T07:23:53Z</time>
      </trkpt>
      <trkpt lat="45.04102" lon="4.08873">
        <ele>947.9</ele>
        <time>2026-04-26T07:23:58Z</time>
      </trkpt>
      <trkpt lat="45.04096" lon="4.08871">
        <ele>947.5</ele>
        <time>2026-04-26T07:24:03Z</time>
      </trkpt>
      <trkpt lat="45.04091" lon="4.08869">
        <ele>947.1</ele>
        <time>2026-04-26T07:24:08Z</time>
      </trkpt>
      <trkpt lat="45.04087" lon="4.08868">
        <ele>946.8</ele>
        <time>2026-04-26T07:24:13Z</time>
      </trkpt>
      <trkpt lat="45.04082" lon="4.08865">
        <ele>946.6</ele>
        <time>2026-04-26T07:24:18Z</time>
      </trkpt>
      <trkpt lat="45.04078" lon="4.08862">
        <ele>946.7</ele>
        <time>2026-04-26T07:24:23Z</time>
      </trkpt>
      <trkpt lat="45.04073" lon="4.0886">
        <ele>946.9</ele>
        <time>2026-04-26T07:24:28Z</time>
      </trkpt>
      <trkpt lat="45.04069" lon="4.08857">
        <ele>947</ele>
        <time>2026-04-26T07:24:33Z</time>
      </trkpt>
      <trkpt lat="45.04065" lon="4.08853">
        <ele>947.1</ele>
        <time>2026-04-26T07:24:38Z</time>
      </trkpt>
      <trkpt lat="45.04063" lon="4.08846">
        <ele>946.9</ele>
        <time>2026-04-26T07:24:43Z</time>
      </trkpt>
      <trkpt lat="45.0406" lon="4.08842">
        <ele>946.8</ele>
        <time>2026-04-26T07:24:48Z</time>
      </trkpt>
      <trkpt lat="45.04059" lon="4.08837">
        <ele>946.6</ele>
        <time>2026-04-26T07:24:53Z</time>
      </trkpt>
      <trkpt lat="45.04057" lon="4.08829">
        <ele>946.2</ele>
        <time>2026-04-26T07:24:58Z</time>
      </trkpt>
      <trkpt lat="45.04055" lon="4.08819">
        <ele>945.6</ele>
        <time>2026-04-26T07:25:03Z</time>
      </trkpt>
      <trkpt lat="45.04055" lon="4.0881">
        <ele>944.8</ele>
        <time>2026-04-26T07:25:08Z</time>
      </trkpt>
      <trkpt lat="45.04048" lon="4.08804">
        <ele>944.9</ele>
        <time>2026-04-26T07:25:13Z</time>
      </trkpt>
      <trkpt lat="45.0404" lon="4.08801">
        <ele>945.3</ele>
        <time>2026-04-26T07:25:18Z</time>
      </trkpt>
      <trkpt lat="45.04034" lon="4.08798">
        <ele>945.6</ele>
        <time>2026-04-26T07:25:23Z</time>
      </trkpt>
      <trkpt lat="45.04027" lon="4.08799">
        <ele>946.2</ele>
        <time>2026-04-26T07:25:28Z</time>
      </trkpt>
      <trkpt lat="45.04018" lon="4.08799">
        <ele>946.9</ele>
        <time>2026-04-26T07:25:33Z</time>
      </trkpt>
      <trkpt lat="45.04008" lon="4.08801">
        <ele>947.8</ele>
        <time>2026-04-26T07:25:38Z</time>
      </trkpt>
      <trkpt lat="45.04001" lon="4.08805">
        <ele>948.6</ele>
        <time>2026-04-26T07:25:43Z</time>
      </trkpt>
      <trkpt lat="45.03995" lon="4.08806">
        <ele>949.1</ele>
        <time>2026-04-26T07:25:48Z</time>
      </trkpt>
      <trkpt lat="45.03989" lon="4.08805">
        <ele>949.6</ele>
        <time>2026-04-26T07:25:53Z</time>
      </trkpt>
      <trkpt lat="45.03982" lon="4.08803">
        <ele>950.1</ele>
        <time>2026-04-26T07:25:58Z</time>
      </trkpt>
      <trkpt lat="45.03976" lon="4.08802">
        <ele>950.5</ele>
        <time>2026-04-26T07:26:03Z</time>
      </trkpt>
      <trkpt lat="45.03969" lon="4.088">
        <ele>951</ele>
        <time>2026-04-26T07:26:08Z</time>
      </trkpt>
      <trkpt lat="45.03962" lon="4.08797">
        <ele>951.4</ele>
        <time>2026-04-26T07:26:13Z</time>
      </trkpt>
      <trkpt lat="45.03956" lon="4.08792">
        <ele>951.7</ele>
        <time>2026-04-26T07:26:18Z</time>
      </trkpt>
      <trkpt lat="45.0395" lon="4.08788">
        <ele>952</ele>
        <time>2026-04-26T07:26:23Z</time>
      </trkpt>
      <trkpt lat="45.03945" lon="4.08785">
        <ele>952.3</ele>
        <time>2026-04-26T07:26:28Z</time>
      </trkpt>
      <trkpt lat="45.0394" lon="4.08783">
        <ele>952.6</ele>
        <time>2026-04-26T07:26:33Z</time>
      </trkpt>
      <trkpt lat="45.03934" lon="4.08777">
        <ele>952.8</ele>
        <time>2026-04-26T07:26:38Z</time>
      </trkpt>
      <trkpt lat="45.0393" lon="4.08769">
        <ele>952.8</ele>
        <time>2026-04-26T07:26:43Z</time>
      </trkpt>
      <trkpt lat="45.03925" lon="4.08759">
        <ele>952.7</ele>
        <time>2026-04-26T07:26:48Z</time>
      </trkpt>
      <trkpt lat="45.03921" lon="4.08751">
        <ele>952.7</ele>
        <time>2026-04-26T07:26:53Z</time>
      </trkpt>
      <trkpt lat="45.03916" lon="4.08747">
        <ele>952.9</ele>
        <time>2026-04-26T07:26:58Z</time>
      </trkpt>
      <trkpt lat="45.03911" lon="4.08744">
        <ele>952.8</ele>
        <time>2026-04-26T07:27:03Z</time>
      </trkpt>
      <trkpt lat="45.03904" lon="4.0874">
        <ele>952.8</ele>
        <time>2026-04-26T07:27:08Z</time>
      </trkpt>
      <trkpt lat="45.03897" lon="4.08738">
        <ele>952.8</ele>
        <time>2026-04-26T07:27:13Z</time>
      </trkpt>
      <trkpt lat="45.03889" lon="4.08736">
        <ele>952.9</ele>
        <time>2026-04-26T07:27:18Z</time>
      </trkpt>
      <trkpt lat="45.03882" lon="4.08733">
        <ele>952.8</ele>
        <time>2026-04-26T07:27:23Z</time>
      </trkpt>
      <trkpt lat="45.03875" lon="4.0873">
        <ele>952.8</ele>
        <time>2026-04-26T07:27:28Z</time>
      </trkpt>
      <trkpt lat="45.03869" lon="4.0873">
        <ele>952.9</ele>
        <time>2026-04-26T07:27:33Z</time>
      </trkpt>
      <trkpt lat="45.03864" lon="4.08733">
        <ele>953.2</ele>
        <time>2026-04-26T07:27:38Z</time>
      </trkpt>
      <trkpt lat="45.03863" lon="4.08741">
        <ele>953.7</ele>
        <time>2026-04-26T07:27:43Z</time>
      </trkpt>
      <trkpt lat="45.03861" lon="4.08749">
        <ele>954.3</ele>
        <time>2026-04-26T07:27:48Z</time>
      </trkpt>
      <trkpt lat="45.03859" lon="4.08757">
        <ele>955</ele>
        <time>2026-04-26T07:27:53Z</time>
      </trkpt>
      <trkpt lat="45.03856" lon="4.08764">
        <ele>955.7</ele>
        <time>2026-04-26T07:27:58Z</time>
      </trkpt>
      <trkpt lat="45.03855" lon="4.08772">
        <ele>956.5</ele>
        <time>2026-04-26T07:28:03Z</time>
      </trkpt>
      <trkpt lat="45.03854" lon="4.08779">
        <ele>957.2</ele>
        <time>2026-04-26T07:28:08Z</time>
      </trkpt>
      <trkpt lat="45.03853" lon="4.08787">
        <ele>958</ele>
        <time>2026-04-26T07:28:13Z</time>
      </trkpt>
      <trkpt lat="45.03852" lon="4.08795">
        <ele>958.8</ele>
        <time>2026-04-26T07:28:18Z</time>
      </trkpt>
      <trkpt lat="45.0385" lon="4.08804">
        <ele>959.8</ele>
        <time>2026-04-26T07:28:23Z</time>
      </trkpt>
      <trkpt lat="45.03847" lon="4.08812">
        <ele>960.8</ele>
        <time>2026-04-26T07:28:28Z</time>
      </trkpt>
      <trkpt lat="45.03845" lon="4.08817">
        <ele>961.4</ele>
        <time>2026-04-26T07:28:33Z</time>
      </trkpt>
      <trkpt lat="45.03841" lon="4.0882">
        <ele>962</ele>
        <time>2026-04-26T07:28:38Z</time>
      </trkpt>
      <trkpt lat="45.03836" lon="4.08822">
        <ele>962.6</ele>
        <time>2026-04-26T07:28:43Z</time>
      </trkpt>
      <trkpt lat="45.03831" lon="4.08825">
        <ele>963.2</ele>
        <time>2026-04-26T07:28:48Z</time>
      </trkpt>
      <trkpt lat="45.03828" lon="4.0883">
        <ele>963.8</ele>
        <time>2026-04-26T07:28:53Z</time>
      </trkpt>
      <trkpt lat="45.03823" lon="4.08836">
        <ele>964.6</ele>
        <time>2026-04-26T07:28:58Z</time>
      </trkpt>
      <trkpt lat="45.03821" lon="4.08841">
        <ele>965.3</ele>
        <time>2026-04-26T07:29:03Z</time>
      </trkpt>
      <trkpt lat="45.03822" lon="4.08844">
        <ele>965.6</ele>
        <time>2026-04-26T07:29:08Z</time>
      </trkpt>
      <trkpt lat="45.03821" lon="4.08848">
        <ele>966.2</ele>
        <time>2026-04-26T07:29:13Z</time>
      </trkpt>
      <trkpt lat="45.03821" lon="4.08848">
        <ele>966.2</ele>
        <time>2026-04-26T07:29:18Z</time>
      </trkpt>
      <trkpt lat="45.03821" lon="4.08848">
        <ele>966.2</ele>
        <time>2026-04-26T07:29:23Z</time>
      </trkpt>
      <trkpt lat="45.03821" lon="4.08848">
        <ele>966.2</ele>
        <time>2026-04-26T07:29:28Z</time>
      </trkpt>
      <trkpt lat="45.03821" lon="4.08848">
        <ele>966.2</ele>
        <time>2026-04-26T07:29:33Z</time>
      </trkpt>
      <trkpt lat="45.03821" lon="4.08848">
        <ele>966.2</ele>
        <time>2026-04-26T07:29:38Z</time>
      </trkpt>
      <trkpt lat="45.03821" lon="4.08848">
        <ele>966.2</ele>
        <time>2026-04-26T07:29:43Z</time>
      </trkpt>
      <trkpt lat="45.03821" lon="4.08848">
        <ele>966.2</ele>
        <time>2026-04-26T07:29:48Z</time>
      </trkpt>
      <trkpt lat="45.03816" lon="4.08852">
        <ele>966.7</ele>
        <time>2026-04-26T07:29:53Z</time>
      </trkpt>
      <trkpt lat="45.03812" lon="4.08856">
        <ele>967.3</ele>
        <time>2026-04-26T07:29:58Z</time>
      </trkpt>
      <trkpt lat="45.03808" lon="4.08858">
        <ele>967.6</ele>
        <time>2026-04-26T07:30:03Z</time>
      </trkpt>
      <trkpt lat="45.03808" lon="4.08858">
        <ele>967.6</ele>
        <time>2026-04-26T07:30:08Z</time>
      </trkpt>
      <trkpt lat="45.03808" lon="4.08858">
        <ele>967.6</ele>
        <time>2026-04-26T07:30:13Z</time>
      </trkpt>
      <trkpt lat="45.03805" lon="4.08861">
        <ele>968</ele>
        <time>2026-04-26T07:30:18Z</time>
      </trkpt>
      <trkpt lat="45.03801" lon="4.08866">
        <ele>968.6</ele>
        <time>2026-04-26T07:30:23Z</time>
      </trkpt>
      <trkpt lat="45.03797" lon="4.08869">
        <ele>969</ele>
        <time>2026-04-26T07:30:28Z</time>
      </trkpt>
      <trkpt lat="45.03794" lon="4.08875">
        <ele>969.7</ele>
        <time>2026-04-26T07:30:33Z</time>
      </trkpt>
      <trkpt lat="45.03792" lon="4.0888">
        <ele>970.3</ele>
        <time>2026-04-26T07:30:38Z</time>
      </trkpt>
      <trkpt lat="45.03788" lon="4.08887">
        <ele>971.1</ele>
        <time>2026-04-26T07:30:43Z</time>
      </trkpt>
      <trkpt lat="45.03787" lon="4.08893">
        <ele>971.8</ele>
        <time>2026-04-26T07:30:48Z</time>
      </trkpt>
      <trkpt lat="45.03786" lon="4.08898">
        <ele>972.3</ele>
        <time>2026-04-26T07:30:53Z</time>
      </trkpt>
      <trkpt lat="45.03787" lon="4.08905">
        <ele>973.1</ele>
        <time>2026-04-26T07:30:58Z</time>
      </trkpt>
      <trkpt lat="45.03788" lon="4.0891">
        <ele>973.7</ele>
        <time>2026-04-26T07:31:03Z</time>
      </trkpt>
      <trkpt lat="45.03789" lon="4.08916">
        <ele>974.4</ele>
        <time>2026-04-26T07:31:08Z</time>
      </trkpt>
      <trkpt lat="45.03786" lon="4.0892">
        <ele>974.7</ele>
        <time>2026-04-26T07:31:13Z</time>
      </trkpt>
      <trkpt lat="45.03782" lon="4.08921">
        <ele>974.7</ele>
        <time>2026-04-26T07:31:18Z</time>
      </trkpt>
      <trkpt lat="45.03778" lon="4.08922">
        <ele>974.7</ele>
        <time>2026-04-26T07:31:23Z</time>
      </trkpt>
      <trkpt lat="45.03775" lon="4.0892">
        <ele>974.5</ele>
        <time>2026-04-26T07:31:28Z</time>
      </trkpt>
      <trkpt lat="45.03772" lon="4.08923">
        <ele>974.7</ele>
        <time>2026-04-26T07:31:33Z</time>
      </trkpt>
      <trkpt lat="45.03769" lon="4.08929">
        <ele>975</ele>
        <time>2026-04-26T07:31:38Z</time>
      </trkpt>
      <trkpt lat="45.03768" lon="4.08935">
        <ele>975.4</ele>
        <time>2026-04-26T07:31:43Z</time>
      </trkpt>
      <trkpt lat="45.03767" lon="4.08939">
        <ele>975.7</ele>
        <time>2026-04-26T07:31:48Z</time>
      </trkpt>
      <trkpt lat="45.03766" lon="4.08945">
        <ele>976</ele>
        <time>2026-04-26T07:31:53Z</time>
      </trkpt>
      <trkpt lat="45.03765" lon="4.08952">
        <ele>976.5</ele>
        <time>2026-04-26T07:31:58Z</time>
      </trkpt>
      <trkpt lat="45.03764" lon="4.0896">
        <ele>976.9</ele>
        <time>2026-04-26T07:32:03Z</time>
      </trkpt>
      <trkpt lat="45.03763" lon="4.08966">
        <ele>977.3</ele>
        <time>2026-04-26T07:32:08Z</time>
      </trkpt>
      <trkpt lat="45.03762" lon="4.08974">
        <ele>977.8</ele>
        <time>2026-04-26T07:32:13Z</time>
      </trkpt>
      <trkpt lat="45.03762" lon="4.08981">
        <ele>978.2</ele>
        <time>2026-04-26T07:32:18Z</time>
      </trkpt>
      <trkpt lat="45.03762" lon="4.08986">
        <ele>978.5</ele>
        <time>2026-04-26T07:32:23Z</time>
      </trkpt>
      <trkpt lat="45.03761" lon="4.08991">
        <ele>978.8</ele>
        <time>2026-04-26T07:32:28Z</time>
      </trkpt>
      <trkpt lat="45.03761" lon="4.08996">
        <ele>979.1</ele>
        <time>2026-04-26T07:32:33Z</time>
      </trkpt>
      <trkpt lat="45.0376" lon="4.09002">
        <ele>979.5</ele>
        <time>2026-04-26T07:32:38Z</time>
      </trkpt>
      <trkpt lat="45.0376" lon="4.09007">
        <ele>980</ele>
        <time>2026-04-26T07:32:43Z</time>
      </trkpt>
      <trkpt lat="45.0376" lon="4.09012">
        <ele>980.4</ele>
        <time>2026-04-26T07:32:48Z</time>
      </trkpt>
      <trkpt lat="45.0376" lon="4.09016">
        <ele>980.8</ele>
        <time>2026-04-26T07:32:53Z</time>
      </trkpt>
      <trkpt lat="45.03759" lon="4.0902">
        <ele>981.1</ele>
        <time>2026-04-26T07:32:58Z</time>
      </trkpt>
      <trkpt lat="45.03759" lon="4.09024">
        <ele>981.5</ele>
        <time>2026-04-26T07:33:03Z</time>
      </trkpt>
      <trkpt lat="45.03759" lon="4.09028">
        <ele>981.8</ele>
        <time>2026-04-26T07:33:08Z</time>
      </trkpt>
      <trkpt lat="45.03758" lon="4.09034">
        <ele>982.4</ele>
        <time>2026-04-26T07:33:13Z</time>
      </trkpt>
      <trkpt lat="45.03758" lon="4.09038">
        <ele>982.7</ele>
        <time>2026-04-26T07:33:18Z</time>
      </trkpt>
      <trkpt lat="45.03758" lon="4.09042">
        <ele>983.1</ele>
        <time>2026-04-26T07:33:23Z</time>
      </trkpt>
      <trkpt lat="45.03757" lon="4.09048">
        <ele>983.6</ele>
        <time>2026-04-26T07:33:28Z</time>
      </trkpt>
      <trkpt lat="45.03756" lon="4.09055">
        <ele>984.3</ele>
        <time>2026-04-26T07:33:33Z</time>
      </trkpt>
      <trkpt lat="45.03755" lon="4.0906">
        <ele>984.7</ele>
        <time>2026-04-26T07:33:38Z</time>
      </trkpt>
      <trkpt lat="45.03754" lon="4.09065">
        <ele>985.2</ele>
        <time>2026-04-26T07:33:43Z</time>
      </trkpt>
      <trkpt lat="45.03754" lon="4.09068">
        <ele>985.5</ele>
        <time>2026-04-26T07:33:48Z</time>
      </trkpt>
      <trkpt lat="45.03754" lon="4.09071">
        <ele>985.8</ele>
        <time>2026-04-26T07:33:53Z</time>
      </trkpt>
      <trkpt lat="45.03754" lon="4.09071">
        <ele>985.8</ele>
        <time>2026-04-26T07:33:58Z</time>
      </trkpt>
      <trkpt lat="45.03753" lon="4.0908">
        <ele>986.6</ele>
        <time>2026-04-26T07:34:03Z</time>
      </trkpt>
      <trkpt lat="45.03752" lon="4.09084">
        <ele>987.1</ele>
        <time>2026-04-26T07:34:08Z</time>
      </trkpt>
      <trkpt lat="45.03751" lon="4.09087">
        <ele>987.6</ele>
        <time>2026-04-26T07:34:13Z</time>
      </trkpt>
      <trkpt lat="45.03751" lon="4.09087">
        <ele>987.6</ele>
        <time>2026-04-26T07:34:18Z</time>
      </trkpt>
      <trkpt lat="45.03748" lon="4.09093">
        <ele>988.8</ele>
        <time>2026-04-26T07:34:23Z</time>
      </trkpt>
      <trkpt lat="45.03746" lon="4.09099">
        <ele>989.9</ele>
        <time>2026-04-26T07:34:28Z</time>
      </trkpt>
      <trkpt lat="45.03745" lon="4.09105">
        <ele>991</ele>
        <time>2026-04-26T07:34:33Z</time>
      </trkpt>
      <trkpt lat="45.03742" lon="4.09112">
        <ele>992.3</ele>
        <time>2026-04-26T07:34:38Z</time>
      </trkpt>
      <trkpt lat="45.0374" lon="4.09117">
        <ele>993.3</ele>
        <time>2026-04-26T07:34:43Z</time>
      </trkpt>
      <trkpt lat="45.03738" lon="4.09122">
        <ele>994.2</ele>
        <time>2026-04-26T07:34:48Z</time>
      </trkpt>
      <trkpt lat="45.03736" lon="4.09129">
        <ele>995.6</ele>
        <time>2026-04-26T07:34:53Z</time>
      </trkpt>
      <trkpt lat="45.03733" lon="4.09135">
        <ele>996.8</ele>
        <time>2026-04-26T07:34:58Z</time>
      </trkpt>
      <trkpt lat="45.03731" lon="4.0914">
        <ele>997.7</ele>
        <time>2026-04-26T07:35:03Z</time>
      </trkpt>
      <trkpt lat="45.03729" lon="4.09145">
        <ele>998.7</ele>
        <time>2026-04-26T07:35:08Z</time>
      </trkpt>
      <trkpt lat="45.03726" lon="4.09149">
        <ele>999.6</ele>
        <time>2026-04-26T07:35:13Z</time>
      </trkpt>
      <trkpt lat="45.03722" lon="4.09153">
        <ele>1000.4</ele>
        <time>2026-04-26T07:35:18Z</time>
      </trkpt>
      <trkpt lat="45.03717" lon="4.09153">
        <ele>1000.6</ele>
        <time>2026-04-26T07:35:23Z</time>
      </trkpt>
      <trkpt lat="45.03711" lon="4.09151">
        <ele>1000.4</ele>
        <time>2026-04-26T07:35:28Z</time>
      </trkpt>
      <trkpt lat="45.03705" lon="4.09149">
        <ele>1000.2</ele>
        <time>2026-04-26T07:35:33Z</time>
      </trkpt>
      <trkpt lat="45.03699" lon="4.09148">
        <ele>1000.2</ele>
        <time>2026-04-26T07:35:38Z</time>
      </trkpt>
      <trkpt lat="45.03692" lon="4.09144">
        <ele>999.6</ele>
        <time>2026-04-26T07:35:43Z</time>
      </trkpt>
      <trkpt lat="45.03687" lon="4.0914">
        <ele>999</ele>
        <time>2026-04-26T07:35:48Z</time>
      </trkpt>
      <trkpt lat="45.03681" lon="4.09133">
        <ele>997.8</ele>
        <time>2026-04-26T07:35:53Z</time>
      </trkpt>
      <trkpt lat="45.03676" lon="4.09127">
        <ele>996.7</ele>
        <time>2026-04-26T07:35:58Z</time>
      </trkpt>
      <trkpt lat="45.0367" lon="4.09121">
        <ele>995.6</ele>
        <time>2026-04-26T07:36:03Z</time>
      </trkpt>
      <trkpt lat="45.03662" lon="4.09115">
        <ele>994</ele>
        <time>2026-04-26T07:36:08Z</time>
      </trkpt>
      <trkpt lat="45.03656" lon="4.09109">
        <ele>992.2</ele>
        <time>2026-04-26T07:36:13Z</time>
      </trkpt>
      <trkpt lat="45.03649" lon="4.09105">
        <ele>990.7</ele>
        <time>2026-04-26T07:36:18Z</time>
      </trkpt>
      <trkpt lat="45.03643" lon="4.09096">
        <ele>988.4</ele>
        <time>2026-04-26T07:36:23Z</time>
      </trkpt>
      <trkpt lat="45.03636" lon="4.09092">
        <ele>987</ele>
        <time>2026-04-26T07:36:28Z</time>
      </trkpt>
      <trkpt lat="45.03628" lon="4.0909">
        <ele>986</ele>
        <time>2026-04-26T07:36:33Z</time>
      </trkpt>
      <trkpt lat="45.03622" lon="4.0909">
        <ele>985.4</ele>
        <time>2026-04-26T07:36:38Z</time>
      </trkpt>
      <trkpt lat="45.03614" lon="4.09093">
        <ele>985.3</ele>
        <time>2026-04-26T07:36:43Z</time>
      </trkpt>
      <trkpt lat="45.03607" lon="4.09097">
        <ele>985.3</ele>
        <time>2026-04-26T07:36:48Z</time>
      </trkpt>
      <trkpt lat="45.03599" lon="4.09101">
        <ele>985.2</ele>
        <time>2026-04-26T07:36:53Z</time>
      </trkpt>
      <trkpt lat="45.03593" lon="4.09104">
        <ele>985.2</ele>
        <time>2026-04-26T07:36:58Z</time>
      </trkpt>
      <trkpt lat="45.03584" lon="4.09106">
        <ele>984.6</ele>
        <time>2026-04-26T07:37:03Z</time>
      </trkpt>
      <trkpt lat="45.03577" lon="4.09107">
        <ele>984.4</ele>
        <time>2026-04-26T07:37:08Z</time>
      </trkpt>
      <trkpt lat="45.03569" lon="4.09105">
        <ele>983.7</ele>
        <time>2026-04-26T07:37:13Z</time>
      </trkpt>
      <trkpt lat="45.03562" lon="4.09103">
        <ele>983.1</ele>
        <time>2026-04-26T07:37:18Z</time>
      </trkpt>
      <trkpt lat="45.03555" lon="4.091">
        <ele>982.4</ele>
        <time>2026-04-26T07:37:23Z</time>
      </trkpt>
      <trkpt lat="45.03548" lon="4.09096">
        <ele>981.6</ele>
        <time>2026-04-26T07:37:28Z</time>
      </trkpt>
      <trkpt lat="45.0354" lon="4.09094">
        <ele>981.1</ele>
        <time>2026-04-26T07:37:33Z</time>
      </trkpt>
      <trkpt lat="45.03533" lon="4.09091">
        <ele>980.5</ele>
        <time>2026-04-26T07:37:38Z</time>
      </trkpt>
      <trkpt lat="45.03525" lon="4.09088">
        <ele>980</ele>
        <time>2026-04-26T07:37:43Z</time>
      </trkpt>
      <trkpt lat="45.03517" lon="4.09087">
        <ele>979.7</ele>
        <time>2026-04-26T07:37:48Z</time>
      </trkpt>
      <trkpt lat="45.03509" lon="4.09086">
        <ele>979.4</ele>
        <time>2026-04-26T07:37:53Z</time>
      </trkpt>
      <trkpt lat="45.03502" lon="4.09084">
        <ele>979.1</ele>
        <time>2026-04-26T07:37:58Z</time>
      </trkpt>
      <trkpt lat="45.03495" lon="4.09084">
        <ele>978.6</ele>
        <time>2026-04-26T07:38:03Z</time>
      </trkpt>
      <trkpt lat="45.03488" lon="4.09083">
        <ele>977.8</ele>
        <time>2026-04-26T07:38:08Z</time>
      </trkpt>
      <trkpt lat="45.0348" lon="4.09083">
        <ele>977.1</ele>
        <time>2026-04-26T07:38:13Z</time>
      </trkpt>
      <trkpt lat="45.03473" lon="4.09084">
        <ele>976.4</ele>
        <time>2026-04-26T07:38:18Z</time>
      </trkpt>
      <trkpt lat="45.03465" lon="4.09087">
        <ele>975.8</ele>
        <time>2026-04-26T07:38:23Z</time>
      </trkpt>
      <trkpt lat="45.03457" lon="4.09088">
        <ele>975.1</ele>
        <time>2026-04-26T07:38:28Z</time>
      </trkpt>
      <trkpt lat="45.03449" lon="4.09091">
        <ele>974.5</ele>
        <time>2026-04-26T07:38:33Z</time>
      </trkpt>
      <trkpt lat="45.03443" lon="4.09094">
        <ele>974.1</ele>
        <time>2026-04-26T07:38:38Z</time>
      </trkpt>
      <trkpt lat="45.03435" lon="4.09099">
        <ele>973.6</ele>
        <time>2026-04-26T07:38:43Z</time>
      </trkpt>
      <trkpt lat="45.03428" lon="4.09104">
        <ele>973.1</ele>
        <time>2026-04-26T07:38:48Z</time>
      </trkpt>
      <trkpt lat="45.03421" lon="4.0911">
        <ele>972.7</ele>
        <time>2026-04-26T07:38:53Z</time>
      </trkpt>
      <trkpt lat="45.03414" lon="4.09114">
        <ele>972.1</ele>
        <time>2026-04-26T07:38:58Z</time>
      </trkpt>
      <trkpt lat="45.03406" lon="4.09118">
        <ele>971.2</ele>
        <time>2026-04-26T07:39:03Z</time>
      </trkpt>
      <trkpt lat="45.03399" lon="4.09122">
        <ele>970.4</ele>
        <time>2026-04-26T07:39:08Z</time>
      </trkpt>
      <trkpt lat="45.03392" lon="4.09128">
        <ele>969.7</ele>
        <time>2026-04-26T07:39:13Z</time>
      </trkpt>
      <trkpt lat="45.03386" lon="4.09134">
        <ele>969.2</ele>
        <time>2026-04-26T07:39:18Z</time>
      </trkpt>
      <trkpt lat="45.03379" lon="4.09141">
        <ele>968.5</ele>
        <time>2026-04-26T07:39:23Z</time>
      </trkpt>
      <trkpt lat="45.03374" lon="4.09146">
        <ele>968</ele>
        <time>2026-04-26T07:39:28Z</time>
      </trkpt>
      <trkpt lat="45.03367" lon="4.09151">
        <ele>967.2</ele>
        <time>2026-04-26T07:39:33Z</time>
      </trkpt>
      <trkpt lat="45.0336" lon="4.09157">
        <ele>966.5</ele>
        <time>2026-04-26T07:39:38Z</time>
      </trkpt>
      <trkpt lat="45.03353" lon="4.09163">
        <ele>965.7</ele>
        <time>2026-04-26T07:39:43Z</time>
      </trkpt>
      <trkpt lat="45.03347" lon="4.0917">
        <ele>965.2</ele>
        <time>2026-04-26T07:39:48Z</time>
      </trkpt>
      <trkpt lat="45.03342" lon="4.09176">
        <ele>964.8</ele>
        <time>2026-04-26T07:39:53Z</time>
      </trkpt>
      <trkpt lat="45.03337" lon="4.09184">
        <ele>964.5</ele>
        <time>2026-04-26T07:39:58Z</time>
      </trkpt>
      <trkpt lat="45.03332" lon="4.09191">
        <ele>964.3</ele>
        <time>2026-04-26T07:40:03Z</time>
      </trkpt>
      <trkpt lat="45.03326" lon="4.092">
        <ele>964.1</ele>
        <time>2026-04-26T07:40:08Z</time>
      </trkpt>
      <trkpt lat="45.0332" lon="4.09208">
        <ele>964</ele>
        <time>2026-04-26T07:40:13Z</time>
      </trkpt>
      <trkpt lat="45.03314" lon="4.09216">
        <ele>963.8</ele>
        <time>2026-04-26T07:40:18Z</time>
      </trkpt>
      <trkpt lat="45.03308" lon="4.09221">
        <ele>963.5</ele>
        <time>2026-04-26T07:40:23Z</time>
      </trkpt>
      <trkpt lat="45.033" lon="4.09227">
        <ele>963.1</ele>
        <time>2026-04-26T07:40:28Z</time>
      </trkpt>
      <trkpt lat="45.03294" lon="4.09231">
        <ele>962.8</ele>
        <time>2026-04-26T07:40:33Z</time>
      </trkpt>
      <trkpt lat="45.03287" lon="4.09235">
        <ele>962.4</ele>
        <time>2026-04-26T07:40:38Z</time>
      </trkpt>
      <trkpt lat="45.0328" lon="4.09241">
        <ele>962.1</ele>
        <time>2026-04-26T07:40:43Z</time>
      </trkpt>
      <trkpt lat="45.03275" lon="4.09243">
        <ele>961.8</ele>
        <time>2026-04-26T07:40:48Z</time>
      </trkpt>
      <trkpt lat="45.03268" lon="4.09245">
        <ele>961.3</ele>
        <time>2026-04-26T07:40:53Z</time>
      </trkpt>
      <trkpt lat="45.03262" lon="4.09249">
        <ele>961.1</ele>
        <time>2026-04-26T07:40:58Z</time>
      </trkpt>
      <trkpt lat="45.03255" lon="4.0925">
        <ele>960.5</ele>
        <time>2026-04-26T07:41:03Z</time>
      </trkpt>
      <trkpt lat="45.03247" lon="4.09253">
        <ele>960</ele>
        <time>2026-04-26T07:41:08Z</time>
      </trkpt>
      <trkpt lat="45.03239" lon="4.09257">
        <ele>959.6</ele>
        <time>2026-04-26T07:41:13Z</time>
      </trkpt>
      <trkpt lat="45.03234" lon="4.09263">
        <ele>959.7</ele>
        <time>2026-04-26T07:41:18Z</time>
      </trkpt>
      <trkpt lat="45.03229" lon="4.09269">
        <ele>959.8</ele>
        <time>2026-04-26T07:41:23Z</time>
      </trkpt>
      <trkpt lat="45.03224" lon="4.09277">
        <ele>960.1</ele>
        <time>2026-04-26T07:41:28Z</time>
      </trkpt>
      <trkpt lat="45.03221" lon="4.09281">
        <ele>960.2</ele>
        <time>2026-04-26T07:41:33Z</time>
      </trkpt>
      <trkpt lat="45.03221" lon="4.09282">
        <ele>960.3</ele>
        <time>2026-04-26T07:41:38Z</time>
      </trkpt>
      <trkpt lat="45.03225" lon="4.09275">
        <ele>960</ele>
        <time>2026-04-26T07:41:43Z</time>
      </trkpt>
      <trkpt lat="45.03227" lon="4.09266">
        <ele>959.3</ele>
        <time>2026-04-26T07:41:48Z</time>
      </trkpt>
      <trkpt lat="45.03229" lon="4.09256">
        <ele>958.6</ele>
        <time>2026-04-26T07:41:53Z</time>
      </trkpt>
      <trkpt lat="45.03228" lon="4.09246">
        <ele>957.5</ele>
        <time>2026-04-26T07:41:58Z</time>
      </trkpt>
      <trkpt lat="45.03227" lon="4.09237">
        <ele>956.6</ele>
        <time>2026-04-26T07:42:03Z</time>
      </trkpt>
      <trkpt lat="45.03227" lon="4.09226">
        <ele>955.6</ele>
        <time>2026-04-26T07:42:08Z</time>
      </trkpt>
      <trkpt lat="45.03227" lon="4.09217">
        <ele>954.7</ele>
        <time>2026-04-26T07:42:13Z</time>
      </trkpt>
      <trkpt lat="45.03228" lon="4.09207">
        <ele>953.9</ele>
        <time>2026-04-26T07:42:18Z</time>
      </trkpt>
      <trkpt lat="45.0323" lon="4.09196">
        <ele>953.1</ele>
        <time>2026-04-26T07:42:23Z</time>
      </trkpt>
      <trkpt lat="45.03228" lon="4.09187">
        <ele>952</ele>
        <time>2026-04-26T07:42:28Z</time>
      </trkpt>
      <trkpt lat="45.03226" lon="4.09175">
        <ele>950.8</ele>
        <time>2026-04-26T07:42:33Z</time>
      </trkpt>
      <trkpt lat="45.03224" lon="4.09165">
        <ele>949.7</ele>
        <time>2026-04-26T07:42:38Z</time>
      </trkpt>
      <trkpt lat="45.03223" lon="4.09156">
        <ele>949.2</ele>
        <time>2026-04-26T07:42:43Z</time>
      </trkpt>
      <trkpt lat="45.03223" lon="4.09144">
        <ele>948.6</ele>
        <time>2026-04-26T07:42:48Z</time>
      </trkpt>
      <trkpt lat="45.03222" lon="4.09131">
        <ele>947.9</ele>
        <time>2026-04-26T07:42:53Z</time>
      </trkpt>
      <trkpt lat="45.03222" lon="4.09121">
        <ele>947.5</ele>
        <time>2026-04-26T07:42:58Z</time>
      </trkpt>
      <trkpt lat="45.03221" lon="4.09109">
        <ele>946.8</ele>
        <time>2026-04-26T07:43:03Z</time>
      </trkpt>
      <trkpt lat="45.03222" lon="4.09098">
        <ele>946.4</ele>
        <time>2026-04-26T07:43:08Z</time>
      </trkpt>
      <trkpt lat="45.03223" lon="4.09087">
        <ele>945.9</ele>
        <time>2026-04-26T07:43:13Z</time>
      </trkpt>
      <trkpt lat="45.03223" lon="4.09077">
        <ele>945.3</ele>
        <time>2026-04-26T07:43:18Z</time>
      </trkpt>
      <trkpt lat="45.03223" lon="4.09071">
        <ele>944.8</ele>
        <time>2026-04-26T07:43:23Z</time>
      </trkpt>
      <trkpt lat="45.03223" lon="4.0907">
        <ele>944.8</ele>
        <time>2026-04-26T07:43:28Z</time>
      </trkpt>
      <trkpt lat="45.03223" lon="4.0907">
        <ele>944.8</ele>
        <time>2026-04-26T07:43:33Z</time>
      </trkpt>
      <trkpt lat="45.03223" lon="4.0907">
        <ele>944.8</ele>
        <time>2026-04-26T07:43:38Z</time>
      </trkpt>
      <trkpt lat="45.03223" lon="4.0907">
        <ele>944.8</ele>
        <time>2026-04-26T07:43:43Z</time>
      </trkpt>
      <trkpt lat="45.03223" lon="4.0907">
        <ele>944.8</ele>
        <time>2026-04-26T07:43:48Z</time>
      </trkpt>
      <trkpt lat="45.03223" lon="4.0907">
        <ele>944.8</ele>
        <time>2026-04-26T07:43:53Z</time>
      </trkpt>
      <trkpt lat="45.03223" lon="4.0907">
        <ele>944.8</ele>
        <time>2026-04-26T07:43:58Z</time>
      </trkpt>
      <trkpt lat="45.03223" lon="4.0907">
        <ele>944.8</ele>
        <time>2026-04-26T07:44:03Z</time>
      </trkpt>
      <trkpt lat="45.03223" lon="4.0907">
        <ele>944.8</ele>
        <time>2026-04-26T07:44:08Z</time>
      </trkpt>
      <trkpt lat="45.03223" lon="4.0907">
        <ele>944.8</ele>
        <time>2026-04-26T07:44:13Z</time>
      </trkpt>
      <trkpt lat="45.03223" lon="4.0907">
        <ele>944.8</ele>
        <time>2026-04-26T07:44:18Z</time>
      </trkpt>
      <trkpt lat="45.03223" lon="4.0907">
        <ele>944.8</ele>
        <time>2026-04-26T07:44:23Z</time>
      </trkpt>
      <trkpt lat="45.03223" lon="4.0907">
        <ele>944.8</ele>
        <time>2026-04-26T07:44:28Z</time>
      </trkpt>
      <trkpt lat="45.03223" lon="4.0907">
        <ele>944.8</ele>
        <time>2026-04-26T07:44:33Z</time>
      </trkpt>
      <trkpt lat="45.03223" lon="4.0907">
        <ele>944.8</ele>
        <time>2026-04-26T07:44:38Z</time>
      </trkpt>
      <trkpt lat="45.03223" lon="4.0907">
        <ele>944.8</ele>
        <time>2026-04-26T07:44:43Z</time>
      </trkpt>
      <trkpt lat="45.03223" lon="4.0907">
        <ele>944.8</ele>
        <time>2026-04-26T07:44:48Z</time>
      </trkpt>
      <trkpt lat="45.03223" lon="4.0907">
        <ele>944.8</ele>
        <time>2026-04-26T07:44:53Z</time>
      </trkpt>
      <trkpt lat="45.03223" lon="4.0907">
        <ele>944.8</ele>
        <time>2026-04-26T07:44:58Z</time>
      </trkpt>
      <trkpt lat="45.03223" lon="4.0907">
        <ele>944.8</ele>
        <time>2026-04-26T07:45:03Z</time>
      </trkpt>
      <trkpt lat="45.03223" lon="4.0907">
        <ele>944.8</ele>
        <time>2026-04-26T07:45:08Z</time>
      </trkpt>
      <trkpt lat="45.03223" lon="4.0907">
        <ele>944.8</ele>
        <time>2026-04-26T07:45:13Z</time>
      </trkpt>
      <trkpt lat="45.03223" lon="4.0907">
        <ele>944.8</ele>
        <time>2026-04-26T07:45:18Z</time>
      </trkpt>
      <trkpt lat="45.03223" lon="4.0907">
        <ele>944.8</ele>
        <time>2026-04-26T07:45:23Z</time>
      </trkpt>
      <trkpt lat="45.03223" lon="4.0907">
        <ele>944.8</ele>
        <time>2026-04-26T07:45:28Z</time>
      </trkpt>
      <trkpt lat="45.03223" lon="4.0907">
        <ele>944.8</ele>
        <time>2026-04-26T07:45:33Z</time>
      </trkpt>
      <trkpt lat="45.03223" lon="4.0907">
        <ele>944.8</ele>
        <time>2026-04-26T07:45:38Z</time>
      </trkpt>
      <trkpt lat="45.03223" lon="4.0907">
        <ele>944.8</ele>
        <time>2026-04-26T07:45:43Z</time>
      </trkpt>
      <trkpt lat="45.03223" lon="4.0907">
        <ele>944.8</ele>
        <time>2026-04-26T07:45:48Z</time>
      </trkpt>
      <trkpt lat="45.03223" lon="4.0907">
        <ele>944.8</ele>
        <time>2026-04-26T07:45:53Z</time>
      </trkpt>
      <trkpt lat="45.03223" lon="4.0907">
        <ele>944.8</ele>
        <time>2026-04-26T07:45:58Z</time>
      </trkpt>
      <trkpt lat="45.03223" lon="4.0907">
        <ele>944.8</ele>
        <time>2026-04-26T07:46:03Z</time>
      </trkpt>
      <trkpt lat="45.03223" lon="4.0907">
        <ele>944.8</ele>
        <time>2026-04-26T07:46:08Z</time>
      </trkpt>
      <trkpt lat="45.03223" lon="4.0907">
        <ele>944.8</ele>
        <time>2026-04-26T07:46:13Z</time>
      </trkpt>
      <trkpt lat="45.03223" lon="4.0907">
        <ele>944.8</ele>
        <time>2026-04-26T07:46:18Z</time>
      </trkpt>
      <trkpt lat="45.03223" lon="4.0907">
        <ele>944.8</ele>
        <time>2026-04-26T07:46:23Z</time>
      </trkpt>
      <trkpt lat="45.03223" lon="4.0907">
        <ele>944.8</ele>
        <time>2026-04-26T07:46:28Z</time>
      </trkpt>
      <trkpt lat="45.03223" lon="4.0907">
        <ele>944.8</ele>
        <time>2026-04-26T07:46:33Z</time>
      </trkpt>
      <trkpt lat="45.03223" lon="4.0907">
        <ele>944.8</ele>
        <time>2026-04-26T07:46:38Z</time>
      </trkpt>
      <trkpt lat="45.03223" lon="4.0907">
        <ele>944.8</ele>
        <time>2026-04-26T07:46:43Z</time>
      </trkpt>
      <trkpt lat="45.03223" lon="4.0907">
        <ele>944.8</ele>
        <time>2026-04-26T07:46:48Z</time>
      </trkpt>
      <trkpt lat="45.03223" lon="4.0907">
        <ele>944.8</ele>
        <time>2026-04-26T07:46:53Z</time>
      </trkpt>
      <trkpt lat="45.03223" lon="4.0907">
        <ele>944.8</ele>
        <time>2026-04-26T07:46:58Z</time>
      </trkpt>
      <trkpt lat="45.03223" lon="4.0907">
        <ele>944.8</ele>
        <time>2026-04-26T07:47:03Z</time>
      </trkpt>
      <trkpt lat="45.03223" lon="4.0907">
        <ele>944.8</ele>
        <time>2026-04-26T07:47:08Z</time>
      </trkpt>
      <trkpt lat="45.03223" lon="4.0907">
        <ele>944.8</ele>
        <time>2026-04-26T07:47:13Z</time>
      </trkpt>
      <trkpt lat="45.03223" lon="4.0907">
        <ele>944.8</ele>
        <time>2026-04-26T07:47:18Z</time>
      </trkpt>
      <trkpt lat="45.03223" lon="4.0907">
        <ele>944.8</ele>
        <time>2026-04-26T07:47:23Z</time>
      </trkpt>
      <trkpt lat="45.03223" lon="4.0907">
        <ele>944.8</ele>
        <time>2026-04-26T07:47:28Z</time>
      </trkpt>
      <trkpt lat="45.03223" lon="4.0907">
        <ele>944.8</ele>
        <time>2026-04-26T07:47:33Z</time>
      </trkpt>
      <trkpt lat="45.03223" lon="4.0907">
        <ele>944.8</ele>
        <time>2026-04-26T07:47:38Z</time>
      </trkpt>
      <trkpt lat="45.03223" lon="4.0907">
        <ele>944.8</ele>
        <time>2026-04-26T07:47:43Z</time>
      </trkpt>
      <trkpt lat="45.03223" lon="4.0907">
        <ele>944.8</ele>
        <time>2026-04-26T07:47:48Z</time>
      </trkpt>
      <trkpt lat="45.03223" lon="4.0907">
        <ele>944.8</ele>
        <time>2026-04-26T07:47:53Z</time>
      </trkpt>
      <trkpt lat="45.03223" lon="4.0907">
        <ele>944.8</ele>
        <time>2026-04-26T07:47:58Z</time>
      </trkpt>
      <trkpt lat="45.03223" lon="4.0907">
        <ele>944.8</ele>
        <time>2026-04-26T07:48:03Z</time>
      </trkpt>
      <trkpt lat="45.03223" lon="4.0907">
        <ele>944.8</ele>
        <time>2026-04-26T07:48:08Z</time>
      </trkpt>
      <trkpt lat="45.03223" lon="4.0907">
        <ele>944.8</ele>
        <time>2026-04-26T07:48:13Z</time>
      </trkpt>
      <trkpt lat="45.03223" lon="4.0907">
        <ele>944.8</ele>
        <time>2026-04-26T07:48:18Z</time>
      </trkpt>
      <trkpt lat="45.03223" lon="4.0907">
        <ele>944.8</ele>
        <time>2026-04-26T07:48:23Z</time>
      </trkpt>
      <trkpt lat="45.03221" lon="4.09057">
        <ele>943.7</ele>
        <time>2026-04-26T07:48:28Z</time>
      </trkpt>
      <trkpt lat="45.03219" lon="4.09049">
        <ele>942.9</ele>
        <time>2026-04-26T07:48:33Z</time>
      </trkpt>
      <trkpt lat="45.03219" lon="4.09046">
        <ele>942.7</ele>
        <time>2026-04-26T07:48:38Z</time>
      </trkpt>
      <trkpt lat="45.0322" lon="4.09041">
        <ele>942.4</ele>
        <time>2026-04-26T07:48:43Z</time>
      </trkpt>
      <trkpt lat="45.03221" lon="4.09034">
        <ele>942</ele>
        <time>2026-04-26T07:48:48Z</time>
      </trkpt>
      <trkpt lat="45.03223" lon="4.09026">
        <ele>941.6</ele>
        <time>2026-04-26T07:48:53Z</time>
      </trkpt>
      <trkpt lat="45.03226" lon="4.09016">
        <ele>941.1</ele>
        <time>2026-04-26T07:48:58Z</time>
      </trkpt>
      <trkpt lat="45.0323" lon="4.09007">
        <ele>940.8</ele>
        <time>2026-04-26T07:49:03Z</time>
      </trkpt>
      <trkpt lat="45.03234" lon="4.08999">
        <ele>940.6</ele>
        <time>2026-04-26T07:49:08Z</time>
      </trkpt>
      <trkpt lat="45.03237" lon="4.08991">
        <ele>940.2</ele>
        <time>2026-04-26T07:49:13Z</time>
      </trkpt>
      <trkpt lat="45.03241" lon="4.08981">
        <ele>939.7</ele>
        <time>2026-04-26T07:49:18Z</time>
      </trkpt>
      <trkpt lat="45.03243" lon="4.08972">
        <ele>939.1</ele>
        <time>2026-04-26T07:49:23Z</time>
      </trkpt>
      <trkpt lat="45.03246" lon="4.08963">
        <ele>938.6</ele>
        <time>2026-04-26T07:49:28Z</time>
      </trkpt>
      <trkpt lat="45.03249" lon="4.08953">
        <ele>938</ele>
        <time>2026-04-26T07:49:33Z</time>
      </trkpt>
      <trkpt lat="45.03251" lon="4.08943">
        <ele>937.3</ele>
        <time>2026-04-26T07:49:38Z</time>
      </trkpt>
      <trkpt lat="45.03252" lon="4.08932">
        <ele>936.6</ele>
        <time>2026-04-26T07:49:43Z</time>
      </trkpt>
      <trkpt lat="45.03252" lon="4.08921">
        <ele>935.6</ele>
        <time>2026-04-26T07:49:48Z</time>
      </trkpt>
      <trkpt lat="45.03252" lon="4.0891">
        <ele>935</ele>
        <time>2026-04-26T07:49:53Z</time>
      </trkpt>
      <trkpt lat="45.03253" lon="4.08898">
        <ele>934.7</ele>
        <time>2026-04-26T07:49:58Z</time>
      </trkpt>
      <trkpt lat="45.03255" lon="4.08887">
        <ele>934.6</ele>
        <time>2026-04-26T07:50:03Z</time>
      </trkpt>
      <trkpt lat="45.03256" lon="4.08877">
        <ele>934.4</ele>
        <time>2026-04-26T07:50:08Z</time>
      </trkpt>
      <trkpt lat="45.03253" lon="4.08865">
        <ele>933.5</ele>
        <time>2026-04-26T07:50:13Z</time>
      </trkpt>
      <trkpt lat="45.03247" lon="4.0886">
        <ele>932.7</ele>
        <time>2026-04-26T07:50:18Z</time>
      </trkpt>
      <trkpt lat="45.03239" lon="4.08853">
        <ele>931.7</ele>
        <time>2026-04-26T07:50:23Z</time>
      </trkpt>
      <trkpt lat="45.03233" lon="4.08847">
        <ele>930.9</ele>
        <time>2026-04-26T07:50:28Z</time>
      </trkpt>
      <trkpt lat="45.03228" lon="4.08842">
        <ele>930.3</ele>
        <time>2026-04-26T07:50:33Z</time>
      </trkpt>
      <trkpt lat="45.03222" lon="4.08835">
        <ele>929.4</ele>
        <time>2026-04-26T07:50:38Z</time>
      </trkpt>
      <trkpt lat="45.03217" lon="4.08829">
        <ele>928.7</ele>
        <time>2026-04-26T07:50:43Z</time>
      </trkpt>
      <trkpt lat="45.03212" lon="4.08823">
        <ele>928</ele>
        <time>2026-04-26T07:50:48Z</time>
      </trkpt>
      <trkpt lat="45.03207" lon="4.08814">
        <ele>927.3</ele>
        <time>2026-04-26T07:50:53Z</time>
      </trkpt>
      <trkpt lat="45.03203" lon="4.08807">
        <ele>926.7</ele>
        <time>2026-04-26T07:50:58Z</time>
      </trkpt>
      <trkpt lat="45.03197" lon="4.08799">
        <ele>925.9</ele>
        <time>2026-04-26T07:51:03Z</time>
      </trkpt>
      <trkpt lat="45.03191" lon="4.0879">
        <ele>925.1</ele>
        <time>2026-04-26T07:51:08Z</time>
      </trkpt>
      <trkpt lat="45.03184" lon="4.08782">
        <ele>924.3</ele>
        <time>2026-04-26T07:51:13Z</time>
      </trkpt>
      <trkpt lat="45.03175" lon="4.08776">
        <ele>923.4</ele>
        <time>2026-04-26T07:51:18Z</time>
      </trkpt>
      <trkpt lat="45.03166" lon="4.0877">
        <ele>922.4</ele>
        <time>2026-04-26T07:51:23Z</time>
      </trkpt>
      <trkpt lat="45.0316" lon="4.08767">
        <ele>922</ele>
        <time>2026-04-26T07:51:28Z</time>
      </trkpt>
      <trkpt lat="45.03152" lon="4.08763">
        <ele>921.5</ele>
        <time>2026-04-26T07:51:33Z</time>
      </trkpt>
      <trkpt lat="45.03144" lon="4.0876">
        <ele>920.9</ele>
        <time>2026-04-26T07:51:38Z</time>
      </trkpt>
      <trkpt lat="45.03135" lon="4.08759">
        <ele>920.4</ele>
        <time>2026-04-26T07:51:43Z</time>
      </trkpt>
      <trkpt lat="45.03128" lon="4.08756">
        <ele>919.9</ele>
        <time>2026-04-26T07:51:48Z</time>
      </trkpt>
      <trkpt lat="45.03122" lon="4.08754">
        <ele>919.5</ele>
        <time>2026-04-26T07:51:53Z</time>
      </trkpt>
      <trkpt lat="45.03115" lon="4.08753">
        <ele>919</ele>
        <time>2026-04-26T07:51:58Z</time>
      </trkpt>
      <trkpt lat="45.03108" lon="4.08753">
        <ele>918.6</ele>
        <time>2026-04-26T07:52:03Z</time>
      </trkpt>
      <trkpt lat="45.031" lon="4.08753">
        <ele>918.1</ele>
        <time>2026-04-26T07:52:08Z</time>
      </trkpt>
      <trkpt lat="45.03094" lon="4.08753">
        <ele>917.8</ele>
        <time>2026-04-26T07:52:13Z</time>
      </trkpt>
      <trkpt lat="45.03088" lon="4.08754">
        <ele>917.5</ele>
        <time>2026-04-26T07:52:18Z</time>
      </trkpt>
      <trkpt lat="45.03082" lon="4.08753">
        <ele>917.2</ele>
        <time>2026-04-26T07:52:23Z</time>
      </trkpt>
      <trkpt lat="45.03082" lon="4.08751">
        <ele>917.1</ele>
        <time>2026-04-26T07:52:28Z</time>
      </trkpt>
      <trkpt lat="45.03083" lon="4.0875">
        <ele>917</ele>
        <time>2026-04-26T07:52:33Z</time>
      </trkpt>
      <trkpt lat="45.03083" lon="4.0875">
        <ele>917</ele>
        <time>2026-04-26T07:52:38Z</time>
      </trkpt>
      <trkpt lat="45.03083" lon="4.0875">
        <ele>917</ele>
        <time>2026-04-26T07:52:43Z</time>
      </trkpt>
      <trkpt lat="45.03083" lon="4.0875">
        <ele>917</ele>
        <time>2026-04-26T07:52:48Z</time>
      </trkpt>
      <trkpt lat="45.03083" lon="4.0875">
        <ele>917</ele>
        <time>2026-04-26T07:52:53Z</time>
      </trkpt>
      <trkpt lat="45.03083" lon="4.0875">
        <ele>917</ele>
        <time>2026-04-26T07:52:58Z</time>
      </trkpt>
      <trkpt lat="45.03083" lon="4.0875">
        <ele>917</ele>
        <time>2026-04-26T07:53:03Z</time>
      </trkpt>
      <trkpt lat="45.03083" lon="4.0875">
        <ele>917</ele>
        <time>2026-04-26T07:53:08Z</time>
      </trkpt>
      <trkpt lat="45.03083" lon="4.0875">
        <ele>917</ele>
        <time>2026-04-26T07:53:13Z</time>
      </trkpt>
      <trkpt lat="45.03083" lon="4.0875">
        <ele>917</ele>
        <time>2026-04-26T07:53:18Z</time>
      </trkpt>
      <trkpt lat="45.03083" lon="4.0875">
        <ele>917</ele>
        <time>2026-04-26T07:53:23Z</time>
      </trkpt>
      <trkpt lat="45.03083" lon="4.0875">
        <ele>917</ele>
        <time>2026-04-26T07:53:28Z</time>
      </trkpt>
      <trkpt lat="45.03083" lon="4.0875">
        <ele>917</ele>
        <time>2026-04-26T07:53:33Z</time>
      </trkpt>
      <trkpt lat="45.03083" lon="4.0875">
        <ele>917</ele>
        <time>2026-04-26T07:53:38Z</time>
      </trkpt>
      <trkpt lat="45.03083" lon="4.0875">
        <ele>917</ele>
        <time>2026-04-26T07:53:43Z</time>
      </trkpt>
      <trkpt lat="45.03083" lon="4.0875">
        <ele>917</ele>
        <time>2026-04-26T07:53:48Z</time>
      </trkpt>
      <trkpt lat="45.03083" lon="4.0875">
        <ele>917</ele>
        <time>2026-04-26T07:53:53Z</time>
      </trkpt>
      <trkpt lat="45.03083" lon="4.0875">
        <ele>917</ele>
        <time>2026-04-26T07:53:58Z</time>
      </trkpt>
      <trkpt lat="45.03083" lon="4.0875">
        <ele>917</ele>
        <time>2026-04-26T07:54:03Z</time>
      </trkpt>
      <trkpt lat="45.03083" lon="4.0875">
        <ele>917</ele>
        <time>2026-04-26T07:54:08Z</time>
      </trkpt>
      <trkpt lat="45.03083" lon="4.0875">
        <ele>917</ele>
        <time>2026-04-26T07:54:13Z</time>
      </trkpt>
      <trkpt lat="45.03083" lon="4.0875">
        <ele>917</ele>
        <time>2026-04-26T07:54:18Z</time>
      </trkpt>
      <trkpt lat="45.03083" lon="4.0875">
        <ele>917</ele>
        <time>2026-04-26T07:54:23Z</time>
      </trkpt>
      <trkpt lat="45.03083" lon="4.0875">
        <ele>917</ele>
        <time>2026-04-26T07:54:28Z</time>
      </trkpt>
      <trkpt lat="45.03083" lon="4.0875">
        <ele>917</ele>
        <time>2026-04-26T07:54:33Z</time>
      </trkpt>
      <trkpt lat="45.03083" lon="4.0875">
        <ele>917</ele>
        <time>2026-04-26T07:54:38Z</time>
      </trkpt>
      <trkpt lat="45.03083" lon="4.0875">
        <ele>917</ele>
        <time>2026-04-26T07:54:43Z</time>
      </trkpt>
      <trkpt lat="45.03083" lon="4.0875">
        <ele>917</ele>
        <time>2026-04-26T07:54:48Z</time>
      </trkpt>
      <trkpt lat="45.03083" lon="4.0875">
        <ele>917</ele>
        <time>2026-04-26T07:54:53Z</time>
      </trkpt>
      <trkpt lat="45.03083" lon="4.0875">
        <ele>917</ele>
        <time>2026-04-26T07:54:58Z</time>
      </trkpt>
      <trkpt lat="45.03083" lon="4.0875">
        <ele>917</ele>
        <time>2026-04-26T07:55:03Z</time>
      </trkpt>
      <trkpt lat="45.03083" lon="4.0875">
        <ele>917</ele>
        <time>2026-04-26T07:55:08Z</time>
      </trkpt>
      <trkpt lat="45.03083" lon="4.0875">
        <ele>917</ele>
        <time>2026-04-26T07:55:13Z</time>
      </trkpt>
      <trkpt lat="45.03083" lon="4.0875">
        <ele>917</ele>
        <time>2026-04-26T07:55:18Z</time>
      </trkpt>
      <trkpt lat="45.03073" lon="4.08739">
        <ele>917.5</ele>
        <time>2026-04-26T07:55:23Z</time>
      </trkpt>
      <trkpt lat="45.0307" lon="4.08731">
        <ele>917.6</ele>
        <time>2026-04-26T07:55:28Z</time>
      </trkpt>
      <trkpt lat="45.03068" lon="4.08724">
        <ele>917.6</ele>
        <time>2026-04-26T07:55:33Z</time>
      </trkpt>
      <trkpt lat="45.03065" lon="4.08717">
        <ele>917.7</ele>
        <time>2026-04-26T07:55:38Z</time>
      </trkpt>
      <trkpt lat="45.0306" lon="4.08708">
        <ele>917.9</ele>
        <time>2026-04-26T07:55:43Z</time>
      </trkpt>
      <trkpt lat="45.03056" lon="4.08702">
        <ele>918.1</ele>
        <time>2026-04-26T07:55:48Z</time>
      </trkpt>
      <trkpt lat="45.03052" lon="4.08694">
        <ele>918.2</ele>
        <time>2026-04-26T07:55:53Z</time>
      </trkpt>
      <trkpt lat="45.03049" lon="4.08685">
        <ele>918.3</ele>
        <time>2026-04-26T07:55:58Z</time>
      </trkpt>
      <trkpt lat="45.03043" lon="4.08675">
        <ele>918.5</ele>
        <time>2026-04-26T07:56:03Z</time>
      </trkpt>
      <trkpt lat="45.03039" lon="4.08664">
        <ele>918.6</ele>
        <time>2026-04-26T07:56:08Z</time>
      </trkpt>
      <trkpt lat="45.03033" lon="4.08653">
        <ele>918.7</ele>
        <time>2026-04-26T07:56:13Z</time>
      </trkpt>
      <trkpt lat="45.03028" lon="4.08643">
        <ele>918.8</ele>
        <time>2026-04-26T07:56:18Z</time>
      </trkpt>
      <trkpt lat="45.03024" lon="4.08634">
        <ele>918.9</ele>
        <time>2026-04-26T07:56:23Z</time>
      </trkpt>
      <trkpt lat="45.03021" lon="4.08623">
        <ele>919</ele>
        <time>2026-04-26T07:56:28Z</time>
      </trkpt>
      <trkpt lat="45.03021" lon="4.08616">
        <ele>918.8</ele>
        <time>2026-04-26T07:56:33Z</time>
      </trkpt>
      <trkpt lat="45.03021" lon="4.08607">
        <ele>918.7</ele>
        <time>2026-04-26T07:56:38Z</time>
      </trkpt>
      <trkpt lat="45.03021" lon="4.08597">
        <ele>918.5</ele>
        <time>2026-04-26T07:56:43Z</time>
      </trkpt>
      <trkpt lat="45.03024" lon="4.08587">
        <ele>918.1</ele>
        <time>2026-04-26T07:56:48Z</time>
      </trkpt>
      <trkpt lat="45.0302" lon="4.08579">
        <ele>918.2</ele>
        <time>2026-04-26T07:56:53Z</time>
      </trkpt>
      <trkpt lat="45.03015" lon="4.08572">
        <ele>918.6</ele>
        <time>2026-04-26T07:56:58Z</time>
      </trkpt>
      <trkpt lat="45.03011" lon="4.08565">
        <ele>918.8</ele>
        <time>2026-04-26T07:57:03Z</time>
      </trkpt>
      <trkpt lat="45.03007" lon="4.08561">
        <ele>919.1</ele>
        <time>2026-04-26T07:57:08Z</time>
      </trkpt>
      <trkpt lat="45.03004" lon="4.08554">
        <ele>919.3</ele>
        <time>2026-04-26T07:57:13Z</time>
      </trkpt>
      <trkpt lat="45.03" lon="4.08545">
        <ele>919.5</ele>
        <time>2026-04-26T07:57:18Z</time>
      </trkpt>
      <trkpt lat="45.02999" lon="4.08537">
        <ele>919.5</ele>
        <time>2026-04-26T07:57:23Z</time>
      </trkpt>
      <trkpt lat="45.02997" lon="4.08529">
        <ele>919.5</ele>
        <time>2026-04-26T07:57:28Z</time>
      </trkpt>
      <trkpt lat="45.02995" lon="4.08522">
        <ele>919.5</ele>
        <time>2026-04-26T07:57:33Z</time>
      </trkpt>
      <trkpt lat="45.02994" lon="4.08514">
        <ele>919.4</ele>
        <time>2026-04-26T07:57:38Z</time>
      </trkpt>
      <trkpt lat="45.02991" lon="4.08504">
        <ele>919.5</ele>
        <time>2026-04-26T07:57:43Z</time>
      </trkpt>
      <trkpt lat="45.02988" lon="4.08495">
        <ele>919.5</ele>
        <time>2026-04-26T07:57:48Z</time>
      </trkpt>
      <trkpt lat="45.02985" lon="4.08484">
        <ele>919.6</ele>
        <time>2026-04-26T07:57:53Z</time>
      </trkpt>
      <trkpt lat="45.02982" lon="4.08474">
        <ele>919.6</ele>
        <time>2026-04-26T07:57:58Z</time>
      </trkpt>
      <trkpt lat="45.0298" lon="4.08463">
        <ele>919.6</ele>
        <time>2026-04-26T07:58:03Z</time>
      </trkpt>
      <trkpt lat="45.0298" lon="4.08453">
        <ele>919.5</ele>
        <time>2026-04-26T07:58:08Z</time>
      </trkpt>
      <trkpt lat="45.02979" lon="4.08443">
        <ele>919.5</ele>
        <time>2026-04-26T07:58:13Z</time>
      </trkpt>
      <trkpt lat="45.0298" lon="4.08433">
        <ele>919.3</ele>
        <time>2026-04-26T07:58:18Z</time>
      </trkpt>
      <trkpt lat="45.02981" lon="4.08424">
        <ele>919.2</ele>
        <time>2026-04-26T07:58:23Z</time>
      </trkpt>
      <trkpt lat="45.02982" lon="4.08415">
        <ele>919.1</ele>
        <time>2026-04-26T07:58:28Z</time>
      </trkpt>
      <trkpt lat="45.02983" lon="4.08406">
        <ele>919.3</ele>
        <time>2026-04-26T07:58:33Z</time>
      </trkpt>
      <trkpt lat="45.02982" lon="4.08396">
        <ele>919.6</ele>
        <time>2026-04-26T07:58:38Z</time>
      </trkpt>
      <trkpt lat="45.02981" lon="4.08386">
        <ele>919.9</ele>
        <time>2026-04-26T07:58:43Z</time>
      </trkpt>
      <trkpt lat="45.0298" lon="4.08377">
        <ele>920.2</ele>
        <time>2026-04-26T07:58:48Z</time>
      </trkpt>
      <trkpt lat="45.0298" lon="4.08377">
        <ele>920.2</ele>
        <time>2026-04-26T07:58:53Z</time>
      </trkpt>
      <trkpt lat="45.0298" lon="4.08377">
        <ele>920.2</ele>
        <time>2026-04-26T07:58:58Z</time>
      </trkpt>
      <trkpt lat="45.0298" lon="4.08377">
        <ele>920.2</ele>
        <time>2026-04-26T07:59:03Z</time>
      </trkpt>
      <trkpt lat="45.0298" lon="4.08377">
        <ele>920.2</ele>
        <time>2026-04-26T07:59:08Z</time>
      </trkpt>
      <trkpt lat="45.0298" lon="4.08377">
        <ele>920.2</ele>
        <time>2026-04-26T07:59:13Z</time>
      </trkpt>
      <trkpt lat="45.0298" lon="4.08377">
        <ele>920.2</ele>
        <time>2026-04-26T07:59:18Z</time>
      </trkpt>
      <trkpt lat="45.02986" lon="4.08368">
        <ele>920</ele>
        <time>2026-04-26T07:59:23Z</time>
      </trkpt>
      <trkpt lat="45.02983" lon="4.08359">
        <ele>920.4</ele>
        <time>2026-04-26T07:59:28Z</time>
      </trkpt>
      <trkpt lat="45.02983" lon="4.0835">
        <ele>920.6</ele>
        <time>2026-04-26T07:59:33Z</time>
      </trkpt>
      <trkpt lat="45.02981" lon="4.08342">
        <ele>920.9</ele>
        <time>2026-04-26T07:59:38Z</time>
      </trkpt>
      <trkpt lat="45.02974" lon="4.08338">
        <ele>921.4</ele>
        <time>2026-04-26T07:59:43Z</time>
      </trkpt>
      <trkpt lat="45.02968" lon="4.08333">
        <ele>921.9</ele>
        <time>2026-04-26T07:59:48Z</time>
      </trkpt>
      <trkpt lat="45.02962" lon="4.08328">
        <ele>922.5</ele>
        <time>2026-04-26T07:59:53Z</time>
      </trkpt>
      <trkpt lat="45.02957" lon="4.08323">
        <ele>923.1</ele>
        <time>2026-04-26T07:59:58Z</time>
      </trkpt>
      <trkpt lat="45.02951" lon="4.08319">
        <ele>923.6</ele>
        <time>2026-04-26T08:00:03Z</time>
      </trkpt>
      <trkpt lat="45.02946" lon="4.08315">
        <ele>924.1</ele>
        <time>2026-04-26T08:00:08Z</time>
      </trkpt>
      <trkpt lat="45.02945" lon="4.08314">
        <ele>924.2</ele>
        <time>2026-04-26T08:00:13Z</time>
      </trkpt>
      <trkpt lat="45.02939" lon="4.08311">
        <ele>924.7</ele>
        <time>2026-04-26T08:00:18Z</time>
      </trkpt>
      <trkpt lat="45.02933" lon="4.08305">
        <ele>925.4</ele>
        <time>2026-04-26T08:00:23Z</time>
      </trkpt>
      <trkpt lat="45.02929" lon="4.083">
        <ele>925.9</ele>
        <time>2026-04-26T08:00:28Z</time>
      </trkpt>
      <trkpt lat="45.02925" lon="4.08293">
        <ele>926.4</ele>
        <time>2026-04-26T08:00:33Z</time>
      </trkpt>
      <trkpt lat="45.02919" lon="4.08288">
        <ele>927</ele>
        <time>2026-04-26T08:00:38Z</time>
      </trkpt>
      <trkpt lat="45.02913" lon="4.08283">
        <ele>927.4</ele>
        <time>2026-04-26T08:00:43Z</time>
      </trkpt>
      <trkpt lat="45.02907" lon="4.08278">
        <ele>927.5</ele>
        <time>2026-04-26T08:00:48Z</time>
      </trkpt>
      <trkpt lat="45.02901" lon="4.08273">
        <ele>927.7</ele>
        <time>2026-04-26T08:00:53Z</time>
      </trkpt>
      <trkpt lat="45.02895" lon="4.0827">
        <ele>927.8</ele>
        <time>2026-04-26T08:00:58Z</time>
      </trkpt>
      <trkpt lat="45.02888" lon="4.08266">
        <ele>927.9</ele>
        <time>2026-04-26T08:01:03Z</time>
      </trkpt>
      <trkpt lat="45.02882" lon="4.08262">
        <ele>928</ele>
        <time>2026-04-26T08:01:08Z</time>
      </trkpt>
      <trkpt lat="45.02875" lon="4.08259">
        <ele>928.1</ele>
        <time>2026-04-26T08:01:13Z</time>
      </trkpt>
      <trkpt lat="45.02869" lon="4.08254">
        <ele>928.2</ele>
        <time>2026-04-26T08:01:18Z</time>
      </trkpt>
      <trkpt lat="45.02863" lon="4.08249">
        <ele>928.4</ele>
        <time>2026-04-26T08:01:23Z</time>
      </trkpt>
      <trkpt lat="45.02858" lon="4.08245">
        <ele>928.6</ele>
        <time>2026-04-26T08:01:28Z</time>
      </trkpt>
      <trkpt lat="45.02852" lon="4.08242">
        <ele>928.7</ele>
        <time>2026-04-26T08:01:33Z</time>
      </trkpt>
      <trkpt lat="45.02847" lon="4.08239">
        <ele>928.7</ele>
        <time>2026-04-26T08:01:38Z</time>
      </trkpt>
      <trkpt lat="45.02847" lon="4.08238">
        <ele>928.8</ele>
        <time>2026-04-26T08:01:43Z</time>
      </trkpt>
      <trkpt lat="45.02847" lon="4.08238">
        <ele>928.8</ele>
        <time>2026-04-26T08:01:48Z</time>
      </trkpt>
      <trkpt lat="45.02847" lon="4.08238">
        <ele>928.8</ele>
        <time>2026-04-26T08:01:53Z</time>
      </trkpt>
      <trkpt lat="45.02843" lon="4.08239">
        <ele>928.7</ele>
        <time>2026-04-26T08:01:58Z</time>
      </trkpt>
      <trkpt lat="45.02839" lon="4.08233">
        <ele>928.9</ele>
        <time>2026-04-26T08:02:03Z</time>
      </trkpt>
      <trkpt lat="45.02834" lon="4.08227">
        <ele>929.1</ele>
        <time>2026-04-26T08:02:08Z</time>
      </trkpt>
      <trkpt lat="45.02836" lon="4.08219">
        <ele>929.5</ele>
        <time>2026-04-26T08:02:13Z</time>
      </trkpt>
      <trkpt lat="45.02839" lon="4.08211">
        <ele>930</ele>
        <time>2026-04-26T08:02:18Z</time>
      </trkpt>
      <trkpt lat="45.02844" lon="4.08204">
        <ele>930.5</ele>
        <time>2026-04-26T08:02:23Z</time>
      </trkpt>
      <trkpt lat="45.02847" lon="4.08196">
        <ele>931</ele>
        <time>2026-04-26T08:02:28Z</time>
      </trkpt>
      <trkpt lat="45.0285" lon="4.08189">
        <ele>931.4</ele>
        <time>2026-04-26T08:02:33Z</time>
      </trkpt>
      <trkpt lat="45.02853" lon="4.08182">
        <ele>931.9</ele>
        <time>2026-04-26T08:02:38Z</time>
      </trkpt>
      <trkpt lat="45.02853" lon="4.08178">
        <ele>932.1</ele>
        <time>2026-04-26T08:02:43Z</time>
      </trkpt>
      <trkpt lat="45.02853" lon="4.08175">
        <ele>932.3</ele>
        <time>2026-04-26T08:02:48Z</time>
      </trkpt>
      <trkpt lat="45.02853" lon="4.08175">
        <ele>932.3</ele>
        <time>2026-04-26T08:02:53Z</time>
      </trkpt>
      <trkpt lat="45.02853" lon="4.08175">
        <ele>932.3</ele>
        <time>2026-04-26T08:02:58Z</time>
      </trkpt>
      <trkpt lat="45.02854" lon="4.08168">
        <ele>932.7</ele>
        <time>2026-04-26T08:03:03Z</time>
      </trkpt>
      <trkpt lat="45.02858" lon="4.08163">
        <ele>933.2</ele>
        <time>2026-04-26T08:03:08Z</time>
      </trkpt>
      <trkpt lat="45.02863" lon="4.08157">
        <ele>933.9</ele>
        <time>2026-04-26T08:03:13Z</time>
      </trkpt>
      <trkpt lat="45.02868" lon="4.08152">
        <ele>934.6</ele>
        <time>2026-04-26T08:03:18Z</time>
      </trkpt>
      <trkpt lat="45.02874" lon="4.08149">
        <ele>935.1</ele>
        <time>2026-04-26T08:03:23Z</time>
      </trkpt>
      <trkpt lat="45.02881" lon="4.08145">
        <ele>935.7</ele>
        <time>2026-04-26T08:03:28Z</time>
      </trkpt>
      <trkpt lat="45.02885" lon="4.08141">
        <ele>936.2</ele>
        <time>2026-04-26T08:03:33Z</time>
      </trkpt>
      <trkpt lat="45.02887" lon="4.08133">
        <ele>937</ele>
        <time>2026-04-26T08:03:38Z</time>
      </trkpt>
      <trkpt lat="45.02884" lon="4.08127">
        <ele>937.4</ele>
        <time>2026-04-26T08:03:43Z</time>
      </trkpt>
      <trkpt lat="45.0288" lon="4.08121">
        <ele>937.8</ele>
        <time>2026-04-26T08:03:48Z</time>
      </trkpt>
      <trkpt lat="45.02876" lon="4.08116">
        <ele>938.1</ele>
        <time>2026-04-26T08:03:53Z</time>
      </trkpt>
      <trkpt lat="45.02872" lon="4.08112">
        <ele>938.3</ele>
        <time>2026-04-26T08:03:58Z</time>
      </trkpt>
      <trkpt lat="45.02867" lon="4.08107">
        <ele>938.5</ele>
        <time>2026-04-26T08:04:03Z</time>
      </trkpt>
      <trkpt lat="45.02862" lon="4.08101">
        <ele>938.8</ele>
        <time>2026-04-26T08:04:08Z</time>
      </trkpt>
      <trkpt lat="45.02859" lon="4.08096">
        <ele>939.1</ele>
        <time>2026-04-26T08:04:13Z</time>
      </trkpt>
      <trkpt lat="45.02855" lon="4.0809">
        <ele>939.5</ele>
        <time>2026-04-26T08:04:18Z</time>
      </trkpt>
      <trkpt lat="45.02853" lon="4.08084">
        <ele>939.9</ele>
        <time>2026-04-26T08:04:23Z</time>
      </trkpt>
      <trkpt lat="45.02852" lon="4.08079">
        <ele>940.3</ele>
        <time>2026-04-26T08:04:28Z</time>
      </trkpt>
      <trkpt lat="45.02854" lon="4.08075">
        <ele>940.7</ele>
        <time>2026-04-26T08:04:33Z</time>
      </trkpt>
      <trkpt lat="45.02855" lon="4.08072">
        <ele>941</ele>
        <time>2026-04-26T08:04:38Z</time>
      </trkpt>
      <trkpt lat="45.02855" lon="4.08072">
        <ele>941</ele>
        <time>2026-04-26T08:04:43Z</time>
      </trkpt>
      <trkpt lat="45.02855" lon="4.08072">
        <ele>941</ele>
        <time>2026-04-26T08:04:48Z</time>
      </trkpt>
      <trkpt lat="45.02852" lon="4.08064">
        <ele>941.6</ele>
        <time>2026-04-26T08:04:53Z</time>
      </trkpt>
      <trkpt lat="45.02851" lon="4.08058">
        <ele>942</ele>
        <time>2026-04-26T08:04:58Z</time>
      </trkpt>
      <trkpt lat="45.02851" lon="4.08053">
        <ele>942.5</ele>
        <time>2026-04-26T08:05:03Z</time>
      </trkpt>
      <trkpt lat="45.02853" lon="4.08047">
        <ele>943.1</ele>
        <time>2026-04-26T08:05:08Z</time>
      </trkpt>
      <trkpt lat="45.02854" lon="4.08042">
        <ele>943.6</ele>
        <time>2026-04-26T08:05:13Z</time>
      </trkpt>
      <trkpt lat="45.02854" lon="4.08034">
        <ele>944.3</ele>
        <time>2026-04-26T08:05:18Z</time>
      </trkpt>
      <trkpt lat="45.02855" lon="4.08028">
        <ele>944.9</ele>
        <time>2026-04-26T08:05:23Z</time>
      </trkpt>
      <trkpt lat="45.02856" lon="4.08022">
        <ele>945.4</ele>
        <time>2026-04-26T08:05:28Z</time>
      </trkpt>
      <trkpt lat="45.02857" lon="4.08017">
        <ele>945.9</ele>
        <time>2026-04-26T08:05:33Z</time>
      </trkpt>
      <trkpt lat="45.02859" lon="4.08011">
        <ele>946.6</ele>
        <time>2026-04-26T08:05:38Z</time>
      </trkpt>
      <trkpt lat="45.0286" lon="4.08005">
        <ele>947.2</ele>
        <time>2026-04-26T08:05:43Z</time>
      </trkpt>
      <trkpt lat="45.0286" lon="4.08">
        <ele>947.6</ele>
        <time>2026-04-26T08:05:48Z</time>
      </trkpt>
      <trkpt lat="45.0286" lon="4.07994">
        <ele>948.2</ele>
        <time>2026-04-26T08:05:53Z</time>
      </trkpt>
      <trkpt lat="45.02861" lon="4.07988">
        <ele>948.9</ele>
        <time>2026-04-26T08:05:58Z</time>
      </trkpt>
      <trkpt lat="45.0286" lon="4.07983">
        <ele>949.4</ele>
        <time>2026-04-26T08:06:03Z</time>
      </trkpt>
      <trkpt lat="45.02859" lon="4.07979">
        <ele>949.7</ele>
        <time>2026-04-26T08:06:08Z</time>
      </trkpt>
      <trkpt lat="45.0286" lon="4.07973">
        <ele>950.4</ele>
        <time>2026-04-26T08:06:13Z</time>
      </trkpt>
      <trkpt lat="45.02859" lon="4.07969">
        <ele>950.7</ele>
        <time>2026-04-26T08:06:18Z</time>
      </trkpt>
      <trkpt lat="45.0286" lon="4.07964">
        <ele>951.3</ele>
        <time>2026-04-26T08:06:23Z</time>
      </trkpt>
      <trkpt lat="45.0286" lon="4.07959">
        <ele>951.9</ele>
        <time>2026-04-26T08:06:28Z</time>
      </trkpt>
      <trkpt lat="45.0286" lon="4.07954">
        <ele>952.4</ele>
        <time>2026-04-26T08:06:33Z</time>
      </trkpt>
      <trkpt lat="45.02861" lon="4.0795">
        <ele>952.9</ele>
        <time>2026-04-26T08:06:38Z</time>
      </trkpt>
      <trkpt lat="45.0286" lon="4.07945">
        <ele>953.3</ele>
        <time>2026-04-26T08:06:43Z</time>
      </trkpt>
      <trkpt lat="45.02861" lon="4.07939">
        <ele>954</ele>
        <time>2026-04-26T08:06:48Z</time>
      </trkpt>
      <trkpt lat="45.02862" lon="4.07933">
        <ele>954.7</ele>
        <time>2026-04-26T08:06:53Z</time>
      </trkpt>
      <trkpt lat="45.02861" lon="4.07929">
        <ele>955</ele>
        <time>2026-04-26T08:06:58Z</time>
      </trkpt>
      <trkpt lat="45.02861" lon="4.07924">
        <ele>955.6</ele>
        <time>2026-04-26T08:07:03Z</time>
      </trkpt>
      <trkpt lat="45.02862" lon="4.07918">
        <ele>956.3</ele>
        <time>2026-04-26T08:07:08Z</time>
      </trkpt>
      <trkpt lat="45.02862" lon="4.07913">
        <ele>956.8</ele>
        <time>2026-04-26T08:07:13Z</time>
      </trkpt>
      <trkpt lat="45.02862" lon="4.07906">
        <ele>957.7</ele>
        <time>2026-04-26T08:07:18Z</time>
      </trkpt>
      <trkpt lat="45.02861" lon="4.079">
        <ele>958.3</ele>
        <time>2026-04-26T08:07:23Z</time>
      </trkpt>
      <trkpt lat="45.02862" lon="4.07893">
        <ele>959.2</ele>
        <time>2026-04-26T08:07:28Z</time>
      </trkpt>
      <trkpt lat="45.02862" lon="4.07887">
        <ele>959.9</ele>
        <time>2026-04-26T08:07:33Z</time>
      </trkpt>
      <trkpt lat="45.02864" lon="4.07879">
        <ele>961.1</ele>
        <time>2026-04-26T08:07:38Z</time>
      </trkpt>
      <trkpt lat="45.02866" lon="4.07873">
        <ele>962.1</ele>
        <time>2026-04-26T08:07:43Z</time>
      </trkpt>
      <trkpt lat="45.02868" lon="4.07867">
        <ele>963.1</ele>
        <time>2026-04-26T08:07:48Z</time>
      </trkpt>
      <trkpt lat="45.02869" lon="4.07861">
        <ele>964</ele>
        <time>2026-04-26T08:07:53Z</time>
      </trkpt>
      <trkpt lat="45.02868" lon="4.07856">
        <ele>964.4</ele>
        <time>2026-04-26T08:07:58Z</time>
      </trkpt>
      <trkpt lat="45.02865" lon="4.07853">
        <ele>964.3</ele>
        <time>2026-04-26T08:08:03Z</time>
      </trkpt>
      <trkpt lat="45.02861" lon="4.07851">
        <ele>963.9</ele>
        <time>2026-04-26T08:08:08Z</time>
      </trkpt>
      <trkpt lat="45.02857" lon="4.07847">
        <ele>963.7</ele>
        <time>2026-04-26T08:08:13Z</time>
      </trkpt>
      <trkpt lat="45.02853" lon="4.07843">
        <ele>963.5</ele>
        <time>2026-04-26T08:08:18Z</time>
      </trkpt>
      <trkpt lat="45.02849" lon="4.07838">
        <ele>963.3</ele>
        <time>2026-04-26T08:08:23Z</time>
      </trkpt>
      <trkpt lat="45.02846" lon="4.07834">
        <ele>963.2</ele>
        <time>2026-04-26T08:08:28Z</time>
      </trkpt>
      <trkpt lat="45.02849" lon="4.07832">
        <ele>963.9</ele>
        <time>2026-04-26T08:08:33Z</time>
      </trkpt>
      <trkpt lat="45.02852" lon="4.07826">
        <ele>964.9</ele>
        <time>2026-04-26T08:08:38Z</time>
      </trkpt>
      <trkpt lat="45.02855" lon="4.07823">
        <ele>965.7</ele>
        <time>2026-04-26T08:08:43Z</time>
      </trkpt>
      <trkpt lat="45.02859" lon="4.07823">
        <ele>966.5</ele>
        <time>2026-04-26T08:08:48Z</time>
      </trkpt>
      <trkpt lat="45.02864" lon="4.07823">
        <ele>967.4</ele>
        <time>2026-04-26T08:08:53Z</time>
      </trkpt>
      <trkpt lat="45.02868" lon="4.0782">
        <ele>968.4</ele>
        <time>2026-04-26T08:08:58Z</time>
      </trkpt>
      <trkpt lat="45.02865" lon="4.07817">
        <ele>968.1</ele>
        <time>2026-04-26T08:09:03Z</time>
      </trkpt>
      <trkpt lat="45.02861" lon="4.07814">
        <ele>967.6</ele>
        <time>2026-04-26T08:09:08Z</time>
      </trkpt>
      <trkpt lat="45.02857" lon="4.0781">
        <ele>967.1</ele>
        <time>2026-04-26T08:09:13Z</time>
      </trkpt>
      <trkpt lat="45.02854" lon="4.07806">
        <ele>966.8</ele>
        <time>2026-04-26T08:09:18Z</time>
      </trkpt>
      <trkpt lat="45.02851" lon="4.07804">
        <ele>966.4</ele>
        <time>2026-04-26T08:09:23Z</time>
      </trkpt>
      <trkpt lat="45.02854" lon="4.07802">
        <ele>967.2</ele>
        <time>2026-04-26T08:09:28Z</time>
      </trkpt>
      <trkpt lat="45.02859" lon="4.07801">
        <ele>968.3</ele>
        <time>2026-04-26T08:09:33Z</time>
      </trkpt>
      <trkpt lat="45.02862" lon="4.07801">
        <ele>968.9</ele>
        <time>2026-04-26T08:09:38Z</time>
      </trkpt>
      <trkpt lat="45.02866" lon="4.07802">
        <ele>969.6</ele>
        <time>2026-04-26T08:09:43Z</time>
      </trkpt>
      <trkpt lat="45.0287" lon="4.07804">
        <ele>970.3</ele>
        <time>2026-04-26T08:09:48Z</time>
      </trkpt>
      <trkpt lat="45.02874" lon="4.07803">
        <ele>971.2</ele>
        <time>2026-04-26T08:09:53Z</time>
      </trkpt>
      <trkpt lat="45.02876" lon="4.07801">
        <ele>971.8</ele>
        <time>2026-04-26T08:09:58Z</time>
      </trkpt>
      <trkpt lat="45.02877" lon="4.078">
        <ele>972.1</ele>
        <time>2026-04-26T08:10:03Z</time>
      </trkpt>
      <trkpt lat="45.02877" lon="4.078">
        <ele>972.1</ele>
        <time>2026-04-26T08:10:08Z</time>
      </trkpt>
      <trkpt lat="45.02877" lon="4.078">
        <ele>972.1</ele>
        <time>2026-04-26T08:10:13Z</time>
      </trkpt>
      <trkpt lat="45.02877" lon="4.078">
        <ele>972.1</ele>
        <time>2026-04-26T08:10:18Z</time>
      </trkpt>
      <trkpt lat="45.02877" lon="4.078">
        <ele>972.1</ele>
        <time>2026-04-26T08:10:23Z</time>
      </trkpt>
      <trkpt lat="45.02877" lon="4.078">
        <ele>972.1</ele>
        <time>2026-04-26T08:10:28Z</time>
      </trkpt>
      <trkpt lat="45.02877" lon="4.078">
        <ele>972.1</ele>
        <time>2026-04-26T08:10:33Z</time>
      </trkpt>
      <trkpt lat="45.02877" lon="4.078">
        <ele>972.1</ele>
        <time>2026-04-26T08:10:38Z</time>
      </trkpt>
      <trkpt lat="45.02877" lon="4.078">
        <ele>972.1</ele>
        <time>2026-04-26T08:10:43Z</time>
      </trkpt>
      <trkpt lat="45.02877" lon="4.078">
        <ele>972.1</ele>
        <time>2026-04-26T08:10:48Z</time>
      </trkpt>
      <trkpt lat="45.02877" lon="4.078">
        <ele>972.1</ele>
        <time>2026-04-26T08:10:53Z</time>
      </trkpt>
      <trkpt lat="45.02871" lon="4.07802">
        <ele>970.7</ele>
        <time>2026-04-26T08:10:58Z</time>
      </trkpt>
      <trkpt lat="45.0287" lon="4.07801">
        <ele>970.6</ele>
        <time>2026-04-26T08:11:03Z</time>
      </trkpt>
      <trkpt lat="45.0287" lon="4.07801">
        <ele>970.6</ele>
        <time>2026-04-26T08:11:08Z</time>
      </trkpt>
      <trkpt lat="45.0287" lon="4.07801">
        <ele>970.6</ele>
        <time>2026-04-26T08:11:13Z</time>
      </trkpt>
      <trkpt lat="45.0287" lon="4.07801">
        <ele>970.6</ele>
        <time>2026-04-26T08:11:18Z</time>
      </trkpt>
      <trkpt lat="45.0287" lon="4.07801">
        <ele>970.6</ele>
        <time>2026-04-26T08:11:23Z</time>
      </trkpt>
      <trkpt lat="45.0287" lon="4.07801">
        <ele>970.6</ele>
        <time>2026-04-26T08:11:28Z</time>
      </trkpt>
      <trkpt lat="45.02861" lon="4.07801">
        <ele>968.7</ele>
        <time>2026-04-26T08:11:33Z</time>
      </trkpt>
      <trkpt lat="45.0286" lon="4.07797">
        <ele>968.8</ele>
        <time>2026-04-26T08:11:38Z</time>
      </trkpt>
      <trkpt lat="45.0286" lon="4.0779">
        <ele>969.4</ele>
        <time>2026-04-26T08:11:43Z</time>
      </trkpt>
      <trkpt lat="45.02857" lon="4.07787">
        <ele>969</ele>
        <time>2026-04-26T08:11:48Z</time>
      </trkpt>
      <trkpt lat="45.02854" lon="4.07784">
        <ele>968.6</ele>
        <time>2026-04-26T08:11:53Z</time>
      </trkpt>
      <trkpt lat="45.02853" lon="4.07779">
        <ele>968.7</ele>
        <time>2026-04-26T08:11:58Z</time>
      </trkpt>
      <trkpt lat="45.0285" lon="4.07775">
        <ele>968.3</ele>
        <time>2026-04-26T08:12:03Z</time>
      </trkpt>
      <trkpt lat="45.02849" lon="4.07768">
        <ele>968.6</ele>
        <time>2026-04-26T08:12:08Z</time>
      </trkpt>
      <trkpt lat="45.02848" lon="4.07762">
        <ele>968.8</ele>
        <time>2026-04-26T08:12:13Z</time>
      </trkpt>
      <trkpt lat="45.02847" lon="4.07757">
        <ele>968.9</ele>
        <time>2026-04-26T08:12:18Z</time>
      </trkpt>
      <trkpt lat="45.02846" lon="4.0775">
        <ele>969.2</ele>
        <time>2026-04-26T08:12:23Z</time>
      </trkpt>
      <trkpt lat="45.02844" lon="4.07744">
        <ele>968.1</ele>
        <time>2026-04-26T08:12:28Z</time>
      </trkpt>
      <trkpt lat="45.02843" lon="4.07737">
        <ele>967.2</ele>
        <time>2026-04-26T08:12:33Z</time>
      </trkpt>
      <trkpt lat="45.02843" lon="4.07729">
        <ele>966.4</ele>
        <time>2026-04-26T08:12:38Z</time>
      </trkpt>
      <trkpt lat="45.02844" lon="4.07722">
        <ele>966</ele>
        <time>2026-04-26T08:12:43Z</time>
      </trkpt>
      <trkpt lat="45.02846" lon="4.07717">
        <ele>966.1</ele>
        <time>2026-04-26T08:12:48Z</time>
      </trkpt>
      <trkpt lat="45.02847" lon="4.07712">
        <ele>965.9</ele>
        <time>2026-04-26T08:12:53Z</time>
      </trkpt>
      <trkpt lat="45.02847" lon="4.07708">
        <ele>965.5</ele>
        <time>2026-04-26T08:12:58Z</time>
      </trkpt>
      <trkpt lat="45.02847" lon="4.07707">
        <ele>965.4</ele>
        <time>2026-04-26T08:13:03Z</time>
      </trkpt>
      <trkpt lat="45.02847" lon="4.07707">
        <ele>965.4</ele>
        <time>2026-04-26T08:13:08Z</time>
      </trkpt>
      <trkpt lat="45.02847" lon="4.07707">
        <ele>965.4</ele>
        <time>2026-04-26T08:13:13Z</time>
      </trkpt>
      <trkpt lat="45.02847" lon="4.07707">
        <ele>965.4</ele>
        <time>2026-04-26T08:13:18Z</time>
      </trkpt>
      <trkpt lat="45.02847" lon="4.07707">
        <ele>965.4</ele>
        <time>2026-04-26T08:13:23Z</time>
      </trkpt>
      <trkpt lat="45.02847" lon="4.07707">
        <ele>965.4</ele>
        <time>2026-04-26T08:13:28Z</time>
      </trkpt>
      <trkpt lat="45.02847" lon="4.07707">
        <ele>965.4</ele>
        <time>2026-04-26T08:13:33Z</time>
      </trkpt>
      <trkpt lat="45.02847" lon="4.07707">
        <ele>965.4</ele>
        <time>2026-04-26T08:13:38Z</time>
      </trkpt>
      <trkpt lat="45.02849" lon="4.07692">
        <ele>964.5</ele>
        <time>2026-04-26T08:13:43Z</time>
      </trkpt>
      <trkpt lat="45.02851" lon="4.07685">
        <ele>964.4</ele>
        <time>2026-04-26T08:13:48Z</time>
      </trkpt>
      <trkpt lat="45.02856" lon="4.07681">
        <ele>965.3</ele>
        <time>2026-04-26T08:13:53Z</time>
      </trkpt>
      <trkpt lat="45.02859" lon="4.07675">
        <ele>965.5</ele>
        <time>2026-04-26T08:13:58Z</time>
      </trkpt>
      <trkpt lat="45.02864" lon="4.07671">
        <ele>966.5</ele>
        <time>2026-04-26T08:14:03Z</time>
      </trkpt>
      <trkpt lat="45.02869" lon="4.07664">
        <ele>967</ele>
        <time>2026-04-26T08:14:08Z</time>
      </trkpt>
      <trkpt lat="45.02875" lon="4.07658">
        <ele>967.5</ele>
        <time>2026-04-26T08:14:13Z</time>
      </trkpt>
      <trkpt lat="45.0288" lon="4.07652">
        <ele>967.8</ele>
        <time>2026-04-26T08:14:18Z</time>
      </trkpt>
      <trkpt lat="45.02884" lon="4.07646">
        <ele>967.7</ele>
        <time>2026-04-26T08:14:23Z</time>
      </trkpt>
      <trkpt lat="45.02889" lon="4.07641">
        <ele>968</ele>
        <time>2026-04-26T08:14:28Z</time>
      </trkpt>
      <trkpt lat="45.02893" lon="4.07637">
        <ele>968.2</ele>
        <time>2026-04-26T08:14:33Z</time>
      </trkpt>
      <trkpt lat="45.02893" lon="4.07635">
        <ele>967.8</ele>
        <time>2026-04-26T08:14:38Z</time>
      </trkpt>
      <trkpt lat="45.02893" lon="4.07634">
        <ele>967.6</ele>
        <time>2026-04-26T08:14:43Z</time>
      </trkpt>
      <trkpt lat="45.02893" lon="4.07634">
        <ele>967.6</ele>
        <time>2026-04-26T08:14:48Z</time>
      </trkpt>
      <trkpt lat="45.02893" lon="4.07634">
        <ele>967.6</ele>
        <time>2026-04-26T08:14:53Z</time>
      </trkpt>
      <trkpt lat="45.02893" lon="4.07634">
        <ele>967.6</ele>
        <time>2026-04-26T08:14:58Z</time>
      </trkpt>
      <trkpt lat="45.02893" lon="4.07634">
        <ele>967.6</ele>
        <time>2026-04-26T08:15:03Z</time>
      </trkpt>
      <trkpt lat="45.02893" lon="4.07634">
        <ele>967.6</ele>
        <time>2026-04-26T08:15:08Z</time>
      </trkpt>
      <trkpt lat="45.02893" lon="4.07634">
        <ele>967.6</ele>
        <time>2026-04-26T08:15:13Z</time>
      </trkpt>
      <trkpt lat="45.02893" lon="4.07634">
        <ele>967.6</ele>
        <time>2026-04-26T08:15:18Z</time>
      </trkpt>
      <trkpt lat="45.02893" lon="4.07634">
        <ele>967.6</ele>
        <time>2026-04-26T08:15:23Z</time>
      </trkpt>
      <trkpt lat="45.02893" lon="4.07634">
        <ele>967.6</ele>
        <time>2026-04-26T08:15:28Z</time>
      </trkpt>
      <trkpt lat="45.02893" lon="4.07634">
        <ele>967.6</ele>
        <time>2026-04-26T08:15:33Z</time>
      </trkpt>
      <trkpt lat="45.02893" lon="4.07634">
        <ele>967.6</ele>
        <time>2026-04-26T08:15:38Z</time>
      </trkpt>
      <trkpt lat="45.02893" lon="4.07634">
        <ele>967.6</ele>
        <time>2026-04-26T08:15:43Z</time>
      </trkpt>
      <trkpt lat="45.02893" lon="4.07634">
        <ele>967.6</ele>
        <time>2026-04-26T08:15:48Z</time>
      </trkpt>
      <trkpt lat="45.02893" lon="4.07634">
        <ele>967.6</ele>
        <time>2026-04-26T08:15:53Z</time>
      </trkpt>
      <trkpt lat="45.02893" lon="4.07634">
        <ele>967.6</ele>
        <time>2026-04-26T08:15:58Z</time>
      </trkpt>
      <trkpt lat="45.02893" lon="4.07634">
        <ele>967.6</ele>
        <time>2026-04-26T08:16:03Z</time>
      </trkpt>
      <trkpt lat="45.02893" lon="4.07634">
        <ele>967.6</ele>
        <time>2026-04-26T08:16:08Z</time>
      </trkpt>
      <trkpt lat="45.02893" lon="4.07634">
        <ele>967.6</ele>
        <time>2026-04-26T08:16:13Z</time>
      </trkpt>
      <trkpt lat="45.02896" lon="4.07631">
        <ele>967.7</ele>
        <time>2026-04-26T08:16:18Z</time>
      </trkpt>
      <trkpt lat="45.02901" lon="4.07625">
        <ele>967.6</ele>
        <time>2026-04-26T08:16:23Z</time>
      </trkpt>
      <trkpt lat="45.02906" lon="4.07622">
        <ele>968.1</ele>
        <time>2026-04-26T08:16:28Z</time>
      </trkpt>
      <trkpt lat="45.02911" lon="4.07621">
        <ele>968.9</ele>
        <time>2026-04-26T08:16:33Z</time>
      </trkpt>
      <trkpt lat="45.02916" lon="4.0762">
        <ele>969.8</ele>
        <time>2026-04-26T08:16:38Z</time>
      </trkpt>
      <trkpt lat="45.02921" lon="4.07619">
        <ele>970.3</ele>
        <time>2026-04-26T08:16:43Z</time>
      </trkpt>
      <trkpt lat="45.02926" lon="4.07616">
        <ele>970.4</ele>
        <time>2026-04-26T08:16:48Z</time>
      </trkpt>
      <trkpt lat="45.02933" lon="4.07614">
        <ele>970.9</ele>
        <time>2026-04-26T08:16:53Z</time>
      </trkpt>
      <trkpt lat="45.02939" lon="4.07614">
        <ele>971.8</ele>
        <time>2026-04-26T08:16:58Z</time>
      </trkpt>
      <trkpt lat="45.02945" lon="4.07611">
        <ele>971.8</ele>
        <time>2026-04-26T08:17:03Z</time>
      </trkpt>
      <trkpt lat="45.02949" lon="4.07609">
        <ele>971.8</ele>
        <time>2026-04-26T08:17:08Z</time>
      </trkpt>
      <trkpt lat="45.02953" lon="4.07607">
        <ele>971.8</ele>
        <time>2026-04-26T08:17:13Z</time>
      </trkpt>
      <trkpt lat="45.02956" lon="4.07604">
        <ele>971.4</ele>
        <time>2026-04-26T08:17:18Z</time>
      </trkpt>
      <trkpt lat="45.02958" lon="4.076">
        <ele>970.6</ele>
        <time>2026-04-26T08:17:23Z</time>
      </trkpt>
      <trkpt lat="45.02961" lon="4.07597">
        <ele>970.1</ele>
        <time>2026-04-26T08:17:28Z</time>
      </trkpt>
      <trkpt lat="45.02965" lon="4.07595">
        <ele>970</ele>
        <time>2026-04-26T08:17:33Z</time>
      </trkpt>
      <trkpt lat="45.02967" lon="4.07596">
        <ele>970.5</ele>
        <time>2026-04-26T08:17:38Z</time>
      </trkpt>
      <trkpt lat="45.02968" lon="4.07596">
        <ele>970.6</ele>
        <time>2026-04-26T08:17:43Z</time>
      </trkpt>
      <trkpt lat="45.02968" lon="4.07596">
        <ele>970.6</ele>
        <time>2026-04-26T08:17:48Z</time>
      </trkpt>
      <trkpt lat="45.02968" lon="4.07596">
        <ele>970.6</ele>
        <time>2026-04-26T08:17:53Z</time>
      </trkpt>
      <trkpt lat="45.02968" lon="4.07596">
        <ele>970.6</ele>
        <time>2026-04-26T08:17:58Z</time>
      </trkpt>
      <trkpt lat="45.02968" lon="4.07596">
        <ele>970.6</ele>
        <time>2026-04-26T08:18:03Z</time>
      </trkpt>
      <trkpt lat="45.02968" lon="4.07596">
        <ele>970.6</ele>
        <time>2026-04-26T08:18:08Z</time>
      </trkpt>
      <trkpt lat="45.02968" lon="4.07596">
        <ele>970.6</ele>
        <time>2026-04-26T08:18:13Z</time>
      </trkpt>
      <trkpt lat="45.02968" lon="4.07596">
        <ele>970.6</ele>
        <time>2026-04-26T08:18:18Z</time>
      </trkpt>
      <trkpt lat="45.02968" lon="4.07596">
        <ele>970.6</ele>
        <time>2026-04-26T08:18:23Z</time>
      </trkpt>
      <trkpt lat="45.02968" lon="4.07596">
        <ele>970.6</ele>
        <time>2026-04-26T08:18:28Z</time>
      </trkpt>
      <trkpt lat="45.02968" lon="4.07596">
        <ele>970.6</ele>
        <time>2026-04-26T08:18:33Z</time>
      </trkpt>
      <trkpt lat="45.02968" lon="4.07596">
        <ele>970.6</ele>
        <time>2026-04-26T08:18:38Z</time>
      </trkpt>
      <trkpt lat="45.02968" lon="4.07596">
        <ele>970.6</ele>
        <time>2026-04-26T08:18:43Z</time>
      </trkpt>
      <trkpt lat="45.02979" lon="4.07592">
        <ele>970.6</ele>
        <time>2026-04-26T08:18:48Z</time>
      </trkpt>
      <trkpt lat="45.0298" lon="4.07592">
        <ele>970.7</ele>
        <time>2026-04-26T08:18:53Z</time>
      </trkpt>
      <trkpt lat="45.02981" lon="4.07591">
        <ele>970.5</ele>
        <time>2026-04-26T08:18:58Z</time>
      </trkpt>
      <trkpt lat="45.02981" lon="4.07591">
        <ele>970.5</ele>
        <time>2026-04-26T08:19:03Z</time>
      </trkpt>
      <trkpt lat="45.02981" lon="4.07591">
        <ele>970.5</ele>
        <time>2026-04-26T08:19:08Z</time>
      </trkpt>
      <trkpt lat="45.02981" lon="4.07591">
        <ele>970.5</ele>
        <time>2026-04-26T08:19:13Z</time>
      </trkpt>
      <trkpt lat="45.02981" lon="4.07591">
        <ele>970.5</ele>
        <time>2026-04-26T08:19:18Z</time>
      </trkpt>
      <trkpt lat="45.02981" lon="4.07591">
        <ele>970.5</ele>
        <time>2026-04-26T08:19:23Z</time>
      </trkpt>
      <trkpt lat="45.02981" lon="4.07591">
        <ele>970.5</ele>
        <time>2026-04-26T08:19:28Z</time>
      </trkpt>
      <trkpt lat="45.02981" lon="4.07591">
        <ele>970.5</ele>
        <time>2026-04-26T08:19:33Z</time>
      </trkpt>
      <trkpt lat="45.02981" lon="4.07591">
        <ele>970.5</ele>
        <time>2026-04-26T08:19:38Z</time>
      </trkpt>
      <trkpt lat="45.02981" lon="4.07591">
        <ele>970.5</ele>
        <time>2026-04-26T08:19:43Z</time>
      </trkpt>
      <trkpt lat="45.02981" lon="4.07591">
        <ele>970.5</ele>
        <time>2026-04-26T08:19:48Z</time>
      </trkpt>
      <trkpt lat="45.02987" lon="4.07579">
        <ele>967.8</ele>
        <time>2026-04-26T08:19:53Z</time>
      </trkpt>
      <trkpt lat="45.02987" lon="4.07579">
        <ele>967.8</ele>
        <time>2026-04-26T08:19:58Z</time>
      </trkpt>
      <trkpt lat="45.02987" lon="4.07579">
        <ele>967.8</ele>
        <time>2026-04-26T08:20:03Z</time>
      </trkpt>
      <trkpt lat="45.02987" lon="4.07579">
        <ele>967.8</ele>
        <time>2026-04-26T08:20:08Z</time>
      </trkpt>
      <trkpt lat="45.02987" lon="4.07579">
        <ele>967.8</ele>
        <time>2026-04-26T08:20:13Z</time>
      </trkpt>
      <trkpt lat="45.02998" lon="4.07575">
        <ele>967.8</ele>
        <time>2026-04-26T08:20:18Z</time>
      </trkpt>
      <trkpt lat="45.02998" lon="4.07575">
        <ele>967.8</ele>
        <time>2026-04-26T08:20:23Z</time>
      </trkpt>
      <trkpt lat="45.02998" lon="4.07575">
        <ele>967.8</ele>
        <time>2026-04-26T08:20:28Z</time>
      </trkpt>
      <trkpt lat="45.02998" lon="4.07575">
        <ele>967.8</ele>
        <time>2026-04-26T08:20:33Z</time>
      </trkpt>
      <trkpt lat="45.02998" lon="4.07575">
        <ele>967.8</ele>
        <time>2026-04-26T08:20:38Z</time>
      </trkpt>
      <trkpt lat="45.02998" lon="4.07575">
        <ele>967.8</ele>
        <time>2026-04-26T08:20:43Z</time>
      </trkpt>
      <trkpt lat="45.02998" lon="4.07575">
        <ele>967.8</ele>
        <time>2026-04-26T08:20:48Z</time>
      </trkpt>
      <trkpt lat="45.03008" lon="4.07581">
        <ele>969.4</ele>
        <time>2026-04-26T08:20:53Z</time>
      </trkpt>
      <trkpt lat="45.03008" lon="4.07581">
        <ele>969.4</ele>
        <time>2026-04-26T08:20:58Z</time>
      </trkpt>
      <trkpt lat="45.03016" lon="4.0758">
        <ele>969.2</ele>
        <time>2026-04-26T08:21:03Z</time>
      </trkpt>
      <trkpt lat="45.0302" lon="4.07579">
        <ele>968.9</ele>
        <time>2026-04-26T08:21:08Z</time>
      </trkpt>
      <trkpt lat="45.03022" lon="4.0758">
        <ele>969.1</ele>
        <time>2026-04-26T08:21:13Z</time>
      </trkpt>
      <trkpt lat="45.03022" lon="4.07581">
        <ele>969.4</ele>
        <time>2026-04-26T08:21:18Z</time>
      </trkpt>
      <trkpt lat="45.03023" lon="4.07582">
        <ele>969.7</ele>
        <time>2026-04-26T08:21:23Z</time>
      </trkpt>
      <trkpt lat="45.03023" lon="4.07582">
        <ele>969.7</ele>
        <time>2026-04-26T08:21:28Z</time>
      </trkpt>
      <trkpt lat="45.03023" lon="4.07582">
        <ele>969.7</ele>
        <time>2026-04-26T08:21:33Z</time>
      </trkpt>
      <trkpt lat="45.03023" lon="4.07582">
        <ele>969.7</ele>
        <time>2026-04-26T08:21:38Z</time>
      </trkpt>
      <trkpt lat="45.03023" lon="4.07582">
        <ele>969.7</ele>
        <time>2026-04-26T08:21:43Z</time>
      </trkpt>
      <trkpt lat="45.03023" lon="4.07582">
        <ele>969.7</ele>
        <time>2026-04-26T08:21:48Z</time>
      </trkpt>
      <trkpt lat="45.03031" lon="4.07574">
        <ele>967.5</ele>
        <time>2026-04-26T08:21:53Z</time>
      </trkpt>
      <trkpt lat="45.03034" lon="4.07572">
        <ele>966.9</ele>
        <time>2026-04-26T08:21:58Z</time>
      </trkpt>
      <trkpt lat="45.03037" lon="4.07567">
        <ele>965.6</ele>
        <time>2026-04-26T08:22:03Z</time>
      </trkpt>
      <trkpt lat="45.03039" lon="4.07564">
        <ele>964.7</ele>
        <time>2026-04-26T08:22:08Z</time>
      </trkpt>
      <trkpt lat="45.03042" lon="4.07565">
        <ele>964.9</ele>
        <time>2026-04-26T08:22:13Z</time>
      </trkpt>
      <trkpt lat="45.03047" lon="4.07569">
        <ele>966</ele>
        <time>2026-04-26T08:22:18Z</time>
      </trkpt>
      <trkpt lat="45.0305" lon="4.07574">
        <ele>967.4</ele>
        <time>2026-04-26T08:22:23Z</time>
      </trkpt>
      <trkpt lat="45.03053" lon="4.0758">
        <ele>969</ele>
        <time>2026-04-26T08:22:28Z</time>
      </trkpt>
      <trkpt lat="45.03057" lon="4.07583">
        <ele>969.9</ele>
        <time>2026-04-26T08:22:33Z</time>
      </trkpt>
      <trkpt lat="45.03062" lon="4.07586">
        <ele>970.7</ele>
        <time>2026-04-26T08:22:38Z</time>
      </trkpt>
      <trkpt lat="45.03069" lon="4.07588">
        <ele>971.2</ele>
        <time>2026-04-26T08:22:43Z</time>
      </trkpt>
      <trkpt lat="45.03077" lon="4.07589">
        <ele>971.4</ele>
        <time>2026-04-26T08:22:48Z</time>
      </trkpt>
      <trkpt lat="45.03084" lon="4.07588">
        <ele>971</ele>
        <time>2026-04-26T08:22:53Z</time>
      </trkpt>
      <trkpt lat="45.03091" lon="4.07588">
        <ele>969.3</ele>
        <time>2026-04-26T08:22:58Z</time>
      </trkpt>
      <trkpt lat="45.03096" lon="4.07587">
        <ele>967.9</ele>
        <time>2026-04-26T08:23:03Z</time>
      </trkpt>
      <trkpt lat="45.03101" lon="4.07582">
        <ele>965.6</ele>
        <time>2026-04-26T08:23:08Z</time>
      </trkpt>
      <trkpt lat="45.03106" lon="4.07577">
        <ele>963.1</ele>
        <time>2026-04-26T08:23:13Z</time>
      </trkpt>
      <trkpt lat="45.03106" lon="4.07575">
        <ele>962.6</ele>
        <time>2026-04-26T08:23:18Z</time>
      </trkpt>
      <trkpt lat="45.03106" lon="4.07575">
        <ele>962.6</ele>
        <time>2026-04-26T08:23:23Z</time>
      </trkpt>
      <trkpt lat="45.03106" lon="4.07575">
        <ele>962.6</ele>
        <time>2026-04-26T08:23:28Z</time>
      </trkpt>
      <trkpt lat="45.03106" lon="4.07575">
        <ele>962.6</ele>
        <time>2026-04-26T08:23:33Z</time>
      </trkpt>
      <trkpt lat="45.03106" lon="4.07575">
        <ele>962.6</ele>
        <time>2026-04-26T08:23:38Z</time>
      </trkpt>
      <trkpt lat="45.03106" lon="4.07575">
        <ele>962.6</ele>
        <time>2026-04-26T08:23:43Z</time>
      </trkpt>
      <trkpt lat="45.03106" lon="4.07575">
        <ele>962.6</ele>
        <time>2026-04-26T08:23:48Z</time>
      </trkpt>
      <trkpt lat="45.03105" lon="4.07562">
        <ele>959.2</ele>
        <time>2026-04-26T08:23:53Z</time>
      </trkpt>
      <trkpt lat="45.03104" lon="4.07557">
        <ele>958</ele>
        <time>2026-04-26T08:23:58Z</time>
      </trkpt>
      <trkpt lat="45.03105" lon="4.0755">
        <ele>955.9</ele>
        <time>2026-04-26T08:24:03Z</time>
      </trkpt>
      <trkpt lat="45.03108" lon="4.07545">
        <ele>954</ele>
        <time>2026-04-26T08:24:08Z</time>
      </trkpt>
      <trkpt lat="45.03112" lon="4.07538">
        <ele>951.6</ele>
        <time>2026-04-26T08:24:13Z</time>
      </trkpt>
      <trkpt lat="45.03114" lon="4.07532">
        <ele>949.7</ele>
        <time>2026-04-26T08:24:18Z</time>
      </trkpt>
      <trkpt lat="45.03116" lon="4.07525">
        <ele>947.6</ele>
        <time>2026-04-26T08:24:23Z</time>
      </trkpt>
      <trkpt lat="45.03113" lon="4.07518">
        <ele>946.2</ele>
        <time>2026-04-26T08:24:28Z</time>
      </trkpt>
      <trkpt lat="45.03109" lon="4.07509">
        <ele>944.3</ele>
        <time>2026-04-26T08:24:33Z</time>
      </trkpt>
      <trkpt lat="45.03113" lon="4.07509">
        <ele>943.9</ele>
        <time>2026-04-26T08:24:38Z</time>
      </trkpt>
      <trkpt lat="45.0312" lon="4.07511">
        <ele>943.7</ele>
        <time>2026-04-26T08:24:43Z</time>
      </trkpt>
      <trkpt lat="45.03125" lon="4.07514">
        <ele>943.9</ele>
        <time>2026-04-26T08:24:48Z</time>
      </trkpt>
      <trkpt lat="45.03132" lon="4.07519">
        <ele>944.2</ele>
        <time>2026-04-26T08:24:53Z</time>
      </trkpt>
      <trkpt lat="45.03138" lon="4.07521">
        <ele>944</ele>
        <time>2026-04-26T08:24:58Z</time>
      </trkpt>
      <trkpt lat="45.03139" lon="4.07514">
        <ele>942.3</ele>
        <time>2026-04-26T08:25:03Z</time>
      </trkpt>
      <trkpt lat="45.0314" lon="4.07504">
        <ele>940.1</ele>
        <time>2026-04-26T08:25:08Z</time>
      </trkpt>
      <trkpt lat="45.03137" lon="4.07493">
        <ele>938.8</ele>
        <time>2026-04-26T08:25:13Z</time>
      </trkpt>
      <trkpt lat="45.03136" lon="4.07486">
        <ele>938.2</ele>
        <time>2026-04-26T08:25:18Z</time>
      </trkpt>
      <trkpt lat="45.03137" lon="4.07482">
        <ele>937.8</ele>
        <time>2026-04-26T08:25:23Z</time>
      </trkpt>
      <trkpt lat="45.0314" lon="4.07478">
        <ele>937.1</ele>
        <time>2026-04-26T08:25:28Z</time>
      </trkpt>
      <trkpt lat="45.03144" lon="4.07476">
        <ele>936.6</ele>
        <time>2026-04-26T08:25:33Z</time>
      </trkpt>
      <trkpt lat="45.03149" lon="4.07474">
        <ele>936</ele>
        <time>2026-04-26T08:25:38Z</time>
      </trkpt>
      <trkpt lat="45.0315" lon="4.07479">
        <ele>936.4</ele>
        <time>2026-04-26T08:25:43Z</time>
      </trkpt>
      <trkpt lat="45.03149" lon="4.07481">
        <ele>936.7</ele>
        <time>2026-04-26T08:25:48Z</time>
      </trkpt>
      <trkpt lat="45.03148" lon="4.07481">
        <ele>936.7</ele>
        <time>2026-04-26T08:25:53Z</time>
      </trkpt>
      <trkpt lat="45.03149" lon="4.07479">
        <ele>936.5</ele>
        <time>2026-04-26T08:25:58Z</time>
      </trkpt>
      <trkpt lat="45.03155" lon="4.07473">
        <ele>935.4</ele>
        <time>2026-04-26T08:26:03Z</time>
      </trkpt>
      <trkpt lat="45.03164" lon="4.07474">
        <ele>934.7</ele>
        <time>2026-04-26T08:26:08Z</time>
      </trkpt>
      <trkpt lat="45.03169" lon="4.07472">
        <ele>934</ele>
        <time>2026-04-26T08:26:13Z</time>
      </trkpt>
      <trkpt lat="45.03174" lon="4.07473">
        <ele>933.5</ele>
        <time>2026-04-26T08:26:18Z</time>
      </trkpt>
      <trkpt lat="45.03182" lon="4.07473">
        <ele>932.6</ele>
        <time>2026-04-26T08:26:23Z</time>
      </trkpt>
      <trkpt lat="45.03191" lon="4.07471">
        <ele>931.3</ele>
        <time>2026-04-26T08:26:28Z</time>
      </trkpt>
      <trkpt lat="45.03195" lon="4.07466">
        <ele>930.5</ele>
        <time>2026-04-26T08:26:33Z</time>
      </trkpt>
      <trkpt lat="45.03201" lon="4.07461">
        <ele>929.5</ele>
        <time>2026-04-26T08:26:38Z</time>
      </trkpt>
      <trkpt lat="45.03208" lon="4.07453">
        <ele>928.2</ele>
        <time>2026-04-26T08:26:43Z</time>
      </trkpt>
      <trkpt lat="45.03214" lon="4.07446">
        <ele>927.2</ele>
        <time>2026-04-26T08:26:48Z</time>
      </trkpt>
      <trkpt lat="45.03219" lon="4.07438">
        <ele>926.3</ele>
        <time>2026-04-26T08:26:53Z</time>
      </trkpt>
      <trkpt lat="45.03226" lon="4.0743">
        <ele>925.3</ele>
        <time>2026-04-26T08:26:58Z</time>
      </trkpt>
      <trkpt lat="45.03232" lon="4.07424">
        <ele>924.6</ele>
        <time>2026-04-26T08:27:03Z</time>
      </trkpt>
      <trkpt lat="45.03235" lon="4.07416">
        <ele>924</ele>
        <time>2026-04-26T08:27:08Z</time>
      </trkpt>
      <trkpt lat="45.03236" lon="4.07405">
        <ele>923.4</ele>
        <time>2026-04-26T08:27:13Z</time>
      </trkpt>
      <trkpt lat="45.03237" lon="4.07393">
        <ele>922.8</ele>
        <time>2026-04-26T08:27:18Z</time>
      </trkpt>
      <trkpt lat="45.03239" lon="4.07383">
        <ele>922.1</ele>
        <time>2026-04-26T08:27:23Z</time>
      </trkpt>
      <trkpt lat="45.03242" lon="4.07373">
        <ele>921.4</ele>
        <time>2026-04-26T08:27:28Z</time>
      </trkpt>
      <trkpt lat="45.03245" lon="4.07363">
        <ele>920.7</ele>
        <time>2026-04-26T08:27:33Z</time>
      </trkpt>
      <trkpt lat="45.03248" lon="4.07354">
        <ele>920.1</ele>
        <time>2026-04-26T08:27:38Z</time>
      </trkpt>
      <trkpt lat="45.03253" lon="4.07354">
        <ele>919.8</ele>
        <time>2026-04-26T08:27:43Z</time>
      </trkpt>
      <trkpt lat="45.03261" lon="4.07355">
        <ele>919.4</ele>
        <time>2026-04-26T08:27:48Z</time>
      </trkpt>
      <trkpt lat="45.03267" lon="4.07354">
        <ele>919</ele>
        <time>2026-04-26T08:27:53Z</time>
      </trkpt>
      <trkpt lat="45.03275" lon="4.07352">
        <ele>918.4</ele>
        <time>2026-04-26T08:27:58Z</time>
      </trkpt>
      <trkpt lat="45.03283" lon="4.07349">
        <ele>917.8</ele>
        <time>2026-04-26T08:28:03Z</time>
      </trkpt>
      <trkpt lat="45.03287" lon="4.07345">
        <ele>917.3</ele>
        <time>2026-04-26T08:28:08Z</time>
      </trkpt>
      <trkpt lat="45.03293" lon="4.07336">
        <ele>916.5</ele>
        <time>2026-04-26T08:28:13Z</time>
      </trkpt>
      <trkpt lat="45.03298" lon="4.0733">
        <ele>915.9</ele>
        <time>2026-04-26T08:28:18Z</time>
      </trkpt>
      <trkpt lat="45.03303" lon="4.07324">
        <ele>915.1</ele>
        <time>2026-04-26T08:28:23Z</time>
      </trkpt>
      <trkpt lat="45.03309" lon="4.07317">
        <ele>914.3</ele>
        <time>2026-04-26T08:28:28Z</time>
      </trkpt>
      <trkpt lat="45.03315" lon="4.07308">
        <ele>913.5</ele>
        <time>2026-04-26T08:28:33Z</time>
      </trkpt>
      <trkpt lat="45.03322" lon="4.07302">
        <ele>912.9</ele>
        <time>2026-04-26T08:28:38Z</time>
      </trkpt>
      <trkpt lat="45.0333" lon="4.07297">
        <ele>912.4</ele>
        <time>2026-04-26T08:28:43Z</time>
      </trkpt>
      <trkpt lat="45.03338" lon="4.07293">
        <ele>911.8</ele>
        <time>2026-04-26T08:28:48Z</time>
      </trkpt>
      <trkpt lat="45.03344" lon="4.07288">
        <ele>911.2</ele>
        <time>2026-04-26T08:28:53Z</time>
      </trkpt>
      <trkpt lat="45.03351" lon="4.07285">
        <ele>910.7</ele>
        <time>2026-04-26T08:28:58Z</time>
      </trkpt>
      <trkpt lat="45.03357" lon="4.07279">
        <ele>910.1</ele>
        <time>2026-04-26T08:29:03Z</time>
      </trkpt>
      <trkpt lat="45.03364" lon="4.07275">
        <ele>909.5</ele>
        <time>2026-04-26T08:29:08Z</time>
      </trkpt>
      <trkpt lat="45.03371" lon="4.07271">
        <ele>909</ele>
        <time>2026-04-26T08:29:13Z</time>
      </trkpt>
      <trkpt lat="45.03377" lon="4.07268">
        <ele>908.5</ele>
        <time>2026-04-26T08:29:18Z</time>
      </trkpt>
      <trkpt lat="45.03385" lon="4.07265">
        <ele>908</ele>
        <time>2026-04-26T08:29:23Z</time>
      </trkpt>
      <trkpt lat="45.03392" lon="4.07264">
        <ele>907.6</ele>
        <time>2026-04-26T08:29:28Z</time>
      </trkpt>
      <trkpt lat="45.03399" lon="4.07263">
        <ele>907.2</ele>
        <time>2026-04-26T08:29:33Z</time>
      </trkpt>
      <trkpt lat="45.03405" lon="4.07263">
        <ele>906.9</ele>
        <time>2026-04-26T08:29:38Z</time>
      </trkpt>
      <trkpt lat="45.03413" lon="4.07262">
        <ele>906.5</ele>
        <time>2026-04-26T08:29:43Z</time>
      </trkpt>
      <trkpt lat="45.0342" lon="4.07261">
        <ele>905.9</ele>
        <time>2026-04-26T08:29:48Z</time>
      </trkpt>
      <trkpt lat="45.03427" lon="4.0726">
        <ele>905.2</ele>
        <time>2026-04-26T08:29:53Z</time>
      </trkpt>
      <trkpt lat="45.03432" lon="4.0726">
        <ele>904.8</ele>
        <time>2026-04-26T08:29:58Z</time>
      </trkpt>
      <trkpt lat="45.03436" lon="4.0726">
        <ele>904.4</ele>
        <time>2026-04-26T08:30:03Z</time>
      </trkpt>
      <trkpt lat="45.03442" lon="4.07258">
        <ele>903.8</ele>
        <time>2026-04-26T08:30:08Z</time>
      </trkpt>
      <trkpt lat="45.03445" lon="4.07251">
        <ele>903.3</ele>
        <time>2026-04-26T08:30:13Z</time>
      </trkpt>
      <trkpt lat="45.03442" lon="4.07245">
        <ele>903.4</ele>
        <time>2026-04-26T08:30:18Z</time>
      </trkpt>
      <trkpt lat="45.03439" lon="4.07239">
        <ele>903.6</ele>
        <time>2026-04-26T08:30:23Z</time>
      </trkpt>
      <trkpt lat="45.03436" lon="4.07236">
        <ele>903.8</ele>
        <time>2026-04-26T08:30:28Z</time>
      </trkpt>
      <trkpt lat="45.03432" lon="4.07231">
        <ele>904.1</ele>
        <time>2026-04-26T08:30:33Z</time>
      </trkpt>
      <trkpt lat="45.03431" lon="4.07229">
        <ele>904.1</ele>
        <time>2026-04-26T08:30:38Z</time>
      </trkpt>
      <trkpt lat="45.03427" lon="4.07223">
        <ele>904.4</ele>
        <time>2026-04-26T08:30:43Z</time>
      </trkpt>
      <trkpt lat="45.03423" lon="4.07216">
        <ele>904.6</ele>
        <time>2026-04-26T08:30:48Z</time>
      </trkpt>
      <trkpt lat="45.03418" lon="4.0721">
        <ele>904.9</ele>
        <time>2026-04-26T08:30:53Z</time>
      </trkpt>
      <trkpt lat="45.03414" lon="4.07205">
        <ele>905</ele>
        <time>2026-04-26T08:30:58Z</time>
      </trkpt>
      <trkpt lat="45.0341" lon="4.07197">
        <ele>904.9</ele>
        <time>2026-04-26T08:31:03Z</time>
      </trkpt>
      <trkpt lat="45.03404" lon="4.07189">
        <ele>904.8</ele>
        <time>2026-04-26T08:31:08Z</time>
      </trkpt>
      <trkpt lat="45.034" lon="4.07184">
        <ele>904.7</ele>
        <time>2026-04-26T08:31:13Z</time>
      </trkpt>
      <trkpt lat="45.03396" lon="4.07176">
        <ele>904.6</ele>
        <time>2026-04-26T08:31:18Z</time>
      </trkpt>
      <trkpt lat="45.03396" lon="4.0717">
        <ele>904.4</ele>
        <time>2026-04-26T08:31:23Z</time>
      </trkpt>
      <trkpt lat="45.03396" lon="4.07161">
        <ele>904</ele>
        <time>2026-04-26T08:31:28Z</time>
      </trkpt>
      <trkpt lat="45.03396" lon="4.07151">
        <ele>903.6</ele>
        <time>2026-04-26T08:31:33Z</time>
      </trkpt>
      <trkpt lat="45.03397" lon="4.0714">
        <ele>903.1</ele>
        <time>2026-04-26T08:31:38Z</time>
      </trkpt>
      <trkpt lat="45.03398" lon="4.0713">
        <ele>902.7</ele>
        <time>2026-04-26T08:31:43Z</time>
      </trkpt>
      <trkpt lat="45.034" lon="4.0712">
        <ele>902.3</ele>
        <time>2026-04-26T08:31:48Z</time>
      </trkpt>
      <trkpt lat="45.034" lon="4.07105">
        <ele>901.7</ele>
        <time>2026-04-26T08:31:53Z</time>
      </trkpt>
      <trkpt lat="45.03398" lon="4.07094">
        <ele>901.2</ele>
        <time>2026-04-26T08:31:58Z</time>
      </trkpt>
      <trkpt lat="45.03397" lon="4.07085">
        <ele>900.8</ele>
        <time>2026-04-26T08:32:03Z</time>
      </trkpt>
      <trkpt lat="45.03397" lon="4.07078">
        <ele>900.6</ele>
        <time>2026-04-26T08:32:08Z</time>
      </trkpt>
      <trkpt lat="45.03397" lon="4.07069">
        <ele>900.2</ele>
        <time>2026-04-26T08:32:13Z</time>
      </trkpt>
      <trkpt lat="45.03397" lon="4.07056">
        <ele>899.8</ele>
        <time>2026-04-26T08:32:18Z</time>
      </trkpt>
      <trkpt lat="45.03398" lon="4.07042">
        <ele>899.3</ele>
        <time>2026-04-26T08:32:23Z</time>
      </trkpt>
      <trkpt lat="45.03398" lon="4.0703">
        <ele>898.9</ele>
        <time>2026-04-26T08:32:28Z</time>
      </trkpt>
      <trkpt lat="45.034" lon="4.07022">
        <ele>898.6</ele>
        <time>2026-04-26T08:32:33Z</time>
      </trkpt>
      <trkpt lat="45.03403" lon="4.07013">
        <ele>898.3</ele>
        <time>2026-04-26T08:32:38Z</time>
      </trkpt>
      <trkpt lat="45.03406" lon="4.07006">
        <ele>898.1</ele>
        <time>2026-04-26T08:32:43Z</time>
      </trkpt>
      <trkpt lat="45.03409" lon="4.07">
        <ele>897.9</ele>
        <time>2026-04-26T08:32:48Z</time>
      </trkpt>
      <trkpt lat="45.03411" lon="4.06994">
        <ele>897.2</ele>
        <time>2026-04-26T08:32:53Z</time>
      </trkpt>
      <trkpt lat="45.03414" lon="4.06989">
        <ele>896.5</ele>
        <time>2026-04-26T08:32:58Z</time>
      </trkpt>
      <trkpt lat="45.03418" lon="4.06982">
        <ele>895.5</ele>
        <time>2026-04-26T08:33:03Z</time>
      </trkpt>
      <trkpt lat="45.03421" lon="4.06975">
        <ele>894.3</ele>
        <time>2026-04-26T08:33:08Z</time>
      </trkpt>
      <trkpt lat="45.03426" lon="4.06969">
        <ele>893</ele>
        <time>2026-04-26T08:33:13Z</time>
      </trkpt>
      <trkpt lat="45.03431" lon="4.06962">
        <ele>891.6</ele>
        <time>2026-04-26T08:33:18Z</time>
      </trkpt>
      <trkpt lat="45.03437" lon="4.06959">
        <ele>890.6</ele>
        <time>2026-04-26T08:33:23Z</time>
      </trkpt>
      <trkpt lat="45.03442" lon="4.06955">
        <ele>889.6</ele>
        <time>2026-04-26T08:33:28Z</time>
      </trkpt>
      <trkpt lat="45.03447" lon="4.0695">
        <ele>888.5</ele>
        <time>2026-04-26T08:33:33Z</time>
      </trkpt>
      <trkpt lat="45.03455" lon="4.06945">
        <ele>887.1</ele>
        <time>2026-04-26T08:33:38Z</time>
      </trkpt>
      <trkpt lat="45.03462" lon="4.06938">
        <ele>885.5</ele>
        <time>2026-04-26T08:33:43Z</time>
      </trkpt>
      <trkpt lat="45.03467" lon="4.06931">
        <ele>884.1</ele>
        <time>2026-04-26T08:33:48Z</time>
      </trkpt>
      <trkpt lat="45.03472" lon="4.06926">
        <ele>882.9</ele>
        <time>2026-04-26T08:33:53Z</time>
      </trkpt>
      <trkpt lat="45.03476" lon="4.0692">
        <ele>881.7</ele>
        <time>2026-04-26T08:33:58Z</time>
      </trkpt>
      <trkpt lat="45.03481" lon="4.06913">
        <ele>880.4</ele>
        <time>2026-04-26T08:34:03Z</time>
      </trkpt>
      <trkpt lat="45.03487" lon="4.06907">
        <ele>879.2</ele>
        <time>2026-04-26T08:34:08Z</time>
      </trkpt>
      <trkpt lat="45.03493" lon="4.06902">
        <ele>878.1</ele>
        <time>2026-04-26T08:34:13Z</time>
      </trkpt>
      <trkpt lat="45.03499" lon="4.06895">
        <ele>876.7</ele>
        <time>2026-04-26T08:34:18Z</time>
      </trkpt>
      <trkpt lat="45.03504" lon="4.06888">
        <ele>875.8</ele>
        <time>2026-04-26T08:34:23Z</time>
      </trkpt>
      <trkpt lat="45.03511" lon="4.06885">
        <ele>875.3</ele>
        <time>2026-04-26T08:34:28Z</time>
      </trkpt>
      <trkpt lat="45.03517" lon="4.0688">
        <ele>874.6</ele>
        <time>2026-04-26T08:34:33Z</time>
      </trkpt>
      <trkpt lat="45.03524" lon="4.06875">
        <ele>873.9</ele>
        <time>2026-04-26T08:34:38Z</time>
      </trkpt>
      <trkpt lat="45.03531" lon="4.06869">
        <ele>873.2</ele>
        <time>2026-04-26T08:34:43Z</time>
      </trkpt>
      <trkpt lat="45.03536" lon="4.06859">
        <ele>872.2</ele>
        <time>2026-04-26T08:34:48Z</time>
      </trkpt>
      <trkpt lat="45.0354" lon="4.06851">
        <ele>871.5</ele>
        <time>2026-04-26T08:34:53Z</time>
      </trkpt>
      <trkpt lat="45.03544" lon="4.06847">
        <ele>871.1</ele>
        <time>2026-04-26T08:34:58Z</time>
      </trkpt>
      <trkpt lat="45.03551" lon="4.06843">
        <ele>870.8</ele>
        <time>2026-04-26T08:35:03Z</time>
      </trkpt>
      <trkpt lat="45.0356" lon="4.06841">
        <ele>870.6</ele>
        <time>2026-04-26T08:35:08Z</time>
      </trkpt>
      <trkpt lat="45.03567" lon="4.0684">
        <ele>870.5</ele>
        <time>2026-04-26T08:35:13Z</time>
      </trkpt>
      <trkpt lat="45.03575" lon="4.0684">
        <ele>870.4</ele>
        <time>2026-04-26T08:35:18Z</time>
      </trkpt>
      <trkpt lat="45.03582" lon="4.06839">
        <ele>870.3</ele>
        <time>2026-04-26T08:35:23Z</time>
      </trkpt>
      <trkpt lat="45.03587" lon="4.06839">
        <ele>870.1</ele>
        <time>2026-04-26T08:35:28Z</time>
      </trkpt>
      <trkpt lat="45.03592" lon="4.0684">
        <ele>869.9</ele>
        <time>2026-04-26T08:35:33Z</time>
      </trkpt>
      <trkpt lat="45.03598" lon="4.06842">
        <ele>869.6</ele>
        <time>2026-04-26T08:35:38Z</time>
      </trkpt>
      <trkpt lat="45.03603" lon="4.06839">
        <ele>869.2</ele>
        <time>2026-04-26T08:35:43Z</time>
      </trkpt>
      <trkpt lat="45.03609" lon="4.06834">
        <ele>868.5</ele>
        <time>2026-04-26T08:35:48Z</time>
      </trkpt>
      <trkpt lat="45.03618" lon="4.06834">
        <ele>868</ele>
        <time>2026-04-26T08:35:53Z</time>
      </trkpt>
      <trkpt lat="45.03625" lon="4.06836">
        <ele>867.7</ele>
        <time>2026-04-26T08:35:58Z</time>
      </trkpt>
      <trkpt lat="45.03633" lon="4.06837">
        <ele>867.2</ele>
        <time>2026-04-26T08:36:03Z</time>
      </trkpt>
      <trkpt lat="45.03641" lon="4.06836">
        <ele>866.7</ele>
        <time>2026-04-26T08:36:08Z</time>
      </trkpt>
      <trkpt lat="45.03644" lon="4.06827">
        <ele>865.8</ele>
        <time>2026-04-26T08:36:13Z</time>
      </trkpt>
      <trkpt lat="45.03644" lon="4.06818">
        <ele>865.1</ele>
        <time>2026-04-26T08:36:18Z</time>
      </trkpt>
      <trkpt lat="45.03645" lon="4.06808">
        <ele>864.2</ele>
        <time>2026-04-26T08:36:23Z</time>
      </trkpt>
      <trkpt lat="45.03645" lon="4.06796">
        <ele>863.2</ele>
        <time>2026-04-26T08:36:28Z</time>
      </trkpt>
      <trkpt lat="45.03645" lon="4.06784">
        <ele>862.2</ele>
        <time>2026-04-26T08:36:33Z</time>
      </trkpt>
      <trkpt lat="45.03644" lon="4.06773">
        <ele>861.3</ele>
        <time>2026-04-26T08:36:38Z</time>
      </trkpt>
      <trkpt lat="45.03644" lon="4.06761">
        <ele>860.3</ele>
        <time>2026-04-26T08:36:43Z</time>
      </trkpt>
      <trkpt lat="45.03643" lon="4.0675">
        <ele>859.4</ele>
        <time>2026-04-26T08:36:48Z</time>
      </trkpt>
      <trkpt lat="45.03642" lon="4.0674">
        <ele>858.4</ele>
        <time>2026-04-26T08:36:53Z</time>
      </trkpt>
      <trkpt lat="45.03642" lon="4.0673">
        <ele>857.3</ele>
        <time>2026-04-26T08:36:58Z</time>
      </trkpt>
      <trkpt lat="45.03642" lon="4.0672">
        <ele>856.2</ele>
        <time>2026-04-26T08:37:03Z</time>
      </trkpt>
      <trkpt lat="45.03642" lon="4.0671">
        <ele>855.2</ele>
        <time>2026-04-26T08:37:08Z</time>
      </trkpt>
      <trkpt lat="45.03641" lon="4.06699">
        <ele>854</ele>
        <time>2026-04-26T08:37:13Z</time>
      </trkpt>
      <trkpt lat="45.03642" lon="4.06688">
        <ele>852.8</ele>
        <time>2026-04-26T08:37:18Z</time>
      </trkpt>
      <trkpt lat="45.03642" lon="4.06676">
        <ele>851.5</ele>
        <time>2026-04-26T08:37:23Z</time>
      </trkpt>
      <trkpt lat="45.03643" lon="4.06665">
        <ele>850.2</ele>
        <time>2026-04-26T08:37:28Z</time>
      </trkpt>
      <trkpt lat="45.03644" lon="4.06655">
        <ele>849</ele>
        <time>2026-04-26T08:37:33Z</time>
      </trkpt>
      <trkpt lat="45.03645" lon="4.06645">
        <ele>847.7</ele>
        <time>2026-04-26T08:37:38Z</time>
      </trkpt>
      <trkpt lat="45.03645" lon="4.06635">
        <ele>846.5</ele>
        <time>2026-04-26T08:37:43Z</time>
      </trkpt>
      <trkpt lat="45.03646" lon="4.06624">
        <ele>845.1</ele>
        <time>2026-04-26T08:37:48Z</time>
      </trkpt>
      <trkpt lat="45.03646" lon="4.06619">
        <ele>844.5</ele>
        <time>2026-04-26T08:37:53Z</time>
      </trkpt>
      <trkpt lat="45.03647" lon="4.06618">
        <ele>844.3</ele>
        <time>2026-04-26T08:37:58Z</time>
      </trkpt>
      <trkpt lat="45.03646" lon="4.06616">
        <ele>844.2</ele>
        <time>2026-04-26T08:38:03Z</time>
      </trkpt>
      <trkpt lat="45.03645" lon="4.06609">
        <ele>843.4</ele>
        <time>2026-04-26T08:38:08Z</time>
      </trkpt>
      <trkpt lat="45.03642" lon="4.06596">
        <ele>842</ele>
        <time>2026-04-26T08:38:13Z</time>
      </trkpt>
      <trkpt lat="45.03642" lon="4.06586">
        <ele>840.8</ele>
        <time>2026-04-26T08:38:18Z</time>
      </trkpt>
      <trkpt lat="45.0364" lon="4.06575">
        <ele>840.3</ele>
        <time>2026-04-26T08:38:23Z</time>
      </trkpt>
      <trkpt lat="45.03637" lon="4.06563">
        <ele>840</ele>
        <time>2026-04-26T08:38:28Z</time>
      </trkpt>
      <trkpt lat="45.03635" lon="4.06554">
        <ele>839.8</ele>
        <time>2026-04-26T08:38:33Z</time>
      </trkpt>
      <trkpt lat="45.03634" lon="4.06543">
        <ele>839.4</ele>
        <time>2026-04-26T08:38:38Z</time>
      </trkpt>
      <trkpt lat="45.03634" lon="4.0653">
        <ele>838.9</ele>
        <time>2026-04-26T08:38:43Z</time>
      </trkpt>
      <trkpt lat="45.03635" lon="4.06519">
        <ele>838.5</ele>
        <time>2026-04-26T08:38:48Z</time>
      </trkpt>
      <trkpt lat="45.03634" lon="4.0651">
        <ele>838.2</ele>
        <time>2026-04-26T08:38:53Z</time>
      </trkpt>
      <trkpt lat="45.03635" lon="4.06504">
        <ele>837.9</ele>
        <time>2026-04-26T08:38:58Z</time>
      </trkpt>
      <trkpt lat="45.03633" lon="4.06498">
        <ele>837.7</ele>
        <time>2026-04-26T08:39:03Z</time>
      </trkpt>
      <trkpt lat="45.03633" lon="4.06495">
        <ele>837.5</ele>
        <time>2026-04-26T08:39:08Z</time>
      </trkpt>
      <trkpt lat="45.03634" lon="4.06494">
        <ele>837.5</ele>
        <time>2026-04-26T08:39:13Z</time>
      </trkpt>
      <trkpt lat="45.03634" lon="4.06494">
        <ele>837.5</ele>
        <time>2026-04-26T08:39:18Z</time>
      </trkpt>
      <trkpt lat="45.03632" lon="4.06484">
        <ele>837</ele>
        <time>2026-04-26T08:39:23Z</time>
      </trkpt>
      <trkpt lat="45.03629" lon="4.06476">
        <ele>836.6</ele>
        <time>2026-04-26T08:39:28Z</time>
      </trkpt>
      <trkpt lat="45.03629" lon="4.06468">
        <ele>836.2</ele>
        <time>2026-04-26T08:39:33Z</time>
      </trkpt>
      <trkpt lat="45.03629" lon="4.06458">
        <ele>835.6</ele>
        <time>2026-04-26T08:39:38Z</time>
      </trkpt>
      <trkpt lat="45.03627" lon="4.06448">
        <ele>835.1</ele>
        <time>2026-04-26T08:39:43Z</time>
      </trkpt>
      <trkpt lat="45.03625" lon="4.06437">
        <ele>834.6</ele>
        <time>2026-04-26T08:39:48Z</time>
      </trkpt>
      <trkpt lat="45.03623" lon="4.06428">
        <ele>834.2</ele>
        <time>2026-04-26T08:39:53Z</time>
      </trkpt>
      <trkpt lat="45.03621" lon="4.06417">
        <ele>833.7</ele>
        <time>2026-04-26T08:39:58Z</time>
      </trkpt>
      <trkpt lat="45.03619" lon="4.06407">
        <ele>833</ele>
        <time>2026-04-26T08:40:03Z</time>
      </trkpt>
      <trkpt lat="45.03617" lon="4.06397">
        <ele>832.3</ele>
        <time>2026-04-26T08:40:08Z</time>
      </trkpt>
      <trkpt lat="45.03617" lon="4.06387">
        <ele>831.5</ele>
        <time>2026-04-26T08:40:13Z</time>
      </trkpt>
      <trkpt lat="45.03615" lon="4.06379">
        <ele>831</ele>
        <time>2026-04-26T08:40:18Z</time>
      </trkpt>
      <trkpt lat="45.03613" lon="4.06368">
        <ele>830.2</ele>
        <time>2026-04-26T08:40:23Z</time>
      </trkpt>
      <trkpt lat="45.0361" lon="4.0636">
        <ele>829.7</ele>
        <time>2026-04-26T08:40:28Z</time>
      </trkpt>
      <trkpt lat="45.03607" lon="4.06351">
        <ele>829.2</ele>
        <time>2026-04-26T08:40:33Z</time>
      </trkpt>
      <trkpt lat="45.03603" lon="4.06342">
        <ele>828.7</ele>
        <time>2026-04-26T08:40:38Z</time>
      </trkpt>
      <trkpt lat="45.03599" lon="4.06333">
        <ele>828.3</ele>
        <time>2026-04-26T08:40:43Z</time>
      </trkpt>
      <trkpt lat="45.03596" lon="4.06324">
        <ele>828.8</ele>
        <time>2026-04-26T08:40:48Z</time>
      </trkpt>
      <trkpt lat="45.03595" lon="4.06312">
        <ele>829.3</ele>
        <time>2026-04-26T08:40:53Z</time>
      </trkpt>
      <trkpt lat="45.03594" lon="4.06306">
        <ele>829.6</ele>
        <time>2026-04-26T08:40:58Z</time>
      </trkpt>
      <trkpt lat="45.03592" lon="4.06299">
        <ele>830</ele>
        <time>2026-04-26T08:41:03Z</time>
      </trkpt>
      <trkpt lat="45.03595" lon="4.06293">
        <ele>830</ele>
        <time>2026-04-26T08:41:08Z</time>
      </trkpt>
      <trkpt lat="45.03597" lon="4.0629">
        <ele>830</ele>
        <time>2026-04-26T08:41:13Z</time>
      </trkpt>
      <trkpt lat="45.03598" lon="4.06287">
        <ele>830</ele>
        <time>2026-04-26T08:41:18Z</time>
      </trkpt>
      <trkpt lat="45.03592" lon="4.0629">
        <ele>830.4</ele>
        <time>2026-04-26T08:41:23Z</time>
      </trkpt>
      <trkpt lat="45.03584" lon="4.06296">
        <ele>830.7</ele>
        <time>2026-04-26T08:41:28Z</time>
      </trkpt>
      <trkpt lat="45.03577" lon="4.06298">
        <ele>831.6</ele>
        <time>2026-04-26T08:41:33Z</time>
      </trkpt>
      <trkpt lat="45.03569" lon="4.063">
        <ele>832.7</ele>
        <time>2026-04-26T08:41:38Z</time>
      </trkpt>
      <trkpt lat="45.03561" lon="4.063">
        <ele>833.8</ele>
        <time>2026-04-26T08:41:43Z</time>
      </trkpt>
      <trkpt lat="45.03554" lon="4.06301">
        <ele>834.8</ele>
        <time>2026-04-26T08:41:48Z</time>
      </trkpt>
      <trkpt lat="45.03548" lon="4.063">
        <ele>835.7</ele>
        <time>2026-04-26T08:41:53Z</time>
      </trkpt>
      <trkpt lat="45.03538" lon="4.06297">
        <ele>837.4</ele>
        <time>2026-04-26T08:41:58Z</time>
      </trkpt>
      <trkpt lat="45.03531" lon="4.06298">
        <ele>838.3</ele>
        <time>2026-04-26T08:42:03Z</time>
      </trkpt>
      <trkpt lat="45.03525" lon="4.06298">
        <ele>839.2</ele>
        <time>2026-04-26T08:42:08Z</time>
      </trkpt>
      <trkpt lat="45.03519" lon="4.06299">
        <ele>840</ele>
        <time>2026-04-26T08:42:13Z</time>
      </trkpt>
      <trkpt lat="45.03513" lon="4.06299">
        <ele>840.8</ele>
        <time>2026-04-26T08:42:18Z</time>
      </trkpt>
      <trkpt lat="45.03508" lon="4.06296">
        <ele>841.9</ele>
        <time>2026-04-26T08:42:23Z</time>
      </trkpt>
      <trkpt lat="45.03502" lon="4.06293">
        <ele>843.1</ele>
        <time>2026-04-26T08:42:28Z</time>
      </trkpt>
      <trkpt lat="45.03496" lon="4.06295">
        <ele>843.1</ele>
        <time>2026-04-26T08:42:33Z</time>
      </trkpt>
      <trkpt lat="45.03492" lon="4.06297">
        <ele>842.8</ele>
        <time>2026-04-26T08:42:38Z</time>
      </trkpt>
      <trkpt lat="45.03487" lon="4.06299">
        <ele>842.5</ele>
        <time>2026-04-26T08:42:43Z</time>
      </trkpt>
      <trkpt lat="45.03483" lon="4.06298">
        <ele>842.6</ele>
        <time>2026-04-26T08:42:48Z</time>
      </trkpt>
      <trkpt lat="45.03481" lon="4.06296">
        <ele>842.7</ele>
        <time>2026-04-26T08:42:53Z</time>
      </trkpt>
      <trkpt lat="45.03479" lon="4.06292">
        <ele>843.1</ele>
        <time>2026-04-26T08:42:58Z</time>
      </trkpt>
      <trkpt lat="45.03478" lon="4.06288">
        <ele>843.5</ele>
        <time>2026-04-26T08:43:03Z</time>
      </trkpt>
      <trkpt lat="45.03479" lon="4.06284">
        <ele>843.9</ele>
        <time>2026-04-26T08:43:08Z</time>
      </trkpt>
      <trkpt lat="45.03478" lon="4.0628">
        <ele>844.3</ele>
        <time>2026-04-26T08:43:13Z</time>
      </trkpt>
      <trkpt lat="45.03478" lon="4.06275">
        <ele>844.7</ele>
        <time>2026-04-26T08:43:18Z</time>
      </trkpt>
      <trkpt lat="45.03477" lon="4.06272">
        <ele>845</ele>
        <time>2026-04-26T08:43:23Z</time>
      </trkpt>
      <trkpt lat="45.03477" lon="4.06268">
        <ele>845.4</ele>
        <time>2026-04-26T08:43:28Z</time>
      </trkpt>
      <trkpt lat="45.03475" lon="4.06265">
        <ele>845.6</ele>
        <time>2026-04-26T08:43:33Z</time>
      </trkpt>
      <trkpt lat="45.03475" lon="4.06261">
        <ele>846</ele>
        <time>2026-04-26T08:43:38Z</time>
      </trkpt>
      <trkpt lat="45.03473" lon="4.06259">
        <ele>846.2</ele>
        <time>2026-04-26T08:43:43Z</time>
      </trkpt>
      <trkpt lat="45.03471" lon="4.06256">
        <ele>846.4</ele>
        <time>2026-04-26T08:43:48Z</time>
      </trkpt>
      <trkpt lat="45.03469" lon="4.06253">
        <ele>846.6</ele>
        <time>2026-04-26T08:43:53Z</time>
      </trkpt>
      <trkpt lat="45.03467" lon="4.0625">
        <ele>846.8</ele>
        <time>2026-04-26T08:43:58Z</time>
      </trkpt>
      <trkpt lat="45.03466" lon="4.06248">
        <ele>846.7</ele>
        <time>2026-04-26T08:44:03Z</time>
      </trkpt>
      <trkpt lat="45.03466" lon="4.06248">
        <ele>846.7</ele>
        <time>2026-04-26T08:44:08Z</time>
      </trkpt>
      <trkpt lat="45.03466" lon="4.06248">
        <ele>846.7</ele>
        <time>2026-04-26T08:44:13Z</time>
      </trkpt>
      <trkpt lat="45.03466" lon="4.06248">
        <ele>846.7</ele>
        <time>2026-04-26T08:44:18Z</time>
      </trkpt>
      <trkpt lat="45.03461" lon="4.06233">
        <ele>845.6</ele>
        <time>2026-04-26T08:44:23Z</time>
      </trkpt>
      <trkpt lat="45.03459" lon="4.06229">
        <ele>845.4</ele>
        <time>2026-04-26T08:44:28Z</time>
      </trkpt>
      <trkpt lat="45.03455" lon="4.06225">
        <ele>845.1</ele>
        <time>2026-04-26T08:44:33Z</time>
      </trkpt>
      <trkpt lat="45.03452" lon="4.06226">
        <ele>845.1</ele>
        <time>2026-04-26T08:44:38Z</time>
      </trkpt>
      <trkpt lat="45.03448" lon="4.06229">
        <ele>845.2</ele>
        <time>2026-04-26T08:44:43Z</time>
      </trkpt>
      <trkpt lat="45.03445" lon="4.06232">
        <ele>845.2</ele>
        <time>2026-04-26T08:44:48Z</time>
      </trkpt>
      <trkpt lat="45.03438" lon="4.0623">
        <ele>845</ele>
        <time>2026-04-26T08:44:53Z</time>
      </trkpt>
      <trkpt lat="45.03433" lon="4.06231">
        <ele>844.9</ele>
        <time>2026-04-26T08:44:58Z</time>
      </trkpt>
      <trkpt lat="45.03428" lon="4.06235">
        <ele>844.9</ele>
        <time>2026-04-26T08:45:03Z</time>
      </trkpt>
      <trkpt lat="45.03425" lon="4.06238">
        <ele>844.9</ele>
        <time>2026-04-26T08:45:08Z</time>
      </trkpt>
      <trkpt lat="45.03424" lon="4.06239">
        <ele>844.9</ele>
        <time>2026-04-26T08:45:13Z</time>
      </trkpt>
      <trkpt lat="45.03423" lon="4.0624">
        <ele>844.9</ele>
        <time>2026-04-26T08:45:18Z</time>
      </trkpt>
      <trkpt lat="45.0342" lon="4.0624">
        <ele>844.9</ele>
        <time>2026-04-26T08:45:23Z</time>
      </trkpt>
      <trkpt lat="45.03417" lon="4.06241">
        <ele>844.8</ele>
        <time>2026-04-26T08:45:28Z</time>
      </trkpt>
      <trkpt lat="45.03413" lon="4.06242">
        <ele>844.9</ele>
        <time>2026-04-26T08:45:33Z</time>
      </trkpt>
      <trkpt lat="45.03412" lon="4.06243">
        <ele>844.9</ele>
        <time>2026-04-26T08:45:38Z</time>
      </trkpt>
      <trkpt lat="45.0341" lon="4.06247">
        <ele>845</ele>
        <time>2026-04-26T08:45:43Z</time>
      </trkpt>
      <trkpt lat="45.03406" lon="4.06249">
        <ele>845.1</ele>
        <time>2026-04-26T08:45:48Z</time>
      </trkpt>
      <trkpt lat="45.03404" lon="4.0625">
        <ele>845.2</ele>
        <time>2026-04-26T08:45:53Z</time>
      </trkpt>
      <trkpt lat="45.03404" lon="4.0625">
        <ele>845.2</ele>
        <time>2026-04-26T08:45:58Z</time>
      </trkpt>
      <trkpt lat="45.03404" lon="4.0625">
        <ele>845.2</ele>
        <time>2026-04-26T08:46:03Z</time>
      </trkpt>
      <trkpt lat="45.03404" lon="4.0625">
        <ele>845.2</ele>
        <time>2026-04-26T08:46:08Z</time>
      </trkpt>
      <trkpt lat="45.03404" lon="4.0625">
        <ele>845.2</ele>
        <time>2026-04-26T08:46:13Z</time>
      </trkpt>
      <trkpt lat="45.03404" lon="4.0625">
        <ele>845.2</ele>
        <time>2026-04-26T08:46:18Z</time>
      </trkpt>
      <trkpt lat="45.03404" lon="4.0625">
        <ele>845.2</ele>
        <time>2026-04-26T08:46:23Z</time>
      </trkpt>
      <trkpt lat="45.03404" lon="4.0625">
        <ele>845.2</ele>
        <time>2026-04-26T08:46:28Z</time>
      </trkpt>
      <trkpt lat="45.03404" lon="4.0625">
        <ele>845.2</ele>
        <time>2026-04-26T08:46:33Z</time>
      </trkpt>
      <trkpt lat="45.03404" lon="4.0625">
        <ele>845.2</ele>
        <time>2026-04-26T08:46:38Z</time>
      </trkpt>
      <trkpt lat="45.03404" lon="4.0625">
        <ele>845.2</ele>
        <time>2026-04-26T08:46:43Z</time>
      </trkpt>
      <trkpt lat="45.03404" lon="4.0625">
        <ele>845.2</ele>
        <time>2026-04-26T08:46:48Z</time>
      </trkpt>
      <trkpt lat="45.03404" lon="4.0625">
        <ele>845.2</ele>
        <time>2026-04-26T08:46:53Z</time>
      </trkpt>
      <trkpt lat="45.03414" lon="4.06248">
        <ele>845</ele>
        <time>2026-04-26T08:46:58Z</time>
      </trkpt>
      <trkpt lat="45.03416" lon="4.06248">
        <ele>845</ele>
        <time>2026-04-26T08:47:03Z</time>
      </trkpt>
      <trkpt lat="45.03417" lon="4.06247">
        <ele>844.9</ele>
        <time>2026-04-26T08:47:08Z</time>
      </trkpt>
      <trkpt lat="45.03417" lon="4.06247">
        <ele>844.9</ele>
        <time>2026-04-26T08:47:13Z</time>
      </trkpt>
      <trkpt lat="45.03423" lon="4.06248">
        <ele>845.2</ele>
        <time>2026-04-26T08:47:18Z</time>
      </trkpt>
      <trkpt lat="45.03424" lon="4.06248">
        <ele>845.2</ele>
        <time>2026-04-26T08:47:23Z</time>
      </trkpt>
      <trkpt lat="45.03428" lon="4.06252">
        <ele>845.3</ele>
        <time>2026-04-26T08:47:28Z</time>
      </trkpt>
      <trkpt lat="45.03428" lon="4.06252">
        <ele>845.3</ele>
        <time>2026-04-26T08:47:33Z</time>
      </trkpt>
      <trkpt lat="45.03428" lon="4.06252">
        <ele>845.3</ele>
        <time>2026-04-26T08:47:38Z</time>
      </trkpt>
      <trkpt lat="45.03428" lon="4.06252">
        <ele>845.3</ele>
        <time>2026-04-26T08:47:43Z</time>
      </trkpt>
      <trkpt lat="45.03428" lon="4.06252">
        <ele>845.3</ele>
        <time>2026-04-26T08:47:48Z</time>
      </trkpt>
      <trkpt lat="45.03428" lon="4.06252">
        <ele>845.3</ele>
        <time>2026-04-26T08:47:53Z</time>
      </trkpt>
      <trkpt lat="45.03428" lon="4.06252">
        <ele>845.3</ele>
        <time>2026-04-26T08:47:58Z</time>
      </trkpt>
      <trkpt lat="45.03428" lon="4.06252">
        <ele>845.3</ele>
        <time>2026-04-26T08:48:03Z</time>
      </trkpt>
      <trkpt lat="45.03428" lon="4.06252">
        <ele>845.3</ele>
        <time>2026-04-26T08:48:08Z</time>
      </trkpt>
      <trkpt lat="45.03428" lon="4.06252">
        <ele>845.3</ele>
        <time>2026-04-26T08:48:13Z</time>
      </trkpt>
      <trkpt lat="45.03428" lon="4.06252">
        <ele>845.3</ele>
        <time>2026-04-26T08:48:18Z</time>
      </trkpt>
      <trkpt lat="45.03428" lon="4.06252">
        <ele>845.3</ele>
        <time>2026-04-26T08:48:23Z</time>
      </trkpt>
      <trkpt lat="45.03417" lon="4.06244">
        <ele>844.9</ele>
        <time>2026-04-26T08:48:28Z</time>
      </trkpt>
      <trkpt lat="45.03412" lon="4.06246">
        <ele>845</ele>
        <time>2026-04-26T08:48:33Z</time>
      </trkpt>
      <trkpt lat="45.03408" lon="4.0625">
        <ele>845.1</ele>
        <time>2026-04-26T08:48:38Z</time>
      </trkpt>
      <trkpt lat="45.03404" lon="4.06251">
        <ele>845.1</ele>
        <time>2026-04-26T08:48:43Z</time>
      </trkpt>
      <trkpt lat="45.03403" lon="4.06243">
        <ele>845</ele>
        <time>2026-04-26T08:48:48Z</time>
      </trkpt>
      <trkpt lat="45.03401" lon="4.06236">
        <ele>844.9</ele>
        <time>2026-04-26T08:48:53Z</time>
      </trkpt>
      <trkpt lat="45.034" lon="4.06233">
        <ele>844.9</ele>
        <time>2026-04-26T08:48:58Z</time>
      </trkpt>
      <trkpt lat="45.03399" lon="4.06229">
        <ele>844.9</ele>
        <time>2026-04-26T08:49:03Z</time>
      </trkpt>
      <trkpt lat="45.03398" lon="4.06223">
        <ele>844.8</ele>
        <time>2026-04-26T08:49:08Z</time>
      </trkpt>
      <trkpt lat="45.03398" lon="4.06216">
        <ele>844.7</ele>
        <time>2026-04-26T08:49:13Z</time>
      </trkpt>
      <trkpt lat="45.034" lon="4.0621">
        <ele>844.5</ele>
        <time>2026-04-26T08:49:18Z</time>
      </trkpt>
      <trkpt lat="45.034" lon="4.0621">
        <ele>844.5</ele>
        <time>2026-04-26T08:49:23Z</time>
      </trkpt>
      <trkpt lat="45.034" lon="4.0621">
        <ele>844.5</ele>
        <time>2026-04-26T08:49:28Z</time>
      </trkpt>
      <trkpt lat="45.03398" lon="4.06211">
        <ele>844.6</ele>
        <time>2026-04-26T08:49:33Z</time>
      </trkpt>
      <trkpt lat="45.03394" lon="4.06212">
        <ele>844.7</ele>
        <time>2026-04-26T08:49:38Z</time>
      </trkpt>
      <trkpt lat="45.03393" lon="4.06206">
        <ele>844.7</ele>
        <time>2026-04-26T08:49:43Z</time>
      </trkpt>
      <trkpt lat="45.03391" lon="4.062">
        <ele>844.7</ele>
        <time>2026-04-26T08:49:48Z</time>
      </trkpt>
      <trkpt lat="45.0339" lon="4.06192">
        <ele>844.6</ele>
        <time>2026-04-26T08:49:53Z</time>
      </trkpt>
      <trkpt lat="45.0339" lon="4.06187">
        <ele>844.5</ele>
        <time>2026-04-26T08:49:58Z</time>
      </trkpt>
      <trkpt lat="45.03389" lon="4.06183">
        <ele>844.5</ele>
        <time>2026-04-26T08:50:03Z</time>
      </trkpt>
      <trkpt lat="45.03389" lon="4.06183">
        <ele>844.5</ele>
        <time>2026-04-26T08:50:08Z</time>
      </trkpt>
      <trkpt lat="45.03393" lon="4.06175">
        <ele>844.3</ele>
        <time>2026-04-26T08:50:13Z</time>
      </trkpt>
      <trkpt lat="45.03395" lon="4.06178">
        <ele>844.2</ele>
        <time>2026-04-26T08:50:18Z</time>
      </trkpt>
      <trkpt lat="45.03395" lon="4.06179">
        <ele>844.2</ele>
        <time>2026-04-26T08:50:23Z</time>
      </trkpt>
      <trkpt lat="45.03395" lon="4.06179">
        <ele>844.2</ele>
        <time>2026-04-26T08:50:28Z</time>
      </trkpt>
      <trkpt lat="45.03395" lon="4.06179">
        <ele>844.2</ele>
        <time>2026-04-26T08:50:33Z</time>
      </trkpt>
      <trkpt lat="45.03395" lon="4.06179">
        <ele>844.2</ele>
        <time>2026-04-26T08:50:38Z</time>
      </trkpt>
      <trkpt lat="45.03401" lon="4.06181">
        <ele>844</ele>
        <time>2026-04-26T08:50:43Z</time>
      </trkpt>
      <trkpt lat="45.03407" lon="4.06173">
        <ele>843.6</ele>
        <time>2026-04-26T08:50:48Z</time>
      </trkpt>
      <trkpt lat="45.03413" lon="4.06171">
        <ele>843.3</ele>
        <time>2026-04-26T08:50:53Z</time>
      </trkpt>
      <trkpt lat="45.03422" lon="4.06169">
        <ele>842.9</ele>
        <time>2026-04-26T08:50:58Z</time>
      </trkpt>
      <trkpt lat="45.03426" lon="4.06162">
        <ele>842.5</ele>
        <time>2026-04-26T08:51:03Z</time>
      </trkpt>
      <trkpt lat="45.0343" lon="4.06156">
        <ele>842.1</ele>
        <time>2026-04-26T08:51:08Z</time>
      </trkpt>
      <trkpt lat="45.03437" lon="4.06155">
        <ele>841.8</ele>
        <time>2026-04-26T08:51:13Z</time>
      </trkpt>
      <trkpt lat="45.03444" lon="4.06155">
        <ele>841.6</ele>
        <time>2026-04-26T08:51:18Z</time>
      </trkpt>
      <trkpt lat="45.03451" lon="4.06154">
        <ele>841.4</ele>
        <time>2026-04-26T08:51:23Z</time>
      </trkpt>
      <trkpt lat="45.03456" lon="4.06154">
        <ele>841.2</ele>
        <time>2026-04-26T08:51:28Z</time>
      </trkpt>
      <trkpt lat="45.03463" lon="4.06154">
        <ele>841</ele>
        <time>2026-04-26T08:51:33Z</time>
      </trkpt>
      <trkpt lat="45.03468" lon="4.06153">
        <ele>840.8</ele>
        <time>2026-04-26T08:51:38Z</time>
      </trkpt>
      <trkpt lat="45.03474" lon="4.06157">
        <ele>840.9</ele>
        <time>2026-04-26T08:51:43Z</time>
      </trkpt>
      <trkpt lat="45.03477" lon="4.06161">
        <ele>841.1</ele>
        <time>2026-04-26T08:51:48Z</time>
      </trkpt>
      <trkpt lat="45.03482" lon="4.06165">
        <ele>841.3</ele>
        <time>2026-04-26T08:51:53Z</time>
      </trkpt>
      <trkpt lat="45.03487" lon="4.06164">
        <ele>841.1</ele>
        <time>2026-04-26T08:51:58Z</time>
      </trkpt>
      <trkpt lat="45.03492" lon="4.0616">
        <ele>840.7</ele>
        <time>2026-04-26T08:52:03Z</time>
      </trkpt>
      <trkpt lat="45.03498" lon="4.06153">
        <ele>839.9</ele>
        <time>2026-04-26T08:52:08Z</time>
      </trkpt>
      <trkpt lat="45.03506" lon="4.06146">
        <ele>838.8</ele>
        <time>2026-04-26T08:52:13Z</time>
      </trkpt>
      <trkpt lat="45.03513" lon="4.06141">
        <ele>837.8</ele>
        <time>2026-04-26T08:52:18Z</time>
      </trkpt>
      <trkpt lat="45.0352" lon="4.06138">
        <ele>837</ele>
        <time>2026-04-26T08:52:23Z</time>
      </trkpt>
      <trkpt lat="45.03526" lon="4.06133">
        <ele>836.2</ele>
        <time>2026-04-26T08:52:28Z</time>
      </trkpt>
      <trkpt lat="45.0353" lon="4.06131">
        <ele>835.7</ele>
        <time>2026-04-26T08:52:33Z</time>
      </trkpt>
      <trkpt lat="45.0353" lon="4.06131">
        <ele>835.7</ele>
        <time>2026-04-26T08:52:33Z</time>
      </trkpt>
      <trkpt lat="45.03533" lon="4.06131">
        <ele>835.5</ele>
        <time>2026-04-26T08:57:42Z</time>
      </trkpt>
      <trkpt lat="45.03534" lon="4.06131">
        <ele>835.4</ele>
        <time>2026-04-26T08:57:47Z</time>
      </trkpt>
      <trkpt lat="45.03534" lon="4.06131">
        <ele>835.4</ele>
        <time>2026-04-26T08:57:52Z</time>
      </trkpt>
      <trkpt lat="45.03537" lon="4.0613">
        <ele>835.1</ele>
        <time>2026-04-26T08:57:57Z</time>
      </trkpt>
      <trkpt lat="45.03543" lon="4.06123">
        <ele>834.3</ele>
        <time>2026-04-26T08:58:02Z</time>
      </trkpt>
      <trkpt lat="45.03548" lon="4.06117">
        <ele>833.6</ele>
        <time>2026-04-26T08:58:07Z</time>
      </trkpt>
      <trkpt lat="45.03551" lon="4.06112">
        <ele>833.1</ele>
        <time>2026-04-26T08:58:12Z</time>
      </trkpt>
      <trkpt lat="45.03556" lon="4.06106">
        <ele>832.5</ele>
        <time>2026-04-26T08:58:17Z</time>
      </trkpt>
      <trkpt lat="45.03562" lon="4.06098">
        <ele>831.7</ele>
        <time>2026-04-26T08:58:22Z</time>
      </trkpt>
      <trkpt lat="45.03569" lon="4.06092">
        <ele>831.1</ele>
        <time>2026-04-26T08:58:27Z</time>
      </trkpt>
      <trkpt lat="45.03578" lon="4.0609">
        <ele>830.5</ele>
        <time>2026-04-26T08:58:32Z</time>
      </trkpt>
      <trkpt lat="45.03583" lon="4.06089">
        <ele>830.2</ele>
        <time>2026-04-26T08:58:37Z</time>
      </trkpt>
      <trkpt lat="45.03585" lon="4.0609">
        <ele>830.1</ele>
        <time>2026-04-26T08:58:42Z</time>
      </trkpt>
      <trkpt lat="45.03586" lon="4.06087">
        <ele>830</ele>
        <time>2026-04-26T08:58:47Z</time>
      </trkpt>
      <trkpt lat="45.03591" lon="4.06082">
        <ele>829.5</ele>
        <time>2026-04-26T08:58:52Z</time>
      </trkpt>
      <trkpt lat="45.03597" lon="4.06079">
        <ele>829.1</ele>
        <time>2026-04-26T08:58:57Z</time>
      </trkpt>
      <trkpt lat="45.03603" lon="4.06078">
        <ele>828.7</ele>
        <time>2026-04-26T08:59:02Z</time>
      </trkpt>
      <trkpt lat="45.03613" lon="4.06073">
        <ele>828</ele>
        <time>2026-04-26T08:59:07Z</time>
      </trkpt>
      <trkpt lat="45.03619" lon="4.06071">
        <ele>827.6</ele>
        <time>2026-04-26T08:59:12Z</time>
      </trkpt>
      <trkpt lat="45.0362" lon="4.06067">
        <ele>827.5</ele>
        <time>2026-04-26T08:59:17Z</time>
      </trkpt>
      <trkpt lat="45.03625" lon="4.06065">
        <ele>827.2</ele>
        <time>2026-04-26T08:59:22Z</time>
      </trkpt>
      <trkpt lat="45.03635" lon="4.06065">
        <ele>826.6</ele>
        <time>2026-04-26T08:59:27Z</time>
      </trkpt>
      <trkpt lat="45.03642" lon="4.06057">
        <ele>826.1</ele>
        <time>2026-04-26T08:59:32Z</time>
      </trkpt>
      <trkpt lat="45.03643" lon="4.06046">
        <ele>825.8</ele>
        <time>2026-04-26T08:59:37Z</time>
      </trkpt>
      <trkpt lat="45.03641" lon="4.06036">
        <ele>825.8</ele>
        <time>2026-04-26T08:59:42Z</time>
      </trkpt>
      <trkpt lat="45.0364" lon="4.06027">
        <ele>825.7</ele>
        <time>2026-04-26T08:59:47Z</time>
      </trkpt>
      <trkpt lat="45.03641" lon="4.06021">
        <ele>825.6</ele>
        <time>2026-04-26T08:59:52Z</time>
      </trkpt>
      <trkpt lat="45.03641" lon="4.06017">
        <ele>825.5</ele>
        <time>2026-04-26T08:59:57Z</time>
      </trkpt>
      <trkpt lat="45.03641" lon="4.06016">
        <ele>825.5</ele>
        <time>2026-04-26T09:00:02Z</time>
      </trkpt>
      <trkpt lat="45.03641" lon="4.06016">
        <ele>825.5</ele>
        <time>2026-04-26T09:00:07Z</time>
      </trkpt>
      <trkpt lat="45.03641" lon="4.06007">
        <ele>825.3</ele>
        <time>2026-04-26T09:00:12Z</time>
      </trkpt>
      <trkpt lat="45.0364" lon="4.06007">
        <ele>825.4</ele>
        <time>2026-04-26T09:00:17Z</time>
      </trkpt>
      <trkpt lat="45.0364" lon="4.06007">
        <ele>825.4</ele>
        <time>2026-04-26T09:00:22Z</time>
      </trkpt>
      <trkpt lat="45.03632" lon="4.06015">
        <ele>825.9</ele>
        <time>2026-04-26T09:00:27Z</time>
      </trkpt>
      <trkpt lat="45.03632" lon="4.06016">
        <ele>825.9</ele>
        <time>2026-04-26T09:00:32Z</time>
      </trkpt>
      <trkpt lat="45.03632" lon="4.06016">
        <ele>825.9</ele>
        <time>2026-04-26T09:00:37Z</time>
      </trkpt>
      <trkpt lat="45.03632" lon="4.06016">
        <ele>825.9</ele>
        <time>2026-04-26T09:00:42Z</time>
      </trkpt>
      <trkpt lat="45.03634" lon="4.06025">
        <ele>826</ele>
        <time>2026-04-26T09:00:47Z</time>
      </trkpt>
      <trkpt lat="45.03636" lon="4.06026">
        <ele>825.9</ele>
        <time>2026-04-26T09:00:52Z</time>
      </trkpt>
      <trkpt lat="45.0364" lon="4.06024">
        <ele>825.7</ele>
        <time>2026-04-26T09:00:57Z</time>
      </trkpt>
      <trkpt lat="45.03641" lon="4.0602">
        <ele>825.5</ele>
        <time>2026-04-26T09:01:02Z</time>
      </trkpt>
      <trkpt lat="45.03641" lon="4.0602">
        <ele>825.5</ele>
        <time>2026-04-26T09:01:07Z</time>
      </trkpt>
      <trkpt lat="45.03641" lon="4.0602">
        <ele>825.5</ele>
        <time>2026-04-26T09:01:12Z</time>
      </trkpt>
      <trkpt lat="45.03641" lon="4.0602">
        <ele>825.5</ele>
        <time>2026-04-26T09:01:17Z</time>
      </trkpt>
      <trkpt lat="45.03641" lon="4.0602">
        <ele>825.5</ele>
        <time>2026-04-26T09:01:22Z</time>
      </trkpt>
      <trkpt lat="45.03638" lon="4.06009">
        <ele>825.5</ele>
        <time>2026-04-26T09:01:27Z</time>
      </trkpt>
      <trkpt lat="45.03637" lon="4.06008">
        <ele>825.6</ele>
        <time>2026-04-26T09:01:32Z</time>
      </trkpt>
      <trkpt lat="45.03637" lon="4.06008">
        <ele>825.6</ele>
        <time>2026-04-26T09:01:37Z</time>
      </trkpt>
      <trkpt lat="45.03637" lon="4.06008">
        <ele>825.6</ele>
        <time>2026-04-26T09:01:42Z</time>
      </trkpt>
      <trkpt lat="45.03642" lon="4.06">
        <ele>825.2</ele>
        <time>2026-04-26T09:01:47Z</time>
      </trkpt>
      <trkpt lat="45.03643" lon="4.05989">
        <ele>824.9</ele>
        <time>2026-04-26T09:01:52Z</time>
      </trkpt>
      <trkpt lat="45.03643" lon="4.05978">
        <ele>824.7</ele>
        <time>2026-04-26T09:01:57Z</time>
      </trkpt>
      <trkpt lat="45.03645" lon="4.0597">
        <ele>824.4</ele>
        <time>2026-04-26T09:02:02Z</time>
      </trkpt>
      <trkpt lat="45.03644" lon="4.0596">
        <ele>824.3</ele>
        <time>2026-04-26T09:02:07Z</time>
      </trkpt>
      <trkpt lat="45.03644" lon="4.05949">
        <ele>824</ele>
        <time>2026-04-26T09:02:12Z</time>
      </trkpt>
      <trkpt lat="45.03643" lon="4.05936">
        <ele>823.8</ele>
        <time>2026-04-26T09:02:17Z</time>
      </trkpt>
      <trkpt lat="45.03646" lon="4.05925">
        <ele>823.4</ele>
        <time>2026-04-26T09:02:22Z</time>
      </trkpt>
      <trkpt lat="45.03645" lon="4.05912">
        <ele>823.2</ele>
        <time>2026-04-26T09:02:27Z</time>
      </trkpt>
      <trkpt lat="45.03645" lon="4.05904">
        <ele>823</ele>
        <time>2026-04-26T09:02:32Z</time>
      </trkpt>
      <trkpt lat="45.0365" lon="4.05898">
        <ele>822.6</ele>
        <time>2026-04-26T09:02:37Z</time>
      </trkpt>
      <trkpt lat="45.03654" lon="4.05888">
        <ele>822.1</ele>
        <time>2026-04-26T09:02:42Z</time>
      </trkpt>
      <trkpt lat="45.03653" lon="4.0588">
        <ele>821.9</ele>
        <time>2026-04-26T09:02:47Z</time>
      </trkpt>
      <trkpt lat="45.03655" lon="4.05874">
        <ele>821.7</ele>
        <time>2026-04-26T09:02:52Z</time>
      </trkpt>
      <trkpt lat="45.03657" lon="4.05868">
        <ele>821.4</ele>
        <time>2026-04-26T09:02:57Z</time>
      </trkpt>
      <trkpt lat="45.03656" lon="4.05863">
        <ele>821.4</ele>
        <time>2026-04-26T09:03:02Z</time>
      </trkpt>
      <trkpt lat="45.03658" lon="4.05862">
        <ele>821.2</ele>
        <time>2026-04-26T09:03:07Z</time>
      </trkpt>
      <trkpt lat="45.03665" lon="4.05858">
        <ele>820.7</ele>
        <time>2026-04-26T09:03:12Z</time>
      </trkpt>
      <trkpt lat="45.03672" lon="4.05854">
        <ele>820.3</ele>
        <time>2026-04-26T09:03:17Z</time>
      </trkpt>
      <trkpt lat="45.03677" lon="4.0585">
        <ele>820</ele>
        <time>2026-04-26T09:03:22Z</time>
      </trkpt>
      <trkpt lat="45.03682" lon="4.05848">
        <ele>819.8</ele>
        <time>2026-04-26T09:03:27Z</time>
      </trkpt>
      <trkpt lat="45.03689" lon="4.05846">
        <ele>819.5</ele>
        <time>2026-04-26T09:03:32Z</time>
      </trkpt>
      <trkpt lat="45.03697" lon="4.05842">
        <ele>819.1</ele>
        <time>2026-04-26T09:03:37Z</time>
      </trkpt>
      <trkpt lat="45.03702" lon="4.05838">
        <ele>818.8</ele>
        <time>2026-04-26T09:03:42Z</time>
      </trkpt>
      <trkpt lat="45.03708" lon="4.05837">
        <ele>818.6</ele>
        <time>2026-04-26T09:03:47Z</time>
      </trkpt>
      <trkpt lat="45.0371" lon="4.05836">
        <ele>818.5</ele>
        <time>2026-04-26T09:03:52Z</time>
      </trkpt>
      <trkpt lat="45.03708" lon="4.05836">
        <ele>818.6</ele>
        <time>2026-04-26T09:03:57Z</time>
      </trkpt>
      <trkpt lat="45.03704" lon="4.05839">
        <ele>818.8</ele>
        <time>2026-04-26T09:04:02Z</time>
      </trkpt>
      <trkpt lat="45.037" lon="4.05841">
        <ele>818.9</ele>
        <time>2026-04-26T09:04:07Z</time>
      </trkpt>
      <trkpt lat="45.03694" lon="4.05843">
        <ele>819.2</ele>
        <time>2026-04-26T09:04:12Z</time>
      </trkpt>
      <trkpt lat="45.03687" lon="4.05845">
        <ele>819.5</ele>
        <time>2026-04-26T09:04:17Z</time>
      </trkpt>
      <trkpt lat="45.0368" lon="4.05847">
        <ele>819.8</ele>
        <time>2026-04-26T09:04:22Z</time>
      </trkpt>
      <trkpt lat="45.03673" lon="4.05855">
        <ele>820.3</ele>
        <time>2026-04-26T09:04:27Z</time>
      </trkpt>
      <trkpt lat="45.03666" lon="4.05862">
        <ele>820.7</ele>
        <time>2026-04-26T09:04:32Z</time>
      </trkpt>
      <trkpt lat="45.03658" lon="4.05866">
        <ele>821.3</ele>
        <time>2026-04-26T09:04:37Z</time>
      </trkpt>
      <trkpt lat="45.03655" lon="4.0586">
        <ele>821.3</ele>
        <time>2026-04-26T09:04:42Z</time>
      </trkpt>
      <trkpt lat="45.03657" lon="4.05849">
        <ele>821</ele>
        <time>2026-04-26T09:04:47Z</time>
      </trkpt>
      <trkpt lat="45.03659" lon="4.05841">
        <ele>820.6</ele>
        <time>2026-04-26T09:04:52Z</time>
      </trkpt>
      <trkpt lat="45.0366" lon="4.05829">
        <ele>820.4</ele>
        <time>2026-04-26T09:04:57Z</time>
      </trkpt>
      <trkpt lat="45.0366" lon="4.05817">
        <ele>820.4</ele>
        <time>2026-04-26T09:05:02Z</time>
      </trkpt>
      <trkpt lat="45.03661" lon="4.05806">
        <ele>820.3</ele>
        <time>2026-04-26T09:05:07Z</time>
      </trkpt>
      <trkpt lat="45.03661" lon="4.05795">
        <ele>820.3</ele>
        <time>2026-04-26T09:05:12Z</time>
      </trkpt>
      <trkpt lat="45.0366" lon="4.05783">
        <ele>820.3</ele>
        <time>2026-04-26T09:05:17Z</time>
      </trkpt>
      <trkpt lat="45.0366" lon="4.0577">
        <ele>820.3</ele>
        <time>2026-04-26T09:05:22Z</time>
      </trkpt>
      <trkpt lat="45.03661" lon="4.05759">
        <ele>820.2</ele>
        <time>2026-04-26T09:05:27Z</time>
      </trkpt>
      <trkpt lat="45.03663" lon="4.05751">
        <ele>820.1</ele>
        <time>2026-04-26T09:05:32Z</time>
      </trkpt>
      <trkpt lat="45.03665" lon="4.05743">
        <ele>820</ele>
        <time>2026-04-26T09:05:37Z</time>
      </trkpt>
      <trkpt lat="45.03665" lon="4.05731">
        <ele>819.8</ele>
        <time>2026-04-26T09:05:42Z</time>
      </trkpt>
      <trkpt lat="45.03665" lon="4.05722">
        <ele>819.7</ele>
        <time>2026-04-26T09:05:47Z</time>
      </trkpt>
      <trkpt lat="45.03666" lon="4.05711">
        <ele>819.6</ele>
        <time>2026-04-26T09:05:52Z</time>
      </trkpt>
      <trkpt lat="45.03666" lon="4.05696">
        <ele>819.4</ele>
        <time>2026-04-26T09:05:57Z</time>
      </trkpt>
      <trkpt lat="45.03665" lon="4.05681">
        <ele>819.2</ele>
        <time>2026-04-26T09:06:02Z</time>
      </trkpt>
      <trkpt lat="45.03665" lon="4.05668">
        <ele>819.1</ele>
        <time>2026-04-26T09:06:07Z</time>
      </trkpt>
      <trkpt lat="45.03666" lon="4.05658">
        <ele>819.1</ele>
        <time>2026-04-26T09:06:12Z</time>
      </trkpt>
      <trkpt lat="45.03667" lon="4.0565">
        <ele>819.2</ele>
        <time>2026-04-26T09:06:17Z</time>
      </trkpt>
      <trkpt lat="45.03668" lon="4.05641">
        <ele>819.2</ele>
        <time>2026-04-26T09:06:22Z</time>
      </trkpt>
      <trkpt lat="45.0367" lon="4.05631">
        <ele>819.3</ele>
        <time>2026-04-26T09:06:27Z</time>
      </trkpt>
      <trkpt lat="45.0367" lon="4.05624">
        <ele>819.4</ele>
        <time>2026-04-26T09:06:32Z</time>
      </trkpt>
      <trkpt lat="45.0367" lon="4.05611">
        <ele>819.5</ele>
        <time>2026-04-26T09:06:37Z</time>
      </trkpt>
      <trkpt lat="45.03671" lon="4.05601">
        <ele>819.6</ele>
        <time>2026-04-26T09:06:42Z</time>
      </trkpt>
      <trkpt lat="45.03672" lon="4.05591">
        <ele>819.7</ele>
        <time>2026-04-26T09:06:47Z</time>
      </trkpt>
      <trkpt lat="45.03674" lon="4.05579">
        <ele>819.7</ele>
        <time>2026-04-26T09:06:52Z</time>
      </trkpt>
      <trkpt lat="45.03674" lon="4.05568">
        <ele>819.8</ele>
        <time>2026-04-26T09:06:57Z</time>
      </trkpt>
      <trkpt lat="45.03674" lon="4.05555">
        <ele>819.9</ele>
        <time>2026-04-26T09:07:02Z</time>
      </trkpt>
      <trkpt lat="45.03673" lon="4.05544">
        <ele>820.1</ele>
        <time>2026-04-26T09:07:07Z</time>
      </trkpt>
      <trkpt lat="45.03674" lon="4.05536">
        <ele>820.1</ele>
        <time>2026-04-26T09:07:12Z</time>
      </trkpt>
      <trkpt lat="45.03674" lon="4.05524">
        <ele>820.2</ele>
        <time>2026-04-26T09:07:17Z</time>
      </trkpt>
      <trkpt lat="45.03675" lon="4.0551">
        <ele>820.2</ele>
        <time>2026-04-26T09:07:22Z</time>
      </trkpt>
      <trkpt lat="45.03675" lon="4.05499">
        <ele>820.3</ele>
        <time>2026-04-26T09:07:27Z</time>
      </trkpt>
      <trkpt lat="45.03676" lon="4.05488">
        <ele>820.4</ele>
        <time>2026-04-26T09:07:32Z</time>
      </trkpt>
      <trkpt lat="45.03676" lon="4.05477">
        <ele>820.5</ele>
        <time>2026-04-26T09:07:37Z</time>
      </trkpt>
      <trkpt lat="45.03676" lon="4.05465">
        <ele>820.6</ele>
        <time>2026-04-26T09:07:42Z</time>
      </trkpt>
      <trkpt lat="45.03677" lon="4.05452">
        <ele>820.7</ele>
        <time>2026-04-26T09:07:47Z</time>
      </trkpt>
      <trkpt lat="45.03677" lon="4.05438">
        <ele>820.9</ele>
        <time>2026-04-26T09:07:52Z</time>
      </trkpt>
      <trkpt lat="45.03678" lon="4.05426">
        <ele>820.9</ele>
        <time>2026-04-26T09:07:57Z</time>
      </trkpt>
      <trkpt lat="45.03679" lon="4.05415">
        <ele>821</ele>
        <time>2026-04-26T09:08:02Z</time>
      </trkpt>
      <trkpt lat="45.03679" lon="4.05404">
        <ele>821.3</ele>
        <time>2026-04-26T09:08:07Z</time>
      </trkpt>
      <trkpt lat="45.03678" lon="4.05395">
        <ele>821.6</ele>
        <time>2026-04-26T09:08:12Z</time>
      </trkpt>
      <trkpt lat="45.03679" lon="4.05386">
        <ele>821.8</ele>
        <time>2026-04-26T09:08:17Z</time>
      </trkpt>
      <trkpt lat="45.0368" lon="4.05373">
        <ele>822</ele>
        <time>2026-04-26T09:08:22Z</time>
      </trkpt>
      <trkpt lat="45.0368" lon="4.05363">
        <ele>822.3</ele>
        <time>2026-04-26T09:08:27Z</time>
      </trkpt>
      <trkpt lat="45.0368" lon="4.05354">
        <ele>822.5</ele>
        <time>2026-04-26T09:08:32Z</time>
      </trkpt>
      <trkpt lat="45.03678" lon="4.05345">
        <ele>822.9</ele>
        <time>2026-04-26T09:08:37Z</time>
      </trkpt>
      <trkpt lat="45.03676" lon="4.05335">
        <ele>823.3</ele>
        <time>2026-04-26T09:08:42Z</time>
      </trkpt>
      <trkpt lat="45.03676" lon="4.05324">
        <ele>823.6</ele>
        <time>2026-04-26T09:08:47Z</time>
      </trkpt>
      <trkpt lat="45.03676" lon="4.05315">
        <ele>823.9</ele>
        <time>2026-04-26T09:08:52Z</time>
      </trkpt>
      <trkpt lat="45.03676" lon="4.05303">
        <ele>824.3</ele>
        <time>2026-04-26T09:08:57Z</time>
      </trkpt>
      <trkpt lat="45.03675" lon="4.05293">
        <ele>824.7</ele>
        <time>2026-04-26T09:09:02Z</time>
      </trkpt>
      <trkpt lat="45.03675" lon="4.05284">
        <ele>825</ele>
        <time>2026-04-26T09:09:07Z</time>
      </trkpt>
      <trkpt lat="45.03675" lon="4.05273">
        <ele>825.4</ele>
        <time>2026-04-26T09:09:12Z</time>
      </trkpt>
      <trkpt lat="45.03675" lon="4.05263">
        <ele>825.7</ele>
        <time>2026-04-26T09:09:17Z</time>
      </trkpt>
      <trkpt lat="45.03675" lon="4.05254">
        <ele>826</ele>
        <time>2026-04-26T09:09:22Z</time>
      </trkpt>
      <trkpt lat="45.03674" lon="4.05246">
        <ele>826.4</ele>
        <time>2026-04-26T09:09:27Z</time>
      </trkpt>
      <trkpt lat="45.03675" lon="4.05244">
        <ele>826.4</ele>
        <time>2026-04-26T09:09:32Z</time>
      </trkpt>
      <trkpt lat="45.03676" lon="4.05242">
        <ele>826.4</ele>
        <time>2026-04-26T09:09:37Z</time>
      </trkpt>
      <trkpt lat="45.03676" lon="4.05242">
        <ele>826.4</ele>
        <time>2026-04-26T09:09:42Z</time>
      </trkpt>
      <trkpt lat="45.03676" lon="4.05242">
        <ele>826.4</ele>
        <time>2026-04-26T09:09:47Z</time>
      </trkpt>
      <trkpt lat="45.03676" lon="4.05242">
        <ele>826.4</ele>
        <time>2026-04-26T09:09:52Z</time>
      </trkpt>
      <trkpt lat="45.03676" lon="4.05242">
        <ele>826.4</ele>
        <time>2026-04-26T09:09:57Z</time>
      </trkpt>
      <trkpt lat="45.03676" lon="4.05242">
        <ele>826.4</ele>
        <time>2026-04-26T09:10:02Z</time>
      </trkpt>
      <trkpt lat="45.03676" lon="4.05242">
        <ele>826.4</ele>
        <time>2026-04-26T09:10:07Z</time>
      </trkpt>
      <trkpt lat="45.03676" lon="4.05242">
        <ele>826.4</ele>
        <time>2026-04-26T09:10:12Z</time>
      </trkpt>
      <trkpt lat="45.03673" lon="4.05233">
        <ele>827.1</ele>
        <time>2026-04-26T09:10:17Z</time>
      </trkpt>
      <trkpt lat="45.03671" lon="4.05224">
        <ele>827.8</ele>
        <time>2026-04-26T09:10:22Z</time>
      </trkpt>
      <trkpt lat="45.0367" lon="4.05213">
        <ele>828.4</ele>
        <time>2026-04-26T09:10:27Z</time>
      </trkpt>
      <trkpt lat="45.0367" lon="4.05205">
        <ele>828.8</ele>
        <time>2026-04-26T09:10:32Z</time>
      </trkpt>
      <trkpt lat="45.03669" lon="4.05198">
        <ele>829.2</ele>
        <time>2026-04-26T09:10:37Z</time>
      </trkpt>
      <trkpt lat="45.0367" lon="4.05187">
        <ele>829.7</ele>
        <time>2026-04-26T09:10:42Z</time>
      </trkpt>
      <trkpt lat="45.0367" lon="4.05176">
        <ele>830.2</ele>
        <time>2026-04-26T09:10:47Z</time>
      </trkpt>
      <trkpt lat="45.0367" lon="4.05166">
        <ele>830.6</ele>
        <time>2026-04-26T09:10:52Z</time>
      </trkpt>
      <trkpt lat="45.0367" lon="4.05155">
        <ele>830.6</ele>
        <time>2026-04-26T09:10:57Z</time>
      </trkpt>
      <trkpt lat="45.03671" lon="4.05147">
        <ele>830.5</ele>
        <time>2026-04-26T09:11:02Z</time>
      </trkpt>
      <trkpt lat="45.03673" lon="4.05136">
        <ele>830.3</ele>
        <time>2026-04-26T09:11:07Z</time>
      </trkpt>
      <trkpt lat="45.03673" lon="4.05125">
        <ele>830.3</ele>
        <time>2026-04-26T09:11:12Z</time>
      </trkpt>
      <trkpt lat="45.03673" lon="4.05114">
        <ele>830.3</ele>
        <time>2026-04-26T09:11:17Z</time>
      </trkpt>
      <trkpt lat="45.03674" lon="4.05102">
        <ele>830.2</ele>
        <time>2026-04-26T09:11:22Z</time>
      </trkpt>
      <trkpt lat="45.03674" lon="4.0509">
        <ele>830.2</ele>
        <time>2026-04-26T09:11:27Z</time>
      </trkpt>
      <trkpt lat="45.03676" lon="4.05078">
        <ele>830</ele>
        <time>2026-04-26T09:11:32Z</time>
      </trkpt>
      <trkpt lat="45.03677" lon="4.05067">
        <ele>830.1</ele>
        <time>2026-04-26T09:11:37Z</time>
      </trkpt>
      <trkpt lat="45.03679" lon="4.05057">
        <ele>829.9</ele>
        <time>2026-04-26T09:11:42Z</time>
      </trkpt>
      <trkpt lat="45.03679" lon="4.05046">
        <ele>830</ele>
        <time>2026-04-26T09:11:47Z</time>
      </trkpt>
      <trkpt lat="45.03679" lon="4.05035">
        <ele>830.2</ele>
        <time>2026-04-26T09:11:52Z</time>
      </trkpt>
      <trkpt lat="45.03681" lon="4.05024">
        <ele>830</ele>
        <time>2026-04-26T09:11:57Z</time>
      </trkpt>
      <trkpt lat="45.03682" lon="4.05014">
        <ele>830</ele>
        <time>2026-04-26T09:12:02Z</time>
      </trkpt>
      <trkpt lat="45.03683" lon="4.05003">
        <ele>830</ele>
        <time>2026-04-26T09:12:07Z</time>
      </trkpt>
      <trkpt lat="45.03683" lon="4.04991">
        <ele>829.7</ele>
        <time>2026-04-26T09:12:12Z</time>
      </trkpt>
      <trkpt lat="45.03683" lon="4.0498">
        <ele>829.2</ele>
        <time>2026-04-26T09:12:17Z</time>
      </trkpt>
      <trkpt lat="45.03685" lon="4.04969">
        <ele>828.6</ele>
        <time>2026-04-26T09:12:22Z</time>
      </trkpt>
      <trkpt lat="45.03687" lon="4.04957">
        <ele>827.9</ele>
        <time>2026-04-26T09:12:27Z</time>
      </trkpt>
      <trkpt lat="45.03687" lon="4.0495">
        <ele>827.6</ele>
        <time>2026-04-26T09:12:32Z</time>
      </trkpt>
      <trkpt lat="45.03688" lon="4.04947">
        <ele>827.4</ele>
        <time>2026-04-26T09:12:37Z</time>
      </trkpt>
      <trkpt lat="45.03689" lon="4.04936">
        <ele>826.9</ele>
        <time>2026-04-26T09:12:42Z</time>
      </trkpt>
      <trkpt lat="45.03691" lon="4.04926">
        <ele>826.3</ele>
        <time>2026-04-26T09:12:47Z</time>
      </trkpt>
      <trkpt lat="45.03691" lon="4.04918">
        <ele>826</ele>
        <time>2026-04-26T09:12:52Z</time>
      </trkpt>
      <trkpt lat="45.03692" lon="4.04907">
        <ele>825</ele>
        <time>2026-04-26T09:12:57Z</time>
      </trkpt>
      <trkpt lat="45.03693" lon="4.04895">
        <ele>824</ele>
        <time>2026-04-26T09:13:02Z</time>
      </trkpt>
      <trkpt lat="45.03694" lon="4.04883">
        <ele>822.9</ele>
        <time>2026-04-26T09:13:07Z</time>
      </trkpt>
      <trkpt lat="45.03695" lon="4.04873">
        <ele>822</ele>
        <time>2026-04-26T09:13:12Z</time>
      </trkpt>
      <trkpt lat="45.03697" lon="4.04862">
        <ele>820.9</ele>
        <time>2026-04-26T09:13:17Z</time>
      </trkpt>
      <trkpt lat="45.03697" lon="4.04851">
        <ele>820</ele>
        <time>2026-04-26T09:13:22Z</time>
      </trkpt>
      <trkpt lat="45.03697" lon="4.04843">
        <ele>819.3</ele>
        <time>2026-04-26T09:13:27Z</time>
      </trkpt>
      <trkpt lat="45.03697" lon="4.04832">
        <ele>818.4</ele>
        <time>2026-04-26T09:13:32Z</time>
      </trkpt>
      <trkpt lat="45.03697" lon="4.04818">
        <ele>817.4</ele>
        <time>2026-04-26T09:13:37Z</time>
      </trkpt>
      <trkpt lat="45.03696" lon="4.04808">
        <ele>816.7</ele>
        <time>2026-04-26T09:13:42Z</time>
      </trkpt>
      <trkpt lat="45.03696" lon="4.04796">
        <ele>815.8</ele>
        <time>2026-04-26T09:13:47Z</time>
      </trkpt>
      <trkpt lat="45.03696" lon="4.04784">
        <ele>814.9</ele>
        <time>2026-04-26T09:13:52Z</time>
      </trkpt>
      <trkpt lat="45.03697" lon="4.04771">
        <ele>813.9</ele>
        <time>2026-04-26T09:13:57Z</time>
      </trkpt>
      <trkpt lat="45.03697" lon="4.04759">
        <ele>812.9</ele>
        <time>2026-04-26T09:14:02Z</time>
      </trkpt>
      <trkpt lat="45.03697" lon="4.04749">
        <ele>812.3</ele>
        <time>2026-04-26T09:14:07Z</time>
      </trkpt>
      <trkpt lat="45.03697" lon="4.04739">
        <ele>812.7</ele>
        <time>2026-04-26T09:14:12Z</time>
      </trkpt>
      <trkpt lat="45.03697" lon="4.04729">
        <ele>813.1</ele>
        <time>2026-04-26T09:14:17Z</time>
      </trkpt>
      <trkpt lat="45.03697" lon="4.04719">
        <ele>813.4</ele>
        <time>2026-04-26T09:14:22Z</time>
      </trkpt>
      <trkpt lat="45.03697" lon="4.04708">
        <ele>813.8</ele>
        <time>2026-04-26T09:14:27Z</time>
      </trkpt>
      <trkpt lat="45.03697" lon="4.04695">
        <ele>814.3</ele>
        <time>2026-04-26T09:14:32Z</time>
      </trkpt>
      <trkpt lat="45.03696" lon="4.04685">
        <ele>814.8</ele>
        <time>2026-04-26T09:14:37Z</time>
      </trkpt>
      <trkpt lat="45.03696" lon="4.04675">
        <ele>815.2</ele>
        <time>2026-04-26T09:14:42Z</time>
      </trkpt>
      <trkpt lat="45.03695" lon="4.04663">
        <ele>815.9</ele>
        <time>2026-04-26T09:14:47Z</time>
      </trkpt>
      <trkpt lat="45.03696" lon="4.04651">
        <ele>816.9</ele>
        <time>2026-04-26T09:14:52Z</time>
      </trkpt>
      <trkpt lat="45.03696" lon="4.0464">
        <ele>817.8</ele>
        <time>2026-04-26T09:14:57Z</time>
      </trkpt>
      <trkpt lat="45.03695" lon="4.04631">
        <ele>818.7</ele>
        <time>2026-04-26T09:15:02Z</time>
      </trkpt>
      <trkpt lat="45.03695" lon="4.04621">
        <ele>819.6</ele>
        <time>2026-04-26T09:15:07Z</time>
      </trkpt>
      <trkpt lat="45.03695" lon="4.04611">
        <ele>820.5</ele>
        <time>2026-04-26T09:15:12Z</time>
      </trkpt>
      <trkpt lat="45.03696" lon="4.046">
        <ele>821.3</ele>
        <time>2026-04-26T09:15:17Z</time>
      </trkpt>
      <trkpt lat="45.03697" lon="4.04589">
        <ele>822.1</ele>
        <time>2026-04-26T09:15:22Z</time>
      </trkpt>
      <trkpt lat="45.03698" lon="4.04578">
        <ele>822.6</ele>
        <time>2026-04-26T09:15:27Z</time>
      </trkpt>
      <trkpt lat="45.03699" lon="4.0457">
        <ele>822.6</ele>
        <time>2026-04-26T09:15:32Z</time>
      </trkpt>
      <trkpt lat="45.037" lon="4.04566">
        <ele>822.6</ele>
        <time>2026-04-26T09:15:37Z</time>
      </trkpt>
      <trkpt lat="45.03701" lon="4.04559">
        <ele>822.6</ele>
        <time>2026-04-26T09:15:42Z</time>
      </trkpt>
      <trkpt lat="45.03702" lon="4.04549">
        <ele>822.6</ele>
        <time>2026-04-26T09:15:47Z</time>
      </trkpt>
      <trkpt lat="45.03702" lon="4.04541">
        <ele>822.8</ele>
        <time>2026-04-26T09:15:52Z</time>
      </trkpt>
      <trkpt lat="45.03703" lon="4.04532">
        <ele>822.8</ele>
        <time>2026-04-26T09:15:57Z</time>
      </trkpt>
      <trkpt lat="45.03705" lon="4.04524">
        <ele>822.6</ele>
        <time>2026-04-26T09:16:02Z</time>
      </trkpt>
      <trkpt lat="45.03706" lon="4.04515">
        <ele>822.6</ele>
        <time>2026-04-26T09:16:07Z</time>
      </trkpt>
      <trkpt lat="45.03708" lon="4.04505">
        <ele>822.5</ele>
        <time>2026-04-26T09:16:12Z</time>
      </trkpt>
      <trkpt lat="45.0371" lon="4.04496">
        <ele>822.2</ele>
        <time>2026-04-26T09:16:17Z</time>
      </trkpt>
      <trkpt lat="45.03711" lon="4.04486">
        <ele>822</ele>
        <time>2026-04-26T09:16:22Z</time>
      </trkpt>
      <trkpt lat="45.03713" lon="4.04473">
        <ele>821.7</ele>
        <time>2026-04-26T09:16:27Z</time>
      </trkpt>
      <trkpt lat="45.03714" lon="4.04461">
        <ele>821.5</ele>
        <time>2026-04-26T09:16:32Z</time>
      </trkpt>
      <trkpt lat="45.03715" lon="4.0445">
        <ele>821.3</ele>
        <time>2026-04-26T09:16:37Z</time>
      </trkpt>
      <trkpt lat="45.03717" lon="4.0444">
        <ele>820.9</ele>
        <time>2026-04-26T09:16:42Z</time>
      </trkpt>
      <trkpt lat="45.03716" lon="4.04431">
        <ele>821.1</ele>
        <time>2026-04-26T09:16:47Z</time>
      </trkpt>
      <trkpt lat="45.03716" lon="4.04419">
        <ele>821.1</ele>
        <time>2026-04-26T09:16:52Z</time>
      </trkpt>
      <trkpt lat="45.03716" lon="4.0441">
        <ele>820.9</ele>
        <time>2026-04-26T09:16:57Z</time>
      </trkpt>
      <trkpt lat="45.03717" lon="4.04401">
        <ele>820.5</ele>
        <time>2026-04-26T09:17:02Z</time>
      </trkpt>
      <trkpt lat="45.03717" lon="4.0439">
        <ele>820.2</ele>
        <time>2026-04-26T09:17:07Z</time>
      </trkpt>
      <trkpt lat="45.03715" lon="4.04379">
        <ele>820.3</ele>
        <time>2026-04-26T09:17:12Z</time>
      </trkpt>
      <trkpt lat="45.03715" lon="4.04368">
        <ele>820</ele>
        <time>2026-04-26T09:17:17Z</time>
      </trkpt>
      <trkpt lat="45.03714" lon="4.04358">
        <ele>820</ele>
        <time>2026-04-26T09:17:22Z</time>
      </trkpt>
      <trkpt lat="45.03713" lon="4.04346">
        <ele>819.9</ele>
        <time>2026-04-26T09:17:27Z</time>
      </trkpt>
      <trkpt lat="45.03711" lon="4.04334">
        <ele>820</ele>
        <time>2026-04-26T09:17:32Z</time>
      </trkpt>
      <trkpt lat="45.03709" lon="4.04322">
        <ele>820.3</ele>
        <time>2026-04-26T09:17:37Z</time>
      </trkpt>
      <trkpt lat="45.03709" lon="4.04312">
        <ele>820.2</ele>
        <time>2026-04-26T09:17:42Z</time>
      </trkpt>
      <trkpt lat="45.03709" lon="4.043">
        <ele>820.2</ele>
        <time>2026-04-26T09:17:47Z</time>
      </trkpt>
      <trkpt lat="45.0371" lon="4.04287">
        <ele>819.9</ele>
        <time>2026-04-26T09:17:52Z</time>
      </trkpt>
      <trkpt lat="45.03711" lon="4.04275">
        <ele>819.6</ele>
        <time>2026-04-26T09:17:57Z</time>
      </trkpt>
      <trkpt lat="45.0371" lon="4.04265">
        <ele>819.7</ele>
        <time>2026-04-26T09:18:02Z</time>
      </trkpt>
      <trkpt lat="45.03711" lon="4.04253">
        <ele>819.4</ele>
        <time>2026-04-26T09:18:07Z</time>
      </trkpt>
      <trkpt lat="45.0371" lon="4.04242">
        <ele>819.6</ele>
        <time>2026-04-26T09:18:12Z</time>
      </trkpt>
      <trkpt lat="45.0371" lon="4.04231">
        <ele>819.6</ele>
        <time>2026-04-26T09:18:17Z</time>
      </trkpt>
      <trkpt lat="45.0371" lon="4.0422">
        <ele>819.6</ele>
        <time>2026-04-26T09:18:22Z</time>
      </trkpt>
      <trkpt lat="45.03711" lon="4.04208">
        <ele>819.4</ele>
        <time>2026-04-26T09:18:27Z</time>
      </trkpt>
      <trkpt lat="45.03711" lon="4.04198">
        <ele>819.4</ele>
        <time>2026-04-26T09:18:32Z</time>
      </trkpt>
      <trkpt lat="45.03712" lon="4.04186">
        <ele>819.2</ele>
        <time>2026-04-26T09:18:37Z</time>
      </trkpt>
      <trkpt lat="45.03712" lon="4.04175">
        <ele>819.2</ele>
        <time>2026-04-26T09:18:42Z</time>
      </trkpt>
      <trkpt lat="45.03713" lon="4.04165">
        <ele>819</ele>
        <time>2026-04-26T09:18:47Z</time>
      </trkpt>
      <trkpt lat="45.03712" lon="4.04155">
        <ele>819.4</ele>
        <time>2026-04-26T09:18:52Z</time>
      </trkpt>
      <trkpt lat="45.03712" lon="4.04142">
        <ele>819.7</ele>
        <time>2026-04-26T09:18:57Z</time>
      </trkpt>
      <trkpt lat="45.03711" lon="4.04132">
        <ele>820.1</ele>
        <time>2026-04-26T09:19:02Z</time>
      </trkpt>
      <trkpt lat="45.03712" lon="4.0412">
        <ele>820.1</ele>
        <time>2026-04-26T09:19:07Z</time>
      </trkpt>
      <trkpt lat="45.03713" lon="4.04108">
        <ele>820.1</ele>
        <time>2026-04-26T09:19:12Z</time>
      </trkpt>
      <trkpt lat="45.03714" lon="4.04098">
        <ele>820.1</ele>
        <time>2026-04-26T09:19:17Z</time>
      </trkpt>
      <trkpt lat="45.03715" lon="4.04087">
        <ele>820.1</ele>
        <time>2026-04-26T09:19:22Z</time>
      </trkpt>
      <trkpt lat="45.03715" lon="4.04081">
        <ele>820.1</ele>
        <time>2026-04-26T09:19:27Z</time>
      </trkpt>
      <trkpt lat="45.03715" lon="4.0408">
        <ele>820</ele>
        <time>2026-04-26T09:19:32Z</time>
      </trkpt>
      <trkpt lat="45.03715" lon="4.04079">
        <ele>820</ele>
        <time>2026-04-26T09:19:37Z</time>
      </trkpt>
      <trkpt lat="45.03714" lon="4.04075">
        <ele>820.1</ele>
        <time>2026-04-26T09:19:42Z</time>
      </trkpt>
      <trkpt lat="45.03714" lon="4.04067">
        <ele>819.8</ele>
        <time>2026-04-26T09:19:47Z</time>
      </trkpt>
      <trkpt lat="45.03715" lon="4.04058">
        <ele>819.4</ele>
        <time>2026-04-26T09:19:52Z</time>
      </trkpt>
      <trkpt lat="45.03717" lon="4.04049">
        <ele>818.7</ele>
        <time>2026-04-26T09:19:57Z</time>
      </trkpt>
      <trkpt lat="45.03717" lon="4.0404">
        <ele>818.4</ele>
        <time>2026-04-26T09:20:02Z</time>
      </trkpt>
      <trkpt lat="45.03718" lon="4.04031">
        <ele>817.9</ele>
        <time>2026-04-26T09:20:07Z</time>
      </trkpt>
      <trkpt lat="45.0372" lon="4.04022">
        <ele>817.2</ele>
        <time>2026-04-26T09:20:12Z</time>
      </trkpt>
      <trkpt lat="45.03722" lon="4.04011">
        <ele>816.4</ele>
        <time>2026-04-26T09:20:17Z</time>
      </trkpt>
      <trkpt lat="45.03723" lon="4.04001">
        <ele>815.9</ele>
        <time>2026-04-26T09:20:22Z</time>
      </trkpt>
      <trkpt lat="45.03723" lon="4.03993">
        <ele>815.3</ele>
        <time>2026-04-26T09:20:27Z</time>
      </trkpt>
      <trkpt lat="45.0372" lon="4.03987">
        <ele>815.5</ele>
        <time>2026-04-26T09:20:32Z</time>
      </trkpt>
      <trkpt lat="45.03719" lon="4.0398">
        <ele>815.2</ele>
        <time>2026-04-26T09:20:37Z</time>
      </trkpt>
      <trkpt lat="45.03721" lon="4.03973">
        <ele>814.1</ele>
        <time>2026-04-26T09:20:42Z</time>
      </trkpt>
      <trkpt lat="45.03726" lon="4.03963">
        <ele>812.1</ele>
        <time>2026-04-26T09:20:47Z</time>
      </trkpt>
      <trkpt lat="45.0373" lon="4.03957">
        <ele>810.5</ele>
        <time>2026-04-26T09:20:52Z</time>
      </trkpt>
      <trkpt lat="45.03732" lon="4.03953">
        <ele>809.7</ele>
        <time>2026-04-26T09:20:57Z</time>
      </trkpt>
      <trkpt lat="45.03734" lon="4.03946">
        <ele>808.5</ele>
        <time>2026-04-26T09:21:02Z</time>
      </trkpt>
      <trkpt lat="45.03736" lon="4.0394">
        <ele>807.4</ele>
        <time>2026-04-26T09:21:07Z</time>
      </trkpt>
      <trkpt lat="45.03739" lon="4.03935">
        <ele>806.1</ele>
        <time>2026-04-26T09:21:12Z</time>
      </trkpt>
      <trkpt lat="45.03741" lon="4.03927">
        <ele>804.7</ele>
        <time>2026-04-26T09:21:17Z</time>
      </trkpt>
      <trkpt lat="45.03744" lon="4.03917">
        <ele>802.8</ele>
        <time>2026-04-26T09:21:22Z</time>
      </trkpt>
      <trkpt lat="45.03747" lon="4.03908">
        <ele>801.1</ele>
        <time>2026-04-26T09:21:27Z</time>
      </trkpt>
      <trkpt lat="45.03748" lon="4.03902">
        <ele>800.2</ele>
        <time>2026-04-26T09:21:32Z</time>
      </trkpt>
      <trkpt lat="45.03749" lon="4.03901">
        <ele>799.8</ele>
        <time>2026-04-26T09:21:37Z</time>
      </trkpt>
      <trkpt lat="45.03749" lon="4.03901">
        <ele>799.8</ele>
        <time>2026-04-26T09:21:42Z</time>
      </trkpt>
      <trkpt lat="45.03749" lon="4.03895">
        <ele>799.2</ele>
        <time>2026-04-26T09:21:47Z</time>
      </trkpt>
      <trkpt lat="45.03749" lon="4.03894">
        <ele>799.2</ele>
        <time>2026-04-26T09:21:52Z</time>
      </trkpt>
      <trkpt lat="45.03756" lon="4.03882">
        <ele>796.5</ele>
        <time>2026-04-26T09:21:57Z</time>
      </trkpt>
      <trkpt lat="45.03759" lon="4.03876">
        <ele>795.4</ele>
        <time>2026-04-26T09:22:02Z</time>
      </trkpt>
      <trkpt lat="45.03762" lon="4.03868">
        <ele>794.1</ele>
        <time>2026-04-26T09:22:07Z</time>
      </trkpt>
      <trkpt lat="45.03764" lon="4.03859">
        <ele>793</ele>
        <time>2026-04-26T09:22:12Z</time>
      </trkpt>
      <trkpt lat="45.03766" lon="4.03849">
        <ele>791.7</ele>
        <time>2026-04-26T09:22:17Z</time>
      </trkpt>
      <trkpt lat="45.03769" lon="4.03839">
        <ele>790.3</ele>
        <time>2026-04-26T09:22:22Z</time>
      </trkpt>
      <trkpt lat="45.03769" lon="4.0383">
        <ele>789.7</ele>
        <time>2026-04-26T09:22:27Z</time>
      </trkpt>
      <trkpt lat="45.03772" lon="4.0382">
        <ele>788.8</ele>
        <time>2026-04-26T09:22:32Z</time>
      </trkpt>
      <trkpt lat="45.03772" lon="4.0381">
        <ele>788.4</ele>
        <time>2026-04-26T09:22:37Z</time>
      </trkpt>
      <trkpt lat="45.03773" lon="4.03799">
        <ele>787.8</ele>
        <time>2026-04-26T09:22:42Z</time>
      </trkpt>
      <trkpt lat="45.03773" lon="4.03789">
        <ele>787.4</ele>
        <time>2026-04-26T09:22:47Z</time>
      </trkpt>
      <trkpt lat="45.03773" lon="4.0378">
        <ele>787</ele>
        <time>2026-04-26T09:22:52Z</time>
      </trkpt>
      <trkpt lat="45.03776" lon="4.03771">
        <ele>786.2</ele>
        <time>2026-04-26T09:22:57Z</time>
      </trkpt>
      <trkpt lat="45.03781" lon="4.03764">
        <ele>785</ele>
        <time>2026-04-26T09:23:02Z</time>
      </trkpt>
      <trkpt lat="45.03787" lon="4.0376">
        <ele>783.8</ele>
        <time>2026-04-26T09:23:07Z</time>
      </trkpt>
      <trkpt lat="45.03793" lon="4.03755">
        <ele>782.5</ele>
        <time>2026-04-26T09:23:12Z</time>
      </trkpt>
      <trkpt lat="45.03798" lon="4.0375">
        <ele>781.4</ele>
        <time>2026-04-26T09:23:17Z</time>
      </trkpt>
      <trkpt lat="45.03797" lon="4.03742">
        <ele>781.2</ele>
        <time>2026-04-26T09:23:22Z</time>
      </trkpt>
      <trkpt lat="45.03795" lon="4.03733">
        <ele>781.2</ele>
        <time>2026-04-26T09:23:27Z</time>
      </trkpt>
      <trkpt lat="45.03792" lon="4.03726">
        <ele>781.4</ele>
        <time>2026-04-26T09:23:32Z</time>
      </trkpt>
      <trkpt lat="45.03789" lon="4.03717">
        <ele>781.6</ele>
        <time>2026-04-26T09:23:37Z</time>
      </trkpt>
      <trkpt lat="45.03786" lon="4.03707">
        <ele>781.7</ele>
        <time>2026-04-26T09:23:42Z</time>
      </trkpt>
      <trkpt lat="45.03784" lon="4.03696">
        <ele>781.6</ele>
        <time>2026-04-26T09:23:47Z</time>
      </trkpt>
      <trkpt lat="45.03782" lon="4.03686">
        <ele>781.5</ele>
        <time>2026-04-26T09:23:52Z</time>
      </trkpt>
      <trkpt lat="45.0378" lon="4.03678">
        <ele>781.5</ele>
        <time>2026-04-26T09:23:57Z</time>
      </trkpt>
      <trkpt lat="45.03778" lon="4.03668">
        <ele>781.4</ele>
        <time>2026-04-26T09:24:02Z</time>
      </trkpt>
      <trkpt lat="45.03779" lon="4.0366">
        <ele>780.8</ele>
        <time>2026-04-26T09:24:07Z</time>
      </trkpt>
      <trkpt lat="45.03783" lon="4.03656">
        <ele>779.9</ele>
        <time>2026-04-26T09:24:12Z</time>
      </trkpt>
      <trkpt lat="45.03784" lon="4.03653">
        <ele>779.6</ele>
        <time>2026-04-26T09:24:17Z</time>
      </trkpt>
      <trkpt lat="45.03783" lon="4.03651">
        <ele>779.6</ele>
        <time>2026-04-26T09:24:22Z</time>
      </trkpt>
      <trkpt lat="45.03784" lon="4.03648">
        <ele>779.3</ele>
        <time>2026-04-26T09:24:27Z</time>
      </trkpt>
      <trkpt lat="45.03788" lon="4.03644">
        <ele>778.5</ele>
        <time>2026-04-26T09:24:32Z</time>
      </trkpt>
      <trkpt lat="45.03791" lon="4.03639">
        <ele>777.8</ele>
        <time>2026-04-26T09:24:37Z</time>
      </trkpt>
      <trkpt lat="45.03791" lon="4.03633">
        <ele>777.5</ele>
        <time>2026-04-26T09:24:42Z</time>
      </trkpt>
      <trkpt lat="45.03787" lon="4.03625">
        <ele>777.7</ele>
        <time>2026-04-26T09:24:47Z</time>
      </trkpt>
      <trkpt lat="45.03785" lon="4.03618">
        <ele>777.6</ele>
        <time>2026-04-26T09:24:52Z</time>
      </trkpt>
      <trkpt lat="45.03783" lon="4.03611">
        <ele>777.5</ele>
        <time>2026-04-26T09:24:57Z</time>
      </trkpt>
      <trkpt lat="45.03779" lon="4.03602">
        <ele>777.6</ele>
        <time>2026-04-26T09:25:02Z</time>
      </trkpt>
      <trkpt lat="45.03777" lon="4.03594">
        <ele>777.4</ele>
        <time>2026-04-26T09:25:07Z</time>
      </trkpt>
      <trkpt lat="45.03774" lon="4.03586">
        <ele>777.3</ele>
        <time>2026-04-26T09:25:12Z</time>
      </trkpt>
      <trkpt lat="45.03773" lon="4.03578">
        <ele>777</ele>
        <time>2026-04-26T09:25:17Z</time>
      </trkpt>
      <trkpt lat="45.0377" lon="4.0357">
        <ele>777.1</ele>
        <time>2026-04-26T09:25:22Z</time>
      </trkpt>
      <trkpt lat="45.03769" lon="4.03559">
        <ele>776.8</ele>
        <time>2026-04-26T09:25:27Z</time>
      </trkpt>
      <trkpt lat="45.03767" lon="4.03547">
        <ele>776.5</ele>
        <time>2026-04-26T09:25:32Z</time>
      </trkpt>
      <trkpt lat="45.03767" lon="4.03539">
        <ele>776.2</ele>
        <time>2026-04-26T09:25:37Z</time>
      </trkpt>
      <trkpt lat="45.03767" lon="4.03532">
        <ele>775.9</ele>
        <time>2026-04-26T09:25:42Z</time>
      </trkpt>
      <trkpt lat="45.03767" lon="4.03531">
        <ele>775.8</ele>
        <time>2026-04-26T09:25:47Z</time>
      </trkpt>
      <trkpt lat="45.03767" lon="4.03518">
        <ele>775.3</ele>
        <time>2026-04-26T09:25:52Z</time>
      </trkpt>
      <trkpt lat="45.03768" lon="4.03507">
        <ele>774.8</ele>
        <time>2026-04-26T09:25:57Z</time>
      </trkpt>
      <trkpt lat="45.03769" lon="4.03497">
        <ele>774.3</ele>
        <time>2026-04-26T09:26:02Z</time>
      </trkpt>
      <trkpt lat="45.0377" lon="4.03487">
        <ele>774</ele>
        <time>2026-04-26T09:26:07Z</time>
      </trkpt>
      <trkpt lat="45.03771" lon="4.03477">
        <ele>773.8</ele>
        <time>2026-04-26T09:26:12Z</time>
      </trkpt>
      <trkpt lat="45.03773" lon="4.03469">
        <ele>773.5</ele>
        <time>2026-04-26T09:26:17Z</time>
      </trkpt>
      <trkpt lat="45.03775" lon="4.03459">
        <ele>773.2</ele>
        <time>2026-04-26T09:26:22Z</time>
      </trkpt>
      <trkpt lat="45.03776" lon="4.03449">
        <ele>772.9</ele>
        <time>2026-04-26T09:26:27Z</time>
      </trkpt>
      <trkpt lat="45.03776" lon="4.0344">
        <ele>772.8</ele>
        <time>2026-04-26T09:26:32Z</time>
      </trkpt>
      <trkpt lat="45.03777" lon="4.03428">
        <ele>772.5</ele>
        <time>2026-04-26T09:26:37Z</time>
      </trkpt>
      <trkpt lat="45.03776" lon="4.03418">
        <ele>772.4</ele>
        <time>2026-04-26T09:26:42Z</time>
      </trkpt>
      <trkpt lat="45.03776" lon="4.03408">
        <ele>772.2</ele>
        <time>2026-04-26T09:26:47Z</time>
      </trkpt>
      <trkpt lat="45.03776" lon="4.03396">
        <ele>772</ele>
        <time>2026-04-26T09:26:52Z</time>
      </trkpt>
      <trkpt lat="45.03776" lon="4.03385">
        <ele>771.9</ele>
        <time>2026-04-26T09:26:57Z</time>
      </trkpt>
      <trkpt lat="45.03778" lon="4.03374">
        <ele>771.6</ele>
        <time>2026-04-26T09:27:02Z</time>
      </trkpt>
      <trkpt lat="45.03778" lon="4.03363">
        <ele>771.5</ele>
        <time>2026-04-26T09:27:07Z</time>
      </trkpt>
      <trkpt lat="45.03778" lon="4.03352">
        <ele>771.3</ele>
        <time>2026-04-26T09:27:12Z</time>
      </trkpt>
      <trkpt lat="45.03778" lon="4.03341">
        <ele>771.1</ele>
        <time>2026-04-26T09:27:17Z</time>
      </trkpt>
      <trkpt lat="45.03778" lon="4.03331">
        <ele>771</ele>
        <time>2026-04-26T09:27:22Z</time>
      </trkpt>
      <trkpt lat="45.03778" lon="4.03323">
        <ele>770.8</ele>
        <time>2026-04-26T09:27:27Z</time>
      </trkpt>
      <trkpt lat="45.03776" lon="4.03315">
        <ele>770.7</ele>
        <time>2026-04-26T09:27:32Z</time>
      </trkpt>
      <trkpt lat="45.03774" lon="4.03303">
        <ele>770.5</ele>
        <time>2026-04-26T09:27:37Z</time>
      </trkpt>
      <trkpt lat="45.03774" lon="4.03293">
        <ele>770.3</ele>
        <time>2026-04-26T09:27:42Z</time>
      </trkpt>
      <trkpt lat="45.03774" lon="4.03282">
        <ele>770.1</ele>
        <time>2026-04-26T09:27:47Z</time>
      </trkpt>
      <trkpt lat="45.03773" lon="4.03271">
        <ele>769.9</ele>
        <time>2026-04-26T09:27:52Z</time>
      </trkpt>
      <trkpt lat="45.03773" lon="4.03263">
        <ele>769.8</ele>
        <time>2026-04-26T09:27:57Z</time>
      </trkpt>
      <trkpt lat="45.03772" lon="4.03254">
        <ele>769.6</ele>
        <time>2026-04-26T09:28:02Z</time>
      </trkpt>
      <trkpt lat="45.03772" lon="4.03247">
        <ele>769.5</ele>
        <time>2026-04-26T09:28:07Z</time>
      </trkpt>
      <trkpt lat="45.03772" lon="4.03244">
        <ele>769.5</ele>
        <time>2026-04-26T09:28:12Z</time>
      </trkpt>
      <trkpt lat="45.03771" lon="4.03242">
        <ele>769.5</ele>
        <time>2026-04-26T09:28:17Z</time>
      </trkpt>
      <trkpt lat="45.03771" lon="4.03242">
        <ele>769.5</ele>
        <time>2026-04-26T09:28:22Z</time>
      </trkpt>
      <trkpt lat="45.03771" lon="4.03242">
        <ele>769.5</ele>
        <time>2026-04-26T09:28:27Z</time>
      </trkpt>
      <trkpt lat="45.03771" lon="4.03242">
        <ele>769.5</ele>
        <time>2026-04-26T09:28:32Z</time>
      </trkpt>
      <trkpt lat="45.03771" lon="4.03242">
        <ele>769.5</ele>
        <time>2026-04-26T09:28:37Z</time>
      </trkpt>
      <trkpt lat="45.03769" lon="4.03239">
        <ele>769.5</ele>
        <time>2026-04-26T09:28:42Z</time>
      </trkpt>
      <trkpt lat="45.03772" lon="4.03231">
        <ele>769.6</ele>
        <time>2026-04-26T09:28:47Z</time>
      </trkpt>
      <trkpt lat="45.03774" lon="4.03223">
        <ele>769.7</ele>
        <time>2026-04-26T09:28:52Z</time>
      </trkpt>
      <trkpt lat="45.03775" lon="4.03215">
        <ele>769.7</ele>
        <time>2026-04-26T09:28:57Z</time>
      </trkpt>
      <trkpt lat="45.03777" lon="4.03207">
        <ele>769.8</ele>
        <time>2026-04-26T09:29:02Z</time>
      </trkpt>
      <trkpt lat="45.03779" lon="4.03196">
        <ele>769.9</ele>
        <time>2026-04-26T09:29:07Z</time>
      </trkpt>
      <trkpt lat="45.03782" lon="4.03185">
        <ele>770.1</ele>
        <time>2026-04-26T09:29:12Z</time>
      </trkpt>
      <trkpt lat="45.03784" lon="4.03176">
        <ele>770.2</ele>
        <time>2026-04-26T09:29:17Z</time>
      </trkpt>
      <trkpt lat="45.03785" lon="4.03168">
        <ele>770.3</ele>
        <time>2026-04-26T09:29:22Z</time>
      </trkpt>
      <trkpt lat="45.03786" lon="4.0316">
        <ele>770.1</ele>
        <time>2026-04-26T09:29:27Z</time>
      </trkpt>
      <trkpt lat="45.03787" lon="4.03153">
        <ele>769.9</ele>
        <time>2026-04-26T09:29:32Z</time>
      </trkpt>
      <trkpt lat="45.03787" lon="4.03147">
        <ele>769.8</ele>
        <time>2026-04-26T09:29:37Z</time>
      </trkpt>
      <trkpt lat="45.03786" lon="4.03139">
        <ele>769.5</ele>
        <time>2026-04-26T09:29:42Z</time>
      </trkpt>
      <trkpt lat="45.03785" lon="4.0313">
        <ele>769.2</ele>
        <time>2026-04-26T09:29:47Z</time>
      </trkpt>
      <trkpt lat="45.03786" lon="4.03122">
        <ele>769</ele>
        <time>2026-04-26T09:29:52Z</time>
      </trkpt>
      <trkpt lat="45.03787" lon="4.03114">
        <ele>768.8</ele>
        <time>2026-04-26T09:29:57Z</time>
      </trkpt>
      <trkpt lat="45.03789" lon="4.03104">
        <ele>768.5</ele>
        <time>2026-04-26T09:30:02Z</time>
      </trkpt>
      <trkpt lat="45.03789" lon="4.03096">
        <ele>768.3</ele>
        <time>2026-04-26T09:30:07Z</time>
      </trkpt>
      <trkpt lat="45.03791" lon="4.03086">
        <ele>768.1</ele>
        <time>2026-04-26T09:30:12Z</time>
      </trkpt>
      <trkpt lat="45.03791" lon="4.03078">
        <ele>768</ele>
        <time>2026-04-26T09:30:17Z</time>
      </trkpt>
      <trkpt lat="45.03793" lon="4.03068">
        <ele>768.1</ele>
        <time>2026-04-26T09:30:22Z</time>
      </trkpt>
      <trkpt lat="45.03793" lon="4.0306">
        <ele>768.2</ele>
        <time>2026-04-26T09:30:27Z</time>
      </trkpt>
      <trkpt lat="45.03794" lon="4.0305">
        <ele>768.3</ele>
        <time>2026-04-26T09:30:32Z</time>
      </trkpt>
      <trkpt lat="45.03793" lon="4.03041">
        <ele>768.3</ele>
        <time>2026-04-26T09:30:37Z</time>
      </trkpt>
      <trkpt lat="45.03793" lon="4.03032">
        <ele>768.3</ele>
        <time>2026-04-26T09:30:42Z</time>
      </trkpt>
      <trkpt lat="45.03792" lon="4.03024">
        <ele>768.4</ele>
        <time>2026-04-26T09:30:47Z</time>
      </trkpt>
      <trkpt lat="45.03793" lon="4.03015">
        <ele>768.5</ele>
        <time>2026-04-26T09:30:52Z</time>
      </trkpt>
      <trkpt lat="45.03793" lon="4.03007">
        <ele>768.5</ele>
        <time>2026-04-26T09:30:57Z</time>
      </trkpt>
      <trkpt lat="45.03792" lon="4.03001">
        <ele>768.5</ele>
        <time>2026-04-26T09:31:02Z</time>
      </trkpt>
      <trkpt lat="45.03793" lon="4.02997">
        <ele>768.7</ele>
        <time>2026-04-26T09:31:07Z</time>
      </trkpt>
      <trkpt lat="45.03794" lon="4.02992">
        <ele>768.9</ele>
        <time>2026-04-26T09:31:12Z</time>
      </trkpt>
      <trkpt lat="45.03793" lon="4.02984">
        <ele>769.1</ele>
        <time>2026-04-26T09:31:17Z</time>
      </trkpt>
      <trkpt lat="45.03792" lon="4.02975">
        <ele>769.4</ele>
        <time>2026-04-26T09:31:22Z</time>
      </trkpt>
      <trkpt lat="45.03791" lon="4.02967">
        <ele>769.7</ele>
        <time>2026-04-26T09:31:27Z</time>
      </trkpt>
      <trkpt lat="45.03791" lon="4.02959">
        <ele>770</ele>
        <time>2026-04-26T09:31:32Z</time>
      </trkpt>
      <trkpt lat="45.0379" lon="4.02952">
        <ele>770.2</ele>
        <time>2026-04-26T09:31:37Z</time>
      </trkpt>
      <trkpt lat="45.03791" lon="4.02944">
        <ele>770.5</ele>
        <time>2026-04-26T09:31:42Z</time>
      </trkpt>
      <trkpt lat="45.03793" lon="4.02936">
        <ele>770.8</ele>
        <time>2026-04-26T09:31:47Z</time>
      </trkpt>
      <trkpt lat="45.03795" lon="4.02926">
        <ele>771.2</ele>
        <time>2026-04-26T09:31:52Z</time>
      </trkpt>
      <trkpt lat="45.03799" lon="4.02915">
        <ele>771.6</ele>
        <time>2026-04-26T09:31:57Z</time>
      </trkpt>
      <trkpt lat="45.03799" lon="4.02906">
        <ele>771.7</ele>
        <time>2026-04-26T09:32:02Z</time>
      </trkpt>
      <trkpt lat="45.03799" lon="4.02897">
        <ele>771.8</ele>
        <time>2026-04-26T09:32:07Z</time>
      </trkpt>
      <trkpt lat="45.03801" lon="4.02888">
        <ele>771.9</ele>
        <time>2026-04-26T09:32:12Z</time>
      </trkpt>
      <trkpt lat="45.03802" lon="4.02882">
        <ele>772</ele>
        <time>2026-04-26T09:32:17Z</time>
      </trkpt>
      <trkpt lat="45.03803" lon="4.02873">
        <ele>772.2</ele>
        <time>2026-04-26T09:32:22Z</time>
      </trkpt>
      <trkpt lat="45.03802" lon="4.02865">
        <ele>772.2</ele>
        <time>2026-04-26T09:32:27Z</time>
      </trkpt>
      <trkpt lat="45.038" lon="4.02858">
        <ele>772.2</ele>
        <time>2026-04-26T09:32:32Z</time>
      </trkpt>
      <trkpt lat="45.03795" lon="4.02852">
        <ele>771.8</ele>
        <time>2026-04-26T09:32:37Z</time>
      </trkpt>
      <trkpt lat="45.0379" lon="4.02846">
        <ele>771.3</ele>
        <time>2026-04-26T09:32:42Z</time>
      </trkpt>
      <trkpt lat="45.03785" lon="4.02839">
        <ele>770.8</ele>
        <time>2026-04-26T09:32:47Z</time>
      </trkpt>
      <trkpt lat="45.03779" lon="4.02833">
        <ele>770.1</ele>
        <time>2026-04-26T09:32:52Z</time>
      </trkpt>
      <trkpt lat="45.03777" lon="4.02823">
        <ele>769.8</ele>
        <time>2026-04-26T09:32:57Z</time>
      </trkpt>
      <trkpt lat="45.03778" lon="4.02815">
        <ele>769.9</ele>
        <time>2026-04-26T09:33:02Z</time>
      </trkpt>
      <trkpt lat="45.03779" lon="4.02807">
        <ele>769.9</ele>
        <time>2026-04-26T09:33:07Z</time>
      </trkpt>
      <trkpt lat="45.0378" lon="4.02802">
        <ele>770</ele>
        <time>2026-04-26T09:33:12Z</time>
      </trkpt>
      <trkpt lat="45.03779" lon="4.02799">
        <ele>769.9</ele>
        <time>2026-04-26T09:33:17Z</time>
      </trkpt>
      <trkpt lat="45.03778" lon="4.02799">
        <ele>769.8</ele>
        <time>2026-04-26T09:33:22Z</time>
      </trkpt>
      <trkpt lat="45.03778" lon="4.02799">
        <ele>769.8</ele>
        <time>2026-04-26T09:33:27Z</time>
      </trkpt>
      <trkpt lat="45.03778" lon="4.02799">
        <ele>769.8</ele>
        <time>2026-04-26T09:33:32Z</time>
      </trkpt>
      <trkpt lat="45.03778" lon="4.02799">
        <ele>769.8</ele>
        <time>2026-04-26T09:33:37Z</time>
      </trkpt>
      <trkpt lat="45.03778" lon="4.02799">
        <ele>769.8</ele>
        <time>2026-04-26T09:33:42Z</time>
      </trkpt>
      <trkpt lat="45.03782" lon="4.02798">
        <ele>770.3</ele>
        <time>2026-04-26T09:33:47Z</time>
      </trkpt>
      <trkpt lat="45.03782" lon="4.02786">
        <ele>770.2</ele>
        <time>2026-04-26T09:33:52Z</time>
      </trkpt>
      <trkpt lat="45.03784" lon="4.02777">
        <ele>770.4</ele>
        <time>2026-04-26T09:33:57Z</time>
      </trkpt>
      <trkpt lat="45.03788" lon="4.02769">
        <ele>771</ele>
        <time>2026-04-26T09:34:02Z</time>
      </trkpt>
      <trkpt lat="45.03794" lon="4.02761">
        <ele>771.8</ele>
        <time>2026-04-26T09:34:07Z</time>
      </trkpt>
      <trkpt lat="45.03797" lon="4.02752">
        <ele>772.3</ele>
        <time>2026-04-26T09:34:12Z</time>
      </trkpt>
      <trkpt lat="45.038" lon="4.02742">
        <ele>773.9</ele>
        <time>2026-04-26T09:34:17Z</time>
      </trkpt>
      <trkpt lat="45.03807" lon="4.02734">
        <ele>776</ele>
        <time>2026-04-26T09:34:22Z</time>
      </trkpt>
      <trkpt lat="45.03811" lon="4.02726">
        <ele>777.7</ele>
        <time>2026-04-26T09:34:27Z</time>
      </trkpt>
      <trkpt lat="45.03814" lon="4.0272">
        <ele>778.9</ele>
        <time>2026-04-26T09:34:32Z</time>
      </trkpt>
      <trkpt lat="45.03822" lon="4.02715">
        <ele>780.9</ele>
        <time>2026-04-26T09:34:37Z</time>
      </trkpt>
      <trkpt lat="45.03827" lon="4.02715">
        <ele>781.6</ele>
        <time>2026-04-26T09:34:42Z</time>
      </trkpt>
      <trkpt lat="45.03827" lon="4.02715">
        <ele>781.6</ele>
        <time>2026-04-26T09:34:47Z</time>
      </trkpt>
      <trkpt lat="45.03827" lon="4.02715">
        <ele>781.6</ele>
        <time>2026-04-26T09:34:52Z</time>
      </trkpt>
      <trkpt lat="45.03825" lon="4.02723">
        <ele>780.3</ele>
        <time>2026-04-26T09:34:57Z</time>
      </trkpt>
      <trkpt lat="45.03825" lon="4.02723">
        <ele>780.3</ele>
        <time>2026-04-26T09:35:02Z</time>
      </trkpt>
      <trkpt lat="45.03821" lon="4.02723">
        <ele>779.6</ele>
        <time>2026-04-26T09:35:07Z</time>
      </trkpt>
      <trkpt lat="45.03821" lon="4.02723">
        <ele>779.6</ele>
        <time>2026-04-26T09:35:12Z</time>
      </trkpt>
      <trkpt lat="45.03821" lon="4.02723">
        <ele>779.6</ele>
        <time>2026-04-26T09:35:17Z</time>
      </trkpt>
      <trkpt lat="45.03826" lon="4.02715">
        <ele>781.5</ele>
        <time>2026-04-26T09:35:22Z</time>
      </trkpt>
      <trkpt lat="45.0383" lon="4.02711">
        <ele>782.6</ele>
        <time>2026-04-26T09:35:27Z</time>
      </trkpt>
      <trkpt lat="45.03835" lon="4.02704">
        <ele>784.1</ele>
        <time>2026-04-26T09:35:32Z</time>
      </trkpt>
      <trkpt lat="45.03839" lon="4.02694">
        <ele>785.4</ele>
        <time>2026-04-26T09:35:37Z</time>
      </trkpt>
      <trkpt lat="45.03842" lon="4.02682">
        <ele>786.8</ele>
        <time>2026-04-26T09:35:42Z</time>
      </trkpt>
      <trkpt lat="45.03842" lon="4.02672">
        <ele>787.9</ele>
        <time>2026-04-26T09:35:47Z</time>
      </trkpt>
      <trkpt lat="45.03844" lon="4.0266">
        <ele>788.1</ele>
        <time>2026-04-26T09:35:52Z</time>
      </trkpt>
      <trkpt lat="45.03849" lon="4.02653">
        <ele>787.4</ele>
        <time>2026-04-26T09:35:57Z</time>
      </trkpt>
      <trkpt lat="45.03854" lon="4.02646">
        <ele>786.7</ele>
        <time>2026-04-26T09:36:02Z</time>
      </trkpt>
      <trkpt lat="45.03861" lon="4.02643">
        <ele>786</ele>
        <time>2026-04-26T09:36:07Z</time>
      </trkpt>
      <trkpt lat="45.03868" lon="4.02645">
        <ele>785.6</ele>
        <time>2026-04-26T09:36:12Z</time>
      </trkpt>
      <trkpt lat="45.03876" lon="4.02649">
        <ele>785.3</ele>
        <time>2026-04-26T09:36:17Z</time>
      </trkpt>
      <trkpt lat="45.03884" lon="4.02651">
        <ele>784.8</ele>
        <time>2026-04-26T09:36:22Z</time>
      </trkpt>
      <trkpt lat="45.0389" lon="4.02649">
        <ele>784.2</ele>
        <time>2026-04-26T09:36:27Z</time>
      </trkpt>
      <trkpt lat="45.03895" lon="4.02647">
        <ele>783.7</ele>
        <time>2026-04-26T09:36:32Z</time>
      </trkpt>
      <trkpt lat="45.039" lon="4.02643">
        <ele>783</ele>
        <time>2026-04-26T09:36:37Z</time>
      </trkpt>
      <trkpt lat="45.03906" lon="4.02639">
        <ele>782.2</ele>
        <time>2026-04-26T09:36:42Z</time>
      </trkpt>
      <trkpt lat="45.03912" lon="4.02633">
        <ele>781.2</ele>
        <time>2026-04-26T09:36:47Z</time>
      </trkpt>
      <trkpt lat="45.03919" lon="4.02629">
        <ele>780.4</ele>
        <time>2026-04-26T09:36:52Z</time>
      </trkpt>
      <trkpt lat="45.03927" lon="4.02626">
        <ele>780</ele>
        <time>2026-04-26T09:36:57Z</time>
      </trkpt>
      <trkpt lat="45.03934" lon="4.02623">
        <ele>779.7</ele>
        <time>2026-04-26T09:37:02Z</time>
      </trkpt>
      <trkpt lat="45.03941" lon="4.02621">
        <ele>779.5</ele>
        <time>2026-04-26T09:37:07Z</time>
      </trkpt>
      <trkpt lat="45.03947" lon="4.0262">
        <ele>779.4</ele>
        <time>2026-04-26T09:37:12Z</time>
      </trkpt>
      <trkpt lat="45.03953" lon="4.02618">
        <ele>779.2</ele>
        <time>2026-04-26T09:37:17Z</time>
      </trkpt>
      <trkpt lat="45.0396" lon="4.02616">
        <ele>779</ele>
        <time>2026-04-26T09:37:22Z</time>
      </trkpt>
      <trkpt lat="45.03968" lon="4.02613">
        <ele>778.8</ele>
        <time>2026-04-26T09:37:27Z</time>
      </trkpt>
      <trkpt lat="45.03977" lon="4.02611">
        <ele>778.7</ele>
        <time>2026-04-26T09:37:32Z</time>
      </trkpt>
      <trkpt lat="45.03983" lon="4.02612">
        <ele>778.7</ele>
        <time>2026-04-26T09:37:37Z</time>
      </trkpt>
      <trkpt lat="45.03986" lon="4.02609">
        <ele>778.5</ele>
        <time>2026-04-26T09:37:42Z</time>
      </trkpt>
      <trkpt lat="45.03985" lon="4.02604">
        <ele>778.2</ele>
        <time>2026-04-26T09:37:47Z</time>
      </trkpt>
      <trkpt lat="45.03987" lon="4.02599">
        <ele>777.9</ele>
        <time>2026-04-26T09:37:52Z</time>
      </trkpt>
      <trkpt lat="45.0399" lon="4.02593">
        <ele>777.5</ele>
        <time>2026-04-26T09:37:57Z</time>
      </trkpt>
      <trkpt lat="45.03992" lon="4.02589">
        <ele>777.3</ele>
        <time>2026-04-26T09:38:02Z</time>
      </trkpt>
      <trkpt lat="45.03993" lon="4.02584">
        <ele>777</ele>
        <time>2026-04-26T09:38:07Z</time>
      </trkpt>
      <trkpt lat="45.03993" lon="4.02579">
        <ele>776.2</ele>
        <time>2026-04-26T09:38:12Z</time>
      </trkpt>
      <trkpt lat="45.03994" lon="4.02574">
        <ele>775.4</ele>
        <time>2026-04-26T09:38:17Z</time>
      </trkpt>
      <trkpt lat="45.03994" lon="4.02568">
        <ele>774.4</ele>
        <time>2026-04-26T09:38:22Z</time>
      </trkpt>
      <trkpt lat="45.03994" lon="4.02564">
        <ele>773.7</ele>
        <time>2026-04-26T09:38:27Z</time>
      </trkpt>
      <trkpt lat="45.03996" lon="4.0256">
        <ele>773</ele>
        <time>2026-04-26T09:38:32Z</time>
      </trkpt>
      <trkpt lat="45.03997" lon="4.0256">
        <ele>773</ele>
        <time>2026-04-26T09:38:37Z</time>
      </trkpt>
      <trkpt lat="45.03996" lon="4.02555">
        <ele>772.2</ele>
        <time>2026-04-26T09:38:42Z</time>
      </trkpt>
      <trkpt lat="45.03997" lon="4.02546">
        <ele>770.7</ele>
        <time>2026-04-26T09:38:47Z</time>
      </trkpt>
      <trkpt lat="45.04" lon="4.02536">
        <ele>769</ele>
        <time>2026-04-26T09:38:52Z</time>
      </trkpt>
      <trkpt lat="45.04001" lon="4.02527">
        <ele>767.6</ele>
        <time>2026-04-26T09:38:57Z</time>
      </trkpt>
      <trkpt lat="45.04" lon="4.02518">
        <ele>766</ele>
        <time>2026-04-26T09:39:02Z</time>
      </trkpt>
      <trkpt lat="45.03998" lon="4.02505">
        <ele>763.8</ele>
        <time>2026-04-26T09:39:07Z</time>
      </trkpt>
      <trkpt lat="45.03995" lon="4.02492">
        <ele>762.3</ele>
        <time>2026-04-26T09:39:12Z</time>
      </trkpt>
      <trkpt lat="45.03991" lon="4.02483">
        <ele>761.6</ele>
        <time>2026-04-26T09:39:17Z</time>
      </trkpt>
      <trkpt lat="45.03986" lon="4.02476">
        <ele>761.1</ele>
        <time>2026-04-26T09:39:22Z</time>
      </trkpt>
      <trkpt lat="45.0398" lon="4.0247">
        <ele>760.8</ele>
        <time>2026-04-26T09:39:27Z</time>
      </trkpt>
      <trkpt lat="45.03972" lon="4.02468">
        <ele>760.8</ele>
        <time>2026-04-26T09:39:32Z</time>
      </trkpt>
      <trkpt lat="45.03965" lon="4.02469">
        <ele>760.9</ele>
        <time>2026-04-26T09:39:37Z</time>
      </trkpt>
      <trkpt lat="45.03958" lon="4.02471">
        <ele>761.1</ele>
        <time>2026-04-26T09:39:42Z</time>
      </trkpt>
      <trkpt lat="45.0395" lon="4.02475">
        <ele>761.4</ele>
        <time>2026-04-26T09:39:47Z</time>
      </trkpt>
      <trkpt lat="45.03942" lon="4.0248">
        <ele>761.6</ele>
        <time>2026-04-26T09:39:52Z</time>
      </trkpt>
      <trkpt lat="45.03936" lon="4.02483">
        <ele>761.7</ele>
        <time>2026-04-26T09:39:57Z</time>
      </trkpt>
      <trkpt lat="45.03928" lon="4.02483">
        <ele>761.8</ele>
        <time>2026-04-26T09:40:02Z</time>
      </trkpt>
      <trkpt lat="45.03919" lon="4.0248">
        <ele>761.7</ele>
        <time>2026-04-26T09:40:07Z</time>
      </trkpt>
      <trkpt lat="45.03912" lon="4.0248">
        <ele>762.2</ele>
        <time>2026-04-26T09:40:12Z</time>
      </trkpt>
      <trkpt lat="45.03906" lon="4.0248">
        <ele>762.7</ele>
        <time>2026-04-26T09:40:17Z</time>
      </trkpt>
      <trkpt lat="45.039" lon="4.02479">
        <ele>763.3</ele>
        <time>2026-04-26T09:40:22Z</time>
      </trkpt>
      <trkpt lat="45.03893" lon="4.02478">
        <ele>763.9</ele>
        <time>2026-04-26T09:40:27Z</time>
      </trkpt>
      <trkpt lat="45.03886" lon="4.02475">
        <ele>764.6</ele>
        <time>2026-04-26T09:40:32Z</time>
      </trkpt>
      <trkpt lat="45.03877" lon="4.0247">
        <ele>765.7</ele>
        <time>2026-04-26T09:40:37Z</time>
      </trkpt>
      <trkpt lat="45.03874" lon="4.0246">
        <ele>766.5</ele>
        <time>2026-04-26T09:40:42Z</time>
      </trkpt>
      <trkpt lat="45.03871" lon="4.02454">
        <ele>767.2</ele>
        <time>2026-04-26T09:40:47Z</time>
      </trkpt>
      <trkpt lat="45.03868" lon="4.02448">
        <ele>767.9</ele>
        <time>2026-04-26T09:40:52Z</time>
      </trkpt>
      <trkpt lat="45.03865" lon="4.02441">
        <ele>768.8</ele>
        <time>2026-04-26T09:40:57Z</time>
      </trkpt>
      <trkpt lat="45.03864" lon="4.02435">
        <ele>769.3</ele>
        <time>2026-04-26T09:41:02Z</time>
      </trkpt>
      <trkpt lat="45.03862" lon="4.02435">
        <ele>769.6</ele>
        <time>2026-04-26T09:41:07Z</time>
      </trkpt>
      <trkpt lat="45.03862" lon="4.02435">
        <ele>769.6</ele>
        <time>2026-04-26T09:41:12Z</time>
      </trkpt>
      <trkpt lat="45.03862" lon="4.02435">
        <ele>769.6</ele>
        <time>2026-04-26T09:41:17Z</time>
      </trkpt>
      <trkpt lat="45.03862" lon="4.02435">
        <ele>769.6</ele>
        <time>2026-04-26T09:41:22Z</time>
      </trkpt>
      <trkpt lat="45.03862" lon="4.02435">
        <ele>769.6</ele>
        <time>2026-04-26T09:41:27Z</time>
      </trkpt>
      <trkpt lat="45.0386" lon="4.02418">
        <ele>771.1</ele>
        <time>2026-04-26T09:41:32Z</time>
      </trkpt>
      <trkpt lat="45.0386" lon="4.02408">
        <ele>773.6</ele>
        <time>2026-04-26T09:41:37Z</time>
      </trkpt>
      <trkpt lat="45.03864" lon="4.02399">
        <ele>775.3</ele>
        <time>2026-04-26T09:41:42Z</time>
      </trkpt>
      <trkpt lat="45.03872" lon="4.02396">
        <ele>774.5</ele>
        <time>2026-04-26T09:41:47Z</time>
      </trkpt>
      <trkpt lat="45.03878" lon="4.02393">
        <ele>774</ele>
        <time>2026-04-26T09:41:52Z</time>
      </trkpt>
      <trkpt lat="45.03882" lon="4.02388">
        <ele>774.3</ele>
        <time>2026-04-26T09:41:57Z</time>
      </trkpt>
      <trkpt lat="45.03885" lon="4.02381">
        <ele>775.3</ele>
        <time>2026-04-26T09:42:02Z</time>
      </trkpt>
      <trkpt lat="45.03887" lon="4.02373">
        <ele>776.8</ele>
        <time>2026-04-26T09:42:07Z</time>
      </trkpt>
      <trkpt lat="45.03888" lon="4.02365">
        <ele>778.4</ele>
        <time>2026-04-26T09:42:12Z</time>
      </trkpt>
      <trkpt lat="45.03888" lon="4.02356">
        <ele>780.6</ele>
        <time>2026-04-26T09:42:17Z</time>
      </trkpt>
      <trkpt lat="45.03886" lon="4.02346">
        <ele>783.5</ele>
        <time>2026-04-26T09:42:22Z</time>
      </trkpt>
      <trkpt lat="45.03886" lon="4.02339">
        <ele>785.2</ele>
        <time>2026-04-26T09:42:27Z</time>
      </trkpt>
      <trkpt lat="45.03885" lon="4.02332">
        <ele>787.2</ele>
        <time>2026-04-26T09:42:32Z</time>
      </trkpt>
      <trkpt lat="45.03885" lon="4.02324">
        <ele>789</ele>
        <time>2026-04-26T09:42:37Z</time>
      </trkpt>
      <trkpt lat="45.03885" lon="4.02316">
        <ele>790.8</ele>
        <time>2026-04-26T09:42:42Z</time>
      </trkpt>
      <trkpt lat="45.03886" lon="4.02307">
        <ele>792.5</ele>
        <time>2026-04-26T09:42:47Z</time>
      </trkpt>
      <trkpt lat="45.03891" lon="4.02294">
        <ele>793.8</ele>
        <time>2026-04-26T09:42:52Z</time>
      </trkpt>
      <trkpt lat="45.03895" lon="4.02284">
        <ele>794.6</ele>
        <time>2026-04-26T09:42:57Z</time>
      </trkpt>
      <trkpt lat="45.03897" lon="4.02276">
        <ele>795.6</ele>
        <time>2026-04-26T09:43:02Z</time>
      </trkpt>
      <trkpt lat="45.03899" lon="4.02266">
        <ele>797.1</ele>
        <time>2026-04-26T09:43:07Z</time>
      </trkpt>
      <trkpt lat="45.03902" lon="4.02257">
        <ele>798</ele>
        <time>2026-04-26T09:43:12Z</time>
      </trkpt>
      <trkpt lat="45.03903" lon="4.02249">
        <ele>799.3</ele>
        <time>2026-04-26T09:43:17Z</time>
      </trkpt>
      <trkpt lat="45.03901" lon="4.02241">
        <ele>801.9</ele>
        <time>2026-04-26T09:43:22Z</time>
      </trkpt>
      <trkpt lat="45.03902" lon="4.02233">
        <ele>803.3</ele>
        <time>2026-04-26T09:43:27Z</time>
      </trkpt>
      <trkpt lat="45.03903" lon="4.02225">
        <ele>804.7</ele>
        <time>2026-04-26T09:43:32Z</time>
      </trkpt>
      <trkpt lat="45.03905" lon="4.02216">
        <ele>806</ele>
        <time>2026-04-26T09:43:37Z</time>
      </trkpt>
      <trkpt lat="45.03907" lon="4.02214">
        <ele>805.6</ele>
        <time>2026-04-26T09:43:42Z</time>
      </trkpt>
      <trkpt lat="45.03908" lon="4.02208">
        <ele>806.6</ele>
        <time>2026-04-26T09:43:47Z</time>
      </trkpt>
      <trkpt lat="45.0391" lon="4.022">
        <ele>807.5</ele>
        <time>2026-04-26T09:43:52Z</time>
      </trkpt>
      <trkpt lat="45.03911" lon="4.02193">
        <ele>808.7</ele>
        <time>2026-04-26T09:43:57Z</time>
      </trkpt>
      <trkpt lat="45.03916" lon="4.02184">
        <ele>808.5</ele>
        <time>2026-04-26T09:44:02Z</time>
      </trkpt>
      <trkpt lat="45.03916" lon="4.02175">
        <ele>810.5</ele>
        <time>2026-04-26T09:44:07Z</time>
      </trkpt>
      <trkpt lat="45.03917" lon="4.02167">
        <ele>811.8</ele>
        <time>2026-04-26T09:44:12Z</time>
      </trkpt>
      <trkpt lat="45.03918" lon="4.02156">
        <ele>812.9</ele>
        <time>2026-04-26T09:44:17Z</time>
      </trkpt>
      <trkpt lat="45.0392" lon="4.02148">
        <ele>813.1</ele>
        <time>2026-04-26T09:44:22Z</time>
      </trkpt>
      <trkpt lat="45.03921" lon="4.02139">
        <ele>813.9</ele>
        <time>2026-04-26T09:44:27Z</time>
      </trkpt>
      <trkpt lat="45.03922" lon="4.0213">
        <ele>814.7</ele>
        <time>2026-04-26T09:44:32Z</time>
      </trkpt>
      <trkpt lat="45.03923" lon="4.02123">
        <ele>815.2</ele>
        <time>2026-04-26T09:44:37Z</time>
      </trkpt>
      <trkpt lat="45.03925" lon="4.02114">
        <ele>815.5</ele>
        <time>2026-04-26T09:44:42Z</time>
      </trkpt>
      <trkpt lat="45.03927" lon="4.02104">
        <ele>816</ele>
        <time>2026-04-26T09:44:47Z</time>
      </trkpt>
      <trkpt lat="45.03927" lon="4.02097">
        <ele>817</ele>
        <time>2026-04-26T09:44:52Z</time>
      </trkpt>
      <trkpt lat="45.03928" lon="4.0209">
        <ele>817.5</ele>
        <time>2026-04-26T09:44:57Z</time>
      </trkpt>
      <trkpt lat="45.03929" lon="4.02083">
        <ele>818</ele>
        <time>2026-04-26T09:45:02Z</time>
      </trkpt>
      <trkpt lat="45.0393" lon="4.02071">
        <ele>819.1</ele>
        <time>2026-04-26T09:45:07Z</time>
      </trkpt>
      <trkpt lat="45.03934" lon="4.0206">
        <ele>818.6</ele>
        <time>2026-04-26T09:45:12Z</time>
      </trkpt>
      <trkpt lat="45.03936" lon="4.02052">
        <ele>818.7</ele>
        <time>2026-04-26T09:45:17Z</time>
      </trkpt>
      <trkpt lat="45.03938" lon="4.02044">
        <ele>818.8</ele>
        <time>2026-04-26T09:45:22Z</time>
      </trkpt>
      <trkpt lat="45.0394" lon="4.02037">
        <ele>818.8</ele>
        <time>2026-04-26T09:45:27Z</time>
      </trkpt>
      <trkpt lat="45.03941" lon="4.02035">
        <ele>818.6</ele>
        <time>2026-04-26T09:45:32Z</time>
      </trkpt>
      <trkpt lat="45.03943" lon="4.02028">
        <ele>818.6</ele>
        <time>2026-04-26T09:45:37Z</time>
      </trkpt>
      <trkpt lat="45.03944" lon="4.02022">
        <ele>818.9</ele>
        <time>2026-04-26T09:45:42Z</time>
      </trkpt>
      <trkpt lat="45.03945" lon="4.02014">
        <ele>819.5</ele>
        <time>2026-04-26T09:45:47Z</time>
      </trkpt>
      <trkpt lat="45.03947" lon="4.02008">
        <ele>819.3</ele>
        <time>2026-04-26T09:45:52Z</time>
      </trkpt>
      <trkpt lat="45.03945" lon="4.02001">
        <ele>821.3</ele>
        <time>2026-04-26T09:45:57Z</time>
      </trkpt>
      <trkpt lat="45.03944" lon="4.01995">
        <ele>823</ele>
        <time>2026-04-26T09:46:02Z</time>
      </trkpt>
      <trkpt lat="45.03943" lon="4.01985">
        <ele>825.8</ele>
        <time>2026-04-26T09:46:07Z</time>
      </trkpt>
      <trkpt lat="45.03944" lon="4.01977">
        <ele>827.1</ele>
        <time>2026-04-26T09:46:12Z</time>
      </trkpt>
      <trkpt lat="45.03946" lon="4.01968">
        <ele>828.2</ele>
        <time>2026-04-26T09:46:17Z</time>
      </trkpt>
      <trkpt lat="45.03947" lon="4.01963">
        <ele>828.9</ele>
        <time>2026-04-26T09:46:22Z</time>
      </trkpt>
      <trkpt lat="45.03948" lon="4.01958">
        <ele>829.5</ele>
        <time>2026-04-26T09:46:27Z</time>
      </trkpt>
      <trkpt lat="45.03949" lon="4.01952">
        <ele>830.4</ele>
        <time>2026-04-26T09:46:32Z</time>
      </trkpt>
      <trkpt lat="45.03949" lon="4.01943">
        <ele>832.5</ele>
        <time>2026-04-26T09:46:37Z</time>
      </trkpt>
      <trkpt lat="45.03951" lon="4.01935">
        <ele>833.3</ele>
        <time>2026-04-26T09:46:42Z</time>
      </trkpt>
      <trkpt lat="45.03953" lon="4.01929">
        <ele>833.7</ele>
        <time>2026-04-26T09:46:47Z</time>
      </trkpt>
      <trkpt lat="45.03953" lon="4.01923">
        <ele>835.1</ele>
        <time>2026-04-26T09:46:52Z</time>
      </trkpt>
      <trkpt lat="45.03953" lon="4.01917">
        <ele>836.5</ele>
        <time>2026-04-26T09:46:57Z</time>
      </trkpt>
      <trkpt lat="45.03955" lon="4.01909">
        <ele>837</ele>
        <time>2026-04-26T09:47:02Z</time>
      </trkpt>
      <trkpt lat="45.03958" lon="4.01904">
        <ele>836.5</ele>
        <time>2026-04-26T09:47:07Z</time>
      </trkpt>
      <trkpt lat="45.03961" lon="4.01898">
        <ele>836.2</ele>
        <time>2026-04-26T09:47:12Z</time>
      </trkpt>
      <trkpt lat="45.03963" lon="4.0189">
        <ele>836.8</ele>
        <time>2026-04-26T09:47:17Z</time>
      </trkpt>
      <trkpt lat="45.03965" lon="4.01883">
        <ele>837.2</ele>
        <time>2026-04-26T09:47:22Z</time>
      </trkpt>
      <trkpt lat="45.03967" lon="4.01876">
        <ele>837.7</ele>
        <time>2026-04-26T09:47:27Z</time>
      </trkpt>
      <trkpt lat="45.03969" lon="4.01869">
        <ele>838.1</ele>
        <time>2026-04-26T09:47:32Z</time>
      </trkpt>
      <trkpt lat="45.03972" lon="4.01863">
        <ele>838</ele>
        <time>2026-04-26T09:47:37Z</time>
      </trkpt>
      <trkpt lat="45.03975" lon="4.01857">
        <ele>837.8</ele>
        <time>2026-04-26T09:47:42Z</time>
      </trkpt>
      <trkpt lat="45.03978" lon="4.01852">
        <ele>837.5</ele>
        <time>2026-04-26T09:47:47Z</time>
      </trkpt>
      <trkpt lat="45.03981" lon="4.01849">
        <ele>836.8</ele>
        <time>2026-04-26T09:47:52Z</time>
      </trkpt>
      <trkpt lat="45.03984" lon="4.01843">
        <ele>836.7</ele>
        <time>2026-04-26T09:47:57Z</time>
      </trkpt>
      <trkpt lat="45.03988" lon="4.01837">
        <ele>836.3</ele>
        <time>2026-04-26T09:48:02Z</time>
      </trkpt>
      <trkpt lat="45.03991" lon="4.01831">
        <ele>835.9</ele>
        <time>2026-04-26T09:48:07Z</time>
      </trkpt>
      <trkpt lat="45.03995" lon="4.01825">
        <ele>834.5</ele>
        <time>2026-04-26T09:48:12Z</time>
      </trkpt>
      <trkpt lat="45.03999" lon="4.0182">
        <ele>833.1</ele>
        <time>2026-04-26T09:48:17Z</time>
      </trkpt>
      <trkpt lat="45.04003" lon="4.01814">
        <ele>831.9</ele>
        <time>2026-04-26T09:48:22Z</time>
      </trkpt>
      <trkpt lat="45.04008" lon="4.01808">
        <ele>830.6</ele>
        <time>2026-04-26T09:48:27Z</time>
      </trkpt>
      <trkpt lat="45.04012" lon="4.01803">
        <ele>829.7</ele>
        <time>2026-04-26T09:48:32Z</time>
      </trkpt>
      <trkpt lat="45.04016" lon="4.01797">
        <ele>828.9</ele>
        <time>2026-04-26T09:48:37Z</time>
      </trkpt>
      <trkpt lat="45.04022" lon="4.01792">
        <ele>827.5</ele>
        <time>2026-04-26T09:48:42Z</time>
      </trkpt>
      <trkpt lat="45.04027" lon="4.01787">
        <ele>826.5</ele>
        <time>2026-04-26T09:48:47Z</time>
      </trkpt>
      <trkpt lat="45.04032" lon="4.01781">
        <ele>825.7</ele>
        <time>2026-04-26T09:48:52Z</time>
      </trkpt>
      <trkpt lat="45.04037" lon="4.01774">
        <ele>825.2</ele>
        <time>2026-04-26T09:48:57Z</time>
      </trkpt>
      <trkpt lat="45.0404" lon="4.01769">
        <ele>825</ele>
        <time>2026-04-26T09:49:02Z</time>
      </trkpt>
      <trkpt lat="45.04044" lon="4.01763">
        <ele>824.8</ele>
        <time>2026-04-26T09:49:07Z</time>
      </trkpt>
      <trkpt lat="45.04046" lon="4.01756">
        <ele>825.3</ele>
        <time>2026-04-26T09:49:12Z</time>
      </trkpt>
      <trkpt lat="45.04049" lon="4.01749">
        <ele>825.4</ele>
        <time>2026-04-26T09:49:17Z</time>
      </trkpt>
      <trkpt lat="45.0405" lon="4.01741">
        <ele>825.1</ele>
        <time>2026-04-26T09:49:22Z</time>
      </trkpt>
      <trkpt lat="45.04053" lon="4.01731">
        <ele>824.4</ele>
        <time>2026-04-26T09:49:27Z</time>
      </trkpt>
      <trkpt lat="45.04054" lon="4.01725">
        <ele>824.1</ele>
        <time>2026-04-26T09:49:32Z</time>
      </trkpt>
      <trkpt lat="45.04057" lon="4.0172">
        <ele>823.5</ele>
        <time>2026-04-26T09:49:37Z</time>
      </trkpt>
      <trkpt lat="45.04059" lon="4.01719">
        <ele>823.1</ele>
        <time>2026-04-26T09:49:42Z</time>
      </trkpt>
      <trkpt lat="45.04059" lon="4.01719">
        <ele>823.1</ele>
        <time>2026-04-26T09:49:47Z</time>
      </trkpt>
      <trkpt lat="45.04059" lon="4.01719">
        <ele>823.1</ele>
        <time>2026-04-26T09:49:52Z</time>
      </trkpt>
      <trkpt lat="45.04059" lon="4.01719">
        <ele>823.1</ele>
        <time>2026-04-26T09:49:57Z</time>
      </trkpt>
      <trkpt lat="45.04059" lon="4.01719">
        <ele>823.1</ele>
        <time>2026-04-26T09:50:02Z</time>
      </trkpt>
      <trkpt lat="45.04059" lon="4.01719">
        <ele>823.1</ele>
        <time>2026-04-26T09:50:07Z</time>
      </trkpt>
      <trkpt lat="45.04059" lon="4.01719">
        <ele>823.1</ele>
        <time>2026-04-26T09:50:12Z</time>
      </trkpt>
      <trkpt lat="45.04059" lon="4.01719">
        <ele>823.1</ele>
        <time>2026-04-26T09:50:17Z</time>
      </trkpt>
      <trkpt lat="45.04059" lon="4.01719">
        <ele>823.1</ele>
        <time>2026-04-26T09:50:22Z</time>
      </trkpt>
      <trkpt lat="45.04059" lon="4.01719">
        <ele>823.1</ele>
        <time>2026-04-26T09:50:27Z</time>
      </trkpt>
      <trkpt lat="45.04059" lon="4.01719">
        <ele>823.1</ele>
        <time>2026-04-26T09:50:32Z</time>
      </trkpt>
      <trkpt lat="45.04059" lon="4.01719">
        <ele>823.1</ele>
        <time>2026-04-26T09:50:37Z</time>
      </trkpt>
      <trkpt lat="45.04059" lon="4.01719">
        <ele>823.1</ele>
        <time>2026-04-26T09:50:42Z</time>
      </trkpt>
      <trkpt lat="45.04059" lon="4.01719">
        <ele>823.1</ele>
        <time>2026-04-26T09:50:47Z</time>
      </trkpt>
      <trkpt lat="45.04059" lon="4.01719">
        <ele>823.1</ele>
        <time>2026-04-26T09:50:52Z</time>
      </trkpt>
      <trkpt lat="45.04059" lon="4.01719">
        <ele>823.1</ele>
        <time>2026-04-26T09:50:57Z</time>
      </trkpt>
      <trkpt lat="45.04059" lon="4.01719">
        <ele>823.1</ele>
        <time>2026-04-26T09:51:02Z</time>
      </trkpt>
      <trkpt lat="45.04059" lon="4.01719">
        <ele>823.1</ele>
        <time>2026-04-26T09:51:07Z</time>
      </trkpt>
      <trkpt lat="45.04059" lon="4.01719">
        <ele>823.1</ele>
        <time>2026-04-26T09:51:12Z</time>
      </trkpt>
      <trkpt lat="45.04059" lon="4.01719">
        <ele>823.1</ele>
        <time>2026-04-26T09:51:17Z</time>
      </trkpt>
      <trkpt lat="45.04059" lon="4.01719">
        <ele>823.1</ele>
        <time>2026-04-26T09:51:22Z</time>
      </trkpt>
      <trkpt lat="45.04059" lon="4.01719">
        <ele>823.1</ele>
        <time>2026-04-26T09:51:27Z</time>
      </trkpt>
      <trkpt lat="45.04059" lon="4.01719">
        <ele>823.1</ele>
        <time>2026-04-26T09:51:32Z</time>
      </trkpt>
      <trkpt lat="45.0405" lon="4.01724">
        <ele>824.9</ele>
        <time>2026-04-26T09:51:37Z</time>
      </trkpt>
      <trkpt lat="45.0405" lon="4.01724">
        <ele>824.9</ele>
        <time>2026-04-26T09:51:42Z</time>
      </trkpt>
      <trkpt lat="45.0405" lon="4.01724">
        <ele>824.9</ele>
        <time>2026-04-26T09:51:47Z</time>
      </trkpt>
      <trkpt lat="45.0405" lon="4.01724">
        <ele>824.9</ele>
        <time>2026-04-26T09:51:52Z</time>
      </trkpt>
      <trkpt lat="45.0405" lon="4.01724">
        <ele>824.9</ele>
        <time>2026-04-26T09:51:57Z</time>
      </trkpt>
      <trkpt lat="45.0405" lon="4.01724">
        <ele>824.9</ele>
        <time>2026-04-26T09:52:02Z</time>
      </trkpt>
      <trkpt lat="45.0405" lon="4.01724">
        <ele>824.9</ele>
        <time>2026-04-26T09:52:07Z</time>
      </trkpt>
      <trkpt lat="45.0405" lon="4.01724">
        <ele>824.9</ele>
        <time>2026-04-26T09:52:12Z</time>
      </trkpt>
      <trkpt lat="45.0405" lon="4.01724">
        <ele>824.9</ele>
        <time>2026-04-26T09:52:17Z</time>
      </trkpt>
      <trkpt lat="45.0405" lon="4.01724">
        <ele>824.9</ele>
        <time>2026-04-26T09:52:22Z</time>
      </trkpt>
      <trkpt lat="45.0405" lon="4.01724">
        <ele>824.9</ele>
        <time>2026-04-26T09:52:27Z</time>
      </trkpt>
      <trkpt lat="45.0405" lon="4.01724">
        <ele>824.9</ele>
        <time>2026-04-26T09:52:32Z</time>
      </trkpt>
      <trkpt lat="45.0405" lon="4.01724">
        <ele>824.9</ele>
        <time>2026-04-26T09:52:37Z</time>
      </trkpt>
      <trkpt lat="45.0405" lon="4.01724">
        <ele>824.9</ele>
        <time>2026-04-26T09:52:42Z</time>
      </trkpt>
      <trkpt lat="45.0405" lon="4.01724">
        <ele>824.9</ele>
        <time>2026-04-26T09:52:47Z</time>
      </trkpt>
      <trkpt lat="45.0405" lon="4.01724">
        <ele>824.9</ele>
        <time>2026-04-26T09:52:52Z</time>
      </trkpt>
      <trkpt lat="45.0405" lon="4.01724">
        <ele>824.9</ele>
        <time>2026-04-26T09:52:57Z</time>
      </trkpt>
      <trkpt lat="45.0405" lon="4.01724">
        <ele>824.9</ele>
        <time>2026-04-26T09:53:02Z</time>
      </trkpt>
      <trkpt lat="45.0405" lon="4.01724">
        <ele>824.9</ele>
        <time>2026-04-26T09:53:07Z</time>
      </trkpt>
      <trkpt lat="45.0405" lon="4.01724">
        <ele>824.9</ele>
        <time>2026-04-26T09:53:12Z</time>
      </trkpt>
      <trkpt lat="45.0405" lon="4.01724">
        <ele>824.9</ele>
        <time>2026-04-26T09:53:17Z</time>
      </trkpt>
      <trkpt lat="45.0405" lon="4.01724">
        <ele>824.9</ele>
        <time>2026-04-26T09:53:22Z</time>
      </trkpt>
      <trkpt lat="45.0405" lon="4.01724">
        <ele>824.9</ele>
        <time>2026-04-26T09:53:27Z</time>
      </trkpt>
      <trkpt lat="45.04044" lon="4.01715">
        <ele>825.9</ele>
        <time>2026-04-26T09:53:32Z</time>
      </trkpt>
      <trkpt lat="45.04041" lon="4.01702">
        <ele>826.3</ele>
        <time>2026-04-26T09:53:37Z</time>
      </trkpt>
      <trkpt lat="45.04042" lon="4.0169">
        <ele>825.9</ele>
        <time>2026-04-26T09:53:42Z</time>
      </trkpt>
      <trkpt lat="45.04042" lon="4.0168">
        <ele>825.7</ele>
        <time>2026-04-26T09:53:47Z</time>
      </trkpt>
      <trkpt lat="45.04042" lon="4.01671">
        <ele>825.5</ele>
        <time>2026-04-26T09:53:52Z</time>
      </trkpt>
      <trkpt lat="45.04041" lon="4.01663">
        <ele>825.3</ele>
        <time>2026-04-26T09:53:57Z</time>
      </trkpt>
      <trkpt lat="45.0404" lon="4.01652">
        <ele>824.7</ele>
        <time>2026-04-26T09:54:02Z</time>
      </trkpt>
      <trkpt lat="45.04038" lon="4.01643">
        <ele>824.4</ele>
        <time>2026-04-26T09:54:07Z</time>
      </trkpt>
      <trkpt lat="45.04037" lon="4.01633">
        <ele>823.8</ele>
        <time>2026-04-26T09:54:12Z</time>
      </trkpt>
      <trkpt lat="45.04034" lon="4.01624">
        <ele>823.7</ele>
        <time>2026-04-26T09:54:17Z</time>
      </trkpt>
      <trkpt lat="45.0403" lon="4.01617">
        <ele>823.9</ele>
        <time>2026-04-26T09:54:22Z</time>
      </trkpt>
      <trkpt lat="45.04025" lon="4.01609">
        <ele>824.2</ele>
        <time>2026-04-26T09:54:27Z</time>
      </trkpt>
      <trkpt lat="45.04021" lon="4.01596">
        <ele>824.1</ele>
        <time>2026-04-26T09:54:32Z</time>
      </trkpt>
      <trkpt lat="45.04017" lon="4.01588">
        <ele>824.2</ele>
        <time>2026-04-26T09:54:37Z</time>
      </trkpt>
      <trkpt lat="45.04013" lon="4.01582">
        <ele>824.6</ele>
        <time>2026-04-26T09:54:42Z</time>
      </trkpt>
      <trkpt lat="45.04009" lon="4.01576">
        <ele>825.1</ele>
        <time>2026-04-26T09:54:47Z</time>
      </trkpt>
      <trkpt lat="45.04005" lon="4.01569">
        <ele>825.6</ele>
        <time>2026-04-26T09:54:52Z</time>
      </trkpt>
      <trkpt lat="45.04" lon="4.0156">
        <ele>826.2</ele>
        <time>2026-04-26T09:54:57Z</time>
      </trkpt>
      <trkpt lat="45.03995" lon="4.01551">
        <ele>826.3</ele>
        <time>2026-04-26T09:55:02Z</time>
      </trkpt>
      <trkpt lat="45.03991" lon="4.01541">
        <ele>826.3</ele>
        <time>2026-04-26T09:55:07Z</time>
      </trkpt>
      <trkpt lat="45.03988" lon="4.01533">
        <ele>826.3</ele>
        <time>2026-04-26T09:55:12Z</time>
      </trkpt>
      <trkpt lat="45.03984" lon="4.01526">
        <ele>826.3</ele>
        <time>2026-04-26T09:55:17Z</time>
      </trkpt>
      <trkpt lat="45.03982" lon="4.01517">
        <ele>826.1</ele>
        <time>2026-04-26T09:55:22Z</time>
      </trkpt>
      <trkpt lat="45.03979" lon="4.01508">
        <ele>825.9</ele>
        <time>2026-04-26T09:55:27Z</time>
      </trkpt>
      <trkpt lat="45.03976" lon="4.01496">
        <ele>825.5</ele>
        <time>2026-04-26T09:55:32Z</time>
      </trkpt>
      <trkpt lat="45.03974" lon="4.01486">
        <ele>825.1</ele>
        <time>2026-04-26T09:55:37Z</time>
      </trkpt>
      <trkpt lat="45.03973" lon="4.01476">
        <ele>824.6</ele>
        <time>2026-04-26T09:55:42Z</time>
      </trkpt>
      <trkpt lat="45.03972" lon="4.01466">
        <ele>824.1</ele>
        <time>2026-04-26T09:55:47Z</time>
      </trkpt>
      <trkpt lat="45.0397" lon="4.01455">
        <ele>823.6</ele>
        <time>2026-04-26T09:55:52Z</time>
      </trkpt>
      <trkpt lat="45.03968" lon="4.01445">
        <ele>823.2</ele>
        <time>2026-04-26T09:55:57Z</time>
      </trkpt>
      <trkpt lat="45.03967" lon="4.01437">
        <ele>822.8</ele>
        <time>2026-04-26T09:56:02Z</time>
      </trkpt>
      <trkpt lat="45.03965" lon="4.01429">
        <ele>822.4</ele>
        <time>2026-04-26T09:56:07Z</time>
      </trkpt>
      <trkpt lat="45.03962" lon="4.01422">
        <ele>822.1</ele>
        <time>2026-04-26T09:56:12Z</time>
      </trkpt>
      <trkpt lat="45.03962" lon="4.01411">
        <ele>821.4</ele>
        <time>2026-04-26T09:56:17Z</time>
      </trkpt>
      <trkpt lat="45.03963" lon="4.01399">
        <ele>820.6</ele>
        <time>2026-04-26T09:56:22Z</time>
      </trkpt>
      <trkpt lat="45.03962" lon="4.01389">
        <ele>819.9</ele>
        <time>2026-04-26T09:56:27Z</time>
      </trkpt>
      <trkpt lat="45.03962" lon="4.01377">
        <ele>819.1</ele>
        <time>2026-04-26T09:56:32Z</time>
      </trkpt>
      <trkpt lat="45.03963" lon="4.01365">
        <ele>818.2</ele>
        <time>2026-04-26T09:56:37Z</time>
      </trkpt>
      <trkpt lat="45.03963" lon="4.01355">
        <ele>817.5</ele>
        <time>2026-04-26T09:56:42Z</time>
      </trkpt>
      <trkpt lat="45.03963" lon="4.01347">
        <ele>816.9</ele>
        <time>2026-04-26T09:56:47Z</time>
      </trkpt>
      <trkpt lat="45.03963" lon="4.01339">
        <ele>816.4</ele>
        <time>2026-04-26T09:56:52Z</time>
      </trkpt>
      <trkpt lat="45.03964" lon="4.01332">
        <ele>815.9</ele>
        <time>2026-04-26T09:56:57Z</time>
      </trkpt>
      <trkpt lat="45.03964" lon="4.01328">
        <ele>815.5</ele>
        <time>2026-04-26T09:57:02Z</time>
      </trkpt>
      <trkpt lat="45.03965" lon="4.01326">
        <ele>815.3</ele>
        <time>2026-04-26T09:57:07Z</time>
      </trkpt>
      <trkpt lat="45.03965" lon="4.01323">
        <ele>815</ele>
        <time>2026-04-26T09:57:12Z</time>
      </trkpt>
      <trkpt lat="45.03964" lon="4.01313">
        <ele>814</ele>
        <time>2026-04-26T09:57:17Z</time>
      </trkpt>
      <trkpt lat="45.03964" lon="4.01301">
        <ele>812.8</ele>
        <time>2026-04-26T09:57:22Z</time>
      </trkpt>
      <trkpt lat="45.03963" lon="4.01294">
        <ele>812.1</ele>
        <time>2026-04-26T09:57:27Z</time>
      </trkpt>
      <trkpt lat="45.03962" lon="4.01285">
        <ele>811.1</ele>
        <time>2026-04-26T09:57:32Z</time>
      </trkpt>
      <trkpt lat="45.03963" lon="4.01272">
        <ele>809.9</ele>
        <time>2026-04-26T09:57:37Z</time>
      </trkpt>
      <trkpt lat="45.03963" lon="4.01261">
        <ele>808.8</ele>
        <time>2026-04-26T09:57:42Z</time>
      </trkpt>
      <trkpt lat="45.03964" lon="4.0125">
        <ele>807.7</ele>
        <time>2026-04-26T09:57:47Z</time>
      </trkpt>
      <trkpt lat="45.03964" lon="4.01242">
        <ele>806.9</ele>
        <time>2026-04-26T09:57:52Z</time>
      </trkpt>
      <trkpt lat="45.03963" lon="4.01232">
        <ele>805.9</ele>
        <time>2026-04-26T09:57:57Z</time>
      </trkpt>
      <trkpt lat="45.03962" lon="4.0122">
        <ele>804.6</ele>
        <time>2026-04-26T09:58:02Z</time>
      </trkpt>
      <trkpt lat="45.03961" lon="4.0121">
        <ele>803.6</ele>
        <time>2026-04-26T09:58:07Z</time>
      </trkpt>
      <trkpt lat="45.03959" lon="4.01199">
        <ele>802.3</ele>
        <time>2026-04-26T09:58:12Z</time>
      </trkpt>
      <trkpt lat="45.03957" lon="4.01189">
        <ele>801.2</ele>
        <time>2026-04-26T09:58:17Z</time>
      </trkpt>
      <trkpt lat="45.03957" lon="4.01177">
        <ele>800</ele>
        <time>2026-04-26T09:58:22Z</time>
      </trkpt>
      <trkpt lat="45.03956" lon="4.01165">
        <ele>798.7</ele>
        <time>2026-04-26T09:58:27Z</time>
      </trkpt>
      <trkpt lat="45.03954" lon="4.01156">
        <ele>797.6</ele>
        <time>2026-04-26T09:58:32Z</time>
      </trkpt>
      <trkpt lat="45.03954" lon="4.01145">
        <ele>796.5</ele>
        <time>2026-04-26T09:58:37Z</time>
      </trkpt>
      <trkpt lat="45.03952" lon="4.01134">
        <ele>795.2</ele>
        <time>2026-04-26T09:58:42Z</time>
      </trkpt>
      <trkpt lat="45.03949" lon="4.01124">
        <ele>794</ele>
        <time>2026-04-26T09:58:47Z</time>
      </trkpt>
      <trkpt lat="45.03947" lon="4.01115">
        <ele>793</ele>
        <time>2026-04-26T09:58:52Z</time>
      </trkpt>
      <trkpt lat="45.03945" lon="4.01105">
        <ele>791.9</ele>
        <time>2026-04-26T09:58:57Z</time>
      </trkpt>
      <trkpt lat="45.03943" lon="4.01095">
        <ele>790.7</ele>
        <time>2026-04-26T09:59:02Z</time>
      </trkpt>
      <trkpt lat="45.03941" lon="4.01084">
        <ele>789.5</ele>
        <time>2026-04-26T09:59:07Z</time>
      </trkpt>
      <trkpt lat="45.0394" lon="4.01074">
        <ele>789</ele>
        <time>2026-04-26T09:59:12Z</time>
      </trkpt>
      <trkpt lat="45.03939" lon="4.01063">
        <ele>788.4</ele>
        <time>2026-04-26T09:59:17Z</time>
      </trkpt>
      <trkpt lat="45.03939" lon="4.01053">
        <ele>787.9</ele>
        <time>2026-04-26T09:59:22Z</time>
      </trkpt>
      <trkpt lat="45.03937" lon="4.01044">
        <ele>787.3</ele>
        <time>2026-04-26T09:59:27Z</time>
      </trkpt>
      <trkpt lat="45.03935" lon="4.01035">
        <ele>786.8</ele>
        <time>2026-04-26T09:59:32Z</time>
      </trkpt>
      <trkpt lat="45.03934" lon="4.01024">
        <ele>786.2</ele>
        <time>2026-04-26T09:59:37Z</time>
      </trkpt>
      <trkpt lat="45.03933" lon="4.01013">
        <ele>785.6</ele>
        <time>2026-04-26T09:59:42Z</time>
      </trkpt>
      <trkpt lat="45.03931" lon="4.01001">
        <ele>784.9</ele>
        <time>2026-04-26T09:59:47Z</time>
      </trkpt>
      <trkpt lat="45.03932" lon="4.00991">
        <ele>784.3</ele>
        <time>2026-04-26T09:59:52Z</time>
      </trkpt>
      <trkpt lat="45.03932" lon="4.00979">
        <ele>783.5</ele>
        <time>2026-04-26T09:59:57Z</time>
      </trkpt>
      <trkpt lat="45.03932" lon="4.00968">
        <ele>782.8</ele>
        <time>2026-04-26T10:00:02Z</time>
      </trkpt>
      <trkpt lat="45.03931" lon="4.00957">
        <ele>782</ele>
        <time>2026-04-26T10:00:07Z</time>
      </trkpt>
      <trkpt lat="45.03929" lon="4.00946">
        <ele>781.1</ele>
        <time>2026-04-26T10:00:12Z</time>
      </trkpt>
      <trkpt lat="45.03929" lon="4.00936">
        <ele>780.5</ele>
        <time>2026-04-26T10:00:17Z</time>
      </trkpt>
      <trkpt lat="45.03927" lon="4.00926">
        <ele>779.6</ele>
        <time>2026-04-26T10:00:22Z</time>
      </trkpt>
      <trkpt lat="45.03926" lon="4.00917">
        <ele>778.9</ele>
        <time>2026-04-26T10:00:27Z</time>
      </trkpt>
      <trkpt lat="45.03925" lon="4.00908">
        <ele>778.1</ele>
        <time>2026-04-26T10:00:32Z</time>
      </trkpt>
      <trkpt lat="45.03923" lon="4.00904">
        <ele>777.6</ele>
        <time>2026-04-26T10:00:37Z</time>
      </trkpt>
      <trkpt lat="45.03923" lon="4.00901">
        <ele>777.3</ele>
        <time>2026-04-26T10:00:42Z</time>
      </trkpt>
      <trkpt lat="45.03924" lon="4.00895">
        <ele>776.9</ele>
        <time>2026-04-26T10:00:47Z</time>
      </trkpt>
      <trkpt lat="45.03924" lon="4.00888">
        <ele>776.4</ele>
        <time>2026-04-26T10:00:52Z</time>
      </trkpt>
      <trkpt lat="45.03924" lon="4.00888">
        <ele>776.4</ele>
        <time>2026-04-26T10:00:57Z</time>
      </trkpt>
      <trkpt lat="45.03924" lon="4.00888">
        <ele>776.4</ele>
        <time>2026-04-26T10:01:02Z</time>
      </trkpt>
      <trkpt lat="45.03924" lon="4.00888">
        <ele>776.4</ele>
        <time>2026-04-26T10:01:07Z</time>
      </trkpt>
      <trkpt lat="45.03924" lon="4.00888">
        <ele>776.4</ele>
        <time>2026-04-26T10:01:12Z</time>
      </trkpt>
      <trkpt lat="45.03924" lon="4.00888">
        <ele>776.4</ele>
        <time>2026-04-26T10:01:17Z</time>
      </trkpt>
      <trkpt lat="45.03924" lon="4.00888">
        <ele>776.4</ele>
        <time>2026-04-26T10:01:22Z</time>
      </trkpt>
      <trkpt lat="45.03924" lon="4.00888">
        <ele>776.4</ele>
        <time>2026-04-26T10:01:27Z</time>
      </trkpt>
      <trkpt lat="45.03924" lon="4.00888">
        <ele>776.4</ele>
        <time>2026-04-26T10:01:32Z</time>
      </trkpt>
      <trkpt lat="45.03924" lon="4.00888">
        <ele>776.4</ele>
        <time>2026-04-26T10:01:37Z</time>
      </trkpt>
      <trkpt lat="45.0393" lon="4.00881">
        <ele>776.4</ele>
        <time>2026-04-26T10:01:42Z</time>
      </trkpt>
      <trkpt lat="45.03931" lon="4.00871">
        <ele>775.7</ele>
        <time>2026-04-26T10:01:47Z</time>
      </trkpt>
      <trkpt lat="45.03933" lon="4.00861">
        <ele>775.2</ele>
        <time>2026-04-26T10:01:52Z</time>
      </trkpt>
      <trkpt lat="45.03935" lon="4.00852">
        <ele>774.7</ele>
        <time>2026-04-26T10:01:57Z</time>
      </trkpt>
      <trkpt lat="45.03936" lon="4.00843">
        <ele>774.1</ele>
        <time>2026-04-26T10:02:02Z</time>
      </trkpt>
      <trkpt lat="45.03939" lon="4.00833">
        <ele>773.7</ele>
        <time>2026-04-26T10:02:07Z</time>
      </trkpt>
      <trkpt lat="45.03942" lon="4.00824">
        <ele>773.9</ele>
        <time>2026-04-26T10:02:12Z</time>
      </trkpt>
      <trkpt lat="45.03944" lon="4.00815">
        <ele>774</ele>
        <time>2026-04-26T10:02:17Z</time>
      </trkpt>
      <trkpt lat="45.03946" lon="4.00807">
        <ele>774.1</ele>
        <time>2026-04-26T10:02:22Z</time>
      </trkpt>
      <trkpt lat="45.03947" lon="4.00797">
        <ele>774.1</ele>
        <time>2026-04-26T10:02:27Z</time>
      </trkpt>
      <trkpt lat="45.03951" lon="4.00785">
        <ele>774.4</ele>
        <time>2026-04-26T10:02:32Z</time>
      </trkpt>
      <trkpt lat="45.03953" lon="4.00774">
        <ele>774.6</ele>
        <time>2026-04-26T10:02:37Z</time>
      </trkpt>
      <trkpt lat="45.03953" lon="4.00763">
        <ele>774.4</ele>
        <time>2026-04-26T10:02:42Z</time>
      </trkpt>
      <trkpt lat="45.03951" lon="4.00751">
        <ele>774</ele>
        <time>2026-04-26T10:02:47Z</time>
      </trkpt>
      <trkpt lat="45.03952" lon="4.00742">
        <ele>774.2</ele>
        <time>2026-04-26T10:02:52Z</time>
      </trkpt>
      <trkpt lat="45.0395" lon="4.00734">
        <ele>774</ele>
        <time>2026-04-26T10:02:57Z</time>
      </trkpt>
      <trkpt lat="45.03945" lon="4.00726">
        <ele>773.3</ele>
        <time>2026-04-26T10:03:02Z</time>
      </trkpt>
      <trkpt lat="45.03941" lon="4.00717">
        <ele>772.7</ele>
        <time>2026-04-26T10:03:07Z</time>
      </trkpt>
      <trkpt lat="45.03938" lon="4.00709">
        <ele>772.3</ele>
        <time>2026-04-26T10:03:12Z</time>
      </trkpt>
      <trkpt lat="45.03936" lon="4.00701">
        <ele>772.1</ele>
        <time>2026-04-26T10:03:17Z</time>
      </trkpt>
      <trkpt lat="45.03932" lon="4.0069">
        <ele>771.5</ele>
        <time>2026-04-26T10:03:22Z</time>
      </trkpt>
      <trkpt lat="45.03928" lon="4.00681">
        <ele>770.9</ele>
        <time>2026-04-26T10:03:27Z</time>
      </trkpt>
      <trkpt lat="45.03926" lon="4.00672">
        <ele>770.6</ele>
        <time>2026-04-26T10:03:32Z</time>
      </trkpt>
      <trkpt lat="45.03924" lon="4.00664">
        <ele>770.3</ele>
        <time>2026-04-26T10:03:37Z</time>
      </trkpt>
      <trkpt lat="45.03922" lon="4.00656">
        <ele>770.2</ele>
        <time>2026-04-26T10:03:42Z</time>
      </trkpt>
      <trkpt lat="45.0392" lon="4.00647">
        <ele>770</ele>
        <time>2026-04-26T10:03:47Z</time>
      </trkpt>
      <trkpt lat="45.03917" lon="4.00638">
        <ele>769.7</ele>
        <time>2026-04-26T10:03:52Z</time>
      </trkpt>
      <trkpt lat="45.03916" lon="4.00629">
        <ele>769.8</ele>
        <time>2026-04-26T10:03:57Z</time>
      </trkpt>
      <trkpt lat="45.03912" lon="4.00621">
        <ele>769.3</ele>
        <time>2026-04-26T10:04:02Z</time>
      </trkpt>
      <trkpt lat="45.03909" lon="4.00611">
        <ele>768.9</ele>
        <time>2026-04-26T10:04:07Z</time>
      </trkpt>
      <trkpt lat="45.03907" lon="4.00602">
        <ele>768.7</ele>
        <time>2026-04-26T10:04:12Z</time>
      </trkpt>
      <trkpt lat="45.03904" lon="4.00599">
        <ele>768.2</ele>
        <time>2026-04-26T10:04:17Z</time>
      </trkpt>
      <trkpt lat="45.03901" lon="4.00599">
        <ele>767.7</ele>
        <time>2026-04-26T10:04:22Z</time>
      </trkpt>
      <trkpt lat="45.03901" lon="4.00599">
        <ele>767.7</ele>
        <time>2026-04-26T10:04:27Z</time>
      </trkpt>
      <trkpt lat="45.039" lon="4.00599">
        <ele>767.5</ele>
        <time>2026-04-26T10:04:32Z</time>
      </trkpt>
      <trkpt lat="45.03902" lon="4.00593">
        <ele>768</ele>
        <time>2026-04-26T10:04:37Z</time>
      </trkpt>
      <trkpt lat="45.03901" lon="4.00583">
        <ele>768</ele>
        <time>2026-04-26T10:04:42Z</time>
      </trkpt>
      <trkpt lat="45.03898" lon="4.00573">
        <ele>767.7</ele>
        <time>2026-04-26T10:04:47Z</time>
      </trkpt>
      <trkpt lat="45.03894" lon="4.00565">
        <ele>767.1</ele>
        <time>2026-04-26T10:04:52Z</time>
      </trkpt>
      <trkpt lat="45.03893" lon="4.00557">
        <ele>767.1</ele>
        <time>2026-04-26T10:04:57Z</time>
      </trkpt>
      <trkpt lat="45.03895" lon="4.00556">
        <ele>767.5</ele>
        <time>2026-04-26T10:05:02Z</time>
      </trkpt>
      <trkpt lat="45.03893" lon="4.00551">
        <ele>767.3</ele>
        <time>2026-04-26T10:05:07Z</time>
      </trkpt>
      <trkpt lat="45.0389" lon="4.00539">
        <ele>767.1</ele>
        <time>2026-04-26T10:05:12Z</time>
      </trkpt>
      <trkpt lat="45.03887" lon="4.00532">
        <ele>766.8</ele>
        <time>2026-04-26T10:05:17Z</time>
      </trkpt>
      <trkpt lat="45.03887" lon="4.00523">
        <ele>767.1</ele>
        <time>2026-04-26T10:05:22Z</time>
      </trkpt>
      <trkpt lat="45.03886" lon="4.00513">
        <ele>767.2</ele>
        <time>2026-04-26T10:05:27Z</time>
      </trkpt>
      <trkpt lat="45.03884" lon="4.005">
        <ele>767.3</ele>
        <time>2026-04-26T10:05:32Z</time>
      </trkpt>
      <trkpt lat="45.03881" lon="4.00488">
        <ele>767.3</ele>
        <time>2026-04-26T10:05:37Z</time>
      </trkpt>
      <trkpt lat="45.03878" lon="4.00478">
        <ele>767.2</ele>
        <time>2026-04-26T10:05:42Z</time>
      </trkpt>
      <trkpt lat="45.03875" lon="4.00469">
        <ele>767.1</ele>
        <time>2026-04-26T10:05:47Z</time>
      </trkpt>
      <trkpt lat="45.03871" lon="4.00461">
        <ele>766.8</ele>
        <time>2026-04-26T10:05:52Z</time>
      </trkpt>
      <trkpt lat="45.03868" lon="4.00452">
        <ele>766.7</ele>
        <time>2026-04-26T10:05:57Z</time>
      </trkpt>
      <trkpt lat="45.03865" lon="4.00445">
        <ele>766.5</ele>
        <time>2026-04-26T10:06:02Z</time>
      </trkpt>
      <trkpt lat="45.03862" lon="4.00436">
        <ele>766.4</ele>
        <time>2026-04-26T10:06:07Z</time>
      </trkpt>
      <trkpt lat="45.03859" lon="4.00426">
        <ele>766.4</ele>
        <time>2026-04-26T10:06:12Z</time>
      </trkpt>
      <trkpt lat="45.03858" lon="4.00416">
        <ele>766.5</ele>
        <time>2026-04-26T10:06:17Z</time>
      </trkpt>
      <trkpt lat="45.03854" lon="4.00405">
        <ele>765.9</ele>
        <time>2026-04-26T10:06:22Z</time>
      </trkpt>
      <trkpt lat="45.03851" lon="4.00392">
        <ele>765.4</ele>
        <time>2026-04-26T10:06:27Z</time>
      </trkpt>
      <trkpt lat="45.03847" lon="4.00381">
        <ele>764.9</ele>
        <time>2026-04-26T10:06:32Z</time>
      </trkpt>
      <trkpt lat="45.03847" lon="4.0038">
        <ele>764.9</ele>
        <time>2026-04-26T10:06:37Z</time>
      </trkpt>
      <trkpt lat="45.03847" lon="4.0038">
        <ele>764.9</ele>
        <time>2026-04-26T10:06:42Z</time>
      </trkpt>
      <trkpt lat="45.03846" lon="4.00373">
        <ele>764.8</ele>
        <time>2026-04-26T10:06:47Z</time>
      </trkpt>
      <trkpt lat="45.03844" lon="4.00365">
        <ele>764.6</ele>
        <time>2026-04-26T10:06:52Z</time>
      </trkpt>
      <trkpt lat="45.03842" lon="4.00354">
        <ele>764.5</ele>
        <time>2026-04-26T10:06:57Z</time>
      </trkpt>
      <trkpt lat="45.03839" lon="4.00346">
        <ele>764.3</ele>
        <time>2026-04-26T10:07:02Z</time>
      </trkpt>
      <trkpt lat="45.03834" lon="4.00337">
        <ele>764</ele>
        <time>2026-04-26T10:07:07Z</time>
      </trkpt>
      <trkpt lat="45.03831" lon="4.00325">
        <ele>764.3</ele>
        <time>2026-04-26T10:07:12Z</time>
      </trkpt>
      <trkpt lat="45.03828" lon="4.00314">
        <ele>764.6</ele>
        <time>2026-04-26T10:07:17Z</time>
      </trkpt>
      <trkpt lat="45.03825" lon="4.00305">
        <ele>765</ele>
        <time>2026-04-26T10:07:22Z</time>
      </trkpt>
      <trkpt lat="45.03822" lon="4.00295">
        <ele>765.3</ele>
        <time>2026-04-26T10:07:27Z</time>
      </trkpt>
      <trkpt lat="45.0382" lon="4.00285">
        <ele>765.7</ele>
        <time>2026-04-26T10:07:32Z</time>
      </trkpt>
      <trkpt lat="45.03818" lon="4.00273">
        <ele>766.1</ele>
        <time>2026-04-26T10:07:37Z</time>
      </trkpt>
      <trkpt lat="45.03817" lon="4.00262">
        <ele>766.5</ele>
        <time>2026-04-26T10:07:42Z</time>
      </trkpt>
      <trkpt lat="45.03816" lon="4.00252">
        <ele>766.9</ele>
        <time>2026-04-26T10:07:47Z</time>
      </trkpt>
      <trkpt lat="45.03814" lon="4.00242">
        <ele>767.2</ele>
        <time>2026-04-26T10:07:52Z</time>
      </trkpt>
      <trkpt lat="45.03814" lon="4.00232">
        <ele>767.4</ele>
        <time>2026-04-26T10:07:57Z</time>
      </trkpt>
      <trkpt lat="45.03815" lon="4.00224">
        <ele>767.6</ele>
        <time>2026-04-26T10:08:02Z</time>
      </trkpt>
      <trkpt lat="45.03816" lon="4.00214">
        <ele>767.9</ele>
        <time>2026-04-26T10:08:07Z</time>
      </trkpt>
      <trkpt lat="45.03819" lon="4.00202">
        <ele>768.2</ele>
        <time>2026-04-26T10:08:12Z</time>
      </trkpt>
      <trkpt lat="45.03823" lon="4.00191">
        <ele>768.4</ele>
        <time>2026-04-26T10:08:17Z</time>
      </trkpt>
      <trkpt lat="45.03826" lon="4.00181">
        <ele>768.7</ele>
        <time>2026-04-26T10:08:22Z</time>
      </trkpt>
      <trkpt lat="45.03832" lon="4.00171">
        <ele>768.9</ele>
        <time>2026-04-26T10:08:27Z</time>
      </trkpt>
      <trkpt lat="45.03837" lon="4.00162">
        <ele>768.9</ele>
        <time>2026-04-26T10:08:32Z</time>
      </trkpt>
      <trkpt lat="45.03841" lon="4.00153">
        <ele>768.9</ele>
        <time>2026-04-26T10:08:37Z</time>
      </trkpt>
      <trkpt lat="45.03846" lon="4.00144">
        <ele>768.9</ele>
        <time>2026-04-26T10:08:42Z</time>
      </trkpt>
      <trkpt lat="45.03851" lon="4.00136">
        <ele>768.9</ele>
        <time>2026-04-26T10:08:47Z</time>
      </trkpt>
      <trkpt lat="45.03855" lon="4.00127">
        <ele>768.9</ele>
        <time>2026-04-26T10:08:52Z</time>
      </trkpt>
      <trkpt lat="45.03859" lon="4.00118">
        <ele>769</ele>
        <time>2026-04-26T10:08:57Z</time>
      </trkpt>
      <trkpt lat="45.03863" lon="4.00109">
        <ele>769.1</ele>
        <time>2026-04-26T10:09:02Z</time>
      </trkpt>
      <trkpt lat="45.03867" lon="4.00099">
        <ele>769.3</ele>
        <time>2026-04-26T10:09:07Z</time>
      </trkpt>
      <trkpt lat="45.03871" lon="4.00088">
        <ele>769.4</ele>
        <time>2026-04-26T10:09:12Z</time>
      </trkpt>
      <trkpt lat="45.03873" lon="4.00078">
        <ele>769.5</ele>
        <time>2026-04-26T10:09:17Z</time>
      </trkpt>
      <trkpt lat="45.03875" lon="4.00068">
        <ele>769.4</ele>
        <time>2026-04-26T10:09:22Z</time>
      </trkpt>
      <trkpt lat="45.03878" lon="4.00059">
        <ele>769.3</ele>
        <time>2026-04-26T10:09:27Z</time>
      </trkpt>
      <trkpt lat="45.0388" lon="4.0005">
        <ele>769.3</ele>
        <time>2026-04-26T10:09:32Z</time>
      </trkpt>
      <trkpt lat="45.03882" lon="4.0004">
        <ele>769.2</ele>
        <time>2026-04-26T10:09:37Z</time>
      </trkpt>
      <trkpt lat="45.03885" lon="4.00029">
        <ele>769.1</ele>
        <time>2026-04-26T10:09:42Z</time>
      </trkpt>
      <trkpt lat="45.03887" lon="4.0002">
        <ele>769.1</ele>
        <time>2026-04-26T10:09:47Z</time>
      </trkpt>
      <trkpt lat="45.03889" lon="4.00009">
        <ele>769</ele>
        <time>2026-04-26T10:09:52Z</time>
      </trkpt>
      <trkpt lat="45.03892" lon="3.99997">
        <ele>768.9</ele>
        <time>2026-04-26T10:09:57Z</time>
      </trkpt>
      <trkpt lat="45.03893" lon="3.99992">
        <ele>768.7</ele>
        <time>2026-04-26T10:10:02Z</time>
      </trkpt>
      <trkpt lat="45.03896" lon="3.99983">
        <ele>768.4</ele>
        <time>2026-04-26T10:10:07Z</time>
      </trkpt>
      <trkpt lat="45.03898" lon="3.99973">
        <ele>768</ele>
        <time>2026-04-26T10:10:12Z</time>
      </trkpt>
      <trkpt lat="45.039" lon="3.99963">
        <ele>767.7</ele>
        <time>2026-04-26T10:10:17Z</time>
      </trkpt>
      <trkpt lat="45.03902" lon="3.99952">
        <ele>767.3</ele>
        <time>2026-04-26T10:10:22Z</time>
      </trkpt>
      <trkpt lat="45.03904" lon="3.99942">
        <ele>766.9</ele>
        <time>2026-04-26T10:10:27Z</time>
      </trkpt>
      <trkpt lat="45.03906" lon="3.99933">
        <ele>766.6</ele>
        <time>2026-04-26T10:10:32Z</time>
      </trkpt>
      <trkpt lat="45.0391" lon="3.99927">
        <ele>766.4</ele>
        <time>2026-04-26T10:10:37Z</time>
      </trkpt>
      <trkpt lat="45.03911" lon="3.99925">
        <ele>766.3</ele>
        <time>2026-04-26T10:10:42Z</time>
      </trkpt>
      <trkpt lat="45.03912" lon="3.99922">
        <ele>766.2</ele>
        <time>2026-04-26T10:10:47Z</time>
      </trkpt>
      <trkpt lat="45.0391" lon="3.99913">
        <ele>765.9</ele>
        <time>2026-04-26T10:10:52Z</time>
      </trkpt>
      <trkpt lat="45.0391" lon="3.99902">
        <ele>765.6</ele>
        <time>2026-04-26T10:10:57Z</time>
      </trkpt>
      <trkpt lat="45.03911" lon="3.99892">
        <ele>765.4</ele>
        <time>2026-04-26T10:11:02Z</time>
      </trkpt>
      <trkpt lat="45.03912" lon="3.99882">
        <ele>765.1</ele>
        <time>2026-04-26T10:11:07Z</time>
      </trkpt>
      <trkpt lat="45.03913" lon="3.99873">
        <ele>764.9</ele>
        <time>2026-04-26T10:11:12Z</time>
      </trkpt>
      <trkpt lat="45.03915" lon="3.99863">
        <ele>764.7</ele>
        <time>2026-04-26T10:11:17Z</time>
      </trkpt>
      <trkpt lat="45.03916" lon="3.99853">
        <ele>764.5</ele>
        <time>2026-04-26T10:11:22Z</time>
      </trkpt>
      <trkpt lat="45.0392" lon="3.99844">
        <ele>764.2</ele>
        <time>2026-04-26T10:11:27Z</time>
      </trkpt>
      <trkpt lat="45.03925" lon="3.99833">
        <ele>763.8</ele>
        <time>2026-04-26T10:11:32Z</time>
      </trkpt>
      <trkpt lat="45.0393" lon="3.99824">
        <ele>762.9</ele>
        <time>2026-04-26T10:11:37Z</time>
      </trkpt>
      <trkpt lat="45.03933" lon="3.99817">
        <ele>762.3</ele>
        <time>2026-04-26T10:11:42Z</time>
      </trkpt>
      <trkpt lat="45.03937" lon="3.99807">
        <ele>761.5</ele>
        <time>2026-04-26T10:11:47Z</time>
      </trkpt>
      <trkpt lat="45.03941" lon="3.99795">
        <ele>760.5</ele>
        <time>2026-04-26T10:11:52Z</time>
      </trkpt>
      <trkpt lat="45.03944" lon="3.99787">
        <ele>759.8</ele>
        <time>2026-04-26T10:11:57Z</time>
      </trkpt>
      <trkpt lat="45.03949" lon="3.99778">
        <ele>759.1</ele>
        <time>2026-04-26T10:12:02Z</time>
      </trkpt>
      <trkpt lat="45.03953" lon="3.99768">
        <ele>758.3</ele>
        <time>2026-04-26T10:12:07Z</time>
      </trkpt>
      <trkpt lat="45.03954" lon="3.99767">
        <ele>758.2</ele>
        <time>2026-04-26T10:12:12Z</time>
      </trkpt>
      <trkpt lat="45.03954" lon="3.99764">
        <ele>758</ele>
        <time>2026-04-26T10:12:17Z</time>
      </trkpt>
      <trkpt lat="45.03954" lon="3.99764">
        <ele>758</ele>
        <time>2026-04-26T10:12:22Z</time>
      </trkpt>
      <trkpt lat="45.03954" lon="3.99764">
        <ele>758</ele>
        <time>2026-04-26T10:12:27Z</time>
      </trkpt>
      <trkpt lat="45.03954" lon="3.99764">
        <ele>758</ele>
        <time>2026-04-26T10:12:32Z</time>
      </trkpt>
      <trkpt lat="45.03954" lon="3.99764">
        <ele>758</ele>
        <time>2026-04-26T10:12:37Z</time>
      </trkpt>
      <trkpt lat="45.03954" lon="3.99764">
        <ele>758</ele>
        <time>2026-04-26T10:12:42Z</time>
      </trkpt>
      <trkpt lat="45.03954" lon="3.99764">
        <ele>758</ele>
        <time>2026-04-26T10:12:47Z</time>
      </trkpt>
      <trkpt lat="45.03954" lon="3.99764">
        <ele>758</ele>
        <time>2026-04-26T10:12:52Z</time>
      </trkpt>
      <trkpt lat="45.03954" lon="3.99764">
        <ele>758</ele>
        <time>2026-04-26T10:12:57Z</time>
      </trkpt>
      <trkpt lat="45.03954" lon="3.99764">
        <ele>758</ele>
        <time>2026-04-26T10:13:02Z</time>
      </trkpt>
      <trkpt lat="45.03954" lon="3.99764">
        <ele>758</ele>
        <time>2026-04-26T10:13:07Z</time>
      </trkpt>
      <trkpt lat="45.0396" lon="3.9976">
        <ele>757.7</ele>
        <time>2026-04-26T10:13:12Z</time>
      </trkpt>
      <trkpt lat="45.03962" lon="3.99749">
        <ele>756.9</ele>
        <time>2026-04-26T10:13:17Z</time>
      </trkpt>
      <trkpt lat="45.03965" lon="3.9974">
        <ele>756.3</ele>
        <time>2026-04-26T10:13:22Z</time>
      </trkpt>
      <trkpt lat="45.03969" lon="3.99731">
        <ele>755.8</ele>
        <time>2026-04-26T10:13:27Z</time>
      </trkpt>
      <trkpt lat="45.03974" lon="3.99721">
        <ele>755.2</ele>
        <time>2026-04-26T10:13:32Z</time>
      </trkpt>
      <trkpt lat="45.03977" lon="3.99713">
        <ele>754.7</ele>
        <time>2026-04-26T10:13:37Z</time>
      </trkpt>
      <trkpt lat="45.03981" lon="3.99703">
        <ele>754.1</ele>
        <time>2026-04-26T10:13:42Z</time>
      </trkpt>
      <trkpt lat="45.03984" lon="3.99695">
        <ele>753.6</ele>
        <time>2026-04-26T10:13:47Z</time>
      </trkpt>
      <trkpt lat="45.03988" lon="3.99685">
        <ele>753</ele>
        <time>2026-04-26T10:13:52Z</time>
      </trkpt>
      <trkpt lat="45.03991" lon="3.99676">
        <ele>752.5</ele>
        <time>2026-04-26T10:13:57Z</time>
      </trkpt>
      <trkpt lat="45.03994" lon="3.99666">
        <ele>751.9</ele>
        <time>2026-04-26T10:14:02Z</time>
      </trkpt>
      <trkpt lat="45.03997" lon="3.99656">
        <ele>751.3</ele>
        <time>2026-04-26T10:14:07Z</time>
      </trkpt>
      <trkpt lat="45.04001" lon="3.99647">
        <ele>750.8</ele>
        <time>2026-04-26T10:14:12Z</time>
      </trkpt>
      <trkpt lat="45.04004" lon="3.99637">
        <ele>750.3</ele>
        <time>2026-04-26T10:14:17Z</time>
      </trkpt>
      <trkpt lat="45.04007" lon="3.99627">
        <ele>749.8</ele>
        <time>2026-04-26T10:14:22Z</time>
      </trkpt>
      <trkpt lat="45.04009" lon="3.99616">
        <ele>749.2</ele>
        <time>2026-04-26T10:14:27Z</time>
      </trkpt>
      <trkpt lat="45.04012" lon="3.99607">
        <ele>748.7</ele>
        <time>2026-04-26T10:14:32Z</time>
      </trkpt>
      <trkpt lat="45.04017" lon="3.99597">
        <ele>748.2</ele>
        <time>2026-04-26T10:14:37Z</time>
      </trkpt>
      <trkpt lat="45.0402" lon="3.99588">
        <ele>747.8</ele>
        <time>2026-04-26T10:14:42Z</time>
      </trkpt>
      <trkpt lat="45.04024" lon="3.99576">
        <ele>747</ele>
        <time>2026-04-26T10:14:47Z</time>
      </trkpt>
      <trkpt lat="45.04026" lon="3.99567">
        <ele>746.4</ele>
        <time>2026-04-26T10:14:52Z</time>
      </trkpt>
      <trkpt lat="45.04029" lon="3.99559">
        <ele>745.9</ele>
        <time>2026-04-26T10:14:57Z</time>
      </trkpt>
      <trkpt lat="45.04031" lon="3.99556">
        <ele>745.7</ele>
        <time>2026-04-26T10:15:02Z</time>
      </trkpt>
      <trkpt lat="45.04031" lon="3.99555">
        <ele>745.6</ele>
        <time>2026-04-26T10:15:07Z</time>
      </trkpt>
      <trkpt lat="45.04031" lon="3.99555">
        <ele>745.6</ele>
        <time>2026-04-26T10:15:12Z</time>
      </trkpt>
      <trkpt lat="45.04032" lon="3.99547">
        <ele>745.1</ele>
        <time>2026-04-26T10:15:17Z</time>
      </trkpt>
      <trkpt lat="45.04035" lon="3.9954">
        <ele>744.6</ele>
        <time>2026-04-26T10:15:22Z</time>
      </trkpt>
      <trkpt lat="45.04038" lon="3.99532">
        <ele>744.2</ele>
        <time>2026-04-26T10:15:27Z</time>
      </trkpt>
      <trkpt lat="45.0404" lon="3.99524">
        <ele>743.7</ele>
        <time>2026-04-26T10:15:32Z</time>
      </trkpt>
      <trkpt lat="45.04042" lon="3.99515">
        <ele>743.1</ele>
        <time>2026-04-26T10:15:37Z</time>
      </trkpt>
      <trkpt lat="45.04044" lon="3.99507">
        <ele>742.6</ele>
        <time>2026-04-26T10:15:42Z</time>
      </trkpt>
      <trkpt lat="45.04046" lon="3.995">
        <ele>742.2</ele>
        <time>2026-04-26T10:15:47Z</time>
      </trkpt>
      <trkpt lat="45.04049" lon="3.9949">
        <ele>741.6</ele>
        <time>2026-04-26T10:15:52Z</time>
      </trkpt>
      <trkpt lat="45.04051" lon="3.99481">
        <ele>741</ele>
        <time>2026-04-26T10:15:57Z</time>
      </trkpt>
      <trkpt lat="45.04053" lon="3.99472">
        <ele>740.4</ele>
        <time>2026-04-26T10:16:02Z</time>
      </trkpt>
      <trkpt lat="45.04056" lon="3.99463">
        <ele>739.9</ele>
        <time>2026-04-26T10:16:07Z</time>
      </trkpt>
      <trkpt lat="45.04056" lon="3.99454">
        <ele>739.2</ele>
        <time>2026-04-26T10:16:12Z</time>
      </trkpt>
      <trkpt lat="45.04057" lon="3.99444">
        <ele>738.5</ele>
        <time>2026-04-26T10:16:17Z</time>
      </trkpt>
      <trkpt lat="45.04058" lon="3.99434">
        <ele>737.8</ele>
        <time>2026-04-26T10:16:22Z</time>
      </trkpt>
      <trkpt lat="45.0406" lon="3.99426">
        <ele>737.3</ele>
        <time>2026-04-26T10:16:27Z</time>
      </trkpt>
      <trkpt lat="45.04064" lon="3.99419">
        <ele>737</ele>
        <time>2026-04-26T10:16:32Z</time>
      </trkpt>
      <trkpt lat="45.04069" lon="3.99412">
        <ele>736.7</ele>
        <time>2026-04-26T10:16:37Z</time>
      </trkpt>
      <trkpt lat="45.0407" lon="3.994">
        <ele>735.6</ele>
        <time>2026-04-26T10:16:42Z</time>
      </trkpt>
      <trkpt lat="45.04069" lon="3.99389">
        <ele>734.4</ele>
        <time>2026-04-26T10:16:47Z</time>
      </trkpt>
      <trkpt lat="45.04069" lon="3.99382">
        <ele>733.7</ele>
        <time>2026-04-26T10:16:52Z</time>
      </trkpt>
      <trkpt lat="45.04071" lon="3.99373">
        <ele>733</ele>
        <time>2026-04-26T10:16:57Z</time>
      </trkpt>
      <trkpt lat="45.04071" lon="3.99362">
        <ele>731.9</ele>
        <time>2026-04-26T10:17:02Z</time>
      </trkpt>
      <trkpt lat="45.04073" lon="3.99355">
        <ele>731.4</ele>
        <time>2026-04-26T10:17:07Z</time>
      </trkpt>
      <trkpt lat="45.0408" lon="3.99351">
        <ele>731.5</ele>
        <time>2026-04-26T10:17:12Z</time>
      </trkpt>
      <trkpt lat="45.04086" lon="3.99347">
        <ele>731.5</ele>
        <time>2026-04-26T10:17:17Z</time>
      </trkpt>
      <trkpt lat="45.0409" lon="3.99342">
        <ele>731.2</ele>
        <time>2026-04-26T10:17:22Z</time>
      </trkpt>
      <trkpt lat="45.04096" lon="3.99336">
        <ele>731</ele>
        <time>2026-04-26T10:17:27Z</time>
      </trkpt>
      <trkpt lat="45.04103" lon="3.9933">
        <ele>730.9</ele>
        <time>2026-04-26T10:17:32Z</time>
      </trkpt>
      <trkpt lat="45.04108" lon="3.99322">
        <ele>730.5</ele>
        <time>2026-04-26T10:17:37Z</time>
      </trkpt>
      <trkpt lat="45.04114" lon="3.99317">
        <ele>730.4</ele>
        <time>2026-04-26T10:17:42Z</time>
      </trkpt>
      <trkpt lat="45.0412" lon="3.99312">
        <ele>730.4</ele>
        <time>2026-04-26T10:17:47Z</time>
      </trkpt>
      <trkpt lat="45.04124" lon="3.99307">
        <ele>730.2</ele>
        <time>2026-04-26T10:17:52Z</time>
      </trkpt>
      <trkpt lat="45.04128" lon="3.993">
        <ele>729.9</ele>
        <time>2026-04-26T10:17:57Z</time>
      </trkpt>
      <trkpt lat="45.04128" lon="3.99292">
        <ele>729.2</ele>
        <time>2026-04-26T10:18:02Z</time>
      </trkpt>
      <trkpt lat="45.04126" lon="3.99291">
        <ele>729</ele>
        <time>2026-04-26T10:18:07Z</time>
      </trkpt>
      <trkpt lat="45.04124" lon="3.99292">
        <ele>729</ele>
        <time>2026-04-26T10:18:12Z</time>
      </trkpt>
      <trkpt lat="45.04117" lon="3.99294">
        <ele>728.6</ele>
        <time>2026-04-26T10:18:17Z</time>
      </trkpt>
      <trkpt lat="45.04109" lon="3.99292">
        <ele>727.9</ele>
        <time>2026-04-26T10:18:22Z</time>
      </trkpt>
      <trkpt lat="45.04104" lon="3.99288">
        <ele>727.2</ele>
        <time>2026-04-26T10:18:27Z</time>
      </trkpt>
      <trkpt lat="45.04098" lon="3.99285">
        <ele>726.4</ele>
        <time>2026-04-26T10:18:32Z</time>
      </trkpt>
      <trkpt lat="45.04091" lon="3.9928">
        <ele>725.5</ele>
        <time>2026-04-26T10:18:37Z</time>
      </trkpt>
      <trkpt lat="45.04084" lon="3.99278">
        <ele>724.7</ele>
        <time>2026-04-26T10:18:42Z</time>
      </trkpt>
      <trkpt lat="45.04076" lon="3.99279">
        <ele>724.4</ele>
        <time>2026-04-26T10:18:47Z</time>
      </trkpt>
      <trkpt lat="45.04069" lon="3.9928">
        <ele>724.1</ele>
        <time>2026-04-26T10:18:52Z</time>
      </trkpt>
      <trkpt lat="45.04061" lon="3.99281">
        <ele>723.7</ele>
        <time>2026-04-26T10:18:57Z</time>
      </trkpt>
      <trkpt lat="45.04055" lon="3.99279">
        <ele>723.2</ele>
        <time>2026-04-26T10:19:02Z</time>
      </trkpt>
      <trkpt lat="45.04055" lon="3.99279">
        <ele>723.2</ele>
        <time>2026-04-26T10:19:07Z</time>
      </trkpt>
      <trkpt lat="45.04055" lon="3.99279">
        <ele>723.2</ele>
        <time>2026-04-26T10:19:12Z</time>
      </trkpt>
      <trkpt lat="45.04055" lon="3.99279">
        <ele>723.2</ele>
        <time>2026-04-26T10:19:17Z</time>
      </trkpt>
      <trkpt lat="45.04055" lon="3.99279">
        <ele>723.2</ele>
        <time>2026-04-26T10:19:22Z</time>
      </trkpt>
      <trkpt lat="45.04055" lon="3.99279">
        <ele>723.2</ele>
        <time>2026-04-26T10:19:27Z</time>
      </trkpt>
      <trkpt lat="45.04055" lon="3.99279">
        <ele>723.2</ele>
        <time>2026-04-26T10:19:32Z</time>
      </trkpt>
      <trkpt lat="45.04055" lon="3.99279">
        <ele>723.2</ele>
        <time>2026-04-26T10:19:37Z</time>
      </trkpt>
      <trkpt lat="45.04055" lon="3.99279">
        <ele>723.2</ele>
        <time>2026-04-26T10:19:42Z</time>
      </trkpt>
      <trkpt lat="45.04055" lon="3.99279">
        <ele>723.2</ele>
        <time>2026-04-26T10:19:47Z</time>
      </trkpt>
      <trkpt lat="45.04055" lon="3.99279">
        <ele>723.2</ele>
        <time>2026-04-26T10:19:52Z</time>
      </trkpt>
      <trkpt lat="45.04055" lon="3.99279">
        <ele>723.2</ele>
        <time>2026-04-26T10:19:57Z</time>
      </trkpt>
      <trkpt lat="45.04055" lon="3.99279">
        <ele>723.2</ele>
        <time>2026-04-26T10:20:02Z</time>
      </trkpt>
      <trkpt lat="45.04055" lon="3.99279">
        <ele>723.2</ele>
        <time>2026-04-26T10:20:07Z</time>
      </trkpt>
      <trkpt lat="45.04055" lon="3.99279">
        <ele>723.2</ele>
        <time>2026-04-26T10:20:12Z</time>
      </trkpt>
      <trkpt lat="45.04055" lon="3.99279">
        <ele>723.2</ele>
        <time>2026-04-26T10:20:17Z</time>
      </trkpt>
      <trkpt lat="45.04055" lon="3.99279">
        <ele>723.2</ele>
        <time>2026-04-26T10:20:22Z</time>
      </trkpt>
      <trkpt lat="45.04055" lon="3.99279">
        <ele>723.2</ele>
        <time>2026-04-26T10:20:27Z</time>
      </trkpt>
      <trkpt lat="45.04055" lon="3.99279">
        <ele>723.2</ele>
        <time>2026-04-26T10:20:32Z</time>
      </trkpt>
      <trkpt lat="45.04055" lon="3.99279">
        <ele>723.2</ele>
        <time>2026-04-26T10:20:37Z</time>
      </trkpt>
      <trkpt lat="45.04055" lon="3.99279">
        <ele>723.2</ele>
        <time>2026-04-26T10:20:42Z</time>
      </trkpt>
      <trkpt lat="45.04055" lon="3.99279">
        <ele>723.2</ele>
        <time>2026-04-26T10:20:47Z</time>
      </trkpt>
      <trkpt lat="45.04055" lon="3.99279">
        <ele>723.2</ele>
        <time>2026-04-26T10:20:52Z</time>
      </trkpt>
      <trkpt lat="45.04055" lon="3.99279">
        <ele>723.2</ele>
        <time>2026-04-26T10:20:57Z</time>
      </trkpt>
      <trkpt lat="45.04055" lon="3.99279">
        <ele>723.2</ele>
        <time>2026-04-26T10:21:02Z</time>
      </trkpt>
      <trkpt lat="45.04055" lon="3.99279">
        <ele>723.2</ele>
        <time>2026-04-26T10:21:07Z</time>
      </trkpt>
      <trkpt lat="45.04055" lon="3.99279">
        <ele>723.2</ele>
        <time>2026-04-26T10:21:12Z</time>
      </trkpt>
      <trkpt lat="45.04055" lon="3.99279">
        <ele>723.2</ele>
        <time>2026-04-26T10:21:17Z</time>
      </trkpt>
      <trkpt lat="45.04055" lon="3.99279">
        <ele>723.2</ele>
        <time>2026-04-26T10:21:22Z</time>
      </trkpt>
      <trkpt lat="45.04055" lon="3.99279">
        <ele>723.2</ele>
        <time>2026-04-26T10:21:27Z</time>
      </trkpt>
      <trkpt lat="45.04055" lon="3.99279">
        <ele>723.2</ele>
        <time>2026-04-26T10:21:32Z</time>
      </trkpt>
      <trkpt lat="45.04055" lon="3.99279">
        <ele>723.2</ele>
        <time>2026-04-26T10:21:37Z</time>
      </trkpt>
      <trkpt lat="45.04055" lon="3.99279">
        <ele>723.2</ele>
        <time>2026-04-26T10:21:42Z</time>
      </trkpt>
      <trkpt lat="45.04055" lon="3.99279">
        <ele>723.2</ele>
        <time>2026-04-26T10:21:47Z</time>
      </trkpt>
      <trkpt lat="45.04055" lon="3.99279">
        <ele>723.2</ele>
        <time>2026-04-26T10:21:52Z</time>
      </trkpt>
      <trkpt lat="45.04055" lon="3.99279">
        <ele>723.2</ele>
        <time>2026-04-26T10:21:57Z</time>
      </trkpt>
      <trkpt lat="45.04055" lon="3.99279">
        <ele>723.2</ele>
        <time>2026-04-26T10:22:02Z</time>
      </trkpt>
      <trkpt lat="45.04055" lon="3.99279">
        <ele>723.2</ele>
        <time>2026-04-26T10:22:07Z</time>
      </trkpt>
      <trkpt lat="45.04055" lon="3.99279">
        <ele>723.2</ele>
        <time>2026-04-26T10:22:12Z</time>
      </trkpt>
      <trkpt lat="45.04055" lon="3.99279">
        <ele>723.2</ele>
        <time>2026-04-26T10:22:17Z</time>
      </trkpt>
      <trkpt lat="45.04055" lon="3.99279">
        <ele>723.2</ele>
        <time>2026-04-26T10:22:22Z</time>
      </trkpt>
      <trkpt lat="45.04055" lon="3.99279">
        <ele>723.2</ele>
        <time>2026-04-26T10:22:27Z</time>
      </trkpt>
      <trkpt lat="45.04055" lon="3.99279">
        <ele>723.2</ele>
        <time>2026-04-26T10:22:32Z</time>
      </trkpt>
      <trkpt lat="45.04055" lon="3.99279">
        <ele>723.2</ele>
        <time>2026-04-26T10:22:37Z</time>
      </trkpt>
      <trkpt lat="45.04055" lon="3.99279">
        <ele>723.2</ele>
        <time>2026-04-26T10:22:42Z</time>
      </trkpt>
      <trkpt lat="45.04055" lon="3.99279">
        <ele>723.2</ele>
        <time>2026-04-26T10:22:47Z</time>
      </trkpt>
      <trkpt lat="45.04055" lon="3.99279">
        <ele>723.2</ele>
        <time>2026-04-26T10:22:52Z</time>
      </trkpt>
      <trkpt lat="45.04055" lon="3.99279">
        <ele>723.2</ele>
        <time>2026-04-26T10:22:57Z</time>
      </trkpt>
      <trkpt lat="45.04055" lon="3.99279">
        <ele>723.2</ele>
        <time>2026-04-26T10:23:02Z</time>
      </trkpt>
      <trkpt lat="45.04055" lon="3.99279">
        <ele>723.2</ele>
        <time>2026-04-26T10:23:07Z</time>
      </trkpt>
      <trkpt lat="45.04055" lon="3.99279">
        <ele>723.2</ele>
        <time>2026-04-26T10:23:12Z</time>
      </trkpt>
      <trkpt lat="45.04055" lon="3.99279">
        <ele>723.2</ele>
        <time>2026-04-26T10:23:17Z</time>
      </trkpt>
      <trkpt lat="45.04055" lon="3.99279">
        <ele>723.2</ele>
        <time>2026-04-26T10:23:22Z</time>
      </trkpt>
      <trkpt lat="45.04055" lon="3.99279">
        <ele>723.2</ele>
        <time>2026-04-26T10:23:27Z</time>
      </trkpt>
      <trkpt lat="45.04055" lon="3.99279">
        <ele>723.2</ele>
        <time>2026-04-26T10:23:32Z</time>
      </trkpt>
      <trkpt lat="45.04055" lon="3.99279">
        <ele>723.2</ele>
        <time>2026-04-26T10:23:37Z</time>
      </trkpt>
      <trkpt lat="45.04055" lon="3.99279">
        <ele>723.2</ele>
        <time>2026-04-26T10:23:42Z</time>
      </trkpt>
      <trkpt lat="45.04055" lon="3.99279">
        <ele>723.2</ele>
        <time>2026-04-26T10:23:47Z</time>
      </trkpt>
      <trkpt lat="45.04055" lon="3.99279">
        <ele>723.2</ele>
        <time>2026-04-26T10:23:52Z</time>
      </trkpt>
      <trkpt lat="45.04055" lon="3.99279">
        <ele>723.2</ele>
        <time>2026-04-26T10:23:57Z</time>
      </trkpt>
      <trkpt lat="45.04055" lon="3.99279">
        <ele>723.2</ele>
        <time>2026-04-26T10:24:02Z</time>
      </trkpt>
      <trkpt lat="45.04055" lon="3.99279">
        <ele>723.2</ele>
        <time>2026-04-26T10:24:07Z</time>
      </trkpt>
      <trkpt lat="45.04055" lon="3.99279">
        <ele>723.2</ele>
        <time>2026-04-26T10:24:12Z</time>
      </trkpt>
      <trkpt lat="45.04055" lon="3.99279">
        <ele>723.2</ele>
        <time>2026-04-26T10:24:17Z</time>
      </trkpt>
      <trkpt lat="45.04055" lon="3.99279">
        <ele>723.2</ele>
        <time>2026-04-26T10:24:22Z</time>
      </trkpt>
      <trkpt lat="45.04055" lon="3.99279">
        <ele>723.2</ele>
        <time>2026-04-26T10:24:27Z</time>
      </trkpt>
      <trkpt lat="45.04055" lon="3.99279">
        <ele>723.2</ele>
        <time>2026-04-26T10:24:32Z</time>
      </trkpt>
      <trkpt lat="45.04055" lon="3.99279">
        <ele>723.2</ele>
        <time>2026-04-26T10:24:37Z</time>
      </trkpt>
      <trkpt lat="45.04055" lon="3.99279">
        <ele>723.2</ele>
        <time>2026-04-26T10:24:42Z</time>
      </trkpt>
      <trkpt lat="45.04055" lon="3.99279">
        <ele>723.2</ele>
        <time>2026-04-26T10:24:47Z</time>
      </trkpt>
      <trkpt lat="45.04055" lon="3.99279">
        <ele>723.2</ele>
        <time>2026-04-26T10:24:52Z</time>
      </trkpt>
      <trkpt lat="45.04055" lon="3.99279">
        <ele>723.2</ele>
        <time>2026-04-26T10:24:57Z</time>
      </trkpt>
      <trkpt lat="45.04055" lon="3.99279">
        <ele>723.2</ele>
        <time>2026-04-26T10:25:02Z</time>
      </trkpt>
      <trkpt lat="45.04055" lon="3.99279">
        <ele>723.2</ele>
        <time>2026-04-26T10:25:07Z</time>
      </trkpt>
      <trkpt lat="45.04055" lon="3.99279">
        <ele>723.2</ele>
        <time>2026-04-26T10:25:12Z</time>
      </trkpt>
      <trkpt lat="45.04055" lon="3.99279">
        <ele>723.2</ele>
        <time>2026-04-26T10:25:17Z</time>
      </trkpt>
      <trkpt lat="45.04055" lon="3.99279">
        <ele>723.2</ele>
        <time>2026-04-26T10:25:22Z</time>
      </trkpt>
      <trkpt lat="45.04055" lon="3.99279">
        <ele>723.2</ele>
        <time>2026-04-26T10:25:27Z</time>
      </trkpt>
      <trkpt lat="45.04055" lon="3.99279">
        <ele>723.2</ele>
        <time>2026-04-26T10:25:32Z</time>
      </trkpt>
      <trkpt lat="45.04055" lon="3.99279">
        <ele>723.2</ele>
        <time>2026-04-26T10:25:37Z</time>
      </trkpt>
      <trkpt lat="45.04055" lon="3.99279">
        <ele>723.2</ele>
        <time>2026-04-26T10:25:42Z</time>
      </trkpt>
      <trkpt lat="45.04055" lon="3.99279">
        <ele>723.2</ele>
        <time>2026-04-26T10:25:47Z</time>
      </trkpt>
      <trkpt lat="45.04055" lon="3.99279">
        <ele>723.2</ele>
        <time>2026-04-26T10:25:52Z</time>
      </trkpt>
      <trkpt lat="45.04055" lon="3.99279">
        <ele>723.2</ele>
        <time>2026-04-26T10:25:57Z</time>
      </trkpt>
      <trkpt lat="45.04055" lon="3.99279">
        <ele>723.2</ele>
        <time>2026-04-26T10:26:02Z</time>
      </trkpt>
      <trkpt lat="45.04055" lon="3.99279">
        <ele>723.2</ele>
        <time>2026-04-26T10:26:07Z</time>
      </trkpt>
      <trkpt lat="45.04055" lon="3.99279">
        <ele>723.2</ele>
        <time>2026-04-26T10:26:12Z</time>
      </trkpt>
      <trkpt lat="45.04055" lon="3.99279">
        <ele>723.2</ele>
        <time>2026-04-26T10:26:17Z</time>
      </trkpt>
      <trkpt lat="45.04055" lon="3.99279">
        <ele>723.2</ele>
        <time>2026-04-26T10:26:22Z</time>
      </trkpt>
      <trkpt lat="45.04055" lon="3.99279">
        <ele>723.2</ele>
        <time>2026-04-26T10:26:27Z</time>
      </trkpt>
      <trkpt lat="45.04055" lon="3.99279">
        <ele>723.2</ele>
        <time>2026-04-26T10:26:32Z</time>
      </trkpt>
      <trkpt lat="45.04055" lon="3.99279">
        <ele>723.2</ele>
        <time>2026-04-26T10:26:37Z</time>
      </trkpt>
      <trkpt lat="45.04055" lon="3.99279">
        <ele>723.2</ele>
        <time>2026-04-26T10:26:42Z</time>
      </trkpt>
      <trkpt lat="45.04055" lon="3.99279">
        <ele>723.2</ele>
        <time>2026-04-26T10:26:47Z</time>
      </trkpt>
      <trkpt lat="45.04055" lon="3.99279">
        <ele>723.2</ele>
        <time>2026-04-26T10:26:52Z</time>
      </trkpt>
      <trkpt lat="45.04055" lon="3.99279">
        <ele>723.2</ele>
        <time>2026-04-26T10:26:57Z</time>
      </trkpt>
      <trkpt lat="45.04055" lon="3.99279">
        <ele>723.2</ele>
        <time>2026-04-26T10:27:02Z</time>
      </trkpt>
      <trkpt lat="45.04055" lon="3.99279">
        <ele>723.2</ele>
        <time>2026-04-26T10:27:07Z</time>
      </trkpt>
      <trkpt lat="45.04055" lon="3.99279">
        <ele>723.2</ele>
        <time>2026-04-26T10:27:12Z</time>
      </trkpt>
      <trkpt lat="45.04055" lon="3.99279">
        <ele>723.2</ele>
        <time>2026-04-26T10:27:17Z</time>
      </trkpt>
      <trkpt lat="45.04055" lon="3.99279">
        <ele>723.2</ele>
        <time>2026-04-26T10:27:22Z</time>
      </trkpt>
      <trkpt lat="45.04055" lon="3.99279">
        <ele>723.2</ele>
        <time>2026-04-26T10:27:27Z</time>
      </trkpt>
      <trkpt lat="45.04055" lon="3.99279">
        <ele>723.2</ele>
        <time>2026-04-26T10:27:32Z</time>
      </trkpt>
      <trkpt lat="45.04055" lon="3.99279">
        <ele>723.2</ele>
        <time>2026-04-26T10:27:37Z</time>
      </trkpt>
      <trkpt lat="45.04055" lon="3.99279">
        <ele>723.2</ele>
        <time>2026-04-26T10:27:42Z</time>
      </trkpt>
      <trkpt lat="45.04055" lon="3.99279">
        <ele>723.2</ele>
        <time>2026-04-26T10:27:47Z</time>
      </trkpt>
      <trkpt lat="45.04055" lon="3.99279">
        <ele>723.2</ele>
        <time>2026-04-26T10:27:52Z</time>
      </trkpt>
      <trkpt lat="45.04055" lon="3.99279">
        <ele>723.2</ele>
        <time>2026-04-26T10:27:57Z</time>
      </trkpt>
      <trkpt lat="45.04055" lon="3.99279">
        <ele>723.2</ele>
        <time>2026-04-26T10:28:02Z</time>
      </trkpt>
      <trkpt lat="45.04055" lon="3.99279">
        <ele>723.2</ele>
        <time>2026-04-26T10:28:07Z</time>
      </trkpt>
      <trkpt lat="45.04055" lon="3.99279">
        <ele>723.2</ele>
        <time>2026-04-26T10:28:12Z</time>
      </trkpt>
      <trkpt lat="45.04055" lon="3.99279">
        <ele>723.2</ele>
        <time>2026-04-26T10:28:17Z</time>
      </trkpt>
      <trkpt lat="45.04055" lon="3.99279">
        <ele>723.2</ele>
        <time>2026-04-26T10:28:22Z</time>
      </trkpt>
      <trkpt lat="45.04055" lon="3.99279">
        <ele>723.2</ele>
        <time>2026-04-26T10:28:27Z</time>
      </trkpt>
      <trkpt lat="45.04055" lon="3.99279">
        <ele>723.2</ele>
        <time>2026-04-26T10:28:32Z</time>
      </trkpt>
      <trkpt lat="45.04055" lon="3.99279">
        <ele>723.2</ele>
        <time>2026-04-26T10:28:37Z</time>
      </trkpt>
      <trkpt lat="45.04055" lon="3.99279">
        <ele>723.2</ele>
        <time>2026-04-26T10:28:42Z</time>
      </trkpt>
      <trkpt lat="45.04055" lon="3.99279">
        <ele>723.2</ele>
        <time>2026-04-26T10:28:47Z</time>
      </trkpt>
      <trkpt lat="45.04055" lon="3.99279">
        <ele>723.2</ele>
        <time>2026-04-26T10:28:52Z</time>
      </trkpt>
      <trkpt lat="45.04055" lon="3.99279">
        <ele>723.2</ele>
        <time>2026-04-26T10:28:57Z</time>
      </trkpt>
      <trkpt lat="45.04055" lon="3.99279">
        <ele>723.2</ele>
        <time>2026-04-26T10:29:02Z</time>
      </trkpt>
      <trkpt lat="45.04055" lon="3.99279">
        <ele>723.2</ele>
        <time>2026-04-26T10:29:07Z</time>
      </trkpt>
      <trkpt lat="45.04055" lon="3.99279">
        <ele>723.2</ele>
        <time>2026-04-26T10:29:12Z</time>
      </trkpt>
      <trkpt lat="45.04055" lon="3.99279">
        <ele>723.2</ele>
        <time>2026-04-26T10:29:17Z</time>
      </trkpt>
      <trkpt lat="45.04055" lon="3.99279">
        <ele>723.2</ele>
        <time>2026-04-26T10:29:22Z</time>
      </trkpt>
      <trkpt lat="45.04055" lon="3.99279">
        <ele>723.2</ele>
        <time>2026-04-26T10:29:27Z</time>
      </trkpt>
      <trkpt lat="45.04055" lon="3.99279">
        <ele>723.2</ele>
        <time>2026-04-26T10:29:32Z</time>
      </trkpt>
      <trkpt lat="45.04055" lon="3.99279">
        <ele>723.2</ele>
        <time>2026-04-26T10:29:37Z</time>
      </trkpt>
      <trkpt lat="45.04055" lon="3.99279">
        <ele>723.2</ele>
        <time>2026-04-26T10:29:42Z</time>
      </trkpt>
      <trkpt lat="45.04055" lon="3.99279">
        <ele>723.2</ele>
        <time>2026-04-26T10:29:47Z</time>
      </trkpt>
      <trkpt lat="45.04055" lon="3.99279">
        <ele>723.2</ele>
        <time>2026-04-26T10:29:52Z</time>
      </trkpt>
      <trkpt lat="45.04055" lon="3.99279">
        <ele>723.2</ele>
        <time>2026-04-26T10:29:57Z</time>
      </trkpt>
      <trkpt lat="45.04055" lon="3.99279">
        <ele>723.2</ele>
        <time>2026-04-26T10:30:02Z</time>
      </trkpt>
      <trkpt lat="45.04055" lon="3.99279">
        <ele>723.2</ele>
        <time>2026-04-26T10:30:07Z</time>
      </trkpt>
      <trkpt lat="45.04055" lon="3.99279">
        <ele>723.2</ele>
        <time>2026-04-26T10:30:12Z</time>
      </trkpt>
      <trkpt lat="45.04055" lon="3.99279">
        <ele>723.2</ele>
        <time>2026-04-26T10:30:17Z</time>
      </trkpt>
      <trkpt lat="45.04055" lon="3.99279">
        <ele>723.2</ele>
        <time>2026-04-26T10:30:22Z</time>
      </trkpt>
      <trkpt lat="45.04055" lon="3.99279">
        <ele>723.2</ele>
        <time>2026-04-26T10:30:27Z</time>
      </trkpt>
      <trkpt lat="45.04055" lon="3.99279">
        <ele>723.2</ele>
        <time>2026-04-26T10:30:32Z</time>
      </trkpt>
      <trkpt lat="45.04055" lon="3.99279">
        <ele>723.2</ele>
        <time>2026-04-26T10:30:37Z</time>
      </trkpt>
      <trkpt lat="45.04055" lon="3.99279">
        <ele>723.2</ele>
        <time>2026-04-26T10:30:42Z</time>
      </trkpt>
      <trkpt lat="45.04055" lon="3.99279">
        <ele>723.2</ele>
        <time>2026-04-26T10:30:47Z</time>
      </trkpt>
      <trkpt lat="45.04055" lon="3.99279">
        <ele>723.2</ele>
        <time>2026-04-26T10:30:52Z</time>
      </trkpt>
      <trkpt lat="45.04055" lon="3.99279">
        <ele>723.2</ele>
        <time>2026-04-26T10:30:57Z</time>
      </trkpt>
      <trkpt lat="45.04055" lon="3.99279">
        <ele>723.2</ele>
        <time>2026-04-26T10:31:02Z</time>
      </trkpt>
      <trkpt lat="45.04055" lon="3.99279">
        <ele>723.2</ele>
        <time>2026-04-26T10:31:07Z</time>
      </trkpt>
      <trkpt lat="45.04055" lon="3.99279">
        <ele>723.2</ele>
        <time>2026-04-26T10:31:12Z</time>
      </trkpt>
      <trkpt lat="45.04055" lon="3.99279">
        <ele>723.2</ele>
        <time>2026-04-26T10:31:17Z</time>
      </trkpt>
      <trkpt lat="45.04055" lon="3.99279">
        <ele>723.2</ele>
        <time>2026-04-26T10:31:22Z</time>
      </trkpt>
      <trkpt lat="45.04055" lon="3.99279">
        <ele>723.2</ele>
        <time>2026-04-26T10:31:27Z</time>
      </trkpt>
      <trkpt lat="45.04055" lon="3.99279">
        <ele>723.2</ele>
        <time>2026-04-26T10:31:32Z</time>
      </trkpt>
      <trkpt lat="45.04055" lon="3.99279">
        <ele>723.2</ele>
        <time>2026-04-26T10:31:37Z</time>
      </trkpt>
      <trkpt lat="45.04055" lon="3.99279">
        <ele>723.2</ele>
        <time>2026-04-26T10:31:42Z</time>
      </trkpt>
      <trkpt lat="45.04055" lon="3.99279">
        <ele>723.2</ele>
        <time>2026-04-26T10:31:47Z</time>
      </trkpt>
      <trkpt lat="45.04055" lon="3.99279">
        <ele>723.2</ele>
        <time>2026-04-26T10:31:52Z</time>
      </trkpt>
      <trkpt lat="45.04055" lon="3.99279">
        <ele>723.2</ele>
        <time>2026-04-26T10:31:57Z</time>
      </trkpt>
      <trkpt lat="45.04055" lon="3.99279">
        <ele>723.2</ele>
        <time>2026-04-26T10:32:02Z</time>
      </trkpt>
      <trkpt lat="45.04055" lon="3.99279">
        <ele>723.2</ele>
        <time>2026-04-26T10:32:07Z</time>
      </trkpt>
      <trkpt lat="45.04055" lon="3.99279">
        <ele>723.2</ele>
        <time>2026-04-26T10:32:12Z</time>
      </trkpt>
      <trkpt lat="45.04055" lon="3.99279">
        <ele>723.2</ele>
        <time>2026-04-26T10:32:17Z</time>
      </trkpt>
      <trkpt lat="45.04055" lon="3.99279">
        <ele>723.2</ele>
        <time>2026-04-26T10:32:22Z</time>
      </trkpt>
      <trkpt lat="45.04055" lon="3.99279">
        <ele>723.2</ele>
        <time>2026-04-26T10:32:27Z</time>
      </trkpt>
      <trkpt lat="45.04055" lon="3.99279">
        <ele>723.2</ele>
        <time>2026-04-26T10:32:32Z</time>
      </trkpt>
      <trkpt lat="45.04055" lon="3.99279">
        <ele>723.2</ele>
        <time>2026-04-26T10:32:37Z</time>
      </trkpt>
      <trkpt lat="45.04055" lon="3.99279">
        <ele>723.2</ele>
        <time>2026-04-26T10:32:42Z</time>
      </trkpt>
      <trkpt lat="45.04055" lon="3.99279">
        <ele>723.2</ele>
        <time>2026-04-26T10:32:47Z</time>
      </trkpt>
      <trkpt lat="45.04055" lon="3.99279">
        <ele>723.2</ele>
        <time>2026-04-26T10:32:52Z</time>
      </trkpt>
      <trkpt lat="45.04055" lon="3.99279">
        <ele>723.2</ele>
        <time>2026-04-26T10:32:57Z</time>
      </trkpt>
      <trkpt lat="45.04055" lon="3.99279">
        <ele>723.2</ele>
        <time>2026-04-26T10:33:02Z</time>
      </trkpt>
      <trkpt lat="45.04055" lon="3.99279">
        <ele>723.2</ele>
        <time>2026-04-26T10:33:07Z</time>
      </trkpt>
      <trkpt lat="45.04055" lon="3.99279">
        <ele>723.2</ele>
        <time>2026-04-26T10:33:12Z</time>
      </trkpt>
      <trkpt lat="45.04055" lon="3.99279">
        <ele>723.2</ele>
        <time>2026-04-26T10:33:17Z</time>
      </trkpt>
      <trkpt lat="45.04055" lon="3.99279">
        <ele>723.2</ele>
        <time>2026-04-26T10:33:22Z</time>
      </trkpt>
      <trkpt lat="45.04055" lon="3.99279">
        <ele>723.2</ele>
        <time>2026-04-26T10:33:27Z</time>
      </trkpt>
      <trkpt lat="45.04055" lon="3.99279">
        <ele>723.2</ele>
        <time>2026-04-26T10:33:32Z</time>
      </trkpt>
      <trkpt lat="45.04055" lon="3.99279">
        <ele>723.2</ele>
        <time>2026-04-26T10:33:37Z</time>
      </trkpt>
      <trkpt lat="45.04055" lon="3.99279">
        <ele>723.2</ele>
        <time>2026-04-26T10:33:42Z</time>
      </trkpt>
      <trkpt lat="45.04055" lon="3.99279">
        <ele>723.2</ele>
        <time>2026-04-26T10:33:47Z</time>
      </trkpt>
      <trkpt lat="45.04055" lon="3.99279">
        <ele>723.2</ele>
        <time>2026-04-26T10:33:52Z</time>
      </trkpt>
      <trkpt lat="45.04055" lon="3.99279">
        <ele>723.2</ele>
        <time>2026-04-26T10:33:57Z</time>
      </trkpt>
      <trkpt lat="45.04055" lon="3.99279">
        <ele>723.2</ele>
        <time>2026-04-26T10:34:02Z</time>
      </trkpt>
      <trkpt lat="45.04055" lon="3.99279">
        <ele>723.2</ele>
        <time>2026-04-26T10:34:07Z</time>
      </trkpt>
      <trkpt lat="45.04055" lon="3.99279">
        <ele>723.2</ele>
        <time>2026-04-26T10:34:12Z</time>
      </trkpt>
      <trkpt lat="45.04055" lon="3.99279">
        <ele>723.2</ele>
        <time>2026-04-26T10:34:17Z</time>
      </trkpt>
      <trkpt lat="45.04055" lon="3.99279">
        <ele>723.2</ele>
        <time>2026-04-26T10:34:22Z</time>
      </trkpt>
      <trkpt lat="45.04055" lon="3.99279">
        <ele>723.2</ele>
        <time>2026-04-26T10:34:27Z</time>
      </trkpt>
      <trkpt lat="45.04055" lon="3.99279">
        <ele>723.2</ele>
        <time>2026-04-26T10:34:32Z</time>
      </trkpt>
      <trkpt lat="45.04061" lon="3.99272">
        <ele>722.9</ele>
        <time>2026-04-26T10:34:37Z</time>
      </trkpt>
      <trkpt lat="45.04062" lon="3.99271">
        <ele>722.9</ele>
        <time>2026-04-26T10:34:42Z</time>
      </trkpt>
      <trkpt lat="45.04062" lon="3.99271">
        <ele>722.9</ele>
        <time>2026-04-26T10:34:47Z</time>
      </trkpt>
      <trkpt lat="45.04062" lon="3.99271">
        <ele>722.9</ele>
        <time>2026-04-26T10:34:52Z</time>
      </trkpt>
      <trkpt lat="45.04062" lon="3.99271">
        <ele>722.9</ele>
        <time>2026-04-26T10:34:57Z</time>
      </trkpt>
      <trkpt lat="45.04062" lon="3.99271">
        <ele>722.9</ele>
        <time>2026-04-26T10:35:02Z</time>
      </trkpt>
      <trkpt lat="45.04062" lon="3.99271">
        <ele>722.9</ele>
        <time>2026-04-26T10:35:07Z</time>
      </trkpt>
      <trkpt lat="45.04062" lon="3.99271">
        <ele>722.9</ele>
        <time>2026-04-26T10:35:12Z</time>
      </trkpt>
      <trkpt lat="45.04062" lon="3.99271">
        <ele>722.9</ele>
        <time>2026-04-26T10:35:17Z</time>
      </trkpt>
      <trkpt lat="45.04062" lon="3.99271">
        <ele>722.9</ele>
        <time>2026-04-26T10:35:22Z</time>
      </trkpt>
      <trkpt lat="45.04062" lon="3.99271">
        <ele>722.9</ele>
        <time>2026-04-26T10:35:27Z</time>
      </trkpt>
      <trkpt lat="45.04062" lon="3.99271">
        <ele>722.9</ele>
        <time>2026-04-26T10:35:32Z</time>
      </trkpt>
      <trkpt lat="45.04062" lon="3.99271">
        <ele>722.9</ele>
        <time>2026-04-26T10:35:37Z</time>
      </trkpt>
      <trkpt lat="45.04062" lon="3.99271">
        <ele>722.9</ele>
        <time>2026-04-26T10:35:42Z</time>
      </trkpt>
      <trkpt lat="45.04062" lon="3.99271">
        <ele>722.9</ele>
        <time>2026-04-26T10:35:47Z</time>
      </trkpt>
      <trkpt lat="45.04062" lon="3.99271">
        <ele>722.9</ele>
        <time>2026-04-26T10:35:52Z</time>
      </trkpt>
      <trkpt lat="45.04062" lon="3.99271">
        <ele>722.9</ele>
        <time>2026-04-26T10:35:57Z</time>
      </trkpt>
      <trkpt lat="45.04062" lon="3.99271">
        <ele>722.9</ele>
        <time>2026-04-26T10:36:02Z</time>
      </trkpt>
      <trkpt lat="45.04062" lon="3.99271">
        <ele>722.9</ele>
        <time>2026-04-26T10:36:07Z</time>
      </trkpt>
      <trkpt lat="45.04062" lon="3.99271">
        <ele>722.9</ele>
        <time>2026-04-26T10:36:12Z</time>
      </trkpt>
      <trkpt lat="45.04062" lon="3.99271">
        <ele>722.9</ele>
        <time>2026-04-26T10:36:17Z</time>
      </trkpt>
      <trkpt lat="45.04062" lon="3.99271">
        <ele>722.9</ele>
        <time>2026-04-26T10:36:22Z</time>
      </trkpt>
      <trkpt lat="45.04062" lon="3.99271">
        <ele>722.9</ele>
        <time>2026-04-26T10:36:27Z</time>
      </trkpt>
      <trkpt lat="45.04062" lon="3.99271">
        <ele>722.9</ele>
        <time>2026-04-26T10:36:32Z</time>
      </trkpt>
      <trkpt lat="45.04062" lon="3.99271">
        <ele>722.9</ele>
        <time>2026-04-26T10:36:37Z</time>
      </trkpt>
      <trkpt lat="45.04062" lon="3.99271">
        <ele>722.9</ele>
        <time>2026-04-26T10:36:42Z</time>
      </trkpt>
      <trkpt lat="45.04062" lon="3.99271">
        <ele>722.9</ele>
        <time>2026-04-26T10:36:47Z</time>
      </trkpt>
      <trkpt lat="45.04062" lon="3.99271">
        <ele>722.9</ele>
        <time>2026-04-26T10:36:52Z</time>
      </trkpt>
      <trkpt lat="45.04062" lon="3.99271">
        <ele>722.9</ele>
        <time>2026-04-26T10:36:57Z</time>
      </trkpt>
      <trkpt lat="45.04062" lon="3.99271">
        <ele>722.9</ele>
        <time>2026-04-26T10:37:02Z</time>
      </trkpt>
      <trkpt lat="45.04062" lon="3.99271">
        <ele>722.9</ele>
        <time>2026-04-26T10:37:07Z</time>
      </trkpt>
      <trkpt lat="45.04062" lon="3.99271">
        <ele>722.9</ele>
        <time>2026-04-26T10:37:12Z</time>
      </trkpt>
      <trkpt lat="45.04062" lon="3.99271">
        <ele>722.9</ele>
        <time>2026-04-26T10:37:17Z</time>
      </trkpt>
      <trkpt lat="45.04062" lon="3.99271">
        <ele>722.9</ele>
        <time>2026-04-26T10:37:22Z</time>
      </trkpt>
      <trkpt lat="45.04062" lon="3.99271">
        <ele>722.9</ele>
        <time>2026-04-26T10:37:27Z</time>
      </trkpt>
      <trkpt lat="45.04062" lon="3.99271">
        <ele>722.9</ele>
        <time>2026-04-26T10:37:33Z</time>
      </trkpt>
      <trkpt lat="45.04062" lon="3.99271">
        <ele>722.9</ele>
        <time>2026-04-26T10:37:38Z</time>
      </trkpt>
      <trkpt lat="45.04062" lon="3.99271">
        <ele>722.9</ele>
        <time>2026-04-26T10:37:43Z</time>
      </trkpt>
      <trkpt lat="45.04057" lon="3.99276">
        <ele>723</ele>
        <time>2026-04-26T10:37:48Z</time>
      </trkpt>
      <trkpt lat="45.04057" lon="3.99276">
        <ele>723</ele>
        <time>2026-04-26T10:37:53Z</time>
      </trkpt>
      <trkpt lat="45.04057" lon="3.99276">
        <ele>723</ele>
        <time>2026-04-26T10:37:58Z</time>
      </trkpt>
      <trkpt lat="45.04057" lon="3.99276">
        <ele>723</ele>
        <time>2026-04-26T10:38:03Z</time>
      </trkpt>
      <trkpt lat="45.04057" lon="3.99276">
        <ele>723</ele>
        <time>2026-04-26T10:38:08Z</time>
      </trkpt>
      <trkpt lat="45.04057" lon="3.99276">
        <ele>723</ele>
        <time>2026-04-26T10:38:13Z</time>
      </trkpt>
      <trkpt lat="45.04057" lon="3.99276">
        <ele>723</ele>
        <time>2026-04-26T10:38:18Z</time>
      </trkpt>
      <trkpt lat="45.04057" lon="3.99276">
        <ele>723</ele>
        <time>2026-04-26T10:38:23Z</time>
      </trkpt>
      <trkpt lat="45.04057" lon="3.99276">
        <ele>723</ele>
        <time>2026-04-26T10:38:28Z</time>
      </trkpt>
      <trkpt lat="45.04057" lon="3.99276">
        <ele>723</ele>
        <time>2026-04-26T10:38:33Z</time>
      </trkpt>
      <trkpt lat="45.04054" lon="3.99281">
        <ele>723.3</ele>
        <time>2026-04-26T10:38:38Z</time>
      </trkpt>
      <trkpt lat="45.04047" lon="3.99282">
        <ele>723</ele>
        <time>2026-04-26T10:38:43Z</time>
      </trkpt>
      <trkpt lat="45.0404" lon="3.99283">
        <ele>722.7</ele>
        <time>2026-04-26T10:38:48Z</time>
      </trkpt>
      <trkpt lat="45.04035" lon="3.99285">
        <ele>722.6</ele>
        <time>2026-04-26T10:38:53Z</time>
      </trkpt>
      <trkpt lat="45.04027" lon="3.99284">
        <ele>722</ele>
        <time>2026-04-26T10:38:58Z</time>
      </trkpt>
      <trkpt lat="45.04019" lon="3.99285">
        <ele>721.6</ele>
        <time>2026-04-26T10:39:03Z</time>
      </trkpt>
      <trkpt lat="45.04014" lon="3.99288">
        <ele>721.6</ele>
        <time>2026-04-26T10:39:08Z</time>
      </trkpt>
      <trkpt lat="45.04007" lon="3.99289">
        <ele>721.2</ele>
        <time>2026-04-26T10:39:13Z</time>
      </trkpt>
      <trkpt lat="45.04" lon="3.9929">
        <ele>720.9</ele>
        <time>2026-04-26T10:39:18Z</time>
      </trkpt>
      <trkpt lat="45.03995" lon="3.99289">
        <ele>720.5</ele>
        <time>2026-04-26T10:39:23Z</time>
      </trkpt>
      <trkpt lat="45.03988" lon="3.99291">
        <ele>720.3</ele>
        <time>2026-04-26T10:39:28Z</time>
      </trkpt>
      <trkpt lat="45.0398" lon="3.99292">
        <ele>719.9</ele>
        <time>2026-04-26T10:39:33Z</time>
      </trkpt>
      <trkpt lat="45.03974" lon="3.99296">
        <ele>719.9</ele>
        <time>2026-04-26T10:39:38Z</time>
      </trkpt>
      <trkpt lat="45.03967" lon="3.99297">
        <ele>719.6</ele>
        <time>2026-04-26T10:39:43Z</time>
      </trkpt>
      <trkpt lat="45.03965" lon="3.99297">
        <ele>719.5</ele>
        <time>2026-04-26T10:39:48Z</time>
      </trkpt>
      <trkpt lat="45.03964" lon="3.99297">
        <ele>719.4</ele>
        <time>2026-04-26T10:39:53Z</time>
      </trkpt>
      <trkpt lat="45.03964" lon="3.99297">
        <ele>719.4</ele>
        <time>2026-04-26T10:39:58Z</time>
      </trkpt>
      <trkpt lat="45.03964" lon="3.99297">
        <ele>719.4</ele>
        <time>2026-04-26T10:40:03Z</time>
      </trkpt>
      <trkpt lat="45.03964" lon="3.99297">
        <ele>719.4</ele>
        <time>2026-04-26T10:40:08Z</time>
      </trkpt>
      <trkpt lat="45.03959" lon="3.99297">
        <ele>719.1</ele>
        <time>2026-04-26T10:40:13Z</time>
      </trkpt>
      <trkpt lat="45.03953" lon="3.99298">
        <ele>718.9</ele>
        <time>2026-04-26T10:40:18Z</time>
      </trkpt>
      <trkpt lat="45.03945" lon="3.99297">
        <ele>718.4</ele>
        <time>2026-04-26T10:40:23Z</time>
      </trkpt>
      <trkpt lat="45.03938" lon="3.99296">
        <ele>717.9</ele>
        <time>2026-04-26T10:40:28Z</time>
      </trkpt>
      <trkpt lat="45.03935" lon="3.99296">
        <ele>717.8</ele>
        <time>2026-04-26T10:40:33Z</time>
      </trkpt>
      <trkpt lat="45.03934" lon="3.99297">
        <ele>717.8</ele>
        <time>2026-04-26T10:40:38Z</time>
      </trkpt>
      <trkpt lat="45.03933" lon="3.99297">
        <ele>717.7</ele>
        <time>2026-04-26T10:40:43Z</time>
      </trkpt>
      <trkpt lat="45.03931" lon="3.99296">
        <ele>717.5</ele>
        <time>2026-04-26T10:40:48Z</time>
      </trkpt>
      <trkpt lat="45.03926" lon="3.99292">
        <ele>717</ele>
        <time>2026-04-26T10:40:53Z</time>
      </trkpt>
      <trkpt lat="45.03919" lon="3.99286">
        <ele>716.3</ele>
        <time>2026-04-26T10:40:58Z</time>
      </trkpt>
      <trkpt lat="45.03916" lon="3.99283">
        <ele>715.9</ele>
        <time>2026-04-26T10:41:03Z</time>
      </trkpt>
      <trkpt lat="45.03916" lon="3.99283">
        <ele>715.9</ele>
        <time>2026-04-26T10:41:08Z</time>
      </trkpt>
      <trkpt lat="45.03916" lon="3.99283">
        <ele>715.9</ele>
        <time>2026-04-26T10:41:13Z</time>
      </trkpt>
      <trkpt lat="45.03914" lon="3.99282">
        <ele>715.8</ele>
        <time>2026-04-26T10:41:18Z</time>
      </trkpt>
      <trkpt lat="45.03913" lon="3.99272">
        <ele>715.1</ele>
        <time>2026-04-26T10:41:23Z</time>
      </trkpt>
      <trkpt lat="45.03911" lon="3.99263">
        <ele>714.5</ele>
        <time>2026-04-26T10:41:28Z</time>
      </trkpt>
      <trkpt lat="45.03908" lon="3.99255">
        <ele>713.8</ele>
        <time>2026-04-26T10:41:33Z</time>
      </trkpt>
      <trkpt lat="45.03904" lon="3.99245">
        <ele>712.8</ele>
        <time>2026-04-26T10:41:38Z</time>
      </trkpt>
      <trkpt lat="45.039" lon="3.99236">
        <ele>711.8</ele>
        <time>2026-04-26T10:41:43Z</time>
      </trkpt>
      <trkpt lat="45.03895" lon="3.99229">
        <ele>710.9</ele>
        <time>2026-04-26T10:41:48Z</time>
      </trkpt>
      <trkpt lat="45.03891" lon="3.99222">
        <ele>710.1</ele>
        <time>2026-04-26T10:41:53Z</time>
      </trkpt>
      <trkpt lat="45.0389" lon="3.9922">
        <ele>709.9</ele>
        <time>2026-04-26T10:41:58Z</time>
      </trkpt>
      <trkpt lat="45.0389" lon="3.9922">
        <ele>709.9</ele>
        <time>2026-04-26T10:42:03Z</time>
      </trkpt>
      <trkpt lat="45.03887" lon="3.99219">
        <ele>709.6</ele>
        <time>2026-04-26T10:42:08Z</time>
      </trkpt>
      <trkpt lat="45.03888" lon="3.99212">
        <ele>709.1</ele>
        <time>2026-04-26T10:42:13Z</time>
      </trkpt>
      <trkpt lat="45.03885" lon="3.99202">
        <ele>708.1</ele>
        <time>2026-04-26T10:42:18Z</time>
      </trkpt>
      <trkpt lat="45.03881" lon="3.99194">
        <ele>707.2</ele>
        <time>2026-04-26T10:42:23Z</time>
      </trkpt>
      <trkpt lat="45.03876" lon="3.99186">
        <ele>706.2</ele>
        <time>2026-04-26T10:42:28Z</time>
      </trkpt>
      <trkpt lat="45.03872" lon="3.99177">
        <ele>705.2</ele>
        <time>2026-04-26T10:42:33Z</time>
      </trkpt>
      <trkpt lat="45.03869" lon="3.99169">
        <ele>704.3</ele>
        <time>2026-04-26T10:42:38Z</time>
      </trkpt>
      <trkpt lat="45.03866" lon="3.9916">
        <ele>703.6</ele>
        <time>2026-04-26T10:42:43Z</time>
      </trkpt>
      <trkpt lat="45.03862" lon="3.99153">
        <ele>703</ele>
        <time>2026-04-26T10:42:48Z</time>
      </trkpt>
      <trkpt lat="45.03857" lon="3.99145">
        <ele>702.2</ele>
        <time>2026-04-26T10:42:53Z</time>
      </trkpt>
      <trkpt lat="45.03853" lon="3.99136">
        <ele>701.5</ele>
        <time>2026-04-26T10:42:58Z</time>
      </trkpt>
      <trkpt lat="45.0385" lon="3.99128">
        <ele>701</ele>
        <time>2026-04-26T10:43:03Z</time>
      </trkpt>
      <trkpt lat="45.03846" lon="3.99117">
        <ele>700.2</ele>
        <time>2026-04-26T10:43:08Z</time>
      </trkpt>
      <trkpt lat="45.03843" lon="3.99109">
        <ele>699.7</ele>
        <time>2026-04-26T10:43:13Z</time>
      </trkpt>
      <trkpt lat="45.03839" lon="3.99099">
        <ele>699</ele>
        <time>2026-04-26T10:43:18Z</time>
      </trkpt>
      <trkpt lat="45.03834" lon="3.9909">
        <ele>698.3</ele>
        <time>2026-04-26T10:43:23Z</time>
      </trkpt>
      <trkpt lat="45.0383" lon="3.99081">
        <ele>697.9</ele>
        <time>2026-04-26T10:43:28Z</time>
      </trkpt>
      <trkpt lat="45.03827" lon="3.99074">
        <ele>697.6</ele>
        <time>2026-04-26T10:43:33Z</time>
      </trkpt>
      <trkpt lat="45.03821" lon="3.99067">
        <ele>697.4</ele>
        <time>2026-04-26T10:43:38Z</time>
      </trkpt>
      <trkpt lat="45.03815" lon="3.99062">
        <ele>697.1</ele>
        <time>2026-04-26T10:43:43Z</time>
      </trkpt>
      <trkpt lat="45.03808" lon="3.99056">
        <ele>696.8</ele>
        <time>2026-04-26T10:43:48Z</time>
      </trkpt>
      <trkpt lat="45.03801" lon="3.99053">
        <ele>696.6</ele>
        <time>2026-04-26T10:43:53Z</time>
      </trkpt>
      <trkpt lat="45.03795" lon="3.99048">
        <ele>696.3</ele>
        <time>2026-04-26T10:43:58Z</time>
      </trkpt>
      <trkpt lat="45.03791" lon="3.99044">
        <ele>696.1</ele>
        <time>2026-04-26T10:44:03Z</time>
      </trkpt>
      <trkpt lat="45.03788" lon="3.99035">
        <ele>695.6</ele>
        <time>2026-04-26T10:44:08Z</time>
      </trkpt>
      <trkpt lat="45.03785" lon="3.99025">
        <ele>695.1</ele>
        <time>2026-04-26T10:44:13Z</time>
      </trkpt>
      <trkpt lat="45.03784" lon="3.99015">
        <ele>694.6</ele>
        <time>2026-04-26T10:44:18Z</time>
      </trkpt>
      <trkpt lat="45.03784" lon="3.99006">
        <ele>694.1</ele>
        <time>2026-04-26T10:44:23Z</time>
      </trkpt>
      <trkpt lat="45.03783" lon="3.98995">
        <ele>693.7</ele>
        <time>2026-04-26T10:44:28Z</time>
      </trkpt>
      <trkpt lat="45.03782" lon="3.98987">
        <ele>693.5</ele>
        <time>2026-04-26T10:44:33Z</time>
      </trkpt>
      <trkpt lat="45.0378" lon="3.98976">
        <ele>693.2</ele>
        <time>2026-04-26T10:44:38Z</time>
      </trkpt>
      <trkpt lat="45.03779" lon="3.98965">
        <ele>693</ele>
        <time>2026-04-26T10:44:43Z</time>
      </trkpt>
      <trkpt lat="45.03778" lon="3.98955">
        <ele>692.8</ele>
        <time>2026-04-26T10:44:48Z</time>
      </trkpt>
      <trkpt lat="45.03776" lon="3.98945">
        <ele>692.6</ele>
        <time>2026-04-26T10:44:53Z</time>
      </trkpt>
      <trkpt lat="45.03772" lon="3.98935">
        <ele>692.3</ele>
        <time>2026-04-26T10:44:58Z</time>
      </trkpt>
      <trkpt lat="45.03767" lon="3.98923">
        <ele>692.1</ele>
        <time>2026-04-26T10:45:03Z</time>
      </trkpt>
      <trkpt lat="45.03763" lon="3.98911">
        <ele>692.2</ele>
        <time>2026-04-26T10:45:08Z</time>
      </trkpt>
      <trkpt lat="45.03758" lon="3.98902">
        <ele>692.5</ele>
        <time>2026-04-26T10:45:13Z</time>
      </trkpt>
      <trkpt lat="45.03755" lon="3.98897">
        <ele>692.7</ele>
        <time>2026-04-26T10:45:18Z</time>
      </trkpt>
      <trkpt lat="45.03753" lon="3.98897">
        <ele>692.7</ele>
        <time>2026-04-26T10:45:23Z</time>
      </trkpt>
      <trkpt lat="45.03752" lon="3.98896">
        <ele>692.7</ele>
        <time>2026-04-26T10:45:28Z</time>
      </trkpt>
      <trkpt lat="45.03748" lon="3.98891">
        <ele>693</ele>
        <time>2026-04-26T10:45:33Z</time>
      </trkpt>
      <trkpt lat="45.03746" lon="3.98882">
        <ele>693.4</ele>
        <time>2026-04-26T10:45:38Z</time>
      </trkpt>
      <trkpt lat="45.03745" lon="3.98873">
        <ele>693.7</ele>
        <time>2026-04-26T10:45:43Z</time>
      </trkpt>
      <trkpt lat="45.03745" lon="3.98864">
        <ele>694.1</ele>
        <time>2026-04-26T10:45:48Z</time>
      </trkpt>
      <trkpt lat="45.03744" lon="3.98856">
        <ele>694.4</ele>
        <time>2026-04-26T10:45:53Z</time>
      </trkpt>
      <trkpt lat="45.03743" lon="3.98844">
        <ele>694.9</ele>
        <time>2026-04-26T10:45:58Z</time>
      </trkpt>
      <trkpt lat="45.03742" lon="3.98835">
        <ele>695.2</ele>
        <time>2026-04-26T10:46:03Z</time>
      </trkpt>
      <trkpt lat="45.03742" lon="3.98825">
        <ele>695.9</ele>
        <time>2026-04-26T10:46:08Z</time>
      </trkpt>
      <trkpt lat="45.03742" lon="3.98813">
        <ele>696.7</ele>
        <time>2026-04-26T10:46:13Z</time>
      </trkpt>
      <trkpt lat="45.0374" lon="3.988">
        <ele>697.7</ele>
        <time>2026-04-26T10:46:18Z</time>
      </trkpt>
      <trkpt lat="45.03737" lon="3.9879">
        <ele>698.5</ele>
        <time>2026-04-26T10:46:23Z</time>
      </trkpt>
      <trkpt lat="45.03735" lon="3.9878">
        <ele>699.3</ele>
        <time>2026-04-26T10:46:28Z</time>
      </trkpt>
      <trkpt lat="45.03732" lon="3.98774">
        <ele>699.8</ele>
        <time>2026-04-26T10:46:33Z</time>
      </trkpt>
      <trkpt lat="45.03729" lon="3.98768">
        <ele>700.3</ele>
        <time>2026-04-26T10:46:38Z</time>
      </trkpt>
      <trkpt lat="45.03725" lon="3.98762">
        <ele>700.8</ele>
        <time>2026-04-26T10:46:43Z</time>
      </trkpt>
      <trkpt lat="45.03719" lon="3.98757">
        <ele>701.3</ele>
        <time>2026-04-26T10:46:48Z</time>
      </trkpt>
      <trkpt lat="45.03714" lon="3.98754">
        <ele>701.6</ele>
        <time>2026-04-26T10:46:53Z</time>
      </trkpt>
      <trkpt lat="45.0371" lon="3.9875">
        <ele>702</ele>
        <time>2026-04-26T10:46:58Z</time>
      </trkpt>
      <trkpt lat="45.03706" lon="3.98749">
        <ele>702.1</ele>
        <time>2026-04-26T10:47:03Z</time>
      </trkpt>
      <trkpt lat="45.037" lon="3.98748">
        <ele>702.3</ele>
        <time>2026-04-26T10:47:08Z</time>
      </trkpt>
      <trkpt lat="45.03695" lon="3.98747">
        <ele>702.4</ele>
        <time>2026-04-26T10:47:13Z</time>
      </trkpt>
      <trkpt lat="45.03691" lon="3.98748">
        <ele>702.5</ele>
        <time>2026-04-26T10:47:18Z</time>
      </trkpt>
      <trkpt lat="45.03686" lon="3.98748">
        <ele>702.6</ele>
        <time>2026-04-26T10:47:23Z</time>
      </trkpt>
      <trkpt lat="45.03681" lon="3.98748">
        <ele>702.7</ele>
        <time>2026-04-26T10:47:28Z</time>
      </trkpt>
      <trkpt lat="45.03675" lon="3.98748">
        <ele>702.9</ele>
        <time>2026-04-26T10:47:33Z</time>
      </trkpt>
      <trkpt lat="45.03671" lon="3.98747">
        <ele>703</ele>
        <time>2026-04-26T10:47:38Z</time>
      </trkpt>
      <trkpt lat="45.03667" lon="3.98743">
        <ele>703.2</ele>
        <time>2026-04-26T10:47:43Z</time>
      </trkpt>
      <trkpt lat="45.03664" lon="3.98738">
        <ele>703.4</ele>
        <time>2026-04-26T10:47:48Z</time>
      </trkpt>
      <trkpt lat="45.03664" lon="3.98732">
        <ele>703.5</ele>
        <time>2026-04-26T10:47:53Z</time>
      </trkpt>
      <trkpt lat="45.03667" lon="3.98726">
        <ele>703.6</ele>
        <time>2026-04-26T10:47:58Z</time>
      </trkpt>
      <trkpt lat="45.03672" lon="3.98721">
        <ele>703.6</ele>
        <time>2026-04-26T10:48:03Z</time>
      </trkpt>
      <trkpt lat="45.03677" lon="3.98716">
        <ele>703.6</ele>
        <time>2026-04-26T10:48:08Z</time>
      </trkpt>
      <trkpt lat="45.03683" lon="3.98712">
        <ele>703.6</ele>
        <time>2026-04-26T10:48:13Z</time>
      </trkpt>
      <trkpt lat="45.03689" lon="3.98709">
        <ele>703.6</ele>
        <time>2026-04-26T10:48:18Z</time>
      </trkpt>
      <trkpt lat="45.03693" lon="3.98705">
        <ele>703.6</ele>
        <time>2026-04-26T10:48:23Z</time>
      </trkpt>
      <trkpt lat="45.03698" lon="3.987">
        <ele>703.7</ele>
        <time>2026-04-26T10:48:28Z</time>
      </trkpt>
      <trkpt lat="45.03703" lon="3.98693">
        <ele>703.8</ele>
        <time>2026-04-26T10:48:33Z</time>
      </trkpt>
      <trkpt lat="45.03707" lon="3.98686">
        <ele>703.9</ele>
        <time>2026-04-26T10:48:38Z</time>
      </trkpt>
      <trkpt lat="45.03711" lon="3.9868">
        <ele>704.1</ele>
        <time>2026-04-26T10:48:43Z</time>
      </trkpt>
      <trkpt lat="45.03717" lon="3.98672">
        <ele>704.2</ele>
        <time>2026-04-26T10:48:48Z</time>
      </trkpt>
      <trkpt lat="45.03723" lon="3.98665">
        <ele>704.3</ele>
        <time>2026-04-26T10:48:53Z</time>
      </trkpt>
      <trkpt lat="45.03728" lon="3.98657">
        <ele>703.9</ele>
        <time>2026-04-26T10:48:58Z</time>
      </trkpt>
      <trkpt lat="45.03733" lon="3.98649">
        <ele>703.5</ele>
        <time>2026-04-26T10:49:03Z</time>
      </trkpt>
      <trkpt lat="45.03738" lon="3.98642">
        <ele>703.2</ele>
        <time>2026-04-26T10:49:08Z</time>
      </trkpt>
      <trkpt lat="45.03744" lon="3.98637">
        <ele>703</ele>
        <time>2026-04-26T10:49:13Z</time>
      </trkpt>
      <trkpt lat="45.03751" lon="3.98631">
        <ele>702.7</ele>
        <time>2026-04-26T10:49:18Z</time>
      </trkpt>
      <trkpt lat="45.03758" lon="3.98625">
        <ele>702.6</ele>
        <time>2026-04-26T10:49:23Z</time>
      </trkpt>
      <trkpt lat="45.03765" lon="3.98619">
        <ele>702.5</ele>
        <time>2026-04-26T10:49:28Z</time>
      </trkpt>
      <trkpt lat="45.03772" lon="3.98614">
        <ele>702.5</ele>
        <time>2026-04-26T10:49:33Z</time>
      </trkpt>
      <trkpt lat="45.03779" lon="3.98609">
        <ele>702.4</ele>
        <time>2026-04-26T10:49:38Z</time>
      </trkpt>
      <trkpt lat="45.03787" lon="3.98604">
        <ele>702.3</ele>
        <time>2026-04-26T10:49:43Z</time>
      </trkpt>
      <trkpt lat="45.03793" lon="3.986">
        <ele>702.2</ele>
        <time>2026-04-26T10:49:48Z</time>
      </trkpt>
      <trkpt lat="45.03794" lon="3.98596">
        <ele>702.1</ele>
        <time>2026-04-26T10:49:53Z</time>
      </trkpt>
      <trkpt lat="45.03795" lon="3.98596">
        <ele>702.1</ele>
        <time>2026-04-26T10:49:58Z</time>
      </trkpt>
      <trkpt lat="45.03795" lon="3.98596">
        <ele>702.1</ele>
        <time>2026-04-26T10:50:03Z</time>
      </trkpt>
      <trkpt lat="45.03795" lon="3.98596">
        <ele>702.1</ele>
        <time>2026-04-26T10:50:08Z</time>
      </trkpt>
      <trkpt lat="45.03795" lon="3.98596">
        <ele>702.1</ele>
        <time>2026-04-26T10:50:13Z</time>
      </trkpt>
      <trkpt lat="45.03802" lon="3.98594">
        <ele>702.1</ele>
        <time>2026-04-26T10:50:18Z</time>
      </trkpt>
      <trkpt lat="45.03808" lon="3.98589">
        <ele>701.9</ele>
        <time>2026-04-26T10:50:23Z</time>
      </trkpt>
      <trkpt lat="45.03815" lon="3.98585">
        <ele>701.9</ele>
        <time>2026-04-26T10:50:28Z</time>
      </trkpt>
      <trkpt lat="45.03821" lon="3.98581">
        <ele>701.7</ele>
        <time>2026-04-26T10:50:33Z</time>
      </trkpt>
      <trkpt lat="45.03827" lon="3.98577">
        <ele>701.5</ele>
        <time>2026-04-26T10:50:38Z</time>
      </trkpt>
      <trkpt lat="45.03833" lon="3.98573">
        <ele>701.3</ele>
        <time>2026-04-26T10:50:43Z</time>
      </trkpt>
      <trkpt lat="45.03841" lon="3.98569">
        <ele>701.3</ele>
        <time>2026-04-26T10:50:48Z</time>
      </trkpt>
      <trkpt lat="45.03848" lon="3.98565">
        <ele>701.2</ele>
        <time>2026-04-26T10:50:53Z</time>
      </trkpt>
      <trkpt lat="45.03857" lon="3.98561">
        <ele>701.2</ele>
        <time>2026-04-26T10:50:58Z</time>
      </trkpt>
      <trkpt lat="45.03864" lon="3.98558">
        <ele>701.2</ele>
        <time>2026-04-26T10:51:03Z</time>
      </trkpt>
      <trkpt lat="45.03871" lon="3.98555">
        <ele>701.2</ele>
        <time>2026-04-26T10:51:08Z</time>
      </trkpt>
      <trkpt lat="45.03877" lon="3.98551">
        <ele>701</ele>
        <time>2026-04-26T10:51:13Z</time>
      </trkpt>
      <trkpt lat="45.03883" lon="3.98549">
        <ele>700.9</ele>
        <time>2026-04-26T10:51:18Z</time>
      </trkpt>
      <trkpt lat="45.0389" lon="3.98546">
        <ele>700.8</ele>
        <time>2026-04-26T10:51:23Z</time>
      </trkpt>
      <trkpt lat="45.03896" lon="3.98542">
        <ele>700.5</ele>
        <time>2026-04-26T10:51:28Z</time>
      </trkpt>
      <trkpt lat="45.03902" lon="3.9854">
        <ele>700.5</ele>
        <time>2026-04-26T10:51:33Z</time>
      </trkpt>
      <trkpt lat="45.03908" lon="3.98536">
        <ele>700.1</ele>
        <time>2026-04-26T10:51:38Z</time>
      </trkpt>
      <trkpt lat="45.03918" lon="3.98533">
        <ele>699.9</ele>
        <time>2026-04-26T10:51:43Z</time>
      </trkpt>
      <trkpt lat="45.03925" lon="3.98528">
        <ele>699</ele>
        <time>2026-04-26T10:51:48Z</time>
      </trkpt>
      <trkpt lat="45.03931" lon="3.98521">
        <ele>698</ele>
        <time>2026-04-26T10:51:53Z</time>
      </trkpt>
      <trkpt lat="45.03939" lon="3.98515">
        <ele>697.1</ele>
        <time>2026-04-26T10:51:58Z</time>
      </trkpt>
      <trkpt lat="45.03945" lon="3.98508">
        <ele>696.1</ele>
        <time>2026-04-26T10:52:03Z</time>
      </trkpt>
      <trkpt lat="45.0395" lon="3.98502">
        <ele>695.4</ele>
        <time>2026-04-26T10:52:08Z</time>
      </trkpt>
      <trkpt lat="45.03955" lon="3.98494">
        <ele>694.5</ele>
        <time>2026-04-26T10:52:13Z</time>
      </trkpt>
      <trkpt lat="45.0396" lon="3.98484">
        <ele>693.5</ele>
        <time>2026-04-26T10:52:18Z</time>
      </trkpt>
      <trkpt lat="45.03963" lon="3.98475">
        <ele>692.7</ele>
        <time>2026-04-26T10:52:23Z</time>
      </trkpt>
      <trkpt lat="45.03967" lon="3.98466">
        <ele>691.9</ele>
        <time>2026-04-26T10:52:28Z</time>
      </trkpt>
      <trkpt lat="45.0397" lon="3.98457">
        <ele>691.1</ele>
        <time>2026-04-26T10:52:33Z</time>
      </trkpt>
      <trkpt lat="45.03975" lon="3.98447">
        <ele>690.2</ele>
        <time>2026-04-26T10:52:38Z</time>
      </trkpt>
      <trkpt lat="45.03979" lon="3.98437">
        <ele>689.4</ele>
        <time>2026-04-26T10:52:43Z</time>
      </trkpt>
      <trkpt lat="45.03984" lon="3.9843">
        <ele>688.9</ele>
        <time>2026-04-26T10:52:48Z</time>
      </trkpt>
      <trkpt lat="45.03988" lon="3.98422">
        <ele>688.3</ele>
        <time>2026-04-26T10:52:53Z</time>
      </trkpt>
      <trkpt lat="45.03996" lon="3.98416">
        <ele>687.9</ele>
        <time>2026-04-26T10:52:58Z</time>
      </trkpt>
      <trkpt lat="45.04002" lon="3.9841">
        <ele>687.5</ele>
        <time>2026-04-26T10:53:03Z</time>
      </trkpt>
      <trkpt lat="45.04011" lon="3.98406">
        <ele>687</ele>
        <time>2026-04-26T10:53:08Z</time>
      </trkpt>
      <trkpt lat="45.04017" lon="3.98402">
        <ele>686.6</ele>
        <time>2026-04-26T10:53:13Z</time>
      </trkpt>
      <trkpt lat="45.04024" lon="3.98399">
        <ele>686.3</ele>
        <time>2026-04-26T10:53:18Z</time>
      </trkpt>
      <trkpt lat="45.04032" lon="3.98396">
        <ele>685.9</ele>
        <time>2026-04-26T10:53:23Z</time>
      </trkpt>
      <trkpt lat="45.04039" lon="3.98394">
        <ele>685.7</ele>
        <time>2026-04-26T10:53:28Z</time>
      </trkpt>
      <trkpt lat="45.04047" lon="3.98391">
        <ele>685.4</ele>
        <time>2026-04-26T10:53:33Z</time>
      </trkpt>
      <trkpt lat="45.04051" lon="3.9839">
        <ele>685.2</ele>
        <time>2026-04-26T10:53:38Z</time>
      </trkpt>
      <trkpt lat="45.04053" lon="3.98389">
        <ele>685.2</ele>
        <time>2026-04-26T10:53:43Z</time>
      </trkpt>
      <trkpt lat="45.04053" lon="3.98389">
        <ele>685.2</ele>
        <time>2026-04-26T10:53:48Z</time>
      </trkpt>
      <trkpt lat="45.04057" lon="3.98388">
        <ele>685</ele>
        <time>2026-04-26T10:53:53Z</time>
      </trkpt>
      <trkpt lat="45.04062" lon="3.98387">
        <ele>684.9</ele>
        <time>2026-04-26T10:53:58Z</time>
      </trkpt>
      <trkpt lat="45.04069" lon="3.98385">
        <ele>684.7</ele>
        <time>2026-04-26T10:54:03Z</time>
      </trkpt>
      <trkpt lat="45.04075" lon="3.98384">
        <ele>684.6</ele>
        <time>2026-04-26T10:54:08Z</time>
      </trkpt>
      <trkpt lat="45.04083" lon="3.98383">
        <ele>684.4</ele>
        <time>2026-04-26T10:54:13Z</time>
      </trkpt>
      <trkpt lat="45.0409" lon="3.98381">
        <ele>684.2</ele>
        <time>2026-04-26T10:54:18Z</time>
      </trkpt>
      <trkpt lat="45.04098" lon="3.98378">
        <ele>683.9</ele>
        <time>2026-04-26T10:54:23Z</time>
      </trkpt>
      <trkpt lat="45.04105" lon="3.98375">
        <ele>683.6</ele>
        <time>2026-04-26T10:54:28Z</time>
      </trkpt>
      <trkpt lat="45.04113" lon="3.98373">
        <ele>683.4</ele>
        <time>2026-04-26T10:54:33Z</time>
      </trkpt>
      <trkpt lat="45.04121" lon="3.9837">
        <ele>683.1</ele>
        <time>2026-04-26T10:54:38Z</time>
      </trkpt>
      <trkpt lat="45.04127" lon="3.98366">
        <ele>682.8</ele>
        <time>2026-04-26T10:54:43Z</time>
      </trkpt>
      <trkpt lat="45.04134" lon="3.98358">
        <ele>682.4</ele>
        <time>2026-04-26T10:54:48Z</time>
      </trkpt>
      <trkpt lat="45.04138" lon="3.98351">
        <ele>682.1</ele>
        <time>2026-04-26T10:54:53Z</time>
      </trkpt>
      <trkpt lat="45.04141" lon="3.98344">
        <ele>681.7</ele>
        <time>2026-04-26T10:54:58Z</time>
      </trkpt>
      <trkpt lat="45.04147" lon="3.98334">
        <ele>681.3</ele>
        <time>2026-04-26T10:55:03Z</time>
      </trkpt>
      <trkpt lat="45.04152" lon="3.98324">
        <ele>680.6</ele>
        <time>2026-04-26T10:55:08Z</time>
      </trkpt>
      <trkpt lat="45.04155" lon="3.98314">
        <ele>680</ele>
        <time>2026-04-26T10:55:13Z</time>
      </trkpt>
      <trkpt lat="45.0416" lon="3.98305">
        <ele>679.4</ele>
        <time>2026-04-26T10:55:18Z</time>
      </trkpt>
      <trkpt lat="45.04164" lon="3.98296">
        <ele>678.8</ele>
        <time>2026-04-26T10:55:23Z</time>
      </trkpt>
      <trkpt lat="45.04168" lon="3.98286">
        <ele>678.1</ele>
        <time>2026-04-26T10:55:28Z</time>
      </trkpt>
      <trkpt lat="45.04172" lon="3.98275">
        <ele>677.3</ele>
        <time>2026-04-26T10:55:33Z</time>
      </trkpt>
      <trkpt lat="45.04176" lon="3.98266">
        <ele>676.6</ele>
        <time>2026-04-26T10:55:38Z</time>
      </trkpt>
      <trkpt lat="45.0418" lon="3.98256">
        <ele>675.9</ele>
        <time>2026-04-26T10:55:43Z</time>
      </trkpt>
      <trkpt lat="45.04185" lon="3.98246">
        <ele>675.2</ele>
        <time>2026-04-26T10:55:48Z</time>
      </trkpt>
      <trkpt lat="45.04189" lon="3.98236">
        <ele>674.7</ele>
        <time>2026-04-26T10:55:53Z</time>
      </trkpt>
      <trkpt lat="45.04192" lon="3.98227">
        <ele>674.3</ele>
        <time>2026-04-26T10:55:58Z</time>
      </trkpt>
      <trkpt lat="45.04196" lon="3.98218">
        <ele>673.9</ele>
        <time>2026-04-26T10:56:03Z</time>
      </trkpt>
      <trkpt lat="45.042" lon="3.98208">
        <ele>673.5</ele>
        <time>2026-04-26T10:56:08Z</time>
      </trkpt>
      <trkpt lat="45.04203" lon="3.98198">
        <ele>673.1</ele>
        <time>2026-04-26T10:56:13Z</time>
      </trkpt>
      <trkpt lat="45.04206" lon="3.98188">
        <ele>672.7</ele>
        <time>2026-04-26T10:56:18Z</time>
      </trkpt>
      <trkpt lat="45.0421" lon="3.98177">
        <ele>672.3</ele>
        <time>2026-04-26T10:56:23Z</time>
      </trkpt>
      <trkpt lat="45.04213" lon="3.98167">
        <ele>671.9</ele>
        <time>2026-04-26T10:56:28Z</time>
      </trkpt>
      <trkpt lat="45.04216" lon="3.98159">
        <ele>671.7</ele>
        <time>2026-04-26T10:56:33Z</time>
      </trkpt>
      <trkpt lat="45.04219" lon="3.98148">
        <ele>671.6</ele>
        <time>2026-04-26T10:56:38Z</time>
      </trkpt>
      <trkpt lat="45.04222" lon="3.98139">
        <ele>671.4</ele>
        <time>2026-04-26T10:56:43Z</time>
      </trkpt>
      <trkpt lat="45.04225" lon="3.98129">
        <ele>671.3</ele>
        <time>2026-04-26T10:56:48Z</time>
      </trkpt>
      <trkpt lat="45.04229" lon="3.98119">
        <ele>671.2</ele>
        <time>2026-04-26T10:56:53Z</time>
      </trkpt>
      <trkpt lat="45.04232" lon="3.98108">
        <ele>671.1</ele>
        <time>2026-04-26T10:56:58Z</time>
      </trkpt>
      <trkpt lat="45.04234" lon="3.98098">
        <ele>671.1</ele>
        <time>2026-04-26T10:57:03Z</time>
      </trkpt>
      <trkpt lat="45.04238" lon="3.98088">
        <ele>671</ele>
        <time>2026-04-26T10:57:08Z</time>
      </trkpt>
      <trkpt lat="45.0424" lon="3.98078">
        <ele>671</ele>
        <time>2026-04-26T10:57:13Z</time>
      </trkpt>
      <trkpt lat="45.04243" lon="3.98068">
        <ele>671</ele>
        <time>2026-04-26T10:57:18Z</time>
      </trkpt>
      <trkpt lat="45.04246" lon="3.98058">
        <ele>671</ele>
        <time>2026-04-26T10:57:23Z</time>
      </trkpt>
      <trkpt lat="45.04248" lon="3.98048">
        <ele>671</ele>
        <time>2026-04-26T10:57:28Z</time>
      </trkpt>
      <trkpt lat="45.04252" lon="3.98036">
        <ele>671</ele>
        <time>2026-04-26T10:57:33Z</time>
      </trkpt>
      <trkpt lat="45.04254" lon="3.98025">
        <ele>671</ele>
        <time>2026-04-26T10:57:38Z</time>
      </trkpt>
      <trkpt lat="45.04255" lon="3.98015">
        <ele>670.9</ele>
        <time>2026-04-26T10:57:43Z</time>
      </trkpt>
      <trkpt lat="45.04258" lon="3.98004">
        <ele>670.9</ele>
        <time>2026-04-26T10:57:48Z</time>
      </trkpt>
      <trkpt lat="45.0426" lon="3.97994">
        <ele>670.8</ele>
        <time>2026-04-26T10:57:53Z</time>
      </trkpt>
      <trkpt lat="45.04263" lon="3.97984">
        <ele>670.7</ele>
        <time>2026-04-26T10:57:58Z</time>
      </trkpt>
      <trkpt lat="45.04264" lon="3.97972">
        <ele>670.6</ele>
        <time>2026-04-26T10:58:03Z</time>
      </trkpt>
      <trkpt lat="45.04265" lon="3.97961">
        <ele>670.5</ele>
        <time>2026-04-26T10:58:08Z</time>
      </trkpt>
      <trkpt lat="45.04268" lon="3.9795">
        <ele>670.4</ele>
        <time>2026-04-26T10:58:13Z</time>
      </trkpt>
      <trkpt lat="45.0427" lon="3.97939">
        <ele>670.4</ele>
        <time>2026-04-26T10:58:18Z</time>
      </trkpt>
      <trkpt lat="45.04271" lon="3.97929">
        <ele>670.3</ele>
        <time>2026-04-26T10:58:23Z</time>
      </trkpt>
      <trkpt lat="45.04272" lon="3.97918">
        <ele>670.3</ele>
        <time>2026-04-26T10:58:28Z</time>
      </trkpt>
      <trkpt lat="45.04274" lon="3.97908">
        <ele>670</ele>
        <time>2026-04-26T10:58:33Z</time>
      </trkpt>
      <trkpt lat="45.04275" lon="3.97897">
        <ele>669.7</ele>
        <time>2026-04-26T10:58:38Z</time>
      </trkpt>
      <trkpt lat="45.04276" lon="3.97885">
        <ele>669.4</ele>
        <time>2026-04-26T10:58:43Z</time>
      </trkpt>
      <trkpt lat="45.04277" lon="3.97875">
        <ele>669.1</ele>
        <time>2026-04-26T10:58:48Z</time>
      </trkpt>
      <trkpt lat="45.04279" lon="3.97865">
        <ele>668.9</ele>
        <time>2026-04-26T10:58:53Z</time>
      </trkpt>
      <trkpt lat="45.0428" lon="3.97854">
        <ele>668.6</ele>
        <time>2026-04-26T10:58:58Z</time>
      </trkpt>
      <trkpt lat="45.04281" lon="3.97842">
        <ele>668.4</ele>
        <time>2026-04-26T10:59:03Z</time>
      </trkpt>
      <trkpt lat="45.04282" lon="3.9783">
        <ele>668.1</ele>
        <time>2026-04-26T10:59:08Z</time>
      </trkpt>
      <trkpt lat="45.04283" lon="3.9782">
        <ele>668</ele>
        <time>2026-04-26T10:59:13Z</time>
      </trkpt>
      <trkpt lat="45.04285" lon="3.9781">
        <ele>668</ele>
        <time>2026-04-26T10:59:18Z</time>
      </trkpt>
      <trkpt lat="45.04286" lon="3.97799">
        <ele>667.9</ele>
        <time>2026-04-26T10:59:23Z</time>
      </trkpt>
      <trkpt lat="45.04287" lon="3.97788">
        <ele>667.8</ele>
        <time>2026-04-26T10:59:28Z</time>
      </trkpt>
      <trkpt lat="45.04288" lon="3.97776">
        <ele>667.7</ele>
        <time>2026-04-26T10:59:33Z</time>
      </trkpt>
      <trkpt lat="45.04288" lon="3.97765">
        <ele>667.5</ele>
        <time>2026-04-26T10:59:38Z</time>
      </trkpt>
      <trkpt lat="45.04289" lon="3.97753">
        <ele>667.4</ele>
        <time>2026-04-26T10:59:43Z</time>
      </trkpt>
      <trkpt lat="45.0429" lon="3.97744">
        <ele>667.4</ele>
        <time>2026-04-26T10:59:48Z</time>
      </trkpt>
      <trkpt lat="45.04291" lon="3.97732">
        <ele>667.4</ele>
        <time>2026-04-26T10:59:53Z</time>
      </trkpt>
      <trkpt lat="45.04294" lon="3.9772">
        <ele>667.4</ele>
        <time>2026-04-26T10:59:58Z</time>
      </trkpt>
      <trkpt lat="45.04295" lon="3.97709">
        <ele>667.3</ele>
        <time>2026-04-26T11:00:03Z</time>
      </trkpt>
      <trkpt lat="45.04295" lon="3.97699">
        <ele>667.2</ele>
        <time>2026-04-26T11:00:08Z</time>
      </trkpt>
      <trkpt lat="45.04295" lon="3.97687">
        <ele>667.2</ele>
        <time>2026-04-26T11:00:13Z</time>
      </trkpt>
      <trkpt lat="45.04295" lon="3.97676">
        <ele>667.1</ele>
        <time>2026-04-26T11:00:18Z</time>
      </trkpt>
      <trkpt lat="45.04297" lon="3.97666">
        <ele>667</ele>
        <time>2026-04-26T11:00:23Z</time>
      </trkpt>
      <trkpt lat="45.04298" lon="3.97657">
        <ele>667</ele>
        <time>2026-04-26T11:00:28Z</time>
      </trkpt>
      <trkpt lat="45.043" lon="3.97644">
        <ele>667</ele>
        <time>2026-04-26T11:00:33Z</time>
      </trkpt>
      <trkpt lat="45.04302" lon="3.97634">
        <ele>667</ele>
        <time>2026-04-26T11:00:38Z</time>
      </trkpt>
      <trkpt lat="45.04302" lon="3.97627">
        <ele>667</ele>
        <time>2026-04-26T11:00:43Z</time>
      </trkpt>
      <trkpt lat="45.04303" lon="3.97616">
        <ele>667</ele>
        <time>2026-04-26T11:00:48Z</time>
      </trkpt>
      <trkpt lat="45.04304" lon="3.97606">
        <ele>667</ele>
        <time>2026-04-26T11:00:53Z</time>
      </trkpt>
      <trkpt lat="45.04305" lon="3.97595">
        <ele>667</ele>
        <time>2026-04-26T11:00:58Z</time>
      </trkpt>
      <trkpt lat="45.04305" lon="3.97583">
        <ele>667</ele>
        <time>2026-04-26T11:01:03Z</time>
      </trkpt>
      <trkpt lat="45.04305" lon="3.97572">
        <ele>667</ele>
        <time>2026-04-26T11:01:08Z</time>
      </trkpt>
      <trkpt lat="45.04305" lon="3.97562">
        <ele>667</ele>
        <time>2026-04-26T11:01:13Z</time>
      </trkpt>
      <trkpt lat="45.04304" lon="3.97552">
        <ele>667</ele>
        <time>2026-04-26T11:01:18Z</time>
      </trkpt>
      <trkpt lat="45.04305" lon="3.97542">
        <ele>667</ele>
        <time>2026-04-26T11:01:23Z</time>
      </trkpt>
      <trkpt lat="45.04306" lon="3.97532">
        <ele>667</ele>
        <time>2026-04-26T11:01:28Z</time>
      </trkpt>
      <trkpt lat="45.04303" lon="3.97521">
        <ele>667</ele>
        <time>2026-04-26T11:01:33Z</time>
      </trkpt>
      <trkpt lat="45.043" lon="3.9751">
        <ele>667</ele>
        <time>2026-04-26T11:01:38Z</time>
      </trkpt>
      <trkpt lat="45.04298" lon="3.975">
        <ele>667</ele>
        <time>2026-04-26T11:01:43Z</time>
      </trkpt>
      <trkpt lat="45.04295" lon="3.97492">
        <ele>667</ele>
        <time>2026-04-26T11:01:48Z</time>
      </trkpt>
      <trkpt lat="45.0429" lon="3.97484">
        <ele>666.9</ele>
        <time>2026-04-26T11:01:53Z</time>
      </trkpt>
      <trkpt lat="45.04284" lon="3.97476">
        <ele>666.8</ele>
        <time>2026-04-26T11:01:58Z</time>
      </trkpt>
      <trkpt lat="45.0428" lon="3.9747">
        <ele>666.8</ele>
        <time>2026-04-26T11:02:03Z</time>
      </trkpt>
      <trkpt lat="45.04276" lon="3.9746">
        <ele>666.7</ele>
        <time>2026-04-26T11:02:08Z</time>
      </trkpt>
      <trkpt lat="45.04271" lon="3.97451">
        <ele>666.6</ele>
        <time>2026-04-26T11:02:13Z</time>
      </trkpt>
      <trkpt lat="45.04267" lon="3.97443">
        <ele>666.5</ele>
        <time>2026-04-26T11:02:18Z</time>
      </trkpt>
      <trkpt lat="45.04264" lon="3.97433">
        <ele>666.3</ele>
        <time>2026-04-26T11:02:23Z</time>
      </trkpt>
      <trkpt lat="45.04259" lon="3.97425">
        <ele>666.2</ele>
        <time>2026-04-26T11:02:28Z</time>
      </trkpt>
      <trkpt lat="45.04254" lon="3.97417">
        <ele>666.1</ele>
        <time>2026-04-26T11:02:33Z</time>
      </trkpt>
      <trkpt lat="45.04247" lon="3.9741">
        <ele>665.9</ele>
        <time>2026-04-26T11:02:38Z</time>
      </trkpt>
      <trkpt lat="45.0424" lon="3.97405">
        <ele>665.8</ele>
        <time>2026-04-26T11:02:43Z</time>
      </trkpt>
      <trkpt lat="45.04233" lon="3.97402">
        <ele>665.7</ele>
        <time>2026-04-26T11:02:48Z</time>
      </trkpt>
      <trkpt lat="45.04225" lon="3.97402">
        <ele>665.6</ele>
        <time>2026-04-26T11:02:53Z</time>
      </trkpt>
      <trkpt lat="45.04217" lon="3.97402">
        <ele>665.6</ele>
        <time>2026-04-26T11:02:58Z</time>
      </trkpt>
      <trkpt lat="45.0421" lon="3.97402">
        <ele>665.5</ele>
        <time>2026-04-26T11:03:03Z</time>
      </trkpt>
      <trkpt lat="45.04203" lon="3.97402">
        <ele>665.5</ele>
        <time>2026-04-26T11:03:08Z</time>
      </trkpt>
      <trkpt lat="45.04195" lon="3.97402">
        <ele>665.4</ele>
        <time>2026-04-26T11:03:13Z</time>
      </trkpt>
      <trkpt lat="45.04188" lon="3.97401">
        <ele>665.3</ele>
        <time>2026-04-26T11:03:18Z</time>
      </trkpt>
      <trkpt lat="45.0418" lon="3.97399">
        <ele>665.3</ele>
        <time>2026-04-26T11:03:23Z</time>
      </trkpt>
      <trkpt lat="45.04173" lon="3.97398">
        <ele>665.3</ele>
        <time>2026-04-26T11:03:28Z</time>
      </trkpt>
      <trkpt lat="45.04166" lon="3.97397">
        <ele>665.3</ele>
        <time>2026-04-26T11:03:33Z</time>
      </trkpt>
      <trkpt lat="45.04159" lon="3.97395">
        <ele>665.4</ele>
        <time>2026-04-26T11:03:38Z</time>
      </trkpt>
      <trkpt lat="45.04152" lon="3.97393">
        <ele>665.6</ele>
        <time>2026-04-26T11:03:43Z</time>
      </trkpt>
      <trkpt lat="45.04144" lon="3.97393">
        <ele>665.8</ele>
        <time>2026-04-26T11:03:48Z</time>
      </trkpt>
      <trkpt lat="45.04136" lon="3.97391">
        <ele>665.9</ele>
        <time>2026-04-26T11:03:53Z</time>
      </trkpt>
      <trkpt lat="45.04128" lon="3.97389">
        <ele>666.1</ele>
        <time>2026-04-26T11:03:58Z</time>
      </trkpt>
      <trkpt lat="45.04121" lon="3.97387">
        <ele>666.3</ele>
        <time>2026-04-26T11:04:03Z</time>
      </trkpt>
      <trkpt lat="45.04114" lon="3.97385">
        <ele>666.4</ele>
        <time>2026-04-26T11:04:08Z</time>
      </trkpt>
      <trkpt lat="45.04107" lon="3.97384">
        <ele>666.5</ele>
        <time>2026-04-26T11:04:13Z</time>
      </trkpt>
      <trkpt lat="45.041" lon="3.9738">
        <ele>666.7</ele>
        <time>2026-04-26T11:04:18Z</time>
      </trkpt>
      <trkpt lat="45.04091" lon="3.97378">
        <ele>666.9</ele>
        <time>2026-04-26T11:04:23Z</time>
      </trkpt>
      <trkpt lat="45.04084" lon="3.97374">
        <ele>667</ele>
        <time>2026-04-26T11:04:28Z</time>
      </trkpt>
      <trkpt lat="45.04076" lon="3.97371">
        <ele>667</ele>
        <time>2026-04-26T11:04:33Z</time>
      </trkpt>
      <trkpt lat="45.04069" lon="3.97368">
        <ele>666.9</ele>
        <time>2026-04-26T11:04:38Z</time>
      </trkpt>
      <trkpt lat="45.04061" lon="3.97367">
        <ele>666.9</ele>
        <time>2026-04-26T11:04:43Z</time>
      </trkpt>
      <trkpt lat="45.04054" lon="3.97368">
        <ele>666.9</ele>
        <time>2026-04-26T11:04:48Z</time>
      </trkpt>
      <trkpt lat="45.04048" lon="3.97369">
        <ele>666.8</ele>
        <time>2026-04-26T11:04:53Z</time>
      </trkpt>
      <trkpt lat="45.04044" lon="3.97371">
        <ele>666.8</ele>
        <time>2026-04-26T11:04:58Z</time>
      </trkpt>
      <trkpt lat="45.04044" lon="3.97371">
        <ele>666.8</ele>
        <time>2026-04-26T11:05:03Z</time>
      </trkpt>
      <trkpt lat="45.04044" lon="3.97371">
        <ele>666.8</ele>
        <time>2026-04-26T11:05:08Z</time>
      </trkpt>
      <trkpt lat="45.04039" lon="3.97376">
        <ele>666.7</ele>
        <time>2026-04-26T11:05:13Z</time>
      </trkpt>
      <trkpt lat="45.04034" lon="3.97381">
        <ele>666.7</ele>
        <time>2026-04-26T11:05:18Z</time>
      </trkpt>
      <trkpt lat="45.04027" lon="3.97384">
        <ele>666.6</ele>
        <time>2026-04-26T11:05:23Z</time>
      </trkpt>
      <trkpt lat="45.0402" lon="3.97388">
        <ele>666.5</ele>
        <time>2026-04-26T11:05:28Z</time>
      </trkpt>
      <trkpt lat="45.04014" lon="3.97389">
        <ele>666.4</ele>
        <time>2026-04-26T11:05:33Z</time>
      </trkpt>
      <trkpt lat="45.04007" lon="3.9739">
        <ele>666.4</ele>
        <time>2026-04-26T11:05:38Z</time>
      </trkpt>
      <trkpt lat="45.03999" lon="3.9739">
        <ele>666.3</ele>
        <time>2026-04-26T11:05:43Z</time>
      </trkpt>
      <trkpt lat="45.03992" lon="3.97389">
        <ele>666.2</ele>
        <time>2026-04-26T11:05:48Z</time>
      </trkpt>
      <trkpt lat="45.03985" lon="3.97388">
        <ele>666.2</ele>
        <time>2026-04-26T11:05:53Z</time>
      </trkpt>
      <trkpt lat="45.03979" lon="3.97387">
        <ele>666.1</ele>
        <time>2026-04-26T11:05:58Z</time>
      </trkpt>
      <trkpt lat="45.03975" lon="3.97387">
        <ele>666.1</ele>
        <time>2026-04-26T11:06:03Z</time>
      </trkpt>
      <trkpt lat="45.0397" lon="3.97386">
        <ele>666</ele>
        <time>2026-04-26T11:06:08Z</time>
      </trkpt>
      <trkpt lat="45.03962" lon="3.97384">
        <ele>665.9</ele>
        <time>2026-04-26T11:06:13Z</time>
      </trkpt>
      <trkpt lat="45.03955" lon="3.97383">
        <ele>665.9</ele>
        <time>2026-04-26T11:06:18Z</time>
      </trkpt>
      <trkpt lat="45.03947" lon="3.97381">
        <ele>665.8</ele>
        <time>2026-04-26T11:06:23Z</time>
      </trkpt>
      <trkpt lat="45.0394" lon="3.9738">
        <ele>665.7</ele>
        <time>2026-04-26T11:06:28Z</time>
      </trkpt>
      <trkpt lat="45.03934" lon="3.97378">
        <ele>665.7</ele>
        <time>2026-04-26T11:06:33Z</time>
      </trkpt>
      <trkpt lat="45.03925" lon="3.97377">
        <ele>665.6</ele>
        <time>2026-04-26T11:06:38Z</time>
      </trkpt>
      <trkpt lat="45.03918" lon="3.97377">
        <ele>665.5</ele>
        <time>2026-04-26T11:06:43Z</time>
      </trkpt>
      <trkpt lat="45.03911" lon="3.97377">
        <ele>665.5</ele>
        <time>2026-04-26T11:06:48Z</time>
      </trkpt>
      <trkpt lat="45.03905" lon="3.97376">
        <ele>665.6</ele>
        <time>2026-04-26T11:06:53Z</time>
      </trkpt>
      <trkpt lat="45.03902" lon="3.97375">
        <ele>665.6</ele>
        <time>2026-04-26T11:06:58Z</time>
      </trkpt>
      <trkpt lat="45.03899" lon="3.97371">
        <ele>665.6</ele>
        <time>2026-04-26T11:07:03Z</time>
      </trkpt>
      <trkpt lat="45.03896" lon="3.9736">
        <ele>665.8</ele>
        <time>2026-04-26T11:07:08Z</time>
      </trkpt>
      <trkpt lat="45.03895" lon="3.97351">
        <ele>665.8</ele>
        <time>2026-04-26T11:07:13Z</time>
      </trkpt>
      <trkpt lat="45.03895" lon="3.97342">
        <ele>665.9</ele>
        <time>2026-04-26T11:07:18Z</time>
      </trkpt>
      <trkpt lat="45.03894" lon="3.97332">
        <ele>666</ele>
        <time>2026-04-26T11:07:23Z</time>
      </trkpt>
      <trkpt lat="45.03894" lon="3.97321">
        <ele>666.1</ele>
        <time>2026-04-26T11:07:28Z</time>
      </trkpt>
      <trkpt lat="45.03893" lon="3.97312">
        <ele>666.3</ele>
        <time>2026-04-26T11:07:33Z</time>
      </trkpt>
      <trkpt lat="45.03892" lon="3.97303">
        <ele>666.4</ele>
        <time>2026-04-26T11:07:38Z</time>
      </trkpt>
      <trkpt lat="45.03889" lon="3.97292">
        <ele>666.5</ele>
        <time>2026-04-26T11:07:43Z</time>
      </trkpt>
      <trkpt lat="45.03886" lon="3.97282">
        <ele>666.6</ele>
        <time>2026-04-26T11:07:48Z</time>
      </trkpt>
      <trkpt lat="45.0388" lon="3.97275">
        <ele>666.7</ele>
        <time>2026-04-26T11:07:53Z</time>
      </trkpt>
      <trkpt lat="45.03873" lon="3.97273">
        <ele>666.7</ele>
        <time>2026-04-26T11:07:58Z</time>
      </trkpt>
      <trkpt lat="45.03866" lon="3.97269">
        <ele>666.8</ele>
        <time>2026-04-26T11:08:03Z</time>
      </trkpt>
      <trkpt lat="45.03858" lon="3.97266">
        <ele>666.8</ele>
        <time>2026-04-26T11:08:08Z</time>
      </trkpt>
      <trkpt lat="45.03851" lon="3.97265">
        <ele>666.8</ele>
        <time>2026-04-26T11:08:13Z</time>
      </trkpt>
      <trkpt lat="45.03845" lon="3.97263">
        <ele>666.8</ele>
        <time>2026-04-26T11:08:18Z</time>
      </trkpt>
      <trkpt lat="45.03837" lon="3.97261">
        <ele>666.9</ele>
        <time>2026-04-26T11:08:23Z</time>
      </trkpt>
      <trkpt lat="45.03831" lon="3.97258">
        <ele>667</ele>
        <time>2026-04-26T11:08:28Z</time>
      </trkpt>
      <trkpt lat="45.03823" lon="3.97258">
        <ele>667.2</ele>
        <time>2026-04-26T11:08:33Z</time>
      </trkpt>
      <trkpt lat="45.03816" lon="3.97256">
        <ele>667.4</ele>
        <time>2026-04-26T11:08:38Z</time>
      </trkpt>
      <trkpt lat="45.0381" lon="3.97252">
        <ele>667.5</ele>
        <time>2026-04-26T11:08:43Z</time>
      </trkpt>
      <trkpt lat="45.03809" lon="3.97248">
        <ele>667.6</ele>
        <time>2026-04-26T11:08:48Z</time>
      </trkpt>
      <trkpt lat="45.0381" lon="3.97247">
        <ele>667.6</ele>
        <time>2026-04-26T11:08:53Z</time>
      </trkpt>
      <trkpt lat="45.0381" lon="3.97245">
        <ele>667.6</ele>
        <time>2026-04-26T11:08:58Z</time>
      </trkpt>
      <trkpt lat="45.03811" lon="3.97238">
        <ele>667.6</ele>
        <time>2026-04-26T11:09:03Z</time>
      </trkpt>
      <trkpt lat="45.03814" lon="3.97232">
        <ele>667.6</ele>
        <time>2026-04-26T11:09:08Z</time>
      </trkpt>
      <trkpt lat="45.03816" lon="3.97221">
        <ele>667.7</ele>
        <time>2026-04-26T11:09:13Z</time>
      </trkpt>
      <trkpt lat="45.03819" lon="3.97209">
        <ele>667.8</ele>
        <time>2026-04-26T11:09:18Z</time>
      </trkpt>
      <trkpt lat="45.0382" lon="3.97201">
        <ele>667.8</ele>
        <time>2026-04-26T11:09:23Z</time>
      </trkpt>
      <trkpt lat="45.03822" lon="3.97189">
        <ele>667.9</ele>
        <time>2026-04-26T11:09:28Z</time>
      </trkpt>
      <trkpt lat="45.03823" lon="3.9718">
        <ele>668</ele>
        <time>2026-04-26T11:09:33Z</time>
      </trkpt>
      <trkpt lat="45.03825" lon="3.97175">
        <ele>668</ele>
        <time>2026-04-26T11:09:38Z</time>
      </trkpt>
      <trkpt lat="45.03827" lon="3.97169">
        <ele>668.1</ele>
        <time>2026-04-26T11:09:43Z</time>
      </trkpt>
      <trkpt lat="45.03827" lon="3.97168">
        <ele>668.1</ele>
        <time>2026-04-26T11:09:48Z</time>
      </trkpt>
      <trkpt lat="45.03828" lon="3.97168">
        <ele>668</ele>
        <time>2026-04-26T11:09:53Z</time>
      </trkpt>
      <trkpt lat="45.03828" lon="3.97168">
        <ele>668</ele>
        <time>2026-04-26T11:09:58Z</time>
      </trkpt>
      <trkpt lat="45.03828" lon="3.97168">
        <ele>668</ele>
        <time>2026-04-26T11:10:03Z</time>
      </trkpt>
      <trkpt lat="45.03828" lon="3.97162">
        <ele>668.2</ele>
        <time>2026-04-26T11:10:08Z</time>
      </trkpt>
      <trkpt lat="45.0383" lon="3.97155">
        <ele>668.3</ele>
        <time>2026-04-26T11:10:13Z</time>
      </trkpt>
      <trkpt lat="45.03832" lon="3.97142">
        <ele>668.6</ele>
        <time>2026-04-26T11:10:18Z</time>
      </trkpt>
      <trkpt lat="45.03834" lon="3.97131">
        <ele>668.9</ele>
        <time>2026-04-26T11:10:23Z</time>
      </trkpt>
      <trkpt lat="45.03834" lon="3.97122">
        <ele>669.1</ele>
        <time>2026-04-26T11:10:28Z</time>
      </trkpt>
      <trkpt lat="45.03833" lon="3.9711">
        <ele>669.4</ele>
        <time>2026-04-26T11:10:33Z</time>
      </trkpt>
      <trkpt lat="45.03835" lon="3.971">
        <ele>669.6</ele>
        <time>2026-04-26T11:10:38Z</time>
      </trkpt>
      <trkpt lat="45.03836" lon="3.97091">
        <ele>669.8</ele>
        <time>2026-04-26T11:10:43Z</time>
      </trkpt>
      <trkpt lat="45.0384" lon="3.97083">
        <ele>669.9</ele>
        <time>2026-04-26T11:10:48Z</time>
      </trkpt>
      <trkpt lat="45.03841" lon="3.97073">
        <ele>670.5</ele>
        <time>2026-04-26T11:10:53Z</time>
      </trkpt>
      <trkpt lat="45.03843" lon="3.97064">
        <ele>671</ele>
        <time>2026-04-26T11:10:58Z</time>
      </trkpt>
      <trkpt lat="45.03846" lon="3.97057">
        <ele>671.4</ele>
        <time>2026-04-26T11:11:03Z</time>
      </trkpt>
      <trkpt lat="45.03849" lon="3.97048">
        <ele>671.9</ele>
        <time>2026-04-26T11:11:08Z</time>
      </trkpt>
      <trkpt lat="45.03854" lon="3.9704">
        <ele>672.2</ele>
        <time>2026-04-26T11:11:13Z</time>
      </trkpt>
      <trkpt lat="45.03859" lon="3.9703">
        <ele>672.7</ele>
        <time>2026-04-26T11:11:18Z</time>
      </trkpt>
      <trkpt lat="45.03864" lon="3.97023">
        <ele>673</ele>
        <time>2026-04-26T11:11:23Z</time>
      </trkpt>
      <trkpt lat="45.03869" lon="3.97017">
        <ele>673.2</ele>
        <time>2026-04-26T11:11:28Z</time>
      </trkpt>
      <trkpt lat="45.03873" lon="3.9701">
        <ele>673.5</ele>
        <time>2026-04-26T11:11:33Z</time>
      </trkpt>
      <trkpt lat="45.03876" lon="3.97002">
        <ele>673.9</ele>
        <time>2026-04-26T11:11:38Z</time>
      </trkpt>
      <trkpt lat="45.03877" lon="3.96997">
        <ele>674.1</ele>
        <time>2026-04-26T11:11:43Z</time>
      </trkpt>
      <trkpt lat="45.03881" lon="3.96994">
        <ele>674.1</ele>
        <time>2026-04-26T11:11:48Z</time>
      </trkpt>
      <trkpt lat="45.03884" lon="3.96993">
        <ele>674.1</ele>
        <time>2026-04-26T11:11:53Z</time>
      </trkpt>
      <trkpt lat="45.03884" lon="3.96994">
        <ele>674.1</ele>
        <time>2026-04-26T11:11:58Z</time>
      </trkpt>
      <trkpt lat="45.03884" lon="3.96994">
        <ele>674.1</ele>
        <time>2026-04-26T11:12:03Z</time>
      </trkpt>
      <trkpt lat="45.03884" lon="3.96994">
        <ele>674.1</ele>
        <time>2026-04-26T11:12:08Z</time>
      </trkpt>
      <trkpt lat="45.03884" lon="3.96994">
        <ele>674.1</ele>
        <time>2026-04-26T11:12:13Z</time>
      </trkpt>
      <trkpt lat="45.03884" lon="3.96994">
        <ele>674.1</ele>
        <time>2026-04-26T11:12:18Z</time>
      </trkpt>
      <trkpt lat="45.03881" lon="3.96991">
        <ele>674.3</ele>
        <time>2026-04-26T11:12:23Z</time>
      </trkpt>
      <trkpt lat="45.03879" lon="3.96987">
        <ele>674.5</ele>
        <time>2026-04-26T11:12:28Z</time>
      </trkpt>
      <trkpt lat="45.03874" lon="3.9698">
        <ele>675</ele>
        <time>2026-04-26T11:12:33Z</time>
      </trkpt>
      <trkpt lat="45.03869" lon="3.96973">
        <ele>675.4</ele>
        <time>2026-04-26T11:12:38Z</time>
      </trkpt>
      <trkpt lat="45.03866" lon="3.96965">
        <ele>675.9</ele>
        <time>2026-04-26T11:12:43Z</time>
      </trkpt>
      <trkpt lat="45.03863" lon="3.96957">
        <ele>676.4</ele>
        <time>2026-04-26T11:12:48Z</time>
      </trkpt>
      <trkpt lat="45.03861" lon="3.96949">
        <ele>676.8</ele>
        <time>2026-04-26T11:12:53Z</time>
      </trkpt>
      <trkpt lat="45.03858" lon="3.96942">
        <ele>677.2</ele>
        <time>2026-04-26T11:12:58Z</time>
      </trkpt>
      <trkpt lat="45.03854" lon="3.96935">
        <ele>677.6</ele>
        <time>2026-04-26T11:13:03Z</time>
      </trkpt>
      <trkpt lat="45.03851" lon="3.96931">
        <ele>677.9</ele>
        <time>2026-04-26T11:13:08Z</time>
      </trkpt>
      <trkpt lat="45.03847" lon="3.96927">
        <ele>678.2</ele>
        <time>2026-04-26T11:13:13Z</time>
      </trkpt>
      <trkpt lat="45.03844" lon="3.96923">
        <ele>678.4</ele>
        <time>2026-04-26T11:13:18Z</time>
      </trkpt>
      <trkpt lat="45.03842" lon="3.96922">
        <ele>678.5</ele>
        <time>2026-04-26T11:13:23Z</time>
      </trkpt>
      <trkpt lat="45.03842" lon="3.96922">
        <ele>678.5</ele>
        <time>2026-04-26T11:13:28Z</time>
      </trkpt>
      <trkpt lat="45.0384" lon="3.96922">
        <ele>678.6</ele>
        <time>2026-04-26T11:13:33Z</time>
      </trkpt>
      <trkpt lat="45.03835" lon="3.9692">
        <ele>678.8</ele>
        <time>2026-04-26T11:13:38Z</time>
      </trkpt>
      <trkpt lat="45.03831" lon="3.96915">
        <ele>679.1</ele>
        <time>2026-04-26T11:13:43Z</time>
      </trkpt>
      <trkpt lat="45.03827" lon="3.96909">
        <ele>679.3</ele>
        <time>2026-04-26T11:13:48Z</time>
      </trkpt>
      <trkpt lat="45.03824" lon="3.96903">
        <ele>679.4</ele>
        <time>2026-04-26T11:13:53Z</time>
      </trkpt>
      <trkpt lat="45.0382" lon="3.969">
        <ele>679.6</ele>
        <time>2026-04-26T11:13:58Z</time>
      </trkpt>
      <trkpt lat="45.03819" lon="3.96891">
        <ele>679.7</ele>
        <time>2026-04-26T11:14:03Z</time>
      </trkpt>
      <trkpt lat="45.03818" lon="3.96887">
        <ele>679.8</ele>
        <time>2026-04-26T11:14:08Z</time>
      </trkpt>
      <trkpt lat="45.03813" lon="3.96891">
        <ele>679.9</ele>
        <time>2026-04-26T11:14:13Z</time>
      </trkpt>
      <trkpt lat="45.03808" lon="3.96897">
        <ele>679.9</ele>
        <time>2026-04-26T11:14:18Z</time>
      </trkpt>
      <trkpt lat="45.03802" lon="3.96899">
        <ele>680</ele>
        <time>2026-04-26T11:14:23Z</time>
      </trkpt>
      <trkpt lat="45.03796" lon="3.96903">
        <ele>680.1</ele>
        <time>2026-04-26T11:14:28Z</time>
      </trkpt>
      <trkpt lat="45.03791" lon="3.9691">
        <ele>680.1</ele>
        <time>2026-04-26T11:14:33Z</time>
      </trkpt>
      <trkpt lat="45.03789" lon="3.96914">
        <ele>680.1</ele>
        <time>2026-04-26T11:14:38Z</time>
      </trkpt>
      <trkpt lat="45.03788" lon="3.96919">
        <ele>680</ele>
        <time>2026-04-26T11:14:43Z</time>
      </trkpt>
      <trkpt lat="45.03786" lon="3.9692">
        <ele>680</ele>
        <time>2026-04-26T11:14:48Z</time>
      </trkpt>
      <trkpt lat="45.03785" lon="3.96924">
        <ele>679.8</ele>
        <time>2026-04-26T11:14:53Z</time>
      </trkpt>
      <trkpt lat="45.03785" lon="3.96924">
        <ele>679.8</ele>
        <time>2026-04-26T11:14:58Z</time>
      </trkpt>
      <trkpt lat="45.03785" lon="3.96924">
        <ele>679.8</ele>
        <time>2026-04-26T11:15:03Z</time>
      </trkpt>
      <trkpt lat="45.03785" lon="3.96924">
        <ele>679.8</ele>
        <time>2026-04-26T11:15:08Z</time>
      </trkpt>
      <trkpt lat="45.03785" lon="3.96924">
        <ele>679.8</ele>
        <time>2026-04-26T11:15:13Z</time>
      </trkpt>
      <trkpt lat="45.03785" lon="3.96924">
        <ele>679.8</ele>
        <time>2026-04-26T11:15:18Z</time>
      </trkpt>
      <trkpt lat="45.03796" lon="3.96916">
        <ele>679.9</ele>
        <time>2026-04-26T11:15:23Z</time>
      </trkpt>
      <trkpt lat="45.03799" lon="3.9691">
        <ele>679.9</ele>
        <time>2026-04-26T11:15:28Z</time>
      </trkpt>
      <trkpt lat="45.03806" lon="3.96906">
        <ele>679.8</ele>
        <time>2026-04-26T11:15:33Z</time>
      </trkpt>
      <trkpt lat="45.03812" lon="3.96902">
        <ele>679.7</ele>
        <time>2026-04-26T11:15:38Z</time>
      </trkpt>
      <trkpt lat="45.03811" lon="3.969">
        <ele>679.8</ele>
        <time>2026-04-26T11:15:43Z</time>
      </trkpt>
      <trkpt lat="45.03811" lon="3.969">
        <ele>679.8</ele>
        <time>2026-04-26T11:15:43Z</time>
      </trkpt>
      <trkpt lat="45.03809" lon="3.96894">
        <ele>679.9</ele>
        <time>2026-04-26T11:16:41Z</time>
      </trkpt>
      <trkpt lat="45.03809" lon="3.96894">
        <ele>679.9</ele>
        <time>2026-04-26T11:16:46Z</time>
      </trkpt>
      <trkpt lat="45.03809" lon="3.96894">
        <ele>679.9</ele>
        <time>2026-04-26T11:16:51Z</time>
      </trkpt>
      <trkpt lat="45.03807" lon="3.96903">
        <ele>679.8</ele>
        <time>2026-04-26T11:16:56Z</time>
      </trkpt>
      <trkpt lat="45.03807" lon="3.96905">
        <ele>679.8</ele>
        <time>2026-04-26T11:17:01Z</time>
      </trkpt>
      <trkpt lat="45.03807" lon="3.96905">
        <ele>679.8</ele>
        <time>2026-04-26T11:17:06Z</time>
      </trkpt>
      <trkpt lat="45.03807" lon="3.96905">
        <ele>679.8</ele>
        <time>2026-04-26T11:17:11Z</time>
      </trkpt>
      <trkpt lat="45.03805" lon="3.96917">
        <ele>679.7</ele>
        <time>2026-04-26T11:17:16Z</time>
      </trkpt>
      <trkpt lat="45.03805" lon="3.96917">
        <ele>679.7</ele>
        <time>2026-04-26T11:17:21Z</time>
      </trkpt>
      <trkpt lat="45.03805" lon="3.96917">
        <ele>679.7</ele>
        <time>2026-04-26T11:17:26Z</time>
      </trkpt>
      <trkpt lat="45.03805" lon="3.96917">
        <ele>679.7</ele>
        <time>2026-04-26T11:17:31Z</time>
      </trkpt>
      <trkpt lat="45.03805" lon="3.96917">
        <ele>679.7</ele>
        <time>2026-04-26T11:17:36Z</time>
      </trkpt>
      <trkpt lat="45.03805" lon="3.96917">
        <ele>679.7</ele>
        <time>2026-04-26T11:17:41Z</time>
      </trkpt>
      <trkpt lat="45.03805" lon="3.96917">
        <ele>679.7</ele>
        <time>2026-04-26T11:17:46Z</time>
      </trkpt>
      <trkpt lat="45.03805" lon="3.96917">
        <ele>679.7</ele>
        <time>2026-04-26T11:17:51Z</time>
      </trkpt>
      <trkpt lat="45.0381" lon="3.96904">
        <ele>679.8</ele>
        <time>2026-04-26T11:17:56Z</time>
      </trkpt>
      <trkpt lat="45.0381" lon="3.96904">
        <ele>679.8</ele>
        <time>2026-04-26T11:18:01Z</time>
      </trkpt>
      <trkpt lat="45.0381" lon="3.96904">
        <ele>679.8</ele>
        <time>2026-04-26T11:18:06Z</time>
      </trkpt>
      <trkpt lat="45.0381" lon="3.96904">
        <ele>679.8</ele>
        <time>2026-04-26T11:18:11Z</time>
      </trkpt>
      <trkpt lat="45.0381" lon="3.96904">
        <ele>679.8</ele>
        <time>2026-04-26T11:18:16Z</time>
      </trkpt>
      <trkpt lat="45.03813" lon="3.96896">
        <ele>679.8</ele>
        <time>2026-04-26T11:18:21Z</time>
      </trkpt>
      <trkpt lat="45.03814" lon="3.96889">
        <ele>679.9</ele>
        <time>2026-04-26T11:18:26Z</time>
      </trkpt>
      <trkpt lat="45.03814" lon="3.96883">
        <ele>680</ele>
        <time>2026-04-26T11:18:31Z</time>
      </trkpt>
      <trkpt lat="45.03813" lon="3.96876">
        <ele>680.1</ele>
        <time>2026-04-26T11:18:36Z</time>
      </trkpt>
      <trkpt lat="45.03813" lon="3.96876">
        <ele>680.1</ele>
        <time>2026-04-26T11:18:41Z</time>
      </trkpt>
      <trkpt lat="45.03813" lon="3.96876">
        <ele>680.1</ele>
        <time>2026-04-26T11:18:46Z</time>
      </trkpt>
      <trkpt lat="45.03813" lon="3.96876">
        <ele>680.1</ele>
        <time>2026-04-26T11:18:51Z</time>
      </trkpt>
      <trkpt lat="45.03813" lon="3.96876">
        <ele>680.1</ele>
        <time>2026-04-26T11:18:56Z</time>
      </trkpt>
      <trkpt lat="45.03813" lon="3.96876">
        <ele>680.1</ele>
        <time>2026-04-26T11:19:01Z</time>
      </trkpt>
      <trkpt lat="45.03822" lon="3.96875">
        <ele>679.8</ele>
        <time>2026-04-26T11:19:06Z</time>
      </trkpt>
      <trkpt lat="45.03827" lon="3.96871">
        <ele>679.7</ele>
        <time>2026-04-26T11:19:11Z</time>
      </trkpt>
      <trkpt lat="45.03836" lon="3.96875">
        <ele>679.4</ele>
        <time>2026-04-26T11:19:16Z</time>
      </trkpt>
      <trkpt lat="45.03842" lon="3.96876">
        <ele>679.2</ele>
        <time>2026-04-26T11:19:21Z</time>
      </trkpt>
      <trkpt lat="45.03848" lon="3.96874">
        <ele>679.1</ele>
        <time>2026-04-26T11:19:26Z</time>
      </trkpt>
      <trkpt lat="45.03857" lon="3.96871">
        <ele>678.8</ele>
        <time>2026-04-26T11:19:31Z</time>
      </trkpt>
      <trkpt lat="45.03864" lon="3.96869">
        <ele>678.6</ele>
        <time>2026-04-26T11:19:36Z</time>
      </trkpt>
      <trkpt lat="45.03865" lon="3.96862">
        <ele>678.6</ele>
        <time>2026-04-26T11:19:41Z</time>
      </trkpt>
      <trkpt lat="45.03869" lon="3.96863">
        <ele>678.5</ele>
        <time>2026-04-26T11:19:46Z</time>
      </trkpt>
      <trkpt lat="45.03876" lon="3.96863">
        <ele>678.3</ele>
        <time>2026-04-26T11:19:51Z</time>
      </trkpt>
      <trkpt lat="45.03883" lon="3.96862">
        <ele>678.1</ele>
        <time>2026-04-26T11:19:56Z</time>
      </trkpt>
      <trkpt lat="45.0389" lon="3.9686">
        <ele>677.9</ele>
        <time>2026-04-26T11:20:01Z</time>
      </trkpt>
      <trkpt lat="45.03897" lon="3.96857">
        <ele>677.6</ele>
        <time>2026-04-26T11:20:06Z</time>
      </trkpt>
      <trkpt lat="45.03902" lon="3.96849">
        <ele>677.5</ele>
        <time>2026-04-26T11:20:11Z</time>
      </trkpt>
      <trkpt lat="45.03906" lon="3.96841">
        <ele>677.4</ele>
        <time>2026-04-26T11:20:16Z</time>
      </trkpt>
      <trkpt lat="45.03907" lon="3.96836">
        <ele>677.3</ele>
        <time>2026-04-26T11:20:21Z</time>
      </trkpt>
      <trkpt lat="45.03912" lon="3.96827">
        <ele>677.2</ele>
        <time>2026-04-26T11:20:26Z</time>
      </trkpt>
      <trkpt lat="45.03919" lon="3.9682">
        <ele>676.9</ele>
        <time>2026-04-26T11:20:31Z</time>
      </trkpt>
      <trkpt lat="45.03924" lon="3.96813">
        <ele>676.6</ele>
        <time>2026-04-26T11:20:36Z</time>
      </trkpt>
      <trkpt lat="45.03929" lon="3.96805">
        <ele>676.3</ele>
        <time>2026-04-26T11:20:41Z</time>
      </trkpt>
      <trkpt lat="45.03933" lon="3.96799">
        <ele>676.1</ele>
        <time>2026-04-26T11:20:46Z</time>
      </trkpt>
      <trkpt lat="45.03938" lon="3.96792">
        <ele>675.8</ele>
        <time>2026-04-26T11:20:51Z</time>
      </trkpt>
      <trkpt lat="45.03943" lon="3.96786">
        <ele>675.6</ele>
        <time>2026-04-26T11:20:56Z</time>
      </trkpt>
      <trkpt lat="45.03949" lon="3.9678">
        <ele>675.3</ele>
        <time>2026-04-26T11:21:01Z</time>
      </trkpt>
      <trkpt lat="45.03956" lon="3.96773">
        <ele>675</ele>
        <time>2026-04-26T11:21:06Z</time>
      </trkpt>
      <trkpt lat="45.03961" lon="3.96765">
        <ele>674.8</ele>
        <time>2026-04-26T11:21:11Z</time>
      </trkpt>
      <trkpt lat="45.03965" lon="3.96757">
        <ele>674.6</ele>
        <time>2026-04-26T11:21:16Z</time>
      </trkpt>
      <trkpt lat="45.03968" lon="3.96749">
        <ele>674.5</ele>
        <time>2026-04-26T11:21:21Z</time>
      </trkpt>
      <trkpt lat="45.03971" lon="3.96742">
        <ele>674.5</ele>
        <time>2026-04-26T11:21:26Z</time>
      </trkpt>
      <trkpt lat="45.03972" lon="3.96737">
        <ele>674.5</ele>
        <time>2026-04-26T11:21:31Z</time>
      </trkpt>
      <trkpt lat="45.03975" lon="3.96731">
        <ele>674.4</ele>
        <time>2026-04-26T11:21:36Z</time>
      </trkpt>
      <trkpt lat="45.0398" lon="3.96724">
        <ele>674.3</ele>
        <time>2026-04-26T11:21:41Z</time>
      </trkpt>
      <trkpt lat="45.03986" lon="3.96717">
        <ele>674.1</ele>
        <time>2026-04-26T11:21:46Z</time>
      </trkpt>
      <trkpt lat="45.0399" lon="3.9671">
        <ele>674</ele>
        <time>2026-04-26T11:21:51Z</time>
      </trkpt>
      <trkpt lat="45.03994" lon="3.96703">
        <ele>673.9</ele>
        <time>2026-04-26T11:21:56Z</time>
      </trkpt>
      <trkpt lat="45.03998" lon="3.96695">
        <ele>673.8</ele>
        <time>2026-04-26T11:22:01Z</time>
      </trkpt>
      <trkpt lat="45.04002" lon="3.96687">
        <ele>673.7</ele>
        <time>2026-04-26T11:22:06Z</time>
      </trkpt>
      <trkpt lat="45.04008" lon="3.96678">
        <ele>673.7</ele>
        <time>2026-04-26T11:22:11Z</time>
      </trkpt>
      <trkpt lat="45.04012" lon="3.96669">
        <ele>673.7</ele>
        <time>2026-04-26T11:22:16Z</time>
      </trkpt>
      <trkpt lat="45.04018" lon="3.96662">
        <ele>673.9</ele>
        <time>2026-04-26T11:22:21Z</time>
      </trkpt>
      <trkpt lat="45.04025" lon="3.96654">
        <ele>674.2</ele>
        <time>2026-04-26T11:22:26Z</time>
      </trkpt>
      <trkpt lat="45.04028" lon="3.96647">
        <ele>674.6</ele>
        <time>2026-04-26T11:22:31Z</time>
      </trkpt>
      <trkpt lat="45.04029" lon="3.96645">
        <ele>674.7</ele>
        <time>2026-04-26T11:22:36Z</time>
      </trkpt>
      <trkpt lat="45.04028" lon="3.96643">
        <ele>674.8</ele>
        <time>2026-04-26T11:22:41Z</time>
      </trkpt>
      <trkpt lat="45.0403" lon="3.96642">
        <ele>674.8</ele>
        <time>2026-04-26T11:22:46Z</time>
      </trkpt>
      <trkpt lat="45.04034" lon="3.9664">
        <ele>674.8</ele>
        <time>2026-04-26T11:22:51Z</time>
      </trkpt>
      <trkpt lat="45.04035" lon="3.96639">
        <ele>674.9</ele>
        <time>2026-04-26T11:22:56Z</time>
      </trkpt>
      <trkpt lat="45.04035" lon="3.96639">
        <ele>674.9</ele>
        <time>2026-04-26T11:23:01Z</time>
      </trkpt>
      <trkpt lat="45.04035" lon="3.96639">
        <ele>674.9</ele>
        <time>2026-04-26T11:23:06Z</time>
      </trkpt>
      <trkpt lat="45.04039" lon="3.96638">
        <ele>674.8</ele>
        <time>2026-04-26T11:23:11Z</time>
      </trkpt>
      <trkpt lat="45.04043" lon="3.96631">
        <ele>675.1</ele>
        <time>2026-04-26T11:23:16Z</time>
      </trkpt>
      <trkpt lat="45.04046" lon="3.96625">
        <ele>675.3</ele>
        <time>2026-04-26T11:23:21Z</time>
      </trkpt>
      <trkpt lat="45.04052" lon="3.96621">
        <ele>675.4</ele>
        <time>2026-04-26T11:23:26Z</time>
      </trkpt>
      <trkpt lat="45.04056" lon="3.96614">
        <ele>675.6</ele>
        <time>2026-04-26T11:23:31Z</time>
      </trkpt>
      <trkpt lat="45.04061" lon="3.96608">
        <ele>675.7</ele>
        <time>2026-04-26T11:23:36Z</time>
      </trkpt>
      <trkpt lat="45.04066" lon="3.96603">
        <ele>675.8</ele>
        <time>2026-04-26T11:23:41Z</time>
      </trkpt>
      <trkpt lat="45.04071" lon="3.96599">
        <ele>675.8</ele>
        <time>2026-04-26T11:23:46Z</time>
      </trkpt>
      <trkpt lat="45.04076" lon="3.96594">
        <ele>675.8</ele>
        <time>2026-04-26T11:23:51Z</time>
      </trkpt>
      <trkpt lat="45.04081" lon="3.9659">
        <ele>675.8</ele>
        <time>2026-04-26T11:23:56Z</time>
      </trkpt>
      <trkpt lat="45.04091" lon="3.96585">
        <ele>675.7</ele>
        <time>2026-04-26T11:24:01Z</time>
      </trkpt>
      <trkpt lat="45.04099" lon="3.96581">
        <ele>675.9</ele>
        <time>2026-04-26T11:24:06Z</time>
      </trkpt>
      <trkpt lat="45.04106" lon="3.96578">
        <ele>676</ele>
        <time>2026-04-26T11:24:11Z</time>
      </trkpt>
      <trkpt lat="45.04113" lon="3.96573">
        <ele>676.3</ele>
        <time>2026-04-26T11:24:16Z</time>
      </trkpt>
      <trkpt lat="45.04118" lon="3.96569">
        <ele>676.6</ele>
        <time>2026-04-26T11:24:21Z</time>
      </trkpt>
      <trkpt lat="45.04124" lon="3.96565">
        <ele>676.8</ele>
        <time>2026-04-26T11:24:26Z</time>
      </trkpt>
      <trkpt lat="45.0413" lon="3.96561">
        <ele>677</ele>
        <time>2026-04-26T11:24:31Z</time>
      </trkpt>
      <trkpt lat="45.04137" lon="3.96556">
        <ele>677.2</ele>
        <time>2026-04-26T11:24:36Z</time>
      </trkpt>
      <trkpt lat="45.04142" lon="3.96553">
        <ele>677.4</ele>
        <time>2026-04-26T11:24:41Z</time>
      </trkpt>
      <trkpt lat="45.04149" lon="3.96549">
        <ele>677.5</ele>
        <time>2026-04-26T11:24:46Z</time>
      </trkpt>
      <trkpt lat="45.04155" lon="3.96545">
        <ele>677.6</ele>
        <time>2026-04-26T11:24:51Z</time>
      </trkpt>
      <trkpt lat="45.04162" lon="3.96541">
        <ele>677.7</ele>
        <time>2026-04-26T11:24:56Z</time>
      </trkpt>
      <trkpt lat="45.04167" lon="3.96537">
        <ele>677.9</ele>
        <time>2026-04-26T11:25:01Z</time>
      </trkpt>
      <trkpt lat="45.04173" lon="3.96532">
        <ele>678</ele>
        <time>2026-04-26T11:25:06Z</time>
      </trkpt>
      <trkpt lat="45.0418" lon="3.96528">
        <ele>678</ele>
        <time>2026-04-26T11:25:11Z</time>
      </trkpt>
      <trkpt lat="45.04186" lon="3.96524">
        <ele>677.9</ele>
        <time>2026-04-26T11:25:16Z</time>
      </trkpt>
      <trkpt lat="45.04195" lon="3.96522">
        <ele>677.6</ele>
        <time>2026-04-26T11:25:21Z</time>
      </trkpt>
      <trkpt lat="45.04202" lon="3.96519">
        <ele>677.3</ele>
        <time>2026-04-26T11:25:26Z</time>
      </trkpt>
      <trkpt lat="45.04208" lon="3.96519">
        <ele>677</ele>
        <time>2026-04-26T11:25:31Z</time>
      </trkpt>
      <trkpt lat="45.04216" lon="3.96518">
        <ele>676.6</ele>
        <time>2026-04-26T11:25:36Z</time>
      </trkpt>
      <trkpt lat="45.04223" lon="3.96514">
        <ele>676.3</ele>
        <time>2026-04-26T11:25:41Z</time>
      </trkpt>
      <trkpt lat="45.0423" lon="3.96511">
        <ele>676</ele>
        <time>2026-04-26T11:25:46Z</time>
      </trkpt>
      <trkpt lat="45.04238" lon="3.96508">
        <ele>675.6</ele>
        <time>2026-04-26T11:25:51Z</time>
      </trkpt>
      <trkpt lat="45.04243" lon="3.965">
        <ele>675.5</ele>
        <time>2026-04-26T11:25:56Z</time>
      </trkpt>
      <trkpt lat="45.04248" lon="3.96492">
        <ele>675.5</ele>
        <time>2026-04-26T11:26:01Z</time>
      </trkpt>
      <trkpt lat="45.0425" lon="3.9649">
        <ele>675.5</ele>
        <time>2026-04-26T11:26:06Z</time>
      </trkpt>
      <trkpt lat="45.0425" lon="3.96489">
        <ele>675.5</ele>
        <time>2026-04-26T11:26:11Z</time>
      </trkpt>
      <trkpt lat="45.04252" lon="3.96485">
        <ele>675.7</ele>
        <time>2026-04-26T11:26:16Z</time>
      </trkpt>
      <trkpt lat="45.04258" lon="3.96477">
        <ele>675.9</ele>
        <time>2026-04-26T11:26:21Z</time>
      </trkpt>
      <trkpt lat="45.04264" lon="3.96469">
        <ele>676.1</ele>
        <time>2026-04-26T11:26:26Z</time>
      </trkpt>
      <trkpt lat="45.04269" lon="3.96462">
        <ele>676.3</ele>
        <time>2026-04-26T11:26:31Z</time>
      </trkpt>
      <trkpt lat="45.04274" lon="3.96455">
        <ele>676.4</ele>
        <time>2026-04-26T11:26:36Z</time>
      </trkpt>
      <trkpt lat="45.04278" lon="3.9645">
        <ele>676.5</ele>
        <time>2026-04-26T11:26:41Z</time>
      </trkpt>
      <trkpt lat="45.04282" lon="3.96443">
        <ele>676.6</ele>
        <time>2026-04-26T11:26:46Z</time>
      </trkpt>
      <trkpt lat="45.04287" lon="3.96435">
        <ele>676.6</ele>
        <time>2026-04-26T11:26:51Z</time>
      </trkpt>
      <trkpt lat="45.04293" lon="3.96427">
        <ele>676.6</ele>
        <time>2026-04-26T11:26:56Z</time>
      </trkpt>
      <trkpt lat="45.04297" lon="3.96419">
        <ele>676.7</ele>
        <time>2026-04-26T11:27:01Z</time>
      </trkpt>
      <trkpt lat="45.04301" lon="3.96411">
        <ele>676.9</ele>
        <time>2026-04-26T11:27:06Z</time>
      </trkpt>
      <trkpt lat="45.04304" lon="3.96402">
        <ele>677.2</ele>
        <time>2026-04-26T11:27:11Z</time>
      </trkpt>
      <trkpt lat="45.0431" lon="3.96393">
        <ele>677.4</ele>
        <time>2026-04-26T11:27:16Z</time>
      </trkpt>
      <trkpt lat="45.04316" lon="3.96385">
        <ele>677.5</ele>
        <time>2026-04-26T11:27:21Z</time>
      </trkpt>
      <trkpt lat="45.0432" lon="3.96377">
        <ele>677.7</ele>
        <time>2026-04-26T11:27:26Z</time>
      </trkpt>
      <trkpt lat="45.04325" lon="3.96369">
        <ele>677.8</ele>
        <time>2026-04-26T11:27:31Z</time>
      </trkpt>
      <trkpt lat="45.0433" lon="3.96361">
        <ele>677.9</ele>
        <time>2026-04-26T11:27:36Z</time>
      </trkpt>
      <trkpt lat="45.04335" lon="3.96353">
        <ele>678</ele>
        <time>2026-04-26T11:27:41Z</time>
      </trkpt>
      <trkpt lat="45.0434" lon="3.96345">
        <ele>678.1</ele>
        <time>2026-04-26T11:27:46Z</time>
      </trkpt>
      <trkpt lat="45.04344" lon="3.96338">
        <ele>678.2</ele>
        <time>2026-04-26T11:27:51Z</time>
      </trkpt>
      <trkpt lat="45.0435" lon="3.96331">
        <ele>678.2</ele>
        <time>2026-04-26T11:27:56Z</time>
      </trkpt>
      <trkpt lat="45.04355" lon="3.96323">
        <ele>678.5</ele>
        <time>2026-04-26T11:28:01Z</time>
      </trkpt>
      <trkpt lat="45.0436" lon="3.96316">
        <ele>678.8</ele>
        <time>2026-04-26T11:28:06Z</time>
      </trkpt>
      <trkpt lat="45.04364" lon="3.96308">
        <ele>679.2</ele>
        <time>2026-04-26T11:28:11Z</time>
      </trkpt>
      <trkpt lat="45.04367" lon="3.963">
        <ele>679.6</ele>
        <time>2026-04-26T11:28:16Z</time>
      </trkpt>
      <trkpt lat="45.04372" lon="3.96292">
        <ele>679.9</ele>
        <time>2026-04-26T11:28:21Z</time>
      </trkpt>
      <trkpt lat="45.04376" lon="3.96283">
        <ele>680.4</ele>
        <time>2026-04-26T11:28:26Z</time>
      </trkpt>
      <trkpt lat="45.04382" lon="3.96273">
        <ele>680.7</ele>
        <time>2026-04-26T11:28:31Z</time>
      </trkpt>
      <trkpt lat="45.04388" lon="3.96265">
        <ele>680.9</ele>
        <time>2026-04-26T11:28:36Z</time>
      </trkpt>
      <trkpt lat="45.04393" lon="3.96255">
        <ele>681.3</ele>
        <time>2026-04-26T11:28:41Z</time>
      </trkpt>
      <trkpt lat="45.04398" lon="3.96247">
        <ele>681.6</ele>
        <time>2026-04-26T11:28:46Z</time>
      </trkpt>
      <trkpt lat="45.04402" lon="3.96241">
        <ele>681.8</ele>
        <time>2026-04-26T11:28:51Z</time>
      </trkpt>
      <trkpt lat="45.04407" lon="3.96233">
        <ele>682</ele>
        <time>2026-04-26T11:28:56Z</time>
      </trkpt>
      <trkpt lat="45.04411" lon="3.96225">
        <ele>682.3</ele>
        <time>2026-04-26T11:29:01Z</time>
      </trkpt>
      <trkpt lat="45.04415" lon="3.96217">
        <ele>682.5</ele>
        <time>2026-04-26T11:29:06Z</time>
      </trkpt>
      <trkpt lat="45.04418" lon="3.96209">
        <ele>682.9</ele>
        <time>2026-04-26T11:29:11Z</time>
      </trkpt>
      <trkpt lat="45.04422" lon="3.96203">
        <ele>683</ele>
        <time>2026-04-26T11:29:16Z</time>
      </trkpt>
      <trkpt lat="45.04424" lon="3.96196">
        <ele>683.3</ele>
        <time>2026-04-26T11:29:21Z</time>
      </trkpt>
      <trkpt lat="45.04429" lon="3.96188">
        <ele>683.5</ele>
        <time>2026-04-26T11:29:26Z</time>
      </trkpt>
      <trkpt lat="45.04434" lon="3.9618">
        <ele>683.7</ele>
        <time>2026-04-26T11:29:31Z</time>
      </trkpt>
      <trkpt lat="45.04438" lon="3.96173">
        <ele>683.8</ele>
        <time>2026-04-26T11:29:36Z</time>
      </trkpt>
      <trkpt lat="45.04445" lon="3.96164">
        <ele>683.9</ele>
        <time>2026-04-26T11:29:41Z</time>
      </trkpt>
      <trkpt lat="45.04449" lon="3.96155">
        <ele>684.3</ele>
        <time>2026-04-26T11:29:46Z</time>
      </trkpt>
      <trkpt lat="45.04452" lon="3.96148">
        <ele>684.7</ele>
        <time>2026-04-26T11:29:51Z</time>
      </trkpt>
      <trkpt lat="45.04456" lon="3.9614">
        <ele>685</ele>
        <time>2026-04-26T11:29:56Z</time>
      </trkpt>
      <trkpt lat="45.04461" lon="3.96132">
        <ele>685.1</ele>
        <time>2026-04-26T11:30:01Z</time>
      </trkpt>
      <trkpt lat="45.04464" lon="3.96124">
        <ele>685.5</ele>
        <time>2026-04-26T11:30:06Z</time>
      </trkpt>
      <trkpt lat="45.04466" lon="3.96122">
        <ele>685.4</ele>
        <time>2026-04-26T11:30:11Z</time>
      </trkpt>
      <trkpt lat="45.04467" lon="3.9612">
        <ele>685.5</ele>
        <time>2026-04-26T11:30:16Z</time>
      </trkpt>
      <trkpt lat="45.04472" lon="3.96113">
        <ele>685.4</ele>
        <time>2026-04-26T11:30:21Z</time>
      </trkpt>
      <trkpt lat="45.04475" lon="3.96106">
        <ele>685.6</ele>
        <time>2026-04-26T11:30:26Z</time>
      </trkpt>
      <trkpt lat="45.04479" lon="3.96099">
        <ele>685.6</ele>
        <time>2026-04-26T11:30:31Z</time>
      </trkpt>
      <trkpt lat="45.04483" lon="3.96092">
        <ele>685.6</ele>
        <time>2026-04-26T11:30:36Z</time>
      </trkpt>
      <trkpt lat="45.04488" lon="3.96087">
        <ele>685.3</ele>
        <time>2026-04-26T11:30:41Z</time>
      </trkpt>
      <trkpt lat="45.04491" lon="3.96079">
        <ele>685.5</ele>
        <time>2026-04-26T11:30:46Z</time>
      </trkpt>
      <trkpt lat="45.04494" lon="3.9607">
        <ele>685.7</ele>
        <time>2026-04-26T11:30:51Z</time>
      </trkpt>
      <trkpt lat="45.04496" lon="3.96063">
        <ele>686</ele>
        <time>2026-04-26T11:30:56Z</time>
      </trkpt>
      <trkpt lat="45.04498" lon="3.96054">
        <ele>686.4</ele>
        <time>2026-04-26T11:31:01Z</time>
      </trkpt>
      <trkpt lat="45.04502" lon="3.96046">
        <ele>686.5</ele>
        <time>2026-04-26T11:31:06Z</time>
      </trkpt>
      <trkpt lat="45.04507" lon="3.96038">
        <ele>686.5</ele>
        <time>2026-04-26T11:31:11Z</time>
      </trkpt>
      <trkpt lat="45.04512" lon="3.96029">
        <ele>686.5</ele>
        <time>2026-04-26T11:31:16Z</time>
      </trkpt>
      <trkpt lat="45.04516" lon="3.96022">
        <ele>686.5</ele>
        <time>2026-04-26T11:31:21Z</time>
      </trkpt>
      <trkpt lat="45.0452" lon="3.96014">
        <ele>686.6</ele>
        <time>2026-04-26T11:31:26Z</time>
      </trkpt>
      <trkpt lat="45.04524" lon="3.96006">
        <ele>686.7</ele>
        <time>2026-04-26T11:31:31Z</time>
      </trkpt>
      <trkpt lat="45.04529" lon="3.95996">
        <ele>686.5</ele>
        <time>2026-04-26T11:31:36Z</time>
      </trkpt>
      <trkpt lat="45.04534" lon="3.95987">
        <ele>686</ele>
        <time>2026-04-26T11:31:41Z</time>
      </trkpt>
      <trkpt lat="45.04539" lon="3.95979">
        <ele>685.4</ele>
        <time>2026-04-26T11:31:46Z</time>
      </trkpt>
      <trkpt lat="45.04543" lon="3.9597">
        <ele>685</ele>
        <time>2026-04-26T11:31:51Z</time>
      </trkpt>
      <trkpt lat="45.04547" lon="3.95962">
        <ele>684.7</ele>
        <time>2026-04-26T11:31:56Z</time>
      </trkpt>
      <trkpt lat="45.04551" lon="3.95954">
        <ele>684.3</ele>
        <time>2026-04-26T11:32:01Z</time>
      </trkpt>
      <trkpt lat="45.04554" lon="3.95945">
        <ele>684.1</ele>
        <time>2026-04-26T11:32:06Z</time>
      </trkpt>
      <trkpt lat="45.04559" lon="3.95936">
        <ele>683.8</ele>
        <time>2026-04-26T11:32:11Z</time>
      </trkpt>
      <trkpt lat="45.04563" lon="3.95927">
        <ele>683.6</ele>
        <time>2026-04-26T11:32:16Z</time>
      </trkpt>
      <trkpt lat="45.04566" lon="3.95921">
        <ele>683.4</ele>
        <time>2026-04-26T11:32:21Z</time>
      </trkpt>
      <trkpt lat="45.04571" lon="3.95914">
        <ele>683</ele>
        <time>2026-04-26T11:32:26Z</time>
      </trkpt>
      <trkpt lat="45.04575" lon="3.95906">
        <ele>682.8</ele>
        <time>2026-04-26T11:32:31Z</time>
      </trkpt>
      <trkpt lat="45.04579" lon="3.95898">
        <ele>682.5</ele>
        <time>2026-04-26T11:32:36Z</time>
      </trkpt>
      <trkpt lat="45.04583" lon="3.95891">
        <ele>682.3</ele>
        <time>2026-04-26T11:32:41Z</time>
      </trkpt>
      <trkpt lat="45.04587" lon="3.95883">
        <ele>682.2</ele>
        <time>2026-04-26T11:32:46Z</time>
      </trkpt>
      <trkpt lat="45.04592" lon="3.95874">
        <ele>682</ele>
        <time>2026-04-26T11:32:51Z</time>
      </trkpt>
      <trkpt lat="45.04596" lon="3.95866">
        <ele>681.8</ele>
        <time>2026-04-26T11:32:56Z</time>
      </trkpt>
      <trkpt lat="45.04601" lon="3.95857">
        <ele>681.7</ele>
        <time>2026-04-26T11:33:01Z</time>
      </trkpt>
      <trkpt lat="45.04605" lon="3.95848">
        <ele>681.5</ele>
        <time>2026-04-26T11:33:06Z</time>
      </trkpt>
      <trkpt lat="45.04608" lon="3.9584">
        <ele>681.4</ele>
        <time>2026-04-26T11:33:11Z</time>
      </trkpt>
      <trkpt lat="45.04615" lon="3.9583">
        <ele>681.2</ele>
        <time>2026-04-26T11:33:16Z</time>
      </trkpt>
      <trkpt lat="45.0462" lon="3.95821">
        <ele>681</ele>
        <time>2026-04-26T11:33:21Z</time>
      </trkpt>
      <trkpt lat="45.04623" lon="3.95812">
        <ele>681</ele>
        <time>2026-04-26T11:33:26Z</time>
      </trkpt>
      <trkpt lat="45.04628" lon="3.95804">
        <ele>680.9</ele>
        <time>2026-04-26T11:33:31Z</time>
      </trkpt>
      <trkpt lat="45.04633" lon="3.95796">
        <ele>680.7</ele>
        <time>2026-04-26T11:33:36Z</time>
      </trkpt>
      <trkpt lat="45.04634" lon="3.95789">
        <ele>680.8</ele>
        <time>2026-04-26T11:33:41Z</time>
      </trkpt>
      <trkpt lat="45.04635" lon="3.95787">
        <ele>680.8</ele>
        <time>2026-04-26T11:33:46Z</time>
      </trkpt>
      <trkpt lat="45.04635" lon="3.95786">
        <ele>680.8</ele>
        <time>2026-04-26T11:33:51Z</time>
      </trkpt>
      <trkpt lat="45.04635" lon="3.95786">
        <ele>680.8</ele>
        <time>2026-04-26T11:33:56Z</time>
      </trkpt>
      <trkpt lat="45.04635" lon="3.95782">
        <ele>680.9</ele>
        <time>2026-04-26T11:34:01Z</time>
      </trkpt>
      <trkpt lat="45.04634" lon="3.95777">
        <ele>681</ele>
        <time>2026-04-26T11:34:06Z</time>
      </trkpt>
      <trkpt lat="45.04635" lon="3.95769">
        <ele>681.2</ele>
        <time>2026-04-26T11:34:11Z</time>
      </trkpt>
      <trkpt lat="45.04636" lon="3.95763">
        <ele>681.2</ele>
        <time>2026-04-26T11:34:16Z</time>
      </trkpt>
      <trkpt lat="45.04638" lon="3.95754">
        <ele>681.3</ele>
        <time>2026-04-26T11:34:21Z</time>
      </trkpt>
      <trkpt lat="45.04639" lon="3.95746">
        <ele>681.8</ele>
        <time>2026-04-26T11:34:26Z</time>
      </trkpt>
      <trkpt lat="45.04641" lon="3.95738">
        <ele>682.8</ele>
        <time>2026-04-26T11:34:31Z</time>
      </trkpt>
      <trkpt lat="45.04642" lon="3.95731">
        <ele>683.7</ele>
        <time>2026-04-26T11:34:36Z</time>
      </trkpt>
      <trkpt lat="45.04642" lon="3.95728">
        <ele>684</ele>
        <time>2026-04-26T11:34:41Z</time>
      </trkpt>
      <trkpt lat="45.04642" lon="3.95726">
        <ele>684.3</ele>
        <time>2026-04-26T11:34:46Z</time>
      </trkpt>
      <trkpt lat="45.04644" lon="3.95722">
        <ele>684.8</ele>
        <time>2026-04-26T11:34:51Z</time>
      </trkpt>
      <trkpt lat="45.04645" lon="3.95715">
        <ele>685.6</ele>
        <time>2026-04-26T11:34:56Z</time>
      </trkpt>
      <trkpt lat="45.04647" lon="3.95707">
        <ele>686.6</ele>
        <time>2026-04-26T11:35:01Z</time>
      </trkpt>
      <trkpt lat="45.04647" lon="3.95699">
        <ele>687.7</ele>
        <time>2026-04-26T11:35:06Z</time>
      </trkpt>
      <trkpt lat="45.04647" lon="3.95691">
        <ele>688.8</ele>
        <time>2026-04-26T11:35:11Z</time>
      </trkpt>
      <trkpt lat="45.04647" lon="3.95683">
        <ele>689.8</ele>
        <time>2026-04-26T11:35:16Z</time>
      </trkpt>
      <trkpt lat="45.04649" lon="3.95673">
        <ele>691.2</ele>
        <time>2026-04-26T11:35:21Z</time>
      </trkpt>
      <trkpt lat="45.04652" lon="3.95665">
        <ele>692.1</ele>
        <time>2026-04-26T11:35:26Z</time>
      </trkpt>
      <trkpt lat="45.04656" lon="3.95658">
        <ele>692.6</ele>
        <time>2026-04-26T11:35:31Z</time>
      </trkpt>
      <trkpt lat="45.04658" lon="3.95649">
        <ele>693.2</ele>
        <time>2026-04-26T11:35:36Z</time>
      </trkpt>
      <trkpt lat="45.0466" lon="3.95641">
        <ele>693.7</ele>
        <time>2026-04-26T11:35:41Z</time>
      </trkpt>
      <trkpt lat="45.04663" lon="3.95635">
        <ele>694</ele>
        <time>2026-04-26T11:35:46Z</time>
      </trkpt>
      <trkpt lat="45.04666" lon="3.95628">
        <ele>694.3</ele>
        <time>2026-04-26T11:35:51Z</time>
      </trkpt>
      <trkpt lat="45.04669" lon="3.95621">
        <ele>694.4</ele>
        <time>2026-04-26T11:35:56Z</time>
      </trkpt>
      <trkpt lat="45.0467" lon="3.95616">
        <ele>694.6</ele>
        <time>2026-04-26T11:36:01Z</time>
      </trkpt>
      <trkpt lat="45.04672" lon="3.9561">
        <ele>694.7</ele>
        <time>2026-04-26T11:36:06Z</time>
      </trkpt>
      <trkpt lat="45.04674" lon="3.95603">
        <ele>694.9</ele>
        <time>2026-04-26T11:36:11Z</time>
      </trkpt>
      <trkpt lat="45.04676" lon="3.95597">
        <ele>695</ele>
        <time>2026-04-26T11:36:16Z</time>
      </trkpt>
      <trkpt lat="45.0468" lon="3.95591">
        <ele>694.9</ele>
        <time>2026-04-26T11:36:21Z</time>
      </trkpt>
      <trkpt lat="45.04682" lon="3.95585">
        <ele>695.1</ele>
        <time>2026-04-26T11:36:26Z</time>
      </trkpt>
      <trkpt lat="45.04683" lon="3.9558">
        <ele>695.4</ele>
        <time>2026-04-26T11:36:31Z</time>
      </trkpt>
      <trkpt lat="45.04685" lon="3.95573">
        <ele>695.8</ele>
        <time>2026-04-26T11:36:36Z</time>
      </trkpt>
      <trkpt lat="45.04686" lon="3.95568">
        <ele>696.2</ele>
        <time>2026-04-26T11:36:41Z</time>
      </trkpt>
      <trkpt lat="45.04688" lon="3.9556">
        <ele>696.7</ele>
        <time>2026-04-26T11:36:46Z</time>
      </trkpt>
      <trkpt lat="45.0469" lon="3.95551">
        <ele>697.3</ele>
        <time>2026-04-26T11:36:51Z</time>
      </trkpt>
      <trkpt lat="45.04692" lon="3.95541">
        <ele>698</ele>
        <time>2026-04-26T11:36:56Z</time>
      </trkpt>
      <trkpt lat="45.04693" lon="3.95531">
        <ele>698.9</ele>
        <time>2026-04-26T11:37:01Z</time>
      </trkpt>
      <trkpt lat="45.04692" lon="3.95524">
        <ele>699.7</ele>
        <time>2026-04-26T11:37:06Z</time>
      </trkpt>
      <trkpt lat="45.04693" lon="3.95516">
        <ele>700.3</ele>
        <time>2026-04-26T11:37:11Z</time>
      </trkpt>
      <trkpt lat="45.04692" lon="3.95507">
        <ele>701.3</ele>
        <time>2026-04-26T11:37:16Z</time>
      </trkpt>
      <trkpt lat="45.04692" lon="3.95499">
        <ele>702.1</ele>
        <time>2026-04-26T11:37:21Z</time>
      </trkpt>
      <trkpt lat="45.04693" lon="3.9549">
        <ele>703.1</ele>
        <time>2026-04-26T11:37:26Z</time>
      </trkpt>
      <trkpt lat="45.04694" lon="3.95481">
        <ele>704.1</ele>
        <time>2026-04-26T11:37:31Z</time>
      </trkpt>
      <trkpt lat="45.04695" lon="3.95474">
        <ele>704.8</ele>
        <time>2026-04-26T11:37:36Z</time>
      </trkpt>
      <trkpt lat="45.04697" lon="3.95465">
        <ele>705.7</ele>
        <time>2026-04-26T11:37:41Z</time>
      </trkpt>
      <trkpt lat="45.04699" lon="3.95457">
        <ele>706.4</ele>
        <time>2026-04-26T11:37:46Z</time>
      </trkpt>
      <trkpt lat="45.04698" lon="3.95449">
        <ele>707.5</ele>
        <time>2026-04-26T11:37:51Z</time>
      </trkpt>
      <trkpt lat="45.04699" lon="3.95439">
        <ele>708.6</ele>
        <time>2026-04-26T11:37:56Z</time>
      </trkpt>
      <trkpt lat="45.04702" lon="3.95431">
        <ele>709.2</ele>
        <time>2026-04-26T11:38:01Z</time>
      </trkpt>
      <trkpt lat="45.04705" lon="3.95423">
        <ele>709.7</ele>
        <time>2026-04-26T11:38:06Z</time>
      </trkpt>
      <trkpt lat="45.04706" lon="3.95413">
        <ele>710.9</ele>
        <time>2026-04-26T11:38:11Z</time>
      </trkpt>
      <trkpt lat="45.04708" lon="3.95404">
        <ele>711.9</ele>
        <time>2026-04-26T11:38:16Z</time>
      </trkpt>
      <trkpt lat="45.0471" lon="3.95398">
        <ele>712.6</ele>
        <time>2026-04-26T11:38:21Z</time>
      </trkpt>
      <trkpt lat="45.04712" lon="3.95389">
        <ele>713.6</ele>
        <time>2026-04-26T11:38:26Z</time>
      </trkpt>
      <trkpt lat="45.04712" lon="3.95381">
        <ele>714.8</ele>
        <time>2026-04-26T11:38:31Z</time>
      </trkpt>
      <trkpt lat="45.04713" lon="3.95374">
        <ele>715.7</ele>
        <time>2026-04-26T11:38:36Z</time>
      </trkpt>
      <trkpt lat="45.04715" lon="3.95366">
        <ele>716.6</ele>
        <time>2026-04-26T11:38:41Z</time>
      </trkpt>
      <trkpt lat="45.04715" lon="3.95359">
        <ele>717.6</ele>
        <time>2026-04-26T11:38:46Z</time>
      </trkpt>
      <trkpt lat="45.04715" lon="3.95352">
        <ele>718.7</ele>
        <time>2026-04-26T11:38:51Z</time>
      </trkpt>
      <trkpt lat="45.04716" lon="3.95344">
        <ele>719.7</ele>
        <time>2026-04-26T11:38:56Z</time>
      </trkpt>
      <trkpt lat="45.04716" lon="3.95335">
        <ele>721.1</ele>
        <time>2026-04-26T11:39:01Z</time>
      </trkpt>
      <trkpt lat="45.04717" lon="3.95327">
        <ele>722</ele>
        <time>2026-04-26T11:39:06Z</time>
      </trkpt>
      <trkpt lat="45.04717" lon="3.95319">
        <ele>723.2</ele>
        <time>2026-04-26T11:39:11Z</time>
      </trkpt>
      <trkpt lat="45.04718" lon="3.9531">
        <ele>724.3</ele>
        <time>2026-04-26T11:39:16Z</time>
      </trkpt>
      <trkpt lat="45.04718" lon="3.95302">
        <ele>725.4</ele>
        <time>2026-04-26T11:39:21Z</time>
      </trkpt>
      <trkpt lat="45.04719" lon="3.95294">
        <ele>726.3</ele>
        <time>2026-04-26T11:39:26Z</time>
      </trkpt>
      <trkpt lat="45.0472" lon="3.95286">
        <ele>727.2</ele>
        <time>2026-04-26T11:39:31Z</time>
      </trkpt>
      <trkpt lat="45.04723" lon="3.9528">
        <ele>727.4</ele>
        <time>2026-04-26T11:39:36Z</time>
      </trkpt>
      <trkpt lat="45.04725" lon="3.95271">
        <ele>728.2</ele>
        <time>2026-04-26T11:39:41Z</time>
      </trkpt>
      <trkpt lat="45.04726" lon="3.95262">
        <ele>729.2</ele>
        <time>2026-04-26T11:39:46Z</time>
      </trkpt>
      <trkpt lat="45.04731" lon="3.95253">
        <ele>729.2</ele>
        <time>2026-04-26T11:39:51Z</time>
      </trkpt>
      <trkpt lat="45.04734" lon="3.95244">
        <ele>729.6</ele>
        <time>2026-04-26T11:39:56Z</time>
      </trkpt>
      <trkpt lat="45.04736" lon="3.95234">
        <ele>730.3</ele>
        <time>2026-04-26T11:40:01Z</time>
      </trkpt>
      <trkpt lat="45.04736" lon="3.95227">
        <ele>731.1</ele>
        <time>2026-04-26T11:40:06Z</time>
      </trkpt>
      <trkpt lat="45.04737" lon="3.95218">
        <ele>731.9</ele>
        <time>2026-04-26T11:40:11Z</time>
      </trkpt>
      <trkpt lat="45.04738" lon="3.95212">
        <ele>732.3</ele>
        <time>2026-04-26T11:40:16Z</time>
      </trkpt>
      <trkpt lat="45.04741" lon="3.95205">
        <ele>732.1</ele>
        <time>2026-04-26T11:40:21Z</time>
      </trkpt>
      <trkpt lat="45.04744" lon="3.95197">
        <ele>732</ele>
        <time>2026-04-26T11:40:26Z</time>
      </trkpt>
      <trkpt lat="45.04748" lon="3.9519">
        <ele>731.4</ele>
        <time>2026-04-26T11:40:31Z</time>
      </trkpt>
      <trkpt lat="45.04752" lon="3.95182">
        <ele>731.1</ele>
        <time>2026-04-26T11:40:36Z</time>
      </trkpt>
      <trkpt lat="45.04757" lon="3.95176">
        <ele>730.6</ele>
        <time>2026-04-26T11:40:41Z</time>
      </trkpt>
      <trkpt lat="45.0476" lon="3.9517">
        <ele>730.5</ele>
        <time>2026-04-26T11:40:46Z</time>
      </trkpt>
      <trkpt lat="45.04763" lon="3.95163">
        <ele>730.7</ele>
        <time>2026-04-26T11:40:51Z</time>
      </trkpt>
      <trkpt lat="45.04768" lon="3.95156">
        <ele>730.5</ele>
        <time>2026-04-26T11:40:56Z</time>
      </trkpt>
      <trkpt lat="45.04772" lon="3.9515">
        <ele>730.4</ele>
        <time>2026-04-26T11:41:01Z</time>
      </trkpt>
      <trkpt lat="45.04775" lon="3.95147">
        <ele>730.1</ele>
        <time>2026-04-26T11:41:06Z</time>
      </trkpt>
      <trkpt lat="45.04777" lon="3.95147">
        <ele>729.7</ele>
        <time>2026-04-26T11:41:11Z</time>
      </trkpt>
      <trkpt lat="45.04777" lon="3.95147">
        <ele>729.7</ele>
        <time>2026-04-26T11:41:16Z</time>
      </trkpt>
      <trkpt lat="45.04781" lon="3.95146">
        <ele>728.9</ele>
        <time>2026-04-26T11:41:21Z</time>
      </trkpt>
      <trkpt lat="45.04783" lon="3.95144">
        <ele>728.7</ele>
        <time>2026-04-26T11:41:26Z</time>
      </trkpt>
      <trkpt lat="45.04786" lon="3.9514">
        <ele>728.5</ele>
        <time>2026-04-26T11:41:31Z</time>
      </trkpt>
      <trkpt lat="45.0479" lon="3.95136">
        <ele>728.1</ele>
        <time>2026-04-26T11:41:36Z</time>
      </trkpt>
      <trkpt lat="45.04794" lon="3.95131">
        <ele>727.7</ele>
        <time>2026-04-26T11:41:41Z</time>
      </trkpt>
      <trkpt lat="45.04798" lon="3.95125">
        <ele>727.5</ele>
        <time>2026-04-26T11:41:46Z</time>
      </trkpt>
      <trkpt lat="45.048" lon="3.95119">
        <ele>727.7</ele>
        <time>2026-04-26T11:41:51Z</time>
      </trkpt>
      <trkpt lat="45.04802" lon="3.95111">
        <ele>728.1</ele>
        <time>2026-04-26T11:41:56Z</time>
      </trkpt>
      <trkpt lat="45.04805" lon="3.95105">
        <ele>728</ele>
        <time>2026-04-26T11:42:01Z</time>
      </trkpt>
      <trkpt lat="45.04807" lon="3.95097">
        <ele>728.4</ele>
        <time>2026-04-26T11:42:06Z</time>
      </trkpt>
      <trkpt lat="45.04809" lon="3.95097">
        <ele>727.9</ele>
        <time>2026-04-26T11:42:11Z</time>
      </trkpt>
      <trkpt lat="45.04808" lon="3.95096">
        <ele>728.3</ele>
        <time>2026-04-26T11:42:16Z</time>
      </trkpt>
      <trkpt lat="45.04808" lon="3.95096">
        <ele>728.3</ele>
        <time>2026-04-26T11:42:21Z</time>
      </trkpt>
      <trkpt lat="45.04808" lon="3.95096">
        <ele>728.3</ele>
        <time>2026-04-26T11:42:26Z</time>
      </trkpt>
      <trkpt lat="45.04808" lon="3.95096">
        <ele>728.3</ele>
        <time>2026-04-26T11:42:31Z</time>
      </trkpt>
      <trkpt lat="45.04808" lon="3.95096">
        <ele>728.3</ele>
        <time>2026-04-26T11:42:36Z</time>
      </trkpt>
      <trkpt lat="45.04808" lon="3.95096">
        <ele>728.3</ele>
        <time>2026-04-26T11:42:41Z</time>
      </trkpt>
      <trkpt lat="45.04807" lon="3.95094">
        <ele>728.8</ele>
        <time>2026-04-26T11:42:46Z</time>
      </trkpt>
      <trkpt lat="45.04807" lon="3.95087">
        <ele>729.5</ele>
        <time>2026-04-26T11:42:51Z</time>
      </trkpt>
      <trkpt lat="45.04809" lon="3.95079">
        <ele>729.6</ele>
        <time>2026-04-26T11:42:56Z</time>
      </trkpt>
      <trkpt lat="45.04809" lon="3.95071">
        <ele>729.9</ele>
        <time>2026-04-26T11:43:01Z</time>
      </trkpt>
      <trkpt lat="45.0481" lon="3.95062">
        <ele>730</ele>
        <time>2026-04-26T11:43:06Z</time>
      </trkpt>
      <trkpt lat="45.04809" lon="3.95056">
        <ele>730.6</ele>
        <time>2026-04-26T11:43:11Z</time>
      </trkpt>
      <trkpt lat="45.04809" lon="3.95049">
        <ele>730.8</ele>
        <time>2026-04-26T11:43:16Z</time>
      </trkpt>
      <trkpt lat="45.04808" lon="3.95043">
        <ele>731.4</ele>
        <time>2026-04-26T11:43:21Z</time>
      </trkpt>
      <trkpt lat="45.04807" lon="3.95037">
        <ele>731.9</ele>
        <time>2026-04-26T11:43:26Z</time>
      </trkpt>
      <trkpt lat="45.04807" lon="3.95031">
        <ele>732.2</ele>
        <time>2026-04-26T11:43:31Z</time>
      </trkpt>
      <trkpt lat="45.04806" lon="3.95025">
        <ele>732.8</ele>
        <time>2026-04-26T11:43:36Z</time>
      </trkpt>
      <trkpt lat="45.04808" lon="3.95017">
        <ele>732.5</ele>
        <time>2026-04-26T11:43:41Z</time>
      </trkpt>
      <trkpt lat="45.04813" lon="3.95011">
        <ele>731.2</ele>
        <time>2026-04-26T11:43:46Z</time>
      </trkpt>
      <trkpt lat="45.04817" lon="3.95006">
        <ele>730.1</ele>
        <time>2026-04-26T11:43:51Z</time>
      </trkpt>
      <trkpt lat="45.04824" lon="3.95">
        <ele>728</ele>
        <time>2026-04-26T11:43:56Z</time>
      </trkpt>
      <trkpt lat="45.04827" lon="3.94992">
        <ele>727</ele>
        <time>2026-04-26T11:44:01Z</time>
      </trkpt>
      <trkpt lat="45.04825" lon="3.94982">
        <ele>727.6</ele>
        <time>2026-04-26T11:44:06Z</time>
      </trkpt>
      <trkpt lat="45.04825" lon="3.94981">
        <ele>727.6</ele>
        <time>2026-04-26T11:44:11Z</time>
      </trkpt>
      <trkpt lat="45.04825" lon="3.94979">
        <ele>727.5</ele>
        <time>2026-04-26T11:44:16Z</time>
      </trkpt>
      <trkpt lat="45.04825" lon="3.94979">
        <ele>727.5</ele>
        <time>2026-04-26T11:44:21Z</time>
      </trkpt>
      <trkpt lat="45.04825" lon="3.94979">
        <ele>727.5</ele>
        <time>2026-04-26T11:44:26Z</time>
      </trkpt>
      <trkpt lat="45.04824" lon="3.94975">
        <ele>727.9</ele>
        <time>2026-04-26T11:44:31Z</time>
      </trkpt>
      <trkpt lat="45.04827" lon="3.94966">
        <ele>726.8</ele>
        <time>2026-04-26T11:44:36Z</time>
      </trkpt>
      <trkpt lat="45.04829" lon="3.94956">
        <ele>726</ele>
        <time>2026-04-26T11:44:41Z</time>
      </trkpt>
      <trkpt lat="45.04831" lon="3.94947">
        <ele>725.2</ele>
        <time>2026-04-26T11:44:46Z</time>
      </trkpt>
      <trkpt lat="45.04834" lon="3.94939">
        <ele>724.2</ele>
        <time>2026-04-26T11:44:51Z</time>
      </trkpt>
      <trkpt lat="45.04836" lon="3.94928">
        <ele>723.9</ele>
        <time>2026-04-26T11:44:56Z</time>
      </trkpt>
      <trkpt lat="45.04837" lon="3.94919">
        <ele>723.8</ele>
        <time>2026-04-26T11:45:01Z</time>
      </trkpt>
      <trkpt lat="45.04838" lon="3.9491">
        <ele>724</ele>
        <time>2026-04-26T11:45:06Z</time>
      </trkpt>
      <trkpt lat="45.0484" lon="3.94898">
        <ele>724.4</ele>
        <time>2026-04-26T11:45:11Z</time>
      </trkpt>
      <trkpt lat="45.04842" lon="3.9489">
        <ele>724.6</ele>
        <time>2026-04-26T11:45:16Z</time>
      </trkpt>
      <trkpt lat="45.04842" lon="3.94885">
        <ele>724.8</ele>
        <time>2026-04-26T11:45:21Z</time>
      </trkpt>
      <trkpt lat="45.04843" lon="3.94874">
        <ele>725.2</ele>
        <time>2026-04-26T11:45:26Z</time>
      </trkpt>
      <trkpt lat="45.04845" lon="3.94864">
        <ele>725.3</ele>
        <time>2026-04-26T11:45:31Z</time>
      </trkpt>
      <trkpt lat="45.04846" lon="3.94854">
        <ele>725.5</ele>
        <time>2026-04-26T11:45:36Z</time>
      </trkpt>
      <trkpt lat="45.04849" lon="3.94842">
        <ele>725.3</ele>
        <time>2026-04-26T11:45:41Z</time>
      </trkpt>
      <trkpt lat="45.04851" lon="3.94831">
        <ele>725.1</ele>
        <time>2026-04-26T11:45:46Z</time>
      </trkpt>
      <trkpt lat="45.04854" lon="3.94822">
        <ele>724.3</ele>
        <time>2026-04-26T11:45:51Z</time>
      </trkpt>
      <trkpt lat="45.04856" lon="3.94819">
        <ele>723.8</ele>
        <time>2026-04-26T11:45:56Z</time>
      </trkpt>
      <trkpt lat="45.04856" lon="3.94818">
        <ele>723.8</ele>
        <time>2026-04-26T11:46:01Z</time>
      </trkpt>
      <trkpt lat="45.04856" lon="3.94818">
        <ele>723.8</ele>
        <time>2026-04-26T11:46:06Z</time>
      </trkpt>
      <trkpt lat="45.04856" lon="3.94818">
        <ele>723.8</ele>
        <time>2026-04-26T11:46:11Z</time>
      </trkpt>
      <trkpt lat="45.04856" lon="3.94818">
        <ele>723.8</ele>
        <time>2026-04-26T11:46:16Z</time>
      </trkpt>
      <trkpt lat="45.04856" lon="3.94818">
        <ele>723.8</ele>
        <time>2026-04-26T11:46:21Z</time>
      </trkpt>
      <trkpt lat="45.04856" lon="3.94818">
        <ele>723.8</ele>
        <time>2026-04-26T11:46:26Z</time>
      </trkpt>
      <trkpt lat="45.04856" lon="3.94818">
        <ele>723.8</ele>
        <time>2026-04-26T11:46:31Z</time>
      </trkpt>
      <trkpt lat="45.04856" lon="3.94818">
        <ele>723.8</ele>
        <time>2026-04-26T11:46:36Z</time>
      </trkpt>
      <trkpt lat="45.04856" lon="3.94818">
        <ele>723.8</ele>
        <time>2026-04-26T11:46:41Z</time>
      </trkpt>
      <trkpt lat="45.04856" lon="3.94818">
        <ele>723.8</ele>
        <time>2026-04-26T11:46:46Z</time>
      </trkpt>
      <trkpt lat="45.04856" lon="3.94818">
        <ele>723.8</ele>
        <time>2026-04-26T11:46:51Z</time>
      </trkpt>
      <trkpt lat="45.04856" lon="3.94818">
        <ele>723.8</ele>
        <time>2026-04-26T11:46:56Z</time>
      </trkpt>
      <trkpt lat="45.04856" lon="3.94818">
        <ele>723.8</ele>
        <time>2026-04-26T11:47:01Z</time>
      </trkpt>
      <trkpt lat="45.04856" lon="3.94818">
        <ele>723.8</ele>
        <time>2026-04-26T11:47:06Z</time>
      </trkpt>
      <trkpt lat="45.04856" lon="3.94818">
        <ele>723.8</ele>
        <time>2026-04-26T11:47:11Z</time>
      </trkpt>
      <trkpt lat="45.04856" lon="3.94818">
        <ele>723.8</ele>
        <time>2026-04-26T11:47:16Z</time>
      </trkpt>
      <trkpt lat="45.04856" lon="3.94818">
        <ele>723.8</ele>
        <time>2026-04-26T11:47:21Z</time>
      </trkpt>
      <trkpt lat="45.04856" lon="3.94818">
        <ele>723.8</ele>
        <time>2026-04-26T11:47:26Z</time>
      </trkpt>
      <trkpt lat="45.04856" lon="3.94818">
        <ele>723.8</ele>
        <time>2026-04-26T11:47:31Z</time>
      </trkpt>
      <trkpt lat="45.04856" lon="3.94818">
        <ele>723.8</ele>
        <time>2026-04-26T11:47:36Z</time>
      </trkpt>
      <trkpt lat="45.04856" lon="3.94818">
        <ele>723.8</ele>
        <time>2026-04-26T11:47:41Z</time>
      </trkpt>
      <trkpt lat="45.04856" lon="3.94818">
        <ele>723.8</ele>
        <time>2026-04-26T11:47:46Z</time>
      </trkpt>
      <trkpt lat="45.04856" lon="3.94818">
        <ele>723.8</ele>
        <time>2026-04-26T11:47:51Z</time>
      </trkpt>
      <trkpt lat="45.04856" lon="3.94818">
        <ele>723.8</ele>
        <time>2026-04-26T11:47:56Z</time>
      </trkpt>
      <trkpt lat="45.04856" lon="3.94818">
        <ele>723.8</ele>
        <time>2026-04-26T11:48:01Z</time>
      </trkpt>
      <trkpt lat="45.04856" lon="3.94818">
        <ele>723.8</ele>
        <time>2026-04-26T11:48:06Z</time>
      </trkpt>
      <trkpt lat="45.04856" lon="3.94818">
        <ele>723.8</ele>
        <time>2026-04-26T11:48:11Z</time>
      </trkpt>
      <trkpt lat="45.04856" lon="3.94818">
        <ele>723.8</ele>
        <time>2026-04-26T11:48:16Z</time>
      </trkpt>
      <trkpt lat="45.04856" lon="3.94818">
        <ele>723.8</ele>
        <time>2026-04-26T11:48:21Z</time>
      </trkpt>
      <trkpt lat="45.04856" lon="3.94818">
        <ele>723.8</ele>
        <time>2026-04-26T11:48:26Z</time>
      </trkpt>
      <trkpt lat="45.04856" lon="3.94818">
        <ele>723.8</ele>
        <time>2026-04-26T11:48:31Z</time>
      </trkpt>
      <trkpt lat="45.04856" lon="3.94818">
        <ele>723.8</ele>
        <time>2026-04-26T11:48:36Z</time>
      </trkpt>
      <trkpt lat="45.04856" lon="3.94818">
        <ele>723.8</ele>
        <time>2026-04-26T11:48:41Z</time>
      </trkpt>
      <trkpt lat="45.04856" lon="3.94818">
        <ele>723.8</ele>
        <time>2026-04-26T11:48:46Z</time>
      </trkpt>
      <trkpt lat="45.04856" lon="3.94818">
        <ele>723.8</ele>
        <time>2026-04-26T11:48:51Z</time>
      </trkpt>
      <trkpt lat="45.04858" lon="3.94811">
        <ele>723.2</ele>
        <time>2026-04-26T11:48:56Z</time>
      </trkpt>
      <trkpt lat="45.0486" lon="3.94803">
        <ele>722.5</ele>
        <time>2026-04-26T11:49:01Z</time>
      </trkpt>
      <trkpt lat="45.04863" lon="3.94795">
        <ele>721.6</ele>
        <time>2026-04-26T11:49:06Z</time>
      </trkpt>
      <trkpt lat="45.04866" lon="3.94785">
        <ele>720.7</ele>
        <time>2026-04-26T11:49:11Z</time>
      </trkpt>
      <trkpt lat="45.0487" lon="3.94775">
        <ele>719.5</ele>
        <time>2026-04-26T11:49:16Z</time>
      </trkpt>
      <trkpt lat="45.04874" lon="3.94767">
        <ele>718.3</ele>
        <time>2026-04-26T11:49:21Z</time>
      </trkpt>
      <trkpt lat="45.04878" lon="3.94759">
        <ele>717</ele>
        <time>2026-04-26T11:49:26Z</time>
      </trkpt>
      <trkpt lat="45.04881" lon="3.9475">
        <ele>716</ele>
        <time>2026-04-26T11:49:31Z</time>
      </trkpt>
      <trkpt lat="45.04884" lon="3.94742">
        <ele>714.8</ele>
        <time>2026-04-26T11:49:36Z</time>
      </trkpt>
      <trkpt lat="45.04885" lon="3.94734">
        <ele>714.2</ele>
        <time>2026-04-26T11:49:41Z</time>
      </trkpt>
      <trkpt lat="45.0489" lon="3.94724">
        <ele>712.3</ele>
        <time>2026-04-26T11:49:46Z</time>
      </trkpt>
      <trkpt lat="45.04893" lon="3.94715">
        <ele>711</ele>
        <time>2026-04-26T11:49:51Z</time>
      </trkpt>
      <trkpt lat="45.04896" lon="3.94707">
        <ele>709.8</ele>
        <time>2026-04-26T11:49:56Z</time>
      </trkpt>
      <trkpt lat="45.04899" lon="3.94702">
        <ele>708.6</ele>
        <time>2026-04-26T11:50:01Z</time>
      </trkpt>
      <trkpt lat="45.04904" lon="3.94695">
        <ele>706.7</ele>
        <time>2026-04-26T11:50:06Z</time>
      </trkpt>
      <trkpt lat="45.04907" lon="3.94685">
        <ele>705.2</ele>
        <time>2026-04-26T11:50:11Z</time>
      </trkpt>
      <trkpt lat="45.04911" lon="3.94677">
        <ele>703.5</ele>
        <time>2026-04-26T11:50:16Z</time>
      </trkpt>
      <trkpt lat="45.04917" lon="3.9467">
        <ele>701.3</ele>
        <time>2026-04-26T11:50:21Z</time>
      </trkpt>
      <trkpt lat="45.04922" lon="3.94664">
        <ele>701</ele>
        <time>2026-04-26T11:50:26Z</time>
      </trkpt>
      <trkpt lat="45.04927" lon="3.94657">
        <ele>700.5</ele>
        <time>2026-04-26T11:50:31Z</time>
      </trkpt>
      <trkpt lat="45.04932" lon="3.9465">
        <ele>700</ele>
        <time>2026-04-26T11:50:36Z</time>
      </trkpt>
      <trkpt lat="45.04938" lon="3.94643">
        <ele>699.5</ele>
        <time>2026-04-26T11:50:41Z</time>
      </trkpt>
      <trkpt lat="45.04944" lon="3.94637">
        <ele>699</ele>
        <time>2026-04-26T11:50:46Z</time>
      </trkpt>
      <trkpt lat="45.04952" lon="3.94631">
        <ele>698.6</ele>
        <time>2026-04-26T11:50:51Z</time>
      </trkpt>
      <trkpt lat="45.04959" lon="3.94628">
        <ele>698.3</ele>
        <time>2026-04-26T11:50:56Z</time>
      </trkpt>
      <trkpt lat="45.04964" lon="3.94622">
        <ele>697.7</ele>
        <time>2026-04-26T11:51:01Z</time>
      </trkpt>
      <trkpt lat="45.04969" lon="3.94616">
        <ele>697.1</ele>
        <time>2026-04-26T11:51:06Z</time>
      </trkpt>
      <trkpt lat="45.04974" lon="3.94609">
        <ele>696.3</ele>
        <time>2026-04-26T11:51:11Z</time>
      </trkpt>
      <trkpt lat="45.0498" lon="3.946">
        <ele>695.2</ele>
        <time>2026-04-26T11:51:16Z</time>
      </trkpt>
      <trkpt lat="45.04985" lon="3.94594">
        <ele>694.5</ele>
        <time>2026-04-26T11:51:21Z</time>
      </trkpt>
      <trkpt lat="45.04989" lon="3.94588">
        <ele>693.7</ele>
        <time>2026-04-26T11:51:26Z</time>
      </trkpt>
      <trkpt lat="45.04994" lon="3.94581">
        <ele>692.8</ele>
        <time>2026-04-26T11:51:31Z</time>
      </trkpt>
      <trkpt lat="45.04999" lon="3.94573">
        <ele>691.9</ele>
        <time>2026-04-26T11:51:36Z</time>
      </trkpt>
      <trkpt lat="45.05003" lon="3.94565">
        <ele>691</ele>
        <time>2026-04-26T11:51:41Z</time>
      </trkpt>
      <trkpt lat="45.05008" lon="3.94559">
        <ele>690.3</ele>
        <time>2026-04-26T11:51:46Z</time>
      </trkpt>
      <trkpt lat="45.05013" lon="3.94551">
        <ele>689.3</ele>
        <time>2026-04-26T11:51:51Z</time>
      </trkpt>
      <trkpt lat="45.05019" lon="3.94544">
        <ele>688.4</ele>
        <time>2026-04-26T11:51:56Z</time>
      </trkpt>
      <trkpt lat="45.05025" lon="3.94539">
        <ele>687.7</ele>
        <time>2026-04-26T11:52:01Z</time>
      </trkpt>
      <trkpt lat="45.05032" lon="3.9453">
        <ele>686.5</ele>
        <time>2026-04-26T11:52:06Z</time>
      </trkpt>
      <trkpt lat="45.05038" lon="3.9452">
        <ele>685.1</ele>
        <time>2026-04-26T11:52:11Z</time>
      </trkpt>
      <trkpt lat="45.05042" lon="3.94512">
        <ele>684</ele>
        <time>2026-04-26T11:52:16Z</time>
      </trkpt>
      <trkpt lat="45.05046" lon="3.94505">
        <ele>683</ele>
        <time>2026-04-26T11:52:21Z</time>
      </trkpt>
      <trkpt lat="45.05053" lon="3.94496">
        <ele>681.7</ele>
        <time>2026-04-26T11:52:26Z</time>
      </trkpt>
      <trkpt lat="45.05058" lon="3.94488">
        <ele>680.7</ele>
        <time>2026-04-26T11:52:31Z</time>
      </trkpt>
      <trkpt lat="45.05063" lon="3.94483">
        <ele>680</ele>
        <time>2026-04-26T11:52:36Z</time>
      </trkpt>
      <trkpt lat="45.0507" lon="3.94475">
        <ele>678.9</ele>
        <time>2026-04-26T11:52:41Z</time>
      </trkpt>
      <trkpt lat="45.05072" lon="3.9447">
        <ele>678.3</ele>
        <time>2026-04-26T11:52:46Z</time>
      </trkpt>
      <trkpt lat="45.05078" lon="3.9446">
        <ele>676.9</ele>
        <time>2026-04-26T11:52:51Z</time>
      </trkpt>
      <trkpt lat="45.05085" lon="3.9445">
        <ele>675.7</ele>
        <time>2026-04-26T11:52:56Z</time>
      </trkpt>
      <trkpt lat="45.05089" lon="3.94442">
        <ele>675.1</ele>
        <time>2026-04-26T11:53:01Z</time>
      </trkpt>
      <trkpt lat="45.05092" lon="3.94432">
        <ele>674.2</ele>
        <time>2026-04-26T11:53:06Z</time>
      </trkpt>
      <trkpt lat="45.05096" lon="3.94424">
        <ele>673.6</ele>
        <time>2026-04-26T11:53:11Z</time>
      </trkpt>
      <trkpt lat="45.05102" lon="3.94416">
        <ele>673.1</ele>
        <time>2026-04-26T11:53:16Z</time>
      </trkpt>
      <trkpt lat="45.05108" lon="3.94407">
        <ele>673</ele>
        <time>2026-04-26T11:53:21Z</time>
      </trkpt>
      <trkpt lat="45.05111" lon="3.944">
        <ele>672.8</ele>
        <time>2026-04-26T11:53:26Z</time>
      </trkpt>
      <trkpt lat="45.05116" lon="3.94394">
        <ele>672.7</ele>
        <time>2026-04-26T11:53:31Z</time>
      </trkpt>
      <trkpt lat="45.0512" lon="3.94388">
        <ele>672.5</ele>
        <time>2026-04-26T11:53:36Z</time>
      </trkpt>
      <trkpt lat="45.05125" lon="3.94384">
        <ele>672.3</ele>
        <time>2026-04-26T11:53:41Z</time>
      </trkpt>
      <trkpt lat="45.05128" lon="3.94378">
        <ele>672</ele>
        <time>2026-04-26T11:53:46Z</time>
      </trkpt>
      <trkpt lat="45.05132" lon="3.94369">
        <ele>671.4</ele>
        <time>2026-04-26T11:53:51Z</time>
      </trkpt>
      <trkpt lat="45.05136" lon="3.94362">
        <ele>670.9</ele>
        <time>2026-04-26T11:53:56Z</time>
      </trkpt>
      <trkpt lat="45.05137" lon="3.94354">
        <ele>670.3</ele>
        <time>2026-04-26T11:54:01Z</time>
      </trkpt>
      <trkpt lat="45.05139" lon="3.94345">
        <ele>669.6</ele>
        <time>2026-04-26T11:54:06Z</time>
      </trkpt>
      <trkpt lat="45.0514" lon="3.94344">
        <ele>669.5</ele>
        <time>2026-04-26T11:54:11Z</time>
      </trkpt>
      <trkpt lat="45.05139" lon="3.94343">
        <ele>669.4</ele>
        <time>2026-04-26T11:54:16Z</time>
      </trkpt>
      <trkpt lat="45.05141" lon="3.94335">
        <ele>668.8</ele>
        <time>2026-04-26T11:54:21Z</time>
      </trkpt>
      <trkpt lat="45.05141" lon="3.94328">
        <ele>668.3</ele>
        <time>2026-04-26T11:54:26Z</time>
      </trkpt>
      <trkpt lat="45.05139" lon="3.94319">
        <ele>667.9</ele>
        <time>2026-04-26T11:54:31Z</time>
      </trkpt>
      <trkpt lat="45.05137" lon="3.94307">
        <ele>667.4</ele>
        <time>2026-04-26T11:54:36Z</time>
      </trkpt>
      <trkpt lat="45.05135" lon="3.94299">
        <ele>667</ele>
        <time>2026-04-26T11:54:41Z</time>
      </trkpt>
      <trkpt lat="45.05133" lon="3.94289">
        <ele>666.6</ele>
        <time>2026-04-26T11:54:46Z</time>
      </trkpt>
      <trkpt lat="45.05132" lon="3.94278">
        <ele>666.1</ele>
        <time>2026-04-26T11:54:51Z</time>
      </trkpt>
      <trkpt lat="45.05128" lon="3.94268">
        <ele>665.7</ele>
        <time>2026-04-26T11:54:56Z</time>
      </trkpt>
      <trkpt lat="45.05121" lon="3.94265">
        <ele>665.9</ele>
        <time>2026-04-26T11:55:01Z</time>
      </trkpt>
      <trkpt lat="45.05114" lon="3.94267">
        <ele>666.3</ele>
        <time>2026-04-26T11:55:06Z</time>
      </trkpt>
      <trkpt lat="45.05109" lon="3.94266">
        <ele>666.5</ele>
        <time>2026-04-26T11:55:11Z</time>
      </trkpt>
      <trkpt lat="45.05103" lon="3.94263">
        <ele>666.6</ele>
        <time>2026-04-26T11:55:16Z</time>
      </trkpt>
      <trkpt lat="45.05097" lon="3.94258">
        <ele>666.7</ele>
        <time>2026-04-26T11:55:21Z</time>
      </trkpt>
      <trkpt lat="45.05091" lon="3.94253">
        <ele>666.7</ele>
        <time>2026-04-26T11:55:26Z</time>
      </trkpt>
      <trkpt lat="45.05086" lon="3.94248">
        <ele>666.8</ele>
        <time>2026-04-26T11:55:31Z</time>
      </trkpt>
      <trkpt lat="45.05081" lon="3.94242">
        <ele>666.8</ele>
        <time>2026-04-26T11:55:36Z</time>
      </trkpt>
      <trkpt lat="45.05072" lon="3.94239">
        <ele>667.7</ele>
        <time>2026-04-26T11:55:41Z</time>
      </trkpt>
      <trkpt lat="45.05064" lon="3.94236">
        <ele>668.5</ele>
        <time>2026-04-26T11:55:46Z</time>
      </trkpt>
      <trkpt lat="45.05057" lon="3.94237">
        <ele>669.4</ele>
        <time>2026-04-26T11:55:51Z</time>
      </trkpt>
      <trkpt lat="45.05051" lon="3.94235">
        <ele>670</ele>
        <time>2026-04-26T11:55:56Z</time>
      </trkpt>
      <trkpt lat="45.05046" lon="3.9423">
        <ele>670.4</ele>
        <time>2026-04-26T11:56:01Z</time>
      </trkpt>
      <trkpt lat="45.05042" lon="3.94222">
        <ele>670.4</ele>
        <time>2026-04-26T11:56:06Z</time>
      </trkpt>
      <trkpt lat="45.05038" lon="3.94213">
        <ele>670.5</ele>
        <time>2026-04-26T11:56:11Z</time>
      </trkpt>
      <trkpt lat="45.05035" lon="3.94204">
        <ele>670.4</ele>
        <time>2026-04-26T11:56:16Z</time>
      </trkpt>
      <trkpt lat="45.05029" lon="3.94194">
        <ele>670.6</ele>
        <time>2026-04-26T11:56:21Z</time>
      </trkpt>
      <trkpt lat="45.05027" lon="3.94183">
        <ele>670.3</ele>
        <time>2026-04-26T11:56:26Z</time>
      </trkpt>
      <trkpt lat="45.05024" lon="3.94173">
        <ele>670.2</ele>
        <time>2026-04-26T11:56:31Z</time>
      </trkpt>
      <trkpt lat="45.0502" lon="3.94162">
        <ele>670.3</ele>
        <time>2026-04-26T11:56:36Z</time>
      </trkpt>
      <trkpt lat="45.05016" lon="3.94153">
        <ele>670.8</ele>
        <time>2026-04-26T11:56:41Z</time>
      </trkpt>
      <trkpt lat="45.0501" lon="3.94143">
        <ele>671.5</ele>
        <time>2026-04-26T11:56:46Z</time>
      </trkpt>
      <trkpt lat="45.05006" lon="3.94134">
        <ele>672.1</ele>
        <time>2026-04-26T11:56:51Z</time>
      </trkpt>
      <trkpt lat="45.05006" lon="3.94124">
        <ele>672.1</ele>
        <time>2026-04-26T11:56:56Z</time>
      </trkpt>
      <trkpt lat="45.05007" lon="3.94112">
        <ele>671.9</ele>
        <time>2026-04-26T11:57:01Z</time>
      </trkpt>
      <trkpt lat="45.05009" lon="3.94107">
        <ele>671.5</ele>
        <time>2026-04-26T11:57:06Z</time>
      </trkpt>
      <trkpt lat="45.05009" lon="3.94099">
        <ele>671.5</ele>
        <time>2026-04-26T11:57:11Z</time>
      </trkpt>
      <trkpt lat="45.05007" lon="3.94092">
        <ele>671.8</ele>
        <time>2026-04-26T11:57:16Z</time>
      </trkpt>
      <trkpt lat="45.05004" lon="3.94083">
        <ele>672.2</ele>
        <time>2026-04-26T11:57:21Z</time>
      </trkpt>
      <trkpt lat="45.05001" lon="3.94074">
        <ele>671.7</ele>
        <time>2026-04-26T11:57:26Z</time>
      </trkpt>
      <trkpt lat="45.04998" lon="3.94066">
        <ele>671.6</ele>
        <time>2026-04-26T11:57:31Z</time>
      </trkpt>
      <trkpt lat="45.04997" lon="3.94056">
        <ele>670.7</ele>
        <time>2026-04-26T11:57:36Z</time>
      </trkpt>
      <trkpt lat="45.04995" lon="3.94046">
        <ele>670.1</ele>
        <time>2026-04-26T11:57:41Z</time>
      </trkpt>
      <trkpt lat="45.04991" lon="3.94035">
        <ele>670</ele>
        <time>2026-04-26T11:57:46Z</time>
      </trkpt>
      <trkpt lat="45.04988" lon="3.94025">
        <ele>669.6</ele>
        <time>2026-04-26T11:57:51Z</time>
      </trkpt>
      <trkpt lat="45.04983" lon="3.94015">
        <ele>669.7</ele>
        <time>2026-04-26T11:57:56Z</time>
      </trkpt>
      <trkpt lat="45.0498" lon="3.94003">
        <ele>668.9</ele>
        <time>2026-04-26T11:58:01Z</time>
      </trkpt>
      <trkpt lat="45.04977" lon="3.93993">
        <ele>668.2</ele>
        <time>2026-04-26T11:58:06Z</time>
      </trkpt>
      <trkpt lat="45.04974" lon="3.93984">
        <ele>667.5</ele>
        <time>2026-04-26T11:58:11Z</time>
      </trkpt>
      <trkpt lat="45.04969" lon="3.93977">
        <ele>667.7</ele>
        <time>2026-04-26T11:58:16Z</time>
      </trkpt>
      <trkpt lat="45.04964" lon="3.93967">
        <ele>667.3</ele>
        <time>2026-04-26T11:58:21Z</time>
      </trkpt>
      <trkpt lat="45.04961" lon="3.93958">
        <ele>666.5</ele>
        <time>2026-04-26T11:58:26Z</time>
      </trkpt>
      <trkpt lat="45.04957" lon="3.9395">
        <ele>666.1</ele>
        <time>2026-04-26T11:58:31Z</time>
      </trkpt>
      <trkpt lat="45.04953" lon="3.9394">
        <ele>665.4</ele>
        <time>2026-04-26T11:58:36Z</time>
      </trkpt>
      <trkpt lat="45.04948" lon="3.9393">
        <ele>664.9</ele>
        <time>2026-04-26T11:58:41Z</time>
      </trkpt>
      <trkpt lat="45.04942" lon="3.93921">
        <ele>664.7</ele>
        <time>2026-04-26T11:58:46Z</time>
      </trkpt>
      <trkpt lat="45.04938" lon="3.93912">
        <ele>664.1</ele>
        <time>2026-04-26T11:58:51Z</time>
      </trkpt>
      <trkpt lat="45.04936" lon="3.93902">
        <ele>662.9</ele>
        <time>2026-04-26T11:58:56Z</time>
      </trkpt>
      <trkpt lat="45.04931" lon="3.93894">
        <ele>662.6</ele>
        <time>2026-04-26T11:59:01Z</time>
      </trkpt>
      <trkpt lat="45.04928" lon="3.93885">
        <ele>661.5</ele>
        <time>2026-04-26T11:59:06Z</time>
      </trkpt>
      <trkpt lat="45.04924" lon="3.93876">
        <ele>660.5</ele>
        <time>2026-04-26T11:59:11Z</time>
      </trkpt>
      <trkpt lat="45.0492" lon="3.93867">
        <ele>659.4</ele>
        <time>2026-04-26T11:59:16Z</time>
      </trkpt>
      <trkpt lat="45.04915" lon="3.93856">
        <ele>657.8</ele>
        <time>2026-04-26T11:59:21Z</time>
      </trkpt>
      <trkpt lat="45.04911" lon="3.93844">
        <ele>655.8</ele>
        <time>2026-04-26T11:59:26Z</time>
      </trkpt>
      <trkpt lat="45.04907" lon="3.93834">
        <ele>654.3</ele>
        <time>2026-04-26T11:59:31Z</time>
      </trkpt>
      <trkpt lat="45.04904" lon="3.93825">
        <ele>653.4</ele>
        <time>2026-04-26T11:59:36Z</time>
      </trkpt>
      <trkpt lat="45.04901" lon="3.93817">
        <ele>652.7</ele>
        <time>2026-04-26T11:59:41Z</time>
      </trkpt>
      <trkpt lat="45.049" lon="3.93807">
        <ele>651.4</ele>
        <time>2026-04-26T11:59:46Z</time>
      </trkpt>
      <trkpt lat="45.04895" lon="3.93797">
        <ele>650.6</ele>
        <time>2026-04-26T11:59:51Z</time>
      </trkpt>
      <trkpt lat="45.04892" lon="3.9379">
        <ele>649.9</ele>
        <time>2026-04-26T11:59:56Z</time>
      </trkpt>
      <trkpt lat="45.04889" lon="3.93781">
        <ele>649</ele>
        <time>2026-04-26T12:00:01Z</time>
      </trkpt>
      <trkpt lat="45.04886" lon="3.93774">
        <ele>648.3</ele>
        <time>2026-04-26T12:00:06Z</time>
      </trkpt>
      <trkpt lat="45.04885" lon="3.93769">
        <ele>647.7</ele>
        <time>2026-04-26T12:00:11Z</time>
      </trkpt>
      <trkpt lat="45.04882" lon="3.93761">
        <ele>646.9</ele>
        <time>2026-04-26T12:00:16Z</time>
      </trkpt>
      <trkpt lat="45.04877" lon="3.93752">
        <ele>646.1</ele>
        <time>2026-04-26T12:00:21Z</time>
      </trkpt>
      <trkpt lat="45.04872" lon="3.93744">
        <ele>645.8</ele>
        <time>2026-04-26T12:00:26Z</time>
      </trkpt>
      <trkpt lat="45.04868" lon="3.93737">
        <ele>645.5</ele>
        <time>2026-04-26T12:00:31Z</time>
      </trkpt>
      <trkpt lat="45.04863" lon="3.93729">
        <ele>645.2</ele>
        <time>2026-04-26T12:00:36Z</time>
      </trkpt>
      <trkpt lat="45.04858" lon="3.93723">
        <ele>645</ele>
        <time>2026-04-26T12:00:41Z</time>
      </trkpt>
      <trkpt lat="45.04851" lon="3.93716">
        <ele>644.7</ele>
        <time>2026-04-26T12:00:46Z</time>
      </trkpt>
      <trkpt lat="45.04845" lon="3.9371">
        <ele>644.5</ele>
        <time>2026-04-26T12:00:51Z</time>
      </trkpt>
      <trkpt lat="45.0484" lon="3.93704">
        <ele>644.1</ele>
        <time>2026-04-26T12:00:56Z</time>
      </trkpt>
      <trkpt lat="45.04835" lon="3.93696">
        <ele>643.4</ele>
        <time>2026-04-26T12:01:01Z</time>
      </trkpt>
      <trkpt lat="45.04833" lon="3.93686">
        <ele>642.3</ele>
        <time>2026-04-26T12:01:06Z</time>
      </trkpt>
      <trkpt lat="45.0483" lon="3.93676">
        <ele>641.1</ele>
        <time>2026-04-26T12:01:11Z</time>
      </trkpt>
      <trkpt lat="45.04827" lon="3.93665">
        <ele>639.7</ele>
        <time>2026-04-26T12:01:16Z</time>
      </trkpt>
      <trkpt lat="45.04823" lon="3.93654">
        <ele>638.7</ele>
        <time>2026-04-26T12:01:21Z</time>
      </trkpt>
      <trkpt lat="45.04818" lon="3.93644">
        <ele>637.7</ele>
        <time>2026-04-26T12:01:26Z</time>
      </trkpt>
      <trkpt lat="45.04815" lon="3.93635">
        <ele>636.8</ele>
        <time>2026-04-26T12:01:31Z</time>
      </trkpt>
      <trkpt lat="45.04812" lon="3.93625">
        <ele>635.9</ele>
        <time>2026-04-26T12:01:36Z</time>
      </trkpt>
      <trkpt lat="45.0481" lon="3.93615">
        <ele>634.9</ele>
        <time>2026-04-26T12:01:41Z</time>
      </trkpt>
      <trkpt lat="45.04808" lon="3.93606">
        <ele>634.1</ele>
        <time>2026-04-26T12:01:46Z</time>
      </trkpt>
      <trkpt lat="45.04805" lon="3.93595">
        <ele>633</ele>
        <time>2026-04-26T12:01:51Z</time>
      </trkpt>
      <trkpt lat="45.04802" lon="3.93585">
        <ele>632</ele>
        <time>2026-04-26T12:01:56Z</time>
      </trkpt>
      <trkpt lat="45.04799" lon="3.93576">
        <ele>631.2</ele>
        <time>2026-04-26T12:02:01Z</time>
      </trkpt>
      <trkpt lat="45.04795" lon="3.93568">
        <ele>630.5</ele>
        <time>2026-04-26T12:02:06Z</time>
      </trkpt>
      <trkpt lat="45.0479" lon="3.93559">
        <ele>629.7</ele>
        <time>2026-04-26T12:02:11Z</time>
      </trkpt>
      <trkpt lat="45.04784" lon="3.93549">
        <ele>628.8</ele>
        <time>2026-04-26T12:02:16Z</time>
      </trkpt>
      <trkpt lat="45.0478" lon="3.9354">
        <ele>628.1</ele>
        <time>2026-04-26T12:02:21Z</time>
      </trkpt>
      <trkpt lat="45.04776" lon="3.93529">
        <ele>627.3</ele>
        <time>2026-04-26T12:02:26Z</time>
      </trkpt>
      <trkpt lat="45.04773" lon="3.93518">
        <ele>626.5</ele>
        <time>2026-04-26T12:02:31Z</time>
      </trkpt>
      <trkpt lat="45.0477" lon="3.93508">
        <ele>625.8</ele>
        <time>2026-04-26T12:02:36Z</time>
      </trkpt>
      <trkpt lat="45.04767" lon="3.935">
        <ele>625.2</ele>
        <time>2026-04-26T12:02:41Z</time>
      </trkpt>
      <trkpt lat="45.04761" lon="3.93492">
        <ele>624.4</ele>
        <time>2026-04-26T12:02:46Z</time>
      </trkpt>
      <trkpt lat="45.04756" lon="3.93482">
        <ele>623.4</ele>
        <time>2026-04-26T12:02:51Z</time>
      </trkpt>
      <trkpt lat="45.04755" lon="3.93472">
        <ele>622.5</ele>
        <time>2026-04-26T12:02:56Z</time>
      </trkpt>
      <trkpt lat="45.04752" lon="3.93464">
        <ele>621.6</ele>
        <time>2026-04-26T12:03:01Z</time>
      </trkpt>
      <trkpt lat="45.04748" lon="3.93454">
        <ele>620.4</ele>
        <time>2026-04-26T12:03:06Z</time>
      </trkpt>
      <trkpt lat="45.04744" lon="3.93447">
        <ele>619.5</ele>
        <time>2026-04-26T12:03:11Z</time>
      </trkpt>
      <trkpt lat="45.04741" lon="3.9344">
        <ele>618.6</ele>
        <time>2026-04-26T12:03:16Z</time>
      </trkpt>
      <trkpt lat="45.04739" lon="3.93432">
        <ele>617.7</ele>
        <time>2026-04-26T12:03:21Z</time>
      </trkpt>
      <trkpt lat="45.04736" lon="3.93423">
        <ele>616.6</ele>
        <time>2026-04-26T12:03:26Z</time>
      </trkpt>
      <trkpt lat="45.0473" lon="3.93416">
        <ele>615.5</ele>
        <time>2026-04-26T12:03:31Z</time>
      </trkpt>
      <trkpt lat="45.04725" lon="3.93406">
        <ele>614.8</ele>
        <time>2026-04-26T12:03:36Z</time>
      </trkpt>
      <trkpt lat="45.04719" lon="3.93398">
        <ele>614.1</ele>
        <time>2026-04-26T12:03:41Z</time>
      </trkpt>
      <trkpt lat="45.04713" lon="3.93388">
        <ele>613.3</ele>
        <time>2026-04-26T12:03:46Z</time>
      </trkpt>
      <trkpt lat="45.04706" lon="3.93379">
        <ele>612.5</ele>
        <time>2026-04-26T12:03:51Z</time>
      </trkpt>
      <trkpt lat="45.047" lon="3.9337">
        <ele>611.7</ele>
        <time>2026-04-26T12:03:56Z</time>
      </trkpt>
      <trkpt lat="45.04698" lon="3.93363">
        <ele>611.3</ele>
        <time>2026-04-26T12:04:01Z</time>
      </trkpt>
      <trkpt lat="45.04697" lon="3.93353">
        <ele>610.9</ele>
        <time>2026-04-26T12:04:06Z</time>
      </trkpt>
      <trkpt lat="45.04695" lon="3.93344">
        <ele>610.4</ele>
        <time>2026-04-26T12:04:11Z</time>
      </trkpt>
      <trkpt lat="45.04694" lon="3.93335">
        <ele>610</ele>
        <time>2026-04-26T12:04:16Z</time>
      </trkpt>
      <trkpt lat="45.04688" lon="3.93325">
        <ele>609.6</ele>
        <time>2026-04-26T12:04:21Z</time>
      </trkpt>
      <trkpt lat="45.04685" lon="3.93317">
        <ele>609.4</ele>
        <time>2026-04-26T12:04:26Z</time>
      </trkpt>
      <trkpt lat="45.04681" lon="3.93309">
        <ele>609.2</ele>
        <time>2026-04-26T12:04:31Z</time>
      </trkpt>
      <trkpt lat="45.0468" lon="3.933">
        <ele>609.2</ele>
        <time>2026-04-26T12:04:36Z</time>
      </trkpt>
      <trkpt lat="45.04679" lon="3.93291">
        <ele>609.2</ele>
        <time>2026-04-26T12:04:41Z</time>
      </trkpt>
      <trkpt lat="45.04677" lon="3.93282">
        <ele>609.2</ele>
        <time>2026-04-26T12:04:46Z</time>
      </trkpt>
      <trkpt lat="45.04676" lon="3.93271">
        <ele>609.3</ele>
        <time>2026-04-26T12:04:51Z</time>
      </trkpt>
      <trkpt lat="45.04674" lon="3.9326">
        <ele>609.3</ele>
        <time>2026-04-26T12:04:56Z</time>
      </trkpt>
      <trkpt lat="45.04672" lon="3.93248">
        <ele>609.2</ele>
        <time>2026-04-26T12:05:01Z</time>
      </trkpt>
      <trkpt lat="45.04672" lon="3.93237">
        <ele>609.1</ele>
        <time>2026-04-26T12:05:06Z</time>
      </trkpt>
      <trkpt lat="45.04672" lon="3.93228">
        <ele>609</ele>
        <time>2026-04-26T12:05:11Z</time>
      </trkpt>
      <trkpt lat="45.04675" lon="3.93217">
        <ele>608.9</ele>
        <time>2026-04-26T12:05:16Z</time>
      </trkpt>
      <trkpt lat="45.04673" lon="3.93209">
        <ele>608.7</ele>
        <time>2026-04-26T12:05:21Z</time>
      </trkpt>
      <trkpt lat="45.04672" lon="3.932">
        <ele>608.6</ele>
        <time>2026-04-26T12:05:26Z</time>
      </trkpt>
      <trkpt lat="45.04672" lon="3.9319">
        <ele>608.4</ele>
        <time>2026-04-26T12:05:31Z</time>
      </trkpt>
      <trkpt lat="45.04673" lon="3.93177">
        <ele>608.3</ele>
        <time>2026-04-26T12:05:36Z</time>
      </trkpt>
      <trkpt lat="45.04674" lon="3.93166">
        <ele>608.2</ele>
        <time>2026-04-26T12:05:41Z</time>
      </trkpt>
      <trkpt lat="45.04673" lon="3.93156">
        <ele>608</ele>
        <time>2026-04-26T12:05:46Z</time>
      </trkpt>
      <trkpt lat="45.04672" lon="3.93149">
        <ele>607.9</ele>
        <time>2026-04-26T12:05:51Z</time>
      </trkpt>
      <trkpt lat="45.04671" lon="3.9314">
        <ele>607.8</ele>
        <time>2026-04-26T12:05:56Z</time>
      </trkpt>
      <trkpt lat="45.04671" lon="3.93131">
        <ele>607.7</ele>
        <time>2026-04-26T12:06:01Z</time>
      </trkpt>
      <trkpt lat="45.04673" lon="3.93118">
        <ele>607.6</ele>
        <time>2026-04-26T12:06:06Z</time>
      </trkpt>
      <trkpt lat="45.04674" lon="3.93107">
        <ele>607.5</ele>
        <time>2026-04-26T12:06:11Z</time>
      </trkpt>
      <trkpt lat="45.04674" lon="3.93096">
        <ele>607.3</ele>
        <time>2026-04-26T12:06:16Z</time>
      </trkpt>
      <trkpt lat="45.04674" lon="3.9309">
        <ele>607.3</ele>
        <time>2026-04-26T12:06:21Z</time>
      </trkpt>
      <trkpt lat="45.04674" lon="3.9309">
        <ele>607.3</ele>
        <time>2026-04-26T12:06:26Z</time>
      </trkpt>
      <trkpt lat="45.04674" lon="3.9309">
        <ele>607.3</ele>
        <time>2026-04-26T12:06:31Z</time>
      </trkpt>
      <trkpt lat="45.04674" lon="3.9309">
        <ele>607.3</ele>
        <time>2026-04-26T12:06:36Z</time>
      </trkpt>
      <trkpt lat="45.04674" lon="3.9309">
        <ele>607.3</ele>
        <time>2026-04-26T12:06:41Z</time>
      </trkpt>
      <trkpt lat="45.04674" lon="3.9309">
        <ele>607.3</ele>
        <time>2026-04-26T12:06:46Z</time>
      </trkpt>
      <trkpt lat="45.04672" lon="3.93089">
        <ele>607.2</ele>
        <time>2026-04-26T12:06:51Z</time>
      </trkpt>
      <trkpt lat="45.04673" lon="3.9308">
        <ele>607</ele>
        <time>2026-04-26T12:06:56Z</time>
      </trkpt>
      <trkpt lat="45.04673" lon="3.93071">
        <ele>606.6</ele>
        <time>2026-04-26T12:07:01Z</time>
      </trkpt>
      <trkpt lat="45.04673" lon="3.9306">
        <ele>606.1</ele>
        <time>2026-04-26T12:07:06Z</time>
      </trkpt>
      <trkpt lat="45.04673" lon="3.93051">
        <ele>605.7</ele>
        <time>2026-04-26T12:07:11Z</time>
      </trkpt>
      <trkpt lat="45.04675" lon="3.93045">
        <ele>605.5</ele>
        <time>2026-04-26T12:07:16Z</time>
      </trkpt>
      <trkpt lat="45.04675" lon="3.93037">
        <ele>605.2</ele>
        <time>2026-04-26T12:07:21Z</time>
      </trkpt>
      <trkpt lat="45.04679" lon="3.93028">
        <ele>605</ele>
        <time>2026-04-26T12:07:26Z</time>
      </trkpt>
      <trkpt lat="45.04684" lon="3.93021">
        <ele>605</ele>
        <time>2026-04-26T12:07:31Z</time>
      </trkpt>
      <trkpt lat="45.04685" lon="3.9302">
        <ele>605.1</ele>
        <time>2026-04-26T12:07:36Z</time>
      </trkpt>
      <trkpt lat="45.04691" lon="3.93012">
        <ele>605.2</ele>
        <time>2026-04-26T12:07:41Z</time>
      </trkpt>
      <trkpt lat="45.0469" lon="3.93005">
        <ele>604.9</ele>
        <time>2026-04-26T12:07:46Z</time>
      </trkpt>
      <trkpt lat="45.04683" lon="3.92989">
        <ele>604</ele>
        <time>2026-04-26T12:07:51Z</time>
      </trkpt>
      <trkpt lat="45.04679" lon="3.92979">
        <ele>603.6</ele>
        <time>2026-04-26T12:07:56Z</time>
      </trkpt>
      <trkpt lat="45.04675" lon="3.9297">
        <ele>603.2</ele>
        <time>2026-04-26T12:08:01Z</time>
      </trkpt>
      <trkpt lat="45.04673" lon="3.92962">
        <ele>602.9</ele>
        <time>2026-04-26T12:08:06Z</time>
      </trkpt>
      <trkpt lat="45.04669" lon="3.92957">
        <ele>602.6</ele>
        <time>2026-04-26T12:08:11Z</time>
      </trkpt>
      <trkpt lat="45.04667" lon="3.92955">
        <ele>602.5</ele>
        <time>2026-04-26T12:08:16Z</time>
      </trkpt>
      <trkpt lat="45.04668" lon="3.92953">
        <ele>602.5</ele>
        <time>2026-04-26T12:08:21Z</time>
      </trkpt>
      <trkpt lat="45.04668" lon="3.92953">
        <ele>602.5</ele>
        <time>2026-04-26T12:08:26Z</time>
      </trkpt>
      <trkpt lat="45.04668" lon="3.92953">
        <ele>602.5</ele>
        <time>2026-04-26T12:08:31Z</time>
      </trkpt>
      <trkpt lat="45.04668" lon="3.92953">
        <ele>602.5</ele>
        <time>2026-04-26T12:08:36Z</time>
      </trkpt>
      <trkpt lat="45.04668" lon="3.92953">
        <ele>602.5</ele>
        <time>2026-04-26T12:08:41Z</time>
      </trkpt>
      <trkpt lat="45.04668" lon="3.92953">
        <ele>602.5</ele>
        <time>2026-04-26T12:08:46Z</time>
      </trkpt>
      <trkpt lat="45.04674" lon="3.92951">
        <ele>602.8</ele>
        <time>2026-04-26T12:08:51Z</time>
      </trkpt>
      <trkpt lat="45.04682" lon="3.92946">
        <ele>603.2</ele>
        <time>2026-04-26T12:08:56Z</time>
      </trkpt>
      <trkpt lat="45.04687" lon="3.9294">
        <ele>603.4</ele>
        <time>2026-04-26T12:09:01Z</time>
      </trkpt>
      <trkpt lat="45.04692" lon="3.92935">
        <ele>603.6</ele>
        <time>2026-04-26T12:09:06Z</time>
      </trkpt>
      <trkpt lat="45.04696" lon="3.92931">
        <ele>603.7</ele>
        <time>2026-04-26T12:09:11Z</time>
      </trkpt>
      <trkpt lat="45.04701" lon="3.92925">
        <ele>603.8</ele>
        <time>2026-04-26T12:09:16Z</time>
      </trkpt>
      <trkpt lat="45.04704" lon="3.92922">
        <ele>603.9</ele>
        <time>2026-04-26T12:09:21Z</time>
      </trkpt>
      <trkpt lat="45.04709" lon="3.92925">
        <ele>604.2</ele>
        <time>2026-04-26T12:09:26Z</time>
      </trkpt>
      <trkpt lat="45.04714" lon="3.92936">
        <ele>604.8</ele>
        <time>2026-04-26T12:09:31Z</time>
      </trkpt>
      <trkpt lat="45.04718" lon="3.92939">
        <ele>605.1</ele>
        <time>2026-04-26T12:09:36Z</time>
      </trkpt>
      <trkpt lat="45.04722" lon="3.92943">
        <ele>605.4</ele>
        <time>2026-04-26T12:09:41Z</time>
      </trkpt>
      <trkpt lat="45.04728" lon="3.92946">
        <ele>605.8</ele>
        <time>2026-04-26T12:09:46Z</time>
      </trkpt>
      <trkpt lat="45.04734" lon="3.92947">
        <ele>606.2</ele>
        <time>2026-04-26T12:09:51Z</time>
      </trkpt>
      <trkpt lat="45.04741" lon="3.92942">
        <ele>606.4</ele>
        <time>2026-04-26T12:09:56Z</time>
      </trkpt>
      <trkpt lat="45.04748" lon="3.92934">
        <ele>606.5</ele>
        <time>2026-04-26T12:10:01Z</time>
      </trkpt>
      <trkpt lat="45.04752" lon="3.92929">
        <ele>606.5</ele>
        <time>2026-04-26T12:10:06Z</time>
      </trkpt>
      <trkpt lat="45.04756" lon="3.92925">
        <ele>606.6</ele>
        <time>2026-04-26T12:10:11Z</time>
      </trkpt>
      <trkpt lat="45.04763" lon="3.92918">
        <ele>606.7</ele>
        <time>2026-04-26T12:10:16Z</time>
      </trkpt>
      <trkpt lat="45.04768" lon="3.92912">
        <ele>606.8</ele>
        <time>2026-04-26T12:10:21Z</time>
      </trkpt>
      <trkpt lat="45.04775" lon="3.92904">
        <ele>606.9</ele>
        <time>2026-04-26T12:10:26Z</time>
      </trkpt>
      <trkpt lat="45.0478" lon="3.92899">
        <ele>607.1</ele>
        <time>2026-04-26T12:10:31Z</time>
      </trkpt>
      <trkpt lat="45.04783" lon="3.92888">
        <ele>607</ele>
        <time>2026-04-26T12:10:36Z</time>
      </trkpt>
      <trkpt lat="45.04785" lon="3.92878">
        <ele>606.9</ele>
        <time>2026-04-26T12:10:41Z</time>
      </trkpt>
      <trkpt lat="45.04786" lon="3.92871">
        <ele>606.9</ele>
        <time>2026-04-26T12:10:46Z</time>
      </trkpt>
      <trkpt lat="45.04788" lon="3.9286">
        <ele>606.8</ele>
        <time>2026-04-26T12:10:51Z</time>
      </trkpt>
      <trkpt lat="45.04789" lon="3.92852">
        <ele>606.7</ele>
        <time>2026-04-26T12:10:56Z</time>
      </trkpt>
      <trkpt lat="45.0479" lon="3.92841">
        <ele>606.5</ele>
        <time>2026-04-26T12:11:01Z</time>
      </trkpt>
      <trkpt lat="45.04791" lon="3.92834">
        <ele>606.5</ele>
        <time>2026-04-26T12:11:06Z</time>
      </trkpt>
      <trkpt lat="45.04792" lon="3.92832">
        <ele>606.5</ele>
        <time>2026-04-26T12:11:11Z</time>
      </trkpt>
      <trkpt lat="45.04794" lon="3.92832">
        <ele>606.6</ele>
        <time>2026-04-26T12:11:16Z</time>
      </trkpt>
      <trkpt lat="45.04794" lon="3.92833">
        <ele>606.6</ele>
        <time>2026-04-26T12:11:21Z</time>
      </trkpt>
      <trkpt lat="45.04794" lon="3.92833">
        <ele>606.6</ele>
        <time>2026-04-26T12:11:26Z</time>
      </trkpt>
      <trkpt lat="45.04794" lon="3.92833">
        <ele>606.6</ele>
        <time>2026-04-26T12:11:31Z</time>
      </trkpt>
      <trkpt lat="45.04794" lon="3.92833">
        <ele>606.6</ele>
        <time>2026-04-26T12:11:36Z</time>
      </trkpt>
      <trkpt lat="45.04794" lon="3.92833">
        <ele>606.6</ele>
        <time>2026-04-26T12:11:41Z</time>
      </trkpt>
      <trkpt lat="45.04794" lon="3.92833">
        <ele>606.6</ele>
        <time>2026-04-26T12:11:46Z</time>
      </trkpt>
      <trkpt lat="45.04794" lon="3.92833">
        <ele>606.6</ele>
        <time>2026-04-26T12:11:51Z</time>
      </trkpt>
      <trkpt lat="45.04794" lon="3.92833">
        <ele>606.6</ele>
        <time>2026-04-26T12:11:56Z</time>
      </trkpt>
      <trkpt lat="45.04794" lon="3.92833">
        <ele>606.6</ele>
        <time>2026-04-26T12:12:01Z</time>
      </trkpt>
      <trkpt lat="45.04794" lon="3.92833">
        <ele>606.6</ele>
        <time>2026-04-26T12:12:06Z</time>
      </trkpt>
      <trkpt lat="45.04796" lon="3.92828">
        <ele>606.6</ele>
        <time>2026-04-26T12:12:11Z</time>
      </trkpt>
      <trkpt lat="45.04798" lon="3.92823">
        <ele>606.6</ele>
        <time>2026-04-26T12:12:16Z</time>
      </trkpt>
      <trkpt lat="45.04798" lon="3.92815">
        <ele>606.4</ele>
        <time>2026-04-26T12:12:21Z</time>
      </trkpt>
      <trkpt lat="45.04799" lon="3.92804">
        <ele>606.1</ele>
        <time>2026-04-26T12:12:26Z</time>
      </trkpt>
      <trkpt lat="45.048" lon="3.9279">
        <ele>605.8</ele>
        <time>2026-04-26T12:12:31Z</time>
      </trkpt>
      <trkpt lat="45.04801" lon="3.92779">
        <ele>605.5</ele>
        <time>2026-04-26T12:12:36Z</time>
      </trkpt>
      <trkpt lat="45.04801" lon="3.92771">
        <ele>605.2</ele>
        <time>2026-04-26T12:12:41Z</time>
      </trkpt>
      <trkpt lat="45.04798" lon="3.92766">
        <ele>605</ele>
        <time>2026-04-26T12:12:46Z</time>
      </trkpt>
      <trkpt lat="45.0479" lon="3.9276">
        <ele>604.7</ele>
        <time>2026-04-26T12:12:51Z</time>
      </trkpt>
      <trkpt lat="45.04783" lon="3.92753">
        <ele>604.5</ele>
        <time>2026-04-26T12:12:56Z</time>
      </trkpt>
      <trkpt lat="45.04779" lon="3.9275">
        <ele>604.3</ele>
        <time>2026-04-26T12:13:01Z</time>
      </trkpt>
      <trkpt lat="45.04778" lon="3.92748">
        <ele>604.4</ele>
        <time>2026-04-26T12:13:06Z</time>
      </trkpt>
      <trkpt lat="45.04776" lon="3.92747">
        <ele>604.3</ele>
        <time>2026-04-26T12:13:11Z</time>
      </trkpt>
      <trkpt lat="45.04774" lon="3.92746">
        <ele>604.3</ele>
        <time>2026-04-26T12:13:16Z</time>
      </trkpt>
      <trkpt lat="45.04774" lon="3.92746">
        <ele>604.3</ele>
        <time>2026-04-26T12:13:21Z</time>
      </trkpt>
      <trkpt lat="45.04771" lon="3.92746">
        <ele>604.3</ele>
        <time>2026-04-26T12:13:26Z</time>
      </trkpt>
      <trkpt lat="45.04765" lon="3.9274">
        <ele>604.3</ele>
        <time>2026-04-26T12:13:31Z</time>
      </trkpt>
      <trkpt lat="45.04759" lon="3.92733">
        <ele>604.4</ele>
        <time>2026-04-26T12:13:36Z</time>
      </trkpt>
      <trkpt lat="45.04752" lon="3.92727">
        <ele>604.5</ele>
        <time>2026-04-26T12:13:41Z</time>
      </trkpt>
      <trkpt lat="45.04748" lon="3.92721">
        <ele>604.7</ele>
        <time>2026-04-26T12:13:46Z</time>
      </trkpt>
      <trkpt lat="45.04742" lon="3.92715">
        <ele>604.9</ele>
        <time>2026-04-26T12:13:51Z</time>
      </trkpt>
      <trkpt lat="45.04736" lon="3.92709">
        <ele>605.2</ele>
        <time>2026-04-26T12:13:56Z</time>
      </trkpt>
      <trkpt lat="45.04732" lon="3.92704">
        <ele>605.3</ele>
        <time>2026-04-26T12:14:01Z</time>
      </trkpt>
      <trkpt lat="45.04727" lon="3.927">
        <ele>605.5</ele>
        <time>2026-04-26T12:14:06Z</time>
      </trkpt>
      <trkpt lat="45.04723" lon="3.92695">
        <ele>605.6</ele>
        <time>2026-04-26T12:14:11Z</time>
      </trkpt>
      <trkpt lat="45.04723" lon="3.92693">
        <ele>605.7</ele>
        <time>2026-04-26T12:14:16Z</time>
      </trkpt>
      <trkpt lat="45.04725" lon="3.92691">
        <ele>605.7</ele>
        <time>2026-04-26T12:14:21Z</time>
      </trkpt>
      <trkpt lat="45.04729" lon="3.92685">
        <ele>605.8</ele>
        <time>2026-04-26T12:14:26Z</time>
      </trkpt>
      <trkpt lat="45.0473" lon="3.92683">
        <ele>605.8</ele>
        <time>2026-04-26T12:14:31Z</time>
      </trkpt>
      <trkpt lat="45.0473" lon="3.92683">
        <ele>605.8</ele>
        <time>2026-04-26T12:14:36Z</time>
      </trkpt>
      <trkpt lat="45.0473" lon="3.92683">
        <ele>605.8</ele>
        <time>2026-04-26T12:14:41Z</time>
      </trkpt>
      <trkpt lat="45.04729" lon="3.92679">
        <ele>606</ele>
        <time>2026-04-26T12:14:46Z</time>
      </trkpt>
      <trkpt lat="45.04729" lon="3.92679">
        <ele>606</ele>
        <time>2026-04-26T12:14:51Z</time>
      </trkpt>
      <trkpt lat="45.04729" lon="3.92679">
        <ele>606</ele>
        <time>2026-04-26T12:14:56Z</time>
      </trkpt>
      <trkpt lat="45.04729" lon="3.92679">
        <ele>606</ele>
        <time>2026-04-26T12:15:01Z</time>
      </trkpt>
      <trkpt lat="45.04725" lon="3.92678">
        <ele>606</ele>
        <time>2026-04-26T12:15:06Z</time>
      </trkpt>
      <trkpt lat="45.04721" lon="3.92675">
        <ele>606.1</ele>
        <time>2026-04-26T12:15:11Z</time>
      </trkpt>
      <trkpt lat="45.04716" lon="3.9267">
        <ele>606.3</ele>
        <time>2026-04-26T12:15:16Z</time>
      </trkpt>
      <trkpt lat="45.04711" lon="3.92665">
        <ele>606.4</ele>
        <time>2026-04-26T12:15:21Z</time>
      </trkpt>
      <trkpt lat="45.04705" lon="3.92658">
        <ele>606.4</ele>
        <time>2026-04-26T12:15:26Z</time>
      </trkpt>
      <trkpt lat="45.04704" lon="3.92653">
        <ele>606.4</ele>
        <time>2026-04-26T12:15:31Z</time>
      </trkpt>
      <trkpt lat="45.04706" lon="3.92643">
        <ele>606.2</ele>
        <time>2026-04-26T12:15:36Z</time>
      </trkpt>
      <trkpt lat="45.04708" lon="3.92634">
        <ele>606.1</ele>
        <time>2026-04-26T12:15:41Z</time>
      </trkpt>
      <trkpt lat="45.0471" lon="3.92625">
        <ele>606</ele>
        <time>2026-04-26T12:15:46Z</time>
      </trkpt>
      <trkpt lat="45.04711" lon="3.92621">
        <ele>605.9</ele>
        <time>2026-04-26T12:15:51Z</time>
      </trkpt>
      <trkpt lat="45.04713" lon="3.92624">
        <ele>605.9</ele>
        <time>2026-04-26T12:15:56Z</time>
      </trkpt>
      <trkpt lat="45.04715" lon="3.9263">
        <ele>606</ele>
        <time>2026-04-26T12:16:01Z</time>
      </trkpt>
      <trkpt lat="45.04714" lon="3.92637">
        <ele>606.1</ele>
        <time>2026-04-26T12:16:06Z</time>
      </trkpt>
      <trkpt lat="45.04711" lon="3.92637">
        <ele>606.1</ele>
        <time>2026-04-26T12:16:11Z</time>
      </trkpt>
      <trkpt lat="45.0471" lon="3.92636">
        <ele>606.1</ele>
        <time>2026-04-26T12:16:16Z</time>
      </trkpt>
      <trkpt lat="45.0471" lon="3.92636">
        <ele>606.1</ele>
        <time>2026-04-26T12:16:21Z</time>
      </trkpt>
      <trkpt lat="45.0471" lon="3.92636">
        <ele>606.1</ele>
        <time>2026-04-26T12:16:26Z</time>
      </trkpt>
      <trkpt lat="45.0471" lon="3.92636">
        <ele>606.1</ele>
        <time>2026-04-26T12:16:31Z</time>
      </trkpt>
      <trkpt lat="45.0471" lon="3.92636">
        <ele>606.1</ele>
        <time>2026-04-26T12:16:36Z</time>
      </trkpt>
      <trkpt lat="45.0472" lon="3.92638">
        <ele>606</ele>
        <time>2026-04-26T12:16:41Z</time>
      </trkpt>
      <trkpt lat="45.04726" lon="3.92635">
        <ele>605.9</ele>
        <time>2026-04-26T12:16:46Z</time>
      </trkpt>
      <trkpt lat="45.04731" lon="3.92628">
        <ele>605.8</ele>
        <time>2026-04-26T12:16:51Z</time>
      </trkpt>
      <trkpt lat="45.04736" lon="3.92624">
        <ele>605.7</ele>
        <time>2026-04-26T12:16:56Z</time>
      </trkpt>
      <trkpt lat="45.04742" lon="3.92619">
        <ele>605.5</ele>
        <time>2026-04-26T12:17:01Z</time>
      </trkpt>
      <trkpt lat="45.04747" lon="3.92609">
        <ele>605.3</ele>
        <time>2026-04-26T12:17:06Z</time>
      </trkpt>
      <trkpt lat="45.04751" lon="3.92602">
        <ele>605.2</ele>
        <time>2026-04-26T12:17:11Z</time>
      </trkpt>
      <trkpt lat="45.04754" lon="3.92593">
        <ele>605.1</ele>
        <time>2026-04-26T12:17:16Z</time>
      </trkpt>
      <trkpt lat="45.04756" lon="3.92589">
        <ele>605.1</ele>
        <time>2026-04-26T12:17:21Z</time>
      </trkpt>
      <trkpt lat="45.04761" lon="3.92585">
        <ele>605</ele>
        <time>2026-04-26T12:17:26Z</time>
      </trkpt>
      <trkpt lat="45.04768" lon="3.92578">
        <ele>604.9</ele>
        <time>2026-04-26T12:17:31Z</time>
      </trkpt>
      <trkpt lat="45.04772" lon="3.92572">
        <ele>604.9</ele>
        <time>2026-04-26T12:17:36Z</time>
      </trkpt>
      <trkpt lat="45.04776" lon="3.92565">
        <ele>604.8</ele>
        <time>2026-04-26T12:17:41Z</time>
      </trkpt>
      <trkpt lat="45.04779" lon="3.92557">
        <ele>604.8</ele>
        <time>2026-04-26T12:17:46Z</time>
      </trkpt>
      <trkpt lat="45.04783" lon="3.92547">
        <ele>604.7</ele>
        <time>2026-04-26T12:17:51Z</time>
      </trkpt>
      <trkpt lat="45.04788" lon="3.92541">
        <ele>604.7</ele>
        <time>2026-04-26T12:17:56Z</time>
      </trkpt>
      <trkpt lat="45.0479" lon="3.92535">
        <ele>604.7</ele>
        <time>2026-04-26T12:18:01Z</time>
      </trkpt>
      <trkpt lat="45.0479" lon="3.9253">
        <ele>604.7</ele>
        <time>2026-04-26T12:18:06Z</time>
      </trkpt>
      <trkpt lat="45.04787" lon="3.92519">
        <ele>604.6</ele>
        <time>2026-04-26T12:18:11Z</time>
      </trkpt>
      <trkpt lat="45.04787" lon="3.92509">
        <ele>604.5</ele>
        <time>2026-04-26T12:18:16Z</time>
      </trkpt>
      <trkpt lat="45.04788" lon="3.92499">
        <ele>604.5</ele>
        <time>2026-04-26T12:18:21Z</time>
      </trkpt>
      <trkpt lat="45.0479" lon="3.92487">
        <ele>604.6</ele>
        <time>2026-04-26T12:18:26Z</time>
      </trkpt>
      <trkpt lat="45.04791" lon="3.92476">
        <ele>604.8</ele>
        <time>2026-04-26T12:18:31Z</time>
      </trkpt>
      <trkpt lat="45.04794" lon="3.92469">
        <ele>604.9</ele>
        <time>2026-04-26T12:18:36Z</time>
      </trkpt>
      <trkpt lat="45.04795" lon="3.92462">
        <ele>605</ele>
        <time>2026-04-26T12:18:41Z</time>
      </trkpt>
      <trkpt lat="45.04803" lon="3.92456">
        <ele>605.2</ele>
        <time>2026-04-26T12:18:46Z</time>
      </trkpt>
      <trkpt lat="45.04811" lon="3.92449">
        <ele>605.3</ele>
        <time>2026-04-26T12:18:51Z</time>
      </trkpt>
      <trkpt lat="45.04817" lon="3.92434">
        <ele>605.6</ele>
        <time>2026-04-26T12:18:56Z</time>
      </trkpt>
      <trkpt lat="45.04823" lon="3.92426">
        <ele>605.8</ele>
        <time>2026-04-26T12:19:01Z</time>
      </trkpt>
      <trkpt lat="45.04827" lon="3.92419">
        <ele>605.9</ele>
        <time>2026-04-26T12:19:06Z</time>
      </trkpt>
      <trkpt lat="45.04831" lon="3.92412">
        <ele>605.8</ele>
        <time>2026-04-26T12:19:11Z</time>
      </trkpt>
      <trkpt lat="45.04835" lon="3.92402">
        <ele>605.4</ele>
        <time>2026-04-26T12:19:16Z</time>
      </trkpt>
      <trkpt lat="45.04839" lon="3.92393">
        <ele>605</ele>
        <time>2026-04-26T12:19:21Z</time>
      </trkpt>
      <trkpt lat="45.04843" lon="3.92384">
        <ele>604.6</ele>
        <time>2026-04-26T12:19:26Z</time>
      </trkpt>
      <trkpt lat="45.04847" lon="3.92376">
        <ele>604.3</ele>
        <time>2026-04-26T12:19:31Z</time>
      </trkpt>
      <trkpt lat="45.0485" lon="3.92367">
        <ele>604</ele>
        <time>2026-04-26T12:19:36Z</time>
      </trkpt>
      <trkpt lat="45.04854" lon="3.92358">
        <ele>603.7</ele>
        <time>2026-04-26T12:19:41Z</time>
      </trkpt>
      <trkpt lat="45.04857" lon="3.9235">
        <ele>603.4</ele>
        <time>2026-04-26T12:19:46Z</time>
      </trkpt>
      <trkpt lat="45.04861" lon="3.9234">
        <ele>603.2</ele>
        <time>2026-04-26T12:19:51Z</time>
      </trkpt>
      <trkpt lat="45.04865" lon="3.92332">
        <ele>603</ele>
        <time>2026-04-26T12:19:56Z</time>
      </trkpt>
      <trkpt lat="45.04869" lon="3.92322">
        <ele>603.1</ele>
        <time>2026-04-26T12:20:01Z</time>
      </trkpt>
      <trkpt lat="45.04873" lon="3.92313">
        <ele>603.1</ele>
        <time>2026-04-26T12:20:06Z</time>
      </trkpt>
      <trkpt lat="45.04876" lon="3.92304">
        <ele>603.2</ele>
        <time>2026-04-26T12:20:11Z</time>
      </trkpt>
      <trkpt lat="45.04879" lon="3.92297">
        <ele>603.2</ele>
        <time>2026-04-26T12:20:16Z</time>
      </trkpt>
      <trkpt lat="45.04883" lon="3.92287">
        <ele>603.3</ele>
        <time>2026-04-26T12:20:21Z</time>
      </trkpt>
      <trkpt lat="45.04887" lon="3.92279">
        <ele>603.4</ele>
        <time>2026-04-26T12:20:26Z</time>
      </trkpt>
      <trkpt lat="45.04893" lon="3.92273">
        <ele>603.5</ele>
        <time>2026-04-26T12:20:31Z</time>
      </trkpt>
      <trkpt lat="45.04899" lon="3.92264">
        <ele>603.7</ele>
        <time>2026-04-26T12:20:36Z</time>
      </trkpt>
      <trkpt lat="45.04902" lon="3.92256">
        <ele>603.8</ele>
        <time>2026-04-26T12:20:41Z</time>
      </trkpt>
      <trkpt lat="45.04904" lon="3.92244">
        <ele>603.9</ele>
        <time>2026-04-26T12:20:46Z</time>
      </trkpt>
      <trkpt lat="45.04906" lon="3.92235">
        <ele>604.1</ele>
        <time>2026-04-26T12:20:51Z</time>
      </trkpt>
      <trkpt lat="45.04907" lon="3.92225">
        <ele>604.2</ele>
        <time>2026-04-26T12:20:56Z</time>
      </trkpt>
      <trkpt lat="45.04909" lon="3.92215">
        <ele>604.3</ele>
        <time>2026-04-26T12:21:01Z</time>
      </trkpt>
      <trkpt lat="45.04912" lon="3.92207">
        <ele>604.5</ele>
        <time>2026-04-26T12:21:06Z</time>
      </trkpt>
      <trkpt lat="45.04915" lon="3.92198">
        <ele>604.6</ele>
        <time>2026-04-26T12:21:11Z</time>
      </trkpt>
      <trkpt lat="45.04917" lon="3.92187">
        <ele>604.7</ele>
        <time>2026-04-26T12:21:16Z</time>
      </trkpt>
      <trkpt lat="45.04924" lon="3.92181">
        <ele>604.6</ele>
        <time>2026-04-26T12:21:21Z</time>
      </trkpt>
      <trkpt lat="45.0493" lon="3.92171">
        <ele>604.5</ele>
        <time>2026-04-26T12:21:26Z</time>
      </trkpt>
      <trkpt lat="45.04935" lon="3.92162">
        <ele>604.3</ele>
        <time>2026-04-26T12:21:31Z</time>
      </trkpt>
      <trkpt lat="45.04941" lon="3.92155">
        <ele>604</ele>
        <time>2026-04-26T12:21:36Z</time>
      </trkpt>
      <trkpt lat="45.04947" lon="3.92146">
        <ele>603.7</ele>
        <time>2026-04-26T12:21:41Z</time>
      </trkpt>
      <trkpt lat="45.04954" lon="3.92138">
        <ele>603.4</ele>
        <time>2026-04-26T12:21:46Z</time>
      </trkpt>
      <trkpt lat="45.04962" lon="3.92126">
        <ele>603.2</ele>
        <time>2026-04-26T12:21:51Z</time>
      </trkpt>
      <trkpt lat="45.04965" lon="3.92119">
        <ele>603.1</ele>
        <time>2026-04-26T12:21:56Z</time>
      </trkpt>
      <trkpt lat="45.04968" lon="3.92108">
        <ele>603</ele>
        <time>2026-04-26T12:22:01Z</time>
      </trkpt>
      <trkpt lat="45.04968" lon="3.921">
        <ele>603</ele>
        <time>2026-04-26T12:22:06Z</time>
      </trkpt>
      <trkpt lat="45.0497" lon="3.92092">
        <ele>603</ele>
        <time>2026-04-26T12:22:11Z</time>
      </trkpt>
      <trkpt lat="45.04974" lon="3.92085">
        <ele>603</ele>
        <time>2026-04-26T12:22:16Z</time>
      </trkpt>
      <trkpt lat="45.0498" lon="3.92075">
        <ele>603.1</ele>
        <time>2026-04-26T12:22:21Z</time>
      </trkpt>
      <trkpt lat="45.04986" lon="3.92066">
        <ele>603.3</ele>
        <time>2026-04-26T12:22:26Z</time>
      </trkpt>
      <trkpt lat="45.04991" lon="3.92056">
        <ele>603.5</ele>
        <time>2026-04-26T12:22:31Z</time>
      </trkpt>
      <trkpt lat="45.04996" lon="3.92045">
        <ele>603.9</ele>
        <time>2026-04-26T12:22:36Z</time>
      </trkpt>
      <trkpt lat="45.05001" lon="3.92036">
        <ele>604.1</ele>
        <time>2026-04-26T12:22:41Z</time>
      </trkpt>
      <trkpt lat="45.05006" lon="3.92026">
        <ele>604.4</ele>
        <time>2026-04-26T12:22:46Z</time>
      </trkpt>
      <trkpt lat="45.05012" lon="3.92019">
        <ele>604.5</ele>
        <time>2026-04-26T12:22:51Z</time>
      </trkpt>
      <trkpt lat="45.05018" lon="3.92014">
        <ele>604.7</ele>
        <time>2026-04-26T12:22:56Z</time>
      </trkpt>
      <trkpt lat="45.05023" lon="3.92006">
        <ele>604.9</ele>
        <time>2026-04-26T12:23:01Z</time>
      </trkpt>
      <trkpt lat="45.05028" lon="3.91997">
        <ele>605</ele>
        <time>2026-04-26T12:23:06Z</time>
      </trkpt>
      <trkpt lat="45.05033" lon="3.9199">
        <ele>604.9</ele>
        <time>2026-04-26T12:23:11Z</time>
      </trkpt>
      <trkpt lat="45.05037" lon="3.91985">
        <ele>604.8</ele>
        <time>2026-04-26T12:23:16Z</time>
      </trkpt>
      <trkpt lat="45.0504" lon="3.91976">
        <ele>604.7</ele>
        <time>2026-04-26T12:23:21Z</time>
      </trkpt>
      <trkpt lat="45.05045" lon="3.91967">
        <ele>604.6</ele>
        <time>2026-04-26T12:23:26Z</time>
      </trkpt>
      <trkpt lat="45.0505" lon="3.91959">
        <ele>604.5</ele>
        <time>2026-04-26T12:23:31Z</time>
      </trkpt>
      <trkpt lat="45.05055" lon="3.91949">
        <ele>604.4</ele>
        <time>2026-04-26T12:23:36Z</time>
      </trkpt>
      <trkpt lat="45.05059" lon="3.9194">
        <ele>604.3</ele>
        <time>2026-04-26T12:23:41Z</time>
      </trkpt>
      <trkpt lat="45.05063" lon="3.91932">
        <ele>604.2</ele>
        <time>2026-04-26T12:23:46Z</time>
      </trkpt>
      <trkpt lat="45.05066" lon="3.91922">
        <ele>604.1</ele>
        <time>2026-04-26T12:23:51Z</time>
      </trkpt>
      <trkpt lat="45.0507" lon="3.91912">
        <ele>604</ele>
        <time>2026-04-26T12:23:56Z</time>
      </trkpt>
      <trkpt lat="45.05078" lon="3.91909">
        <ele>603.9</ele>
        <time>2026-04-26T12:24:01Z</time>
      </trkpt>
      <trkpt lat="45.05084" lon="3.91905">
        <ele>603.8</ele>
        <time>2026-04-26T12:24:06Z</time>
      </trkpt>
      <trkpt lat="45.0509" lon="3.91898">
        <ele>603.7</ele>
        <time>2026-04-26T12:24:11Z</time>
      </trkpt>
      <trkpt lat="45.05096" lon="3.91893">
        <ele>603.5</ele>
        <time>2026-04-26T12:24:16Z</time>
      </trkpt>
      <trkpt lat="45.05101" lon="3.91886">
        <ele>603.4</ele>
        <time>2026-04-26T12:24:21Z</time>
      </trkpt>
      <trkpt lat="45.05106" lon="3.91879">
        <ele>603.2</ele>
        <time>2026-04-26T12:24:26Z</time>
      </trkpt>
      <trkpt lat="45.05108" lon="3.91876">
        <ele>603.2</ele>
        <time>2026-04-26T12:24:31Z</time>
      </trkpt>
      <trkpt lat="45.05109" lon="3.91874">
        <ele>603.2</ele>
        <time>2026-04-26T12:24:36Z</time>
      </trkpt>
      <trkpt lat="45.05111" lon="3.9187">
        <ele>603.1</ele>
        <time>2026-04-26T12:24:41Z</time>
      </trkpt>
      <trkpt lat="45.05111" lon="3.9187">
        <ele>603.1</ele>
        <time>2026-04-26T12:24:46Z</time>
      </trkpt>
      <trkpt lat="45.05113" lon="3.91864">
        <ele>603.1</ele>
        <time>2026-04-26T12:24:51Z</time>
      </trkpt>
      <trkpt lat="45.0512" lon="3.91856">
        <ele>603</ele>
        <time>2026-04-26T12:24:56Z</time>
      </trkpt>
      <trkpt lat="45.05126" lon="3.9185">
        <ele>603</ele>
        <time>2026-04-26T12:25:01Z</time>
      </trkpt>
      <trkpt lat="45.05132" lon="3.91843">
        <ele>603</ele>
        <time>2026-04-26T12:25:06Z</time>
      </trkpt>
      <trkpt lat="45.05138" lon="3.91835">
        <ele>603</ele>
        <time>2026-04-26T12:25:11Z</time>
      </trkpt>
      <trkpt lat="45.05143" lon="3.91829">
        <ele>603</ele>
        <time>2026-04-26T12:25:16Z</time>
      </trkpt>
      <trkpt lat="45.05149" lon="3.91825">
        <ele>603</ele>
        <time>2026-04-26T12:25:21Z</time>
      </trkpt>
      <trkpt lat="45.05153" lon="3.91819">
        <ele>603</ele>
        <time>2026-04-26T12:25:26Z</time>
      </trkpt>
      <trkpt lat="45.05159" lon="3.91808">
        <ele>603</ele>
        <time>2026-04-26T12:25:31Z</time>
      </trkpt>
      <trkpt lat="45.05164" lon="3.918">
        <ele>603</ele>
        <time>2026-04-26T12:25:36Z</time>
      </trkpt>
      <trkpt lat="45.05168" lon="3.91792">
        <ele>603</ele>
        <time>2026-04-26T12:25:41Z</time>
      </trkpt>
      <trkpt lat="45.05174" lon="3.91786">
        <ele>602.9</ele>
        <time>2026-04-26T12:25:46Z</time>
      </trkpt>
      <trkpt lat="45.05178" lon="3.91777">
        <ele>602.9</ele>
        <time>2026-04-26T12:25:51Z</time>
      </trkpt>
      <trkpt lat="45.05184" lon="3.91769">
        <ele>602.9</ele>
        <time>2026-04-26T12:25:56Z</time>
      </trkpt>
      <trkpt lat="45.05189" lon="3.91762">
        <ele>602.9</ele>
        <time>2026-04-26T12:26:01Z</time>
      </trkpt>
      <trkpt lat="45.05195" lon="3.91754">
        <ele>603</ele>
        <time>2026-04-26T12:26:06Z</time>
      </trkpt>
      <trkpt lat="45.05199" lon="3.91747">
        <ele>603</ele>
        <time>2026-04-26T12:26:11Z</time>
      </trkpt>
      <trkpt lat="45.05203" lon="3.91738">
        <ele>603.1</ele>
        <time>2026-04-26T12:26:16Z</time>
      </trkpt>
      <trkpt lat="45.05208" lon="3.91728">
        <ele>603.1</ele>
        <time>2026-04-26T12:26:21Z</time>
      </trkpt>
      <trkpt lat="45.05214" lon="3.9172">
        <ele>603.2</ele>
        <time>2026-04-26T12:26:26Z</time>
      </trkpt>
      <trkpt lat="45.05219" lon="3.91713">
        <ele>603.2</ele>
        <time>2026-04-26T12:26:31Z</time>
      </trkpt>
      <trkpt lat="45.05224" lon="3.91705">
        <ele>603.2</ele>
        <time>2026-04-26T12:26:36Z</time>
      </trkpt>
      <trkpt lat="45.05229" lon="3.91695">
        <ele>603.2</ele>
        <time>2026-04-26T12:26:41Z</time>
      </trkpt>
      <trkpt lat="45.05233" lon="3.91688">
        <ele>603.2</ele>
        <time>2026-04-26T12:26:46Z</time>
      </trkpt>
      <trkpt lat="45.05236" lon="3.91681">
        <ele>603.1</ele>
        <time>2026-04-26T12:26:51Z</time>
      </trkpt>
      <trkpt lat="45.0524" lon="3.91677">
        <ele>603.1</ele>
        <time>2026-04-26T12:26:56Z</time>
      </trkpt>
      <trkpt lat="45.05243" lon="3.9168">
        <ele>603.1</ele>
        <time>2026-04-26T12:27:01Z</time>
      </trkpt>
      <trkpt lat="45.05245" lon="3.9168">
        <ele>603.1</ele>
        <time>2026-04-26T12:27:06Z</time>
      </trkpt>
      <trkpt lat="45.05246" lon="3.91677">
        <ele>603</ele>
        <time>2026-04-26T12:27:11Z</time>
      </trkpt>
      <trkpt lat="45.05247" lon="3.91669">
        <ele>603</ele>
        <time>2026-04-26T12:27:16Z</time>
      </trkpt>
      <trkpt lat="45.05251" lon="3.9166">
        <ele>602.8</ele>
        <time>2026-04-26T12:27:21Z</time>
      </trkpt>
      <trkpt lat="45.05257" lon="3.91653">
        <ele>602.5</ele>
        <time>2026-04-26T12:27:26Z</time>
      </trkpt>
      <trkpt lat="45.05262" lon="3.91645">
        <ele>602.2</ele>
        <time>2026-04-26T12:27:31Z</time>
      </trkpt>
      <trkpt lat="45.05268" lon="3.91639">
        <ele>601.9</ele>
        <time>2026-04-26T12:27:36Z</time>
      </trkpt>
      <trkpt lat="45.0527" lon="3.91636">
        <ele>601.8</ele>
        <time>2026-04-26T12:27:41Z</time>
      </trkpt>
      <trkpt lat="45.0527" lon="3.91636">
        <ele>601.8</ele>
        <time>2026-04-26T12:27:46Z</time>
      </trkpt>
      <trkpt lat="45.0527" lon="3.91636">
        <ele>601.8</ele>
        <time>2026-04-26T12:27:51Z</time>
      </trkpt>
      <trkpt lat="45.0527" lon="3.91636">
        <ele>601.8</ele>
        <time>2026-04-26T12:27:56Z</time>
      </trkpt>
      <trkpt lat="45.0527" lon="3.91636">
        <ele>601.8</ele>
        <time>2026-04-26T12:28:01Z</time>
      </trkpt>
      <trkpt lat="45.0527" lon="3.91636">
        <ele>601.8</ele>
        <time>2026-04-26T12:28:06Z</time>
      </trkpt>
      <trkpt lat="45.0527" lon="3.91636">
        <ele>601.8</ele>
        <time>2026-04-26T12:28:11Z</time>
      </trkpt>
      <trkpt lat="45.0527" lon="3.91636">
        <ele>601.8</ele>
        <time>2026-04-26T12:28:16Z</time>
      </trkpt>
      <trkpt lat="45.0527" lon="3.91636">
        <ele>601.8</ele>
        <time>2026-04-26T12:28:21Z</time>
      </trkpt>
      <trkpt lat="45.0527" lon="3.91636">
        <ele>601.8</ele>
        <time>2026-04-26T12:28:26Z</time>
      </trkpt>
      <trkpt lat="45.0527" lon="3.91631">
        <ele>601.7</ele>
        <time>2026-04-26T12:28:31Z</time>
      </trkpt>
      <trkpt lat="45.05274" lon="3.91622">
        <ele>601.5</ele>
        <time>2026-04-26T12:28:36Z</time>
      </trkpt>
      <trkpt lat="45.05277" lon="3.91614">
        <ele>601.4</ele>
        <time>2026-04-26T12:28:41Z</time>
      </trkpt>
      <trkpt lat="45.0528" lon="3.91606">
        <ele>601.3</ele>
        <time>2026-04-26T12:28:46Z</time>
      </trkpt>
      <trkpt lat="45.05283" lon="3.916">
        <ele>601.2</ele>
        <time>2026-04-26T12:28:51Z</time>
      </trkpt>
      <trkpt lat="45.05286" lon="3.91592">
        <ele>601.1</ele>
        <time>2026-04-26T12:28:56Z</time>
      </trkpt>
      <trkpt lat="45.05287" lon="3.91584">
        <ele>601</ele>
        <time>2026-04-26T12:29:01Z</time>
      </trkpt>
      <trkpt lat="45.0529" lon="3.91583">
        <ele>601</ele>
        <time>2026-04-26T12:29:06Z</time>
      </trkpt>
      <trkpt lat="45.05294" lon="3.91583">
        <ele>601</ele>
        <time>2026-04-26T12:29:11Z</time>
      </trkpt>
      <trkpt lat="45.05292" lon="3.91588">
        <ele>601</ele>
        <time>2026-04-26T12:29:16Z</time>
      </trkpt>
      <trkpt lat="45.05291" lon="3.91592">
        <ele>601.1</ele>
        <time>2026-04-26T12:29:21Z</time>
      </trkpt>
      <trkpt lat="45.05291" lon="3.91601">
        <ele>601.1</ele>
        <time>2026-04-26T12:29:26Z</time>
      </trkpt>
      <trkpt lat="45.05291" lon="3.9161">
        <ele>601.2</ele>
        <time>2026-04-26T12:29:31Z</time>
      </trkpt>
      <trkpt lat="45.05291" lon="3.91616">
        <ele>601.2</ele>
        <time>2026-04-26T12:29:36Z</time>
      </trkpt>
      <trkpt lat="45.05292" lon="3.91621">
        <ele>601.2</ele>
        <time>2026-04-26T12:29:41Z</time>
      </trkpt>
      <trkpt lat="45.05294" lon="3.91627">
        <ele>601.2</ele>
        <time>2026-04-26T12:29:46Z</time>
      </trkpt>
      <trkpt lat="45.05296" lon="3.91634">
        <ele>601.2</ele>
        <time>2026-04-26T12:29:51Z</time>
      </trkpt>
      <trkpt lat="45.05299" lon="3.91641">
        <ele>601.2</ele>
        <time>2026-04-26T12:29:56Z</time>
      </trkpt>
      <trkpt lat="45.05301" lon="3.91649">
        <ele>601.1</ele>
        <time>2026-04-26T12:30:01Z</time>
      </trkpt>
      <trkpt lat="45.05304" lon="3.91655">
        <ele>601</ele>
        <time>2026-04-26T12:30:06Z</time>
      </trkpt>
      <trkpt lat="45.05307" lon="3.91662">
        <ele>601</ele>
        <time>2026-04-26T12:30:11Z</time>
      </trkpt>
      <trkpt lat="45.05309" lon="3.91669">
        <ele>600.8</ele>
        <time>2026-04-26T12:30:16Z</time>
      </trkpt>
      <trkpt lat="45.0531" lon="3.91673">
        <ele>600.7</ele>
        <time>2026-04-26T12:30:21Z</time>
      </trkpt>
      <trkpt lat="45.0531" lon="3.91673">
        <ele>600.7</ele>
        <time>2026-04-26T12:30:26Z</time>
      </trkpt>
      <trkpt lat="45.0531" lon="3.91673">
        <ele>600.7</ele>
        <time>2026-04-26T12:30:31Z</time>
      </trkpt>
      <trkpt lat="45.0531" lon="3.91673">
        <ele>600.7</ele>
        <time>2026-04-26T12:30:36Z</time>
      </trkpt>
      <trkpt lat="45.0531" lon="3.91673">
        <ele>600.7</ele>
        <time>2026-04-26T12:30:41Z</time>
      </trkpt>
      <trkpt lat="45.0531" lon="3.91673">
        <ele>600.7</ele>
        <time>2026-04-26T12:30:46Z</time>
      </trkpt>
      <trkpt lat="45.0531" lon="3.91673">
        <ele>600.7</ele>
        <time>2026-04-26T12:30:51Z</time>
      </trkpt>
      <trkpt lat="45.0531" lon="3.91673">
        <ele>600.7</ele>
        <time>2026-04-26T12:30:56Z</time>
      </trkpt>
      <trkpt lat="45.0531" lon="3.91673">
        <ele>600.7</ele>
        <time>2026-04-26T12:31:01Z</time>
      </trkpt>
      <trkpt lat="45.05306" lon="3.91662">
        <ele>601</ele>
        <time>2026-04-26T12:31:06Z</time>
      </trkpt>
      <trkpt lat="45.05306" lon="3.91662">
        <ele>601</ele>
        <time>2026-04-26T12:31:11Z</time>
      </trkpt>
      <trkpt lat="45.05307" lon="3.9166">
        <ele>601</ele>
        <time>2026-04-26T12:31:16Z</time>
      </trkpt>
      <trkpt lat="45.05303" lon="3.91652">
        <ele>601.1</ele>
        <time>2026-04-26T12:31:21Z</time>
      </trkpt>
      <trkpt lat="45.05301" lon="3.91642">
        <ele>601.1</ele>
        <time>2026-04-26T12:31:26Z</time>
      </trkpt>
      <trkpt lat="45.05298" lon="3.91633">
        <ele>601.2</ele>
        <time>2026-04-26T12:31:31Z</time>
      </trkpt>
      <trkpt lat="45.05295" lon="3.91625">
        <ele>601.2</ele>
        <time>2026-04-26T12:31:36Z</time>
      </trkpt>
      <trkpt lat="45.05293" lon="3.91617">
        <ele>601.2</ele>
        <time>2026-04-26T12:31:41Z</time>
      </trkpt>
      <trkpt lat="45.05293" lon="3.91606">
        <ele>601.1</ele>
        <time>2026-04-26T12:31:46Z</time>
      </trkpt>
      <trkpt lat="45.05293" lon="3.91597">
        <ele>601.1</ele>
        <time>2026-04-26T12:31:51Z</time>
      </trkpt>
      <trkpt lat="45.05293" lon="3.9159">
        <ele>601</ele>
        <time>2026-04-26T12:31:56Z</time>
      </trkpt>
      <trkpt lat="45.05296" lon="3.91583">
        <ele>601</ele>
        <time>2026-04-26T12:32:01Z</time>
      </trkpt>
      <trkpt lat="45.05301" lon="3.91577">
        <ele>601</ele>
        <time>2026-04-26T12:32:06Z</time>
      </trkpt>
      <trkpt lat="45.05307" lon="3.9157">
        <ele>601.1</ele>
        <time>2026-04-26T12:32:11Z</time>
      </trkpt>
      <trkpt lat="45.05313" lon="3.91564">
        <ele>601.1</ele>
        <time>2026-04-26T12:32:16Z</time>
      </trkpt>
      <trkpt lat="45.05319" lon="3.91556">
        <ele>601.1</ele>
        <time>2026-04-26T12:32:21Z</time>
      </trkpt>
      <trkpt lat="45.05325" lon="3.9155">
        <ele>601</ele>
        <time>2026-04-26T12:32:26Z</time>
      </trkpt>
      <trkpt lat="45.05331" lon="3.91543">
        <ele>601</ele>
        <time>2026-04-26T12:32:31Z</time>
      </trkpt>
      <trkpt lat="45.05336" lon="3.91537">
        <ele>601</ele>
        <time>2026-04-26T12:32:36Z</time>
      </trkpt>
      <trkpt lat="45.05342" lon="3.91531">
        <ele>600.9</ele>
        <time>2026-04-26T12:32:41Z</time>
      </trkpt>
      <trkpt lat="45.05348" lon="3.91523">
        <ele>600.8</ele>
        <time>2026-04-26T12:32:46Z</time>
      </trkpt>
      <trkpt lat="45.05353" lon="3.91516">
        <ele>600.8</ele>
        <time>2026-04-26T12:32:51Z</time>
      </trkpt>
      <trkpt lat="45.05358" lon="3.91512">
        <ele>600.7</ele>
        <time>2026-04-26T12:32:56Z</time>
      </trkpt>
      <trkpt lat="45.05365" lon="3.91508">
        <ele>600.6</ele>
        <time>2026-04-26T12:33:01Z</time>
      </trkpt>
      <trkpt lat="45.05371" lon="3.91502">
        <ele>600.5</ele>
        <time>2026-04-26T12:33:06Z</time>
      </trkpt>
      <trkpt lat="45.05377" lon="3.91496">
        <ele>600.6</ele>
        <time>2026-04-26T12:33:11Z</time>
      </trkpt>
      <trkpt lat="45.05383" lon="3.9149">
        <ele>600.7</ele>
        <time>2026-04-26T12:33:16Z</time>
      </trkpt>
      <trkpt lat="45.05389" lon="3.91484">
        <ele>600.8</ele>
        <time>2026-04-26T12:33:21Z</time>
      </trkpt>
      <trkpt lat="45.05394" lon="3.91478">
        <ele>600.9</ele>
        <time>2026-04-26T12:33:26Z</time>
      </trkpt>
      <trkpt lat="45.054" lon="3.91472">
        <ele>600.9</ele>
        <time>2026-04-26T12:33:31Z</time>
      </trkpt>
      <trkpt lat="45.05407" lon="3.91465">
        <ele>601</ele>
        <time>2026-04-26T12:33:36Z</time>
      </trkpt>
      <trkpt lat="45.05415" lon="3.9146">
        <ele>601</ele>
        <time>2026-04-26T12:33:41Z</time>
      </trkpt>
      <trkpt lat="45.05422" lon="3.91455">
        <ele>601.2</ele>
        <time>2026-04-26T12:33:46Z</time>
      </trkpt>
      <trkpt lat="45.05429" lon="3.91449">
        <ele>601.6</ele>
        <time>2026-04-26T12:33:51Z</time>
      </trkpt>
      <trkpt lat="45.05435" lon="3.91444">
        <ele>602</ele>
        <time>2026-04-26T12:33:56Z</time>
      </trkpt>
      <trkpt lat="45.05441" lon="3.9144">
        <ele>602.4</ele>
        <time>2026-04-26T12:34:01Z</time>
      </trkpt>
      <trkpt lat="45.05448" lon="3.91434">
        <ele>603</ele>
        <time>2026-04-26T12:34:06Z</time>
      </trkpt>
      <trkpt lat="45.05455" lon="3.91429">
        <ele>603.6</ele>
        <time>2026-04-26T12:34:11Z</time>
      </trkpt>
      <trkpt lat="45.05462" lon="3.91425">
        <ele>604.2</ele>
        <time>2026-04-26T12:34:16Z</time>
      </trkpt>
      <trkpt lat="45.05468" lon="3.91421">
        <ele>604.8</ele>
        <time>2026-04-26T12:34:21Z</time>
      </trkpt>
      <trkpt lat="45.05474" lon="3.91412">
        <ele>605.6</ele>
        <time>2026-04-26T12:34:26Z</time>
      </trkpt>
      <trkpt lat="45.05479" lon="3.91407">
        <ele>606.1</ele>
        <time>2026-04-26T12:34:31Z</time>
      </trkpt>
      <trkpt lat="45.05483" lon="3.91408">
        <ele>606.3</ele>
        <time>2026-04-26T12:34:36Z</time>
      </trkpt>
      <trkpt lat="45.05488" lon="3.91407">
        <ele>606.7</ele>
        <time>2026-04-26T12:34:41Z</time>
      </trkpt>
      <trkpt lat="45.0549" lon="3.91404">
        <ele>606.9</ele>
        <time>2026-04-26T12:34:46Z</time>
      </trkpt>
      <trkpt lat="45.05497" lon="3.91398">
        <ele>607.5</ele>
        <time>2026-04-26T12:34:51Z</time>
      </trkpt>
      <trkpt lat="45.05503" lon="3.91394">
        <ele>607.5</ele>
        <time>2026-04-26T12:34:56Z</time>
      </trkpt>
      <trkpt lat="45.05508" lon="3.91391">
        <ele>607.2</ele>
        <time>2026-04-26T12:35:01Z</time>
      </trkpt>
      <trkpt lat="45.05515" lon="3.91385">
        <ele>606.8</ele>
        <time>2026-04-26T12:35:06Z</time>
      </trkpt>
      <trkpt lat="45.05521" lon="3.9138">
        <ele>606.5</ele>
        <time>2026-04-26T12:35:11Z</time>
      </trkpt>
      <trkpt lat="45.05528" lon="3.91374">
        <ele>606.2</ele>
        <time>2026-04-26T12:35:16Z</time>
      </trkpt>
      <trkpt lat="45.05536" lon="3.91369">
        <ele>605.8</ele>
        <time>2026-04-26T12:35:21Z</time>
      </trkpt>
      <trkpt lat="45.05541" lon="3.91365">
        <ele>605.5</ele>
        <time>2026-04-26T12:35:26Z</time>
      </trkpt>
      <trkpt lat="45.05545" lon="3.91361">
        <ele>605.4</ele>
        <time>2026-04-26T12:35:31Z</time>
      </trkpt>
      <trkpt lat="45.05551" lon="3.91357">
        <ele>605.1</ele>
        <time>2026-04-26T12:35:36Z</time>
      </trkpt>
      <trkpt lat="45.05557" lon="3.91352">
        <ele>604.9</ele>
        <time>2026-04-26T12:35:41Z</time>
      </trkpt>
      <trkpt lat="45.05563" lon="3.91347">
        <ele>604.7</ele>
        <time>2026-04-26T12:35:46Z</time>
      </trkpt>
      <trkpt lat="45.05569" lon="3.91341">
        <ele>604.6</ele>
        <time>2026-04-26T12:35:51Z</time>
      </trkpt>
      <trkpt lat="45.05577" lon="3.91334">
        <ele>604.4</ele>
        <time>2026-04-26T12:35:56Z</time>
      </trkpt>
      <trkpt lat="45.05583" lon="3.91328">
        <ele>604.4</ele>
        <time>2026-04-26T12:36:01Z</time>
      </trkpt>
      <trkpt lat="45.05589" lon="3.91326">
        <ele>604.1</ele>
        <time>2026-04-26T12:36:06Z</time>
      </trkpt>
      <trkpt lat="45.05596" lon="3.9133">
        <ele>603.3</ele>
        <time>2026-04-26T12:36:11Z</time>
      </trkpt>
      <trkpt lat="45.05602" lon="3.91331">
        <ele>602.8</ele>
        <time>2026-04-26T12:36:16Z</time>
      </trkpt>
      <trkpt lat="45.05605" lon="3.91329">
        <ele>602.7</ele>
        <time>2026-04-26T12:36:21Z</time>
      </trkpt>
      <trkpt lat="45.05611" lon="3.91329">
        <ele>602.3</ele>
        <time>2026-04-26T12:36:26Z</time>
      </trkpt>
      <trkpt lat="45.05619" lon="3.91324">
        <ele>602</ele>
        <time>2026-04-26T12:36:31Z</time>
      </trkpt>
      <trkpt lat="45.05626" lon="3.9131">
        <ele>602.3</ele>
        <time>2026-04-26T12:36:36Z</time>
      </trkpt>
      <trkpt lat="45.05631" lon="3.91301">
        <ele>602.5</ele>
        <time>2026-04-26T12:36:41Z</time>
      </trkpt>
      <trkpt lat="45.05629" lon="3.91291">
        <ele>603.2</ele>
        <time>2026-04-26T12:36:46Z</time>
      </trkpt>
      <trkpt lat="45.05628" lon="3.91282">
        <ele>603.8</ele>
        <time>2026-04-26T12:36:51Z</time>
      </trkpt>
      <trkpt lat="45.05628" lon="3.91271">
        <ele>604.5</ele>
        <time>2026-04-26T12:36:56Z</time>
      </trkpt>
      <trkpt lat="45.05627" lon="3.9126">
        <ele>605.2</ele>
        <time>2026-04-26T12:37:01Z</time>
      </trkpt>
      <trkpt lat="45.05627" lon="3.91249">
        <ele>605.8</ele>
        <time>2026-04-26T12:37:06Z</time>
      </trkpt>
      <trkpt lat="45.05627" lon="3.91239">
        <ele>606.1</ele>
        <time>2026-04-26T12:37:11Z</time>
      </trkpt>
      <trkpt lat="45.05625" lon="3.9123">
        <ele>606.6</ele>
        <time>2026-04-26T12:37:16Z</time>
      </trkpt>
      <trkpt lat="45.05623" lon="3.91219">
        <ele>607.1</ele>
        <time>2026-04-26T12:37:21Z</time>
      </trkpt>
      <trkpt lat="45.05622" lon="3.91209">
        <ele>607.5</ele>
        <time>2026-04-26T12:37:26Z</time>
      </trkpt>
      <trkpt lat="45.0562" lon="3.91198">
        <ele>608</ele>
        <time>2026-04-26T12:37:31Z</time>
      </trkpt>
      <trkpt lat="45.05619" lon="3.91187">
        <ele>608.4</ele>
        <time>2026-04-26T12:37:36Z</time>
      </trkpt>
      <trkpt lat="45.05618" lon="3.91178">
        <ele>608.8</ele>
        <time>2026-04-26T12:37:41Z</time>
      </trkpt>
      <trkpt lat="45.05617" lon="3.91166">
        <ele>609.1</ele>
        <time>2026-04-26T12:37:46Z</time>
      </trkpt>
      <trkpt lat="45.05615" lon="3.91156">
        <ele>608.7</ele>
        <time>2026-04-26T12:37:51Z</time>
      </trkpt>
      <trkpt lat="45.05614" lon="3.91146">
        <ele>608.2</ele>
        <time>2026-04-26T12:37:56Z</time>
      </trkpt>
      <trkpt lat="45.05613" lon="3.91136">
        <ele>607.7</ele>
        <time>2026-04-26T12:38:01Z</time>
      </trkpt>
      <trkpt lat="45.0561" lon="3.91125">
        <ele>607.2</ele>
        <time>2026-04-26T12:38:06Z</time>
      </trkpt>
      <trkpt lat="45.05608" lon="3.91115">
        <ele>606.8</ele>
        <time>2026-04-26T12:38:11Z</time>
      </trkpt>
      <trkpt lat="45.05604" lon="3.91107">
        <ele>606.5</ele>
        <time>2026-04-26T12:38:16Z</time>
      </trkpt>
      <trkpt lat="45.05599" lon="3.911">
        <ele>606.3</ele>
        <time>2026-04-26T12:38:21Z</time>
      </trkpt>
      <trkpt lat="45.05595" lon="3.91093">
        <ele>606.1</ele>
        <time>2026-04-26T12:38:26Z</time>
      </trkpt>
      <trkpt lat="45.0559" lon="3.91084">
        <ele>605.7</ele>
        <time>2026-04-26T12:38:31Z</time>
      </trkpt>
      <trkpt lat="45.05583" lon="3.91076">
        <ele>605.8</ele>
        <time>2026-04-26T12:38:36Z</time>
      </trkpt>
      <trkpt lat="45.05579" lon="3.91068">
        <ele>605.7</ele>
        <time>2026-04-26T12:38:41Z</time>
      </trkpt>
      <trkpt lat="45.05574" lon="3.91059">
        <ele>605.5</ele>
        <time>2026-04-26T12:38:46Z</time>
      </trkpt>
      <trkpt lat="45.05571" lon="3.9105">
        <ele>605.3</ele>
        <time>2026-04-26T12:38:51Z</time>
      </trkpt>
      <trkpt lat="45.05569" lon="3.91041">
        <ele>605.2</ele>
        <time>2026-04-26T12:38:56Z</time>
      </trkpt>
      <trkpt lat="45.05567" lon="3.91033">
        <ele>605</ele>
        <time>2026-04-26T12:39:01Z</time>
      </trkpt>
      <trkpt lat="45.05566" lon="3.91023">
        <ele>604.9</ele>
        <time>2026-04-26T12:39:06Z</time>
      </trkpt>
      <trkpt lat="45.05563" lon="3.91013">
        <ele>604.7</ele>
        <time>2026-04-26T12:39:11Z</time>
      </trkpt>
      <trkpt lat="45.0556" lon="3.91004">
        <ele>604.6</ele>
        <time>2026-04-26T12:39:16Z</time>
      </trkpt>
      <trkpt lat="45.05557" lon="3.90996">
        <ele>604.7</ele>
        <time>2026-04-26T12:39:21Z</time>
      </trkpt>
      <trkpt lat="45.05554" lon="3.90986">
        <ele>604.9</ele>
        <time>2026-04-26T12:39:26Z</time>
      </trkpt>
      <trkpt lat="45.05553" lon="3.90977">
        <ele>605.1</ele>
        <time>2026-04-26T12:39:31Z</time>
      </trkpt>
      <trkpt lat="45.05551" lon="3.90967">
        <ele>605.4</ele>
        <time>2026-04-26T12:39:36Z</time>
      </trkpt>
      <trkpt lat="45.05547" lon="3.90959">
        <ele>605.7</ele>
        <time>2026-04-26T12:39:41Z</time>
      </trkpt>
      <trkpt lat="45.05545" lon="3.9095">
        <ele>606</ele>
        <time>2026-04-26T12:39:46Z</time>
      </trkpt>
      <trkpt lat="45.05542" lon="3.9094">
        <ele>606.4</ele>
        <time>2026-04-26T12:39:51Z</time>
      </trkpt>
      <trkpt lat="45.05539" lon="3.90935">
        <ele>606.7</ele>
        <time>2026-04-26T12:39:56Z</time>
      </trkpt>
      <trkpt lat="45.05539" lon="3.90931">
        <ele>606.8</ele>
        <time>2026-04-26T12:40:01Z</time>
      </trkpt>
      <trkpt lat="45.05539" lon="3.90931">
        <ele>606.8</ele>
        <time>2026-04-26T12:40:06Z</time>
      </trkpt>
      <trkpt lat="45.05538" lon="3.90927">
        <ele>607</ele>
        <time>2026-04-26T12:40:11Z</time>
      </trkpt>
      <trkpt lat="45.05536" lon="3.90916">
        <ele>607.4</ele>
        <time>2026-04-26T12:40:16Z</time>
      </trkpt>
      <trkpt lat="45.05535" lon="3.90905">
        <ele>607.8</ele>
        <time>2026-04-26T12:40:21Z</time>
      </trkpt>
      <trkpt lat="45.05535" lon="3.90895">
        <ele>608</ele>
        <time>2026-04-26T12:40:26Z</time>
      </trkpt>
      <trkpt lat="45.05536" lon="3.90885">
        <ele>608.2</ele>
        <time>2026-04-26T12:40:31Z</time>
      </trkpt>
      <trkpt lat="45.05537" lon="3.90873">
        <ele>608.4</ele>
        <time>2026-04-26T12:40:36Z</time>
      </trkpt>
      <trkpt lat="45.05539" lon="3.9086">
        <ele>608.6</ele>
        <time>2026-04-26T12:40:41Z</time>
      </trkpt>
      <trkpt lat="45.05538" lon="3.90854">
        <ele>608.8</ele>
        <time>2026-04-26T12:40:46Z</time>
      </trkpt>
      <trkpt lat="45.05541" lon="3.9084">
        <ele>608.9</ele>
        <time>2026-04-26T12:40:51Z</time>
      </trkpt>
      <trkpt lat="45.05543" lon="3.90836">
        <ele>608.8</ele>
        <time>2026-04-26T12:40:56Z</time>
      </trkpt>
      <trkpt lat="45.05547" lon="3.90823">
        <ele>609.1</ele>
        <time>2026-04-26T12:41:01Z</time>
      </trkpt>
      <trkpt lat="45.05548" lon="3.90818">
        <ele>609.3</ele>
        <time>2026-04-26T12:41:06Z</time>
      </trkpt>
      <trkpt lat="45.05554" lon="3.90811">
        <ele>609.1</ele>
        <time>2026-04-26T12:41:11Z</time>
      </trkpt>
      <trkpt lat="45.0556" lon="3.90793">
        <ele>609.7</ele>
        <time>2026-04-26T12:41:16Z</time>
      </trkpt>
      <trkpt lat="45.05567" lon="3.90786">
        <ele>609.6</ele>
        <time>2026-04-26T12:41:21Z</time>
      </trkpt>
      <trkpt lat="45.05572" lon="3.90779">
        <ele>609.7</ele>
        <time>2026-04-26T12:41:26Z</time>
      </trkpt>
      <trkpt lat="45.05577" lon="3.90772">
        <ele>609.9</ele>
        <time>2026-04-26T12:41:31Z</time>
      </trkpt>
      <trkpt lat="45.05581" lon="3.90767">
        <ele>609.9</ele>
        <time>2026-04-26T12:41:36Z</time>
      </trkpt>
      <trkpt lat="45.05588" lon="3.90757">
        <ele>610.2</ele>
        <time>2026-04-26T12:41:41Z</time>
      </trkpt>
      <trkpt lat="45.05593" lon="3.9075">
        <ele>610.3</ele>
        <time>2026-04-26T12:41:46Z</time>
      </trkpt>
      <trkpt lat="45.05599" lon="3.90742">
        <ele>611.1</ele>
        <time>2026-04-26T12:41:51Z</time>
      </trkpt>
      <trkpt lat="45.05605" lon="3.90735">
        <ele>611.6</ele>
        <time>2026-04-26T12:41:56Z</time>
      </trkpt>
      <trkpt lat="45.05611" lon="3.90726">
        <ele>612.3</ele>
        <time>2026-04-26T12:42:01Z</time>
      </trkpt>
      <trkpt lat="45.05616" lon="3.90718">
        <ele>612.8</ele>
        <time>2026-04-26T12:42:06Z</time>
      </trkpt>
      <trkpt lat="45.05621" lon="3.90709">
        <ele>613.4</ele>
        <time>2026-04-26T12:42:11Z</time>
      </trkpt>
      <trkpt lat="45.05626" lon="3.90703">
        <ele>613.5</ele>
        <time>2026-04-26T12:42:16Z</time>
      </trkpt>
      <trkpt lat="45.0563" lon="3.90691">
        <ele>614.4</ele>
        <time>2026-04-26T12:42:21Z</time>
      </trkpt>
      <trkpt lat="45.05635" lon="3.90682">
        <ele>614.7</ele>
        <time>2026-04-26T12:42:26Z</time>
      </trkpt>
      <trkpt lat="45.05641" lon="3.90672">
        <ele>614.8</ele>
        <time>2026-04-26T12:42:31Z</time>
      </trkpt>
      <trkpt lat="45.05637" lon="3.90666">
        <ele>616.1</ele>
        <time>2026-04-26T12:42:36Z</time>
      </trkpt>
      <trkpt lat="45.05638" lon="3.9066">
        <ele>616.5</ele>
        <time>2026-04-26T12:42:41Z</time>
      </trkpt>
      <trkpt lat="45.05637" lon="3.9065">
        <ele>617.8</ele>
        <time>2026-04-26T12:42:46Z</time>
      </trkpt>
      <trkpt lat="45.05635" lon="3.90639">
        <ele>619.4</ele>
        <time>2026-04-26T12:42:51Z</time>
      </trkpt>
      <trkpt lat="45.05635" lon="3.90633">
        <ele>620.1</ele>
        <time>2026-04-26T12:42:56Z</time>
      </trkpt>
      <trkpt lat="45.05635" lon="3.90629">
        <ele>620.5</ele>
        <time>2026-04-26T12:43:01Z</time>
      </trkpt>
      <trkpt lat="45.05635" lon="3.90629">
        <ele>620.5</ele>
        <time>2026-04-26T12:43:06Z</time>
      </trkpt>
      <trkpt lat="45.05636" lon="3.90624">
        <ele>620.9</ele>
        <time>2026-04-26T12:43:11Z</time>
      </trkpt>
      <trkpt lat="45.05636" lon="3.90621">
        <ele>621.2</ele>
        <time>2026-04-26T12:43:16Z</time>
      </trkpt>
      <trkpt lat="45.05639" lon="3.90615">
        <ele>621.2</ele>
        <time>2026-04-26T12:43:21Z</time>
      </trkpt>
      <trkpt lat="45.05641" lon="3.90605">
        <ele>621.9</ele>
        <time>2026-04-26T12:43:26Z</time>
      </trkpt>
      <trkpt lat="45.05644" lon="3.90595">
        <ele>622.2</ele>
        <time>2026-04-26T12:43:31Z</time>
      </trkpt>
      <trkpt lat="45.05648" lon="3.90587">
        <ele>622.1</ele>
        <time>2026-04-26T12:43:36Z</time>
      </trkpt>
      <trkpt lat="45.05651" lon="3.90583">
        <ele>621.8</ele>
        <time>2026-04-26T12:43:41Z</time>
      </trkpt>
      <trkpt lat="45.05649" lon="3.90571">
        <ele>623.1</ele>
        <time>2026-04-26T12:43:46Z</time>
      </trkpt>
      <trkpt lat="45.05649" lon="3.90565">
        <ele>623.5</ele>
        <time>2026-04-26T12:43:51Z</time>
      </trkpt>
      <trkpt lat="45.05655" lon="3.90553">
        <ele>622.9</ele>
        <time>2026-04-26T12:43:56Z</time>
      </trkpt>
      <trkpt lat="45.05659" lon="3.90544">
        <ele>622.6</ele>
        <time>2026-04-26T12:44:01Z</time>
      </trkpt>
      <trkpt lat="45.05661" lon="3.90538">
        <ele>622.6</ele>
        <time>2026-04-26T12:44:06Z</time>
      </trkpt>
      <trkpt lat="45.05661" lon="3.90534">
        <ele>622.9</ele>
        <time>2026-04-26T12:44:11Z</time>
      </trkpt>
      <trkpt lat="45.05663" lon="3.90532">
        <ele>622.5</ele>
        <time>2026-04-26T12:44:16Z</time>
      </trkpt>
      <trkpt lat="45.05665" lon="3.90531">
        <ele>622.2</ele>
        <time>2026-04-26T12:44:21Z</time>
      </trkpt>
      <trkpt lat="45.0567" lon="3.90521">
        <ele>621.8</ele>
        <time>2026-04-26T12:44:26Z</time>
      </trkpt>
      <trkpt lat="45.05673" lon="3.90514">
        <ele>621.7</ele>
        <time>2026-04-26T12:44:31Z</time>
      </trkpt>
      <trkpt lat="45.05678" lon="3.90506">
        <ele>621.1</ele>
        <time>2026-04-26T12:44:36Z</time>
      </trkpt>
      <trkpt lat="45.05682" lon="3.905">
        <ele>620.7</ele>
        <time>2026-04-26T12:44:41Z</time>
      </trkpt>
      <trkpt lat="45.05684" lon="3.90492">
        <ele>619.8</ele>
        <time>2026-04-26T12:44:46Z</time>
      </trkpt>
      <trkpt lat="45.05684" lon="3.90483">
        <ele>619.3</ele>
        <time>2026-04-26T12:44:51Z</time>
      </trkpt>
      <trkpt lat="45.05687" lon="3.90475">
        <ele>618.2</ele>
        <time>2026-04-26T12:44:56Z</time>
      </trkpt>
      <trkpt lat="45.05692" lon="3.90466">
        <ele>616.6</ele>
        <time>2026-04-26T12:45:01Z</time>
      </trkpt>
      <trkpt lat="45.05695" lon="3.90459">
        <ele>615.6</ele>
        <time>2026-04-26T12:45:06Z</time>
      </trkpt>
      <trkpt lat="45.05698" lon="3.90449">
        <ele>614.4</ele>
        <time>2026-04-26T12:45:11Z</time>
      </trkpt>
      <trkpt lat="45.05702" lon="3.9044">
        <ele>613.1</ele>
        <time>2026-04-26T12:45:16Z</time>
      </trkpt>
      <trkpt lat="45.05705" lon="3.90434">
        <ele>612.1</ele>
        <time>2026-04-26T12:45:21Z</time>
      </trkpt>
      <trkpt lat="45.05709" lon="3.90431">
        <ele>611.1</ele>
        <time>2026-04-26T12:45:26Z</time>
      </trkpt>
      <trkpt lat="45.05712" lon="3.90425">
        <ele>610.2</ele>
        <time>2026-04-26T12:45:31Z</time>
      </trkpt>
      <trkpt lat="45.05714" lon="3.90422">
        <ele>609.6</ele>
        <time>2026-04-26T12:45:36Z</time>
      </trkpt>
      <trkpt lat="45.05713" lon="3.90421">
        <ele>609.8</ele>
        <time>2026-04-26T12:45:41Z</time>
      </trkpt>
      <trkpt lat="45.05713" lon="3.90421">
        <ele>609.8</ele>
        <time>2026-04-26T12:45:46Z</time>
      </trkpt>
      <trkpt lat="45.05716" lon="3.90417">
        <ele>609</ele>
        <time>2026-04-26T12:45:51Z</time>
      </trkpt>
      <trkpt lat="45.05722" lon="3.9041">
        <ele>607.3</ele>
        <time>2026-04-26T12:45:56Z</time>
      </trkpt>
      <trkpt lat="45.05728" lon="3.90402">
        <ele>605.8</ele>
        <time>2026-04-26T12:46:01Z</time>
      </trkpt>
      <trkpt lat="45.05733" lon="3.90395">
        <ele>604.5</ele>
        <time>2026-04-26T12:46:06Z</time>
      </trkpt>
      <trkpt lat="45.05739" lon="3.90386">
        <ele>603.1</ele>
        <time>2026-04-26T12:46:11Z</time>
      </trkpt>
      <trkpt lat="45.05743" lon="3.9038">
        <ele>602.3</ele>
        <time>2026-04-26T12:46:16Z</time>
      </trkpt>
      <trkpt lat="45.05749" lon="3.90375">
        <ele>601.2</ele>
        <time>2026-04-26T12:46:21Z</time>
      </trkpt>
      <trkpt lat="45.05754" lon="3.90369">
        <ele>601</ele>
        <time>2026-04-26T12:46:26Z</time>
      </trkpt>
      <trkpt lat="45.05759" lon="3.90367">
        <ele>601.1</ele>
        <time>2026-04-26T12:46:31Z</time>
      </trkpt>
      <trkpt lat="45.05763" lon="3.90371">
        <ele>601.3</ele>
        <time>2026-04-26T12:46:36Z</time>
      </trkpt>
      <trkpt lat="45.0576" lon="3.90373">
        <ele>601.3</ele>
        <time>2026-04-26T12:46:41Z</time>
      </trkpt>
      <trkpt lat="45.05757" lon="3.90371">
        <ele>601.1</ele>
        <time>2026-04-26T12:46:46Z</time>
      </trkpt>
      <trkpt lat="45.05755" lon="3.90365">
        <ele>600.9</ele>
        <time>2026-04-26T12:46:51Z</time>
      </trkpt>
      <trkpt lat="45.05756" lon="3.90356">
        <ele>600.8</ele>
        <time>2026-04-26T12:46:56Z</time>
      </trkpt>
      <trkpt lat="45.05757" lon="3.90347">
        <ele>600.6</ele>
        <time>2026-04-26T12:47:01Z</time>
      </trkpt>
      <trkpt lat="45.05759" lon="3.90342">
        <ele>600.6</ele>
        <time>2026-04-26T12:47:06Z</time>
      </trkpt>
      <trkpt lat="45.05761" lon="3.90333">
        <ele>600.5</ele>
        <time>2026-04-26T12:47:11Z</time>
      </trkpt>
      <trkpt lat="45.05757" lon="3.90322">
        <ele>600.6</ele>
        <time>2026-04-26T12:47:16Z</time>
      </trkpt>
      <trkpt lat="45.05755" lon="3.9031">
        <ele>600.8</ele>
        <time>2026-04-26T12:47:21Z</time>
      </trkpt>
      <trkpt lat="45.05753" lon="3.90299">
        <ele>601</ele>
        <time>2026-04-26T12:47:26Z</time>
      </trkpt>
      <trkpt lat="45.05748" lon="3.90289">
        <ele>601.2</ele>
        <time>2026-04-26T12:47:31Z</time>
      </trkpt>
      <trkpt lat="45.05741" lon="3.90277">
        <ele>601.9</ele>
        <time>2026-04-26T12:47:36Z</time>
      </trkpt>
      <trkpt lat="45.05735" lon="3.90269">
        <ele>602.3</ele>
        <time>2026-04-26T12:47:41Z</time>
      </trkpt>
      <trkpt lat="45.05731" lon="3.90262">
        <ele>602.6</ele>
        <time>2026-04-26T12:47:46Z</time>
      </trkpt>
      <trkpt lat="45.05729" lon="3.90251">
        <ele>602.8</ele>
        <time>2026-04-26T12:47:51Z</time>
      </trkpt>
      <trkpt lat="45.0572" lon="3.90242">
        <ele>603.2</ele>
        <time>2026-04-26T12:47:56Z</time>
      </trkpt>
      <trkpt lat="45.05714" lon="3.90232">
        <ele>603.5</ele>
        <time>2026-04-26T12:48:01Z</time>
      </trkpt>
      <trkpt lat="45.05709" lon="3.90223">
        <ele>603.7</ele>
        <time>2026-04-26T12:48:06Z</time>
      </trkpt>
      <trkpt lat="45.05705" lon="3.9022">
        <ele>603.7</ele>
        <time>2026-04-26T12:48:11Z</time>
      </trkpt>
      <trkpt lat="45.05701" lon="3.90214">
        <ele>603.8</ele>
        <time>2026-04-26T12:48:16Z</time>
      </trkpt>
      <trkpt lat="45.05697" lon="3.90208">
        <ele>603.8</ele>
        <time>2026-04-26T12:48:21Z</time>
      </trkpt>
      <trkpt lat="45.05691" lon="3.90201">
        <ele>603.8</ele>
        <time>2026-04-26T12:48:26Z</time>
      </trkpt>
      <trkpt lat="45.05686" lon="3.90195">
        <ele>603.7</ele>
        <time>2026-04-26T12:48:31Z</time>
      </trkpt>
      <trkpt lat="45.0568" lon="3.90189">
        <ele>603.6</ele>
        <time>2026-04-26T12:48:36Z</time>
      </trkpt>
      <trkpt lat="45.05673" lon="3.90181">
        <ele>603.4</ele>
        <time>2026-04-26T12:48:41Z</time>
      </trkpt>
      <trkpt lat="45.05666" lon="3.90177">
        <ele>603.3</ele>
        <time>2026-04-26T12:48:46Z</time>
      </trkpt>
      <trkpt lat="45.0566" lon="3.9017">
        <ele>603.3</ele>
        <time>2026-04-26T12:48:51Z</time>
      </trkpt>
      <trkpt lat="45.05655" lon="3.90163">
        <ele>603.6</ele>
        <time>2026-04-26T12:48:56Z</time>
      </trkpt>
      <trkpt lat="45.05648" lon="3.9016">
        <ele>604</ele>
        <time>2026-04-26T12:49:01Z</time>
      </trkpt>
      <trkpt lat="45.05641" lon="3.90156">
        <ele>604.3</ele>
        <time>2026-04-26T12:49:06Z</time>
      </trkpt>
      <trkpt lat="45.05635" lon="3.90155">
        <ele>604.5</ele>
        <time>2026-04-26T12:49:11Z</time>
      </trkpt>
      <trkpt lat="45.05628" lon="3.90154">
        <ele>604.7</ele>
        <time>2026-04-26T12:49:16Z</time>
      </trkpt>
      <trkpt lat="45.0562" lon="3.90153">
        <ele>604.8</ele>
        <time>2026-04-26T12:49:21Z</time>
      </trkpt>
      <trkpt lat="45.05612" lon="3.90158">
        <ele>605</ele>
        <time>2026-04-26T12:49:26Z</time>
      </trkpt>
      <trkpt lat="45.05608" lon="3.90164">
        <ele>605.1</ele>
        <time>2026-04-26T12:49:31Z</time>
      </trkpt>
      <trkpt lat="45.05605" lon="3.90168">
        <ele>605.4</ele>
        <time>2026-04-26T12:49:36Z</time>
      </trkpt>
      <trkpt lat="45.056" lon="3.90174">
        <ele>606.2</ele>
        <time>2026-04-26T12:49:41Z</time>
      </trkpt>
      <trkpt lat="45.05596" lon="3.90181">
        <ele>607.2</ele>
        <time>2026-04-26T12:49:46Z</time>
      </trkpt>
      <trkpt lat="45.05589" lon="3.90184">
        <ele>608</ele>
        <time>2026-04-26T12:49:51Z</time>
      </trkpt>
      <trkpt lat="45.05584" lon="3.90184">
        <ele>608.2</ele>
        <time>2026-04-26T12:49:56Z</time>
      </trkpt>
      <trkpt lat="45.05578" lon="3.90184">
        <ele>608.5</ele>
        <time>2026-04-26T12:50:01Z</time>
      </trkpt>
      <trkpt lat="45.05571" lon="3.9018">
        <ele>608.1</ele>
        <time>2026-04-26T12:50:06Z</time>
      </trkpt>
      <trkpt lat="45.05567" lon="3.90176">
        <ele>607.6</ele>
        <time>2026-04-26T12:50:11Z</time>
      </trkpt>
      <trkpt lat="45.05566" lon="3.9017">
        <ele>606.7</ele>
        <time>2026-04-26T12:50:16Z</time>
      </trkpt>
      <trkpt lat="45.05566" lon="3.90162">
        <ele>606</ele>
        <time>2026-04-26T12:50:21Z</time>
      </trkpt>
      <trkpt lat="45.05564" lon="3.90153">
        <ele>605.7</ele>
        <time>2026-04-26T12:50:26Z</time>
      </trkpt>
      <trkpt lat="45.05562" lon="3.90144">
        <ele>605.3</ele>
        <time>2026-04-26T12:50:31Z</time>
      </trkpt>
      <trkpt lat="45.05559" lon="3.90135">
        <ele>604.9</ele>
        <time>2026-04-26T12:50:36Z</time>
      </trkpt>
      <trkpt lat="45.05555" lon="3.90126">
        <ele>604.5</ele>
        <time>2026-04-26T12:50:41Z</time>
      </trkpt>
      <trkpt lat="45.05551" lon="3.90119">
        <ele>604.2</ele>
        <time>2026-04-26T12:50:46Z</time>
      </trkpt>
      <trkpt lat="45.05545" lon="3.90112">
        <ele>603.9</ele>
        <time>2026-04-26T12:50:51Z</time>
      </trkpt>
      <trkpt lat="45.05539" lon="3.90105">
        <ele>603.5</ele>
        <time>2026-04-26T12:50:56Z</time>
      </trkpt>
      <trkpt lat="45.05533" lon="3.90098">
        <ele>603.1</ele>
        <time>2026-04-26T12:51:01Z</time>
      </trkpt>
      <trkpt lat="45.05527" lon="3.90091">
        <ele>602.7</ele>
        <time>2026-04-26T12:51:06Z</time>
      </trkpt>
      <trkpt lat="45.05522" lon="3.90086">
        <ele>602.4</ele>
        <time>2026-04-26T12:51:11Z</time>
      </trkpt>
      <trkpt lat="45.05516" lon="3.90081">
        <ele>602.3</ele>
        <time>2026-04-26T12:51:16Z</time>
      </trkpt>
      <trkpt lat="45.05509" lon="3.90077">
        <ele>602.4</ele>
        <time>2026-04-26T12:51:21Z</time>
      </trkpt>
      <trkpt lat="45.05504" lon="3.90071">
        <ele>602.5</ele>
        <time>2026-04-26T12:51:26Z</time>
      </trkpt>
      <trkpt lat="45.05496" lon="3.90065">
        <ele>602.7</ele>
        <time>2026-04-26T12:51:31Z</time>
      </trkpt>
      <trkpt lat="45.0549" lon="3.90059">
        <ele>602.9</ele>
        <time>2026-04-26T12:51:36Z</time>
      </trkpt>
      <trkpt lat="45.05483" lon="3.90053">
        <ele>603.1</ele>
        <time>2026-04-26T12:51:41Z</time>
      </trkpt>
      <trkpt lat="45.05475" lon="3.90047">
        <ele>603.3</ele>
        <time>2026-04-26T12:51:46Z</time>
      </trkpt>
      <trkpt lat="45.05468" lon="3.90042">
        <ele>603.5</ele>
        <time>2026-04-26T12:51:51Z</time>
      </trkpt>
      <trkpt lat="45.05463" lon="3.90037">
        <ele>603.6</ele>
        <time>2026-04-26T12:51:56Z</time>
      </trkpt>
      <trkpt lat="45.05458" lon="3.90033">
        <ele>603.7</ele>
        <time>2026-04-26T12:52:01Z</time>
      </trkpt>
      <trkpt lat="45.05457" lon="3.90033">
        <ele>603.7</ele>
        <time>2026-04-26T12:52:06Z</time>
      </trkpt>
      <trkpt lat="45.05457" lon="3.90034">
        <ele>603.7</ele>
        <time>2026-04-26T12:52:11Z</time>
      </trkpt>
      <trkpt lat="45.05456" lon="3.9003">
        <ele>603.8</ele>
        <time>2026-04-26T12:52:16Z</time>
      </trkpt>
      <trkpt lat="45.05453" lon="3.90022">
        <ele>603.9</ele>
        <time>2026-04-26T12:52:21Z</time>
      </trkpt>
      <trkpt lat="45.0545" lon="3.90013">
        <ele>604.1</ele>
        <time>2026-04-26T12:52:26Z</time>
      </trkpt>
      <trkpt lat="45.05446" lon="3.90005">
        <ele>604.2</ele>
        <time>2026-04-26T12:52:31Z</time>
      </trkpt>
      <trkpt lat="45.05441" lon="3.89999">
        <ele>604.4</ele>
        <time>2026-04-26T12:52:36Z</time>
      </trkpt>
      <trkpt lat="45.05437" lon="3.89995">
        <ele>604.6</ele>
        <time>2026-04-26T12:52:41Z</time>
      </trkpt>
      <trkpt lat="45.05428" lon="3.89989">
        <ele>604.8</ele>
        <time>2026-04-26T12:52:46Z</time>
      </trkpt>
      <trkpt lat="45.05421" lon="3.89983">
        <ele>605.1</ele>
        <time>2026-04-26T12:52:51Z</time>
      </trkpt>
      <trkpt lat="45.05416" lon="3.89977">
        <ele>605.4</ele>
        <time>2026-04-26T12:52:56Z</time>
      </trkpt>
      <trkpt lat="45.0541" lon="3.89973">
        <ele>605.8</ele>
        <time>2026-04-26T12:53:01Z</time>
      </trkpt>
      <trkpt lat="45.05402" lon="3.89971">
        <ele>606</ele>
        <time>2026-04-26T12:53:06Z</time>
      </trkpt>
      <trkpt lat="45.05395" lon="3.89971">
        <ele>606.2</ele>
        <time>2026-04-26T12:53:11Z</time>
      </trkpt>
      <trkpt lat="45.0539" lon="3.89971">
        <ele>606.3</ele>
        <time>2026-04-26T12:53:16Z</time>
      </trkpt>
      <trkpt lat="45.0539" lon="3.89971">
        <ele>606.3</ele>
        <time>2026-04-26T12:53:21Z</time>
      </trkpt>
      <trkpt lat="45.0539" lon="3.89971">
        <ele>606.3</ele>
        <time>2026-04-26T12:53:26Z</time>
      </trkpt>
      <trkpt lat="45.0539" lon="3.89971">
        <ele>606.3</ele>
        <time>2026-04-26T12:53:31Z</time>
      </trkpt>
      <trkpt lat="45.0539" lon="3.89971">
        <ele>606.3</ele>
        <time>2026-04-26T12:53:36Z</time>
      </trkpt>
      <trkpt lat="45.05383" lon="3.89975">
        <ele>606.2</ele>
        <time>2026-04-26T12:53:41Z</time>
      </trkpt>
      <trkpt lat="45.05372" lon="3.89979">
        <ele>606.3</ele>
        <time>2026-04-26T12:53:46Z</time>
      </trkpt>
      <trkpt lat="45.05367" lon="3.89983">
        <ele>606.3</ele>
        <time>2026-04-26T12:53:51Z</time>
      </trkpt>
      <trkpt lat="45.05361" lon="3.89991">
        <ele>606.3</ele>
        <time>2026-04-26T12:53:56Z</time>
      </trkpt>
      <trkpt lat="45.05356" lon="3.89998">
        <ele>606.2</ele>
        <time>2026-04-26T12:54:01Z</time>
      </trkpt>
      <trkpt lat="45.05351" lon="3.90005">
        <ele>606.3</ele>
        <time>2026-04-26T12:54:06Z</time>
      </trkpt>
      <trkpt lat="45.05347" lon="3.90014">
        <ele>606.2</ele>
        <time>2026-04-26T12:54:11Z</time>
      </trkpt>
      <trkpt lat="45.05342" lon="3.90021">
        <ele>606.2</ele>
        <time>2026-04-26T12:54:16Z</time>
      </trkpt>
      <trkpt lat="45.05338" lon="3.90028">
        <ele>606.2</ele>
        <time>2026-04-26T12:54:21Z</time>
      </trkpt>
      <trkpt lat="45.05333" lon="3.90036">
        <ele>606.1</ele>
        <time>2026-04-26T12:54:26Z</time>
      </trkpt>
      <trkpt lat="45.05326" lon="3.90042">
        <ele>605.9</ele>
        <time>2026-04-26T12:54:31Z</time>
      </trkpt>
      <trkpt lat="45.05319" lon="3.9005">
        <ele>605.6</ele>
        <time>2026-04-26T12:54:36Z</time>
      </trkpt>
      <trkpt lat="45.05312" lon="3.90055">
        <ele>605.3</ele>
        <time>2026-04-26T12:54:41Z</time>
      </trkpt>
      <trkpt lat="45.05305" lon="3.90059">
        <ele>605.1</ele>
        <time>2026-04-26T12:54:46Z</time>
      </trkpt>
      <trkpt lat="45.05299" lon="3.90059">
        <ele>605.1</ele>
        <time>2026-04-26T12:54:51Z</time>
      </trkpt>
      <trkpt lat="45.05294" lon="3.90056">
        <ele>605</ele>
        <time>2026-04-26T12:54:56Z</time>
      </trkpt>
      <trkpt lat="45.05287" lon="3.90054">
        <ele>605</ele>
        <time>2026-04-26T12:55:01Z</time>
      </trkpt>
      <trkpt lat="45.05279" lon="3.90052">
        <ele>604.9</ele>
        <time>2026-04-26T12:55:06Z</time>
      </trkpt>
      <trkpt lat="45.05271" lon="3.90049">
        <ele>604.8</ele>
        <time>2026-04-26T12:55:11Z</time>
      </trkpt>
      <trkpt lat="45.05263" lon="3.90046">
        <ele>604.7</ele>
        <time>2026-04-26T12:55:16Z</time>
      </trkpt>
      <trkpt lat="45.05255" lon="3.90042">
        <ele>604.6</ele>
        <time>2026-04-26T12:55:21Z</time>
      </trkpt>
      <trkpt lat="45.05248" lon="3.90039">
        <ele>604.5</ele>
        <time>2026-04-26T12:55:26Z</time>
      </trkpt>
      <trkpt lat="45.05241" lon="3.90036">
        <ele>604.4</ele>
        <time>2026-04-26T12:55:31Z</time>
      </trkpt>
      <trkpt lat="45.05234" lon="3.90035">
        <ele>604.4</ele>
        <time>2026-04-26T12:55:36Z</time>
      </trkpt>
      <trkpt lat="45.0523" lon="3.90034">
        <ele>604.3</ele>
        <time>2026-04-26T12:55:41Z</time>
      </trkpt>
      <trkpt lat="45.05224" lon="3.90029">
        <ele>604.2</ele>
        <time>2026-04-26T12:55:46Z</time>
      </trkpt>
      <trkpt lat="45.05217" lon="3.90025">
        <ele>604.1</ele>
        <time>2026-04-26T12:55:51Z</time>
      </trkpt>
      <trkpt lat="45.05211" lon="3.90018">
        <ele>604.1</ele>
        <time>2026-04-26T12:55:56Z</time>
      </trkpt>
      <trkpt lat="45.05204" lon="3.90012">
        <ele>603.9</ele>
        <time>2026-04-26T12:56:01Z</time>
      </trkpt>
      <trkpt lat="45.05199" lon="3.90001">
        <ele>603.8</ele>
        <time>2026-04-26T12:56:06Z</time>
      </trkpt>
      <trkpt lat="45.052" lon="3.89991">
        <ele>604.1</ele>
        <time>2026-04-26T12:56:11Z</time>
      </trkpt>
      <trkpt lat="45.05202" lon="3.89981">
        <ele>604.4</ele>
        <time>2026-04-26T12:56:16Z</time>
      </trkpt>
      <trkpt lat="45.05202" lon="3.8998">
        <ele>604.5</ele>
        <time>2026-04-26T12:56:21Z</time>
      </trkpt>
      <trkpt lat="45.05204" lon="3.89979">
        <ele>604.5</ele>
        <time>2026-04-26T12:56:26Z</time>
      </trkpt>
      <trkpt lat="45.05204" lon="3.89979">
        <ele>604.5</ele>
        <time>2026-04-26T12:56:31Z</time>
      </trkpt>
      <trkpt lat="45.05204" lon="3.89979">
        <ele>604.5</ele>
        <time>2026-04-26T12:56:36Z</time>
      </trkpt>
      <trkpt lat="45.05207" lon="3.8998">
        <ele>604.6</ele>
        <time>2026-04-26T12:56:41Z</time>
      </trkpt>
      <trkpt lat="45.05209" lon="3.89975">
        <ele>604.8</ele>
        <time>2026-04-26T12:56:46Z</time>
      </trkpt>
      <trkpt lat="45.05208" lon="3.89967">
        <ele>605</ele>
        <time>2026-04-26T12:56:51Z</time>
      </trkpt>
      <trkpt lat="45.05202" lon="3.89963">
        <ele>605</ele>
        <time>2026-04-26T12:56:56Z</time>
      </trkpt>
      <trkpt lat="45.05197" lon="3.89958">
        <ele>605.1</ele>
        <time>2026-04-26T12:57:01Z</time>
      </trkpt>
      <trkpt lat="45.05192" lon="3.89951">
        <ele>605.2</ele>
        <time>2026-04-26T12:57:06Z</time>
      </trkpt>
      <trkpt lat="45.05186" lon="3.89946">
        <ele>605.3</ele>
        <time>2026-04-26T12:57:11Z</time>
      </trkpt>
      <trkpt lat="45.05182" lon="3.89942">
        <ele>605.3</ele>
        <time>2026-04-26T12:57:16Z</time>
      </trkpt>
      <trkpt lat="45.05176" lon="3.89937">
        <ele>605.4</ele>
        <time>2026-04-26T12:57:21Z</time>
      </trkpt>
      <trkpt lat="45.05171" lon="3.89932">
        <ele>605.5</ele>
        <time>2026-04-26T12:57:26Z</time>
      </trkpt>
      <trkpt lat="45.05166" lon="3.89926">
        <ele>605.7</ele>
        <time>2026-04-26T12:57:31Z</time>
      </trkpt>
      <trkpt lat="45.05161" lon="3.89919">
        <ele>606.1</ele>
        <time>2026-04-26T12:57:36Z</time>
      </trkpt>
      <trkpt lat="45.05156" lon="3.89912">
        <ele>606.3</ele>
        <time>2026-04-26T12:57:41Z</time>
      </trkpt>
      <trkpt lat="45.05148" lon="3.89906">
        <ele>606.4</ele>
        <time>2026-04-26T12:57:46Z</time>
      </trkpt>
      <trkpt lat="45.05142" lon="3.89901">
        <ele>606.6</ele>
        <time>2026-04-26T12:57:51Z</time>
      </trkpt>
      <trkpt lat="45.05136" lon="3.89899">
        <ele>606.7</ele>
        <time>2026-04-26T12:57:56Z</time>
      </trkpt>
      <trkpt lat="45.05131" lon="3.89891">
        <ele>606.9</ele>
        <time>2026-04-26T12:58:01Z</time>
      </trkpt>
      <trkpt lat="45.05126" lon="3.89883">
        <ele>607</ele>
        <time>2026-04-26T12:58:06Z</time>
      </trkpt>
      <trkpt lat="45.05122" lon="3.89876">
        <ele>607.1</ele>
        <time>2026-04-26T12:58:11Z</time>
      </trkpt>
      <trkpt lat="45.05117" lon="3.8987">
        <ele>607.2</ele>
        <time>2026-04-26T12:58:16Z</time>
      </trkpt>
      <trkpt lat="45.05113" lon="3.89861">
        <ele>607.3</ele>
        <time>2026-04-26T12:58:21Z</time>
      </trkpt>
      <trkpt lat="45.0511" lon="3.89854">
        <ele>607.4</ele>
        <time>2026-04-26T12:58:26Z</time>
      </trkpt>
      <trkpt lat="45.05107" lon="3.89843">
        <ele>607.4</ele>
        <time>2026-04-26T12:58:31Z</time>
      </trkpt>
      <trkpt lat="45.05102" lon="3.89831">
        <ele>607.6</ele>
        <time>2026-04-26T12:58:36Z</time>
      </trkpt>
      <trkpt lat="45.05098" lon="3.89822">
        <ele>607.9</ele>
        <time>2026-04-26T12:58:41Z</time>
      </trkpt>
      <trkpt lat="45.05094" lon="3.89813">
        <ele>608.2</ele>
        <time>2026-04-26T12:58:46Z</time>
      </trkpt>
      <trkpt lat="45.05091" lon="3.89807">
        <ele>608.4</ele>
        <time>2026-04-26T12:58:51Z</time>
      </trkpt>
      <trkpt lat="45.05088" lon="3.89806">
        <ele>608.5</ele>
        <time>2026-04-26T12:58:56Z</time>
      </trkpt>
      <trkpt lat="45.05087" lon="3.89806">
        <ele>608.6</ele>
        <time>2026-04-26T12:59:01Z</time>
      </trkpt>
      <trkpt lat="45.05086" lon="3.89798">
        <ele>608.8</ele>
        <time>2026-04-26T12:59:06Z</time>
      </trkpt>
      <trkpt lat="45.05084" lon="3.89788">
        <ele>609.1</ele>
        <time>2026-04-26T12:59:11Z</time>
      </trkpt>
      <trkpt lat="45.05082" lon="3.89779">
        <ele>609.5</ele>
        <time>2026-04-26T12:59:16Z</time>
      </trkpt>
      <trkpt lat="45.05079" lon="3.89768">
        <ele>610.1</ele>
        <time>2026-04-26T12:59:21Z</time>
      </trkpt>
      <trkpt lat="45.05078" lon="3.89761">
        <ele>610.3</ele>
        <time>2026-04-26T12:59:26Z</time>
      </trkpt>
      <trkpt lat="45.05074" lon="3.89754">
        <ele>610.8</ele>
        <time>2026-04-26T12:59:31Z</time>
      </trkpt>
      <trkpt lat="45.0507" lon="3.89747">
        <ele>611.2</ele>
        <time>2026-04-26T12:59:36Z</time>
      </trkpt>
      <trkpt lat="45.05066" lon="3.8974">
        <ele>611.5</ele>
        <time>2026-04-26T12:59:41Z</time>
      </trkpt>
      <trkpt lat="45.05064" lon="3.89736">
        <ele>611.5</ele>
        <time>2026-04-26T12:59:46Z</time>
      </trkpt>
      <trkpt lat="45.05064" lon="3.89736">
        <ele>611.5</ele>
        <time>2026-04-26T12:59:51Z</time>
      </trkpt>
      <trkpt lat="45.05064" lon="3.89736">
        <ele>611.5</ele>
        <time>2026-04-26T12:59:56Z</time>
      </trkpt>
      <trkpt lat="45.05064" lon="3.89736">
        <ele>611.5</ele>
        <time>2026-04-26T13:00:01Z</time>
      </trkpt>
      <trkpt lat="45.05064" lon="3.89736">
        <ele>611.5</ele>
        <time>2026-04-26T13:00:06Z</time>
      </trkpt>
      <trkpt lat="45.05064" lon="3.89731">
        <ele>611.4</ele>
        <time>2026-04-26T13:00:11Z</time>
      </trkpt>
      <trkpt lat="45.0506" lon="3.89722">
        <ele>611.5</ele>
        <time>2026-04-26T13:00:16Z</time>
      </trkpt>
      <trkpt lat="45.05058" lon="3.89717">
        <ele>611.5</ele>
        <time>2026-04-26T13:00:21Z</time>
      </trkpt>
      <trkpt lat="45.05056" lon="3.89709">
        <ele>611.3</ele>
        <time>2026-04-26T13:00:26Z</time>
      </trkpt>
      <trkpt lat="45.05057" lon="3.897">
        <ele>611</ele>
        <time>2026-04-26T13:00:31Z</time>
      </trkpt>
      <trkpt lat="45.05057" lon="3.89689">
        <ele>610.7</ele>
        <time>2026-04-26T13:00:36Z</time>
      </trkpt>
      <trkpt lat="45.05057" lon="3.8968">
        <ele>610.4</ele>
        <time>2026-04-26T13:00:41Z</time>
      </trkpt>
      <trkpt lat="45.05056" lon="3.89671">
        <ele>610.1</ele>
        <time>2026-04-26T13:00:46Z</time>
      </trkpt>
      <trkpt lat="45.05054" lon="3.89664">
        <ele>610</ele>
        <time>2026-04-26T13:00:51Z</time>
      </trkpt>
      <trkpt lat="45.05054" lon="3.89653">
        <ele>609.9</ele>
        <time>2026-04-26T13:00:56Z</time>
      </trkpt>
      <trkpt lat="45.05052" lon="3.89647">
        <ele>609.9</ele>
        <time>2026-04-26T13:01:01Z</time>
      </trkpt>
      <trkpt lat="45.05051" lon="3.89649">
        <ele>609.9</ele>
        <time>2026-04-26T13:01:06Z</time>
      </trkpt>
      <trkpt lat="45.0505" lon="3.89649">
        <ele>609.9</ele>
        <time>2026-04-26T13:01:11Z</time>
      </trkpt>
      <trkpt lat="45.05049" lon="3.8964">
        <ele>609.9</ele>
        <time>2026-04-26T13:01:16Z</time>
      </trkpt>
      <trkpt lat="45.05053" lon="3.89631">
        <ele>609.8</ele>
        <time>2026-04-26T13:01:21Z</time>
      </trkpt>
      <trkpt lat="45.05057" lon="3.89623">
        <ele>609.8</ele>
        <time>2026-04-26T13:01:26Z</time>
      </trkpt>
      <trkpt lat="45.05062" lon="3.89614">
        <ele>609.8</ele>
        <time>2026-04-26T13:01:31Z</time>
      </trkpt>
      <trkpt lat="45.05065" lon="3.89608">
        <ele>609.8</ele>
        <time>2026-04-26T13:01:36Z</time>
      </trkpt>
      <trkpt lat="45.05068" lon="3.89601">
        <ele>609.9</ele>
        <time>2026-04-26T13:01:41Z</time>
      </trkpt>
      <trkpt lat="45.0507" lon="3.89593">
        <ele>609.9</ele>
        <time>2026-04-26T13:01:46Z</time>
      </trkpt>
      <trkpt lat="45.05072" lon="3.89592">
        <ele>609.9</ele>
        <time>2026-04-26T13:01:51Z</time>
      </trkpt>
      <trkpt lat="45.05073" lon="3.89577">
        <ele>610</ele>
        <time>2026-04-26T13:01:56Z</time>
      </trkpt>
      <trkpt lat="45.05074" lon="3.89563">
        <ele>610.1</ele>
        <time>2026-04-26T13:02:01Z</time>
      </trkpt>
      <trkpt lat="45.05075" lon="3.89552">
        <ele>610.3</ele>
        <time>2026-04-26T13:02:06Z</time>
      </trkpt>
      <trkpt lat="45.05076" lon="3.89542">
        <ele>610.4</ele>
        <time>2026-04-26T13:02:11Z</time>
      </trkpt>
      <trkpt lat="45.05077" lon="3.89528">
        <ele>610.6</ele>
        <time>2026-04-26T13:02:16Z</time>
      </trkpt>
      <trkpt lat="45.05076" lon="3.89517">
        <ele>610.7</ele>
        <time>2026-04-26T13:02:21Z</time>
      </trkpt>
      <trkpt lat="45.05077" lon="3.89509">
        <ele>610.8</ele>
        <time>2026-04-26T13:02:26Z</time>
      </trkpt>
      <trkpt lat="45.05078" lon="3.895">
        <ele>610.9</ele>
        <time>2026-04-26T13:02:31Z</time>
      </trkpt>
      <trkpt lat="45.05079" lon="3.89494">
        <ele>610.7</ele>
        <time>2026-04-26T13:02:36Z</time>
      </trkpt>
      <trkpt lat="45.05078" lon="3.89485">
        <ele>610.3</ele>
        <time>2026-04-26T13:02:41Z</time>
      </trkpt>
      <trkpt lat="45.05077" lon="3.89474">
        <ele>609.7</ele>
        <time>2026-04-26T13:02:46Z</time>
      </trkpt>
      <trkpt lat="45.05076" lon="3.89467">
        <ele>609.4</ele>
        <time>2026-04-26T13:02:51Z</time>
      </trkpt>
      <trkpt lat="45.05075" lon="3.89467">
        <ele>609.4</ele>
        <time>2026-04-26T13:02:56Z</time>
      </trkpt>
      <trkpt lat="45.05075" lon="3.89466">
        <ele>609.4</ele>
        <time>2026-04-26T13:03:01Z</time>
      </trkpt>
      <trkpt lat="45.05074" lon="3.8946">
        <ele>609.1</ele>
        <time>2026-04-26T13:03:06Z</time>
      </trkpt>
      <trkpt lat="45.05076" lon="3.8945">
        <ele>608.7</ele>
        <time>2026-04-26T13:03:11Z</time>
      </trkpt>
      <trkpt lat="45.05076" lon="3.89442">
        <ele>608.3</ele>
        <time>2026-04-26T13:03:16Z</time>
      </trkpt>
      <trkpt lat="45.05075" lon="3.89437">
        <ele>608.1</ele>
        <time>2026-04-26T13:03:21Z</time>
      </trkpt>
      <trkpt lat="45.05073" lon="3.89432">
        <ele>607.9</ele>
        <time>2026-04-26T13:03:26Z</time>
      </trkpt>
      <trkpt lat="45.05073" lon="3.8943">
        <ele>607.8</ele>
        <time>2026-04-26T13:03:31Z</time>
      </trkpt>
      <trkpt lat="45.05073" lon="3.89427">
        <ele>607.7</ele>
        <time>2026-04-26T13:03:36Z</time>
      </trkpt>
      <trkpt lat="45.05071" lon="3.89418">
        <ele>607.4</ele>
        <time>2026-04-26T13:03:41Z</time>
      </trkpt>
      <trkpt lat="45.0507" lon="3.89408">
        <ele>607.3</ele>
        <time>2026-04-26T13:03:46Z</time>
      </trkpt>
      <trkpt lat="45.05065" lon="3.89403">
        <ele>607.5</ele>
        <time>2026-04-26T13:03:51Z</time>
      </trkpt>
      <trkpt lat="45.05058" lon="3.89402">
        <ele>607.7</ele>
        <time>2026-04-26T13:03:56Z</time>
      </trkpt>
      <trkpt lat="45.05054" lon="3.894">
        <ele>607.8</ele>
        <time>2026-04-26T13:04:01Z</time>
      </trkpt>
      <trkpt lat="45.05053" lon="3.89398">
        <ele>607.8</ele>
        <time>2026-04-26T13:04:06Z</time>
      </trkpt>
      <trkpt lat="45.05053" lon="3.89398">
        <ele>607.8</ele>
        <time>2026-04-26T13:04:11Z</time>
      </trkpt>
      <trkpt lat="45.05046" lon="3.894">
        <ele>608</ele>
        <time>2026-04-26T13:04:16Z</time>
      </trkpt>
      <trkpt lat="45.05045" lon="3.89392">
        <ele>608.1</ele>
        <time>2026-04-26T13:04:21Z</time>
      </trkpt>
      <trkpt lat="45.05045" lon="3.89383">
        <ele>608.1</ele>
        <time>2026-04-26T13:04:26Z</time>
      </trkpt>
      <trkpt lat="45.05044" lon="3.89372">
        <ele>608.2</ele>
        <time>2026-04-26T13:04:31Z</time>
      </trkpt>
      <trkpt lat="45.05044" lon="3.89362">
        <ele>608.3</ele>
        <time>2026-04-26T13:04:36Z</time>
      </trkpt>
      <trkpt lat="45.05046" lon="3.89352">
        <ele>608.2</ele>
        <time>2026-04-26T13:04:41Z</time>
      </trkpt>
      <trkpt lat="45.05046" lon="3.89342">
        <ele>608.3</ele>
        <time>2026-04-26T13:04:46Z</time>
      </trkpt>
      <trkpt lat="45.05047" lon="3.89331">
        <ele>608.3</ele>
        <time>2026-04-26T13:04:51Z</time>
      </trkpt>
      <trkpt lat="45.05046" lon="3.8932">
        <ele>608.4</ele>
        <time>2026-04-26T13:04:56Z</time>
      </trkpt>
      <trkpt lat="45.05046" lon="3.89309">
        <ele>608.5</ele>
        <time>2026-04-26T13:05:01Z</time>
      </trkpt>
      <trkpt lat="45.05044" lon="3.893">
        <ele>608.6</ele>
        <time>2026-04-26T13:05:06Z</time>
      </trkpt>
      <trkpt lat="45.0504" lon="3.8929">
        <ele>608.8</ele>
        <time>2026-04-26T13:05:11Z</time>
      </trkpt>
      <trkpt lat="45.05035" lon="3.89281">
        <ele>609</ele>
        <time>2026-04-26T13:05:16Z</time>
      </trkpt>
      <trkpt lat="45.05031" lon="3.89275">
        <ele>609.1</ele>
        <time>2026-04-26T13:05:21Z</time>
      </trkpt>
      <trkpt lat="45.05024" lon="3.89267">
        <ele>609.4</ele>
        <time>2026-04-26T13:05:26Z</time>
      </trkpt>
      <trkpt lat="45.05017" lon="3.89261">
        <ele>609.6</ele>
        <time>2026-04-26T13:05:31Z</time>
      </trkpt>
      <trkpt lat="45.05011" lon="3.89255">
        <ele>609.7</ele>
        <time>2026-04-26T13:05:36Z</time>
      </trkpt>
      <trkpt lat="45.05006" lon="3.89248">
        <ele>609.9</ele>
        <time>2026-04-26T13:05:41Z</time>
      </trkpt>
      <trkpt lat="45.05001" lon="3.89242">
        <ele>610.1</ele>
        <time>2026-04-26T13:05:46Z</time>
      </trkpt>
      <trkpt lat="45.04996" lon="3.89233">
        <ele>610.3</ele>
        <time>2026-04-26T13:05:51Z</time>
      </trkpt>
      <trkpt lat="45.04992" lon="3.89223">
        <ele>610.6</ele>
        <time>2026-04-26T13:05:56Z</time>
      </trkpt>
      <trkpt lat="45.04988" lon="3.89214">
        <ele>610.8</ele>
        <time>2026-04-26T13:06:01Z</time>
      </trkpt>
      <trkpt lat="45.04985" lon="3.89208">
        <ele>611</ele>
        <time>2026-04-26T13:06:06Z</time>
      </trkpt>
      <trkpt lat="45.04981" lon="3.89206">
        <ele>611.1</ele>
        <time>2026-04-26T13:06:11Z</time>
      </trkpt>
      <trkpt lat="45.04978" lon="3.89201">
        <ele>611.2</ele>
        <time>2026-04-26T13:06:16Z</time>
      </trkpt>
      <trkpt lat="45.04977" lon="3.8919">
        <ele>611.3</ele>
        <time>2026-04-26T13:06:21Z</time>
      </trkpt>
      <trkpt lat="45.04977" lon="3.89183">
        <ele>611.4</ele>
        <time>2026-04-26T13:06:26Z</time>
      </trkpt>
      <trkpt lat="45.04977" lon="3.89174">
        <ele>611.5</ele>
        <time>2026-04-26T13:06:31Z</time>
      </trkpt>
      <trkpt lat="45.04977" lon="3.89164">
        <ele>611.6</ele>
        <time>2026-04-26T13:06:36Z</time>
      </trkpt>
      <trkpt lat="45.04976" lon="3.89156">
        <ele>611.8</ele>
        <time>2026-04-26T13:06:41Z</time>
      </trkpt>
      <trkpt lat="45.04976" lon="3.89156">
        <ele>611.8</ele>
        <time>2026-04-26T13:06:46Z</time>
      </trkpt>
      <trkpt lat="45.04975" lon="3.89153">
        <ele>611.9</ele>
        <time>2026-04-26T13:06:51Z</time>
      </trkpt>
      <trkpt lat="45.04977" lon="3.89144">
        <ele>612</ele>
        <time>2026-04-26T13:06:56Z</time>
      </trkpt>
      <trkpt lat="45.04982" lon="3.89135">
        <ele>612.1</ele>
        <time>2026-04-26T13:07:01Z</time>
      </trkpt>
      <trkpt lat="45.04984" lon="3.89126">
        <ele>612.3</ele>
        <time>2026-04-26T13:07:06Z</time>
      </trkpt>
      <trkpt lat="45.04984" lon="3.89117">
        <ele>612.5</ele>
        <time>2026-04-26T13:07:11Z</time>
      </trkpt>
      <trkpt lat="45.04986" lon="3.89108">
        <ele>612.6</ele>
        <time>2026-04-26T13:07:16Z</time>
      </trkpt>
      <trkpt lat="45.04987" lon="3.89098">
        <ele>612.8</ele>
        <time>2026-04-26T13:07:21Z</time>
      </trkpt>
      <trkpt lat="45.0499" lon="3.89087">
        <ele>613</ele>
        <time>2026-04-26T13:07:26Z</time>
      </trkpt>
      <trkpt lat="45.0499" lon="3.89076">
        <ele>613.3</ele>
        <time>2026-04-26T13:07:31Z</time>
      </trkpt>
      <trkpt lat="45.04992" lon="3.89065">
        <ele>613.6</ele>
        <time>2026-04-26T13:07:36Z</time>
      </trkpt>
      <trkpt lat="45.04991" lon="3.89052">
        <ele>614</ele>
        <time>2026-04-26T13:07:41Z</time>
      </trkpt>
      <trkpt lat="45.04991" lon="3.89042">
        <ele>614.3</ele>
        <time>2026-04-26T13:07:46Z</time>
      </trkpt>
      <trkpt lat="45.04993" lon="3.89031">
        <ele>614.6</ele>
        <time>2026-04-26T13:07:51Z</time>
      </trkpt>
      <trkpt lat="45.04995" lon="3.8902">
        <ele>614.8</ele>
        <time>2026-04-26T13:07:56Z</time>
      </trkpt>
      <trkpt lat="45.04993" lon="3.89006">
        <ele>615.3</ele>
        <time>2026-04-26T13:08:01Z</time>
      </trkpt>
      <trkpt lat="45.04992" lon="3.88994">
        <ele>615.8</ele>
        <time>2026-04-26T13:08:06Z</time>
      </trkpt>
      <trkpt lat="45.0499" lon="3.88985">
        <ele>616.5</ele>
        <time>2026-04-26T13:08:11Z</time>
      </trkpt>
      <trkpt lat="45.0499" lon="3.88975">
        <ele>617.1</ele>
        <time>2026-04-26T13:08:16Z</time>
      </trkpt>
      <trkpt lat="45.04988" lon="3.88963">
        <ele>617.9</ele>
        <time>2026-04-26T13:08:21Z</time>
      </trkpt>
      <trkpt lat="45.04987" lon="3.88953">
        <ele>618.7</ele>
        <time>2026-04-26T13:08:26Z</time>
      </trkpt>
      <trkpt lat="45.04988" lon="3.88944">
        <ele>619.1</ele>
        <time>2026-04-26T13:08:31Z</time>
      </trkpt>
      <trkpt lat="45.04989" lon="3.88935">
        <ele>619.5</ele>
        <time>2026-04-26T13:08:36Z</time>
      </trkpt>
      <trkpt lat="45.04988" lon="3.88925">
        <ele>620.2</ele>
        <time>2026-04-26T13:08:41Z</time>
      </trkpt>
      <trkpt lat="45.04986" lon="3.88914">
        <ele>621.3</ele>
        <time>2026-04-26T13:08:46Z</time>
      </trkpt>
      <trkpt lat="45.04985" lon="3.88903">
        <ele>622.4</ele>
        <time>2026-04-26T13:08:51Z</time>
      </trkpt>
      <trkpt lat="45.04983" lon="3.88888">
        <ele>624.2</ele>
        <time>2026-04-26T13:08:56Z</time>
      </trkpt>
      <trkpt lat="45.04982" lon="3.88878">
        <ele>625.4</ele>
        <time>2026-04-26T13:09:01Z</time>
      </trkpt>
      <trkpt lat="45.04981" lon="3.88867">
        <ele>626.7</ele>
        <time>2026-04-26T13:09:06Z</time>
      </trkpt>
      <trkpt lat="45.04983" lon="3.88858">
        <ele>627.1</ele>
        <time>2026-04-26T13:09:11Z</time>
      </trkpt>
      <trkpt lat="45.04984" lon="3.88848">
        <ele>627.8</ele>
        <time>2026-04-26T13:09:16Z</time>
      </trkpt>
      <trkpt lat="45.04985" lon="3.8884">
        <ele>628.3</ele>
        <time>2026-04-26T13:09:21Z</time>
      </trkpt>
      <trkpt lat="45.04985" lon="3.88826">
        <ele>629.9</ele>
        <time>2026-04-26T13:09:26Z</time>
      </trkpt>
      <trkpt lat="45.04986" lon="3.88815">
        <ele>631</ele>
        <time>2026-04-26T13:09:31Z</time>
      </trkpt>
      <trkpt lat="45.0499" lon="3.88806">
        <ele>631.1</ele>
        <time>2026-04-26T13:09:36Z</time>
      </trkpt>
      <trkpt lat="45.04994" lon="3.88797">
        <ele>631.3</ele>
        <time>2026-04-26T13:09:41Z</time>
      </trkpt>
      <trkpt lat="45.04997" lon="3.88791">
        <ele>631.3</ele>
        <time>2026-04-26T13:09:46Z</time>
      </trkpt>
      <trkpt lat="45.05" lon="3.88781">
        <ele>631.9</ele>
        <time>2026-04-26T13:09:51Z</time>
      </trkpt>
      <trkpt lat="45.04999" lon="3.88768">
        <ele>633.9</ele>
        <time>2026-04-26T13:09:56Z</time>
      </trkpt>
      <trkpt lat="45.05002" lon="3.88756">
        <ele>634.6</ele>
        <time>2026-04-26T13:10:01Z</time>
      </trkpt>
      <trkpt lat="45.05004" lon="3.88746">
        <ele>635</ele>
        <time>2026-04-26T13:10:06Z</time>
      </trkpt>
      <trkpt lat="45.05007" lon="3.88736">
        <ele>634.7</ele>
        <time>2026-04-26T13:10:11Z</time>
      </trkpt>
      <trkpt lat="45.0501" lon="3.88726">
        <ele>634.3</ele>
        <time>2026-04-26T13:10:16Z</time>
      </trkpt>
      <trkpt lat="45.05015" lon="3.88718">
        <ele>633.4</ele>
        <time>2026-04-26T13:10:21Z</time>
      </trkpt>
      <trkpt lat="45.05019" lon="3.8871">
        <ele>632.7</ele>
        <time>2026-04-26T13:10:26Z</time>
      </trkpt>
      <trkpt lat="45.05021" lon="3.88701">
        <ele>632.6</ele>
        <time>2026-04-26T13:10:31Z</time>
      </trkpt>
      <trkpt lat="45.05023" lon="3.88691">
        <ele>632.6</ele>
        <time>2026-04-26T13:10:36Z</time>
      </trkpt>
      <trkpt lat="45.05025" lon="3.88686">
        <ele>632.3</ele>
        <time>2026-04-26T13:10:41Z</time>
      </trkpt>
      <trkpt lat="45.05027" lon="3.88684">
        <ele>631.9</ele>
        <time>2026-04-26T13:10:46Z</time>
      </trkpt>
      <trkpt lat="45.05028" lon="3.88683">
        <ele>631.7</ele>
        <time>2026-04-26T13:10:51Z</time>
      </trkpt>
      <trkpt lat="45.0503" lon="3.88674">
        <ele>631.7</ele>
        <time>2026-04-26T13:10:56Z</time>
      </trkpt>
      <trkpt lat="45.05031" lon="3.88667">
        <ele>631.8</ele>
        <time>2026-04-26T13:11:01Z</time>
      </trkpt>
      <trkpt lat="45.05033" lon="3.88658">
        <ele>631.6</ele>
        <time>2026-04-26T13:11:06Z</time>
      </trkpt>
      <trkpt lat="45.05035" lon="3.88648">
        <ele>631.5</ele>
        <time>2026-04-26T13:11:11Z</time>
      </trkpt>
      <trkpt lat="45.05037" lon="3.88643">
        <ele>631.2</ele>
        <time>2026-04-26T13:11:16Z</time>
      </trkpt>
      <trkpt lat="45.0504" lon="3.88639">
        <ele>630.6</ele>
        <time>2026-04-26T13:11:21Z</time>
      </trkpt>
      <trkpt lat="45.0504" lon="3.88629">
        <ele>631</ele>
        <time>2026-04-26T13:11:26Z</time>
      </trkpt>
      <trkpt lat="45.05042" lon="3.8862">
        <ele>630.9</ele>
        <time>2026-04-26T13:11:31Z</time>
      </trkpt>
      <trkpt lat="45.05044" lon="3.88609">
        <ele>630.8</ele>
        <time>2026-04-26T13:11:36Z</time>
      </trkpt>
      <trkpt lat="45.05045" lon="3.88601">
        <ele>630.9</ele>
        <time>2026-04-26T13:11:41Z</time>
      </trkpt>
      <trkpt lat="45.05047" lon="3.8859">
        <ele>630.9</ele>
        <time>2026-04-26T13:11:46Z</time>
      </trkpt>
      <trkpt lat="45.05046" lon="3.88581">
        <ele>631.3</ele>
        <time>2026-04-26T13:11:51Z</time>
      </trkpt>
      <trkpt lat="45.05043" lon="3.88572">
        <ele>631.8</ele>
        <time>2026-04-26T13:11:56Z</time>
      </trkpt>
      <trkpt lat="45.05042" lon="3.88565">
        <ele>631.9</ele>
        <time>2026-04-26T13:12:01Z</time>
      </trkpt>
      <trkpt lat="45.05043" lon="3.88555">
        <ele>631.3</ele>
        <time>2026-04-26T13:12:06Z</time>
      </trkpt>
      <trkpt lat="45.05042" lon="3.88545">
        <ele>631.3</ele>
        <time>2026-04-26T13:12:11Z</time>
      </trkpt>
      <trkpt lat="45.05042" lon="3.88543">
        <ele>631.2</ele>
        <time>2026-04-26T13:12:16Z</time>
      </trkpt>
      <trkpt lat="45.05042" lon="3.88543">
        <ele>631.2</ele>
        <time>2026-04-26T13:12:21Z</time>
      </trkpt>
      <trkpt lat="45.05042" lon="3.88543">
        <ele>631.2</ele>
        <time>2026-04-26T13:12:26Z</time>
      </trkpt>
      <trkpt lat="45.05042" lon="3.88543">
        <ele>631.2</ele>
        <time>2026-04-26T13:12:31Z</time>
      </trkpt>
      <trkpt lat="45.05042" lon="3.88543">
        <ele>631.2</ele>
        <time>2026-04-26T13:12:36Z</time>
      </trkpt>
      <trkpt lat="45.05042" lon="3.88543">
        <ele>631.2</ele>
        <time>2026-04-26T13:12:41Z</time>
      </trkpt>
      <trkpt lat="45.05042" lon="3.88543">
        <ele>631.2</ele>
        <time>2026-04-26T13:12:46Z</time>
      </trkpt>
      <trkpt lat="45.05042" lon="3.88543">
        <ele>631.2</ele>
        <time>2026-04-26T13:12:51Z</time>
      </trkpt>
      <trkpt lat="45.05041" lon="3.88539">
        <ele>631.4</ele>
        <time>2026-04-26T13:12:56Z</time>
      </trkpt>
      <trkpt lat="45.05037" lon="3.88531">
        <ele>632.2</ele>
        <time>2026-04-26T13:13:01Z</time>
      </trkpt>
      <trkpt lat="45.05034" lon="3.88522">
        <ele>632.8</ele>
        <time>2026-04-26T13:13:06Z</time>
      </trkpt>
      <trkpt lat="45.05034" lon="3.88514">
        <ele>632.6</ele>
        <time>2026-04-26T13:13:11Z</time>
      </trkpt>
      <trkpt lat="45.05032" lon="3.88503">
        <ele>632.9</ele>
        <time>2026-04-26T13:13:16Z</time>
      </trkpt>
      <trkpt lat="45.05032" lon="3.88496">
        <ele>632.6</ele>
        <time>2026-04-26T13:13:21Z</time>
      </trkpt>
      <trkpt lat="45.05033" lon="3.88488">
        <ele>631.9</ele>
        <time>2026-04-26T13:13:26Z</time>
      </trkpt>
      <trkpt lat="45.05033" lon="3.88487">
        <ele>631.9</ele>
        <time>2026-04-26T13:13:31Z</time>
      </trkpt>
      <trkpt lat="45.05033" lon="3.88487">
        <ele>631.9</ele>
        <time>2026-04-26T13:13:36Z</time>
      </trkpt>
      <trkpt lat="45.05033" lon="3.88487">
        <ele>631.9</ele>
        <time>2026-04-26T13:13:41Z</time>
      </trkpt>
      <trkpt lat="45.05033" lon="3.88487">
        <ele>631.9</ele>
        <time>2026-04-26T13:13:46Z</time>
      </trkpt>
      <trkpt lat="45.05031" lon="3.88481">
        <ele>632.1</ele>
        <time>2026-04-26T13:13:51Z</time>
      </trkpt>
      <trkpt lat="45.05032" lon="3.88473">
        <ele>631.5</ele>
        <time>2026-04-26T13:13:56Z</time>
      </trkpt>
      <trkpt lat="45.05033" lon="3.88463">
        <ele>630.7</ele>
        <time>2026-04-26T13:14:01Z</time>
      </trkpt>
      <trkpt lat="45.05033" lon="3.88454">
        <ele>630.3</ele>
        <time>2026-04-26T13:14:06Z</time>
      </trkpt>
      <trkpt lat="45.05033" lon="3.88445">
        <ele>629.8</ele>
        <time>2026-04-26T13:14:11Z</time>
      </trkpt>
      <trkpt lat="45.05035" lon="3.88434">
        <ele>628.8</ele>
        <time>2026-04-26T13:14:16Z</time>
      </trkpt>
      <trkpt lat="45.05037" lon="3.88425">
        <ele>627.9</ele>
        <time>2026-04-26T13:14:21Z</time>
      </trkpt>
      <trkpt lat="45.05038" lon="3.88415">
        <ele>627.4</ele>
        <time>2026-04-26T13:14:26Z</time>
      </trkpt>
      <trkpt lat="45.05039" lon="3.88405">
        <ele>627.5</ele>
        <time>2026-04-26T13:14:31Z</time>
      </trkpt>
      <trkpt lat="45.0504" lon="3.88397">
        <ele>627.6</ele>
        <time>2026-04-26T13:14:36Z</time>
      </trkpt>
      <trkpt lat="45.0504" lon="3.88393">
        <ele>627.7</ele>
        <time>2026-04-26T13:14:41Z</time>
      </trkpt>
      <trkpt lat="45.05039" lon="3.88392">
        <ele>627.9</ele>
        <time>2026-04-26T13:14:46Z</time>
      </trkpt>
      <trkpt lat="45.05037" lon="3.88389">
        <ele>628.4</ele>
        <time>2026-04-26T13:14:51Z</time>
      </trkpt>
      <trkpt lat="45.05038" lon="3.88385">
        <ele>628.3</ele>
        <time>2026-04-26T13:14:56Z</time>
      </trkpt>
      <trkpt lat="45.0504" lon="3.88382">
        <ele>628.1</ele>
        <time>2026-04-26T13:15:01Z</time>
      </trkpt>
      <trkpt lat="45.05036" lon="3.88373">
        <ele>629.1</ele>
        <time>2026-04-26T13:15:06Z</time>
      </trkpt>
      <trkpt lat="45.05036" lon="3.88366">
        <ele>629.3</ele>
        <time>2026-04-26T13:15:11Z</time>
      </trkpt>
      <trkpt lat="45.05035" lon="3.8836">
        <ele>629.6</ele>
        <time>2026-04-26T13:15:16Z</time>
      </trkpt>
      <trkpt lat="45.05028" lon="3.88356">
        <ele>630.8</ele>
        <time>2026-04-26T13:15:21Z</time>
      </trkpt>
      <trkpt lat="45.05022" lon="3.88356">
        <ele>631.8</ele>
        <time>2026-04-26T13:15:26Z</time>
      </trkpt>
      <trkpt lat="45.05017" lon="3.88356">
        <ele>632.6</ele>
        <time>2026-04-26T13:15:31Z</time>
      </trkpt>
      <trkpt lat="45.05011" lon="3.88357">
        <ele>633.5</ele>
        <time>2026-04-26T13:15:36Z</time>
      </trkpt>
      <trkpt lat="45.05005" lon="3.88355">
        <ele>634.5</ele>
        <time>2026-04-26T13:15:41Z</time>
      </trkpt>
      <trkpt lat="45.05" lon="3.88352">
        <ele>635.2</ele>
        <time>2026-04-26T13:15:46Z</time>
      </trkpt>
      <trkpt lat="45.04995" lon="3.8835">
        <ele>636.1</ele>
        <time>2026-04-26T13:15:51Z</time>
      </trkpt>
      <trkpt lat="45.04994" lon="3.8835">
        <ele>636.3</ele>
        <time>2026-04-26T13:15:56Z</time>
      </trkpt>
      <trkpt lat="45.04992" lon="3.88348">
        <ele>636.6</ele>
        <time>2026-04-26T13:16:01Z</time>
      </trkpt>
      <trkpt lat="45.04988" lon="3.88347">
        <ele>637.3</ele>
        <time>2026-04-26T13:16:06Z</time>
      </trkpt>
      <trkpt lat="45.04985" lon="3.88344">
        <ele>637.7</ele>
        <time>2026-04-26T13:16:11Z</time>
      </trkpt>
      <trkpt lat="45.04981" lon="3.88343">
        <ele>638.4</ele>
        <time>2026-04-26T13:16:16Z</time>
      </trkpt>
      <trkpt lat="45.04976" lon="3.88341">
        <ele>639.1</ele>
        <time>2026-04-26T13:16:21Z</time>
      </trkpt>
      <trkpt lat="45.04971" lon="3.88339">
        <ele>639.9</ele>
        <time>2026-04-26T13:16:26Z</time>
      </trkpt>
      <trkpt lat="45.04966" lon="3.88338">
        <ele>640.6</ele>
        <time>2026-04-26T13:16:31Z</time>
      </trkpt>
      <trkpt lat="45.04962" lon="3.88337">
        <ele>641.2</ele>
        <time>2026-04-26T13:16:36Z</time>
      </trkpt>
      <trkpt lat="45.04958" lon="3.88339">
        <ele>642</ele>
        <time>2026-04-26T13:16:41Z</time>
      </trkpt>
      <trkpt lat="45.04952" lon="3.88341">
        <ele>643.2</ele>
        <time>2026-04-26T13:16:46Z</time>
      </trkpt>
      <trkpt lat="45.04946" lon="3.88342">
        <ele>644.3</ele>
        <time>2026-04-26T13:16:51Z</time>
      </trkpt>
      <trkpt lat="45.04942" lon="3.88341">
        <ele>644.8</ele>
        <time>2026-04-26T13:16:56Z</time>
      </trkpt>
      <trkpt lat="45.04936" lon="3.88342">
        <ele>646</ele>
        <time>2026-04-26T13:17:01Z</time>
      </trkpt>
      <trkpt lat="45.04928" lon="3.88346">
        <ele>647.8</ele>
        <time>2026-04-26T13:17:06Z</time>
      </trkpt>
      <trkpt lat="45.04921" lon="3.88347">
        <ele>649.2</ele>
        <time>2026-04-26T13:17:11Z</time>
      </trkpt>
      <trkpt lat="45.04916" lon="3.88348">
        <ele>650.2</ele>
        <time>2026-04-26T13:17:16Z</time>
      </trkpt>
      <trkpt lat="45.04911" lon="3.88346">
        <ele>650.6</ele>
        <time>2026-04-26T13:17:21Z</time>
      </trkpt>
      <trkpt lat="45.04906" lon="3.88346">
        <ele>651.3</ele>
        <time>2026-04-26T13:17:26Z</time>
      </trkpt>
      <trkpt lat="45.04901" lon="3.88344">
        <ele>651.7</ele>
        <time>2026-04-26T13:17:31Z</time>
      </trkpt>
      <trkpt lat="45.04894" lon="3.88341">
        <ele>652.2</ele>
        <time>2026-04-26T13:17:36Z</time>
      </trkpt>
      <trkpt lat="45.04892" lon="3.88334">
        <ele>651.4</ele>
        <time>2026-04-26T13:17:41Z</time>
      </trkpt>
      <trkpt lat="45.04893" lon="3.88328">
        <ele>650.3</ele>
        <time>2026-04-26T13:17:46Z</time>
      </trkpt>
      <trkpt lat="45.04896" lon="3.88326">
        <ele>649.7</ele>
        <time>2026-04-26T13:17:51Z</time>
      </trkpt>
      <trkpt lat="45.04897" lon="3.88323">
        <ele>649.1</ele>
        <time>2026-04-26T13:17:56Z</time>
      </trkpt>
      <trkpt lat="45.04897" lon="3.88314">
        <ele>647.8</ele>
        <time>2026-04-26T13:18:01Z</time>
      </trkpt>
      <trkpt lat="45.04897" lon="3.88306">
        <ele>646.7</ele>
        <time>2026-04-26T13:18:06Z</time>
      </trkpt>
      <trkpt lat="45.04898" lon="3.883">
        <ele>645.7</ele>
        <time>2026-04-26T13:18:11Z</time>
      </trkpt>
      <trkpt lat="45.049" lon="3.88297">
        <ele>645.1</ele>
        <time>2026-04-26T13:18:16Z</time>
      </trkpt>
      <trkpt lat="45.049" lon="3.88293">
        <ele>644.5</ele>
        <time>2026-04-26T13:18:21Z</time>
      </trkpt>
      <trkpt lat="45.049" lon="3.88293">
        <ele>644.5</ele>
        <time>2026-04-26T13:18:26Z</time>
      </trkpt>
      <trkpt lat="45.049" lon="3.88293">
        <ele>644.5</ele>
        <time>2026-04-26T13:18:31Z</time>
      </trkpt>
      <trkpt lat="45.04899" lon="3.883">
        <ele>645.6</ele>
        <time>2026-04-26T13:18:36Z</time>
      </trkpt>
      <trkpt lat="45.04897" lon="3.88308">
        <ele>647</ele>
        <time>2026-04-26T13:18:41Z</time>
      </trkpt>
      <trkpt lat="45.04898" lon="3.88315">
        <ele>647.8</ele>
        <time>2026-04-26T13:18:46Z</time>
      </trkpt>
      <trkpt lat="45.04899" lon="3.88317">
        <ele>648</ele>
        <time>2026-04-26T13:18:51Z</time>
      </trkpt>
      <trkpt lat="45.04898" lon="3.88318">
        <ele>648.3</ele>
        <time>2026-04-26T13:18:56Z</time>
      </trkpt>
      <trkpt lat="45.04893" lon="3.88316">
        <ele>648.6</ele>
        <time>2026-04-26T13:19:01Z</time>
      </trkpt>
      <trkpt lat="45.04893" lon="3.88308">
        <ele>647.4</ele>
        <time>2026-04-26T13:19:06Z</time>
      </trkpt>
      <trkpt lat="45.04894" lon="3.883">
        <ele>646.2</ele>
        <time>2026-04-26T13:19:11Z</time>
      </trkpt>
      <trkpt lat="45.04892" lon="3.883">
        <ele>646.4</ele>
        <time>2026-04-26T13:19:16Z</time>
      </trkpt>
      <trkpt lat="45.0489" lon="3.88306">
        <ele>647.5</ele>
        <time>2026-04-26T13:19:21Z</time>
      </trkpt>
      <trkpt lat="45.04892" lon="3.88313">
        <ele>648.3</ele>
        <time>2026-04-26T13:19:26Z</time>
      </trkpt>
      <trkpt lat="45.04892" lon="3.88322">
        <ele>649.6</ele>
        <time>2026-04-26T13:19:31Z</time>
      </trkpt>
      <trkpt lat="45.04891" lon="3.88331">
        <ele>651</ele>
        <time>2026-04-26T13:19:36Z</time>
      </trkpt>
      <trkpt lat="45.0489" lon="3.88338">
        <ele>652.3</ele>
        <time>2026-04-26T13:19:41Z</time>
      </trkpt>
      <trkpt lat="45.0489" lon="3.88348">
        <ele>653.9</ele>
        <time>2026-04-26T13:19:46Z</time>
      </trkpt>
      <trkpt lat="45.04888" lon="3.88356">
        <ele>655.4</ele>
        <time>2026-04-26T13:19:51Z</time>
      </trkpt>
      <trkpt lat="45.04887" lon="3.88366">
        <ele>657.2</ele>
        <time>2026-04-26T13:19:56Z</time>
      </trkpt>
      <trkpt lat="45.04888" lon="3.88375">
        <ele>658.5</ele>
        <time>2026-04-26T13:20:01Z</time>
      </trkpt>
      <trkpt lat="45.04888" lon="3.88383">
        <ele>659.8</ele>
        <time>2026-04-26T13:20:06Z</time>
      </trkpt>
      <trkpt lat="45.04888" lon="3.8839">
        <ele>660.9</ele>
        <time>2026-04-26T13:20:11Z</time>
      </trkpt>
      <trkpt lat="45.04885" lon="3.88395">
        <ele>662.2</ele>
        <time>2026-04-26T13:20:16Z</time>
      </trkpt>
      <trkpt lat="45.04882" lon="3.88396">
        <ele>662.9</ele>
        <time>2026-04-26T13:20:21Z</time>
      </trkpt>
      <trkpt lat="45.04878" lon="3.88392">
        <ele>662.9</ele>
        <time>2026-04-26T13:20:26Z</time>
      </trkpt>
      <trkpt lat="45.04874" lon="3.88385">
        <ele>662.3</ele>
        <time>2026-04-26T13:20:31Z</time>
      </trkpt>
      <trkpt lat="45.04868" lon="3.8838">
        <ele>662.5</ele>
        <time>2026-04-26T13:20:36Z</time>
      </trkpt>
      <trkpt lat="45.04865" lon="3.88376">
        <ele>662.2</ele>
        <time>2026-04-26T13:20:41Z</time>
      </trkpt>
      <trkpt lat="45.04862" lon="3.88374">
        <ele>662.4</ele>
        <time>2026-04-26T13:20:46Z</time>
      </trkpt>
      <trkpt lat="45.04858" lon="3.88373">
        <ele>662.8</ele>
        <time>2026-04-26T13:20:51Z</time>
      </trkpt>
      <trkpt lat="45.04854" lon="3.88369">
        <ele>662.7</ele>
        <time>2026-04-26T13:20:56Z</time>
      </trkpt>
      <trkpt lat="45.04851" lon="3.88366">
        <ele>662.6</ele>
        <time>2026-04-26T13:21:01Z</time>
      </trkpt>
      <trkpt lat="45.04847" lon="3.88364">
        <ele>662.8</ele>
        <time>2026-04-26T13:21:06Z</time>
      </trkpt>
      <trkpt lat="45.04842" lon="3.88361">
        <ele>663</ele>
        <time>2026-04-26T13:21:11Z</time>
      </trkpt>
      <trkpt lat="45.04838" lon="3.88359">
        <ele>663.2</ele>
        <time>2026-04-26T13:21:16Z</time>
      </trkpt>
      <trkpt lat="45.04833" lon="3.88357">
        <ele>663.6</ele>
        <time>2026-04-26T13:21:21Z</time>
      </trkpt>
      <trkpt lat="45.04829" lon="3.88355">
        <ele>663.4</ele>
        <time>2026-04-26T13:21:26Z</time>
      </trkpt>
      <trkpt lat="45.04825" lon="3.88356">
        <ele>663.8</ele>
        <time>2026-04-26T13:21:31Z</time>
      </trkpt>
      <trkpt lat="45.0482" lon="3.88354">
        <ele>663.7</ele>
        <time>2026-04-26T13:21:36Z</time>
      </trkpt>
      <trkpt lat="45.04816" lon="3.88352">
        <ele>663.5</ele>
        <time>2026-04-26T13:21:41Z</time>
      </trkpt>
      <trkpt lat="45.04814" lon="3.88351">
        <ele>663.5</ele>
        <time>2026-04-26T13:21:46Z</time>
      </trkpt>
      <trkpt lat="45.04812" lon="3.88352">
        <ele>663.7</ele>
        <time>2026-04-26T13:21:51Z</time>
      </trkpt>
      <trkpt lat="45.04812" lon="3.88352">
        <ele>663.7</ele>
        <time>2026-04-26T13:21:56Z</time>
      </trkpt>
      <trkpt lat="45.04812" lon="3.88352">
        <ele>663.7</ele>
        <time>2026-04-26T13:22:01Z</time>
      </trkpt>
      <trkpt lat="45.04812" lon="3.88352">
        <ele>663.7</ele>
        <time>2026-04-26T13:22:06Z</time>
      </trkpt>
      <trkpt lat="45.04812" lon="3.88352">
        <ele>663.7</ele>
        <time>2026-04-26T13:22:11Z</time>
      </trkpt>
      <trkpt lat="45.04812" lon="3.88352">
        <ele>663.7</ele>
        <time>2026-04-26T13:22:16Z</time>
      </trkpt>
      <trkpt lat="45.04812" lon="3.88352">
        <ele>663.7</ele>
        <time>2026-04-26T13:22:21Z</time>
      </trkpt>
      <trkpt lat="45.04812" lon="3.88352">
        <ele>663.7</ele>
        <time>2026-04-26T13:22:26Z</time>
      </trkpt>
      <trkpt lat="45.04812" lon="3.88352">
        <ele>663.7</ele>
        <time>2026-04-26T13:22:31Z</time>
      </trkpt>
      <trkpt lat="45.04812" lon="3.88352">
        <ele>663.7</ele>
        <time>2026-04-26T13:22:36Z</time>
      </trkpt>
      <trkpt lat="45.04812" lon="3.88352">
        <ele>663.7</ele>
        <time>2026-04-26T13:22:41Z</time>
      </trkpt>
      <trkpt lat="45.04809" lon="3.88355">
        <ele>664.5</ele>
        <time>2026-04-26T13:22:46Z</time>
      </trkpt>
      <trkpt lat="45.04804" lon="3.88351">
        <ele>664</ele>
        <time>2026-04-26T13:22:51Z</time>
      </trkpt>
      <trkpt lat="45.04803" lon="3.88351">
        <ele>664.1</ele>
        <time>2026-04-26T13:22:56Z</time>
      </trkpt>
      <trkpt lat="45.048" lon="3.8835">
        <ele>664</ele>
        <time>2026-04-26T13:23:01Z</time>
      </trkpt>
      <trkpt lat="45.04793" lon="3.88349">
        <ele>664.2</ele>
        <time>2026-04-26T13:23:06Z</time>
      </trkpt>
      <trkpt lat="45.04786" lon="3.88348">
        <ele>664.5</ele>
        <time>2026-04-26T13:23:11Z</time>
      </trkpt>
      <trkpt lat="45.0478" lon="3.88347">
        <ele>664.6</ele>
        <time>2026-04-26T13:23:16Z</time>
      </trkpt>
      <trkpt lat="45.04773" lon="3.88345">
        <ele>664.7</ele>
        <time>2026-04-26T13:23:21Z</time>
      </trkpt>
      <trkpt lat="45.04766" lon="3.88344">
        <ele>664.9</ele>
        <time>2026-04-26T13:23:26Z</time>
      </trkpt>
      <trkpt lat="45.0476" lon="3.88342">
        <ele>664.9</ele>
        <time>2026-04-26T13:23:31Z</time>
      </trkpt>
      <trkpt lat="45.04754" lon="3.88339">
        <ele>664.7</ele>
        <time>2026-04-26T13:23:36Z</time>
      </trkpt>
      <trkpt lat="45.04747" lon="3.88337">
        <ele>664.6</ele>
        <time>2026-04-26T13:23:41Z</time>
      </trkpt>
      <trkpt lat="45.04741" lon="3.88335">
        <ele>664.1</ele>
        <time>2026-04-26T13:23:46Z</time>
      </trkpt>
      <trkpt lat="45.04735" lon="3.88332">
        <ele>663.5</ele>
        <time>2026-04-26T13:23:51Z</time>
      </trkpt>
      <trkpt lat="45.0473" lon="3.8833">
        <ele>663.1</ele>
        <time>2026-04-26T13:23:56Z</time>
      </trkpt>
      <trkpt lat="45.04722" lon="3.8833">
        <ele>662.9</ele>
        <time>2026-04-26T13:24:01Z</time>
      </trkpt>
      <trkpt lat="45.04716" lon="3.88329">
        <ele>662.6</ele>
        <time>2026-04-26T13:24:06Z</time>
      </trkpt>
      <trkpt lat="45.04709" lon="3.8833">
        <ele>662.6</ele>
        <time>2026-04-26T13:24:11Z</time>
      </trkpt>
      <trkpt lat="45.04701" lon="3.88332">
        <ele>662.7</ele>
        <time>2026-04-26T13:24:16Z</time>
      </trkpt>
      <trkpt lat="45.04697" lon="3.88334">
        <ele>662.9</ele>
        <time>2026-04-26T13:24:21Z</time>
      </trkpt>
      <trkpt lat="45.04694" lon="3.88335">
        <ele>663</ele>
        <time>2026-04-26T13:24:26Z</time>
      </trkpt>
      <trkpt lat="45.04688" lon="3.88338">
        <ele>663.5</ele>
        <time>2026-04-26T13:24:31Z</time>
      </trkpt>
      <trkpt lat="45.04683" lon="3.88339">
        <ele>663.6</ele>
        <time>2026-04-26T13:24:36Z</time>
      </trkpt>
      <trkpt lat="45.04676" lon="3.88341">
        <ele>663.8</ele>
        <time>2026-04-26T13:24:41Z</time>
      </trkpt>
      <trkpt lat="45.04664" lon="3.88343">
        <ele>664</ele>
        <time>2026-04-26T13:24:46Z</time>
      </trkpt>
      <trkpt lat="45.04657" lon="3.88343">
        <ele>663.6</ele>
        <time>2026-04-26T13:24:51Z</time>
      </trkpt>
      <trkpt lat="45.0465" lon="3.88349">
        <ele>664.5</ele>
        <time>2026-04-26T13:24:56Z</time>
      </trkpt>
      <trkpt lat="45.04642" lon="3.8835">
        <ele>664.3</ele>
        <time>2026-04-26T13:25:01Z</time>
      </trkpt>
      <trkpt lat="45.04634" lon="3.88352">
        <ele>664.2</ele>
        <time>2026-04-26T13:25:06Z</time>
      </trkpt>
      <trkpt lat="45.04627" lon="3.88355">
        <ele>664.4</ele>
        <time>2026-04-26T13:25:11Z</time>
      </trkpt>
      <trkpt lat="45.04625" lon="3.88353">
        <ele>663.9</ele>
        <time>2026-04-26T13:25:16Z</time>
      </trkpt>
      <trkpt lat="45.04625" lon="3.8835">
        <ele>663.4</ele>
        <time>2026-04-26T13:25:21Z</time>
      </trkpt>
      <trkpt lat="45.04625" lon="3.88341">
        <ele>661.8</ele>
        <time>2026-04-26T13:25:26Z</time>
      </trkpt>
      <trkpt lat="45.04624" lon="3.88333">
        <ele>660.4</ele>
        <time>2026-04-26T13:25:31Z</time>
      </trkpt>
      <trkpt lat="45.04616" lon="3.88331">
        <ele>659.9</ele>
        <time>2026-04-26T13:25:36Z</time>
      </trkpt>
      <trkpt lat="45.0461" lon="3.88328">
        <ele>659.3</ele>
        <time>2026-04-26T13:25:41Z</time>
      </trkpt>
      <trkpt lat="45.04602" lon="3.88327">
        <ele>658.9</ele>
        <time>2026-04-26T13:25:46Z</time>
      </trkpt>
      <trkpt lat="45.04596" lon="3.88326">
        <ele>658.6</ele>
        <time>2026-04-26T13:25:51Z</time>
      </trkpt>
      <trkpt lat="45.0459" lon="3.88327">
        <ele>658.5</ele>
        <time>2026-04-26T13:25:56Z</time>
      </trkpt>
      <trkpt lat="45.04587" lon="3.88327">
        <ele>658.4</ele>
        <time>2026-04-26T13:26:01Z</time>
      </trkpt>
      <trkpt lat="45.04584" lon="3.88327">
        <ele>658.3</ele>
        <time>2026-04-26T13:26:06Z</time>
      </trkpt>
      <trkpt lat="45.04581" lon="3.88327">
        <ele>658</ele>
        <time>2026-04-26T13:26:11Z</time>
      </trkpt>
      <trkpt lat="45.0458" lon="3.88327">
        <ele>657.9</ele>
        <time>2026-04-26T13:26:16Z</time>
      </trkpt>
      <trkpt lat="45.0458" lon="3.88327">
        <ele>657.9</ele>
        <time>2026-04-26T13:26:21Z</time>
      </trkpt>
      <trkpt lat="45.0458" lon="3.88327">
        <ele>657.9</ele>
        <time>2026-04-26T13:26:26Z</time>
      </trkpt>
      <trkpt lat="45.0458" lon="3.88327">
        <ele>657.9</ele>
        <time>2026-04-26T13:26:31Z</time>
      </trkpt>
      <trkpt lat="45.0458" lon="3.88327">
        <ele>657.9</ele>
        <time>2026-04-26T13:26:36Z</time>
      </trkpt>
      <trkpt lat="45.0458" lon="3.88332">
        <ele>658.5</ele>
        <time>2026-04-26T13:26:41Z</time>
      </trkpt>
      <trkpt lat="45.04576" lon="3.8834">
        <ele>659.1</ele>
        <time>2026-04-26T13:26:46Z</time>
      </trkpt>
      <trkpt lat="45.04573" lon="3.88346">
        <ele>659.5</ele>
        <time>2026-04-26T13:26:51Z</time>
      </trkpt>
      <trkpt lat="45.04569" lon="3.88352">
        <ele>659.7</ele>
        <time>2026-04-26T13:26:56Z</time>
      </trkpt>
      <trkpt lat="45.04567" lon="3.88355">
        <ele>659.8</ele>
        <time>2026-04-26T13:27:01Z</time>
      </trkpt>
      <trkpt lat="45.04563" lon="3.88358">
        <ele>659.7</ele>
        <time>2026-04-26T13:27:06Z</time>
      </trkpt>
      <trkpt lat="45.04555" lon="3.88362">
        <ele>659</ele>
        <time>2026-04-26T13:27:11Z</time>
      </trkpt>
      <trkpt lat="45.04554" lon="3.88355">
        <ele>658.2</ele>
        <time>2026-04-26T13:27:16Z</time>
      </trkpt>
      <trkpt lat="45.04553" lon="3.88349">
        <ele>657.5</ele>
        <time>2026-04-26T13:27:21Z</time>
      </trkpt>
      <trkpt lat="45.04552" lon="3.88344">
        <ele>657</ele>
        <time>2026-04-26T13:27:26Z</time>
      </trkpt>
      <trkpt lat="45.04552" lon="3.88338">
        <ele>656.4</ele>
        <time>2026-04-26T13:27:31Z</time>
      </trkpt>
      <trkpt lat="45.04551" lon="3.8833">
        <ele>655.6</ele>
        <time>2026-04-26T13:27:36Z</time>
      </trkpt>
      <trkpt lat="45.04551" lon="3.88323">
        <ele>654.9</ele>
        <time>2026-04-26T13:27:41Z</time>
      </trkpt>
      <trkpt lat="45.0455" lon="3.88316">
        <ele>654.2</ele>
        <time>2026-04-26T13:27:46Z</time>
      </trkpt>
      <trkpt lat="45.04552" lon="3.8831">
        <ele>653.8</ele>
        <time>2026-04-26T13:27:51Z</time>
      </trkpt>
      <trkpt lat="45.0455" lon="3.88304">
        <ele>653.1</ele>
        <time>2026-04-26T13:27:56Z</time>
      </trkpt>
      <trkpt lat="45.04549" lon="3.88298">
        <ele>652.5</ele>
        <time>2026-04-26T13:28:01Z</time>
      </trkpt>
      <trkpt lat="45.04548" lon="3.88291">
        <ele>651.8</ele>
        <time>2026-04-26T13:28:06Z</time>
      </trkpt>
      <trkpt lat="45.04549" lon="3.88284">
        <ele>651.2</ele>
        <time>2026-04-26T13:28:11Z</time>
      </trkpt>
      <trkpt lat="45.04546" lon="3.88277">
        <ele>650.5</ele>
        <time>2026-04-26T13:28:16Z</time>
      </trkpt>
      <trkpt lat="45.04545" lon="3.88272">
        <ele>650</ele>
        <time>2026-04-26T13:28:21Z</time>
      </trkpt>
      <trkpt lat="45.04544" lon="3.88266">
        <ele>649.4</ele>
        <time>2026-04-26T13:28:26Z</time>
      </trkpt>
      <trkpt lat="45.04544" lon="3.88266">
        <ele>649.4</ele>
        <time>2026-04-26T13:28:26Z</time>
      </trkpt>
      <trkpt lat="45.04543" lon="3.88255">
        <ele>648.5</ele>
        <time>2026-04-26T13:32:06Z</time>
      </trkpt>
      <trkpt lat="45.04543" lon="3.88255">
        <ele>648.5</ele>
        <time>2026-04-26T13:32:11Z</time>
      </trkpt>
      <trkpt lat="45.04543" lon="3.88255">
        <ele>648.5</ele>
        <time>2026-04-26T13:32:16Z</time>
      </trkpt>
      <trkpt lat="45.04543" lon="3.88255">
        <ele>648.5</ele>
        <time>2026-04-26T13:32:21Z</time>
      </trkpt>
      <trkpt lat="45.04543" lon="3.88255">
        <ele>648.5</ele>
        <time>2026-04-26T13:32:26Z</time>
      </trkpt>
      <trkpt lat="45.04543" lon="3.88255">
        <ele>648.5</ele>
        <time>2026-04-26T13:32:31Z</time>
      </trkpt>
      <trkpt lat="45.04536" lon="3.88248">
        <ele>647.7</ele>
        <time>2026-04-26T13:32:36Z</time>
      </trkpt>
      <trkpt lat="45.0453" lon="3.88249">
        <ele>647.7</ele>
        <time>2026-04-26T13:32:41Z</time>
      </trkpt>
      <trkpt lat="45.04523" lon="3.88251">
        <ele>647.6</ele>
        <time>2026-04-26T13:32:46Z</time>
      </trkpt>
      <trkpt lat="45.04516" lon="3.88253">
        <ele>647.6</ele>
        <time>2026-04-26T13:32:51Z</time>
      </trkpt>
      <trkpt lat="45.0451" lon="3.88254">
        <ele>647.5</ele>
        <time>2026-04-26T13:32:56Z</time>
      </trkpt>
      <trkpt lat="45.04504" lon="3.88255">
        <ele>647.4</ele>
        <time>2026-04-26T13:33:01Z</time>
      </trkpt>
      <trkpt lat="45.04499" lon="3.88256">
        <ele>647.2</ele>
        <time>2026-04-26T13:33:06Z</time>
      </trkpt>
      <trkpt lat="45.04493" lon="3.88258">
        <ele>647</ele>
        <time>2026-04-26T13:33:11Z</time>
      </trkpt>
      <trkpt lat="45.04487" lon="3.88257">
        <ele>646.6</ele>
        <time>2026-04-26T13:33:16Z</time>
      </trkpt>
      <trkpt lat="45.0448" lon="3.88259">
        <ele>646.3</ele>
        <time>2026-04-26T13:33:21Z</time>
      </trkpt>
      <trkpt lat="45.04477" lon="3.88261">
        <ele>646.2</ele>
        <time>2026-04-26T13:33:26Z</time>
      </trkpt>
      <trkpt lat="45.04476" lon="3.88262">
        <ele>646.2</ele>
        <time>2026-04-26T13:33:31Z</time>
      </trkpt>
      <trkpt lat="45.04471" lon="3.88265">
        <ele>646</ele>
        <time>2026-04-26T13:33:36Z</time>
      </trkpt>
      <trkpt lat="45.04467" lon="3.88267">
        <ele>645.7</ele>
        <time>2026-04-26T13:33:41Z</time>
      </trkpt>
      <trkpt lat="45.04463" lon="3.88268">
        <ele>645.5</ele>
        <time>2026-04-26T13:33:46Z</time>
      </trkpt>
      <trkpt lat="45.0446" lon="3.88269">
        <ele>645.3</ele>
        <time>2026-04-26T13:33:51Z</time>
      </trkpt>
      <trkpt lat="45.04458" lon="3.88269">
        <ele>645.2</ele>
        <time>2026-04-26T13:33:56Z</time>
      </trkpt>
      <trkpt lat="45.04456" lon="3.88269">
        <ele>645.1</ele>
        <time>2026-04-26T13:34:01Z</time>
      </trkpt>
      <trkpt lat="45.04456" lon="3.88269">
        <ele>645.1</ele>
        <time>2026-04-26T13:34:06Z</time>
      </trkpt>
      <trkpt lat="45.04456" lon="3.88269">
        <ele>645.1</ele>
        <time>2026-04-26T13:34:11Z</time>
      </trkpt>
      <trkpt lat="45.04451" lon="3.88269">
        <ele>644.8</ele>
        <time>2026-04-26T13:34:16Z</time>
      </trkpt>
      <trkpt lat="45.04446" lon="3.8827">
        <ele>644.4</ele>
        <time>2026-04-26T13:34:21Z</time>
      </trkpt>
      <trkpt lat="45.0444" lon="3.88271">
        <ele>644</ele>
        <time>2026-04-26T13:34:26Z</time>
      </trkpt>
      <trkpt lat="45.04437" lon="3.88271">
        <ele>643.8</ele>
        <time>2026-04-26T13:34:31Z</time>
      </trkpt>
      <trkpt lat="45.04433" lon="3.88272">
        <ele>643.6</ele>
        <time>2026-04-26T13:34:36Z</time>
      </trkpt>
      <trkpt lat="45.04433" lon="3.88274">
        <ele>643.5</ele>
        <time>2026-04-26T13:34:41Z</time>
      </trkpt>
      <trkpt lat="45.04432" lon="3.88274">
        <ele>643.5</ele>
        <time>2026-04-26T13:34:46Z</time>
      </trkpt>
      <trkpt lat="45.04428" lon="3.88275">
        <ele>643.2</ele>
        <time>2026-04-26T13:34:51Z</time>
      </trkpt>
      <trkpt lat="45.04422" lon="3.88277">
        <ele>642.7</ele>
        <time>2026-04-26T13:34:56Z</time>
      </trkpt>
      <trkpt lat="45.04416" lon="3.8828">
        <ele>642.2</ele>
        <time>2026-04-26T13:35:01Z</time>
      </trkpt>
      <trkpt lat="45.04411" lon="3.88281">
        <ele>641.8</ele>
        <time>2026-04-26T13:35:06Z</time>
      </trkpt>
      <trkpt lat="45.04405" lon="3.88283">
        <ele>641.4</ele>
        <time>2026-04-26T13:35:11Z</time>
      </trkpt>
      <trkpt lat="45.04399" lon="3.88285">
        <ele>640.9</ele>
        <time>2026-04-26T13:35:16Z</time>
      </trkpt>
      <trkpt lat="45.04393" lon="3.88287">
        <ele>640.4</ele>
        <time>2026-04-26T13:35:21Z</time>
      </trkpt>
      <trkpt lat="45.04388" lon="3.88287">
        <ele>640</ele>
        <time>2026-04-26T13:35:26Z</time>
      </trkpt>
      <trkpt lat="45.04384" lon="3.88287">
        <ele>639.8</ele>
        <time>2026-04-26T13:35:31Z</time>
      </trkpt>
      <trkpt lat="45.04379" lon="3.88288">
        <ele>639.4</ele>
        <time>2026-04-26T13:35:36Z</time>
      </trkpt>
      <trkpt lat="45.04373" lon="3.88287">
        <ele>639</ele>
        <time>2026-04-26T13:35:41Z</time>
      </trkpt>
      <trkpt lat="45.0437" lon="3.88284">
        <ele>638.8</ele>
        <time>2026-04-26T13:35:46Z</time>
      </trkpt>
      <trkpt lat="45.04365" lon="3.88283">
        <ele>638.5</ele>
        <time>2026-04-26T13:35:51Z</time>
      </trkpt>
      <trkpt lat="45.04357" lon="3.88278">
        <ele>638</ele>
        <time>2026-04-26T13:35:56Z</time>
      </trkpt>
      <trkpt lat="45.04351" lon="3.88273">
        <ele>637.7</ele>
        <time>2026-04-26T13:36:01Z</time>
      </trkpt>
      <trkpt lat="45.04351" lon="3.88263">
        <ele>638</ele>
        <time>2026-04-26T13:36:06Z</time>
      </trkpt>
      <trkpt lat="45.04347" lon="3.88254">
        <ele>637.9</ele>
        <time>2026-04-26T13:36:11Z</time>
      </trkpt>
      <trkpt lat="45.04344" lon="3.88252">
        <ele>637.7</ele>
        <time>2026-04-26T13:36:16Z</time>
      </trkpt>
      <trkpt lat="45.04341" lon="3.88251">
        <ele>637.5</ele>
        <time>2026-04-26T13:36:21Z</time>
      </trkpt>
      <trkpt lat="45.04341" lon="3.88255">
        <ele>637.4</ele>
        <time>2026-04-26T13:36:26Z</time>
      </trkpt>
      <trkpt lat="45.04339" lon="3.88256">
        <ele>637.3</ele>
        <time>2026-04-26T13:36:31Z</time>
      </trkpt>
      <trkpt lat="45.04339" lon="3.88256">
        <ele>637.3</ele>
        <time>2026-04-26T13:36:36Z</time>
      </trkpt>
      <trkpt lat="45.04337" lon="3.88258">
        <ele>637.1</ele>
        <time>2026-04-26T13:36:41Z</time>
      </trkpt>
      <trkpt lat="45.04335" lon="3.88256">
        <ele>637</ele>
        <time>2026-04-26T13:36:46Z</time>
      </trkpt>
      <trkpt lat="45.04331" lon="3.88255">
        <ele>636.7</ele>
        <time>2026-04-26T13:36:51Z</time>
      </trkpt>
      <trkpt lat="45.04329" lon="3.88248">
        <ele>636.8</ele>
        <time>2026-04-26T13:36:56Z</time>
      </trkpt>
      <trkpt lat="45.04323" lon="3.88247">
        <ele>636.5</ele>
        <time>2026-04-26T13:37:01Z</time>
      </trkpt>
      <trkpt lat="45.04315" lon="3.88253">
        <ele>635.8</ele>
        <time>2026-04-26T13:37:06Z</time>
      </trkpt>
      <trkpt lat="45.04312" lon="3.8827">
        <ele>635.1</ele>
        <time>2026-04-26T13:37:11Z</time>
      </trkpt>
      <trkpt lat="45.04314" lon="3.88276">
        <ele>635.1</ele>
        <time>2026-04-26T13:37:16Z</time>
      </trkpt>
      <trkpt lat="45.04313" lon="3.88279">
        <ele>634.9</ele>
        <time>2026-04-26T13:37:21Z</time>
      </trkpt>
      <trkpt lat="45.04314" lon="3.88276">
        <ele>635.1</ele>
        <time>2026-04-26T13:37:26Z</time>
      </trkpt>
      <trkpt lat="45.04313" lon="3.88273">
        <ele>635.1</ele>
        <time>2026-04-26T13:37:31Z</time>
      </trkpt>
      <trkpt lat="45.04313" lon="3.88273">
        <ele>635.1</ele>
        <time>2026-04-26T13:37:36Z</time>
      </trkpt>
      <trkpt lat="45.04313" lon="3.88273">
        <ele>635.1</ele>
        <time>2026-04-26T13:37:41Z</time>
      </trkpt>
      <trkpt lat="45.04313" lon="3.88273">
        <ele>635.1</ele>
        <time>2026-04-26T13:37:46Z</time>
      </trkpt>
      <trkpt lat="45.04313" lon="3.88273">
        <ele>635.1</ele>
        <time>2026-04-26T13:37:51Z</time>
      </trkpt>
      <trkpt lat="45.04313" lon="3.88273">
        <ele>635.1</ele>
        <time>2026-04-26T13:37:56Z</time>
      </trkpt>
      <trkpt lat="45.04303" lon="3.88261">
        <ele>634.8</ele>
        <time>2026-04-26T13:38:01Z</time>
      </trkpt>
      <trkpt lat="45.04303" lon="3.88261">
        <ele>634.8</ele>
        <time>2026-04-26T13:38:06Z</time>
      </trkpt>
      <trkpt lat="45.04303" lon="3.88261">
        <ele>634.8</ele>
        <time>2026-04-26T13:38:11Z</time>
      </trkpt>
      <trkpt lat="45.043" lon="3.8827">
        <ele>634.3</ele>
        <time>2026-04-26T13:38:16Z</time>
      </trkpt>
      <trkpt lat="45.04298" lon="3.8828">
        <ele>633.9</ele>
        <time>2026-04-26T13:38:21Z</time>
      </trkpt>
      <trkpt lat="45.04297" lon="3.88288">
        <ele>633.5</ele>
        <time>2026-04-26T13:38:26Z</time>
      </trkpt>
      <trkpt lat="45.04295" lon="3.88298">
        <ele>633</ele>
        <time>2026-04-26T13:38:31Z</time>
      </trkpt>
      <trkpt lat="45.04298" lon="3.88307">
        <ele>632.9</ele>
        <time>2026-04-26T13:38:36Z</time>
      </trkpt>
      <trkpt lat="45.04298" lon="3.88318">
        <ele>632.6</ele>
        <time>2026-04-26T13:38:41Z</time>
      </trkpt>
      <trkpt lat="45.04297" lon="3.88326">
        <ele>632.2</ele>
        <time>2026-04-26T13:38:46Z</time>
      </trkpt>
      <trkpt lat="45.04297" lon="3.88331">
        <ele>632</ele>
        <time>2026-04-26T13:38:51Z</time>
      </trkpt>
      <trkpt lat="45.04297" lon="3.88339">
        <ele>631.9</ele>
        <time>2026-04-26T13:38:56Z</time>
      </trkpt>
      <trkpt lat="45.04296" lon="3.88349">
        <ele>631.7</ele>
        <time>2026-04-26T13:39:01Z</time>
      </trkpt>
      <trkpt lat="45.04294" lon="3.8836">
        <ele>631.4</ele>
        <time>2026-04-26T13:39:06Z</time>
      </trkpt>
      <trkpt lat="45.04293" lon="3.88369">
        <ele>631.2</ele>
        <time>2026-04-26T13:39:11Z</time>
      </trkpt>
      <trkpt lat="45.0429" lon="3.88372">
        <ele>630.9</ele>
        <time>2026-04-26T13:39:16Z</time>
      </trkpt>
      <trkpt lat="45.04289" lon="3.88381">
        <ele>630.7</ele>
        <time>2026-04-26T13:39:21Z</time>
      </trkpt>
      <trkpt lat="45.04287" lon="3.88388">
        <ele>630.5</ele>
        <time>2026-04-26T13:39:26Z</time>
      </trkpt>
      <trkpt lat="45.04286" lon="3.88395">
        <ele>630.4</ele>
        <time>2026-04-26T13:39:31Z</time>
      </trkpt>
      <trkpt lat="45.04283" lon="3.88397">
        <ele>630.2</ele>
        <time>2026-04-26T13:39:36Z</time>
      </trkpt>
      <trkpt lat="45.0428" lon="3.88397">
        <ele>630</ele>
        <time>2026-04-26T13:39:41Z</time>
      </trkpt>
      <trkpt lat="45.04277" lon="3.88395">
        <ele>629.8</ele>
        <time>2026-04-26T13:39:46Z</time>
      </trkpt>
      <trkpt lat="45.04272" lon="3.88395">
        <ele>629.5</ele>
        <time>2026-04-26T13:39:51Z</time>
      </trkpt>
      <trkpt lat="45.04268" lon="3.88394">
        <ele>629.2</ele>
        <time>2026-04-26T13:39:56Z</time>
      </trkpt>
      <trkpt lat="45.04263" lon="3.88393">
        <ele>628.9</ele>
        <time>2026-04-26T13:40:01Z</time>
      </trkpt>
      <trkpt lat="45.04258" lon="3.88392">
        <ele>628.5</ele>
        <time>2026-04-26T13:40:06Z</time>
      </trkpt>
      <trkpt lat="45.04251" lon="3.8839">
        <ele>628.1</ele>
        <time>2026-04-26T13:40:11Z</time>
      </trkpt>
      <trkpt lat="45.04246" lon="3.88389">
        <ele>628</ele>
        <time>2026-04-26T13:40:16Z</time>
      </trkpt>
      <trkpt lat="45.0424" lon="3.88388">
        <ele>628</ele>
        <time>2026-04-26T13:40:21Z</time>
      </trkpt>
      <trkpt lat="45.04236" lon="3.88387">
        <ele>628</ele>
        <time>2026-04-26T13:40:26Z</time>
      </trkpt>
      <trkpt lat="45.0423" lon="3.88387">
        <ele>627.9</ele>
        <time>2026-04-26T13:40:31Z</time>
      </trkpt>
      <trkpt lat="45.04224" lon="3.88385">
        <ele>627.9</ele>
        <time>2026-04-26T13:40:36Z</time>
      </trkpt>
      <trkpt lat="45.04224" lon="3.88385">
        <ele>627.9</ele>
        <time>2026-04-26T13:40:41Z</time>
      </trkpt>
      <trkpt lat="45.04212" lon="3.88382">
        <ele>627.9</ele>
        <time>2026-04-26T13:40:46Z</time>
      </trkpt>
      <trkpt lat="45.04212" lon="3.88382">
        <ele>627.9</ele>
        <time>2026-04-26T13:40:51Z</time>
      </trkpt>
      <trkpt lat="45.04208" lon="3.88374">
        <ele>628</ele>
        <time>2026-04-26T13:40:56Z</time>
      </trkpt>
      <trkpt lat="45.04207" lon="3.88373">
        <ele>628</ele>
        <time>2026-04-26T13:41:01Z</time>
      </trkpt>
      <trkpt lat="45.04203" lon="3.88373">
        <ele>628</ele>
        <time>2026-04-26T13:41:06Z</time>
      </trkpt>
      <trkpt lat="45.04196" lon="3.88371">
        <ele>628.1</ele>
        <time>2026-04-26T13:41:11Z</time>
      </trkpt>
      <trkpt lat="45.04193" lon="3.88368">
        <ele>628.1</ele>
        <time>2026-04-26T13:41:16Z</time>
      </trkpt>
      <trkpt lat="45.04192" lon="3.88366">
        <ele>628.2</ele>
        <time>2026-04-26T13:41:21Z</time>
      </trkpt>
      <trkpt lat="45.04188" lon="3.88366">
        <ele>628.2</ele>
        <time>2026-04-26T13:41:26Z</time>
      </trkpt>
      <trkpt lat="45.04185" lon="3.88369">
        <ele>628.1</ele>
        <time>2026-04-26T13:41:31Z</time>
      </trkpt>
      <trkpt lat="45.0418" lon="3.88369">
        <ele>628.1</ele>
        <time>2026-04-26T13:41:36Z</time>
      </trkpt>
      <trkpt lat="45.04178" lon="3.88358">
        <ele>628.4</ele>
        <time>2026-04-26T13:41:41Z</time>
      </trkpt>
      <trkpt lat="45.04179" lon="3.88349">
        <ele>628.5</ele>
        <time>2026-04-26T13:41:46Z</time>
      </trkpt>
      <trkpt lat="45.04179" lon="3.88342">
        <ele>628.7</ele>
        <time>2026-04-26T13:41:51Z</time>
      </trkpt>
      <trkpt lat="45.04178" lon="3.88337">
        <ele>628.8</ele>
        <time>2026-04-26T13:41:56Z</time>
      </trkpt>
      <trkpt lat="45.04178" lon="3.88333">
        <ele>628.9</ele>
        <time>2026-04-26T13:42:01Z</time>
      </trkpt>
      <trkpt lat="45.04177" lon="3.88333">
        <ele>628.9</ele>
        <time>2026-04-26T13:42:06Z</time>
      </trkpt>
      <trkpt lat="45.04176" lon="3.88332">
        <ele>629</ele>
        <time>2026-04-26T13:42:11Z</time>
      </trkpt>
      <trkpt lat="45.04179" lon="3.88324">
        <ele>629.3</ele>
        <time>2026-04-26T13:42:16Z</time>
      </trkpt>
      <trkpt lat="45.0418" lon="3.8832">
        <ele>629.5</ele>
        <time>2026-04-26T13:42:21Z</time>
      </trkpt>
      <trkpt lat="45.0418" lon="3.88314">
        <ele>629.8</ele>
        <time>2026-04-26T13:42:26Z</time>
      </trkpt>
      <trkpt lat="45.04179" lon="3.88305">
        <ele>630.2</ele>
        <time>2026-04-26T13:42:31Z</time>
      </trkpt>
      <trkpt lat="45.0418" lon="3.88298">
        <ele>630.5</ele>
        <time>2026-04-26T13:42:36Z</time>
      </trkpt>
      <trkpt lat="45.04183" lon="3.88296">
        <ele>630.6</ele>
        <time>2026-04-26T13:42:41Z</time>
      </trkpt>
      <trkpt lat="45.04186" lon="3.88292">
        <ele>630.8</ele>
        <time>2026-04-26T13:42:46Z</time>
      </trkpt>
      <trkpt lat="45.04187" lon="3.88287">
        <ele>631</ele>
        <time>2026-04-26T13:42:51Z</time>
      </trkpt>
      <trkpt lat="45.04186" lon="3.88284">
        <ele>631.1</ele>
        <time>2026-04-26T13:42:56Z</time>
      </trkpt>
      <trkpt lat="45.04186" lon="3.88284">
        <ele>631.1</ele>
        <time>2026-04-26T13:43:01Z</time>
      </trkpt>
      <trkpt lat="45.04186" lon="3.88284">
        <ele>631.1</ele>
        <time>2026-04-26T13:43:06Z</time>
      </trkpt>
      <trkpt lat="45.04186" lon="3.88284">
        <ele>631.1</ele>
        <time>2026-04-26T13:43:11Z</time>
      </trkpt>
      <trkpt lat="45.04186" lon="3.88284">
        <ele>631.1</ele>
        <time>2026-04-26T13:43:16Z</time>
      </trkpt>
      <trkpt lat="45.04186" lon="3.88284">
        <ele>631.1</ele>
        <time>2026-04-26T13:43:21Z</time>
      </trkpt>
      <trkpt lat="45.04186" lon="3.88284">
        <ele>631.1</ele>
        <time>2026-04-26T13:43:26Z</time>
      </trkpt>
      <trkpt lat="45.04186" lon="3.88284">
        <ele>631.1</ele>
        <time>2026-04-26T13:43:31Z</time>
      </trkpt>
      <trkpt lat="45.04186" lon="3.88284">
        <ele>631.1</ele>
        <time>2026-04-26T13:43:36Z</time>
      </trkpt>
      <trkpt lat="45.04186" lon="3.88284">
        <ele>631.1</ele>
        <time>2026-04-26T13:43:41Z</time>
      </trkpt>
      <trkpt lat="45.04186" lon="3.88284">
        <ele>631.1</ele>
        <time>2026-04-26T13:43:46Z</time>
      </trkpt>
      <trkpt lat="45.04186" lon="3.88284">
        <ele>631.1</ele>
        <time>2026-04-26T13:43:51Z</time>
      </trkpt>
      <trkpt lat="45.04186" lon="3.88284">
        <ele>631.1</ele>
        <time>2026-04-26T13:43:56Z</time>
      </trkpt>
      <trkpt lat="45.04186" lon="3.88284">
        <ele>631.1</ele>
        <time>2026-04-26T13:44:01Z</time>
      </trkpt>
      <trkpt lat="45.04186" lon="3.88284">
        <ele>631.1</ele>
        <time>2026-04-26T13:44:06Z</time>
      </trkpt>
      <trkpt lat="45.04186" lon="3.88284">
        <ele>631.1</ele>
        <time>2026-04-26T13:44:11Z</time>
      </trkpt>
      <trkpt lat="45.04186" lon="3.88284">
        <ele>631.1</ele>
        <time>2026-04-26T13:44:16Z</time>
      </trkpt>
      <trkpt lat="45.04186" lon="3.88284">
        <ele>631.1</ele>
        <time>2026-04-26T13:44:21Z</time>
      </trkpt>
      <trkpt lat="45.04186" lon="3.88284">
        <ele>631.1</ele>
        <time>2026-04-26T13:44:26Z</time>
      </trkpt>
      <trkpt lat="45.04186" lon="3.88284">
        <ele>631.1</ele>
        <time>2026-04-26T13:44:31Z</time>
      </trkpt>
      <trkpt lat="45.04186" lon="3.88284">
        <ele>631.1</ele>
        <time>2026-04-26T13:44:36Z</time>
      </trkpt>
      <trkpt lat="45.04186" lon="3.88284">
        <ele>631.1</ele>
        <time>2026-04-26T13:44:41Z</time>
      </trkpt>
      <trkpt lat="45.04188" lon="3.88298">
        <ele>630.4</ele>
        <time>2026-04-26T13:44:46Z</time>
      </trkpt>
      <trkpt lat="45.04189" lon="3.88307">
        <ele>630</ele>
        <time>2026-04-26T13:44:51Z</time>
      </trkpt>
      <trkpt lat="45.04189" lon="3.88316">
        <ele>629.6</ele>
        <time>2026-04-26T13:44:56Z</time>
      </trkpt>
      <trkpt lat="45.04189" lon="3.88326">
        <ele>629.1</ele>
        <time>2026-04-26T13:45:01Z</time>
      </trkpt>
      <trkpt lat="45.04189" lon="3.88335">
        <ele>628.7</ele>
        <time>2026-04-26T13:45:06Z</time>
      </trkpt>
      <trkpt lat="45.04189" lon="3.88346">
        <ele>628.5</ele>
        <time>2026-04-26T13:45:11Z</time>
      </trkpt>
      <trkpt lat="45.04188" lon="3.88354">
        <ele>628.4</ele>
        <time>2026-04-26T13:45:16Z</time>
      </trkpt>
      <trkpt lat="45.04188" lon="3.88363">
        <ele>628.2</ele>
        <time>2026-04-26T13:45:21Z</time>
      </trkpt>
      <trkpt lat="45.04188" lon="3.88367">
        <ele>628.1</ele>
        <time>2026-04-26T13:45:26Z</time>
      </trkpt>
      <trkpt lat="45.04183" lon="3.88371">
        <ele>628.1</ele>
        <time>2026-04-26T13:45:31Z</time>
      </trkpt>
      <trkpt lat="45.04182" lon="3.88376">
        <ele>628</ele>
        <time>2026-04-26T13:45:36Z</time>
      </trkpt>
      <trkpt lat="45.04184" lon="3.88383">
        <ele>627.8</ele>
        <time>2026-04-26T13:45:41Z</time>
      </trkpt>
      <trkpt lat="45.04184" lon="3.88394">
        <ele>627.6</ele>
        <time>2026-04-26T13:45:46Z</time>
      </trkpt>
      <trkpt lat="45.04184" lon="3.88402">
        <ele>627.5</ele>
        <time>2026-04-26T13:45:51Z</time>
      </trkpt>
      <trkpt lat="45.04184" lon="3.88409">
        <ele>627.4</ele>
        <time>2026-04-26T13:45:56Z</time>
      </trkpt>
      <trkpt lat="45.04188" lon="3.88413">
        <ele>627.3</ele>
        <time>2026-04-26T13:46:01Z</time>
      </trkpt>
      <trkpt lat="45.04191" lon="3.88422">
        <ele>627.2</ele>
        <time>2026-04-26T13:46:06Z</time>
      </trkpt>
      <trkpt lat="45.04191" lon="3.88432">
        <ele>626.9</ele>
        <time>2026-04-26T13:46:11Z</time>
      </trkpt>
      <trkpt lat="45.04191" lon="3.88444">
        <ele>626.6</ele>
        <time>2026-04-26T13:46:16Z</time>
      </trkpt>
      <trkpt lat="45.04191" lon="3.88453">
        <ele>626.4</ele>
        <time>2026-04-26T13:46:21Z</time>
      </trkpt>
      <trkpt lat="45.04193" lon="3.8846">
        <ele>626.3</ele>
        <time>2026-04-26T13:46:26Z</time>
      </trkpt>
      <trkpt lat="45.04194" lon="3.88471">
        <ele>626</ele>
        <time>2026-04-26T13:46:31Z</time>
      </trkpt>
      <trkpt lat="45.04194" lon="3.88481">
        <ele>625.8</ele>
        <time>2026-04-26T13:46:36Z</time>
      </trkpt>
      <trkpt lat="45.04194" lon="3.8849">
        <ele>625.6</ele>
        <time>2026-04-26T13:46:41Z</time>
      </trkpt>
      <trkpt lat="45.04194" lon="3.88499">
        <ele>625.4</ele>
        <time>2026-04-26T13:46:46Z</time>
      </trkpt>
      <trkpt lat="45.04197" lon="3.88508">
        <ele>625.3</ele>
        <time>2026-04-26T13:46:51Z</time>
      </trkpt>
      <trkpt lat="45.04195" lon="3.8852">
        <ele>625.3</ele>
        <time>2026-04-26T13:46:56Z</time>
      </trkpt>
      <trkpt lat="45.04191" lon="3.88523">
        <ele>625.2</ele>
        <time>2026-04-26T13:47:01Z</time>
      </trkpt>
      <trkpt lat="45.04191" lon="3.88525">
        <ele>625.2</ele>
        <time>2026-04-26T13:47:06Z</time>
      </trkpt>
      <trkpt lat="45.04196" lon="3.88528">
        <ele>625.2</ele>
        <time>2026-04-26T13:47:11Z</time>
      </trkpt>
      <trkpt lat="45.04206" lon="3.8853">
        <ele>625.3</ele>
        <time>2026-04-26T13:47:16Z</time>
      </trkpt>
      <trkpt lat="45.04215" lon="3.88534">
        <ele>625.3</ele>
        <time>2026-04-26T13:47:21Z</time>
      </trkpt>
      <trkpt lat="45.04216" lon="3.88538">
        <ele>625.3</ele>
        <time>2026-04-26T13:47:26Z</time>
      </trkpt>
      <trkpt lat="45.04217" lon="3.88547">
        <ele>625.3</ele>
        <time>2026-04-26T13:47:31Z</time>
      </trkpt>
      <trkpt lat="45.04217" lon="3.88552">
        <ele>625.2</ele>
        <time>2026-04-26T13:47:36Z</time>
      </trkpt>
      <trkpt lat="45.04216" lon="3.88555">
        <ele>625.2</ele>
        <time>2026-04-26T13:47:41Z</time>
      </trkpt>
      <trkpt lat="45.04213" lon="3.88558">
        <ele>625.2</ele>
        <time>2026-04-26T13:47:46Z</time>
      </trkpt>
      <trkpt lat="45.04212" lon="3.8856">
        <ele>625.2</ele>
        <time>2026-04-26T13:47:51Z</time>
      </trkpt>
      <trkpt lat="45.04212" lon="3.8856">
        <ele>625.2</ele>
        <time>2026-04-26T13:47:56Z</time>
      </trkpt>
      <trkpt lat="45.04212" lon="3.8856">
        <ele>625.2</ele>
        <time>2026-04-26T13:48:01Z</time>
      </trkpt>
      <trkpt lat="45.04212" lon="3.8856">
        <ele>625.2</ele>
        <time>2026-04-26T13:48:06Z</time>
      </trkpt>
      <trkpt lat="45.04212" lon="3.8856">
        <ele>625.2</ele>
        <time>2026-04-26T13:48:11Z</time>
      </trkpt>
      <trkpt lat="45.04212" lon="3.8856">
        <ele>625.2</ele>
        <time>2026-04-26T13:48:16Z</time>
      </trkpt>
      <trkpt lat="45.04212" lon="3.8856">
        <ele>625.2</ele>
        <time>2026-04-26T13:48:21Z</time>
      </trkpt>
      <trkpt lat="45.04211" lon="3.88567">
        <ele>625.1</ele>
        <time>2026-04-26T13:48:26Z</time>
      </trkpt>
      <trkpt lat="45.04211" lon="3.88576">
        <ele>625</ele>
        <time>2026-04-26T13:48:31Z</time>
      </trkpt>
      <trkpt lat="45.04212" lon="3.88586">
        <ele>625.1</ele>
        <time>2026-04-26T13:48:36Z</time>
      </trkpt>
      <trkpt lat="45.04213" lon="3.88594">
        <ele>625.3</ele>
        <time>2026-04-26T13:48:41Z</time>
      </trkpt>
      <trkpt lat="45.04213" lon="3.88594">
        <ele>625.3</ele>
        <time>2026-04-26T13:48:41Z</time>
      </trkpt>
      <trkpt lat="45.04226" lon="3.88593">
        <ele>625.3</ele>
        <time>2026-04-26T14:11:19Z</time>
      </trkpt>
      <trkpt lat="45.04203" lon="3.88608">
        <ele>625.8</ele>
        <time>2026-04-26T14:11:25Z</time>
      </trkpt>
      <trkpt lat="45.04205" lon="3.88597">
        <ele>625.4</ele>
        <time>2026-04-26T14:11:30Z</time>
      </trkpt>
      <trkpt lat="45.04206" lon="3.8859">
        <ele>625.2</ele>
        <time>2026-04-26T14:11:35Z</time>
      </trkpt>
      <trkpt lat="45.04206" lon="3.88582">
        <ele>625</ele>
        <time>2026-04-26T14:11:40Z</time>
      </trkpt>
      <trkpt lat="45.04205" lon="3.88577">
        <ele>625</ele>
        <time>2026-04-26T14:11:45Z</time>
      </trkpt>
      <trkpt lat="45.04205" lon="3.88569">
        <ele>625.1</ele>
        <time>2026-04-26T14:11:50Z</time>
      </trkpt>
      <trkpt lat="45.04204" lon="3.88562">
        <ele>625.1</ele>
        <time>2026-04-26T14:11:55Z</time>
      </trkpt>
      <trkpt lat="45.04204" lon="3.88553">
        <ele>625.2</ele>
        <time>2026-04-26T14:12:00Z</time>
      </trkpt>
      <trkpt lat="45.04206" lon="3.88548">
        <ele>625.2</ele>
        <time>2026-04-26T14:12:05Z</time>
      </trkpt>
      <trkpt lat="45.04209" lon="3.88544">
        <ele>625.2</ele>
        <time>2026-04-26T14:12:10Z</time>
      </trkpt>
      <trkpt lat="45.04209" lon="3.88535">
        <ele>625.3</ele>
        <time>2026-04-26T14:12:15Z</time>
      </trkpt>
      <trkpt lat="45.04212" lon="3.88529">
        <ele>625.4</ele>
        <time>2026-04-26T14:12:20Z</time>
      </trkpt>
      <trkpt lat="45.04214" lon="3.88522">
        <ele>625.4</ele>
        <time>2026-04-26T14:12:25Z</time>
      </trkpt>
      <trkpt lat="45.04216" lon="3.88512">
        <ele>625.5</ele>
        <time>2026-04-26T14:12:30Z</time>
      </trkpt>
      <trkpt lat="45.04219" lon="3.88505">
        <ele>625.6</ele>
        <time>2026-04-26T14:12:35Z</time>
      </trkpt>
      <trkpt lat="45.0422" lon="3.88497">
        <ele>625.7</ele>
        <time>2026-04-26T14:12:40Z</time>
      </trkpt>
      <trkpt lat="45.04221" lon="3.88488">
        <ele>625.9</ele>
        <time>2026-04-26T14:12:45Z</time>
      </trkpt>
      <trkpt lat="45.0422" lon="3.88478">
        <ele>626.2</ele>
        <time>2026-04-26T14:12:50Z</time>
      </trkpt>
      <trkpt lat="45.04218" lon="3.88471">
        <ele>626.3</ele>
        <time>2026-04-26T14:12:55Z</time>
      </trkpt>
      <trkpt lat="45.04215" lon="3.8846">
        <ele>626.5</ele>
        <time>2026-04-26T14:13:00Z</time>
      </trkpt>
      <trkpt lat="45.04213" lon="3.88451">
        <ele>626.7</ele>
        <time>2026-04-26T14:13:05Z</time>
      </trkpt>
      <trkpt lat="45.04213" lon="3.8844">
        <ele>627</ele>
        <time>2026-04-26T14:13:10Z</time>
      </trkpt>
      <trkpt lat="45.04213" lon="3.88427">
        <ele>627.3</ele>
        <time>2026-04-26T14:13:15Z</time>
      </trkpt>
      <trkpt lat="45.04214" lon="3.88417">
        <ele>627.6</ele>
        <time>2026-04-26T14:13:20Z</time>
      </trkpt>
      <trkpt lat="45.04214" lon="3.88409">
        <ele>627.6</ele>
        <time>2026-04-26T14:13:25Z</time>
      </trkpt>
      <trkpt lat="45.04214" lon="3.88401">
        <ele>627.7</ele>
        <time>2026-04-26T14:13:30Z</time>
      </trkpt>
      <trkpt lat="45.04215" lon="3.88392">
        <ele>627.8</ele>
        <time>2026-04-26T14:13:35Z</time>
      </trkpt>
      <trkpt lat="45.04213" lon="3.88388">
        <ele>627.9</ele>
        <time>2026-04-26T14:13:40Z</time>
      </trkpt>
      <trkpt lat="45.04211" lon="3.88387">
        <ele>627.9</ele>
        <time>2026-04-26T14:13:45Z</time>
      </trkpt>
      <trkpt lat="45.04211" lon="3.88387">
        <ele>627.9</ele>
        <time>2026-04-26T14:13:50Z</time>
      </trkpt>
      <trkpt lat="45.04206" lon="3.88384">
        <ele>627.9</ele>
        <time>2026-04-26T14:13:55Z</time>
      </trkpt>
      <trkpt lat="45.04208" lon="3.88378">
        <ele>628</ele>
        <time>2026-04-26T14:14:00Z</time>
      </trkpt>
      <trkpt lat="45.04213" lon="3.88372">
        <ele>628</ele>
        <time>2026-04-26T14:14:05Z</time>
      </trkpt>
      <trkpt lat="45.04217" lon="3.88364">
        <ele>628.1</ele>
        <time>2026-04-26T14:14:10Z</time>
      </trkpt>
      <trkpt lat="45.0422" lon="3.88354">
        <ele>628.2</ele>
        <time>2026-04-26T14:14:15Z</time>
      </trkpt>
      <trkpt lat="45.04223" lon="3.88344">
        <ele>628.2</ele>
        <time>2026-04-26T14:14:20Z</time>
      </trkpt>
      <trkpt lat="45.04223" lon="3.88332">
        <ele>628.4</ele>
        <time>2026-04-26T14:14:25Z</time>
      </trkpt>
      <trkpt lat="45.04224" lon="3.88321">
        <ele>628.9</ele>
        <time>2026-04-26T14:14:30Z</time>
      </trkpt>
      <trkpt lat="45.04222" lon="3.88313">
        <ele>629.3</ele>
        <time>2026-04-26T14:14:35Z</time>
      </trkpt>
      <trkpt lat="45.04223" lon="3.88303">
        <ele>629.8</ele>
        <time>2026-04-26T14:14:40Z</time>
      </trkpt>
      <trkpt lat="45.04223" lon="3.88293">
        <ele>630.3</ele>
        <time>2026-04-26T14:14:45Z</time>
      </trkpt>
      <trkpt lat="45.04224" lon="3.88285">
        <ele>630.6</ele>
        <time>2026-04-26T14:14:50Z</time>
      </trkpt>
      <trkpt lat="45.04224" lon="3.88275">
        <ele>631.1</ele>
        <time>2026-04-26T14:14:55Z</time>
      </trkpt>
      <trkpt lat="45.04225" lon="3.88265">
        <ele>631.6</ele>
        <time>2026-04-26T14:15:00Z</time>
      </trkpt>
      <trkpt lat="45.04225" lon="3.88265">
        <ele>631.6</ele>
        <time>2026-04-26T14:15:00Z</time>
      </trkpt>
      <trkpt lat="45.04222" lon="3.88268">
        <ele>631.5</ele>
        <time>2026-04-26T14:21:58Z</time>
      </trkpt>
      <trkpt lat="45.04218" lon="3.88246">
        <ele>632.6</ele>
        <time>2026-04-26T14:22:03Z</time>
      </trkpt>
      <trkpt lat="45.04202" lon="3.88236">
        <ele>633.3</ele>
        <time>2026-04-26T14:22:08Z</time>
      </trkpt>
      <trkpt lat="45.04203" lon="3.88228">
        <ele>633.7</ele>
        <time>2026-04-26T14:22:13Z</time>
      </trkpt>
      <trkpt lat="45.04204" lon="3.88223">
        <ele>634</ele>
        <time>2026-04-26T14:22:18Z</time>
      </trkpt>
      <trkpt lat="45.04205" lon="3.88222">
        <ele>634</ele>
        <time>2026-04-26T14:22:23Z</time>
      </trkpt>
      <trkpt lat="45.04208" lon="3.88218">
        <ele>634.2</ele>
        <time>2026-04-26T14:22:28Z</time>
      </trkpt>
      <trkpt lat="45.04209" lon="3.88211">
        <ele>634.6</ele>
        <time>2026-04-26T14:22:33Z</time>
      </trkpt>
      <trkpt lat="45.04211" lon="3.88203">
        <ele>635</ele>
        <time>2026-04-26T14:22:38Z</time>
      </trkpt>
      <trkpt lat="45.04212" lon="3.88193">
        <ele>635.6</ele>
        <time>2026-04-26T14:22:43Z</time>
      </trkpt>
      <trkpt lat="45.04214" lon="3.88182">
        <ele>636.2</ele>
        <time>2026-04-26T14:22:48Z</time>
      </trkpt>
      <trkpt lat="45.04215" lon="3.88173">
        <ele>636.7</ele>
        <time>2026-04-26T14:22:53Z</time>
      </trkpt>
      <trkpt lat="45.04217" lon="3.88163">
        <ele>637.1</ele>
        <time>2026-04-26T14:22:58Z</time>
      </trkpt>
      <trkpt lat="45.04219" lon="3.88155">
        <ele>637.4</ele>
        <time>2026-04-26T14:23:03Z</time>
      </trkpt>
      <trkpt lat="45.04222" lon="3.88148">
        <ele>637.6</ele>
        <time>2026-04-26T14:23:08Z</time>
      </trkpt>
      <trkpt lat="45.04226" lon="3.88138">
        <ele>637.9</ele>
        <time>2026-04-26T14:23:13Z</time>
      </trkpt>
      <trkpt lat="45.04229" lon="3.88129">
        <ele>638.2</ele>
        <time>2026-04-26T14:23:18Z</time>
      </trkpt>
      <trkpt lat="45.04233" lon="3.88121">
        <ele>638.5</ele>
        <time>2026-04-26T14:23:23Z</time>
      </trkpt>
      <trkpt lat="45.04237" lon="3.88113">
        <ele>638.8</ele>
        <time>2026-04-26T14:23:28Z</time>
      </trkpt>
      <trkpt lat="45.04241" lon="3.88106">
        <ele>639.1</ele>
        <time>2026-04-26T14:23:33Z</time>
      </trkpt>
      <trkpt lat="45.04246" lon="3.88097">
        <ele>639.5</ele>
        <time>2026-04-26T14:23:38Z</time>
      </trkpt>
      <trkpt lat="45.04249" lon="3.88093">
        <ele>639.6</ele>
        <time>2026-04-26T14:23:43Z</time>
      </trkpt>
      <trkpt lat="45.04249" lon="3.88091">
        <ele>639.7</ele>
        <time>2026-04-26T14:23:48Z</time>
      </trkpt>
      <trkpt lat="45.04249" lon="3.88088">
        <ele>639.8</ele>
        <time>2026-04-26T14:23:53Z</time>
      </trkpt>
      <trkpt lat="45.04253" lon="3.88082">
        <ele>640.2</ele>
        <time>2026-04-26T14:23:58Z</time>
      </trkpt>
      <trkpt lat="45.04256" lon="3.88078">
        <ele>640.4</ele>
        <time>2026-04-26T14:24:03Z</time>
      </trkpt>
      <trkpt lat="45.04259" lon="3.88074">
        <ele>640.7</ele>
        <time>2026-04-26T14:24:08Z</time>
      </trkpt>
      <trkpt lat="45.04261" lon="3.88073">
        <ele>640.8</ele>
        <time>2026-04-26T14:24:13Z</time>
      </trkpt>
      <trkpt lat="45.04266" lon="3.88066">
        <ele>641.2</ele>
        <time>2026-04-26T14:24:18Z</time>
      </trkpt>
      <trkpt lat="45.0427" lon="3.88062">
        <ele>641.5</ele>
        <time>2026-04-26T14:24:23Z</time>
      </trkpt>
      <trkpt lat="45.04276" lon="3.88055">
        <ele>642.1</ele>
        <time>2026-04-26T14:24:28Z</time>
      </trkpt>
      <trkpt lat="45.04281" lon="3.8805">
        <ele>642.5</ele>
        <time>2026-04-26T14:24:33Z</time>
      </trkpt>
      <trkpt lat="45.04287" lon="3.88045">
        <ele>642.9</ele>
        <time>2026-04-26T14:24:38Z</time>
      </trkpt>
      <trkpt lat="45.0429" lon="3.88043">
        <ele>643.1</ele>
        <time>2026-04-26T14:24:43Z</time>
      </trkpt>
      <trkpt lat="45.04289" lon="3.88039">
        <ele>643.2</ele>
        <time>2026-04-26T14:24:48Z</time>
      </trkpt>
      <trkpt lat="45.04287" lon="3.88028">
        <ele>643.6</ele>
        <time>2026-04-26T14:24:53Z</time>
      </trkpt>
      <trkpt lat="45.04288" lon="3.88018">
        <ele>644.1</ele>
        <time>2026-04-26T14:24:58Z</time>
      </trkpt>
      <trkpt lat="45.04287" lon="3.88006">
        <ele>644.5</ele>
        <time>2026-04-26T14:25:03Z</time>
      </trkpt>
      <trkpt lat="45.04286" lon="3.87997">
        <ele>644.9</ele>
        <time>2026-04-26T14:25:08Z</time>
      </trkpt>
      <trkpt lat="45.04285" lon="3.8799">
        <ele>645.3</ele>
        <time>2026-04-26T14:25:13Z</time>
      </trkpt>
      <trkpt lat="45.04283" lon="3.87982">
        <ele>645.7</ele>
        <time>2026-04-26T14:25:18Z</time>
      </trkpt>
      <trkpt lat="45.04282" lon="3.87973">
        <ele>646.2</ele>
        <time>2026-04-26T14:25:23Z</time>
      </trkpt>
      <trkpt lat="45.0428" lon="3.87965">
        <ele>646.7</ele>
        <time>2026-04-26T14:25:28Z</time>
      </trkpt>
      <trkpt lat="45.04278" lon="3.87955">
        <ele>647.2</ele>
        <time>2026-04-26T14:25:33Z</time>
      </trkpt>
      <trkpt lat="45.04275" lon="3.87943">
        <ele>647.9</ele>
        <time>2026-04-26T14:25:38Z</time>
      </trkpt>
      <trkpt lat="45.04274" lon="3.87935">
        <ele>648.4</ele>
        <time>2026-04-26T14:25:43Z</time>
      </trkpt>
      <trkpt lat="45.04272" lon="3.87927">
        <ele>648.8</ele>
        <time>2026-04-26T14:25:48Z</time>
      </trkpt>
      <trkpt lat="45.04269" lon="3.87914">
        <ele>649.6</ele>
        <time>2026-04-26T14:25:53Z</time>
      </trkpt>
      <trkpt lat="45.04268" lon="3.87912">
        <ele>649.7</ele>
        <time>2026-04-26T14:25:58Z</time>
      </trkpt>
      <trkpt lat="45.04265" lon="3.87911">
        <ele>649.7</ele>
        <time>2026-04-26T14:26:03Z</time>
      </trkpt>
      <trkpt lat="45.04265" lon="3.87911">
        <ele>649.7</ele>
        <time>2026-04-26T14:26:08Z</time>
      </trkpt>
      <trkpt lat="45.04265" lon="3.87911">
        <ele>649.7</ele>
        <time>2026-04-26T14:26:13Z</time>
      </trkpt>
      <trkpt lat="45.04265" lon="3.87911">
        <ele>649.7</ele>
        <time>2026-04-26T14:26:18Z</time>
      </trkpt>
      <trkpt lat="45.04265" lon="3.87901">
        <ele>650.3</ele>
        <time>2026-04-26T14:26:23Z</time>
      </trkpt>
      <trkpt lat="45.04261" lon="3.87896">
        <ele>650.5</ele>
        <time>2026-04-26T14:26:28Z</time>
      </trkpt>
      <trkpt lat="45.0426" lon="3.87888">
        <ele>651</ele>
        <time>2026-04-26T14:26:33Z</time>
      </trkpt>
      <trkpt lat="45.04259" lon="3.87878">
        <ele>651.6</ele>
        <time>2026-04-26T14:26:38Z</time>
      </trkpt>
      <trkpt lat="45.04259" lon="3.87878">
        <ele>651.6</ele>
        <time>2026-04-26T14:26:44Z</time>
      </trkpt>
      <trkpt lat="45.04259" lon="3.87879">
        <ele>651.5</ele>
        <time>2026-04-26T14:26:49Z</time>
      </trkpt>
      <trkpt lat="45.04252" lon="3.87879">
        <ele>651.3</ele>
        <time>2026-04-28T05:15:18Z</time>
      </trkpt>
      <trkpt lat="45.04254" lon="3.87882">
        <ele>651.2</ele>
        <time>2026-04-28T05:15:23Z</time>
      </trkpt>
      <trkpt lat="45.04263" lon="3.87879">
        <ele>651.6</ele>
        <time>2026-04-28T05:15:28Z</time>
      </trkpt>
      <trkpt lat="45.04268" lon="3.87889">
        <ele>651.2</ele>
        <time>2026-04-28T05:15:33Z</time>
      </trkpt>
      <trkpt lat="45.04271" lon="3.879">
        <ele>650.6</ele>
        <time>2026-04-28T05:15:38Z</time>
      </trkpt>
      <trkpt lat="45.04273" lon="3.87908">
        <ele>650.1</ele>
        <time>2026-04-28T05:15:43Z</time>
      </trkpt>
      <trkpt lat="45.04274" lon="3.87916">
        <ele>649.6</ele>
        <time>2026-04-28T05:15:48Z</time>
      </trkpt>
      <trkpt lat="45.04277" lon="3.87925">
        <ele>649.1</ele>
        <time>2026-04-28T05:15:53Z</time>
      </trkpt>
      <trkpt lat="45.04278" lon="3.87932">
        <ele>648.7</ele>
        <time>2026-04-28T05:15:58Z</time>
      </trkpt>
      <trkpt lat="45.0428" lon="3.87941">
        <ele>648.2</ele>
        <time>2026-04-28T05:16:03Z</time>
      </trkpt>
      <trkpt lat="45.04282" lon="3.87948">
        <ele>647.8</ele>
        <time>2026-04-28T05:16:08Z</time>
      </trkpt>
      <trkpt lat="45.04284" lon="3.87957">
        <ele>647.3</ele>
        <time>2026-04-28T05:16:13Z</time>
      </trkpt>
      <trkpt lat="45.04286" lon="3.87966">
        <ele>646.8</ele>
        <time>2026-04-28T05:16:18Z</time>
      </trkpt>
      <trkpt lat="45.04287" lon="3.87976">
        <ele>646.2</ele>
        <time>2026-04-28T05:16:23Z</time>
      </trkpt>
      <trkpt lat="45.04289" lon="3.87986">
        <ele>645.7</ele>
        <time>2026-04-28T05:16:28Z</time>
      </trkpt>
      <trkpt lat="45.0429" lon="3.87995">
        <ele>645.2</ele>
        <time>2026-04-28T05:16:33Z</time>
      </trkpt>
      <trkpt lat="45.04292" lon="3.88004">
        <ele>644.8</ele>
        <time>2026-04-28T05:16:38Z</time>
      </trkpt>
      <trkpt lat="45.04294" lon="3.88015">
        <ele>644.5</ele>
        <time>2026-04-28T05:16:43Z</time>
      </trkpt>
      <trkpt lat="45.04294" lon="3.8803">
        <ele>643.8</ele>
        <time>2026-04-28T05:16:48Z</time>
      </trkpt>
      <trkpt lat="45.04292" lon="3.88036">
        <ele>643.5</ele>
        <time>2026-04-28T05:16:53Z</time>
      </trkpt>
      <trkpt lat="45.04289" lon="3.88042">
        <ele>643.1</ele>
        <time>2026-04-28T05:16:58Z</time>
      </trkpt>
      <trkpt lat="45.04282" lon="3.88047">
        <ele>642.6</ele>
        <time>2026-04-28T05:17:03Z</time>
      </trkpt>
      <trkpt lat="45.04276" lon="3.88052">
        <ele>642.2</ele>
        <time>2026-04-28T05:17:08Z</time>
      </trkpt>
      <trkpt lat="45.0427" lon="3.88058">
        <ele>641.7</ele>
        <time>2026-04-28T05:17:13Z</time>
      </trkpt>
      <trkpt lat="45.04264" lon="3.88064">
        <ele>641.2</ele>
        <time>2026-04-28T05:17:18Z</time>
      </trkpt>
      <trkpt lat="45.0426" lon="3.88068">
        <ele>640.9</ele>
        <time>2026-04-28T05:17:23Z</time>
      </trkpt>
      <trkpt lat="45.04254" lon="3.88075">
        <ele>640.4</ele>
        <time>2026-04-28T05:17:28Z</time>
      </trkpt>
      <trkpt lat="45.04249" lon="3.88082">
        <ele>640</ele>
        <time>2026-04-28T05:17:33Z</time>
      </trkpt>
      <trkpt lat="45.04244" lon="3.88089">
        <ele>639.7</ele>
        <time>2026-04-28T05:17:38Z</time>
      </trkpt>
      <trkpt lat="45.04244" lon="3.88089">
        <ele>639.7</ele>
        <time>2026-04-28T05:17:43Z</time>
      </trkpt>
      <trkpt lat="45.04243" lon="3.8809">
        <ele>639.7</ele>
        <time>2026-04-28T05:17:48Z</time>
      </trkpt>
      <trkpt lat="45.04241" lon="3.88094">
        <ele>639.5</ele>
        <time>2026-04-28T05:17:53Z</time>
      </trkpt>
      <trkpt lat="45.04237" lon="3.881">
        <ele>639.3</ele>
        <time>2026-04-28T05:17:58Z</time>
      </trkpt>
      <trkpt lat="45.04233" lon="3.88108">
        <ele>639</ele>
        <time>2026-04-28T05:18:03Z</time>
      </trkpt>
      <trkpt lat="45.04226" lon="3.88121">
        <ele>638.5</ele>
        <time>2026-04-28T05:18:08Z</time>
      </trkpt>
      <trkpt lat="45.04222" lon="3.8813">
        <ele>638.2</ele>
        <time>2026-04-28T05:18:13Z</time>
      </trkpt>
      <trkpt lat="45.04218" lon="3.88139">
        <ele>637.9</ele>
        <time>2026-04-28T05:18:18Z</time>
      </trkpt>
      <trkpt lat="45.04214" lon="3.88152">
        <ele>637.5</ele>
        <time>2026-04-28T05:18:23Z</time>
      </trkpt>
      <trkpt lat="45.04211" lon="3.88162">
        <ele>637.1</ele>
        <time>2026-04-28T05:18:28Z</time>
      </trkpt>
      <trkpt lat="45.04209" lon="3.88173">
        <ele>636.7</ele>
        <time>2026-04-28T05:18:33Z</time>
      </trkpt>
      <trkpt lat="45.04207" lon="3.88183">
        <ele>636.1</ele>
        <time>2026-04-28T05:18:38Z</time>
      </trkpt>
      <trkpt lat="45.04205" lon="3.88198">
        <ele>635.3</ele>
        <time>2026-04-28T05:18:43Z</time>
      </trkpt>
      <trkpt lat="45.04203" lon="3.88207">
        <ele>634.9</ele>
        <time>2026-04-28T05:18:48Z</time>
      </trkpt>
      <trkpt lat="45.04203" lon="3.88213">
        <ele>634.5</ele>
        <time>2026-04-28T05:18:53Z</time>
      </trkpt>
      <trkpt lat="45.04201" lon="3.88226">
        <ele>633.9</ele>
        <time>2026-04-28T05:18:58Z</time>
      </trkpt>
      <trkpt lat="45.04202" lon="3.88233">
        <ele>633.5</ele>
        <time>2026-04-28T05:19:03Z</time>
      </trkpt>
      <trkpt lat="45.04207" lon="3.88241">
        <ele>633</ele>
        <time>2026-04-28T05:19:08Z</time>
      </trkpt>
      <trkpt lat="45.0421" lon="3.88252">
        <ele>632.4</ele>
        <time>2026-04-28T05:19:13Z</time>
      </trkpt>
      <trkpt lat="45.0421" lon="3.88261">
        <ele>632</ele>
        <time>2026-04-28T05:19:18Z</time>
      </trkpt>
      <trkpt lat="45.04208" lon="3.88272">
        <ele>631.4</ele>
        <time>2026-04-28T05:19:23Z</time>
      </trkpt>
      <trkpt lat="45.04208" lon="3.88283">
        <ele>630.9</ele>
        <time>2026-04-28T05:19:28Z</time>
      </trkpt>
      <trkpt lat="45.04208" lon="3.88293">
        <ele>630.4</ele>
        <time>2026-04-28T05:19:33Z</time>
      </trkpt>
      <trkpt lat="45.04207" lon="3.88308">
        <ele>629.7</ele>
        <time>2026-04-28T05:19:38Z</time>
      </trkpt>
      <trkpt lat="45.04207" lon="3.88321">
        <ele>629.1</ele>
        <time>2026-04-28T05:19:43Z</time>
      </trkpt>
      <trkpt lat="45.04207" lon="3.88331">
        <ele>628.6</ele>
        <time>2026-04-28T05:19:48Z</time>
      </trkpt>
      <trkpt lat="45.04207" lon="3.88341">
        <ele>628.4</ele>
        <time>2026-04-28T05:19:53Z</time>
      </trkpt>
      <trkpt lat="45.04207" lon="3.88351">
        <ele>628.3</ele>
        <time>2026-04-28T05:19:58Z</time>
      </trkpt>
      <trkpt lat="45.04207" lon="3.88358">
        <ele>628.2</ele>
        <time>2026-04-28T05:20:03Z</time>
      </trkpt>
      <trkpt lat="45.04207" lon="3.8837">
        <ele>628.1</ele>
        <time>2026-04-28T05:20:08Z</time>
      </trkpt>
      <trkpt lat="45.04206" lon="3.88379">
        <ele>627.9</ele>
        <time>2026-04-28T05:20:13Z</time>
      </trkpt>
      <trkpt lat="45.04206" lon="3.88387">
        <ele>627.8</ele>
        <time>2026-04-28T05:20:18Z</time>
      </trkpt>
      <trkpt lat="45.04206" lon="3.88396">
        <ele>627.7</ele>
        <time>2026-04-28T05:20:23Z</time>
      </trkpt>
      <trkpt lat="45.04206" lon="3.88406">
        <ele>627.6</ele>
        <time>2026-04-28T05:20:28Z</time>
      </trkpt>
      <trkpt lat="45.04206" lon="3.88419">
        <ele>627.4</ele>
        <time>2026-04-28T05:20:33Z</time>
      </trkpt>
      <trkpt lat="45.04206" lon="3.88428">
        <ele>627.2</ele>
        <time>2026-04-28T05:20:38Z</time>
      </trkpt>
      <trkpt lat="45.04206" lon="3.88437">
        <ele>627</ele>
        <time>2026-04-28T05:20:43Z</time>
      </trkpt>
      <trkpt lat="45.04206" lon="3.88447">
        <ele>626.7</ele>
        <time>2026-04-28T05:20:48Z</time>
      </trkpt>
      <trkpt lat="45.04207" lon="3.88454">
        <ele>626.6</ele>
        <time>2026-04-28T05:20:53Z</time>
      </trkpt>
      <trkpt lat="45.04209" lon="3.88461">
        <ele>626.4</ele>
        <time>2026-04-28T05:20:58Z</time>
      </trkpt>
      <trkpt lat="45.04211" lon="3.88472">
        <ele>626.2</ele>
        <time>2026-04-28T05:21:03Z</time>
      </trkpt>
      <trkpt lat="45.04212" lon="3.88481">
        <ele>626</ele>
        <time>2026-04-28T05:21:08Z</time>
      </trkpt>
      <trkpt lat="45.04211" lon="3.8849">
        <ele>625.8</ele>
        <time>2026-04-28T05:21:13Z</time>
      </trkpt>
      <trkpt lat="45.04212" lon="3.885">
        <ele>625.5</ele>
        <time>2026-04-28T05:21:18Z</time>
      </trkpt>
      <trkpt lat="45.04213" lon="3.88504">
        <ele>625.5</ele>
        <time>2026-04-28T05:21:23Z</time>
      </trkpt>
      <trkpt lat="45.04213" lon="3.88508">
        <ele>625.5</ele>
        <time>2026-04-28T05:21:28Z</time>
      </trkpt>
      <trkpt lat="45.04213" lon="3.88509">
        <ele>625.5</ele>
        <time>2026-04-28T05:21:33Z</time>
      </trkpt>
      <trkpt lat="45.04213" lon="3.88509">
        <ele>625.5</ele>
        <time>2026-04-28T05:21:38Z</time>
      </trkpt>
      <trkpt lat="45.04213" lon="3.88509">
        <ele>625.5</ele>
        <time>2026-04-28T05:21:43Z</time>
      </trkpt>
      <trkpt lat="45.04213" lon="3.88509">
        <ele>625.5</ele>
        <time>2026-04-28T05:21:48Z</time>
      </trkpt>
      <trkpt lat="45.04213" lon="3.88509">
        <ele>625.5</ele>
        <time>2026-04-28T05:21:53Z</time>
      </trkpt>
      <trkpt lat="45.04213" lon="3.88509">
        <ele>625.5</ele>
        <time>2026-04-28T05:21:58Z</time>
      </trkpt>
      <trkpt lat="45.04215" lon="3.88503">
        <ele>625.6</ele>
        <time>2026-04-28T05:22:03Z</time>
      </trkpt>
      <trkpt lat="45.04213" lon="3.88493">
        <ele>625.7</ele>
        <time>2026-04-28T05:22:08Z</time>
      </trkpt>
      <trkpt lat="45.04212" lon="3.88486">
        <ele>625.9</ele>
        <time>2026-04-28T05:22:13Z</time>
      </trkpt>
      <trkpt lat="45.04211" lon="3.88482">
        <ele>626</ele>
        <time>2026-04-28T05:22:18Z</time>
      </trkpt>
      <trkpt lat="45.0421" lon="3.88482">
        <ele>626</ele>
        <time>2026-04-28T05:22:23Z</time>
      </trkpt>
      <trkpt lat="45.0421" lon="3.88482">
        <ele>626</ele>
        <time>2026-04-28T05:22:28Z</time>
      </trkpt>
      <trkpt lat="45.0421" lon="3.88482">
        <ele>626</ele>
        <time>2026-04-28T05:22:33Z</time>
      </trkpt>
      <trkpt lat="45.0421" lon="3.88482">
        <ele>626</ele>
        <time>2026-04-28T05:22:38Z</time>
      </trkpt>
      <trkpt lat="45.0421" lon="3.88482">
        <ele>626</ele>
        <time>2026-04-28T05:22:43Z</time>
      </trkpt>
      <trkpt lat="45.0421" lon="3.88482">
        <ele>626</ele>
        <time>2026-04-28T05:22:48Z</time>
      </trkpt>
      <trkpt lat="45.0421" lon="3.88482">
        <ele>626</ele>
        <time>2026-04-28T05:22:53Z</time>
      </trkpt>
      <trkpt lat="45.0421" lon="3.88482">
        <ele>626</ele>
        <time>2026-04-28T05:22:58Z</time>
      </trkpt>
      <trkpt lat="45.04211" lon="3.88485">
        <ele>625.9</ele>
        <time>2026-04-28T05:23:03Z</time>
      </trkpt>
      <trkpt lat="45.04213" lon="3.88494">
        <ele>625.7</ele>
        <time>2026-04-28T05:23:08Z</time>
      </trkpt>
      <trkpt lat="45.04213" lon="3.88503">
        <ele>625.5</ele>
        <time>2026-04-28T05:23:13Z</time>
      </trkpt>
      <trkpt lat="45.04214" lon="3.88516">
        <ele>625.5</ele>
        <time>2026-04-28T05:23:18Z</time>
      </trkpt>
      <trkpt lat="45.04215" lon="3.88527">
        <ele>625.4</ele>
        <time>2026-04-28T05:23:23Z</time>
      </trkpt>
      <trkpt lat="45.04215" lon="3.88537">
        <ele>625.3</ele>
        <time>2026-04-28T05:23:28Z</time>
      </trkpt>
      <trkpt lat="45.04216" lon="3.88546">
        <ele>625.3</ele>
        <time>2026-04-28T05:23:33Z</time>
      </trkpt>
      <trkpt lat="45.04215" lon="3.88558">
        <ele>625.2</ele>
        <time>2026-04-28T05:23:38Z</time>
      </trkpt>
      <trkpt lat="45.04215" lon="3.88567">
        <ele>625.1</ele>
        <time>2026-04-28T05:23:43Z</time>
      </trkpt>
      <trkpt lat="45.04215" lon="3.88567">
        <ele>625.1</ele>
        <time>2026-04-28T05:23:48Z</time>
      </trkpt>
      <trkpt lat="45.04215" lon="3.88567">
        <ele>625.1</ele>
        <time>2026-04-28T05:23:53Z</time>
      </trkpt>
      <trkpt lat="45.04215" lon="3.88567">
        <ele>625.1</ele>
        <time>2026-04-28T05:23:58Z</time>
      </trkpt>
      <trkpt lat="45.04215" lon="3.88567">
        <ele>625.1</ele>
        <time>2026-04-28T05:24:03Z</time>
      </trkpt>
      <trkpt lat="45.04215" lon="3.88567">
        <ele>625.1</ele>
        <time>2026-04-28T05:24:08Z</time>
      </trkpt>
      <trkpt lat="45.04216" lon="3.88578">
        <ele>625</ele>
        <time>2026-04-28T05:24:13Z</time>
      </trkpt>
      <trkpt lat="45.04216" lon="3.8859">
        <ele>625.2</ele>
        <time>2026-04-28T05:24:18Z</time>
      </trkpt>
      <trkpt lat="45.04217" lon="3.886">
        <ele>625.5</ele>
        <time>2026-04-28T05:24:23Z</time>
      </trkpt>
      <trkpt lat="45.04219" lon="3.88534">
        <ele>625.4</ele>
        <time>2026-04-28T05:29:28Z</time>
      </trkpt>
      <trkpt lat="45.0423" lon="3.88593">
        <ele>625.3</ele>
        <time>2026-04-28T05:29:33Z</time>
      </trkpt>
      <trkpt lat="45.04217" lon="3.88604">
        <ele>625.6</ele>
        <time>2026-04-28T05:29:39Z</time>
      </trkpt>
      <trkpt lat="45.04215" lon="3.8861">
        <ele>625.8</ele>
        <time>2026-04-28T05:29:44Z</time>
      </trkpt>
      <trkpt lat="45.04214" lon="3.88622">
        <ele>626.1</ele>
        <time>2026-04-28T05:29:49Z</time>
      </trkpt>
      <trkpt lat="45.04215" lon="3.88629">
        <ele>626.3</ele>
        <time>2026-04-28T05:29:54Z</time>
      </trkpt>
      <trkpt lat="45.04215" lon="3.88638">
        <ele>626.6</ele>
        <time>2026-04-28T05:29:59Z</time>
      </trkpt>
      <trkpt lat="45.04216" lon="3.88646">
        <ele>626.8</ele>
        <time>2026-04-28T05:30:04Z</time>
      </trkpt>
      <trkpt lat="45.04216" lon="3.88654">
        <ele>627</ele>
        <time>2026-04-28T05:30:09Z</time>
      </trkpt>
      <trkpt lat="45.04217" lon="3.88664">
        <ele>627.3</ele>
        <time>2026-04-28T05:30:14Z</time>
      </trkpt>
      <trkpt lat="45.04217" lon="3.88673">
        <ele>627.2</ele>
        <time>2026-04-28T05:30:19Z</time>
      </trkpt>
      <trkpt lat="45.04218" lon="3.88683">
        <ele>627</ele>
        <time>2026-04-28T05:30:24Z</time>
      </trkpt>
      <trkpt lat="45.04219" lon="3.8869">
        <ele>626.8</ele>
        <time>2026-04-28T05:30:29Z</time>
      </trkpt>
      <trkpt lat="45.04213" lon="3.8869">
        <ele>626.9</ele>
        <time>2026-04-28T05:30:34Z</time>
      </trkpt>
      <trkpt lat="45.04208" lon="3.88691">
        <ele>626.9</ele>
        <time>2026-04-28T05:30:39Z</time>
      </trkpt>
      <trkpt lat="45.04206" lon="3.88694">
        <ele>626.9</ele>
        <time>2026-04-28T05:30:44Z</time>
      </trkpt>
      <trkpt lat="45.04201" lon="3.88698">
        <ele>626.8</ele>
        <time>2026-04-28T05:30:49Z</time>
      </trkpt>
      <trkpt lat="45.04196" lon="3.88701">
        <ele>626.8</ele>
        <time>2026-04-28T05:30:54Z</time>
      </trkpt>
      <trkpt lat="45.04196" lon="3.8871">
        <ele>626.6</ele>
        <time>2026-04-28T05:30:59Z</time>
      </trkpt>
      <trkpt lat="45.04193" lon="3.88709">
        <ele>626.7</ele>
        <time>2026-04-28T05:31:04Z</time>
      </trkpt>
      <trkpt lat="45.04192" lon="3.88709">
        <ele>626.7</ele>
        <time>2026-04-28T05:31:09Z</time>
      </trkpt>
      <trkpt lat="45.04188" lon="3.88713">
        <ele>626.6</ele>
        <time>2026-04-28T05:31:14Z</time>
      </trkpt>
      <trkpt lat="45.04179" lon="3.88716">
        <ele>626.7</ele>
        <time>2026-04-28T05:31:19Z</time>
      </trkpt>
      <trkpt lat="45.04173" lon="3.88721">
        <ele>626.6</ele>
        <time>2026-04-28T05:31:24Z</time>
      </trkpt>
      <trkpt lat="45.04168" lon="3.88726">
        <ele>626.6</ele>
        <time>2026-04-28T05:31:29Z</time>
      </trkpt>
      <trkpt lat="45.0416" lon="3.8873">
        <ele>626.5</ele>
        <time>2026-04-28T05:31:34Z</time>
      </trkpt>
      <trkpt lat="45.04153" lon="3.88734">
        <ele>626.4</ele>
        <time>2026-04-28T05:31:39Z</time>
      </trkpt>
      <trkpt lat="45.04151" lon="3.88736">
        <ele>626.3</ele>
        <time>2026-04-28T05:31:44Z</time>
      </trkpt>
      <trkpt lat="45.04141" lon="3.88747">
        <ele>626.1</ele>
        <time>2026-04-28T05:31:49Z</time>
      </trkpt>
      <trkpt lat="45.04136" lon="3.88754">
        <ele>626.2</ele>
        <time>2026-04-28T05:31:54Z</time>
      </trkpt>
      <trkpt lat="45.04131" lon="3.88761">
        <ele>626.5</ele>
        <time>2026-04-28T05:31:59Z</time>
      </trkpt>
      <trkpt lat="45.04126" lon="3.8877">
        <ele>626.9</ele>
        <time>2026-04-28T05:32:04Z</time>
      </trkpt>
      <trkpt lat="45.04122" lon="3.88778">
        <ele>627.4</ele>
        <time>2026-04-28T05:32:09Z</time>
      </trkpt>
      <trkpt lat="45.04121" lon="3.8879">
        <ele>628.1</ele>
        <time>2026-04-28T05:32:14Z</time>
      </trkpt>
      <trkpt lat="45.04121" lon="3.88798">
        <ele>628.5</ele>
        <time>2026-04-28T05:32:19Z</time>
      </trkpt>
      <trkpt lat="45.04119" lon="3.88804">
        <ele>628.9</ele>
        <time>2026-04-28T05:32:24Z</time>
      </trkpt>
      <trkpt lat="45.04116" lon="3.88808">
        <ele>629.2</ele>
        <time>2026-04-28T05:32:29Z</time>
      </trkpt>
      <trkpt lat="45.04116" lon="3.88808">
        <ele>629.2</ele>
        <time>2026-04-28T05:32:34Z</time>
      </trkpt>
      <trkpt lat="45.04117" lon="3.88809">
        <ele>629.2</ele>
        <time>2026-04-28T05:32:39Z</time>
      </trkpt>
      <trkpt lat="45.04121" lon="3.88817">
        <ele>629.4</ele>
        <time>2026-04-28T05:32:44Z</time>
      </trkpt>
      <trkpt lat="45.04127" lon="3.88823">
        <ele>629.4</ele>
        <time>2026-04-28T05:32:49Z</time>
      </trkpt>
      <trkpt lat="45.04134" lon="3.88823">
        <ele>628.9</ele>
        <time>2026-04-28T05:32:54Z</time>
      </trkpt>
      <trkpt lat="45.04141" lon="3.88826">
        <ele>628.6</ele>
        <time>2026-04-28T05:32:59Z</time>
      </trkpt>
      <trkpt lat="45.04147" lon="3.8883">
        <ele>628.3</ele>
        <time>2026-04-28T05:33:04Z</time>
      </trkpt>
      <trkpt lat="45.04153" lon="3.88833">
        <ele>628</ele>
        <time>2026-04-28T05:33:09Z</time>
      </trkpt>
      <trkpt lat="45.04158" lon="3.88836">
        <ele>627.7</ele>
        <time>2026-04-28T05:33:14Z</time>
      </trkpt>
      <trkpt lat="45.04163" lon="3.88842">
        <ele>627.6</ele>
        <time>2026-04-28T05:33:19Z</time>
      </trkpt>
      <trkpt lat="45.04165" lon="3.88848">
        <ele>627.7</ele>
        <time>2026-04-28T05:33:24Z</time>
      </trkpt>
      <trkpt lat="45.04166" lon="3.88852">
        <ele>627.7</ele>
        <time>2026-04-28T05:33:29Z</time>
      </trkpt>
      <trkpt lat="45.04168" lon="3.88853">
        <ele>627.6</ele>
        <time>2026-04-28T05:33:34Z</time>
      </trkpt>
      <trkpt lat="45.04163" lon="3.88845">
        <ele>627.7</ele>
        <time>2026-04-28T05:33:39Z</time>
      </trkpt>
      <trkpt lat="45.04158" lon="3.88839">
        <ele>627.8</ele>
        <time>2026-04-28T05:33:44Z</time>
      </trkpt>
      <trkpt lat="45.04154" lon="3.88836">
        <ele>628</ele>
        <time>2026-04-28T05:33:49Z</time>
      </trkpt>
      <trkpt lat="45.0415" lon="3.88832">
        <ele>628.2</ele>
        <time>2026-04-28T05:33:54Z</time>
      </trkpt>
      <trkpt lat="45.04144" lon="3.88827">
        <ele>628.4</ele>
        <time>2026-04-28T05:33:59Z</time>
      </trkpt>
      <trkpt lat="45.04139" lon="3.88823">
        <ele>628.6</ele>
        <time>2026-04-28T05:34:04Z</time>
      </trkpt>
      <trkpt lat="45.04134" lon="3.88822">
        <ele>628.9</ele>
        <time>2026-04-28T05:34:09Z</time>
      </trkpt>
      <trkpt lat="45.04127" lon="3.88828">
        <ele>629.6</ele>
        <time>2026-04-28T05:34:14Z</time>
      </trkpt>
      <trkpt lat="45.04119" lon="3.88836">
        <ele>630.5</ele>
        <time>2026-04-28T05:34:19Z</time>
      </trkpt>
      <trkpt lat="45.04115" lon="3.88842">
        <ele>631.1</ele>
        <time>2026-04-28T05:34:24Z</time>
      </trkpt>
      <trkpt lat="45.04111" lon="3.88853">
        <ele>631.9</ele>
        <time>2026-04-28T05:34:29Z</time>
      </trkpt>
      <trkpt lat="45.04108" lon="3.88861">
        <ele>632.5</ele>
        <time>2026-04-28T05:34:34Z</time>
      </trkpt>
      <trkpt lat="45.04107" lon="3.88866">
        <ele>632.8</ele>
        <time>2026-04-28T05:34:39Z</time>
      </trkpt>
      <trkpt lat="45.04101" lon="3.8887">
        <ele>633.4</ele>
        <time>2026-04-28T05:34:44Z</time>
      </trkpt>
      <trkpt lat="45.04102" lon="3.88881">
        <ele>633.8</ele>
        <time>2026-04-28T05:34:49Z</time>
      </trkpt>
      <trkpt lat="45.04101" lon="3.8889">
        <ele>634.3</ele>
        <time>2026-04-28T05:34:54Z</time>
      </trkpt>
      <trkpt lat="45.041" lon="3.88898">
        <ele>634.7</ele>
        <time>2026-04-28T05:34:59Z</time>
      </trkpt>
      <trkpt lat="45.04105" lon="3.88908">
        <ele>634.8</ele>
        <time>2026-04-28T05:35:04Z</time>
      </trkpt>
      <trkpt lat="45.04106" lon="3.8892">
        <ele>635.3</ele>
        <time>2026-04-28T05:35:09Z</time>
      </trkpt>
      <trkpt lat="45.04107" lon="3.88928">
        <ele>635.6</ele>
        <time>2026-04-28T05:35:14Z</time>
      </trkpt>
      <trkpt lat="45.04106" lon="3.88935">
        <ele>636</ele>
        <time>2026-04-28T05:35:19Z</time>
      </trkpt>
      <trkpt lat="45.04107" lon="3.88943">
        <ele>636.4</ele>
        <time>2026-04-28T05:35:24Z</time>
      </trkpt>
      <trkpt lat="45.04107" lon="3.88953">
        <ele>636.9</ele>
        <time>2026-04-28T05:35:29Z</time>
      </trkpt>
      <trkpt lat="45.04106" lon="3.88961">
        <ele>637.4</ele>
        <time>2026-04-28T05:35:34Z</time>
      </trkpt>
      <trkpt lat="45.04108" lon="3.88968">
        <ele>637.6</ele>
        <time>2026-04-28T05:35:39Z</time>
      </trkpt>
      <trkpt lat="45.04113" lon="3.88974">
        <ele>637.5</ele>
        <time>2026-04-28T05:35:44Z</time>
      </trkpt>
      <trkpt lat="45.04116" lon="3.88978">
        <ele>637.5</ele>
        <time>2026-04-28T05:35:49Z</time>
      </trkpt>
      <trkpt lat="45.04119" lon="3.88984">
        <ele>637.6</ele>
        <time>2026-04-28T05:35:54Z</time>
      </trkpt>
      <trkpt lat="45.04122" lon="3.88991">
        <ele>637.7</ele>
        <time>2026-04-28T05:35:59Z</time>
      </trkpt>
      <trkpt lat="45.04125" lon="3.89">
        <ele>638</ele>
        <time>2026-04-28T05:36:04Z</time>
      </trkpt>
      <trkpt lat="45.04125" lon="3.89011">
        <ele>639</ele>
        <time>2026-04-28T05:36:09Z</time>
      </trkpt>
      <trkpt lat="45.04126" lon="3.89024">
        <ele>640.1</ele>
        <time>2026-04-28T05:36:14Z</time>
      </trkpt>
      <trkpt lat="45.04127" lon="3.89033">
        <ele>640.8</ele>
        <time>2026-04-28T05:36:19Z</time>
      </trkpt>
      <trkpt lat="45.04124" lon="3.89047">
        <ele>642.3</ele>
        <time>2026-04-28T05:36:24Z</time>
      </trkpt>
      <trkpt lat="45.04124" lon="3.89047">
        <ele>642.3</ele>
        <time>2026-04-28T05:36:29Z</time>
      </trkpt>
      <trkpt lat="45.04124" lon="3.89047">
        <ele>642.3</ele>
        <time>2026-04-28T05:36:34Z</time>
      </trkpt>
      <trkpt lat="45.04124" lon="3.89047">
        <ele>642.3</ele>
        <time>2026-04-28T05:36:39Z</time>
      </trkpt>
      <trkpt lat="45.04129" lon="3.89048">
        <ele>642.1</ele>
        <time>2026-04-28T05:36:44Z</time>
      </trkpt>
      <trkpt lat="45.04129" lon="3.89051">
        <ele>642.3</ele>
        <time>2026-04-28T05:36:49Z</time>
      </trkpt>
      <trkpt lat="45.04129" lon="3.89051">
        <ele>642.3</ele>
        <time>2026-04-28T05:36:54Z</time>
      </trkpt>
      <trkpt lat="45.04129" lon="3.89051">
        <ele>642.3</ele>
        <time>2026-04-28T05:36:59Z</time>
      </trkpt>
      <trkpt lat="45.04133" lon="3.89058">
        <ele>642.7</ele>
        <time>2026-04-28T05:37:04Z</time>
      </trkpt>
      <trkpt lat="45.04134" lon="3.89065">
        <ele>643.3</ele>
        <time>2026-04-28T05:37:09Z</time>
      </trkpt>
      <trkpt lat="45.04133" lon="3.89074">
        <ele>644.2</ele>
        <time>2026-04-28T05:37:14Z</time>
      </trkpt>
      <trkpt lat="45.04133" lon="3.89074">
        <ele>644.2</ele>
        <time>2026-04-28T05:37:19Z</time>
      </trkpt>
      <trkpt lat="45.04133" lon="3.89074">
        <ele>644.2</ele>
        <time>2026-04-28T05:37:24Z</time>
      </trkpt>
      <trkpt lat="45.04133" lon="3.89074">
        <ele>644.2</ele>
        <time>2026-04-28T05:37:29Z</time>
      </trkpt>
      <trkpt lat="45.04133" lon="3.89081">
        <ele>644.8</ele>
        <time>2026-04-28T05:37:34Z</time>
      </trkpt>
      <trkpt lat="45.04133" lon="3.8909">
        <ele>645.6</ele>
        <time>2026-04-28T05:37:39Z</time>
      </trkpt>
      <trkpt lat="45.04135" lon="3.89101">
        <ele>646.4</ele>
        <time>2026-04-28T05:37:44Z</time>
      </trkpt>
      <trkpt lat="45.04136" lon="3.89111">
        <ele>647.3</ele>
        <time>2026-04-28T05:37:49Z</time>
      </trkpt>
      <trkpt lat="45.04139" lon="3.89117">
        <ele>647.6</ele>
        <time>2026-04-28T05:37:54Z</time>
      </trkpt>
      <trkpt lat="45.04142" lon="3.89125">
        <ele>648.2</ele>
        <time>2026-04-28T05:37:59Z</time>
      </trkpt>
      <trkpt lat="45.04145" lon="3.89138">
        <ele>649.2</ele>
        <time>2026-04-28T05:38:04Z</time>
      </trkpt>
      <trkpt lat="45.04149" lon="3.89146">
        <ele>649.8</ele>
        <time>2026-04-28T05:38:09Z</time>
      </trkpt>
      <trkpt lat="45.04146" lon="3.89156">
        <ele>650.8</ele>
        <time>2026-04-28T05:38:14Z</time>
      </trkpt>
      <trkpt lat="45.04141" lon="3.89163">
        <ele>651.6</ele>
        <time>2026-04-28T05:38:19Z</time>
      </trkpt>
      <trkpt lat="45.0414" lon="3.89171">
        <ele>652.1</ele>
        <time>2026-04-28T05:38:24Z</time>
      </trkpt>
      <trkpt lat="45.04137" lon="3.89177">
        <ele>652.5</ele>
        <time>2026-04-28T05:38:29Z</time>
      </trkpt>
      <trkpt lat="45.04137" lon="3.89185">
        <ele>652.9</ele>
        <time>2026-04-28T05:38:34Z</time>
      </trkpt>
      <trkpt lat="45.04134" lon="3.89194">
        <ele>653.4</ele>
        <time>2026-04-28T05:38:39Z</time>
      </trkpt>
      <trkpt lat="45.04128" lon="3.89198">
        <ele>653.9</ele>
        <time>2026-04-28T05:38:44Z</time>
      </trkpt>
      <trkpt lat="45.04124" lon="3.89205">
        <ele>654.4</ele>
        <time>2026-04-28T05:38:49Z</time>
      </trkpt>
      <trkpt lat="45.0412" lon="3.89212">
        <ele>654.9</ele>
        <time>2026-04-28T05:38:54Z</time>
      </trkpt>
      <trkpt lat="45.04113" lon="3.89218">
        <ele>655.6</ele>
        <time>2026-04-28T05:38:59Z</time>
      </trkpt>
      <trkpt lat="45.04107" lon="3.89226">
        <ele>656.3</ele>
        <time>2026-04-28T05:39:04Z</time>
      </trkpt>
      <trkpt lat="45.04103" lon="3.89233">
        <ele>656.9</ele>
        <time>2026-04-28T05:39:09Z</time>
      </trkpt>
      <trkpt lat="45.04098" lon="3.89236">
        <ele>657.3</ele>
        <time>2026-04-28T05:39:14Z</time>
      </trkpt>
      <trkpt lat="45.04094" lon="3.8924">
        <ele>657.8</ele>
        <time>2026-04-28T05:39:19Z</time>
      </trkpt>
      <trkpt lat="45.04091" lon="3.89243">
        <ele>658.1</ele>
        <time>2026-04-28T05:39:24Z</time>
      </trkpt>
      <trkpt lat="45.04086" lon="3.89249">
        <ele>658.8</ele>
        <time>2026-04-28T05:39:29Z</time>
      </trkpt>
      <trkpt lat="45.04082" lon="3.89257">
        <ele>659.5</ele>
        <time>2026-04-28T05:39:34Z</time>
      </trkpt>
      <trkpt lat="45.04077" lon="3.89267">
        <ele>660.6</ele>
        <time>2026-04-28T05:39:39Z</time>
      </trkpt>
      <trkpt lat="45.0407" lon="3.89275">
        <ele>661.8</ele>
        <time>2026-04-28T05:39:44Z</time>
      </trkpt>
      <trkpt lat="45.04067" lon="3.89283">
        <ele>662.6</ele>
        <time>2026-04-28T05:39:49Z</time>
      </trkpt>
      <trkpt lat="45.04063" lon="3.89292">
        <ele>663.6</ele>
        <time>2026-04-28T05:39:54Z</time>
      </trkpt>
      <trkpt lat="45.0406" lon="3.893">
        <ele>664.4</ele>
        <time>2026-04-28T05:39:59Z</time>
      </trkpt>
      <trkpt lat="45.04055" lon="3.89307">
        <ele>665.4</ele>
        <time>2026-04-28T05:40:04Z</time>
      </trkpt>
      <trkpt lat="45.04054" lon="3.89317">
        <ele>666.1</ele>
        <time>2026-04-28T05:40:09Z</time>
      </trkpt>
      <trkpt lat="45.0405" lon="3.89324">
        <ele>667</ele>
        <time>2026-04-28T05:40:14Z</time>
      </trkpt>
      <trkpt lat="45.04048" lon="3.89334">
        <ele>667.9</ele>
        <time>2026-04-28T05:40:19Z</time>
      </trkpt>
      <trkpt lat="45.04045" lon="3.89343">
        <ele>668.7</ele>
        <time>2026-04-28T05:40:24Z</time>
      </trkpt>
      <trkpt lat="45.04041" lon="3.8935">
        <ele>669.6</ele>
        <time>2026-04-28T05:40:29Z</time>
      </trkpt>
      <trkpt lat="45.04038" lon="3.89358">
        <ele>670.3</ele>
        <time>2026-04-28T05:40:34Z</time>
      </trkpt>
      <trkpt lat="45.04036" lon="3.89366">
        <ele>671</ele>
        <time>2026-04-28T05:40:39Z</time>
      </trkpt>
      <trkpt lat="45.04035" lon="3.89376">
        <ele>671.7</ele>
        <time>2026-04-28T05:40:44Z</time>
      </trkpt>
      <trkpt lat="45.04035" lon="3.89387">
        <ele>672.3</ele>
        <time>2026-04-28T05:40:49Z</time>
      </trkpt>
      <trkpt lat="45.04035" lon="3.89392">
        <ele>672.6</ele>
        <time>2026-04-28T05:40:54Z</time>
      </trkpt>
      <trkpt lat="45.04035" lon="3.89392">
        <ele>672.6</ele>
        <time>2026-04-28T05:40:59Z</time>
      </trkpt>
      <trkpt lat="45.04035" lon="3.89392">
        <ele>672.6</ele>
        <time>2026-04-28T05:41:04Z</time>
      </trkpt>
      <trkpt lat="45.04035" lon="3.89392">
        <ele>672.6</ele>
        <time>2026-04-28T05:41:09Z</time>
      </trkpt>
      <trkpt lat="45.04035" lon="3.89392">
        <ele>672.6</ele>
        <time>2026-04-28T05:41:14Z</time>
      </trkpt>
      <trkpt lat="45.04035" lon="3.89392">
        <ele>672.6</ele>
        <time>2026-04-28T05:41:19Z</time>
      </trkpt>
      <trkpt lat="45.04035" lon="3.89392">
        <ele>672.6</ele>
        <time>2026-04-28T05:41:24Z</time>
      </trkpt>
      <trkpt lat="45.04035" lon="3.89392">
        <ele>672.6</ele>
        <time>2026-04-28T05:41:29Z</time>
      </trkpt>
      <trkpt lat="45.04035" lon="3.89392">
        <ele>672.6</ele>
        <time>2026-04-28T05:41:34Z</time>
      </trkpt>
      <trkpt lat="45.04035" lon="3.89392">
        <ele>672.6</ele>
        <time>2026-04-28T05:41:39Z</time>
      </trkpt>
      <trkpt lat="45.04035" lon="3.89392">
        <ele>672.6</ele>
        <time>2026-04-28T05:41:44Z</time>
      </trkpt>
      <trkpt lat="45.04035" lon="3.89392">
        <ele>672.6</ele>
        <time>2026-04-28T05:41:49Z</time>
      </trkpt>
      <trkpt lat="45.04035" lon="3.89392">
        <ele>672.6</ele>
        <time>2026-04-28T05:41:54Z</time>
      </trkpt>
      <trkpt lat="45.04035" lon="3.89392">
        <ele>672.6</ele>
        <time>2026-04-28T05:41:59Z</time>
      </trkpt>
      <trkpt lat="45.04035" lon="3.89392">
        <ele>672.6</ele>
        <time>2026-04-28T05:42:04Z</time>
      </trkpt>
      <trkpt lat="45.04035" lon="3.89392">
        <ele>672.6</ele>
        <time>2026-04-28T05:42:09Z</time>
      </trkpt>
      <trkpt lat="45.04035" lon="3.89392">
        <ele>672.6</ele>
        <time>2026-04-28T05:42:14Z</time>
      </trkpt>
      <trkpt lat="45.04035" lon="3.89392">
        <ele>672.6</ele>
        <time>2026-04-28T05:42:19Z</time>
      </trkpt>
      <trkpt lat="45.04035" lon="3.89392">
        <ele>672.6</ele>
        <time>2026-04-28T05:42:24Z</time>
      </trkpt>
      <trkpt lat="45.04035" lon="3.89392">
        <ele>672.6</ele>
        <time>2026-04-28T05:42:29Z</time>
      </trkpt>
      <trkpt lat="45.04035" lon="3.89392">
        <ele>672.6</ele>
        <time>2026-04-28T05:42:34Z</time>
      </trkpt>
      <trkpt lat="45.04035" lon="3.89392">
        <ele>672.6</ele>
        <time>2026-04-28T05:42:39Z</time>
      </trkpt>
      <trkpt lat="45.04035" lon="3.89392">
        <ele>672.6</ele>
        <time>2026-04-28T05:42:44Z</time>
      </trkpt>
      <trkpt lat="45.04035" lon="3.89392">
        <ele>672.6</ele>
        <time>2026-04-28T05:42:49Z</time>
      </trkpt>
      <trkpt lat="45.04035" lon="3.89392">
        <ele>672.6</ele>
        <time>2026-04-28T05:42:54Z</time>
      </trkpt>
      <trkpt lat="45.04035" lon="3.89392">
        <ele>672.6</ele>
        <time>2026-04-28T05:42:59Z</time>
      </trkpt>
      <trkpt lat="45.04035" lon="3.89392">
        <ele>672.6</ele>
        <time>2026-04-28T05:43:04Z</time>
      </trkpt>
      <trkpt lat="45.04035" lon="3.89392">
        <ele>672.6</ele>
        <time>2026-04-28T05:43:09Z</time>
      </trkpt>
      <trkpt lat="45.04035" lon="3.89392">
        <ele>672.6</ele>
        <time>2026-04-28T05:43:14Z</time>
      </trkpt>
      <trkpt lat="45.04035" lon="3.89392">
        <ele>672.6</ele>
        <time>2026-04-28T05:43:19Z</time>
      </trkpt>
      <trkpt lat="45.04035" lon="3.89392">
        <ele>672.6</ele>
        <time>2026-04-28T05:43:24Z</time>
      </trkpt>
      <trkpt lat="45.04035" lon="3.89392">
        <ele>672.6</ele>
        <time>2026-04-28T05:43:29Z</time>
      </trkpt>
      <trkpt lat="45.04034" lon="3.894">
        <ele>673.2</ele>
        <time>2026-04-28T05:43:34Z</time>
      </trkpt>
      <trkpt lat="45.04034" lon="3.89411">
        <ele>673.8</ele>
        <time>2026-04-28T05:43:39Z</time>
      </trkpt>
      <trkpt lat="45.04033" lon="3.89422">
        <ele>674.4</ele>
        <time>2026-04-28T05:43:44Z</time>
      </trkpt>
      <trkpt lat="45.0403" lon="3.8943">
        <ele>674.9</ele>
        <time>2026-04-28T05:43:49Z</time>
      </trkpt>
      <trkpt lat="45.04029" lon="3.89437">
        <ele>675.3</ele>
        <time>2026-04-28T05:43:54Z</time>
      </trkpt>
      <trkpt lat="45.04029" lon="3.89445">
        <ele>675.6</ele>
        <time>2026-04-28T05:43:59Z</time>
      </trkpt>
      <trkpt lat="45.04028" lon="3.89453">
        <ele>676</ele>
        <time>2026-04-28T05:44:04Z</time>
      </trkpt>
      <trkpt lat="45.04027" lon="3.89459">
        <ele>676.3</ele>
        <time>2026-04-28T05:44:09Z</time>
      </trkpt>
      <trkpt lat="45.04027" lon="3.89463">
        <ele>676.4</ele>
        <time>2026-04-28T05:44:14Z</time>
      </trkpt>
      <trkpt lat="45.04026" lon="3.89464">
        <ele>676.6</ele>
        <time>2026-04-28T05:44:19Z</time>
      </trkpt>
      <trkpt lat="45.04026" lon="3.89464">
        <ele>676.6</ele>
        <time>2026-04-28T05:44:24Z</time>
      </trkpt>
      <trkpt lat="45.04026" lon="3.89464">
        <ele>676.6</ele>
        <time>2026-04-28T05:44:29Z</time>
      </trkpt>
      <trkpt lat="45.04026" lon="3.89464">
        <ele>676.6</ele>
        <time>2026-04-28T05:44:34Z</time>
      </trkpt>
      <trkpt lat="45.04026" lon="3.89464">
        <ele>676.6</ele>
        <time>2026-04-28T05:44:39Z</time>
      </trkpt>
      <trkpt lat="45.04026" lon="3.89464">
        <ele>676.6</ele>
        <time>2026-04-28T05:44:44Z</time>
      </trkpt>
      <trkpt lat="45.04026" lon="3.89464">
        <ele>676.6</ele>
        <time>2026-04-28T05:44:49Z</time>
      </trkpt>
      <trkpt lat="45.04026" lon="3.89464">
        <ele>676.6</ele>
        <time>2026-04-28T05:44:54Z</time>
      </trkpt>
      <trkpt lat="45.04026" lon="3.89464">
        <ele>676.6</ele>
        <time>2026-04-28T05:44:59Z</time>
      </trkpt>
      <trkpt lat="45.04026" lon="3.89464">
        <ele>676.6</ele>
        <time>2026-04-28T05:45:04Z</time>
      </trkpt>
      <trkpt lat="45.04026" lon="3.89464">
        <ele>676.6</ele>
        <time>2026-04-28T05:45:09Z</time>
      </trkpt>
      <trkpt lat="45.04026" lon="3.89464">
        <ele>676.6</ele>
        <time>2026-04-28T05:45:14Z</time>
      </trkpt>
      <trkpt lat="45.04026" lon="3.89464">
        <ele>676.6</ele>
        <time>2026-04-28T05:45:19Z</time>
      </trkpt>
      <trkpt lat="45.04027" lon="3.89468">
        <ele>676.6</ele>
        <time>2026-04-28T05:45:24Z</time>
      </trkpt>
      <trkpt lat="45.04024" lon="3.89474">
        <ele>677.1</ele>
        <time>2026-04-28T05:45:29Z</time>
      </trkpt>
      <trkpt lat="45.04019" lon="3.89484">
        <ele>678.1</ele>
        <time>2026-04-28T05:45:34Z</time>
      </trkpt>
      <trkpt lat="45.04015" lon="3.89494">
        <ele>679</ele>
        <time>2026-04-28T05:45:39Z</time>
      </trkpt>
      <trkpt lat="45.04013" lon="3.89501">
        <ele>679.5</ele>
        <time>2026-04-28T05:45:44Z</time>
      </trkpt>
      <trkpt lat="45.0401" lon="3.8951">
        <ele>680.3</ele>
        <time>2026-04-28T05:45:49Z</time>
      </trkpt>
      <trkpt lat="45.04005" lon="3.89518">
        <ele>681.3</ele>
        <time>2026-04-28T05:45:54Z</time>
      </trkpt>
      <trkpt lat="45.04004" lon="3.8953">
        <ele>682</ele>
        <time>2026-04-28T05:45:59Z</time>
      </trkpt>
      <trkpt lat="45.04004" lon="3.8954">
        <ele>682.5</ele>
        <time>2026-04-28T05:46:04Z</time>
      </trkpt>
      <trkpt lat="45.04004" lon="3.89548">
        <ele>682.9</ele>
        <time>2026-04-28T05:46:09Z</time>
      </trkpt>
      <trkpt lat="45.04" lon="3.89557">
        <ele>683.7</ele>
        <time>2026-04-28T05:46:14Z</time>
      </trkpt>
      <trkpt lat="45.03998" lon="3.89563">
        <ele>684.2</ele>
        <time>2026-04-28T05:46:19Z</time>
      </trkpt>
      <trkpt lat="45.03996" lon="3.89571">
        <ele>684.8</ele>
        <time>2026-04-28T05:46:24Z</time>
      </trkpt>
      <trkpt lat="45.03992" lon="3.89576">
        <ele>685.4</ele>
        <time>2026-04-28T05:46:29Z</time>
      </trkpt>
      <trkpt lat="45.03987" lon="3.89581">
        <ele>686.1</ele>
        <time>2026-04-28T05:46:34Z</time>
      </trkpt>
      <trkpt lat="45.03982" lon="3.89584">
        <ele>686.8</ele>
        <time>2026-04-28T05:46:39Z</time>
      </trkpt>
      <trkpt lat="45.03976" lon="3.89587">
        <ele>687.6</ele>
        <time>2026-04-28T05:46:44Z</time>
      </trkpt>
      <trkpt lat="45.03972" lon="3.89591">
        <ele>688.4</ele>
        <time>2026-04-28T05:46:49Z</time>
      </trkpt>
      <trkpt lat="45.03966" lon="3.89594">
        <ele>689.2</ele>
        <time>2026-04-28T05:46:54Z</time>
      </trkpt>
      <trkpt lat="45.0396" lon="3.89598">
        <ele>690</ele>
        <time>2026-04-28T05:46:59Z</time>
      </trkpt>
      <trkpt lat="45.03955" lon="3.89601">
        <ele>690.7</ele>
        <time>2026-04-28T05:47:04Z</time>
      </trkpt>
      <trkpt lat="45.0395" lon="3.89605">
        <ele>691.4</ele>
        <time>2026-04-28T05:47:09Z</time>
      </trkpt>
      <trkpt lat="45.03944" lon="3.89607">
        <ele>692</ele>
        <time>2026-04-28T05:47:14Z</time>
      </trkpt>
      <trkpt lat="45.03937" lon="3.89604">
        <ele>692.3</ele>
        <time>2026-04-28T05:47:19Z</time>
      </trkpt>
      <trkpt lat="45.03933" lon="3.89607">
        <ele>692.8</ele>
        <time>2026-04-28T05:47:24Z</time>
      </trkpt>
      <trkpt lat="45.0393" lon="3.89614">
        <ele>693.5</ele>
        <time>2026-04-28T05:47:29Z</time>
      </trkpt>
      <trkpt lat="45.03926" lon="3.89622">
        <ele>694.2</ele>
        <time>2026-04-28T05:47:34Z</time>
      </trkpt>
      <trkpt lat="45.03922" lon="3.89628">
        <ele>694.8</ele>
        <time>2026-04-28T05:47:39Z</time>
      </trkpt>
      <trkpt lat="45.0392" lon="3.89635">
        <ele>695.3</ele>
        <time>2026-04-28T05:47:44Z</time>
      </trkpt>
      <trkpt lat="45.03916" lon="3.89641">
        <ele>695.8</ele>
        <time>2026-04-28T05:47:49Z</time>
      </trkpt>
      <trkpt lat="45.0391" lon="3.89648">
        <ele>696.7</ele>
        <time>2026-04-28T05:47:54Z</time>
      </trkpt>
      <trkpt lat="45.03905" lon="3.89656">
        <ele>697.6</ele>
        <time>2026-04-28T05:47:59Z</time>
      </trkpt>
      <trkpt lat="45.03901" lon="3.89662">
        <ele>698.3</ele>
        <time>2026-04-28T05:48:04Z</time>
      </trkpt>
      <trkpt lat="45.03894" lon="3.89669">
        <ele>699.3</ele>
        <time>2026-04-28T05:48:09Z</time>
      </trkpt>
      <trkpt lat="45.03889" lon="3.89678">
        <ele>700.2</ele>
        <time>2026-04-28T05:48:14Z</time>
      </trkpt>
      <trkpt lat="45.03886" lon="3.89686">
        <ele>700.9</ele>
        <time>2026-04-28T05:48:19Z</time>
      </trkpt>
      <trkpt lat="45.03885" lon="3.8969">
        <ele>701.2</ele>
        <time>2026-04-28T05:48:24Z</time>
      </trkpt>
      <trkpt lat="45.03881" lon="3.89696">
        <ele>701.9</ele>
        <time>2026-04-28T05:48:29Z</time>
      </trkpt>
      <trkpt lat="45.03877" lon="3.89702">
        <ele>702.5</ele>
        <time>2026-04-28T05:48:34Z</time>
      </trkpt>
      <trkpt lat="45.03874" lon="3.89709">
        <ele>703.1</ele>
        <time>2026-04-28T05:48:39Z</time>
      </trkpt>
      <trkpt lat="45.03872" lon="3.89716">
        <ele>703.6</ele>
        <time>2026-04-28T05:48:44Z</time>
      </trkpt>
      <trkpt lat="45.03869" lon="3.8972">
        <ele>704</ele>
        <time>2026-04-28T05:48:49Z</time>
      </trkpt>
      <trkpt lat="45.0386" lon="3.89715">
        <ele>704.6</ele>
        <time>2026-04-28T05:48:54Z</time>
      </trkpt>
      <trkpt lat="45.03852" lon="3.89712">
        <ele>705.1</ele>
        <time>2026-04-28T05:48:59Z</time>
      </trkpt>
      <trkpt lat="45.03847" lon="3.89712">
        <ele>705.5</ele>
        <time>2026-04-28T05:49:04Z</time>
      </trkpt>
      <trkpt lat="45.03843" lon="3.89711">
        <ele>705.8</ele>
        <time>2026-04-28T05:49:09Z</time>
      </trkpt>
      <trkpt lat="45.03837" lon="3.89711">
        <ele>706.3</ele>
        <time>2026-04-28T05:49:14Z</time>
      </trkpt>
      <trkpt lat="45.03829" lon="3.89713">
        <ele>707.9</ele>
        <time>2026-04-28T05:49:19Z</time>
      </trkpt>
      <trkpt lat="45.03823" lon="3.89713">
        <ele>709.5</ele>
        <time>2026-04-28T05:49:24Z</time>
      </trkpt>
      <trkpt lat="45.03817" lon="3.89711">
        <ele>711.1</ele>
        <time>2026-04-28T05:49:29Z</time>
      </trkpt>
      <trkpt lat="45.03811" lon="3.89711">
        <ele>712.8</ele>
        <time>2026-04-28T05:49:34Z</time>
      </trkpt>
      <trkpt lat="45.03804" lon="3.8971">
        <ele>714.7</ele>
        <time>2026-04-28T05:49:39Z</time>
      </trkpt>
      <trkpt lat="45.03796" lon="3.89709">
        <ele>717</ele>
        <time>2026-04-28T05:49:44Z</time>
      </trkpt>
      <trkpt lat="45.03789" lon="3.89708">
        <ele>719</ele>
        <time>2026-04-28T05:49:49Z</time>
      </trkpt>
      <trkpt lat="45.03782" lon="3.89707">
        <ele>721.1</ele>
        <time>2026-04-28T05:49:54Z</time>
      </trkpt>
      <trkpt lat="45.03776" lon="3.8971">
        <ele>722.5</ele>
        <time>2026-04-28T05:49:59Z</time>
      </trkpt>
      <trkpt lat="45.03768" lon="3.8971">
        <ele>724.8</ele>
        <time>2026-04-28T05:50:04Z</time>
      </trkpt>
      <trkpt lat="45.03765" lon="3.89709">
        <ele>725.7</ele>
        <time>2026-04-28T05:50:09Z</time>
      </trkpt>
      <trkpt lat="45.03759" lon="3.89707">
        <ele>727.6</ele>
        <time>2026-04-28T05:50:14Z</time>
      </trkpt>
      <trkpt lat="45.03754" lon="3.89713">
        <ele>728.3</ele>
        <time>2026-04-28T05:50:19Z</time>
      </trkpt>
      <trkpt lat="45.03751" lon="3.89721">
        <ele>728.2</ele>
        <time>2026-04-28T05:50:24Z</time>
      </trkpt>
      <trkpt lat="45.03749" lon="3.89728">
        <ele>728.1</ele>
        <time>2026-04-28T05:50:29Z</time>
      </trkpt>
      <trkpt lat="45.03746" lon="3.89735">
        <ele>728.6</ele>
        <time>2026-04-28T05:50:34Z</time>
      </trkpt>
      <trkpt lat="45.03743" lon="3.89741">
        <ele>729.3</ele>
        <time>2026-04-28T05:50:39Z</time>
      </trkpt>
      <trkpt lat="45.03741" lon="3.89744">
        <ele>729.8</ele>
        <time>2026-04-28T05:50:44Z</time>
      </trkpt>
      <trkpt lat="45.03737" lon="3.89748">
        <ele>731.2</ele>
        <time>2026-04-28T05:50:49Z</time>
      </trkpt>
      <trkpt lat="45.03735" lon="3.89753">
        <ele>731.8</ele>
        <time>2026-04-28T05:50:54Z</time>
      </trkpt>
      <trkpt lat="45.03731" lon="3.89758">
        <ele>733.5</ele>
        <time>2026-04-28T05:50:59Z</time>
      </trkpt>
      <trkpt lat="45.03731" lon="3.89759">
        <ele>733.5</ele>
        <time>2026-04-28T05:51:04Z</time>
      </trkpt>
      <trkpt lat="45.03731" lon="3.89759">
        <ele>733.5</ele>
        <time>2026-04-28T05:51:09Z</time>
      </trkpt>
      <trkpt lat="45.03731" lon="3.89759">
        <ele>733.5</ele>
        <time>2026-04-28T05:51:14Z</time>
      </trkpt>
      <trkpt lat="45.03727" lon="3.89761">
        <ele>735.1</ele>
        <time>2026-04-28T05:51:19Z</time>
      </trkpt>
      <trkpt lat="45.03722" lon="3.89768">
        <ele>737</ele>
        <time>2026-04-28T05:51:24Z</time>
      </trkpt>
      <trkpt lat="45.03717" lon="3.8977">
        <ele>738.9</ele>
        <time>2026-04-28T05:51:29Z</time>
      </trkpt>
      <trkpt lat="45.03712" lon="3.89771">
        <ele>740.9</ele>
        <time>2026-04-28T05:51:34Z</time>
      </trkpt>
      <trkpt lat="45.0371" lon="3.89773">
        <ele>741.5</ele>
        <time>2026-04-28T05:51:39Z</time>
      </trkpt>
      <trkpt lat="45.03709" lon="3.89773">
        <ele>741.9</ele>
        <time>2026-04-28T05:51:44Z</time>
      </trkpt>
      <trkpt lat="45.03709" lon="3.89773">
        <ele>741.9</ele>
        <time>2026-04-28T05:51:49Z</time>
      </trkpt>
      <trkpt lat="45.03709" lon="3.89773">
        <ele>741.9</ele>
        <time>2026-04-28T05:51:54Z</time>
      </trkpt>
      <trkpt lat="45.03709" lon="3.89773">
        <ele>741.9</ele>
        <time>2026-04-28T05:51:59Z</time>
      </trkpt>
      <trkpt lat="45.03709" lon="3.89773">
        <ele>741.9</ele>
        <time>2026-04-28T05:52:04Z</time>
      </trkpt>
      <trkpt lat="45.03709" lon="3.89773">
        <ele>741.9</ele>
        <time>2026-04-28T05:52:09Z</time>
      </trkpt>
      <trkpt lat="45.03709" lon="3.89773">
        <ele>741.9</ele>
        <time>2026-04-28T05:52:14Z</time>
      </trkpt>
      <trkpt lat="45.03709" lon="3.89773">
        <ele>741.9</ele>
        <time>2026-04-28T05:52:19Z</time>
      </trkpt>
      <trkpt lat="45.03709" lon="3.89773">
        <ele>741.9</ele>
        <time>2026-04-28T05:52:24Z</time>
      </trkpt>
      <trkpt lat="45.03709" lon="3.89773">
        <ele>741.9</ele>
        <time>2026-04-28T05:52:29Z</time>
      </trkpt>
      <trkpt lat="45.03709" lon="3.89773">
        <ele>741.9</ele>
        <time>2026-04-28T05:52:34Z</time>
      </trkpt>
      <trkpt lat="45.03709" lon="3.89773">
        <ele>741.9</ele>
        <time>2026-04-28T05:52:39Z</time>
      </trkpt>
      <trkpt lat="45.03709" lon="3.89773">
        <ele>741.9</ele>
        <time>2026-04-28T05:52:44Z</time>
      </trkpt>
      <trkpt lat="45.03709" lon="3.89773">
        <ele>741.9</ele>
        <time>2026-04-28T05:52:49Z</time>
      </trkpt>
      <trkpt lat="45.03709" lon="3.89773">
        <ele>741.9</ele>
        <time>2026-04-28T05:52:54Z</time>
      </trkpt>
      <trkpt lat="45.03709" lon="3.89773">
        <ele>741.9</ele>
        <time>2026-04-28T05:52:59Z</time>
      </trkpt>
      <trkpt lat="45.03709" lon="3.89773">
        <ele>741.9</ele>
        <time>2026-04-28T05:53:04Z</time>
      </trkpt>
      <trkpt lat="45.03709" lon="3.89773">
        <ele>741.9</ele>
        <time>2026-04-28T05:53:09Z</time>
      </trkpt>
      <trkpt lat="45.03709" lon="3.89773">
        <ele>741.9</ele>
        <time>2026-04-28T05:53:14Z</time>
      </trkpt>
      <trkpt lat="45.03709" lon="3.89773">
        <ele>741.9</ele>
        <time>2026-04-28T05:53:19Z</time>
      </trkpt>
      <trkpt lat="45.03709" lon="3.89773">
        <ele>741.9</ele>
        <time>2026-04-28T05:53:24Z</time>
      </trkpt>
      <trkpt lat="45.03709" lon="3.89773">
        <ele>741.9</ele>
        <time>2026-04-28T05:53:29Z</time>
      </trkpt>
      <trkpt lat="45.03709" lon="3.89773">
        <ele>741.9</ele>
        <time>2026-04-28T05:53:34Z</time>
      </trkpt>
      <trkpt lat="45.03709" lon="3.89773">
        <ele>741.9</ele>
        <time>2026-04-28T05:53:39Z</time>
      </trkpt>
      <trkpt lat="45.03708" lon="3.89776">
        <ele>742.1</ele>
        <time>2026-04-28T05:53:44Z</time>
      </trkpt>
      <trkpt lat="45.03705" lon="3.89778">
        <ele>743.1</ele>
        <time>2026-04-28T05:53:49Z</time>
      </trkpt>
      <trkpt lat="45.03702" lon="3.8978">
        <ele>744.1</ele>
        <time>2026-04-28T05:53:54Z</time>
      </trkpt>
      <trkpt lat="45.037" lon="3.89783">
        <ele>744.6</ele>
        <time>2026-04-28T05:53:59Z</time>
      </trkpt>
      <trkpt lat="45.037" lon="3.89783">
        <ele>744.6</ele>
        <time>2026-04-28T05:54:04Z</time>
      </trkpt>
      <trkpt lat="45.037" lon="3.89783">
        <ele>744.6</ele>
        <time>2026-04-28T05:54:09Z</time>
      </trkpt>
      <trkpt lat="45.037" lon="3.89783">
        <ele>744.6</ele>
        <time>2026-04-28T05:54:14Z</time>
      </trkpt>
      <trkpt lat="45.03695" lon="3.89784">
        <ele>746.3</ele>
        <time>2026-04-28T05:54:19Z</time>
      </trkpt>
      <trkpt lat="45.03692" lon="3.89786">
        <ele>747.2</ele>
        <time>2026-04-28T05:54:24Z</time>
      </trkpt>
      <trkpt lat="45.03689" lon="3.89788">
        <ele>748.1</ele>
        <time>2026-04-28T05:54:29Z</time>
      </trkpt>
      <trkpt lat="45.03687" lon="3.8979">
        <ele>748.5</ele>
        <time>2026-04-28T05:54:34Z</time>
      </trkpt>
      <trkpt lat="45.03684" lon="3.89792">
        <ele>749.3</ele>
        <time>2026-04-28T05:54:39Z</time>
      </trkpt>
      <trkpt lat="45.03681" lon="3.89794">
        <ele>750.1</ele>
        <time>2026-04-28T05:54:44Z</time>
      </trkpt>
      <trkpt lat="45.03679" lon="3.89796">
        <ele>750.5</ele>
        <time>2026-04-28T05:54:49Z</time>
      </trkpt>
      <trkpt lat="45.03676" lon="3.89797">
        <ele>751.4</ele>
        <time>2026-04-28T05:54:54Z</time>
      </trkpt>
      <trkpt lat="45.03674" lon="3.89799">
        <ele>751.7</ele>
        <time>2026-04-28T05:54:59Z</time>
      </trkpt>
      <trkpt lat="45.03673" lon="3.89801">
        <ele>751.7</ele>
        <time>2026-04-28T05:55:04Z</time>
      </trkpt>
      <trkpt lat="45.0367" lon="3.89803">
        <ele>752.4</ele>
        <time>2026-04-28T05:55:09Z</time>
      </trkpt>
      <trkpt lat="45.03667" lon="3.89806">
        <ele>752.8</ele>
        <time>2026-04-28T05:55:14Z</time>
      </trkpt>
      <trkpt lat="45.03666" lon="3.89809">
        <ele>752.5</ele>
        <time>2026-04-28T05:55:19Z</time>
      </trkpt>
      <trkpt lat="45.03665" lon="3.89812">
        <ele>752.2</ele>
        <time>2026-04-28T05:55:24Z</time>
      </trkpt>
      <trkpt lat="45.03662" lon="3.89814">
        <ele>752.6</ele>
        <time>2026-04-28T05:55:29Z</time>
      </trkpt>
      <trkpt lat="45.03661" lon="3.89817">
        <ele>752.3</ele>
        <time>2026-04-28T05:55:34Z</time>
      </trkpt>
      <trkpt lat="45.03658" lon="3.8982">
        <ele>752.6</ele>
        <time>2026-04-28T05:55:39Z</time>
      </trkpt>
      <trkpt lat="45.03657" lon="3.89821">
        <ele>752.7</ele>
        <time>2026-04-28T05:55:44Z</time>
      </trkpt>
      <trkpt lat="45.03654" lon="3.89825">
        <ele>752.7</ele>
        <time>2026-04-28T05:55:49Z</time>
      </trkpt>
      <trkpt lat="45.03653" lon="3.89827">
        <ele>752.7</ele>
        <time>2026-04-28T05:55:54Z</time>
      </trkpt>
      <trkpt lat="45.0365" lon="3.89828">
        <ele>753.3</ele>
        <time>2026-04-28T05:55:59Z</time>
      </trkpt>
      <trkpt lat="45.03646" lon="3.8983">
        <ele>754</ele>
        <time>2026-04-28T05:56:04Z</time>
      </trkpt>
      <trkpt lat="45.03643" lon="3.89832">
        <ele>754.5</ele>
        <time>2026-04-28T05:56:09Z</time>
      </trkpt>
      <trkpt lat="45.0364" lon="3.89834">
        <ele>755</ele>
        <time>2026-04-28T05:56:14Z</time>
      </trkpt>
      <trkpt lat="45.03637" lon="3.89838">
        <ele>755.7</ele>
        <time>2026-04-28T05:56:19Z</time>
      </trkpt>
      <trkpt lat="45.03635" lon="3.8984">
        <ele>756.2</ele>
        <time>2026-04-28T05:56:24Z</time>
      </trkpt>
      <trkpt lat="45.03633" lon="3.89842">
        <ele>756.7</ele>
        <time>2026-04-28T05:56:29Z</time>
      </trkpt>
      <trkpt lat="45.03631" lon="3.89842">
        <ele>757.2</ele>
        <time>2026-04-28T05:56:34Z</time>
      </trkpt>
      <trkpt lat="45.03627" lon="3.89844">
        <ele>758.2</ele>
        <time>2026-04-28T05:56:39Z</time>
      </trkpt>
      <trkpt lat="45.03624" lon="3.89846">
        <ele>759</ele>
        <time>2026-04-28T05:56:44Z</time>
      </trkpt>
      <trkpt lat="45.03622" lon="3.8985">
        <ele>759.4</ele>
        <time>2026-04-28T05:56:49Z</time>
      </trkpt>
      <trkpt lat="45.0362" lon="3.89852">
        <ele>759.9</ele>
        <time>2026-04-28T05:56:54Z</time>
      </trkpt>
      <trkpt lat="45.03618" lon="3.89854">
        <ele>760.4</ele>
        <time>2026-04-28T05:56:59Z</time>
      </trkpt>
      <trkpt lat="45.03615" lon="3.89856">
        <ele>761.1</ele>
        <time>2026-04-28T05:57:04Z</time>
      </trkpt>
      <trkpt lat="45.03614" lon="3.89858">
        <ele>761.3</ele>
        <time>2026-04-28T05:57:09Z</time>
      </trkpt>
      <trkpt lat="45.03612" lon="3.8986">
        <ele>761.8</ele>
        <time>2026-04-28T05:57:14Z</time>
      </trkpt>
      <trkpt lat="45.03612" lon="3.8986">
        <ele>761.8</ele>
        <time>2026-04-28T05:57:19Z</time>
      </trkpt>
      <trkpt lat="45.03612" lon="3.8986">
        <ele>761.8</ele>
        <time>2026-04-28T05:57:24Z</time>
      </trkpt>
      <trkpt lat="45.03606" lon="3.89868">
        <ele>763.2</ele>
        <time>2026-04-28T05:57:29Z</time>
      </trkpt>
      <trkpt lat="45.03606" lon="3.89868">
        <ele>763.2</ele>
        <time>2026-04-28T05:57:34Z</time>
      </trkpt>
      <trkpt lat="45.03606" lon="3.89868">
        <ele>763.2</ele>
        <time>2026-04-28T05:57:39Z</time>
      </trkpt>
      <trkpt lat="45.03606" lon="3.89868">
        <ele>763.2</ele>
        <time>2026-04-28T05:57:44Z</time>
      </trkpt>
      <trkpt lat="45.03606" lon="3.89868">
        <ele>763.2</ele>
        <time>2026-04-28T05:57:49Z</time>
      </trkpt>
      <trkpt lat="45.03599" lon="3.89878">
        <ele>764.8</ele>
        <time>2026-04-28T05:57:54Z</time>
      </trkpt>
      <trkpt lat="45.03596" lon="3.89883">
        <ele>765.5</ele>
        <time>2026-04-28T05:57:59Z</time>
      </trkpt>
      <trkpt lat="45.0359" lon="3.89886">
        <ele>767</ele>
        <time>2026-04-28T05:58:04Z</time>
      </trkpt>
      <trkpt lat="45.03586" lon="3.8989">
        <ele>767.9</ele>
        <time>2026-04-28T05:58:09Z</time>
      </trkpt>
      <trkpt lat="45.03585" lon="3.89892">
        <ele>768.2</ele>
        <time>2026-04-28T05:58:14Z</time>
      </trkpt>
      <trkpt lat="45.03582" lon="3.89895">
        <ele>768.7</ele>
        <time>2026-04-28T05:58:19Z</time>
      </trkpt>
      <trkpt lat="45.03582" lon="3.89895">
        <ele>768.7</ele>
        <time>2026-04-28T05:58:24Z</time>
      </trkpt>
      <trkpt lat="45.03582" lon="3.89895">
        <ele>768.7</ele>
        <time>2026-04-28T05:58:29Z</time>
      </trkpt>
      <trkpt lat="45.03574" lon="3.89904">
        <ele>769.6</ele>
        <time>2026-04-28T05:58:34Z</time>
      </trkpt>
      <trkpt lat="45.03572" lon="3.89905">
        <ele>769.9</ele>
        <time>2026-04-28T05:58:39Z</time>
      </trkpt>
      <trkpt lat="45.03567" lon="3.89911">
        <ele>770.6</ele>
        <time>2026-04-28T05:58:44Z</time>
      </trkpt>
      <trkpt lat="45.03566" lon="3.89912">
        <ele>770.7</ele>
        <time>2026-04-28T05:58:49Z</time>
      </trkpt>
      <trkpt lat="45.03566" lon="3.89912">
        <ele>770.7</ele>
        <time>2026-04-28T05:58:54Z</time>
      </trkpt>
      <trkpt lat="45.0356" lon="3.89923">
        <ele>771.5</ele>
        <time>2026-04-28T05:58:59Z</time>
      </trkpt>
      <trkpt lat="45.03558" lon="3.89925">
        <ele>771.8</ele>
        <time>2026-04-28T05:59:04Z</time>
      </trkpt>
      <trkpt lat="45.03551" lon="3.89927">
        <ele>772.9</ele>
        <time>2026-04-28T05:59:09Z</time>
      </trkpt>
      <trkpt lat="45.03551" lon="3.89928">
        <ele>772.9</ele>
        <time>2026-04-28T05:59:14Z</time>
      </trkpt>
      <trkpt lat="45.03551" lon="3.89928">
        <ele>772.9</ele>
        <time>2026-04-28T05:59:19Z</time>
      </trkpt>
      <trkpt lat="45.03551" lon="3.89928">
        <ele>772.9</ele>
        <time>2026-04-28T05:59:24Z</time>
      </trkpt>
      <trkpt lat="45.03551" lon="3.89928">
        <ele>772.9</ele>
        <time>2026-04-28T05:59:29Z</time>
      </trkpt>
      <trkpt lat="45.03551" lon="3.89928">
        <ele>772.9</ele>
        <time>2026-04-28T05:59:34Z</time>
      </trkpt>
      <trkpt lat="45.03551" lon="3.89928">
        <ele>772.9</ele>
        <time>2026-04-28T05:59:39Z</time>
      </trkpt>
      <trkpt lat="45.03551" lon="3.89928">
        <ele>772.9</ele>
        <time>2026-04-28T05:59:44Z</time>
      </trkpt>
      <trkpt lat="45.03551" lon="3.89928">
        <ele>772.9</ele>
        <time>2026-04-28T05:59:49Z</time>
      </trkpt>
      <trkpt lat="45.03551" lon="3.89928">
        <ele>772.9</ele>
        <time>2026-04-28T05:59:54Z</time>
      </trkpt>
      <trkpt lat="45.03551" lon="3.89928">
        <ele>772.9</ele>
        <time>2026-04-28T05:59:59Z</time>
      </trkpt>
      <trkpt lat="45.03551" lon="3.89928">
        <ele>772.9</ele>
        <time>2026-04-28T06:00:04Z</time>
      </trkpt>
      <trkpt lat="45.03551" lon="3.89928">
        <ele>772.9</ele>
        <time>2026-04-28T06:00:09Z</time>
      </trkpt>
      <trkpt lat="45.03551" lon="3.89928">
        <ele>772.9</ele>
        <time>2026-04-28T06:00:14Z</time>
      </trkpt>
      <trkpt lat="45.03551" lon="3.89928">
        <ele>772.9</ele>
        <time>2026-04-28T06:00:19Z</time>
      </trkpt>
      <trkpt lat="45.03551" lon="3.89928">
        <ele>772.9</ele>
        <time>2026-04-28T06:00:24Z</time>
      </trkpt>
      <trkpt lat="45.03551" lon="3.89928">
        <ele>772.9</ele>
        <time>2026-04-28T06:00:29Z</time>
      </trkpt>
      <trkpt lat="45.03551" lon="3.89928">
        <ele>772.9</ele>
        <time>2026-04-28T06:00:34Z</time>
      </trkpt>
      <trkpt lat="45.03551" lon="3.89928">
        <ele>772.9</ele>
        <time>2026-04-28T06:00:39Z</time>
      </trkpt>
      <trkpt lat="45.03551" lon="3.89928">
        <ele>772.9</ele>
        <time>2026-04-28T06:00:44Z</time>
      </trkpt>
      <trkpt lat="45.03551" lon="3.89928">
        <ele>772.9</ele>
        <time>2026-04-28T06:00:49Z</time>
      </trkpt>
      <trkpt lat="45.03551" lon="3.89928">
        <ele>772.9</ele>
        <time>2026-04-28T06:00:54Z</time>
      </trkpt>
      <trkpt lat="45.03551" lon="3.89928">
        <ele>772.9</ele>
        <time>2026-04-28T06:00:59Z</time>
      </trkpt>
      <trkpt lat="45.03551" lon="3.89928">
        <ele>772.9</ele>
        <time>2026-04-28T06:01:04Z</time>
      </trkpt>
      <trkpt lat="45.03551" lon="3.89928">
        <ele>772.9</ele>
        <time>2026-04-28T06:01:09Z</time>
      </trkpt>
      <trkpt lat="45.03551" lon="3.89928">
        <ele>772.9</ele>
        <time>2026-04-28T06:01:14Z</time>
      </trkpt>
      <trkpt lat="45.03551" lon="3.89928">
        <ele>772.9</ele>
        <time>2026-04-28T06:01:19Z</time>
      </trkpt>
      <trkpt lat="45.03551" lon="3.89928">
        <ele>772.9</ele>
        <time>2026-04-28T06:01:24Z</time>
      </trkpt>
      <trkpt lat="45.03551" lon="3.89928">
        <ele>772.9</ele>
        <time>2026-04-28T06:01:29Z</time>
      </trkpt>
      <trkpt lat="45.03551" lon="3.89928">
        <ele>772.9</ele>
        <time>2026-04-28T06:01:34Z</time>
      </trkpt>
      <trkpt lat="45.03551" lon="3.89928">
        <ele>772.9</ele>
        <time>2026-04-28T06:01:39Z</time>
      </trkpt>
      <trkpt lat="45.03551" lon="3.89928">
        <ele>772.9</ele>
        <time>2026-04-28T06:01:44Z</time>
      </trkpt>
      <trkpt lat="45.03551" lon="3.89928">
        <ele>772.9</ele>
        <time>2026-04-28T06:01:49Z</time>
      </trkpt>
      <trkpt lat="45.03551" lon="3.89928">
        <ele>772.9</ele>
        <time>2026-04-28T06:01:54Z</time>
      </trkpt>
      <trkpt lat="45.03551" lon="3.89928">
        <ele>772.9</ele>
        <time>2026-04-28T06:01:59Z</time>
      </trkpt>
      <trkpt lat="45.03551" lon="3.89928">
        <ele>772.9</ele>
        <time>2026-04-28T06:02:04Z</time>
      </trkpt>
      <trkpt lat="45.03551" lon="3.89928">
        <ele>772.9</ele>
        <time>2026-04-28T06:02:09Z</time>
      </trkpt>
      <trkpt lat="45.03551" lon="3.89928">
        <ele>772.9</ele>
        <time>2026-04-28T06:02:14Z</time>
      </trkpt>
      <trkpt lat="45.03551" lon="3.89928">
        <ele>772.9</ele>
        <time>2026-04-28T06:02:19Z</time>
      </trkpt>
      <trkpt lat="45.03551" lon="3.89928">
        <ele>772.9</ele>
        <time>2026-04-28T06:02:24Z</time>
      </trkpt>
      <trkpt lat="45.03551" lon="3.89928">
        <ele>772.9</ele>
        <time>2026-04-28T06:02:29Z</time>
      </trkpt>
      <trkpt lat="45.03551" lon="3.89928">
        <ele>772.9</ele>
        <time>2026-04-28T06:02:34Z</time>
      </trkpt>
      <trkpt lat="45.03551" lon="3.89928">
        <ele>772.9</ele>
        <time>2026-04-28T06:02:39Z</time>
      </trkpt>
      <trkpt lat="45.03551" lon="3.89928">
        <ele>772.9</ele>
        <time>2026-04-28T06:02:44Z</time>
      </trkpt>
      <trkpt lat="45.03551" lon="3.89928">
        <ele>772.9</ele>
        <time>2026-04-28T06:02:49Z</time>
      </trkpt>
      <trkpt lat="45.03551" lon="3.89928">
        <ele>772.9</ele>
        <time>2026-04-28T06:02:54Z</time>
      </trkpt>
      <trkpt lat="45.03551" lon="3.89928">
        <ele>772.9</ele>
        <time>2026-04-28T06:02:59Z</time>
      </trkpt>
      <trkpt lat="45.03551" lon="3.89928">
        <ele>772.9</ele>
        <time>2026-04-28T06:03:04Z</time>
      </trkpt>
      <trkpt lat="45.03551" lon="3.89928">
        <ele>772.9</ele>
        <time>2026-04-28T06:03:09Z</time>
      </trkpt>
      <trkpt lat="45.03551" lon="3.89928">
        <ele>772.9</ele>
        <time>2026-04-28T06:03:14Z</time>
      </trkpt>
      <trkpt lat="45.03551" lon="3.89928">
        <ele>772.9</ele>
        <time>2026-04-28T06:03:19Z</time>
      </trkpt>
      <trkpt lat="45.03551" lon="3.89928">
        <ele>772.9</ele>
        <time>2026-04-28T06:03:24Z</time>
      </trkpt>
      <trkpt lat="45.03551" lon="3.89928">
        <ele>772.9</ele>
        <time>2026-04-28T06:03:29Z</time>
      </trkpt>
      <trkpt lat="45.03551" lon="3.89928">
        <ele>772.9</ele>
        <time>2026-04-28T06:03:34Z</time>
      </trkpt>
      <trkpt lat="45.03551" lon="3.89928">
        <ele>772.9</ele>
        <time>2026-04-28T06:03:39Z</time>
      </trkpt>
      <trkpt lat="45.03551" lon="3.89928">
        <ele>772.9</ele>
        <time>2026-04-28T06:03:44Z</time>
      </trkpt>
      <trkpt lat="45.03551" lon="3.89928">
        <ele>772.9</ele>
        <time>2026-04-28T06:03:49Z</time>
      </trkpt>
      <trkpt lat="45.03551" lon="3.89928">
        <ele>772.9</ele>
        <time>2026-04-28T06:03:54Z</time>
      </trkpt>
      <trkpt lat="45.03551" lon="3.89928">
        <ele>772.9</ele>
        <time>2026-04-28T06:03:59Z</time>
      </trkpt>
      <trkpt lat="45.03551" lon="3.89928">
        <ele>772.9</ele>
        <time>2026-04-28T06:04:04Z</time>
      </trkpt>
      <trkpt lat="45.03551" lon="3.89928">
        <ele>772.9</ele>
        <time>2026-04-28T06:04:09Z</time>
      </trkpt>
      <trkpt lat="45.03551" lon="3.89928">
        <ele>772.9</ele>
        <time>2026-04-28T06:04:14Z</time>
      </trkpt>
      <trkpt lat="45.03551" lon="3.89928">
        <ele>772.9</ele>
        <time>2026-04-28T06:04:19Z</time>
      </trkpt>
      <trkpt lat="45.03551" lon="3.89928">
        <ele>772.9</ele>
        <time>2026-04-28T06:04:24Z</time>
      </trkpt>
      <trkpt lat="45.03551" lon="3.89928">
        <ele>772.9</ele>
        <time>2026-04-28T06:04:29Z</time>
      </trkpt>
      <trkpt lat="45.03551" lon="3.89928">
        <ele>772.9</ele>
        <time>2026-04-28T06:04:34Z</time>
      </trkpt>
      <trkpt lat="45.03551" lon="3.89928">
        <ele>772.9</ele>
        <time>2026-04-28T06:04:39Z</time>
      </trkpt>
      <trkpt lat="45.03551" lon="3.89928">
        <ele>772.9</ele>
        <time>2026-04-28T06:04:44Z</time>
      </trkpt>
      <trkpt lat="45.03551" lon="3.89928">
        <ele>772.9</ele>
        <time>2026-04-28T06:04:49Z</time>
      </trkpt>
      <trkpt lat="45.03551" lon="3.89928">
        <ele>772.9</ele>
        <time>2026-04-28T06:04:54Z</time>
      </trkpt>
      <trkpt lat="45.03551" lon="3.89928">
        <ele>772.9</ele>
        <time>2026-04-28T06:04:59Z</time>
      </trkpt>
      <trkpt lat="45.03551" lon="3.89928">
        <ele>772.9</ele>
        <time>2026-04-28T06:05:04Z</time>
      </trkpt>
      <trkpt lat="45.03551" lon="3.89928">
        <ele>772.9</ele>
        <time>2026-04-28T06:05:09Z</time>
      </trkpt>
      <trkpt lat="45.03551" lon="3.89928">
        <ele>772.9</ele>
        <time>2026-04-28T06:05:14Z</time>
      </trkpt>
      <trkpt lat="45.03551" lon="3.89928">
        <ele>772.9</ele>
        <time>2026-04-28T06:05:19Z</time>
      </trkpt>
      <trkpt lat="45.03551" lon="3.89928">
        <ele>772.9</ele>
        <time>2026-04-28T06:05:24Z</time>
      </trkpt>
      <trkpt lat="45.03551" lon="3.89928">
        <ele>772.9</ele>
        <time>2026-04-28T06:05:29Z</time>
      </trkpt>
      <trkpt lat="45.03551" lon="3.89928">
        <ele>772.9</ele>
        <time>2026-04-28T06:05:34Z</time>
      </trkpt>
      <trkpt lat="45.03551" lon="3.89928">
        <ele>772.9</ele>
        <time>2026-04-28T06:05:39Z</time>
      </trkpt>
      <trkpt lat="45.03551" lon="3.89928">
        <ele>772.9</ele>
        <time>2026-04-28T06:05:44Z</time>
      </trkpt>
      <trkpt lat="45.03551" lon="3.89928">
        <ele>772.9</ele>
        <time>2026-04-28T06:05:49Z</time>
      </trkpt>
      <trkpt lat="45.03551" lon="3.89928">
        <ele>772.9</ele>
        <time>2026-04-28T06:05:54Z</time>
      </trkpt>
      <trkpt lat="45.03551" lon="3.89928">
        <ele>772.9</ele>
        <time>2026-04-28T06:05:59Z</time>
      </trkpt>
      <trkpt lat="45.03551" lon="3.89928">
        <ele>772.9</ele>
        <time>2026-04-28T06:06:04Z</time>
      </trkpt>
      <trkpt lat="45.03551" lon="3.89928">
        <ele>772.9</ele>
        <time>2026-04-28T06:06:09Z</time>
      </trkpt>
      <trkpt lat="45.03551" lon="3.89928">
        <ele>772.9</ele>
        <time>2026-04-28T06:06:14Z</time>
      </trkpt>
      <trkpt lat="45.03551" lon="3.89928">
        <ele>772.9</ele>
        <time>2026-04-28T06:06:19Z</time>
      </trkpt>
      <trkpt lat="45.03551" lon="3.89928">
        <ele>772.9</ele>
        <time>2026-04-28T06:06:24Z</time>
      </trkpt>
      <trkpt lat="45.03551" lon="3.89928">
        <ele>772.9</ele>
        <time>2026-04-28T06:06:29Z</time>
      </trkpt>
      <trkpt lat="45.03551" lon="3.89928">
        <ele>772.9</ele>
        <time>2026-04-28T06:06:34Z</time>
      </trkpt>
      <trkpt lat="45.03551" lon="3.89928">
        <ele>772.9</ele>
        <time>2026-04-28T06:06:39Z</time>
      </trkpt>
      <trkpt lat="45.03551" lon="3.89928">
        <ele>772.9</ele>
        <time>2026-04-28T06:06:44Z</time>
      </trkpt>
      <trkpt lat="45.03551" lon="3.89928">
        <ele>772.9</ele>
        <time>2026-04-28T06:06:49Z</time>
      </trkpt>
      <trkpt lat="45.03551" lon="3.89928">
        <ele>772.9</ele>
        <time>2026-04-28T06:06:54Z</time>
      </trkpt>
      <trkpt lat="45.03551" lon="3.89928">
        <ele>772.9</ele>
        <time>2026-04-28T06:06:59Z</time>
      </trkpt>
      <trkpt lat="45.03551" lon="3.89928">
        <ele>772.9</ele>
        <time>2026-04-28T06:07:04Z</time>
      </trkpt>
      <trkpt lat="45.03551" lon="3.89928">
        <ele>772.9</ele>
        <time>2026-04-28T06:07:09Z</time>
      </trkpt>
      <trkpt lat="45.03551" lon="3.89928">
        <ele>772.9</ele>
        <time>2026-04-28T06:07:14Z</time>
      </trkpt>
      <trkpt lat="45.03551" lon="3.89928">
        <ele>772.9</ele>
        <time>2026-04-28T06:07:19Z</time>
      </trkpt>
      <trkpt lat="45.03551" lon="3.89928">
        <ele>772.9</ele>
        <time>2026-04-28T06:07:24Z</time>
      </trkpt>
      <trkpt lat="45.03551" lon="3.89928">
        <ele>772.9</ele>
        <time>2026-04-28T06:07:29Z</time>
      </trkpt>
      <trkpt lat="45.03551" lon="3.89928">
        <ele>772.9</ele>
        <time>2026-04-28T06:07:34Z</time>
      </trkpt>
      <trkpt lat="45.03551" lon="3.89928">
        <ele>772.9</ele>
        <time>2026-04-28T06:07:39Z</time>
      </trkpt>
      <trkpt lat="45.03551" lon="3.89928">
        <ele>772.9</ele>
        <time>2026-04-28T06:07:44Z</time>
      </trkpt>
      <trkpt lat="45.03551" lon="3.89928">
        <ele>772.9</ele>
        <time>2026-04-28T06:07:49Z</time>
      </trkpt>
      <trkpt lat="45.03551" lon="3.89928">
        <ele>772.9</ele>
        <time>2026-04-28T06:07:54Z</time>
      </trkpt>
      <trkpt lat="45.03551" lon="3.89928">
        <ele>772.9</ele>
        <time>2026-04-28T06:07:59Z</time>
      </trkpt>
      <trkpt lat="45.03551" lon="3.89928">
        <ele>772.9</ele>
        <time>2026-04-28T06:08:04Z</time>
      </trkpt>
      <trkpt lat="45.03551" lon="3.89928">
        <ele>772.9</ele>
        <time>2026-04-28T06:08:09Z</time>
      </trkpt>
      <trkpt lat="45.03551" lon="3.89928">
        <ele>772.9</ele>
        <time>2026-04-28T06:08:14Z</time>
      </trkpt>
      <trkpt lat="45.03551" lon="3.89928">
        <ele>772.9</ele>
        <time>2026-04-28T06:08:19Z</time>
      </trkpt>
      <trkpt lat="45.03551" lon="3.89928">
        <ele>772.9</ele>
        <time>2026-04-28T06:08:24Z</time>
      </trkpt>
      <trkpt lat="45.03551" lon="3.89928">
        <ele>772.9</ele>
        <time>2026-04-28T06:08:29Z</time>
      </trkpt>
      <trkpt lat="45.03551" lon="3.89928">
        <ele>772.9</ele>
        <time>2026-04-28T06:08:34Z</time>
      </trkpt>
      <trkpt lat="45.03551" lon="3.89928">
        <ele>772.9</ele>
        <time>2026-04-28T06:08:39Z</time>
      </trkpt>
      <trkpt lat="45.03551" lon="3.89928">
        <ele>772.9</ele>
        <time>2026-04-28T06:08:44Z</time>
      </trkpt>
      <trkpt lat="45.03551" lon="3.89928">
        <ele>772.9</ele>
        <time>2026-04-28T06:08:49Z</time>
      </trkpt>
      <trkpt lat="45.03551" lon="3.89928">
        <ele>772.9</ele>
        <time>2026-04-28T06:08:54Z</time>
      </trkpt>
      <trkpt lat="45.03551" lon="3.89928">
        <ele>772.9</ele>
        <time>2026-04-28T06:08:59Z</time>
      </trkpt>
      <trkpt lat="45.03551" lon="3.89928">
        <ele>772.9</ele>
        <time>2026-04-28T06:09:04Z</time>
      </trkpt>
      <trkpt lat="45.03551" lon="3.89928">
        <ele>772.9</ele>
        <time>2026-04-28T06:09:09Z</time>
      </trkpt>
      <trkpt lat="45.03551" lon="3.89928">
        <ele>772.9</ele>
        <time>2026-04-28T06:09:14Z</time>
      </trkpt>
      <trkpt lat="45.03551" lon="3.89928">
        <ele>772.9</ele>
        <time>2026-04-28T06:09:19Z</time>
      </trkpt>
      <trkpt lat="45.03551" lon="3.89928">
        <ele>772.9</ele>
        <time>2026-04-28T06:09:24Z</time>
      </trkpt>
      <trkpt lat="45.03551" lon="3.89928">
        <ele>772.9</ele>
        <time>2026-04-28T06:09:29Z</time>
      </trkpt>
      <trkpt lat="45.03551" lon="3.89928">
        <ele>772.9</ele>
        <time>2026-04-28T06:09:34Z</time>
      </trkpt>
      <trkpt lat="45.03551" lon="3.89928">
        <ele>772.9</ele>
        <time>2026-04-28T06:09:39Z</time>
      </trkpt>
      <trkpt lat="45.03551" lon="3.89928">
        <ele>772.9</ele>
        <time>2026-04-28T06:09:44Z</time>
      </trkpt>
      <trkpt lat="45.03551" lon="3.89928">
        <ele>772.9</ele>
        <time>2026-04-28T06:09:49Z</time>
      </trkpt>
      <trkpt lat="45.03551" lon="3.89928">
        <ele>772.9</ele>
        <time>2026-04-28T06:09:54Z</time>
      </trkpt>
      <trkpt lat="45.03551" lon="3.89928">
        <ele>772.9</ele>
        <time>2026-04-28T06:09:59Z</time>
      </trkpt>
      <trkpt lat="45.03551" lon="3.89928">
        <ele>772.9</ele>
        <time>2026-04-28T06:10:04Z</time>
      </trkpt>
      <trkpt lat="45.03551" lon="3.89928">
        <ele>772.9</ele>
        <time>2026-04-28T06:10:09Z</time>
      </trkpt>
      <trkpt lat="45.03551" lon="3.89928">
        <ele>772.9</ele>
        <time>2026-04-28T06:10:14Z</time>
      </trkpt>
      <trkpt lat="45.03551" lon="3.89928">
        <ele>772.9</ele>
        <time>2026-04-28T06:10:19Z</time>
      </trkpt>
      <trkpt lat="45.03551" lon="3.89928">
        <ele>772.9</ele>
        <time>2026-04-28T06:10:24Z</time>
      </trkpt>
      <trkpt lat="45.03551" lon="3.89928">
        <ele>772.9</ele>
        <time>2026-04-28T06:10:29Z</time>
      </trkpt>
      <trkpt lat="45.03551" lon="3.89928">
        <ele>772.9</ele>
        <time>2026-04-28T06:10:34Z</time>
      </trkpt>
      <trkpt lat="45.03551" lon="3.89928">
        <ele>772.9</ele>
        <time>2026-04-28T06:10:39Z</time>
      </trkpt>
      <trkpt lat="45.03551" lon="3.89928">
        <ele>772.9</ele>
        <time>2026-04-28T06:10:44Z</time>
      </trkpt>
      <trkpt lat="45.03551" lon="3.89928">
        <ele>772.9</ele>
        <time>2026-04-28T06:10:49Z</time>
      </trkpt>
      <trkpt lat="45.03551" lon="3.89928">
        <ele>772.9</ele>
        <time>2026-04-28T06:10:54Z</time>
      </trkpt>
      <trkpt lat="45.03551" lon="3.89928">
        <ele>772.9</ele>
        <time>2026-04-28T06:10:59Z</time>
      </trkpt>
      <trkpt lat="45.03551" lon="3.89928">
        <ele>772.9</ele>
        <time>2026-04-28T06:11:04Z</time>
      </trkpt>
      <trkpt lat="45.03551" lon="3.89928">
        <ele>772.9</ele>
        <time>2026-04-28T06:11:09Z</time>
      </trkpt>
      <trkpt lat="45.03551" lon="3.89928">
        <ele>772.9</ele>
        <time>2026-04-28T06:11:14Z</time>
      </trkpt>
      <trkpt lat="45.03551" lon="3.89928">
        <ele>772.9</ele>
        <time>2026-04-28T06:11:19Z</time>
      </trkpt>
      <trkpt lat="45.03551" lon="3.89928">
        <ele>772.9</ele>
        <time>2026-04-28T06:11:24Z</time>
      </trkpt>
      <trkpt lat="45.03551" lon="3.89928">
        <ele>772.9</ele>
        <time>2026-04-28T06:11:29Z</time>
      </trkpt>
      <trkpt lat="45.03551" lon="3.89928">
        <ele>772.9</ele>
        <time>2026-04-28T06:11:34Z</time>
      </trkpt>
      <trkpt lat="45.03551" lon="3.89928">
        <ele>772.9</ele>
        <time>2026-04-28T06:11:39Z</time>
      </trkpt>
      <trkpt lat="45.03551" lon="3.89928">
        <ele>772.9</ele>
        <time>2026-04-28T06:11:44Z</time>
      </trkpt>
      <trkpt lat="45.03551" lon="3.89928">
        <ele>772.9</ele>
        <time>2026-04-28T06:11:49Z</time>
      </trkpt>
      <trkpt lat="45.03551" lon="3.89928">
        <ele>772.9</ele>
        <time>2026-04-28T06:11:54Z</time>
      </trkpt>
      <trkpt lat="45.03551" lon="3.89928">
        <ele>772.9</ele>
        <time>2026-04-28T06:11:59Z</time>
      </trkpt>
      <trkpt lat="45.03551" lon="3.89928">
        <ele>772.9</ele>
        <time>2026-04-28T06:12:04Z</time>
      </trkpt>
      <trkpt lat="45.03551" lon="3.89928">
        <ele>772.9</ele>
        <time>2026-04-28T06:12:09Z</time>
      </trkpt>
      <trkpt lat="45.03551" lon="3.89928">
        <ele>772.9</ele>
        <time>2026-04-28T06:12:14Z</time>
      </trkpt>
      <trkpt lat="45.03551" lon="3.89928">
        <ele>772.9</ele>
        <time>2026-04-28T06:12:19Z</time>
      </trkpt>
      <trkpt lat="45.03555" lon="3.8994">
        <ele>772</ele>
        <time>2026-04-28T06:12:24Z</time>
      </trkpt>
      <trkpt lat="45.03553" lon="3.89944">
        <ele>772.3</ele>
        <time>2026-04-28T06:12:29Z</time>
      </trkpt>
      <trkpt lat="45.03551" lon="3.89952">
        <ele>772.5</ele>
        <time>2026-04-28T06:12:34Z</time>
      </trkpt>
      <trkpt lat="45.03549" lon="3.89958">
        <ele>772.7</ele>
        <time>2026-04-28T06:12:39Z</time>
      </trkpt>
      <trkpt lat="45.03548" lon="3.89964">
        <ele>772.7</ele>
        <time>2026-04-28T06:12:44Z</time>
      </trkpt>
      <trkpt lat="45.03547" lon="3.89972">
        <ele>772.7</ele>
        <time>2026-04-28T06:12:49Z</time>
      </trkpt>
      <trkpt lat="45.03547" lon="3.89979">
        <ele>772.6</ele>
        <time>2026-04-28T06:12:54Z</time>
      </trkpt>
      <trkpt lat="45.03546" lon="3.89986">
        <ele>772.6</ele>
        <time>2026-04-28T06:12:59Z</time>
      </trkpt>
      <trkpt lat="45.03545" lon="3.8999">
        <ele>772.7</ele>
        <time>2026-04-28T06:13:04Z</time>
      </trkpt>
      <trkpt lat="45.03543" lon="3.89993">
        <ele>772.9</ele>
        <time>2026-04-28T06:13:09Z</time>
      </trkpt>
      <trkpt lat="45.03543" lon="3.89994">
        <ele>772.9</ele>
        <time>2026-04-28T06:13:14Z</time>
      </trkpt>
      <trkpt lat="45.03543" lon="3.89994">
        <ele>772.9</ele>
        <time>2026-04-28T06:13:19Z</time>
      </trkpt>
      <trkpt lat="45.03543" lon="3.89994">
        <ele>772.9</ele>
        <time>2026-04-28T06:13:24Z</time>
      </trkpt>
      <trkpt lat="45.03543" lon="3.89994">
        <ele>772.9</ele>
        <time>2026-04-28T06:13:29Z</time>
      </trkpt>
      <trkpt lat="45.03543" lon="3.89994">
        <ele>772.9</ele>
        <time>2026-04-28T06:13:34Z</time>
      </trkpt>
      <trkpt lat="45.03543" lon="3.89994">
        <ele>772.9</ele>
        <time>2026-04-28T06:13:39Z</time>
      </trkpt>
      <trkpt lat="45.03543" lon="3.89994">
        <ele>772.9</ele>
        <time>2026-04-28T06:13:44Z</time>
      </trkpt>
      <trkpt lat="45.03543" lon="3.89994">
        <ele>772.9</ele>
        <time>2026-04-28T06:13:49Z</time>
      </trkpt>
      <trkpt lat="45.03543" lon="3.89994">
        <ele>772.9</ele>
        <time>2026-04-28T06:13:54Z</time>
      </trkpt>
      <trkpt lat="45.03543" lon="3.89994">
        <ele>772.9</ele>
        <time>2026-04-28T06:13:59Z</time>
      </trkpt>
      <trkpt lat="45.03543" lon="3.89994">
        <ele>772.9</ele>
        <time>2026-04-28T06:14:04Z</time>
      </trkpt>
      <trkpt lat="45.03542" lon="3.89999">
        <ele>773</ele>
        <time>2026-04-28T06:14:09Z</time>
      </trkpt>
      <trkpt lat="45.03542" lon="3.89999">
        <ele>773</ele>
        <time>2026-04-28T06:14:14Z</time>
      </trkpt>
      <trkpt lat="45.03542" lon="3.89999">
        <ele>773</ele>
        <time>2026-04-28T06:14:19Z</time>
      </trkpt>
      <trkpt lat="45.03542" lon="3.89999">
        <ele>773</ele>
        <time>2026-04-28T06:14:24Z</time>
      </trkpt>
      <trkpt lat="45.03542" lon="3.89999">
        <ele>773</ele>
        <time>2026-04-28T06:14:29Z</time>
      </trkpt>
      <trkpt lat="45.03542" lon="3.89999">
        <ele>773</ele>
        <time>2026-04-28T06:14:34Z</time>
      </trkpt>
      <trkpt lat="45.03542" lon="3.89999">
        <ele>773</ele>
        <time>2026-04-28T06:14:39Z</time>
      </trkpt>
      <trkpt lat="45.03542" lon="3.89999">
        <ele>773</ele>
        <time>2026-04-28T06:14:44Z</time>
      </trkpt>
      <trkpt lat="45.03542" lon="3.89999">
        <ele>773</ele>
        <time>2026-04-28T06:14:49Z</time>
      </trkpt>
      <trkpt lat="45.03542" lon="3.89999">
        <ele>773</ele>
        <time>2026-04-28T06:14:54Z</time>
      </trkpt>
      <trkpt lat="45.03542" lon="3.89999">
        <ele>773</ele>
        <time>2026-04-28T06:14:59Z</time>
      </trkpt>
      <trkpt lat="45.03546" lon="3.89997">
        <ele>772.4</ele>
        <time>2026-04-28T06:15:04Z</time>
      </trkpt>
      <trkpt lat="45.03546" lon="3.89998">
        <ele>772.4</ele>
        <time>2026-04-28T06:15:09Z</time>
      </trkpt>
      <trkpt lat="45.03543" lon="3.90007">
        <ele>773.1</ele>
        <time>2026-04-28T06:15:14Z</time>
      </trkpt>
      <trkpt lat="45.03537" lon="3.90019">
        <ele>774.4</ele>
        <time>2026-04-28T06:15:19Z</time>
      </trkpt>
      <trkpt lat="45.03534" lon="3.90027">
        <ele>775.1</ele>
        <time>2026-04-28T06:15:24Z</time>
      </trkpt>
      <trkpt lat="45.03532" lon="3.90033">
        <ele>775.5</ele>
        <time>2026-04-28T06:15:29Z</time>
      </trkpt>
      <trkpt lat="45.03529" lon="3.9004">
        <ele>776.1</ele>
        <time>2026-04-28T06:15:34Z</time>
      </trkpt>
      <trkpt lat="45.03526" lon="3.90046">
        <ele>776.7</ele>
        <time>2026-04-28T06:15:39Z</time>
      </trkpt>
      <trkpt lat="45.03523" lon="3.90049">
        <ele>777.1</ele>
        <time>2026-04-28T06:15:44Z</time>
      </trkpt>
      <trkpt lat="45.03517" lon="3.90052">
        <ele>777.8</ele>
        <time>2026-04-28T06:15:49Z</time>
      </trkpt>
      <trkpt lat="45.03513" lon="3.90056">
        <ele>778.3</ele>
        <time>2026-04-28T06:15:54Z</time>
      </trkpt>
      <trkpt lat="45.03509" lon="3.90059">
        <ele>778.8</ele>
        <time>2026-04-28T06:15:59Z</time>
      </trkpt>
      <trkpt lat="45.03506" lon="3.90063">
        <ele>779.2</ele>
        <time>2026-04-28T06:16:04Z</time>
      </trkpt>
      <trkpt lat="45.03502" lon="3.90068">
        <ele>779.6</ele>
        <time>2026-04-28T06:16:09Z</time>
      </trkpt>
      <trkpt lat="45.03499" lon="3.90071">
        <ele>779.9</ele>
        <time>2026-04-28T06:16:14Z</time>
      </trkpt>
      <trkpt lat="45.03496" lon="3.90076">
        <ele>779.9</ele>
        <time>2026-04-28T06:16:19Z</time>
      </trkpt>
      <trkpt lat="45.03494" lon="3.90083">
        <ele>780</ele>
        <time>2026-04-28T06:16:24Z</time>
      </trkpt>
      <trkpt lat="45.03493" lon="3.90089">
        <ele>780.1</ele>
        <time>2026-04-28T06:16:29Z</time>
      </trkpt>
      <trkpt lat="45.03493" lon="3.90094">
        <ele>780.1</ele>
        <time>2026-04-28T06:16:34Z</time>
      </trkpt>
      <trkpt lat="45.03491" lon="3.90101">
        <ele>780.2</ele>
        <time>2026-04-28T06:16:39Z</time>
      </trkpt>
      <trkpt lat="45.03491" lon="3.90106">
        <ele>780.2</ele>
        <time>2026-04-28T06:16:44Z</time>
      </trkpt>
      <trkpt lat="45.0349" lon="3.90111">
        <ele>780.3</ele>
        <time>2026-04-28T06:16:49Z</time>
      </trkpt>
      <trkpt lat="45.03487" lon="3.90115">
        <ele>780.3</ele>
        <time>2026-04-28T06:16:54Z</time>
      </trkpt>
      <trkpt lat="45.03483" lon="3.90118">
        <ele>780.2</ele>
        <time>2026-04-28T06:16:59Z</time>
      </trkpt>
      <trkpt lat="45.03483" lon="3.90119">
        <ele>780.3</ele>
        <time>2026-04-28T06:17:04Z</time>
      </trkpt>
      <trkpt lat="45.03483" lon="3.90119">
        <ele>780.3</ele>
        <time>2026-04-28T06:17:09Z</time>
      </trkpt>
      <trkpt lat="45.03477" lon="3.90121">
        <ele>780.2</ele>
        <time>2026-04-28T06:17:14Z</time>
      </trkpt>
      <trkpt lat="45.0347" lon="3.90123">
        <ele>780.1</ele>
        <time>2026-04-28T06:17:19Z</time>
      </trkpt>
      <trkpt lat="45.03463" lon="3.90124">
        <ele>780.1</ele>
        <time>2026-04-28T06:17:24Z</time>
      </trkpt>
      <trkpt lat="45.03457" lon="3.90127">
        <ele>780</ele>
        <time>2026-04-28T06:17:29Z</time>
      </trkpt>
      <trkpt lat="45.03451" lon="3.90131">
        <ele>779.9</ele>
        <time>2026-04-28T06:17:34Z</time>
      </trkpt>
      <trkpt lat="45.03445" lon="3.90133">
        <ele>779.8</ele>
        <time>2026-04-28T06:17:39Z</time>
      </trkpt>
      <trkpt lat="45.03438" lon="3.90135">
        <ele>779.7</ele>
        <time>2026-04-28T06:17:44Z</time>
      </trkpt>
      <trkpt lat="45.03432" lon="3.90138">
        <ele>779.6</ele>
        <time>2026-04-28T06:17:49Z</time>
      </trkpt>
      <trkpt lat="45.03426" lon="3.90143">
        <ele>779.4</ele>
        <time>2026-04-28T06:17:54Z</time>
      </trkpt>
      <trkpt lat="45.03419" lon="3.90142">
        <ele>779.3</ele>
        <time>2026-04-28T06:17:59Z</time>
      </trkpt>
      <trkpt lat="45.03413" lon="3.90143">
        <ele>779</ele>
        <time>2026-04-28T06:18:04Z</time>
      </trkpt>
      <trkpt lat="45.03406" lon="3.90147">
        <ele>778.4</ele>
        <time>2026-04-28T06:18:09Z</time>
      </trkpt>
      <trkpt lat="45.03398" lon="3.90151">
        <ele>777.7</ele>
        <time>2026-04-28T06:18:14Z</time>
      </trkpt>
      <trkpt lat="45.03391" lon="3.90154">
        <ele>777.1</ele>
        <time>2026-04-28T06:18:19Z</time>
      </trkpt>
      <trkpt lat="45.03384" lon="3.90156">
        <ele>776.5</ele>
        <time>2026-04-28T06:18:24Z</time>
      </trkpt>
      <trkpt lat="45.03377" lon="3.9016">
        <ele>775.9</ele>
        <time>2026-04-28T06:18:29Z</time>
      </trkpt>
      <trkpt lat="45.03369" lon="3.90163">
        <ele>775.1</ele>
        <time>2026-04-28T06:18:34Z</time>
      </trkpt>
      <trkpt lat="45.03363" lon="3.90163">
        <ele>774.6</ele>
        <time>2026-04-28T06:18:39Z</time>
      </trkpt>
      <trkpt lat="45.03361" lon="3.90164">
        <ele>774.4</ele>
        <time>2026-04-28T06:18:44Z</time>
      </trkpt>
      <trkpt lat="45.03356" lon="3.90167">
        <ele>773.9</ele>
        <time>2026-04-28T06:18:49Z</time>
      </trkpt>
      <trkpt lat="45.03349" lon="3.90173">
        <ele>773</ele>
        <time>2026-04-28T06:18:54Z</time>
      </trkpt>
      <trkpt lat="45.03343" lon="3.90179">
        <ele>772.1</ele>
        <time>2026-04-28T06:18:59Z</time>
      </trkpt>
      <trkpt lat="45.03338" lon="3.90182">
        <ele>771.5</ele>
        <time>2026-04-28T06:19:04Z</time>
      </trkpt>
      <trkpt lat="45.03333" lon="3.90187">
        <ele>770.7</ele>
        <time>2026-04-28T06:19:09Z</time>
      </trkpt>
      <trkpt lat="45.03326" lon="3.9019">
        <ele>769.7</ele>
        <time>2026-04-28T06:19:14Z</time>
      </trkpt>
      <trkpt lat="45.0332" lon="3.90199">
        <ele>768.4</ele>
        <time>2026-04-28T06:19:19Z</time>
      </trkpt>
      <trkpt lat="45.03312" lon="3.90206">
        <ele>767</ele>
        <time>2026-04-28T06:19:24Z</time>
      </trkpt>
      <trkpt lat="45.03306" lon="3.90211">
        <ele>765.9</ele>
        <time>2026-04-28T06:19:29Z</time>
      </trkpt>
      <trkpt lat="45.03304" lon="3.90211">
        <ele>765.6</ele>
        <time>2026-04-28T06:19:34Z</time>
      </trkpt>
      <trkpt lat="45.03304" lon="3.90211">
        <ele>765.6</ele>
        <time>2026-04-28T06:19:39Z</time>
      </trkpt>
      <trkpt lat="45.03304" lon="3.90211">
        <ele>765.6</ele>
        <time>2026-04-28T06:19:44Z</time>
      </trkpt>
      <trkpt lat="45.033" lon="3.90208">
        <ele>765.3</ele>
        <time>2026-04-28T06:19:49Z</time>
      </trkpt>
      <trkpt lat="45.03293" lon="3.90204">
        <ele>764.7</ele>
        <time>2026-04-28T06:19:54Z</time>
      </trkpt>
      <trkpt lat="45.03287" lon="3.90198">
        <ele>764.4</ele>
        <time>2026-04-28T06:19:59Z</time>
      </trkpt>
      <trkpt lat="45.03282" lon="3.90193">
        <ele>764.1</ele>
        <time>2026-04-28T06:20:04Z</time>
      </trkpt>
      <trkpt lat="45.03277" lon="3.90186">
        <ele>763.9</ele>
        <time>2026-04-28T06:20:09Z</time>
      </trkpt>
      <trkpt lat="45.03271" lon="3.90179">
        <ele>763.7</ele>
        <time>2026-04-28T06:20:14Z</time>
      </trkpt>
      <trkpt lat="45.03263" lon="3.90175">
        <ele>763</ele>
        <time>2026-04-28T06:20:19Z</time>
      </trkpt>
      <trkpt lat="45.03255" lon="3.90175">
        <ele>762</ele>
        <time>2026-04-28T06:20:24Z</time>
      </trkpt>
      <trkpt lat="45.03249" lon="3.90176">
        <ele>761.5</ele>
        <time>2026-04-28T06:20:29Z</time>
      </trkpt>
      <trkpt lat="45.03241" lon="3.90181">
        <ele>762.3</ele>
        <time>2026-04-28T06:20:34Z</time>
      </trkpt>
      <trkpt lat="45.03236" lon="3.90188">
        <ele>762.3</ele>
        <time>2026-04-28T06:20:39Z</time>
      </trkpt>
      <trkpt lat="45.03229" lon="3.90194">
        <ele>762.6</ele>
        <time>2026-04-28T06:20:44Z</time>
      </trkpt>
      <trkpt lat="45.03226" lon="3.90205">
        <ele>761.7</ele>
        <time>2026-04-28T06:20:49Z</time>
      </trkpt>
      <trkpt lat="45.03223" lon="3.90214">
        <ele>760.9</ele>
        <time>2026-04-28T06:20:54Z</time>
      </trkpt>
      <trkpt lat="45.03222" lon="3.90226">
        <ele>759.6</ele>
        <time>2026-04-28T06:20:59Z</time>
      </trkpt>
      <trkpt lat="45.03221" lon="3.90236">
        <ele>758.4</ele>
        <time>2026-04-28T06:21:04Z</time>
      </trkpt>
      <trkpt lat="45.03219" lon="3.90246">
        <ele>757.2</ele>
        <time>2026-04-28T06:21:09Z</time>
      </trkpt>
      <trkpt lat="45.03212" lon="3.90256">
        <ele>756.5</ele>
        <time>2026-04-28T06:21:14Z</time>
      </trkpt>
      <trkpt lat="45.03205" lon="3.9026">
        <ele>756.3</ele>
        <time>2026-04-28T06:21:19Z</time>
      </trkpt>
      <trkpt lat="45.03196" lon="3.9026">
        <ele>756.5</ele>
        <time>2026-04-28T06:21:24Z</time>
      </trkpt>
      <trkpt lat="45.03187" lon="3.90261">
        <ele>756.6</ele>
        <time>2026-04-28T06:21:29Z</time>
      </trkpt>
      <trkpt lat="45.03179" lon="3.90261">
        <ele>756.7</ele>
        <time>2026-04-28T06:21:34Z</time>
      </trkpt>
      <trkpt lat="45.03172" lon="3.90261">
        <ele>756.8</ele>
        <time>2026-04-28T06:21:39Z</time>
      </trkpt>
      <trkpt lat="45.03165" lon="3.90263">
        <ele>756.8</ele>
        <time>2026-04-28T06:21:44Z</time>
      </trkpt>
      <trkpt lat="45.03163" lon="3.90262">
        <ele>756.9</ele>
        <time>2026-04-28T06:21:49Z</time>
      </trkpt>
      <trkpt lat="45.03161" lon="3.90269">
        <ele>756.2</ele>
        <time>2026-04-28T06:21:54Z</time>
      </trkpt>
      <trkpt lat="45.03155" lon="3.90279">
        <ele>755.4</ele>
        <time>2026-04-28T06:21:59Z</time>
      </trkpt>
      <trkpt lat="45.03153" lon="3.90289">
        <ele>754.4</ele>
        <time>2026-04-28T06:22:04Z</time>
      </trkpt>
      <trkpt lat="45.03152" lon="3.903">
        <ele>753.4</ele>
        <time>2026-04-28T06:22:09Z</time>
      </trkpt>
      <trkpt lat="45.03153" lon="3.90312">
        <ele>752.2</ele>
        <time>2026-04-28T06:22:14Z</time>
      </trkpt>
      <trkpt lat="45.03154" lon="3.90324">
        <ele>751</ele>
        <time>2026-04-28T06:22:19Z</time>
      </trkpt>
      <trkpt lat="45.03157" lon="3.90335">
        <ele>750.1</ele>
        <time>2026-04-28T06:22:24Z</time>
      </trkpt>
      <trkpt lat="45.03159" lon="3.90344">
        <ele>749.8</ele>
        <time>2026-04-28T06:22:29Z</time>
      </trkpt>
      <trkpt lat="45.03159" lon="3.90354">
        <ele>749.6</ele>
        <time>2026-04-28T06:22:34Z</time>
      </trkpt>
      <trkpt lat="45.03161" lon="3.90364">
        <ele>749.3</ele>
        <time>2026-04-28T06:22:39Z</time>
      </trkpt>
      <trkpt lat="45.03162" lon="3.90375">
        <ele>749</ele>
        <time>2026-04-28T06:22:44Z</time>
      </trkpt>
      <trkpt lat="45.03165" lon="3.90386">
        <ele>748.7</ele>
        <time>2026-04-28T06:22:49Z</time>
      </trkpt>
      <trkpt lat="45.03166" lon="3.90396">
        <ele>748.5</ele>
        <time>2026-04-28T06:22:54Z</time>
      </trkpt>
      <trkpt lat="45.03166" lon="3.90408">
        <ele>748.2</ele>
        <time>2026-04-28T06:22:59Z</time>
      </trkpt>
      <trkpt lat="45.03167" lon="3.90419">
        <ele>748</ele>
        <time>2026-04-28T06:23:04Z</time>
      </trkpt>
      <trkpt lat="45.03169" lon="3.9043">
        <ele>747.7</ele>
        <time>2026-04-28T06:23:09Z</time>
      </trkpt>
      <trkpt lat="45.03171" lon="3.90442">
        <ele>747.5</ele>
        <time>2026-04-28T06:23:14Z</time>
      </trkpt>
      <trkpt lat="45.03172" lon="3.90452">
        <ele>747.3</ele>
        <time>2026-04-28T06:23:19Z</time>
      </trkpt>
      <trkpt lat="45.03173" lon="3.90461">
        <ele>747</ele>
        <time>2026-04-28T06:23:24Z</time>
      </trkpt>
      <trkpt lat="45.03174" lon="3.90472">
        <ele>746.8</ele>
        <time>2026-04-28T06:23:29Z</time>
      </trkpt>
      <trkpt lat="45.03174" lon="3.90483">
        <ele>746.5</ele>
        <time>2026-04-28T06:23:34Z</time>
      </trkpt>
      <trkpt lat="45.03174" lon="3.90493">
        <ele>746.3</ele>
        <time>2026-04-28T06:23:39Z</time>
      </trkpt>
      <trkpt lat="45.03174" lon="3.90504">
        <ele>746.2</ele>
        <time>2026-04-28T06:23:44Z</time>
      </trkpt>
      <trkpt lat="45.03173" lon="3.90517">
        <ele>746.5</ele>
        <time>2026-04-28T06:23:49Z</time>
      </trkpt>
      <trkpt lat="45.03171" lon="3.90527">
        <ele>746.7</ele>
        <time>2026-04-28T06:23:54Z</time>
      </trkpt>
      <trkpt lat="45.03165" lon="3.90534">
        <ele>746.9</ele>
        <time>2026-04-28T06:23:59Z</time>
      </trkpt>
      <trkpt lat="45.03156" lon="3.90541">
        <ele>747.3</ele>
        <time>2026-04-28T06:24:04Z</time>
      </trkpt>
      <trkpt lat="45.03148" lon="3.90543">
        <ele>747.6</ele>
        <time>2026-04-28T06:24:09Z</time>
      </trkpt>
      <trkpt lat="45.0314" lon="3.90544">
        <ele>747.8</ele>
        <time>2026-04-28T06:24:14Z</time>
      </trkpt>
      <trkpt lat="45.03132" lon="3.90547">
        <ele>748.1</ele>
        <time>2026-04-28T06:24:19Z</time>
      </trkpt>
      <trkpt lat="45.03124" lon="3.90549">
        <ele>748.4</ele>
        <time>2026-04-28T06:24:24Z</time>
      </trkpt>
      <trkpt lat="45.03115" lon="3.9055">
        <ele>748.7</ele>
        <time>2026-04-28T06:24:29Z</time>
      </trkpt>
      <trkpt lat="45.03108" lon="3.90553">
        <ele>748.9</ele>
        <time>2026-04-28T06:24:34Z</time>
      </trkpt>
      <trkpt lat="45.03102" lon="3.90558">
        <ele>749.2</ele>
        <time>2026-04-28T06:24:39Z</time>
      </trkpt>
      <trkpt lat="45.031" lon="3.90568">
        <ele>749.4</ele>
        <time>2026-04-28T06:24:44Z</time>
      </trkpt>
      <trkpt lat="45.03101" lon="3.90579">
        <ele>749.5</ele>
        <time>2026-04-28T06:24:49Z</time>
      </trkpt>
      <trkpt lat="45.03102" lon="3.90589">
        <ele>749.7</ele>
        <time>2026-04-28T06:24:54Z</time>
      </trkpt>
      <trkpt lat="45.03104" lon="3.90595">
        <ele>749.9</ele>
        <time>2026-04-28T06:24:59Z</time>
      </trkpt>
      <trkpt lat="45.03106" lon="3.90608">
        <ele>750.3</ele>
        <time>2026-04-28T06:25:04Z</time>
      </trkpt>
      <trkpt lat="45.03105" lon="3.90616">
        <ele>750.6</ele>
        <time>2026-04-28T06:25:09Z</time>
      </trkpt>
      <trkpt lat="45.03093" lon="3.90621">
        <ele>750.8</ele>
        <time>2026-04-28T06:25:14Z</time>
      </trkpt>
      <trkpt lat="45.03097" lon="3.90637">
        <ele>751.3</ele>
        <time>2026-04-28T06:25:19Z</time>
      </trkpt>
      <trkpt lat="45.03101" lon="3.90653">
        <ele>751.8</ele>
        <time>2026-04-28T06:25:24Z</time>
      </trkpt>
      <trkpt lat="45.03105" lon="3.90663">
        <ele>752.1</ele>
        <time>2026-04-28T06:25:29Z</time>
      </trkpt>
      <trkpt lat="45.03106" lon="3.90673">
        <ele>752.8</ele>
        <time>2026-04-28T06:25:34Z</time>
      </trkpt>
      <trkpt lat="45.03109" lon="3.9068">
        <ele>753.4</ele>
        <time>2026-04-28T06:25:39Z</time>
      </trkpt>
      <trkpt lat="45.03113" lon="3.90688">
        <ele>754</ele>
        <time>2026-04-28T06:25:44Z</time>
      </trkpt>
      <trkpt lat="45.03115" lon="3.90697">
        <ele>754.7</ele>
        <time>2026-04-28T06:25:49Z</time>
      </trkpt>
      <trkpt lat="45.03113" lon="3.90704">
        <ele>755.3</ele>
        <time>2026-04-28T06:25:54Z</time>
      </trkpt>
      <trkpt lat="45.0311" lon="3.90709">
        <ele>755.7</ele>
        <time>2026-04-28T06:25:59Z</time>
      </trkpt>
      <trkpt lat="45.03105" lon="3.90714">
        <ele>756.2</ele>
        <time>2026-04-28T06:26:04Z</time>
      </trkpt>
      <trkpt lat="45.03099" lon="3.90718">
        <ele>756.7</ele>
        <time>2026-04-28T06:26:09Z</time>
      </trkpt>
      <trkpt lat="45.03094" lon="3.90722">
        <ele>757.1</ele>
        <time>2026-04-28T06:26:14Z</time>
      </trkpt>
      <trkpt lat="45.03089" lon="3.90725">
        <ele>757.5</ele>
        <time>2026-04-28T06:26:19Z</time>
      </trkpt>
      <trkpt lat="45.03084" lon="3.90728">
        <ele>757.9</ele>
        <time>2026-04-28T06:26:24Z</time>
      </trkpt>
      <trkpt lat="45.03079" lon="3.90731">
        <ele>758.5</ele>
        <time>2026-04-28T06:26:29Z</time>
      </trkpt>
      <trkpt lat="45.03073" lon="3.90735">
        <ele>759.3</ele>
        <time>2026-04-28T06:26:34Z</time>
      </trkpt>
      <trkpt lat="45.03067" lon="3.90738">
        <ele>760</ele>
        <time>2026-04-28T06:26:39Z</time>
      </trkpt>
      <trkpt lat="45.03061" lon="3.90741">
        <ele>760.7</ele>
        <time>2026-04-28T06:26:44Z</time>
      </trkpt>
      <trkpt lat="45.03056" lon="3.90743">
        <ele>761.3</ele>
        <time>2026-04-28T06:26:49Z</time>
      </trkpt>
      <trkpt lat="45.0305" lon="3.90744">
        <ele>761.8</ele>
        <time>2026-04-28T06:26:54Z</time>
      </trkpt>
      <trkpt lat="45.03043" lon="3.90745">
        <ele>762.4</ele>
        <time>2026-04-28T06:26:59Z</time>
      </trkpt>
      <trkpt lat="45.03037" lon="3.90747">
        <ele>763</ele>
        <time>2026-04-28T06:27:04Z</time>
      </trkpt>
      <trkpt lat="45.03031" lon="3.90751">
        <ele>763.9</ele>
        <time>2026-04-28T06:27:09Z</time>
      </trkpt>
      <trkpt lat="45.03025" lon="3.90753">
        <ele>764.5</ele>
        <time>2026-04-28T06:27:14Z</time>
      </trkpt>
      <trkpt lat="45.03018" lon="3.90758">
        <ele>765.6</ele>
        <time>2026-04-28T06:27:19Z</time>
      </trkpt>
      <trkpt lat="45.03013" lon="3.90766">
        <ele>766.9</ele>
        <time>2026-04-28T06:27:24Z</time>
      </trkpt>
      <trkpt lat="45.03008" lon="3.90772">
        <ele>768</ele>
        <time>2026-04-28T06:27:29Z</time>
      </trkpt>
      <trkpt lat="45.03004" lon="3.90779">
        <ele>769.1</ele>
        <time>2026-04-28T06:27:34Z</time>
      </trkpt>
      <trkpt lat="45.03001" lon="3.90785">
        <ele>770.1</ele>
        <time>2026-04-28T06:27:39Z</time>
      </trkpt>
      <trkpt lat="45.02997" lon="3.90793">
        <ele>771.5</ele>
        <time>2026-04-28T06:27:44Z</time>
      </trkpt>
      <trkpt lat="45.02992" lon="3.90798">
        <ele>772.6</ele>
        <time>2026-04-28T06:27:49Z</time>
      </trkpt>
      <trkpt lat="45.02988" lon="3.90803">
        <ele>773.7</ele>
        <time>2026-04-28T06:27:54Z</time>
      </trkpt>
      <trkpt lat="45.02983" lon="3.90808">
        <ele>774.9</ele>
        <time>2026-04-28T06:27:59Z</time>
      </trkpt>
      <trkpt lat="45.02978" lon="3.90813">
        <ele>776.1</ele>
        <time>2026-04-28T06:28:04Z</time>
      </trkpt>
      <trkpt lat="45.02973" lon="3.90817">
        <ele>777.3</ele>
        <time>2026-04-28T06:28:09Z</time>
      </trkpt>
      <trkpt lat="45.02969" lon="3.90821">
        <ele>778.3</ele>
        <time>2026-04-28T06:28:14Z</time>
      </trkpt>
      <trkpt lat="45.02965" lon="3.90825">
        <ele>779.4</ele>
        <time>2026-04-28T06:28:19Z</time>
      </trkpt>
      <trkpt lat="45.02963" lon="3.90829">
        <ele>780.2</ele>
        <time>2026-04-28T06:28:24Z</time>
      </trkpt>
      <trkpt lat="45.02961" lon="3.90833">
        <ele>781.1</ele>
        <time>2026-04-28T06:28:29Z</time>
      </trkpt>
      <trkpt lat="45.02959" lon="3.90837">
        <ele>781.9</ele>
        <time>2026-04-28T06:28:34Z</time>
      </trkpt>
      <trkpt lat="45.02956" lon="3.90841">
        <ele>782.7</ele>
        <time>2026-04-28T06:28:39Z</time>
      </trkpt>
      <trkpt lat="45.02954" lon="3.90846">
        <ele>783.6</ele>
        <time>2026-04-28T06:28:44Z</time>
      </trkpt>
      <trkpt lat="45.02951" lon="3.90851">
        <ele>784.6</ele>
        <time>2026-04-28T06:28:49Z</time>
      </trkpt>
      <trkpt lat="45.02949" lon="3.90856">
        <ele>785.5</ele>
        <time>2026-04-28T06:28:54Z</time>
      </trkpt>
      <trkpt lat="45.02946" lon="3.90861">
        <ele>786.4</ele>
        <time>2026-04-28T06:28:59Z</time>
      </trkpt>
      <trkpt lat="45.02943" lon="3.90866">
        <ele>787.4</ele>
        <time>2026-04-28T06:29:04Z</time>
      </trkpt>
      <trkpt lat="45.02943" lon="3.90867">
        <ele>787.6</ele>
        <time>2026-04-28T06:29:09Z</time>
      </trkpt>
      <trkpt lat="45.02939" lon="3.90876">
        <ele>789.2</ele>
        <time>2026-04-28T06:29:14Z</time>
      </trkpt>
      <trkpt lat="45.02935" lon="3.90879">
        <ele>790.1</ele>
        <time>2026-04-28T06:29:19Z</time>
      </trkpt>
      <trkpt lat="45.02933" lon="3.90882">
        <ele>790.7</ele>
        <time>2026-04-28T06:29:24Z</time>
      </trkpt>
      <trkpt lat="45.0293" lon="3.90884">
        <ele>791.3</ele>
        <time>2026-04-28T06:29:29Z</time>
      </trkpt>
      <trkpt lat="45.02928" lon="3.90885">
        <ele>791.7</ele>
        <time>2026-04-28T06:29:34Z</time>
      </trkpt>
      <trkpt lat="45.02928" lon="3.90885">
        <ele>791.7</ele>
        <time>2026-04-28T06:29:39Z</time>
      </trkpt>
      <trkpt lat="45.02928" lon="3.90885">
        <ele>791.7</ele>
        <time>2026-04-28T06:29:44Z</time>
      </trkpt>
      <trkpt lat="45.02928" lon="3.90885">
        <ele>791.7</ele>
        <time>2026-04-28T06:29:49Z</time>
      </trkpt>
      <trkpt lat="45.0292" lon="3.90897">
        <ele>794.2</ele>
        <time>2026-04-28T06:29:54Z</time>
      </trkpt>
      <trkpt lat="45.0292" lon="3.90897">
        <ele>794.2</ele>
        <time>2026-04-28T06:29:59Z</time>
      </trkpt>
      <trkpt lat="45.0292" lon="3.90897">
        <ele>794.2</ele>
        <time>2026-04-28T06:30:04Z</time>
      </trkpt>
      <trkpt lat="45.0292" lon="3.90897">
        <ele>794.2</ele>
        <time>2026-04-28T06:30:09Z</time>
      </trkpt>
      <trkpt lat="45.02911" lon="3.90905">
        <ele>795.7</ele>
        <time>2026-04-28T06:30:14Z</time>
      </trkpt>
      <trkpt lat="45.02911" lon="3.90905">
        <ele>795.7</ele>
        <time>2026-04-28T06:30:19Z</time>
      </trkpt>
      <trkpt lat="45.02911" lon="3.90905">
        <ele>795.7</ele>
        <time>2026-04-28T06:30:24Z</time>
      </trkpt>
      <trkpt lat="45.02911" lon="3.90905">
        <ele>795.7</ele>
        <time>2026-04-28T06:30:29Z</time>
      </trkpt>
      <trkpt lat="45.02899" lon="3.90911">
        <ele>796.7</ele>
        <time>2026-04-28T06:30:34Z</time>
      </trkpt>
      <trkpt lat="45.02895" lon="3.90911">
        <ele>796.8</ele>
        <time>2026-04-28T06:30:39Z</time>
      </trkpt>
      <trkpt lat="45.02891" lon="3.90912">
        <ele>797</ele>
        <time>2026-04-28T06:30:44Z</time>
      </trkpt>
      <trkpt lat="45.02889" lon="3.90914">
        <ele>797.3</ele>
        <time>2026-04-28T06:30:49Z</time>
      </trkpt>
      <trkpt lat="45.02887" lon="3.90915">
        <ele>797.5</ele>
        <time>2026-04-28T06:30:54Z</time>
      </trkpt>
      <trkpt lat="45.02884" lon="3.90917">
        <ele>797.8</ele>
        <time>2026-04-28T06:30:59Z</time>
      </trkpt>
      <trkpt lat="45.02884" lon="3.90917">
        <ele>797.8</ele>
        <time>2026-04-28T06:31:04Z</time>
      </trkpt>
      <trkpt lat="45.02884" lon="3.90917">
        <ele>797.8</ele>
        <time>2026-04-28T06:31:09Z</time>
      </trkpt>
      <trkpt lat="45.02884" lon="3.90917">
        <ele>797.8</ele>
        <time>2026-04-28T06:31:14Z</time>
      </trkpt>
      <trkpt lat="45.02874" lon="3.90924">
        <ele>799</ele>
        <time>2026-04-28T06:31:19Z</time>
      </trkpt>
      <trkpt lat="45.02871" lon="3.90926">
        <ele>799.3</ele>
        <time>2026-04-28T06:31:24Z</time>
      </trkpt>
      <trkpt lat="45.02868" lon="3.9093">
        <ele>799.9</ele>
        <time>2026-04-28T06:31:29Z</time>
      </trkpt>
      <trkpt lat="45.02867" lon="3.90931">
        <ele>800</ele>
        <time>2026-04-28T06:31:34Z</time>
      </trkpt>
      <trkpt lat="45.02862" lon="3.90936">
        <ele>800.9</ele>
        <time>2026-04-28T06:31:39Z</time>
      </trkpt>
      <trkpt lat="45.02858" lon="3.90938">
        <ele>801.3</ele>
        <time>2026-04-28T06:31:44Z</time>
      </trkpt>
      <trkpt lat="45.02857" lon="3.9094">
        <ele>801.6</ele>
        <time>2026-04-28T06:31:49Z</time>
      </trkpt>
      <trkpt lat="45.02852" lon="3.90941">
        <ele>801.9</ele>
        <time>2026-04-28T06:31:54Z</time>
      </trkpt>
      <trkpt lat="45.02849" lon="3.90943">
        <ele>802.2</ele>
        <time>2026-04-28T06:31:59Z</time>
      </trkpt>
      <trkpt lat="45.02845" lon="3.90946">
        <ele>802.8</ele>
        <time>2026-04-28T06:32:04Z</time>
      </trkpt>
      <trkpt lat="45.02841" lon="3.90948">
        <ele>803.2</ele>
        <time>2026-04-28T06:32:09Z</time>
      </trkpt>
      <trkpt lat="45.02837" lon="3.9095">
        <ele>803.7</ele>
        <time>2026-04-28T06:32:14Z</time>
      </trkpt>
      <trkpt lat="45.02834" lon="3.90952">
        <ele>804.1</ele>
        <time>2026-04-28T06:32:19Z</time>
      </trkpt>
      <trkpt lat="45.02831" lon="3.90953">
        <ele>804.4</ele>
        <time>2026-04-28T06:32:24Z</time>
      </trkpt>
      <trkpt lat="45.02828" lon="3.90956">
        <ele>805</ele>
        <time>2026-04-28T06:32:29Z</time>
      </trkpt>
      <trkpt lat="45.02825" lon="3.90957">
        <ele>805.4</ele>
        <time>2026-04-28T06:32:34Z</time>
      </trkpt>
      <trkpt lat="45.02823" lon="3.90959">
        <ele>805.8</ele>
        <time>2026-04-28T06:32:39Z</time>
      </trkpt>
      <trkpt lat="45.02819" lon="3.90961">
        <ele>806.3</ele>
        <time>2026-04-28T06:32:44Z</time>
      </trkpt>
      <trkpt lat="45.02815" lon="3.90963">
        <ele>806.8</ele>
        <time>2026-04-28T06:32:49Z</time>
      </trkpt>
      <trkpt lat="45.02812" lon="3.90967">
        <ele>807.5</ele>
        <time>2026-04-28T06:32:54Z</time>
      </trkpt>
      <trkpt lat="45.02807" lon="3.90969">
        <ele>808.1</ele>
        <time>2026-04-28T06:32:59Z</time>
      </trkpt>
      <trkpt lat="45.02807" lon="3.90968">
        <ele>807.9</ele>
        <time>2026-04-28T06:33:04Z</time>
      </trkpt>
      <trkpt lat="45.02806" lon="3.90968">
        <ele>808</ele>
        <time>2026-04-28T06:33:09Z</time>
      </trkpt>
      <trkpt lat="45.02806" lon="3.90968">
        <ele>808</ele>
        <time>2026-04-28T06:33:14Z</time>
      </trkpt>
      <trkpt lat="45.02806" lon="3.90968">
        <ele>808</ele>
        <time>2026-04-28T06:33:19Z</time>
      </trkpt>
      <trkpt lat="45.02806" lon="3.90968">
        <ele>808</ele>
        <time>2026-04-28T06:33:24Z</time>
      </trkpt>
      <trkpt lat="45.02806" lon="3.90968">
        <ele>808</ele>
        <time>2026-04-28T06:33:29Z</time>
      </trkpt>
      <trkpt lat="45.02806" lon="3.90968">
        <ele>808</ele>
        <time>2026-04-28T06:33:34Z</time>
      </trkpt>
      <trkpt lat="45.02806" lon="3.90968">
        <ele>808</ele>
        <time>2026-04-28T06:33:39Z</time>
      </trkpt>
      <trkpt lat="45.02806" lon="3.90968">
        <ele>808</ele>
        <time>2026-04-28T06:33:44Z</time>
      </trkpt>
      <trkpt lat="45.02806" lon="3.90968">
        <ele>808</ele>
        <time>2026-04-28T06:33:49Z</time>
      </trkpt>
      <trkpt lat="45.02806" lon="3.90968">
        <ele>808</ele>
        <time>2026-04-28T06:33:54Z</time>
      </trkpt>
      <trkpt lat="45.02806" lon="3.90968">
        <ele>808</ele>
        <time>2026-04-28T06:33:59Z</time>
      </trkpt>
      <trkpt lat="45.02806" lon="3.90968">
        <ele>808</ele>
        <time>2026-04-28T06:34:04Z</time>
      </trkpt>
      <trkpt lat="45.02801" lon="3.90972">
        <ele>808.8</ele>
        <time>2026-04-28T06:34:09Z</time>
      </trkpt>
      <trkpt lat="45.02795" lon="3.90975">
        <ele>809.5</ele>
        <time>2026-04-28T06:34:14Z</time>
      </trkpt>
      <trkpt lat="45.0279" lon="3.90976">
        <ele>809.9</ele>
        <time>2026-04-28T06:34:19Z</time>
      </trkpt>
      <trkpt lat="45.02784" lon="3.90979">
        <ele>810.5</ele>
        <time>2026-04-28T06:34:24Z</time>
      </trkpt>
      <trkpt lat="45.02778" lon="3.90981">
        <ele>811</ele>
        <time>2026-04-28T06:34:29Z</time>
      </trkpt>
      <trkpt lat="45.02771" lon="3.90982">
        <ele>811.5</ele>
        <time>2026-04-28T06:34:34Z</time>
      </trkpt>
      <trkpt lat="45.02766" lon="3.90985">
        <ele>812</ele>
        <time>2026-04-28T06:34:39Z</time>
      </trkpt>
      <trkpt lat="45.02759" lon="3.90987">
        <ele>812.5</ele>
        <time>2026-04-28T06:34:44Z</time>
      </trkpt>
      <trkpt lat="45.02753" lon="3.90989">
        <ele>812.9</ele>
        <time>2026-04-28T06:34:49Z</time>
      </trkpt>
      <trkpt lat="45.02746" lon="3.90992">
        <ele>813.6</ele>
        <time>2026-04-28T06:34:54Z</time>
      </trkpt>
      <trkpt lat="45.0274" lon="3.90995">
        <ele>814.2</ele>
        <time>2026-04-28T06:34:59Z</time>
      </trkpt>
      <trkpt lat="45.02737" lon="3.90999">
        <ele>814.7</ele>
        <time>2026-04-28T06:35:04Z</time>
      </trkpt>
      <trkpt lat="45.02734" lon="3.91005">
        <ele>815.3</ele>
        <time>2026-04-28T06:35:09Z</time>
      </trkpt>
      <trkpt lat="45.0273" lon="3.91009">
        <ele>815.8</ele>
        <time>2026-04-28T06:35:14Z</time>
      </trkpt>
      <trkpt lat="45.02725" lon="3.91014">
        <ele>816.5</ele>
        <time>2026-04-28T06:35:19Z</time>
      </trkpt>
      <trkpt lat="45.02721" lon="3.91016">
        <ele>816.8</ele>
        <time>2026-04-28T06:35:24Z</time>
      </trkpt>
      <trkpt lat="45.02715" lon="3.91017">
        <ele>817.2</ele>
        <time>2026-04-28T06:35:29Z</time>
      </trkpt>
      <trkpt lat="45.0271" lon="3.91018">
        <ele>817.6</ele>
        <time>2026-04-28T06:35:34Z</time>
      </trkpt>
      <trkpt lat="45.02704" lon="3.91018">
        <ele>817.9</ele>
        <time>2026-04-28T06:35:39Z</time>
      </trkpt>
      <trkpt lat="45.02697" lon="3.91017">
        <ele>818.3</ele>
        <time>2026-04-28T06:35:44Z</time>
      </trkpt>
      <trkpt lat="45.02691" lon="3.91015">
        <ele>818.5</ele>
        <time>2026-04-28T06:35:49Z</time>
      </trkpt>
      <trkpt lat="45.02685" lon="3.91014">
        <ele>818.8</ele>
        <time>2026-04-28T06:35:54Z</time>
      </trkpt>
      <trkpt lat="45.02677" lon="3.91014">
        <ele>819.2</ele>
        <time>2026-04-28T06:35:59Z</time>
      </trkpt>
      <trkpt lat="45.02671" lon="3.91014">
        <ele>819.6</ele>
        <time>2026-04-28T06:36:04Z</time>
      </trkpt>
      <trkpt lat="45.02665" lon="3.91013">
        <ele>819.9</ele>
        <time>2026-04-28T06:36:09Z</time>
      </trkpt>
      <trkpt lat="45.02658" lon="3.91013">
        <ele>820.3</ele>
        <time>2026-04-28T06:36:14Z</time>
      </trkpt>
      <trkpt lat="45.0265" lon="3.91013">
        <ele>820.8</ele>
        <time>2026-04-28T06:36:19Z</time>
      </trkpt>
      <trkpt lat="45.02644" lon="3.91014">
        <ele>821.2</ele>
        <time>2026-04-28T06:36:24Z</time>
      </trkpt>
      <trkpt lat="45.02637" lon="3.91015">
        <ele>821.7</ele>
        <time>2026-04-28T06:36:29Z</time>
      </trkpt>
      <trkpt lat="45.02631" lon="3.91015">
        <ele>822.1</ele>
        <time>2026-04-28T06:36:34Z</time>
      </trkpt>
      <trkpt lat="45.02625" lon="3.91018">
        <ele>822.5</ele>
        <time>2026-04-28T06:36:39Z</time>
      </trkpt>
      <trkpt lat="45.02618" lon="3.91017">
        <ele>822.9</ele>
        <time>2026-04-28T06:36:44Z</time>
      </trkpt>
      <trkpt lat="45.02609" lon="3.91017">
        <ele>823.5</ele>
        <time>2026-04-28T06:36:49Z</time>
      </trkpt>
      <trkpt lat="45.02601" lon="3.9102">
        <ele>824</ele>
        <time>2026-04-28T06:36:54Z</time>
      </trkpt>
      <trkpt lat="45.02596" lon="3.91022">
        <ele>824.3</ele>
        <time>2026-04-28T06:36:59Z</time>
      </trkpt>
      <trkpt lat="45.02588" lon="3.91025">
        <ele>824.7</ele>
        <time>2026-04-28T06:37:04Z</time>
      </trkpt>
      <trkpt lat="45.0258" lon="3.91025">
        <ele>825.2</ele>
        <time>2026-04-28T06:37:09Z</time>
      </trkpt>
      <trkpt lat="45.02573" lon="3.91026">
        <ele>825.5</ele>
        <time>2026-04-28T06:37:14Z</time>
      </trkpt>
      <trkpt lat="45.02565" lon="3.9103">
        <ele>825.9</ele>
        <time>2026-04-28T06:37:19Z</time>
      </trkpt>
      <trkpt lat="45.02559" lon="3.91032">
        <ele>826.2</ele>
        <time>2026-04-28T06:37:24Z</time>
      </trkpt>
      <trkpt lat="45.02553" lon="3.91033">
        <ele>826.5</ele>
        <time>2026-04-28T06:37:29Z</time>
      </trkpt>
      <trkpt lat="45.02547" lon="3.91036">
        <ele>826.8</ele>
        <time>2026-04-28T06:37:34Z</time>
      </trkpt>
      <trkpt lat="45.02539" lon="3.91039">
        <ele>827.2</ele>
        <time>2026-04-28T06:37:39Z</time>
      </trkpt>
      <trkpt lat="45.02532" lon="3.91041">
        <ele>827.5</ele>
        <time>2026-04-28T06:37:44Z</time>
      </trkpt>
      <trkpt lat="45.02526" lon="3.91044">
        <ele>827.7</ele>
        <time>2026-04-28T06:37:49Z</time>
      </trkpt>
      <trkpt lat="45.0252" lon="3.91047">
        <ele>827.9</ele>
        <time>2026-04-28T06:37:54Z</time>
      </trkpt>
      <trkpt lat="45.02514" lon="3.91049">
        <ele>828.2</ele>
        <time>2026-04-28T06:37:59Z</time>
      </trkpt>
      <trkpt lat="45.0251" lon="3.91052">
        <ele>828.3</ele>
        <time>2026-04-28T06:38:04Z</time>
      </trkpt>
      <trkpt lat="45.02503" lon="3.91056">
        <ele>828.5</ele>
        <time>2026-04-28T06:38:09Z</time>
      </trkpt>
      <trkpt lat="45.02496" lon="3.91058">
        <ele>828.8</ele>
        <time>2026-04-28T06:38:14Z</time>
      </trkpt>
      <trkpt lat="45.02492" lon="3.91059">
        <ele>828.9</ele>
        <time>2026-04-28T06:38:19Z</time>
      </trkpt>
      <trkpt lat="45.02484" lon="3.91059">
        <ele>829.3</ele>
        <time>2026-04-28T06:38:24Z</time>
      </trkpt>
      <trkpt lat="45.02478" lon="3.91059">
        <ele>829.5</ele>
        <time>2026-04-28T06:38:29Z</time>
      </trkpt>
      <trkpt lat="45.02472" lon="3.91055">
        <ele>829.9</ele>
        <time>2026-04-28T06:38:34Z</time>
      </trkpt>
      <trkpt lat="45.02466" lon="3.91053">
        <ele>830.2</ele>
        <time>2026-04-28T06:38:39Z</time>
      </trkpt>
      <trkpt lat="45.0246" lon="3.91052">
        <ele>830.6</ele>
        <time>2026-04-28T06:38:44Z</time>
      </trkpt>
      <trkpt lat="45.02453" lon="3.91053">
        <ele>830.8</ele>
        <time>2026-04-28T06:38:49Z</time>
      </trkpt>
      <trkpt lat="45.02446" lon="3.91051">
        <ele>831.2</ele>
        <time>2026-04-28T06:38:54Z</time>
      </trkpt>
      <trkpt lat="45.0244" lon="3.91053">
        <ele>831.4</ele>
        <time>2026-04-28T06:38:59Z</time>
      </trkpt>
      <trkpt lat="45.02434" lon="3.91054">
        <ele>831.6</ele>
        <time>2026-04-28T06:39:04Z</time>
      </trkpt>
      <trkpt lat="45.02426" lon="3.91054">
        <ele>832</ele>
        <time>2026-04-28T06:39:09Z</time>
      </trkpt>
      <trkpt lat="45.02418" lon="3.91055">
        <ele>832.3</ele>
        <time>2026-04-28T06:39:14Z</time>
      </trkpt>
      <trkpt lat="45.02412" lon="3.91056">
        <ele>832.5</ele>
        <time>2026-04-28T06:39:19Z</time>
      </trkpt>
      <trkpt lat="45.02406" lon="3.9106">
        <ele>832.5</ele>
        <time>2026-04-28T06:39:24Z</time>
      </trkpt>
      <trkpt lat="45.02402" lon="3.91063">
        <ele>832.5</ele>
        <time>2026-04-28T06:39:29Z</time>
      </trkpt>
      <trkpt lat="45.02397" lon="3.91065">
        <ele>832.6</ele>
        <time>2026-04-28T06:39:34Z</time>
      </trkpt>
      <trkpt lat="45.02396" lon="3.91065">
        <ele>832.7</ele>
        <time>2026-04-28T06:39:39Z</time>
      </trkpt>
      <trkpt lat="45.02392" lon="3.9107">
        <ele>832.6</ele>
        <time>2026-04-28T06:39:44Z</time>
      </trkpt>
      <trkpt lat="45.02392" lon="3.9107">
        <ele>832.6</ele>
        <time>2026-04-28T06:39:49Z</time>
      </trkpt>
      <trkpt lat="45.02392" lon="3.9107">
        <ele>832.6</ele>
        <time>2026-04-28T06:39:54Z</time>
      </trkpt>
      <trkpt lat="45.0239" lon="3.9107">
        <ele>832.7</ele>
        <time>2026-04-28T06:39:59Z</time>
      </trkpt>
      <trkpt lat="45.02386" lon="3.91077">
        <ele>832.4</ele>
        <time>2026-04-28T06:40:04Z</time>
      </trkpt>
      <trkpt lat="45.02379" lon="3.91081">
        <ele>832.5</ele>
        <time>2026-04-28T06:40:09Z</time>
      </trkpt>
      <trkpt lat="45.02372" lon="3.91086">
        <ele>832.6</ele>
        <time>2026-04-28T06:40:14Z</time>
      </trkpt>
      <trkpt lat="45.02365" lon="3.91091">
        <ele>832.7</ele>
        <time>2026-04-28T06:40:19Z</time>
      </trkpt>
      <trkpt lat="45.02359" lon="3.91095">
        <ele>832.8</ele>
        <time>2026-04-28T06:40:24Z</time>
      </trkpt>
      <trkpt lat="45.02352" lon="3.91096">
        <ele>833</ele>
        <time>2026-04-28T06:40:29Z</time>
      </trkpt>
      <trkpt lat="45.02347" lon="3.91099">
        <ele>833.1</ele>
        <time>2026-04-28T06:40:34Z</time>
      </trkpt>
      <trkpt lat="45.0234" lon="3.91105">
        <ele>833.1</ele>
        <time>2026-04-28T06:40:39Z</time>
      </trkpt>
      <trkpt lat="45.02333" lon="3.9111">
        <ele>833</ele>
        <time>2026-04-28T06:40:44Z</time>
      </trkpt>
      <trkpt lat="45.02326" lon="3.91115">
        <ele>832.8</ele>
        <time>2026-04-28T06:40:49Z</time>
      </trkpt>
      <trkpt lat="45.02318" lon="3.9112">
        <ele>832.6</ele>
        <time>2026-04-28T06:40:54Z</time>
      </trkpt>
      <trkpt lat="45.02311" lon="3.91125">
        <ele>832.4</ele>
        <time>2026-04-28T06:40:59Z</time>
      </trkpt>
      <trkpt lat="45.02305" lon="3.91129">
        <ele>832.2</ele>
        <time>2026-04-28T06:41:04Z</time>
      </trkpt>
      <trkpt lat="45.02297" lon="3.91132">
        <ele>832</ele>
        <time>2026-04-28T06:41:09Z</time>
      </trkpt>
      <trkpt lat="45.02291" lon="3.91135">
        <ele>831.8</ele>
        <time>2026-04-28T06:41:14Z</time>
      </trkpt>
      <trkpt lat="45.02283" lon="3.91138">
        <ele>831.6</ele>
        <time>2026-04-28T06:41:19Z</time>
      </trkpt>
      <trkpt lat="45.02276" lon="3.9114">
        <ele>831.5</ele>
        <time>2026-04-28T06:41:24Z</time>
      </trkpt>
      <trkpt lat="45.02271" lon="3.91143">
        <ele>831.3</ele>
        <time>2026-04-28T06:41:29Z</time>
      </trkpt>
      <trkpt lat="45.02266" lon="3.91146">
        <ele>831.1</ele>
        <time>2026-04-28T06:41:34Z</time>
      </trkpt>
      <trkpt lat="45.02266" lon="3.91145">
        <ele>831.2</ele>
        <time>2026-04-28T06:41:39Z</time>
      </trkpt>
      <trkpt lat="45.0226" lon="3.91149">
        <ele>830.9</ele>
        <time>2026-04-28T06:41:44Z</time>
      </trkpt>
      <trkpt lat="45.02254" lon="3.91153">
        <ele>830.7</ele>
        <time>2026-04-28T06:41:49Z</time>
      </trkpt>
      <trkpt lat="45.02249" lon="3.91156">
        <ele>830.5</ele>
        <time>2026-04-28T06:41:54Z</time>
      </trkpt>
      <trkpt lat="45.02247" lon="3.91158">
        <ele>830.4</ele>
        <time>2026-04-28T06:41:59Z</time>
      </trkpt>
      <trkpt lat="45.02246" lon="3.91159">
        <ele>830.3</ele>
        <time>2026-04-28T06:42:04Z</time>
      </trkpt>
      <trkpt lat="45.02246" lon="3.91159">
        <ele>830.3</ele>
        <time>2026-04-28T06:42:09Z</time>
      </trkpt>
      <trkpt lat="45.02242" lon="3.91164">
        <ele>829.9</ele>
        <time>2026-04-28T06:42:14Z</time>
      </trkpt>
      <trkpt lat="45.0224" lon="3.91165">
        <ele>829.8</ele>
        <time>2026-04-28T06:42:19Z</time>
      </trkpt>
      <trkpt lat="45.0224" lon="3.91165">
        <ele>829.8</ele>
        <time>2026-04-28T06:42:24Z</time>
      </trkpt>
      <trkpt lat="45.02237" lon="3.91168">
        <ele>829.7</ele>
        <time>2026-04-28T06:42:29Z</time>
      </trkpt>
      <trkpt lat="45.02231" lon="3.91174">
        <ele>829.3</ele>
        <time>2026-04-28T06:42:34Z</time>
      </trkpt>
      <trkpt lat="45.02225" lon="3.91178">
        <ele>829.1</ele>
        <time>2026-04-28T06:42:39Z</time>
      </trkpt>
      <trkpt lat="45.02219" lon="3.91181">
        <ele>828.8</ele>
        <time>2026-04-28T06:42:44Z</time>
      </trkpt>
      <trkpt lat="45.02219" lon="3.91181">
        <ele>828.8</ele>
        <time>2026-04-28T06:42:49Z</time>
      </trkpt>
      <trkpt lat="45.02219" lon="3.91181">
        <ele>828.8</ele>
        <time>2026-04-28T06:42:54Z</time>
      </trkpt>
      <trkpt lat="45.02219" lon="3.91181">
        <ele>828.8</ele>
        <time>2026-04-28T06:42:59Z</time>
      </trkpt>
      <trkpt lat="45.02216" lon="3.91183">
        <ele>828.7</ele>
        <time>2026-04-28T06:43:04Z</time>
      </trkpt>
      <trkpt lat="45.02212" lon="3.91187">
        <ele>828.5</ele>
        <time>2026-04-28T06:43:09Z</time>
      </trkpt>
      <trkpt lat="45.02205" lon="3.91194">
        <ele>828.1</ele>
        <time>2026-04-28T06:43:14Z</time>
      </trkpt>
      <trkpt lat="45.02198" lon="3.91197">
        <ele>827.8</ele>
        <time>2026-04-28T06:43:19Z</time>
      </trkpt>
      <trkpt lat="45.02192" lon="3.91201">
        <ele>827.5</ele>
        <time>2026-04-28T06:43:24Z</time>
      </trkpt>
      <trkpt lat="45.02186" lon="3.91208">
        <ele>827.1</ele>
        <time>2026-04-28T06:43:29Z</time>
      </trkpt>
      <trkpt lat="45.02181" lon="3.91214">
        <ele>826.7</ele>
        <time>2026-04-28T06:43:34Z</time>
      </trkpt>
      <trkpt lat="45.02175" lon="3.9122">
        <ele>826.3</ele>
        <time>2026-04-28T06:43:39Z</time>
      </trkpt>
      <trkpt lat="45.02169" lon="3.91228">
        <ele>825.9</ele>
        <time>2026-04-28T06:43:44Z</time>
      </trkpt>
      <trkpt lat="45.02164" lon="3.91236">
        <ele>825.4</ele>
        <time>2026-04-28T06:43:49Z</time>
      </trkpt>
      <trkpt lat="45.0216" lon="3.91242">
        <ele>825</ele>
        <time>2026-04-28T06:43:54Z</time>
      </trkpt>
      <trkpt lat="45.02155" lon="3.91247">
        <ele>824.5</ele>
        <time>2026-04-28T06:43:59Z</time>
      </trkpt>
      <trkpt lat="45.02151" lon="3.91255">
        <ele>824.1</ele>
        <time>2026-04-28T06:44:04Z</time>
      </trkpt>
      <trkpt lat="45.02146" lon="3.91264">
        <ele>823.7</ele>
        <time>2026-04-28T06:44:09Z</time>
      </trkpt>
      <trkpt lat="45.02142" lon="3.91271">
        <ele>823.3</ele>
        <time>2026-04-28T06:44:14Z</time>
      </trkpt>
      <trkpt lat="45.02136" lon="3.91278">
        <ele>822.7</ele>
        <time>2026-04-28T06:44:19Z</time>
      </trkpt>
      <trkpt lat="45.02131" lon="3.91286">
        <ele>822.1</ele>
        <time>2026-04-28T06:44:24Z</time>
      </trkpt>
      <trkpt lat="45.02126" lon="3.91294">
        <ele>821.5</ele>
        <time>2026-04-28T06:44:29Z</time>
      </trkpt>
      <trkpt lat="45.02121" lon="3.91302">
        <ele>820.8</ele>
        <time>2026-04-28T06:44:34Z</time>
      </trkpt>
      <trkpt lat="45.02114" lon="3.91309">
        <ele>820</ele>
        <time>2026-04-28T06:44:39Z</time>
      </trkpt>
      <trkpt lat="45.02111" lon="3.91317">
        <ele>819.4</ele>
        <time>2026-04-28T06:44:44Z</time>
      </trkpt>
      <trkpt lat="45.02107" lon="3.91323">
        <ele>818.8</ele>
        <time>2026-04-28T06:44:49Z</time>
      </trkpt>
      <trkpt lat="45.02102" lon="3.91329">
        <ele>818</ele>
        <time>2026-04-28T06:44:54Z</time>
      </trkpt>
      <trkpt lat="45.02096" lon="3.91333">
        <ele>817.2</ele>
        <time>2026-04-28T06:44:59Z</time>
      </trkpt>
      <trkpt lat="45.0209" lon="3.91336">
        <ele>816.5</ele>
        <time>2026-04-28T06:45:04Z</time>
      </trkpt>
      <trkpt lat="45.02082" lon="3.91337">
        <ele>815.7</ele>
        <time>2026-04-28T06:45:09Z</time>
      </trkpt>
      <trkpt lat="45.02075" lon="3.91337">
        <ele>815</ele>
        <time>2026-04-28T06:45:14Z</time>
      </trkpt>
      <trkpt lat="45.02067" lon="3.91337">
        <ele>814.2</ele>
        <time>2026-04-28T06:45:19Z</time>
      </trkpt>
      <trkpt lat="45.02058" lon="3.91337">
        <ele>813.4</ele>
        <time>2026-04-28T06:45:24Z</time>
      </trkpt>
      <trkpt lat="45.02051" lon="3.91337">
        <ele>812.7</ele>
        <time>2026-04-28T06:45:29Z</time>
      </trkpt>
      <trkpt lat="45.02043" lon="3.91334">
        <ele>812.1</ele>
        <time>2026-04-28T06:45:34Z</time>
      </trkpt>
      <trkpt lat="45.02036" lon="3.91333">
        <ele>811.5</ele>
        <time>2026-04-28T06:45:39Z</time>
      </trkpt>
      <trkpt lat="45.0203" lon="3.91333">
        <ele>810.9</ele>
        <time>2026-04-28T06:45:44Z</time>
      </trkpt>
      <trkpt lat="45.02023" lon="3.91334">
        <ele>810.2</ele>
        <time>2026-04-28T06:45:49Z</time>
      </trkpt>
      <trkpt lat="45.02015" lon="3.91339">
        <ele>809.1</ele>
        <time>2026-04-28T06:45:54Z</time>
      </trkpt>
      <trkpt lat="45.02008" lon="3.91343">
        <ele>808.2</ele>
        <time>2026-04-28T06:45:59Z</time>
      </trkpt>
      <trkpt lat="45.02003" lon="3.91346">
        <ele>807.5</ele>
        <time>2026-04-28T06:46:04Z</time>
      </trkpt>
      <trkpt lat="45.01999" lon="3.91347">
        <ele>807.1</ele>
        <time>2026-04-28T06:46:09Z</time>
      </trkpt>
      <trkpt lat="45.01994" lon="3.91349">
        <ele>806.5</ele>
        <time>2026-04-28T06:46:14Z</time>
      </trkpt>
      <trkpt lat="45.0199" lon="3.91349">
        <ele>806.2</ele>
        <time>2026-04-28T06:46:19Z</time>
      </trkpt>
      <trkpt lat="45.01985" lon="3.91351">
        <ele>805.7</ele>
        <time>2026-04-28T06:46:24Z</time>
      </trkpt>
      <trkpt lat="45.0198" lon="3.91353">
        <ele>805.1</ele>
        <time>2026-04-28T06:46:29Z</time>
      </trkpt>
      <trkpt lat="45.01976" lon="3.91354">
        <ele>804.7</ele>
        <time>2026-04-28T06:46:34Z</time>
      </trkpt>
      <trkpt lat="45.01972" lon="3.91353">
        <ele>804.4</ele>
        <time>2026-04-28T06:46:39Z</time>
      </trkpt>
      <trkpt lat="45.01967" lon="3.91355">
        <ele>803.9</ele>
        <time>2026-04-28T06:46:44Z</time>
      </trkpt>
      <trkpt lat="45.01963" lon="3.91359">
        <ele>803.5</ele>
        <time>2026-04-28T06:46:49Z</time>
      </trkpt>
      <trkpt lat="45.01958" lon="3.91361">
        <ele>803</ele>
        <time>2026-04-28T06:46:54Z</time>
      </trkpt>
      <trkpt lat="45.01954" lon="3.91363">
        <ele>802.6</ele>
        <time>2026-04-28T06:46:59Z</time>
      </trkpt>
      <trkpt lat="45.01949" lon="3.91365">
        <ele>802.1</ele>
        <time>2026-04-28T06:47:04Z</time>
      </trkpt>
      <trkpt lat="45.01945" lon="3.91367">
        <ele>801.8</ele>
        <time>2026-04-28T06:47:09Z</time>
      </trkpt>
      <trkpt lat="45.01939" lon="3.91371">
        <ele>801.2</ele>
        <time>2026-04-28T06:47:14Z</time>
      </trkpt>
      <trkpt lat="45.01932" lon="3.91374">
        <ele>800.6</ele>
        <time>2026-04-28T06:47:19Z</time>
      </trkpt>
      <trkpt lat="45.01926" lon="3.91376">
        <ele>800.2</ele>
        <time>2026-04-28T06:47:24Z</time>
      </trkpt>
      <trkpt lat="45.01919" lon="3.9138">
        <ele>799.6</ele>
        <time>2026-04-28T06:47:29Z</time>
      </trkpt>
      <trkpt lat="45.01911" lon="3.91381">
        <ele>799.2</ele>
        <time>2026-04-28T06:47:34Z</time>
      </trkpt>
      <trkpt lat="45.01903" lon="3.91383">
        <ele>798.8</ele>
        <time>2026-04-28T06:47:39Z</time>
      </trkpt>
      <trkpt lat="45.01896" lon="3.91384">
        <ele>798.6</ele>
        <time>2026-04-28T06:47:44Z</time>
      </trkpt>
      <trkpt lat="45.01889" lon="3.91387">
        <ele>798.2</ele>
        <time>2026-04-28T06:47:49Z</time>
      </trkpt>
      <trkpt lat="45.01881" lon="3.91388">
        <ele>797.9</ele>
        <time>2026-04-28T06:47:54Z</time>
      </trkpt>
      <trkpt lat="45.01872" lon="3.91389">
        <ele>797.5</ele>
        <time>2026-04-28T06:47:59Z</time>
      </trkpt>
      <trkpt lat="45.01864" lon="3.9139">
        <ele>797.2</ele>
        <time>2026-04-28T06:48:04Z</time>
      </trkpt>
      <trkpt lat="45.01857" lon="3.91392">
        <ele>796.9</ele>
        <time>2026-04-28T06:48:09Z</time>
      </trkpt>
      <trkpt lat="45.01849" lon="3.91394">
        <ele>796.6</ele>
        <time>2026-04-28T06:48:14Z</time>
      </trkpt>
      <trkpt lat="45.01842" lon="3.91395">
        <ele>796.3</ele>
        <time>2026-04-28T06:48:19Z</time>
      </trkpt>
      <trkpt lat="45.01835" lon="3.91395">
        <ele>796.1</ele>
        <time>2026-04-28T06:48:24Z</time>
      </trkpt>
      <trkpt lat="45.01827" lon="3.91397">
        <ele>795.8</ele>
        <time>2026-04-28T06:48:29Z</time>
      </trkpt>
      <trkpt lat="45.01819" lon="3.91399">
        <ele>795.5</ele>
        <time>2026-04-28T06:48:34Z</time>
      </trkpt>
      <trkpt lat="45.01811" lon="3.914">
        <ele>795.2</ele>
        <time>2026-04-28T06:48:39Z</time>
      </trkpt>
      <trkpt lat="45.01803" lon="3.914">
        <ele>795</ele>
        <time>2026-04-28T06:48:44Z</time>
      </trkpt>
      <trkpt lat="45.01795" lon="3.91402">
        <ele>794.7</ele>
        <time>2026-04-28T06:48:49Z</time>
      </trkpt>
      <trkpt lat="45.01787" lon="3.91404">
        <ele>794.4</ele>
        <time>2026-04-28T06:48:54Z</time>
      </trkpt>
      <trkpt lat="45.0178" lon="3.91406">
        <ele>794.2</ele>
        <time>2026-04-28T06:48:59Z</time>
      </trkpt>
      <trkpt lat="45.01772" lon="3.91408">
        <ele>793.9</ele>
        <time>2026-04-28T06:49:04Z</time>
      </trkpt>
      <trkpt lat="45.01765" lon="3.91409">
        <ele>793.6</ele>
        <time>2026-04-28T06:49:09Z</time>
      </trkpt>
      <trkpt lat="45.01757" lon="3.91411">
        <ele>793.3</ele>
        <time>2026-04-28T06:49:14Z</time>
      </trkpt>
      <trkpt lat="45.01749" lon="3.91411">
        <ele>793</ele>
        <time>2026-04-28T06:49:19Z</time>
      </trkpt>
      <trkpt lat="45.01741" lon="3.9141">
        <ele>792.5</ele>
        <time>2026-04-28T06:49:24Z</time>
      </trkpt>
      <trkpt lat="45.01734" lon="3.91412">
        <ele>792.1</ele>
        <time>2026-04-28T06:49:29Z</time>
      </trkpt>
      <trkpt lat="45.01726" lon="3.91413">
        <ele>791.6</ele>
        <time>2026-04-28T06:49:34Z</time>
      </trkpt>
      <trkpt lat="45.01718" lon="3.91418">
        <ele>791.1</ele>
        <time>2026-04-28T06:49:39Z</time>
      </trkpt>
      <trkpt lat="45.01712" lon="3.91421">
        <ele>790.8</ele>
        <time>2026-04-28T06:49:44Z</time>
      </trkpt>
      <trkpt lat="45.01706" lon="3.91425">
        <ele>790.5</ele>
        <time>2026-04-28T06:49:49Z</time>
      </trkpt>
      <trkpt lat="45.01699" lon="3.91432">
        <ele>790.3</ele>
        <time>2026-04-28T06:49:54Z</time>
      </trkpt>
      <trkpt lat="45.01693" lon="3.91439">
        <ele>790.1</ele>
        <time>2026-04-28T06:49:59Z</time>
      </trkpt>
      <trkpt lat="45.01687" lon="3.91445">
        <ele>790</ele>
        <time>2026-04-28T06:50:04Z</time>
      </trkpt>
      <trkpt lat="45.0168" lon="3.91451">
        <ele>789.8</ele>
        <time>2026-04-28T06:50:09Z</time>
      </trkpt>
      <trkpt lat="45.01672" lon="3.91457">
        <ele>789.7</ele>
        <time>2026-04-28T06:50:14Z</time>
      </trkpt>
      <trkpt lat="45.01666" lon="3.91463">
        <ele>789.7</ele>
        <time>2026-04-28T06:50:19Z</time>
      </trkpt>
      <trkpt lat="45.01659" lon="3.91468">
        <ele>789.9</ele>
        <time>2026-04-28T06:50:24Z</time>
      </trkpt>
      <trkpt lat="45.01652" lon="3.91471">
        <ele>790</ele>
        <time>2026-04-28T06:50:29Z</time>
      </trkpt>
      <trkpt lat="45.01644" lon="3.91475">
        <ele>790.2</ele>
        <time>2026-04-28T06:50:34Z</time>
      </trkpt>
      <trkpt lat="45.01637" lon="3.91478">
        <ele>790.4</ele>
        <time>2026-04-28T06:50:39Z</time>
      </trkpt>
      <trkpt lat="45.01629" lon="3.91481">
        <ele>790.6</ele>
        <time>2026-04-28T06:50:44Z</time>
      </trkpt>
      <trkpt lat="45.01622" lon="3.91483">
        <ele>790.7</ele>
        <time>2026-04-28T06:50:49Z</time>
      </trkpt>
      <trkpt lat="45.01614" lon="3.91484">
        <ele>790.8</ele>
        <time>2026-04-28T06:50:54Z</time>
      </trkpt>
      <trkpt lat="45.01606" lon="3.91486">
        <ele>791</ele>
        <time>2026-04-28T06:50:59Z</time>
      </trkpt>
      <trkpt lat="45.01598" lon="3.91486">
        <ele>791</ele>
        <time>2026-04-28T06:51:04Z</time>
      </trkpt>
      <trkpt lat="45.01594" lon="3.91481">
        <ele>790.8</ele>
        <time>2026-04-28T06:51:09Z</time>
      </trkpt>
      <trkpt lat="45.01593" lon="3.91472">
        <ele>790.3</ele>
        <time>2026-04-28T06:51:14Z</time>
      </trkpt>
      <trkpt lat="45.01592" lon="3.91466">
        <ele>789.9</ele>
        <time>2026-04-28T06:51:19Z</time>
      </trkpt>
      <trkpt lat="45.01591" lon="3.91463">
        <ele>789.8</ele>
        <time>2026-04-28T06:51:24Z</time>
      </trkpt>
      <trkpt lat="45.0159" lon="3.9146">
        <ele>789.6</ele>
        <time>2026-04-28T06:51:29Z</time>
      </trkpt>
      <trkpt lat="45.0159" lon="3.91459">
        <ele>789.5</ele>
        <time>2026-04-28T06:51:34Z</time>
      </trkpt>
      <trkpt lat="45.0159" lon="3.91459">
        <ele>789.5</ele>
        <time>2026-04-28T06:51:39Z</time>
      </trkpt>
      <trkpt lat="45.0159" lon="3.91459">
        <ele>789.5</ele>
        <time>2026-04-28T06:51:44Z</time>
      </trkpt>
      <trkpt lat="45.0159" lon="3.91459">
        <ele>789.5</ele>
        <time>2026-04-28T06:51:49Z</time>
      </trkpt>
      <trkpt lat="45.0159" lon="3.91459">
        <ele>789.5</ele>
        <time>2026-04-28T06:51:54Z</time>
      </trkpt>
      <trkpt lat="45.0159" lon="3.91459">
        <ele>789.5</ele>
        <time>2026-04-28T06:51:59Z</time>
      </trkpt>
      <trkpt lat="45.0159" lon="3.91459">
        <ele>789.5</ele>
        <time>2026-04-28T06:52:04Z</time>
      </trkpt>
      <trkpt lat="45.0159" lon="3.91459">
        <ele>789.5</ele>
        <time>2026-04-28T06:52:09Z</time>
      </trkpt>
      <trkpt lat="45.0159" lon="3.91459">
        <ele>789.5</ele>
        <time>2026-04-28T06:52:14Z</time>
      </trkpt>
      <trkpt lat="45.0159" lon="3.91459">
        <ele>789.5</ele>
        <time>2026-04-28T06:52:19Z</time>
      </trkpt>
      <trkpt lat="45.0159" lon="3.91459">
        <ele>789.5</ele>
        <time>2026-04-28T06:52:24Z</time>
      </trkpt>
      <trkpt lat="45.0159" lon="3.91459">
        <ele>789.5</ele>
        <time>2026-04-28T06:52:29Z</time>
      </trkpt>
      <trkpt lat="45.0159" lon="3.91459">
        <ele>789.5</ele>
        <time>2026-04-28T06:52:34Z</time>
      </trkpt>
      <trkpt lat="45.0159" lon="3.91459">
        <ele>789.5</ele>
        <time>2026-04-28T06:52:39Z</time>
      </trkpt>
      <trkpt lat="45.0159" lon="3.91459">
        <ele>789.5</ele>
        <time>2026-04-28T06:52:44Z</time>
      </trkpt>
      <trkpt lat="45.0159" lon="3.91459">
        <ele>789.5</ele>
        <time>2026-04-28T06:52:49Z</time>
      </trkpt>
      <trkpt lat="45.0159" lon="3.91459">
        <ele>789.5</ele>
        <time>2026-04-28T06:52:54Z</time>
      </trkpt>
      <trkpt lat="45.0159" lon="3.91459">
        <ele>789.5</ele>
        <time>2026-04-28T06:52:59Z</time>
      </trkpt>
      <trkpt lat="45.0159" lon="3.91459">
        <ele>789.5</ele>
        <time>2026-04-28T06:53:04Z</time>
      </trkpt>
      <trkpt lat="45.0159" lon="3.91459">
        <ele>789.5</ele>
        <time>2026-04-28T06:53:09Z</time>
      </trkpt>
      <trkpt lat="45.0159" lon="3.91459">
        <ele>789.5</ele>
        <time>2026-04-28T06:53:14Z</time>
      </trkpt>
      <trkpt lat="45.0159" lon="3.91459">
        <ele>789.5</ele>
        <time>2026-04-28T06:53:19Z</time>
      </trkpt>
      <trkpt lat="45.0159" lon="3.91459">
        <ele>789.5</ele>
        <time>2026-04-28T06:53:24Z</time>
      </trkpt>
      <trkpt lat="45.0159" lon="3.91459">
        <ele>789.5</ele>
        <time>2026-04-28T06:53:29Z</time>
      </trkpt>
      <trkpt lat="45.0159" lon="3.91459">
        <ele>789.5</ele>
        <time>2026-04-28T06:53:34Z</time>
      </trkpt>
      <trkpt lat="45.0159" lon="3.91459">
        <ele>789.5</ele>
        <time>2026-04-28T06:53:39Z</time>
      </trkpt>
      <trkpt lat="45.0159" lon="3.91459">
        <ele>789.5</ele>
        <time>2026-04-28T06:53:44Z</time>
      </trkpt>
      <trkpt lat="45.01588" lon="3.91455">
        <ele>789.3</ele>
        <time>2026-04-28T06:53:49Z</time>
      </trkpt>
      <trkpt lat="45.01583" lon="3.91445">
        <ele>788.7</ele>
        <time>2026-04-28T06:53:54Z</time>
      </trkpt>
      <trkpt lat="45.0158" lon="3.91434">
        <ele>787.8</ele>
        <time>2026-04-28T06:53:59Z</time>
      </trkpt>
      <trkpt lat="45.01578" lon="3.91425">
        <ele>787.2</ele>
        <time>2026-04-28T06:54:04Z</time>
      </trkpt>
      <trkpt lat="45.01574" lon="3.91416">
        <ele>786.5</ele>
        <time>2026-04-28T06:54:09Z</time>
      </trkpt>
      <trkpt lat="45.01571" lon="3.91405">
        <ele>786.2</ele>
        <time>2026-04-28T06:54:14Z</time>
      </trkpt>
      <trkpt lat="45.01568" lon="3.91395">
        <ele>785.9</ele>
        <time>2026-04-28T06:54:19Z</time>
      </trkpt>
      <trkpt lat="45.01564" lon="3.91386">
        <ele>785.6</ele>
        <time>2026-04-28T06:54:24Z</time>
      </trkpt>
      <trkpt lat="45.01559" lon="3.91377">
        <ele>785.3</ele>
        <time>2026-04-28T06:54:29Z</time>
      </trkpt>
      <trkpt lat="45.01554" lon="3.91368">
        <ele>785</ele>
        <time>2026-04-28T06:54:34Z</time>
      </trkpt>
      <trkpt lat="45.01547" lon="3.91364">
        <ele>784.8</ele>
        <time>2026-04-28T06:54:39Z</time>
      </trkpt>
      <trkpt lat="45.01539" lon="3.91364">
        <ele>784.6</ele>
        <time>2026-04-28T06:54:44Z</time>
      </trkpt>
      <trkpt lat="45.01532" lon="3.91368">
        <ele>784.4</ele>
        <time>2026-04-28T06:54:49Z</time>
      </trkpt>
      <trkpt lat="45.01525" lon="3.91371">
        <ele>784.3</ele>
        <time>2026-04-28T06:54:54Z</time>
      </trkpt>
      <trkpt lat="45.01519" lon="3.91377">
        <ele>784.1</ele>
        <time>2026-04-28T06:54:59Z</time>
      </trkpt>
      <trkpt lat="45.01513" lon="3.9138">
        <ele>783.9</ele>
        <time>2026-04-28T06:55:04Z</time>
      </trkpt>
      <trkpt lat="45.01505" lon="3.91382">
        <ele>783.6</ele>
        <time>2026-04-28T06:55:09Z</time>
      </trkpt>
      <trkpt lat="45.01495" lon="3.91381">
        <ele>783.5</ele>
        <time>2026-04-28T06:55:14Z</time>
      </trkpt>
      <trkpt lat="45.01487" lon="3.91381">
        <ele>783.5</ele>
        <time>2026-04-28T06:55:19Z</time>
      </trkpt>
      <trkpt lat="45.01479" lon="3.91378">
        <ele>783.6</ele>
        <time>2026-04-28T06:55:24Z</time>
      </trkpt>
      <trkpt lat="45.01472" lon="3.91378">
        <ele>783.6</ele>
        <time>2026-04-28T06:55:29Z</time>
      </trkpt>
      <trkpt lat="45.01464" lon="3.91374">
        <ele>783.7</ele>
        <time>2026-04-28T06:55:34Z</time>
      </trkpt>
      <trkpt lat="45.01456" lon="3.9137">
        <ele>783.9</ele>
        <time>2026-04-28T06:55:39Z</time>
      </trkpt>
      <trkpt lat="45.01449" lon="3.91366">
        <ele>784</ele>
        <time>2026-04-28T06:55:44Z</time>
      </trkpt>
      <trkpt lat="45.01448" lon="3.91366">
        <ele>784</ele>
        <time>2026-04-28T06:55:49Z</time>
      </trkpt>
      <trkpt lat="45.01448" lon="3.91365">
        <ele>784</ele>
        <time>2026-04-28T06:55:54Z</time>
      </trkpt>
      <trkpt lat="45.01448" lon="3.91365">
        <ele>784</ele>
        <time>2026-04-28T06:55:59Z</time>
      </trkpt>
      <trkpt lat="45.0144" lon="3.91359">
        <ele>784.2</ele>
        <time>2026-04-28T06:56:04Z</time>
      </trkpt>
      <trkpt lat="45.01433" lon="3.91355">
        <ele>784.3</ele>
        <time>2026-04-28T06:56:09Z</time>
      </trkpt>
      <trkpt lat="45.01427" lon="3.9135">
        <ele>784.5</ele>
        <time>2026-04-28T06:56:14Z</time>
      </trkpt>
      <trkpt lat="45.01421" lon="3.91346">
        <ele>784.7</ele>
        <time>2026-04-28T06:56:19Z</time>
      </trkpt>
      <trkpt lat="45.01421" lon="3.91346">
        <ele>784.9</ele>
        <time>2026-04-28T06:56:19Z</time>
      </trkpt>
      <trkpt lat="45.01419" lon="3.91345">
        <ele>784.9</ele>
        <time>2026-04-28T06:56:24Z</time>
      </trkpt>
      <trkpt lat="45.01418" lon="3.91346">
        <ele>784.7</ele>
        <time>2026-04-28T06:56:29Z</time>
      </trkpt>
      <trkpt lat="45.01414" lon="3.91346">
        <ele>784.7</ele>
        <time>2026-04-28T06:56:34Z</time>
      </trkpt>
      <trkpt lat="45.01412" lon="3.91347">
        <ele>784.7</ele>
        <time>2026-04-28T06:56:39Z</time>
      </trkpt>
      <trkpt lat="45.01412" lon="3.91347">
        <ele>784.7</ele>
        <time>2026-04-28T06:56:44Z</time>
      </trkpt>
      <trkpt lat="45.0141" lon="3.91353">
        <ele>784.3</ele>
        <time>2026-04-28T06:56:49Z</time>
      </trkpt>
      <trkpt lat="45.01406" lon="3.91363">
        <ele>784.2</ele>
        <time>2026-04-28T06:56:54Z</time>
      </trkpt>
      <trkpt lat="45.01402" lon="3.91369">
        <ele>784.9</ele>
        <time>2026-04-28T06:56:59Z</time>
      </trkpt>
      <trkpt lat="45.01397" lon="3.91375">
        <ele>785.6</ele>
        <time>2026-04-28T06:57:04Z</time>
      </trkpt>
      <trkpt lat="45.01392" lon="3.91379">
        <ele>786.3</ele>
        <time>2026-04-28T06:57:09Z</time>
      </trkpt>
      <trkpt lat="45.01386" lon="3.91383">
        <ele>786.8</ele>
        <time>2026-04-28T06:57:14Z</time>
      </trkpt>
      <trkpt lat="45.01379" lon="3.91384">
        <ele>786.9</ele>
        <time>2026-04-28T06:57:19Z</time>
      </trkpt>
      <trkpt lat="45.01372" lon="3.91386">
        <ele>787</ele>
        <time>2026-04-28T06:57:24Z</time>
      </trkpt>
      <trkpt lat="45.01364" lon="3.9139">
        <ele>787</ele>
        <time>2026-04-28T06:57:29Z</time>
      </trkpt>
      <trkpt lat="45.01357" lon="3.91397">
        <ele>786.8</ele>
        <time>2026-04-28T06:57:34Z</time>
      </trkpt>
      <trkpt lat="45.01349" lon="3.91399">
        <ele>786.4</ele>
        <time>2026-04-28T06:57:39Z</time>
      </trkpt>
      <trkpt lat="45.01342" lon="3.91395">
        <ele>786.2</ele>
        <time>2026-04-28T06:57:44Z</time>
      </trkpt>
      <trkpt lat="45.01338" lon="3.91385">
        <ele>786.3</ele>
        <time>2026-04-28T06:57:49Z</time>
      </trkpt>
      <trkpt lat="45.01336" lon="3.91376">
        <ele>786.5</ele>
        <time>2026-04-28T06:57:54Z</time>
      </trkpt>
      <trkpt lat="45.01334" lon="3.91366">
        <ele>786.8</ele>
        <time>2026-04-28T06:57:59Z</time>
      </trkpt>
      <trkpt lat="45.01331" lon="3.91356">
        <ele>787</ele>
        <time>2026-04-28T06:58:04Z</time>
      </trkpt>
      <trkpt lat="45.01328" lon="3.91346">
        <ele>787.1</ele>
        <time>2026-04-28T06:58:09Z</time>
      </trkpt>
      <trkpt lat="45.01325" lon="3.91335">
        <ele>787.3</ele>
        <time>2026-04-28T06:58:14Z</time>
      </trkpt>
      <trkpt lat="45.0132" lon="3.91326">
        <ele>787.4</ele>
        <time>2026-04-28T06:58:19Z</time>
      </trkpt>
      <trkpt lat="45.01317" lon="3.91316">
        <ele>787.2</ele>
        <time>2026-04-28T06:58:24Z</time>
      </trkpt>
      <trkpt lat="45.01318" lon="3.91315">
        <ele>787.2</ele>
        <time>2026-04-28T06:58:29Z</time>
      </trkpt>
      <trkpt lat="45.01318" lon="3.91315">
        <ele>787.2</ele>
        <time>2026-04-28T06:58:34Z</time>
      </trkpt>
      <trkpt lat="45.01318" lon="3.91315">
        <ele>787.2</ele>
        <time>2026-04-28T06:58:39Z</time>
      </trkpt>
      <trkpt lat="45.01318" lon="3.91314">
        <ele>787.2</ele>
        <time>2026-04-28T06:58:44Z</time>
      </trkpt>
      <trkpt lat="45.01314" lon="3.91306">
        <ele>787</ele>
        <time>2026-04-28T06:58:49Z</time>
      </trkpt>
      <trkpt lat="45.01311" lon="3.91297">
        <ele>787</ele>
        <time>2026-04-28T06:58:54Z</time>
      </trkpt>
      <trkpt lat="45.01308" lon="3.91288">
        <ele>787</ele>
        <time>2026-04-28T06:58:59Z</time>
      </trkpt>
      <trkpt lat="45.01305" lon="3.91278">
        <ele>787</ele>
        <time>2026-04-28T06:59:04Z</time>
      </trkpt>
      <trkpt lat="45.01303" lon="3.91269">
        <ele>787</ele>
        <time>2026-04-28T06:59:09Z</time>
      </trkpt>
      <trkpt lat="45.01302" lon="3.91258">
        <ele>787</ele>
        <time>2026-04-28T06:59:14Z</time>
      </trkpt>
      <trkpt lat="45.013" lon="3.91249">
        <ele>787</ele>
        <time>2026-04-28T06:59:19Z</time>
      </trkpt>
      <trkpt lat="45.013" lon="3.91239">
        <ele>787.3</ele>
        <time>2026-04-28T06:59:24Z</time>
      </trkpt>
      <trkpt lat="45.01301" lon="3.91229">
        <ele>787.6</ele>
        <time>2026-04-28T06:59:29Z</time>
      </trkpt>
      <trkpt lat="45.01303" lon="3.9122">
        <ele>787.9</ele>
        <time>2026-04-28T06:59:34Z</time>
      </trkpt>
      <trkpt lat="45.01304" lon="3.91213">
        <ele>787.9</ele>
        <time>2026-04-28T06:59:39Z</time>
      </trkpt>
      <trkpt lat="45.01304" lon="3.91208">
        <ele>787.9</ele>
        <time>2026-04-28T06:59:44Z</time>
      </trkpt>
      <trkpt lat="45.01304" lon="3.91208">
        <ele>787.9</ele>
        <time>2026-04-28T06:59:49Z</time>
      </trkpt>
      <trkpt lat="45.01304" lon="3.91208">
        <ele>787.9</ele>
        <time>2026-04-28T06:59:54Z</time>
      </trkpt>
      <trkpt lat="45.01304" lon="3.91208">
        <ele>787.9</ele>
        <time>2026-04-28T06:59:59Z</time>
      </trkpt>
      <trkpt lat="45.01304" lon="3.91208">
        <ele>787.9</ele>
        <time>2026-04-28T07:00:04Z</time>
      </trkpt>
      <trkpt lat="45.01304" lon="3.91208">
        <ele>787.9</ele>
        <time>2026-04-28T07:00:09Z</time>
      </trkpt>
      <trkpt lat="45.01304" lon="3.91208">
        <ele>787.9</ele>
        <time>2026-04-28T07:00:14Z</time>
      </trkpt>
      <trkpt lat="45.01304" lon="3.91208">
        <ele>787.9</ele>
        <time>2026-04-28T07:00:19Z</time>
      </trkpt>
      <trkpt lat="45.01304" lon="3.91208">
        <ele>787.9</ele>
        <time>2026-04-28T07:00:24Z</time>
      </trkpt>
      <trkpt lat="45.01304" lon="3.91208">
        <ele>787.9</ele>
        <time>2026-04-28T07:00:29Z</time>
      </trkpt>
      <trkpt lat="45.01304" lon="3.91208">
        <ele>787.9</ele>
        <time>2026-04-28T07:00:34Z</time>
      </trkpt>
      <trkpt lat="45.01304" lon="3.91208">
        <ele>787.9</ele>
        <time>2026-04-28T07:00:39Z</time>
      </trkpt>
      <trkpt lat="45.01304" lon="3.91208">
        <ele>787.9</ele>
        <time>2026-04-28T07:00:44Z</time>
      </trkpt>
      <trkpt lat="45.01304" lon="3.91208">
        <ele>787.9</ele>
        <time>2026-04-28T07:00:49Z</time>
      </trkpt>
      <trkpt lat="45.01304" lon="3.91208">
        <ele>787.9</ele>
        <time>2026-04-28T07:00:54Z</time>
      </trkpt>
      <trkpt lat="45.01304" lon="3.91208">
        <ele>787.9</ele>
        <time>2026-04-28T07:00:59Z</time>
      </trkpt>
      <trkpt lat="45.01304" lon="3.91208">
        <ele>787.9</ele>
        <time>2026-04-28T07:01:04Z</time>
      </trkpt>
      <trkpt lat="45.01304" lon="3.91208">
        <ele>787.9</ele>
        <time>2026-04-28T07:01:09Z</time>
      </trkpt>
      <trkpt lat="45.01304" lon="3.91208">
        <ele>787.9</ele>
        <time>2026-04-28T07:01:14Z</time>
      </trkpt>
      <trkpt lat="45.01304" lon="3.91208">
        <ele>787.9</ele>
        <time>2026-04-28T07:01:19Z</time>
      </trkpt>
      <trkpt lat="45.01304" lon="3.91208">
        <ele>787.9</ele>
        <time>2026-04-28T07:01:24Z</time>
      </trkpt>
      <trkpt lat="45.01304" lon="3.91204">
        <ele>787.9</ele>
        <time>2026-04-28T07:01:29Z</time>
      </trkpt>
      <trkpt lat="45.01307" lon="3.91195">
        <ele>787.9</ele>
        <time>2026-04-28T07:01:34Z</time>
      </trkpt>
      <trkpt lat="45.01309" lon="3.91185">
        <ele>787.9</ele>
        <time>2026-04-28T07:01:39Z</time>
      </trkpt>
      <trkpt lat="45.01312" lon="3.91174">
        <ele>787.9</ele>
        <time>2026-04-28T07:01:44Z</time>
      </trkpt>
      <trkpt lat="45.01312" lon="3.91165">
        <ele>788</ele>
        <time>2026-04-28T07:01:49Z</time>
      </trkpt>
      <trkpt lat="45.01316" lon="3.91156">
        <ele>788</ele>
        <time>2026-04-28T07:01:54Z</time>
      </trkpt>
      <trkpt lat="45.01317" lon="3.91144">
        <ele>788</ele>
        <time>2026-04-28T07:01:59Z</time>
      </trkpt>
      <trkpt lat="45.01318" lon="3.91135">
        <ele>788</ele>
        <time>2026-04-28T07:02:04Z</time>
      </trkpt>
      <trkpt lat="45.01319" lon="3.91124">
        <ele>788</ele>
        <time>2026-04-28T07:02:09Z</time>
      </trkpt>
      <trkpt lat="45.01322" lon="3.91113">
        <ele>788</ele>
        <time>2026-04-28T07:02:14Z</time>
      </trkpt>
      <trkpt lat="45.01325" lon="3.91102">
        <ele>788.3</ele>
        <time>2026-04-28T07:02:19Z</time>
      </trkpt>
      <trkpt lat="45.01326" lon="3.91093">
        <ele>788.7</ele>
        <time>2026-04-28T07:02:24Z</time>
      </trkpt>
      <trkpt lat="45.0133" lon="3.91082">
        <ele>789</ele>
        <time>2026-04-28T07:02:29Z</time>
      </trkpt>
      <trkpt lat="45.01331" lon="3.91072">
        <ele>789</ele>
        <time>2026-04-28T07:02:34Z</time>
      </trkpt>
      <trkpt lat="45.01333" lon="3.91061">
        <ele>789</ele>
        <time>2026-04-28T07:02:39Z</time>
      </trkpt>
      <trkpt lat="45.01336" lon="3.91051">
        <ele>789.2</ele>
        <time>2026-04-28T07:02:44Z</time>
      </trkpt>
      <trkpt lat="45.01337" lon="3.9104">
        <ele>789.6</ele>
        <time>2026-04-28T07:02:49Z</time>
      </trkpt>
      <trkpt lat="45.01338" lon="3.91029">
        <ele>790</ele>
        <time>2026-04-28T07:02:54Z</time>
      </trkpt>
      <trkpt lat="45.01341" lon="3.91021">
        <ele>790.2</ele>
        <time>2026-04-28T07:02:59Z</time>
      </trkpt>
      <trkpt lat="45.01343" lon="3.91011">
        <ele>790.6</ele>
        <time>2026-04-28T07:03:04Z</time>
      </trkpt>
      <trkpt lat="45.01344" lon="3.91001">
        <ele>791</ele>
        <time>2026-04-28T07:03:09Z</time>
      </trkpt>
      <trkpt lat="45.01344" lon="3.90991">
        <ele>791.4</ele>
        <time>2026-04-28T07:03:14Z</time>
      </trkpt>
      <trkpt lat="45.01344" lon="3.90982">
        <ele>791.9</ele>
        <time>2026-04-28T07:03:19Z</time>
      </trkpt>
      <trkpt lat="45.01344" lon="3.90972">
        <ele>792.4</ele>
        <time>2026-04-28T07:03:24Z</time>
      </trkpt>
      <trkpt lat="45.01342" lon="3.90961">
        <ele>792.7</ele>
        <time>2026-04-28T07:03:29Z</time>
      </trkpt>
      <trkpt lat="45.01341" lon="3.9095">
        <ele>793.1</ele>
        <time>2026-04-28T07:03:34Z</time>
      </trkpt>
      <trkpt lat="45.0134" lon="3.90943">
        <ele>793.3</ele>
        <time>2026-04-28T07:03:39Z</time>
      </trkpt>
      <trkpt lat="45.01341" lon="3.90934">
        <ele>793.7</ele>
        <time>2026-04-28T07:03:44Z</time>
      </trkpt>
      <trkpt lat="45.01343" lon="3.90925">
        <ele>794</ele>
        <time>2026-04-28T07:03:49Z</time>
      </trkpt>
      <trkpt lat="45.01345" lon="3.90916">
        <ele>794.5</ele>
        <time>2026-04-28T07:03:54Z</time>
      </trkpt>
      <trkpt lat="45.01349" lon="3.90909">
        <ele>795.1</ele>
        <time>2026-04-28T07:03:59Z</time>
      </trkpt>
      <trkpt lat="45.01351" lon="3.909">
        <ele>795.8</ele>
        <time>2026-04-28T07:04:04Z</time>
      </trkpt>
      <trkpt lat="45.01351" lon="3.90892">
        <ele>796.4</ele>
        <time>2026-04-28T07:04:09Z</time>
      </trkpt>
      <trkpt lat="45.01349" lon="3.90886">
        <ele>796.9</ele>
        <time>2026-04-28T07:04:14Z</time>
      </trkpt>
      <trkpt lat="45.01347" lon="3.90879">
        <ele>797.7</ele>
        <time>2026-04-28T07:04:19Z</time>
      </trkpt>
      <trkpt lat="45.01343" lon="3.90872">
        <ele>798.6</ele>
        <time>2026-04-28T07:04:24Z</time>
      </trkpt>
      <trkpt lat="45.01338" lon="3.90865">
        <ele>799.5</ele>
        <time>2026-04-28T07:04:29Z</time>
      </trkpt>
      <trkpt lat="45.01334" lon="3.90858">
        <ele>800.2</ele>
        <time>2026-04-28T07:04:34Z</time>
      </trkpt>
      <trkpt lat="45.0133" lon="3.90853">
        <ele>800.5</ele>
        <time>2026-04-28T07:04:39Z</time>
      </trkpt>
      <trkpt lat="45.01327" lon="3.90845">
        <ele>801.1</ele>
        <time>2026-04-28T07:04:44Z</time>
      </trkpt>
      <trkpt lat="45.01326" lon="3.90841">
        <ele>801.4</ele>
        <time>2026-04-28T07:04:49Z</time>
      </trkpt>
      <trkpt lat="45.01326" lon="3.90841">
        <ele>801.4</ele>
        <time>2026-04-28T07:04:54Z</time>
      </trkpt>
      <trkpt lat="45.01326" lon="3.90841">
        <ele>801.4</ele>
        <time>2026-04-28T07:04:59Z</time>
      </trkpt>
      <trkpt lat="45.01326" lon="3.90841">
        <ele>801.4</ele>
        <time>2026-04-28T07:05:04Z</time>
      </trkpt>
      <trkpt lat="45.01326" lon="3.90841">
        <ele>801.4</ele>
        <time>2026-04-28T07:05:09Z</time>
      </trkpt>
      <trkpt lat="45.01326" lon="3.90841">
        <ele>801.4</ele>
        <time>2026-04-28T07:05:14Z</time>
      </trkpt>
      <trkpt lat="45.01326" lon="3.90841">
        <ele>801.4</ele>
        <time>2026-04-28T07:05:19Z</time>
      </trkpt>
      <trkpt lat="45.01326" lon="3.90841">
        <ele>801.4</ele>
        <time>2026-04-28T07:05:24Z</time>
      </trkpt>
      <trkpt lat="45.01326" lon="3.90841">
        <ele>801.4</ele>
        <time>2026-04-28T07:05:29Z</time>
      </trkpt>
      <trkpt lat="45.01326" lon="3.90841">
        <ele>801.4</ele>
        <time>2026-04-28T07:05:34Z</time>
      </trkpt>
      <trkpt lat="45.01326" lon="3.90841">
        <ele>801.4</ele>
        <time>2026-04-28T07:05:39Z</time>
      </trkpt>
      <trkpt lat="45.01326" lon="3.90841">
        <ele>801.4</ele>
        <time>2026-04-28T07:05:44Z</time>
      </trkpt>
      <trkpt lat="45.01326" lon="3.90841">
        <ele>801.4</ele>
        <time>2026-04-28T07:05:49Z</time>
      </trkpt>
      <trkpt lat="45.01326" lon="3.90841">
        <ele>801.4</ele>
        <time>2026-04-28T07:05:54Z</time>
      </trkpt>
      <trkpt lat="45.01325" lon="3.90839">
        <ele>801.5</ele>
        <time>2026-04-28T07:05:59Z</time>
      </trkpt>
      <trkpt lat="45.01321" lon="3.90833">
        <ele>802</ele>
        <time>2026-04-28T07:06:04Z</time>
      </trkpt>
      <trkpt lat="45.01317" lon="3.90824">
        <ele>802.7</ele>
        <time>2026-04-28T07:06:09Z</time>
      </trkpt>
      <trkpt lat="45.01314" lon="3.90817">
        <ele>803.2</ele>
        <time>2026-04-28T07:06:14Z</time>
      </trkpt>
      <trkpt lat="45.0131" lon="3.90809">
        <ele>803.8</ele>
        <time>2026-04-28T07:06:19Z</time>
      </trkpt>
      <trkpt lat="45.01306" lon="3.90802">
        <ele>804.3</ele>
        <time>2026-04-28T07:06:24Z</time>
      </trkpt>
      <trkpt lat="45.01303" lon="3.90795">
        <ele>804.7</ele>
        <time>2026-04-28T07:06:29Z</time>
      </trkpt>
      <trkpt lat="45.01299" lon="3.90785">
        <ele>805.2</ele>
        <time>2026-04-28T07:06:34Z</time>
      </trkpt>
      <trkpt lat="45.01295" lon="3.90778">
        <ele>805.6</ele>
        <time>2026-04-28T07:06:39Z</time>
      </trkpt>
      <trkpt lat="45.0129" lon="3.9077">
        <ele>805.7</ele>
        <time>2026-04-28T07:06:44Z</time>
      </trkpt>
      <trkpt lat="45.01286" lon="3.90761">
        <ele>805.9</ele>
        <time>2026-04-28T07:06:49Z</time>
      </trkpt>
      <trkpt lat="45.01281" lon="3.90752">
        <ele>806</ele>
        <time>2026-04-28T07:06:54Z</time>
      </trkpt>
      <trkpt lat="45.01277" lon="3.90747">
        <ele>806.1</ele>
        <time>2026-04-28T07:06:59Z</time>
      </trkpt>
      <trkpt lat="45.0127" lon="3.90738">
        <ele>806.3</ele>
        <time>2026-04-28T07:07:04Z</time>
      </trkpt>
      <trkpt lat="45.01265" lon="3.90731">
        <ele>806.5</ele>
        <time>2026-04-28T07:07:09Z</time>
      </trkpt>
      <trkpt lat="45.01261" lon="3.90723">
        <ele>807</ele>
        <time>2026-04-28T07:07:14Z</time>
      </trkpt>
      <trkpt lat="45.01256" lon="3.90714">
        <ele>807.1</ele>
        <time>2026-04-28T07:07:19Z</time>
      </trkpt>
      <trkpt lat="45.01253" lon="3.90706">
        <ele>807.1</ele>
        <time>2026-04-28T07:07:24Z</time>
      </trkpt>
      <trkpt lat="45.01249" lon="3.90696">
        <ele>807</ele>
        <time>2026-04-28T07:07:29Z</time>
      </trkpt>
      <trkpt lat="45.01247" lon="3.90686">
        <ele>807.4</ele>
        <time>2026-04-28T07:07:34Z</time>
      </trkpt>
      <trkpt lat="45.01246" lon="3.90678">
        <ele>807.7</ele>
        <time>2026-04-28T07:07:39Z</time>
      </trkpt>
      <trkpt lat="45.01242" lon="3.9067">
        <ele>807.9</ele>
        <time>2026-04-28T07:07:44Z</time>
      </trkpt>
      <trkpt lat="45.01237" lon="3.90673">
        <ele>807.9</ele>
        <time>2026-04-28T07:07:49Z</time>
      </trkpt>
      <trkpt lat="45.01231" lon="3.90678">
        <ele>807.9</ele>
        <time>2026-04-28T07:07:54Z</time>
      </trkpt>
      <trkpt lat="45.01227" lon="3.90685">
        <ele>807.9</ele>
        <time>2026-04-28T07:07:59Z</time>
      </trkpt>
      <trkpt lat="45.0122" lon="3.90692">
        <ele>808</ele>
        <time>2026-04-28T07:08:04Z</time>
      </trkpt>
      <trkpt lat="45.01213" lon="3.90699">
        <ele>807.7</ele>
        <time>2026-04-28T07:08:09Z</time>
      </trkpt>
      <trkpt lat="45.01207" lon="3.90707">
        <ele>807.3</ele>
        <time>2026-04-28T07:08:14Z</time>
      </trkpt>
      <trkpt lat="45.012" lon="3.90713">
        <ele>807.2</ele>
        <time>2026-04-28T07:08:19Z</time>
      </trkpt>
      <trkpt lat="45.01193" lon="3.9072">
        <ele>807.1</ele>
        <time>2026-04-28T07:08:24Z</time>
      </trkpt>
      <trkpt lat="45.01186" lon="3.90726">
        <ele>806.7</ele>
        <time>2026-04-28T07:08:29Z</time>
      </trkpt>
      <trkpt lat="45.0118" lon="3.90734">
        <ele>806.2</ele>
        <time>2026-04-28T07:08:34Z</time>
      </trkpt>
      <trkpt lat="45.01174" lon="3.90739">
        <ele>805.8</ele>
        <time>2026-04-28T07:08:39Z</time>
      </trkpt>
      <trkpt lat="45.01168" lon="3.90746">
        <ele>805.3</ele>
        <time>2026-04-28T07:08:44Z</time>
      </trkpt>
      <trkpt lat="45.01161" lon="3.90754">
        <ele>804.8</ele>
        <time>2026-04-28T07:08:49Z</time>
      </trkpt>
      <trkpt lat="45.01155" lon="3.90763">
        <ele>804.2</ele>
        <time>2026-04-28T07:08:54Z</time>
      </trkpt>
      <trkpt lat="45.01149" lon="3.90772">
        <ele>803.8</ele>
        <time>2026-04-28T07:08:59Z</time>
      </trkpt>
      <trkpt lat="45.01145" lon="3.90778">
        <ele>803.5</ele>
        <time>2026-04-28T07:09:04Z</time>
      </trkpt>
      <trkpt lat="45.0114" lon="3.90787">
        <ele>803.3</ele>
        <time>2026-04-28T07:09:09Z</time>
      </trkpt>
      <trkpt lat="45.01135" lon="3.90794">
        <ele>803.2</ele>
        <time>2026-04-28T07:09:14Z</time>
      </trkpt>
      <trkpt lat="45.0113" lon="3.90801">
        <ele>803</ele>
        <time>2026-04-28T07:09:19Z</time>
      </trkpt>
      <trkpt lat="45.01127" lon="3.90812">
        <ele>802.5</ele>
        <time>2026-04-28T07:09:24Z</time>
      </trkpt>
      <trkpt lat="45.01122" lon="3.90821">
        <ele>802.4</ele>
        <time>2026-04-28T07:09:29Z</time>
      </trkpt>
      <trkpt lat="45.01118" lon="3.90832">
        <ele>802.3</ele>
        <time>2026-04-28T07:09:34Z</time>
      </trkpt>
      <trkpt lat="45.01113" lon="3.90842">
        <ele>802.2</ele>
        <time>2026-04-28T07:09:39Z</time>
      </trkpt>
      <trkpt lat="45.0111" lon="3.90852">
        <ele>801.8</ele>
        <time>2026-04-28T07:09:44Z</time>
      </trkpt>
      <trkpt lat="45.01106" lon="3.90861">
        <ele>801.6</ele>
        <time>2026-04-28T07:09:49Z</time>
      </trkpt>
      <trkpt lat="45.01101" lon="3.90872">
        <ele>801.7</ele>
        <time>2026-04-28T07:09:54Z</time>
      </trkpt>
      <trkpt lat="45.01098" lon="3.90882">
        <ele>801.7</ele>
        <time>2026-04-28T07:09:59Z</time>
      </trkpt>
      <trkpt lat="45.01093" lon="3.90892">
        <ele>801.8</ele>
        <time>2026-04-28T07:10:04Z</time>
      </trkpt>
      <trkpt lat="45.01089" lon="3.90902">
        <ele>801.9</ele>
        <time>2026-04-28T07:10:09Z</time>
      </trkpt>
      <trkpt lat="45.01084" lon="3.90912">
        <ele>802.1</ele>
        <time>2026-04-28T07:10:14Z</time>
      </trkpt>
      <trkpt lat="45.01083" lon="3.90922">
        <ele>801.6</ele>
        <time>2026-04-28T07:10:19Z</time>
      </trkpt>
      <trkpt lat="45.01079" lon="3.90931">
        <ele>801.3</ele>
        <time>2026-04-28T07:10:24Z</time>
      </trkpt>
      <trkpt lat="45.01076" lon="3.90942">
        <ele>800.7</ele>
        <time>2026-04-28T07:10:29Z</time>
      </trkpt>
      <trkpt lat="45.01074" lon="3.90951">
        <ele>800.2</ele>
        <time>2026-04-28T07:10:34Z</time>
      </trkpt>
      <trkpt lat="45.01076" lon="3.90955">
        <ele>799.8</ele>
        <time>2026-04-28T07:10:39Z</time>
      </trkpt>
      <trkpt lat="45.01077" lon="3.90957">
        <ele>799.6</ele>
        <time>2026-04-28T07:10:44Z</time>
      </trkpt>
      <trkpt lat="45.01077" lon="3.90957">
        <ele>799.6</ele>
        <time>2026-04-28T07:10:49Z</time>
      </trkpt>
      <trkpt lat="45.01077" lon="3.90957">
        <ele>799.6</ele>
        <time>2026-04-28T07:10:54Z</time>
      </trkpt>
      <trkpt lat="45.01077" lon="3.90957">
        <ele>799.6</ele>
        <time>2026-04-28T07:10:59Z</time>
      </trkpt>
      <trkpt lat="45.01072" lon="3.90962">
        <ele>799.6</ele>
        <time>2026-04-28T07:11:04Z</time>
      </trkpt>
      <trkpt lat="45.01067" lon="3.90972">
        <ele>799.2</ele>
        <time>2026-04-28T07:11:09Z</time>
      </trkpt>
      <trkpt lat="45.01065" lon="3.9098">
        <ele>798.8</ele>
        <time>2026-04-28T07:11:14Z</time>
      </trkpt>
      <trkpt lat="45.01059" lon="3.90989">
        <ele>798.5</ele>
        <time>2026-04-28T07:11:19Z</time>
      </trkpt>
      <trkpt lat="45.01056" lon="3.90995">
        <ele>798.3</ele>
        <time>2026-04-28T07:11:24Z</time>
      </trkpt>
      <trkpt lat="45.01051" lon="3.91004">
        <ele>797.9</ele>
        <time>2026-04-28T07:11:29Z</time>
      </trkpt>
      <trkpt lat="45.01047" lon="3.91014">
        <ele>797.3</ele>
        <time>2026-04-28T07:11:34Z</time>
      </trkpt>
      <trkpt lat="45.01042" lon="3.91023">
        <ele>796.9</ele>
        <time>2026-04-28T07:11:39Z</time>
      </trkpt>
      <trkpt lat="45.01037" lon="3.91035">
        <ele>796.1</ele>
        <time>2026-04-28T07:11:44Z</time>
      </trkpt>
      <trkpt lat="45.01032" lon="3.91044">
        <ele>795.4</ele>
        <time>2026-04-28T07:11:49Z</time>
      </trkpt>
      <trkpt lat="45.01027" lon="3.91052">
        <ele>794.6</ele>
        <time>2026-04-28T07:11:54Z</time>
      </trkpt>
      <trkpt lat="45.01023" lon="3.91061">
        <ele>794.1</ele>
        <time>2026-04-28T07:11:59Z</time>
      </trkpt>
      <trkpt lat="45.01018" lon="3.91071">
        <ele>793.6</ele>
        <time>2026-04-28T07:12:04Z</time>
      </trkpt>
      <trkpt lat="45.01013" lon="3.91079">
        <ele>793</ele>
        <time>2026-04-28T07:12:09Z</time>
      </trkpt>
      <trkpt lat="45.0101" lon="3.91086">
        <ele>792.4</ele>
        <time>2026-04-28T07:12:14Z</time>
      </trkpt>
      <trkpt lat="45.01004" lon="3.91095">
        <ele>791.6</ele>
        <time>2026-04-28T07:12:19Z</time>
      </trkpt>
      <trkpt lat="45.00999" lon="3.91103">
        <ele>790.8</ele>
        <time>2026-04-28T07:12:24Z</time>
      </trkpt>
      <trkpt lat="45.00991" lon="3.91105">
        <ele>789.9</ele>
        <time>2026-04-28T07:12:29Z</time>
      </trkpt>
      <trkpt lat="45.00988" lon="3.91104">
        <ele>789.8</ele>
        <time>2026-04-28T07:12:34Z</time>
      </trkpt>
      <trkpt lat="45.00985" lon="3.91101">
        <ele>790.1</ele>
        <time>2026-04-28T07:12:39Z</time>
      </trkpt>
      <trkpt lat="45.00985" lon="3.911">
        <ele>790.2</ele>
        <time>2026-04-28T07:12:44Z</time>
      </trkpt>
      <trkpt lat="45.00985" lon="3.911">
        <ele>790.2</ele>
        <time>2026-04-28T07:12:49Z</time>
      </trkpt>
      <trkpt lat="45.00985" lon="3.911">
        <ele>790.2</ele>
        <time>2026-04-28T07:12:54Z</time>
      </trkpt>
      <trkpt lat="45.00981" lon="3.91101">
        <ele>789.8</ele>
        <time>2026-04-28T07:12:59Z</time>
      </trkpt>
      <trkpt lat="45.00977" lon="3.91103">
        <ele>789.1</ele>
        <time>2026-04-28T07:13:04Z</time>
      </trkpt>
      <trkpt lat="45.00972" lon="3.91103">
        <ele>788.7</ele>
        <time>2026-04-28T07:13:09Z</time>
      </trkpt>
      <trkpt lat="45.00966" lon="3.91099">
        <ele>788.5</ele>
        <time>2026-04-28T07:13:14Z</time>
      </trkpt>
      <trkpt lat="45.00959" lon="3.91097">
        <ele>787.7</ele>
        <time>2026-04-28T07:13:19Z</time>
      </trkpt>
      <trkpt lat="45.00952" lon="3.91094">
        <ele>787.2</ele>
        <time>2026-04-28T07:13:24Z</time>
      </trkpt>
      <trkpt lat="45.00945" lon="3.91091">
        <ele>786.9</ele>
        <time>2026-04-28T07:13:29Z</time>
      </trkpt>
      <trkpt lat="45.00941" lon="3.91087">
        <ele>787.1</ele>
        <time>2026-04-28T07:13:34Z</time>
      </trkpt>
      <trkpt lat="45.00937" lon="3.91084">
        <ele>786.9</ele>
        <time>2026-04-28T07:13:39Z</time>
      </trkpt>
      <trkpt lat="45.00933" lon="3.9108">
        <ele>787</ele>
        <time>2026-04-28T07:13:44Z</time>
      </trkpt>
      <trkpt lat="45.00926" lon="3.91076">
        <ele>786.4</ele>
        <time>2026-04-28T07:13:49Z</time>
      </trkpt>
      <trkpt lat="45.00918" lon="3.91074">
        <ele>785</ele>
        <time>2026-04-28T07:13:54Z</time>
      </trkpt>
      <trkpt lat="45.00912" lon="3.91072">
        <ele>784.2</ele>
        <time>2026-04-28T07:13:59Z</time>
      </trkpt>
      <trkpt lat="45.00904" lon="3.9107">
        <ele>782.9</ele>
        <time>2026-04-28T07:14:04Z</time>
      </trkpt>
      <trkpt lat="45.00898" lon="3.91068">
        <ele>782.1</ele>
        <time>2026-04-28T07:14:09Z</time>
      </trkpt>
      <trkpt lat="45.00893" lon="3.91066">
        <ele>781.6</ele>
        <time>2026-04-28T07:14:14Z</time>
      </trkpt>
      <trkpt lat="45.00885" lon="3.91062">
        <ele>781.1</ele>
        <time>2026-04-28T07:14:19Z</time>
      </trkpt>
      <trkpt lat="45.00877" lon="3.9106">
        <ele>780.1</ele>
        <time>2026-04-28T07:14:24Z</time>
      </trkpt>
      <trkpt lat="45.0087" lon="3.91059">
        <ele>779</ele>
        <time>2026-04-28T07:14:29Z</time>
      </trkpt>
      <trkpt lat="45.00862" lon="3.91059">
        <ele>777.3</ele>
        <time>2026-04-28T07:14:34Z</time>
      </trkpt>
      <trkpt lat="45.00853" lon="3.91058">
        <ele>776.5</ele>
        <time>2026-04-28T07:14:39Z</time>
      </trkpt>
      <trkpt lat="45.00846" lon="3.91059">
        <ele>775.4</ele>
        <time>2026-04-28T07:14:44Z</time>
      </trkpt>
      <trkpt lat="45.00837" lon="3.91059">
        <ele>774.4</ele>
        <time>2026-04-28T07:14:49Z</time>
      </trkpt>
      <trkpt lat="45.00828" lon="3.9106">
        <ele>773</ele>
        <time>2026-04-28T07:14:54Z</time>
      </trkpt>
      <trkpt lat="45.00822" lon="3.9106">
        <ele>772.2</ele>
        <time>2026-04-28T07:14:59Z</time>
      </trkpt>
      <trkpt lat="45.00813" lon="3.91058">
        <ele>771.5</ele>
        <time>2026-04-28T07:15:04Z</time>
      </trkpt>
      <trkpt lat="45.00807" lon="3.91058">
        <ele>770.7</ele>
        <time>2026-04-28T07:15:09Z</time>
      </trkpt>
      <trkpt lat="45.00797" lon="3.91059">
        <ele>769.6</ele>
        <time>2026-04-28T07:15:14Z</time>
      </trkpt>
      <trkpt lat="45.00788" lon="3.91061">
        <ele>768.6</ele>
        <time>2026-04-28T07:15:19Z</time>
      </trkpt>
      <trkpt lat="45.00782" lon="3.91061">
        <ele>768.1</ele>
        <time>2026-04-28T07:15:24Z</time>
      </trkpt>
      <trkpt lat="45.00774" lon="3.91058">
        <ele>768.1</ele>
        <time>2026-04-28T07:15:29Z</time>
      </trkpt>
      <trkpt lat="45.00765" lon="3.91062">
        <ele>766.1</ele>
        <time>2026-04-28T07:15:34Z</time>
      </trkpt>
      <trkpt lat="45.00756" lon="3.91064">
        <ele>764.6</ele>
        <time>2026-04-28T07:15:39Z</time>
      </trkpt>
      <trkpt lat="45.00749" lon="3.91069">
        <ele>762.5</ele>
        <time>2026-04-28T07:15:44Z</time>
      </trkpt>
      <trkpt lat="45.00741" lon="3.91071">
        <ele>761.5</ele>
        <time>2026-04-28T07:15:49Z</time>
      </trkpt>
      <trkpt lat="45.00733" lon="3.91072">
        <ele>760.7</ele>
        <time>2026-04-28T07:15:54Z</time>
      </trkpt>
      <trkpt lat="45.00725" lon="3.91078">
        <ele>759.1</ele>
        <time>2026-04-28T07:15:59Z</time>
      </trkpt>
      <trkpt lat="45.00718" lon="3.91084">
        <ele>757.7</ele>
        <time>2026-04-28T07:16:04Z</time>
      </trkpt>
      <trkpt lat="45.00711" lon="3.91092">
        <ele>756.2</ele>
        <time>2026-04-28T07:16:09Z</time>
      </trkpt>
      <trkpt lat="45.00705" lon="3.91097">
        <ele>755.2</ele>
        <time>2026-04-28T07:16:14Z</time>
      </trkpt>
      <trkpt lat="45.00699" lon="3.91102">
        <ele>754.4</ele>
        <time>2026-04-28T07:16:19Z</time>
      </trkpt>
      <trkpt lat="45.00691" lon="3.91109">
        <ele>753.4</ele>
        <time>2026-04-28T07:16:24Z</time>
      </trkpt>
      <trkpt lat="45.00684" lon="3.91115">
        <ele>752.9</ele>
        <time>2026-04-28T07:16:29Z</time>
      </trkpt>
      <trkpt lat="45.00679" lon="3.91121">
        <ele>752.3</ele>
        <time>2026-04-28T07:16:34Z</time>
      </trkpt>
      <trkpt lat="45.00672" lon="3.91127">
        <ele>752</ele>
        <time>2026-04-28T07:16:39Z</time>
      </trkpt>
      <trkpt lat="45.00666" lon="3.91135">
        <ele>751.4</ele>
        <time>2026-04-28T07:16:44Z</time>
      </trkpt>
      <trkpt lat="45.00659" lon="3.91142">
        <ele>750.6</ele>
        <time>2026-04-28T07:16:49Z</time>
      </trkpt>
      <trkpt lat="45.00651" lon="3.9115">
        <ele>749.4</ele>
        <time>2026-04-28T07:16:54Z</time>
      </trkpt>
      <trkpt lat="45.00645" lon="3.91156">
        <ele>748.5</ele>
        <time>2026-04-28T07:16:59Z</time>
      </trkpt>
      <trkpt lat="45.00639" lon="3.91162">
        <ele>747.7</ele>
        <time>2026-04-28T07:17:04Z</time>
      </trkpt>
      <trkpt lat="45.00632" lon="3.91168">
        <ele>747.1</ele>
        <time>2026-04-28T07:17:09Z</time>
      </trkpt>
      <trkpt lat="45.00626" lon="3.91174">
        <ele>746.5</ele>
        <time>2026-04-28T07:17:14Z</time>
      </trkpt>
      <trkpt lat="45.00619" lon="3.9118">
        <ele>745.9</ele>
        <time>2026-04-28T07:17:19Z</time>
      </trkpt>
      <trkpt lat="45.00612" lon="3.91186">
        <ele>745.2</ele>
        <time>2026-04-28T07:17:24Z</time>
      </trkpt>
      <trkpt lat="45.00608" lon="3.91197">
        <ele>743.4</ele>
        <time>2026-04-28T07:17:29Z</time>
      </trkpt>
      <trkpt lat="45.00609" lon="3.91208">
        <ele>741.9</ele>
        <time>2026-04-28T07:17:34Z</time>
      </trkpt>
      <trkpt lat="45.00611" lon="3.91218">
        <ele>740.6</ele>
        <time>2026-04-28T07:17:39Z</time>
      </trkpt>
      <trkpt lat="45.00609" lon="3.91227">
        <ele>739.4</ele>
        <time>2026-04-28T07:17:44Z</time>
      </trkpt>
      <trkpt lat="45.00603" lon="3.91234">
        <ele>738.2</ele>
        <time>2026-04-28T07:17:49Z</time>
      </trkpt>
      <trkpt lat="45.00596" lon="3.91235">
        <ele>737.6</ele>
        <time>2026-04-28T07:17:54Z</time>
      </trkpt>
      <trkpt lat="45.0059" lon="3.91235">
        <ele>737.2</ele>
        <time>2026-04-28T07:17:59Z</time>
      </trkpt>
      <trkpt lat="45.00583" lon="3.91236">
        <ele>736.5</ele>
        <time>2026-04-28T07:18:04Z</time>
      </trkpt>
      <trkpt lat="45.00579" lon="3.91234">
        <ele>736.3</ele>
        <time>2026-04-28T07:18:09Z</time>
      </trkpt>
      <trkpt lat="45.00569" lon="3.91236">
        <ele>734.7</ele>
        <time>2026-04-28T07:18:14Z</time>
      </trkpt>
      <trkpt lat="45.00559" lon="3.91236">
        <ele>733.4</ele>
        <time>2026-04-28T07:18:19Z</time>
      </trkpt>
      <trkpt lat="45.0055" lon="3.91239">
        <ele>732.3</ele>
        <time>2026-04-28T07:18:24Z</time>
      </trkpt>
      <trkpt lat="45.00543" lon="3.91243">
        <ele>731.3</ele>
        <time>2026-04-28T07:18:29Z</time>
      </trkpt>
      <trkpt lat="45.00537" lon="3.91247">
        <ele>730.3</ele>
        <time>2026-04-28T07:18:34Z</time>
      </trkpt>
      <trkpt lat="45.00529" lon="3.91252">
        <ele>728.9</ele>
        <time>2026-04-28T07:18:39Z</time>
      </trkpt>
      <trkpt lat="45.00523" lon="3.91258">
        <ele>728</ele>
        <time>2026-04-28T07:18:44Z</time>
      </trkpt>
      <trkpt lat="45.00517" lon="3.91263">
        <ele>727.2</ele>
        <time>2026-04-28T07:18:49Z</time>
      </trkpt>
      <trkpt lat="45.00508" lon="3.9127">
        <ele>726.1</ele>
        <time>2026-04-28T07:18:54Z</time>
      </trkpt>
      <trkpt lat="45.00501" lon="3.91276">
        <ele>725.2</ele>
        <time>2026-04-28T07:18:59Z</time>
      </trkpt>
      <trkpt lat="45.00495" lon="3.91284">
        <ele>724.3</ele>
        <time>2026-04-28T07:19:04Z</time>
      </trkpt>
      <trkpt lat="45.0049" lon="3.91291">
        <ele>723.8</ele>
        <time>2026-04-28T07:19:09Z</time>
      </trkpt>
      <trkpt lat="45.00483" lon="3.91297">
        <ele>723.3</ele>
        <time>2026-04-28T07:19:14Z</time>
      </trkpt>
      <trkpt lat="45.00476" lon="3.91302">
        <ele>723</ele>
        <time>2026-04-28T07:19:19Z</time>
      </trkpt>
      <trkpt lat="45.0047" lon="3.91306">
        <ele>722.7</ele>
        <time>2026-04-28T07:19:24Z</time>
      </trkpt>
      <trkpt lat="45.00462" lon="3.91304">
        <ele>721.5</ele>
        <time>2026-04-28T07:19:29Z</time>
      </trkpt>
      <trkpt lat="45.00455" lon="3.91299">
        <ele>720.6</ele>
        <time>2026-04-28T07:19:34Z</time>
      </trkpt>
      <trkpt lat="45.00449" lon="3.91292">
        <ele>720</ele>
        <time>2026-04-28T07:19:39Z</time>
      </trkpt>
      <trkpt lat="45.00443" lon="3.91291">
        <ele>719.5</ele>
        <time>2026-04-28T07:19:44Z</time>
      </trkpt>
      <trkpt lat="45.00442" lon="3.9129">
        <ele>719.6</ele>
        <time>2026-04-28T07:19:49Z</time>
      </trkpt>
      <trkpt lat="45.00436" lon="3.91289">
        <ele>719.7</ele>
        <time>2026-04-28T07:19:54Z</time>
      </trkpt>
      <trkpt lat="45.0043" lon="3.91291">
        <ele>719.8</ele>
        <time>2026-04-28T07:19:59Z</time>
      </trkpt>
      <trkpt lat="45.00424" lon="3.91297">
        <ele>719.8</ele>
        <time>2026-04-28T07:20:04Z</time>
      </trkpt>
      <trkpt lat="45.00416" lon="3.91303">
        <ele>719.9</ele>
        <time>2026-04-28T07:20:09Z</time>
      </trkpt>
      <trkpt lat="45.00409" lon="3.91307">
        <ele>719.2</ele>
        <time>2026-04-28T07:20:14Z</time>
      </trkpt>
      <trkpt lat="45.00403" lon="3.91313">
        <ele>718.8</ele>
        <time>2026-04-28T07:20:19Z</time>
      </trkpt>
      <trkpt lat="45.00396" lon="3.91315">
        <ele>718.1</ele>
        <time>2026-04-28T07:20:24Z</time>
      </trkpt>
      <trkpt lat="45.00389" lon="3.91315">
        <ele>717.4</ele>
        <time>2026-04-28T07:20:29Z</time>
      </trkpt>
      <trkpt lat="45.0038" lon="3.91315">
        <ele>716.7</ele>
        <time>2026-04-28T07:20:34Z</time>
      </trkpt>
      <trkpt lat="45.00372" lon="3.91312">
        <ele>716</ele>
        <time>2026-04-28T07:20:39Z</time>
      </trkpt>
      <trkpt lat="45.00364" lon="3.91308">
        <ele>715.3</ele>
        <time>2026-04-28T07:20:44Z</time>
      </trkpt>
      <trkpt lat="45.00357" lon="3.91307">
        <ele>714.6</ele>
        <time>2026-04-28T07:20:49Z</time>
      </trkpt>
      <trkpt lat="45.00347" lon="3.91305">
        <ele>713.5</ele>
        <time>2026-04-28T07:20:54Z</time>
      </trkpt>
      <trkpt lat="45.0034" lon="3.91303">
        <ele>712.8</ele>
        <time>2026-04-28T07:20:59Z</time>
      </trkpt>
      <trkpt lat="45.00333" lon="3.91299">
        <ele>712.2</ele>
        <time>2026-04-28T07:21:04Z</time>
      </trkpt>
      <trkpt lat="45.00322" lon="3.91297">
        <ele>710.7</ele>
        <time>2026-04-28T07:21:09Z</time>
      </trkpt>
      <trkpt lat="45.00315" lon="3.91298">
        <ele>709.6</ele>
        <time>2026-04-28T07:21:14Z</time>
      </trkpt>
      <trkpt lat="45.0031" lon="3.91305">
        <ele>708.7</ele>
        <time>2026-04-28T07:21:19Z</time>
      </trkpt>
      <trkpt lat="45.00305" lon="3.91314">
        <ele>707</ele>
        <time>2026-04-28T07:21:24Z</time>
      </trkpt>
      <trkpt lat="45.00305" lon="3.91327">
        <ele>705.6</ele>
        <time>2026-04-28T07:21:29Z</time>
      </trkpt>
      <trkpt lat="45.00306" lon="3.91337">
        <ele>704.6</ele>
        <time>2026-04-28T07:21:34Z</time>
      </trkpt>
      <trkpt lat="45.00309" lon="3.91347">
        <ele>703.7</ele>
        <time>2026-04-28T07:21:39Z</time>
      </trkpt>
      <trkpt lat="45.00311" lon="3.91357">
        <ele>702.7</ele>
        <time>2026-04-28T07:21:44Z</time>
      </trkpt>
      <trkpt lat="45.00312" lon="3.91367">
        <ele>701.5</ele>
        <time>2026-04-28T07:21:49Z</time>
      </trkpt>
      <trkpt lat="45.00313" lon="3.91376">
        <ele>700.3</ele>
        <time>2026-04-28T07:21:54Z</time>
      </trkpt>
      <trkpt lat="45.00314" lon="3.91391">
        <ele>698.3</ele>
        <time>2026-04-28T07:21:59Z</time>
      </trkpt>
      <trkpt lat="45.00315" lon="3.91404">
        <ele>697.3</ele>
        <time>2026-04-28T07:22:04Z</time>
      </trkpt>
      <trkpt lat="45.00313" lon="3.91417">
        <ele>695.6</ele>
        <time>2026-04-28T07:22:09Z</time>
      </trkpt>
      <trkpt lat="45.00308" lon="3.91426">
        <ele>693.8</ele>
        <time>2026-04-28T07:22:14Z</time>
      </trkpt>
      <trkpt lat="45.00303" lon="3.91434">
        <ele>692.4</ele>
        <time>2026-04-28T07:22:19Z</time>
      </trkpt>
      <trkpt lat="45.00296" lon="3.91443">
        <ele>691.1</ele>
        <time>2026-04-28T07:22:24Z</time>
      </trkpt>
      <trkpt lat="45.00292" lon="3.91449">
        <ele>690.4</ele>
        <time>2026-04-28T07:22:29Z</time>
      </trkpt>
      <trkpt lat="45.00285" lon="3.91452">
        <ele>689.5</ele>
        <time>2026-04-28T07:22:34Z</time>
      </trkpt>
      <trkpt lat="45.00278" lon="3.91456">
        <ele>688.6</ele>
        <time>2026-04-28T07:22:39Z</time>
      </trkpt>
      <trkpt lat="45.00271" lon="3.91463">
        <ele>687.8</ele>
        <time>2026-04-28T07:22:44Z</time>
      </trkpt>
      <trkpt lat="45.00263" lon="3.91468">
        <ele>687</ele>
        <time>2026-04-28T07:22:49Z</time>
      </trkpt>
      <trkpt lat="45.00257" lon="3.91474">
        <ele>686.4</ele>
        <time>2026-04-28T07:22:54Z</time>
      </trkpt>
      <trkpt lat="45.0025" lon="3.91479">
        <ele>685.8</ele>
        <time>2026-04-28T07:22:59Z</time>
      </trkpt>
      <trkpt lat="45.00243" lon="3.91485">
        <ele>685.2</ele>
        <time>2026-04-28T07:23:04Z</time>
      </trkpt>
      <trkpt lat="45.00234" lon="3.91491">
        <ele>684.6</ele>
        <time>2026-04-28T07:23:09Z</time>
      </trkpt>
      <trkpt lat="45.00226" lon="3.91497">
        <ele>684.2</ele>
        <time>2026-04-28T07:23:14Z</time>
      </trkpt>
      <trkpt lat="45.0022" lon="3.91502">
        <ele>683.8</ele>
        <time>2026-04-28T07:23:19Z</time>
      </trkpt>
      <trkpt lat="45.00213" lon="3.91505">
        <ele>683.5</ele>
        <time>2026-04-28T07:23:24Z</time>
      </trkpt>
      <trkpt lat="45.00206" lon="3.91507">
        <ele>683.2</ele>
        <time>2026-04-28T07:23:29Z</time>
      </trkpt>
      <trkpt lat="45.00204" lon="3.91508">
        <ele>683.1</ele>
        <time>2026-04-28T07:23:34Z</time>
      </trkpt>
      <trkpt lat="45.00202" lon="3.91511">
        <ele>682.9</ele>
        <time>2026-04-28T07:23:39Z</time>
      </trkpt>
      <trkpt lat="45.00202" lon="3.91511">
        <ele>682.9</ele>
        <time>2026-04-28T07:23:44Z</time>
      </trkpt>
      <trkpt lat="45.00196" lon="3.91515">
        <ele>682.5</ele>
        <time>2026-04-28T07:23:49Z</time>
      </trkpt>
      <trkpt lat="45.00187" lon="3.91519">
        <ele>682</ele>
        <time>2026-04-28T07:23:54Z</time>
      </trkpt>
      <trkpt lat="45.00178" lon="3.91526">
        <ele>681.5</ele>
        <time>2026-04-28T07:23:59Z</time>
      </trkpt>
      <trkpt lat="45.00172" lon="3.91529">
        <ele>681.2</ele>
        <time>2026-04-28T07:24:04Z</time>
      </trkpt>
      <trkpt lat="45.00169" lon="3.91533">
        <ele>681</ele>
        <time>2026-04-28T07:24:09Z</time>
      </trkpt>
      <trkpt lat="45.00168" lon="3.91534">
        <ele>681</ele>
        <time>2026-04-28T07:24:14Z</time>
      </trkpt>
      <trkpt lat="45.00163" lon="3.91537">
        <ele>680.9</ele>
        <time>2026-04-28T07:24:19Z</time>
      </trkpt>
      <trkpt lat="45.00155" lon="3.9154">
        <ele>680.6</ele>
        <time>2026-04-28T07:24:24Z</time>
      </trkpt>
      <trkpt lat="45.00148" lon="3.91544">
        <ele>680.2</ele>
        <time>2026-04-28T07:24:29Z</time>
      </trkpt>
      <trkpt lat="45.00142" lon="3.91545">
        <ele>679.9</ele>
        <time>2026-04-28T07:24:34Z</time>
      </trkpt>
      <trkpt lat="45.00135" lon="3.91551">
        <ele>679.4</ele>
        <time>2026-04-28T07:24:39Z</time>
      </trkpt>
      <trkpt lat="45.00129" lon="3.91556">
        <ele>679.3</ele>
        <time>2026-04-28T07:24:44Z</time>
      </trkpt>
      <trkpt lat="45.0012" lon="3.9156">
        <ele>678.9</ele>
        <time>2026-04-28T07:24:49Z</time>
      </trkpt>
      <trkpt lat="45.00114" lon="3.91565">
        <ele>678.2</ele>
        <time>2026-04-28T07:24:54Z</time>
      </trkpt>
      <trkpt lat="45.00106" lon="3.91568">
        <ele>677.5</ele>
        <time>2026-04-28T07:24:59Z</time>
      </trkpt>
      <trkpt lat="45.00098" lon="3.91571">
        <ele>676.5</ele>
        <time>2026-04-28T07:25:04Z</time>
      </trkpt>
      <trkpt lat="45.0009" lon="3.91571">
        <ele>676</ele>
        <time>2026-04-28T07:25:09Z</time>
      </trkpt>
      <trkpt lat="45.00082" lon="3.9157">
        <ele>675.6</ele>
        <time>2026-04-28T07:25:14Z</time>
      </trkpt>
      <trkpt lat="45.00074" lon="3.9157">
        <ele>674.2</ele>
        <time>2026-04-28T07:25:19Z</time>
      </trkpt>
      <trkpt lat="45.00067" lon="3.9157">
        <ele>672.9</ele>
        <time>2026-04-28T07:25:24Z</time>
      </trkpt>
      <trkpt lat="45.00065" lon="3.9157">
        <ele>672.6</ele>
        <time>2026-04-28T07:25:29Z</time>
      </trkpt>
      <trkpt lat="45.00064" lon="3.91569">
        <ele>672.6</ele>
        <time>2026-04-28T07:25:34Z</time>
      </trkpt>
      <trkpt lat="45.00063" lon="3.91569">
        <ele>672.4</ele>
        <time>2026-04-28T07:25:39Z</time>
      </trkpt>
      <trkpt lat="45.00065" lon="3.91571">
        <ele>672.4</ele>
        <time>2026-04-28T07:25:44Z</time>
      </trkpt>
      <trkpt lat="45.0007" lon="3.91577">
        <ele>672</ele>
        <time>2026-04-28T07:25:49Z</time>
      </trkpt>
      <trkpt lat="45.00075" lon="3.91585">
        <ele>671.1</ele>
        <time>2026-04-28T07:25:54Z</time>
      </trkpt>
      <trkpt lat="45.00081" lon="3.91593">
        <ele>670.2</ele>
        <time>2026-04-28T07:25:59Z</time>
      </trkpt>
      <trkpt lat="45.00086" lon="3.916">
        <ele>669</ele>
        <time>2026-04-28T07:26:04Z</time>
      </trkpt>
      <trkpt lat="45.00093" lon="3.91607">
        <ele>668</ele>
        <time>2026-04-28T07:26:09Z</time>
      </trkpt>
      <trkpt lat="45.00099" lon="3.91614">
        <ele>667.2</ele>
        <time>2026-04-28T07:26:14Z</time>
      </trkpt>
      <trkpt lat="45.00105" lon="3.91622">
        <ele>666.5</ele>
        <time>2026-04-28T07:26:19Z</time>
      </trkpt>
      <trkpt lat="45.00109" lon="3.91633">
        <ele>664.9</ele>
        <time>2026-04-28T07:26:24Z</time>
      </trkpt>
      <trkpt lat="45.00109" lon="3.91644">
        <ele>663.5</ele>
        <time>2026-04-28T07:26:29Z</time>
      </trkpt>
      <trkpt lat="45.00108" lon="3.91655">
        <ele>662.6</ele>
        <time>2026-04-28T07:26:34Z</time>
      </trkpt>
      <trkpt lat="45.00106" lon="3.91667">
        <ele>661.4</ele>
        <time>2026-04-28T07:26:39Z</time>
      </trkpt>
      <trkpt lat="45.00107" lon="3.91678">
        <ele>661.2</ele>
        <time>2026-04-28T07:26:44Z</time>
      </trkpt>
      <trkpt lat="45.00106" lon="3.91689">
        <ele>660.8</ele>
        <time>2026-04-28T07:26:49Z</time>
      </trkpt>
      <trkpt lat="45.001" lon="3.91696">
        <ele>660.2</ele>
        <time>2026-04-28T07:26:54Z</time>
      </trkpt>
      <trkpt lat="45.00093" lon="3.91702">
        <ele>659.5</ele>
        <time>2026-04-28T07:26:59Z</time>
      </trkpt>
      <trkpt lat="45.00083" lon="3.91704">
        <ele>658.6</ele>
        <time>2026-04-28T07:27:04Z</time>
      </trkpt>
      <trkpt lat="45.00075" lon="3.91705">
        <ele>657.7</ele>
        <time>2026-04-28T07:27:09Z</time>
      </trkpt>
      <trkpt lat="45.00068" lon="3.91704">
        <ele>657</ele>
        <time>2026-04-28T07:27:14Z</time>
      </trkpt>
      <trkpt lat="45.00061" lon="3.91705">
        <ele>656.2</ele>
        <time>2026-04-28T07:27:19Z</time>
      </trkpt>
      <trkpt lat="45.00053" lon="3.91705">
        <ele>655.3</ele>
        <time>2026-04-28T07:27:24Z</time>
      </trkpt>
      <trkpt lat="45.00046" lon="3.91705">
        <ele>654.3</ele>
        <time>2026-04-28T07:27:29Z</time>
      </trkpt>
      <trkpt lat="45.00041" lon="3.91704">
        <ele>653.7</ele>
        <time>2026-04-28T07:27:34Z</time>
      </trkpt>
      <trkpt lat="45.00039" lon="3.91705">
        <ele>653.4</ele>
        <time>2026-04-28T07:27:39Z</time>
      </trkpt>
      <trkpt lat="45.00033" lon="3.91706">
        <ele>652.5</ele>
        <time>2026-04-28T07:27:44Z</time>
      </trkpt>
      <trkpt lat="45.00026" lon="3.91705">
        <ele>651.7</ele>
        <time>2026-04-28T07:27:49Z</time>
      </trkpt>
      <trkpt lat="45.00019" lon="3.91705">
        <ele>651.2</ele>
        <time>2026-04-28T07:27:54Z</time>
      </trkpt>
      <trkpt lat="45.00012" lon="3.91706">
        <ele>650.6</ele>
        <time>2026-04-28T07:27:59Z</time>
      </trkpt>
      <trkpt lat="45.00004" lon="3.91707">
        <ele>649.9</ele>
        <time>2026-04-28T07:28:04Z</time>
      </trkpt>
      <trkpt lat="44.99996" lon="3.91708">
        <ele>649.2</ele>
        <time>2026-04-28T07:28:09Z</time>
      </trkpt>
      <trkpt lat="44.99987" lon="3.91708">
        <ele>648.4</ele>
        <time>2026-04-28T07:28:14Z</time>
      </trkpt>
      <trkpt lat="44.9998" lon="3.91708">
        <ele>647.7</ele>
        <time>2026-04-28T07:28:19Z</time>
      </trkpt>
      <trkpt lat="44.99973" lon="3.91706">
        <ele>647.2</ele>
        <time>2026-04-28T07:28:24Z</time>
      </trkpt>
      <trkpt lat="44.99965" lon="3.91705">
        <ele>646</ele>
        <time>2026-04-28T07:28:29Z</time>
      </trkpt>
      <trkpt lat="44.99957" lon="3.91707">
        <ele>644.6</ele>
        <time>2026-04-28T07:28:34Z</time>
      </trkpt>
      <trkpt lat="44.9995" lon="3.91706">
        <ele>643.5</ele>
        <time>2026-04-28T07:28:39Z</time>
      </trkpt>
      <trkpt lat="44.99943" lon="3.91706">
        <ele>642.4</ele>
        <time>2026-04-28T07:28:44Z</time>
      </trkpt>
      <trkpt lat="44.99938" lon="3.91705">
        <ele>641.7</ele>
        <time>2026-04-28T07:28:49Z</time>
      </trkpt>
      <trkpt lat="44.99931" lon="3.91708">
        <ele>640.6</ele>
        <time>2026-04-28T07:28:54Z</time>
      </trkpt>
      <trkpt lat="44.99924" lon="3.91711">
        <ele>639.5</ele>
        <time>2026-04-28T07:28:59Z</time>
      </trkpt>
      <trkpt lat="44.99921" lon="3.91716">
        <ele>638.8</ele>
        <time>2026-04-28T07:29:04Z</time>
      </trkpt>
      <trkpt lat="44.99914" lon="3.9172">
        <ele>637.7</ele>
        <time>2026-04-28T07:29:09Z</time>
      </trkpt>
      <trkpt lat="44.99905" lon="3.91726">
        <ele>636.3</ele>
        <time>2026-04-28T07:29:14Z</time>
      </trkpt>
      <trkpt lat="44.99899" lon="3.91735">
        <ele>635.5</ele>
        <time>2026-04-28T07:29:19Z</time>
      </trkpt>
      <trkpt lat="44.99892" lon="3.91745">
        <ele>634.4</ele>
        <time>2026-04-28T07:29:24Z</time>
      </trkpt>
      <trkpt lat="44.99887" lon="3.9174">
        <ele>633.6</ele>
        <time>2026-04-28T07:29:29Z</time>
      </trkpt>
      <trkpt lat="44.99881" lon="3.91737">
        <ele>632.6</ele>
        <time>2026-04-28T07:29:34Z</time>
      </trkpt>
      <trkpt lat="44.99878" lon="3.91728">
        <ele>632.3</ele>
        <time>2026-04-28T07:29:39Z</time>
      </trkpt>
      <trkpt lat="44.99875" lon="3.9172">
        <ele>632.1</ele>
        <time>2026-04-28T07:29:44Z</time>
      </trkpt>
      <trkpt lat="44.99867" lon="3.91708">
        <ele>631.8</ele>
        <time>2026-04-28T07:29:49Z</time>
      </trkpt>
      <trkpt lat="44.99861" lon="3.91705">
        <ele>631.2</ele>
        <time>2026-04-28T07:29:54Z</time>
      </trkpt>
      <trkpt lat="44.99856" lon="3.91708">
        <ele>629.9</ele>
        <time>2026-04-28T07:29:59Z</time>
      </trkpt>
      <trkpt lat="44.99849" lon="3.9171">
        <ele>628.3</ele>
        <time>2026-04-28T07:30:04Z</time>
      </trkpt>
      <trkpt lat="44.99843" lon="3.91713">
        <ele>627</ele>
        <time>2026-04-28T07:30:09Z</time>
      </trkpt>
      <trkpt lat="44.99837" lon="3.91715">
        <ele>625.7</ele>
        <time>2026-04-28T07:30:14Z</time>
      </trkpt>
      <trkpt lat="44.9983" lon="3.91717">
        <ele>624.8</ele>
        <time>2026-04-28T07:30:19Z</time>
      </trkpt>
      <trkpt lat="44.99823" lon="3.91718">
        <ele>624.3</ele>
        <time>2026-04-28T07:30:24Z</time>
      </trkpt>
      <trkpt lat="44.99818" lon="3.9172">
        <ele>623.9</ele>
        <time>2026-04-28T07:30:29Z</time>
      </trkpt>
      <trkpt lat="44.99818" lon="3.9172">
        <ele>623.9</ele>
        <time>2026-04-28T07:30:34Z</time>
      </trkpt>
      <trkpt lat="44.99818" lon="3.9172">
        <ele>623.9</ele>
        <time>2026-04-28T07:30:39Z</time>
      </trkpt>
      <trkpt lat="44.99818" lon="3.9172">
        <ele>623.9</ele>
        <time>2026-04-28T07:30:44Z</time>
      </trkpt>
      <trkpt lat="44.99818" lon="3.9172">
        <ele>623.9</ele>
        <time>2026-04-28T07:30:49Z</time>
      </trkpt>
      <trkpt lat="44.99818" lon="3.9172">
        <ele>623.9</ele>
        <time>2026-04-28T07:30:54Z</time>
      </trkpt>
      <trkpt lat="44.99818" lon="3.9172">
        <ele>623.9</ele>
        <time>2026-04-28T07:30:59Z</time>
      </trkpt>
      <trkpt lat="44.99818" lon="3.9172">
        <ele>623.9</ele>
        <time>2026-04-28T07:31:04Z</time>
      </trkpt>
      <trkpt lat="44.99813" lon="3.91711">
        <ele>623.5</ele>
        <time>2026-04-28T07:31:09Z</time>
      </trkpt>
      <trkpt lat="44.99813" lon="3.91711">
        <ele>623.5</ele>
        <time>2026-04-28T07:31:14Z</time>
      </trkpt>
      <trkpt lat="44.99813" lon="3.91711">
        <ele>623.5</ele>
        <time>2026-04-28T07:31:19Z</time>
      </trkpt>
      <trkpt lat="44.99806" lon="3.91714">
        <ele>623</ele>
        <time>2026-04-28T07:31:24Z</time>
      </trkpt>
      <trkpt lat="44.99798" lon="3.91716">
        <ele>624</ele>
        <time>2026-04-28T07:31:29Z</time>
      </trkpt>
      <trkpt lat="44.99796" lon="3.91716">
        <ele>624.3</ele>
        <time>2026-04-28T07:31:34Z</time>
      </trkpt>
      <trkpt lat="44.99793" lon="3.91716">
        <ele>624.7</ele>
        <time>2026-04-28T07:31:39Z</time>
      </trkpt>
      <trkpt lat="44.99786" lon="3.91718">
        <ele>625.7</ele>
        <time>2026-04-28T07:31:44Z</time>
      </trkpt>
      <trkpt lat="44.99779" lon="3.9172">
        <ele>626.7</ele>
        <time>2026-04-28T07:31:49Z</time>
      </trkpt>
      <trkpt lat="44.99771" lon="3.91722">
        <ele>627.7</ele>
        <time>2026-04-28T07:31:54Z</time>
      </trkpt>
      <trkpt lat="44.99766" lon="3.91723">
        <ele>628.3</ele>
        <time>2026-04-28T07:31:59Z</time>
      </trkpt>
      <trkpt lat="44.99765" lon="3.91723">
        <ele>628.4</ele>
        <time>2026-04-28T07:32:04Z</time>
      </trkpt>
      <trkpt lat="44.9976" lon="3.91726">
        <ele>629.1</ele>
        <time>2026-04-28T07:32:09Z</time>
      </trkpt>
      <trkpt lat="44.99752" lon="3.9173">
        <ele>630.1</ele>
        <time>2026-04-28T07:32:14Z</time>
      </trkpt>
      <trkpt lat="44.99748" lon="3.91732">
        <ele>630.3</ele>
        <time>2026-04-28T07:32:19Z</time>
      </trkpt>
      <trkpt lat="44.99749" lon="3.91739">
        <ele>630.6</ele>
        <time>2026-04-28T07:32:24Z</time>
      </trkpt>
      <trkpt lat="44.99745" lon="3.91749">
        <ele>630.8</ele>
        <time>2026-04-28T07:32:29Z</time>
      </trkpt>
      <trkpt lat="44.9974" lon="3.9176">
        <ele>630.4</ele>
        <time>2026-04-28T07:32:34Z</time>
      </trkpt>
      <trkpt lat="44.99739" lon="3.91769">
        <ele>630.2</ele>
        <time>2026-04-28T07:32:39Z</time>
      </trkpt>
      <trkpt lat="44.99732" lon="3.91778">
        <ele>630</ele>
        <time>2026-04-28T07:32:44Z</time>
      </trkpt>
      <trkpt lat="44.99729" lon="3.91781">
        <ele>629.9</ele>
        <time>2026-04-28T07:32:49Z</time>
      </trkpt>
      <trkpt lat="44.99729" lon="3.91781">
        <ele>629.9</ele>
        <time>2026-04-28T07:32:54Z</time>
      </trkpt>
      <trkpt lat="44.99723" lon="3.91784">
        <ele>629.8</ele>
        <time>2026-04-28T07:32:59Z</time>
      </trkpt>
      <trkpt lat="44.9972" lon="3.91796">
        <ele>629.4</ele>
        <time>2026-04-28T07:33:04Z</time>
      </trkpt>
      <trkpt lat="44.99718" lon="3.918">
        <ele>629.3</ele>
        <time>2026-04-28T07:33:09Z</time>
      </trkpt>
      <trkpt lat="44.99715" lon="3.91805">
        <ele>629.3</ele>
        <time>2026-04-28T07:33:14Z</time>
      </trkpt>
      <trkpt lat="44.99708" lon="3.9181">
        <ele>629.6</ele>
        <time>2026-04-28T07:33:19Z</time>
      </trkpt>
      <trkpt lat="44.99702" lon="3.91818">
        <ele>630.1</ele>
        <time>2026-04-28T07:33:24Z</time>
      </trkpt>
      <trkpt lat="44.99699" lon="3.91827">
        <ele>630.5</ele>
        <time>2026-04-28T07:33:29Z</time>
      </trkpt>
      <trkpt lat="44.99693" lon="3.91831">
        <ele>630.9</ele>
        <time>2026-04-28T07:33:34Z</time>
      </trkpt>
      <trkpt lat="44.99686" lon="3.91832">
        <ele>631</ele>
        <time>2026-04-28T07:33:39Z</time>
      </trkpt>
      <trkpt lat="44.99677" lon="3.91836">
        <ele>631</ele>
        <time>2026-04-28T07:33:44Z</time>
      </trkpt>
      <trkpt lat="44.99672" lon="3.91837">
        <ele>631</ele>
        <time>2026-04-28T07:33:49Z</time>
      </trkpt>
      <trkpt lat="44.99664" lon="3.91841">
        <ele>631.1</ele>
        <time>2026-04-28T07:33:54Z</time>
      </trkpt>
      <trkpt lat="44.99656" lon="3.91842">
        <ele>631.4</ele>
        <time>2026-04-28T07:33:59Z</time>
      </trkpt>
      <trkpt lat="44.99649" lon="3.91845">
        <ele>631.6</ele>
        <time>2026-04-28T07:34:04Z</time>
      </trkpt>
      <trkpt lat="44.99644" lon="3.91848">
        <ele>631.8</ele>
        <time>2026-04-28T07:34:09Z</time>
      </trkpt>
      <trkpt lat="44.99641" lon="3.91845">
        <ele>631.9</ele>
        <time>2026-04-28T07:34:14Z</time>
      </trkpt>
      <trkpt lat="44.99634" lon="3.91844">
        <ele>632.1</ele>
        <time>2026-04-28T07:34:19Z</time>
      </trkpt>
      <trkpt lat="44.99627" lon="3.91843">
        <ele>632.3</ele>
        <time>2026-04-28T07:34:24Z</time>
      </trkpt>
      <trkpt lat="44.99622" lon="3.91845">
        <ele>632.4</ele>
        <time>2026-04-28T07:34:29Z</time>
      </trkpt>
      <trkpt lat="44.99615" lon="3.91846">
        <ele>632.5</ele>
        <time>2026-04-28T07:34:34Z</time>
      </trkpt>
      <trkpt lat="44.99608" lon="3.91831">
        <ele>633.1</ele>
        <time>2026-04-28T07:34:39Z</time>
      </trkpt>
      <trkpt lat="44.99602" lon="3.91832">
        <ele>633.3</ele>
        <time>2026-04-28T07:34:44Z</time>
      </trkpt>
      <trkpt lat="44.99593" lon="3.91827">
        <ele>633.7</ele>
        <time>2026-04-28T07:34:49Z</time>
      </trkpt>
      <trkpt lat="44.99584" lon="3.91823">
        <ele>634</ele>
        <time>2026-04-28T07:34:54Z</time>
      </trkpt>
      <trkpt lat="44.9958" lon="3.9182">
        <ele>634.3</ele>
        <time>2026-04-28T07:34:59Z</time>
      </trkpt>
      <trkpt lat="44.99577" lon="3.91816">
        <ele>634.6</ele>
        <time>2026-04-28T07:35:04Z</time>
      </trkpt>
      <trkpt lat="44.99571" lon="3.91815">
        <ele>635.2</ele>
        <time>2026-04-28T07:35:09Z</time>
      </trkpt>
      <trkpt lat="44.99569" lon="3.91812">
        <ele>635.4</ele>
        <time>2026-04-28T07:35:14Z</time>
      </trkpt>
      <trkpt lat="44.99564" lon="3.91814">
        <ele>635.9</ele>
        <time>2026-04-28T07:35:19Z</time>
      </trkpt>
      <trkpt lat="44.99557" lon="3.91812">
        <ele>636.6</ele>
        <time>2026-04-28T07:35:24Z</time>
      </trkpt>
      <trkpt lat="44.99551" lon="3.91812">
        <ele>637.5</ele>
        <time>2026-04-28T07:35:29Z</time>
      </trkpt>
      <trkpt lat="44.99551" lon="3.91809">
        <ele>637.6</ele>
        <time>2026-04-28T07:35:34Z</time>
      </trkpt>
      <trkpt lat="44.99545" lon="3.91806">
        <ele>638.5</ele>
        <time>2026-04-28T07:35:39Z</time>
      </trkpt>
      <trkpt lat="44.99539" lon="3.91804">
        <ele>639.3</ele>
        <time>2026-04-28T07:35:44Z</time>
      </trkpt>
      <trkpt lat="44.99533" lon="3.91801">
        <ele>640</ele>
        <time>2026-04-28T07:35:49Z</time>
      </trkpt>
      <trkpt lat="44.99527" lon="3.91799">
        <ele>640.7</ele>
        <time>2026-04-28T07:35:54Z</time>
      </trkpt>
      <trkpt lat="44.99521" lon="3.91796">
        <ele>641.6</ele>
        <time>2026-04-28T07:35:59Z</time>
      </trkpt>
      <trkpt lat="44.99515" lon="3.91795">
        <ele>642.7</ele>
        <time>2026-04-28T07:36:04Z</time>
      </trkpt>
      <trkpt lat="44.99509" lon="3.91794">
        <ele>643.7</ele>
        <time>2026-04-28T07:36:09Z</time>
      </trkpt>
      <trkpt lat="44.99503" lon="3.9179">
        <ele>644.2</ele>
        <time>2026-04-28T07:36:14Z</time>
      </trkpt>
      <trkpt lat="44.99498" lon="3.91787">
        <ele>644.7</ele>
        <time>2026-04-28T07:36:19Z</time>
      </trkpt>
      <trkpt lat="44.99494" lon="3.91783">
        <ele>644.8</ele>
        <time>2026-04-28T07:36:24Z</time>
      </trkpt>
      <trkpt lat="44.99488" lon="3.91778">
        <ele>645.2</ele>
        <time>2026-04-28T07:36:29Z</time>
      </trkpt>
      <trkpt lat="44.99481" lon="3.91776">
        <ele>646.3</ele>
        <time>2026-04-28T07:36:34Z</time>
      </trkpt>
      <trkpt lat="44.99477" lon="3.91774">
        <ele>646.9</ele>
        <time>2026-04-28T07:36:39Z</time>
      </trkpt>
      <trkpt lat="44.99473" lon="3.91776">
        <ele>647.7</ele>
        <time>2026-04-28T07:36:44Z</time>
      </trkpt>
      <trkpt lat="44.99465" lon="3.91783">
        <ele>649.2</ele>
        <time>2026-04-28T07:36:49Z</time>
      </trkpt>
      <trkpt lat="44.99459" lon="3.91788">
        <ele>650.2</ele>
        <time>2026-04-28T07:36:54Z</time>
      </trkpt>
      <trkpt lat="44.99455" lon="3.91794">
        <ele>650.9</ele>
        <time>2026-04-28T07:36:59Z</time>
      </trkpt>
      <trkpt lat="44.99452" lon="3.91801">
        <ele>651.5</ele>
        <time>2026-04-28T07:37:04Z</time>
      </trkpt>
      <trkpt lat="44.99447" lon="3.91807">
        <ele>652</ele>
        <time>2026-04-28T07:37:09Z</time>
      </trkpt>
      <trkpt lat="44.99443" lon="3.91812">
        <ele>652.6</ele>
        <time>2026-04-28T07:37:14Z</time>
      </trkpt>
      <trkpt lat="44.9944" lon="3.91818">
        <ele>653.3</ele>
        <time>2026-04-28T07:37:19Z</time>
      </trkpt>
      <trkpt lat="44.99437" lon="3.91823">
        <ele>653.9</ele>
        <time>2026-04-28T07:37:24Z</time>
      </trkpt>
      <trkpt lat="44.99432" lon="3.91828">
        <ele>654.6</ele>
        <time>2026-04-28T07:37:29Z</time>
      </trkpt>
      <trkpt lat="44.99427" lon="3.91834">
        <ele>655.2</ele>
        <time>2026-04-28T07:37:34Z</time>
      </trkpt>
      <trkpt lat="44.99423" lon="3.91837">
        <ele>655.5</ele>
        <time>2026-04-28T07:37:39Z</time>
      </trkpt>
      <trkpt lat="44.99418" lon="3.91842">
        <ele>655.9</ele>
        <time>2026-04-28T07:37:44Z</time>
      </trkpt>
      <trkpt lat="44.99412" lon="3.91848">
        <ele>656.4</ele>
        <time>2026-04-28T07:37:49Z</time>
      </trkpt>
      <trkpt lat="44.99408" lon="3.91854">
        <ele>656.9</ele>
        <time>2026-04-28T07:37:54Z</time>
      </trkpt>
      <trkpt lat="44.99404" lon="3.91858">
        <ele>657.3</ele>
        <time>2026-04-28T07:37:59Z</time>
      </trkpt>
      <trkpt lat="44.99399" lon="3.91864">
        <ele>657.9</ele>
        <time>2026-04-28T07:38:04Z</time>
      </trkpt>
      <trkpt lat="44.99394" lon="3.91869">
        <ele>658.4</ele>
        <time>2026-04-28T07:38:09Z</time>
      </trkpt>
      <trkpt lat="44.99389" lon="3.91874">
        <ele>659</ele>
        <time>2026-04-28T07:38:14Z</time>
      </trkpt>
      <trkpt lat="44.99383" lon="3.91878">
        <ele>659.8</ele>
        <time>2026-04-28T07:38:19Z</time>
      </trkpt>
      <trkpt lat="44.99378" lon="3.91883">
        <ele>660.5</ele>
        <time>2026-04-28T07:38:24Z</time>
      </trkpt>
      <trkpt lat="44.99373" lon="3.91889">
        <ele>661.3</ele>
        <time>2026-04-28T07:38:29Z</time>
      </trkpt>
      <trkpt lat="44.9937" lon="3.91896">
        <ele>662.1</ele>
        <time>2026-04-28T07:38:34Z</time>
      </trkpt>
      <trkpt lat="44.99369" lon="3.91904">
        <ele>662.6</ele>
        <time>2026-04-28T07:38:39Z</time>
      </trkpt>
      <trkpt lat="44.99367" lon="3.91911">
        <ele>663.1</ele>
        <time>2026-04-28T07:38:44Z</time>
      </trkpt>
      <trkpt lat="44.99364" lon="3.91918">
        <ele>663.8</ele>
        <time>2026-04-28T07:38:49Z</time>
      </trkpt>
      <trkpt lat="44.9936" lon="3.91924">
        <ele>664.7</ele>
        <time>2026-04-28T07:38:54Z</time>
      </trkpt>
      <trkpt lat="44.99357" lon="3.91932">
        <ele>665.6</ele>
        <time>2026-04-28T07:38:59Z</time>
      </trkpt>
      <trkpt lat="44.99352" lon="3.9194">
        <ele>666.7</ele>
        <time>2026-04-28T07:39:04Z</time>
      </trkpt>
      <trkpt lat="44.99347" lon="3.91948">
        <ele>667.8</ele>
        <time>2026-04-28T07:39:09Z</time>
      </trkpt>
      <trkpt lat="44.99342" lon="3.91955">
        <ele>668.8</ele>
        <time>2026-04-28T07:39:14Z</time>
      </trkpt>
      <trkpt lat="44.9934" lon="3.91963">
        <ele>669.6</ele>
        <time>2026-04-28T07:39:19Z</time>
      </trkpt>
      <trkpt lat="44.99337" lon="3.9197">
        <ele>670.4</ele>
        <time>2026-04-28T07:39:24Z</time>
      </trkpt>
      <trkpt lat="44.99332" lon="3.91977">
        <ele>671.3</ele>
        <time>2026-04-28T07:39:29Z</time>
      </trkpt>
      <trkpt lat="44.99329" lon="3.9198">
        <ele>671.7</ele>
        <time>2026-04-28T07:39:34Z</time>
      </trkpt>
      <trkpt lat="44.99327" lon="3.91983">
        <ele>672.1</ele>
        <time>2026-04-28T07:39:39Z</time>
      </trkpt>
      <trkpt lat="44.99325" lon="3.91986">
        <ele>672.4</ele>
        <time>2026-04-28T07:39:44Z</time>
      </trkpt>
      <trkpt lat="44.99323" lon="3.91993">
        <ele>672.9</ele>
        <time>2026-04-28T07:39:49Z</time>
      </trkpt>
      <trkpt lat="44.9932" lon="3.92001">
        <ele>673.5</ele>
        <time>2026-04-28T07:39:54Z</time>
      </trkpt>
      <trkpt lat="44.99315" lon="3.92006">
        <ele>674.2</ele>
        <time>2026-04-28T07:39:59Z</time>
      </trkpt>
      <trkpt lat="44.99311" lon="3.92014">
        <ele>674.9</ele>
        <time>2026-04-28T07:40:04Z</time>
      </trkpt>
      <trkpt lat="44.99306" lon="3.92018">
        <ele>675.6</ele>
        <time>2026-04-28T07:40:09Z</time>
      </trkpt>
      <trkpt lat="44.99301" lon="3.92025">
        <ele>676.2</ele>
        <time>2026-04-28T07:40:14Z</time>
      </trkpt>
      <trkpt lat="44.99298" lon="3.92034">
        <ele>676.5</ele>
        <time>2026-04-28T07:40:19Z</time>
      </trkpt>
      <trkpt lat="44.99294" lon="3.92039">
        <ele>676.8</ele>
        <time>2026-04-28T07:40:24Z</time>
      </trkpt>
      <trkpt lat="44.99292" lon="3.92039">
        <ele>677</ele>
        <time>2026-04-28T07:40:29Z</time>
      </trkpt>
      <trkpt lat="44.99288" lon="3.92047">
        <ele>677.3</ele>
        <time>2026-04-28T07:40:34Z</time>
      </trkpt>
      <trkpt lat="44.99284" lon="3.92054">
        <ele>677.6</ele>
        <time>2026-04-28T07:40:39Z</time>
      </trkpt>
      <trkpt lat="44.99281" lon="3.92062">
        <ele>677.8</ele>
        <time>2026-04-28T07:40:44Z</time>
      </trkpt>
      <trkpt lat="44.99278" lon="3.92069">
        <ele>678</ele>
        <time>2026-04-28T07:40:49Z</time>
      </trkpt>
      <trkpt lat="44.99273" lon="3.92071">
        <ele>678.4</ele>
        <time>2026-04-28T07:40:54Z</time>
      </trkpt>
      <trkpt lat="44.99267" lon="3.92072">
        <ele>678.9</ele>
        <time>2026-04-28T07:40:59Z</time>
      </trkpt>
      <trkpt lat="44.99261" lon="3.92072">
        <ele>679.5</ele>
        <time>2026-04-28T07:41:04Z</time>
      </trkpt>
      <trkpt lat="44.99255" lon="3.92072">
        <ele>680</ele>
        <time>2026-04-28T07:41:09Z</time>
      </trkpt>
      <trkpt lat="44.99248" lon="3.92071">
        <ele>680.6</ele>
        <time>2026-04-28T07:41:14Z</time>
      </trkpt>
      <trkpt lat="44.99242" lon="3.92071">
        <ele>681.2</ele>
        <time>2026-04-28T07:41:19Z</time>
      </trkpt>
      <trkpt lat="44.99236" lon="3.9207">
        <ele>681.8</ele>
        <time>2026-04-28T07:41:24Z</time>
      </trkpt>
      <trkpt lat="44.99232" lon="3.92069">
        <ele>682.1</ele>
        <time>2026-04-28T07:41:29Z</time>
      </trkpt>
      <trkpt lat="44.99227" lon="3.92069">
        <ele>682.6</ele>
        <time>2026-04-28T07:41:34Z</time>
      </trkpt>
      <trkpt lat="44.99225" lon="3.92067">
        <ele>682.8</ele>
        <time>2026-04-28T07:41:39Z</time>
      </trkpt>
      <trkpt lat="44.99223" lon="3.92065">
        <ele>682.9</ele>
        <time>2026-04-28T07:41:44Z</time>
      </trkpt>
      <trkpt lat="44.99223" lon="3.92065">
        <ele>682.9</ele>
        <time>2026-04-28T07:41:49Z</time>
      </trkpt>
      <trkpt lat="44.99223" lon="3.92065">
        <ele>682.9</ele>
        <time>2026-04-28T07:41:54Z</time>
      </trkpt>
      <trkpt lat="44.99223" lon="3.92065">
        <ele>682.9</ele>
        <time>2026-04-28T07:41:59Z</time>
      </trkpt>
      <trkpt lat="44.99223" lon="3.92065">
        <ele>682.9</ele>
        <time>2026-04-28T07:42:04Z</time>
      </trkpt>
      <trkpt lat="44.99223" lon="3.92065">
        <ele>682.9</ele>
        <time>2026-04-28T07:42:09Z</time>
      </trkpt>
      <trkpt lat="44.99223" lon="3.92065">
        <ele>682.9</ele>
        <time>2026-04-28T07:42:14Z</time>
      </trkpt>
      <trkpt lat="44.99223" lon="3.92065">
        <ele>682.9</ele>
        <time>2026-04-28T07:42:19Z</time>
      </trkpt>
      <trkpt lat="44.99223" lon="3.92065">
        <ele>682.9</ele>
        <time>2026-04-28T07:42:24Z</time>
      </trkpt>
      <trkpt lat="44.99219" lon="3.92061">
        <ele>683.3</ele>
        <time>2026-04-28T07:42:29Z</time>
      </trkpt>
      <trkpt lat="44.99214" lon="3.92062">
        <ele>683.8</ele>
        <time>2026-04-28T07:42:34Z</time>
      </trkpt>
      <trkpt lat="44.99209" lon="3.9206">
        <ele>684.4</ele>
        <time>2026-04-28T07:42:39Z</time>
      </trkpt>
      <trkpt lat="44.99204" lon="3.92059">
        <ele>684.9</ele>
        <time>2026-04-28T07:42:44Z</time>
      </trkpt>
      <trkpt lat="44.99198" lon="3.92058">
        <ele>685.5</ele>
        <time>2026-04-28T07:42:49Z</time>
      </trkpt>
      <trkpt lat="44.99193" lon="3.92056">
        <ele>686.1</ele>
        <time>2026-04-28T07:42:54Z</time>
      </trkpt>
      <trkpt lat="44.99187" lon="3.92055">
        <ele>686.8</ele>
        <time>2026-04-28T07:42:59Z</time>
      </trkpt>
      <trkpt lat="44.99182" lon="3.92053">
        <ele>687.5</ele>
        <time>2026-04-28T07:43:04Z</time>
      </trkpt>
      <trkpt lat="44.99175" lon="3.92051">
        <ele>688.4</ele>
        <time>2026-04-28T07:43:09Z</time>
      </trkpt>
      <trkpt lat="44.99169" lon="3.92047">
        <ele>689.4</ele>
        <time>2026-04-28T07:43:14Z</time>
      </trkpt>
      <trkpt lat="44.99165" lon="3.92041">
        <ele>690.3</ele>
        <time>2026-04-28T07:43:19Z</time>
      </trkpt>
      <trkpt lat="44.99162" lon="3.92037">
        <ele>691</ele>
        <time>2026-04-28T07:43:24Z</time>
      </trkpt>
      <trkpt lat="44.99159" lon="3.92031">
        <ele>691.8</ele>
        <time>2026-04-28T07:43:29Z</time>
      </trkpt>
      <trkpt lat="44.99156" lon="3.92024">
        <ele>692.8</ele>
        <time>2026-04-28T07:43:34Z</time>
      </trkpt>
      <trkpt lat="44.99154" lon="3.92018">
        <ele>693.5</ele>
        <time>2026-04-28T07:43:39Z</time>
      </trkpt>
      <trkpt lat="44.99152" lon="3.92012">
        <ele>694.2</ele>
        <time>2026-04-28T07:43:44Z</time>
      </trkpt>
      <trkpt lat="44.99149" lon="3.92006">
        <ele>695.1</ele>
        <time>2026-04-28T07:43:49Z</time>
      </trkpt>
      <trkpt lat="44.99148" lon="3.92001">
        <ele>695.6</ele>
        <time>2026-04-28T07:43:54Z</time>
      </trkpt>
      <trkpt lat="44.99145" lon="3.91995">
        <ele>696.6</ele>
        <time>2026-04-28T07:43:59Z</time>
      </trkpt>
      <trkpt lat="44.99143" lon="3.91988">
        <ele>697.6</ele>
        <time>2026-04-28T07:44:04Z</time>
      </trkpt>
      <trkpt lat="44.99141" lon="3.9198">
        <ele>698.7</ele>
        <time>2026-04-28T07:44:09Z</time>
      </trkpt>
      <trkpt lat="44.99139" lon="3.91973">
        <ele>699.9</ele>
        <time>2026-04-28T07:44:14Z</time>
      </trkpt>
      <trkpt lat="44.99136" lon="3.91967">
        <ele>700.9</ele>
        <time>2026-04-28T07:44:19Z</time>
      </trkpt>
      <trkpt lat="44.99133" lon="3.91963">
        <ele>701.7</ele>
        <time>2026-04-28T07:44:24Z</time>
      </trkpt>
      <trkpt lat="44.9913" lon="3.91958">
        <ele>702.6</ele>
        <time>2026-04-28T07:44:29Z</time>
      </trkpt>
      <trkpt lat="44.99126" lon="3.91954">
        <ele>703.6</ele>
        <time>2026-04-28T07:44:34Z</time>
      </trkpt>
      <trkpt lat="44.99123" lon="3.9195">
        <ele>704.3</ele>
        <time>2026-04-28T07:44:39Z</time>
      </trkpt>
      <trkpt lat="44.9912" lon="3.91945">
        <ele>705.1</ele>
        <time>2026-04-28T07:44:44Z</time>
      </trkpt>
      <trkpt lat="44.99116" lon="3.91939">
        <ele>705.6</ele>
        <time>2026-04-28T07:44:49Z</time>
      </trkpt>
      <trkpt lat="44.99111" lon="3.91931">
        <ele>706.1</ele>
        <time>2026-04-28T07:44:54Z</time>
      </trkpt>
      <trkpt lat="44.99106" lon="3.91926">
        <ele>706.8</ele>
        <time>2026-04-28T07:44:59Z</time>
      </trkpt>
      <trkpt lat="44.99102" lon="3.91921">
        <ele>707.5</ele>
        <time>2026-04-28T07:45:04Z</time>
      </trkpt>
      <trkpt lat="44.99098" lon="3.91917">
        <ele>708.3</ele>
        <time>2026-04-28T07:45:09Z</time>
      </trkpt>
      <trkpt lat="44.99094" lon="3.91912">
        <ele>709.3</ele>
        <time>2026-04-28T07:45:14Z</time>
      </trkpt>
      <trkpt lat="44.9909" lon="3.91907">
        <ele>710.1</ele>
        <time>2026-04-28T07:45:19Z</time>
      </trkpt>
      <trkpt lat="44.99086" lon="3.91902">
        <ele>710.9</ele>
        <time>2026-04-28T07:45:24Z</time>
      </trkpt>
      <trkpt lat="44.99082" lon="3.91898">
        <ele>711.6</ele>
        <time>2026-04-28T07:45:29Z</time>
      </trkpt>
      <trkpt lat="44.99079" lon="3.91893">
        <ele>711.9</ele>
        <time>2026-04-28T07:45:34Z</time>
      </trkpt>
      <trkpt lat="44.99075" lon="3.91888">
        <ele>712.5</ele>
        <time>2026-04-28T07:45:39Z</time>
      </trkpt>
      <trkpt lat="44.99071" lon="3.91883">
        <ele>713.4</ele>
        <time>2026-04-28T07:45:44Z</time>
      </trkpt>
      <trkpt lat="44.99068" lon="3.91876">
        <ele>714.2</ele>
        <time>2026-04-28T07:45:49Z</time>
      </trkpt>
      <trkpt lat="44.99065" lon="3.9187">
        <ele>715</ele>
        <time>2026-04-28T07:45:54Z</time>
      </trkpt>
      <trkpt lat="44.99062" lon="3.91863">
        <ele>715.8</ele>
        <time>2026-04-28T07:45:59Z</time>
      </trkpt>
      <trkpt lat="44.9906" lon="3.91855">
        <ele>716.7</ele>
        <time>2026-04-28T07:46:04Z</time>
      </trkpt>
      <trkpt lat="44.99058" lon="3.91849">
        <ele>717.5</ele>
        <time>2026-04-28T07:46:09Z</time>
      </trkpt>
      <trkpt lat="44.99058" lon="3.91842">
        <ele>718</ele>
        <time>2026-04-28T07:46:14Z</time>
      </trkpt>
      <trkpt lat="44.99059" lon="3.91835">
        <ele>718.4</ele>
        <time>2026-04-28T07:46:19Z</time>
      </trkpt>
      <trkpt lat="44.99059" lon="3.91828">
        <ele>718.9</ele>
        <time>2026-04-28T07:46:24Z</time>
      </trkpt>
      <trkpt lat="44.99058" lon="3.91817">
        <ele>719.8</ele>
        <time>2026-04-28T07:46:29Z</time>
      </trkpt>
      <trkpt lat="44.99057" lon="3.91808">
        <ele>720.6</ele>
        <time>2026-04-28T07:46:34Z</time>
      </trkpt>
      <trkpt lat="44.99058" lon="3.918">
        <ele>721</ele>
        <time>2026-04-28T07:46:39Z</time>
      </trkpt>
      <trkpt lat="44.99059" lon="3.91794">
        <ele>721.3</ele>
        <time>2026-04-28T07:46:44Z</time>
      </trkpt>
      <trkpt lat="44.9906" lon="3.91788">
        <ele>721.6</ele>
        <time>2026-04-28T07:46:49Z</time>
      </trkpt>
      <trkpt lat="44.99062" lon="3.91778">
        <ele>722.1</ele>
        <time>2026-04-28T07:46:54Z</time>
      </trkpt>
      <trkpt lat="44.99063" lon="3.9177">
        <ele>722.8</ele>
        <time>2026-04-28T07:46:59Z</time>
      </trkpt>
      <trkpt lat="44.99065" lon="3.91763">
        <ele>723.4</ele>
        <time>2026-04-28T07:47:04Z</time>
      </trkpt>
      <trkpt lat="44.99066" lon="3.91756">
        <ele>724.1</ele>
        <time>2026-04-28T07:47:09Z</time>
      </trkpt>
      <trkpt lat="44.99068" lon="3.91748">
        <ele>724.9</ele>
        <time>2026-04-28T07:47:14Z</time>
      </trkpt>
      <trkpt lat="44.99071" lon="3.91739">
        <ele>726</ele>
        <time>2026-04-28T07:47:19Z</time>
      </trkpt>
      <trkpt lat="44.99072" lon="3.91733">
        <ele>726.8</ele>
        <time>2026-04-28T07:47:24Z</time>
      </trkpt>
      <trkpt lat="44.99074" lon="3.91732">
        <ele>726.8</ele>
        <time>2026-04-28T07:47:29Z</time>
      </trkpt>
      <trkpt lat="44.99076" lon="3.91728">
        <ele>727.3</ele>
        <time>2026-04-28T07:47:34Z</time>
      </trkpt>
      <trkpt lat="44.99076" lon="3.91728">
        <ele>727.3</ele>
        <time>2026-04-28T07:47:39Z</time>
      </trkpt>
      <trkpt lat="44.99076" lon="3.91728">
        <ele>727.3</ele>
        <time>2026-04-28T07:47:44Z</time>
      </trkpt>
      <trkpt lat="44.99076" lon="3.91728">
        <ele>727.3</ele>
        <time>2026-04-28T07:47:49Z</time>
      </trkpt>
      <trkpt lat="44.99074" lon="3.91726">
        <ele>727.7</ele>
        <time>2026-04-28T07:47:54Z</time>
      </trkpt>
      <trkpt lat="44.99075" lon="3.91715">
        <ele>729.4</ele>
        <time>2026-04-28T07:47:59Z</time>
      </trkpt>
      <trkpt lat="44.99077" lon="3.91706">
        <ele>730.7</ele>
        <time>2026-04-28T07:48:04Z</time>
      </trkpt>
      <trkpt lat="44.99076" lon="3.91698">
        <ele>732</ele>
        <time>2026-04-28T07:48:09Z</time>
      </trkpt>
      <trkpt lat="44.99073" lon="3.91692">
        <ele>733.2</ele>
        <time>2026-04-28T07:48:14Z</time>
      </trkpt>
      <trkpt lat="44.99066" lon="3.91691">
        <ele>733.8</ele>
        <time>2026-04-28T07:48:19Z</time>
      </trkpt>
      <trkpt lat="44.99062" lon="3.9169">
        <ele>734.3</ele>
        <time>2026-04-28T07:48:24Z</time>
      </trkpt>
      <trkpt lat="44.99062" lon="3.9169">
        <ele>734.3</ele>
        <time>2026-04-28T07:48:29Z</time>
      </trkpt>
      <trkpt lat="44.9906" lon="3.91689">
        <ele>734.5</ele>
        <time>2026-04-28T07:48:34Z</time>
      </trkpt>
      <trkpt lat="44.99058" lon="3.91687">
        <ele>734.9</ele>
        <time>2026-04-28T07:48:39Z</time>
      </trkpt>
      <trkpt lat="44.99058" lon="3.91687">
        <ele>734.9</ele>
        <time>2026-04-28T07:48:44Z</time>
      </trkpt>
      <trkpt lat="44.99056" lon="3.91688">
        <ele>734.9</ele>
        <time>2026-04-28T07:48:49Z</time>
      </trkpt>
      <trkpt lat="44.99056" lon="3.91687">
        <ele>735</ele>
        <time>2026-04-28T07:48:54Z</time>
      </trkpt>
      <trkpt lat="44.99056" lon="3.91687">
        <ele>735</ele>
        <time>2026-04-28T07:48:59Z</time>
      </trkpt>
      <trkpt lat="44.99051" lon="3.91685">
        <ele>735.7</ele>
        <time>2026-04-28T07:49:04Z</time>
      </trkpt>
      <trkpt lat="44.99045" lon="3.91683">
        <ele>736.4</ele>
        <time>2026-04-28T07:49:09Z</time>
      </trkpt>
      <trkpt lat="44.99038" lon="3.91679">
        <ele>737.5</ele>
        <time>2026-04-28T07:49:14Z</time>
      </trkpt>
      <trkpt lat="44.99033" lon="3.91676">
        <ele>738.3</ele>
        <time>2026-04-28T07:49:19Z</time>
      </trkpt>
      <trkpt lat="44.99029" lon="3.91673">
        <ele>739</ele>
        <time>2026-04-28T07:49:24Z</time>
      </trkpt>
      <trkpt lat="44.99027" lon="3.91666">
        <ele>740.1</ele>
        <time>2026-04-28T07:49:29Z</time>
      </trkpt>
      <trkpt lat="44.99027" lon="3.91658">
        <ele>740.9</ele>
        <time>2026-04-28T07:49:34Z</time>
      </trkpt>
      <trkpt lat="44.99031" lon="3.91651">
        <ele>741.5</ele>
        <time>2026-04-28T07:49:39Z</time>
      </trkpt>
      <trkpt lat="44.99031" lon="3.9165">
        <ele>741.6</ele>
        <time>2026-04-28T07:49:44Z</time>
      </trkpt>
      <trkpt lat="44.99031" lon="3.9165">
        <ele>741.6</ele>
        <time>2026-04-28T07:49:49Z</time>
      </trkpt>
      <trkpt lat="44.99037" lon="3.91642">
        <ele>742</ele>
        <time>2026-04-28T07:49:54Z</time>
      </trkpt>
      <trkpt lat="44.99042" lon="3.91637">
        <ele>742.3</ele>
        <time>2026-04-28T07:49:59Z</time>
      </trkpt>
      <trkpt lat="44.99046" lon="3.9163">
        <ele>743.2</ele>
        <time>2026-04-28T07:50:04Z</time>
      </trkpt>
      <trkpt lat="44.99054" lon="3.91624">
        <ele>743.8</ele>
        <time>2026-04-28T07:50:09Z</time>
      </trkpt>
      <trkpt lat="44.99059" lon="3.91617">
        <ele>744.7</ele>
        <time>2026-04-28T07:50:14Z</time>
      </trkpt>
      <trkpt lat="44.99065" lon="3.9161">
        <ele>745.5</ele>
        <time>2026-04-28T07:50:19Z</time>
      </trkpt>
      <trkpt lat="44.9907" lon="3.91604">
        <ele>746</ele>
        <time>2026-04-28T07:50:24Z</time>
      </trkpt>
      <trkpt lat="44.99075" lon="3.91598">
        <ele>746.5</ele>
        <time>2026-04-28T07:50:29Z</time>
      </trkpt>
      <trkpt lat="44.99079" lon="3.91591">
        <ele>747.2</ele>
        <time>2026-04-28T07:50:34Z</time>
      </trkpt>
      <trkpt lat="44.99085" lon="3.91586">
        <ele>747.5</ele>
        <time>2026-04-28T07:50:39Z</time>
      </trkpt>
      <trkpt lat="44.99089" lon="3.9158">
        <ele>748</ele>
        <time>2026-04-28T07:50:44Z</time>
      </trkpt>
      <trkpt lat="44.99092" lon="3.91573">
        <ele>748.6</ele>
        <time>2026-04-28T07:50:49Z</time>
      </trkpt>
      <trkpt lat="44.9909" lon="3.91566">
        <ele>749.7</ele>
        <time>2026-04-28T07:50:54Z</time>
      </trkpt>
      <trkpt lat="44.99086" lon="3.91563">
        <ele>750.6</ele>
        <time>2026-04-28T07:50:59Z</time>
      </trkpt>
      <trkpt lat="44.99081" lon="3.91562">
        <ele>751.2</ele>
        <time>2026-04-28T07:51:04Z</time>
      </trkpt>
      <trkpt lat="44.99074" lon="3.9156">
        <ele>752</ele>
        <time>2026-04-28T07:51:09Z</time>
      </trkpt>
      <trkpt lat="44.99069" lon="3.91558">
        <ele>752.7</ele>
        <time>2026-04-28T07:51:14Z</time>
      </trkpt>
      <trkpt lat="44.99063" lon="3.91556">
        <ele>753.4</ele>
        <time>2026-04-28T07:51:19Z</time>
      </trkpt>
      <trkpt lat="44.99058" lon="3.91555">
        <ele>753.9</ele>
        <time>2026-04-28T07:51:24Z</time>
      </trkpt>
      <trkpt lat="44.99053" lon="3.91554">
        <ele>754.5</ele>
        <time>2026-04-28T07:51:29Z</time>
      </trkpt>
      <trkpt lat="44.99051" lon="3.91553">
        <ele>754.8</ele>
        <time>2026-04-28T07:51:34Z</time>
      </trkpt>
      <trkpt lat="44.9905" lon="3.91553">
        <ele>754.9</ele>
        <time>2026-04-28T07:51:39Z</time>
      </trkpt>
      <trkpt lat="44.9905" lon="3.91553">
        <ele>754.9</ele>
        <time>2026-04-28T07:51:44Z</time>
      </trkpt>
      <trkpt lat="44.99044" lon="3.91548">
        <ele>756.3</ele>
        <time>2026-04-28T07:51:49Z</time>
      </trkpt>
      <trkpt lat="44.99038" lon="3.91548">
        <ele>757.1</ele>
        <time>2026-04-28T07:51:54Z</time>
      </trkpt>
      <trkpt lat="44.99033" lon="3.91547">
        <ele>757.9</ele>
        <time>2026-04-28T07:51:59Z</time>
      </trkpt>
      <trkpt lat="44.99027" lon="3.91546">
        <ele>758.7</ele>
        <time>2026-04-28T07:52:04Z</time>
      </trkpt>
      <trkpt lat="44.99022" lon="3.91545">
        <ele>759.1</ele>
        <time>2026-04-28T07:52:09Z</time>
      </trkpt>
      <trkpt lat="44.99016" lon="3.91542">
        <ele>759.9</ele>
        <time>2026-04-28T07:52:14Z</time>
      </trkpt>
      <trkpt lat="44.99011" lon="3.91541">
        <ele>760.3</ele>
        <time>2026-04-28T07:52:19Z</time>
      </trkpt>
      <trkpt lat="44.99007" lon="3.9154">
        <ele>760.6</ele>
        <time>2026-04-28T07:52:24Z</time>
      </trkpt>
      <trkpt lat="44.99001" lon="3.91539">
        <ele>761.1</ele>
        <time>2026-04-28T07:52:29Z</time>
      </trkpt>
      <trkpt lat="44.98996" lon="3.91537">
        <ele>761.9</ele>
        <time>2026-04-28T07:52:34Z</time>
      </trkpt>
      <trkpt lat="44.98991" lon="3.91535">
        <ele>762.6</ele>
        <time>2026-04-28T07:52:39Z</time>
      </trkpt>
      <trkpt lat="44.98987" lon="3.91532">
        <ele>763.5</ele>
        <time>2026-04-28T07:52:44Z</time>
      </trkpt>
      <trkpt lat="44.98982" lon="3.91527">
        <ele>764.7</ele>
        <time>2026-04-28T07:52:49Z</time>
      </trkpt>
      <trkpt lat="44.98977" lon="3.9152">
        <ele>765.4</ele>
        <time>2026-04-28T07:52:54Z</time>
      </trkpt>
      <trkpt lat="44.98972" lon="3.91512">
        <ele>766.2</ele>
        <time>2026-04-28T07:52:59Z</time>
      </trkpt>
      <trkpt lat="44.98969" lon="3.91506">
        <ele>767.1</ele>
        <time>2026-04-28T07:53:04Z</time>
      </trkpt>
      <trkpt lat="44.98966" lon="3.91499">
        <ele>768.1</ele>
        <time>2026-04-28T07:53:09Z</time>
      </trkpt>
      <trkpt lat="44.98962" lon="3.91492">
        <ele>768.6</ele>
        <time>2026-04-28T07:53:14Z</time>
      </trkpt>
      <trkpt lat="44.98958" lon="3.91485">
        <ele>769</ele>
        <time>2026-04-28T07:53:19Z</time>
      </trkpt>
      <trkpt lat="44.98953" lon="3.91479">
        <ele>769.7</ele>
        <time>2026-04-28T07:53:24Z</time>
      </trkpt>
      <trkpt lat="44.9895" lon="3.91473">
        <ele>770</ele>
        <time>2026-04-28T07:53:29Z</time>
      </trkpt>
      <trkpt lat="44.98945" lon="3.91468">
        <ele>770.6</ele>
        <time>2026-04-28T07:53:34Z</time>
      </trkpt>
      <trkpt lat="44.98942" lon="3.91462">
        <ele>770.9</ele>
        <time>2026-04-28T07:53:39Z</time>
      </trkpt>
      <trkpt lat="44.98937" lon="3.91454">
        <ele>771.7</ele>
        <time>2026-04-28T07:53:44Z</time>
      </trkpt>
      <trkpt lat="44.98934" lon="3.91449">
        <ele>772.3</ele>
        <time>2026-04-28T07:53:49Z</time>
      </trkpt>
      <trkpt lat="44.9893" lon="3.91443">
        <ele>773</ele>
        <time>2026-04-28T07:53:54Z</time>
        <extensions>
          <visugpx:TrkExtension xmlns:visugpx="https://www.visugpx.com/editgpx/">
            <visugpx:node>1</visugpx:node>
            </visugpx:TrkExtension>
        </extensions>
      </trkpt>
      <trkpt lat="44.9893" lon="3.91443">
        <ele>792.2</ele>
        <time>2026-04-28T07:53:54Z</time>
        <extensions>
          <visugpx:TrkExtension xmlns:visugpx="https://www.visugpx.com/editgpx/">
            <visugpx:node>2</visugpx:node>
            </visugpx:TrkExtension>
        </extensions>
      </trkpt>
      <trkpt lat="44.98926" lon="3.91437">
        <ele>792.6</ele>
        <time>2026-04-28T07:53:59Z</time>
      </trkpt>
      <trkpt lat="44.98922" lon="3.91428">
        <ele>792.8</ele>
        <time>2026-04-28T07:54:04Z</time>
      </trkpt>
      <trkpt lat="44.98917" lon="3.91421">
        <ele>793.2</ele>
        <time>2026-04-28T07:54:09Z</time>
      </trkpt>
      <trkpt lat="44.98913" lon="3.91416">
        <ele>793</ele>
        <time>2026-04-28T07:54:14Z</time>
      </trkpt>
      <trkpt lat="44.98909" lon="3.91409">
        <ele>791.7</ele>
        <time>2026-04-28T07:54:19Z</time>
      </trkpt>
      <trkpt lat="44.98902" lon="3.91404">
        <ele>791</ele>
        <time>2026-04-28T07:54:24Z</time>
      </trkpt>
      <trkpt lat="44.98898" lon="3.91395">
        <ele>789.5</ele>
        <time>2026-04-28T07:54:29Z</time>
      </trkpt>
      <trkpt lat="44.98892" lon="3.91388">
        <ele>788.4</ele>
        <time>2026-04-28T07:54:34Z</time>
      </trkpt>
      <trkpt lat="44.98887" lon="3.91381">
        <ele>787.3</ele>
        <time>2026-04-28T07:54:39Z</time>
      </trkpt>
      <trkpt lat="44.98883" lon="3.91373">
        <ele>786.1</ele>
        <time>2026-04-28T07:54:44Z</time>
      </trkpt>
      <trkpt lat="44.98878" lon="3.91365">
        <ele>784.9</ele>
        <time>2026-04-28T07:54:49Z</time>
      </trkpt>
      <trkpt lat="44.98873" lon="3.9136">
        <ele>784.2</ele>
        <time>2026-04-28T07:54:54Z</time>
      </trkpt>
      <trkpt lat="44.98866" lon="3.91358">
        <ele>784.2</ele>
        <time>2026-04-28T07:54:59Z</time>
      </trkpt>
      <trkpt lat="44.98859" lon="3.91355">
        <ele>784.1</ele>
        <time>2026-04-28T07:55:04Z</time>
      </trkpt>
      <trkpt lat="44.98852" lon="3.91352">
        <ele>783.9</ele>
        <time>2026-04-28T07:55:09Z</time>
      </trkpt>
      <trkpt lat="44.98844" lon="3.9135">
        <ele>784</ele>
        <time>2026-04-28T07:55:14Z</time>
      </trkpt>
      <trkpt lat="44.98836" lon="3.91349">
        <ele>784.3</ele>
        <time>2026-04-28T07:55:19Z</time>
      </trkpt>
      <trkpt lat="44.98829" lon="3.91347">
        <ele>784.5</ele>
        <time>2026-04-28T07:55:24Z</time>
      </trkpt>
      <trkpt lat="44.98822" lon="3.91349">
        <ele>785.5</ele>
        <time>2026-04-28T07:55:29Z</time>
      </trkpt>
      <trkpt lat="44.98815" lon="3.9135">
        <ele>786.2</ele>
        <time>2026-04-28T07:55:34Z</time>
      </trkpt>
      <trkpt lat="44.98807" lon="3.91348">
        <ele>786.7</ele>
        <time>2026-04-28T07:55:39Z</time>
      </trkpt>
      <trkpt lat="44.988" lon="3.91349">
        <ele>787.4</ele>
        <time>2026-04-28T07:55:44Z</time>
      </trkpt>
      <trkpt lat="44.98792" lon="3.91351">
        <ele>788.4</ele>
        <time>2026-04-28T07:55:49Z</time>
      </trkpt>
      <trkpt lat="44.98787" lon="3.91354">
        <ele>789.1</ele>
        <time>2026-04-28T07:55:54Z</time>
      </trkpt>
      <trkpt lat="44.98781" lon="3.91356">
        <ele>789.8</ele>
        <time>2026-04-28T07:55:59Z</time>
      </trkpt>
      <trkpt lat="44.98776" lon="3.91358">
        <ele>790.4</ele>
        <time>2026-04-28T07:56:04Z</time>
      </trkpt>
      <trkpt lat="44.98769" lon="3.91358">
        <ele>791</ele>
        <time>2026-04-28T07:56:09Z</time>
      </trkpt>
      <trkpt lat="44.98762" lon="3.9136">
        <ele>791.7</ele>
        <time>2026-04-28T07:56:14Z</time>
      </trkpt>
      <trkpt lat="44.98757" lon="3.91364">
        <ele>792.3</ele>
        <time>2026-04-28T07:56:19Z</time>
      </trkpt>
      <trkpt lat="44.98751" lon="3.91366">
        <ele>792.9</ele>
        <time>2026-04-28T07:56:24Z</time>
      </trkpt>
      <trkpt lat="44.98745" lon="3.91368">
        <ele>793.6</ele>
        <time>2026-04-28T07:56:29Z</time>
      </trkpt>
      <trkpt lat="44.98738" lon="3.91368">
        <ele>794.2</ele>
        <time>2026-04-28T07:56:34Z</time>
      </trkpt>
      <trkpt lat="44.98731" lon="3.91372">
        <ele>795.1</ele>
        <time>2026-04-28T07:56:39Z</time>
      </trkpt>
      <trkpt lat="44.98724" lon="3.91376">
        <ele>796.1</ele>
        <time>2026-04-28T07:56:44Z</time>
      </trkpt>
      <trkpt lat="44.98717" lon="3.91378">
        <ele>796.8</ele>
        <time>2026-04-28T07:56:49Z</time>
      </trkpt>
      <trkpt lat="44.98711" lon="3.9138">
        <ele>797.5</ele>
        <time>2026-04-28T07:56:54Z</time>
      </trkpt>
      <trkpt lat="44.98706" lon="3.91381">
        <ele>798.1</ele>
        <time>2026-04-28T07:56:59Z</time>
      </trkpt>
      <trkpt lat="44.987" lon="3.91382">
        <ele>798.7</ele>
        <time>2026-04-28T07:57:04Z</time>
      </trkpt>
      <trkpt lat="44.98694" lon="3.91381">
        <ele>799.2</ele>
        <time>2026-04-28T07:57:09Z</time>
      </trkpt>
      <trkpt lat="44.98689" lon="3.91382">
        <ele>799.8</ele>
        <time>2026-04-28T07:57:14Z</time>
      </trkpt>
      <trkpt lat="44.98683" lon="3.91381">
        <ele>800.3</ele>
        <time>2026-04-28T07:57:19Z</time>
      </trkpt>
      <trkpt lat="44.98678" lon="3.91379">
        <ele>800.7</ele>
        <time>2026-04-28T07:57:24Z</time>
      </trkpt>
      <trkpt lat="44.98672" lon="3.91378">
        <ele>801.2</ele>
        <time>2026-04-28T07:57:29Z</time>
      </trkpt>
      <trkpt lat="44.98666" lon="3.91378">
        <ele>801.7</ele>
        <time>2026-04-28T07:57:34Z</time>
      </trkpt>
      <trkpt lat="44.98661" lon="3.91378">
        <ele>802.1</ele>
        <time>2026-04-28T07:57:39Z</time>
      </trkpt>
      <trkpt lat="44.98659" lon="3.91376">
        <ele>802.1</ele>
        <time>2026-04-28T07:57:44Z</time>
      </trkpt>
      <trkpt lat="44.98655" lon="3.91375">
        <ele>802.3</ele>
        <time>2026-04-28T07:57:49Z</time>
      </trkpt>
      <trkpt lat="44.9865" lon="3.91378">
        <ele>802.9</ele>
        <time>2026-04-28T07:57:54Z</time>
      </trkpt>
      <trkpt lat="44.98645" lon="3.91381">
        <ele>803.5</ele>
        <time>2026-04-28T07:57:59Z</time>
      </trkpt>
      <trkpt lat="44.9864" lon="3.91384">
        <ele>804</ele>
        <time>2026-04-28T07:58:04Z</time>
      </trkpt>
      <trkpt lat="44.98636" lon="3.91384">
        <ele>804.3</ele>
        <time>2026-04-28T07:58:09Z</time>
      </trkpt>
      <trkpt lat="44.9863" lon="3.91385">
        <ele>804.8</ele>
        <time>2026-04-28T07:58:14Z</time>
      </trkpt>
      <trkpt lat="44.98625" lon="3.91386">
        <ele>805.3</ele>
        <time>2026-04-28T07:58:19Z</time>
      </trkpt>
      <trkpt lat="44.9862" lon="3.91386">
        <ele>805.7</ele>
        <time>2026-04-28T07:58:24Z</time>
      </trkpt>
      <trkpt lat="44.98616" lon="3.91387">
        <ele>806</ele>
        <time>2026-04-28T07:58:29Z</time>
      </trkpt>
      <trkpt lat="44.98611" lon="3.91387">
        <ele>806.4</ele>
        <time>2026-04-28T07:58:34Z</time>
      </trkpt>
      <trkpt lat="44.98606" lon="3.91388">
        <ele>806.9</ele>
        <time>2026-04-28T07:58:39Z</time>
      </trkpt>
      <trkpt lat="44.986" lon="3.91391">
        <ele>807.6</ele>
        <time>2026-04-28T07:58:44Z</time>
      </trkpt>
      <trkpt lat="44.98596" lon="3.91393">
        <ele>808</ele>
        <time>2026-04-28T07:58:49Z</time>
      </trkpt>
      <trkpt lat="44.98591" lon="3.91397">
        <ele>808.7</ele>
        <time>2026-04-28T07:58:54Z</time>
      </trkpt>
      <trkpt lat="44.98585" lon="3.91398">
        <ele>809.3</ele>
        <time>2026-04-28T07:58:59Z</time>
      </trkpt>
      <trkpt lat="44.9858" lon="3.91402">
        <ele>809.8</ele>
        <time>2026-04-28T07:59:04Z</time>
      </trkpt>
      <trkpt lat="44.98575" lon="3.91405">
        <ele>810</ele>
        <time>2026-04-28T07:59:09Z</time>
      </trkpt>
      <trkpt lat="44.9857" lon="3.91409">
        <ele>810.3</ele>
        <time>2026-04-28T07:59:14Z</time>
      </trkpt>
      <trkpt lat="44.98566" lon="3.91413">
        <ele>810.5</ele>
        <time>2026-04-28T07:59:19Z</time>
      </trkpt>
      <trkpt lat="44.98561" lon="3.91418">
        <ele>810.7</ele>
        <time>2026-04-28T07:59:24Z</time>
      </trkpt>
      <trkpt lat="44.98556" lon="3.91422">
        <ele>810.7</ele>
        <time>2026-04-28T07:59:29Z</time>
      </trkpt>
      <trkpt lat="44.98551" lon="3.91425">
        <ele>810.7</ele>
        <time>2026-04-28T07:59:34Z</time>
      </trkpt>
      <trkpt lat="44.98546" lon="3.91427">
        <ele>810.7</ele>
        <time>2026-04-28T07:59:39Z</time>
      </trkpt>
      <trkpt lat="44.98541" lon="3.91432">
        <ele>810.7</ele>
        <time>2026-04-28T07:59:44Z</time>
      </trkpt>
      <trkpt lat="44.98537" lon="3.91437">
        <ele>810.7</ele>
        <time>2026-04-28T07:59:49Z</time>
      </trkpt>
      <trkpt lat="44.98532" lon="3.91442">
        <ele>810.8</ele>
        <time>2026-04-28T07:59:54Z</time>
      </trkpt>
      <trkpt lat="44.98527" lon="3.91446">
        <ele>810.9</ele>
        <time>2026-04-28T07:59:59Z</time>
      </trkpt>
      <trkpt lat="44.98521" lon="3.91448">
        <ele>811</ele>
        <time>2026-04-28T08:00:04Z</time>
      </trkpt>
      <trkpt lat="44.98515" lon="3.91448">
        <ele>811</ele>
        <time>2026-04-28T08:00:09Z</time>
      </trkpt>
      <trkpt lat="44.98511" lon="3.91445">
        <ele>811</ele>
        <time>2026-04-28T08:00:14Z</time>
      </trkpt>
      <trkpt lat="44.98509" lon="3.91442">
        <ele>810.9</ele>
        <time>2026-04-28T08:00:19Z</time>
      </trkpt>
      <trkpt lat="44.98508" lon="3.91441">
        <ele>810.9</ele>
        <time>2026-04-28T08:00:24Z</time>
      </trkpt>
      <trkpt lat="44.98504" lon="3.9144">
        <ele>810.8</ele>
        <time>2026-04-28T08:00:29Z</time>
      </trkpt>
      <trkpt lat="44.98504" lon="3.9144">
        <ele>810.8</ele>
        <time>2026-04-28T08:00:34Z</time>
      </trkpt>
      <trkpt lat="44.985" lon="3.91434">
        <ele>810.6</ele>
        <time>2026-04-28T08:00:39Z</time>
      </trkpt>
      <trkpt lat="44.98494" lon="3.91426">
        <ele>810.7</ele>
        <time>2026-04-28T08:00:44Z</time>
      </trkpt>
      <trkpt lat="44.9849" lon="3.91419">
        <ele>810.7</ele>
        <time>2026-04-28T08:00:49Z</time>
      </trkpt>
      <trkpt lat="44.98484" lon="3.91412">
        <ele>810.8</ele>
        <time>2026-04-28T08:00:54Z</time>
      </trkpt>
      <trkpt lat="44.98479" lon="3.91405">
        <ele>810.8</ele>
        <time>2026-04-28T08:00:59Z</time>
      </trkpt>
      <trkpt lat="44.98474" lon="3.91399">
        <ele>810.9</ele>
        <time>2026-04-28T08:01:04Z</time>
      </trkpt>
      <trkpt lat="44.98468" lon="3.91392">
        <ele>810.9</ele>
        <time>2026-04-28T08:01:09Z</time>
      </trkpt>
      <trkpt lat="44.98461" lon="3.91386">
        <ele>811.1</ele>
        <time>2026-04-28T08:01:14Z</time>
      </trkpt>
      <trkpt lat="44.98456" lon="3.91379">
        <ele>811</ele>
        <time>2026-04-28T08:01:19Z</time>
      </trkpt>
      <trkpt lat="44.9845" lon="3.91373">
        <ele>811.1</ele>
        <time>2026-04-28T08:01:24Z</time>
      </trkpt>
      <trkpt lat="44.98444" lon="3.91369">
        <ele>811.3</ele>
        <time>2026-04-28T08:01:29Z</time>
      </trkpt>
      <trkpt lat="44.98438" lon="3.91362">
        <ele>811.3</ele>
        <time>2026-04-28T08:01:34Z</time>
      </trkpt>
      <trkpt lat="44.98432" lon="3.91356">
        <ele>811.3</ele>
        <time>2026-04-28T08:01:39Z</time>
      </trkpt>
      <trkpt lat="44.98423" lon="3.9135">
        <ele>811.5</ele>
        <time>2026-04-28T08:01:44Z</time>
      </trkpt>
      <trkpt lat="44.98417" lon="3.91351">
        <ele>811.8</ele>
        <time>2026-04-28T08:01:49Z</time>
      </trkpt>
      <trkpt lat="44.98416" lon="3.91354">
        <ele>812.2</ele>
        <time>2026-04-28T08:01:54Z</time>
      </trkpt>
      <trkpt lat="44.98417" lon="3.91358">
        <ele>812.2</ele>
        <time>2026-04-28T08:01:59Z</time>
      </trkpt>
      <trkpt lat="44.98414" lon="3.91366">
        <ele>813.2</ele>
        <time>2026-04-28T08:02:04Z</time>
      </trkpt>
      <trkpt lat="44.98411" lon="3.91375">
        <ele>814.4</ele>
        <time>2026-04-28T08:02:09Z</time>
      </trkpt>
      <trkpt lat="44.98409" lon="3.91382">
        <ele>815.2</ele>
        <time>2026-04-28T08:02:14Z</time>
      </trkpt>
      <trkpt lat="44.98406" lon="3.91388">
        <ele>816.2</ele>
        <time>2026-04-28T08:02:19Z</time>
      </trkpt>
      <trkpt lat="44.98405" lon="3.914">
        <ele>816.9</ele>
        <time>2026-04-28T08:02:24Z</time>
      </trkpt>
      <trkpt lat="44.98407" lon="3.9141">
        <ele>816.9</ele>
        <time>2026-04-28T08:02:29Z</time>
      </trkpt>
      <trkpt lat="44.98405" lon="3.91421">
        <ele>817.8</ele>
        <time>2026-04-28T08:02:34Z</time>
      </trkpt>
      <trkpt lat="44.98405" lon="3.91429">
        <ele>818.2</ele>
        <time>2026-04-28T08:02:39Z</time>
      </trkpt>
      <trkpt lat="44.98405" lon="3.91438">
        <ele>818.5</ele>
        <time>2026-04-28T08:02:44Z</time>
      </trkpt>
      <trkpt lat="44.98405" lon="3.91447">
        <ele>818.9</ele>
        <time>2026-04-28T08:02:49Z</time>
      </trkpt>
      <trkpt lat="44.98406" lon="3.91458">
        <ele>819.2</ele>
        <time>2026-04-28T08:02:54Z</time>
      </trkpt>
      <trkpt lat="44.98406" lon="3.91468">
        <ele>819.6</ele>
        <time>2026-04-28T08:02:59Z</time>
      </trkpt>
      <trkpt lat="44.98406" lon="3.91479">
        <ele>820</ele>
        <time>2026-04-28T08:03:04Z</time>
      </trkpt>
      <trkpt lat="44.98406" lon="3.91489">
        <ele>820.5</ele>
        <time>2026-04-28T08:03:09Z</time>
      </trkpt>
      <trkpt lat="44.98404" lon="3.91497">
        <ele>821.2</ele>
        <time>2026-04-28T08:03:14Z</time>
      </trkpt>
      <trkpt lat="44.98402" lon="3.91506">
        <ele>821.5</ele>
        <time>2026-04-28T08:03:19Z</time>
      </trkpt>
      <trkpt lat="44.98399" lon="3.91515">
        <ele>821.7</ele>
        <time>2026-04-28T08:03:24Z</time>
      </trkpt>
      <trkpt lat="44.98396" lon="3.91525">
        <ele>822</ele>
        <time>2026-04-28T08:03:29Z</time>
      </trkpt>
      <trkpt lat="44.98393" lon="3.91532">
        <ele>822.3</ele>
        <time>2026-04-28T08:03:34Z</time>
      </trkpt>
      <trkpt lat="44.98388" lon="3.91541">
        <ele>822.8</ele>
        <time>2026-04-28T08:03:39Z</time>
      </trkpt>
      <trkpt lat="44.98385" lon="3.91547">
        <ele>823.1</ele>
        <time>2026-04-28T08:03:44Z</time>
      </trkpt>
      <trkpt lat="44.9838" lon="3.91554">
        <ele>823.7</ele>
        <time>2026-04-28T08:03:49Z</time>
      </trkpt>
      <trkpt lat="44.98375" lon="3.91561">
        <ele>824.3</ele>
        <time>2026-04-28T08:03:54Z</time>
      </trkpt>
      <trkpt lat="44.9837" lon="3.91569">
        <ele>824.8</ele>
        <time>2026-04-28T08:03:59Z</time>
      </trkpt>
      <trkpt lat="44.98366" lon="3.91577">
        <ele>825.1</ele>
        <time>2026-04-28T08:04:04Z</time>
      </trkpt>
      <trkpt lat="44.98362" lon="3.91582">
        <ele>825.6</ele>
        <time>2026-04-28T08:04:09Z</time>
      </trkpt>
      <trkpt lat="44.9836" lon="3.91586">
        <ele>825.8</ele>
        <time>2026-04-28T08:04:14Z</time>
      </trkpt>
      <trkpt lat="44.9836" lon="3.91587">
        <ele>825.7</ele>
        <time>2026-04-28T08:04:19Z</time>
      </trkpt>
      <trkpt lat="44.9836" lon="3.91587">
        <ele>825.7</ele>
        <time>2026-04-28T08:04:24Z</time>
      </trkpt>
      <trkpt lat="44.9836" lon="3.91587">
        <ele>825.7</ele>
        <time>2026-04-28T08:04:29Z</time>
      </trkpt>
      <trkpt lat="44.9836" lon="3.91587">
        <ele>825.7</ele>
        <time>2026-04-28T08:04:34Z</time>
      </trkpt>
      <trkpt lat="44.9836" lon="3.91587">
        <ele>825.7</ele>
        <time>2026-04-28T08:04:39Z</time>
      </trkpt>
      <trkpt lat="44.9836" lon="3.91587">
        <ele>825.7</ele>
        <time>2026-04-28T08:04:44Z</time>
      </trkpt>
      <trkpt lat="44.9836" lon="3.91587">
        <ele>825.7</ele>
        <time>2026-04-28T08:04:49Z</time>
      </trkpt>
      <trkpt lat="44.98359" lon="3.91589">
        <ele>825.8</ele>
        <time>2026-04-28T08:04:54Z</time>
      </trkpt>
      <trkpt lat="44.98354" lon="3.91594">
        <ele>826.4</ele>
        <time>2026-04-28T08:04:59Z</time>
      </trkpt>
      <trkpt lat="44.98349" lon="3.91599">
        <ele>827</ele>
        <time>2026-04-28T08:05:04Z</time>
      </trkpt>
      <trkpt lat="44.98343" lon="3.91604">
        <ele>827.6</ele>
        <time>2026-04-28T08:05:09Z</time>
      </trkpt>
      <trkpt lat="44.98337" lon="3.91611">
        <ele>828.2</ele>
        <time>2026-04-28T08:05:14Z</time>
      </trkpt>
      <trkpt lat="44.98331" lon="3.91617">
        <ele>828.6</ele>
        <time>2026-04-28T08:05:19Z</time>
      </trkpt>
      <trkpt lat="44.98326" lon="3.91624">
        <ele>828.8</ele>
        <time>2026-04-28T08:05:24Z</time>
      </trkpt>
      <trkpt lat="44.98321" lon="3.91631">
        <ele>829</ele>
        <time>2026-04-28T08:05:29Z</time>
      </trkpt>
      <trkpt lat="44.98316" lon="3.91637">
        <ele>829.2</ele>
        <time>2026-04-28T08:05:34Z</time>
      </trkpt>
      <trkpt lat="44.98312" lon="3.91643">
        <ele>829.4</ele>
        <time>2026-04-28T08:05:39Z</time>
      </trkpt>
      <trkpt lat="44.98312" lon="3.91644">
        <ele>829.3</ele>
        <time>2026-04-28T08:05:44Z</time>
      </trkpt>
      <trkpt lat="44.98311" lon="3.91645">
        <ele>829.4</ele>
        <time>2026-04-28T08:05:49Z</time>
      </trkpt>
      <trkpt lat="44.98305" lon="3.91653">
        <ele>829.7</ele>
        <time>2026-04-28T08:05:54Z</time>
      </trkpt>
      <trkpt lat="44.98299" lon="3.9166">
        <ele>830</ele>
        <time>2026-04-28T08:05:59Z</time>
      </trkpt>
      <trkpt lat="44.98295" lon="3.91666">
        <ele>830.2</ele>
        <time>2026-04-28T08:06:04Z</time>
      </trkpt>
      <trkpt lat="44.98289" lon="3.91672">
        <ele>830.9</ele>
        <time>2026-04-28T08:06:09Z</time>
      </trkpt>
      <trkpt lat="44.98284" lon="3.91679">
        <ele>831.6</ele>
        <time>2026-04-28T08:06:14Z</time>
      </trkpt>
      <trkpt lat="44.98279" lon="3.91685">
        <ele>832.3</ele>
        <time>2026-04-28T08:06:19Z</time>
      </trkpt>
      <trkpt lat="44.98272" lon="3.91691">
        <ele>833.2</ele>
        <time>2026-04-28T08:06:24Z</time>
      </trkpt>
      <trkpt lat="44.98266" lon="3.91697">
        <ele>834</ele>
        <time>2026-04-28T08:06:29Z</time>
      </trkpt>
      <trkpt lat="44.98259" lon="3.91699">
        <ele>834.8</ele>
        <time>2026-04-28T08:06:34Z</time>
      </trkpt>
      <trkpt lat="44.98254" lon="3.91701">
        <ele>835.4</ele>
        <time>2026-04-28T08:06:39Z</time>
      </trkpt>
      <trkpt lat="44.98248" lon="3.91701">
        <ele>836</ele>
        <time>2026-04-28T08:06:44Z</time>
      </trkpt>
      <trkpt lat="44.98242" lon="3.917">
        <ele>836.6</ele>
        <time>2026-04-28T08:06:49Z</time>
      </trkpt>
      <trkpt lat="44.98237" lon="3.91698">
        <ele>837.1</ele>
        <time>2026-04-28T08:06:54Z</time>
      </trkpt>
      <trkpt lat="44.98235" lon="3.91695">
        <ele>837.2</ele>
        <time>2026-04-28T08:06:59Z</time>
      </trkpt>
      <trkpt lat="44.98235" lon="3.91695">
        <ele>837.2</ele>
        <time>2026-04-28T08:07:04Z</time>
      </trkpt>
      <trkpt lat="44.98235" lon="3.91695">
        <ele>837.2</ele>
        <time>2026-04-28T08:07:09Z</time>
      </trkpt>
      <trkpt lat="44.98235" lon="3.91695">
        <ele>837.2</ele>
        <time>2026-04-28T08:07:14Z</time>
      </trkpt>
      <trkpt lat="44.98231" lon="3.91694">
        <ele>837.6</ele>
        <time>2026-04-28T08:07:19Z</time>
      </trkpt>
      <trkpt lat="44.98226" lon="3.91693">
        <ele>838.1</ele>
        <time>2026-04-28T08:07:24Z</time>
      </trkpt>
      <trkpt lat="44.98221" lon="3.9169">
        <ele>838.6</ele>
        <time>2026-04-28T08:07:29Z</time>
      </trkpt>
      <trkpt lat="44.98217" lon="3.91688">
        <ele>839</ele>
        <time>2026-04-28T08:07:34Z</time>
      </trkpt>
      <trkpt lat="44.98211" lon="3.91687">
        <ele>839.6</ele>
        <time>2026-04-28T08:07:39Z</time>
      </trkpt>
      <trkpt lat="44.98211" lon="3.91686">
        <ele>839.6</ele>
        <time>2026-04-28T08:07:44Z</time>
      </trkpt>
      <trkpt lat="44.98211" lon="3.91686">
        <ele>839.6</ele>
        <time>2026-04-28T08:07:49Z</time>
      </trkpt>
      <trkpt lat="44.98211" lon="3.91686">
        <ele>839.6</ele>
        <time>2026-04-28T08:07:54Z</time>
      </trkpt>
      <trkpt lat="44.98211" lon="3.91686">
        <ele>839.6</ele>
        <time>2026-04-28T08:07:59Z</time>
      </trkpt>
      <trkpt lat="44.98211" lon="3.91686">
        <ele>839.6</ele>
        <time>2026-04-28T08:08:04Z</time>
      </trkpt>
      <trkpt lat="44.98211" lon="3.91686">
        <ele>839.6</ele>
        <time>2026-04-28T08:08:09Z</time>
      </trkpt>
      <trkpt lat="44.98209" lon="3.91685">
        <ele>839.8</ele>
        <time>2026-04-28T08:08:14Z</time>
      </trkpt>
      <trkpt lat="44.98204" lon="3.91686">
        <ele>840.3</ele>
        <time>2026-04-28T08:08:19Z</time>
      </trkpt>
      <trkpt lat="44.98198" lon="3.91686">
        <ele>840.9</ele>
        <time>2026-04-28T08:08:24Z</time>
      </trkpt>
      <trkpt lat="44.98195" lon="3.91686">
        <ele>841.3</ele>
        <time>2026-04-28T08:08:29Z</time>
      </trkpt>
      <trkpt lat="44.98192" lon="3.91687">
        <ele>841.6</ele>
        <time>2026-04-28T08:08:34Z</time>
      </trkpt>
      <trkpt lat="44.98187" lon="3.91687">
        <ele>842.1</ele>
        <time>2026-04-28T08:08:39Z</time>
      </trkpt>
      <trkpt lat="44.98182" lon="3.91689">
        <ele>842.7</ele>
        <time>2026-04-28T08:08:44Z</time>
      </trkpt>
      <trkpt lat="44.98177" lon="3.91691">
        <ele>843.2</ele>
        <time>2026-04-28T08:08:49Z</time>
      </trkpt>
      <trkpt lat="44.98171" lon="3.91696">
        <ele>843.9</ele>
        <time>2026-04-28T08:08:54Z</time>
      </trkpt>
      <trkpt lat="44.98166" lon="3.917">
        <ele>844.4</ele>
        <time>2026-04-28T08:08:59Z</time>
      </trkpt>
      <trkpt lat="44.98163" lon="3.91705">
        <ele>844.6</ele>
        <time>2026-04-28T08:09:04Z</time>
      </trkpt>
      <trkpt lat="44.9816" lon="3.9171">
        <ele>844.8</ele>
        <time>2026-04-28T08:09:09Z</time>
      </trkpt>
      <trkpt lat="44.98157" lon="3.91717">
        <ele>845</ele>
        <time>2026-04-28T08:09:14Z</time>
      </trkpt>
      <trkpt lat="44.98153" lon="3.91724">
        <ele>845.3</ele>
        <time>2026-04-28T08:09:19Z</time>
      </trkpt>
      <trkpt lat="44.98152" lon="3.91733">
        <ele>845.4</ele>
        <time>2026-04-28T08:09:24Z</time>
      </trkpt>
      <trkpt lat="44.98152" lon="3.91741">
        <ele>845.5</ele>
        <time>2026-04-28T08:09:29Z</time>
      </trkpt>
      <trkpt lat="44.98149" lon="3.91747">
        <ele>845.6</ele>
        <time>2026-04-28T08:09:34Z</time>
      </trkpt>
      <trkpt lat="44.98148" lon="3.91754">
        <ele>845.7</ele>
        <time>2026-04-28T08:09:39Z</time>
      </trkpt>
      <trkpt lat="44.98148" lon="3.91762">
        <ele>845.7</ele>
        <time>2026-04-28T08:09:44Z</time>
      </trkpt>
      <trkpt lat="44.98146" lon="3.91769">
        <ele>845.8</ele>
        <time>2026-04-28T08:09:49Z</time>
      </trkpt>
      <trkpt lat="44.98145" lon="3.91777">
        <ele>845.9</ele>
        <time>2026-04-28T08:09:54Z</time>
      </trkpt>
      <trkpt lat="44.98143" lon="3.91786">
        <ele>846</ele>
        <time>2026-04-28T08:09:59Z</time>
      </trkpt>
      <trkpt lat="44.98143" lon="3.91795">
        <ele>846</ele>
        <time>2026-04-28T08:10:04Z</time>
      </trkpt>
      <trkpt lat="44.98145" lon="3.918">
        <ele>845.9</ele>
        <time>2026-04-28T08:10:09Z</time>
      </trkpt>
      <trkpt lat="44.98145" lon="3.91809">
        <ele>846</ele>
        <time>2026-04-28T08:10:14Z</time>
      </trkpt>
      <trkpt lat="44.98146" lon="3.91818">
        <ele>845.9</ele>
        <time>2026-04-28T08:10:19Z</time>
      </trkpt>
      <trkpt lat="44.98147" lon="3.91827">
        <ele>845.9</ele>
        <time>2026-04-28T08:10:24Z</time>
      </trkpt>
      <trkpt lat="44.98146" lon="3.91837">
        <ele>846.1</ele>
        <time>2026-04-28T08:10:29Z</time>
      </trkpt>
      <trkpt lat="44.98144" lon="3.91848">
        <ele>846.6</ele>
        <time>2026-04-28T08:10:34Z</time>
      </trkpt>
      <trkpt lat="44.98142" lon="3.91855">
        <ele>847</ele>
        <time>2026-04-28T08:10:39Z</time>
      </trkpt>
      <trkpt lat="44.98138" lon="3.91865">
        <ele>847.5</ele>
        <time>2026-04-28T08:10:44Z</time>
      </trkpt>
      <trkpt lat="44.98134" lon="3.91873">
        <ele>848</ele>
        <time>2026-04-28T08:10:49Z</time>
      </trkpt>
      <trkpt lat="44.98129" lon="3.91879">
        <ele>848.5</ele>
        <time>2026-04-28T08:10:54Z</time>
      </trkpt>
      <trkpt lat="44.98125" lon="3.91885">
        <ele>848.9</ele>
        <time>2026-04-28T08:10:59Z</time>
      </trkpt>
      <trkpt lat="44.9812" lon="3.91892">
        <ele>849.4</ele>
        <time>2026-04-28T08:11:04Z</time>
      </trkpt>
      <trkpt lat="44.98115" lon="3.919">
        <ele>849.9</ele>
        <time>2026-04-28T08:11:09Z</time>
      </trkpt>
      <trkpt lat="44.98111" lon="3.91907">
        <ele>850.3</ele>
        <time>2026-04-28T08:11:14Z</time>
      </trkpt>
      <trkpt lat="44.98106" lon="3.91914">
        <ele>850.8</ele>
        <time>2026-04-28T08:11:19Z</time>
      </trkpt>
      <trkpt lat="44.98102" lon="3.91922">
        <ele>851.1</ele>
        <time>2026-04-28T08:11:24Z</time>
      </trkpt>
      <trkpt lat="44.98098" lon="3.91929">
        <ele>851.4</ele>
        <time>2026-04-28T08:11:29Z</time>
      </trkpt>
      <trkpt lat="44.98092" lon="3.91935">
        <ele>851.8</ele>
        <time>2026-04-28T08:11:34Z</time>
      </trkpt>
      <trkpt lat="44.98087" lon="3.91943">
        <ele>852.1</ele>
        <time>2026-04-28T08:11:39Z</time>
      </trkpt>
      <trkpt lat="44.98082" lon="3.9195">
        <ele>852.5</ele>
        <time>2026-04-28T08:11:44Z</time>
      </trkpt>
      <trkpt lat="44.98078" lon="3.91956">
        <ele>852.9</ele>
        <time>2026-04-28T08:11:49Z</time>
      </trkpt>
      <trkpt lat="44.98074" lon="3.91964">
        <ele>853.4</ele>
        <time>2026-04-28T08:11:54Z</time>
      </trkpt>
      <trkpt lat="44.98068" lon="3.91972">
        <ele>854</ele>
        <time>2026-04-28T08:11:59Z</time>
      </trkpt>
      <trkpt lat="44.98064" lon="3.91981">
        <ele>854.5</ele>
        <time>2026-04-28T08:12:04Z</time>
      </trkpt>
      <trkpt lat="44.9806" lon="3.91989">
        <ele>855</ele>
        <time>2026-04-28T08:12:09Z</time>
      </trkpt>
      <trkpt lat="44.98056" lon="3.91995">
        <ele>855.5</ele>
        <time>2026-04-28T08:12:14Z</time>
      </trkpt>
      <trkpt lat="44.98051" lon="3.92003">
        <ele>856.1</ele>
        <time>2026-04-28T08:12:19Z</time>
      </trkpt>
      <trkpt lat="44.98047" lon="3.92009">
        <ele>856.5</ele>
        <time>2026-04-28T08:12:24Z</time>
      </trkpt>
      <trkpt lat="44.98043" lon="3.92017">
        <ele>856.9</ele>
        <time>2026-04-28T08:12:29Z</time>
      </trkpt>
      <trkpt lat="44.98039" lon="3.92024">
        <ele>857.2</ele>
        <time>2026-04-28T08:12:34Z</time>
      </trkpt>
      <trkpt lat="44.98036" lon="3.92031">
        <ele>857.5</ele>
        <time>2026-04-28T08:12:39Z</time>
      </trkpt>
      <trkpt lat="44.98031" lon="3.92039">
        <ele>857.9</ele>
        <time>2026-04-28T08:12:44Z</time>
      </trkpt>
      <trkpt lat="44.98026" lon="3.92047">
        <ele>858.3</ele>
        <time>2026-04-28T08:12:49Z</time>
      </trkpt>
      <trkpt lat="44.98021" lon="3.92055">
        <ele>858.7</ele>
        <time>2026-04-28T08:12:54Z</time>
      </trkpt>
      <trkpt lat="44.98016" lon="3.92063">
        <ele>859</ele>
        <time>2026-04-28T08:12:59Z</time>
      </trkpt>
      <trkpt lat="44.9801" lon="3.92072">
        <ele>859.4</ele>
        <time>2026-04-28T08:13:04Z</time>
      </trkpt>
      <trkpt lat="44.98004" lon="3.92079">
        <ele>859.8</ele>
        <time>2026-04-28T08:13:09Z</time>
      </trkpt>
      <trkpt lat="44.98" lon="3.92086">
        <ele>860</ele>
        <time>2026-04-28T08:13:14Z</time>
      </trkpt>
      <trkpt lat="44.97995" lon="3.92094">
        <ele>860.8</ele>
        <time>2026-04-28T08:13:19Z</time>
      </trkpt>
      <trkpt lat="44.97991" lon="3.92101">
        <ele>861.4</ele>
        <time>2026-04-28T08:13:24Z</time>
      </trkpt>
      <trkpt lat="44.97986" lon="3.92108">
        <ele>862.1</ele>
        <time>2026-04-28T08:13:29Z</time>
      </trkpt>
      <trkpt lat="44.97982" lon="3.92115">
        <ele>862.8</ele>
        <time>2026-04-28T08:13:34Z</time>
      </trkpt>
      <trkpt lat="44.97982" lon="3.92116">
        <ele>862.8</ele>
        <time>2026-04-28T08:13:39Z</time>
      </trkpt>
      <trkpt lat="44.97982" lon="3.92116">
        <ele>862.8</ele>
        <time>2026-04-28T08:13:44Z</time>
      </trkpt>
      <trkpt lat="44.97982" lon="3.92116">
        <ele>862.8</ele>
        <time>2026-04-28T08:13:49Z</time>
      </trkpt>
      <trkpt lat="44.97982" lon="3.92116">
        <ele>862.8</ele>
        <time>2026-04-28T08:13:54Z</time>
      </trkpt>
      <trkpt lat="44.97979" lon="3.92116">
        <ele>863.2</ele>
        <time>2026-04-28T08:13:59Z</time>
      </trkpt>
      <trkpt lat="44.97974" lon="3.92125">
        <ele>864.1</ele>
        <time>2026-04-28T08:14:04Z</time>
      </trkpt>
      <trkpt lat="44.97973" lon="3.92126">
        <ele>864.2</ele>
        <time>2026-04-28T08:14:09Z</time>
      </trkpt>
      <trkpt lat="44.97973" lon="3.92126">
        <ele>864.2</ele>
        <time>2026-04-28T08:14:14Z</time>
      </trkpt>
      <trkpt lat="44.97973" lon="3.92126">
        <ele>864.2</ele>
        <time>2026-04-28T08:14:19Z</time>
      </trkpt>
      <trkpt lat="44.97973" lon="3.92126">
        <ele>864.2</ele>
        <time>2026-04-28T08:14:24Z</time>
      </trkpt>
      <trkpt lat="44.97973" lon="3.92126">
        <ele>864.2</ele>
        <time>2026-04-28T08:14:29Z</time>
      </trkpt>
      <trkpt lat="44.97973" lon="3.92126">
        <ele>864.2</ele>
        <time>2026-04-28T08:14:34Z</time>
      </trkpt>
      <trkpt lat="44.97973" lon="3.92126">
        <ele>864.2</ele>
        <time>2026-04-28T08:14:39Z</time>
      </trkpt>
      <trkpt lat="44.97973" lon="3.92126">
        <ele>864.2</ele>
        <time>2026-04-28T08:14:44Z</time>
      </trkpt>
      <trkpt lat="44.97973" lon="3.92126">
        <ele>864.2</ele>
        <time>2026-04-28T08:14:49Z</time>
      </trkpt>
      <trkpt lat="44.97973" lon="3.92126">
        <ele>864.2</ele>
        <time>2026-04-28T08:14:54Z</time>
      </trkpt>
      <trkpt lat="44.97973" lon="3.92126">
        <ele>864.2</ele>
        <time>2026-04-28T08:14:59Z</time>
      </trkpt>
      <trkpt lat="44.97973" lon="3.92126">
        <ele>864.2</ele>
        <time>2026-04-28T08:15:04Z</time>
      </trkpt>
      <trkpt lat="44.97973" lon="3.92126">
        <ele>864.2</ele>
        <time>2026-04-28T08:15:09Z</time>
      </trkpt>
      <trkpt lat="44.97973" lon="3.92126">
        <ele>864.2</ele>
        <time>2026-04-28T08:15:14Z</time>
      </trkpt>
      <trkpt lat="44.97973" lon="3.92126">
        <ele>864.2</ele>
        <time>2026-04-28T08:15:19Z</time>
      </trkpt>
      <trkpt lat="44.97973" lon="3.92126">
        <ele>864.2</ele>
        <time>2026-04-28T08:15:24Z</time>
      </trkpt>
      <trkpt lat="44.97973" lon="3.92126">
        <ele>864.2</ele>
        <time>2026-04-28T08:15:29Z</time>
      </trkpt>
      <trkpt lat="44.97973" lon="3.92126">
        <ele>864.2</ele>
        <time>2026-04-28T08:15:34Z</time>
      </trkpt>
      <trkpt lat="44.97973" lon="3.92126">
        <ele>864.2</ele>
        <time>2026-04-28T08:15:39Z</time>
      </trkpt>
      <trkpt lat="44.97966" lon="3.92137">
        <ele>865.5</ele>
        <time>2026-04-28T08:15:44Z</time>
      </trkpt>
      <trkpt lat="44.97966" lon="3.92137">
        <ele>865.5</ele>
        <time>2026-04-28T08:15:49Z</time>
      </trkpt>
      <trkpt lat="44.97966" lon="3.92137">
        <ele>865.5</ele>
        <time>2026-04-28T08:15:54Z</time>
      </trkpt>
      <trkpt lat="44.97966" lon="3.92137">
        <ele>865.5</ele>
        <time>2026-04-28T08:15:59Z</time>
      </trkpt>
      <trkpt lat="44.97961" lon="3.92143">
        <ele>866.4</ele>
        <time>2026-04-28T08:16:04Z</time>
      </trkpt>
      <trkpt lat="44.97957" lon="3.92148">
        <ele>867.1</ele>
        <time>2026-04-28T08:16:09Z</time>
      </trkpt>
      <trkpt lat="44.97953" lon="3.92155">
        <ele>868</ele>
        <time>2026-04-28T08:16:14Z</time>
      </trkpt>
      <trkpt lat="44.97949" lon="3.92162">
        <ele>868.8</ele>
        <time>2026-04-28T08:16:19Z</time>
      </trkpt>
      <trkpt lat="44.97945" lon="3.92169">
        <ele>869.6</ele>
        <time>2026-04-28T08:16:24Z</time>
      </trkpt>
      <trkpt lat="44.97941" lon="3.92176">
        <ele>870.3</ele>
        <time>2026-04-28T08:16:29Z</time>
      </trkpt>
      <trkpt lat="44.97937" lon="3.92184">
        <ele>871</ele>
        <time>2026-04-28T08:16:34Z</time>
      </trkpt>
      <trkpt lat="44.97933" lon="3.92192">
        <ele>871.6</ele>
        <time>2026-04-28T08:16:39Z</time>
      </trkpt>
      <trkpt lat="44.9793" lon="3.92199">
        <ele>872.1</ele>
        <time>2026-04-28T08:16:44Z</time>
      </trkpt>
      <trkpt lat="44.97927" lon="3.92209">
        <ele>872.6</ele>
        <time>2026-04-28T08:16:49Z</time>
      </trkpt>
      <trkpt lat="44.97923" lon="3.92216">
        <ele>873.1</ele>
        <time>2026-04-28T08:16:54Z</time>
      </trkpt>
      <trkpt lat="44.97919" lon="3.92224">
        <ele>873.7</ele>
        <time>2026-04-28T08:16:59Z</time>
      </trkpt>
      <trkpt lat="44.97916" lon="3.92231">
        <ele>874.1</ele>
        <time>2026-04-28T08:17:04Z</time>
      </trkpt>
      <trkpt lat="44.97913" lon="3.9224">
        <ele>874.6</ele>
        <time>2026-04-28T08:17:09Z</time>
      </trkpt>
      <trkpt lat="44.97909" lon="3.92246">
        <ele>875.2</ele>
        <time>2026-04-28T08:17:14Z</time>
      </trkpt>
      <trkpt lat="44.97905" lon="3.92254">
        <ele>875.8</ele>
        <time>2026-04-28T08:17:19Z</time>
      </trkpt>
      <trkpt lat="44.97903" lon="3.92259">
        <ele>876</ele>
        <time>2026-04-28T08:17:24Z</time>
      </trkpt>
      <trkpt lat="44.97902" lon="3.92261">
        <ele>876.1</ele>
        <time>2026-04-28T08:17:29Z</time>
      </trkpt>
      <trkpt lat="44.97899" lon="3.92268">
        <ele>876.5</ele>
        <time>2026-04-28T08:17:34Z</time>
      </trkpt>
      <trkpt lat="44.97896" lon="3.92274">
        <ele>876.8</ele>
        <time>2026-04-28T08:17:39Z</time>
      </trkpt>
      <trkpt lat="44.97892" lon="3.92283">
        <ele>877.1</ele>
        <time>2026-04-28T08:17:44Z</time>
      </trkpt>
      <trkpt lat="44.97889" lon="3.92289">
        <ele>877.4</ele>
        <time>2026-04-28T08:17:49Z</time>
      </trkpt>
      <trkpt lat="44.97886" lon="3.92296">
        <ele>877.6</ele>
        <time>2026-04-28T08:17:54Z</time>
      </trkpt>
      <trkpt lat="44.97883" lon="3.92301">
        <ele>877.8</ele>
        <time>2026-04-28T08:17:59Z</time>
      </trkpt>
      <trkpt lat="44.97881" lon="3.92308">
        <ele>877.8</ele>
        <time>2026-04-28T08:18:04Z</time>
      </trkpt>
      <trkpt lat="44.97878" lon="3.92314">
        <ele>877.9</ele>
        <time>2026-04-28T08:18:09Z</time>
      </trkpt>
      <trkpt lat="44.97875" lon="3.9232">
        <ele>878</ele>
        <time>2026-04-28T08:18:14Z</time>
      </trkpt>
      <trkpt lat="44.97871" lon="3.92327">
        <ele>878.1</ele>
        <time>2026-04-28T08:18:19Z</time>
      </trkpt>
      <trkpt lat="44.97867" lon="3.92333">
        <ele>878.2</ele>
        <time>2026-04-28T08:18:24Z</time>
      </trkpt>
      <trkpt lat="44.97862" lon="3.92339">
        <ele>878.6</ele>
        <time>2026-04-28T08:18:29Z</time>
      </trkpt>
      <trkpt lat="44.97858" lon="3.92348">
        <ele>879</ele>
        <time>2026-04-28T08:18:34Z</time>
      </trkpt>
      <trkpt lat="44.97853" lon="3.92354">
        <ele>879.5</ele>
        <time>2026-04-28T08:18:39Z</time>
      </trkpt>
      <trkpt lat="44.97849" lon="3.92361">
        <ele>879.8</ele>
        <time>2026-04-28T08:18:44Z</time>
      </trkpt>
      <trkpt lat="44.97847" lon="3.92368">
        <ele>880</ele>
        <time>2026-04-28T08:18:49Z</time>
      </trkpt>
      <trkpt lat="44.97842" lon="3.92374">
        <ele>880.4</ele>
        <time>2026-04-28T08:18:54Z</time>
      </trkpt>
      <trkpt lat="44.97837" lon="3.92381">
        <ele>880.7</ele>
        <time>2026-04-28T08:18:59Z</time>
      </trkpt>
      <trkpt lat="44.97833" lon="3.92388">
        <ele>881</ele>
        <time>2026-04-28T08:19:04Z</time>
      </trkpt>
      <trkpt lat="44.9783" lon="3.92398">
        <ele>881.3</ele>
        <time>2026-04-28T08:19:09Z</time>
      </trkpt>
      <trkpt lat="44.97826" lon="3.92403">
        <ele>881.6</ele>
        <time>2026-04-28T08:19:14Z</time>
      </trkpt>
      <trkpt lat="44.97822" lon="3.9241">
        <ele>881.8</ele>
        <time>2026-04-28T08:19:19Z</time>
      </trkpt>
      <trkpt lat="44.97818" lon="3.92417">
        <ele>882.1</ele>
        <time>2026-04-28T08:19:24Z</time>
      </trkpt>
      <trkpt lat="44.97813" lon="3.92425">
        <ele>882.6</ele>
        <time>2026-04-28T08:19:29Z</time>
      </trkpt>
      <trkpt lat="44.9781" lon="3.92432">
        <ele>882.9</ele>
        <time>2026-04-28T08:19:34Z</time>
      </trkpt>
      <trkpt lat="44.97806" lon="3.92439">
        <ele>883.3</ele>
        <time>2026-04-28T08:19:39Z</time>
      </trkpt>
      <trkpt lat="44.97801" lon="3.92444">
        <ele>883.7</ele>
        <time>2026-04-28T08:19:44Z</time>
      </trkpt>
      <trkpt lat="44.97796" lon="3.92451">
        <ele>884.1</ele>
        <time>2026-04-28T08:19:49Z</time>
      </trkpt>
      <trkpt lat="44.97792" lon="3.92458">
        <ele>884.5</ele>
        <time>2026-04-28T08:19:54Z</time>
      </trkpt>
      <trkpt lat="44.97786" lon="3.92467">
        <ele>884.9</ele>
        <time>2026-04-28T08:19:59Z</time>
      </trkpt>
      <trkpt lat="44.97782" lon="3.92475">
        <ele>885.2</ele>
        <time>2026-04-28T08:20:04Z</time>
      </trkpt>
      <trkpt lat="44.97777" lon="3.92482">
        <ele>885.6</ele>
        <time>2026-04-28T08:20:09Z</time>
      </trkpt>
      <trkpt lat="44.97773" lon="3.92489">
        <ele>885.8</ele>
        <time>2026-04-28T08:20:14Z</time>
      </trkpt>
      <trkpt lat="44.97769" lon="3.92496">
        <ele>886.1</ele>
        <time>2026-04-28T08:20:19Z</time>
      </trkpt>
      <trkpt lat="44.97764" lon="3.92504">
        <ele>886.4</ele>
        <time>2026-04-28T08:20:24Z</time>
      </trkpt>
      <trkpt lat="44.97759" lon="3.92509">
        <ele>886.7</ele>
        <time>2026-04-28T08:20:29Z</time>
      </trkpt>
      <trkpt lat="44.97755" lon="3.92515">
        <ele>887</ele>
        <time>2026-04-28T08:20:34Z</time>
      </trkpt>
      <trkpt lat="44.97748" lon="3.92519">
        <ele>887.4</ele>
        <time>2026-04-28T08:20:39Z</time>
      </trkpt>
      <trkpt lat="44.97743" lon="3.92525">
        <ele>887.9</ele>
        <time>2026-04-28T08:20:44Z</time>
      </trkpt>
      <trkpt lat="44.97736" lon="3.92528">
        <ele>888.5</ele>
        <time>2026-04-28T08:20:49Z</time>
      </trkpt>
      <trkpt lat="44.97732" lon="3.92533">
        <ele>888.9</ele>
        <time>2026-04-28T08:20:54Z</time>
      </trkpt>
      <trkpt lat="44.97727" lon="3.92538">
        <ele>889.4</ele>
        <time>2026-04-28T08:20:59Z</time>
      </trkpt>
      <trkpt lat="44.97722" lon="3.92542">
        <ele>889.9</ele>
        <time>2026-04-28T08:21:04Z</time>
      </trkpt>
      <trkpt lat="44.97715" lon="3.92549">
        <ele>890.5</ele>
        <time>2026-04-28T08:21:09Z</time>
      </trkpt>
      <trkpt lat="44.97711" lon="3.92555">
        <ele>890.9</ele>
        <time>2026-04-28T08:21:14Z</time>
      </trkpt>
      <trkpt lat="44.97705" lon="3.92562">
        <ele>891.5</ele>
        <time>2026-04-28T08:21:19Z</time>
      </trkpt>
      <trkpt lat="44.977" lon="3.92569">
        <ele>892</ele>
        <time>2026-04-28T08:21:24Z</time>
      </trkpt>
      <trkpt lat="44.97695" lon="3.92574">
        <ele>892.5</ele>
        <time>2026-04-28T08:21:29Z</time>
      </trkpt>
      <trkpt lat="44.97691" lon="3.9258">
        <ele>892.9</ele>
        <time>2026-04-28T08:21:34Z</time>
      </trkpt>
      <trkpt lat="44.97686" lon="3.92587">
        <ele>893.3</ele>
        <time>2026-04-28T08:21:39Z</time>
      </trkpt>
      <trkpt lat="44.97682" lon="3.92594">
        <ele>893.4</ele>
        <time>2026-04-28T08:21:44Z</time>
      </trkpt>
      <trkpt lat="44.97676" lon="3.92602">
        <ele>893.6</ele>
        <time>2026-04-28T08:21:49Z</time>
      </trkpt>
      <trkpt lat="44.97671" lon="3.9261">
        <ele>893.7</ele>
        <time>2026-04-28T08:21:54Z</time>
      </trkpt>
      <trkpt lat="44.97667" lon="3.92617">
        <ele>893.8</ele>
        <time>2026-04-28T08:21:59Z</time>
      </trkpt>
      <trkpt lat="44.97662" lon="3.92624">
        <ele>893.6</ele>
        <time>2026-04-28T08:22:04Z</time>
      </trkpt>
      <trkpt lat="44.97657" lon="3.92632">
        <ele>893.4</ele>
        <time>2026-04-28T08:22:09Z</time>
      </trkpt>
      <trkpt lat="44.97652" lon="3.92641">
        <ele>893.2</ele>
        <time>2026-04-28T08:22:14Z</time>
      </trkpt>
      <trkpt lat="44.97648" lon="3.9265">
        <ele>892.9</ele>
        <time>2026-04-28T08:22:19Z</time>
      </trkpt>
      <trkpt lat="44.97648" lon="3.92653">
        <ele>892.8</ele>
        <time>2026-04-28T08:22:24Z</time>
      </trkpt>
      <trkpt lat="44.97645" lon="3.92661">
        <ele>892.5</ele>
        <time>2026-04-28T08:22:29Z</time>
      </trkpt>
      <trkpt lat="44.97639" lon="3.92669">
        <ele>892.2</ele>
        <time>2026-04-28T08:22:34Z</time>
      </trkpt>
      <trkpt lat="44.97633" lon="3.92677">
        <ele>891.7</ele>
        <time>2026-04-28T08:22:39Z</time>
      </trkpt>
      <trkpt lat="44.97629" lon="3.92684">
        <ele>891.2</ele>
        <time>2026-04-28T08:22:44Z</time>
      </trkpt>
      <trkpt lat="44.97625" lon="3.92691">
        <ele>890.7</ele>
        <time>2026-04-28T08:22:49Z</time>
      </trkpt>
      <trkpt lat="44.97619" lon="3.92698">
        <ele>890.3</ele>
        <time>2026-04-28T08:22:54Z</time>
      </trkpt>
      <trkpt lat="44.97613" lon="3.92707">
        <ele>889.7</ele>
        <time>2026-04-28T08:22:59Z</time>
      </trkpt>
      <trkpt lat="44.9761" lon="3.92716">
        <ele>889.1</ele>
        <time>2026-04-28T08:23:04Z</time>
      </trkpt>
      <trkpt lat="44.97605" lon="3.92722">
        <ele>888.8</ele>
        <time>2026-04-28T08:23:09Z</time>
      </trkpt>
      <trkpt lat="44.976" lon="3.9273">
        <ele>888.2</ele>
        <time>2026-04-28T08:23:14Z</time>
      </trkpt>
      <trkpt lat="44.97597" lon="3.92734">
        <ele>888</ele>
        <time>2026-04-28T08:23:19Z</time>
      </trkpt>
      <trkpt lat="44.97598" lon="3.92735">
        <ele>887.9</ele>
        <time>2026-04-28T08:23:24Z</time>
      </trkpt>
      <trkpt lat="44.97598" lon="3.92736">
        <ele>887.8</ele>
        <time>2026-04-28T08:23:29Z</time>
      </trkpt>
      <trkpt lat="44.97598" lon="3.92736">
        <ele>887.8</ele>
        <time>2026-04-28T08:23:34Z</time>
      </trkpt>
      <trkpt lat="44.97592" lon="3.92739">
        <ele>887.7</ele>
        <time>2026-04-28T08:23:39Z</time>
      </trkpt>
      <trkpt lat="44.97586" lon="3.92744">
        <ele>887.4</ele>
        <time>2026-04-28T08:23:44Z</time>
      </trkpt>
      <trkpt lat="44.97579" lon="3.9275">
        <ele>886.7</ele>
        <time>2026-04-28T08:23:49Z</time>
      </trkpt>
      <trkpt lat="44.9757" lon="3.92753">
        <ele>885.9</ele>
        <time>2026-04-28T08:23:54Z</time>
      </trkpt>
      <trkpt lat="44.97562" lon="3.92755">
        <ele>885.2</ele>
        <time>2026-04-28T08:23:59Z</time>
      </trkpt>
      <trkpt lat="44.97555" lon="3.92758">
        <ele>884.6</ele>
        <time>2026-04-28T08:24:04Z</time>
      </trkpt>
      <trkpt lat="44.97548" lon="3.9276">
        <ele>884.1</ele>
        <time>2026-04-28T08:24:09Z</time>
      </trkpt>
      <trkpt lat="44.97541" lon="3.92764">
        <ele>883.5</ele>
        <time>2026-04-28T08:24:14Z</time>
      </trkpt>
      <trkpt lat="44.97533" lon="3.92771">
        <ele>882.7</ele>
        <time>2026-04-28T08:24:19Z</time>
      </trkpt>
      <trkpt lat="44.97525" lon="3.92776">
        <ele>882.3</ele>
        <time>2026-04-28T08:24:24Z</time>
      </trkpt>
      <trkpt lat="44.97517" lon="3.92781">
        <ele>881.9</ele>
        <time>2026-04-28T08:24:29Z</time>
      </trkpt>
      <trkpt lat="44.97509" lon="3.92784">
        <ele>881.7</ele>
        <time>2026-04-28T08:24:34Z</time>
      </trkpt>
      <trkpt lat="44.97502" lon="3.92789">
        <ele>881.5</ele>
        <time>2026-04-28T08:24:39Z</time>
      </trkpt>
      <trkpt lat="44.97494" lon="3.92793">
        <ele>881</ele>
        <time>2026-04-28T08:24:44Z</time>
      </trkpt>
      <trkpt lat="44.97488" lon="3.92794">
        <ele>880.6</ele>
        <time>2026-04-28T08:24:49Z</time>
      </trkpt>
      <trkpt lat="44.9748" lon="3.92794">
        <ele>879.9</ele>
        <time>2026-04-28T08:24:54Z</time>
      </trkpt>
      <trkpt lat="44.97473" lon="3.92794">
        <ele>879.4</ele>
        <time>2026-04-28T08:24:59Z</time>
      </trkpt>
      <trkpt lat="44.97465" lon="3.92795">
        <ele>878.8</ele>
        <time>2026-04-28T08:25:04Z</time>
      </trkpt>
      <trkpt lat="44.97457" lon="3.92798">
        <ele>878.3</ele>
        <time>2026-04-28T08:25:09Z</time>
      </trkpt>
      <trkpt lat="44.97449" lon="3.92802">
        <ele>877.8</ele>
        <time>2026-04-28T08:25:14Z</time>
      </trkpt>
      <trkpt lat="44.97443" lon="3.92805">
        <ele>877.4</ele>
        <time>2026-04-28T08:25:19Z</time>
      </trkpt>
      <trkpt lat="44.97435" lon="3.92812">
        <ele>877.1</ele>
        <time>2026-04-28T08:25:24Z</time>
      </trkpt>
      <trkpt lat="44.9743" lon="3.92815">
        <ele>876.9</ele>
        <time>2026-04-28T08:25:29Z</time>
      </trkpt>
      <trkpt lat="44.97423" lon="3.9282">
        <ele>876.7</ele>
        <time>2026-04-28T08:25:34Z</time>
      </trkpt>
      <trkpt lat="44.97417" lon="3.92825">
        <ele>876.6</ele>
        <time>2026-04-28T08:25:39Z</time>
      </trkpt>
      <trkpt lat="44.97411" lon="3.92829">
        <ele>876.3</ele>
        <time>2026-04-28T08:25:44Z</time>
      </trkpt>
      <trkpt lat="44.97404" lon="3.92836">
        <ele>876</ele>
        <time>2026-04-28T08:25:49Z</time>
      </trkpt>
      <trkpt lat="44.97403" lon="3.92837">
        <ele>875.9</ele>
        <time>2026-04-28T08:25:54Z</time>
      </trkpt>
      <trkpt lat="44.97401" lon="3.92841">
        <ele>875.8</ele>
        <time>2026-04-28T08:25:59Z</time>
      </trkpt>
      <trkpt lat="44.97396" lon="3.92848">
        <ele>875.6</ele>
        <time>2026-04-28T08:26:04Z</time>
      </trkpt>
      <trkpt lat="44.97391" lon="3.92854">
        <ele>875.4</ele>
        <time>2026-04-28T08:26:09Z</time>
      </trkpt>
      <trkpt lat="44.97386" lon="3.92861">
        <ele>875.2</ele>
        <time>2026-04-28T08:26:14Z</time>
      </trkpt>
      <trkpt lat="44.97381" lon="3.92867">
        <ele>875.1</ele>
        <time>2026-04-28T08:26:19Z</time>
      </trkpt>
      <trkpt lat="44.97376" lon="3.92876">
        <ele>875.1</ele>
        <time>2026-04-28T08:26:24Z</time>
      </trkpt>
      <trkpt lat="44.97371" lon="3.92882">
        <ele>875</ele>
        <time>2026-04-28T08:26:29Z</time>
      </trkpt>
      <trkpt lat="44.97364" lon="3.9289">
        <ele>875</ele>
        <time>2026-04-28T08:26:34Z</time>
      </trkpt>
      <trkpt lat="44.9736" lon="3.92898">
        <ele>875.1</ele>
        <time>2026-04-28T08:26:39Z</time>
      </trkpt>
      <trkpt lat="44.97354" lon="3.92906">
        <ele>875.2</ele>
        <time>2026-04-28T08:26:44Z</time>
      </trkpt>
      <trkpt lat="44.97348" lon="3.92917">
        <ele>875.5</ele>
        <time>2026-04-28T08:26:49Z</time>
      </trkpt>
      <trkpt lat="44.97344" lon="3.92926">
        <ele>875.5</ele>
        <time>2026-04-28T08:26:54Z</time>
      </trkpt>
      <trkpt lat="44.97339" lon="3.92934">
        <ele>875.4</ele>
        <time>2026-04-28T08:26:59Z</time>
      </trkpt>
      <trkpt lat="44.97336" lon="3.92944">
        <ele>875.4</ele>
        <time>2026-04-28T08:27:04Z</time>
      </trkpt>
      <trkpt lat="44.97333" lon="3.92953">
        <ele>875.4</ele>
        <time>2026-04-28T08:27:09Z</time>
      </trkpt>
      <trkpt lat="44.9733" lon="3.92963">
        <ele>875.5</ele>
        <time>2026-04-28T08:27:14Z</time>
      </trkpt>
      <trkpt lat="44.97326" lon="3.92973">
        <ele>875.6</ele>
        <time>2026-04-28T08:27:19Z</time>
      </trkpt>
      <trkpt lat="44.97322" lon="3.92983">
        <ele>875.8</ele>
        <time>2026-04-28T08:27:24Z</time>
      </trkpt>
      <trkpt lat="44.97317" lon="3.92991">
        <ele>875.9</ele>
        <time>2026-04-28T08:27:29Z</time>
      </trkpt>
      <trkpt lat="44.97315" lon="3.92999">
        <ele>876</ele>
        <time>2026-04-28T08:27:34Z</time>
      </trkpt>
      <trkpt lat="44.97315" lon="3.93">
        <ele>876</ele>
        <time>2026-04-28T08:27:39Z</time>
      </trkpt>
      <trkpt lat="44.97315" lon="3.93">
        <ele>876</ele>
        <time>2026-04-28T08:27:44Z</time>
      </trkpt>
      <trkpt lat="44.9731" lon="3.93004">
        <ele>876</ele>
        <time>2026-04-28T08:27:49Z</time>
      </trkpt>
      <trkpt lat="44.97304" lon="3.93014">
        <ele>876.1</ele>
        <time>2026-04-28T08:27:54Z</time>
      </trkpt>
      <trkpt lat="44.97302" lon="3.93023">
        <ele>876.1</ele>
        <time>2026-04-28T08:27:59Z</time>
      </trkpt>
      <trkpt lat="44.97298" lon="3.93031">
        <ele>876.2</ele>
        <time>2026-04-28T08:28:04Z</time>
      </trkpt>
      <trkpt lat="44.97295" lon="3.9304">
        <ele>876.2</ele>
        <time>2026-04-28T08:28:09Z</time>
      </trkpt>
      <trkpt lat="44.97291" lon="3.93048">
        <ele>876.3</ele>
        <time>2026-04-28T08:28:14Z</time>
      </trkpt>
      <trkpt lat="44.97289" lon="3.93057">
        <ele>876.4</ele>
        <time>2026-04-28T08:28:19Z</time>
      </trkpt>
      <trkpt lat="44.97285" lon="3.93067">
        <ele>876.5</ele>
        <time>2026-04-28T08:28:24Z</time>
      </trkpt>
      <trkpt lat="44.97282" lon="3.93076">
        <ele>876.6</ele>
        <time>2026-04-28T08:28:29Z</time>
      </trkpt>
      <trkpt lat="44.97278" lon="3.93085">
        <ele>876.7</ele>
        <time>2026-04-28T08:28:34Z</time>
      </trkpt>
      <trkpt lat="44.97275" lon="3.93094">
        <ele>876.8</ele>
        <time>2026-04-28T08:28:39Z</time>
      </trkpt>
      <trkpt lat="44.97272" lon="3.93104">
        <ele>877</ele>
        <time>2026-04-28T08:28:44Z</time>
      </trkpt>
      <trkpt lat="44.97268" lon="3.93114">
        <ele>877.2</ele>
        <time>2026-04-28T08:28:49Z</time>
      </trkpt>
      <trkpt lat="44.97264" lon="3.93123">
        <ele>877.3</ele>
        <time>2026-04-28T08:28:54Z</time>
      </trkpt>
      <trkpt lat="44.97261" lon="3.93134">
        <ele>877.5</ele>
        <time>2026-04-28T08:28:59Z</time>
      </trkpt>
      <trkpt lat="44.97256" lon="3.93144">
        <ele>877.7</ele>
        <time>2026-04-28T08:29:04Z</time>
      </trkpt>
      <trkpt lat="44.97254" lon="3.93154">
        <ele>877.8</ele>
        <time>2026-04-28T08:29:09Z</time>
      </trkpt>
      <trkpt lat="44.97251" lon="3.93163">
        <ele>877.9</ele>
        <time>2026-04-28T08:29:14Z</time>
      </trkpt>
      <trkpt lat="44.97248" lon="3.93172">
        <ele>877.8</ele>
        <time>2026-04-28T08:29:19Z</time>
      </trkpt>
      <trkpt lat="44.97245" lon="3.93181">
        <ele>877.4</ele>
        <time>2026-04-28T08:29:24Z</time>
      </trkpt>
      <trkpt lat="44.9724" lon="3.93191">
        <ele>876.8</ele>
        <time>2026-04-28T08:29:29Z</time>
      </trkpt>
      <trkpt lat="44.97237" lon="3.932">
        <ele>876.5</ele>
        <time>2026-04-28T08:29:34Z</time>
      </trkpt>
      <trkpt lat="44.97232" lon="3.93207">
        <ele>875.9</ele>
        <time>2026-04-28T08:29:39Z</time>
      </trkpt>
      <trkpt lat="44.97229" lon="3.93217">
        <ele>875.6</ele>
        <time>2026-04-28T08:29:44Z</time>
      </trkpt>
      <trkpt lat="44.97225" lon="3.93227">
        <ele>875.3</ele>
        <time>2026-04-28T08:29:49Z</time>
      </trkpt>
      <trkpt lat="44.97223" lon="3.93237">
        <ele>875.2</ele>
        <time>2026-04-28T08:29:54Z</time>
      </trkpt>
      <trkpt lat="44.97218" lon="3.93246">
        <ele>874.7</ele>
        <time>2026-04-28T08:29:59Z</time>
      </trkpt>
      <trkpt lat="44.97215" lon="3.93255">
        <ele>874.5</ele>
        <time>2026-04-28T08:30:04Z</time>
      </trkpt>
      <trkpt lat="44.97212" lon="3.93263">
        <ele>874.2</ele>
        <time>2026-04-28T08:30:09Z</time>
      </trkpt>
      <trkpt lat="44.97209" lon="3.93272">
        <ele>874</ele>
        <time>2026-04-28T08:30:14Z</time>
      </trkpt>
      <trkpt lat="44.97205" lon="3.93281">
        <ele>873.7</ele>
        <time>2026-04-28T08:30:19Z</time>
      </trkpt>
      <trkpt lat="44.97202" lon="3.9329">
        <ele>873.5</ele>
        <time>2026-04-28T08:30:24Z</time>
      </trkpt>
      <trkpt lat="44.97197" lon="3.933">
        <ele>873.1</ele>
        <time>2026-04-28T08:30:29Z</time>
      </trkpt>
      <trkpt lat="44.97194" lon="3.93311">
        <ele>873.1</ele>
        <time>2026-04-28T08:30:34Z</time>
      </trkpt>
      <trkpt lat="44.97191" lon="3.93319">
        <ele>873</ele>
        <time>2026-04-28T08:30:39Z</time>
      </trkpt>
      <trkpt lat="44.97187" lon="3.93326">
        <ele>872.8</ele>
        <time>2026-04-28T08:30:44Z</time>
      </trkpt>
      <trkpt lat="44.97184" lon="3.93335">
        <ele>872.7</ele>
        <time>2026-04-28T08:30:49Z</time>
      </trkpt>
      <trkpt lat="44.9718" lon="3.93343">
        <ele>872.8</ele>
        <time>2026-04-28T08:30:54Z</time>
      </trkpt>
      <trkpt lat="44.97177" lon="3.93352">
        <ele>872.9</ele>
        <time>2026-04-28T08:30:59Z</time>
      </trkpt>
      <trkpt lat="44.97174" lon="3.9336">
        <ele>873</ele>
        <time>2026-04-28T08:31:04Z</time>
      </trkpt>
      <trkpt lat="44.97171" lon="3.93369">
        <ele>873.2</ele>
        <time>2026-04-28T08:31:09Z</time>
      </trkpt>
      <trkpt lat="44.97167" lon="3.93378">
        <ele>873.2</ele>
        <time>2026-04-28T08:31:14Z</time>
      </trkpt>
      <trkpt lat="44.97164" lon="3.93386">
        <ele>873.1</ele>
        <time>2026-04-28T08:31:19Z</time>
      </trkpt>
      <trkpt lat="44.97161" lon="3.93394">
        <ele>872.9</ele>
        <time>2026-04-28T08:31:24Z</time>
      </trkpt>
      <trkpt lat="44.97157" lon="3.93403">
        <ele>872.6</ele>
        <time>2026-04-28T08:31:29Z</time>
      </trkpt>
      <trkpt lat="44.97155" lon="3.9341">
        <ele>872.6</ele>
        <time>2026-04-28T08:31:34Z</time>
      </trkpt>
      <trkpt lat="44.9715" lon="3.93418">
        <ele>872.1</ele>
        <time>2026-04-28T08:31:39Z</time>
      </trkpt>
      <trkpt lat="44.97148" lon="3.93422">
        <ele>872</ele>
        <time>2026-04-28T08:31:44Z</time>
      </trkpt>
      <trkpt lat="44.97144" lon="3.9343">
        <ele>871.9</ele>
        <time>2026-04-28T08:31:49Z</time>
      </trkpt>
      <trkpt lat="44.97142" lon="3.93434">
        <ele>871.9</ele>
        <time>2026-04-28T08:31:54Z</time>
      </trkpt>
      <trkpt lat="44.9714" lon="3.9344">
        <ele>872</ele>
        <time>2026-04-28T08:31:59Z</time>
      </trkpt>
      <trkpt lat="44.97138" lon="3.93443">
        <ele>871.8</ele>
        <time>2026-04-28T08:32:04Z</time>
      </trkpt>
      <trkpt lat="44.97134" lon="3.93446">
        <ele>871.4</ele>
        <time>2026-04-28T08:32:09Z</time>
      </trkpt>
      <trkpt lat="44.97134" lon="3.93446">
        <ele>871.4</ele>
        <time>2026-04-28T08:32:14Z</time>
      </trkpt>
      <trkpt lat="44.97134" lon="3.93446">
        <ele>871.4</ele>
        <time>2026-04-28T08:32:19Z</time>
      </trkpt>
      <trkpt lat="44.97134" lon="3.93446">
        <ele>871.4</ele>
        <time>2026-04-28T08:32:24Z</time>
      </trkpt>
      <trkpt lat="44.97134" lon="3.93446">
        <ele>871.4</ele>
        <time>2026-04-28T08:32:29Z</time>
      </trkpt>
      <trkpt lat="44.97134" lon="3.93454">
        <ele>872</ele>
        <time>2026-04-28T08:32:34Z</time>
      </trkpt>
      <trkpt lat="44.97131" lon="3.9346">
        <ele>871.9</ele>
        <time>2026-04-28T08:32:39Z</time>
      </trkpt>
      <trkpt lat="44.97127" lon="3.93465">
        <ele>871.6</ele>
        <time>2026-04-28T08:32:44Z</time>
      </trkpt>
      <trkpt lat="44.97123" lon="3.93472">
        <ele>871.5</ele>
        <time>2026-04-28T08:32:49Z</time>
      </trkpt>
      <trkpt lat="44.97117" lon="3.93481">
        <ele>871.2</ele>
        <time>2026-04-28T08:32:54Z</time>
      </trkpt>
      <trkpt lat="44.97111" lon="3.93488">
        <ele>870.7</ele>
        <time>2026-04-28T08:32:59Z</time>
      </trkpt>
      <trkpt lat="44.97106" lon="3.93496">
        <ele>870.5</ele>
        <time>2026-04-28T08:33:04Z</time>
      </trkpt>
      <trkpt lat="44.97101" lon="3.93503">
        <ele>870.4</ele>
        <time>2026-04-28T08:33:09Z</time>
      </trkpt>
      <trkpt lat="44.97096" lon="3.93511">
        <ele>870.8</ele>
        <time>2026-04-28T08:33:14Z</time>
      </trkpt>
      <trkpt lat="44.9709" lon="3.93518">
        <ele>870.9</ele>
        <time>2026-04-28T08:33:19Z</time>
      </trkpt>
      <trkpt lat="44.97086" lon="3.93522">
        <ele>870.8</ele>
        <time>2026-04-28T08:33:24Z</time>
      </trkpt>
      <trkpt lat="44.9708" lon="3.93529">
        <ele>871.1</ele>
        <time>2026-04-28T08:33:29Z</time>
      </trkpt>
      <trkpt lat="44.97076" lon="3.93538">
        <ele>872</ele>
        <time>2026-04-28T08:33:34Z</time>
      </trkpt>
      <trkpt lat="44.97072" lon="3.93549">
        <ele>873.2</ele>
        <time>2026-04-28T08:33:39Z</time>
      </trkpt>
      <trkpt lat="44.97069" lon="3.93559">
        <ele>874.2</ele>
        <time>2026-04-28T08:33:44Z</time>
      </trkpt>
      <trkpt lat="44.97065" lon="3.93567">
        <ele>874.8</ele>
        <time>2026-04-28T08:33:49Z</time>
      </trkpt>
      <trkpt lat="44.97061" lon="3.93576">
        <ele>875.5</ele>
        <time>2026-04-28T08:33:54Z</time>
      </trkpt>
      <trkpt lat="44.97057" lon="3.93585">
        <ele>876.1</ele>
        <time>2026-04-28T08:33:59Z</time>
      </trkpt>
      <trkpt lat="44.97053" lon="3.93595">
        <ele>876.5</ele>
        <time>2026-04-28T08:34:04Z</time>
      </trkpt>
      <trkpt lat="44.97049" lon="3.93603">
        <ele>876.7</ele>
        <time>2026-04-28T08:34:09Z</time>
      </trkpt>
      <trkpt lat="44.97044" lon="3.93612">
        <ele>876.8</ele>
        <time>2026-04-28T08:34:14Z</time>
      </trkpt>
      <trkpt lat="44.97039" lon="3.9362">
        <ele>876.8</ele>
        <time>2026-04-28T08:34:19Z</time>
      </trkpt>
      <trkpt lat="44.97035" lon="3.93629">
        <ele>877</ele>
        <time>2026-04-28T08:34:24Z</time>
      </trkpt>
      <trkpt lat="44.9703" lon="3.93638">
        <ele>877</ele>
        <time>2026-04-28T08:34:29Z</time>
      </trkpt>
      <trkpt lat="44.97027" lon="3.93645">
        <ele>877.1</ele>
        <time>2026-04-28T08:34:34Z</time>
      </trkpt>
      <trkpt lat="44.97023" lon="3.93654">
        <ele>877.2</ele>
        <time>2026-04-28T08:34:39Z</time>
      </trkpt>
      <trkpt lat="44.97019" lon="3.93662">
        <ele>877.2</ele>
        <time>2026-04-28T08:34:44Z</time>
      </trkpt>
      <trkpt lat="44.97014" lon="3.93672">
        <ele>877</ele>
        <time>2026-04-28T08:34:49Z</time>
      </trkpt>
      <trkpt lat="44.97009" lon="3.93678">
        <ele>876.4</ele>
        <time>2026-04-28T08:34:54Z</time>
      </trkpt>
      <trkpt lat="44.97004" lon="3.93685">
        <ele>875.9</ele>
        <time>2026-04-28T08:34:59Z</time>
      </trkpt>
      <trkpt lat="44.97" lon="3.93693">
        <ele>875.6</ele>
        <time>2026-04-28T08:35:04Z</time>
      </trkpt>
      <trkpt lat="44.96995" lon="3.937">
        <ele>875.3</ele>
        <time>2026-04-28T08:35:09Z</time>
      </trkpt>
      <trkpt lat="44.9699" lon="3.93709">
        <ele>875.1</ele>
        <time>2026-04-28T08:35:14Z</time>
      </trkpt>
      <trkpt lat="44.96985" lon="3.93716">
        <ele>874.8</ele>
        <time>2026-04-28T08:35:19Z</time>
      </trkpt>
      <trkpt lat="44.96979" lon="3.93727">
        <ele>874.5</ele>
        <time>2026-04-28T08:35:24Z</time>
      </trkpt>
      <trkpt lat="44.96974" lon="3.93736">
        <ele>874.2</ele>
        <time>2026-04-28T08:35:29Z</time>
      </trkpt>
      <trkpt lat="44.96969" lon="3.93745">
        <ele>873.9</ele>
        <time>2026-04-28T08:35:34Z</time>
      </trkpt>
      <trkpt lat="44.96965" lon="3.93755">
        <ele>873.8</ele>
        <time>2026-04-28T08:35:39Z</time>
      </trkpt>
      <trkpt lat="44.96961" lon="3.93764">
        <ele>873.6</ele>
        <time>2026-04-28T08:35:44Z</time>
      </trkpt>
      <trkpt lat="44.96957" lon="3.93773">
        <ele>873.4</ele>
        <time>2026-04-28T08:35:49Z</time>
      </trkpt>
      <trkpt lat="44.96954" lon="3.93781">
        <ele>873.3</ele>
        <time>2026-04-28T08:35:54Z</time>
      </trkpt>
      <trkpt lat="44.9695" lon="3.9379">
        <ele>873</ele>
        <time>2026-04-28T08:35:59Z</time>
      </trkpt>
      <trkpt lat="44.96946" lon="3.938">
        <ele>872.8</ele>
        <time>2026-04-28T08:36:04Z</time>
      </trkpt>
      <trkpt lat="44.96941" lon="3.93808">
        <ele>872.3</ele>
        <time>2026-04-28T08:36:09Z</time>
      </trkpt>
      <trkpt lat="44.96937" lon="3.93818">
        <ele>872</ele>
        <time>2026-04-28T08:36:14Z</time>
      </trkpt>
      <trkpt lat="44.96934" lon="3.93827">
        <ele>871.9</ele>
        <time>2026-04-28T08:36:19Z</time>
      </trkpt>
      <trkpt lat="44.96931" lon="3.93839">
        <ele>872.1</ele>
        <time>2026-04-28T08:36:24Z</time>
      </trkpt>
      <trkpt lat="44.96928" lon="3.93849">
        <ele>872.5</ele>
        <time>2026-04-28T08:36:29Z</time>
      </trkpt>
      <trkpt lat="44.96924" lon="3.93859">
        <ele>872.7</ele>
        <time>2026-04-28T08:36:34Z</time>
      </trkpt>
      <trkpt lat="44.96919" lon="3.93869">
        <ele>872.8</ele>
        <time>2026-04-28T08:36:39Z</time>
      </trkpt>
      <trkpt lat="44.96914" lon="3.93878">
        <ele>873.3</ele>
        <time>2026-04-28T08:36:44Z</time>
      </trkpt>
      <trkpt lat="44.9691" lon="3.93887">
        <ele>874.2</ele>
        <time>2026-04-28T08:36:49Z</time>
      </trkpt>
      <trkpt lat="44.96904" lon="3.93896">
        <ele>875</ele>
        <time>2026-04-28T08:36:54Z</time>
      </trkpt>
      <trkpt lat="44.96899" lon="3.93904">
        <ele>875.8</ele>
        <time>2026-04-28T08:36:59Z</time>
      </trkpt>
      <trkpt lat="44.96894" lon="3.93912">
        <ele>876.6</ele>
        <time>2026-04-28T08:37:04Z</time>
      </trkpt>
      <trkpt lat="44.96889" lon="3.9392">
        <ele>877.5</ele>
        <time>2026-04-28T08:37:09Z</time>
      </trkpt>
      <trkpt lat="44.96885" lon="3.93926">
        <ele>878.3</ele>
        <time>2026-04-28T08:37:14Z</time>
      </trkpt>
      <trkpt lat="44.9688" lon="3.93932">
        <ele>879.1</ele>
        <time>2026-04-28T08:37:19Z</time>
      </trkpt>
      <trkpt lat="44.96874" lon="3.93937">
        <ele>879.7</ele>
        <time>2026-04-28T08:37:24Z</time>
      </trkpt>
      <trkpt lat="44.96868" lon="3.93945">
        <ele>880.6</ele>
        <time>2026-04-28T08:37:29Z</time>
      </trkpt>
      <trkpt lat="44.96861" lon="3.93953">
        <ele>881.4</ele>
        <time>2026-04-28T08:37:34Z</time>
      </trkpt>
      <trkpt lat="44.96855" lon="3.93957">
        <ele>881.6</ele>
        <time>2026-04-28T08:37:39Z</time>
      </trkpt>
      <trkpt lat="44.9685" lon="3.93958">
        <ele>881.6</ele>
        <time>2026-04-28T08:37:44Z</time>
      </trkpt>
      <trkpt lat="44.96849" lon="3.93958">
        <ele>881.5</ele>
        <time>2026-04-28T08:37:49Z</time>
      </trkpt>
      <trkpt lat="44.96847" lon="3.93966">
        <ele>882.3</ele>
        <time>2026-04-28T08:37:54Z</time>
      </trkpt>
      <trkpt lat="44.96842" lon="3.93974">
        <ele>882.9</ele>
        <time>2026-04-28T08:37:59Z</time>
      </trkpt>
      <trkpt lat="44.96838" lon="3.9398">
        <ele>883.3</ele>
        <time>2026-04-28T08:38:04Z</time>
      </trkpt>
      <trkpt lat="44.96834" lon="3.93987">
        <ele>883.8</ele>
        <time>2026-04-28T08:38:09Z</time>
      </trkpt>
      <trkpt lat="44.96827" lon="3.93994">
        <ele>885</ele>
        <time>2026-04-28T08:38:14Z</time>
      </trkpt>
      <trkpt lat="44.96822" lon="3.94">
        <ele>886</ele>
        <time>2026-04-28T08:38:19Z</time>
      </trkpt>
      <trkpt lat="44.96817" lon="3.94007">
        <ele>886.8</ele>
        <time>2026-04-28T08:38:24Z</time>
      </trkpt>
      <trkpt lat="44.96818" lon="3.94013">
        <ele>887.1</ele>
        <time>2026-04-28T08:38:29Z</time>
      </trkpt>
      <trkpt lat="44.96823" lon="3.94017">
        <ele>887</ele>
        <time>2026-04-28T08:38:34Z</time>
      </trkpt>
      <trkpt lat="44.96827" lon="3.94019">
        <ele>886.8</ele>
        <time>2026-04-28T08:38:39Z</time>
      </trkpt>
      <trkpt lat="44.9683" lon="3.94021">
        <ele>886.7</ele>
        <time>2026-04-28T08:38:44Z</time>
      </trkpt>
      <trkpt lat="44.96833" lon="3.94022">
        <ele>886.6</ele>
        <time>2026-04-28T08:38:49Z</time>
      </trkpt>
      <trkpt lat="44.96836" lon="3.94026">
        <ele>887.1</ele>
        <time>2026-04-28T08:38:54Z</time>
      </trkpt>
      <trkpt lat="44.96836" lon="3.94025">
        <ele>887</ele>
        <time>2026-04-28T08:38:59Z</time>
      </trkpt>
      <trkpt lat="44.96836" lon="3.94025">
        <ele>887</ele>
        <time>2026-04-28T08:39:04Z</time>
      </trkpt>
      <trkpt lat="44.96836" lon="3.94025">
        <ele>887</ele>
        <time>2026-04-28T08:39:09Z</time>
      </trkpt>
      <trkpt lat="44.96836" lon="3.94025">
        <ele>887</ele>
        <time>2026-04-28T08:39:14Z</time>
      </trkpt>
      <trkpt lat="44.96836" lon="3.94025">
        <ele>887</ele>
        <time>2026-04-28T08:39:19Z</time>
      </trkpt>
      <trkpt lat="44.96836" lon="3.94025">
        <ele>887</ele>
        <time>2026-04-28T08:39:24Z</time>
      </trkpt>
      <trkpt lat="44.96836" lon="3.94025">
        <ele>887</ele>
        <time>2026-04-28T08:39:29Z</time>
      </trkpt>
      <trkpt lat="44.96836" lon="3.94025">
        <ele>887</ele>
        <time>2026-04-28T08:39:34Z</time>
      </trkpt>
      <trkpt lat="44.96836" lon="3.94025">
        <ele>887</ele>
        <time>2026-04-28T08:39:39Z</time>
      </trkpt>
      <trkpt lat="44.9683" lon="3.94023">
        <ele>886.9</ele>
        <time>2026-04-28T08:39:44Z</time>
      </trkpt>
      <trkpt lat="44.96828" lon="3.94022">
        <ele>886.9</ele>
        <time>2026-04-28T08:39:49Z</time>
      </trkpt>
      <trkpt lat="44.96828" lon="3.94022">
        <ele>886.9</ele>
        <time>2026-04-28T08:39:54Z</time>
      </trkpt>
      <trkpt lat="44.96828" lon="3.94022">
        <ele>886.9</ele>
        <time>2026-04-28T08:39:59Z</time>
      </trkpt>
      <trkpt lat="44.96828" lon="3.94022">
        <ele>886.9</ele>
        <time>2026-04-28T08:40:04Z</time>
      </trkpt>
      <trkpt lat="44.96828" lon="3.94022">
        <ele>886.9</ele>
        <time>2026-04-28T08:40:09Z</time>
      </trkpt>
      <trkpt lat="44.96828" lon="3.94022">
        <ele>886.9</ele>
        <time>2026-04-28T08:40:14Z</time>
      </trkpt>
      <trkpt lat="44.96828" lon="3.94022">
        <ele>886.9</ele>
        <time>2026-04-28T08:40:19Z</time>
      </trkpt>
      <trkpt lat="44.96828" lon="3.94022">
        <ele>886.9</ele>
        <time>2026-04-28T08:40:24Z</time>
      </trkpt>
      <trkpt lat="44.96828" lon="3.94022">
        <ele>886.9</ele>
        <time>2026-04-28T08:40:29Z</time>
      </trkpt>
      <trkpt lat="44.96828" lon="3.94022">
        <ele>886.9</ele>
        <time>2026-04-28T08:40:34Z</time>
      </trkpt>
      <trkpt lat="44.96828" lon="3.94022">
        <ele>886.9</ele>
        <time>2026-04-28T08:40:39Z</time>
      </trkpt>
      <trkpt lat="44.96828" lon="3.94022">
        <ele>886.9</ele>
        <time>2026-04-28T08:40:44Z</time>
      </trkpt>
      <trkpt lat="44.96828" lon="3.94022">
        <ele>886.9</ele>
        <time>2026-04-28T08:40:49Z</time>
      </trkpt>
      <trkpt lat="44.96828" lon="3.94022">
        <ele>886.9</ele>
        <time>2026-04-28T08:40:54Z</time>
      </trkpt>
      <trkpt lat="44.96828" lon="3.94022">
        <ele>886.9</ele>
        <time>2026-04-28T08:40:59Z</time>
      </trkpt>
      <trkpt lat="44.96828" lon="3.94022">
        <ele>886.9</ele>
        <time>2026-04-28T08:41:04Z</time>
      </trkpt>
      <trkpt lat="44.96828" lon="3.94022">
        <ele>886.9</ele>
        <time>2026-04-28T08:41:09Z</time>
      </trkpt>
      <trkpt lat="44.96828" lon="3.94022">
        <ele>886.9</ele>
        <time>2026-04-28T08:41:14Z</time>
      </trkpt>
      <trkpt lat="44.96828" lon="3.94022">
        <ele>886.9</ele>
        <time>2026-04-28T08:41:19Z</time>
      </trkpt>
      <trkpt lat="44.96828" lon="3.94022">
        <ele>886.9</ele>
        <time>2026-04-28T08:41:24Z</time>
      </trkpt>
      <trkpt lat="44.96828" lon="3.94022">
        <ele>886.9</ele>
        <time>2026-04-28T08:41:29Z</time>
      </trkpt>
      <trkpt lat="44.96828" lon="3.94022">
        <ele>886.9</ele>
        <time>2026-04-28T08:41:34Z</time>
      </trkpt>
      <trkpt lat="44.96828" lon="3.94022">
        <ele>886.9</ele>
        <time>2026-04-28T08:41:39Z</time>
      </trkpt>
      <trkpt lat="44.96828" lon="3.94022">
        <ele>886.9</ele>
        <time>2026-04-28T08:41:44Z</time>
      </trkpt>
      <trkpt lat="44.96828" lon="3.94022">
        <ele>886.9</ele>
        <time>2026-04-28T08:41:49Z</time>
      </trkpt>
      <trkpt lat="44.96828" lon="3.94022">
        <ele>886.9</ele>
        <time>2026-04-28T08:41:54Z</time>
      </trkpt>
      <trkpt lat="44.96828" lon="3.94022">
        <ele>886.9</ele>
        <time>2026-04-28T08:41:59Z</time>
      </trkpt>
      <trkpt lat="44.96828" lon="3.94022">
        <ele>886.9</ele>
        <time>2026-04-28T08:42:04Z</time>
      </trkpt>
      <trkpt lat="44.96828" lon="3.94022">
        <ele>886.9</ele>
        <time>2026-04-28T08:42:09Z</time>
      </trkpt>
      <trkpt lat="44.96828" lon="3.94022">
        <ele>886.9</ele>
        <time>2026-04-28T08:42:14Z</time>
      </trkpt>
      <trkpt lat="44.96828" lon="3.94022">
        <ele>886.9</ele>
        <time>2026-04-28T08:42:19Z</time>
      </trkpt>
      <trkpt lat="44.96828" lon="3.94022">
        <ele>886.9</ele>
        <time>2026-04-28T08:42:24Z</time>
      </trkpt>
      <trkpt lat="44.96828" lon="3.94022">
        <ele>886.9</ele>
        <time>2026-04-28T08:42:29Z</time>
      </trkpt>
      <trkpt lat="44.96828" lon="3.94022">
        <ele>886.9</ele>
        <time>2026-04-28T08:42:34Z</time>
      </trkpt>
      <trkpt lat="44.96828" lon="3.94022">
        <ele>886.9</ele>
        <time>2026-04-28T08:42:39Z</time>
      </trkpt>
      <trkpt lat="44.96828" lon="3.94022">
        <ele>886.9</ele>
        <time>2026-04-28T08:42:44Z</time>
      </trkpt>
      <trkpt lat="44.96828" lon="3.94022">
        <ele>886.9</ele>
        <time>2026-04-28T08:42:49Z</time>
      </trkpt>
      <trkpt lat="44.96828" lon="3.94022">
        <ele>886.9</ele>
        <time>2026-04-28T08:42:54Z</time>
      </trkpt>
      <trkpt lat="44.96828" lon="3.94022">
        <ele>886.9</ele>
        <time>2026-04-28T08:42:59Z</time>
      </trkpt>
      <trkpt lat="44.96828" lon="3.94022">
        <ele>886.9</ele>
        <time>2026-04-28T08:43:04Z</time>
      </trkpt>
      <trkpt lat="44.96828" lon="3.94022">
        <ele>886.9</ele>
        <time>2026-04-28T08:43:09Z</time>
      </trkpt>
      <trkpt lat="44.96828" lon="3.94022">
        <ele>886.9</ele>
        <time>2026-04-28T08:43:14Z</time>
      </trkpt>
      <trkpt lat="44.96828" lon="3.94022">
        <ele>886.9</ele>
        <time>2026-04-28T08:43:19Z</time>
      </trkpt>
      <trkpt lat="44.96828" lon="3.94022">
        <ele>886.9</ele>
        <time>2026-04-28T08:43:24Z</time>
      </trkpt>
      <trkpt lat="44.96828" lon="3.94022">
        <ele>886.9</ele>
        <time>2026-04-28T08:43:29Z</time>
      </trkpt>
      <trkpt lat="44.96828" lon="3.94022">
        <ele>886.9</ele>
        <time>2026-04-28T08:43:34Z</time>
      </trkpt>
      <trkpt lat="44.96828" lon="3.94022">
        <ele>886.9</ele>
        <time>2026-04-28T08:43:39Z</time>
      </trkpt>
      <trkpt lat="44.96828" lon="3.94022">
        <ele>886.9</ele>
        <time>2026-04-28T08:43:44Z</time>
      </trkpt>
      <trkpt lat="44.96828" lon="3.94022">
        <ele>886.9</ele>
        <time>2026-04-28T08:43:49Z</time>
      </trkpt>
      <trkpt lat="44.96828" lon="3.94022">
        <ele>886.9</ele>
        <time>2026-04-28T08:43:54Z</time>
      </trkpt>
      <trkpt lat="44.96828" lon="3.94022">
        <ele>886.9</ele>
        <time>2026-04-28T08:43:59Z</time>
      </trkpt>
      <trkpt lat="44.96828" lon="3.94022">
        <ele>886.9</ele>
        <time>2026-04-28T08:44:04Z</time>
      </trkpt>
      <trkpt lat="44.96828" lon="3.94022">
        <ele>886.9</ele>
        <time>2026-04-28T08:44:09Z</time>
      </trkpt>
      <trkpt lat="44.96828" lon="3.94022">
        <ele>886.9</ele>
        <time>2026-04-28T08:44:14Z</time>
      </trkpt>
      <trkpt lat="44.96828" lon="3.94022">
        <ele>886.9</ele>
        <time>2026-04-28T08:44:19Z</time>
      </trkpt>
      <trkpt lat="44.96828" lon="3.94022">
        <ele>886.9</ele>
        <time>2026-04-28T08:44:24Z</time>
      </trkpt>
      <trkpt lat="44.96828" lon="3.94022">
        <ele>886.9</ele>
        <time>2026-04-28T08:44:29Z</time>
      </trkpt>
      <trkpt lat="44.96828" lon="3.94022">
        <ele>886.9</ele>
        <time>2026-04-28T08:44:34Z</time>
      </trkpt>
      <trkpt lat="44.96828" lon="3.94022">
        <ele>886.9</ele>
        <time>2026-04-28T08:44:39Z</time>
      </trkpt>
      <trkpt lat="44.96828" lon="3.94022">
        <ele>886.9</ele>
        <time>2026-04-28T08:44:44Z</time>
      </trkpt>
      <trkpt lat="44.96828" lon="3.94022">
        <ele>886.9</ele>
        <time>2026-04-28T08:44:49Z</time>
      </trkpt>
      <trkpt lat="44.96828" lon="3.94022">
        <ele>886.9</ele>
        <time>2026-04-28T08:44:54Z</time>
      </trkpt>
      <trkpt lat="44.96828" lon="3.94022">
        <ele>886.9</ele>
        <time>2026-04-28T08:44:59Z</time>
      </trkpt>
      <trkpt lat="44.96828" lon="3.94022">
        <ele>886.9</ele>
        <time>2026-04-28T08:45:04Z</time>
      </trkpt>
      <trkpt lat="44.96828" lon="3.94022">
        <ele>886.9</ele>
        <time>2026-04-28T08:45:09Z</time>
      </trkpt>
      <trkpt lat="44.96828" lon="3.94022">
        <ele>886.9</ele>
        <time>2026-04-28T08:45:14Z</time>
      </trkpt>
      <trkpt lat="44.96828" lon="3.94022">
        <ele>886.9</ele>
        <time>2026-04-28T08:45:19Z</time>
      </trkpt>
      <trkpt lat="44.96828" lon="3.94022">
        <ele>886.9</ele>
        <time>2026-04-28T08:45:24Z</time>
      </trkpt>
      <trkpt lat="44.96828" lon="3.94022">
        <ele>886.9</ele>
        <time>2026-04-28T08:45:29Z</time>
      </trkpt>
      <trkpt lat="44.96828" lon="3.94022">
        <ele>886.9</ele>
        <time>2026-04-28T08:45:34Z</time>
      </trkpt>
      <trkpt lat="44.96828" lon="3.94022">
        <ele>886.9</ele>
        <time>2026-04-28T08:45:39Z</time>
      </trkpt>
      <trkpt lat="44.96828" lon="3.94022">
        <ele>886.9</ele>
        <time>2026-04-28T08:45:44Z</time>
      </trkpt>
      <trkpt lat="44.96828" lon="3.94022">
        <ele>886.9</ele>
        <time>2026-04-28T08:45:49Z</time>
      </trkpt>
      <trkpt lat="44.96828" lon="3.94022">
        <ele>886.9</ele>
        <time>2026-04-28T08:45:54Z</time>
      </trkpt>
      <trkpt lat="44.96828" lon="3.94022">
        <ele>886.9</ele>
        <time>2026-04-28T08:45:59Z</time>
      </trkpt>
      <trkpt lat="44.96828" lon="3.94022">
        <ele>886.9</ele>
        <time>2026-04-28T08:46:04Z</time>
      </trkpt>
      <trkpt lat="44.96828" lon="3.94022">
        <ele>886.9</ele>
        <time>2026-04-28T08:46:09Z</time>
      </trkpt>
      <trkpt lat="44.96828" lon="3.94022">
        <ele>886.9</ele>
        <time>2026-04-28T08:46:14Z</time>
      </trkpt>
      <trkpt lat="44.96828" lon="3.94022">
        <ele>886.9</ele>
        <time>2026-04-28T08:46:19Z</time>
      </trkpt>
      <trkpt lat="44.96828" lon="3.94022">
        <ele>886.9</ele>
        <time>2026-04-28T08:46:24Z</time>
      </trkpt>
      <trkpt lat="44.96828" lon="3.94022">
        <ele>886.9</ele>
        <time>2026-04-28T08:46:29Z</time>
      </trkpt>
      <trkpt lat="44.96826" lon="3.9402">
        <ele>887</ele>
        <time>2026-04-28T08:46:34Z</time>
      </trkpt>
      <trkpt lat="44.96821" lon="3.94015">
        <ele>887</ele>
        <time>2026-04-28T08:46:39Z</time>
      </trkpt>
      <trkpt lat="44.96816" lon="3.94012">
        <ele>887.2</ele>
        <time>2026-04-28T08:46:44Z</time>
      </trkpt>
      <trkpt lat="44.96813" lon="3.94014">
        <ele>887.5</ele>
        <time>2026-04-28T08:46:49Z</time>
      </trkpt>
      <trkpt lat="44.96813" lon="3.94014">
        <ele>887.5</ele>
        <time>2026-04-28T08:46:49Z</time>
      </trkpt>
      <trkpt lat="44.96814" lon="3.94015">
        <ele>887.5</ele>
        <time>2026-04-28T08:46:56Z</time>
      </trkpt>
      <trkpt lat="44.96812" lon="3.9402">
        <ele>887.9</ele>
        <time>2026-04-28T08:47:02Z</time>
      </trkpt>
      <trkpt lat="44.96812" lon="3.9402">
        <ele>887.9</ele>
        <time>2026-04-28T08:47:07Z</time>
      </trkpt>
      <trkpt lat="44.96807" lon="3.94021">
        <ele>888.3</ele>
        <time>2026-04-28T08:47:12Z</time>
      </trkpt>
      <trkpt lat="44.96802" lon="3.94025">
        <ele>888.9</ele>
        <time>2026-04-28T08:47:17Z</time>
      </trkpt>
      <trkpt lat="44.96797" lon="3.94031">
        <ele>889.5</ele>
        <time>2026-04-28T08:47:22Z</time>
      </trkpt>
      <trkpt lat="44.96791" lon="3.94036">
        <ele>890.1</ele>
        <time>2026-04-28T08:47:27Z</time>
      </trkpt>
      <trkpt lat="44.96784" lon="3.94042">
        <ele>890.7</ele>
        <time>2026-04-28T08:47:32Z</time>
      </trkpt>
      <trkpt lat="44.96777" lon="3.94049">
        <ele>891.3</ele>
        <time>2026-04-28T08:47:37Z</time>
      </trkpt>
      <trkpt lat="44.9677" lon="3.94055">
        <ele>891.8</ele>
        <time>2026-04-28T08:47:42Z</time>
      </trkpt>
      <trkpt lat="44.96764" lon="3.94063">
        <ele>892.2</ele>
        <time>2026-04-28T08:47:47Z</time>
      </trkpt>
      <trkpt lat="44.96758" lon="3.94068">
        <ele>892.5</ele>
        <time>2026-04-28T08:47:52Z</time>
      </trkpt>
      <trkpt lat="44.96751" lon="3.94073">
        <ele>892.8</ele>
        <time>2026-04-28T08:47:57Z</time>
      </trkpt>
      <trkpt lat="44.96745" lon="3.94079">
        <ele>893.2</ele>
        <time>2026-04-28T08:48:02Z</time>
      </trkpt>
      <trkpt lat="44.96738" lon="3.94086">
        <ele>893.6</ele>
        <time>2026-04-28T08:48:07Z</time>
      </trkpt>
      <trkpt lat="44.96732" lon="3.94091">
        <ele>893.7</ele>
        <time>2026-04-28T08:48:12Z</time>
      </trkpt>
      <trkpt lat="44.96727" lon="3.94097">
        <ele>893.7</ele>
        <time>2026-04-28T08:48:17Z</time>
      </trkpt>
      <trkpt lat="44.96722" lon="3.94103">
        <ele>893.8</ele>
        <time>2026-04-28T08:48:22Z</time>
      </trkpt>
      <trkpt lat="44.96718" lon="3.94108">
        <ele>893.9</ele>
        <time>2026-04-28T08:48:27Z</time>
      </trkpt>
      <trkpt lat="44.96718" lon="3.94114">
        <ele>893.6</ele>
        <time>2026-04-28T08:48:32Z</time>
      </trkpt>
      <trkpt lat="44.96717" lon="3.94115">
        <ele>893.7</ele>
        <time>2026-04-28T08:48:37Z</time>
      </trkpt>
      <trkpt lat="44.96712" lon="3.94116">
        <ele>894</ele>
        <time>2026-04-28T08:48:42Z</time>
      </trkpt>
      <trkpt lat="44.96706" lon="3.94119">
        <ele>894.4</ele>
        <time>2026-04-28T08:48:47Z</time>
      </trkpt>
      <trkpt lat="44.967" lon="3.94125">
        <ele>894.7</ele>
        <time>2026-04-28T08:48:52Z</time>
      </trkpt>
      <trkpt lat="44.96693" lon="3.94128">
        <ele>895.2</ele>
        <time>2026-04-28T08:48:57Z</time>
      </trkpt>
      <trkpt lat="44.96687" lon="3.94134">
        <ele>895.6</ele>
        <time>2026-04-28T08:49:02Z</time>
      </trkpt>
      <trkpt lat="44.96681" lon="3.9414">
        <ele>896</ele>
        <time>2026-04-28T08:49:07Z</time>
      </trkpt>
      <trkpt lat="44.96676" lon="3.94146">
        <ele>896.4</ele>
        <time>2026-04-28T08:49:12Z</time>
      </trkpt>
      <trkpt lat="44.9667" lon="3.94152">
        <ele>896.8</ele>
        <time>2026-04-28T08:49:17Z</time>
      </trkpt>
      <trkpt lat="44.96665" lon="3.94158">
        <ele>897.2</ele>
        <time>2026-04-28T08:49:22Z</time>
      </trkpt>
      <trkpt lat="44.96658" lon="3.94164">
        <ele>897.6</ele>
        <time>2026-04-28T08:49:27Z</time>
      </trkpt>
      <trkpt lat="44.96653" lon="3.9417">
        <ele>897.7</ele>
        <time>2026-04-28T08:49:32Z</time>
      </trkpt>
      <trkpt lat="44.96647" lon="3.94178">
        <ele>897.6</ele>
        <time>2026-04-28T08:49:38Z</time>
      </trkpt>
      <trkpt lat="44.96643" lon="3.94183">
        <ele>897.6</ele>
        <time>2026-04-28T08:49:43Z</time>
      </trkpt>
      <trkpt lat="44.96638" lon="3.94189">
        <ele>897.6</ele>
        <time>2026-04-28T08:49:48Z</time>
      </trkpt>
      <trkpt lat="44.96634" lon="3.94196">
        <ele>897.4</ele>
        <time>2026-04-28T08:49:53Z</time>
      </trkpt>
      <trkpt lat="44.96628" lon="3.94203">
        <ele>897.5</ele>
        <time>2026-04-28T08:49:58Z</time>
      </trkpt>
      <trkpt lat="44.96622" lon="3.94211">
        <ele>897.6</ele>
        <time>2026-04-28T08:50:03Z</time>
      </trkpt>
      <trkpt lat="44.96618" lon="3.94218">
        <ele>897.6</ele>
        <time>2026-04-28T08:50:08Z</time>
      </trkpt>
      <trkpt lat="44.96616" lon="3.94223">
        <ele>897.6</ele>
        <time>2026-04-28T08:50:13Z</time>
      </trkpt>
      <trkpt lat="44.96616" lon="3.94223">
        <ele>897.6</ele>
        <time>2026-04-28T08:50:18Z</time>
      </trkpt>
      <trkpt lat="44.96616" lon="3.94223">
        <ele>897.6</ele>
        <time>2026-04-28T08:50:23Z</time>
      </trkpt>
      <trkpt lat="44.96615" lon="3.94223">
        <ele>897.7</ele>
        <time>2026-04-28T08:50:28Z</time>
      </trkpt>
      <trkpt lat="44.96615" lon="3.94223">
        <ele>897.7</ele>
        <time>2026-04-28T08:50:33Z</time>
      </trkpt>
      <trkpt lat="44.96615" lon="3.94223">
        <ele>897.7</ele>
        <time>2026-04-28T08:50:38Z</time>
      </trkpt>
      <trkpt lat="44.96615" lon="3.94223">
        <ele>897.7</ele>
        <time>2026-04-28T08:50:43Z</time>
      </trkpt>
      <trkpt lat="44.96615" lon="3.94223">
        <ele>897.7</ele>
        <time>2026-04-28T08:50:48Z</time>
      </trkpt>
      <trkpt lat="44.96615" lon="3.94223">
        <ele>897.7</ele>
        <time>2026-04-28T08:50:53Z</time>
      </trkpt>
      <trkpt lat="44.96615" lon="3.94223">
        <ele>897.7</ele>
        <time>2026-04-28T08:50:58Z</time>
      </trkpt>
      <trkpt lat="44.96615" lon="3.94223">
        <ele>897.7</ele>
        <time>2026-04-28T08:51:03Z</time>
      </trkpt>
      <trkpt lat="44.96615" lon="3.94223">
        <ele>897.7</ele>
        <time>2026-04-28T08:51:08Z</time>
      </trkpt>
      <trkpt lat="44.96615" lon="3.94223">
        <ele>897.7</ele>
        <time>2026-04-28T08:51:13Z</time>
      </trkpt>
      <trkpt lat="44.96615" lon="3.94223">
        <ele>897.7</ele>
        <time>2026-04-28T08:51:18Z</time>
      </trkpt>
      <trkpt lat="44.96615" lon="3.94223">
        <ele>897.7</ele>
        <time>2026-04-28T08:51:23Z</time>
      </trkpt>
      <trkpt lat="44.96615" lon="3.94223">
        <ele>897.7</ele>
        <time>2026-04-28T08:51:28Z</time>
      </trkpt>
      <trkpt lat="44.96615" lon="3.94223">
        <ele>897.7</ele>
        <time>2026-04-28T08:51:33Z</time>
      </trkpt>
      <trkpt lat="44.96615" lon="3.94223">
        <ele>897.7</ele>
        <time>2026-04-28T08:51:38Z</time>
      </trkpt>
      <trkpt lat="44.96615" lon="3.94223">
        <ele>897.7</ele>
        <time>2026-04-28T08:51:43Z</time>
      </trkpt>
      <trkpt lat="44.96615" lon="3.94223">
        <ele>897.7</ele>
        <time>2026-04-28T08:51:48Z</time>
      </trkpt>
      <trkpt lat="44.96615" lon="3.94223">
        <ele>897.7</ele>
        <time>2026-04-28T08:51:53Z</time>
      </trkpt>
      <trkpt lat="44.96613" lon="3.94224">
        <ele>897.8</ele>
        <time>2026-04-28T08:51:58Z</time>
      </trkpt>
      <trkpt lat="44.96607" lon="3.94231">
        <ele>898.1</ele>
        <time>2026-04-28T08:52:03Z</time>
      </trkpt>
      <trkpt lat="44.96601" lon="3.94236">
        <ele>898.5</ele>
        <time>2026-04-28T08:52:08Z</time>
      </trkpt>
      <trkpt lat="44.96594" lon="3.94241">
        <ele>899.1</ele>
        <time>2026-04-28T08:52:13Z</time>
      </trkpt>
      <trkpt lat="44.96587" lon="3.94248">
        <ele>899.6</ele>
        <time>2026-04-28T08:52:18Z</time>
      </trkpt>
      <trkpt lat="44.9658" lon="3.94254">
        <ele>899.8</ele>
        <time>2026-04-28T08:52:23Z</time>
      </trkpt>
      <trkpt lat="44.96574" lon="3.94259">
        <ele>899.8</ele>
        <time>2026-04-28T08:52:28Z</time>
      </trkpt>
      <trkpt lat="44.9657" lon="3.94265">
        <ele>899.5</ele>
        <time>2026-04-28T08:52:33Z</time>
      </trkpt>
      <trkpt lat="44.96565" lon="3.94269">
        <ele>899.4</ele>
        <time>2026-04-28T08:52:38Z</time>
      </trkpt>
      <trkpt lat="44.9656" lon="3.94273">
        <ele>899.4</ele>
        <time>2026-04-28T08:52:43Z</time>
      </trkpt>
      <trkpt lat="44.96554" lon="3.94281">
        <ele>899</ele>
        <time>2026-04-28T08:52:48Z</time>
      </trkpt>
      <trkpt lat="44.96548" lon="3.94288">
        <ele>898.7</ele>
        <time>2026-04-28T08:52:53Z</time>
      </trkpt>
      <trkpt lat="44.96543" lon="3.94295">
        <ele>898.3</ele>
        <time>2026-04-28T08:52:58Z</time>
      </trkpt>
      <trkpt lat="44.96537" lon="3.94303">
        <ele>897.8</ele>
        <time>2026-04-28T08:53:03Z</time>
      </trkpt>
      <trkpt lat="44.96531" lon="3.94311">
        <ele>897.3</ele>
        <time>2026-04-28T08:53:08Z</time>
      </trkpt>
      <trkpt lat="44.96527" lon="3.94319">
        <ele>896.7</ele>
        <time>2026-04-28T08:53:13Z</time>
      </trkpt>
      <trkpt lat="44.96522" lon="3.94327">
        <ele>896.2</ele>
        <time>2026-04-28T08:53:18Z</time>
      </trkpt>
      <trkpt lat="44.96515" lon="3.94335">
        <ele>895.8</ele>
        <time>2026-04-28T08:53:23Z</time>
      </trkpt>
      <trkpt lat="44.9651" lon="3.94346">
        <ele>895.3</ele>
        <time>2026-04-28T08:53:28Z</time>
      </trkpt>
      <trkpt lat="44.96505" lon="3.94355">
        <ele>894.9</ele>
        <time>2026-04-28T08:53:33Z</time>
      </trkpt>
      <trkpt lat="44.96501" lon="3.94363">
        <ele>894.4</ele>
        <time>2026-04-28T08:53:38Z</time>
      </trkpt>
      <trkpt lat="44.96495" lon="3.94371">
        <ele>893.4</ele>
        <time>2026-04-28T08:53:43Z</time>
      </trkpt>
      <trkpt lat="44.9649" lon="3.94379">
        <ele>892.4</ele>
        <time>2026-04-28T08:53:48Z</time>
      </trkpt>
      <trkpt lat="44.96486" lon="3.94387">
        <ele>891.4</ele>
        <time>2026-04-28T08:53:53Z</time>
      </trkpt>
      <trkpt lat="44.9648" lon="3.94393">
        <ele>890.4</ele>
        <time>2026-04-28T08:53:58Z</time>
      </trkpt>
      <trkpt lat="44.96474" lon="3.94401">
        <ele>889.2</ele>
        <time>2026-04-28T08:54:03Z</time>
      </trkpt>
      <trkpt lat="44.96469" lon="3.94409">
        <ele>888.1</ele>
        <time>2026-04-28T08:54:08Z</time>
      </trkpt>
      <trkpt lat="44.96465" lon="3.94417">
        <ele>887.1</ele>
        <time>2026-04-28T08:54:13Z</time>
      </trkpt>
      <trkpt lat="44.9646" lon="3.94424">
        <ele>886.7</ele>
        <time>2026-04-28T08:54:18Z</time>
      </trkpt>
      <trkpt lat="44.96456" lon="3.94432">
        <ele>886.4</ele>
        <time>2026-04-28T08:54:23Z</time>
      </trkpt>
      <trkpt lat="44.9645" lon="3.94441">
        <ele>886</ele>
        <time>2026-04-28T08:54:28Z</time>
      </trkpt>
      <trkpt lat="44.96445" lon="3.9445">
        <ele>885.6</ele>
        <time>2026-04-28T08:54:33Z</time>
      </trkpt>
      <trkpt lat="44.96441" lon="3.94458">
        <ele>885.4</ele>
        <time>2026-04-28T08:54:38Z</time>
      </trkpt>
      <trkpt lat="44.96436" lon="3.94468">
        <ele>885.1</ele>
        <time>2026-04-28T08:54:43Z</time>
      </trkpt>
      <trkpt lat="44.96432" lon="3.94478">
        <ele>884.9</ele>
        <time>2026-04-28T08:54:48Z</time>
      </trkpt>
      <trkpt lat="44.96426" lon="3.94486">
        <ele>884.5</ele>
        <time>2026-04-28T08:54:53Z</time>
      </trkpt>
      <trkpt lat="44.96423" lon="3.94494">
        <ele>884.4</ele>
        <time>2026-04-28T08:54:58Z</time>
      </trkpt>
      <trkpt lat="44.96417" lon="3.94501">
        <ele>884</ele>
        <time>2026-04-28T08:55:03Z</time>
      </trkpt>
      <trkpt lat="44.96414" lon="3.94511">
        <ele>883.6</ele>
        <time>2026-04-28T08:55:08Z</time>
      </trkpt>
      <trkpt lat="44.9641" lon="3.94521">
        <ele>883</ele>
        <time>2026-04-28T08:55:13Z</time>
      </trkpt>
      <trkpt lat="44.96406" lon="3.9453">
        <ele>882.5</ele>
        <time>2026-04-28T08:55:18Z</time>
      </trkpt>
      <trkpt lat="44.96401" lon="3.94539">
        <ele>881.9</ele>
        <time>2026-04-28T08:55:23Z</time>
      </trkpt>
      <trkpt lat="44.96396" lon="3.94549">
        <ele>881.4</ele>
        <time>2026-04-28T08:55:28Z</time>
      </trkpt>
      <trkpt lat="44.9639" lon="3.94557">
        <ele>880.8</ele>
        <time>2026-04-28T08:55:33Z</time>
      </trkpt>
      <trkpt lat="44.96385" lon="3.94563">
        <ele>880.4</ele>
        <time>2026-04-28T08:55:38Z</time>
      </trkpt>
      <trkpt lat="44.9638" lon="3.94572">
        <ele>880.1</ele>
        <time>2026-04-28T08:55:43Z</time>
      </trkpt>
      <trkpt lat="44.96375" lon="3.94581">
        <ele>879.9</ele>
        <time>2026-04-28T08:55:48Z</time>
      </trkpt>
      <trkpt lat="44.96371" lon="3.9459">
        <ele>880.3</ele>
        <time>2026-04-28T08:55:53Z</time>
      </trkpt>
      <trkpt lat="44.96365" lon="3.94597">
        <ele>880.4</ele>
        <time>2026-04-28T08:55:58Z</time>
      </trkpt>
      <trkpt lat="44.96358" lon="3.94604">
        <ele>880.4</ele>
        <time>2026-04-28T08:56:03Z</time>
      </trkpt>
      <trkpt lat="44.96352" lon="3.94611">
        <ele>880.5</ele>
        <time>2026-04-28T08:56:08Z</time>
      </trkpt>
      <trkpt lat="44.96347" lon="3.94618">
        <ele>880.7</ele>
        <time>2026-04-28T08:56:13Z</time>
      </trkpt>
      <trkpt lat="44.96342" lon="3.94627">
        <ele>881.1</ele>
        <time>2026-04-28T08:56:18Z</time>
      </trkpt>
      <trkpt lat="44.96338" lon="3.94634">
        <ele>881.3</ele>
        <time>2026-04-28T08:56:23Z</time>
      </trkpt>
      <trkpt lat="44.96332" lon="3.9464">
        <ele>881.4</ele>
        <time>2026-04-28T08:56:28Z</time>
      </trkpt>
      <trkpt lat="44.96326" lon="3.94647">
        <ele>881.8</ele>
        <time>2026-04-28T08:56:33Z</time>
      </trkpt>
      <trkpt lat="44.96321" lon="3.94656">
        <ele>882.4</ele>
        <time>2026-04-28T08:56:38Z</time>
      </trkpt>
      <trkpt lat="44.96316" lon="3.94661">
        <ele>882.6</ele>
        <time>2026-04-28T08:56:43Z</time>
      </trkpt>
      <trkpt lat="44.96311" lon="3.94668">
        <ele>883</ele>
        <time>2026-04-28T08:56:48Z</time>
      </trkpt>
      <trkpt lat="44.96305" lon="3.94676">
        <ele>883.4</ele>
        <time>2026-04-28T08:56:53Z</time>
      </trkpt>
      <trkpt lat="44.96301" lon="3.94679">
        <ele>883.4</ele>
        <time>2026-04-28T08:56:58Z</time>
      </trkpt>
      <trkpt lat="44.96299" lon="3.94678">
        <ele>883.2</ele>
        <time>2026-04-28T08:57:03Z</time>
      </trkpt>
      <trkpt lat="44.96297" lon="3.94684">
        <ele>883.6</ele>
        <time>2026-04-28T08:57:08Z</time>
      </trkpt>
      <trkpt lat="44.96293" lon="3.94692">
        <ele>884</ele>
        <time>2026-04-28T08:57:13Z</time>
      </trkpt>
      <trkpt lat="44.96287" lon="3.947">
        <ele>884.4</ele>
        <time>2026-04-28T08:57:18Z</time>
      </trkpt>
      <trkpt lat="44.96281" lon="3.94707">
        <ele>884.6</ele>
        <time>2026-04-28T08:57:23Z</time>
      </trkpt>
      <trkpt lat="44.96275" lon="3.94715">
        <ele>884.9</ele>
        <time>2026-04-28T08:57:28Z</time>
      </trkpt>
      <trkpt lat="44.96269" lon="3.94722">
        <ele>885</ele>
        <time>2026-04-28T08:57:33Z</time>
      </trkpt>
      <trkpt lat="44.96263" lon="3.9473">
        <ele>885.3</ele>
        <time>2026-04-28T08:57:38Z</time>
      </trkpt>
      <trkpt lat="44.96257" lon="3.94737">
        <ele>885.5</ele>
        <time>2026-04-28T08:57:43Z</time>
      </trkpt>
      <trkpt lat="44.96253" lon="3.94743">
        <ele>885.7</ele>
        <time>2026-04-28T08:57:48Z</time>
      </trkpt>
      <trkpt lat="44.96247" lon="3.94749">
        <ele>885.8</ele>
        <time>2026-04-28T08:57:53Z</time>
      </trkpt>
      <trkpt lat="44.96242" lon="3.94756">
        <ele>886.3</ele>
        <time>2026-04-28T08:57:58Z</time>
      </trkpt>
      <trkpt lat="44.96242" lon="3.94758">
        <ele>886.5</ele>
        <time>2026-04-28T08:58:03Z</time>
      </trkpt>
      <trkpt lat="44.96241" lon="3.94762">
        <ele>886.8</ele>
        <time>2026-04-28T08:58:08Z</time>
      </trkpt>
      <trkpt lat="44.96237" lon="3.9477">
        <ele>887.5</ele>
        <time>2026-04-28T08:58:13Z</time>
      </trkpt>
      <trkpt lat="44.96232" lon="3.94777">
        <ele>888</ele>
        <time>2026-04-28T08:58:18Z</time>
      </trkpt>
      <trkpt lat="44.96227" lon="3.94784">
        <ele>888.5</ele>
        <time>2026-04-28T08:58:23Z</time>
      </trkpt>
      <trkpt lat="44.96222" lon="3.9479">
        <ele>888.8</ele>
        <time>2026-04-28T08:58:28Z</time>
      </trkpt>
      <trkpt lat="44.96217" lon="3.94797">
        <ele>889.3</ele>
        <time>2026-04-28T08:58:33Z</time>
      </trkpt>
      <trkpt lat="44.96213" lon="3.94807">
        <ele>890.1</ele>
        <time>2026-04-28T08:58:38Z</time>
      </trkpt>
      <trkpt lat="44.96208" lon="3.94814">
        <ele>890.5</ele>
        <time>2026-04-28T08:58:43Z</time>
      </trkpt>
      <trkpt lat="44.96202" lon="3.94821">
        <ele>890.9</ele>
        <time>2026-04-28T08:58:48Z</time>
      </trkpt>
      <trkpt lat="44.96199" lon="3.94829">
        <ele>891.5</ele>
        <time>2026-04-28T08:58:53Z</time>
      </trkpt>
      <trkpt lat="44.96196" lon="3.94839">
        <ele>892.5</ele>
        <time>2026-04-28T08:58:58Z</time>
      </trkpt>
      <trkpt lat="44.96192" lon="3.94847">
        <ele>893.4</ele>
        <time>2026-04-28T08:59:03Z</time>
      </trkpt>
      <trkpt lat="44.9619" lon="3.94857">
        <ele>894.7</ele>
        <time>2026-04-28T08:59:08Z</time>
      </trkpt>
      <trkpt lat="44.96188" lon="3.94867">
        <ele>896</ele>
        <time>2026-04-28T08:59:13Z</time>
      </trkpt>
      <trkpt lat="44.96187" lon="3.94875">
        <ele>897.1</ele>
        <time>2026-04-28T08:59:18Z</time>
      </trkpt>
      <trkpt lat="44.96187" lon="3.94883">
        <ele>898.2</ele>
        <time>2026-04-28T08:59:23Z</time>
      </trkpt>
      <trkpt lat="44.96187" lon="3.94891">
        <ele>899.4</ele>
        <time>2026-04-28T08:59:28Z</time>
      </trkpt>
      <trkpt lat="44.96187" lon="3.94894">
        <ele>899.8</ele>
        <time>2026-04-28T08:59:33Z</time>
      </trkpt>
      <trkpt lat="44.96185" lon="3.94894">
        <ele>899.8</ele>
        <time>2026-04-28T08:59:38Z</time>
      </trkpt>
      <trkpt lat="44.96185" lon="3.94894">
        <ele>899.8</ele>
        <time>2026-04-28T08:59:43Z</time>
      </trkpt>
      <trkpt lat="44.96185" lon="3.94894">
        <ele>899.8</ele>
        <time>2026-04-28T08:59:48Z</time>
      </trkpt>
      <trkpt lat="44.96186" lon="3.949">
        <ele>900.6</ele>
        <time>2026-04-28T08:59:53Z</time>
      </trkpt>
      <trkpt lat="44.96186" lon="3.94905">
        <ele>901.3</ele>
        <time>2026-04-28T08:59:58Z</time>
      </trkpt>
      <trkpt lat="44.96187" lon="3.94911">
        <ele>902.2</ele>
        <time>2026-04-28T09:00:03Z</time>
      </trkpt>
      <trkpt lat="44.96187" lon="3.94921">
        <ele>903.6</ele>
        <time>2026-04-28T09:00:08Z</time>
      </trkpt>
      <trkpt lat="44.96189" lon="3.94931">
        <ele>905.1</ele>
        <time>2026-04-28T09:00:13Z</time>
      </trkpt>
      <trkpt lat="44.9619" lon="3.94942">
        <ele>906.7</ele>
        <time>2026-04-28T09:00:18Z</time>
      </trkpt>
      <trkpt lat="44.96192" lon="3.94951">
        <ele>908</ele>
        <time>2026-04-28T09:00:23Z</time>
      </trkpt>
      <trkpt lat="44.96195" lon="3.94959">
        <ele>909.1</ele>
        <time>2026-04-28T09:00:28Z</time>
      </trkpt>
      <trkpt lat="44.96197" lon="3.94968">
        <ele>910.3</ele>
        <time>2026-04-28T09:00:33Z</time>
      </trkpt>
      <trkpt lat="44.96198" lon="3.94977">
        <ele>911.6</ele>
        <time>2026-04-28T09:00:38Z</time>
      </trkpt>
      <trkpt lat="44.96199" lon="3.94986">
        <ele>912.8</ele>
        <time>2026-04-28T09:00:43Z</time>
      </trkpt>
      <trkpt lat="44.96199" lon="3.94995">
        <ele>914.1</ele>
        <time>2026-04-28T09:00:48Z</time>
      </trkpt>
      <trkpt lat="44.96199" lon="3.95005">
        <ele>915.3</ele>
        <time>2026-04-28T09:00:53Z</time>
      </trkpt>
      <trkpt lat="44.96199" lon="3.95015">
        <ele>916.3</ele>
        <time>2026-04-28T09:00:58Z</time>
      </trkpt>
      <trkpt lat="44.96201" lon="3.95026">
        <ele>917.3</ele>
        <time>2026-04-28T09:01:03Z</time>
      </trkpt>
      <trkpt lat="44.96203" lon="3.95035">
        <ele>918.1</ele>
        <time>2026-04-28T09:01:08Z</time>
      </trkpt>
      <trkpt lat="44.96204" lon="3.95046">
        <ele>919.1</ele>
        <time>2026-04-28T09:01:13Z</time>
      </trkpt>
      <trkpt lat="44.96204" lon="3.95054">
        <ele>919.8</ele>
        <time>2026-04-28T09:01:18Z</time>
      </trkpt>
      <trkpt lat="44.96203" lon="3.95064">
        <ele>920.8</ele>
        <time>2026-04-28T09:01:23Z</time>
      </trkpt>
      <trkpt lat="44.96204" lon="3.95075">
        <ele>921.9</ele>
        <time>2026-04-28T09:01:28Z</time>
      </trkpt>
      <trkpt lat="44.96205" lon="3.95085">
        <ele>922.7</ele>
        <time>2026-04-28T09:01:33Z</time>
      </trkpt>
      <trkpt lat="44.96205" lon="3.95093">
        <ele>922.9</ele>
        <time>2026-04-28T09:01:38Z</time>
      </trkpt>
      <trkpt lat="44.96205" lon="3.95097">
        <ele>923</ele>
        <time>2026-04-28T09:01:43Z</time>
      </trkpt>
      <trkpt lat="44.96204" lon="3.95102">
        <ele>923.2</ele>
        <time>2026-04-28T09:01:48Z</time>
      </trkpt>
      <trkpt lat="44.96206" lon="3.95111">
        <ele>923.3</ele>
        <time>2026-04-28T09:01:53Z</time>
      </trkpt>
      <trkpt lat="44.96208" lon="3.95121">
        <ele>923.4</ele>
        <time>2026-04-28T09:01:58Z</time>
      </trkpt>
      <trkpt lat="44.96209" lon="3.9513">
        <ele>923.6</ele>
        <time>2026-04-28T09:02:03Z</time>
      </trkpt>
      <trkpt lat="44.96209" lon="3.95141">
        <ele>923.8</ele>
        <time>2026-04-28T09:02:08Z</time>
      </trkpt>
      <trkpt lat="44.96211" lon="3.95148">
        <ele>923.7</ele>
        <time>2026-04-28T09:02:13Z</time>
      </trkpt>
      <trkpt lat="44.9621" lon="3.95157">
        <ele>924</ele>
        <time>2026-04-28T09:02:18Z</time>
      </trkpt>
      <trkpt lat="44.9621" lon="3.95167">
        <ele>924.2</ele>
        <time>2026-04-28T09:02:23Z</time>
      </trkpt>
      <trkpt lat="44.9621" lon="3.95179">
        <ele>924.1</ele>
        <time>2026-04-28T09:02:28Z</time>
      </trkpt>
      <trkpt lat="44.96211" lon="3.95189">
        <ele>923.9</ele>
        <time>2026-04-28T09:02:33Z</time>
      </trkpt>
      <trkpt lat="44.96213" lon="3.95198">
        <ele>923.4</ele>
        <time>2026-04-28T09:02:38Z</time>
      </trkpt>
      <trkpt lat="44.96214" lon="3.9521">
        <ele>923.1</ele>
        <time>2026-04-28T09:02:43Z</time>
      </trkpt>
      <trkpt lat="44.96215" lon="3.95222">
        <ele>922.8</ele>
        <time>2026-04-28T09:02:48Z</time>
      </trkpt>
      <trkpt lat="44.96215" lon="3.95234">
        <ele>922.6</ele>
        <time>2026-04-28T09:02:53Z</time>
      </trkpt>
      <trkpt lat="44.96215" lon="3.95246">
        <ele>922.5</ele>
        <time>2026-04-28T09:02:58Z</time>
      </trkpt>
      <trkpt lat="44.96215" lon="3.95258">
        <ele>923.1</ele>
        <time>2026-04-28T09:03:03Z</time>
      </trkpt>
      <trkpt lat="44.96216" lon="3.95271">
        <ele>923.9</ele>
        <time>2026-04-28T09:03:08Z</time>
      </trkpt>
      <trkpt lat="44.96217" lon="3.95281">
        <ele>924.4</ele>
        <time>2026-04-28T09:03:13Z</time>
      </trkpt>
      <trkpt lat="44.96217" lon="3.95291">
        <ele>925.3</ele>
        <time>2026-04-28T09:03:18Z</time>
      </trkpt>
      <trkpt lat="44.96218" lon="3.95302">
        <ele>925.9</ele>
        <time>2026-04-28T09:03:23Z</time>
      </trkpt>
      <trkpt lat="44.96218" lon="3.95315">
        <ele>927</ele>
        <time>2026-04-28T09:03:28Z</time>
      </trkpt>
      <trkpt lat="44.96219" lon="3.95325">
        <ele>927.5</ele>
        <time>2026-04-28T09:03:33Z</time>
      </trkpt>
      <trkpt lat="44.96219" lon="3.95334">
        <ele>928.2</ele>
        <time>2026-04-28T09:03:38Z</time>
      </trkpt>
      <trkpt lat="44.9622" lon="3.95343">
        <ele>928.1</ele>
        <time>2026-04-28T09:03:43Z</time>
      </trkpt>
      <trkpt lat="44.96221" lon="3.95352">
        <ele>928</ele>
        <time>2026-04-28T09:03:48Z</time>
      </trkpt>
      <trkpt lat="44.9622" lon="3.95365">
        <ele>928.4</ele>
        <time>2026-04-28T09:03:53Z</time>
      </trkpt>
      <trkpt lat="44.96221" lon="3.95376">
        <ele>928.3</ele>
        <time>2026-04-28T09:03:58Z</time>
      </trkpt>
      <trkpt lat="44.96219" lon="3.95387">
        <ele>929.1</ele>
        <time>2026-04-28T09:04:03Z</time>
      </trkpt>
      <trkpt lat="44.96219" lon="3.95398">
        <ele>929.2</ele>
        <time>2026-04-28T09:04:08Z</time>
      </trkpt>
      <trkpt lat="44.9622" lon="3.95411">
        <ele>929.2</ele>
        <time>2026-04-28T09:04:13Z</time>
      </trkpt>
      <trkpt lat="44.96222" lon="3.95421">
        <ele>928.5</ele>
        <time>2026-04-28T09:04:18Z</time>
      </trkpt>
      <trkpt lat="44.96225" lon="3.95432">
        <ele>927.1</ele>
        <time>2026-04-28T09:04:23Z</time>
      </trkpt>
      <trkpt lat="44.96227" lon="3.9544">
        <ele>926.1</ele>
        <time>2026-04-28T09:04:28Z</time>
      </trkpt>
      <trkpt lat="44.96229" lon="3.95452">
        <ele>924.9</ele>
        <time>2026-04-28T09:04:33Z</time>
      </trkpt>
      <trkpt lat="44.9623" lon="3.95462">
        <ele>924.1</ele>
        <time>2026-04-28T09:04:38Z</time>
      </trkpt>
      <trkpt lat="44.96229" lon="3.95473">
        <ele>923.8</ele>
        <time>2026-04-28T09:04:43Z</time>
      </trkpt>
      <trkpt lat="44.9623" lon="3.9548">
        <ele>923.1</ele>
        <time>2026-04-28T09:04:48Z</time>
      </trkpt>
      <trkpt lat="44.96231" lon="3.95491">
        <ele>922.3</ele>
        <time>2026-04-28T09:04:53Z</time>
      </trkpt>
      <trkpt lat="44.96231" lon="3.95502">
        <ele>921.9</ele>
        <time>2026-04-28T09:04:58Z</time>
      </trkpt>
      <trkpt lat="44.96232" lon="3.95511">
        <ele>922.3</ele>
        <time>2026-04-28T09:05:03Z</time>
      </trkpt>
      <trkpt lat="44.96232" lon="3.95521">
        <ele>923.1</ele>
        <time>2026-04-28T09:05:08Z</time>
      </trkpt>
      <trkpt lat="44.96232" lon="3.95532">
        <ele>923.9</ele>
        <time>2026-04-28T09:05:13Z</time>
      </trkpt>
      <trkpt lat="44.96232" lon="3.95542">
        <ele>924.6</ele>
        <time>2026-04-28T09:05:18Z</time>
      </trkpt>
      <trkpt lat="44.96233" lon="3.95553">
        <ele>925.2</ele>
        <time>2026-04-28T09:05:23Z</time>
      </trkpt>
      <trkpt lat="44.96232" lon="3.95563">
        <ele>926.1</ele>
        <time>2026-04-28T09:05:28Z</time>
      </trkpt>
      <trkpt lat="44.96233" lon="3.95568">
        <ele>926.3</ele>
        <time>2026-04-28T09:05:33Z</time>
      </trkpt>
      <trkpt lat="44.96233" lon="3.95571">
        <ele>926.5</ele>
        <time>2026-04-28T09:05:38Z</time>
      </trkpt>
      <trkpt lat="44.96233" lon="3.95571">
        <ele>926.5</ele>
        <time>2026-04-28T09:05:43Z</time>
      </trkpt>
      <trkpt lat="44.96233" lon="3.95571">
        <ele>926.5</ele>
        <time>2026-04-28T09:05:48Z</time>
      </trkpt>
      <trkpt lat="44.96233" lon="3.95571">
        <ele>926.5</ele>
        <time>2026-04-28T09:05:53Z</time>
      </trkpt>
      <trkpt lat="44.96233" lon="3.95571">
        <ele>926.5</ele>
        <time>2026-04-28T09:05:58Z</time>
      </trkpt>
      <trkpt lat="44.96233" lon="3.95571">
        <ele>926.5</ele>
        <time>2026-04-28T09:06:03Z</time>
      </trkpt>
      <trkpt lat="44.96233" lon="3.95571">
        <ele>926.5</ele>
        <time>2026-04-28T09:06:08Z</time>
      </trkpt>
      <trkpt lat="44.96233" lon="3.95571">
        <ele>926.5</ele>
        <time>2026-04-28T09:06:13Z</time>
      </trkpt>
      <trkpt lat="44.96233" lon="3.95571">
        <ele>926.5</ele>
        <time>2026-04-28T09:06:18Z</time>
      </trkpt>
      <trkpt lat="44.96233" lon="3.95571">
        <ele>926.5</ele>
        <time>2026-04-28T09:06:23Z</time>
      </trkpt>
      <trkpt lat="44.96233" lon="3.95571">
        <ele>926.5</ele>
        <time>2026-04-28T09:06:28Z</time>
      </trkpt>
      <trkpt lat="44.96233" lon="3.95571">
        <ele>926.5</ele>
        <time>2026-04-28T09:06:33Z</time>
      </trkpt>
      <trkpt lat="44.96233" lon="3.95571">
        <ele>926.5</ele>
        <time>2026-04-28T09:06:38Z</time>
      </trkpt>
      <trkpt lat="44.96233" lon="3.95571">
        <ele>926.5</ele>
        <time>2026-04-28T09:06:43Z</time>
      </trkpt>
      <trkpt lat="44.96233" lon="3.95571">
        <ele>926.5</ele>
        <time>2026-04-28T09:06:48Z</time>
      </trkpt>
      <trkpt lat="44.96233" lon="3.95571">
        <ele>926.5</ele>
        <time>2026-04-28T09:06:53Z</time>
      </trkpt>
      <trkpt lat="44.96233" lon="3.95571">
        <ele>926.5</ele>
        <time>2026-04-28T09:06:58Z</time>
      </trkpt>
      <trkpt lat="44.96233" lon="3.95571">
        <ele>926.5</ele>
        <time>2026-04-28T09:07:03Z</time>
      </trkpt>
      <trkpt lat="44.96233" lon="3.95571">
        <ele>926.5</ele>
        <time>2026-04-28T09:07:08Z</time>
      </trkpt>
      <trkpt lat="44.96233" lon="3.95571">
        <ele>926.5</ele>
        <time>2026-04-28T09:07:13Z</time>
      </trkpt>
      <trkpt lat="44.96233" lon="3.95571">
        <ele>926.5</ele>
        <time>2026-04-28T09:07:18Z</time>
      </trkpt>
      <trkpt lat="44.96233" lon="3.95571">
        <ele>926.5</ele>
        <time>2026-04-28T09:07:23Z</time>
      </trkpt>
      <trkpt lat="44.96233" lon="3.95571">
        <ele>926.5</ele>
        <time>2026-04-28T09:07:28Z</time>
      </trkpt>
      <trkpt lat="44.96233" lon="3.95571">
        <ele>926.5</ele>
        <time>2026-04-28T09:07:33Z</time>
      </trkpt>
      <trkpt lat="44.96233" lon="3.95571">
        <ele>926.5</ele>
        <time>2026-04-28T09:07:38Z</time>
      </trkpt>
      <trkpt lat="44.96233" lon="3.95571">
        <ele>926.5</ele>
        <time>2026-04-28T09:07:43Z</time>
      </trkpt>
      <trkpt lat="44.96233" lon="3.95571">
        <ele>926.5</ele>
        <time>2026-04-28T09:07:48Z</time>
      </trkpt>
      <trkpt lat="44.96233" lon="3.95571">
        <ele>926.5</ele>
        <time>2026-04-28T09:07:53Z</time>
      </trkpt>
      <trkpt lat="44.96233" lon="3.95571">
        <ele>926.5</ele>
        <time>2026-04-28T09:07:58Z</time>
      </trkpt>
      <trkpt lat="44.96233" lon="3.95571">
        <ele>926.5</ele>
        <time>2026-04-28T09:08:03Z</time>
      </trkpt>
      <trkpt lat="44.96233" lon="3.95571">
        <ele>926.5</ele>
        <time>2026-04-28T09:08:08Z</time>
      </trkpt>
      <trkpt lat="44.96233" lon="3.95571">
        <ele>926.5</ele>
        <time>2026-04-28T09:08:13Z</time>
      </trkpt>
      <trkpt lat="44.96233" lon="3.95571">
        <ele>926.5</ele>
        <time>2026-04-28T09:08:18Z</time>
      </trkpt>
      <trkpt lat="44.96233" lon="3.95571">
        <ele>926.5</ele>
        <time>2026-04-28T09:08:23Z</time>
      </trkpt>
      <trkpt lat="44.96233" lon="3.95571">
        <ele>926.5</ele>
        <time>2026-04-28T09:08:28Z</time>
      </trkpt>
      <trkpt lat="44.96233" lon="3.95571">
        <ele>926.5</ele>
        <time>2026-04-28T09:08:33Z</time>
      </trkpt>
      <trkpt lat="44.96233" lon="3.95571">
        <ele>926.5</ele>
        <time>2026-04-28T09:08:38Z</time>
      </trkpt>
      <trkpt lat="44.96237" lon="3.95582">
        <ele>926.8</ele>
        <time>2026-04-28T09:08:43Z</time>
      </trkpt>
      <trkpt lat="44.96235" lon="3.9559">
        <ele>927.7</ele>
        <time>2026-04-28T09:08:48Z</time>
      </trkpt>
      <trkpt lat="44.96236" lon="3.956">
        <ele>928.4</ele>
        <time>2026-04-28T09:08:53Z</time>
      </trkpt>
      <trkpt lat="44.96236" lon="3.95609">
        <ele>929.2</ele>
        <time>2026-04-28T09:08:58Z</time>
      </trkpt>
      <trkpt lat="44.96237" lon="3.95618">
        <ele>929.8</ele>
        <time>2026-04-28T09:09:03Z</time>
      </trkpt>
      <trkpt lat="44.96238" lon="3.95629">
        <ele>930.6</ele>
        <time>2026-04-28T09:09:08Z</time>
      </trkpt>
      <trkpt lat="44.96238" lon="3.9564">
        <ele>931.5</ele>
        <time>2026-04-28T09:09:13Z</time>
      </trkpt>
      <trkpt lat="44.96241" lon="3.95648">
        <ele>931.7</ele>
        <time>2026-04-28T09:09:18Z</time>
      </trkpt>
      <trkpt lat="44.96241" lon="3.95658">
        <ele>932.6</ele>
        <time>2026-04-28T09:09:23Z</time>
      </trkpt>
      <trkpt lat="44.96242" lon="3.9567">
        <ele>933.1</ele>
        <time>2026-04-28T09:09:28Z</time>
      </trkpt>
      <trkpt lat="44.96244" lon="3.95681">
        <ele>932.5</ele>
        <time>2026-04-28T09:09:33Z</time>
      </trkpt>
      <trkpt lat="44.96245" lon="3.95692">
        <ele>932.1</ele>
        <time>2026-04-28T09:09:38Z</time>
      </trkpt>
      <trkpt lat="44.96245" lon="3.95703">
        <ele>931.8</ele>
        <time>2026-04-28T09:09:43Z</time>
      </trkpt>
      <trkpt lat="44.96246" lon="3.95715">
        <ele>931.4</ele>
        <time>2026-04-28T09:09:48Z</time>
      </trkpt>
      <trkpt lat="44.96248" lon="3.95726">
        <ele>930.8</ele>
        <time>2026-04-28T09:09:53Z</time>
      </trkpt>
      <trkpt lat="44.96248" lon="3.95735">
        <ele>930.6</ele>
        <time>2026-04-28T09:09:58Z</time>
      </trkpt>
      <trkpt lat="44.96248" lon="3.95744">
        <ele>930.4</ele>
        <time>2026-04-28T09:10:03Z</time>
      </trkpt>
      <trkpt lat="44.96248" lon="3.95756">
        <ele>929.8</ele>
        <time>2026-04-28T09:10:08Z</time>
      </trkpt>
      <trkpt lat="44.96249" lon="3.95769">
        <ele>928.8</ele>
        <time>2026-04-28T09:10:13Z</time>
      </trkpt>
      <trkpt lat="44.9625" lon="3.9578">
        <ele>927.8</ele>
        <time>2026-04-28T09:10:18Z</time>
      </trkpt>
      <trkpt lat="44.96251" lon="3.95792">
        <ele>926.8</ele>
        <time>2026-04-28T09:10:23Z</time>
      </trkpt>
      <trkpt lat="44.96252" lon="3.95804">
        <ele>925.7</ele>
        <time>2026-04-28T09:10:28Z</time>
      </trkpt>
      <trkpt lat="44.96252" lon="3.95816">
        <ele>924.8</ele>
        <time>2026-04-28T09:10:33Z</time>
      </trkpt>
      <trkpt lat="44.96253" lon="3.95828">
        <ele>923.7</ele>
        <time>2026-04-28T09:10:38Z</time>
      </trkpt>
      <trkpt lat="44.96256" lon="3.9584">
        <ele>921.7</ele>
        <time>2026-04-28T09:10:43Z</time>
      </trkpt>
      <trkpt lat="44.96258" lon="3.95852">
        <ele>919.6</ele>
        <time>2026-04-28T09:10:48Z</time>
      </trkpt>
      <trkpt lat="44.96255" lon="3.95863">
        <ele>918.6</ele>
        <time>2026-04-28T09:10:53Z</time>
      </trkpt>
      <trkpt lat="44.96251" lon="3.9587">
        <ele>918.5</ele>
        <time>2026-04-28T09:10:58Z</time>
      </trkpt>
      <trkpt lat="44.96248" lon="3.9588">
        <ele>917.4</ele>
        <time>2026-04-28T09:11:03Z</time>
      </trkpt>
      <trkpt lat="44.96245" lon="3.95887">
        <ele>916.7</ele>
        <time>2026-04-28T09:11:08Z</time>
      </trkpt>
      <trkpt lat="44.9624" lon="3.95895">
        <ele>915.9</ele>
        <time>2026-04-28T09:11:13Z</time>
      </trkpt>
      <trkpt lat="44.96235" lon="3.95903">
        <ele>915.1</ele>
        <time>2026-04-28T09:11:18Z</time>
      </trkpt>
      <trkpt lat="44.9623" lon="3.95911">
        <ele>914.3</ele>
        <time>2026-04-28T09:11:23Z</time>
      </trkpt>
      <trkpt lat="44.96225" lon="3.95919">
        <ele>913.4</ele>
        <time>2026-04-28T09:11:28Z</time>
      </trkpt>
      <trkpt lat="44.9622" lon="3.95927">
        <ele>912.6</ele>
        <time>2026-04-28T09:11:33Z</time>
      </trkpt>
      <trkpt lat="44.96216" lon="3.95933">
        <ele>912.1</ele>
        <time>2026-04-28T09:11:38Z</time>
      </trkpt>
      <trkpt lat="44.96214" lon="3.95941">
        <ele>911.1</ele>
        <time>2026-04-28T09:11:43Z</time>
      </trkpt>
      <trkpt lat="44.96209" lon="3.95952">
        <ele>910.1</ele>
        <time>2026-04-28T09:11:48Z</time>
      </trkpt>
      <trkpt lat="44.96205" lon="3.95961">
        <ele>909.2</ele>
        <time>2026-04-28T09:11:53Z</time>
      </trkpt>
      <trkpt lat="44.96199" lon="3.95971">
        <ele>908.5</ele>
        <time>2026-04-28T09:11:58Z</time>
      </trkpt>
      <trkpt lat="44.96195" lon="3.95978">
        <ele>908.1</ele>
        <time>2026-04-28T09:12:03Z</time>
      </trkpt>
      <trkpt lat="44.96189" lon="3.95987">
        <ele>907.7</ele>
        <time>2026-04-28T09:12:08Z</time>
      </trkpt>
      <trkpt lat="44.96188" lon="3.95991">
        <ele>907.3</ele>
        <time>2026-04-28T09:12:13Z</time>
      </trkpt>
      <trkpt lat="44.96184" lon="3.95998">
        <ele>907</ele>
        <time>2026-04-28T09:12:18Z</time>
      </trkpt>
      <trkpt lat="44.9618" lon="3.96007">
        <ele>906.5</ele>
        <time>2026-04-28T09:12:23Z</time>
      </trkpt>
      <trkpt lat="44.96176" lon="3.96017">
        <ele>906</ele>
        <time>2026-04-28T09:12:28Z</time>
      </trkpt>
      <trkpt lat="44.96173" lon="3.96026">
        <ele>905.4</ele>
        <time>2026-04-28T09:12:33Z</time>
      </trkpt>
      <trkpt lat="44.96169" lon="3.96034">
        <ele>905</ele>
        <time>2026-04-28T09:12:38Z</time>
      </trkpt>
      <trkpt lat="44.96166" lon="3.96042">
        <ele>904.6</ele>
        <time>2026-04-28T09:12:43Z</time>
      </trkpt>
      <trkpt lat="44.96163" lon="3.96052">
        <ele>904</ele>
        <time>2026-04-28T09:12:48Z</time>
      </trkpt>
      <trkpt lat="44.9616" lon="3.96063">
        <ele>903.3</ele>
        <time>2026-04-28T09:12:53Z</time>
      </trkpt>
      <trkpt lat="44.96158" lon="3.96074">
        <ele>902.5</ele>
        <time>2026-04-28T09:12:58Z</time>
      </trkpt>
      <trkpt lat="44.96154" lon="3.96086">
        <ele>901.9</ele>
        <time>2026-04-28T09:13:03Z</time>
      </trkpt>
      <trkpt lat="44.96151" lon="3.96098">
        <ele>901</ele>
        <time>2026-04-28T09:13:08Z</time>
      </trkpt>
      <trkpt lat="44.96147" lon="3.96107">
        <ele>900.6</ele>
        <time>2026-04-28T09:13:13Z</time>
      </trkpt>
      <trkpt lat="44.96143" lon="3.96115">
        <ele>900.4</ele>
        <time>2026-04-28T09:13:18Z</time>
      </trkpt>
      <trkpt lat="44.96138" lon="3.96123">
        <ele>900.4</ele>
        <time>2026-04-28T09:13:23Z</time>
      </trkpt>
      <trkpt lat="44.96135" lon="3.96131">
        <ele>900.1</ele>
        <time>2026-04-28T09:13:28Z</time>
      </trkpt>
      <trkpt lat="44.9613" lon="3.96139">
        <ele>900.1</ele>
        <time>2026-04-28T09:13:33Z</time>
      </trkpt>
      <trkpt lat="44.96126" lon="3.96145">
        <ele>900.3</ele>
        <time>2026-04-28T09:13:38Z</time>
      </trkpt>
      <trkpt lat="44.96122" lon="3.96147">
        <ele>900.9</ele>
        <time>2026-04-28T09:13:43Z</time>
      </trkpt>
      <trkpt lat="44.96118" lon="3.96152">
        <ele>901.1</ele>
        <time>2026-04-28T09:13:48Z</time>
      </trkpt>
      <trkpt lat="44.96112" lon="3.96159">
        <ele>901.6</ele>
        <time>2026-04-28T09:13:53Z</time>
      </trkpt>
      <trkpt lat="44.96107" lon="3.96166">
        <ele>902</ele>
        <time>2026-04-28T09:13:58Z</time>
      </trkpt>
      <trkpt lat="44.96101" lon="3.96171">
        <ele>902.4</ele>
        <time>2026-04-28T09:14:03Z</time>
      </trkpt>
      <trkpt lat="44.96096" lon="3.96175">
        <ele>902.8</ele>
        <time>2026-04-28T09:14:08Z</time>
      </trkpt>
      <trkpt lat="44.9609" lon="3.96179">
        <ele>903.4</ele>
        <time>2026-04-28T09:14:13Z</time>
      </trkpt>
      <trkpt lat="44.96084" lon="3.96181">
        <ele>904.3</ele>
        <time>2026-04-28T09:14:18Z</time>
      </trkpt>
      <trkpt lat="44.9608" lon="3.96184">
        <ele>904.6</ele>
        <time>2026-04-28T09:14:23Z</time>
      </trkpt>
      <trkpt lat="44.96075" lon="3.96186">
        <ele>905.4</ele>
        <time>2026-04-28T09:14:28Z</time>
      </trkpt>
      <trkpt lat="44.96068" lon="3.96185">
        <ele>907.1</ele>
        <time>2026-04-28T09:14:33Z</time>
      </trkpt>
      <trkpt lat="44.96063" lon="3.96182">
        <ele>908.7</ele>
        <time>2026-04-28T09:14:38Z</time>
      </trkpt>
      <trkpt lat="44.96058" lon="3.96181">
        <ele>909.9</ele>
        <time>2026-04-28T09:14:43Z</time>
      </trkpt>
      <trkpt lat="44.96052" lon="3.96181">
        <ele>911.2</ele>
        <time>2026-04-28T09:14:48Z</time>
      </trkpt>
      <trkpt lat="44.96047" lon="3.96182">
        <ele>912.1</ele>
        <time>2026-04-28T09:14:53Z</time>
      </trkpt>
      <trkpt lat="44.96041" lon="3.96182">
        <ele>913.4</ele>
        <time>2026-04-28T09:14:58Z</time>
      </trkpt>
      <trkpt lat="44.96034" lon="3.96185">
        <ele>914.5</ele>
        <time>2026-04-28T09:15:03Z</time>
      </trkpt>
      <trkpt lat="44.96028" lon="3.9619">
        <ele>915.2</ele>
        <time>2026-04-28T09:15:08Z</time>
      </trkpt>
      <trkpt lat="44.96022" lon="3.96195">
        <ele>915.9</ele>
        <time>2026-04-28T09:15:13Z</time>
      </trkpt>
      <trkpt lat="44.96017" lon="3.96202">
        <ele>916.2</ele>
        <time>2026-04-28T09:15:18Z</time>
      </trkpt>
      <trkpt lat="44.96012" lon="3.96209">
        <ele>916.5</ele>
        <time>2026-04-28T09:15:23Z</time>
      </trkpt>
      <trkpt lat="44.96007" lon="3.96215">
        <ele>917.1</ele>
        <time>2026-04-28T09:15:28Z</time>
      </trkpt>
      <trkpt lat="44.96004" lon="3.96224">
        <ele>916.8</ele>
        <time>2026-04-28T09:15:33Z</time>
      </trkpt>
      <trkpt lat="44.96002" lon="3.96236">
        <ele>916</ele>
        <time>2026-04-28T09:15:38Z</time>
      </trkpt>
      <trkpt lat="44.96" lon="3.96244">
        <ele>915.6</ele>
        <time>2026-04-28T09:15:43Z</time>
      </trkpt>
      <trkpt lat="44.95997" lon="3.96255">
        <ele>915</ele>
        <time>2026-04-28T09:15:48Z</time>
      </trkpt>
      <trkpt lat="44.95994" lon="3.96263">
        <ele>914.6</ele>
        <time>2026-04-28T09:15:53Z</time>
      </trkpt>
      <trkpt lat="44.95992" lon="3.9627">
        <ele>914.1</ele>
        <time>2026-04-28T09:15:58Z</time>
      </trkpt>
      <trkpt lat="44.95988" lon="3.96275">
        <ele>914.5</ele>
        <time>2026-04-28T09:16:03Z</time>
      </trkpt>
      <trkpt lat="44.95984" lon="3.9628">
        <ele>915</ele>
        <time>2026-04-28T09:16:08Z</time>
      </trkpt>
      <trkpt lat="44.95979" lon="3.96283">
        <ele>916</ele>
        <time>2026-04-28T09:16:13Z</time>
      </trkpt>
      <trkpt lat="44.95976" lon="3.96288">
        <ele>916.2</ele>
        <time>2026-04-28T09:16:18Z</time>
      </trkpt>
      <trkpt lat="44.95973" lon="3.96293">
        <ele>916.4</ele>
        <time>2026-04-28T09:16:23Z</time>
      </trkpt>
      <trkpt lat="44.95969" lon="3.96298">
        <ele>917</ele>
        <time>2026-04-28T09:16:28Z</time>
      </trkpt>
      <trkpt lat="44.95966" lon="3.96303">
        <ele>917.3</ele>
        <time>2026-04-28T09:16:33Z</time>
      </trkpt>
      <trkpt lat="44.95961" lon="3.96307">
        <ele>918.3</ele>
        <time>2026-04-28T09:16:38Z</time>
      </trkpt>
      <trkpt lat="44.95956" lon="3.9631">
        <ele>919.5</ele>
        <time>2026-04-28T09:16:43Z</time>
      </trkpt>
      <trkpt lat="44.95952" lon="3.96315">
        <ele>920.2</ele>
        <time>2026-04-28T09:16:48Z</time>
      </trkpt>
      <trkpt lat="44.95946" lon="3.96322">
        <ele>921.4</ele>
        <time>2026-04-28T09:16:53Z</time>
      </trkpt>
      <trkpt lat="44.95941" lon="3.96326">
        <ele>922.6</ele>
        <time>2026-04-28T09:16:58Z</time>
      </trkpt>
      <trkpt lat="44.95936" lon="3.96332">
        <ele>923.6</ele>
        <time>2026-04-28T09:17:03Z</time>
      </trkpt>
      <trkpt lat="44.95932" lon="3.96338">
        <ele>924.1</ele>
        <time>2026-04-28T09:17:08Z</time>
      </trkpt>
      <trkpt lat="44.95927" lon="3.96346">
        <ele>924.5</ele>
        <time>2026-04-28T09:17:13Z</time>
      </trkpt>
      <trkpt lat="44.95923" lon="3.96355">
        <ele>924.4</ele>
        <time>2026-04-28T09:17:18Z</time>
      </trkpt>
      <trkpt lat="44.95918" lon="3.96362">
        <ele>924.8</ele>
        <time>2026-04-28T09:17:23Z</time>
      </trkpt>
      <trkpt lat="44.95917" lon="3.96368">
        <ele>924.1</ele>
        <time>2026-04-28T09:17:28Z</time>
      </trkpt>
      <trkpt lat="44.95912" lon="3.96378">
        <ele>923.3</ele>
        <time>2026-04-28T09:17:33Z</time>
      </trkpt>
      <trkpt lat="44.9591" lon="3.96389">
        <ele>921.9</ele>
        <time>2026-04-28T09:17:38Z</time>
      </trkpt>
      <trkpt lat="44.95907" lon="3.96399">
        <ele>920.8</ele>
        <time>2026-04-28T09:17:43Z</time>
      </trkpt>
      <trkpt lat="44.95905" lon="3.96409">
        <ele>919.5</ele>
        <time>2026-04-28T09:17:48Z</time>
      </trkpt>
      <trkpt lat="44.95904" lon="3.96418">
        <ele>918.2</ele>
        <time>2026-04-28T09:17:53Z</time>
      </trkpt>
      <trkpt lat="44.95903" lon="3.96425">
        <ele>917.4</ele>
        <time>2026-04-28T09:17:58Z</time>
      </trkpt>
      <trkpt lat="44.95901" lon="3.96432">
        <ele>916.8</ele>
        <time>2026-04-28T09:18:03Z</time>
      </trkpt>
      <trkpt lat="44.95898" lon="3.9644">
        <ele>916.2</ele>
        <time>2026-04-28T09:18:08Z</time>
      </trkpt>
      <trkpt lat="44.95898" lon="3.96447">
        <ele>915.2</ele>
        <time>2026-04-28T09:18:13Z</time>
      </trkpt>
      <trkpt lat="44.95896" lon="3.96456">
        <ele>914.3</ele>
        <time>2026-04-28T09:18:18Z</time>
      </trkpt>
      <trkpt lat="44.95892" lon="3.96466">
        <ele>913.6</ele>
        <time>2026-04-28T09:18:23Z</time>
      </trkpt>
      <trkpt lat="44.95889" lon="3.96474">
        <ele>913.1</ele>
        <time>2026-04-28T09:18:28Z</time>
      </trkpt>
      <trkpt lat="44.95884" lon="3.96482">
        <ele>912.9</ele>
        <time>2026-04-28T09:18:33Z</time>
      </trkpt>
      <trkpt lat="44.9588" lon="3.9649">
        <ele>912.5</ele>
        <time>2026-04-28T09:18:38Z</time>
      </trkpt>
      <trkpt lat="44.95875" lon="3.96498">
        <ele>912.3</ele>
        <time>2026-04-28T09:18:43Z</time>
      </trkpt>
      <trkpt lat="44.9587" lon="3.96508">
        <ele>911.7</ele>
        <time>2026-04-28T09:18:48Z</time>
      </trkpt>
      <trkpt lat="44.95867" lon="3.96515">
        <ele>911.2</ele>
        <time>2026-04-28T09:18:53Z</time>
      </trkpt>
      <trkpt lat="44.95861" lon="3.96523">
        <ele>910.9</ele>
        <time>2026-04-28T09:18:58Z</time>
      </trkpt>
      <trkpt lat="44.95856" lon="3.96532">
        <ele>910.2</ele>
        <time>2026-04-28T09:19:03Z</time>
      </trkpt>
      <trkpt lat="44.95853" lon="3.96541">
        <ele>909.2</ele>
        <time>2026-04-28T09:19:08Z</time>
      </trkpt>
      <trkpt lat="44.95848" lon="3.9655">
        <ele>908.3</ele>
        <time>2026-04-28T09:19:13Z</time>
      </trkpt>
      <trkpt lat="44.95843" lon="3.96558">
        <ele>907.6</ele>
        <time>2026-04-28T09:19:18Z</time>
      </trkpt>
      <trkpt lat="44.95839" lon="3.96566">
        <ele>906.6</ele>
        <time>2026-04-28T09:19:23Z</time>
      </trkpt>
      <trkpt lat="44.95833" lon="3.96576">
        <ele>905.4</ele>
        <time>2026-04-28T09:19:28Z</time>
      </trkpt>
      <trkpt lat="44.95828" lon="3.96584">
        <ele>904.5</ele>
        <time>2026-04-28T09:19:33Z</time>
      </trkpt>
      <trkpt lat="44.95822" lon="3.96592">
        <ele>904</ele>
        <time>2026-04-28T09:19:38Z</time>
      </trkpt>
      <trkpt lat="44.95817" lon="3.96598">
        <ele>903.8</ele>
        <time>2026-04-28T09:19:43Z</time>
      </trkpt>
      <trkpt lat="44.95811" lon="3.96601">
        <ele>904</ele>
        <time>2026-04-28T09:19:48Z</time>
      </trkpt>
      <trkpt lat="44.95804" lon="3.96607">
        <ele>904.1</ele>
        <time>2026-04-28T09:19:53Z</time>
      </trkpt>
      <trkpt lat="44.95799" lon="3.96613">
        <ele>903.9</ele>
        <time>2026-04-28T09:19:58Z</time>
      </trkpt>
      <trkpt lat="44.95791" lon="3.96617">
        <ele>904.3</ele>
        <time>2026-04-28T09:20:03Z</time>
      </trkpt>
      <trkpt lat="44.95785" lon="3.96623">
        <ele>904.3</ele>
        <time>2026-04-28T09:20:08Z</time>
      </trkpt>
      <trkpt lat="44.95777" lon="3.9663">
        <ele>904.5</ele>
        <time>2026-04-28T09:20:13Z</time>
      </trkpt>
      <trkpt lat="44.95771" lon="3.96634">
        <ele>904.8</ele>
        <time>2026-04-28T09:20:18Z</time>
      </trkpt>
      <trkpt lat="44.95765" lon="3.96639">
        <ele>905</ele>
        <time>2026-04-28T09:20:23Z</time>
      </trkpt>
      <trkpt lat="44.95761" lon="3.96645">
        <ele>904.9</ele>
        <time>2026-04-28T09:20:28Z</time>
      </trkpt>
      <trkpt lat="44.95755" lon="3.9665">
        <ele>905.1</ele>
        <time>2026-04-28T09:20:33Z</time>
      </trkpt>
      <trkpt lat="44.95748" lon="3.96656">
        <ele>905.4</ele>
        <time>2026-04-28T09:20:38Z</time>
      </trkpt>
      <trkpt lat="44.95742" lon="3.96663">
        <ele>905.3</ele>
        <time>2026-04-28T09:20:43Z</time>
      </trkpt>
      <trkpt lat="44.95736" lon="3.96669">
        <ele>905.3</ele>
        <time>2026-04-28T09:20:48Z</time>
      </trkpt>
      <trkpt lat="44.95731" lon="3.96674">
        <ele>905.3</ele>
        <time>2026-04-28T09:20:53Z</time>
      </trkpt>
      <trkpt lat="44.95725" lon="3.96679">
        <ele>905.4</ele>
        <time>2026-04-28T09:20:58Z</time>
      </trkpt>
      <trkpt lat="44.95719" lon="3.96686">
        <ele>905.3</ele>
        <time>2026-04-28T09:21:03Z</time>
      </trkpt>
      <trkpt lat="44.95712" lon="3.96693">
        <ele>905.3</ele>
        <time>2026-04-28T09:21:08Z</time>
      </trkpt>
      <trkpt lat="44.95705" lon="3.96699">
        <ele>905.4</ele>
        <time>2026-04-28T09:21:13Z</time>
      </trkpt>
      <trkpt lat="44.95699" lon="3.96706">
        <ele>905.3</ele>
        <time>2026-04-28T09:21:18Z</time>
      </trkpt>
      <trkpt lat="44.95693" lon="3.96713">
        <ele>905.2</ele>
        <time>2026-04-28T09:21:23Z</time>
      </trkpt>
      <trkpt lat="44.95689" lon="3.9672">
        <ele>904.8</ele>
        <time>2026-04-28T09:21:28Z</time>
      </trkpt>
      <trkpt lat="44.95683" lon="3.96728">
        <ele>904.6</ele>
        <time>2026-04-28T09:21:33Z</time>
      </trkpt>
      <trkpt lat="44.95677" lon="3.96737">
        <ele>904.3</ele>
        <time>2026-04-28T09:21:38Z</time>
      </trkpt>
      <trkpt lat="44.95672" lon="3.96745">
        <ele>904</ele>
        <time>2026-04-28T09:21:43Z</time>
      </trkpt>
      <trkpt lat="44.95667" lon="3.96753">
        <ele>903.7</ele>
        <time>2026-04-28T09:21:48Z</time>
      </trkpt>
      <trkpt lat="44.95662" lon="3.96761">
        <ele>903.8</ele>
        <time>2026-04-28T09:21:53Z</time>
      </trkpt>
      <trkpt lat="44.95657" lon="3.96769">
        <ele>903.8</ele>
        <time>2026-04-28T09:21:58Z</time>
      </trkpt>
      <trkpt lat="44.95651" lon="3.96779">
        <ele>903.9</ele>
        <time>2026-04-28T09:22:03Z</time>
      </trkpt>
      <trkpt lat="44.95645" lon="3.96787">
        <ele>904.1</ele>
        <time>2026-04-28T09:22:08Z</time>
      </trkpt>
      <trkpt lat="44.9564" lon="3.96797">
        <ele>904.1</ele>
        <time>2026-04-28T09:22:13Z</time>
      </trkpt>
      <trkpt lat="44.95636" lon="3.96805">
        <ele>904</ele>
        <time>2026-04-28T09:22:18Z</time>
      </trkpt>
      <trkpt lat="44.9563" lon="3.96811">
        <ele>904.5</ele>
        <time>2026-04-28T09:22:23Z</time>
      </trkpt>
      <trkpt lat="44.95624" lon="3.96821">
        <ele>904.6</ele>
        <time>2026-04-28T09:22:28Z</time>
      </trkpt>
      <trkpt lat="44.95619" lon="3.96831">
        <ele>904.6</ele>
        <time>2026-04-28T09:22:33Z</time>
      </trkpt>
      <trkpt lat="44.95615" lon="3.96838">
        <ele>904.8</ele>
        <time>2026-04-28T09:22:38Z</time>
      </trkpt>
      <trkpt lat="44.95611" lon="3.96847">
        <ele>904.8</ele>
        <time>2026-04-28T09:22:43Z</time>
      </trkpt>
      <trkpt lat="44.95607" lon="3.96855">
        <ele>904.8</ele>
        <time>2026-04-28T09:22:48Z</time>
      </trkpt>
      <trkpt lat="44.95602" lon="3.96862">
        <ele>905</ele>
        <time>2026-04-28T09:22:53Z</time>
      </trkpt>
      <trkpt lat="44.95596" lon="3.96872">
        <ele>905.1</ele>
        <time>2026-04-28T09:22:58Z</time>
      </trkpt>
      <trkpt lat="44.95591" lon="3.96879">
        <ele>905.2</ele>
        <time>2026-04-28T09:23:03Z</time>
      </trkpt>
      <trkpt lat="44.95586" lon="3.96886">
        <ele>905.2</ele>
        <time>2026-04-28T09:23:08Z</time>
      </trkpt>
      <trkpt lat="44.95583" lon="3.96892">
        <ele>905.2</ele>
        <time>2026-04-28T09:23:13Z</time>
      </trkpt>
      <trkpt lat="44.95577" lon="3.969">
        <ele>906</ele>
        <time>2026-04-28T09:23:18Z</time>
      </trkpt>
      <trkpt lat="44.9557" lon="3.96908">
        <ele>906.9</ele>
        <time>2026-04-28T09:23:23Z</time>
      </trkpt>
      <trkpt lat="44.95565" lon="3.96914">
        <ele>907.5</ele>
        <time>2026-04-28T09:23:28Z</time>
      </trkpt>
      <trkpt lat="44.95561" lon="3.96922">
        <ele>907.7</ele>
        <time>2026-04-28T09:23:33Z</time>
      </trkpt>
      <trkpt lat="44.95557" lon="3.96931">
        <ele>908</ele>
        <time>2026-04-28T09:23:38Z</time>
      </trkpt>
      <trkpt lat="44.95554" lon="3.9694">
        <ele>908.1</ele>
        <time>2026-04-28T09:23:43Z</time>
      </trkpt>
      <trkpt lat="44.95552" lon="3.9695">
        <ele>907.8</ele>
        <time>2026-04-28T09:23:48Z</time>
      </trkpt>
      <trkpt lat="44.95551" lon="3.96963">
        <ele>907.2</ele>
        <time>2026-04-28T09:23:53Z</time>
      </trkpt>
      <trkpt lat="44.9555" lon="3.96974">
        <ele>906.6</ele>
        <time>2026-04-28T09:23:58Z</time>
      </trkpt>
      <trkpt lat="44.95548" lon="3.96985">
        <ele>906.3</ele>
        <time>2026-04-28T09:24:03Z</time>
      </trkpt>
      <trkpt lat="44.95545" lon="3.96994">
        <ele>906.2</ele>
        <time>2026-04-28T09:24:08Z</time>
      </trkpt>
      <trkpt lat="44.95545" lon="3.97005">
        <ele>905.6</ele>
        <time>2026-04-28T09:24:13Z</time>
      </trkpt>
      <trkpt lat="44.95543" lon="3.97016">
        <ele>905.5</ele>
        <time>2026-04-28T09:24:18Z</time>
      </trkpt>
      <trkpt lat="44.95539" lon="3.97025">
        <ele>905.8</ele>
        <time>2026-04-28T09:24:23Z</time>
      </trkpt>
      <trkpt lat="44.95539" lon="3.97034">
        <ele>905.4</ele>
        <time>2026-04-28T09:24:28Z</time>
      </trkpt>
      <trkpt lat="44.9554" lon="3.97036">
        <ele>905.1</ele>
        <time>2026-04-28T09:24:33Z</time>
      </trkpt>
      <trkpt lat="44.9554" lon="3.97036">
        <ele>905.1</ele>
        <time>2026-04-28T09:24:38Z</time>
      </trkpt>
      <trkpt lat="44.9554" lon="3.97036">
        <ele>905.1</ele>
        <time>2026-04-28T09:24:43Z</time>
      </trkpt>
      <trkpt lat="44.95538" lon="3.97046">
        <ele>904.9</ele>
        <time>2026-04-28T09:24:48Z</time>
      </trkpt>
      <trkpt lat="44.95539" lon="3.97055">
        <ele>904.3</ele>
        <time>2026-04-28T09:24:53Z</time>
      </trkpt>
      <trkpt lat="44.95541" lon="3.97059">
        <ele>903.8</ele>
        <time>2026-04-28T09:24:58Z</time>
      </trkpt>
      <trkpt lat="44.95541" lon="3.9706">
        <ele>903.7</ele>
        <time>2026-04-28T09:25:03Z</time>
      </trkpt>
      <trkpt lat="44.95541" lon="3.9706">
        <ele>903.7</ele>
        <time>2026-04-28T09:25:08Z</time>
      </trkpt>
      <trkpt lat="44.95541" lon="3.9706">
        <ele>903.7</ele>
        <time>2026-04-28T09:25:13Z</time>
      </trkpt>
      <trkpt lat="44.95541" lon="3.9706">
        <ele>903.7</ele>
        <time>2026-04-28T09:25:18Z</time>
      </trkpt>
      <trkpt lat="44.9554" lon="3.97057">
        <ele>904</ele>
        <time>2026-04-28T09:25:23Z</time>
      </trkpt>
      <trkpt lat="44.95533" lon="3.9706">
        <ele>905.1</ele>
        <time>2026-04-28T09:25:28Z</time>
      </trkpt>
      <trkpt lat="44.95525" lon="3.97064">
        <ele>906.2</ele>
        <time>2026-04-28T09:25:33Z</time>
      </trkpt>
      <trkpt lat="44.95519" lon="3.97065">
        <ele>907.2</ele>
        <time>2026-04-28T09:25:38Z</time>
      </trkpt>
      <trkpt lat="44.95513" lon="3.97063">
        <ele>908.3</ele>
        <time>2026-04-28T09:25:43Z</time>
      </trkpt>
      <trkpt lat="44.95506" lon="3.97062">
        <ele>909.5</ele>
        <time>2026-04-28T09:25:48Z</time>
      </trkpt>
      <trkpt lat="44.95498" lon="3.9706">
        <ele>911.1</ele>
        <time>2026-04-28T09:25:53Z</time>
      </trkpt>
      <trkpt lat="44.95488" lon="3.97061">
        <ele>913.2</ele>
        <time>2026-04-28T09:25:58Z</time>
      </trkpt>
      <trkpt lat="44.95481" lon="3.97066">
        <ele>914.2</ele>
        <time>2026-04-28T09:26:03Z</time>
      </trkpt>
      <trkpt lat="44.95475" lon="3.97069">
        <ele>915.2</ele>
        <time>2026-04-28T09:26:08Z</time>
      </trkpt>
      <trkpt lat="44.95468" lon="3.9707">
        <ele>916.5</ele>
        <time>2026-04-28T09:26:13Z</time>
      </trkpt>
      <trkpt lat="44.95463" lon="3.97073">
        <ele>917.2</ele>
        <time>2026-04-28T09:26:18Z</time>
      </trkpt>
      <trkpt lat="44.95459" lon="3.97078">
        <ele>917.5</ele>
        <time>2026-04-28T09:26:23Z</time>
      </trkpt>
      <trkpt lat="44.95456" lon="3.97085">
        <ele>917.4</ele>
        <time>2026-04-28T09:26:28Z</time>
      </trkpt>
      <trkpt lat="44.95456" lon="3.97089">
        <ele>917.2</ele>
        <time>2026-04-28T09:26:33Z</time>
      </trkpt>
      <trkpt lat="44.95454" lon="3.97095">
        <ele>917.3</ele>
        <time>2026-04-28T09:26:38Z</time>
      </trkpt>
      <trkpt lat="44.95451" lon="3.97098">
        <ele>917.7</ele>
        <time>2026-04-28T09:26:43Z</time>
      </trkpt>
      <trkpt lat="44.95447" lon="3.971">
        <ele>918.4</ele>
        <time>2026-04-28T09:26:48Z</time>
      </trkpt>
      <trkpt lat="44.95443" lon="3.97099">
        <ele>919.2</ele>
        <time>2026-04-28T09:26:53Z</time>
      </trkpt>
      <trkpt lat="44.95439" lon="3.971">
        <ele>919.9</ele>
        <time>2026-04-28T09:26:58Z</time>
      </trkpt>
      <trkpt lat="44.95434" lon="3.97101">
        <ele>920.8</ele>
        <time>2026-04-28T09:27:03Z</time>
      </trkpt>
      <trkpt lat="44.95431" lon="3.97101">
        <ele>921.4</ele>
        <time>2026-04-28T09:27:08Z</time>
      </trkpt>
      <trkpt lat="44.95427" lon="3.97101">
        <ele>922.2</ele>
        <time>2026-04-28T09:27:13Z</time>
      </trkpt>
      <trkpt lat="44.95424" lon="3.97101">
        <ele>922.7</ele>
        <time>2026-04-28T09:27:18Z</time>
      </trkpt>
      <trkpt lat="44.95421" lon="3.97102">
        <ele>923.3</ele>
        <time>2026-04-28T09:27:23Z</time>
      </trkpt>
      <trkpt lat="44.95418" lon="3.97102">
        <ele>923.8</ele>
        <time>2026-04-28T09:27:28Z</time>
      </trkpt>
      <trkpt lat="44.95414" lon="3.97103">
        <ele>924.6</ele>
        <time>2026-04-28T09:27:33Z</time>
      </trkpt>
      <trkpt lat="44.9541" lon="3.97103">
        <ele>925.5</ele>
        <time>2026-04-28T09:27:38Z</time>
      </trkpt>
      <trkpt lat="44.95405" lon="3.97102">
        <ele>926.6</ele>
        <time>2026-04-28T09:27:43Z</time>
      </trkpt>
      <trkpt lat="44.954" lon="3.97104">
        <ele>927.6</ele>
        <time>2026-04-28T09:27:48Z</time>
      </trkpt>
      <trkpt lat="44.95398" lon="3.97102">
        <ele>928.1</ele>
        <time>2026-04-28T09:27:53Z</time>
      </trkpt>
      <trkpt lat="44.95395" lon="3.97102">
        <ele>928.7</ele>
        <time>2026-04-28T09:27:58Z</time>
      </trkpt>
      <trkpt lat="44.95393" lon="3.97102">
        <ele>929.2</ele>
        <time>2026-04-28T09:28:03Z</time>
      </trkpt>
      <trkpt lat="44.9539" lon="3.97103">
        <ele>929.7</ele>
        <time>2026-04-28T09:28:08Z</time>
      </trkpt>
      <trkpt lat="44.95387" lon="3.97104">
        <ele>930.3</ele>
        <time>2026-04-28T09:28:13Z</time>
      </trkpt>
      <trkpt lat="44.95383" lon="3.97107">
        <ele>931</ele>
        <time>2026-04-28T09:28:18Z</time>
      </trkpt>
      <trkpt lat="44.95379" lon="3.97109">
        <ele>931.8</ele>
        <time>2026-04-28T09:28:23Z</time>
      </trkpt>
      <trkpt lat="44.95374" lon="3.97109">
        <ele>932.8</ele>
        <time>2026-04-28T09:28:28Z</time>
      </trkpt>
      <trkpt lat="44.95371" lon="3.9711">
        <ele>933.4</ele>
        <time>2026-04-28T09:28:33Z</time>
      </trkpt>
      <trkpt lat="44.95368" lon="3.97112">
        <ele>933.9</ele>
        <time>2026-04-28T09:28:38Z</time>
      </trkpt>
      <trkpt lat="44.95364" lon="3.97113">
        <ele>934.7</ele>
        <time>2026-04-28T09:28:43Z</time>
      </trkpt>
      <trkpt lat="44.9536" lon="3.97115">
        <ele>935.5</ele>
        <time>2026-04-28T09:28:48Z</time>
      </trkpt>
      <trkpt lat="44.95356" lon="3.97117">
        <ele>936.2</ele>
        <time>2026-04-28T09:28:53Z</time>
      </trkpt>
      <trkpt lat="44.95351" lon="3.97119">
        <ele>937.1</ele>
        <time>2026-04-28T09:28:58Z</time>
      </trkpt>
      <trkpt lat="44.95347" lon="3.9712">
        <ele>937.9</ele>
        <time>2026-04-28T09:29:03Z</time>
      </trkpt>
      <trkpt lat="44.95343" lon="3.97122">
        <ele>938.6</ele>
        <time>2026-04-28T09:29:08Z</time>
      </trkpt>
      <trkpt lat="44.9534" lon="3.97122">
        <ele>939.3</ele>
        <time>2026-04-28T09:29:13Z</time>
      </trkpt>
      <trkpt lat="44.95339" lon="3.97117">
        <ele>939.8</ele>
        <time>2026-04-28T09:29:18Z</time>
      </trkpt>
      <trkpt lat="44.9534" lon="3.97112">
        <ele>939.9</ele>
        <time>2026-04-28T09:29:23Z</time>
      </trkpt>
      <trkpt lat="44.9534" lon="3.97107">
        <ele>940.2</ele>
        <time>2026-04-28T09:29:28Z</time>
      </trkpt>
      <trkpt lat="44.95339" lon="3.97102">
        <ele>940.7</ele>
        <time>2026-04-28T09:29:33Z</time>
      </trkpt>
      <trkpt lat="44.95339" lon="3.97099">
        <ele>940.8</ele>
        <time>2026-04-28T09:29:38Z</time>
      </trkpt>
      <trkpt lat="44.95337" lon="3.97094">
        <ele>941.6</ele>
        <time>2026-04-28T09:29:43Z</time>
      </trkpt>
      <trkpt lat="44.95337" lon="3.97094">
        <ele>941.6</ele>
        <time>2026-04-28T09:29:48Z</time>
      </trkpt>
      <trkpt lat="44.9533" lon="3.97092">
        <ele>943.3</ele>
        <time>2026-04-28T09:29:53Z</time>
      </trkpt>
      <trkpt lat="44.9533" lon="3.97092">
        <ele>943.3</ele>
        <time>2026-04-28T09:29:58Z</time>
      </trkpt>
      <trkpt lat="44.95323" lon="3.9709">
        <ele>945.1</ele>
        <time>2026-04-28T09:30:03Z</time>
      </trkpt>
      <trkpt lat="44.95319" lon="3.9709">
        <ele>946.1</ele>
        <time>2026-04-28T09:30:08Z</time>
      </trkpt>
      <trkpt lat="44.95317" lon="3.97088">
        <ele>946.7</ele>
        <time>2026-04-28T09:30:13Z</time>
      </trkpt>
      <trkpt lat="44.95317" lon="3.97088">
        <ele>946.7</ele>
        <time>2026-04-28T09:30:18Z</time>
      </trkpt>
      <trkpt lat="44.95317" lon="3.97088">
        <ele>946.7</ele>
        <time>2026-04-28T09:30:23Z</time>
      </trkpt>
      <trkpt lat="44.95317" lon="3.97088">
        <ele>946.7</ele>
        <time>2026-04-28T09:30:28Z</time>
      </trkpt>
      <trkpt lat="44.95317" lon="3.97088">
        <ele>946.7</ele>
        <time>2026-04-28T09:30:33Z</time>
      </trkpt>
      <trkpt lat="44.95307" lon="3.97085">
        <ele>949.3</ele>
        <time>2026-04-28T09:30:38Z</time>
      </trkpt>
      <trkpt lat="44.95306" lon="3.97085">
        <ele>949.5</ele>
        <time>2026-04-28T09:30:43Z</time>
      </trkpt>
      <trkpt lat="44.95306" lon="3.97085">
        <ele>949.5</ele>
        <time>2026-04-28T09:30:48Z</time>
      </trkpt>
      <trkpt lat="44.953" lon="3.97084">
        <ele>951</ele>
        <time>2026-04-28T09:30:53Z</time>
      </trkpt>
      <trkpt lat="44.95296" lon="3.97084">
        <ele>951.9</ele>
        <time>2026-04-28T09:30:58Z</time>
      </trkpt>
      <trkpt lat="44.95294" lon="3.97083">
        <ele>952.5</ele>
        <time>2026-04-28T09:31:03Z</time>
      </trkpt>
      <trkpt lat="44.95293" lon="3.97083">
        <ele>952.7</ele>
        <time>2026-04-28T09:31:08Z</time>
      </trkpt>
      <trkpt lat="44.9529" lon="3.97082">
        <ele>953.5</ele>
        <time>2026-04-28T09:31:13Z</time>
      </trkpt>
      <trkpt lat="44.95289" lon="3.97082">
        <ele>953.8</ele>
        <time>2026-04-28T09:31:18Z</time>
      </trkpt>
      <trkpt lat="44.95289" lon="3.97082">
        <ele>953.8</ele>
        <time>2026-04-28T09:31:23Z</time>
      </trkpt>
      <trkpt lat="44.95285" lon="3.97081">
        <ele>954.8</ele>
        <time>2026-04-28T09:31:28Z</time>
      </trkpt>
      <trkpt lat="44.95284" lon="3.97079">
        <ele>955.2</ele>
        <time>2026-04-28T09:31:33Z</time>
      </trkpt>
      <trkpt lat="44.95281" lon="3.97077">
        <ele>956.1</ele>
        <time>2026-04-28T09:31:38Z</time>
      </trkpt>
      <trkpt lat="44.95279" lon="3.97076">
        <ele>956.7</ele>
        <time>2026-04-28T09:31:43Z</time>
      </trkpt>
      <trkpt lat="44.95278" lon="3.97075">
        <ele>957</ele>
        <time>2026-04-28T09:31:48Z</time>
      </trkpt>
      <trkpt lat="44.95273" lon="3.97072">
        <ele>958.4</ele>
        <time>2026-04-28T09:31:53Z</time>
      </trkpt>
      <trkpt lat="44.95272" lon="3.9707">
        <ele>958.8</ele>
        <time>2026-04-28T09:31:58Z</time>
      </trkpt>
      <trkpt lat="44.95269" lon="3.97068">
        <ele>959.7</ele>
        <time>2026-04-28T09:32:03Z</time>
      </trkpt>
      <trkpt lat="44.95267" lon="3.97067">
        <ele>960.2</ele>
        <time>2026-04-28T09:32:08Z</time>
      </trkpt>
      <trkpt lat="44.95263" lon="3.97067">
        <ele>961.1</ele>
        <time>2026-04-28T09:32:13Z</time>
      </trkpt>
      <trkpt lat="44.95262" lon="3.97066">
        <ele>961.4</ele>
        <time>2026-04-28T09:32:18Z</time>
      </trkpt>
      <trkpt lat="44.95259" lon="3.97064">
        <ele>962.2</ele>
        <time>2026-04-28T09:32:23Z</time>
      </trkpt>
      <trkpt lat="44.95256" lon="3.97063">
        <ele>962.9</ele>
        <time>2026-04-28T09:32:28Z</time>
      </trkpt>
      <trkpt lat="44.95254" lon="3.97061">
        <ele>963.5</ele>
        <time>2026-04-28T09:32:33Z</time>
      </trkpt>
      <trkpt lat="44.95253" lon="3.9706">
        <ele>963.8</ele>
        <time>2026-04-28T09:32:38Z</time>
      </trkpt>
      <trkpt lat="44.95253" lon="3.9706">
        <ele>963.8</ele>
        <time>2026-04-28T09:32:43Z</time>
      </trkpt>
      <trkpt lat="44.95253" lon="3.9706">
        <ele>963.8</ele>
        <time>2026-04-28T09:32:48Z</time>
      </trkpt>
      <trkpt lat="44.95253" lon="3.9706">
        <ele>963.8</ele>
        <time>2026-04-28T09:32:53Z</time>
      </trkpt>
      <trkpt lat="44.95249" lon="3.97057">
        <ele>964.7</ele>
        <time>2026-04-28T09:32:58Z</time>
      </trkpt>
      <trkpt lat="44.95246" lon="3.97056">
        <ele>965.2</ele>
        <time>2026-04-28T09:33:03Z</time>
      </trkpt>
      <trkpt lat="44.95244" lon="3.97052">
        <ele>965.6</ele>
        <time>2026-04-28T09:33:08Z</time>
      </trkpt>
      <trkpt lat="44.95241" lon="3.9705">
        <ele>966.1</ele>
        <time>2026-04-28T09:33:13Z</time>
      </trkpt>
      <trkpt lat="44.95239" lon="3.97048">
        <ele>966.5</ele>
        <time>2026-04-28T09:33:18Z</time>
      </trkpt>
      <trkpt lat="44.95236" lon="3.97047">
        <ele>966.9</ele>
        <time>2026-04-28T09:33:23Z</time>
      </trkpt>
      <trkpt lat="44.95234" lon="3.97047">
        <ele>967.1</ele>
        <time>2026-04-28T09:33:28Z</time>
      </trkpt>
      <trkpt lat="44.95231" lon="3.97045">
        <ele>967.6</ele>
        <time>2026-04-28T09:33:33Z</time>
      </trkpt>
      <trkpt lat="44.95227" lon="3.97046">
        <ele>968.1</ele>
        <time>2026-04-28T09:33:38Z</time>
      </trkpt>
      <trkpt lat="44.95223" lon="3.97044">
        <ele>968.6</ele>
        <time>2026-04-28T09:33:43Z</time>
      </trkpt>
      <trkpt lat="44.95219" lon="3.97042">
        <ele>969.2</ele>
        <time>2026-04-28T09:33:48Z</time>
      </trkpt>
      <trkpt lat="44.95216" lon="3.9704">
        <ele>969.6</ele>
        <time>2026-04-28T09:33:53Z</time>
      </trkpt>
      <trkpt lat="44.95211" lon="3.9704">
        <ele>970.2</ele>
        <time>2026-04-28T09:33:58Z</time>
      </trkpt>
      <trkpt lat="44.95208" lon="3.97039">
        <ele>970.6</ele>
        <time>2026-04-28T09:34:03Z</time>
      </trkpt>
      <trkpt lat="44.95204" lon="3.97039">
        <ele>971.1</ele>
        <time>2026-04-28T09:34:08Z</time>
      </trkpt>
      <trkpt lat="44.95199" lon="3.97038">
        <ele>971.7</ele>
        <time>2026-04-28T09:34:13Z</time>
      </trkpt>
      <trkpt lat="44.95195" lon="3.97037">
        <ele>972.2</ele>
        <time>2026-04-28T09:34:18Z</time>
      </trkpt>
      <trkpt lat="44.95192" lon="3.97037">
        <ele>972.6</ele>
        <time>2026-04-28T09:34:23Z</time>
      </trkpt>
      <trkpt lat="44.95188" lon="3.97037">
        <ele>973.1</ele>
        <time>2026-04-28T09:34:28Z</time>
      </trkpt>
      <trkpt lat="44.95185" lon="3.97036">
        <ele>973.4</ele>
        <time>2026-04-28T09:34:33Z</time>
      </trkpt>
      <trkpt lat="44.95182" lon="3.97035">
        <ele>973.8</ele>
        <time>2026-04-28T09:34:38Z</time>
      </trkpt>
      <trkpt lat="44.95179" lon="3.97034">
        <ele>974.2</ele>
        <time>2026-04-28T09:34:43Z</time>
      </trkpt>
      <trkpt lat="44.95177" lon="3.97033">
        <ele>974.4</ele>
        <time>2026-04-28T09:34:48Z</time>
      </trkpt>
      <trkpt lat="44.95173" lon="3.97032">
        <ele>974.9</ele>
        <time>2026-04-28T09:34:53Z</time>
      </trkpt>
      <trkpt lat="44.9517" lon="3.97032">
        <ele>975.2</ele>
        <time>2026-04-28T09:34:58Z</time>
      </trkpt>
      <trkpt lat="44.95168" lon="3.97031">
        <ele>975.5</ele>
        <time>2026-04-28T09:35:03Z</time>
      </trkpt>
      <trkpt lat="44.95165" lon="3.9703">
        <ele>975.7</ele>
        <time>2026-04-28T09:35:08Z</time>
      </trkpt>
      <trkpt lat="44.95161" lon="3.9703">
        <ele>975.8</ele>
        <time>2026-04-28T09:35:13Z</time>
      </trkpt>
      <trkpt lat="44.9516" lon="3.9703">
        <ele>975.8</ele>
        <time>2026-04-28T09:35:18Z</time>
      </trkpt>
      <trkpt lat="44.95159" lon="3.97029">
        <ele>975.8</ele>
        <time>2026-04-28T09:35:23Z</time>
      </trkpt>
      <trkpt lat="44.95156" lon="3.97029">
        <ele>975.9</ele>
        <time>2026-04-28T09:35:28Z</time>
      </trkpt>
      <trkpt lat="44.95152" lon="3.97029">
        <ele>976</ele>
        <time>2026-04-28T09:35:33Z</time>
      </trkpt>
      <trkpt lat="44.95149" lon="3.97028">
        <ele>976.1</ele>
        <time>2026-04-28T09:35:38Z</time>
      </trkpt>
      <trkpt lat="44.95147" lon="3.97026">
        <ele>976.1</ele>
        <time>2026-04-28T09:35:43Z</time>
      </trkpt>
      <trkpt lat="44.95145" lon="3.97025">
        <ele>976.2</ele>
        <time>2026-04-28T09:35:48Z</time>
      </trkpt>
      <trkpt lat="44.95142" lon="3.97024">
        <ele>976.3</ele>
        <time>2026-04-28T09:35:53Z</time>
      </trkpt>
      <trkpt lat="44.9514" lon="3.97023">
        <ele>976.3</ele>
        <time>2026-04-28T09:35:58Z</time>
      </trkpt>
      <trkpt lat="44.95138" lon="3.97023">
        <ele>976.4</ele>
        <time>2026-04-28T09:36:03Z</time>
      </trkpt>
      <trkpt lat="44.95134" lon="3.97021">
        <ele>976.4</ele>
        <time>2026-04-28T09:36:08Z</time>
      </trkpt>
      <trkpt lat="44.9513" lon="3.97021">
        <ele>976.5</ele>
        <time>2026-04-28T09:36:13Z</time>
      </trkpt>
      <trkpt lat="44.95126" lon="3.97022">
        <ele>976.6</ele>
        <time>2026-04-28T09:36:18Z</time>
      </trkpt>
      <trkpt lat="44.95123" lon="3.97021">
        <ele>976.7</ele>
        <time>2026-04-28T09:36:23Z</time>
      </trkpt>
      <trkpt lat="44.95121" lon="3.97021">
        <ele>976.7</ele>
        <time>2026-04-28T09:36:28Z</time>
      </trkpt>
      <trkpt lat="44.95119" lon="3.97023">
        <ele>976.8</ele>
        <time>2026-04-28T09:36:33Z</time>
      </trkpt>
      <trkpt lat="44.95117" lon="3.97025">
        <ele>976.8</ele>
        <time>2026-04-28T09:36:38Z</time>
      </trkpt>
      <trkpt lat="44.95113" lon="3.97025">
        <ele>976.9</ele>
        <time>2026-04-28T09:36:43Z</time>
      </trkpt>
      <trkpt lat="44.95109" lon="3.97025">
        <ele>977</ele>
        <time>2026-04-28T09:36:48Z</time>
      </trkpt>
      <trkpt lat="44.95106" lon="3.97027">
        <ele>977.1</ele>
        <time>2026-04-28T09:36:53Z</time>
      </trkpt>
      <trkpt lat="44.95103" lon="3.97031">
        <ele>977.2</ele>
        <time>2026-04-28T09:36:58Z</time>
      </trkpt>
      <trkpt lat="44.95099" lon="3.97033">
        <ele>977.4</ele>
        <time>2026-04-28T09:37:03Z</time>
      </trkpt>
      <trkpt lat="44.95096" lon="3.97034">
        <ele>977.5</ele>
        <time>2026-04-28T09:37:08Z</time>
      </trkpt>
      <trkpt lat="44.95092" lon="3.97035">
        <ele>977.6</ele>
        <time>2026-04-28T09:37:13Z</time>
      </trkpt>
      <trkpt lat="44.95088" lon="3.97035">
        <ele>977.7</ele>
        <time>2026-04-28T09:37:18Z</time>
      </trkpt>
      <trkpt lat="44.95084" lon="3.97036">
        <ele>977.8</ele>
        <time>2026-04-28T09:37:23Z</time>
      </trkpt>
      <trkpt lat="44.9508" lon="3.97035">
        <ele>977.9</ele>
        <time>2026-04-28T09:37:28Z</time>
      </trkpt>
      <trkpt lat="44.95073" lon="3.97035">
        <ele>977.9</ele>
        <time>2026-04-28T09:37:33Z</time>
      </trkpt>
      <trkpt lat="44.95067" lon="3.97035">
        <ele>977.9</ele>
        <time>2026-04-28T09:37:38Z</time>
      </trkpt>
      <trkpt lat="44.95061" lon="3.97036">
        <ele>978</ele>
        <time>2026-04-28T09:37:43Z</time>
      </trkpt>
      <trkpt lat="44.95054" lon="3.97037">
        <ele>978</ele>
        <time>2026-04-28T09:37:48Z</time>
      </trkpt>
      <trkpt lat="44.95048" lon="3.97037">
        <ele>978.1</ele>
        <time>2026-04-28T09:37:53Z</time>
      </trkpt>
      <trkpt lat="44.95041" lon="3.97038">
        <ele>978.1</ele>
        <time>2026-04-28T09:37:58Z</time>
      </trkpt>
      <trkpt lat="44.95034" lon="3.97038">
        <ele>978.2</ele>
        <time>2026-04-28T09:38:03Z</time>
      </trkpt>
      <trkpt lat="44.9503" lon="3.97038">
        <ele>978.2</ele>
        <time>2026-04-28T09:38:08Z</time>
      </trkpt>
      <trkpt lat="44.95028" lon="3.97038">
        <ele>978.2</ele>
        <time>2026-04-28T09:38:13Z</time>
      </trkpt>
      <trkpt lat="44.95028" lon="3.97038">
        <ele>978.2</ele>
        <time>2026-04-28T09:38:18Z</time>
      </trkpt>
      <trkpt lat="44.95028" lon="3.97038">
        <ele>978.2</ele>
        <time>2026-04-28T09:38:23Z</time>
      </trkpt>
      <trkpt lat="44.95022" lon="3.97037">
        <ele>978.2</ele>
        <time>2026-04-28T09:38:28Z</time>
      </trkpt>
      <trkpt lat="44.95016" lon="3.97037">
        <ele>978.2</ele>
        <time>2026-04-28T09:38:33Z</time>
      </trkpt>
      <trkpt lat="44.95011" lon="3.97038">
        <ele>978.3</ele>
        <time>2026-04-28T09:38:38Z</time>
      </trkpt>
      <trkpt lat="44.95005" lon="3.9704">
        <ele>978.4</ele>
        <time>2026-04-28T09:38:43Z</time>
      </trkpt>
      <trkpt lat="44.94999" lon="3.97039">
        <ele>978.4</ele>
        <time>2026-04-28T09:38:48Z</time>
      </trkpt>
      <trkpt lat="44.94992" lon="3.97036">
        <ele>978.3</ele>
        <time>2026-04-28T09:38:53Z</time>
      </trkpt>
      <trkpt lat="44.94984" lon="3.97034">
        <ele>978.2</ele>
        <time>2026-04-28T09:38:58Z</time>
      </trkpt>
      <trkpt lat="44.94976" lon="3.97032">
        <ele>978.2</ele>
        <time>2026-04-28T09:39:03Z</time>
      </trkpt>
      <trkpt lat="44.94968" lon="3.97032">
        <ele>978.2</ele>
        <time>2026-04-28T09:39:08Z</time>
      </trkpt>
      <trkpt lat="44.94961" lon="3.97032">
        <ele>978.2</ele>
        <time>2026-04-28T09:39:13Z</time>
      </trkpt>
      <trkpt lat="44.94953" lon="3.97032">
        <ele>978.2</ele>
        <time>2026-04-28T09:39:18Z</time>
      </trkpt>
      <trkpt lat="44.94946" lon="3.97031">
        <ele>978.1</ele>
        <time>2026-04-28T09:39:23Z</time>
      </trkpt>
      <trkpt lat="44.94941" lon="3.9703">
        <ele>978.1</ele>
        <time>2026-04-28T09:39:28Z</time>
      </trkpt>
      <trkpt lat="44.94938" lon="3.97029">
        <ele>978</ele>
        <time>2026-04-28T09:39:33Z</time>
      </trkpt>
      <trkpt lat="44.94935" lon="3.97028">
        <ele>978</ele>
        <time>2026-04-28T09:39:38Z</time>
      </trkpt>
      <trkpt lat="44.94933" lon="3.97027">
        <ele>978</ele>
        <time>2026-04-28T09:39:43Z</time>
      </trkpt>
      <trkpt lat="44.94933" lon="3.97027">
        <ele>978</ele>
        <time>2026-04-28T09:39:48Z</time>
      </trkpt>
      <trkpt lat="44.94929" lon="3.97024">
        <ele>977.9</ele>
        <time>2026-04-28T09:39:53Z</time>
      </trkpt>
      <trkpt lat="44.94923" lon="3.97021">
        <ele>977.8</ele>
        <time>2026-04-28T09:39:58Z</time>
      </trkpt>
      <trkpt lat="44.94916" lon="3.97017">
        <ele>977.6</ele>
        <time>2026-04-28T09:40:03Z</time>
      </trkpt>
      <trkpt lat="44.9491" lon="3.97014">
        <ele>977.5</ele>
        <time>2026-04-28T09:40:08Z</time>
      </trkpt>
      <trkpt lat="44.94903" lon="3.97012">
        <ele>977.4</ele>
        <time>2026-04-28T09:40:13Z</time>
      </trkpt>
      <trkpt lat="44.94896" lon="3.97009">
        <ele>977.3</ele>
        <time>2026-04-28T09:40:18Z</time>
      </trkpt>
      <trkpt lat="44.94889" lon="3.97006">
        <ele>977.2</ele>
        <time>2026-04-28T09:40:23Z</time>
      </trkpt>
      <trkpt lat="44.94881" lon="3.97004">
        <ele>977.1</ele>
        <time>2026-04-28T09:40:28Z</time>
      </trkpt>
      <trkpt lat="44.94874" lon="3.97004">
        <ele>977.1</ele>
        <time>2026-04-28T09:40:33Z</time>
      </trkpt>
      <trkpt lat="44.94866" lon="3.97004">
        <ele>977.1</ele>
        <time>2026-04-28T09:40:38Z</time>
      </trkpt>
      <trkpt lat="44.94858" lon="3.97007">
        <ele>977.2</ele>
        <time>2026-04-28T09:40:43Z</time>
      </trkpt>
      <trkpt lat="44.94851" lon="3.97011">
        <ele>977.3</ele>
        <time>2026-04-28T09:40:48Z</time>
      </trkpt>
      <trkpt lat="44.94844" lon="3.97015">
        <ele>977.4</ele>
        <time>2026-04-28T09:40:53Z</time>
      </trkpt>
      <trkpt lat="44.94838" lon="3.97016">
        <ele>977.4</ele>
        <time>2026-04-28T09:40:58Z</time>
      </trkpt>
      <trkpt lat="44.94832" lon="3.97019">
        <ele>977.5</ele>
        <time>2026-04-28T09:41:03Z</time>
      </trkpt>
      <trkpt lat="44.94831" lon="3.97019">
        <ele>977.5</ele>
        <time>2026-04-28T09:41:08Z</time>
      </trkpt>
      <trkpt lat="44.94831" lon="3.97018">
        <ele>977.5</ele>
        <time>2026-04-28T09:41:13Z</time>
      </trkpt>
      <trkpt lat="44.94829" lon="3.9702">
        <ele>977.5</ele>
        <time>2026-04-28T09:41:18Z</time>
      </trkpt>
      <trkpt lat="44.94823" lon="3.9703">
        <ele>977.8</ele>
        <time>2026-04-28T09:41:23Z</time>
      </trkpt>
      <trkpt lat="44.94818" lon="3.97034">
        <ele>978</ele>
        <time>2026-04-28T09:41:28Z</time>
      </trkpt>
      <trkpt lat="44.94812" lon="3.9704">
        <ele>978.2</ele>
        <time>2026-04-28T09:41:33Z</time>
      </trkpt>
      <trkpt lat="44.94806" lon="3.97047">
        <ele>978.5</ele>
        <time>2026-04-28T09:41:38Z</time>
      </trkpt>
      <trkpt lat="44.948" lon="3.97054">
        <ele>978.7</ele>
        <time>2026-04-28T09:41:43Z</time>
      </trkpt>
      <trkpt lat="44.94795" lon="3.9706">
        <ele>978.9</ele>
        <time>2026-04-28T09:41:48Z</time>
      </trkpt>
      <trkpt lat="44.94789" lon="3.97065">
        <ele>979.1</ele>
        <time>2026-04-28T09:41:53Z</time>
      </trkpt>
      <trkpt lat="44.94781" lon="3.97071">
        <ele>979.3</ele>
        <time>2026-04-28T09:41:58Z</time>
      </trkpt>
      <trkpt lat="44.94776" lon="3.97076">
        <ele>979.5</ele>
        <time>2026-04-28T09:42:03Z</time>
      </trkpt>
      <trkpt lat="44.94778" lon="3.97084">
        <ele>979.7</ele>
        <time>2026-04-28T09:42:08Z</time>
      </trkpt>
      <trkpt lat="44.94779" lon="3.97094">
        <ele>980.1</ele>
        <time>2026-04-28T09:42:13Z</time>
      </trkpt>
      <trkpt lat="44.94781" lon="3.97104">
        <ele>980.5</ele>
        <time>2026-04-28T09:42:18Z</time>
      </trkpt>
      <trkpt lat="44.94782" lon="3.97112">
        <ele>980.8</ele>
        <time>2026-04-28T09:42:23Z</time>
      </trkpt>
      <trkpt lat="44.94782" lon="3.97122">
        <ele>981.2</ele>
        <time>2026-04-28T09:42:28Z</time>
      </trkpt>
      <trkpt lat="44.94778" lon="3.97131">
        <ele>981.6</ele>
        <time>2026-04-28T09:42:33Z</time>
      </trkpt>
      <trkpt lat="44.94774" lon="3.97141">
        <ele>982</ele>
        <time>2026-04-28T09:42:38Z</time>
      </trkpt>
      <trkpt lat="44.94768" lon="3.97149">
        <ele>982.3</ele>
        <time>2026-04-28T09:42:43Z</time>
      </trkpt>
      <trkpt lat="44.94762" lon="3.97156">
        <ele>982.6</ele>
        <time>2026-04-28T09:42:48Z</time>
      </trkpt>
      <trkpt lat="44.94756" lon="3.9716">
        <ele>982.8</ele>
        <time>2026-04-28T09:42:53Z</time>
      </trkpt>
      <trkpt lat="44.9475" lon="3.97164">
        <ele>982.9</ele>
        <time>2026-04-28T09:42:58Z</time>
      </trkpt>
      <trkpt lat="44.94743" lon="3.97168">
        <ele>982</ele>
        <time>2026-04-28T09:43:03Z</time>
      </trkpt>
      <trkpt lat="44.94737" lon="3.9717">
        <ele>981.2</ele>
        <time>2026-04-28T09:43:08Z</time>
      </trkpt>
      <trkpt lat="44.94731" lon="3.97172">
        <ele>980.4</ele>
        <time>2026-04-28T09:43:13Z</time>
      </trkpt>
      <trkpt lat="44.9472" lon="3.9717">
        <ele>978.7</ele>
        <time>2026-04-28T09:43:18Z</time>
      </trkpt>
      <trkpt lat="44.94712" lon="3.97169">
        <ele>977.6</ele>
        <time>2026-04-28T09:43:23Z</time>
      </trkpt>
      <trkpt lat="44.94711" lon="3.97167">
        <ele>977.4</ele>
        <time>2026-04-28T09:43:28Z</time>
      </trkpt>
      <trkpt lat="44.94711" lon="3.97167">
        <ele>977.4</ele>
        <time>2026-04-28T09:43:33Z</time>
      </trkpt>
      <trkpt lat="44.94711" lon="3.97167">
        <ele>977.4</ele>
        <time>2026-04-28T09:43:38Z</time>
      </trkpt>
      <trkpt lat="44.94711" lon="3.97167">
        <ele>977.4</ele>
        <time>2026-04-28T09:43:43Z</time>
      </trkpt>
      <trkpt lat="44.94711" lon="3.97167">
        <ele>977.4</ele>
        <time>2026-04-28T09:43:48Z</time>
      </trkpt>
      <trkpt lat="44.94711" lon="3.97167">
        <ele>977.4</ele>
        <time>2026-04-28T09:43:53Z</time>
      </trkpt>
      <trkpt lat="44.94711" lon="3.97167">
        <ele>977.4</ele>
        <time>2026-04-28T09:43:58Z</time>
      </trkpt>
      <trkpt lat="44.94711" lon="3.97167">
        <ele>977.4</ele>
        <time>2026-04-28T09:44:03Z</time>
      </trkpt>
      <trkpt lat="44.94711" lon="3.97167">
        <ele>977.4</ele>
        <time>2026-04-28T09:44:08Z</time>
      </trkpt>
      <trkpt lat="44.94711" lon="3.97167">
        <ele>977.4</ele>
        <time>2026-04-28T09:44:13Z</time>
      </trkpt>
      <trkpt lat="44.94711" lon="3.97167">
        <ele>977.4</ele>
        <time>2026-04-28T09:44:18Z</time>
      </trkpt>
      <trkpt lat="44.94711" lon="3.97167">
        <ele>977.4</ele>
        <time>2026-04-28T09:44:23Z</time>
      </trkpt>
      <trkpt lat="44.94711" lon="3.97167">
        <ele>977.4</ele>
        <time>2026-04-28T09:44:28Z</time>
      </trkpt>
      <trkpt lat="44.94711" lon="3.97167">
        <ele>977.4</ele>
        <time>2026-04-28T09:44:33Z</time>
      </trkpt>
      <trkpt lat="44.94711" lon="3.97167">
        <ele>977.4</ele>
        <time>2026-04-28T09:44:38Z</time>
      </trkpt>
      <trkpt lat="44.94709" lon="3.97168">
        <ele>977.1</ele>
        <time>2026-04-28T09:44:43Z</time>
      </trkpt>
      <trkpt lat="44.94704" lon="3.9717">
        <ele>976.4</ele>
        <time>2026-04-28T09:44:48Z</time>
      </trkpt>
      <trkpt lat="44.94698" lon="3.97175">
        <ele>975.6</ele>
        <time>2026-04-28T09:44:53Z</time>
      </trkpt>
      <trkpt lat="44.94692" lon="3.97177">
        <ele>974.7</ele>
        <time>2026-04-28T09:44:58Z</time>
      </trkpt>
      <trkpt lat="44.94685" lon="3.97179">
        <ele>973.7</ele>
        <time>2026-04-28T09:45:03Z</time>
      </trkpt>
      <trkpt lat="44.94679" lon="3.97179">
        <ele>972.8</ele>
        <time>2026-04-28T09:45:08Z</time>
      </trkpt>
      <trkpt lat="44.94671" lon="3.9718">
        <ele>971.6</ele>
        <time>2026-04-28T09:45:13Z</time>
      </trkpt>
      <trkpt lat="44.94664" lon="3.97182">
        <ele>970</ele>
        <time>2026-04-28T09:45:18Z</time>
      </trkpt>
      <trkpt lat="44.94658" lon="3.97185">
        <ele>967.7</ele>
        <time>2026-04-28T09:45:23Z</time>
      </trkpt>
      <trkpt lat="44.94653" lon="3.97191">
        <ele>965.8</ele>
        <time>2026-04-28T09:45:28Z</time>
      </trkpt>
      <trkpt lat="44.94645" lon="3.97196">
        <ele>962.9</ele>
        <time>2026-04-28T09:45:33Z</time>
      </trkpt>
      <trkpt lat="44.94639" lon="3.972">
        <ele>960.6</ele>
        <time>2026-04-28T09:45:38Z</time>
      </trkpt>
      <trkpt lat="44.94634" lon="3.97206">
        <ele>958.8</ele>
        <time>2026-04-28T09:45:43Z</time>
      </trkpt>
      <trkpt lat="44.94628" lon="3.97213">
        <ele>956.7</ele>
        <time>2026-04-28T09:45:48Z</time>
      </trkpt>
      <trkpt lat="44.94622" lon="3.97216">
        <ele>954.5</ele>
        <time>2026-04-28T09:45:53Z</time>
      </trkpt>
      <trkpt lat="44.94618" lon="3.97212">
        <ele>952.9</ele>
        <time>2026-04-28T09:45:58Z</time>
      </trkpt>
      <trkpt lat="44.94614" lon="3.97207">
        <ele>951.4</ele>
        <time>2026-04-28T09:46:03Z</time>
      </trkpt>
      <trkpt lat="44.9461" lon="3.97203">
        <ele>949.8</ele>
        <time>2026-04-28T09:46:08Z</time>
      </trkpt>
      <trkpt lat="44.94605" lon="3.97202">
        <ele>947.9</ele>
        <time>2026-04-28T09:46:13Z</time>
      </trkpt>
      <trkpt lat="44.94603" lon="3.97202">
        <ele>947.2</ele>
        <time>2026-04-28T09:46:18Z</time>
      </trkpt>
      <trkpt lat="44.94603" lon="3.97202">
        <ele>947.2</ele>
        <time>2026-04-28T09:46:23Z</time>
      </trkpt>
      <trkpt lat="44.94603" lon="3.97202">
        <ele>947.2</ele>
        <time>2026-04-28T09:46:28Z</time>
      </trkpt>
      <trkpt lat="44.94603" lon="3.97202">
        <ele>947.2</ele>
        <time>2026-04-28T09:46:33Z</time>
      </trkpt>
      <trkpt lat="44.94603" lon="3.97202">
        <ele>947.2</ele>
        <time>2026-04-28T09:46:38Z</time>
      </trkpt>
      <trkpt lat="44.94603" lon="3.97202">
        <ele>947.2</ele>
        <time>2026-04-28T09:46:43Z</time>
      </trkpt>
      <trkpt lat="44.94603" lon="3.97202">
        <ele>947.2</ele>
        <time>2026-04-28T09:46:48Z</time>
      </trkpt>
      <trkpt lat="44.94603" lon="3.97202">
        <ele>947.2</ele>
        <time>2026-04-28T09:46:53Z</time>
      </trkpt>
      <trkpt lat="44.94603" lon="3.97202">
        <ele>947.2</ele>
        <time>2026-04-28T09:46:58Z</time>
      </trkpt>
      <trkpt lat="44.94603" lon="3.97202">
        <ele>947.2</ele>
        <time>2026-04-28T09:47:03Z</time>
      </trkpt>
      <trkpt lat="44.946" lon="3.97211">
        <ele>946.3</ele>
        <time>2026-04-28T09:47:08Z</time>
      </trkpt>
      <trkpt lat="44.946" lon="3.97219">
        <ele>946.4</ele>
        <time>2026-04-28T09:47:13Z</time>
      </trkpt>
      <trkpt lat="44.94602" lon="3.97224">
        <ele>947.2</ele>
        <time>2026-04-28T09:47:18Z</time>
      </trkpt>
      <trkpt lat="44.94602" lon="3.97234">
        <ele>947.4</ele>
        <time>2026-04-28T09:47:23Z</time>
      </trkpt>
      <trkpt lat="44.94603" lon="3.97242">
        <ele>947.9</ele>
        <time>2026-04-28T09:47:28Z</time>
      </trkpt>
      <trkpt lat="44.94603" lon="3.97244">
        <ele>948</ele>
        <time>2026-04-28T09:47:33Z</time>
      </trkpt>
      <trkpt lat="44.94603" lon="3.97247">
        <ele>948</ele>
        <time>2026-04-28T09:47:38Z</time>
      </trkpt>
      <trkpt lat="44.94602" lon="3.97257">
        <ele>947.9</ele>
        <time>2026-04-28T09:47:43Z</time>
      </trkpt>
      <trkpt lat="44.94601" lon="3.97265">
        <ele>947.8</ele>
        <time>2026-04-28T09:47:48Z</time>
      </trkpt>
      <trkpt lat="44.946" lon="3.97275">
        <ele>947.7</ele>
        <time>2026-04-28T09:47:53Z</time>
      </trkpt>
      <trkpt lat="44.94597" lon="3.97285">
        <ele>946.9</ele>
        <time>2026-04-28T09:47:58Z</time>
      </trkpt>
      <trkpt lat="44.94595" lon="3.97295">
        <ele>946.4</ele>
        <time>2026-04-28T09:48:03Z</time>
      </trkpt>
      <trkpt lat="44.94593" lon="3.97303">
        <ele>945.9</ele>
        <time>2026-04-28T09:48:08Z</time>
      </trkpt>
      <trkpt lat="44.9459" lon="3.97312">
        <ele>945</ele>
        <time>2026-04-28T09:48:13Z</time>
      </trkpt>
      <trkpt lat="44.94588" lon="3.97324">
        <ele>944.6</ele>
        <time>2026-04-28T09:48:18Z</time>
      </trkpt>
      <trkpt lat="44.94587" lon="3.9733">
        <ele>944.3</ele>
        <time>2026-04-28T09:48:23Z</time>
      </trkpt>
      <trkpt lat="44.94586" lon="3.97332">
        <ele>944</ele>
        <time>2026-04-28T09:48:28Z</time>
      </trkpt>
      <trkpt lat="44.94586" lon="3.97332">
        <ele>944</ele>
        <time>2026-04-28T09:48:33Z</time>
      </trkpt>
      <trkpt lat="44.94586" lon="3.97332">
        <ele>944</ele>
        <time>2026-04-28T09:48:38Z</time>
      </trkpt>
      <trkpt lat="44.94586" lon="3.97332">
        <ele>944</ele>
        <time>2026-04-28T09:48:43Z</time>
      </trkpt>
      <trkpt lat="44.94586" lon="3.97332">
        <ele>944</ele>
        <time>2026-04-28T09:48:48Z</time>
      </trkpt>
      <trkpt lat="44.94588" lon="3.97337">
        <ele>945</ele>
        <time>2026-04-28T09:48:53Z</time>
      </trkpt>
      <trkpt lat="44.94589" lon="3.97344">
        <ele>945.8</ele>
        <time>2026-04-28T09:48:58Z</time>
      </trkpt>
      <trkpt lat="44.94589" lon="3.97352">
        <ele>946.3</ele>
        <time>2026-04-28T09:49:03Z</time>
      </trkpt>
      <trkpt lat="44.9459" lon="3.97354">
        <ele>946.8</ele>
        <time>2026-04-28T09:49:08Z</time>
      </trkpt>
      <trkpt lat="44.94591" lon="3.97354">
        <ele>947.2</ele>
        <time>2026-04-28T09:49:13Z</time>
      </trkpt>
      <trkpt lat="44.94591" lon="3.97354">
        <ele>947.2</ele>
        <time>2026-04-28T09:49:18Z</time>
      </trkpt>
      <trkpt lat="44.94591" lon="3.97361">
        <ele>947.6</ele>
        <time>2026-04-28T09:49:23Z</time>
      </trkpt>
      <trkpt lat="44.94593" lon="3.97368">
        <ele>948.7</ele>
        <time>2026-04-28T09:49:28Z</time>
      </trkpt>
      <trkpt lat="44.94595" lon="3.97377">
        <ele>950</ele>
        <time>2026-04-28T09:49:33Z</time>
      </trkpt>
      <trkpt lat="44.94594" lon="3.97387">
        <ele>950.2</ele>
        <time>2026-04-28T09:49:38Z</time>
      </trkpt>
      <trkpt lat="44.94595" lon="3.97396">
        <ele>951.1</ele>
        <time>2026-04-28T09:49:43Z</time>
      </trkpt>
      <trkpt lat="44.94596" lon="3.97403">
        <ele>951.9</ele>
        <time>2026-04-28T09:49:48Z</time>
      </trkpt>
      <trkpt lat="44.94596" lon="3.97413">
        <ele>952.5</ele>
        <time>2026-04-28T09:49:53Z</time>
      </trkpt>
      <trkpt lat="44.94595" lon="3.97424">
        <ele>952.6</ele>
        <time>2026-04-28T09:49:58Z</time>
      </trkpt>
      <trkpt lat="44.94596" lon="3.97433">
        <ele>953.2</ele>
        <time>2026-04-28T09:50:03Z</time>
      </trkpt>
      <trkpt lat="44.94596" lon="3.97446">
        <ele>953.6</ele>
        <time>2026-04-28T09:50:08Z</time>
      </trkpt>
      <trkpt lat="44.94599" lon="3.97457">
        <ele>955</ele>
        <time>2026-04-28T09:50:13Z</time>
      </trkpt>
      <trkpt lat="44.94601" lon="3.97468">
        <ele>956</ele>
        <time>2026-04-28T09:50:18Z</time>
      </trkpt>
      <trkpt lat="44.94603" lon="3.97479">
        <ele>957</ele>
        <time>2026-04-28T09:50:23Z</time>
      </trkpt>
      <trkpt lat="44.94604" lon="3.97489">
        <ele>957.6</ele>
        <time>2026-04-28T09:50:28Z</time>
      </trkpt>
      <trkpt lat="44.94606" lon="3.97501">
        <ele>958.6</ele>
        <time>2026-04-28T09:50:33Z</time>
      </trkpt>
      <trkpt lat="44.94608" lon="3.97511">
        <ele>959.3</ele>
        <time>2026-04-28T09:50:38Z</time>
      </trkpt>
      <trkpt lat="44.94609" lon="3.97522">
        <ele>959.6</ele>
        <time>2026-04-28T09:50:43Z</time>
      </trkpt>
      <trkpt lat="44.94611" lon="3.97533">
        <ele>960.2</ele>
        <time>2026-04-28T09:50:48Z</time>
      </trkpt>
      <trkpt lat="44.94611" lon="3.97544">
        <ele>960.1</ele>
        <time>2026-04-28T09:50:53Z</time>
      </trkpt>
      <trkpt lat="44.94611" lon="3.97553">
        <ele>960.1</ele>
        <time>2026-04-28T09:50:58Z</time>
      </trkpt>
      <trkpt lat="44.9461" lon="3.97564">
        <ele>959.8</ele>
        <time>2026-04-28T09:51:03Z</time>
      </trkpt>
      <trkpt lat="44.9461" lon="3.97574">
        <ele>959.7</ele>
        <time>2026-04-28T09:51:08Z</time>
      </trkpt>
      <trkpt lat="44.94612" lon="3.97584">
        <ele>960.2</ele>
        <time>2026-04-28T09:51:13Z</time>
      </trkpt>
      <trkpt lat="44.94614" lon="3.97595">
        <ele>960.2</ele>
        <time>2026-04-28T09:51:18Z</time>
      </trkpt>
      <trkpt lat="44.94616" lon="3.97605">
        <ele>960.2</ele>
        <time>2026-04-28T09:51:23Z</time>
      </trkpt>
      <trkpt lat="44.94618" lon="3.97615">
        <ele>960.2</ele>
        <time>2026-04-28T09:51:28Z</time>
      </trkpt>
      <trkpt lat="44.94619" lon="3.97626">
        <ele>959.9</ele>
        <time>2026-04-28T09:51:33Z</time>
      </trkpt>
      <trkpt lat="44.94619" lon="3.97637">
        <ele>959.4</ele>
        <time>2026-04-28T09:51:38Z</time>
      </trkpt>
      <trkpt lat="44.94619" lon="3.97646">
        <ele>959</ele>
        <time>2026-04-28T09:51:43Z</time>
      </trkpt>
      <trkpt lat="44.94618" lon="3.97655">
        <ele>958.3</ele>
        <time>2026-04-28T09:51:48Z</time>
      </trkpt>
      <trkpt lat="44.94615" lon="3.97664">
        <ele>957.1</ele>
        <time>2026-04-28T09:51:53Z</time>
      </trkpt>
      <trkpt lat="44.94614" lon="3.97671">
        <ele>956.7</ele>
        <time>2026-04-28T09:51:58Z</time>
      </trkpt>
      <trkpt lat="44.94613" lon="3.97671">
        <ele>956.5</ele>
        <time>2026-04-28T09:52:03Z</time>
      </trkpt>
      <trkpt lat="44.94613" lon="3.97671">
        <ele>956.5</ele>
        <time>2026-04-28T09:52:08Z</time>
      </trkpt>
      <trkpt lat="44.94613" lon="3.97671">
        <ele>956.5</ele>
        <time>2026-04-28T09:52:13Z</time>
      </trkpt>
      <trkpt lat="44.94613" lon="3.97671">
        <ele>956.5</ele>
        <time>2026-04-28T09:52:18Z</time>
      </trkpt>
      <trkpt lat="44.94613" lon="3.97671">
        <ele>956.5</ele>
        <time>2026-04-28T09:52:23Z</time>
      </trkpt>
      <trkpt lat="44.94613" lon="3.97671">
        <ele>956.5</ele>
        <time>2026-04-28T09:52:28Z</time>
      </trkpt>
      <trkpt lat="44.94613" lon="3.97671">
        <ele>956.5</ele>
        <time>2026-04-28T09:52:33Z</time>
      </trkpt>
      <trkpt lat="44.94615" lon="3.97679">
        <ele>956.9</ele>
        <time>2026-04-28T09:52:38Z</time>
      </trkpt>
      <trkpt lat="44.94619" lon="3.97685">
        <ele>957.9</ele>
        <time>2026-04-28T09:52:43Z</time>
      </trkpt>
      <trkpt lat="44.94624" lon="3.97692">
        <ele>959.1</ele>
        <time>2026-04-28T09:52:48Z</time>
      </trkpt>
      <trkpt lat="44.94624" lon="3.97696">
        <ele>959.1</ele>
        <time>2026-04-28T09:52:53Z</time>
      </trkpt>
      <trkpt lat="44.94625" lon="3.97698">
        <ele>959.3</ele>
        <time>2026-04-28T09:52:58Z</time>
      </trkpt>
      <trkpt lat="44.94627" lon="3.97703">
        <ele>959.8</ele>
        <time>2026-04-28T09:53:03Z</time>
      </trkpt>
      <trkpt lat="44.94628" lon="3.97703">
        <ele>960</ele>
        <time>2026-04-28T09:53:08Z</time>
      </trkpt>
      <trkpt lat="44.94629" lon="3.9771">
        <ele>960.2</ele>
        <time>2026-04-28T09:53:13Z</time>
      </trkpt>
      <trkpt lat="44.94627" lon="3.97717">
        <ele>959.7</ele>
        <time>2026-04-28T09:53:18Z</time>
      </trkpt>
      <trkpt lat="44.94627" lon="3.97717">
        <ele>959.7</ele>
        <time>2026-04-28T09:53:23Z</time>
      </trkpt>
      <trkpt lat="44.94626" lon="3.97719">
        <ele>959.4</ele>
        <time>2026-04-28T09:53:28Z</time>
      </trkpt>
      <trkpt lat="44.94626" lon="3.97719">
        <ele>959.4</ele>
        <time>2026-04-28T09:53:33Z</time>
      </trkpt>
      <trkpt lat="44.94626" lon="3.97719">
        <ele>959.4</ele>
        <time>2026-04-28T09:53:38Z</time>
      </trkpt>
      <trkpt lat="44.94628" lon="3.97729">
        <ele>959.9</ele>
        <time>2026-04-28T09:53:43Z</time>
      </trkpt>
      <trkpt lat="44.9463" lon="3.9774">
        <ele>960.3</ele>
        <time>2026-04-28T09:53:48Z</time>
      </trkpt>
      <trkpt lat="44.94629" lon="3.97747">
        <ele>960</ele>
        <time>2026-04-28T09:53:53Z</time>
      </trkpt>
      <trkpt lat="44.94629" lon="3.97756">
        <ele>960</ele>
        <time>2026-04-28T09:53:58Z</time>
      </trkpt>
      <trkpt lat="44.9463" lon="3.97764">
        <ele>960.4</ele>
        <time>2026-04-28T09:54:03Z</time>
      </trkpt>
      <trkpt lat="44.9463" lon="3.97773">
        <ele>960.5</ele>
        <time>2026-04-28T09:54:08Z</time>
      </trkpt>
      <trkpt lat="44.94631" lon="3.97782">
        <ele>960.9</ele>
        <time>2026-04-28T09:54:13Z</time>
      </trkpt>
      <trkpt lat="44.9463" lon="3.97791">
        <ele>960.8</ele>
        <time>2026-04-28T09:54:18Z</time>
      </trkpt>
      <trkpt lat="44.9463" lon="3.97803">
        <ele>961</ele>
        <time>2026-04-28T09:54:23Z</time>
      </trkpt>
      <trkpt lat="44.94631" lon="3.97811">
        <ele>961.4</ele>
        <time>2026-04-28T09:54:28Z</time>
      </trkpt>
      <trkpt lat="44.94629" lon="3.97819">
        <ele>960.9</ele>
        <time>2026-04-28T09:54:33Z</time>
      </trkpt>
      <trkpt lat="44.94627" lon="3.97828">
        <ele>960.5</ele>
        <time>2026-04-28T09:54:38Z</time>
      </trkpt>
      <trkpt lat="44.94627" lon="3.97839">
        <ele>960.7</ele>
        <time>2026-04-28T09:54:43Z</time>
      </trkpt>
      <trkpt lat="44.94627" lon="3.97848">
        <ele>961</ele>
        <time>2026-04-28T09:54:48Z</time>
      </trkpt>
      <trkpt lat="44.94626" lon="3.97856">
        <ele>961</ele>
        <time>2026-04-28T09:54:53Z</time>
      </trkpt>
      <trkpt lat="44.94626" lon="3.97864">
        <ele>961.2</ele>
        <time>2026-04-28T09:54:58Z</time>
      </trkpt>
      <trkpt lat="44.94625" lon="3.97873">
        <ele>961.2</ele>
        <time>2026-04-28T09:55:03Z</time>
      </trkpt>
      <trkpt lat="44.94623" lon="3.97883">
        <ele>960.9</ele>
        <time>2026-04-28T09:55:08Z</time>
      </trkpt>
      <trkpt lat="44.94622" lon="3.97891">
        <ele>960.8</ele>
        <time>2026-04-28T09:55:13Z</time>
      </trkpt>
      <trkpt lat="44.9462" lon="3.97901">
        <ele>960.5</ele>
        <time>2026-04-28T09:55:18Z</time>
      </trkpt>
      <trkpt lat="44.94618" lon="3.97909">
        <ele>960.2</ele>
        <time>2026-04-28T09:55:23Z</time>
      </trkpt>
      <trkpt lat="44.94616" lon="3.97918">
        <ele>959.9</ele>
        <time>2026-04-28T09:55:28Z</time>
      </trkpt>
      <trkpt lat="44.94616" lon="3.97928">
        <ele>960.3</ele>
        <time>2026-04-28T09:55:33Z</time>
      </trkpt>
      <trkpt lat="44.94616" lon="3.97938">
        <ele>960.7</ele>
        <time>2026-04-28T09:55:38Z</time>
      </trkpt>
      <trkpt lat="44.94616" lon="3.97948">
        <ele>961.1</ele>
        <time>2026-04-28T09:55:43Z</time>
      </trkpt>
      <trkpt lat="44.94617" lon="3.97958">
        <ele>961.9</ele>
        <time>2026-04-28T09:55:48Z</time>
      </trkpt>
      <trkpt lat="44.94617" lon="3.97967">
        <ele>962.3</ele>
        <time>2026-04-28T09:55:53Z</time>
      </trkpt>
      <trkpt lat="44.94615" lon="3.97978">
        <ele>962.1</ele>
        <time>2026-04-28T09:55:58Z</time>
      </trkpt>
      <trkpt lat="44.94615" lon="3.97985">
        <ele>962.4</ele>
        <time>2026-04-28T09:56:03Z</time>
      </trkpt>
      <trkpt lat="44.94613" lon="3.97996">
        <ele>962.2</ele>
        <time>2026-04-28T09:56:08Z</time>
      </trkpt>
      <trkpt lat="44.94614" lon="3.98005">
        <ele>962.6</ele>
        <time>2026-04-28T09:56:13Z</time>
      </trkpt>
      <trkpt lat="44.94613" lon="3.98016">
        <ele>962.2</ele>
        <time>2026-04-28T09:56:18Z</time>
      </trkpt>
      <trkpt lat="44.94612" lon="3.98023">
        <ele>961.8</ele>
        <time>2026-04-28T09:56:23Z</time>
      </trkpt>
      <trkpt lat="44.94613" lon="3.98029">
        <ele>962.1</ele>
        <time>2026-04-28T09:56:28Z</time>
      </trkpt>
      <trkpt lat="44.94614" lon="3.98037">
        <ele>962.3</ele>
        <time>2026-04-28T09:56:33Z</time>
      </trkpt>
      <trkpt lat="44.94614" lon="3.98046">
        <ele>962.3</ele>
        <time>2026-04-28T09:56:38Z</time>
      </trkpt>
      <trkpt lat="44.94614" lon="3.98052">
        <ele>962.2</ele>
        <time>2026-04-28T09:56:43Z</time>
      </trkpt>
      <trkpt lat="44.94613" lon="3.98059">
        <ele>961.8</ele>
        <time>2026-04-28T09:56:48Z</time>
      </trkpt>
      <trkpt lat="44.94613" lon="3.98065">
        <ele>961.8</ele>
        <time>2026-04-28T09:56:53Z</time>
      </trkpt>
      <trkpt lat="44.94612" lon="3.98069">
        <ele>961.4</ele>
        <time>2026-04-28T09:56:58Z</time>
      </trkpt>
      <trkpt lat="44.94611" lon="3.9807">
        <ele>961.1</ele>
        <time>2026-04-28T09:57:03Z</time>
      </trkpt>
      <trkpt lat="44.94611" lon="3.9807">
        <ele>961.1</ele>
        <time>2026-04-28T09:57:08Z</time>
      </trkpt>
      <trkpt lat="44.9461" lon="3.98074">
        <ele>960.7</ele>
        <time>2026-04-28T09:57:13Z</time>
      </trkpt>
      <trkpt lat="44.94608" lon="3.98081">
        <ele>960</ele>
        <time>2026-04-28T09:57:18Z</time>
      </trkpt>
      <trkpt lat="44.94607" lon="3.98088">
        <ele>959.7</ele>
        <time>2026-04-28T09:57:23Z</time>
      </trkpt>
      <trkpt lat="44.94607" lon="3.98097">
        <ele>959.8</ele>
        <time>2026-04-28T09:57:28Z</time>
      </trkpt>
      <trkpt lat="44.94609" lon="3.98103">
        <ele>960.5</ele>
        <time>2026-04-28T09:57:33Z</time>
      </trkpt>
      <trkpt lat="44.94612" lon="3.98105">
        <ele>961.5</ele>
        <time>2026-04-28T09:57:38Z</time>
      </trkpt>
      <trkpt lat="44.94612" lon="3.98111">
        <ele>961.5</ele>
        <time>2026-04-28T09:57:43Z</time>
      </trkpt>
      <trkpt lat="44.94614" lon="3.98119">
        <ele>962.2</ele>
        <time>2026-04-28T09:57:48Z</time>
      </trkpt>
      <trkpt lat="44.94614" lon="3.98126">
        <ele>962.2</ele>
        <time>2026-04-28T09:57:53Z</time>
      </trkpt>
      <trkpt lat="44.94617" lon="3.98135">
        <ele>963.1</ele>
        <time>2026-04-28T09:57:58Z</time>
      </trkpt>
      <trkpt lat="44.94616" lon="3.98143">
        <ele>962.9</ele>
        <time>2026-04-28T09:58:03Z</time>
      </trkpt>
      <trkpt lat="44.94618" lon="3.98151">
        <ele>963.5</ele>
        <time>2026-04-28T09:58:08Z</time>
      </trkpt>
      <trkpt lat="44.94618" lon="3.9816">
        <ele>963.5</ele>
        <time>2026-04-28T09:58:13Z</time>
      </trkpt>
      <trkpt lat="44.9462" lon="3.98163">
        <ele>964.1</ele>
        <time>2026-04-28T09:58:18Z</time>
      </trkpt>
      <trkpt lat="44.9462" lon="3.98166">
        <ele>964.1</ele>
        <time>2026-04-28T09:58:23Z</time>
      </trkpt>
      <trkpt lat="44.94619" lon="3.98177">
        <ele>963.2</ele>
        <time>2026-04-28T09:58:28Z</time>
      </trkpt>
      <trkpt lat="44.94619" lon="3.98186">
        <ele>962.6</ele>
        <time>2026-04-28T09:58:33Z</time>
      </trkpt>
      <trkpt lat="44.94621" lon="3.98193">
        <ele>962.7</ele>
        <time>2026-04-28T09:58:38Z</time>
      </trkpt>
      <trkpt lat="44.94622" lon="3.98198">
        <ele>962.6</ele>
        <time>2026-04-28T09:58:43Z</time>
      </trkpt>
      <trkpt lat="44.94623" lon="3.98201">
        <ele>962.7</ele>
        <time>2026-04-28T09:58:48Z</time>
      </trkpt>
      <trkpt lat="44.94625" lon="3.98207">
        <ele>962.8</ele>
        <time>2026-04-28T09:58:53Z</time>
      </trkpt>
      <trkpt lat="44.94628" lon="3.98213">
        <ele>963.2</ele>
        <time>2026-04-28T09:58:58Z</time>
      </trkpt>
      <trkpt lat="44.94629" lon="3.9822">
        <ele>963.1</ele>
        <time>2026-04-28T09:59:03Z</time>
      </trkpt>
      <trkpt lat="44.9463" lon="3.98227">
        <ele>962.9</ele>
        <time>2026-04-28T09:59:08Z</time>
      </trkpt>
      <trkpt lat="44.94632" lon="3.98235">
        <ele>962.9</ele>
        <time>2026-04-28T09:59:13Z</time>
      </trkpt>
      <trkpt lat="44.94635" lon="3.98242">
        <ele>963.2</ele>
        <time>2026-04-28T09:59:18Z</time>
      </trkpt>
      <trkpt lat="44.94636" lon="3.98246">
        <ele>963.2</ele>
        <time>2026-04-28T09:59:23Z</time>
      </trkpt>
      <trkpt lat="44.94638" lon="3.9825">
        <ele>963.4</ele>
        <time>2026-04-28T09:59:28Z</time>
      </trkpt>
      <trkpt lat="44.9464" lon="3.98253">
        <ele>963.8</ele>
        <time>2026-04-28T09:59:33Z</time>
      </trkpt>
      <trkpt lat="44.94641" lon="3.98257">
        <ele>963.8</ele>
        <time>2026-04-28T09:59:38Z</time>
      </trkpt>
      <trkpt lat="44.94643" lon="3.98258">
        <ele>964.2</ele>
        <time>2026-04-28T09:59:43Z</time>
      </trkpt>
      <trkpt lat="44.94645" lon="3.98261">
        <ele>964.5</ele>
        <time>2026-04-28T09:59:48Z</time>
      </trkpt>
      <trkpt lat="44.94646" lon="3.98263">
        <ele>964.6</ele>
        <time>2026-04-28T09:59:53Z</time>
      </trkpt>
      <trkpt lat="44.94648" lon="3.98266">
        <ele>964.9</ele>
        <time>2026-04-28T09:59:58Z</time>
      </trkpt>
      <trkpt lat="44.94649" lon="3.9827">
        <ele>964.9</ele>
        <time>2026-04-28T10:00:03Z</time>
      </trkpt>
      <trkpt lat="44.94651" lon="3.98274">
        <ele>965.1</ele>
        <time>2026-04-28T10:00:08Z</time>
      </trkpt>
      <trkpt lat="44.94654" lon="3.98275">
        <ele>965.8</ele>
        <time>2026-04-28T10:00:13Z</time>
      </trkpt>
      <trkpt lat="44.94657" lon="3.98277">
        <ele>966.4</ele>
        <time>2026-04-28T10:00:18Z</time>
      </trkpt>
      <trkpt lat="44.9466" lon="3.9828">
        <ele>966.9</ele>
        <time>2026-04-28T10:00:23Z</time>
      </trkpt>
      <trkpt lat="44.94661" lon="3.98286">
        <ele>966.6</ele>
        <time>2026-04-28T10:00:28Z</time>
      </trkpt>
      <trkpt lat="44.94662" lon="3.98293">
        <ele>966.3</ele>
        <time>2026-04-28T10:00:33Z</time>
      </trkpt>
      <trkpt lat="44.94663" lon="3.98299">
        <ele>966</ele>
        <time>2026-04-28T10:00:38Z</time>
      </trkpt>
      <trkpt lat="44.94664" lon="3.983">
        <ele>966.2</ele>
        <time>2026-04-28T10:00:43Z</time>
      </trkpt>
      <trkpt lat="44.94664" lon="3.983">
        <ele>966.2</ele>
        <time>2026-04-28T10:00:48Z</time>
      </trkpt>
      <trkpt lat="44.94664" lon="3.983">
        <ele>966.2</ele>
        <time>2026-04-28T10:00:53Z</time>
      </trkpt>
      <trkpt lat="44.94664" lon="3.983">
        <ele>966.2</ele>
        <time>2026-04-28T10:00:58Z</time>
      </trkpt>
      <trkpt lat="44.94664" lon="3.983">
        <ele>966.2</ele>
        <time>2026-04-28T10:01:03Z</time>
      </trkpt>
      <trkpt lat="44.94664" lon="3.983">
        <ele>966.2</ele>
        <time>2026-04-28T10:01:08Z</time>
      </trkpt>
      <trkpt lat="44.94664" lon="3.983">
        <ele>966.2</ele>
        <time>2026-04-28T10:01:13Z</time>
      </trkpt>
      <trkpt lat="44.94664" lon="3.983">
        <ele>966.2</ele>
        <time>2026-04-28T10:01:18Z</time>
      </trkpt>
      <trkpt lat="44.94665" lon="3.98307">
        <ele>965.8</ele>
        <time>2026-04-28T10:01:23Z</time>
      </trkpt>
      <trkpt lat="44.94666" lon="3.98313">
        <ele>965.6</ele>
        <time>2026-04-28T10:01:28Z</time>
      </trkpt>
      <trkpt lat="44.94667" lon="3.98317">
        <ele>965.4</ele>
        <time>2026-04-28T10:01:33Z</time>
      </trkpt>
      <trkpt lat="44.94666" lon="3.9832">
        <ele>965</ele>
        <time>2026-04-28T10:01:38Z</time>
      </trkpt>
      <trkpt lat="44.94667" lon="3.98324">
        <ele>964.8</ele>
        <time>2026-04-28T10:01:43Z</time>
      </trkpt>
      <trkpt lat="44.94668" lon="3.9833">
        <ele>964.3</ele>
        <time>2026-04-28T10:01:48Z</time>
      </trkpt>
      <trkpt lat="44.94667" lon="3.98334">
        <ele>963.9</ele>
        <time>2026-04-28T10:01:53Z</time>
      </trkpt>
      <trkpt lat="44.94668" lon="3.9834">
        <ele>963</ele>
        <time>2026-04-28T10:01:58Z</time>
      </trkpt>
      <trkpt lat="44.9467" lon="3.98347">
        <ele>962</ele>
        <time>2026-04-28T10:02:03Z</time>
      </trkpt>
      <trkpt lat="44.94668" lon="3.98353">
        <ele>961</ele>
        <time>2026-04-28T10:02:08Z</time>
      </trkpt>
      <trkpt lat="44.94668" lon="3.98359">
        <ele>960</ele>
        <time>2026-04-28T10:02:13Z</time>
      </trkpt>
      <trkpt lat="44.94668" lon="3.98364">
        <ele>959.3</ele>
        <time>2026-04-28T10:02:18Z</time>
      </trkpt>
      <trkpt lat="44.94669" lon="3.9837">
        <ele>958.4</ele>
        <time>2026-04-28T10:02:23Z</time>
      </trkpt>
      <trkpt lat="44.94668" lon="3.98375">
        <ele>957.6</ele>
        <time>2026-04-28T10:02:28Z</time>
      </trkpt>
      <trkpt lat="44.94668" lon="3.98382">
        <ele>956.5</ele>
        <time>2026-04-28T10:02:33Z</time>
      </trkpt>
      <trkpt lat="44.94666" lon="3.98388">
        <ele>955.4</ele>
        <time>2026-04-28T10:02:38Z</time>
      </trkpt>
      <trkpt lat="44.94666" lon="3.98394">
        <ele>954.4</ele>
        <time>2026-04-28T10:02:43Z</time>
      </trkpt>
      <trkpt lat="44.94666" lon="3.98401">
        <ele>953.4</ele>
        <time>2026-04-28T10:02:48Z</time>
      </trkpt>
      <trkpt lat="44.94665" lon="3.98408">
        <ele>952.1</ele>
        <time>2026-04-28T10:02:53Z</time>
      </trkpt>
      <trkpt lat="44.94664" lon="3.98416">
        <ele>950.8</ele>
        <time>2026-04-28T10:02:58Z</time>
      </trkpt>
      <trkpt lat="44.94666" lon="3.98425">
        <ele>949.6</ele>
        <time>2026-04-28T10:03:03Z</time>
      </trkpt>
      <trkpt lat="44.94667" lon="3.98433">
        <ele>948.5</ele>
        <time>2026-04-28T10:03:08Z</time>
      </trkpt>
      <trkpt lat="44.94671" lon="3.98443">
        <ele>947.1</ele>
        <time>2026-04-28T10:03:13Z</time>
      </trkpt>
      <trkpt lat="44.94676" lon="3.98447">
        <ele>946.8</ele>
        <time>2026-04-28T10:03:18Z</time>
      </trkpt>
      <trkpt lat="44.94679" lon="3.98452">
        <ele>946.2</ele>
        <time>2026-04-28T10:03:23Z</time>
      </trkpt>
      <trkpt lat="44.94682" lon="3.98456">
        <ele>945.8</ele>
        <time>2026-04-28T10:03:28Z</time>
      </trkpt>
      <trkpt lat="44.94686" lon="3.98462">
        <ele>945.1</ele>
        <time>2026-04-28T10:03:33Z</time>
      </trkpt>
      <trkpt lat="44.94687" lon="3.98468">
        <ele>944.3</ele>
        <time>2026-04-28T10:03:38Z</time>
      </trkpt>
      <trkpt lat="44.94687" lon="3.98473">
        <ele>943.5</ele>
        <time>2026-04-28T10:03:43Z</time>
      </trkpt>
      <trkpt lat="44.94685" lon="3.98479">
        <ele>942.5</ele>
        <time>2026-04-28T10:03:48Z</time>
      </trkpt>
      <trkpt lat="44.94684" lon="3.98486">
        <ele>941.4</ele>
        <time>2026-04-28T10:03:53Z</time>
      </trkpt>
      <trkpt lat="44.94682" lon="3.98492">
        <ele>940.3</ele>
        <time>2026-04-28T10:03:58Z</time>
      </trkpt>
      <trkpt lat="44.94681" lon="3.98498">
        <ele>939.3</ele>
        <time>2026-04-28T10:04:03Z</time>
      </trkpt>
      <trkpt lat="44.94681" lon="3.98504">
        <ele>938.5</ele>
        <time>2026-04-28T10:04:08Z</time>
      </trkpt>
      <trkpt lat="44.94678" lon="3.98512">
        <ele>937.3</ele>
        <time>2026-04-28T10:04:13Z</time>
      </trkpt>
      <trkpt lat="44.94675" lon="3.98518">
        <ele>936.3</ele>
        <time>2026-04-28T10:04:18Z</time>
      </trkpt>
      <trkpt lat="44.94674" lon="3.98526">
        <ele>935.2</ele>
        <time>2026-04-28T10:04:23Z</time>
      </trkpt>
      <trkpt lat="44.94674" lon="3.98535">
        <ele>934</ele>
        <time>2026-04-28T10:04:28Z</time>
      </trkpt>
      <trkpt lat="44.94674" lon="3.98544">
        <ele>932.8</ele>
        <time>2026-04-28T10:04:33Z</time>
      </trkpt>
      <trkpt lat="44.94673" lon="3.98553">
        <ele>931.6</ele>
        <time>2026-04-28T10:04:38Z</time>
      </trkpt>
      <trkpt lat="44.94672" lon="3.9856">
        <ele>930.6</ele>
        <time>2026-04-28T10:04:43Z</time>
      </trkpt>
      <trkpt lat="44.94672" lon="3.98567">
        <ele>929.6</ele>
        <time>2026-04-28T10:04:48Z</time>
      </trkpt>
      <trkpt lat="44.94672" lon="3.98575">
        <ele>928.6</ele>
        <time>2026-04-28T10:04:53Z</time>
      </trkpt>
      <trkpt lat="44.94672" lon="3.98586">
        <ele>927.4</ele>
        <time>2026-04-28T10:04:58Z</time>
      </trkpt>
      <trkpt lat="44.94671" lon="3.98594">
        <ele>926.9</ele>
        <time>2026-04-28T10:05:03Z</time>
      </trkpt>
      <trkpt lat="44.94673" lon="3.98605">
        <ele>926.5</ele>
        <time>2026-04-28T10:05:08Z</time>
      </trkpt>
      <trkpt lat="44.94674" lon="3.98617">
        <ele>926.1</ele>
        <time>2026-04-28T10:05:13Z</time>
      </trkpt>
      <trkpt lat="44.94676" lon="3.98627">
        <ele>925.7</ele>
        <time>2026-04-28T10:05:18Z</time>
      </trkpt>
      <trkpt lat="44.94677" lon="3.98639">
        <ele>925.2</ele>
        <time>2026-04-28T10:05:23Z</time>
      </trkpt>
      <trkpt lat="44.94678" lon="3.98651">
        <ele>924.7</ele>
        <time>2026-04-28T10:05:28Z</time>
      </trkpt>
      <trkpt lat="44.94679" lon="3.98663">
        <ele>924.2</ele>
        <time>2026-04-28T10:05:33Z</time>
      </trkpt>
      <trkpt lat="44.94679" lon="3.98674">
        <ele>923.9</ele>
        <time>2026-04-28T10:05:38Z</time>
      </trkpt>
      <trkpt lat="44.9468" lon="3.98684">
        <ele>923.8</ele>
        <time>2026-04-28T10:05:43Z</time>
      </trkpt>
      <trkpt lat="44.94683" lon="3.98693">
        <ele>923.9</ele>
        <time>2026-04-28T10:05:48Z</time>
      </trkpt>
      <trkpt lat="44.94686" lon="3.98703">
        <ele>924.1</ele>
        <time>2026-04-28T10:05:53Z</time>
      </trkpt>
      <trkpt lat="44.94688" lon="3.98713">
        <ele>924.1</ele>
        <time>2026-04-28T10:05:58Z</time>
      </trkpt>
      <trkpt lat="44.9469" lon="3.98723">
        <ele>924.2</ele>
        <time>2026-04-28T10:06:03Z</time>
      </trkpt>
      <trkpt lat="44.94692" lon="3.98734">
        <ele>924.2</ele>
        <time>2026-04-28T10:06:08Z</time>
      </trkpt>
      <trkpt lat="44.94693" lon="3.98746">
        <ele>924.2</ele>
        <time>2026-04-28T10:06:13Z</time>
      </trkpt>
      <trkpt lat="44.94692" lon="3.98757">
        <ele>924.1</ele>
        <time>2026-04-28T10:06:18Z</time>
      </trkpt>
      <trkpt lat="44.94691" lon="3.98767">
        <ele>924.1</ele>
        <time>2026-04-28T10:06:23Z</time>
      </trkpt>
      <trkpt lat="44.94689" lon="3.98776">
        <ele>924.1</ele>
        <time>2026-04-28T10:06:28Z</time>
      </trkpt>
      <trkpt lat="44.94687" lon="3.98786">
        <ele>924</ele>
        <time>2026-04-28T10:06:33Z</time>
      </trkpt>
      <trkpt lat="44.94686" lon="3.98794">
        <ele>924</ele>
        <time>2026-04-28T10:06:38Z</time>
      </trkpt>
      <trkpt lat="44.94685" lon="3.98804">
        <ele>924.1</ele>
        <time>2026-04-28T10:06:43Z</time>
      </trkpt>
      <trkpt lat="44.94684" lon="3.98807">
        <ele>924</ele>
        <time>2026-04-28T10:06:48Z</time>
      </trkpt>
      <trkpt lat="44.94685" lon="3.98808">
        <ele>924.1</ele>
        <time>2026-04-28T10:06:53Z</time>
      </trkpt>
      <trkpt lat="44.94683" lon="3.98813">
        <ele>924</ele>
        <time>2026-04-28T10:06:58Z</time>
      </trkpt>
      <trkpt lat="44.94683" lon="3.9882">
        <ele>924.1</ele>
        <time>2026-04-28T10:07:03Z</time>
      </trkpt>
      <trkpt lat="44.94685" lon="3.98821">
        <ele>924.3</ele>
        <time>2026-04-28T10:07:08Z</time>
      </trkpt>
      <trkpt lat="44.9469" lon="3.98822">
        <ele>924.8</ele>
        <time>2026-04-28T10:07:13Z</time>
      </trkpt>
      <trkpt lat="44.94696" lon="3.98819">
        <ele>925.3</ele>
        <time>2026-04-28T10:07:18Z</time>
      </trkpt>
      <trkpt lat="44.94701" lon="3.98816">
        <ele>925.7</ele>
        <time>2026-04-28T10:07:23Z</time>
      </trkpt>
      <trkpt lat="44.94707" lon="3.98813">
        <ele>926.3</ele>
        <time>2026-04-28T10:07:28Z</time>
      </trkpt>
      <trkpt lat="44.94711" lon="3.98808">
        <ele>926.6</ele>
        <time>2026-04-28T10:07:33Z</time>
      </trkpt>
      <trkpt lat="44.94711" lon="3.98808">
        <ele>926.6</ele>
        <time>2026-04-28T10:07:33Z</time>
      </trkpt>
      <trkpt lat="44.94745" lon="3.98832">
        <ele>929.6</ele>
        <time>2026-04-28T10:09:56Z</time>
      </trkpt>
      <trkpt lat="44.94713" lon="3.98806">
        <ele>926.8</ele>
        <time>2026-04-28T10:10:02Z</time>
      </trkpt>
      <trkpt lat="44.94712" lon="3.98811">
        <ele>926.7</ele>
        <time>2026-04-28T10:10:07Z</time>
      </trkpt>
      <trkpt lat="44.9471" lon="3.98814">
        <ele>926.5</ele>
        <time>2026-04-28T10:10:12Z</time>
      </trkpt>
      <trkpt lat="44.94706" lon="3.98822">
        <ele>926.2</ele>
        <time>2026-04-28T10:10:17Z</time>
      </trkpt>
      <trkpt lat="44.94704" lon="3.98828">
        <ele>926.1</ele>
        <time>2026-04-28T10:10:22Z</time>
      </trkpt>
      <trkpt lat="44.94704" lon="3.98828">
        <ele>926.1</ele>
        <time>2026-04-28T10:10:27Z</time>
      </trkpt>
      <trkpt lat="44.94704" lon="3.98828">
        <ele>926.1</ele>
        <time>2026-04-28T10:10:32Z</time>
      </trkpt>
      <trkpt lat="44.94706" lon="3.98839">
        <ele>926.5</ele>
        <time>2026-04-28T10:10:37Z</time>
      </trkpt>
      <trkpt lat="44.94703" lon="3.98845">
        <ele>926.4</ele>
        <time>2026-04-28T10:10:42Z</time>
      </trkpt>
      <trkpt lat="44.947" lon="3.98852">
        <ele>926.4</ele>
        <time>2026-04-28T10:10:47Z</time>
      </trkpt>
      <trkpt lat="44.94695" lon="3.98859">
        <ele>926.3</ele>
        <time>2026-04-28T10:10:52Z</time>
      </trkpt>
      <trkpt lat="44.94692" lon="3.98865">
        <ele>926.3</ele>
        <time>2026-04-28T10:10:57Z</time>
      </trkpt>
      <trkpt lat="44.9469" lon="3.98867">
        <ele>926.2</ele>
        <time>2026-04-28T10:11:02Z</time>
      </trkpt>
      <trkpt lat="44.9469" lon="3.98867">
        <ele>926.2</ele>
        <time>2026-04-28T10:11:07Z</time>
      </trkpt>
      <trkpt lat="44.9469" lon="3.98867">
        <ele>926.2</ele>
        <time>2026-04-28T10:11:12Z</time>
      </trkpt>
      <trkpt lat="44.9469" lon="3.98867">
        <ele>926.2</ele>
        <time>2026-04-28T10:11:17Z</time>
      </trkpt>
      <trkpt lat="44.9469" lon="3.98867">
        <ele>926.2</ele>
        <time>2026-04-28T10:11:22Z</time>
      </trkpt>
      <trkpt lat="44.9469" lon="3.98867">
        <ele>926.2</ele>
        <time>2026-04-28T10:11:27Z</time>
      </trkpt>
      <trkpt lat="44.94693" lon="3.98881">
        <ele>927</ele>
        <time>2026-04-28T10:11:32Z</time>
      </trkpt>
      <trkpt lat="44.94693" lon="3.98881">
        <ele>927</ele>
        <time>2026-04-28T10:11:37Z</time>
      </trkpt>
      <trkpt lat="44.94693" lon="3.98881">
        <ele>927</ele>
        <time>2026-04-28T10:11:42Z</time>
      </trkpt>
      <trkpt lat="44.94693" lon="3.98881">
        <ele>927</ele>
        <time>2026-04-28T10:11:47Z</time>
      </trkpt>
      <trkpt lat="44.9469" lon="3.98885">
        <ele>926.9</ele>
        <time>2026-04-28T10:11:52Z</time>
      </trkpt>
      <trkpt lat="44.94688" lon="3.9889">
        <ele>927</ele>
        <time>2026-04-28T10:11:57Z</time>
      </trkpt>
      <trkpt lat="44.94685" lon="3.98896">
        <ele>927.1</ele>
        <time>2026-04-28T10:12:02Z</time>
      </trkpt>
      <trkpt lat="44.94681" lon="3.98901">
        <ele>927</ele>
        <time>2026-04-28T10:12:07Z</time>
      </trkpt>
      <trkpt lat="44.94677" lon="3.98907">
        <ele>927.1</ele>
        <time>2026-04-28T10:12:12Z</time>
      </trkpt>
      <trkpt lat="44.94676" lon="3.98916">
        <ele>927.4</ele>
        <time>2026-04-28T10:12:17Z</time>
      </trkpt>
      <trkpt lat="44.94674" lon="3.98923">
        <ele>927.8</ele>
        <time>2026-04-28T10:12:22Z</time>
      </trkpt>
      <trkpt lat="44.9467" lon="3.98929">
        <ele>928</ele>
        <time>2026-04-28T10:12:27Z</time>
      </trkpt>
      <trkpt lat="44.94665" lon="3.98934">
        <ele>928.2</ele>
        <time>2026-04-28T10:12:32Z</time>
      </trkpt>
      <trkpt lat="44.94659" lon="3.98939">
        <ele>928.3</ele>
        <time>2026-04-28T10:12:37Z</time>
      </trkpt>
      <trkpt lat="44.94654" lon="3.98944">
        <ele>928.5</ele>
        <time>2026-04-28T10:12:42Z</time>
      </trkpt>
      <trkpt lat="44.9465" lon="3.98948">
        <ele>928.7</ele>
        <time>2026-04-28T10:12:47Z</time>
      </trkpt>
      <trkpt lat="44.94643" lon="3.98951">
        <ele>928.7</ele>
        <time>2026-04-28T10:12:52Z</time>
      </trkpt>
      <trkpt lat="44.94636" lon="3.98957">
        <ele>929</ele>
        <time>2026-04-28T10:12:57Z</time>
      </trkpt>
      <trkpt lat="44.94631" lon="3.98962">
        <ele>929.3</ele>
        <time>2026-04-28T10:13:02Z</time>
      </trkpt>
      <trkpt lat="44.94625" lon="3.98965">
        <ele>929.4</ele>
        <time>2026-04-28T10:13:07Z</time>
      </trkpt>
      <trkpt lat="44.9462" lon="3.98969">
        <ele>929.6</ele>
        <time>2026-04-28T10:13:12Z</time>
      </trkpt>
      <trkpt lat="44.94613" lon="3.98973">
        <ele>929.8</ele>
        <time>2026-04-28T10:13:17Z</time>
      </trkpt>
      <trkpt lat="44.94607" lon="3.98978">
        <ele>930.1</ele>
        <time>2026-04-28T10:13:22Z</time>
      </trkpt>
      <trkpt lat="44.94601" lon="3.98983">
        <ele>930.5</ele>
        <time>2026-04-28T10:13:27Z</time>
      </trkpt>
      <trkpt lat="44.94594" lon="3.98986">
        <ele>930.7</ele>
        <time>2026-04-28T10:13:32Z</time>
      </trkpt>
      <trkpt lat="44.94587" lon="3.9899">
        <ele>931</ele>
        <time>2026-04-28T10:13:37Z</time>
      </trkpt>
      <trkpt lat="44.94581" lon="3.98995">
        <ele>931.4</ele>
        <time>2026-04-28T10:13:42Z</time>
      </trkpt>
      <trkpt lat="44.94574" lon="3.98999">
        <ele>931.7</ele>
        <time>2026-04-28T10:13:47Z</time>
      </trkpt>
      <trkpt lat="44.94569" lon="3.99005">
        <ele>932.1</ele>
        <time>2026-04-28T10:13:52Z</time>
      </trkpt>
      <trkpt lat="44.94561" lon="3.99008">
        <ele>932.1</ele>
        <time>2026-04-28T10:13:57Z</time>
      </trkpt>
      <trkpt lat="44.94556" lon="3.99011">
        <ele>932.2</ele>
        <time>2026-04-28T10:14:02Z</time>
      </trkpt>
      <trkpt lat="44.9455" lon="3.99015">
        <ele>932.4</ele>
        <time>2026-04-28T10:14:07Z</time>
      </trkpt>
      <trkpt lat="44.94544" lon="3.99019">
        <ele>932.5</ele>
        <time>2026-04-28T10:14:12Z</time>
      </trkpt>
      <trkpt lat="44.94539" lon="3.99023">
        <ele>932.7</ele>
        <time>2026-04-28T10:14:17Z</time>
      </trkpt>
      <trkpt lat="44.94534" lon="3.99026">
        <ele>932.8</ele>
        <time>2026-04-28T10:14:22Z</time>
      </trkpt>
      <trkpt lat="44.94528" lon="3.9903">
        <ele>933</ele>
        <time>2026-04-28T10:14:27Z</time>
      </trkpt>
      <trkpt lat="44.94522" lon="3.99033">
        <ele>933</ele>
        <time>2026-04-28T10:14:32Z</time>
      </trkpt>
      <trkpt lat="44.94515" lon="3.99035">
        <ele>933</ele>
        <time>2026-04-28T10:14:37Z</time>
      </trkpt>
      <trkpt lat="44.94506" lon="3.99037">
        <ele>932.8</ele>
        <time>2026-04-28T10:14:42Z</time>
      </trkpt>
      <trkpt lat="44.94499" lon="3.99044">
        <ele>933.1</ele>
        <time>2026-04-28T10:14:47Z</time>
      </trkpt>
      <trkpt lat="44.94493" lon="3.9905">
        <ele>932.8</ele>
        <time>2026-04-28T10:14:52Z</time>
      </trkpt>
      <trkpt lat="44.94496" lon="3.99059">
        <ele>933.8</ele>
        <time>2026-04-28T10:14:57Z</time>
      </trkpt>
      <trkpt lat="44.94498" lon="3.9906">
        <ele>934.1</ele>
        <time>2026-04-28T10:15:02Z</time>
      </trkpt>
      <trkpt lat="44.94499" lon="3.99058">
        <ele>934.1</ele>
        <time>2026-04-28T10:15:07Z</time>
      </trkpt>
      <trkpt lat="44.94499" lon="3.99058">
        <ele>934.1</ele>
        <time>2026-04-28T10:15:12Z</time>
      </trkpt>
      <trkpt lat="44.9449" lon="3.99058">
        <ele>933.1</ele>
        <time>2026-04-28T10:15:17Z</time>
      </trkpt>
      <trkpt lat="44.94482" lon="3.99065">
        <ele>932.7</ele>
        <time>2026-04-28T10:15:22Z</time>
      </trkpt>
      <trkpt lat="44.94475" lon="3.99067">
        <ele>932.1</ele>
        <time>2026-04-28T10:15:27Z</time>
      </trkpt>
      <trkpt lat="44.94469" lon="3.99068">
        <ele>931.5</ele>
        <time>2026-04-28T10:15:32Z</time>
      </trkpt>
      <trkpt lat="44.94462" lon="3.99071">
        <ele>931</ele>
        <time>2026-04-28T10:15:37Z</time>
      </trkpt>
      <trkpt lat="44.94455" lon="3.99074">
        <ele>930.5</ele>
        <time>2026-04-28T10:15:42Z</time>
      </trkpt>
      <trkpt lat="44.94449" lon="3.99078">
        <ele>930.1</ele>
        <time>2026-04-28T10:15:47Z</time>
      </trkpt>
      <trkpt lat="44.94442" lon="3.99081">
        <ele>929.6</ele>
        <time>2026-04-28T10:15:52Z</time>
      </trkpt>
      <trkpt lat="44.94436" lon="3.99085">
        <ele>929.2</ele>
        <time>2026-04-28T10:15:57Z</time>
      </trkpt>
      <trkpt lat="44.9443" lon="3.9909">
        <ele>928.9</ele>
        <time>2026-04-28T10:16:02Z</time>
      </trkpt>
      <trkpt lat="44.94422" lon="3.99093">
        <ele>928.3</ele>
        <time>2026-04-28T10:16:07Z</time>
      </trkpt>
      <trkpt lat="44.94415" lon="3.99098">
        <ele>927.8</ele>
        <time>2026-04-28T10:16:12Z</time>
      </trkpt>
      <trkpt lat="44.9441" lon="3.99103">
        <ele>927.4</ele>
        <time>2026-04-28T10:16:17Z</time>
      </trkpt>
      <trkpt lat="44.94402" lon="3.99107">
        <ele>926.6</ele>
        <time>2026-04-28T10:16:22Z</time>
      </trkpt>
      <trkpt lat="44.94395" lon="3.99112">
        <ele>926</ele>
        <time>2026-04-28T10:16:27Z</time>
      </trkpt>
      <trkpt lat="44.94388" lon="3.99118">
        <ele>925.5</ele>
        <time>2026-04-28T10:16:32Z</time>
      </trkpt>
      <trkpt lat="44.94382" lon="3.99123">
        <ele>925</ele>
        <time>2026-04-28T10:16:37Z</time>
      </trkpt>
      <trkpt lat="44.94377" lon="3.99129">
        <ele>924.9</ele>
        <time>2026-04-28T10:16:42Z</time>
      </trkpt>
      <trkpt lat="44.94372" lon="3.99136">
        <ele>924.8</ele>
        <time>2026-04-28T10:16:47Z</time>
      </trkpt>
      <trkpt lat="44.94366" lon="3.99143">
        <ele>924.7</ele>
        <time>2026-04-28T10:16:52Z</time>
      </trkpt>
      <trkpt lat="44.94358" lon="3.99148">
        <ele>924.1</ele>
        <time>2026-04-28T10:16:57Z</time>
      </trkpt>
      <trkpt lat="44.94352" lon="3.99154">
        <ele>924</ele>
        <time>2026-04-28T10:17:02Z</time>
      </trkpt>
      <trkpt lat="44.94345" lon="3.9916">
        <ele>923.7</ele>
        <time>2026-04-28T10:17:07Z</time>
      </trkpt>
      <trkpt lat="44.94341" lon="3.99168">
        <ele>924.1</ele>
        <time>2026-04-28T10:17:12Z</time>
      </trkpt>
      <trkpt lat="44.94335" lon="3.99175">
        <ele>924.1</ele>
        <time>2026-04-28T10:17:17Z</time>
      </trkpt>
      <trkpt lat="44.94331" lon="3.99184">
        <ele>924.7</ele>
        <time>2026-04-28T10:17:22Z</time>
      </trkpt>
      <trkpt lat="44.94326" lon="3.99188">
        <ele>924.7</ele>
        <time>2026-04-28T10:17:27Z</time>
      </trkpt>
      <trkpt lat="44.94326" lon="3.99189">
        <ele>924.8</ele>
        <time>2026-04-28T10:17:32Z</time>
      </trkpt>
      <trkpt lat="44.94323" lon="3.99197">
        <ele>925.4</ele>
        <time>2026-04-28T10:17:37Z</time>
      </trkpt>
      <trkpt lat="44.94319" lon="3.99204">
        <ele>925.8</ele>
        <time>2026-04-28T10:17:42Z</time>
      </trkpt>
      <trkpt lat="44.94314" lon="3.99212">
        <ele>926.1</ele>
        <time>2026-04-28T10:17:47Z</time>
      </trkpt>
      <trkpt lat="44.94308" lon="3.99218">
        <ele>926.2</ele>
        <time>2026-04-28T10:17:52Z</time>
      </trkpt>
      <trkpt lat="44.94301" lon="3.99225">
        <ele>926.3</ele>
        <time>2026-04-28T10:17:57Z</time>
      </trkpt>
      <trkpt lat="44.94295" lon="3.99231">
        <ele>926.4</ele>
        <time>2026-04-28T10:18:02Z</time>
      </trkpt>
      <trkpt lat="44.9429" lon="3.99236">
        <ele>926.4</ele>
        <time>2026-04-28T10:18:07Z</time>
      </trkpt>
      <trkpt lat="44.94286" lon="3.9924">
        <ele>926.4</ele>
        <time>2026-04-28T10:18:12Z</time>
      </trkpt>
      <trkpt lat="44.9428" lon="3.99244">
        <ele>926.3</ele>
        <time>2026-04-28T10:18:17Z</time>
      </trkpt>
      <trkpt lat="44.94279" lon="3.99243">
        <ele>926.1</ele>
        <time>2026-04-28T10:18:22Z</time>
      </trkpt>
      <trkpt lat="44.94282" lon="3.9924">
        <ele>926.1</ele>
        <time>2026-04-28T10:18:27Z</time>
      </trkpt>
      <trkpt lat="44.94288" lon="3.99235">
        <ele>926.1</ele>
        <time>2026-04-28T10:18:32Z</time>
      </trkpt>
      <trkpt lat="44.94293" lon="3.99232">
        <ele>926.3</ele>
        <time>2026-04-28T10:18:37Z</time>
      </trkpt>
      <trkpt lat="44.94299" lon="3.99237">
        <ele>927.4</ele>
        <time>2026-04-28T10:18:42Z</time>
      </trkpt>
      <trkpt lat="44.94299" lon="3.99244">
        <ele>928.1</ele>
        <time>2026-04-28T10:18:47Z</time>
      </trkpt>
      <trkpt lat="44.94298" lon="3.99252">
        <ele>928.8</ele>
        <time>2026-04-28T10:18:52Z</time>
      </trkpt>
      <trkpt lat="44.94295" lon="3.99259">
        <ele>929.3</ele>
        <time>2026-04-28T10:18:57Z</time>
      </trkpt>
      <trkpt lat="44.94293" lon="3.99261">
        <ele>929.4</ele>
        <time>2026-04-28T10:19:02Z</time>
      </trkpt>
      <trkpt lat="44.94292" lon="3.99266">
        <ele>929.9</ele>
        <time>2026-04-28T10:19:07Z</time>
      </trkpt>
      <trkpt lat="44.94292" lon="3.99266">
        <ele>929.9</ele>
        <time>2026-04-28T10:19:12Z</time>
      </trkpt>
      <trkpt lat="44.94292" lon="3.99266">
        <ele>929.9</ele>
        <time>2026-04-28T10:19:17Z</time>
      </trkpt>
      <trkpt lat="44.94292" lon="3.99266">
        <ele>929.9</ele>
        <time>2026-04-28T10:19:22Z</time>
      </trkpt>
      <trkpt lat="44.94292" lon="3.99266">
        <ele>929.9</ele>
        <time>2026-04-28T10:19:27Z</time>
      </trkpt>
      <trkpt lat="44.94292" lon="3.99266">
        <ele>929.9</ele>
        <time>2026-04-28T10:19:32Z</time>
      </trkpt>
      <trkpt lat="44.94292" lon="3.99266">
        <ele>929.9</ele>
        <time>2026-04-28T10:19:37Z</time>
      </trkpt>
      <trkpt lat="44.94292" lon="3.99266">
        <ele>929.9</ele>
        <time>2026-04-28T10:19:42Z</time>
      </trkpt>
      <trkpt lat="44.94292" lon="3.99266">
        <ele>929.9</ele>
        <time>2026-04-28T10:19:47Z</time>
      </trkpt>
      <trkpt lat="44.94292" lon="3.99266">
        <ele>929.9</ele>
        <time>2026-04-28T10:19:52Z</time>
      </trkpt>
      <trkpt lat="44.94292" lon="3.99266">
        <ele>929.9</ele>
        <time>2026-04-28T10:19:57Z</time>
      </trkpt>
      <trkpt lat="44.94292" lon="3.99266">
        <ele>929.9</ele>
        <time>2026-04-28T10:20:02Z</time>
      </trkpt>
      <trkpt lat="44.94292" lon="3.99266">
        <ele>929.9</ele>
        <time>2026-04-28T10:20:07Z</time>
      </trkpt>
      <trkpt lat="44.94292" lon="3.99266">
        <ele>929.9</ele>
        <time>2026-04-28T10:20:12Z</time>
      </trkpt>
      <trkpt lat="44.94292" lon="3.99266">
        <ele>929.9</ele>
        <time>2026-04-28T10:20:17Z</time>
      </trkpt>
      <trkpt lat="44.94292" lon="3.99266">
        <ele>929.9</ele>
        <time>2026-04-28T10:20:22Z</time>
      </trkpt>
      <trkpt lat="44.94292" lon="3.99266">
        <ele>929.9</ele>
        <time>2026-04-28T10:20:27Z</time>
      </trkpt>
      <trkpt lat="44.94292" lon="3.99266">
        <ele>929.9</ele>
        <time>2026-04-28T10:20:32Z</time>
      </trkpt>
      <trkpt lat="44.94292" lon="3.99266">
        <ele>929.9</ele>
        <time>2026-04-28T10:20:37Z</time>
      </trkpt>
      <trkpt lat="44.94292" lon="3.99266">
        <ele>929.9</ele>
        <time>2026-04-28T10:20:42Z</time>
      </trkpt>
      <trkpt lat="44.94292" lon="3.99266">
        <ele>929.9</ele>
        <time>2026-04-28T10:20:47Z</time>
      </trkpt>
      <trkpt lat="44.94292" lon="3.99266">
        <ele>929.9</ele>
        <time>2026-04-28T10:20:52Z</time>
      </trkpt>
      <trkpt lat="44.94292" lon="3.99266">
        <ele>929.9</ele>
        <time>2026-04-28T10:20:57Z</time>
      </trkpt>
      <trkpt lat="44.94292" lon="3.99266">
        <ele>929.9</ele>
        <time>2026-04-28T10:21:02Z</time>
      </trkpt>
      <trkpt lat="44.94292" lon="3.99266">
        <ele>929.9</ele>
        <time>2026-04-28T10:21:07Z</time>
      </trkpt>
      <trkpt lat="44.94292" lon="3.99266">
        <ele>929.9</ele>
        <time>2026-04-28T10:21:12Z</time>
      </trkpt>
      <trkpt lat="44.94292" lon="3.99266">
        <ele>929.9</ele>
        <time>2026-04-28T10:21:17Z</time>
      </trkpt>
      <trkpt lat="44.94292" lon="3.99266">
        <ele>929.9</ele>
        <time>2026-04-28T10:21:22Z</time>
      </trkpt>
      <trkpt lat="44.94292" lon="3.99266">
        <ele>929.9</ele>
        <time>2026-04-28T10:21:27Z</time>
      </trkpt>
      <trkpt lat="44.94292" lon="3.99266">
        <ele>929.9</ele>
        <time>2026-04-28T10:21:32Z</time>
      </trkpt>
      <trkpt lat="44.94292" lon="3.99266">
        <ele>929.9</ele>
        <time>2026-04-28T10:21:37Z</time>
      </trkpt>
      <trkpt lat="44.94292" lon="3.99266">
        <ele>929.9</ele>
        <time>2026-04-28T10:21:42Z</time>
      </trkpt>
      <trkpt lat="44.94292" lon="3.99266">
        <ele>929.9</ele>
        <time>2026-04-28T10:21:47Z</time>
      </trkpt>
      <trkpt lat="44.94292" lon="3.99266">
        <ele>929.9</ele>
        <time>2026-04-28T10:21:52Z</time>
      </trkpt>
      <trkpt lat="44.94292" lon="3.99266">
        <ele>929.9</ele>
        <time>2026-04-28T10:21:57Z</time>
      </trkpt>
      <trkpt lat="44.94292" lon="3.99266">
        <ele>929.9</ele>
        <time>2026-04-28T10:22:02Z</time>
      </trkpt>
      <trkpt lat="44.94292" lon="3.99266">
        <ele>929.9</ele>
        <time>2026-04-28T10:22:07Z</time>
      </trkpt>
      <trkpt lat="44.94292" lon="3.99266">
        <ele>929.9</ele>
        <time>2026-04-28T10:22:12Z</time>
      </trkpt>
      <trkpt lat="44.94292" lon="3.99266">
        <ele>929.9</ele>
        <time>2026-04-28T10:22:17Z</time>
      </trkpt>
      <trkpt lat="44.94292" lon="3.99266">
        <ele>929.9</ele>
        <time>2026-04-28T10:22:22Z</time>
      </trkpt>
      <trkpt lat="44.94292" lon="3.99266">
        <ele>929.9</ele>
        <time>2026-04-28T10:22:27Z</time>
      </trkpt>
      <trkpt lat="44.94292" lon="3.99266">
        <ele>929.9</ele>
        <time>2026-04-28T10:22:32Z</time>
      </trkpt>
      <trkpt lat="44.94292" lon="3.99266">
        <ele>929.9</ele>
        <time>2026-04-28T10:22:37Z</time>
      </trkpt>
      <trkpt lat="44.94292" lon="3.99266">
        <ele>929.9</ele>
        <time>2026-04-28T10:22:42Z</time>
      </trkpt>
      <trkpt lat="44.94292" lon="3.99266">
        <ele>929.9</ele>
        <time>2026-04-28T10:22:47Z</time>
      </trkpt>
      <trkpt lat="44.94292" lon="3.99266">
        <ele>929.9</ele>
        <time>2026-04-28T10:22:52Z</time>
      </trkpt>
      <trkpt lat="44.94292" lon="3.99266">
        <ele>929.9</ele>
        <time>2026-04-28T10:22:57Z</time>
      </trkpt>
      <trkpt lat="44.94292" lon="3.99266">
        <ele>929.9</ele>
        <time>2026-04-28T10:23:02Z</time>
      </trkpt>
      <trkpt lat="44.94292" lon="3.99266">
        <ele>929.9</ele>
        <time>2026-04-28T10:23:07Z</time>
      </trkpt>
      <trkpt lat="44.94292" lon="3.99266">
        <ele>929.9</ele>
        <time>2026-04-28T10:23:12Z</time>
      </trkpt>
      <trkpt lat="44.94292" lon="3.99266">
        <ele>929.9</ele>
        <time>2026-04-28T10:23:17Z</time>
      </trkpt>
      <trkpt lat="44.94288" lon="3.99271">
        <ele>930.1</ele>
        <time>2026-04-28T10:23:22Z</time>
      </trkpt>
      <trkpt lat="44.94286" lon="3.99274">
        <ele>930.3</ele>
        <time>2026-04-28T10:23:27Z</time>
      </trkpt>
      <trkpt lat="44.94284" lon="3.99278">
        <ele>930.5</ele>
        <time>2026-04-28T10:23:32Z</time>
      </trkpt>
      <trkpt lat="44.94283" lon="3.99282">
        <ele>930.9</ele>
        <time>2026-04-28T10:23:37Z</time>
      </trkpt>
      <trkpt lat="44.94279" lon="3.99285">
        <ele>931</ele>
        <time>2026-04-28T10:23:42Z</time>
      </trkpt>
      <trkpt lat="44.94276" lon="3.9929">
        <ele>931.3</ele>
        <time>2026-04-28T10:23:47Z</time>
      </trkpt>
      <trkpt lat="44.94274" lon="3.99295">
        <ele>931.8</ele>
        <time>2026-04-28T10:23:52Z</time>
      </trkpt>
      <trkpt lat="44.94272" lon="3.99299">
        <ele>932.1</ele>
        <time>2026-04-28T10:23:57Z</time>
      </trkpt>
      <trkpt lat="44.9427" lon="3.99301">
        <ele>932.2</ele>
        <time>2026-04-28T10:24:02Z</time>
      </trkpt>
      <trkpt lat="44.94268" lon="3.99305">
        <ele>932.6</ele>
        <time>2026-04-28T10:24:07Z</time>
      </trkpt>
      <trkpt lat="44.94265" lon="3.9931">
        <ele>933</ele>
        <time>2026-04-28T10:24:12Z</time>
      </trkpt>
      <trkpt lat="44.94263" lon="3.99314">
        <ele>933.3</ele>
        <time>2026-04-28T10:24:17Z</time>
      </trkpt>
      <trkpt lat="44.9426" lon="3.9932">
        <ele>933.9</ele>
        <time>2026-04-28T10:24:22Z</time>
      </trkpt>
      <trkpt lat="44.94258" lon="3.99325">
        <ele>934.4</ele>
        <time>2026-04-28T10:24:27Z</time>
      </trkpt>
      <trkpt lat="44.94256" lon="3.99328">
        <ele>934.7</ele>
        <time>2026-04-28T10:24:32Z</time>
      </trkpt>
      <trkpt lat="44.94255" lon="3.99333">
        <ele>935.3</ele>
        <time>2026-04-28T10:24:37Z</time>
      </trkpt>
      <trkpt lat="44.94252" lon="3.99337">
        <ele>935.5</ele>
        <time>2026-04-28T10:24:42Z</time>
      </trkpt>
      <trkpt lat="44.94249" lon="3.99341">
        <ele>935.8</ele>
        <time>2026-04-28T10:24:47Z</time>
      </trkpt>
      <trkpt lat="44.94246" lon="3.99346">
        <ele>936.3</ele>
        <time>2026-04-28T10:24:52Z</time>
      </trkpt>
      <trkpt lat="44.94245" lon="3.99351">
        <ele>936.8</ele>
        <time>2026-04-28T10:24:57Z</time>
      </trkpt>
      <trkpt lat="44.94242" lon="3.99353">
        <ele>936.9</ele>
        <time>2026-04-28T10:25:02Z</time>
      </trkpt>
      <trkpt lat="44.94238" lon="3.99357">
        <ele>937.2</ele>
        <time>2026-04-28T10:25:07Z</time>
      </trkpt>
      <trkpt lat="44.94234" lon="3.9936">
        <ele>937.4</ele>
        <time>2026-04-28T10:25:12Z</time>
      </trkpt>
      <trkpt lat="44.9423" lon="3.99364">
        <ele>937.7</ele>
        <time>2026-04-28T10:25:17Z</time>
      </trkpt>
      <trkpt lat="44.94226" lon="3.99368">
        <ele>937.9</ele>
        <time>2026-04-28T10:25:22Z</time>
      </trkpt>
      <trkpt lat="44.94223" lon="3.99372">
        <ele>938.2</ele>
        <time>2026-04-28T10:25:27Z</time>
      </trkpt>
      <trkpt lat="44.94219" lon="3.99377">
        <ele>938.6</ele>
        <time>2026-04-28T10:25:32Z</time>
      </trkpt>
      <trkpt lat="44.94216" lon="3.99382">
        <ele>939</ele>
        <time>2026-04-28T10:25:37Z</time>
      </trkpt>
      <trkpt lat="44.94211" lon="3.99387">
        <ele>939.3</ele>
        <time>2026-04-28T10:25:42Z</time>
      </trkpt>
      <trkpt lat="44.94207" lon="3.9939">
        <ele>939.4</ele>
        <time>2026-04-28T10:25:47Z</time>
      </trkpt>
      <trkpt lat="44.94204" lon="3.99395">
        <ele>939.7</ele>
        <time>2026-04-28T10:25:52Z</time>
      </trkpt>
      <trkpt lat="44.94199" lon="3.99399">
        <ele>939.9</ele>
        <time>2026-04-28T10:25:57Z</time>
      </trkpt>
      <trkpt lat="44.94199" lon="3.99401">
        <ele>940.1</ele>
        <time>2026-04-28T10:26:02Z</time>
      </trkpt>
      <trkpt lat="44.94196" lon="3.99403">
        <ele>940.1</ele>
        <time>2026-04-28T10:26:07Z</time>
      </trkpt>
      <trkpt lat="44.94193" lon="3.99409">
        <ele>940.6</ele>
        <time>2026-04-28T10:26:12Z</time>
      </trkpt>
      <trkpt lat="44.94189" lon="3.99412">
        <ele>940.6</ele>
        <time>2026-04-28T10:26:17Z</time>
      </trkpt>
      <trkpt lat="44.94186" lon="3.99417">
        <ele>941</ele>
        <time>2026-04-28T10:26:22Z</time>
      </trkpt>
      <trkpt lat="44.94182" lon="3.99421">
        <ele>941.1</ele>
        <time>2026-04-28T10:26:27Z</time>
      </trkpt>
      <trkpt lat="44.94179" lon="3.99426">
        <ele>941.4</ele>
        <time>2026-04-28T10:26:32Z</time>
      </trkpt>
      <trkpt lat="44.94175" lon="3.99431">
        <ele>941.6</ele>
        <time>2026-04-28T10:26:37Z</time>
      </trkpt>
      <trkpt lat="44.9417" lon="3.99436">
        <ele>941.8</ele>
        <time>2026-04-28T10:26:42Z</time>
      </trkpt>
      <trkpt lat="44.94166" lon="3.99439">
        <ele>941.8</ele>
        <time>2026-04-28T10:26:47Z</time>
      </trkpt>
      <trkpt lat="44.94164" lon="3.99445">
        <ele>942.2</ele>
        <time>2026-04-28T10:26:52Z</time>
      </trkpt>
      <trkpt lat="44.94162" lon="3.9945">
        <ele>942.5</ele>
        <time>2026-04-28T10:26:57Z</time>
      </trkpt>
      <trkpt lat="44.9416" lon="3.99456">
        <ele>942.9</ele>
        <time>2026-04-28T10:27:02Z</time>
      </trkpt>
      <trkpt lat="44.94158" lon="3.99462">
        <ele>943.4</ele>
        <time>2026-04-28T10:27:07Z</time>
      </trkpt>
      <trkpt lat="44.94157" lon="3.9947">
        <ele>944</ele>
        <time>2026-04-28T10:27:12Z</time>
      </trkpt>
      <trkpt lat="44.94156" lon="3.99477">
        <ele>944.6</ele>
        <time>2026-04-28T10:27:17Z</time>
      </trkpt>
      <trkpt lat="44.94154" lon="3.99483">
        <ele>945</ele>
        <time>2026-04-28T10:27:22Z</time>
      </trkpt>
      <trkpt lat="44.94151" lon="3.99488">
        <ele>945.3</ele>
        <time>2026-04-28T10:27:27Z</time>
      </trkpt>
      <trkpt lat="44.94147" lon="3.99493">
        <ele>945.6</ele>
        <time>2026-04-28T10:27:32Z</time>
      </trkpt>
      <trkpt lat="44.94142" lon="3.99497">
        <ele>945.8</ele>
        <time>2026-04-28T10:27:37Z</time>
      </trkpt>
      <trkpt lat="44.94137" lon="3.99499">
        <ele>945.8</ele>
        <time>2026-04-28T10:27:42Z</time>
      </trkpt>
      <trkpt lat="44.94131" lon="3.99504">
        <ele>946.1</ele>
        <time>2026-04-28T10:27:47Z</time>
      </trkpt>
      <trkpt lat="44.94127" lon="3.99508">
        <ele>946.2</ele>
        <time>2026-04-28T10:27:52Z</time>
      </trkpt>
      <trkpt lat="44.94121" lon="3.99511">
        <ele>946.3</ele>
        <time>2026-04-28T10:27:57Z</time>
      </trkpt>
      <trkpt lat="44.94116" lon="3.99515">
        <ele>946.4</ele>
        <time>2026-04-28T10:28:02Z</time>
      </trkpt>
      <trkpt lat="44.94112" lon="3.99519">
        <ele>946.6</ele>
        <time>2026-04-28T10:28:07Z</time>
      </trkpt>
      <trkpt lat="44.94106" lon="3.99523">
        <ele>946.6</ele>
        <time>2026-04-28T10:28:12Z</time>
      </trkpt>
      <trkpt lat="44.94101" lon="3.99528">
        <ele>946.8</ele>
        <time>2026-04-28T10:28:17Z</time>
      </trkpt>
      <trkpt lat="44.94095" lon="3.99532">
        <ele>946.8</ele>
        <time>2026-04-28T10:28:22Z</time>
      </trkpt>
      <trkpt lat="44.94091" lon="3.99538">
        <ele>947.1</ele>
        <time>2026-04-28T10:28:27Z</time>
      </trkpt>
      <trkpt lat="44.94087" lon="3.99543">
        <ele>947.3</ele>
        <time>2026-04-28T10:28:32Z</time>
      </trkpt>
      <trkpt lat="44.94083" lon="3.99547">
        <ele>947.4</ele>
        <time>2026-04-28T10:28:37Z</time>
      </trkpt>
      <trkpt lat="44.9408" lon="3.9955">
        <ele>947.4</ele>
        <time>2026-04-28T10:28:42Z</time>
      </trkpt>
      <trkpt lat="44.94081" lon="3.99552">
        <ele>947.6</ele>
        <time>2026-04-28T10:28:47Z</time>
      </trkpt>
      <trkpt lat="44.94083" lon="3.99556">
        <ele>948</ele>
        <time>2026-04-28T10:28:52Z</time>
      </trkpt>
      <trkpt lat="44.94085" lon="3.99561">
        <ele>948.5</ele>
        <time>2026-04-28T10:28:57Z</time>
      </trkpt>
      <trkpt lat="44.94086" lon="3.99568">
        <ele>949</ele>
        <time>2026-04-28T10:29:02Z</time>
      </trkpt>
      <trkpt lat="44.94089" lon="3.99573">
        <ele>949.6</ele>
        <time>2026-04-28T10:29:07Z</time>
      </trkpt>
      <trkpt lat="44.94089" lon="3.99578">
        <ele>949.9</ele>
        <time>2026-04-28T10:29:12Z</time>
      </trkpt>
      <trkpt lat="44.94092" lon="3.99582">
        <ele>950.4</ele>
        <time>2026-04-28T10:29:17Z</time>
      </trkpt>
      <trkpt lat="44.94097" lon="3.99583">
        <ele>950.8</ele>
        <time>2026-04-28T10:29:22Z</time>
      </trkpt>
      <trkpt lat="44.94103" lon="3.99582">
        <ele>951.1</ele>
        <time>2026-04-28T10:29:27Z</time>
      </trkpt>
      <trkpt lat="44.94109" lon="3.99583">
        <ele>951.5</ele>
        <time>2026-04-28T10:29:32Z</time>
      </trkpt>
      <trkpt lat="44.94115" lon="3.99583">
        <ele>951.9</ele>
        <time>2026-04-28T10:29:37Z</time>
      </trkpt>
      <trkpt lat="44.94122" lon="3.99583">
        <ele>952.3</ele>
        <time>2026-04-28T10:29:42Z</time>
      </trkpt>
      <trkpt lat="44.94127" lon="3.99581">
        <ele>952.4</ele>
        <time>2026-04-28T10:29:47Z</time>
      </trkpt>
      <trkpt lat="44.94129" lon="3.99583">
        <ele>952.7</ele>
        <time>2026-04-28T10:29:52Z</time>
      </trkpt>
      <trkpt lat="44.94134" lon="3.99588">
        <ele>953.5</ele>
        <time>2026-04-28T10:29:57Z</time>
      </trkpt>
      <trkpt lat="44.94139" lon="3.99592">
        <ele>954.1</ele>
        <time>2026-04-28T10:30:02Z</time>
      </trkpt>
      <trkpt lat="44.94144" lon="3.99596">
        <ele>954.8</ele>
        <time>2026-04-28T10:30:07Z</time>
      </trkpt>
      <trkpt lat="44.94149" lon="3.99597">
        <ele>955.2</ele>
        <time>2026-04-28T10:30:12Z</time>
      </trkpt>
      <trkpt lat="44.94154" lon="3.99596">
        <ele>955.4</ele>
        <time>2026-04-28T10:30:17Z</time>
      </trkpt>
      <trkpt lat="44.94159" lon="3.99592">
        <ele>955.4</ele>
        <time>2026-04-28T10:30:22Z</time>
      </trkpt>
      <trkpt lat="44.94164" lon="3.99586">
        <ele>955.1</ele>
        <time>2026-04-28T10:30:27Z</time>
      </trkpt>
      <trkpt lat="44.94168" lon="3.99582">
        <ele>954.9</ele>
        <time>2026-04-28T10:30:32Z</time>
      </trkpt>
      <trkpt lat="44.94172" lon="3.99577">
        <ele>954.7</ele>
        <time>2026-04-28T10:30:37Z</time>
      </trkpt>
      <trkpt lat="44.94174" lon="3.99573">
        <ele>954.4</ele>
        <time>2026-04-28T10:30:42Z</time>
      </trkpt>
      <trkpt lat="44.94178" lon="3.99569">
        <ele>954.2</ele>
        <time>2026-04-28T10:30:47Z</time>
      </trkpt>
      <trkpt lat="44.94183" lon="3.99564">
        <ele>954</ele>
        <time>2026-04-28T10:30:52Z</time>
      </trkpt>
      <trkpt lat="44.94188" lon="3.99559">
        <ele>953.8</ele>
        <time>2026-04-28T10:30:57Z</time>
      </trkpt>
      <trkpt lat="44.94192" lon="3.99553">
        <ele>953.4</ele>
        <time>2026-04-28T10:31:02Z</time>
      </trkpt>
      <trkpt lat="44.94197" lon="3.99548">
        <ele>953.2</ele>
        <time>2026-04-28T10:31:07Z</time>
      </trkpt>
      <trkpt lat="44.94201" lon="3.99542">
        <ele>952.9</ele>
        <time>2026-04-28T10:31:12Z</time>
      </trkpt>
      <trkpt lat="44.94199" lon="3.99539">
        <ele>952.5</ele>
        <time>2026-04-28T10:31:17Z</time>
      </trkpt>
      <trkpt lat="44.942" lon="3.99537">
        <ele>952.4</ele>
        <time>2026-04-28T10:31:22Z</time>
      </trkpt>
      <trkpt lat="44.94205" lon="3.99537">
        <ele>952.6</ele>
        <time>2026-04-28T10:31:27Z</time>
      </trkpt>
      <trkpt lat="44.94209" lon="3.99538">
        <ele>953</ele>
        <time>2026-04-28T10:31:32Z</time>
      </trkpt>
      <trkpt lat="44.9421" lon="3.99538">
        <ele>953</ele>
        <time>2026-04-28T10:31:37Z</time>
      </trkpt>
      <trkpt lat="44.94211" lon="3.99546">
        <ele>953.8</ele>
        <time>2026-04-28T10:31:42Z</time>
      </trkpt>
      <trkpt lat="44.94207" lon="3.99555">
        <ele>954.4</ele>
        <time>2026-04-28T10:31:47Z</time>
      </trkpt>
      <trkpt lat="44.94202" lon="3.99562">
        <ele>954.8</ele>
        <time>2026-04-28T10:31:52Z</time>
      </trkpt>
      <trkpt lat="44.94196" lon="3.99569">
        <ele>955.1</ele>
        <time>2026-04-28T10:31:57Z</time>
      </trkpt>
      <trkpt lat="44.94192" lon="3.99576">
        <ele>955.5</ele>
        <time>2026-04-28T10:32:02Z</time>
      </trkpt>
      <trkpt lat="44.94188" lon="3.99582">
        <ele>955.9</ele>
        <time>2026-04-28T10:32:07Z</time>
      </trkpt>
      <trkpt lat="44.94185" lon="3.99589">
        <ele>956.5</ele>
        <time>2026-04-28T10:32:12Z</time>
      </trkpt>
      <trkpt lat="44.94179" lon="3.99597">
        <ele>957</ele>
        <time>2026-04-28T10:32:17Z</time>
      </trkpt>
      <trkpt lat="44.94174" lon="3.99606">
        <ele>957.6</ele>
        <time>2026-04-28T10:32:22Z</time>
      </trkpt>
      <trkpt lat="44.94168" lon="3.99613">
        <ele>957.9</ele>
        <time>2026-04-28T10:32:27Z</time>
      </trkpt>
      <trkpt lat="44.94164" lon="3.99619">
        <ele>958.3</ele>
        <time>2026-04-28T10:32:32Z</time>
      </trkpt>
      <trkpt lat="44.94158" lon="3.99626">
        <ele>958.5</ele>
        <time>2026-04-28T10:32:37Z</time>
      </trkpt>
      <trkpt lat="44.94152" lon="3.99632">
        <ele>958.7</ele>
        <time>2026-04-28T10:32:42Z</time>
      </trkpt>
      <trkpt lat="44.94145" lon="3.99634">
        <ele>958.4</ele>
        <time>2026-04-28T10:32:47Z</time>
      </trkpt>
      <trkpt lat="44.94143" lon="3.99636">
        <ele>958.5</ele>
        <time>2026-04-28T10:32:52Z</time>
      </trkpt>
      <trkpt lat="44.94146" lon="3.99633">
        <ele>958.4</ele>
        <time>2026-04-28T10:32:57Z</time>
      </trkpt>
      <trkpt lat="44.94152" lon="3.99629">
        <ele>958.4</ele>
        <time>2026-04-28T10:33:02Z</time>
      </trkpt>
      <trkpt lat="44.94158" lon="3.99624">
        <ele>958.3</ele>
        <time>2026-04-28T10:33:07Z</time>
      </trkpt>
      <trkpt lat="44.94163" lon="3.99617">
        <ele>958</ele>
        <time>2026-04-28T10:33:12Z</time>
      </trkpt>
      <trkpt lat="44.94169" lon="3.9961">
        <ele>957.7</ele>
        <time>2026-04-28T10:33:17Z</time>
      </trkpt>
      <trkpt lat="44.94175" lon="3.99603">
        <ele>957.3</ele>
        <time>2026-04-28T10:33:22Z</time>
      </trkpt>
      <trkpt lat="44.9418" lon="3.99596">
        <ele>956.9</ele>
        <time>2026-04-28T10:33:27Z</time>
      </trkpt>
      <trkpt lat="44.94185" lon="3.99588">
        <ele>956.4</ele>
        <time>2026-04-28T10:33:32Z</time>
      </trkpt>
      <trkpt lat="44.9419" lon="3.9958">
        <ele>955.8</ele>
        <time>2026-04-28T10:33:37Z</time>
      </trkpt>
      <trkpt lat="44.94196" lon="3.99572">
        <ele>955.4</ele>
        <time>2026-04-28T10:33:42Z</time>
      </trkpt>
      <trkpt lat="44.94201" lon="3.99565">
        <ele>955</ele>
        <time>2026-04-28T10:33:47Z</time>
      </trkpt>
      <trkpt lat="44.94206" lon="3.99559">
        <ele>954.7</ele>
        <time>2026-04-28T10:33:52Z</time>
      </trkpt>
      <trkpt lat="44.94211" lon="3.99553">
        <ele>954.4</ele>
        <time>2026-04-28T10:33:57Z</time>
      </trkpt>
      <trkpt lat="44.94215" lon="3.99547">
        <ele>954.1</ele>
        <time>2026-04-28T10:34:02Z</time>
      </trkpt>
      <trkpt lat="44.94221" lon="3.99546">
        <ele>954.3</ele>
        <time>2026-04-28T10:34:07Z</time>
      </trkpt>
      <trkpt lat="44.94228" lon="3.99545">
        <ele>954.6</ele>
        <time>2026-04-28T10:34:12Z</time>
      </trkpt>
      <trkpt lat="44.94235" lon="3.99545">
        <ele>955</ele>
        <time>2026-04-28T10:34:17Z</time>
      </trkpt>
      <trkpt lat="44.94242" lon="3.99547">
        <ele>955.5</ele>
        <time>2026-04-28T10:34:22Z</time>
      </trkpt>
      <trkpt lat="44.94248" lon="3.9955">
        <ele>956.1</ele>
        <time>2026-04-28T10:34:27Z</time>
      </trkpt>
      <trkpt lat="44.94254" lon="3.9955">
        <ele>956.5</ele>
        <time>2026-04-28T10:34:32Z</time>
      </trkpt>
      <trkpt lat="44.94262" lon="3.9955">
        <ele>957</ele>
        <time>2026-04-28T10:34:37Z</time>
      </trkpt>
      <trkpt lat="44.94264" lon="3.99546">
        <ele>956.7</ele>
        <time>2026-04-28T10:34:42Z</time>
      </trkpt>
      <trkpt lat="44.94265" lon="3.99542">
        <ele>956.4</ele>
        <time>2026-04-28T10:34:47Z</time>
      </trkpt>
      <trkpt lat="44.94272" lon="3.99546">
        <ele>957.2</ele>
        <time>2026-04-28T10:34:52Z</time>
      </trkpt>
      <trkpt lat="44.94277" lon="3.99551">
        <ele>958</ele>
        <time>2026-04-28T10:34:57Z</time>
      </trkpt>
      <trkpt lat="44.94284" lon="3.99555">
        <ele>958.9</ele>
        <time>2026-04-28T10:35:02Z</time>
      </trkpt>
      <trkpt lat="44.9429" lon="3.99556">
        <ele>959.4</ele>
        <time>2026-04-28T10:35:07Z</time>
      </trkpt>
      <trkpt lat="44.94298" lon="3.99557">
        <ele>960.1</ele>
        <time>2026-04-28T10:35:12Z</time>
      </trkpt>
      <trkpt lat="44.94306" lon="3.99556">
        <ele>960.5</ele>
        <time>2026-04-28T10:35:17Z</time>
      </trkpt>
      <trkpt lat="44.94312" lon="3.99554">
        <ele>960.7</ele>
        <time>2026-04-28T10:35:22Z</time>
      </trkpt>
      <trkpt lat="44.9432" lon="3.99552">
        <ele>961</ele>
        <time>2026-04-28T10:35:27Z</time>
      </trkpt>
      <trkpt lat="44.94327" lon="3.99549">
        <ele>961.1</ele>
        <time>2026-04-28T10:35:32Z</time>
      </trkpt>
      <trkpt lat="44.94333" lon="3.99545">
        <ele>960.9</ele>
        <time>2026-04-28T10:35:37Z</time>
      </trkpt>
      <trkpt lat="44.9434" lon="3.99539">
        <ele>960.5</ele>
        <time>2026-04-28T10:35:42Z</time>
      </trkpt>
      <trkpt lat="44.94346" lon="3.99534">
        <ele>960.1</ele>
        <time>2026-04-28T10:35:47Z</time>
      </trkpt>
      <trkpt lat="44.94353" lon="3.9953">
        <ele>960</ele>
        <time>2026-04-28T10:35:52Z</time>
      </trkpt>
      <trkpt lat="44.94361" lon="3.99528">
        <ele>960.1</ele>
        <time>2026-04-28T10:35:57Z</time>
      </trkpt>
      <trkpt lat="44.94369" lon="3.99524">
        <ele>960.1</ele>
        <time>2026-04-28T10:36:02Z</time>
      </trkpt>
      <trkpt lat="44.94375" lon="3.9952">
        <ele>959.9</ele>
        <time>2026-04-28T10:36:07Z</time>
      </trkpt>
      <trkpt lat="44.94381" lon="3.99516">
        <ele>959.8</ele>
        <time>2026-04-28T10:36:12Z</time>
      </trkpt>
      <trkpt lat="44.94388" lon="3.99511">
        <ele>959.6</ele>
        <time>2026-04-28T10:36:17Z</time>
      </trkpt>
      <trkpt lat="44.94393" lon="3.99504">
        <ele>959</ele>
        <time>2026-04-28T10:36:22Z</time>
      </trkpt>
      <trkpt lat="44.94398" lon="3.99498">
        <ele>958.7</ele>
        <time>2026-04-28T10:36:27Z</time>
      </trkpt>
      <trkpt lat="44.94405" lon="3.99494">
        <ele>958.8</ele>
        <time>2026-04-28T10:36:32Z</time>
      </trkpt>
      <trkpt lat="44.94412" lon="3.99494">
        <ele>959.2</ele>
        <time>2026-04-28T10:36:37Z</time>
      </trkpt>
      <trkpt lat="44.94418" lon="3.99493">
        <ele>959.6</ele>
        <time>2026-04-28T10:36:42Z</time>
      </trkpt>
      <trkpt lat="44.94425" lon="3.99492">
        <ele>960.4</ele>
        <time>2026-04-28T10:36:47Z</time>
      </trkpt>
      <trkpt lat="44.94431" lon="3.99491">
        <ele>961.1</ele>
        <time>2026-04-28T10:36:52Z</time>
      </trkpt>
      <trkpt lat="44.94432" lon="3.99491">
        <ele>961.2</ele>
        <time>2026-04-28T10:36:57Z</time>
      </trkpt>
      <trkpt lat="44.94433" lon="3.99491">
        <ele>961.3</ele>
        <time>2026-04-28T10:37:02Z</time>
      </trkpt>
      <trkpt lat="44.94436" lon="3.99491">
        <ele>961.7</ele>
        <time>2026-04-28T10:37:07Z</time>
      </trkpt>
      <trkpt lat="44.9444" lon="3.99489">
        <ele>962</ele>
        <time>2026-04-28T10:37:12Z</time>
      </trkpt>
      <trkpt lat="44.94445" lon="3.99485">
        <ele>962.2</ele>
        <time>2026-04-28T10:37:17Z</time>
      </trkpt>
      <trkpt lat="44.94452" lon="3.99483">
        <ele>962.9</ele>
        <time>2026-04-28T10:37:22Z</time>
      </trkpt>
      <trkpt lat="44.94458" lon="3.9948">
        <ele>963.3</ele>
        <time>2026-04-28T10:37:27Z</time>
      </trkpt>
      <trkpt lat="44.94464" lon="3.99478">
        <ele>963.8</ele>
        <time>2026-04-28T10:37:32Z</time>
      </trkpt>
      <trkpt lat="44.94471" lon="3.99475">
        <ele>964.3</ele>
        <time>2026-04-28T10:37:37Z</time>
      </trkpt>
      <trkpt lat="44.94478" lon="3.99472">
        <ele>964.8</ele>
        <time>2026-04-28T10:37:42Z</time>
      </trkpt>
      <trkpt lat="44.94485" lon="3.99468">
        <ele>965.1</ele>
        <time>2026-04-28T10:37:47Z</time>
      </trkpt>
      <trkpt lat="44.94491" lon="3.99465">
        <ele>965.4</ele>
        <time>2026-04-28T10:37:52Z</time>
      </trkpt>
      <trkpt lat="44.94498" lon="3.99466">
        <ele>966.3</ele>
        <time>2026-04-28T10:37:57Z</time>
      </trkpt>
      <trkpt lat="44.945" lon="3.99468">
        <ele>966.8</ele>
        <time>2026-04-28T10:38:02Z</time>
      </trkpt>
      <trkpt lat="44.94503" lon="3.99473">
        <ele>967.8</ele>
        <time>2026-04-28T10:38:07Z</time>
      </trkpt>
      <trkpt lat="44.94505" lon="3.99477">
        <ele>968.5</ele>
        <time>2026-04-28T10:38:12Z</time>
      </trkpt>
      <trkpt lat="44.94506" lon="3.99481">
        <ele>969.2</ele>
        <time>2026-04-28T10:38:17Z</time>
      </trkpt>
      <trkpt lat="44.94509" lon="3.99485">
        <ele>970</ele>
        <time>2026-04-28T10:38:22Z</time>
      </trkpt>
      <trkpt lat="44.94512" lon="3.99489">
        <ele>970.9</ele>
        <time>2026-04-28T10:38:27Z</time>
      </trkpt>
      <trkpt lat="44.94515" lon="3.99491">
        <ele>971.5</ele>
        <time>2026-04-28T10:38:32Z</time>
      </trkpt>
      <trkpt lat="44.94519" lon="3.99493">
        <ele>972.2</ele>
        <time>2026-04-28T10:38:37Z</time>
      </trkpt>
      <trkpt lat="44.94522" lon="3.99493">
        <ele>972.5</ele>
        <time>2026-04-28T10:38:42Z</time>
      </trkpt>
      <trkpt lat="44.94526" lon="3.99492">
        <ele>972.8</ele>
        <time>2026-04-28T10:38:47Z</time>
      </trkpt>
      <trkpt lat="44.94529" lon="3.99491">
        <ele>973</ele>
        <time>2026-04-28T10:38:52Z</time>
      </trkpt>
      <trkpt lat="44.94534" lon="3.99491">
        <ele>973.6</ele>
        <time>2026-04-28T10:38:57Z</time>
      </trkpt>
      <trkpt lat="44.94538" lon="3.9949">
        <ele>973.9</ele>
        <time>2026-04-28T10:39:02Z</time>
      </trkpt>
      <trkpt lat="44.94543" lon="3.99489">
        <ele>974.3</ele>
        <time>2026-04-28T10:39:07Z</time>
      </trkpt>
      <trkpt lat="44.94546" lon="3.9949">
        <ele>974.8</ele>
        <time>2026-04-28T10:39:12Z</time>
      </trkpt>
      <trkpt lat="44.94549" lon="3.99491">
        <ele>975.2</ele>
        <time>2026-04-28T10:39:17Z</time>
      </trkpt>
      <trkpt lat="44.94552" lon="3.99492">
        <ele>975.7</ele>
        <time>2026-04-28T10:39:22Z</time>
      </trkpt>
      <trkpt lat="44.94557" lon="3.99492">
        <ele>976.2</ele>
        <time>2026-04-28T10:39:27Z</time>
      </trkpt>
      <trkpt lat="44.9456" lon="3.99493">
        <ele>976.7</ele>
        <time>2026-04-28T10:39:32Z</time>
      </trkpt>
      <trkpt lat="44.94563" lon="3.99495">
        <ele>977.2</ele>
        <time>2026-04-28T10:39:37Z</time>
      </trkpt>
      <trkpt lat="44.94567" lon="3.99496">
        <ele>977.8</ele>
        <time>2026-04-28T10:39:42Z</time>
      </trkpt>
      <trkpt lat="44.94571" lon="3.99497">
        <ele>978.3</ele>
        <time>2026-04-28T10:39:47Z</time>
      </trkpt>
      <trkpt lat="44.94574" lon="3.99498">
        <ele>978.8</ele>
        <time>2026-04-28T10:39:52Z</time>
      </trkpt>
      <trkpt lat="44.94577" lon="3.99498">
        <ele>979.1</ele>
        <time>2026-04-28T10:39:57Z</time>
      </trkpt>
      <trkpt lat="44.9458" lon="3.995">
        <ele>979.6</ele>
        <time>2026-04-28T10:40:02Z</time>
      </trkpt>
      <trkpt lat="44.94584" lon="3.99501">
        <ele>980.3</ele>
        <time>2026-04-28T10:40:07Z</time>
      </trkpt>
      <trkpt lat="44.94587" lon="3.99502">
        <ele>980.9</ele>
        <time>2026-04-28T10:40:12Z</time>
      </trkpt>
      <trkpt lat="44.94591" lon="3.99503">
        <ele>981.7</ele>
        <time>2026-04-28T10:40:17Z</time>
      </trkpt>
      <trkpt lat="44.94594" lon="3.99504">
        <ele>982.3</ele>
        <time>2026-04-28T10:40:22Z</time>
      </trkpt>
      <trkpt lat="44.94597" lon="3.99504">
        <ele>982.7</ele>
        <time>2026-04-28T10:40:27Z</time>
      </trkpt>
      <trkpt lat="44.946" lon="3.99503">
        <ele>983</ele>
        <time>2026-04-28T10:40:32Z</time>
      </trkpt>
      <trkpt lat="44.94603" lon="3.99504">
        <ele>983.6</ele>
        <time>2026-04-28T10:40:37Z</time>
      </trkpt>
      <trkpt lat="44.94607" lon="3.99504">
        <ele>984.2</ele>
        <time>2026-04-28T10:40:42Z</time>
      </trkpt>
      <trkpt lat="44.9461" lon="3.99506">
        <ele>985</ele>
        <time>2026-04-28T10:40:47Z</time>
      </trkpt>
      <trkpt lat="44.94612" lon="3.99506">
        <ele>985.3</ele>
        <time>2026-04-28T10:40:52Z</time>
      </trkpt>
      <trkpt lat="44.94616" lon="3.99506">
        <ele>985.8</ele>
        <time>2026-04-28T10:40:57Z</time>
      </trkpt>
      <trkpt lat="44.94619" lon="3.99505">
        <ele>986.1</ele>
        <time>2026-04-28T10:41:02Z</time>
      </trkpt>
      <trkpt lat="44.94621" lon="3.99505">
        <ele>986.4</ele>
        <time>2026-04-28T10:41:07Z</time>
      </trkpt>
      <trkpt lat="44.94625" lon="3.99503">
        <ele>986.6</ele>
        <time>2026-04-28T10:41:12Z</time>
      </trkpt>
      <trkpt lat="44.94628" lon="3.99503">
        <ele>987</ele>
        <time>2026-04-28T10:41:17Z</time>
      </trkpt>
      <trkpt lat="44.9463" lon="3.99503">
        <ele>987.3</ele>
        <time>2026-04-28T10:41:22Z</time>
      </trkpt>
      <trkpt lat="44.94632" lon="3.99503">
        <ele>987.6</ele>
        <time>2026-04-28T10:41:27Z</time>
      </trkpt>
      <trkpt lat="44.94635" lon="3.99503">
        <ele>988</ele>
        <time>2026-04-28T10:41:32Z</time>
      </trkpt>
      <trkpt lat="44.94637" lon="3.99502">
        <ele>988.1</ele>
        <time>2026-04-28T10:41:37Z</time>
      </trkpt>
      <trkpt lat="44.9464" lon="3.99502">
        <ele>988.6</ele>
        <time>2026-04-28T10:41:42Z</time>
      </trkpt>
      <trkpt lat="44.94643" lon="3.99502">
        <ele>989</ele>
        <time>2026-04-28T10:41:47Z</time>
      </trkpt>
      <trkpt lat="44.94644" lon="3.99502">
        <ele>989.1</ele>
        <time>2026-04-28T10:41:52Z</time>
      </trkpt>
      <trkpt lat="44.94644" lon="3.99502">
        <ele>989.1</ele>
        <time>2026-04-28T10:41:57Z</time>
      </trkpt>
      <trkpt lat="44.94649" lon="3.99503">
        <ele>990.1</ele>
        <time>2026-04-28T10:42:02Z</time>
      </trkpt>
      <trkpt lat="44.94652" lon="3.99501">
        <ele>990.1</ele>
        <time>2026-04-28T10:42:07Z</time>
      </trkpt>
      <trkpt lat="44.94654" lon="3.995">
        <ele>990.2</ele>
        <time>2026-04-28T10:42:12Z</time>
      </trkpt>
      <trkpt lat="44.94657" lon="3.99499">
        <ele>990.4</ele>
        <time>2026-04-28T10:42:17Z</time>
      </trkpt>
      <trkpt lat="44.9466" lon="3.995">
        <ele>991</ele>
        <time>2026-04-28T10:42:22Z</time>
      </trkpt>
      <trkpt lat="44.94662" lon="3.99501">
        <ele>991.5</ele>
        <time>2026-04-28T10:42:27Z</time>
      </trkpt>
      <trkpt lat="44.94664" lon="3.99503">
        <ele>992.2</ele>
        <time>2026-04-28T10:42:32Z</time>
      </trkpt>
      <trkpt lat="44.94665" lon="3.99506">
        <ele>993</ele>
        <time>2026-04-28T10:42:37Z</time>
      </trkpt>
      <trkpt lat="44.94666" lon="3.99508">
        <ele>993.5</ele>
        <time>2026-04-28T10:42:42Z</time>
      </trkpt>
      <trkpt lat="44.94666" lon="3.9951">
        <ele>993.9</ele>
        <time>2026-04-28T10:42:47Z</time>
      </trkpt>
      <trkpt lat="44.94666" lon="3.9951">
        <ele>993.9</ele>
        <time>2026-04-28T10:42:52Z</time>
      </trkpt>
      <trkpt lat="44.94665" lon="3.99516">
        <ele>995</ele>
        <time>2026-04-28T10:42:57Z</time>
      </trkpt>
      <trkpt lat="44.94664" lon="3.9952">
        <ele>995.7</ele>
        <time>2026-04-28T10:43:02Z</time>
      </trkpt>
      <trkpt lat="44.94663" lon="3.99525">
        <ele>996.5</ele>
        <time>2026-04-28T10:43:07Z</time>
      </trkpt>
      <trkpt lat="44.94661" lon="3.99529">
        <ele>997.1</ele>
        <time>2026-04-28T10:43:12Z</time>
      </trkpt>
      <trkpt lat="44.94656" lon="3.99534">
        <ele>997.3</ele>
        <time>2026-04-28T10:43:17Z</time>
      </trkpt>
      <trkpt lat="44.94653" lon="3.99538">
        <ele>997.6</ele>
        <time>2026-04-28T10:43:22Z</time>
      </trkpt>
      <trkpt lat="44.9465" lon="3.99542">
        <ele>998</ele>
        <time>2026-04-28T10:43:27Z</time>
      </trkpt>
      <trkpt lat="44.94647" lon="3.99546">
        <ele>998.3</ele>
        <time>2026-04-28T10:43:32Z</time>
      </trkpt>
      <trkpt lat="44.94645" lon="3.9955">
        <ele>998.8</ele>
        <time>2026-04-28T10:43:37Z</time>
      </trkpt>
      <trkpt lat="44.94646" lon="3.99553">
        <ele>999.5</ele>
        <time>2026-04-28T10:43:42Z</time>
      </trkpt>
      <trkpt lat="44.94644" lon="3.99553">
        <ele>999.2</ele>
        <time>2026-04-28T10:43:47Z</time>
      </trkpt>
      <trkpt lat="44.94643" lon="3.99556">
        <ele>999.6</ele>
        <time>2026-04-28T10:43:52Z</time>
      </trkpt>
      <trkpt lat="44.9464" lon="3.99559">
        <ele>999.7</ele>
        <time>2026-04-28T10:43:57Z</time>
      </trkpt>
      <trkpt lat="44.94636" lon="3.99563">
        <ele>999.9</ele>
        <time>2026-04-28T10:44:02Z</time>
      </trkpt>
      <trkpt lat="44.94632" lon="3.99566">
        <ele>999.8</ele>
        <time>2026-04-28T10:44:07Z</time>
      </trkpt>
      <trkpt lat="44.94628" lon="3.99569">
        <ele>999.7</ele>
        <time>2026-04-28T10:44:12Z</time>
      </trkpt>
      <trkpt lat="44.94623" lon="3.99572">
        <ele>999.5</ele>
        <time>2026-04-28T10:44:17Z</time>
      </trkpt>
      <trkpt lat="44.94618" lon="3.99578">
        <ele>999.8</ele>
        <time>2026-04-28T10:44:22Z</time>
      </trkpt>
      <trkpt lat="44.94615" lon="3.99581">
        <ele>999.9</ele>
        <time>2026-04-28T10:44:27Z</time>
      </trkpt>
      <trkpt lat="44.94614" lon="3.99584">
        <ele>1000.3</ele>
        <time>2026-04-28T10:44:32Z</time>
      </trkpt>
      <trkpt lat="44.94614" lon="3.99584">
        <ele>1000.3</ele>
        <time>2026-04-28T10:44:37Z</time>
      </trkpt>
      <trkpt lat="44.94614" lon="3.99584">
        <ele>1000.3</ele>
        <time>2026-04-28T10:44:42Z</time>
      </trkpt>
      <trkpt lat="44.94612" lon="3.99585">
        <ele>1000.1</ele>
        <time>2026-04-28T10:44:47Z</time>
      </trkpt>
      <trkpt lat="44.94612" lon="3.99585">
        <ele>1000.1</ele>
        <time>2026-04-28T10:44:52Z</time>
      </trkpt>
      <trkpt lat="44.94612" lon="3.99585">
        <ele>1000.1</ele>
        <time>2026-04-28T10:44:57Z</time>
      </trkpt>
      <trkpt lat="44.94608" lon="3.99593">
        <ele>1001.1</ele>
        <time>2026-04-28T10:45:02Z</time>
      </trkpt>
      <trkpt lat="44.94603" lon="3.99597">
        <ele>1001.1</ele>
        <time>2026-04-28T10:45:07Z</time>
      </trkpt>
      <trkpt lat="44.94598" lon="3.99602">
        <ele>1001.4</ele>
        <time>2026-04-28T10:45:12Z</time>
      </trkpt>
      <trkpt lat="44.94593" lon="3.99608">
        <ele>1002</ele>
        <time>2026-04-28T10:45:17Z</time>
      </trkpt>
      <trkpt lat="44.94588" lon="3.99615">
        <ele>1002.9</ele>
        <time>2026-04-28T10:45:22Z</time>
      </trkpt>
      <trkpt lat="44.94583" lon="3.99619">
        <ele>1003.1</ele>
        <time>2026-04-28T10:45:27Z</time>
      </trkpt>
      <trkpt lat="44.94581" lon="3.9962">
        <ele>1002.8</ele>
        <time>2026-04-28T10:45:32Z</time>
      </trkpt>
      <trkpt lat="44.94579" lon="3.99625">
        <ele>1003.5</ele>
        <time>2026-04-28T10:45:37Z</time>
      </trkpt>
      <trkpt lat="44.94574" lon="3.99631">
        <ele>1003.7</ele>
        <time>2026-04-28T10:45:42Z</time>
      </trkpt>
      <trkpt lat="44.94571" lon="3.99635">
        <ele>1003.8</ele>
        <time>2026-04-28T10:45:47Z</time>
      </trkpt>
      <trkpt lat="44.9457" lon="3.99637">
        <ele>1004</ele>
        <time>2026-04-28T10:45:52Z</time>
      </trkpt>
      <trkpt lat="44.94567" lon="3.99643">
        <ele>1004.5</ele>
        <time>2026-04-28T10:45:57Z</time>
      </trkpt>
      <trkpt lat="44.94563" lon="3.99651">
        <ele>1005</ele>
        <time>2026-04-28T10:46:02Z</time>
      </trkpt>
      <trkpt lat="44.9456" lon="3.9966">
        <ele>1006</ele>
        <time>2026-04-28T10:46:07Z</time>
      </trkpt>
      <trkpt lat="44.94557" lon="3.99667">
        <ele>1006.5</ele>
        <time>2026-04-28T10:46:12Z</time>
      </trkpt>
      <trkpt lat="44.94552" lon="3.99675">
        <ele>1006</ele>
        <time>2026-04-28T10:46:17Z</time>
      </trkpt>
      <trkpt lat="44.94549" lon="3.99681">
        <ele>1005.9</ele>
        <time>2026-04-28T10:46:22Z</time>
      </trkpt>
      <trkpt lat="44.94548" lon="3.99687">
        <ele>1006.4</ele>
        <time>2026-04-28T10:46:27Z</time>
      </trkpt>
      <trkpt lat="44.94543" lon="3.99695">
        <ele>1006.1</ele>
        <time>2026-04-28T10:46:32Z</time>
      </trkpt>
      <trkpt lat="44.94537" lon="3.99703">
        <ele>1005.6</ele>
        <time>2026-04-28T10:46:37Z</time>
      </trkpt>
      <trkpt lat="44.94529" lon="3.99704">
        <ele>1003.7</ele>
        <time>2026-04-28T10:46:42Z</time>
      </trkpt>
      <trkpt lat="44.94522" lon="3.99702">
        <ele>1001.6</ele>
        <time>2026-04-28T10:46:47Z</time>
      </trkpt>
      <trkpt lat="44.94515" lon="3.99699">
        <ele>999.3</ele>
        <time>2026-04-28T10:46:52Z</time>
      </trkpt>
      <trkpt lat="44.94508" lon="3.99698">
        <ele>997.4</ele>
        <time>2026-04-28T10:46:57Z</time>
      </trkpt>
      <trkpt lat="44.94503" lon="3.99696">
        <ele>995.7</ele>
        <time>2026-04-28T10:47:02Z</time>
      </trkpt>
      <trkpt lat="44.94499" lon="3.99696">
        <ele>994.8</ele>
        <time>2026-04-28T10:47:07Z</time>
      </trkpt>
      <trkpt lat="44.94498" lon="3.99696">
        <ele>994.6</ele>
        <time>2026-04-28T10:47:12Z</time>
      </trkpt>
      <trkpt lat="44.94498" lon="3.99695">
        <ele>994.4</ele>
        <time>2026-04-28T10:47:17Z</time>
      </trkpt>
      <trkpt lat="44.94498" lon="3.99695">
        <ele>994.4</ele>
        <time>2026-04-28T10:47:22Z</time>
      </trkpt>
      <trkpt lat="44.94498" lon="3.99695">
        <ele>994.4</ele>
        <time>2026-04-28T10:47:27Z</time>
      </trkpt>
      <trkpt lat="44.94497" lon="3.99697">
        <ele>994.6</ele>
        <time>2026-04-28T10:47:32Z</time>
      </trkpt>
      <trkpt lat="44.94497" lon="3.99698">
        <ele>994.8</ele>
        <time>2026-04-28T10:47:37Z</time>
      </trkpt>
      <trkpt lat="44.94501" lon="3.99702">
        <ele>996.2</ele>
        <time>2026-04-28T10:47:42Z</time>
      </trkpt>
      <trkpt lat="44.94507" lon="3.99706">
        <ele>998.4</ele>
        <time>2026-04-28T10:47:47Z</time>
      </trkpt>
      <trkpt lat="44.94513" lon="3.99712">
        <ele>1000.9</ele>
        <time>2026-04-28T10:47:52Z</time>
      </trkpt>
      <trkpt lat="44.94518" lon="3.9972">
        <ele>1003.3</ele>
        <time>2026-04-28T10:47:57Z</time>
      </trkpt>
      <trkpt lat="44.94523" lon="3.99725">
        <ele>1005.3</ele>
        <time>2026-04-28T10:48:02Z</time>
      </trkpt>
      <trkpt lat="44.94529" lon="3.9973">
        <ele>1007.4</ele>
        <time>2026-04-28T10:48:07Z</time>
      </trkpt>
      <trkpt lat="44.94535" lon="3.99737">
        <ele>1009.8</ele>
        <time>2026-04-28T10:48:12Z</time>
      </trkpt>
      <trkpt lat="44.94537" lon="3.99748">
        <ele>1011.7</ele>
        <time>2026-04-28T10:48:17Z</time>
      </trkpt>
      <trkpt lat="44.94539" lon="3.99757">
        <ele>1013</ele>
        <time>2026-04-28T10:48:22Z</time>
      </trkpt>
      <trkpt lat="44.94541" lon="3.99768">
        <ele>1014.3</ele>
        <time>2026-04-28T10:48:27Z</time>
      </trkpt>
      <trkpt lat="44.94543" lon="3.99778">
        <ele>1015.4</ele>
        <time>2026-04-28T10:48:32Z</time>
      </trkpt>
      <trkpt lat="44.94545" lon="3.99789">
        <ele>1016.6</ele>
        <time>2026-04-28T10:48:37Z</time>
      </trkpt>
      <trkpt lat="44.94546" lon="3.998">
        <ele>1017.6</ele>
        <time>2026-04-28T10:48:42Z</time>
      </trkpt>
      <trkpt lat="44.94545" lon="3.99802">
        <ele>1017.6</ele>
        <time>2026-04-28T10:48:47Z</time>
      </trkpt>
      <trkpt lat="44.94545" lon="3.99802">
        <ele>1017.6</ele>
        <time>2026-04-28T10:48:52Z</time>
      </trkpt>
      <trkpt lat="44.94545" lon="3.99803">
        <ele>1017.6</ele>
        <time>2026-04-28T10:48:57Z</time>
      </trkpt>
      <trkpt lat="44.94545" lon="3.99807">
        <ele>1017.9</ele>
        <time>2026-04-28T10:49:02Z</time>
      </trkpt>
      <trkpt lat="44.94544" lon="3.99809">
        <ele>1017.9</ele>
        <time>2026-04-28T10:49:07Z</time>
      </trkpt>
      <trkpt lat="44.94544" lon="3.99809">
        <ele>1017.9</ele>
        <time>2026-04-28T10:49:12Z</time>
      </trkpt>
      <trkpt lat="44.94546" lon="3.99813">
        <ele>1018.5</ele>
        <time>2026-04-28T10:49:17Z</time>
      </trkpt>
      <trkpt lat="44.94547" lon="3.99824">
        <ele>1019.4</ele>
        <time>2026-04-28T10:49:22Z</time>
      </trkpt>
      <trkpt lat="44.9455" lon="3.99833">
        <ele>1020.4</ele>
        <time>2026-04-28T10:49:27Z</time>
      </trkpt>
      <trkpt lat="44.94551" lon="3.99844">
        <ele>1021</ele>
        <time>2026-04-28T10:49:32Z</time>
      </trkpt>
      <trkpt lat="44.94551" lon="3.99855">
        <ele>1021.4</ele>
        <time>2026-04-28T10:49:37Z</time>
      </trkpt>
      <trkpt lat="44.94552" lon="3.99865">
        <ele>1021.9</ele>
        <time>2026-04-28T10:49:42Z</time>
      </trkpt>
      <trkpt lat="44.94554" lon="3.99875">
        <ele>1022.4</ele>
        <time>2026-04-28T10:49:47Z</time>
      </trkpt>
      <trkpt lat="44.94555" lon="3.99886">
        <ele>1022.9</ele>
        <time>2026-04-28T10:49:52Z</time>
      </trkpt>
      <trkpt lat="44.94558" lon="3.99895">
        <ele>1023.3</ele>
        <time>2026-04-28T10:49:57Z</time>
      </trkpt>
      <trkpt lat="44.9456" lon="3.99904">
        <ele>1023.6</ele>
        <time>2026-04-28T10:50:02Z</time>
      </trkpt>
      <trkpt lat="44.94561" lon="3.99917">
        <ele>1024</ele>
        <time>2026-04-28T10:50:07Z</time>
      </trkpt>
      <trkpt lat="44.94562" lon="3.99927">
        <ele>1024.3</ele>
        <time>2026-04-28T10:50:12Z</time>
      </trkpt>
      <trkpt lat="44.94564" lon="3.99936">
        <ele>1024.5</ele>
        <time>2026-04-28T10:50:17Z</time>
      </trkpt>
      <trkpt lat="44.94564" lon="3.99948">
        <ele>1024.8</ele>
        <time>2026-04-28T10:50:22Z</time>
      </trkpt>
      <trkpt lat="44.94564" lon="3.9996">
        <ele>1025.2</ele>
        <time>2026-04-28T10:50:27Z</time>
      </trkpt>
      <trkpt lat="44.94565" lon="3.99971">
        <ele>1025.4</ele>
        <time>2026-04-28T10:50:32Z</time>
      </trkpt>
      <trkpt lat="44.94565" lon="3.99981">
        <ele>1025.7</ele>
        <time>2026-04-28T10:50:37Z</time>
      </trkpt>
      <trkpt lat="44.94565" lon="3.99994">
        <ele>1026.1</ele>
        <time>2026-04-28T10:50:42Z</time>
      </trkpt>
      <trkpt lat="44.94565" lon="4.00006">
        <ele>1026.2</ele>
        <time>2026-04-28T10:50:47Z</time>
      </trkpt>
      <trkpt lat="44.94565" lon="4.00018">
        <ele>1026.2</ele>
        <time>2026-04-28T10:50:52Z</time>
      </trkpt>
      <trkpt lat="44.94566" lon="4.00029">
        <ele>1026.2</ele>
        <time>2026-04-28T10:50:57Z</time>
      </trkpt>
      <trkpt lat="44.94568" lon="4.00039">
        <ele>1026.2</ele>
        <time>2026-04-28T10:51:02Z</time>
      </trkpt>
      <trkpt lat="44.9457" lon="4.00048">
        <ele>1026.2</ele>
        <time>2026-04-28T10:51:07Z</time>
      </trkpt>
      <trkpt lat="44.94571" lon="4.0006">
        <ele>1026.1</ele>
        <time>2026-04-28T10:51:12Z</time>
      </trkpt>
      <trkpt lat="44.94572" lon="4.00071">
        <ele>1026.1</ele>
        <time>2026-04-28T10:51:17Z</time>
      </trkpt>
      <trkpt lat="44.94573" lon="4.00081">
        <ele>1026.1</ele>
        <time>2026-04-28T10:51:22Z</time>
      </trkpt>
      <trkpt lat="44.94575" lon="4.00092">
        <ele>1026.3</ele>
        <time>2026-04-28T10:51:27Z</time>
      </trkpt>
      <trkpt lat="44.94576" lon="4.00103">
        <ele>1026.5</ele>
        <time>2026-04-28T10:51:32Z</time>
      </trkpt>
      <trkpt lat="44.94576" lon="4.00113">
        <ele>1026.8</ele>
        <time>2026-04-28T10:51:37Z</time>
      </trkpt>
      <trkpt lat="44.94578" lon="4.00123">
        <ele>1027</ele>
        <time>2026-04-28T10:51:42Z</time>
      </trkpt>
      <trkpt lat="44.94579" lon="4.00135">
        <ele>1027.3</ele>
        <time>2026-04-28T10:51:47Z</time>
      </trkpt>
      <trkpt lat="44.9458" lon="4.00145">
        <ele>1027.5</ele>
        <time>2026-04-28T10:51:52Z</time>
      </trkpt>
      <trkpt lat="44.94582" lon="4.00154">
        <ele>1027.7</ele>
        <time>2026-04-28T10:51:57Z</time>
      </trkpt>
      <trkpt lat="44.94583" lon="4.00163">
        <ele>1027.9</ele>
        <time>2026-04-28T10:52:02Z</time>
      </trkpt>
      <trkpt lat="44.94586" lon="4.00173">
        <ele>1028</ele>
        <time>2026-04-28T10:52:07Z</time>
      </trkpt>
      <trkpt lat="44.94588" lon="4.00182">
        <ele>1028</ele>
        <time>2026-04-28T10:52:12Z</time>
      </trkpt>
      <trkpt lat="44.94592" lon="4.0019">
        <ele>1028</ele>
        <time>2026-04-28T10:52:17Z</time>
      </trkpt>
      <trkpt lat="44.94596" lon="4.00197">
        <ele>1028</ele>
        <time>2026-04-28T10:52:22Z</time>
      </trkpt>
      <trkpt lat="44.94601" lon="4.00204">
        <ele>1028</ele>
        <time>2026-04-28T10:52:27Z</time>
      </trkpt>
      <trkpt lat="44.94603" lon="4.00206">
        <ele>1028</ele>
        <time>2026-04-28T10:52:32Z</time>
      </trkpt>
      <trkpt lat="44.94604" lon="4.00206">
        <ele>1028</ele>
        <time>2026-04-28T10:52:37Z</time>
      </trkpt>
      <trkpt lat="44.94604" lon="4.00206">
        <ele>1028</ele>
        <time>2026-04-28T10:52:42Z</time>
      </trkpt>
      <trkpt lat="44.94604" lon="4.00206">
        <ele>1028</ele>
        <time>2026-04-28T10:52:47Z</time>
      </trkpt>
      <trkpt lat="44.94604" lon="4.00206">
        <ele>1028</ele>
        <time>2026-04-28T10:52:52Z</time>
      </trkpt>
      <trkpt lat="44.94604" lon="4.00206">
        <ele>1028</ele>
        <time>2026-04-28T10:52:57Z</time>
      </trkpt>
      <trkpt lat="44.94604" lon="4.00206">
        <ele>1028</ele>
        <time>2026-04-28T10:53:02Z</time>
      </trkpt>
      <trkpt lat="44.94604" lon="4.00206">
        <ele>1028</ele>
        <time>2026-04-28T10:53:07Z</time>
      </trkpt>
      <trkpt lat="44.94604" lon="4.00206">
        <ele>1028</ele>
        <time>2026-04-28T10:53:12Z</time>
      </trkpt>
      <trkpt lat="44.94604" lon="4.00206">
        <ele>1028</ele>
        <time>2026-04-28T10:53:17Z</time>
      </trkpt>
      <trkpt lat="44.94604" lon="4.00206">
        <ele>1028</ele>
        <time>2026-04-28T10:53:22Z</time>
      </trkpt>
      <trkpt lat="44.94604" lon="4.00206">
        <ele>1028</ele>
        <time>2026-04-28T10:53:27Z</time>
      </trkpt>
      <trkpt lat="44.94604" lon="4.00206">
        <ele>1028</ele>
        <time>2026-04-28T10:53:32Z</time>
      </trkpt>
      <trkpt lat="44.94604" lon="4.00206">
        <ele>1028</ele>
        <time>2026-04-28T10:53:37Z</time>
      </trkpt>
      <trkpt lat="44.94604" lon="4.00206">
        <ele>1028</ele>
        <time>2026-04-28T10:53:42Z</time>
      </trkpt>
      <trkpt lat="44.94604" lon="4.00206">
        <ele>1028</ele>
        <time>2026-04-28T10:53:47Z</time>
      </trkpt>
      <trkpt lat="44.94604" lon="4.00206">
        <ele>1028</ele>
        <time>2026-04-28T10:53:52Z</time>
      </trkpt>
      <trkpt lat="44.94604" lon="4.00206">
        <ele>1028</ele>
        <time>2026-04-28T10:53:57Z</time>
      </trkpt>
      <trkpt lat="44.94604" lon="4.00206">
        <ele>1028</ele>
        <time>2026-04-28T10:54:02Z</time>
      </trkpt>
      <trkpt lat="44.94604" lon="4.00206">
        <ele>1028</ele>
        <time>2026-04-28T10:54:07Z</time>
      </trkpt>
      <trkpt lat="44.94604" lon="4.00206">
        <ele>1028</ele>
        <time>2026-04-28T10:54:12Z</time>
      </trkpt>
      <trkpt lat="44.94604" lon="4.00206">
        <ele>1028</ele>
        <time>2026-04-28T10:54:17Z</time>
      </trkpt>
      <trkpt lat="44.94604" lon="4.00206">
        <ele>1028</ele>
        <time>2026-04-28T10:54:22Z</time>
      </trkpt>
      <trkpt lat="44.94604" lon="4.00206">
        <ele>1028</ele>
        <time>2026-04-28T10:54:27Z</time>
      </trkpt>
      <trkpt lat="44.94604" lon="4.00206">
        <ele>1028</ele>
        <time>2026-04-28T10:54:32Z</time>
      </trkpt>
      <trkpt lat="44.94604" lon="4.00206">
        <ele>1028</ele>
        <time>2026-04-28T10:54:37Z</time>
      </trkpt>
      <trkpt lat="44.94604" lon="4.00206">
        <ele>1028</ele>
        <time>2026-04-28T10:54:42Z</time>
      </trkpt>
      <trkpt lat="44.94604" lon="4.00206">
        <ele>1028</ele>
        <time>2026-04-28T10:54:47Z</time>
      </trkpt>
      <trkpt lat="44.94604" lon="4.00206">
        <ele>1028</ele>
        <time>2026-04-28T10:54:52Z</time>
      </trkpt>
      <trkpt lat="44.94604" lon="4.00206">
        <ele>1028</ele>
        <time>2026-04-28T10:54:57Z</time>
      </trkpt>
      <trkpt lat="44.94604" lon="4.00206">
        <ele>1028</ele>
        <time>2026-04-28T10:55:02Z</time>
      </trkpt>
      <trkpt lat="44.94604" lon="4.00206">
        <ele>1028</ele>
        <time>2026-04-28T10:55:07Z</time>
      </trkpt>
      <trkpt lat="44.94604" lon="4.00206">
        <ele>1028</ele>
        <time>2026-04-28T10:55:12Z</time>
      </trkpt>
      <trkpt lat="44.94604" lon="4.00206">
        <ele>1028</ele>
        <time>2026-04-28T10:55:17Z</time>
      </trkpt>
      <trkpt lat="44.94604" lon="4.00206">
        <ele>1028</ele>
        <time>2026-04-28T10:55:22Z</time>
      </trkpt>
      <trkpt lat="44.94604" lon="4.00206">
        <ele>1028</ele>
        <time>2026-04-28T10:55:27Z</time>
      </trkpt>
      <trkpt lat="44.94604" lon="4.00206">
        <ele>1028</ele>
        <time>2026-04-28T10:55:32Z</time>
      </trkpt>
      <trkpt lat="44.94604" lon="4.00206">
        <ele>1028</ele>
        <time>2026-04-28T10:55:37Z</time>
      </trkpt>
      <trkpt lat="44.94604" lon="4.00206">
        <ele>1028</ele>
        <time>2026-04-28T10:55:42Z</time>
      </trkpt>
      <trkpt lat="44.94604" lon="4.00206">
        <ele>1028</ele>
        <time>2026-04-28T10:55:47Z</time>
      </trkpt>
      <trkpt lat="44.94608" lon="4.00212">
        <ele>1028</ele>
        <time>2026-04-28T10:55:52Z</time>
      </trkpt>
      <trkpt lat="44.94612" lon="4.00218">
        <ele>1028</ele>
        <time>2026-04-28T10:55:57Z</time>
      </trkpt>
      <trkpt lat="44.94613" lon="4.00219">
        <ele>1028</ele>
        <time>2026-04-28T10:56:02Z</time>
      </trkpt>
      <trkpt lat="44.94613" lon="4.0022">
        <ele>1028</ele>
        <time>2026-04-28T10:56:07Z</time>
      </trkpt>
      <trkpt lat="44.94614" lon="4.00222">
        <ele>1028</ele>
        <time>2026-04-28T10:56:12Z</time>
      </trkpt>
      <trkpt lat="44.94615" lon="4.00231">
        <ele>1028.2</ele>
        <time>2026-04-28T10:56:17Z</time>
      </trkpt>
      <trkpt lat="44.94616" lon="4.00238">
        <ele>1028.4</ele>
        <time>2026-04-28T10:56:22Z</time>
      </trkpt>
      <trkpt lat="44.94618" lon="4.00248">
        <ele>1028.5</ele>
        <time>2026-04-28T10:56:27Z</time>
      </trkpt>
      <trkpt lat="44.94619" lon="4.00257">
        <ele>1029.1</ele>
        <time>2026-04-28T10:56:32Z</time>
      </trkpt>
      <trkpt lat="44.94621" lon="4.00267">
        <ele>1029.8</ele>
        <time>2026-04-28T10:56:37Z</time>
      </trkpt>
      <trkpt lat="44.94622" lon="4.00277">
        <ele>1030.5</ele>
        <time>2026-04-28T10:56:42Z</time>
      </trkpt>
      <trkpt lat="44.94623" lon="4.00287">
        <ele>1031.2</ele>
        <time>2026-04-28T10:56:47Z</time>
      </trkpt>
      <trkpt lat="44.94624" lon="4.00297">
        <ele>1031.9</ele>
        <time>2026-04-28T10:56:52Z</time>
      </trkpt>
      <trkpt lat="44.94624" lon="4.00307">
        <ele>1032.6</ele>
        <time>2026-04-28T10:56:57Z</time>
      </trkpt>
      <trkpt lat="44.94626" lon="4.00318">
        <ele>1033.4</ele>
        <time>2026-04-28T10:57:02Z</time>
      </trkpt>
      <trkpt lat="44.94628" lon="4.00327">
        <ele>1033.9</ele>
        <time>2026-04-28T10:57:07Z</time>
      </trkpt>
      <trkpt lat="44.94629" lon="4.00336">
        <ele>1034.5</ele>
        <time>2026-04-28T10:57:12Z</time>
      </trkpt>
      <trkpt lat="44.94629" lon="4.00348">
        <ele>1035.3</ele>
        <time>2026-04-28T10:57:17Z</time>
      </trkpt>
      <trkpt lat="44.9463" lon="4.00358">
        <ele>1035.9</ele>
        <time>2026-04-28T10:57:22Z</time>
      </trkpt>
      <trkpt lat="44.94632" lon="4.00366">
        <ele>1036.4</ele>
        <time>2026-04-28T10:57:27Z</time>
      </trkpt>
      <trkpt lat="44.94632" lon="4.00369">
        <ele>1036.6</ele>
        <time>2026-04-28T10:57:32Z</time>
      </trkpt>
      <trkpt lat="44.94632" lon="4.0037">
        <ele>1036.6</ele>
        <time>2026-04-28T10:57:37Z</time>
      </trkpt>
      <trkpt lat="44.94633" lon="4.00377">
        <ele>1037</ele>
        <time>2026-04-28T10:57:42Z</time>
      </trkpt>
      <trkpt lat="44.94634" lon="4.00387">
        <ele>1037.6</ele>
        <time>2026-04-28T10:57:47Z</time>
      </trkpt>
      <trkpt lat="44.94635" lon="4.00396">
        <ele>1038.2</ele>
        <time>2026-04-28T10:57:52Z</time>
      </trkpt>
      <trkpt lat="44.94637" lon="4.00406">
        <ele>1038.7</ele>
        <time>2026-04-28T10:57:57Z</time>
      </trkpt>
      <trkpt lat="44.94639" lon="4.00415">
        <ele>1039.2</ele>
        <time>2026-04-28T10:58:02Z</time>
      </trkpt>
      <trkpt lat="44.9464" lon="4.00424">
        <ele>1039.5</ele>
        <time>2026-04-28T10:58:07Z</time>
      </trkpt>
      <trkpt lat="44.94642" lon="4.00434">
        <ele>1039.7</ele>
        <time>2026-04-28T10:58:12Z</time>
      </trkpt>
      <trkpt lat="44.94641" lon="4.00443">
        <ele>1040.1</ele>
        <time>2026-04-28T10:58:17Z</time>
      </trkpt>
      <trkpt lat="44.94642" lon="4.00453">
        <ele>1040.3</ele>
        <time>2026-04-28T10:58:22Z</time>
      </trkpt>
      <trkpt lat="44.94641" lon="4.00462">
        <ele>1040.7</ele>
        <time>2026-04-28T10:58:27Z</time>
      </trkpt>
      <trkpt lat="44.9464" lon="4.00472">
        <ele>1041</ele>
        <time>2026-04-28T10:58:32Z</time>
      </trkpt>
      <trkpt lat="44.94639" lon="4.0048">
        <ele>1041.4</ele>
        <time>2026-04-28T10:58:37Z</time>
      </trkpt>
      <trkpt lat="44.94639" lon="4.00483">
        <ele>1041.4</ele>
        <time>2026-04-28T10:58:42Z</time>
      </trkpt>
      <trkpt lat="44.94637" lon="4.00488">
        <ele>1041.7</ele>
        <time>2026-04-28T10:58:47Z</time>
      </trkpt>
      <trkpt lat="44.94636" lon="4.00491">
        <ele>1041.9</ele>
        <time>2026-04-28T10:58:52Z</time>
      </trkpt>
      <trkpt lat="44.94635" lon="4.00494">
        <ele>1042.1</ele>
        <time>2026-04-28T10:58:57Z</time>
      </trkpt>
      <trkpt lat="44.94633" lon="4.005">
        <ele>1042.4</ele>
        <time>2026-04-28T10:59:02Z</time>
      </trkpt>
      <trkpt lat="44.94631" lon="4.00504">
        <ele>1042.5</ele>
        <time>2026-04-28T10:59:07Z</time>
      </trkpt>
      <trkpt lat="44.94627" lon="4.00514">
        <ele>1042.8</ele>
        <time>2026-04-28T10:59:12Z</time>
      </trkpt>
      <trkpt lat="44.94625" lon="4.00522">
        <ele>1042.9</ele>
        <time>2026-04-28T10:59:17Z</time>
      </trkpt>
      <trkpt lat="44.9462" lon="4.00531">
        <ele>1043.2</ele>
        <time>2026-04-28T10:59:22Z</time>
      </trkpt>
      <trkpt lat="44.94617" lon="4.00539">
        <ele>1043.4</ele>
        <time>2026-04-28T10:59:27Z</time>
      </trkpt>
      <trkpt lat="44.94613" lon="4.00549">
        <ele>1043.7</ele>
        <time>2026-04-28T10:59:32Z</time>
      </trkpt>
      <trkpt lat="44.94609" lon="4.00558">
        <ele>1043.9</ele>
        <time>2026-04-28T10:59:37Z</time>
      </trkpt>
      <trkpt lat="44.94607" lon="4.00566">
        <ele>1044.1</ele>
        <time>2026-04-28T10:59:42Z</time>
      </trkpt>
      <trkpt lat="44.94604" lon="4.00573">
        <ele>1044.3</ele>
        <time>2026-04-28T10:59:47Z</time>
      </trkpt>
      <trkpt lat="44.94602" lon="4.00583">
        <ele>1044.4</ele>
        <time>2026-04-28T10:59:52Z</time>
      </trkpt>
      <trkpt lat="44.946" lon="4.00592">
        <ele>1044.4</ele>
        <time>2026-04-28T10:59:57Z</time>
      </trkpt>
      <trkpt lat="44.94597" lon="4.00601">
        <ele>1044.4</ele>
        <time>2026-04-28T11:00:02Z</time>
      </trkpt>
      <trkpt lat="44.94593" lon="4.00612">
        <ele>1044.5</ele>
        <time>2026-04-28T11:00:07Z</time>
      </trkpt>
      <trkpt lat="44.94592" lon="4.00622">
        <ele>1044.3</ele>
        <time>2026-04-28T11:00:12Z</time>
      </trkpt>
      <trkpt lat="44.9459" lon="4.00633">
        <ele>1044.2</ele>
        <time>2026-04-28T11:00:17Z</time>
      </trkpt>
      <trkpt lat="44.94589" lon="4.00645">
        <ele>1044</ele>
        <time>2026-04-28T11:00:22Z</time>
      </trkpt>
      <trkpt lat="44.94588" lon="4.00654">
        <ele>1043.9</ele>
        <time>2026-04-28T11:00:27Z</time>
      </trkpt>
      <trkpt lat="44.94586" lon="4.00665">
        <ele>1043.8</ele>
        <time>2026-04-28T11:00:32Z</time>
      </trkpt>
      <trkpt lat="44.94584" lon="4.00676">
        <ele>1043.7</ele>
        <time>2026-04-28T11:00:37Z</time>
      </trkpt>
      <trkpt lat="44.94584" lon="4.00686">
        <ele>1043.5</ele>
        <time>2026-04-28T11:00:42Z</time>
      </trkpt>
      <trkpt lat="44.94582" lon="4.00697">
        <ele>1043.4</ele>
        <time>2026-04-28T11:00:47Z</time>
      </trkpt>
      <trkpt lat="44.94582" lon="4.00709">
        <ele>1043.1</ele>
        <time>2026-04-28T11:00:52Z</time>
      </trkpt>
      <trkpt lat="44.94581" lon="4.0072">
        <ele>1042.9</ele>
        <time>2026-04-28T11:00:57Z</time>
      </trkpt>
      <trkpt lat="44.94581" lon="4.00729">
        <ele>1042.7</ele>
        <time>2026-04-28T11:01:02Z</time>
      </trkpt>
      <trkpt lat="44.94582" lon="4.00739">
        <ele>1042.4</ele>
        <time>2026-04-28T11:01:07Z</time>
      </trkpt>
      <trkpt lat="44.94582" lon="4.00752">
        <ele>1042.1</ele>
        <time>2026-04-28T11:01:12Z</time>
      </trkpt>
      <trkpt lat="44.94582" lon="4.00763">
        <ele>1042.1</ele>
        <time>2026-04-28T11:01:17Z</time>
      </trkpt>
      <trkpt lat="44.94582" lon="4.00774">
        <ele>1042.1</ele>
        <time>2026-04-28T11:01:22Z</time>
      </trkpt>
      <trkpt lat="44.94582" lon="4.00785">
        <ele>1042.1</ele>
        <time>2026-04-28T11:01:27Z</time>
      </trkpt>
      <trkpt lat="44.94582" lon="4.00798">
        <ele>1042.1</ele>
        <time>2026-04-28T11:01:32Z</time>
      </trkpt>
      <trkpt lat="44.94582" lon="4.00809">
        <ele>1042.1</ele>
        <time>2026-04-28T11:01:37Z</time>
      </trkpt>
      <trkpt lat="44.94583" lon="4.0082">
        <ele>1042</ele>
        <time>2026-04-28T11:01:42Z</time>
      </trkpt>
      <trkpt lat="44.94583" lon="4.0083">
        <ele>1042</ele>
        <time>2026-04-28T11:01:47Z</time>
      </trkpt>
      <trkpt lat="44.94583" lon="4.00842">
        <ele>1041.9</ele>
        <time>2026-04-28T11:01:52Z</time>
      </trkpt>
      <trkpt lat="44.94584" lon="4.00853">
        <ele>1041.7</ele>
        <time>2026-04-28T11:01:57Z</time>
      </trkpt>
      <trkpt lat="44.94584" lon="4.00863">
        <ele>1041.6</ele>
        <time>2026-04-28T11:02:02Z</time>
      </trkpt>
      <trkpt lat="44.94585" lon="4.00875">
        <ele>1041.4</ele>
        <time>2026-04-28T11:02:07Z</time>
      </trkpt>
      <trkpt lat="44.94586" lon="4.00886">
        <ele>1041.2</ele>
        <time>2026-04-28T11:02:12Z</time>
      </trkpt>
      <trkpt lat="44.94587" lon="4.00896">
        <ele>1041.1</ele>
        <time>2026-04-28T11:02:17Z</time>
      </trkpt>
      <trkpt lat="44.94588" lon="4.00906">
        <ele>1040.9</ele>
        <time>2026-04-28T11:02:22Z</time>
      </trkpt>
      <trkpt lat="44.9459" lon="4.00917">
        <ele>1040.7</ele>
        <time>2026-04-28T11:02:27Z</time>
      </trkpt>
      <trkpt lat="44.9459" lon="4.00927">
        <ele>1040.3</ele>
        <time>2026-04-28T11:02:32Z</time>
      </trkpt>
      <trkpt lat="44.94591" lon="4.00938">
        <ele>1040</ele>
        <time>2026-04-28T11:02:37Z</time>
      </trkpt>
      <trkpt lat="44.94592" lon="4.00949">
        <ele>1039.6</ele>
        <time>2026-04-28T11:02:42Z</time>
      </trkpt>
      <trkpt lat="44.94593" lon="4.00959">
        <ele>1039.2</ele>
        <time>2026-04-28T11:02:47Z</time>
      </trkpt>
      <trkpt lat="44.94593" lon="4.0097">
        <ele>1038.9</ele>
        <time>2026-04-28T11:02:52Z</time>
      </trkpt>
      <trkpt lat="44.94594" lon="4.0098">
        <ele>1038.6</ele>
        <time>2026-04-28T11:02:57Z</time>
      </trkpt>
      <trkpt lat="44.94594" lon="4.00991">
        <ele>1038.3</ele>
        <time>2026-04-28T11:03:02Z</time>
      </trkpt>
      <trkpt lat="44.94593" lon="4.01002">
        <ele>1037.9</ele>
        <time>2026-04-28T11:03:07Z</time>
      </trkpt>
      <trkpt lat="44.94593" lon="4.01012">
        <ele>1037.4</ele>
        <time>2026-04-28T11:03:12Z</time>
      </trkpt>
      <trkpt lat="44.94592" lon="4.01023">
        <ele>1036.8</ele>
        <time>2026-04-28T11:03:17Z</time>
      </trkpt>
      <trkpt lat="44.94591" lon="4.01034">
        <ele>1036.1</ele>
        <time>2026-04-28T11:03:22Z</time>
      </trkpt>
      <trkpt lat="44.94588" lon="4.01044">
        <ele>1035.5</ele>
        <time>2026-04-28T11:03:27Z</time>
      </trkpt>
      <trkpt lat="44.94584" lon="4.01053">
        <ele>1034.8</ele>
        <time>2026-04-28T11:03:32Z</time>
      </trkpt>
      <trkpt lat="44.94579" lon="4.01062">
        <ele>1034.1</ele>
        <time>2026-04-28T11:03:37Z</time>
      </trkpt>
      <trkpt lat="44.94574" lon="4.01071">
        <ele>1033.2</ele>
        <time>2026-04-28T11:03:42Z</time>
      </trkpt>
      <trkpt lat="44.94568" lon="4.01081">
        <ele>1032.1</ele>
        <time>2026-04-28T11:03:47Z</time>
      </trkpt>
      <trkpt lat="44.94565" lon="4.01088">
        <ele>1031.4</ele>
        <time>2026-04-28T11:03:52Z</time>
      </trkpt>
      <trkpt lat="44.9456" lon="4.01097">
        <ele>1030.5</ele>
        <time>2026-04-28T11:03:57Z</time>
      </trkpt>
      <trkpt lat="44.94556" lon="4.01105">
        <ele>1029.7</ele>
        <time>2026-04-28T11:04:02Z</time>
      </trkpt>
      <trkpt lat="44.94555" lon="4.01114">
        <ele>1029.1</ele>
        <time>2026-04-28T11:04:07Z</time>
      </trkpt>
      <trkpt lat="44.94557" lon="4.01126">
        <ele>1028.6</ele>
        <time>2026-04-28T11:04:12Z</time>
      </trkpt>
      <trkpt lat="44.94559" lon="4.01137">
        <ele>1028.1</ele>
        <time>2026-04-28T11:04:17Z</time>
      </trkpt>
      <trkpt lat="44.94559" lon="4.01147">
        <ele>1027.5</ele>
        <time>2026-04-28T11:04:22Z</time>
      </trkpt>
      <trkpt lat="44.94561" lon="4.01155">
        <ele>1027.3</ele>
        <time>2026-04-28T11:04:27Z</time>
      </trkpt>
      <trkpt lat="44.94563" lon="4.01164">
        <ele>1027</ele>
        <time>2026-04-28T11:04:32Z</time>
      </trkpt>
      <trkpt lat="44.94564" lon="4.01175">
        <ele>1026.8</ele>
        <time>2026-04-28T11:04:37Z</time>
      </trkpt>
      <trkpt lat="44.94566" lon="4.01184">
        <ele>1026.9</ele>
        <time>2026-04-28T11:04:42Z</time>
      </trkpt>
      <trkpt lat="44.94568" lon="4.01194">
        <ele>1027</ele>
        <time>2026-04-28T11:04:47Z</time>
      </trkpt>
      <trkpt lat="44.9457" lon="4.01202">
        <ele>1027.1</ele>
        <time>2026-04-28T11:04:52Z</time>
      </trkpt>
      <trkpt lat="44.94573" lon="4.01212">
        <ele>1027.3</ele>
        <time>2026-04-28T11:04:57Z</time>
      </trkpt>
      <trkpt lat="44.94574" lon="4.01223">
        <ele>1027.2</ele>
        <time>2026-04-28T11:05:02Z</time>
      </trkpt>
      <trkpt lat="44.94576" lon="4.01234">
        <ele>1027.3</ele>
        <time>2026-04-28T11:05:07Z</time>
      </trkpt>
      <trkpt lat="44.94578" lon="4.01241">
        <ele>1027.5</ele>
        <time>2026-04-28T11:05:12Z</time>
      </trkpt>
      <trkpt lat="44.94581" lon="4.01252">
        <ele>1027.7</ele>
        <time>2026-04-28T11:05:17Z</time>
      </trkpt>
      <trkpt lat="44.94584" lon="4.01262">
        <ele>1028.1</ele>
        <time>2026-04-28T11:05:22Z</time>
      </trkpt>
      <trkpt lat="44.94586" lon="4.01272">
        <ele>1028.4</ele>
        <time>2026-04-28T11:05:27Z</time>
      </trkpt>
      <trkpt lat="44.94589" lon="4.01281">
        <ele>1028.9</ele>
        <time>2026-04-28T11:05:32Z</time>
      </trkpt>
      <trkpt lat="44.94593" lon="4.01289">
        <ele>1029.5</ele>
        <time>2026-04-28T11:05:37Z</time>
      </trkpt>
      <trkpt lat="44.94596" lon="4.01298">
        <ele>1030</ele>
        <time>2026-04-28T11:05:42Z</time>
      </trkpt>
      <trkpt lat="44.94598" lon="4.01309">
        <ele>1030.4</ele>
        <time>2026-04-28T11:05:47Z</time>
      </trkpt>
      <trkpt lat="44.94599" lon="4.01319">
        <ele>1030.6</ele>
        <time>2026-04-28T11:05:52Z</time>
      </trkpt>
      <trkpt lat="44.94601" lon="4.01329">
        <ele>1030.9</ele>
        <time>2026-04-28T11:05:57Z</time>
      </trkpt>
      <trkpt lat="44.94603" lon="4.01339">
        <ele>1031.6</ele>
        <time>2026-04-28T11:06:02Z</time>
      </trkpt>
      <trkpt lat="44.94604" lon="4.01349">
        <ele>1032.2</ele>
        <time>2026-04-28T11:06:07Z</time>
      </trkpt>
      <trkpt lat="44.94604" lon="4.0136">
        <ele>1032.7</ele>
        <time>2026-04-28T11:06:12Z</time>
      </trkpt>
      <trkpt lat="44.94607" lon="4.0137">
        <ele>1033.6</ele>
        <time>2026-04-28T11:06:17Z</time>
      </trkpt>
      <trkpt lat="44.94607" lon="4.0138">
        <ele>1034.1</ele>
        <time>2026-04-28T11:06:22Z</time>
      </trkpt>
      <trkpt lat="44.94607" lon="4.0139">
        <ele>1034.5</ele>
        <time>2026-04-28T11:06:27Z</time>
      </trkpt>
      <trkpt lat="44.94609" lon="4.014">
        <ele>1035.3</ele>
        <time>2026-04-28T11:06:32Z</time>
      </trkpt>
      <trkpt lat="44.94609" lon="4.01411">
        <ele>1035.8</ele>
        <time>2026-04-28T11:06:37Z</time>
      </trkpt>
      <trkpt lat="44.94609" lon="4.01421">
        <ele>1036.3</ele>
        <time>2026-04-28T11:06:42Z</time>
      </trkpt>
      <trkpt lat="44.9461" lon="4.01431">
        <ele>1037.3</ele>
        <time>2026-04-28T11:06:47Z</time>
      </trkpt>
      <trkpt lat="44.9461" lon="4.0144">
        <ele>1038</ele>
        <time>2026-04-28T11:06:52Z</time>
      </trkpt>
      <trkpt lat="44.94609" lon="4.01447">
        <ele>1038.4</ele>
        <time>2026-04-28T11:06:57Z</time>
      </trkpt>
      <trkpt lat="44.94608" lon="4.01456">
        <ele>1039</ele>
        <time>2026-04-28T11:07:02Z</time>
      </trkpt>
      <trkpt lat="44.94606" lon="4.01467">
        <ele>1039.5</ele>
        <time>2026-04-28T11:07:07Z</time>
      </trkpt>
      <trkpt lat="44.94604" lon="4.01476">
        <ele>1039.8</ele>
        <time>2026-04-28T11:07:12Z</time>
      </trkpt>
      <trkpt lat="44.94602" lon="4.01485">
        <ele>1040.2</ele>
        <time>2026-04-28T11:07:17Z</time>
      </trkpt>
      <trkpt lat="44.94599" lon="4.01494">
        <ele>1040.4</ele>
        <time>2026-04-28T11:07:22Z</time>
      </trkpt>
      <trkpt lat="44.94597" lon="4.01504">
        <ele>1040.8</ele>
        <time>2026-04-28T11:07:27Z</time>
      </trkpt>
      <trkpt lat="44.94595" lon="4.01513">
        <ele>1041.3</ele>
        <time>2026-04-28T11:07:32Z</time>
      </trkpt>
      <trkpt lat="44.94593" lon="4.01521">
        <ele>1041.6</ele>
        <time>2026-04-28T11:07:37Z</time>
      </trkpt>
      <trkpt lat="44.9459" lon="4.01531">
        <ele>1042.1</ele>
        <time>2026-04-28T11:07:42Z</time>
      </trkpt>
      <trkpt lat="44.94587" lon="4.0154">
        <ele>1042.4</ele>
        <time>2026-04-28T11:07:47Z</time>
      </trkpt>
      <trkpt lat="44.94585" lon="4.01549">
        <ele>1043</ele>
        <time>2026-04-28T11:07:52Z</time>
      </trkpt>
      <trkpt lat="44.94582" lon="4.01558">
        <ele>1043.4</ele>
        <time>2026-04-28T11:07:57Z</time>
      </trkpt>
      <trkpt lat="44.94578" lon="4.01568">
        <ele>1043.7</ele>
        <time>2026-04-28T11:08:02Z</time>
      </trkpt>
      <trkpt lat="44.94576" lon="4.01576">
        <ele>1044.2</ele>
        <time>2026-04-28T11:08:07Z</time>
      </trkpt>
      <trkpt lat="44.94572" lon="4.01585">
        <ele>1044.4</ele>
        <time>2026-04-28T11:08:12Z</time>
      </trkpt>
      <trkpt lat="44.94569" lon="4.01594">
        <ele>1044.8</ele>
        <time>2026-04-28T11:08:17Z</time>
      </trkpt>
      <trkpt lat="44.94565" lon="4.01603">
        <ele>1045</ele>
        <time>2026-04-28T11:08:22Z</time>
      </trkpt>
      <trkpt lat="44.94563" lon="4.01613">
        <ele>1045.6</ele>
        <time>2026-04-28T11:08:27Z</time>
      </trkpt>
      <trkpt lat="44.9456" lon="4.01624">
        <ele>1046.1</ele>
        <time>2026-04-28T11:08:32Z</time>
      </trkpt>
      <trkpt lat="44.94557" lon="4.01635">
        <ele>1046.5</ele>
        <time>2026-04-28T11:08:37Z</time>
      </trkpt>
      <trkpt lat="44.94556" lon="4.01644">
        <ele>1047.1</ele>
        <time>2026-04-28T11:08:42Z</time>
      </trkpt>
      <trkpt lat="44.94555" lon="4.01651">
        <ele>1047.5</ele>
        <time>2026-04-28T11:08:47Z</time>
      </trkpt>
      <trkpt lat="44.94552" lon="4.01661">
        <ele>1047.7</ele>
        <time>2026-04-28T11:08:52Z</time>
      </trkpt>
      <trkpt lat="44.94549" lon="4.0167">
        <ele>1047.9</ele>
        <time>2026-04-28T11:08:57Z</time>
      </trkpt>
      <trkpt lat="44.94547" lon="4.01677">
        <ele>1048.2</ele>
        <time>2026-04-28T11:09:02Z</time>
      </trkpt>
      <trkpt lat="44.94546" lon="4.01685">
        <ele>1048.9</ele>
        <time>2026-04-28T11:09:07Z</time>
      </trkpt>
      <trkpt lat="44.94544" lon="4.01695">
        <ele>1049.5</ele>
        <time>2026-04-28T11:09:12Z</time>
      </trkpt>
      <trkpt lat="44.94542" lon="4.01703">
        <ele>1050</ele>
        <time>2026-04-28T11:09:17Z</time>
      </trkpt>
      <trkpt lat="44.94539" lon="4.01712">
        <ele>1050.4</ele>
        <time>2026-04-28T11:09:22Z</time>
      </trkpt>
      <trkpt lat="44.94537" lon="4.0172">
        <ele>1050.9</ele>
        <time>2026-04-28T11:09:27Z</time>
      </trkpt>
      <trkpt lat="44.94534" lon="4.01726">
        <ele>1051</ele>
        <time>2026-04-28T11:09:32Z</time>
      </trkpt>
      <trkpt lat="44.94531" lon="4.01735">
        <ele>1051.5</ele>
        <time>2026-04-28T11:09:37Z</time>
      </trkpt>
      <trkpt lat="44.94529" lon="4.01744">
        <ele>1052.2</ele>
        <time>2026-04-28T11:09:42Z</time>
      </trkpt>
      <trkpt lat="44.94526" lon="4.01753">
        <ele>1052.8</ele>
        <time>2026-04-28T11:09:47Z</time>
      </trkpt>
      <trkpt lat="44.94523" lon="4.0176">
        <ele>1053.2</ele>
        <time>2026-04-28T11:09:52Z</time>
      </trkpt>
      <trkpt lat="44.94521" lon="4.01769">
        <ele>1054.1</ele>
        <time>2026-04-28T11:09:57Z</time>
      </trkpt>
      <trkpt lat="44.9452" lon="4.01777">
        <ele>1055.1</ele>
        <time>2026-04-28T11:10:02Z</time>
      </trkpt>
      <trkpt lat="44.9452" lon="4.01786">
        <ele>1056.4</ele>
        <time>2026-04-28T11:10:07Z</time>
      </trkpt>
      <trkpt lat="44.94518" lon="4.01794">
        <ele>1057.3</ele>
        <time>2026-04-28T11:10:12Z</time>
      </trkpt>
      <trkpt lat="44.94516" lon="4.01804">
        <ele>1058.5</ele>
        <time>2026-04-28T11:10:17Z</time>
      </trkpt>
      <trkpt lat="44.94516" lon="4.01812">
        <ele>1059.7</ele>
        <time>2026-04-28T11:10:22Z</time>
      </trkpt>
      <trkpt lat="44.94514" lon="4.0182">
        <ele>1060.7</ele>
        <time>2026-04-28T11:10:27Z</time>
      </trkpt>
      <trkpt lat="44.94514" lon="4.01831">
        <ele>1062.3</ele>
        <time>2026-04-28T11:10:32Z</time>
      </trkpt>
      <trkpt lat="44.94511" lon="4.01842">
        <ele>1063.4</ele>
        <time>2026-04-28T11:10:37Z</time>
      </trkpt>
      <trkpt lat="44.9451" lon="4.01849">
        <ele>1064.1</ele>
        <time>2026-04-28T11:10:42Z</time>
      </trkpt>
      <trkpt lat="44.94511" lon="4.01857">
        <ele>1065</ele>
        <time>2026-04-28T11:10:47Z</time>
      </trkpt>
      <trkpt lat="44.9451" lon="4.01867">
        <ele>1066</ele>
        <time>2026-04-28T11:10:52Z</time>
      </trkpt>
      <trkpt lat="44.94508" lon="4.01875">
        <ele>1066.8</ele>
        <time>2026-04-28T11:10:57Z</time>
      </trkpt>
      <trkpt lat="44.94505" lon="4.01884">
        <ele>1067.6</ele>
        <time>2026-04-28T11:11:02Z</time>
      </trkpt>
      <trkpt lat="44.94503" lon="4.01892">
        <ele>1068.4</ele>
        <time>2026-04-28T11:11:07Z</time>
      </trkpt>
      <trkpt lat="44.945" lon="4.01901">
        <ele>1069.3</ele>
        <time>2026-04-28T11:11:12Z</time>
      </trkpt>
      <trkpt lat="44.94498" lon="4.01909">
        <ele>1070</ele>
        <time>2026-04-28T11:11:17Z</time>
      </trkpt>
      <trkpt lat="44.94496" lon="4.01917">
        <ele>1070.6</ele>
        <time>2026-04-28T11:11:22Z</time>
      </trkpt>
      <trkpt lat="44.94494" lon="4.01927">
        <ele>1070.8</ele>
        <time>2026-04-28T11:11:27Z</time>
      </trkpt>
      <trkpt lat="44.94493" lon="4.01936">
        <ele>1071.1</ele>
        <time>2026-04-28T11:11:32Z</time>
      </trkpt>
      <trkpt lat="44.94492" lon="4.01945">
        <ele>1071.4</ele>
        <time>2026-04-28T11:11:37Z</time>
      </trkpt>
      <trkpt lat="44.94491" lon="4.01952">
        <ele>1071.6</ele>
        <time>2026-04-28T11:11:42Z</time>
      </trkpt>
      <trkpt lat="44.9449" lon="4.01962">
        <ele>1071.9</ele>
        <time>2026-04-28T11:11:47Z</time>
      </trkpt>
      <trkpt lat="44.9449" lon="4.01972">
        <ele>1072.4</ele>
        <time>2026-04-28T11:11:52Z</time>
      </trkpt>
      <trkpt lat="44.94489" lon="4.01981">
        <ele>1072.7</ele>
        <time>2026-04-28T11:11:57Z</time>
      </trkpt>
      <trkpt lat="44.94489" lon="4.0199">
        <ele>1073</ele>
        <time>2026-04-28T11:12:02Z</time>
      </trkpt>
      <trkpt lat="44.94488" lon="4.01999">
        <ele>1073.4</ele>
        <time>2026-04-28T11:12:07Z</time>
      </trkpt>
      <trkpt lat="44.94487" lon="4.02008">
        <ele>1073.6</ele>
        <time>2026-04-28T11:12:12Z</time>
      </trkpt>
      <trkpt lat="44.94486" lon="4.02011">
        <ele>1073.6</ele>
        <time>2026-04-28T11:12:17Z</time>
      </trkpt>
      <trkpt lat="44.94485" lon="4.02017">
        <ele>1073.7</ele>
        <time>2026-04-28T11:12:22Z</time>
      </trkpt>
      <trkpt lat="44.94484" lon="4.02027">
        <ele>1073.8</ele>
        <time>2026-04-28T11:12:27Z</time>
      </trkpt>
      <trkpt lat="44.94483" lon="4.02037">
        <ele>1074</ele>
        <time>2026-04-28T11:12:32Z</time>
      </trkpt>
      <trkpt lat="44.94482" lon="4.02046">
        <ele>1074.1</ele>
        <time>2026-04-28T11:12:37Z</time>
      </trkpt>
      <trkpt lat="44.94481" lon="4.02054">
        <ele>1074.2</ele>
        <time>2026-04-28T11:12:42Z</time>
      </trkpt>
      <trkpt lat="44.94481" lon="4.02062">
        <ele>1074.4</ele>
        <time>2026-04-28T11:12:47Z</time>
      </trkpt>
      <trkpt lat="44.94481" lon="4.02071">
        <ele>1074.6</ele>
        <time>2026-04-28T11:12:52Z</time>
      </trkpt>
      <trkpt lat="44.94481" lon="4.02082">
        <ele>1074.8</ele>
        <time>2026-04-28T11:12:57Z</time>
      </trkpt>
      <trkpt lat="44.94479" lon="4.02091">
        <ele>1075</ele>
        <time>2026-04-28T11:13:02Z</time>
      </trkpt>
      <trkpt lat="44.94479" lon="4.02099">
        <ele>1075.4</ele>
        <time>2026-04-28T11:13:07Z</time>
      </trkpt>
      <trkpt lat="44.94479" lon="4.02109">
        <ele>1075.7</ele>
        <time>2026-04-28T11:13:12Z</time>
      </trkpt>
      <trkpt lat="44.94479" lon="4.02114">
        <ele>1075.9</ele>
        <time>2026-04-28T11:13:17Z</time>
      </trkpt>
      <trkpt lat="44.94478" lon="4.0212">
        <ele>1076.1</ele>
        <time>2026-04-28T11:13:22Z</time>
      </trkpt>
      <trkpt lat="44.94478" lon="4.02133">
        <ele>1076.6</ele>
        <time>2026-04-28T11:13:27Z</time>
      </trkpt>
      <trkpt lat="44.94477" lon="4.02143">
        <ele>1077</ele>
        <time>2026-04-28T11:13:32Z</time>
      </trkpt>
      <trkpt lat="44.94477" lon="4.02152">
        <ele>1077.3</ele>
        <time>2026-04-28T11:13:37Z</time>
      </trkpt>
      <trkpt lat="44.94476" lon="4.02163">
        <ele>1077.7</ele>
        <time>2026-04-28T11:13:42Z</time>
      </trkpt>
      <trkpt lat="44.94476" lon="4.02172">
        <ele>1078.1</ele>
        <time>2026-04-28T11:13:47Z</time>
      </trkpt>
      <trkpt lat="44.94476" lon="4.02181">
        <ele>1078.5</ele>
        <time>2026-04-28T11:13:52Z</time>
      </trkpt>
      <trkpt lat="44.94475" lon="4.02191">
        <ele>1079</ele>
        <time>2026-04-28T11:13:57Z</time>
      </trkpt>
      <trkpt lat="44.94472" lon="4.022">
        <ele>1079.4</ele>
        <time>2026-04-28T11:14:02Z</time>
      </trkpt>
      <trkpt lat="44.94472" lon="4.02209">
        <ele>1079.9</ele>
        <time>2026-04-28T11:14:07Z</time>
      </trkpt>
      <trkpt lat="44.94469" lon="4.02218">
        <ele>1080.3</ele>
        <time>2026-04-28T11:14:12Z</time>
      </trkpt>
      <trkpt lat="44.94467" lon="4.02228">
        <ele>1080.9</ele>
        <time>2026-04-28T11:14:17Z</time>
      </trkpt>
      <trkpt lat="44.94465" lon="4.02238">
        <ele>1081.5</ele>
        <time>2026-04-28T11:14:22Z</time>
      </trkpt>
      <trkpt lat="44.94464" lon="4.02248">
        <ele>1082.2</ele>
        <time>2026-04-28T11:14:27Z</time>
      </trkpt>
      <trkpt lat="44.94464" lon="4.0226">
        <ele>1083.1</ele>
        <time>2026-04-28T11:14:32Z</time>
      </trkpt>
      <trkpt lat="44.94464" lon="4.02266">
        <ele>1083.6</ele>
        <time>2026-04-28T11:14:37Z</time>
      </trkpt>
      <trkpt lat="44.94464" lon="4.02267">
        <ele>1083.7</ele>
        <time>2026-04-28T11:14:42Z</time>
      </trkpt>
      <trkpt lat="44.94464" lon="4.02268">
        <ele>1083.7</ele>
        <time>2026-04-28T11:14:47Z</time>
      </trkpt>
      <trkpt lat="44.94464" lon="4.02268">
        <ele>1083.7</ele>
        <time>2026-04-28T11:14:52Z</time>
      </trkpt>
      <trkpt lat="44.94464" lon="4.02268">
        <ele>1083.7</ele>
        <time>2026-04-28T11:14:57Z</time>
      </trkpt>
      <trkpt lat="44.94464" lon="4.02268">
        <ele>1083.7</ele>
        <time>2026-04-28T11:15:02Z</time>
      </trkpt>
      <trkpt lat="44.94464" lon="4.02268">
        <ele>1083.7</ele>
        <time>2026-04-28T11:15:07Z</time>
      </trkpt>
      <trkpt lat="44.94462" lon="4.02278">
        <ele>1084.7</ele>
        <time>2026-04-28T11:15:12Z</time>
      </trkpt>
      <trkpt lat="44.9446" lon="4.02287">
        <ele>1085.5</ele>
        <time>2026-04-28T11:15:17Z</time>
      </trkpt>
      <trkpt lat="44.94458" lon="4.02297">
        <ele>1086.5</ele>
        <time>2026-04-28T11:15:22Z</time>
      </trkpt>
      <trkpt lat="44.94456" lon="4.02307">
        <ele>1087.4</ele>
        <time>2026-04-28T11:15:27Z</time>
      </trkpt>
      <trkpt lat="44.94456" lon="4.02316">
        <ele>1088.2</ele>
        <time>2026-04-28T11:15:32Z</time>
      </trkpt>
      <trkpt lat="44.94456" lon="4.02325">
        <ele>1089</ele>
        <time>2026-04-28T11:15:37Z</time>
      </trkpt>
      <trkpt lat="44.94456" lon="4.02335">
        <ele>1089.8</ele>
        <time>2026-04-28T11:15:42Z</time>
      </trkpt>
      <trkpt lat="44.94455" lon="4.02346">
        <ele>1090.7</ele>
        <time>2026-04-28T11:15:47Z</time>
      </trkpt>
      <trkpt lat="44.94456" lon="4.02357">
        <ele>1091.4</ele>
        <time>2026-04-28T11:15:52Z</time>
      </trkpt>
      <trkpt lat="44.94457" lon="4.02369">
        <ele>1092.2</ele>
        <time>2026-04-28T11:15:57Z</time>
      </trkpt>
      <trkpt lat="44.94458" lon="4.0238">
        <ele>1092.9</ele>
        <time>2026-04-28T11:16:02Z</time>
      </trkpt>
      <trkpt lat="44.94458" lon="4.0239">
        <ele>1093.6</ele>
        <time>2026-04-28T11:16:07Z</time>
      </trkpt>
      <trkpt lat="44.94459" lon="4.02399">
        <ele>1094.1</ele>
        <time>2026-04-28T11:16:12Z</time>
      </trkpt>
      <trkpt lat="44.94458" lon="4.0241">
        <ele>1095.1</ele>
        <time>2026-04-28T11:16:17Z</time>
      </trkpt>
      <trkpt lat="44.94458" lon="4.02421">
        <ele>1095.5</ele>
        <time>2026-04-28T11:16:22Z</time>
      </trkpt>
      <trkpt lat="44.94457" lon="4.02431">
        <ele>1095.4</ele>
        <time>2026-04-28T11:16:27Z</time>
      </trkpt>
      <trkpt lat="44.94455" lon="4.0244">
        <ele>1095.6</ele>
        <time>2026-04-28T11:16:32Z</time>
      </trkpt>
      <trkpt lat="44.94453" lon="4.0245">
        <ele>1095.7</ele>
        <time>2026-04-28T11:16:37Z</time>
      </trkpt>
      <trkpt lat="44.94451" lon="4.02458">
        <ele>1095.9</ele>
        <time>2026-04-28T11:16:42Z</time>
      </trkpt>
      <trkpt lat="44.94448" lon="4.02466">
        <ele>1096.2</ele>
        <time>2026-04-28T11:16:47Z</time>
      </trkpt>
      <trkpt lat="44.94444" lon="4.02477">
        <ele>1096.7</ele>
        <time>2026-04-28T11:16:52Z</time>
      </trkpt>
      <trkpt lat="44.94439" lon="4.02486">
        <ele>1097.4</ele>
        <time>2026-04-28T11:16:57Z</time>
      </trkpt>
      <trkpt lat="44.94435" lon="4.02496">
        <ele>1098</ele>
        <time>2026-04-28T11:17:02Z</time>
      </trkpt>
      <trkpt lat="44.94431" lon="4.02506">
        <ele>1098.2</ele>
        <time>2026-04-28T11:17:07Z</time>
      </trkpt>
      <trkpt lat="44.94427" lon="4.02517">
        <ele>1098.2</ele>
        <time>2026-04-28T11:17:12Z</time>
      </trkpt>
      <trkpt lat="44.94424" lon="4.02527">
        <ele>1098.1</ele>
        <time>2026-04-28T11:17:17Z</time>
      </trkpt>
      <trkpt lat="44.9442" lon="4.02534">
        <ele>1098.4</ele>
        <time>2026-04-28T11:17:22Z</time>
      </trkpt>
      <trkpt lat="44.94417" lon="4.02545">
        <ele>1098.2</ele>
        <time>2026-04-28T11:17:27Z</time>
      </trkpt>
      <trkpt lat="44.94413" lon="4.02555">
        <ele>1097.9</ele>
        <time>2026-04-28T11:17:32Z</time>
      </trkpt>
      <trkpt lat="44.9441" lon="4.02565">
        <ele>1097.5</ele>
        <time>2026-04-28T11:17:37Z</time>
      </trkpt>
      <trkpt lat="44.94406" lon="4.02575">
        <ele>1097.1</ele>
        <time>2026-04-28T11:17:42Z</time>
      </trkpt>
      <trkpt lat="44.94402" lon="4.02585">
        <ele>1096.8</ele>
        <time>2026-04-28T11:17:47Z</time>
      </trkpt>
      <trkpt lat="44.94399" lon="4.02595">
        <ele>1096.6</ele>
        <time>2026-04-28T11:17:52Z</time>
      </trkpt>
      <trkpt lat="44.94395" lon="4.02606">
        <ele>1096.5</ele>
        <time>2026-04-28T11:17:57Z</time>
      </trkpt>
      <trkpt lat="44.94392" lon="4.02618">
        <ele>1096.2</ele>
        <time>2026-04-28T11:18:02Z</time>
      </trkpt>
      <trkpt lat="44.94389" lon="4.02627">
        <ele>1096.1</ele>
        <time>2026-04-28T11:18:07Z</time>
      </trkpt>
      <trkpt lat="44.94385" lon="4.02638">
        <ele>1095.9</ele>
        <time>2026-04-28T11:18:12Z</time>
      </trkpt>
      <trkpt lat="44.94381" lon="4.02648">
        <ele>1095.8</ele>
        <time>2026-04-28T11:18:17Z</time>
      </trkpt>
      <trkpt lat="44.94379" lon="4.02657">
        <ele>1095.6</ele>
        <time>2026-04-28T11:18:22Z</time>
      </trkpt>
      <trkpt lat="44.94376" lon="4.02667">
        <ele>1095.4</ele>
        <time>2026-04-28T11:18:27Z</time>
      </trkpt>
      <trkpt lat="44.94373" lon="4.02677">
        <ele>1095.1</ele>
        <time>2026-04-28T11:18:32Z</time>
      </trkpt>
      <trkpt lat="44.94372" lon="4.02687">
        <ele>1094.7</ele>
        <time>2026-04-28T11:18:37Z</time>
      </trkpt>
      <trkpt lat="44.9437" lon="4.02697">
        <ele>1094.4</ele>
        <time>2026-04-28T11:18:42Z</time>
      </trkpt>
      <trkpt lat="44.94368" lon="4.02708">
        <ele>1094</ele>
        <time>2026-04-28T11:18:47Z</time>
      </trkpt>
      <trkpt lat="44.94366" lon="4.02718">
        <ele>1093.7</ele>
        <time>2026-04-28T11:18:52Z</time>
      </trkpt>
      <trkpt lat="44.94365" lon="4.02727">
        <ele>1093.4</ele>
        <time>2026-04-28T11:18:57Z</time>
      </trkpt>
      <trkpt lat="44.94363" lon="4.02736">
        <ele>1093.1</ele>
        <time>2026-04-28T11:19:02Z</time>
      </trkpt>
      <trkpt lat="44.94361" lon="4.02746">
        <ele>1092.9</ele>
        <time>2026-04-28T11:19:07Z</time>
      </trkpt>
      <trkpt lat="44.94359" lon="4.02759">
        <ele>1092.6</ele>
        <time>2026-04-28T11:19:12Z</time>
      </trkpt>
      <trkpt lat="44.94355" lon="4.0277">
        <ele>1092.5</ele>
        <time>2026-04-28T11:19:17Z</time>
      </trkpt>
      <trkpt lat="44.94353" lon="4.02781">
        <ele>1092.3</ele>
        <time>2026-04-28T11:19:22Z</time>
      </trkpt>
      <trkpt lat="44.94351" lon="4.02789">
        <ele>1092.2</ele>
        <time>2026-04-28T11:19:27Z</time>
      </trkpt>
      <trkpt lat="44.94351" lon="4.0279">
        <ele>1092.2</ele>
        <time>2026-04-28T11:19:32Z</time>
      </trkpt>
      <trkpt lat="44.9435" lon="4.02799">
        <ele>1092</ele>
        <time>2026-04-28T11:19:37Z</time>
      </trkpt>
      <trkpt lat="44.94347" lon="4.02809">
        <ele>1091.8</ele>
        <time>2026-04-28T11:19:42Z</time>
      </trkpt>
      <trkpt lat="44.94344" lon="4.02819">
        <ele>1091.7</ele>
        <time>2026-04-28T11:19:47Z</time>
      </trkpt>
      <trkpt lat="44.94339" lon="4.02828">
        <ele>1091.8</ele>
        <time>2026-04-28T11:19:52Z</time>
      </trkpt>
      <trkpt lat="44.94336" lon="4.02837">
        <ele>1091.7</ele>
        <time>2026-04-28T11:19:57Z</time>
      </trkpt>
      <trkpt lat="44.94332" lon="4.02846">
        <ele>1091.8</ele>
        <time>2026-04-28T11:20:02Z</time>
      </trkpt>
      <trkpt lat="44.94328" lon="4.02855">
        <ele>1091.7</ele>
        <time>2026-04-28T11:20:07Z</time>
      </trkpt>
      <trkpt lat="44.94323" lon="4.02863">
        <ele>1091.7</ele>
        <time>2026-04-28T11:20:12Z</time>
      </trkpt>
      <trkpt lat="44.94319" lon="4.0287">
        <ele>1091.7</ele>
        <time>2026-04-28T11:20:17Z</time>
      </trkpt>
      <trkpt lat="44.94313" lon="4.02877">
        <ele>1091.8</ele>
        <time>2026-04-28T11:20:22Z</time>
      </trkpt>
      <trkpt lat="44.94308" lon="4.02884">
        <ele>1091.8</ele>
        <time>2026-04-28T11:20:27Z</time>
      </trkpt>
      <trkpt lat="44.94304" lon="4.02892">
        <ele>1091.8</ele>
        <time>2026-04-28T11:20:32Z</time>
      </trkpt>
      <trkpt lat="44.94298" lon="4.02901">
        <ele>1091.7</ele>
        <time>2026-04-28T11:20:37Z</time>
      </trkpt>
      <trkpt lat="44.94293" lon="4.0291">
        <ele>1091.7</ele>
        <time>2026-04-28T11:20:42Z</time>
      </trkpt>
      <trkpt lat="44.94289" lon="4.02919">
        <ele>1091.6</ele>
        <time>2026-04-28T11:20:47Z</time>
      </trkpt>
      <trkpt lat="44.94285" lon="4.02929">
        <ele>1091.8</ele>
        <time>2026-04-28T11:20:52Z</time>
      </trkpt>
      <trkpt lat="44.94283" lon="4.0294">
        <ele>1091.9</ele>
        <time>2026-04-28T11:20:57Z</time>
      </trkpt>
      <trkpt lat="44.9428" lon="4.02951">
        <ele>1092</ele>
        <time>2026-04-28T11:21:02Z</time>
      </trkpt>
      <trkpt lat="44.94277" lon="4.02961">
        <ele>1092</ele>
        <time>2026-04-28T11:21:07Z</time>
      </trkpt>
      <trkpt lat="44.94274" lon="4.02971">
        <ele>1092</ele>
        <time>2026-04-28T11:21:12Z</time>
      </trkpt>
      <trkpt lat="44.94271" lon="4.02981">
        <ele>1092.1</ele>
        <time>2026-04-28T11:21:17Z</time>
      </trkpt>
      <trkpt lat="44.94268" lon="4.0299">
        <ele>1092</ele>
        <time>2026-04-28T11:21:22Z</time>
      </trkpt>
      <trkpt lat="44.94265" lon="4.03001">
        <ele>1092</ele>
        <time>2026-04-28T11:21:27Z</time>
      </trkpt>
      <trkpt lat="44.94262" lon="4.03009">
        <ele>1091.9</ele>
        <time>2026-04-28T11:21:32Z</time>
      </trkpt>
      <trkpt lat="44.94258" lon="4.03017">
        <ele>1091.9</ele>
        <time>2026-04-28T11:21:37Z</time>
      </trkpt>
      <trkpt lat="44.94254" lon="4.03025">
        <ele>1091.7</ele>
        <time>2026-04-28T11:21:42Z</time>
      </trkpt>
      <trkpt lat="44.94249" lon="4.03033">
        <ele>1091.6</ele>
        <time>2026-04-28T11:21:47Z</time>
      </trkpt>
      <trkpt lat="44.94245" lon="4.03043">
        <ele>1091.5</ele>
        <time>2026-04-28T11:21:52Z</time>
      </trkpt>
      <trkpt lat="44.94239" lon="4.03051">
        <ele>1091.5</ele>
        <time>2026-04-28T11:21:57Z</time>
      </trkpt>
      <trkpt lat="44.94234" lon="4.03058">
        <ele>1091.4</ele>
        <time>2026-04-28T11:22:02Z</time>
      </trkpt>
      <trkpt lat="44.94228" lon="4.03068">
        <ele>1091.4</ele>
        <time>2026-04-28T11:22:07Z</time>
      </trkpt>
      <trkpt lat="44.94222" lon="4.03075">
        <ele>1091.4</ele>
        <time>2026-04-28T11:22:12Z</time>
      </trkpt>
      <trkpt lat="44.94217" lon="4.03083">
        <ele>1091.4</ele>
        <time>2026-04-28T11:22:17Z</time>
      </trkpt>
      <trkpt lat="44.9421" lon="4.03092">
        <ele>1091.5</ele>
        <time>2026-04-28T11:22:22Z</time>
      </trkpt>
      <trkpt lat="44.94205" lon="4.03099">
        <ele>1091.5</ele>
        <time>2026-04-28T11:22:27Z</time>
      </trkpt>
      <trkpt lat="44.94201" lon="4.03108">
        <ele>1091.5</ele>
        <time>2026-04-28T11:22:32Z</time>
      </trkpt>
      <trkpt lat="44.94199" lon="4.03111">
        <ele>1091.5</ele>
        <time>2026-04-28T11:22:37Z</time>
      </trkpt>
      <trkpt lat="44.94196" lon="4.0312">
        <ele>1091.5</ele>
        <time>2026-04-28T11:22:42Z</time>
      </trkpt>
      <trkpt lat="44.94191" lon="4.03127">
        <ele>1091.5</ele>
        <time>2026-04-28T11:22:47Z</time>
      </trkpt>
      <trkpt lat="44.94187" lon="4.03136">
        <ele>1091.4</ele>
        <time>2026-04-28T11:22:52Z</time>
      </trkpt>
      <trkpt lat="44.94185" lon="4.03147">
        <ele>1091.4</ele>
        <time>2026-04-28T11:22:57Z</time>
      </trkpt>
      <trkpt lat="44.94183" lon="4.03157">
        <ele>1091.3</ele>
        <time>2026-04-28T11:23:02Z</time>
      </trkpt>
      <trkpt lat="44.9418" lon="4.03166">
        <ele>1091.2</ele>
        <time>2026-04-28T11:23:07Z</time>
      </trkpt>
      <trkpt lat="44.94177" lon="4.03175">
        <ele>1091.1</ele>
        <time>2026-04-28T11:23:12Z</time>
      </trkpt>
      <trkpt lat="44.94174" lon="4.03184">
        <ele>1091.1</ele>
        <time>2026-04-28T11:23:17Z</time>
      </trkpt>
      <trkpt lat="44.94171" lon="4.03195">
        <ele>1091</ele>
        <time>2026-04-28T11:23:22Z</time>
      </trkpt>
      <trkpt lat="44.94167" lon="4.03205">
        <ele>1091</ele>
        <time>2026-04-28T11:23:27Z</time>
      </trkpt>
      <trkpt lat="44.94165" lon="4.03212">
        <ele>1091</ele>
        <time>2026-04-28T11:23:32Z</time>
      </trkpt>
      <trkpt lat="44.94161" lon="4.03219">
        <ele>1091.1</ele>
        <time>2026-04-28T11:23:37Z</time>
      </trkpt>
      <trkpt lat="44.94159" lon="4.03229">
        <ele>1091.1</ele>
        <time>2026-04-28T11:23:42Z</time>
      </trkpt>
      <trkpt lat="44.94156" lon="4.03236">
        <ele>1091.1</ele>
        <time>2026-04-28T11:23:47Z</time>
      </trkpt>
      <trkpt lat="44.94153" lon="4.03244">
        <ele>1091.2</ele>
        <time>2026-04-28T11:23:52Z</time>
      </trkpt>
      <trkpt lat="44.94151" lon="4.0325">
        <ele>1091.2</ele>
        <time>2026-04-28T11:23:57Z</time>
      </trkpt>
      <trkpt lat="44.94151" lon="4.03251">
        <ele>1091.2</ele>
        <time>2026-04-28T11:24:02Z</time>
      </trkpt>
      <trkpt lat="44.94149" lon="4.03258">
        <ele>1091.1</ele>
        <time>2026-04-28T11:24:07Z</time>
      </trkpt>
      <trkpt lat="44.94145" lon="4.03267">
        <ele>1091</ele>
        <time>2026-04-28T11:24:12Z</time>
      </trkpt>
      <trkpt lat="44.94143" lon="4.03277">
        <ele>1090.8</ele>
        <time>2026-04-28T11:24:17Z</time>
      </trkpt>
      <trkpt lat="44.94143" lon="4.03286">
        <ele>1090.7</ele>
        <time>2026-04-28T11:24:22Z</time>
      </trkpt>
      <trkpt lat="44.9414" lon="4.03296">
        <ele>1090.6</ele>
        <time>2026-04-28T11:24:27Z</time>
      </trkpt>
      <trkpt lat="44.94139" lon="4.03305">
        <ele>1090.5</ele>
        <time>2026-04-28T11:24:32Z</time>
      </trkpt>
      <trkpt lat="44.94139" lon="4.03316">
        <ele>1090.3</ele>
        <time>2026-04-28T11:24:37Z</time>
      </trkpt>
      <trkpt lat="44.94138" lon="4.03327">
        <ele>1090.1</ele>
        <time>2026-04-28T11:24:42Z</time>
      </trkpt>
      <trkpt lat="44.94137" lon="4.03337">
        <ele>1090</ele>
        <time>2026-04-28T11:24:47Z</time>
      </trkpt>
      <trkpt lat="44.94136" lon="4.03349">
        <ele>1089.9</ele>
        <time>2026-04-28T11:24:52Z</time>
      </trkpt>
      <trkpt lat="44.94136" lon="4.03362">
        <ele>1089.8</ele>
        <time>2026-04-28T11:24:57Z</time>
      </trkpt>
      <trkpt lat="44.94136" lon="4.03373">
        <ele>1089.6</ele>
        <time>2026-04-28T11:25:02Z</time>
      </trkpt>
      <trkpt lat="44.94137" lon="4.03383">
        <ele>1089.5</ele>
        <time>2026-04-28T11:25:07Z</time>
      </trkpt>
      <trkpt lat="44.94136" lon="4.03393">
        <ele>1089.4</ele>
        <time>2026-04-28T11:25:12Z</time>
      </trkpt>
      <trkpt lat="44.94138" lon="4.03404">
        <ele>1089.2</ele>
        <time>2026-04-28T11:25:17Z</time>
      </trkpt>
      <trkpt lat="44.94138" lon="4.03415">
        <ele>1089.1</ele>
        <time>2026-04-28T11:25:22Z</time>
      </trkpt>
      <trkpt lat="44.94137" lon="4.03428">
        <ele>1089</ele>
        <time>2026-04-28T11:25:27Z</time>
      </trkpt>
      <trkpt lat="44.94137" lon="4.03438">
        <ele>1088.9</ele>
        <time>2026-04-28T11:25:32Z</time>
      </trkpt>
      <trkpt lat="44.94135" lon="4.03448">
        <ele>1088.9</ele>
        <time>2026-04-28T11:25:37Z</time>
      </trkpt>
      <trkpt lat="44.94133" lon="4.03457">
        <ele>1088.9</ele>
        <time>2026-04-28T11:25:42Z</time>
      </trkpt>
      <trkpt lat="44.94133" lon="4.03468">
        <ele>1088.8</ele>
        <time>2026-04-28T11:25:47Z</time>
      </trkpt>
      <trkpt lat="44.94133" lon="4.0348">
        <ele>1088.8</ele>
        <time>2026-04-28T11:25:52Z</time>
      </trkpt>
      <trkpt lat="44.94133" lon="4.0349">
        <ele>1088.7</ele>
        <time>2026-04-28T11:25:57Z</time>
      </trkpt>
      <trkpt lat="44.94133" lon="4.035">
        <ele>1088.6</ele>
        <time>2026-04-28T11:26:02Z</time>
      </trkpt>
      <trkpt lat="44.94132" lon="4.03506">
        <ele>1088.7</ele>
        <time>2026-04-28T11:26:07Z</time>
      </trkpt>
      <trkpt lat="44.94131" lon="4.03509">
        <ele>1088.7</ele>
        <time>2026-04-28T11:26:12Z</time>
      </trkpt>
      <trkpt lat="44.9413" lon="4.03522">
        <ele>1088.8</ele>
        <time>2026-04-28T11:26:17Z</time>
      </trkpt>
      <trkpt lat="44.94131" lon="4.03533">
        <ele>1088.8</ele>
        <time>2026-04-28T11:26:22Z</time>
      </trkpt>
      <trkpt lat="44.94133" lon="4.03542">
        <ele>1088.7</ele>
        <time>2026-04-28T11:26:27Z</time>
      </trkpt>
      <trkpt lat="44.94134" lon="4.03554">
        <ele>1088.7</ele>
        <time>2026-04-28T11:26:32Z</time>
      </trkpt>
      <trkpt lat="44.94136" lon="4.03564">
        <ele>1088.7</ele>
        <time>2026-04-28T11:26:37Z</time>
      </trkpt>
      <trkpt lat="44.94137" lon="4.03574">
        <ele>1088.7</ele>
        <time>2026-04-28T11:26:42Z</time>
      </trkpt>
      <trkpt lat="44.94138" lon="4.03584">
        <ele>1088.7</ele>
        <time>2026-04-28T11:26:47Z</time>
      </trkpt>
      <trkpt lat="44.94139" lon="4.03595">
        <ele>1088.7</ele>
        <time>2026-04-28T11:26:52Z</time>
      </trkpt>
      <trkpt lat="44.94141" lon="4.03606">
        <ele>1088.7</ele>
        <time>2026-04-28T11:26:57Z</time>
      </trkpt>
      <trkpt lat="44.9414" lon="4.03617">
        <ele>1088.8</ele>
        <time>2026-04-28T11:27:02Z</time>
      </trkpt>
      <trkpt lat="44.9414" lon="4.03628">
        <ele>1088.8</ele>
        <time>2026-04-28T11:27:07Z</time>
      </trkpt>
      <trkpt lat="44.94141" lon="4.03638">
        <ele>1088.9</ele>
        <time>2026-04-28T11:27:12Z</time>
      </trkpt>
      <trkpt lat="44.94141" lon="4.03649">
        <ele>1088.9</ele>
        <time>2026-04-28T11:27:17Z</time>
      </trkpt>
      <trkpt lat="44.94141" lon="4.03659">
        <ele>1089</ele>
        <time>2026-04-28T11:27:22Z</time>
      </trkpt>
      <trkpt lat="44.94141" lon="4.0367">
        <ele>1089</ele>
        <time>2026-04-28T11:27:27Z</time>
      </trkpt>
      <trkpt lat="44.94141" lon="4.0368">
        <ele>1089</ele>
        <time>2026-04-28T11:27:32Z</time>
      </trkpt>
      <trkpt lat="44.94141" lon="4.0369">
        <ele>1088.9</ele>
        <time>2026-04-28T11:27:37Z</time>
      </trkpt>
      <trkpt lat="44.94141" lon="4.03701">
        <ele>1088.9</ele>
        <time>2026-04-28T11:27:42Z</time>
      </trkpt>
      <trkpt lat="44.9414" lon="4.03712">
        <ele>1088.8</ele>
        <time>2026-04-28T11:27:47Z</time>
      </trkpt>
      <trkpt lat="44.9414" lon="4.03723">
        <ele>1088.8</ele>
        <time>2026-04-28T11:27:52Z</time>
      </trkpt>
      <trkpt lat="44.94139" lon="4.03732">
        <ele>1088.7</ele>
        <time>2026-04-28T11:27:57Z</time>
      </trkpt>
      <trkpt lat="44.94139" lon="4.03744">
        <ele>1088.7</ele>
        <time>2026-04-28T11:28:02Z</time>
      </trkpt>
      <trkpt lat="44.94139" lon="4.03756">
        <ele>1088.6</ele>
        <time>2026-04-28T11:28:07Z</time>
      </trkpt>
      <trkpt lat="44.94138" lon="4.03766">
        <ele>1088.4</ele>
        <time>2026-04-28T11:28:12Z</time>
      </trkpt>
      <trkpt lat="44.94138" lon="4.03776">
        <ele>1088.2</ele>
        <time>2026-04-28T11:28:17Z</time>
      </trkpt>
      <trkpt lat="44.94138" lon="4.03788">
        <ele>1088.1</ele>
        <time>2026-04-28T11:28:22Z</time>
      </trkpt>
      <trkpt lat="44.94138" lon="4.03799">
        <ele>1087.9</ele>
        <time>2026-04-28T11:28:27Z</time>
      </trkpt>
      <trkpt lat="44.94139" lon="4.03809">
        <ele>1087.7</ele>
        <time>2026-04-28T11:28:32Z</time>
      </trkpt>
      <trkpt lat="44.94139" lon="4.0382">
        <ele>1087.5</ele>
        <time>2026-04-28T11:28:37Z</time>
      </trkpt>
      <trkpt lat="44.94139" lon="4.03832">
        <ele>1087.4</ele>
        <time>2026-04-28T11:28:42Z</time>
      </trkpt>
      <trkpt lat="44.9414" lon="4.03841">
        <ele>1087.2</ele>
        <time>2026-04-28T11:28:47Z</time>
      </trkpt>
      <trkpt lat="44.9414" lon="4.03851">
        <ele>1087.1</ele>
        <time>2026-04-28T11:28:52Z</time>
      </trkpt>
      <trkpt lat="44.94142" lon="4.03863">
        <ele>1087</ele>
        <time>2026-04-28T11:28:57Z</time>
      </trkpt>
      <trkpt lat="44.94145" lon="4.03873">
        <ele>1086.9</ele>
        <time>2026-04-28T11:29:02Z</time>
      </trkpt>
      <trkpt lat="44.94148" lon="4.03884">
        <ele>1086.8</ele>
        <time>2026-04-28T11:29:07Z</time>
      </trkpt>
      <trkpt lat="44.94152" lon="4.03894">
        <ele>1086.8</ele>
        <time>2026-04-28T11:29:12Z</time>
      </trkpt>
      <trkpt lat="44.94156" lon="4.03904">
        <ele>1086.8</ele>
        <time>2026-04-28T11:29:17Z</time>
      </trkpt>
      <trkpt lat="44.9416" lon="4.03913">
        <ele>1086.9</ele>
        <time>2026-04-28T11:29:22Z</time>
      </trkpt>
      <trkpt lat="44.94164" lon="4.03921">
        <ele>1086.9</ele>
        <time>2026-04-28T11:29:27Z</time>
      </trkpt>
      <trkpt lat="44.94169" lon="4.03928">
        <ele>1087.1</ele>
        <time>2026-04-28T11:29:32Z</time>
      </trkpt>
      <trkpt lat="44.94173" lon="4.03935">
        <ele>1087.3</ele>
        <time>2026-04-28T11:29:37Z</time>
      </trkpt>
      <trkpt lat="44.94176" lon="4.03943">
        <ele>1087.5</ele>
        <time>2026-04-28T11:29:42Z</time>
      </trkpt>
      <trkpt lat="44.94179" lon="4.03952">
        <ele>1087.8</ele>
        <time>2026-04-28T11:29:47Z</time>
      </trkpt>
      <trkpt lat="44.9418" lon="4.0396">
        <ele>1087.9</ele>
        <time>2026-04-28T11:29:52Z</time>
      </trkpt>
      <trkpt lat="44.94182" lon="4.03969">
        <ele>1088.1</ele>
        <time>2026-04-28T11:29:57Z</time>
      </trkpt>
      <trkpt lat="44.94185" lon="4.03978">
        <ele>1088.5</ele>
        <time>2026-04-28T11:30:02Z</time>
      </trkpt>
      <trkpt lat="44.94188" lon="4.03987">
        <ele>1088.8</ele>
        <time>2026-04-28T11:30:07Z</time>
      </trkpt>
      <trkpt lat="44.94189" lon="4.03996">
        <ele>1089.1</ele>
        <time>2026-04-28T11:30:12Z</time>
      </trkpt>
      <trkpt lat="44.94191" lon="4.04004">
        <ele>1089.2</ele>
        <time>2026-04-28T11:30:17Z</time>
      </trkpt>
      <trkpt lat="44.9419" lon="4.04013">
        <ele>1088.8</ele>
        <time>2026-04-28T11:30:22Z</time>
      </trkpt>
      <trkpt lat="44.94191" lon="4.04022">
        <ele>1088.6</ele>
        <time>2026-04-28T11:30:27Z</time>
      </trkpt>
      <trkpt lat="44.94195" lon="4.04031">
        <ele>1088.7</ele>
        <time>2026-04-28T11:30:32Z</time>
      </trkpt>
      <trkpt lat="44.94198" lon="4.04038">
        <ele>1088.9</ele>
        <time>2026-04-28T11:30:37Z</time>
      </trkpt>
      <trkpt lat="44.94203" lon="4.04044">
        <ele>1089.3</ele>
        <time>2026-04-28T11:30:42Z</time>
      </trkpt>
      <trkpt lat="44.94206" lon="4.04049">
        <ele>1089.5</ele>
        <time>2026-04-28T11:30:47Z</time>
      </trkpt>
      <trkpt lat="44.9421" lon="4.04053">
        <ele>1089.9</ele>
        <time>2026-04-28T11:30:52Z</time>
      </trkpt>
      <trkpt lat="44.94214" lon="4.04061">
        <ele>1090.3</ele>
        <time>2026-04-28T11:30:57Z</time>
      </trkpt>
      <trkpt lat="44.94219" lon="4.04066">
        <ele>1090.8</ele>
        <time>2026-04-28T11:31:02Z</time>
      </trkpt>
      <trkpt lat="44.94225" lon="4.04072">
        <ele>1091.6</ele>
        <time>2026-04-28T11:31:07Z</time>
      </trkpt>
      <trkpt lat="44.94231" lon="4.04075">
        <ele>1092.4</ele>
        <time>2026-04-28T11:31:12Z</time>
      </trkpt>
      <trkpt lat="44.94235" lon="4.04077">
        <ele>1092.9</ele>
        <time>2026-04-28T11:31:17Z</time>
      </trkpt>
      <trkpt lat="44.94235" lon="4.04077">
        <ele>1092.9</ele>
        <time>2026-04-28T11:31:22Z</time>
      </trkpt>
      <trkpt lat="44.94235" lon="4.04077">
        <ele>1092.9</ele>
        <time>2026-04-28T11:31:27Z</time>
      </trkpt>
      <trkpt lat="44.94235" lon="4.04077">
        <ele>1092.9</ele>
        <time>2026-04-28T11:31:32Z</time>
      </trkpt>
      <trkpt lat="44.94235" lon="4.04077">
        <ele>1092.9</ele>
        <time>2026-04-28T11:31:37Z</time>
      </trkpt>
      <trkpt lat="44.94237" lon="4.04078">
        <ele>1093.2</ele>
        <time>2026-04-28T11:31:42Z</time>
      </trkpt>
      <trkpt lat="44.94239" lon="4.04081">
        <ele>1093.4</ele>
        <time>2026-04-28T11:31:47Z</time>
      </trkpt>
      <trkpt lat="44.9424" lon="4.04085">
        <ele>1093.5</ele>
        <time>2026-04-28T11:31:52Z</time>
      </trkpt>
      <trkpt lat="44.94243" lon="4.04098">
        <ele>1093.8</ele>
        <time>2026-04-28T11:31:57Z</time>
      </trkpt>
      <trkpt lat="44.94246" lon="4.04108">
        <ele>1094.1</ele>
        <time>2026-04-28T11:32:02Z</time>
      </trkpt>
      <trkpt lat="44.9425" lon="4.04116">
        <ele>1094.6</ele>
        <time>2026-04-28T11:32:07Z</time>
      </trkpt>
      <trkpt lat="44.94249" lon="4.04117">
        <ele>1094.4</ele>
        <time>2026-04-28T11:32:12Z</time>
      </trkpt>
      <trkpt lat="44.94252" lon="4.0412">
        <ele>1094.7</ele>
        <time>2026-04-28T11:32:17Z</time>
      </trkpt>
      <trkpt lat="44.94253" lon="4.04119">
        <ele>1094.8</ele>
        <time>2026-04-28T11:32:22Z</time>
      </trkpt>
      <trkpt lat="44.94253" lon="4.04119">
        <ele>1094.8</ele>
        <time>2026-04-28T11:32:27Z</time>
      </trkpt>
      <trkpt lat="44.94255" lon="4.0413">
        <ele>1094.9</ele>
        <time>2026-04-28T11:32:32Z</time>
      </trkpt>
      <trkpt lat="44.94257" lon="4.04136">
        <ele>1095.1</ele>
        <time>2026-04-28T11:32:37Z</time>
      </trkpt>
      <trkpt lat="44.94258" lon="4.0414">
        <ele>1095.1</ele>
        <time>2026-04-28T11:32:42Z</time>
      </trkpt>
      <trkpt lat="44.94261" lon="4.04145">
        <ele>1095.4</ele>
        <time>2026-04-28T11:32:47Z</time>
      </trkpt>
      <trkpt lat="44.94261" lon="4.04152">
        <ele>1095.4</ele>
        <time>2026-04-28T11:32:52Z</time>
      </trkpt>
      <trkpt lat="44.94264" lon="4.04162">
        <ele>1095.7</ele>
        <time>2026-04-28T11:32:57Z</time>
      </trkpt>
      <trkpt lat="44.94266" lon="4.04174">
        <ele>1096</ele>
        <time>2026-04-28T11:33:02Z</time>
      </trkpt>
      <trkpt lat="44.9427" lon="4.04184">
        <ele>1096.6</ele>
        <time>2026-04-28T11:33:07Z</time>
      </trkpt>
      <trkpt lat="44.94273" lon="4.04194">
        <ele>1097</ele>
        <time>2026-04-28T11:33:12Z</time>
      </trkpt>
      <trkpt lat="44.94276" lon="4.04202">
        <ele>1097.4</ele>
        <time>2026-04-28T11:33:17Z</time>
      </trkpt>
      <trkpt lat="44.9428" lon="4.0421">
        <ele>1097.9</ele>
        <time>2026-04-28T11:33:22Z</time>
      </trkpt>
      <trkpt lat="44.94285" lon="4.04218">
        <ele>1098.6</ele>
        <time>2026-04-28T11:33:27Z</time>
      </trkpt>
      <trkpt lat="44.94286" lon="4.04227">
        <ele>1098.7</ele>
        <time>2026-04-28T11:33:32Z</time>
      </trkpt>
      <trkpt lat="44.94291" lon="4.04229">
        <ele>1099.3</ele>
        <time>2026-04-28T11:33:37Z</time>
      </trkpt>
      <trkpt lat="44.94294" lon="4.04234">
        <ele>1099.7</ele>
        <time>2026-04-28T11:33:42Z</time>
      </trkpt>
      <trkpt lat="44.94296" lon="4.04242">
        <ele>1099.9</ele>
        <time>2026-04-28T11:33:47Z</time>
      </trkpt>
      <trkpt lat="44.94297" lon="4.04251">
        <ele>1100.1</ele>
        <time>2026-04-28T11:33:52Z</time>
      </trkpt>
      <trkpt lat="44.94301" lon="4.0426">
        <ele>1100.7</ele>
        <time>2026-04-28T11:33:57Z</time>
      </trkpt>
      <trkpt lat="44.94304" lon="4.04271">
        <ele>1101.2</ele>
        <time>2026-04-28T11:34:02Z</time>
      </trkpt>
      <trkpt lat="44.94308" lon="4.04279">
        <ele>1101.7</ele>
        <time>2026-04-28T11:34:07Z</time>
      </trkpt>
      <trkpt lat="44.94311" lon="4.04288">
        <ele>1102.2</ele>
        <time>2026-04-28T11:34:12Z</time>
      </trkpt>
      <trkpt lat="44.9431" lon="4.04295">
        <ele>1102.2</ele>
        <time>2026-04-28T11:34:17Z</time>
      </trkpt>
      <trkpt lat="44.9431" lon="4.04295">
        <ele>1102.2</ele>
        <time>2026-04-28T11:34:22Z</time>
      </trkpt>
      <trkpt lat="44.9431" lon="4.04295">
        <ele>1102.2</ele>
        <time>2026-04-28T11:34:27Z</time>
      </trkpt>
      <trkpt lat="44.9431" lon="4.04295">
        <ele>1102.2</ele>
        <time>2026-04-28T11:34:32Z</time>
      </trkpt>
      <trkpt lat="44.9431" lon="4.04295">
        <ele>1102.2</ele>
        <time>2026-04-28T11:34:37Z</time>
      </trkpt>
      <trkpt lat="44.9431" lon="4.04295">
        <ele>1102.2</ele>
        <time>2026-04-28T11:34:42Z</time>
      </trkpt>
      <trkpt lat="44.94315" lon="4.04298">
        <ele>1102.7</ele>
        <time>2026-04-28T11:34:47Z</time>
      </trkpt>
      <trkpt lat="44.94317" lon="4.04308">
        <ele>1103.1</ele>
        <time>2026-04-28T11:34:52Z</time>
      </trkpt>
      <trkpt lat="44.94318" lon="4.04321">
        <ele>1103.4</ele>
        <time>2026-04-28T11:34:57Z</time>
      </trkpt>
      <trkpt lat="44.94323" lon="4.04329">
        <ele>1103.9</ele>
        <time>2026-04-28T11:35:02Z</time>
      </trkpt>
      <trkpt lat="44.94329" lon="4.04337">
        <ele>1104.7</ele>
        <time>2026-04-28T11:35:07Z</time>
      </trkpt>
      <trkpt lat="44.94333" lon="4.04345">
        <ele>1105.2</ele>
        <time>2026-04-28T11:35:12Z</time>
      </trkpt>
      <trkpt lat="44.94338" lon="4.04353">
        <ele>1105.8</ele>
        <time>2026-04-28T11:35:17Z</time>
      </trkpt>
      <trkpt lat="44.94344" lon="4.04359">
        <ele>1106.3</ele>
        <time>2026-04-28T11:35:22Z</time>
      </trkpt>
      <trkpt lat="44.94345" lon="4.04361">
        <ele>1106.4</ele>
        <time>2026-04-28T11:35:27Z</time>
      </trkpt>
      <trkpt lat="44.94345" lon="4.04362">
        <ele>1106.4</ele>
        <time>2026-04-28T11:35:32Z</time>
      </trkpt>
      <trkpt lat="44.94345" lon="4.04362">
        <ele>1106.4</ele>
        <time>2026-04-28T11:35:37Z</time>
      </trkpt>
      <trkpt lat="44.94345" lon="4.04362">
        <ele>1106.4</ele>
        <time>2026-04-28T11:35:42Z</time>
      </trkpt>
      <trkpt lat="44.94345" lon="4.04362">
        <ele>1106.4</ele>
        <time>2026-04-28T11:35:47Z</time>
      </trkpt>
      <trkpt lat="44.94345" lon="4.04362">
        <ele>1106.4</ele>
        <time>2026-04-28T11:35:52Z</time>
      </trkpt>
      <trkpt lat="44.94345" lon="4.04362">
        <ele>1106.4</ele>
        <time>2026-04-28T11:35:57Z</time>
      </trkpt>
      <trkpt lat="44.94345" lon="4.04362">
        <ele>1106.4</ele>
        <time>2026-04-28T11:36:02Z</time>
      </trkpt>
      <trkpt lat="44.94345" lon="4.04362">
        <ele>1106.4</ele>
        <time>2026-04-28T11:36:07Z</time>
      </trkpt>
      <trkpt lat="44.94345" lon="4.04362">
        <ele>1106.4</ele>
        <time>2026-04-28T11:36:12Z</time>
      </trkpt>
      <trkpt lat="44.94345" lon="4.04362">
        <ele>1106.4</ele>
        <time>2026-04-28T11:36:17Z</time>
      </trkpt>
      <trkpt lat="44.94345" lon="4.04362">
        <ele>1106.4</ele>
        <time>2026-04-28T11:36:22Z</time>
      </trkpt>
      <trkpt lat="44.94345" lon="4.04362">
        <ele>1106.4</ele>
        <time>2026-04-28T11:36:27Z</time>
      </trkpt>
      <trkpt lat="44.94345" lon="4.04362">
        <ele>1106.4</ele>
        <time>2026-04-28T11:36:32Z</time>
      </trkpt>
      <trkpt lat="44.94345" lon="4.04362">
        <ele>1106.4</ele>
        <time>2026-04-28T11:36:37Z</time>
      </trkpt>
      <trkpt lat="44.94345" lon="4.04362">
        <ele>1106.4</ele>
        <time>2026-04-28T11:36:42Z</time>
      </trkpt>
      <trkpt lat="44.94345" lon="4.04362">
        <ele>1106.4</ele>
        <time>2026-04-28T11:36:47Z</time>
      </trkpt>
      <trkpt lat="44.94345" lon="4.04362">
        <ele>1106.4</ele>
        <time>2026-04-28T11:36:52Z</time>
      </trkpt>
      <trkpt lat="44.94345" lon="4.04362">
        <ele>1106.4</ele>
        <time>2026-04-28T11:36:57Z</time>
      </trkpt>
      <trkpt lat="44.94345" lon="4.04362">
        <ele>1106.4</ele>
        <time>2026-04-28T11:37:02Z</time>
      </trkpt>
      <trkpt lat="44.94345" lon="4.04362">
        <ele>1106.4</ele>
        <time>2026-04-28T11:37:07Z</time>
      </trkpt>
      <trkpt lat="44.94345" lon="4.04362">
        <ele>1106.4</ele>
        <time>2026-04-28T11:37:12Z</time>
      </trkpt>
      <trkpt lat="44.94345" lon="4.04362">
        <ele>1106.4</ele>
        <time>2026-04-28T11:37:17Z</time>
      </trkpt>
      <trkpt lat="44.94345" lon="4.04362">
        <ele>1106.4</ele>
        <time>2026-04-28T11:37:22Z</time>
      </trkpt>
      <trkpt lat="44.94345" lon="4.04362">
        <ele>1106.4</ele>
        <time>2026-04-28T11:37:27Z</time>
      </trkpt>
      <trkpt lat="44.94345" lon="4.04362">
        <ele>1106.4</ele>
        <time>2026-04-28T11:37:32Z</time>
      </trkpt>
      <trkpt lat="44.94345" lon="4.04362">
        <ele>1106.4</ele>
        <time>2026-04-28T11:37:37Z</time>
      </trkpt>
      <trkpt lat="44.94345" lon="4.04362">
        <ele>1106.4</ele>
        <time>2026-04-28T11:37:42Z</time>
      </trkpt>
      <trkpt lat="44.94345" lon="4.04362">
        <ele>1106.4</ele>
        <time>2026-04-28T11:37:47Z</time>
      </trkpt>
      <trkpt lat="44.94345" lon="4.04362">
        <ele>1106.4</ele>
        <time>2026-04-28T11:37:52Z</time>
      </trkpt>
      <trkpt lat="44.94345" lon="4.04362">
        <ele>1106.4</ele>
        <time>2026-04-28T11:37:57Z</time>
      </trkpt>
      <trkpt lat="44.94345" lon="4.04362">
        <ele>1106.4</ele>
        <time>2026-04-28T11:38:02Z</time>
      </trkpt>
      <trkpt lat="44.94345" lon="4.04362">
        <ele>1106.4</ele>
        <time>2026-04-28T11:38:07Z</time>
      </trkpt>
      <trkpt lat="44.94345" lon="4.04362">
        <ele>1106.4</ele>
        <time>2026-04-28T11:38:12Z</time>
      </trkpt>
      <trkpt lat="44.94345" lon="4.04362">
        <ele>1106.4</ele>
        <time>2026-04-28T11:38:17Z</time>
      </trkpt>
      <trkpt lat="44.94345" lon="4.04362">
        <ele>1106.4</ele>
        <time>2026-04-28T11:38:22Z</time>
      </trkpt>
      <trkpt lat="44.94345" lon="4.04362">
        <ele>1106.4</ele>
        <time>2026-04-28T11:38:27Z</time>
      </trkpt>
      <trkpt lat="44.94345" lon="4.04362">
        <ele>1106.4</ele>
        <time>2026-04-28T11:38:32Z</time>
      </trkpt>
      <trkpt lat="44.94345" lon="4.04362">
        <ele>1106.4</ele>
        <time>2026-04-28T11:38:37Z</time>
      </trkpt>
      <trkpt lat="44.94345" lon="4.04362">
        <ele>1106.4</ele>
        <time>2026-04-28T11:38:42Z</time>
      </trkpt>
      <trkpt lat="44.94345" lon="4.04362">
        <ele>1106.4</ele>
        <time>2026-04-28T11:38:47Z</time>
      </trkpt>
      <trkpt lat="44.94346" lon="4.04379">
        <ele>1106.8</ele>
        <time>2026-04-28T11:38:52Z</time>
      </trkpt>
      <trkpt lat="44.94355" lon="4.04381">
        <ele>1107.4</ele>
        <time>2026-04-28T11:38:57Z</time>
      </trkpt>
      <trkpt lat="44.94366" lon="4.04383">
        <ele>1108.1</ele>
        <time>2026-04-28T11:39:02Z</time>
      </trkpt>
      <trkpt lat="44.94371" lon="4.04388">
        <ele>1108.4</ele>
        <time>2026-04-28T11:39:07Z</time>
      </trkpt>
      <trkpt lat="44.94378" lon="4.04396">
        <ele>1108.9</ele>
        <time>2026-04-28T11:39:12Z</time>
      </trkpt>
      <trkpt lat="44.94382" lon="4.04402">
        <ele>1109.2</ele>
        <time>2026-04-28T11:39:17Z</time>
      </trkpt>
      <trkpt lat="44.9439" lon="4.04408">
        <ele>1109.7</ele>
        <time>2026-04-28T11:39:22Z</time>
      </trkpt>
      <trkpt lat="44.94396" lon="4.04413">
        <ele>1110</ele>
        <time>2026-04-28T11:39:27Z</time>
      </trkpt>
      <trkpt lat="44.944" lon="4.0442">
        <ele>1110.2</ele>
        <time>2026-04-28T11:39:32Z</time>
      </trkpt>
      <trkpt lat="44.94407" lon="4.04425">
        <ele>1110.5</ele>
        <time>2026-04-28T11:39:37Z</time>
      </trkpt>
      <trkpt lat="44.94411" lon="4.04432">
        <ele>1110.6</ele>
        <time>2026-04-28T11:39:42Z</time>
      </trkpt>
      <trkpt lat="44.94418" lon="4.04439">
        <ele>1110.7</ele>
        <time>2026-04-28T11:39:47Z</time>
      </trkpt>
      <trkpt lat="44.94426" lon="4.04446">
        <ele>1110.4</ele>
        <time>2026-04-28T11:39:52Z</time>
      </trkpt>
      <trkpt lat="44.94432" lon="4.0445">
        <ele>1110.2</ele>
        <time>2026-04-28T11:39:57Z</time>
      </trkpt>
      <trkpt lat="44.94439" lon="4.04458">
        <ele>1110</ele>
        <time>2026-04-28T11:40:02Z</time>
      </trkpt>
      <trkpt lat="44.94443" lon="4.04464">
        <ele>1109.8</ele>
        <time>2026-04-28T11:40:07Z</time>
      </trkpt>
      <trkpt lat="44.94449" lon="4.0447">
        <ele>1109.6</ele>
        <time>2026-04-28T11:40:12Z</time>
      </trkpt>
      <trkpt lat="44.9446" lon="4.04476">
        <ele>1109.2</ele>
        <time>2026-04-28T11:40:17Z</time>
      </trkpt>
      <trkpt lat="44.94467" lon="4.04483">
        <ele>1109</ele>
        <time>2026-04-28T11:40:22Z</time>
      </trkpt>
      <trkpt lat="44.94473" lon="4.04488">
        <ele>1108.8</ele>
        <time>2026-04-28T11:40:27Z</time>
      </trkpt>
      <trkpt lat="44.94478" lon="4.04496">
        <ele>1108.6</ele>
        <time>2026-04-28T11:40:32Z</time>
      </trkpt>
      <trkpt lat="44.94484" lon="4.045">
        <ele>1108.4</ele>
        <time>2026-04-28T11:40:37Z</time>
      </trkpt>
      <trkpt lat="44.94492" lon="4.04508">
        <ele>1108.2</ele>
        <time>2026-04-28T11:40:42Z</time>
      </trkpt>
      <trkpt lat="44.94497" lon="4.04515">
        <ele>1108.1</ele>
        <time>2026-04-28T11:40:47Z</time>
      </trkpt>
      <trkpt lat="44.94502" lon="4.04524">
        <ele>1108</ele>
        <time>2026-04-28T11:40:52Z</time>
      </trkpt>
      <trkpt lat="44.94509" lon="4.0453">
        <ele>1107.9</ele>
        <time>2026-04-28T11:40:57Z</time>
      </trkpt>
      <trkpt lat="44.94514" lon="4.04534">
        <ele>1107.8</ele>
        <time>2026-04-28T11:41:02Z</time>
      </trkpt>
      <trkpt lat="44.94521" lon="4.04538">
        <ele>1107.7</ele>
        <time>2026-04-28T11:41:07Z</time>
      </trkpt>
      <trkpt lat="44.9453" lon="4.04545">
        <ele>1107.7</ele>
        <time>2026-04-28T11:41:12Z</time>
      </trkpt>
      <trkpt lat="44.94537" lon="4.04549">
        <ele>1107.6</ele>
        <time>2026-04-28T11:41:17Z</time>
      </trkpt>
      <trkpt lat="44.94543" lon="4.04559">
        <ele>1107.7</ele>
        <time>2026-04-28T11:41:22Z</time>
      </trkpt>
      <trkpt lat="44.9455" lon="4.04567">
        <ele>1107.8</ele>
        <time>2026-04-28T11:41:27Z</time>
      </trkpt>
      <trkpt lat="44.94558" lon="4.04573">
        <ele>1107.8</ele>
        <time>2026-04-28T11:41:32Z</time>
      </trkpt>
      <trkpt lat="44.94565" lon="4.04579">
        <ele>1107.9</ele>
        <time>2026-04-28T11:41:37Z</time>
      </trkpt>
      <trkpt lat="44.94572" lon="4.04584">
        <ele>1107.9</ele>
        <time>2026-04-28T11:41:42Z</time>
      </trkpt>
      <trkpt lat="44.94578" lon="4.04592">
        <ele>1107.1</ele>
        <time>2026-04-28T11:41:47Z</time>
      </trkpt>
      <trkpt lat="44.94585" lon="4.04598">
        <ele>1106.4</ele>
        <time>2026-04-28T11:41:52Z</time>
      </trkpt>
      <trkpt lat="44.94591" lon="4.04605">
        <ele>1105.4</ele>
        <time>2026-04-28T11:41:57Z</time>
      </trkpt>
      <trkpt lat="44.94596" lon="4.04611">
        <ele>1104.7</ele>
        <time>2026-04-28T11:42:02Z</time>
      </trkpt>
      <trkpt lat="44.94602" lon="4.04616">
        <ele>1104.1</ele>
        <time>2026-04-28T11:42:07Z</time>
      </trkpt>
      <trkpt lat="44.94607" lon="4.04622">
        <ele>1103.5</ele>
        <time>2026-04-28T11:42:12Z</time>
      </trkpt>
      <trkpt lat="44.94613" lon="4.04629">
        <ele>1102.8</ele>
        <time>2026-04-28T11:42:17Z</time>
      </trkpt>
      <trkpt lat="44.94619" lon="4.04635">
        <ele>1102.3</ele>
        <time>2026-04-28T11:42:22Z</time>
      </trkpt>
      <trkpt lat="44.94624" lon="4.04642">
        <ele>1101.8</ele>
        <time>2026-04-28T11:42:27Z</time>
      </trkpt>
      <trkpt lat="44.94631" lon="4.04648">
        <ele>1101.4</ele>
        <time>2026-04-28T11:42:32Z</time>
      </trkpt>
      <trkpt lat="44.94638" lon="4.04656">
        <ele>1101</ele>
        <time>2026-04-28T11:42:37Z</time>
      </trkpt>
      <trkpt lat="44.94646" lon="4.04661">
        <ele>1100.8</ele>
        <time>2026-04-28T11:42:42Z</time>
      </trkpt>
      <trkpt lat="44.94653" lon="4.04671">
        <ele>1100.2</ele>
        <time>2026-04-28T11:42:47Z</time>
      </trkpt>
      <trkpt lat="44.9466" lon="4.04685">
        <ele>1099.1</ele>
        <time>2026-04-28T11:42:52Z</time>
      </trkpt>
      <trkpt lat="44.94662" lon="4.04693">
        <ele>1098.5</ele>
        <time>2026-04-28T11:42:57Z</time>
      </trkpt>
      <trkpt lat="44.9466" lon="4.04696">
        <ele>1098.1</ele>
        <time>2026-04-28T11:43:02Z</time>
      </trkpt>
      <trkpt lat="44.9466" lon="4.04696">
        <ele>1098.1</ele>
        <time>2026-04-28T11:43:07Z</time>
      </trkpt>
      <trkpt lat="44.9466" lon="4.04696">
        <ele>1098.1</ele>
        <time>2026-04-28T11:43:12Z</time>
      </trkpt>
      <trkpt lat="44.9466" lon="4.04696">
        <ele>1098.1</ele>
        <time>2026-04-28T11:43:17Z</time>
      </trkpt>
      <trkpt lat="44.9466" lon="4.04696">
        <ele>1098.1</ele>
        <time>2026-04-28T11:43:22Z</time>
      </trkpt>
      <trkpt lat="44.9466" lon="4.04696">
        <ele>1098.1</ele>
        <time>2026-04-28T11:43:27Z</time>
      </trkpt>
      <trkpt lat="44.94655" lon="4.04692">
        <ele>1098.2</ele>
        <time>2026-04-28T11:43:32Z</time>
      </trkpt>
      <trkpt lat="44.94648" lon="4.04696">
        <ele>1097.4</ele>
        <time>2026-04-28T11:43:37Z</time>
      </trkpt>
      <trkpt lat="44.9464" lon="4.04699">
        <ele>1096.5</ele>
        <time>2026-04-28T11:43:42Z</time>
      </trkpt>
      <trkpt lat="44.94632" lon="4.04706">
        <ele>1095.1</ele>
        <time>2026-04-28T11:43:47Z</time>
      </trkpt>
      <trkpt lat="44.94623" lon="4.04711">
        <ele>1093.7</ele>
        <time>2026-04-28T11:43:52Z</time>
      </trkpt>
      <trkpt lat="44.94618" lon="4.0472">
        <ele>1092</ele>
        <time>2026-04-28T11:43:57Z</time>
      </trkpt>
      <trkpt lat="44.94616" lon="4.04733">
        <ele>1089.9</ele>
        <time>2026-04-28T11:44:02Z</time>
      </trkpt>
      <trkpt lat="44.94616" lon="4.04743">
        <ele>1088.4</ele>
        <time>2026-04-28T11:44:07Z</time>
      </trkpt>
      <trkpt lat="44.94616" lon="4.04751">
        <ele>1087.2</ele>
        <time>2026-04-28T11:44:12Z</time>
      </trkpt>
      <trkpt lat="44.94616" lon="4.04752">
        <ele>1087.2</ele>
        <time>2026-04-28T11:44:17Z</time>
      </trkpt>
      <trkpt lat="44.94614" lon="4.04755">
        <ele>1086.7</ele>
        <time>2026-04-28T11:44:22Z</time>
      </trkpt>
      <trkpt lat="44.94614" lon="4.04765">
        <ele>1086.1</ele>
        <time>2026-04-28T11:44:27Z</time>
      </trkpt>
      <trkpt lat="44.94614" lon="4.04773">
        <ele>1085.5</ele>
        <time>2026-04-28T11:44:32Z</time>
      </trkpt>
      <trkpt lat="44.94611" lon="4.04783">
        <ele>1084.4</ele>
        <time>2026-04-28T11:44:37Z</time>
      </trkpt>
      <trkpt lat="44.94608" lon="4.04794">
        <ele>1083.2</ele>
        <time>2026-04-28T11:44:42Z</time>
      </trkpt>
      <trkpt lat="44.94606" lon="4.04807">
        <ele>1081.9</ele>
        <time>2026-04-28T11:44:47Z</time>
      </trkpt>
      <trkpt lat="44.94603" lon="4.04816">
        <ele>1080.8</ele>
        <time>2026-04-28T11:44:52Z</time>
      </trkpt>
      <trkpt lat="44.946" lon="4.04825">
        <ele>1079.6</ele>
        <time>2026-04-28T11:44:57Z</time>
      </trkpt>
      <trkpt lat="44.94599" lon="4.04836">
        <ele>1078.7</ele>
        <time>2026-04-28T11:45:02Z</time>
      </trkpt>
      <trkpt lat="44.94596" lon="4.04848">
        <ele>1077.6</ele>
        <time>2026-04-28T11:45:07Z</time>
      </trkpt>
      <trkpt lat="44.94592" lon="4.04859">
        <ele>1076.3</ele>
        <time>2026-04-28T11:45:12Z</time>
      </trkpt>
      <trkpt lat="44.94589" lon="4.04871">
        <ele>1075.2</ele>
        <time>2026-04-28T11:45:17Z</time>
      </trkpt>
      <trkpt lat="44.94588" lon="4.04879">
        <ele>1074.6</ele>
        <time>2026-04-28T11:45:22Z</time>
      </trkpt>
      <trkpt lat="44.94586" lon="4.04889">
        <ele>1073.8</ele>
        <time>2026-04-28T11:45:27Z</time>
      </trkpt>
      <trkpt lat="44.94587" lon="4.04899">
        <ele>1073.5</ele>
        <time>2026-04-28T11:45:32Z</time>
      </trkpt>
      <trkpt lat="44.94584" lon="4.04908">
        <ele>1072.5</ele>
        <time>2026-04-28T11:45:37Z</time>
      </trkpt>
      <trkpt lat="44.94581" lon="4.04918">
        <ele>1071.7</ele>
        <time>2026-04-28T11:45:42Z</time>
      </trkpt>
      <trkpt lat="44.94581" lon="4.04927">
        <ele>1071.5</ele>
        <time>2026-04-28T11:45:47Z</time>
      </trkpt>
      <trkpt lat="44.94579" lon="4.04937">
        <ele>1071.1</ele>
        <time>2026-04-28T11:45:52Z</time>
      </trkpt>
      <trkpt lat="44.94575" lon="4.04948">
        <ele>1070.4</ele>
        <time>2026-04-28T11:45:57Z</time>
      </trkpt>
      <trkpt lat="44.94573" lon="4.0496">
        <ele>1069.9</ele>
        <time>2026-04-28T11:46:02Z</time>
      </trkpt>
      <trkpt lat="44.94572" lon="4.04973">
        <ele>1069.5</ele>
        <time>2026-04-28T11:46:07Z</time>
      </trkpt>
      <trkpt lat="44.94569" lon="4.04981">
        <ele>1068.9</ele>
        <time>2026-04-28T11:46:12Z</time>
      </trkpt>
      <trkpt lat="44.94568" lon="4.04992">
        <ele>1068.6</ele>
        <time>2026-04-28T11:46:17Z</time>
      </trkpt>
      <trkpt lat="44.94565" lon="4.05002">
        <ele>1068.1</ele>
        <time>2026-04-28T11:46:22Z</time>
      </trkpt>
      <trkpt lat="44.94563" lon="4.05011">
        <ele>1068.4</ele>
        <time>2026-04-28T11:46:27Z</time>
      </trkpt>
      <trkpt lat="44.9456" lon="4.05021">
        <ele>1068.6</ele>
        <time>2026-04-28T11:46:32Z</time>
      </trkpt>
      <trkpt lat="44.94556" lon="4.05029">
        <ele>1068.6</ele>
        <time>2026-04-28T11:46:37Z</time>
      </trkpt>
      <trkpt lat="44.9455" lon="4.0504">
        <ele>1068.4</ele>
        <time>2026-04-28T11:46:42Z</time>
      </trkpt>
      <trkpt lat="44.94546" lon="4.05047">
        <ele>1068.3</ele>
        <time>2026-04-28T11:46:47Z</time>
      </trkpt>
      <trkpt lat="44.94542" lon="4.05053">
        <ele>1068.1</ele>
        <time>2026-04-28T11:46:52Z</time>
      </trkpt>
      <trkpt lat="44.94537" lon="4.05061">
        <ele>1067.8</ele>
        <time>2026-04-28T11:46:57Z</time>
      </trkpt>
      <trkpt lat="44.94531" lon="4.05068">
        <ele>1067.4</ele>
        <time>2026-04-28T11:47:02Z</time>
      </trkpt>
      <trkpt lat="44.94525" lon="4.05074">
        <ele>1066.9</ele>
        <time>2026-04-28T11:47:07Z</time>
      </trkpt>
      <trkpt lat="44.94518" lon="4.0508">
        <ele>1066.2</ele>
        <time>2026-04-28T11:47:12Z</time>
      </trkpt>
      <trkpt lat="44.94511" lon="4.05089">
        <ele>1065.9</ele>
        <time>2026-04-28T11:47:17Z</time>
      </trkpt>
      <trkpt lat="44.94505" lon="4.05097">
        <ele>1065.8</ele>
        <time>2026-04-28T11:47:22Z</time>
      </trkpt>
      <trkpt lat="44.94498" lon="4.05105">
        <ele>1065.7</ele>
        <time>2026-04-28T11:47:27Z</time>
      </trkpt>
      <trkpt lat="44.94491" lon="4.05118">
        <ele>1066.2</ele>
        <time>2026-04-28T11:47:32Z</time>
      </trkpt>
      <trkpt lat="44.94486" lon="4.05127">
        <ele>1066.5</ele>
        <time>2026-04-28T11:47:37Z</time>
      </trkpt>
      <trkpt lat="44.94479" lon="4.05137">
        <ele>1066.7</ele>
        <time>2026-04-28T11:47:42Z</time>
      </trkpt>
      <trkpt lat="44.94473" lon="4.05145">
        <ele>1066.8</ele>
        <time>2026-04-28T11:47:47Z</time>
      </trkpt>
      <trkpt lat="44.9447" lon="4.0515">
        <ele>1066.9</ele>
        <time>2026-04-28T11:47:52Z</time>
      </trkpt>
      <trkpt lat="44.94466" lon="4.05156">
        <ele>1066.9</ele>
        <time>2026-04-28T11:47:57Z</time>
      </trkpt>
      <trkpt lat="44.94462" lon="4.05161">
        <ele>1066.9</ele>
        <time>2026-04-28T11:48:02Z</time>
      </trkpt>
      <trkpt lat="44.94458" lon="4.05169">
        <ele>1067.1</ele>
        <time>2026-04-28T11:48:07Z</time>
      </trkpt>
      <trkpt lat="44.94453" lon="4.05177">
        <ele>1067.2</ele>
        <time>2026-04-28T11:48:12Z</time>
      </trkpt>
      <trkpt lat="44.94447" lon="4.05183">
        <ele>1067.1</ele>
        <time>2026-04-28T11:48:17Z</time>
      </trkpt>
      <trkpt lat="44.94444" lon="4.05192">
        <ele>1067.5</ele>
        <time>2026-04-28T11:48:22Z</time>
      </trkpt>
      <trkpt lat="44.94438" lon="4.05201">
        <ele>1067.6</ele>
        <time>2026-04-28T11:48:27Z</time>
      </trkpt>
      <trkpt lat="44.94432" lon="4.05209">
        <ele>1067.7</ele>
        <time>2026-04-28T11:48:32Z</time>
      </trkpt>
      <trkpt lat="44.94425" lon="4.05217">
        <ele>1067.8</ele>
        <time>2026-04-28T11:48:37Z</time>
      </trkpt>
      <trkpt lat="44.94419" lon="4.05223">
        <ele>1067.9</ele>
        <time>2026-04-28T11:48:42Z</time>
      </trkpt>
      <trkpt lat="44.94414" lon="4.05228">
        <ele>1068</ele>
        <time>2026-04-28T11:48:47Z</time>
      </trkpt>
      <trkpt lat="44.94408" lon="4.05234">
        <ele>1068.3</ele>
        <time>2026-04-28T11:48:52Z</time>
      </trkpt>
      <trkpt lat="44.94402" lon="4.05238">
        <ele>1068.4</ele>
        <time>2026-04-28T11:48:57Z</time>
      </trkpt>
      <trkpt lat="44.94397" lon="4.05243">
        <ele>1068.7</ele>
        <time>2026-04-28T11:49:02Z</time>
      </trkpt>
      <trkpt lat="44.94392" lon="4.05249">
        <ele>1069</ele>
        <time>2026-04-28T11:49:07Z</time>
      </trkpt>
      <trkpt lat="44.94387" lon="4.05257">
        <ele>1069.6</ele>
        <time>2026-04-28T11:49:12Z</time>
      </trkpt>
      <trkpt lat="44.94382" lon="4.05264">
        <ele>1070.2</ele>
        <time>2026-04-28T11:49:17Z</time>
      </trkpt>
      <trkpt lat="44.94378" lon="4.05273">
        <ele>1071.1</ele>
        <time>2026-04-28T11:49:22Z</time>
      </trkpt>
      <trkpt lat="44.94371" lon="4.05283">
        <ele>1072</ele>
        <time>2026-04-28T11:49:27Z</time>
      </trkpt>
      <trkpt lat="44.94368" lon="4.05292">
        <ele>1073</ele>
        <time>2026-04-28T11:49:32Z</time>
      </trkpt>
      <trkpt lat="44.94365" lon="4.053">
        <ele>1073.8</ele>
        <time>2026-04-28T11:49:37Z</time>
      </trkpt>
      <trkpt lat="44.94361" lon="4.05309">
        <ele>1074.8</ele>
        <time>2026-04-28T11:49:42Z</time>
      </trkpt>
      <trkpt lat="44.94356" lon="4.05314">
        <ele>1075.4</ele>
        <time>2026-04-28T11:49:47Z</time>
      </trkpt>
      <trkpt lat="44.94349" lon="4.05321">
        <ele>1076.3</ele>
        <time>2026-04-28T11:49:52Z</time>
      </trkpt>
      <trkpt lat="44.94343" lon="4.05325">
        <ele>1076.8</ele>
        <time>2026-04-28T11:49:57Z</time>
      </trkpt>
      <trkpt lat="44.94336" lon="4.05329">
        <ele>1077.4</ele>
        <time>2026-04-28T11:50:02Z</time>
      </trkpt>
      <trkpt lat="44.9433" lon="4.0533">
        <ele>1077.5</ele>
        <time>2026-04-28T11:50:07Z</time>
      </trkpt>
      <trkpt lat="44.94323" lon="4.05334">
        <ele>1077.9</ele>
        <time>2026-04-28T11:50:12Z</time>
      </trkpt>
      <trkpt lat="44.94318" lon="4.05337">
        <ele>1078.1</ele>
        <time>2026-04-28T11:50:17Z</time>
      </trkpt>
      <trkpt lat="44.94315" lon="4.0534">
        <ele>1078.4</ele>
        <time>2026-04-28T11:50:22Z</time>
      </trkpt>
      <trkpt lat="44.94314" lon="4.05342">
        <ele>1078.5</ele>
        <time>2026-04-28T11:50:27Z</time>
      </trkpt>
      <trkpt lat="44.94314" lon="4.05342">
        <ele>1078.5</ele>
        <time>2026-04-28T11:50:32Z</time>
      </trkpt>
      <trkpt lat="44.94314" lon="4.05342">
        <ele>1078.5</ele>
        <time>2026-04-28T11:50:37Z</time>
      </trkpt>
      <trkpt lat="44.94314" lon="4.05342">
        <ele>1078.5</ele>
        <time>2026-04-28T11:50:42Z</time>
      </trkpt>
      <trkpt lat="44.94314" lon="4.05342">
        <ele>1078.5</ele>
        <time>2026-04-28T11:50:47Z</time>
      </trkpt>
      <trkpt lat="44.94314" lon="4.05342">
        <ele>1078.5</ele>
        <time>2026-04-28T11:50:52Z</time>
      </trkpt>
      <trkpt lat="44.94314" lon="4.05342">
        <ele>1078.5</ele>
        <time>2026-04-28T11:50:57Z</time>
      </trkpt>
      <trkpt lat="44.94314" lon="4.05342">
        <ele>1078.5</ele>
        <time>2026-04-28T11:51:02Z</time>
      </trkpt>
      <trkpt lat="44.94314" lon="4.05342">
        <ele>1078.5</ele>
        <time>2026-04-28T11:51:07Z</time>
      </trkpt>
      <trkpt lat="44.94314" lon="4.05342">
        <ele>1078.5</ele>
        <time>2026-04-28T11:51:12Z</time>
      </trkpt>
      <trkpt lat="44.94314" lon="4.05342">
        <ele>1078.5</ele>
        <time>2026-04-28T11:51:17Z</time>
      </trkpt>
      <trkpt lat="44.94314" lon="4.05342">
        <ele>1078.5</ele>
        <time>2026-04-28T11:51:22Z</time>
      </trkpt>
      <trkpt lat="44.94314" lon="4.05342">
        <ele>1078.5</ele>
        <time>2026-04-28T11:51:27Z</time>
      </trkpt>
      <trkpt lat="44.94314" lon="4.05342">
        <ele>1078.5</ele>
        <time>2026-04-28T11:51:32Z</time>
      </trkpt>
      <trkpt lat="44.94314" lon="4.05342">
        <ele>1078.5</ele>
        <time>2026-04-28T11:51:37Z</time>
      </trkpt>
      <trkpt lat="44.94314" lon="4.05342">
        <ele>1078.5</ele>
        <time>2026-04-28T11:51:42Z</time>
      </trkpt>
      <trkpt lat="44.94314" lon="4.05342">
        <ele>1078.5</ele>
        <time>2026-04-28T11:51:47Z</time>
      </trkpt>
      <trkpt lat="44.9431" lon="4.05341">
        <ele>1078.4</ele>
        <time>2026-04-28T11:51:52Z</time>
      </trkpt>
      <trkpt lat="44.94304" lon="4.05345">
        <ele>1078.7</ele>
        <time>2026-04-28T11:51:57Z</time>
      </trkpt>
      <trkpt lat="44.94299" lon="4.05347">
        <ele>1078.9</ele>
        <time>2026-04-28T11:52:02Z</time>
      </trkpt>
      <trkpt lat="44.94294" lon="4.05349">
        <ele>1079</ele>
        <time>2026-04-28T11:52:07Z</time>
      </trkpt>
      <trkpt lat="44.94289" lon="4.05352">
        <ele>1079.3</ele>
        <time>2026-04-28T11:52:12Z</time>
      </trkpt>
      <trkpt lat="44.94286" lon="4.05353">
        <ele>1079.4</ele>
        <time>2026-04-28T11:52:17Z</time>
      </trkpt>
      <trkpt lat="44.94286" lon="4.05354">
        <ele>1079.4</ele>
        <time>2026-04-28T11:52:22Z</time>
      </trkpt>
      <trkpt lat="44.94286" lon="4.05354">
        <ele>1079.4</ele>
        <time>2026-04-28T11:52:27Z</time>
      </trkpt>
      <trkpt lat="44.94286" lon="4.05354">
        <ele>1079.4</ele>
        <time>2026-04-28T11:52:32Z</time>
      </trkpt>
      <trkpt lat="44.94286" lon="4.05354">
        <ele>1079.4</ele>
        <time>2026-04-28T11:52:37Z</time>
      </trkpt>
      <trkpt lat="44.94286" lon="4.05354">
        <ele>1079.4</ele>
        <time>2026-04-28T11:52:42Z</time>
      </trkpt>
      <trkpt lat="44.94286" lon="4.05354">
        <ele>1079.4</ele>
        <time>2026-04-28T11:52:47Z</time>
      </trkpt>
      <trkpt lat="44.94286" lon="4.05354">
        <ele>1079.4</ele>
        <time>2026-04-28T11:52:52Z</time>
      </trkpt>
      <trkpt lat="44.94286" lon="4.05354">
        <ele>1079.4</ele>
        <time>2026-04-28T11:52:57Z</time>
      </trkpt>
      <trkpt lat="44.94286" lon="4.05354">
        <ele>1079.4</ele>
        <time>2026-04-28T11:53:02Z</time>
      </trkpt>
      <trkpt lat="44.94283" lon="4.05356">
        <ele>1079.6</ele>
        <time>2026-04-28T11:53:07Z</time>
      </trkpt>
      <trkpt lat="44.94278" lon="4.05358">
        <ele>1079.8</ele>
        <time>2026-04-28T11:53:12Z</time>
      </trkpt>
      <trkpt lat="44.94272" lon="4.05361">
        <ele>1080.1</ele>
        <time>2026-04-28T11:53:17Z</time>
      </trkpt>
      <trkpt lat="44.94268" lon="4.05359">
        <ele>1079.9</ele>
        <time>2026-04-28T11:53:22Z</time>
      </trkpt>
      <trkpt lat="44.94262" lon="4.05362">
        <ele>1080.1</ele>
        <time>2026-04-28T11:53:27Z</time>
      </trkpt>
      <trkpt lat="44.94257" lon="4.05364">
        <ele>1080.3</ele>
        <time>2026-04-28T11:53:32Z</time>
      </trkpt>
      <trkpt lat="44.94252" lon="4.05367">
        <ele>1080.6</ele>
        <time>2026-04-28T11:53:37Z</time>
      </trkpt>
      <trkpt lat="44.94246" lon="4.0537">
        <ele>1080.6</ele>
        <time>2026-04-28T11:53:42Z</time>
      </trkpt>
      <trkpt lat="44.9424" lon="4.05372">
        <ele>1080.3</ele>
        <time>2026-04-28T11:53:47Z</time>
      </trkpt>
      <trkpt lat="44.94235" lon="4.05377">
        <ele>1080.4</ele>
        <time>2026-04-28T11:53:52Z</time>
      </trkpt>
      <trkpt lat="44.94228" lon="4.05379">
        <ele>1080</ele>
        <time>2026-04-28T11:53:57Z</time>
      </trkpt>
      <trkpt lat="44.94222" lon="4.0538">
        <ele>1079.5</ele>
        <time>2026-04-28T11:54:02Z</time>
      </trkpt>
      <trkpt lat="44.94217" lon="4.05383">
        <ele>1079.4</ele>
        <time>2026-04-28T11:54:07Z</time>
      </trkpt>
      <trkpt lat="44.94211" lon="4.05382">
        <ele>1078.8</ele>
        <time>2026-04-28T11:54:12Z</time>
      </trkpt>
      <trkpt lat="44.94204" lon="4.05385">
        <ele>1078.5</ele>
        <time>2026-04-28T11:54:17Z</time>
      </trkpt>
      <trkpt lat="44.94198" lon="4.05388">
        <ele>1078.3</ele>
        <time>2026-04-28T11:54:22Z</time>
      </trkpt>
      <trkpt lat="44.94192" lon="4.05392">
        <ele>1078.3</ele>
        <time>2026-04-28T11:54:27Z</time>
      </trkpt>
      <trkpt lat="44.94187" lon="4.05396">
        <ele>1078.3</ele>
        <time>2026-04-28T11:54:32Z</time>
      </trkpt>
      <trkpt lat="44.94181" lon="4.05401">
        <ele>1078.4</ele>
        <time>2026-04-28T11:54:37Z</time>
      </trkpt>
      <trkpt lat="44.94175" lon="4.05405">
        <ele>1078.3</ele>
        <time>2026-04-28T11:54:42Z</time>
      </trkpt>
      <trkpt lat="44.94168" lon="4.0541">
        <ele>1078.3</ele>
        <time>2026-04-28T11:54:47Z</time>
      </trkpt>
      <trkpt lat="44.9416" lon="4.05415">
        <ele>1078</ele>
        <time>2026-04-28T11:54:52Z</time>
      </trkpt>
      <trkpt lat="44.94153" lon="4.0542">
        <ele>1077.7</ele>
        <time>2026-04-28T11:54:57Z</time>
      </trkpt>
      <trkpt lat="44.94145" lon="4.05424">
        <ele>1077.3</ele>
        <time>2026-04-28T11:55:02Z</time>
      </trkpt>
      <trkpt lat="44.94139" lon="4.05428">
        <ele>1077.1</ele>
        <time>2026-04-28T11:55:07Z</time>
      </trkpt>
      <trkpt lat="44.94133" lon="4.05433">
        <ele>1077</ele>
        <time>2026-04-28T11:55:12Z</time>
      </trkpt>
      <trkpt lat="44.94127" lon="4.05439">
        <ele>1077.2</ele>
        <time>2026-04-28T11:55:17Z</time>
      </trkpt>
      <trkpt lat="44.94122" lon="4.05446">
        <ele>1077.6</ele>
        <time>2026-04-28T11:55:22Z</time>
      </trkpt>
      <trkpt lat="44.94117" lon="4.05452">
        <ele>1077.9</ele>
        <time>2026-04-28T11:55:27Z</time>
      </trkpt>
      <trkpt lat="44.9411" lon="4.0546">
        <ele>1078.3</ele>
        <time>2026-04-28T11:55:32Z</time>
      </trkpt>
      <trkpt lat="44.94106" lon="4.05467">
        <ele>1078.9</ele>
        <time>2026-04-28T11:55:37Z</time>
      </trkpt>
      <trkpt lat="44.94106" lon="4.05471">
        <ele>1079.5</ele>
        <time>2026-04-28T11:55:42Z</time>
      </trkpt>
      <trkpt lat="44.94111" lon="4.05479">
        <ele>1081.1</ele>
        <time>2026-04-28T11:55:47Z</time>
      </trkpt>
      <trkpt lat="44.94113" lon="4.05486">
        <ele>1082.2</ele>
        <time>2026-04-28T11:55:52Z</time>
      </trkpt>
      <trkpt lat="44.94113" lon="4.05493">
        <ele>1083.2</ele>
        <time>2026-04-28T11:55:57Z</time>
      </trkpt>
      <trkpt lat="44.94112" lon="4.055">
        <ele>1084.1</ele>
        <time>2026-04-28T11:56:02Z</time>
      </trkpt>
      <trkpt lat="44.9411" lon="4.05506">
        <ele>1084.5</ele>
        <time>2026-04-28T11:56:07Z</time>
      </trkpt>
      <trkpt lat="44.94109" lon="4.05512">
        <ele>1085.1</ele>
        <time>2026-04-28T11:56:12Z</time>
      </trkpt>
      <trkpt lat="44.94107" lon="4.05518">
        <ele>1085.5</ele>
        <time>2026-04-28T11:56:17Z</time>
      </trkpt>
      <trkpt lat="44.94104" lon="4.05519">
        <ele>1085.4</ele>
        <time>2026-04-28T11:56:22Z</time>
      </trkpt>
      <trkpt lat="44.94103" lon="4.0552">
        <ele>1085.5</ele>
        <time>2026-04-28T11:56:27Z</time>
      </trkpt>
      <trkpt lat="44.94103" lon="4.0552">
        <ele>1085.5</ele>
        <time>2026-04-28T11:56:32Z</time>
      </trkpt>
      <trkpt lat="44.94103" lon="4.0552">
        <ele>1085.5</ele>
        <time>2026-04-28T11:56:37Z</time>
      </trkpt>
      <trkpt lat="44.94103" lon="4.0552">
        <ele>1085.5</ele>
        <time>2026-04-28T11:56:42Z</time>
      </trkpt>
      <trkpt lat="44.94103" lon="4.05529">
        <ele>1086.4</ele>
        <time>2026-04-28T11:56:47Z</time>
      </trkpt>
      <trkpt lat="44.94099" lon="4.05536">
        <ele>1086.9</ele>
        <time>2026-04-28T11:56:52Z</time>
      </trkpt>
      <trkpt lat="44.94096" lon="4.05542">
        <ele>1087.3</ele>
        <time>2026-04-28T11:56:57Z</time>
      </trkpt>
      <trkpt lat="44.94092" lon="4.05547">
        <ele>1087.6</ele>
        <time>2026-04-28T11:57:02Z</time>
      </trkpt>
      <trkpt lat="44.94089" lon="4.05552">
        <ele>1087.9</ele>
        <time>2026-04-28T11:57:07Z</time>
      </trkpt>
      <trkpt lat="44.94086" lon="4.05558">
        <ele>1088.4</ele>
        <time>2026-04-28T11:57:12Z</time>
      </trkpt>
      <trkpt lat="44.94082" lon="4.05565">
        <ele>1088.9</ele>
        <time>2026-04-28T11:57:17Z</time>
      </trkpt>
      <trkpt lat="44.94079" lon="4.05573">
        <ele>1089.4</ele>
        <time>2026-04-28T11:57:22Z</time>
      </trkpt>
      <trkpt lat="44.94076" lon="4.0558">
        <ele>1089.8</ele>
        <time>2026-04-28T11:57:27Z</time>
      </trkpt>
      <trkpt lat="44.94072" lon="4.05587">
        <ele>1090.1</ele>
        <time>2026-04-28T11:57:32Z</time>
      </trkpt>
      <trkpt lat="44.9407" lon="4.05593">
        <ele>1090.6</ele>
        <time>2026-04-28T11:57:37Z</time>
      </trkpt>
      <trkpt lat="44.94067" lon="4.05597">
        <ele>1090.7</ele>
        <time>2026-04-28T11:57:42Z</time>
      </trkpt>
      <trkpt lat="44.94064" lon="4.05602">
        <ele>1090.9</ele>
        <time>2026-04-28T11:57:47Z</time>
      </trkpt>
      <trkpt lat="44.94061" lon="4.05608">
        <ele>1091.3</ele>
        <time>2026-04-28T11:57:52Z</time>
      </trkpt>
      <trkpt lat="44.94058" lon="4.05613">
        <ele>1091.5</ele>
        <time>2026-04-28T11:57:57Z</time>
      </trkpt>
      <trkpt lat="44.94055" lon="4.05617">
        <ele>1091.6</ele>
        <time>2026-04-28T11:58:02Z</time>
      </trkpt>
      <trkpt lat="44.94051" lon="4.05621">
        <ele>1091.6</ele>
        <time>2026-04-28T11:58:07Z</time>
      </trkpt>
      <trkpt lat="44.94048" lon="4.05626">
        <ele>1091.9</ele>
        <time>2026-04-28T11:58:12Z</time>
      </trkpt>
      <trkpt lat="44.94045" lon="4.05632">
        <ele>1092.2</ele>
        <time>2026-04-28T11:58:17Z</time>
      </trkpt>
      <trkpt lat="44.94043" lon="4.05638">
        <ele>1092.7</ele>
        <time>2026-04-28T11:58:22Z</time>
      </trkpt>
      <trkpt lat="44.94039" lon="4.05643">
        <ele>1092.8</ele>
        <time>2026-04-28T11:58:27Z</time>
      </trkpt>
      <trkpt lat="44.94036" lon="4.05648">
        <ele>1093.1</ele>
        <time>2026-04-28T11:58:32Z</time>
      </trkpt>
      <trkpt lat="44.94032" lon="4.05653">
        <ele>1093.2</ele>
        <time>2026-04-28T11:58:37Z</time>
      </trkpt>
      <trkpt lat="44.9403" lon="4.05657">
        <ele>1093.4</ele>
        <time>2026-04-28T11:58:42Z</time>
      </trkpt>
      <trkpt lat="44.94027" lon="4.05662">
        <ele>1093.7</ele>
        <time>2026-04-28T11:58:47Z</time>
      </trkpt>
      <trkpt lat="44.94023" lon="4.05667">
        <ele>1093.8</ele>
        <time>2026-04-28T11:58:52Z</time>
      </trkpt>
      <trkpt lat="44.94021" lon="4.0567">
        <ele>1093.9</ele>
        <time>2026-04-28T11:58:57Z</time>
      </trkpt>
      <trkpt lat="44.94018" lon="4.05675">
        <ele>1094.1</ele>
        <time>2026-04-28T11:59:02Z</time>
      </trkpt>
      <trkpt lat="44.94016" lon="4.0568">
        <ele>1094.5</ele>
        <time>2026-04-28T11:59:07Z</time>
      </trkpt>
      <trkpt lat="44.94012" lon="4.05685">
        <ele>1094.5</ele>
        <time>2026-04-28T11:59:12Z</time>
      </trkpt>
      <trkpt lat="44.9401" lon="4.05691">
        <ele>1095</ele>
        <time>2026-04-28T11:59:17Z</time>
      </trkpt>
      <trkpt lat="44.94008" lon="4.05697">
        <ele>1095.4</ele>
        <time>2026-04-28T11:59:22Z</time>
      </trkpt>
      <trkpt lat="44.94005" lon="4.05704">
        <ele>1095.7</ele>
        <time>2026-04-28T11:59:27Z</time>
      </trkpt>
      <trkpt lat="44.94001" lon="4.05711">
        <ele>1095.9</ele>
        <time>2026-04-28T11:59:32Z</time>
      </trkpt>
      <trkpt lat="44.93997" lon="4.05717">
        <ele>1096.3</ele>
        <time>2026-04-28T11:59:37Z</time>
      </trkpt>
      <trkpt lat="44.93994" lon="4.05726">
        <ele>1097.1</ele>
        <time>2026-04-28T11:59:42Z</time>
      </trkpt>
      <trkpt lat="44.93991" lon="4.05732">
        <ele>1097.6</ele>
        <time>2026-04-28T11:59:47Z</time>
      </trkpt>
      <trkpt lat="44.93986" lon="4.0574">
        <ele>1098.2</ele>
        <time>2026-04-28T11:59:52Z</time>
      </trkpt>
      <trkpt lat="44.93982" lon="4.05748">
        <ele>1098.9</ele>
        <time>2026-04-28T11:59:57Z</time>
      </trkpt>
      <trkpt lat="44.93979" lon="4.05756">
        <ele>1099.7</ele>
        <time>2026-04-28T12:00:02Z</time>
      </trkpt>
      <trkpt lat="44.93975" lon="4.05764">
        <ele>1100.4</ele>
        <time>2026-04-28T12:00:07Z</time>
      </trkpt>
      <trkpt lat="44.93972" lon="4.05772">
        <ele>1101.1</ele>
        <time>2026-04-28T12:00:12Z</time>
      </trkpt>
      <trkpt lat="44.93969" lon="4.05779">
        <ele>1101.7</ele>
        <time>2026-04-28T12:00:17Z</time>
      </trkpt>
      <trkpt lat="44.93967" lon="4.05786">
        <ele>1102.4</ele>
        <time>2026-04-28T12:00:22Z</time>
      </trkpt>
      <trkpt lat="44.93963" lon="4.05794">
        <ele>1103</ele>
        <time>2026-04-28T12:00:27Z</time>
      </trkpt>
      <trkpt lat="44.93958" lon="4.05802">
        <ele>1103.6</ele>
        <time>2026-04-28T12:00:32Z</time>
      </trkpt>
      <trkpt lat="44.93955" lon="4.05808">
        <ele>1104</ele>
        <time>2026-04-28T12:00:37Z</time>
      </trkpt>
      <trkpt lat="44.93954" lon="4.05815">
        <ele>1104.7</ele>
        <time>2026-04-28T12:00:42Z</time>
      </trkpt>
      <trkpt lat="44.93952" lon="4.05823">
        <ele>1105.4</ele>
        <time>2026-04-28T12:00:47Z</time>
      </trkpt>
      <trkpt lat="44.93949" lon="4.05832">
        <ele>1106.2</ele>
        <time>2026-04-28T12:00:52Z</time>
      </trkpt>
      <trkpt lat="44.93949" lon="4.05839">
        <ele>1107</ele>
        <time>2026-04-28T12:00:57Z</time>
      </trkpt>
      <trkpt lat="44.9395" lon="4.05847">
        <ele>1108</ele>
        <time>2026-04-28T12:01:02Z</time>
      </trkpt>
      <trkpt lat="44.9395" lon="4.05853">
        <ele>1108.7</ele>
        <time>2026-04-28T12:01:07Z</time>
      </trkpt>
      <trkpt lat="44.93951" lon="4.0586">
        <ele>1109.6</ele>
        <time>2026-04-28T12:01:12Z</time>
      </trkpt>
      <trkpt lat="44.93951" lon="4.05866">
        <ele>1110.3</ele>
        <time>2026-04-28T12:01:17Z</time>
      </trkpt>
      <trkpt lat="44.93951" lon="4.05873">
        <ele>1111.1</ele>
        <time>2026-04-28T12:01:22Z</time>
      </trkpt>
      <trkpt lat="44.93949" lon="4.05881">
        <ele>1111.9</ele>
        <time>2026-04-28T12:01:27Z</time>
      </trkpt>
      <trkpt lat="44.93948" lon="4.05888">
        <ele>1112.7</ele>
        <time>2026-04-28T12:01:32Z</time>
      </trkpt>
      <trkpt lat="44.93948" lon="4.05892">
        <ele>1113.1</ele>
        <time>2026-04-28T12:01:37Z</time>
      </trkpt>
      <trkpt lat="44.93949" lon="4.05898">
        <ele>1113.9</ele>
        <time>2026-04-28T12:01:42Z</time>
      </trkpt>
      <trkpt lat="44.9395" lon="4.05903">
        <ele>1114.6</ele>
        <time>2026-04-28T12:01:47Z</time>
      </trkpt>
      <trkpt lat="44.9395" lon="4.05911">
        <ele>1115.5</ele>
        <time>2026-04-28T12:01:52Z</time>
      </trkpt>
      <trkpt lat="44.9395" lon="4.0592">
        <ele>1116.5</ele>
        <time>2026-04-28T12:01:57Z</time>
      </trkpt>
      <trkpt lat="44.93948" lon="4.05929">
        <ele>1117.2</ele>
        <time>2026-04-28T12:02:02Z</time>
      </trkpt>
      <trkpt lat="44.93948" lon="4.05937">
        <ele>1118.1</ele>
        <time>2026-04-28T12:02:07Z</time>
      </trkpt>
      <trkpt lat="44.93948" lon="4.05945">
        <ele>1118.9</ele>
        <time>2026-04-28T12:02:12Z</time>
      </trkpt>
      <trkpt lat="44.93949" lon="4.05955">
        <ele>1120</ele>
        <time>2026-04-28T12:02:17Z</time>
      </trkpt>
      <trkpt lat="44.9395" lon="4.05962">
        <ele>1120.8</ele>
        <time>2026-04-28T12:02:22Z</time>
      </trkpt>
      <trkpt lat="44.93947" lon="4.05968">
        <ele>1121.1</ele>
        <time>2026-04-28T12:02:27Z</time>
      </trkpt>
      <trkpt lat="44.93941" lon="4.05972">
        <ele>1120.8</ele>
        <time>2026-04-28T12:02:32Z</time>
      </trkpt>
      <trkpt lat="44.93936" lon="4.05972">
        <ele>1120.3</ele>
        <time>2026-04-28T12:02:37Z</time>
      </trkpt>
      <trkpt lat="44.9393" lon="4.05973">
        <ele>1119.8</ele>
        <time>2026-04-28T12:02:42Z</time>
      </trkpt>
      <trkpt lat="44.93923" lon="4.05973">
        <ele>1119.1</ele>
        <time>2026-04-28T12:02:47Z</time>
      </trkpt>
      <trkpt lat="44.93915" lon="4.05971">
        <ele>1118.1</ele>
        <time>2026-04-28T12:02:52Z</time>
      </trkpt>
      <trkpt lat="44.93908" lon="4.05973">
        <ele>1117.7</ele>
        <time>2026-04-28T12:02:57Z</time>
      </trkpt>
      <trkpt lat="44.93901" lon="4.05976">
        <ele>1117.4</ele>
        <time>2026-04-28T12:03:02Z</time>
      </trkpt>
      <trkpt lat="44.93894" lon="4.05981">
        <ele>1117.3</ele>
        <time>2026-04-28T12:03:07Z</time>
      </trkpt>
      <trkpt lat="44.93887" lon="4.05986">
        <ele>1117.2</ele>
        <time>2026-04-28T12:03:12Z</time>
      </trkpt>
      <trkpt lat="44.93879" lon="4.05994">
        <ele>1117.3</ele>
        <time>2026-04-28T12:03:17Z</time>
      </trkpt>
      <trkpt lat="44.93872" lon="4.06">
        <ele>1117.2</ele>
        <time>2026-04-28T12:03:22Z</time>
      </trkpt>
      <trkpt lat="44.93865" lon="4.06003">
        <ele>1116.9</ele>
        <time>2026-04-28T12:03:27Z</time>
      </trkpt>
      <trkpt lat="44.93861" lon="4.0601">
        <ele>1117.2</ele>
        <time>2026-04-28T12:03:32Z</time>
      </trkpt>
      <trkpt lat="44.93855" lon="4.06015">
        <ele>1117.2</ele>
        <time>2026-04-28T12:03:37Z</time>
      </trkpt>
      <trkpt lat="44.93848" lon="4.06019">
        <ele>1116.9</ele>
        <time>2026-04-28T12:03:42Z</time>
      </trkpt>
      <trkpt lat="44.93841" lon="4.0602">
        <ele>1116.4</ele>
        <time>2026-04-28T12:03:47Z</time>
      </trkpt>
      <trkpt lat="44.93835" lon="4.06019">
        <ele>1115.7</ele>
        <time>2026-04-28T12:03:52Z</time>
      </trkpt>
      <trkpt lat="44.9383" lon="4.06021">
        <ele>1115.5</ele>
        <time>2026-04-28T12:03:57Z</time>
      </trkpt>
      <trkpt lat="44.9383" lon="4.06021">
        <ele>1115.5</ele>
        <time>2026-04-28T12:04:02Z</time>
      </trkpt>
      <trkpt lat="44.93831" lon="4.06026">
        <ele>1116</ele>
        <time>2026-04-28T12:04:07Z</time>
      </trkpt>
      <trkpt lat="44.93829" lon="4.0603">
        <ele>1116.2</ele>
        <time>2026-04-28T12:04:12Z</time>
      </trkpt>
      <trkpt lat="44.93825" lon="4.06037">
        <ele>1116.4</ele>
        <time>2026-04-28T12:04:17Z</time>
      </trkpt>
      <trkpt lat="44.93821" lon="4.06042">
        <ele>1116.5</ele>
        <time>2026-04-28T12:04:22Z</time>
      </trkpt>
      <trkpt lat="44.93819" lon="4.06049">
        <ele>1116.9</ele>
        <time>2026-04-28T12:04:27Z</time>
      </trkpt>
      <trkpt lat="44.93819" lon="4.06056">
        <ele>1117.4</ele>
        <time>2026-04-28T12:04:32Z</time>
      </trkpt>
      <trkpt lat="44.93816" lon="4.06064">
        <ele>1117.8</ele>
        <time>2026-04-28T12:04:37Z</time>
      </trkpt>
      <trkpt lat="44.93813" lon="4.06072">
        <ele>1118.2</ele>
        <time>2026-04-28T12:04:42Z</time>
      </trkpt>
      <trkpt lat="44.93807" lon="4.06078">
        <ele>1118.1</ele>
        <time>2026-04-28T12:04:47Z</time>
      </trkpt>
      <trkpt lat="44.938" lon="4.06082">
        <ele>1117.7</ele>
        <time>2026-04-28T12:04:52Z</time>
      </trkpt>
      <trkpt lat="44.93794" lon="4.06085">
        <ele>1117.3</ele>
        <time>2026-04-28T12:04:57Z</time>
      </trkpt>
      <trkpt lat="44.93794" lon="4.06086">
        <ele>1117.4</ele>
        <time>2026-04-28T12:05:02Z</time>
      </trkpt>
      <trkpt lat="44.93795" lon="4.06088">
        <ele>1117.6</ele>
        <time>2026-04-28T12:05:07Z</time>
      </trkpt>
      <trkpt lat="44.93795" lon="4.06088">
        <ele>1117.6</ele>
        <time>2026-04-28T12:05:12Z</time>
      </trkpt>
      <trkpt lat="44.93795" lon="4.06088">
        <ele>1117.6</ele>
        <time>2026-04-28T12:05:17Z</time>
      </trkpt>
      <trkpt lat="44.93793" lon="4.06095">
        <ele>1117.9</ele>
        <time>2026-04-28T12:05:22Z</time>
      </trkpt>
      <trkpt lat="44.9379" lon="4.06103">
        <ele>1118.1</ele>
        <time>2026-04-28T12:05:27Z</time>
      </trkpt>
      <trkpt lat="44.93786" lon="4.06111">
        <ele>1118.3</ele>
        <time>2026-04-28T12:05:32Z</time>
      </trkpt>
      <trkpt lat="44.93783" lon="4.06118">
        <ele>1118.4</ele>
        <time>2026-04-28T12:05:37Z</time>
      </trkpt>
      <trkpt lat="44.93776" lon="4.06122">
        <ele>1118</ele>
        <time>2026-04-28T12:05:42Z</time>
      </trkpt>
      <trkpt lat="44.93772" lon="4.0613">
        <ele>1118.1</ele>
        <time>2026-04-28T12:05:47Z</time>
      </trkpt>
      <trkpt lat="44.93767" lon="4.06138">
        <ele>1118</ele>
        <time>2026-04-28T12:05:52Z</time>
      </trkpt>
      <trkpt lat="44.93762" lon="4.06148">
        <ele>1118.1</ele>
        <time>2026-04-28T12:05:57Z</time>
      </trkpt>
      <trkpt lat="44.93758" lon="4.06159">
        <ele>1118.4</ele>
        <time>2026-04-28T12:06:02Z</time>
      </trkpt>
      <trkpt lat="44.93757" lon="4.06168">
        <ele>1118.8</ele>
        <time>2026-04-28T12:06:07Z</time>
      </trkpt>
      <trkpt lat="44.93755" lon="4.06176">
        <ele>1119</ele>
        <time>2026-04-28T12:06:12Z</time>
      </trkpt>
      <trkpt lat="44.93756" lon="4.06185">
        <ele>1119.5</ele>
        <time>2026-04-28T12:06:17Z</time>
      </trkpt>
      <trkpt lat="44.93758" lon="4.06193">
        <ele>1120.2</ele>
        <time>2026-04-28T12:06:22Z</time>
      </trkpt>
      <trkpt lat="44.93756" lon="4.06199">
        <ele>1120.2</ele>
        <time>2026-04-28T12:06:27Z</time>
      </trkpt>
      <trkpt lat="44.93755" lon="4.06206">
        <ele>1120.5</ele>
        <time>2026-04-28T12:06:32Z</time>
      </trkpt>
      <trkpt lat="44.93757" lon="4.06206">
        <ele>1120.7</ele>
        <time>2026-04-28T12:06:37Z</time>
      </trkpt>
      <trkpt lat="44.93759" lon="4.06202">
        <ele>1120.7</ele>
        <time>2026-04-28T12:06:42Z</time>
      </trkpt>
      <trkpt lat="44.93766" lon="4.06199">
        <ele>1121.4</ele>
        <time>2026-04-28T12:06:47Z</time>
      </trkpt>
      <trkpt lat="44.9377" lon="4.06192">
        <ele>1121.4</ele>
        <time>2026-04-28T12:06:52Z</time>
      </trkpt>
      <trkpt lat="44.93774" lon="4.06185">
        <ele>1121.5</ele>
        <time>2026-04-28T12:06:57Z</time>
      </trkpt>
      <trkpt lat="44.93778" lon="4.0618">
        <ele>1121.7</ele>
        <time>2026-04-28T12:07:02Z</time>
      </trkpt>
      <trkpt lat="44.93782" lon="4.06176">
        <ele>1121.9</ele>
        <time>2026-04-28T12:07:07Z</time>
      </trkpt>
      <trkpt lat="44.93788" lon="4.06176">
        <ele>1122.6</ele>
        <time>2026-04-28T12:07:12Z</time>
      </trkpt>
      <trkpt lat="44.93788" lon="4.06183">
        <ele>1123</ele>
        <time>2026-04-28T12:07:17Z</time>
      </trkpt>
      <trkpt lat="44.93784" lon="4.06192">
        <ele>1123</ele>
        <time>2026-04-28T12:07:22Z</time>
      </trkpt>
      <trkpt lat="44.93781" lon="4.06199">
        <ele>1123</ele>
        <time>2026-04-28T12:07:27Z</time>
      </trkpt>
      <trkpt lat="44.93778" lon="4.0621">
        <ele>1123.3</ele>
        <time>2026-04-28T12:07:32Z</time>
      </trkpt>
      <trkpt lat="44.93775" lon="4.06218">
        <ele>1123.3</ele>
        <time>2026-04-28T12:07:37Z</time>
      </trkpt>
      <trkpt lat="44.93774" lon="4.06225">
        <ele>1123.6</ele>
        <time>2026-04-28T12:07:42Z</time>
      </trkpt>
      <trkpt lat="44.93773" lon="4.06231">
        <ele>1123.8</ele>
        <time>2026-04-28T12:07:47Z</time>
      </trkpt>
      <trkpt lat="44.93771" lon="4.06241">
        <ele>1124.1</ele>
        <time>2026-04-28T12:07:52Z</time>
      </trkpt>
      <trkpt lat="44.9377" lon="4.06248">
        <ele>1124.3</ele>
        <time>2026-04-28T12:07:57Z</time>
      </trkpt>
      <trkpt lat="44.93767" lon="4.06255">
        <ele>1124.3</ele>
        <time>2026-04-28T12:08:02Z</time>
      </trkpt>
      <trkpt lat="44.93766" lon="4.06262">
        <ele>1124.5</ele>
        <time>2026-04-28T12:08:07Z</time>
      </trkpt>
      <trkpt lat="44.93765" lon="4.06272">
        <ele>1124.8</ele>
        <time>2026-04-28T12:08:12Z</time>
      </trkpt>
      <trkpt lat="44.93762" lon="4.06283">
        <ele>1124.9</ele>
        <time>2026-04-28T12:08:17Z</time>
      </trkpt>
      <trkpt lat="44.9376" lon="4.06291">
        <ele>1124.9</ele>
        <time>2026-04-28T12:08:22Z</time>
      </trkpt>
      <trkpt lat="44.93758" lon="4.063">
        <ele>1125</ele>
        <time>2026-04-28T12:08:27Z</time>
      </trkpt>
      <trkpt lat="44.93756" lon="4.0631">
        <ele>1125.1</ele>
        <time>2026-04-28T12:08:32Z</time>
      </trkpt>
      <trkpt lat="44.93756" lon="4.0632">
        <ele>1125.5</ele>
        <time>2026-04-28T12:08:37Z</time>
      </trkpt>
      <trkpt lat="44.93756" lon="4.0633">
        <ele>1125.9</ele>
        <time>2026-04-28T12:08:42Z</time>
      </trkpt>
      <trkpt lat="44.93755" lon="4.06338">
        <ele>1126.1</ele>
        <time>2026-04-28T12:08:47Z</time>
      </trkpt>
      <trkpt lat="44.93754" lon="4.06346">
        <ele>1126.4</ele>
        <time>2026-04-28T12:08:52Z</time>
      </trkpt>
      <trkpt lat="44.93752" lon="4.06356">
        <ele>1126.7</ele>
        <time>2026-04-28T12:08:57Z</time>
      </trkpt>
      <trkpt lat="44.9375" lon="4.06364">
        <ele>1126.8</ele>
        <time>2026-04-28T12:09:02Z</time>
      </trkpt>
      <trkpt lat="44.93748" lon="4.06374">
        <ele>1127</ele>
        <time>2026-04-28T12:09:07Z</time>
      </trkpt>
      <trkpt lat="44.93749" lon="4.06383">
        <ele>1127.8</ele>
        <time>2026-04-28T12:09:12Z</time>
      </trkpt>
      <trkpt lat="44.93746" lon="4.06391">
        <ele>1127.5</ele>
        <time>2026-04-28T12:09:17Z</time>
      </trkpt>
      <trkpt lat="44.93741" lon="4.06394">
        <ele>1126.5</ele>
        <time>2026-04-28T12:09:22Z</time>
      </trkpt>
      <trkpt lat="44.9374" lon="4.06396">
        <ele>1126.4</ele>
        <time>2026-04-28T12:09:27Z</time>
      </trkpt>
      <trkpt lat="44.9374" lon="4.06398">
        <ele>1126.5</ele>
        <time>2026-04-28T12:09:32Z</time>
      </trkpt>
      <trkpt lat="44.9374" lon="4.06398">
        <ele>1126.5</ele>
        <time>2026-04-28T12:09:37Z</time>
      </trkpt>
      <trkpt lat="44.9374" lon="4.06398">
        <ele>1126.5</ele>
        <time>2026-04-28T12:09:42Z</time>
      </trkpt>
      <trkpt lat="44.9374" lon="4.06398">
        <ele>1126.5</ele>
        <time>2026-04-28T12:09:47Z</time>
      </trkpt>
      <trkpt lat="44.9374" lon="4.06398">
        <ele>1126.5</ele>
        <time>2026-04-28T12:09:52Z</time>
      </trkpt>
      <trkpt lat="44.93746" lon="4.064">
        <ele>1128</ele>
        <time>2026-04-28T12:09:57Z</time>
      </trkpt>
      <trkpt lat="44.93749" lon="4.06404">
        <ele>1129</ele>
        <time>2026-04-28T12:10:02Z</time>
      </trkpt>
      <trkpt lat="44.9375" lon="4.06415">
        <ele>1129.9</ele>
        <time>2026-04-28T12:10:07Z</time>
      </trkpt>
      <trkpt lat="44.9375" lon="4.06425">
        <ele>1130.6</ele>
        <time>2026-04-28T12:10:12Z</time>
      </trkpt>
      <trkpt lat="44.93752" lon="4.06435">
        <ele>1131.6</ele>
        <time>2026-04-28T12:10:17Z</time>
      </trkpt>
      <trkpt lat="44.93754" lon="4.06444">
        <ele>1132.5</ele>
        <time>2026-04-28T12:10:22Z</time>
      </trkpt>
      <trkpt lat="44.93756" lon="4.06455">
        <ele>1133.6</ele>
        <time>2026-04-28T12:10:27Z</time>
      </trkpt>
      <trkpt lat="44.93758" lon="4.06466">
        <ele>1134.6</ele>
        <time>2026-04-28T12:10:32Z</time>
      </trkpt>
      <trkpt lat="44.9376" lon="4.06475">
        <ele>1135.4</ele>
        <time>2026-04-28T12:10:37Z</time>
      </trkpt>
      <trkpt lat="44.93762" lon="4.06485">
        <ele>1136.3</ele>
        <time>2026-04-28T12:10:42Z</time>
      </trkpt>
      <trkpt lat="44.93765" lon="4.06495">
        <ele>1137.3</ele>
        <time>2026-04-28T12:10:47Z</time>
      </trkpt>
      <trkpt lat="44.93768" lon="4.06504">
        <ele>1138</ele>
        <time>2026-04-28T12:10:52Z</time>
      </trkpt>
      <trkpt lat="44.93771" lon="4.06512">
        <ele>1138.3</ele>
        <time>2026-04-28T12:10:57Z</time>
      </trkpt>
      <trkpt lat="44.93774" lon="4.06521">
        <ele>1138.7</ele>
        <time>2026-04-28T12:11:02Z</time>
      </trkpt>
      <trkpt lat="44.93777" lon="4.0653">
        <ele>1139</ele>
        <time>2026-04-28T12:11:07Z</time>
      </trkpt>
      <trkpt lat="44.9378" lon="4.06541">
        <ele>1139.4</ele>
        <time>2026-04-28T12:11:12Z</time>
      </trkpt>
      <trkpt lat="44.93783" lon="4.0655">
        <ele>1139.8</ele>
        <time>2026-04-28T12:11:17Z</time>
      </trkpt>
      <trkpt lat="44.93785" lon="4.0656">
        <ele>1140.1</ele>
        <time>2026-04-28T12:11:22Z</time>
      </trkpt>
      <trkpt lat="44.93787" lon="4.06569">
        <ele>1140.4</ele>
        <time>2026-04-28T12:11:27Z</time>
      </trkpt>
      <trkpt lat="44.93788" lon="4.0658">
        <ele>1140.5</ele>
        <time>2026-04-28T12:11:32Z</time>
      </trkpt>
      <trkpt lat="44.9379" lon="4.06589">
        <ele>1141.1</ele>
        <time>2026-04-28T12:11:37Z</time>
      </trkpt>
      <trkpt lat="44.93793" lon="4.06596">
        <ele>1141.8</ele>
        <time>2026-04-28T12:11:42Z</time>
      </trkpt>
      <trkpt lat="44.93797" lon="4.06604">
        <ele>1142.6</ele>
        <time>2026-04-28T12:11:47Z</time>
      </trkpt>
      <trkpt lat="44.93801" lon="4.06613">
        <ele>1143.5</ele>
        <time>2026-04-28T12:11:52Z</time>
      </trkpt>
      <trkpt lat="44.93806" lon="4.06622">
        <ele>1144.6</ele>
        <time>2026-04-28T12:11:57Z</time>
      </trkpt>
      <trkpt lat="44.93809" lon="4.06632">
        <ele>1145.4</ele>
        <time>2026-04-28T12:12:02Z</time>
      </trkpt>
      <trkpt lat="44.93812" lon="4.0664">
        <ele>1146.2</ele>
        <time>2026-04-28T12:12:07Z</time>
      </trkpt>
      <trkpt lat="44.93817" lon="4.06648">
        <ele>1147.1</ele>
        <time>2026-04-28T12:12:12Z</time>
      </trkpt>
      <trkpt lat="44.9382" lon="4.06658">
        <ele>1148</ele>
        <time>2026-04-28T12:12:17Z</time>
      </trkpt>
      <trkpt lat="44.93821" lon="4.06666">
        <ele>1148.5</ele>
        <time>2026-04-28T12:12:22Z</time>
      </trkpt>
      <trkpt lat="44.93825" lon="4.06675">
        <ele>1149.3</ele>
        <time>2026-04-28T12:12:27Z</time>
      </trkpt>
      <trkpt lat="44.93829" lon="4.06681">
        <ele>1150</ele>
        <time>2026-04-28T12:12:32Z</time>
      </trkpt>
      <trkpt lat="44.9383" lon="4.06687">
        <ele>1150.3</ele>
        <time>2026-04-28T12:12:37Z</time>
      </trkpt>
      <trkpt lat="44.93832" lon="4.06696">
        <ele>1150.9</ele>
        <time>2026-04-28T12:12:42Z</time>
      </trkpt>
      <trkpt lat="44.93834" lon="4.06708">
        <ele>1151.5</ele>
        <time>2026-04-28T12:12:47Z</time>
      </trkpt>
      <trkpt lat="44.93837" lon="4.06716">
        <ele>1152</ele>
        <time>2026-04-28T12:12:52Z</time>
      </trkpt>
      <trkpt lat="44.93838" lon="4.06726">
        <ele>1152.5</ele>
        <time>2026-04-28T12:12:57Z</time>
      </trkpt>
      <trkpt lat="44.9384" lon="4.06734">
        <ele>1152.9</ele>
        <time>2026-04-28T12:13:02Z</time>
      </trkpt>
      <trkpt lat="44.93842" lon="4.06743">
        <ele>1153.4</ele>
        <time>2026-04-28T12:13:07Z</time>
      </trkpt>
      <trkpt lat="44.93844" lon="4.06752">
        <ele>1153.9</ele>
        <time>2026-04-28T12:13:12Z</time>
      </trkpt>
      <trkpt lat="44.93845" lon="4.0676">
        <ele>1154.3</ele>
        <time>2026-04-28T12:13:17Z</time>
      </trkpt>
      <trkpt lat="44.93846" lon="4.06771">
        <ele>1154.9</ele>
        <time>2026-04-28T12:13:22Z</time>
      </trkpt>
      <trkpt lat="44.93848" lon="4.0678">
        <ele>1155.5</ele>
        <time>2026-04-28T12:13:27Z</time>
      </trkpt>
      <trkpt lat="44.93851" lon="4.0679">
        <ele>1156.2</ele>
        <time>2026-04-28T12:13:32Z</time>
      </trkpt>
      <trkpt lat="44.93853" lon="4.06797">
        <ele>1156.7</ele>
        <time>2026-04-28T12:13:37Z</time>
      </trkpt>
      <trkpt lat="44.93855" lon="4.06807">
        <ele>1157.3</ele>
        <time>2026-04-28T12:13:42Z</time>
      </trkpt>
      <trkpt lat="44.93858" lon="4.06817">
        <ele>1158</ele>
        <time>2026-04-28T12:13:47Z</time>
      </trkpt>
      <trkpt lat="44.9386" lon="4.06824">
        <ele>1158.5</ele>
        <time>2026-04-28T12:13:52Z</time>
      </trkpt>
      <trkpt lat="44.93862" lon="4.06833">
        <ele>1159</ele>
        <time>2026-04-28T12:13:57Z</time>
      </trkpt>
      <trkpt lat="44.93864" lon="4.06841">
        <ele>1159.4</ele>
        <time>2026-04-28T12:14:02Z</time>
      </trkpt>
      <trkpt lat="44.93867" lon="4.06849">
        <ele>1159.8</ele>
        <time>2026-04-28T12:14:07Z</time>
      </trkpt>
      <trkpt lat="44.9387" lon="4.06856">
        <ele>1160.2</ele>
        <time>2026-04-28T12:14:12Z</time>
      </trkpt>
      <trkpt lat="44.93874" lon="4.06862">
        <ele>1160.6</ele>
        <time>2026-04-28T12:14:17Z</time>
      </trkpt>
      <trkpt lat="44.93877" lon="4.06867">
        <ele>1161</ele>
        <time>2026-04-28T12:14:22Z</time>
      </trkpt>
      <trkpt lat="44.9388" lon="4.0687">
        <ele>1161.3</ele>
        <time>2026-04-28T12:14:27Z</time>
      </trkpt>
      <trkpt lat="44.9388" lon="4.0687">
        <ele>1161.3</ele>
        <time>2026-04-28T12:14:32Z</time>
      </trkpt>
      <trkpt lat="44.93882" lon="4.0687">
        <ele>1161.5</ele>
        <time>2026-04-28T12:14:37Z</time>
      </trkpt>
      <trkpt lat="44.93887" lon="4.06871">
        <ele>1161.9</ele>
        <time>2026-04-28T12:14:42Z</time>
      </trkpt>
      <trkpt lat="44.93892" lon="4.06868">
        <ele>1162.2</ele>
        <time>2026-04-28T12:14:47Z</time>
      </trkpt>
      <trkpt lat="44.93898" lon="4.06867">
        <ele>1162.7</ele>
        <time>2026-04-28T12:14:52Z</time>
      </trkpt>
      <trkpt lat="44.93903" lon="4.06865">
        <ele>1163</ele>
        <time>2026-04-28T12:14:57Z</time>
      </trkpt>
      <trkpt lat="44.93908" lon="4.06862">
        <ele>1163.3</ele>
        <time>2026-04-28T12:15:02Z</time>
      </trkpt>
      <trkpt lat="44.93912" lon="4.0686">
        <ele>1163.6</ele>
        <time>2026-04-28T12:15:07Z</time>
      </trkpt>
      <trkpt lat="44.93918" lon="4.06859">
        <ele>1164</ele>
        <time>2026-04-28T12:15:12Z</time>
      </trkpt>
      <trkpt lat="44.93923" lon="4.06862">
        <ele>1164.5</ele>
        <time>2026-04-28T12:15:17Z</time>
      </trkpt>
      <trkpt lat="44.93927" lon="4.06869">
        <ele>1165</ele>
        <time>2026-04-28T12:15:22Z</time>
      </trkpt>
      <trkpt lat="44.9393" lon="4.06876">
        <ele>1165.5</ele>
        <time>2026-04-28T12:15:27Z</time>
      </trkpt>
      <trkpt lat="44.93932" lon="4.06885">
        <ele>1166</ele>
        <time>2026-04-28T12:15:32Z</time>
      </trkpt>
      <trkpt lat="44.93933" lon="4.06894">
        <ele>1166.4</ele>
        <time>2026-04-28T12:15:37Z</time>
      </trkpt>
      <trkpt lat="44.93936" lon="4.06901">
        <ele>1167</ele>
        <time>2026-04-28T12:15:42Z</time>
      </trkpt>
      <trkpt lat="44.93939" lon="4.06909">
        <ele>1167.6</ele>
        <time>2026-04-28T12:15:47Z</time>
      </trkpt>
      <trkpt lat="44.93943" lon="4.06915">
        <ele>1168.1</ele>
        <time>2026-04-28T12:15:52Z</time>
      </trkpt>
      <trkpt lat="44.93947" lon="4.06922">
        <ele>1168.9</ele>
        <time>2026-04-28T12:15:57Z</time>
      </trkpt>
      <trkpt lat="44.93951" lon="4.0693">
        <ele>1169.8</ele>
        <time>2026-04-28T12:16:02Z</time>
      </trkpt>
      <trkpt lat="44.93955" lon="4.06937">
        <ele>1170.6</ele>
        <time>2026-04-28T12:16:07Z</time>
      </trkpt>
      <trkpt lat="44.93959" lon="4.06944">
        <ele>1171.4</ele>
        <time>2026-04-28T12:16:12Z</time>
      </trkpt>
      <trkpt lat="44.93962" lon="4.06951">
        <ele>1172.1</ele>
        <time>2026-04-28T12:16:17Z</time>
      </trkpt>
      <trkpt lat="44.93966" lon="4.06958">
        <ele>1172.8</ele>
        <time>2026-04-28T12:16:22Z</time>
      </trkpt>
      <trkpt lat="44.9397" lon="4.06967">
        <ele>1173.7</ele>
        <time>2026-04-28T12:16:27Z</time>
      </trkpt>
      <trkpt lat="44.93973" lon="4.06974">
        <ele>1174.4</ele>
        <time>2026-04-28T12:16:32Z</time>
      </trkpt>
      <trkpt lat="44.93976" lon="4.0698">
        <ele>1175</ele>
        <time>2026-04-28T12:16:37Z</time>
      </trkpt>
      <trkpt lat="44.93979" lon="4.06986">
        <ele>1175.6</ele>
        <time>2026-04-28T12:16:42Z</time>
      </trkpt>
      <trkpt lat="44.93982" lon="4.06994">
        <ele>1176.3</ele>
        <time>2026-04-28T12:16:47Z</time>
      </trkpt>
      <trkpt lat="44.93985" lon="4.07">
        <ele>1176.9</ele>
        <time>2026-04-28T12:16:52Z</time>
      </trkpt>
      <trkpt lat="44.93985" lon="4.0701">
        <ele>1177.6</ele>
        <time>2026-04-28T12:16:57Z</time>
      </trkpt>
      <trkpt lat="44.93982" lon="4.07017">
        <ele>1177.9</ele>
        <time>2026-04-28T12:17:02Z</time>
      </trkpt>
      <trkpt lat="44.93979" lon="4.07025">
        <ele>1178.2</ele>
        <time>2026-04-28T12:17:07Z</time>
      </trkpt>
      <trkpt lat="44.93975" lon="4.07031">
        <ele>1178.4</ele>
        <time>2026-04-28T12:17:12Z</time>
      </trkpt>
      <trkpt lat="44.93973" lon="4.07038">
        <ele>1178.8</ele>
        <time>2026-04-28T12:17:17Z</time>
      </trkpt>
      <trkpt lat="44.93969" lon="4.07045">
        <ele>1179.1</ele>
        <time>2026-04-28T12:17:22Z</time>
      </trkpt>
      <trkpt lat="44.93965" lon="4.07051">
        <ele>1179.3</ele>
        <time>2026-04-28T12:17:27Z</time>
      </trkpt>
      <trkpt lat="44.93961" lon="4.0706">
        <ele>1179.8</ele>
        <time>2026-04-28T12:17:32Z</time>
      </trkpt>
      <trkpt lat="44.93959" lon="4.0707">
        <ele>1180.5</ele>
        <time>2026-04-28T12:17:37Z</time>
      </trkpt>
      <trkpt lat="44.93954" lon="4.07081">
        <ele>1181.2</ele>
        <time>2026-04-28T12:17:42Z</time>
      </trkpt>
      <trkpt lat="44.9395" lon="4.07093">
        <ele>1181.5</ele>
        <time>2026-04-28T12:17:47Z</time>
      </trkpt>
      <trkpt lat="44.93947" lon="4.07101">
        <ele>1181.7</ele>
        <time>2026-04-28T12:17:52Z</time>
      </trkpt>
      <trkpt lat="44.93945" lon="4.07108">
        <ele>1181.8</ele>
        <time>2026-04-28T12:17:57Z</time>
      </trkpt>
      <trkpt lat="44.93942" lon="4.07116">
        <ele>1181.9</ele>
        <time>2026-04-28T12:18:02Z</time>
      </trkpt>
      <trkpt lat="44.93939" lon="4.07122">
        <ele>1182</ele>
        <time>2026-04-28T12:18:07Z</time>
      </trkpt>
      <trkpt lat="44.93939" lon="4.07129">
        <ele>1182.2</ele>
        <time>2026-04-28T12:18:12Z</time>
      </trkpt>
      <trkpt lat="44.93938" lon="4.0714">
        <ele>1182.5</ele>
        <time>2026-04-28T12:18:17Z</time>
      </trkpt>
      <trkpt lat="44.93938" lon="4.0715">
        <ele>1182.8</ele>
        <time>2026-04-28T12:18:22Z</time>
      </trkpt>
      <trkpt lat="44.93942" lon="4.07162">
        <ele>1183.4</ele>
        <time>2026-04-28T12:18:27Z</time>
      </trkpt>
      <trkpt lat="44.93944" lon="4.07171">
        <ele>1183.7</ele>
        <time>2026-04-28T12:18:32Z</time>
      </trkpt>
      <trkpt lat="44.93946" lon="4.07181">
        <ele>1184.1</ele>
        <time>2026-04-28T12:18:37Z</time>
      </trkpt>
      <trkpt lat="44.93946" lon="4.07192">
        <ele>1184.4</ele>
        <time>2026-04-28T12:18:42Z</time>
      </trkpt>
      <trkpt lat="44.93946" lon="4.07203">
        <ele>1184.6</ele>
        <time>2026-04-28T12:18:47Z</time>
      </trkpt>
      <trkpt lat="44.93946" lon="4.07211">
        <ele>1184.8</ele>
        <time>2026-04-28T12:18:52Z</time>
      </trkpt>
      <trkpt lat="44.93946" lon="4.07221">
        <ele>1185.1</ele>
        <time>2026-04-28T12:18:57Z</time>
      </trkpt>
      <trkpt lat="44.93947" lon="4.07231">
        <ele>1185.4</ele>
        <time>2026-04-28T12:19:02Z</time>
      </trkpt>
      <trkpt lat="44.93948" lon="4.07241">
        <ele>1185.7</ele>
        <time>2026-04-28T12:19:07Z</time>
      </trkpt>
      <trkpt lat="44.93948" lon="4.07249">
        <ele>1185.9</ele>
        <time>2026-04-28T12:19:12Z</time>
      </trkpt>
      <trkpt lat="44.93949" lon="4.07259">
        <ele>1186.2</ele>
        <time>2026-04-28T12:19:17Z</time>
      </trkpt>
      <trkpt lat="44.93951" lon="4.07271">
        <ele>1186.6</ele>
        <time>2026-04-28T12:19:22Z</time>
      </trkpt>
      <trkpt lat="44.93952" lon="4.07284">
        <ele>1186.9</ele>
        <time>2026-04-28T12:19:27Z</time>
      </trkpt>
      <trkpt lat="44.93954" lon="4.07296">
        <ele>1187.3</ele>
        <time>2026-04-28T12:19:32Z</time>
      </trkpt>
      <trkpt lat="44.93956" lon="4.07306">
        <ele>1187.7</ele>
        <time>2026-04-28T12:19:37Z</time>
      </trkpt>
      <trkpt lat="44.93957" lon="4.07315">
        <ele>1188</ele>
        <time>2026-04-28T12:19:42Z</time>
      </trkpt>
      <trkpt lat="44.93958" lon="4.07324">
        <ele>1188.3</ele>
        <time>2026-04-28T12:19:47Z</time>
      </trkpt>
      <trkpt lat="44.93961" lon="4.07335">
        <ele>1188.7</ele>
        <time>2026-04-28T12:19:52Z</time>
      </trkpt>
      <trkpt lat="44.93963" lon="4.07349">
        <ele>1188.8</ele>
        <time>2026-04-28T12:19:57Z</time>
      </trkpt>
      <trkpt lat="44.93963" lon="4.07361">
        <ele>1188.9</ele>
        <time>2026-04-28T12:20:02Z</time>
      </trkpt>
      <trkpt lat="44.93961" lon="4.07371">
        <ele>1188.8</ele>
        <time>2026-04-28T12:20:07Z</time>
      </trkpt>
      <trkpt lat="44.93967" lon="4.07381">
        <ele>1189.1</ele>
        <time>2026-04-28T12:20:12Z</time>
      </trkpt>
      <trkpt lat="44.93972" lon="4.07392">
        <ele>1189.3</ele>
        <time>2026-04-28T12:20:17Z</time>
      </trkpt>
      <trkpt lat="44.93975" lon="4.07404">
        <ele>1189.4</ele>
        <time>2026-04-28T12:20:22Z</time>
      </trkpt>
      <trkpt lat="44.93976" lon="4.07414">
        <ele>1189.4</ele>
        <time>2026-04-28T12:20:27Z</time>
      </trkpt>
      <trkpt lat="44.93976" lon="4.07421">
        <ele>1189.4</ele>
        <time>2026-04-28T12:20:32Z</time>
      </trkpt>
      <trkpt lat="44.93978" lon="4.07429">
        <ele>1189.4</ele>
        <time>2026-04-28T12:20:37Z</time>
      </trkpt>
      <trkpt lat="44.93981" lon="4.07441">
        <ele>1189.5</ele>
        <time>2026-04-28T12:20:42Z</time>
      </trkpt>
      <trkpt lat="44.93986" lon="4.07452">
        <ele>1189.5</ele>
        <time>2026-04-28T12:20:47Z</time>
      </trkpt>
      <trkpt lat="44.93991" lon="4.07462">
        <ele>1189.4</ele>
        <time>2026-04-28T12:20:52Z</time>
      </trkpt>
      <trkpt lat="44.93993" lon="4.07472">
        <ele>1189.3</ele>
        <time>2026-04-28T12:20:57Z</time>
      </trkpt>
      <trkpt lat="44.93994" lon="4.07481">
        <ele>1189.3</ele>
        <time>2026-04-28T12:21:02Z</time>
      </trkpt>
      <trkpt lat="44.93997" lon="4.0749">
        <ele>1189.1</ele>
        <time>2026-04-28T12:21:07Z</time>
      </trkpt>
      <trkpt lat="44.93999" lon="4.07502">
        <ele>1189</ele>
        <time>2026-04-28T12:21:12Z</time>
      </trkpt>
      <trkpt lat="44.94" lon="4.07511">
        <ele>1188.9</ele>
        <time>2026-04-28T12:21:17Z</time>
      </trkpt>
      <trkpt lat="44.94002" lon="4.07521">
        <ele>1188.7</ele>
        <time>2026-04-28T12:21:22Z</time>
      </trkpt>
      <trkpt lat="44.94003" lon="4.07531">
        <ele>1188.6</ele>
        <time>2026-04-28T12:21:27Z</time>
      </trkpt>
      <trkpt lat="44.94004" lon="4.0754">
        <ele>1188.5</ele>
        <time>2026-04-28T12:21:32Z</time>
      </trkpt>
      <trkpt lat="44.94004" lon="4.07551">
        <ele>1188.4</ele>
        <time>2026-04-28T12:21:37Z</time>
      </trkpt>
      <trkpt lat="44.94004" lon="4.07561">
        <ele>1188.3</ele>
        <time>2026-04-28T12:21:42Z</time>
      </trkpt>
      <trkpt lat="44.94005" lon="4.0757">
        <ele>1188.2</ele>
        <time>2026-04-28T12:21:47Z</time>
      </trkpt>
      <trkpt lat="44.94006" lon="4.07578">
        <ele>1188.1</ele>
        <time>2026-04-28T12:21:52Z</time>
      </trkpt>
      <trkpt lat="44.94006" lon="4.0759">
        <ele>1188.1</ele>
        <time>2026-04-28T12:21:57Z</time>
      </trkpt>
      <trkpt lat="44.94007" lon="4.07601">
        <ele>1188.2</ele>
        <time>2026-04-28T12:22:02Z</time>
      </trkpt>
      <trkpt lat="44.94007" lon="4.0761">
        <ele>1188.3</ele>
        <time>2026-04-28T12:22:07Z</time>
      </trkpt>
      <trkpt lat="44.94008" lon="4.0762">
        <ele>1188.4</ele>
        <time>2026-04-28T12:22:12Z</time>
      </trkpt>
      <trkpt lat="44.94009" lon="4.07631">
        <ele>1188.6</ele>
        <time>2026-04-28T12:22:17Z</time>
      </trkpt>
      <trkpt lat="44.9401" lon="4.07642">
        <ele>1188.7</ele>
        <time>2026-04-28T12:22:22Z</time>
      </trkpt>
      <trkpt lat="44.94011" lon="4.07653">
        <ele>1188.8</ele>
        <time>2026-04-28T12:22:27Z</time>
      </trkpt>
      <trkpt lat="44.94012" lon="4.07662">
        <ele>1188.9</ele>
        <time>2026-04-28T12:22:32Z</time>
      </trkpt>
      <trkpt lat="44.94012" lon="4.07671">
        <ele>1189.1</ele>
        <time>2026-04-28T12:22:37Z</time>
      </trkpt>
      <trkpt lat="44.94012" lon="4.0768">
        <ele>1189.3</ele>
        <time>2026-04-28T12:22:42Z</time>
      </trkpt>
      <trkpt lat="44.94012" lon="4.07691">
        <ele>1189.5</ele>
        <time>2026-04-28T12:22:47Z</time>
      </trkpt>
      <trkpt lat="44.94014" lon="4.07704">
        <ele>1189.8</ele>
        <time>2026-04-28T12:22:52Z</time>
      </trkpt>
      <trkpt lat="44.94017" lon="4.07718">
        <ele>1190.1</ele>
        <time>2026-04-28T12:22:57Z</time>
      </trkpt>
      <trkpt lat="44.94017" lon="4.0773">
        <ele>1190.4</ele>
        <time>2026-04-28T12:23:02Z</time>
      </trkpt>
      <trkpt lat="44.94017" lon="4.0774">
        <ele>1190.6</ele>
        <time>2026-04-28T12:23:07Z</time>
      </trkpt>
      <trkpt lat="44.94018" lon="4.07751">
        <ele>1190.8</ele>
        <time>2026-04-28T12:23:12Z</time>
      </trkpt>
      <trkpt lat="44.94019" lon="4.07761">
        <ele>1190.7</ele>
        <time>2026-04-28T12:23:17Z</time>
      </trkpt>
      <trkpt lat="44.9402" lon="4.07772">
        <ele>1190.6</ele>
        <time>2026-04-28T12:23:22Z</time>
      </trkpt>
      <trkpt lat="44.9402" lon="4.07784">
        <ele>1190.6</ele>
        <time>2026-04-28T12:23:27Z</time>
      </trkpt>
      <trkpt lat="44.94019" lon="4.07793">
        <ele>1190.5</ele>
        <time>2026-04-28T12:23:32Z</time>
      </trkpt>
      <trkpt lat="44.94018" lon="4.07805">
        <ele>1190.5</ele>
        <time>2026-04-28T12:23:37Z</time>
      </trkpt>
      <trkpt lat="44.94016" lon="4.07816">
        <ele>1190.5</ele>
        <time>2026-04-28T12:23:42Z</time>
      </trkpt>
      <trkpt lat="44.94015" lon="4.07827">
        <ele>1190.5</ele>
        <time>2026-04-28T12:23:47Z</time>
      </trkpt>
      <trkpt lat="44.94013" lon="4.07837">
        <ele>1190.5</ele>
        <time>2026-04-28T12:23:52Z</time>
      </trkpt>
      <trkpt lat="44.94011" lon="4.07849">
        <ele>1190.6</ele>
        <time>2026-04-28T12:23:57Z</time>
      </trkpt>
      <trkpt lat="44.94009" lon="4.07858">
        <ele>1190.7</ele>
        <time>2026-04-28T12:24:02Z</time>
      </trkpt>
      <trkpt lat="44.94007" lon="4.07866">
        <ele>1190.8</ele>
        <time>2026-04-28T12:24:07Z</time>
      </trkpt>
      <trkpt lat="44.94007" lon="4.07866">
        <ele>1190.8</ele>
        <time>2026-04-28T12:24:12Z</time>
      </trkpt>
      <trkpt lat="44.94005" lon="4.07876">
        <ele>1190.9</ele>
        <time>2026-04-28T12:24:17Z</time>
      </trkpt>
      <trkpt lat="44.94005" lon="4.07884">
        <ele>1190.9</ele>
        <time>2026-04-28T12:24:22Z</time>
      </trkpt>
      <trkpt lat="44.94005" lon="4.07885">
        <ele>1190.9</ele>
        <time>2026-04-28T12:24:27Z</time>
      </trkpt>
      <trkpt lat="44.94005" lon="4.07885">
        <ele>1190.9</ele>
        <time>2026-04-28T12:24:32Z</time>
      </trkpt>
      <trkpt lat="44.94003" lon="4.07892">
        <ele>1190.9</ele>
        <time>2026-04-28T12:24:37Z</time>
      </trkpt>
      <trkpt lat="44.93998" lon="4.07901">
        <ele>1191</ele>
        <time>2026-04-28T12:24:42Z</time>
      </trkpt>
      <trkpt lat="44.93999" lon="4.07913">
        <ele>1191</ele>
        <time>2026-04-28T12:24:47Z</time>
      </trkpt>
      <trkpt lat="44.94003" lon="4.07924">
        <ele>1190.8</ele>
        <time>2026-04-28T12:24:52Z</time>
      </trkpt>
      <trkpt lat="44.94006" lon="4.07931">
        <ele>1190.5</ele>
        <time>2026-04-28T12:24:57Z</time>
      </trkpt>
      <trkpt lat="44.94006" lon="4.07931">
        <ele>1190.5</ele>
        <time>2026-04-28T12:25:02Z</time>
      </trkpt>
      <trkpt lat="44.94006" lon="4.07931">
        <ele>1190.5</ele>
        <time>2026-04-28T12:25:07Z</time>
      </trkpt>
      <trkpt lat="44.94006" lon="4.07931">
        <ele>1190.5</ele>
        <time>2026-04-28T12:25:12Z</time>
      </trkpt>
      <trkpt lat="44.94006" lon="4.07931">
        <ele>1190.5</ele>
        <time>2026-04-28T12:25:17Z</time>
      </trkpt>
      <trkpt lat="44.94006" lon="4.07931">
        <ele>1190.5</ele>
        <time>2026-04-28T12:25:22Z</time>
      </trkpt>
      <trkpt lat="44.94006" lon="4.07931">
        <ele>1190.5</ele>
        <time>2026-04-28T12:25:27Z</time>
      </trkpt>
      <trkpt lat="44.94006" lon="4.07931">
        <ele>1190.5</ele>
        <time>2026-04-28T12:25:32Z</time>
      </trkpt>
      <trkpt lat="44.94006" lon="4.07931">
        <ele>1190.5</ele>
        <time>2026-04-28T12:25:37Z</time>
      </trkpt>
      <trkpt lat="44.94006" lon="4.07931">
        <ele>1190.5</ele>
        <time>2026-04-28T12:25:42Z</time>
      </trkpt>
      <trkpt lat="44.94006" lon="4.07931">
        <ele>1190.5</ele>
        <time>2026-04-28T12:25:47Z</time>
      </trkpt>
      <trkpt lat="44.94006" lon="4.07931">
        <ele>1190.5</ele>
        <time>2026-04-28T12:25:52Z</time>
      </trkpt>
      <trkpt lat="44.94006" lon="4.07931">
        <ele>1190.5</ele>
        <time>2026-04-28T12:25:57Z</time>
      </trkpt>
      <trkpt lat="44.94006" lon="4.07931">
        <ele>1190.5</ele>
        <time>2026-04-28T12:26:02Z</time>
      </trkpt>
      <trkpt lat="44.94006" lon="4.07931">
        <ele>1190.5</ele>
        <time>2026-04-28T12:26:07Z</time>
      </trkpt>
      <trkpt lat="44.94006" lon="4.07931">
        <ele>1190.5</ele>
        <time>2026-04-28T12:26:12Z</time>
      </trkpt>
      <trkpt lat="44.94006" lon="4.07931">
        <ele>1190.5</ele>
        <time>2026-04-28T12:26:17Z</time>
      </trkpt>
      <trkpt lat="44.94006" lon="4.07931">
        <ele>1190.5</ele>
        <time>2026-04-28T12:26:22Z</time>
      </trkpt>
      <trkpt lat="44.94006" lon="4.07931">
        <ele>1190.5</ele>
        <time>2026-04-28T12:26:27Z</time>
      </trkpt>
      <trkpt lat="44.94006" lon="4.07931">
        <ele>1190.5</ele>
        <time>2026-04-28T12:26:32Z</time>
      </trkpt>
      <trkpt lat="44.94006" lon="4.07931">
        <ele>1190.5</ele>
        <time>2026-04-28T12:26:37Z</time>
      </trkpt>
      <trkpt lat="44.94006" lon="4.07931">
        <ele>1190.5</ele>
        <time>2026-04-28T12:26:42Z</time>
      </trkpt>
      <trkpt lat="44.94006" lon="4.07931">
        <ele>1190.5</ele>
        <time>2026-04-28T12:26:47Z</time>
      </trkpt>
      <trkpt lat="44.94001" lon="4.07927">
        <ele>1190.7</ele>
        <time>2026-04-28T12:26:52Z</time>
      </trkpt>
      <trkpt lat="44.93998" lon="4.07916">
        <ele>1191</ele>
        <time>2026-04-28T12:26:57Z</time>
      </trkpt>
      <trkpt lat="44.93995" lon="4.07909">
        <ele>1191.1</ele>
        <time>2026-04-28T12:27:02Z</time>
      </trkpt>
      <trkpt lat="44.93996" lon="4.07898">
        <ele>1191.1</ele>
        <time>2026-04-28T12:27:07Z</time>
      </trkpt>
      <trkpt lat="44.93997" lon="4.07889">
        <ele>1191.1</ele>
        <time>2026-04-28T12:27:12Z</time>
      </trkpt>
      <trkpt lat="44.93999" lon="4.07878">
        <ele>1191</ele>
        <time>2026-04-28T12:27:17Z</time>
      </trkpt>
      <trkpt lat="44.94001" lon="4.07867">
        <ele>1191</ele>
        <time>2026-04-28T12:27:22Z</time>
      </trkpt>
      <trkpt lat="44.94004" lon="4.07857">
        <ele>1190.9</ele>
        <time>2026-04-28T12:27:27Z</time>
      </trkpt>
      <trkpt lat="44.94007" lon="4.07848">
        <ele>1190.8</ele>
        <time>2026-04-28T12:27:32Z</time>
      </trkpt>
      <trkpt lat="44.94009" lon="4.07837">
        <ele>1190.7</ele>
        <time>2026-04-28T12:27:37Z</time>
      </trkpt>
      <trkpt lat="44.94011" lon="4.07826">
        <ele>1190.6</ele>
        <time>2026-04-28T12:27:42Z</time>
      </trkpt>
      <trkpt lat="44.94012" lon="4.07816">
        <ele>1190.6</ele>
        <time>2026-04-28T12:27:47Z</time>
      </trkpt>
      <trkpt lat="44.94013" lon="4.07804">
        <ele>1190.6</ele>
        <time>2026-04-28T12:27:52Z</time>
      </trkpt>
      <trkpt lat="44.94013" lon="4.07792">
        <ele>1190.7</ele>
        <time>2026-04-28T12:27:57Z</time>
      </trkpt>
      <trkpt lat="44.94014" lon="4.07781">
        <ele>1190.7</ele>
        <time>2026-04-28T12:28:02Z</time>
      </trkpt>
      <trkpt lat="44.94015" lon="4.07771">
        <ele>1190.7</ele>
        <time>2026-04-28T12:28:07Z</time>
      </trkpt>
      <trkpt lat="44.94016" lon="4.0776">
        <ele>1190.8</ele>
        <time>2026-04-28T12:28:12Z</time>
      </trkpt>
      <trkpt lat="44.94015" lon="4.0775">
        <ele>1190.8</ele>
        <time>2026-04-28T12:28:17Z</time>
      </trkpt>
      <trkpt lat="44.94014" lon="4.0774">
        <ele>1190.6</ele>
        <time>2026-04-28T12:28:22Z</time>
      </trkpt>
      <trkpt lat="44.94013" lon="4.07729">
        <ele>1190.4</ele>
        <time>2026-04-28T12:28:27Z</time>
      </trkpt>
      <trkpt lat="44.9401" lon="4.07717">
        <ele>1190.1</ele>
        <time>2026-04-28T12:28:32Z</time>
      </trkpt>
      <trkpt lat="44.94008" lon="4.07709">
        <ele>1190</ele>
        <time>2026-04-28T12:28:37Z</time>
      </trkpt>
      <trkpt lat="44.94008" lon="4.07709">
        <ele>1190</ele>
        <time>2026-04-28T12:28:42Z</time>
      </trkpt>
      <trkpt lat="44.94004" lon="4.07707">
        <ele>1189.9</ele>
        <time>2026-04-28T12:28:47Z</time>
      </trkpt>
      <trkpt lat="44.93996" lon="4.07706">
        <ele>1189.8</ele>
        <time>2026-04-28T12:28:52Z</time>
      </trkpt>
      <trkpt lat="44.93989" lon="4.07706">
        <ele>1189.7</ele>
        <time>2026-04-28T12:28:57Z</time>
      </trkpt>
      <trkpt lat="44.93982" lon="4.07706">
        <ele>1189.5</ele>
        <time>2026-04-28T12:29:02Z</time>
      </trkpt>
      <trkpt lat="44.93973" lon="4.07703">
        <ele>1189.2</ele>
        <time>2026-04-28T12:29:07Z</time>
      </trkpt>
      <trkpt lat="44.93966" lon="4.077">
        <ele>1189</ele>
        <time>2026-04-28T12:29:12Z</time>
      </trkpt>
      <trkpt lat="44.93958" lon="4.07698">
        <ele>1188.7</ele>
        <time>2026-04-28T12:29:17Z</time>
      </trkpt>
      <trkpt lat="44.93952" lon="4.07694">
        <ele>1188.5</ele>
        <time>2026-04-28T12:29:22Z</time>
      </trkpt>
      <trkpt lat="44.93944" lon="4.07691">
        <ele>1188.2</ele>
        <time>2026-04-28T12:29:27Z</time>
      </trkpt>
      <trkpt lat="44.93936" lon="4.07689">
        <ele>1188</ele>
        <time>2026-04-28T12:29:32Z</time>
      </trkpt>
      <trkpt lat="44.93928" lon="4.07686">
        <ele>1187.7</ele>
        <time>2026-04-28T12:29:37Z</time>
      </trkpt>
      <trkpt lat="44.93919" lon="4.07684">
        <ele>1187.5</ele>
        <time>2026-04-28T12:29:42Z</time>
      </trkpt>
      <trkpt lat="44.93911" lon="4.0768">
        <ele>1187.2</ele>
        <time>2026-04-28T12:29:47Z</time>
      </trkpt>
      <trkpt lat="44.93903" lon="4.07679">
        <ele>1187</ele>
        <time>2026-04-28T12:29:52Z</time>
      </trkpt>
      <trkpt lat="44.93895" lon="4.07678">
        <ele>1186.8</ele>
        <time>2026-04-28T12:29:57Z</time>
      </trkpt>
      <trkpt lat="44.93886" lon="4.07675">
        <ele>1186.5</ele>
        <time>2026-04-28T12:30:02Z</time>
      </trkpt>
      <trkpt lat="44.93878" lon="4.07672">
        <ele>1186.2</ele>
        <time>2026-04-28T12:30:07Z</time>
      </trkpt>
      <trkpt lat="44.9387" lon="4.0767">
        <ele>1186</ele>
        <time>2026-04-28T12:30:12Z</time>
      </trkpt>
      <trkpt lat="44.93862" lon="4.07667">
        <ele>1185.7</ele>
        <time>2026-04-28T12:30:17Z</time>
      </trkpt>
      <trkpt lat="44.93854" lon="4.07665">
        <ele>1185.5</ele>
        <time>2026-04-28T12:30:22Z</time>
      </trkpt>
      <trkpt lat="44.93846" lon="4.07663">
        <ele>1185.3</ele>
        <time>2026-04-28T12:30:27Z</time>
      </trkpt>
      <trkpt lat="44.93839" lon="4.07661">
        <ele>1185.1</ele>
        <time>2026-04-28T12:30:32Z</time>
      </trkpt>
      <trkpt lat="44.9383" lon="4.07658">
        <ele>1184.9</ele>
        <time>2026-04-28T12:30:37Z</time>
      </trkpt>
      <trkpt lat="44.93822" lon="4.07655">
        <ele>1184.7</ele>
        <time>2026-04-28T12:30:42Z</time>
      </trkpt>
      <trkpt lat="44.93815" lon="4.07652">
        <ele>1184.5</ele>
        <time>2026-04-28T12:30:47Z</time>
      </trkpt>
      <trkpt lat="44.93808" lon="4.07651">
        <ele>1184.3</ele>
        <time>2026-04-28T12:30:52Z</time>
      </trkpt>
      <trkpt lat="44.938" lon="4.07648">
        <ele>1184</ele>
        <time>2026-04-28T12:30:57Z</time>
      </trkpt>
      <trkpt lat="44.93792" lon="4.07644">
        <ele>1183.7</ele>
        <time>2026-04-28T12:31:02Z</time>
      </trkpt>
      <trkpt lat="44.93785" lon="4.07641">
        <ele>1183.5</ele>
        <time>2026-04-28T12:31:07Z</time>
      </trkpt>
      <trkpt lat="44.93777" lon="4.07638">
        <ele>1183.2</ele>
        <time>2026-04-28T12:31:12Z</time>
      </trkpt>
      <trkpt lat="44.9377" lon="4.07632">
        <ele>1182.8</ele>
        <time>2026-04-28T12:31:17Z</time>
      </trkpt>
      <trkpt lat="44.93763" lon="4.07625">
        <ele>1182.5</ele>
        <time>2026-04-28T12:31:22Z</time>
      </trkpt>
      <trkpt lat="44.93757" lon="4.0762">
        <ele>1182.1</ele>
        <time>2026-04-28T12:31:27Z</time>
      </trkpt>
      <trkpt lat="44.93749" lon="4.07617">
        <ele>1181.7</ele>
        <time>2026-04-28T12:31:32Z</time>
      </trkpt>
      <trkpt lat="44.93741" lon="4.07615">
        <ele>1181</ele>
        <time>2026-04-28T12:31:37Z</time>
      </trkpt>
      <trkpt lat="44.93733" lon="4.07614">
        <ele>1180.4</ele>
        <time>2026-04-28T12:31:42Z</time>
      </trkpt>
      <trkpt lat="44.93727" lon="4.07613">
        <ele>1179.9</ele>
        <time>2026-04-28T12:31:47Z</time>
      </trkpt>
      <trkpt lat="44.93719" lon="4.07611">
        <ele>1179.2</ele>
        <time>2026-04-28T12:31:52Z</time>
      </trkpt>
      <trkpt lat="44.93711" lon="4.07609">
        <ele>1178.5</ele>
        <time>2026-04-28T12:31:57Z</time>
      </trkpt>
      <trkpt lat="44.93703" lon="4.07606">
        <ele>1177.7</ele>
        <time>2026-04-28T12:32:02Z</time>
      </trkpt>
      <trkpt lat="44.93696" lon="4.07603">
        <ele>1177.1</ele>
        <time>2026-04-28T12:32:07Z</time>
      </trkpt>
      <trkpt lat="44.93688" lon="4.07601">
        <ele>1176.4</ele>
        <time>2026-04-28T12:32:12Z</time>
      </trkpt>
      <trkpt lat="44.9368" lon="4.07598">
        <ele>1175.6</ele>
        <time>2026-04-28T12:32:17Z</time>
      </trkpt>
      <trkpt lat="44.93672" lon="4.07597">
        <ele>1174.9</ele>
        <time>2026-04-28T12:32:22Z</time>
      </trkpt>
      <trkpt lat="44.93664" lon="4.07594">
        <ele>1174.3</ele>
        <time>2026-04-28T12:32:27Z</time>
      </trkpt>
      <trkpt lat="44.93656" lon="4.07591">
        <ele>1173.8</ele>
        <time>2026-04-28T12:32:32Z</time>
      </trkpt>
      <trkpt lat="44.93648" lon="4.07587">
        <ele>1173.2</ele>
        <time>2026-04-28T12:32:37Z</time>
      </trkpt>
      <trkpt lat="44.93641" lon="4.07584">
        <ele>1172.8</ele>
        <time>2026-04-28T12:32:42Z</time>
      </trkpt>
      <trkpt lat="44.93634" lon="4.0758">
        <ele>1172.2</ele>
        <time>2026-04-28T12:32:47Z</time>
      </trkpt>
      <trkpt lat="44.93627" lon="4.07577">
        <ele>1171.7</ele>
        <time>2026-04-28T12:32:52Z</time>
      </trkpt>
      <trkpt lat="44.93619" lon="4.07575">
        <ele>1171.2</ele>
        <time>2026-04-28T12:32:57Z</time>
      </trkpt>
      <trkpt lat="44.93612" lon="4.0757">
        <ele>1170.5</ele>
        <time>2026-04-28T12:33:02Z</time>
      </trkpt>
      <trkpt lat="44.93603" lon="4.07569">
        <ele>1170</ele>
        <time>2026-04-28T12:33:07Z</time>
      </trkpt>
      <trkpt lat="44.93595" lon="4.07568">
        <ele>1169.5</ele>
        <time>2026-04-28T12:33:12Z</time>
      </trkpt>
      <trkpt lat="44.93588" lon="4.07566">
        <ele>1169</ele>
        <time>2026-04-28T12:33:17Z</time>
      </trkpt>
      <trkpt lat="44.9358" lon="4.07563">
        <ele>1168.4</ele>
        <time>2026-04-28T12:33:22Z</time>
      </trkpt>
      <trkpt lat="44.93575" lon="4.07565">
        <ele>1168.3</ele>
        <time>2026-04-28T12:33:27Z</time>
      </trkpt>
      <trkpt lat="44.9357" lon="4.07564">
        <ele>1168</ele>
        <time>2026-04-28T12:33:32Z</time>
      </trkpt>
      <trkpt lat="44.93567" lon="4.07558">
        <ele>1167.6</ele>
        <time>2026-04-28T12:33:37Z</time>
      </trkpt>
      <trkpt lat="44.93569" lon="4.0755">
        <ele>1167.2</ele>
        <time>2026-04-28T12:33:42Z</time>
      </trkpt>
      <trkpt lat="44.93572" lon="4.07548">
        <ele>1167.1</ele>
        <time>2026-04-28T12:33:47Z</time>
      </trkpt>
      <trkpt lat="44.93574" lon="4.07545">
        <ele>1167</ele>
        <time>2026-04-28T12:33:52Z</time>
      </trkpt>
      <trkpt lat="44.93573" lon="4.07544">
        <ele>1166.9</ele>
        <time>2026-04-28T12:33:57Z</time>
      </trkpt>
      <trkpt lat="44.93573" lon="4.07544">
        <ele>1166.9</ele>
        <time>2026-04-28T12:34:02Z</time>
      </trkpt>
      <trkpt lat="44.93573" lon="4.07544">
        <ele>1166.9</ele>
        <time>2026-04-28T12:34:07Z</time>
      </trkpt>
      <trkpt lat="44.93573" lon="4.07544">
        <ele>1166.9</ele>
        <time>2026-04-28T12:34:12Z</time>
      </trkpt>
      <trkpt lat="44.93567" lon="4.07536">
        <ele>1166.3</ele>
        <time>2026-04-28T12:34:17Z</time>
      </trkpt>
      <trkpt lat="44.93566" lon="4.07535">
        <ele>1166.2</ele>
        <time>2026-04-28T12:34:22Z</time>
      </trkpt>
      <trkpt lat="44.93566" lon="4.07535">
        <ele>1166.2</ele>
        <time>2026-04-28T12:34:27Z</time>
      </trkpt>
      <trkpt lat="44.93571" lon="4.07527">
        <ele>1165.8</ele>
        <time>2026-04-28T12:34:32Z</time>
      </trkpt>
      <trkpt lat="44.93576" lon="4.07523">
        <ele>1165.6</ele>
        <time>2026-04-28T12:34:37Z</time>
      </trkpt>
      <trkpt lat="44.93578" lon="4.07525">
        <ele>1165.7</ele>
        <time>2026-04-28T12:34:42Z</time>
      </trkpt>
      <trkpt lat="44.93575" lon="4.07531">
        <ele>1166.1</ele>
        <time>2026-04-28T12:34:47Z</time>
      </trkpt>
      <trkpt lat="44.93572" lon="4.07538">
        <ele>1166.5</ele>
        <time>2026-04-28T12:34:52Z</time>
      </trkpt>
      <trkpt lat="44.93571" lon="4.07541">
        <ele>1166.7</ele>
        <time>2026-04-28T12:34:57Z</time>
      </trkpt>
      <trkpt lat="44.93569" lon="4.07545">
        <ele>1166.9</ele>
        <time>2026-04-28T12:35:02Z</time>
      </trkpt>
      <trkpt lat="44.93568" lon="4.07545">
        <ele>1166.8</ele>
        <time>2026-04-28T12:35:07Z</time>
      </trkpt>
      <trkpt lat="44.93568" lon="4.07545">
        <ele>1166.8</ele>
        <time>2026-04-28T12:35:12Z</time>
      </trkpt>
      <trkpt lat="44.93568" lon="4.07545">
        <ele>1166.8</ele>
        <time>2026-04-28T12:35:17Z</time>
      </trkpt>
      <trkpt lat="44.93568" lon="4.07545">
        <ele>1166.8</ele>
        <time>2026-04-28T12:35:22Z</time>
      </trkpt>
      <trkpt lat="44.93566" lon="4.07549">
        <ele>1167</ele>
        <time>2026-04-28T12:35:27Z</time>
      </trkpt>
      <trkpt lat="44.93558" lon="4.07556">
        <ele>1167.1</ele>
        <time>2026-04-28T12:35:32Z</time>
      </trkpt>
      <trkpt lat="44.93561" lon="4.07567">
        <ele>1167.8</ele>
        <time>2026-04-28T12:35:37Z</time>
      </trkpt>
      <trkpt lat="44.93565" lon="4.07571">
        <ele>1168.2</ele>
        <time>2026-04-28T12:35:42Z</time>
      </trkpt>
      <trkpt lat="44.93571" lon="4.07571">
        <ele>1168.5</ele>
        <time>2026-04-28T12:35:47Z</time>
      </trkpt>
      <trkpt lat="44.93575" lon="4.07564">
        <ele>1168.2</ele>
        <time>2026-04-28T12:35:52Z</time>
      </trkpt>
      <trkpt lat="44.93575" lon="4.07557">
        <ele>1167.8</ele>
        <time>2026-04-28T12:35:57Z</time>
      </trkpt>
      <trkpt lat="44.93576" lon="4.07552">
        <ele>1167.5</ele>
        <time>2026-04-28T12:36:02Z</time>
      </trkpt>
      <trkpt lat="44.93576" lon="4.07552">
        <ele>1167.5</ele>
        <time>2026-04-28T12:36:07Z</time>
      </trkpt>
      <trkpt lat="44.93576" lon="4.07552">
        <ele>1167.5</ele>
        <time>2026-04-28T12:36:12Z</time>
      </trkpt>
      <trkpt lat="44.93576" lon="4.07552">
        <ele>1167.5</ele>
        <time>2026-04-28T12:36:17Z</time>
      </trkpt>
      <trkpt lat="44.93576" lon="4.07552">
        <ele>1167.5</ele>
        <time>2026-04-28T12:36:22Z</time>
      </trkpt>
      <trkpt lat="44.93576" lon="4.07552">
        <ele>1167.5</ele>
        <time>2026-04-28T12:36:27Z</time>
      </trkpt>
      <trkpt lat="44.93576" lon="4.07552">
        <ele>1167.5</ele>
        <time>2026-04-28T12:36:32Z</time>
      </trkpt>
      <trkpt lat="44.93576" lon="4.07552">
        <ele>1167.5</ele>
        <time>2026-04-28T12:36:37Z</time>
      </trkpt>
      <trkpt lat="44.93576" lon="4.07552">
        <ele>1167.5</ele>
        <time>2026-04-28T12:36:42Z</time>
      </trkpt>
      <trkpt lat="44.93576" lon="4.07552">
        <ele>1167.5</ele>
        <time>2026-04-28T12:36:47Z</time>
      </trkpt>
      <trkpt lat="44.93576" lon="4.07552">
        <ele>1167.5</ele>
        <time>2026-04-28T12:36:52Z</time>
      </trkpt>
      <trkpt lat="44.93576" lon="4.07552">
        <ele>1167.5</ele>
        <time>2026-04-28T12:36:57Z</time>
      </trkpt>
      <trkpt lat="44.93576" lon="4.07552">
        <ele>1167.5</ele>
        <time>2026-04-28T12:37:02Z</time>
      </trkpt>
      <trkpt lat="44.93576" lon="4.07552">
        <ele>1167.5</ele>
        <time>2026-04-28T12:37:07Z</time>
      </trkpt>
      <trkpt lat="44.93576" lon="4.07552">
        <ele>1167.5</ele>
        <time>2026-04-28T12:37:12Z</time>
      </trkpt>
      <trkpt lat="44.93576" lon="4.07552">
        <ele>1167.5</ele>
        <time>2026-04-28T12:37:17Z</time>
      </trkpt>
      <trkpt lat="44.93583" lon="4.07563">
        <ele>1168.5</ele>
        <time>2026-04-28T12:37:22Z</time>
      </trkpt>
      <trkpt lat="44.93587" lon="4.07566">
        <ele>1168.9</ele>
        <time>2026-04-28T12:37:27Z</time>
      </trkpt>
      <trkpt lat="44.93592" lon="4.07569">
        <ele>1169.4</ele>
        <time>2026-04-28T12:37:32Z</time>
      </trkpt>
      <trkpt lat="44.93597" lon="4.07569">
        <ele>1169.7</ele>
        <time>2026-04-28T12:37:37Z</time>
      </trkpt>
      <trkpt lat="44.93602" lon="4.0757">
        <ele>1170</ele>
        <time>2026-04-28T12:37:42Z</time>
      </trkpt>
      <trkpt lat="44.93607" lon="4.0757">
        <ele>1170.3</ele>
        <time>2026-04-28T12:37:47Z</time>
      </trkpt>
      <trkpt lat="44.93613" lon="4.07573">
        <ele>1170.8</ele>
        <time>2026-04-28T12:37:52Z</time>
      </trkpt>
      <trkpt lat="44.93618" lon="4.07575">
        <ele>1171.1</ele>
        <time>2026-04-28T12:37:57Z</time>
      </trkpt>
      <trkpt lat="44.93623" lon="4.07576">
        <ele>1171.5</ele>
        <time>2026-04-28T12:38:02Z</time>
      </trkpt>
      <trkpt lat="44.93629" lon="4.07577">
        <ele>1171.8</ele>
        <time>2026-04-28T12:38:07Z</time>
      </trkpt>
      <trkpt lat="44.93634" lon="4.07581">
        <ele>1172.3</ele>
        <time>2026-04-28T12:38:12Z</time>
      </trkpt>
      <trkpt lat="44.93642" lon="4.07583">
        <ele>1172.8</ele>
        <time>2026-04-28T12:38:17Z</time>
      </trkpt>
      <trkpt lat="44.93648" lon="4.07586">
        <ele>1173.2</ele>
        <time>2026-04-28T12:38:22Z</time>
      </trkpt>
      <trkpt lat="44.93653" lon="4.07586">
        <ele>1173.4</ele>
        <time>2026-04-28T12:38:27Z</time>
      </trkpt>
      <trkpt lat="44.93657" lon="4.07589">
        <ele>1173.7</ele>
        <time>2026-04-28T12:38:32Z</time>
      </trkpt>
      <trkpt lat="44.93662" lon="4.07591">
        <ele>1174</ele>
        <time>2026-04-28T12:38:37Z</time>
      </trkpt>
      <trkpt lat="44.93665" lon="4.07592">
        <ele>1174.2</ele>
        <time>2026-04-28T12:38:42Z</time>
      </trkpt>
      <trkpt lat="44.93669" lon="4.07595">
        <ele>1174.6</ele>
        <time>2026-04-28T12:38:47Z</time>
      </trkpt>
      <trkpt lat="44.93673" lon="4.07596">
        <ele>1175</ele>
        <time>2026-04-28T12:38:52Z</time>
      </trkpt>
      <trkpt lat="44.93678" lon="4.07598">
        <ele>1175.5</ele>
        <time>2026-04-28T12:38:57Z</time>
      </trkpt>
      <trkpt lat="44.93685" lon="4.07599">
        <ele>1176.1</ele>
        <time>2026-04-28T12:39:02Z</time>
      </trkpt>
      <trkpt lat="44.9369" lon="4.07601">
        <ele>1176.5</ele>
        <time>2026-04-28T12:39:07Z</time>
      </trkpt>
      <trkpt lat="44.93697" lon="4.07603">
        <ele>1177.2</ele>
        <time>2026-04-28T12:39:12Z</time>
      </trkpt>
      <trkpt lat="44.93704" lon="4.07605">
        <ele>1177.8</ele>
        <time>2026-04-28T12:39:17Z</time>
      </trkpt>
      <trkpt lat="44.93711" lon="4.07606">
        <ele>1178.4</ele>
        <time>2026-04-28T12:39:22Z</time>
      </trkpt>
      <trkpt lat="44.93718" lon="4.07604">
        <ele>1178.9</ele>
        <time>2026-04-28T12:39:27Z</time>
      </trkpt>
      <trkpt lat="44.93723" lon="4.07596">
        <ele>1179.1</ele>
        <time>2026-04-28T12:39:32Z</time>
      </trkpt>
      <trkpt lat="44.93724" lon="4.07587">
        <ele>1178.9</ele>
        <time>2026-04-28T12:39:37Z</time>
      </trkpt>
      <trkpt lat="44.93723" lon="4.07577">
        <ele>1178.6</ele>
        <time>2026-04-28T12:39:42Z</time>
      </trkpt>
      <trkpt lat="44.93724" lon="4.07566">
        <ele>1178.4</ele>
        <time>2026-04-28T12:39:47Z</time>
      </trkpt>
      <trkpt lat="44.93724" lon="4.07555">
        <ele>1178.2</ele>
        <time>2026-04-28T12:39:52Z</time>
      </trkpt>
      <trkpt lat="44.93724" lon="4.07545">
        <ele>1177.9</ele>
        <time>2026-04-28T12:39:57Z</time>
      </trkpt>
      <trkpt lat="44.93725" lon="4.07537">
        <ele>1177.8</ele>
        <time>2026-04-28T12:40:02Z</time>
      </trkpt>
      <trkpt lat="44.93725" lon="4.07524">
        <ele>1177.5</ele>
        <time>2026-04-28T12:40:07Z</time>
      </trkpt>
      <trkpt lat="44.93726" lon="4.07513">
        <ele>1177.4</ele>
        <time>2026-04-28T12:40:12Z</time>
      </trkpt>
      <trkpt lat="44.93726" lon="4.07502">
        <ele>1177.2</ele>
        <time>2026-04-28T12:40:17Z</time>
      </trkpt>
      <trkpt lat="44.93726" lon="4.07492">
        <ele>1176.7</ele>
        <time>2026-04-28T12:40:22Z</time>
      </trkpt>
      <trkpt lat="44.93727" lon="4.0748">
        <ele>1176.2</ele>
        <time>2026-04-28T12:40:27Z</time>
      </trkpt>
      <trkpt lat="44.93727" lon="4.07469">
        <ele>1175.6</ele>
        <time>2026-04-28T12:40:32Z</time>
      </trkpt>
      <trkpt lat="44.93726" lon="4.07458">
        <ele>1175</ele>
        <time>2026-04-28T12:40:37Z</time>
      </trkpt>
      <trkpt lat="44.93726" lon="4.07447">
        <ele>1174.4</ele>
        <time>2026-04-28T12:40:42Z</time>
      </trkpt>
      <trkpt lat="44.93725" lon="4.07435">
        <ele>1173.6</ele>
        <time>2026-04-28T12:40:47Z</time>
      </trkpt>
      <trkpt lat="44.93724" lon="4.07425">
        <ele>1173</ele>
        <time>2026-04-28T12:40:52Z</time>
      </trkpt>
      <trkpt lat="44.93724" lon="4.07414">
        <ele>1172.5</ele>
        <time>2026-04-28T12:40:57Z</time>
      </trkpt>
      <trkpt lat="44.93723" lon="4.07403">
        <ele>1171.9</ele>
        <time>2026-04-28T12:41:02Z</time>
      </trkpt>
      <trkpt lat="44.93723" lon="4.07393">
        <ele>1171.5</ele>
        <time>2026-04-28T12:41:07Z</time>
      </trkpt>
      <trkpt lat="44.93721" lon="4.0738">
        <ele>1170.7</ele>
        <time>2026-04-28T12:41:12Z</time>
      </trkpt>
      <trkpt lat="44.93721" lon="4.07368">
        <ele>1170.2</ele>
        <time>2026-04-28T12:41:17Z</time>
      </trkpt>
      <trkpt lat="44.93721" lon="4.07357">
        <ele>1169.8</ele>
        <time>2026-04-28T12:41:22Z</time>
      </trkpt>
      <trkpt lat="44.9372" lon="4.07346">
        <ele>1169.2</ele>
        <time>2026-04-28T12:41:27Z</time>
      </trkpt>
      <trkpt lat="44.93719" lon="4.07334">
        <ele>1168.6</ele>
        <time>2026-04-28T12:41:32Z</time>
      </trkpt>
      <trkpt lat="44.93718" lon="4.07323">
        <ele>1167.5</ele>
        <time>2026-04-28T12:41:37Z</time>
      </trkpt>
      <trkpt lat="44.93718" lon="4.07312">
        <ele>1166.6</ele>
        <time>2026-04-28T12:41:42Z</time>
      </trkpt>
      <trkpt lat="44.93718" lon="4.07299">
        <ele>1165.5</ele>
        <time>2026-04-28T12:41:47Z</time>
      </trkpt>
      <trkpt lat="44.93717" lon="4.07288">
        <ele>1164.4</ele>
        <time>2026-04-28T12:41:52Z</time>
      </trkpt>
      <trkpt lat="44.93717" lon="4.07277">
        <ele>1163.5</ele>
        <time>2026-04-28T12:41:57Z</time>
      </trkpt>
      <trkpt lat="44.93719" lon="4.07265">
        <ele>1162.8</ele>
        <time>2026-04-28T12:42:02Z</time>
      </trkpt>
      <trkpt lat="44.93721" lon="4.07253">
        <ele>1162.1</ele>
        <time>2026-04-28T12:42:07Z</time>
      </trkpt>
      <trkpt lat="44.93725" lon="4.07242">
        <ele>1161.7</ele>
        <time>2026-04-28T12:42:12Z</time>
      </trkpt>
      <trkpt lat="44.93725" lon="4.07233">
        <ele>1160.8</ele>
        <time>2026-04-28T12:42:17Z</time>
      </trkpt>
      <trkpt lat="44.93729" lon="4.07221">
        <ele>1160.3</ele>
        <time>2026-04-28T12:42:22Z</time>
      </trkpt>
      <trkpt lat="44.93733" lon="4.07211">
        <ele>1159.9</ele>
        <time>2026-04-28T12:42:27Z</time>
      </trkpt>
      <trkpt lat="44.93737" lon="4.072">
        <ele>1159.4</ele>
        <time>2026-04-28T12:42:32Z</time>
      </trkpt>
      <trkpt lat="44.93739" lon="4.07188">
        <ele>1158.6</ele>
        <time>2026-04-28T12:42:37Z</time>
      </trkpt>
      <trkpt lat="44.93739" lon="4.07183">
        <ele>1158.1</ele>
        <time>2026-04-28T12:42:42Z</time>
      </trkpt>
      <trkpt lat="44.93743" lon="4.0717">
        <ele>1157.4</ele>
        <time>2026-04-28T12:42:47Z</time>
      </trkpt>
      <trkpt lat="44.93747" lon="4.07159">
        <ele>1157</ele>
        <time>2026-04-28T12:42:52Z</time>
      </trkpt>
      <trkpt lat="44.93748" lon="4.07147">
        <ele>1156.1</ele>
        <time>2026-04-28T12:42:57Z</time>
      </trkpt>
      <trkpt lat="44.93751" lon="4.07137">
        <ele>1155.7</ele>
        <time>2026-04-28T12:43:02Z</time>
      </trkpt>
      <trkpt lat="44.93752" lon="4.07125">
        <ele>1154.9</ele>
        <time>2026-04-28T12:43:07Z</time>
      </trkpt>
      <trkpt lat="44.93755" lon="4.07115">
        <ele>1154.6</ele>
        <time>2026-04-28T12:43:12Z</time>
      </trkpt>
      <trkpt lat="44.93756" lon="4.07102">
        <ele>1153.8</ele>
        <time>2026-04-28T12:43:17Z</time>
      </trkpt>
      <trkpt lat="44.93758" lon="4.07092">
        <ele>1153.3</ele>
        <time>2026-04-28T12:43:22Z</time>
      </trkpt>
      <trkpt lat="44.9376" lon="4.0708">
        <ele>1152.9</ele>
        <time>2026-04-28T12:43:27Z</time>
      </trkpt>
      <trkpt lat="44.9376" lon="4.07067">
        <ele>1152.4</ele>
        <time>2026-04-28T12:43:32Z</time>
      </trkpt>
      <trkpt lat="44.93763" lon="4.07057">
        <ele>1152.6</ele>
        <time>2026-04-28T12:43:37Z</time>
      </trkpt>
      <trkpt lat="44.93765" lon="4.07045">
        <ele>1152.4</ele>
        <time>2026-04-28T12:43:42Z</time>
      </trkpt>
      <trkpt lat="44.93766" lon="4.07032">
        <ele>1152.1</ele>
        <time>2026-04-28T12:43:47Z</time>
      </trkpt>
      <trkpt lat="44.93768" lon="4.07021">
        <ele>1151.9</ele>
        <time>2026-04-28T12:43:52Z</time>
      </trkpt>
      <trkpt lat="44.93771" lon="4.0701">
        <ele>1152</ele>
        <time>2026-04-28T12:43:57Z</time>
      </trkpt>
      <trkpt lat="44.93771" lon="4.07">
        <ele>1151.5</ele>
        <time>2026-04-28T12:44:02Z</time>
      </trkpt>
      <trkpt lat="44.93774" lon="4.0699">
        <ele>1151.9</ele>
        <time>2026-04-28T12:44:07Z</time>
      </trkpt>
      <trkpt lat="44.93772" lon="4.06978">
        <ele>1151.4</ele>
        <time>2026-04-28T12:44:12Z</time>
      </trkpt>
      <trkpt lat="44.93773" lon="4.06968">
        <ele>1151.4</ele>
        <time>2026-04-28T12:44:17Z</time>
      </trkpt>
      <trkpt lat="44.93773" lon="4.06955">
        <ele>1151.3</ele>
        <time>2026-04-28T12:44:22Z</time>
      </trkpt>
      <trkpt lat="44.93772" lon="4.06942">
        <ele>1151</ele>
        <time>2026-04-28T12:44:27Z</time>
      </trkpt>
      <trkpt lat="44.93769" lon="4.0693">
        <ele>1150.4</ele>
        <time>2026-04-28T12:44:32Z</time>
      </trkpt>
      <trkpt lat="44.93766" lon="4.06918">
        <ele>1149.9</ele>
        <time>2026-04-28T12:44:37Z</time>
      </trkpt>
      <trkpt lat="44.93762" lon="4.06908">
        <ele>1149.4</ele>
        <time>2026-04-28T12:44:42Z</time>
      </trkpt>
      <trkpt lat="44.93761" lon="4.06897">
        <ele>1149.3</ele>
        <time>2026-04-28T12:44:47Z</time>
      </trkpt>
      <trkpt lat="44.93758" lon="4.06887">
        <ele>1148.9</ele>
        <time>2026-04-28T12:44:52Z</time>
      </trkpt>
      <trkpt lat="44.93755" lon="4.06877">
        <ele>1148.6</ele>
        <time>2026-04-28T12:44:57Z</time>
      </trkpt>
      <trkpt lat="44.93751" lon="4.06866">
        <ele>1148.1</ele>
        <time>2026-04-28T12:45:02Z</time>
      </trkpt>
      <trkpt lat="44.93748" lon="4.06856">
        <ele>1147.6</ele>
        <time>2026-04-28T12:45:07Z</time>
      </trkpt>
      <trkpt lat="44.93746" lon="4.06843">
        <ele>1147.2</ele>
        <time>2026-04-28T12:45:12Z</time>
      </trkpt>
      <trkpt lat="44.93745" lon="4.06832">
        <ele>1147</ele>
        <time>2026-04-28T12:45:17Z</time>
      </trkpt>
      <trkpt lat="44.93743" lon="4.06822">
        <ele>1146.1</ele>
        <time>2026-04-28T12:45:22Z</time>
      </trkpt>
      <trkpt lat="44.93741" lon="4.06811">
        <ele>1145.3</ele>
        <time>2026-04-28T12:45:27Z</time>
      </trkpt>
      <trkpt lat="44.93741" lon="4.06798">
        <ele>1144.7</ele>
        <time>2026-04-28T12:45:32Z</time>
      </trkpt>
      <trkpt lat="44.93741" lon="4.06787">
        <ele>1144.2</ele>
        <time>2026-04-28T12:45:37Z</time>
      </trkpt>
      <trkpt lat="44.9374" lon="4.06776">
        <ele>1143.5</ele>
        <time>2026-04-28T12:45:42Z</time>
      </trkpt>
      <trkpt lat="44.9374" lon="4.06765">
        <ele>1143</ele>
        <time>2026-04-28T12:45:47Z</time>
      </trkpt>
      <trkpt lat="44.9374" lon="4.06754">
        <ele>1142.5</ele>
        <time>2026-04-28T12:45:52Z</time>
      </trkpt>
      <trkpt lat="44.93741" lon="4.06743">
        <ele>1142.1</ele>
        <time>2026-04-28T12:45:57Z</time>
      </trkpt>
      <trkpt lat="44.93743" lon="4.06738">
        <ele>1142.2</ele>
        <time>2026-04-28T12:46:02Z</time>
      </trkpt>
      <trkpt lat="44.93744" lon="4.06738">
        <ele>1142.4</ele>
        <time>2026-04-28T12:46:07Z</time>
      </trkpt>
      <trkpt lat="44.93743" lon="4.06738">
        <ele>1142.2</ele>
        <time>2026-04-28T12:46:12Z</time>
      </trkpt>
      <trkpt lat="44.93742" lon="4.06731">
        <ele>1141.7</ele>
        <time>2026-04-28T12:46:17Z</time>
      </trkpt>
      <trkpt lat="44.93743" lon="4.06723">
        <ele>1141.5</ele>
        <time>2026-04-28T12:46:22Z</time>
      </trkpt>
      <trkpt lat="44.93741" lon="4.06715">
        <ele>1140.8</ele>
        <time>2026-04-28T12:46:27Z</time>
      </trkpt>
      <trkpt lat="44.9374" lon="4.06705">
        <ele>1140.1</ele>
        <time>2026-04-28T12:46:32Z</time>
      </trkpt>
      <trkpt lat="44.93741" lon="4.06695">
        <ele>1139.8</ele>
        <time>2026-04-28T12:46:37Z</time>
      </trkpt>
      <trkpt lat="44.93745" lon="4.06684">
        <ele>1139.9</ele>
        <time>2026-04-28T12:46:42Z</time>
      </trkpt>
      <trkpt lat="44.93747" lon="4.06672">
        <ele>1139.7</ele>
        <time>2026-04-28T12:46:47Z</time>
      </trkpt>
      <trkpt lat="44.9375" lon="4.06662">
        <ele>1139.8</ele>
        <time>2026-04-28T12:46:52Z</time>
      </trkpt>
      <trkpt lat="44.93751" lon="4.06651">
        <ele>1139.4</ele>
        <time>2026-04-28T12:46:57Z</time>
      </trkpt>
      <trkpt lat="44.93753" lon="4.06639">
        <ele>1139</ele>
        <time>2026-04-28T12:47:02Z</time>
      </trkpt>
      <trkpt lat="44.93751" lon="4.06627">
        <ele>1138.2</ele>
        <time>2026-04-28T12:47:07Z</time>
      </trkpt>
      <trkpt lat="44.93747" lon="4.06617">
        <ele>1137</ele>
        <time>2026-04-28T12:47:12Z</time>
      </trkpt>
      <trkpt lat="44.93741" lon="4.06609">
        <ele>1135.5</ele>
        <time>2026-04-28T12:47:17Z</time>
      </trkpt>
      <trkpt lat="44.93735" lon="4.06601">
        <ele>1133.9</ele>
        <time>2026-04-28T12:47:22Z</time>
      </trkpt>
      <trkpt lat="44.9373" lon="4.06593">
        <ele>1132.4</ele>
        <time>2026-04-28T12:47:27Z</time>
      </trkpt>
      <trkpt lat="44.93726" lon="4.06584">
        <ele>1131.1</ele>
        <time>2026-04-28T12:47:32Z</time>
      </trkpt>
      <trkpt lat="44.93718" lon="4.06575">
        <ele>1129.3</ele>
        <time>2026-04-28T12:47:37Z</time>
      </trkpt>
      <trkpt lat="44.93714" lon="4.06566">
        <ele>1128.3</ele>
        <time>2026-04-28T12:47:42Z</time>
      </trkpt>
      <trkpt lat="44.93709" lon="4.06557">
        <ele>1127</ele>
        <time>2026-04-28T12:47:47Z</time>
      </trkpt>
      <trkpt lat="44.93705" lon="4.06549">
        <ele>1125.9</ele>
        <time>2026-04-28T12:47:52Z</time>
      </trkpt>
      <trkpt lat="44.93702" lon="4.06541">
        <ele>1125</ele>
        <time>2026-04-28T12:47:57Z</time>
      </trkpt>
      <trkpt lat="44.93698" lon="4.06531">
        <ele>1123.8</ele>
        <time>2026-04-28T12:48:02Z</time>
      </trkpt>
      <trkpt lat="44.93693" lon="4.06519">
        <ele>1122.3</ele>
        <time>2026-04-28T12:48:07Z</time>
      </trkpt>
      <trkpt lat="44.93689" lon="4.0651">
        <ele>1121</ele>
        <time>2026-04-28T12:48:12Z</time>
      </trkpt>
      <trkpt lat="44.93685" lon="4.065">
        <ele>1119.6</ele>
        <time>2026-04-28T12:48:17Z</time>
      </trkpt>
      <trkpt lat="44.93681" lon="4.0649">
        <ele>1117.9</ele>
        <time>2026-04-28T12:48:22Z</time>
      </trkpt>
      <trkpt lat="44.93678" lon="4.0648">
        <ele>1116.4</ele>
        <time>2026-04-28T12:48:27Z</time>
      </trkpt>
      <trkpt lat="44.93676" lon="4.06472">
        <ele>1115.3</ele>
        <time>2026-04-28T12:48:32Z</time>
      </trkpt>
      <trkpt lat="44.93675" lon="4.0646">
        <ele>1114.2</ele>
        <time>2026-04-28T12:48:37Z</time>
      </trkpt>
      <trkpt lat="44.93676" lon="4.06449">
        <ele>1113.7</ele>
        <time>2026-04-28T12:48:42Z</time>
      </trkpt>
      <trkpt lat="44.93677" lon="4.06437">
        <ele>1113.1</ele>
        <time>2026-04-28T12:48:47Z</time>
      </trkpt>
      <trkpt lat="44.93678" lon="4.06424">
        <ele>1112.4</ele>
        <time>2026-04-28T12:48:52Z</time>
      </trkpt>
      <trkpt lat="44.9368" lon="4.06414">
        <ele>1112.3</ele>
        <time>2026-04-28T12:48:57Z</time>
      </trkpt>
      <trkpt lat="44.93683" lon="4.06404">
        <ele>1113</ele>
        <time>2026-04-28T12:49:02Z</time>
      </trkpt>
      <trkpt lat="44.93686" lon="4.06393">
        <ele>1113.5</ele>
        <time>2026-04-28T12:49:07Z</time>
      </trkpt>
      <trkpt lat="44.93688" lon="4.06383">
        <ele>1113.9</ele>
        <time>2026-04-28T12:49:12Z</time>
      </trkpt>
      <trkpt lat="44.93693" lon="4.06375">
        <ele>1114.8</ele>
        <time>2026-04-28T12:49:17Z</time>
      </trkpt>
      <trkpt lat="44.93697" lon="4.0637">
        <ele>1115.6</ele>
        <time>2026-04-28T12:49:22Z</time>
      </trkpt>
      <trkpt lat="44.93698" lon="4.06376">
        <ele>1116</ele>
        <time>2026-04-28T12:49:27Z</time>
      </trkpt>
      <trkpt lat="44.93699" lon="4.06384">
        <ele>1116.4</ele>
        <time>2026-04-28T12:49:32Z</time>
      </trkpt>
      <trkpt lat="44.93698" lon="4.06389">
        <ele>1116.3</ele>
        <time>2026-04-28T12:49:37Z</time>
      </trkpt>
      <trkpt lat="44.93697" lon="4.0639">
        <ele>1116.1</ele>
        <time>2026-04-28T12:49:42Z</time>
      </trkpt>
      <trkpt lat="44.93698" lon="4.0639">
        <ele>1116.3</ele>
        <time>2026-04-28T12:49:47Z</time>
      </trkpt>
      <trkpt lat="44.93698" lon="4.0639">
        <ele>1116.3</ele>
        <time>2026-04-28T12:49:52Z</time>
      </trkpt>
      <trkpt lat="44.93698" lon="4.0639">
        <ele>1116.3</ele>
        <time>2026-04-28T12:49:57Z</time>
      </trkpt>
      <trkpt lat="44.93698" lon="4.0639">
        <ele>1116.3</ele>
        <time>2026-04-28T12:50:02Z</time>
      </trkpt>
      <trkpt lat="44.93698" lon="4.0639">
        <ele>1116.3</ele>
        <time>2026-04-28T12:50:07Z</time>
      </trkpt>
      <trkpt lat="44.93698" lon="4.0639">
        <ele>1116.3</ele>
        <time>2026-04-28T12:50:12Z</time>
      </trkpt>
      <trkpt lat="44.93698" lon="4.0639">
        <ele>1116.3</ele>
        <time>2026-04-28T12:50:17Z</time>
      </trkpt>
      <trkpt lat="44.93698" lon="4.0639">
        <ele>1116.3</ele>
        <time>2026-04-28T12:50:22Z</time>
      </trkpt>
      <trkpt lat="44.93698" lon="4.0639">
        <ele>1116.3</ele>
        <time>2026-04-28T12:50:27Z</time>
      </trkpt>
      <trkpt lat="44.93698" lon="4.0639">
        <ele>1116.3</ele>
        <time>2026-04-28T12:50:32Z</time>
      </trkpt>
      <trkpt lat="44.93698" lon="4.0639">
        <ele>1116.3</ele>
        <time>2026-04-28T12:50:37Z</time>
      </trkpt>
      <trkpt lat="44.93698" lon="4.0639">
        <ele>1116.3</ele>
        <time>2026-04-28T12:50:42Z</time>
      </trkpt>
      <trkpt lat="44.93698" lon="4.0639">
        <ele>1116.3</ele>
        <time>2026-04-28T12:50:47Z</time>
      </trkpt>
      <trkpt lat="44.93698" lon="4.0639">
        <ele>1116.3</ele>
        <time>2026-04-28T12:50:52Z</time>
      </trkpt>
      <trkpt lat="44.93698" lon="4.0639">
        <ele>1116.3</ele>
        <time>2026-04-28T12:50:57Z</time>
      </trkpt>
      <trkpt lat="44.93698" lon="4.0639">
        <ele>1116.3</ele>
        <time>2026-04-28T12:51:02Z</time>
      </trkpt>
      <trkpt lat="44.93699" lon="4.06391">
        <ele>1116.6</ele>
        <time>2026-04-28T12:51:07Z</time>
      </trkpt>
      <trkpt lat="44.93703" lon="4.06393">
        <ele>1117.5</ele>
        <time>2026-04-28T12:51:12Z</time>
      </trkpt>
      <trkpt lat="44.93708" lon="4.06396">
        <ele>1118.8</ele>
        <time>2026-04-28T12:51:17Z</time>
      </trkpt>
      <trkpt lat="44.9371" lon="4.06401">
        <ele>1119.4</ele>
        <time>2026-04-28T12:51:22Z</time>
      </trkpt>
      <trkpt lat="44.93712" lon="4.06402">
        <ele>1119.9</ele>
        <time>2026-04-28T12:51:27Z</time>
      </trkpt>
      <trkpt lat="44.93713" lon="4.06404">
        <ele>1120.3</ele>
        <time>2026-04-28T12:51:32Z</time>
      </trkpt>
      <trkpt lat="44.93713" lon="4.06404">
        <ele>1120.3</ele>
        <time>2026-04-28T12:51:37Z</time>
      </trkpt>
      <trkpt lat="44.93711" lon="4.06403">
        <ele>1119.7</ele>
        <time>2026-04-28T12:51:42Z</time>
      </trkpt>
      <trkpt lat="44.93705" lon="4.06397">
        <ele>1118.1</ele>
        <time>2026-04-28T12:51:47Z</time>
      </trkpt>
      <trkpt lat="44.93699" lon="4.06389">
        <ele>1116.5</ele>
        <time>2026-04-28T12:51:52Z</time>
      </trkpt>
      <trkpt lat="44.93696" lon="4.06381">
        <ele>1115.6</ele>
        <time>2026-04-28T12:51:57Z</time>
      </trkpt>
      <trkpt lat="44.93698" lon="4.06371">
        <ele>1115.9</ele>
        <time>2026-04-28T12:52:02Z</time>
      </trkpt>
      <trkpt lat="44.93695" lon="4.06363">
        <ele>1115</ele>
        <time>2026-04-28T12:52:07Z</time>
      </trkpt>
      <trkpt lat="44.93693" lon="4.06377">
        <ele>1114.9</ele>
        <time>2026-04-28T12:52:12Z</time>
      </trkpt>
      <trkpt lat="44.93691" lon="4.06387">
        <ele>1114.6</ele>
        <time>2026-04-28T12:52:17Z</time>
      </trkpt>
      <trkpt lat="44.9369" lon="4.06396">
        <ele>1114.5</ele>
        <time>2026-04-28T12:52:22Z</time>
      </trkpt>
      <trkpt lat="44.93687" lon="4.06406">
        <ele>1114</ele>
        <time>2026-04-28T12:52:27Z</time>
      </trkpt>
      <trkpt lat="44.93685" lon="4.06415">
        <ele>1113.6</ele>
        <time>2026-04-28T12:52:32Z</time>
      </trkpt>
      <trkpt lat="44.93683" lon="4.06424">
        <ele>1113.6</ele>
        <time>2026-04-28T12:52:37Z</time>
      </trkpt>
      <trkpt lat="44.93681" lon="4.06434">
        <ele>1113.9</ele>
        <time>2026-04-28T12:52:42Z</time>
      </trkpt>
      <trkpt lat="44.9368" lon="4.06444">
        <ele>1114.3</ele>
        <time>2026-04-28T12:52:47Z</time>
      </trkpt>
      <trkpt lat="44.93679" lon="4.06453">
        <ele>1114.7</ele>
        <time>2026-04-28T12:52:52Z</time>
      </trkpt>
      <trkpt lat="44.93679" lon="4.06465">
        <ele>1115.6</ele>
        <time>2026-04-28T12:52:57Z</time>
      </trkpt>
      <trkpt lat="44.93679" lon="4.06474">
        <ele>1116.2</ele>
        <time>2026-04-28T12:53:02Z</time>
      </trkpt>
      <trkpt lat="44.93682" lon="4.06482">
        <ele>1117.6</ele>
        <time>2026-04-28T12:53:07Z</time>
      </trkpt>
      <trkpt lat="44.93685" lon="4.0649">
        <ele>1118.9</ele>
        <time>2026-04-28T12:53:12Z</time>
      </trkpt>
      <trkpt lat="44.93688" lon="4.06499">
        <ele>1120.3</ele>
        <time>2026-04-28T12:53:17Z</time>
      </trkpt>
      <trkpt lat="44.93692" lon="4.06508">
        <ele>1121.7</ele>
        <time>2026-04-28T12:53:22Z</time>
      </trkpt>
      <trkpt lat="44.93696" lon="4.06516">
        <ele>1122.9</ele>
        <time>2026-04-28T12:53:27Z</time>
      </trkpt>
      <trkpt lat="44.937" lon="4.06525">
        <ele>1124.1</ele>
        <time>2026-04-28T12:53:32Z</time>
      </trkpt>
      <trkpt lat="44.93704" lon="4.06535">
        <ele>1125.3</ele>
        <time>2026-04-28T12:53:37Z</time>
      </trkpt>
      <trkpt lat="44.93707" lon="4.06543">
        <ele>1126.2</ele>
        <time>2026-04-28T12:53:42Z</time>
      </trkpt>
      <trkpt lat="44.9371" lon="4.06551">
        <ele>1127.1</ele>
        <time>2026-04-28T12:53:47Z</time>
      </trkpt>
      <trkpt lat="44.93714" lon="4.06559">
        <ele>1128.2</ele>
        <time>2026-04-28T12:53:52Z</time>
      </trkpt>
      <trkpt lat="44.93719" lon="4.06567">
        <ele>1129.4</ele>
        <time>2026-04-28T12:53:57Z</time>
      </trkpt>
      <trkpt lat="44.93722" lon="4.06575">
        <ele>1130.2</ele>
        <time>2026-04-28T12:54:02Z</time>
      </trkpt>
      <trkpt lat="44.93726" lon="4.06582">
        <ele>1131.1</ele>
        <time>2026-04-28T12:54:07Z</time>
      </trkpt>
      <trkpt lat="44.93731" lon="4.06587">
        <ele>1132.3</ele>
        <time>2026-04-28T12:54:12Z</time>
      </trkpt>
      <trkpt lat="44.93734" lon="4.06592">
        <ele>1133.2</ele>
        <time>2026-04-28T12:54:17Z</time>
      </trkpt>
      <trkpt lat="44.93739" lon="4.06597">
        <ele>1134.5</ele>
        <time>2026-04-28T12:54:22Z</time>
      </trkpt>
      <trkpt lat="44.93743" lon="4.06605">
        <ele>1135.7</ele>
        <time>2026-04-28T12:54:27Z</time>
      </trkpt>
      <trkpt lat="44.93747" lon="4.06612">
        <ele>1136.8</ele>
        <time>2026-04-28T12:54:32Z</time>
      </trkpt>
      <trkpt lat="44.93752" lon="4.06622">
        <ele>1138.1</ele>
        <time>2026-04-28T12:54:37Z</time>
      </trkpt>
      <trkpt lat="44.93756" lon="4.06631">
        <ele>1139</ele>
        <time>2026-04-28T12:54:42Z</time>
      </trkpt>
      <trkpt lat="44.93756" lon="4.0664">
        <ele>1139.4</ele>
        <time>2026-04-28T12:54:47Z</time>
      </trkpt>
      <trkpt lat="44.93757" lon="4.06649">
        <ele>1140</ele>
        <time>2026-04-28T12:54:52Z</time>
      </trkpt>
      <trkpt lat="44.93755" lon="4.06658">
        <ele>1140.2</ele>
        <time>2026-04-28T12:54:57Z</time>
      </trkpt>
      <trkpt lat="44.93753" lon="4.06665">
        <ele>1140.3</ele>
        <time>2026-04-28T12:55:02Z</time>
      </trkpt>
      <trkpt lat="44.93752" lon="4.06672">
        <ele>1140.5</ele>
        <time>2026-04-28T12:55:07Z</time>
      </trkpt>
      <trkpt lat="44.9375" lon="4.06682">
        <ele>1140.7</ele>
        <time>2026-04-28T12:55:12Z</time>
      </trkpt>
      <trkpt lat="44.93747" lon="4.06689">
        <ele>1140.5</ele>
        <time>2026-04-28T12:55:17Z</time>
      </trkpt>
      <trkpt lat="44.93746" lon="4.06699">
        <ele>1140.9</ele>
        <time>2026-04-28T12:55:22Z</time>
      </trkpt>
      <trkpt lat="44.93745" lon="4.06708">
        <ele>1141.1</ele>
        <time>2026-04-28T12:55:27Z</time>
      </trkpt>
      <trkpt lat="44.93745" lon="4.06719">
        <ele>1141.6</ele>
        <time>2026-04-28T12:55:32Z</time>
      </trkpt>
      <trkpt lat="44.93744" lon="4.06727">
        <ele>1141.9</ele>
        <time>2026-04-28T12:55:37Z</time>
      </trkpt>
      <trkpt lat="44.93744" lon="4.06736">
        <ele>1142.3</ele>
        <time>2026-04-28T12:55:42Z</time>
      </trkpt>
      <trkpt lat="44.93746" lon="4.06745">
        <ele>1143.1</ele>
        <time>2026-04-28T12:55:47Z</time>
      </trkpt>
      <trkpt lat="44.93745" lon="4.06754">
        <ele>1143.3</ele>
        <time>2026-04-28T12:55:52Z</time>
      </trkpt>
      <trkpt lat="44.93745" lon="4.06763">
        <ele>1143.8</ele>
        <time>2026-04-28T12:55:57Z</time>
      </trkpt>
      <trkpt lat="44.93746" lon="4.06774">
        <ele>1144.5</ele>
        <time>2026-04-28T12:56:02Z</time>
      </trkpt>
      <trkpt lat="44.93746" lon="4.06783">
        <ele>1144.9</ele>
        <time>2026-04-28T12:56:07Z</time>
      </trkpt>
      <trkpt lat="44.93747" lon="4.06793">
        <ele>1145.5</ele>
        <time>2026-04-28T12:56:12Z</time>
      </trkpt>
      <trkpt lat="44.93746" lon="4.06803">
        <ele>1145.8</ele>
        <time>2026-04-28T12:56:17Z</time>
      </trkpt>
      <trkpt lat="44.93747" lon="4.06812">
        <ele>1146.4</ele>
        <time>2026-04-28T12:56:22Z</time>
      </trkpt>
      <trkpt lat="44.93748" lon="4.06822">
        <ele>1147.1</ele>
        <time>2026-04-28T12:56:27Z</time>
      </trkpt>
      <trkpt lat="44.9375" lon="4.06831">
        <ele>1147.9</ele>
        <time>2026-04-28T12:56:32Z</time>
      </trkpt>
      <trkpt lat="44.93752" lon="4.0684">
        <ele>1148.2</ele>
        <time>2026-04-28T12:56:37Z</time>
      </trkpt>
      <trkpt lat="44.93753" lon="4.06849">
        <ele>1148.3</ele>
        <time>2026-04-28T12:56:42Z</time>
      </trkpt>
      <trkpt lat="44.93754" lon="4.06855">
        <ele>1148.4</ele>
        <time>2026-04-28T12:56:47Z</time>
      </trkpt>
      <trkpt lat="44.93757" lon="4.06865">
        <ele>1148.8</ele>
        <time>2026-04-28T12:56:52Z</time>
      </trkpt>
      <trkpt lat="44.93759" lon="4.06877">
        <ele>1149</ele>
        <time>2026-04-28T12:56:57Z</time>
      </trkpt>
      <trkpt lat="44.93761" lon="4.06887">
        <ele>1149.3</ele>
        <time>2026-04-28T12:57:02Z</time>
      </trkpt>
      <trkpt lat="44.93764" lon="4.06896">
        <ele>1149.6</ele>
        <time>2026-04-28T12:57:07Z</time>
      </trkpt>
      <trkpt lat="44.93766" lon="4.06906">
        <ele>1149.9</ele>
        <time>2026-04-28T12:57:12Z</time>
      </trkpt>
      <trkpt lat="44.93768" lon="4.06915">
        <ele>1150.2</ele>
        <time>2026-04-28T12:57:17Z</time>
      </trkpt>
      <trkpt lat="44.9377" lon="4.06924">
        <ele>1150.5</ele>
        <time>2026-04-28T12:57:22Z</time>
      </trkpt>
      <trkpt lat="44.93772" lon="4.06933">
        <ele>1150.8</ele>
        <time>2026-04-28T12:57:27Z</time>
      </trkpt>
      <trkpt lat="44.93775" lon="4.06942">
        <ele>1151.4</ele>
        <time>2026-04-28T12:57:32Z</time>
      </trkpt>
      <trkpt lat="44.93777" lon="4.06952">
        <ele>1151.8</ele>
        <time>2026-04-28T12:57:37Z</time>
      </trkpt>
      <trkpt lat="44.93778" lon="4.06962">
        <ele>1152.1</ele>
        <time>2026-04-28T12:57:42Z</time>
      </trkpt>
      <trkpt lat="44.93778" lon="4.06972">
        <ele>1152.3</ele>
        <time>2026-04-28T12:57:47Z</time>
      </trkpt>
      <trkpt lat="44.93775" lon="4.0698">
        <ele>1151.9</ele>
        <time>2026-04-28T12:57:52Z</time>
      </trkpt>
      <trkpt lat="44.93777" lon="4.0699">
        <ele>1152.4</ele>
        <time>2026-04-28T12:57:57Z</time>
      </trkpt>
      <trkpt lat="44.93777" lon="4.06999">
        <ele>1152.5</ele>
        <time>2026-04-28T12:58:02Z</time>
      </trkpt>
      <trkpt lat="44.93776" lon="4.07008">
        <ele>1152.7</ele>
        <time>2026-04-28T12:58:07Z</time>
      </trkpt>
      <trkpt lat="44.93774" lon="4.07018">
        <ele>1152.9</ele>
        <time>2026-04-28T12:58:12Z</time>
      </trkpt>
      <trkpt lat="44.93772" lon="4.07027">
        <ele>1152.9</ele>
        <time>2026-04-28T12:58:17Z</time>
      </trkpt>
      <trkpt lat="44.93769" lon="4.07035">
        <ele>1152.7</ele>
        <time>2026-04-28T12:58:22Z</time>
      </trkpt>
      <trkpt lat="44.93768" lon="4.07046">
        <ele>1153</ele>
        <time>2026-04-28T12:58:27Z</time>
      </trkpt>
      <trkpt lat="44.93768" lon="4.07057">
        <ele>1153.5</ele>
        <time>2026-04-28T12:58:32Z</time>
      </trkpt>
      <trkpt lat="44.93767" lon="4.07065">
        <ele>1153.7</ele>
        <time>2026-04-28T12:58:37Z</time>
      </trkpt>
      <trkpt lat="44.93766" lon="4.07073">
        <ele>1153.8</ele>
        <time>2026-04-28T12:58:42Z</time>
      </trkpt>
      <trkpt lat="44.93764" lon="4.0708">
        <ele>1153.7</ele>
        <time>2026-04-28T12:58:47Z</time>
      </trkpt>
      <trkpt lat="44.93764" lon="4.07089">
        <ele>1154.3</ele>
        <time>2026-04-28T12:58:52Z</time>
      </trkpt>
      <trkpt lat="44.93762" lon="4.07098">
        <ele>1154.6</ele>
        <time>2026-04-28T12:58:57Z</time>
      </trkpt>
      <trkpt lat="44.93761" lon="4.07107">
        <ele>1155.2</ele>
        <time>2026-04-28T12:59:02Z</time>
      </trkpt>
      <trkpt lat="44.9376" lon="4.07116">
        <ele>1155.7</ele>
        <time>2026-04-28T12:59:07Z</time>
      </trkpt>
      <trkpt lat="44.93759" lon="4.07125">
        <ele>1156.2</ele>
        <time>2026-04-28T12:59:12Z</time>
      </trkpt>
      <trkpt lat="44.93757" lon="4.07134">
        <ele>1156.6</ele>
        <time>2026-04-28T12:59:17Z</time>
      </trkpt>
      <trkpt lat="44.93756" lon="4.07142">
        <ele>1157.1</ele>
        <time>2026-04-28T12:59:22Z</time>
      </trkpt>
      <trkpt lat="44.93755" lon="4.07152">
        <ele>1157.7</ele>
        <time>2026-04-28T12:59:27Z</time>
      </trkpt>
      <trkpt lat="44.93753" lon="4.07162">
        <ele>1158.2</ele>
        <time>2026-04-28T12:59:32Z</time>
      </trkpt>
      <trkpt lat="44.93751" lon="4.07172">
        <ele>1158.7</ele>
        <time>2026-04-28T12:59:37Z</time>
      </trkpt>
      <trkpt lat="44.93749" lon="4.07181">
        <ele>1159.2</ele>
        <time>2026-04-28T12:59:42Z</time>
      </trkpt>
      <trkpt lat="44.93745" lon="4.07188">
        <ele>1159.4</ele>
        <time>2026-04-28T12:59:47Z</time>
      </trkpt>
      <trkpt lat="44.93742" lon="4.07199">
        <ele>1160</ele>
        <time>2026-04-28T12:59:52Z</time>
      </trkpt>
      <trkpt lat="44.9374" lon="4.07206">
        <ele>1160.4</ele>
        <time>2026-04-28T12:59:57Z</time>
      </trkpt>
      <trkpt lat="44.93737" lon="4.07215">
        <ele>1160.8</ele>
        <time>2026-04-28T13:00:02Z</time>
      </trkpt>
      <trkpt lat="44.93735" lon="4.07224">
        <ele>1161.4</ele>
        <time>2026-04-28T13:00:07Z</time>
      </trkpt>
      <trkpt lat="44.93732" lon="4.07233">
        <ele>1161.8</ele>
        <time>2026-04-28T13:00:12Z</time>
      </trkpt>
      <trkpt lat="44.93731" lon="4.07245">
        <ele>1162.8</ele>
        <time>2026-04-28T13:00:17Z</time>
      </trkpt>
      <trkpt lat="44.93728" lon="4.07254">
        <ele>1163.2</ele>
        <time>2026-04-28T13:00:22Z</time>
      </trkpt>
      <trkpt lat="44.93725" lon="4.07265">
        <ele>1163.7</ele>
        <time>2026-04-28T13:00:27Z</time>
      </trkpt>
      <trkpt lat="44.93724" lon="4.07274">
        <ele>1164.3</ele>
        <time>2026-04-28T13:00:32Z</time>
      </trkpt>
      <trkpt lat="44.93724" lon="4.07284">
        <ele>1165.1</ele>
        <time>2026-04-28T13:00:37Z</time>
      </trkpt>
      <trkpt lat="44.93723" lon="4.07294">
        <ele>1165.8</ele>
        <time>2026-04-28T13:00:42Z</time>
      </trkpt>
      <trkpt lat="44.93722" lon="4.07303">
        <ele>1166.4</ele>
        <time>2026-04-28T13:00:47Z</time>
      </trkpt>
      <trkpt lat="44.93724" lon="4.07313">
        <ele>1167.5</ele>
        <time>2026-04-28T13:00:52Z</time>
      </trkpt>
      <trkpt lat="44.93723" lon="4.07323">
        <ele>1168.2</ele>
        <time>2026-04-28T13:00:57Z</time>
      </trkpt>
      <trkpt lat="44.93722" lon="4.07334">
        <ele>1169</ele>
        <time>2026-04-28T13:01:02Z</time>
      </trkpt>
      <trkpt lat="44.93723" lon="4.07343">
        <ele>1169.5</ele>
        <time>2026-04-28T13:01:07Z</time>
      </trkpt>
      <trkpt lat="44.93724" lon="4.07353">
        <ele>1170</ele>
        <time>2026-04-28T13:01:12Z</time>
      </trkpt>
      <trkpt lat="44.93725" lon="4.07363">
        <ele>1170.6</ele>
        <time>2026-04-28T13:01:17Z</time>
      </trkpt>
      <trkpt lat="44.93725" lon="4.07372">
        <ele>1170.9</ele>
        <time>2026-04-28T13:01:22Z</time>
      </trkpt>
      <trkpt lat="44.93726" lon="4.07383">
        <ele>1171.5</ele>
        <time>2026-04-28T13:01:27Z</time>
      </trkpt>
      <trkpt lat="44.93727" lon="4.07392">
        <ele>1172</ele>
        <time>2026-04-28T13:01:32Z</time>
      </trkpt>
      <trkpt lat="44.93727" lon="4.07402">
        <ele>1172.4</ele>
        <time>2026-04-28T13:01:37Z</time>
      </trkpt>
      <trkpt lat="44.93728" lon="4.07412">
        <ele>1172.9</ele>
        <time>2026-04-28T13:01:42Z</time>
      </trkpt>
      <trkpt lat="44.93729" lon="4.07422">
        <ele>1173.5</ele>
        <time>2026-04-28T13:01:47Z</time>
      </trkpt>
      <trkpt lat="44.93729" lon="4.07431">
        <ele>1174</ele>
        <time>2026-04-28T13:01:52Z</time>
      </trkpt>
      <trkpt lat="44.9373" lon="4.07442">
        <ele>1174.6</ele>
        <time>2026-04-28T13:01:57Z</time>
      </trkpt>
      <trkpt lat="44.93731" lon="4.07453">
        <ele>1175.3</ele>
        <time>2026-04-28T13:02:02Z</time>
      </trkpt>
      <trkpt lat="44.93731" lon="4.07463">
        <ele>1175.8</ele>
        <time>2026-04-28T13:02:07Z</time>
      </trkpt>
      <trkpt lat="44.93731" lon="4.07472">
        <ele>1176.3</ele>
        <time>2026-04-28T13:02:12Z</time>
      </trkpt>
      <trkpt lat="44.93732" lon="4.07484">
        <ele>1177</ele>
        <time>2026-04-28T13:02:17Z</time>
      </trkpt>
      <trkpt lat="44.93731" lon="4.07495">
        <ele>1177.5</ele>
        <time>2026-04-28T13:02:22Z</time>
      </trkpt>
      <trkpt lat="44.9373" lon="4.07505">
        <ele>1177.7</ele>
        <time>2026-04-28T13:02:27Z</time>
      </trkpt>
      <trkpt lat="44.93731" lon="4.07516">
        <ele>1178</ele>
        <time>2026-04-28T13:02:32Z</time>
      </trkpt>
      <trkpt lat="44.9373" lon="4.07526">
        <ele>1178.1</ele>
        <time>2026-04-28T13:02:37Z</time>
      </trkpt>
      <trkpt lat="44.93731" lon="4.07538">
        <ele>1178.5</ele>
        <time>2026-04-28T13:02:42Z</time>
      </trkpt>
      <trkpt lat="44.93729" lon="4.07549">
        <ele>1178.5</ele>
        <time>2026-04-28T13:02:47Z</time>
      </trkpt>
      <trkpt lat="44.93729" lon="4.07559">
        <ele>1178.7</ele>
        <time>2026-04-28T13:02:52Z</time>
      </trkpt>
      <trkpt lat="44.93728" lon="4.07569">
        <ele>1178.8</ele>
        <time>2026-04-28T13:02:57Z</time>
      </trkpt>
      <trkpt lat="44.93727" lon="4.0758">
        <ele>1179</ele>
        <time>2026-04-28T13:03:02Z</time>
      </trkpt>
      <trkpt lat="44.93727" lon="4.07591">
        <ele>1179.3</ele>
        <time>2026-04-28T13:03:07Z</time>
      </trkpt>
      <trkpt lat="44.93726" lon="4.076">
        <ele>1179.4</ele>
        <time>2026-04-28T13:03:12Z</time>
      </trkpt>
      <trkpt lat="44.93727" lon="4.07609">
        <ele>1179.8</ele>
        <time>2026-04-28T13:03:17Z</time>
      </trkpt>
      <trkpt lat="44.93733" lon="4.07614">
        <ele>1180.4</ele>
        <time>2026-04-28T13:03:22Z</time>
      </trkpt>
      <trkpt lat="44.9374" lon="4.07615">
        <ele>1181</ele>
        <time>2026-04-28T13:03:27Z</time>
      </trkpt>
      <trkpt lat="44.93748" lon="4.07616">
        <ele>1181.6</ele>
        <time>2026-04-28T13:03:32Z</time>
      </trkpt>
      <trkpt lat="44.93756" lon="4.07619">
        <ele>1182.1</ele>
        <time>2026-04-28T13:03:37Z</time>
      </trkpt>
      <trkpt lat="44.93762" lon="4.07623">
        <ele>1182.4</ele>
        <time>2026-04-28T13:03:42Z</time>
      </trkpt>
      <trkpt lat="44.93768" lon="4.07628">
        <ele>1182.7</ele>
        <time>2026-04-28T13:03:47Z</time>
      </trkpt>
      <trkpt lat="44.93773" lon="4.07635">
        <ele>1183</ele>
        <time>2026-04-28T13:03:52Z</time>
      </trkpt>
      <trkpt lat="44.9378" lon="4.07642">
        <ele>1183.3</ele>
        <time>2026-04-28T13:03:57Z</time>
      </trkpt>
      <trkpt lat="44.93788" lon="4.07644">
        <ele>1183.6</ele>
        <time>2026-04-28T13:04:02Z</time>
      </trkpt>
      <trkpt lat="44.93796" lon="4.07647">
        <ele>1183.9</ele>
        <time>2026-04-28T13:04:07Z</time>
      </trkpt>
      <trkpt lat="44.93801" lon="4.07648">
        <ele>1184.1</ele>
        <time>2026-04-28T13:04:12Z</time>
      </trkpt>
      <trkpt lat="44.93808" lon="4.07651">
        <ele>1184.3</ele>
        <time>2026-04-28T13:04:17Z</time>
      </trkpt>
      <trkpt lat="44.93811" lon="4.07654">
        <ele>1184.4</ele>
        <time>2026-04-28T13:04:22Z</time>
      </trkpt>
      <trkpt lat="44.93818" lon="4.07657">
        <ele>1184.6</ele>
        <time>2026-04-28T13:04:27Z</time>
      </trkpt>
      <trkpt lat="44.93826" lon="4.07658">
        <ele>1184.8</ele>
        <time>2026-04-28T13:04:32Z</time>
      </trkpt>
      <trkpt lat="44.93833" lon="4.0766">
        <ele>1185</ele>
        <time>2026-04-28T13:04:37Z</time>
      </trkpt>
      <trkpt lat="44.93842" lon="4.07662">
        <ele>1185.2</ele>
        <time>2026-04-28T13:04:42Z</time>
      </trkpt>
      <trkpt lat="44.9385" lon="4.07664">
        <ele>1185.4</ele>
        <time>2026-04-28T13:04:47Z</time>
      </trkpt>
      <trkpt lat="44.93857" lon="4.07667">
        <ele>1185.6</ele>
        <time>2026-04-28T13:04:52Z</time>
      </trkpt>
      <trkpt lat="44.93865" lon="4.07669">
        <ele>1185.8</ele>
        <time>2026-04-28T13:04:57Z</time>
      </trkpt>
      <trkpt lat="44.93874" lon="4.07672">
        <ele>1186.1</ele>
        <time>2026-04-28T13:05:02Z</time>
      </trkpt>
      <trkpt lat="44.93881" lon="4.07674">
        <ele>1186.3</ele>
        <time>2026-04-28T13:05:07Z</time>
      </trkpt>
      <trkpt lat="44.93889" lon="4.07675">
        <ele>1186.5</ele>
        <time>2026-04-28T13:05:12Z</time>
      </trkpt>
      <trkpt lat="44.93895" lon="4.07678">
        <ele>1186.8</ele>
        <time>2026-04-28T13:05:17Z</time>
      </trkpt>
      <trkpt lat="44.93903" lon="4.07681">
        <ele>1187</ele>
        <time>2026-04-28T13:05:22Z</time>
      </trkpt>
      <trkpt lat="44.9391" lon="4.07684">
        <ele>1187.3</ele>
        <time>2026-04-28T13:05:27Z</time>
      </trkpt>
      <trkpt lat="44.93918" lon="4.07686">
        <ele>1187.5</ele>
        <time>2026-04-28T13:05:32Z</time>
      </trkpt>
      <trkpt lat="44.93924" lon="4.07689">
        <ele>1187.7</ele>
        <time>2026-04-28T13:05:37Z</time>
      </trkpt>
      <trkpt lat="44.93931" lon="4.07692">
        <ele>1188</ele>
        <time>2026-04-28T13:05:42Z</time>
      </trkpt>
      <trkpt lat="44.93939" lon="4.07695">
        <ele>1188.2</ele>
        <time>2026-04-28T13:05:47Z</time>
      </trkpt>
      <trkpt lat="44.93944" lon="4.07697">
        <ele>1188.4</ele>
        <time>2026-04-28T13:05:52Z</time>
      </trkpt>
      <trkpt lat="44.93951" lon="4.07698">
        <ele>1188.6</ele>
        <time>2026-04-28T13:05:57Z</time>
      </trkpt>
      <trkpt lat="44.93957" lon="4.077">
        <ele>1188.8</ele>
        <time>2026-04-28T13:06:02Z</time>
      </trkpt>
      <trkpt lat="44.93963" lon="4.07702">
        <ele>1189</ele>
        <time>2026-04-28T13:06:07Z</time>
      </trkpt>
      <trkpt lat="44.9397" lon="4.07703">
        <ele>1189.2</ele>
        <time>2026-04-28T13:06:12Z</time>
      </trkpt>
      <trkpt lat="44.93979" lon="4.07704">
        <ele>1189.4</ele>
        <time>2026-04-28T13:06:17Z</time>
      </trkpt>
      <trkpt lat="44.93987" lon="4.07706">
        <ele>1189.6</ele>
        <time>2026-04-28T13:06:22Z</time>
      </trkpt>
      <trkpt lat="44.93995" lon="4.07707">
        <ele>1189.8</ele>
        <time>2026-04-28T13:06:27Z</time>
      </trkpt>
      <trkpt lat="44.94002" lon="4.07713">
        <ele>1190.1</ele>
        <time>2026-04-28T13:06:32Z</time>
      </trkpt>
      <trkpt lat="44.94007" lon="4.07723">
        <ele>1190.3</ele>
        <time>2026-04-28T13:06:37Z</time>
      </trkpt>
      <trkpt lat="44.94011" lon="4.07732">
        <ele>1190.5</ele>
        <time>2026-04-28T13:06:42Z</time>
      </trkpt>
      <trkpt lat="44.94014" lon="4.07741">
        <ele>1190.6</ele>
        <time>2026-04-28T13:06:47Z</time>
      </trkpt>
      <trkpt lat="44.94015" lon="4.07753">
        <ele>1190.8</ele>
        <time>2026-04-28T13:06:52Z</time>
      </trkpt>
      <trkpt lat="44.94018" lon="4.07762">
        <ele>1190.7</ele>
        <time>2026-04-28T13:06:57Z</time>
      </trkpt>
      <trkpt lat="44.94018" lon="4.07774">
        <ele>1190.7</ele>
        <time>2026-04-28T13:07:02Z</time>
      </trkpt>
      <trkpt lat="44.94018" lon="4.07784">
        <ele>1190.6</ele>
        <time>2026-04-28T13:07:07Z</time>
      </trkpt>
      <trkpt lat="44.94017" lon="4.07795">
        <ele>1190.6</ele>
        <time>2026-04-28T13:07:12Z</time>
      </trkpt>
      <trkpt lat="44.94016" lon="4.07806">
        <ele>1190.5</ele>
        <time>2026-04-28T13:07:17Z</time>
      </trkpt>
      <trkpt lat="44.94014" lon="4.07817">
        <ele>1190.6</ele>
        <time>2026-04-28T13:07:22Z</time>
      </trkpt>
      <trkpt lat="44.94013" lon="4.07828">
        <ele>1190.6</ele>
        <time>2026-04-28T13:07:27Z</time>
      </trkpt>
      <trkpt lat="44.94012" lon="4.07839">
        <ele>1190.6</ele>
        <time>2026-04-28T13:07:32Z</time>
      </trkpt>
      <trkpt lat="44.9401" lon="4.0785">
        <ele>1190.7</ele>
        <time>2026-04-28T13:07:37Z</time>
      </trkpt>
      <trkpt lat="44.94007" lon="4.07861">
        <ele>1190.8</ele>
        <time>2026-04-28T13:07:42Z</time>
      </trkpt>
      <trkpt lat="44.94004" lon="4.0787">
        <ele>1190.9</ele>
        <time>2026-04-28T13:07:47Z</time>
      </trkpt>
      <trkpt lat="44.94002" lon="4.0788">
        <ele>1190.9</ele>
        <time>2026-04-28T13:07:52Z</time>
      </trkpt>
      <trkpt lat="44.94" lon="4.0789">
        <ele>1191</ele>
        <time>2026-04-28T13:07:57Z</time>
      </trkpt>
      <trkpt lat="44.93998" lon="4.079">
        <ele>1191</ele>
        <time>2026-04-28T13:08:02Z</time>
      </trkpt>
      <trkpt lat="44.93998" lon="4.07909">
        <ele>1191</ele>
        <time>2026-04-28T13:08:07Z</time>
      </trkpt>
      <trkpt lat="44.94" lon="4.07916">
        <ele>1191</ele>
        <time>2026-04-28T13:08:12Z</time>
      </trkpt>
      <trkpt lat="44.94004" lon="4.07923">
        <ele>1190.8</ele>
        <time>2026-04-28T13:08:17Z</time>
      </trkpt>
      <trkpt lat="44.94006" lon="4.07925">
        <ele>1190.7</ele>
        <time>2026-04-28T13:08:22Z</time>
      </trkpt>
      <trkpt lat="44.94006" lon="4.07926">
        <ele>1190.6</ele>
        <time>2026-04-28T13:08:27Z</time>
      </trkpt>
      <trkpt lat="44.94007" lon="4.07931">
        <ele>1190.5</ele>
        <time>2026-04-28T13:08:32Z</time>
      </trkpt>
      <trkpt lat="44.94012" lon="4.07933">
        <ele>1190.4</ele>
        <time>2026-04-28T13:08:37Z</time>
        <extensions>
          <visugpx:TrkExtension xmlns:visugpx="https://www.visugpx.com/editgpx/">
            <visugpx:node>3</visugpx:node>
            </visugpx:TrkExtension>
        </extensions>
      </trkpt>
      <trkpt lat="44.94006" lon="4.07935">
        <ele>1190.4</ele>
        <time>2026-04-29T06:07:06Z</time>
      </trkpt>
      <trkpt lat="44.94006" lon="4.07935">
        <ele>1190.4</ele>
        <time>2026-04-29T06:07:12Z</time>
      </trkpt>
      <trkpt lat="44.94007" lon="4.07935">
        <ele>1190.4</ele>
        <time>2026-04-29T06:07:17Z</time>
      </trkpt>
      <trkpt lat="44.94007" lon="4.07936">
        <ele>1190.4</ele>
        <time>2026-04-29T06:07:21Z</time>
      </trkpt>
      <trkpt lat="44.94003" lon="4.07941">
        <ele>1190.4</ele>
        <time>2026-04-29T06:07:27Z</time>
      </trkpt>
      <trkpt lat="44.93998" lon="4.07943">
        <ele>1190.4</ele>
        <time>2026-04-29T06:07:32Z</time>
      </trkpt>
      <trkpt lat="44.93995" lon="4.07946">
        <ele>1190.4</ele>
        <time>2026-04-29T06:07:37Z</time>
      </trkpt>
      <trkpt lat="44.9399" lon="4.07951">
        <ele>1190.3</ele>
        <time>2026-04-29T06:07:42Z</time>
      </trkpt>
      <trkpt lat="44.93986" lon="4.07953">
        <ele>1190.3</ele>
        <time>2026-04-29T06:07:47Z</time>
      </trkpt>
      <trkpt lat="44.93984" lon="4.07959">
        <ele>1190.2</ele>
        <time>2026-04-29T06:07:52Z</time>
      </trkpt>
      <trkpt lat="44.9398" lon="4.07966">
        <ele>1190</ele>
        <time>2026-04-29T06:07:57Z</time>
      </trkpt>
      <trkpt lat="44.93972" lon="4.07971">
        <ele>1189.9</ele>
        <time>2026-04-29T06:08:02Z</time>
      </trkpt>
      <trkpt lat="44.93966" lon="4.07975">
        <ele>1189.8</ele>
        <time>2026-04-29T06:08:07Z</time>
      </trkpt>
      <trkpt lat="44.9396" lon="4.0798">
        <ele>1189.7</ele>
        <time>2026-04-29T06:08:12Z</time>
      </trkpt>
      <trkpt lat="44.9396" lon="4.07985">
        <ele>1189.5</ele>
        <time>2026-04-29T06:08:17Z</time>
      </trkpt>
      <trkpt lat="44.93965" lon="4.07992">
        <ele>1189.3</ele>
        <time>2026-04-29T06:08:22Z</time>
      </trkpt>
      <trkpt lat="44.93969" lon="4.08">
        <ele>1189</ele>
        <time>2026-04-29T06:08:27Z</time>
      </trkpt>
      <trkpt lat="44.93971" lon="4.08008">
        <ele>1189</ele>
        <time>2026-04-29T06:08:32Z</time>
      </trkpt>
      <trkpt lat="44.93972" lon="4.08014">
        <ele>1189.1</ele>
        <time>2026-04-29T06:08:37Z</time>
      </trkpt>
      <trkpt lat="44.93973" lon="4.08019">
        <ele>1189.1</ele>
        <time>2026-04-29T06:08:42Z</time>
      </trkpt>
      <trkpt lat="44.93972" lon="4.08022">
        <ele>1189.1</ele>
        <time>2026-04-29T06:08:47Z</time>
      </trkpt>
      <trkpt lat="44.93972" lon="4.08022">
        <ele>1189.1</ele>
        <time>2026-04-29T06:08:52Z</time>
      </trkpt>
      <trkpt lat="44.93972" lon="4.08022">
        <ele>1189.1</ele>
        <time>2026-04-29T06:08:57Z</time>
      </trkpt>
      <trkpt lat="44.93972" lon="4.08022">
        <ele>1189.1</ele>
        <time>2026-04-29T06:09:02Z</time>
      </trkpt>
      <trkpt lat="44.93972" lon="4.08022">
        <ele>1189.1</ele>
        <time>2026-04-29T06:09:07Z</time>
      </trkpt>
      <trkpt lat="44.93972" lon="4.08022">
        <ele>1189.1</ele>
        <time>2026-04-29T06:09:12Z</time>
      </trkpt>
      <trkpt lat="44.93972" lon="4.08022">
        <ele>1189.1</ele>
        <time>2026-04-29T06:09:17Z</time>
      </trkpt>
      <trkpt lat="44.93972" lon="4.08022">
        <ele>1189.1</ele>
        <time>2026-04-29T06:09:22Z</time>
      </trkpt>
      <trkpt lat="44.93972" lon="4.08022">
        <ele>1189.1</ele>
        <time>2026-04-29T06:09:27Z</time>
      </trkpt>
      <trkpt lat="44.93972" lon="4.08022">
        <ele>1189.1</ele>
        <time>2026-04-29T06:09:32Z</time>
      </trkpt>
      <trkpt lat="44.93973" lon="4.08017">
        <ele>1189.1</ele>
        <time>2026-04-29T06:09:37Z</time>
      </trkpt>
      <trkpt lat="44.9397" lon="4.08009">
        <ele>1189</ele>
        <time>2026-04-29T06:09:42Z</time>
      </trkpt>
      <trkpt lat="44.93969" lon="4.08002">
        <ele>1189</ele>
        <time>2026-04-29T06:09:47Z</time>
      </trkpt>
      <trkpt lat="44.93967" lon="4.07994">
        <ele>1189.2</ele>
        <time>2026-04-29T06:09:52Z</time>
      </trkpt>
      <trkpt lat="44.93965" lon="4.07986">
        <ele>1189.5</ele>
        <time>2026-04-29T06:09:57Z</time>
      </trkpt>
      <trkpt lat="44.93959" lon="4.07985">
        <ele>1189.5</ele>
        <time>2026-04-29T06:10:02Z</time>
      </trkpt>
      <trkpt lat="44.93953" lon="4.07989">
        <ele>1189.4</ele>
        <time>2026-04-29T06:10:07Z</time>
      </trkpt>
      <trkpt lat="44.93947" lon="4.07995">
        <ele>1189.2</ele>
        <time>2026-04-29T06:10:12Z</time>
      </trkpt>
      <trkpt lat="44.93942" lon="4.08001">
        <ele>1189</ele>
        <time>2026-04-29T06:10:17Z</time>
      </trkpt>
      <trkpt lat="44.93938" lon="4.08004">
        <ele>1189</ele>
        <time>2026-04-29T06:10:22Z</time>
      </trkpt>
      <trkpt lat="44.93931" lon="4.08004">
        <ele>1189</ele>
        <time>2026-04-29T06:10:27Z</time>
      </trkpt>
      <trkpt lat="44.93926" lon="4.08001">
        <ele>1189</ele>
        <time>2026-04-29T06:10:32Z</time>
      </trkpt>
      <trkpt lat="44.93923" lon="4.08004">
        <ele>1189</ele>
        <time>2026-04-29T06:10:37Z</time>
      </trkpt>
      <trkpt lat="44.93922" lon="4.08008">
        <ele>1189.1</ele>
        <time>2026-04-29T06:10:42Z</time>
      </trkpt>
      <trkpt lat="44.93921" lon="4.08012">
        <ele>1189.1</ele>
        <time>2026-04-29T06:10:47Z</time>
      </trkpt>
      <trkpt lat="44.93919" lon="4.08014">
        <ele>1189.2</ele>
        <time>2026-04-29T06:10:52Z</time>
      </trkpt>
      <trkpt lat="44.93919" lon="4.08014">
        <ele>1189.2</ele>
        <time>2026-04-29T06:10:57Z</time>
      </trkpt>
      <trkpt lat="44.93919" lon="4.08014">
        <ele>1189.2</ele>
        <time>2026-04-29T06:11:02Z</time>
      </trkpt>
      <trkpt lat="44.93919" lon="4.08014">
        <ele>1189.2</ele>
        <time>2026-04-29T06:11:07Z</time>
      </trkpt>
      <trkpt lat="44.93919" lon="4.08014">
        <ele>1189.2</ele>
        <time>2026-04-29T06:11:12Z</time>
      </trkpt>
      <trkpt lat="44.93919" lon="4.08014">
        <ele>1189.2</ele>
        <time>2026-04-29T06:11:17Z</time>
      </trkpt>
      <trkpt lat="44.93919" lon="4.08014">
        <ele>1189.2</ele>
        <time>2026-04-29T06:11:22Z</time>
      </trkpt>
      <trkpt lat="44.93919" lon="4.08014">
        <ele>1189.2</ele>
        <time>2026-04-29T06:11:27Z</time>
      </trkpt>
      <trkpt lat="44.93919" lon="4.08014">
        <ele>1189.2</ele>
        <time>2026-04-29T06:11:32Z</time>
      </trkpt>
      <trkpt lat="44.93919" lon="4.08014">
        <ele>1189.2</ele>
        <time>2026-04-29T06:11:37Z</time>
      </trkpt>
      <trkpt lat="44.93919" lon="4.08014">
        <ele>1189.2</ele>
        <time>2026-04-29T06:11:42Z</time>
      </trkpt>
      <trkpt lat="44.93919" lon="4.08014">
        <ele>1189.2</ele>
        <time>2026-04-29T06:11:47Z</time>
      </trkpt>
      <trkpt lat="44.93916" lon="4.07996">
        <ele>1189.2</ele>
        <time>2026-04-29T06:11:52Z</time>
      </trkpt>
      <trkpt lat="44.93918" lon="4.07989">
        <ele>1189.5</ele>
        <time>2026-04-29T06:11:57Z</time>
      </trkpt>
      <trkpt lat="44.93921" lon="4.07985">
        <ele>1189.7</ele>
        <time>2026-04-29T06:12:02Z</time>
      </trkpt>
      <trkpt lat="44.93922" lon="4.07981">
        <ele>1189.9</ele>
        <time>2026-04-29T06:12:07Z</time>
      </trkpt>
      <trkpt lat="44.93922" lon="4.07976">
        <ele>1190.1</ele>
        <time>2026-04-29T06:12:12Z</time>
      </trkpt>
      <trkpt lat="44.93921" lon="4.07974">
        <ele>1190.2</ele>
        <time>2026-04-29T06:12:17Z</time>
      </trkpt>
      <trkpt lat="44.93921" lon="4.07974">
        <ele>1190.2</ele>
        <time>2026-04-29T06:12:22Z</time>
      </trkpt>
      <trkpt lat="44.93921" lon="4.07974">
        <ele>1190.2</ele>
        <time>2026-04-29T06:12:27Z</time>
      </trkpt>
      <trkpt lat="44.93921" lon="4.07974">
        <ele>1190.2</ele>
        <time>2026-04-29T06:12:32Z</time>
      </trkpt>
      <trkpt lat="44.93921" lon="4.07974">
        <ele>1190.2</ele>
        <time>2026-04-29T06:12:37Z</time>
      </trkpt>
      <trkpt lat="44.93921" lon="4.07974">
        <ele>1190.2</ele>
        <time>2026-04-29T06:12:42Z</time>
      </trkpt>
      <trkpt lat="44.93926" lon="4.07987">
        <ele>1189.6</ele>
        <time>2026-04-29T06:12:47Z</time>
      </trkpt>
      <trkpt lat="44.93926" lon="4.07987">
        <ele>1189.6</ele>
        <time>2026-04-29T06:12:52Z</time>
      </trkpt>
      <trkpt lat="44.93926" lon="4.07987">
        <ele>1189.6</ele>
        <time>2026-04-29T06:12:57Z</time>
      </trkpt>
      <trkpt lat="44.93926" lon="4.07987">
        <ele>1189.6</ele>
        <time>2026-04-29T06:13:02Z</time>
      </trkpt>
      <trkpt lat="44.93926" lon="4.07987">
        <ele>1189.6</ele>
        <time>2026-04-29T06:13:07Z</time>
      </trkpt>
      <trkpt lat="44.93926" lon="4.07987">
        <ele>1189.6</ele>
        <time>2026-04-29T06:13:12Z</time>
      </trkpt>
      <trkpt lat="44.93926" lon="4.07987">
        <ele>1189.6</ele>
        <time>2026-04-29T06:13:17Z</time>
      </trkpt>
      <trkpt lat="44.93926" lon="4.07987">
        <ele>1189.6</ele>
        <time>2026-04-29T06:13:22Z</time>
      </trkpt>
      <trkpt lat="44.93926" lon="4.07987">
        <ele>1189.6</ele>
        <time>2026-04-29T06:13:27Z</time>
      </trkpt>
      <trkpt lat="44.93926" lon="4.07987">
        <ele>1189.6</ele>
        <time>2026-04-29T06:13:32Z</time>
      </trkpt>
      <trkpt lat="44.93926" lon="4.07987">
        <ele>1189.6</ele>
        <time>2026-04-29T06:13:37Z</time>
      </trkpt>
      <trkpt lat="44.93926" lon="4.07987">
        <ele>1189.6</ele>
        <time>2026-04-29T06:13:42Z</time>
      </trkpt>
      <trkpt lat="44.93926" lon="4.07987">
        <ele>1189.6</ele>
        <time>2026-04-29T06:13:47Z</time>
      </trkpt>
      <trkpt lat="44.93926" lon="4.07987">
        <ele>1189.6</ele>
        <time>2026-04-29T06:13:52Z</time>
      </trkpt>
      <trkpt lat="44.93926" lon="4.07987">
        <ele>1189.6</ele>
        <time>2026-04-29T06:13:57Z</time>
      </trkpt>
      <trkpt lat="44.93926" lon="4.07987">
        <ele>1189.6</ele>
        <time>2026-04-29T06:14:02Z</time>
      </trkpt>
      <trkpt lat="44.93926" lon="4.07987">
        <ele>1189.6</ele>
        <time>2026-04-29T06:14:07Z</time>
      </trkpt>
      <trkpt lat="44.93926" lon="4.07987">
        <ele>1189.6</ele>
        <time>2026-04-29T06:14:12Z</time>
      </trkpt>
      <trkpt lat="44.93926" lon="4.07987">
        <ele>1189.6</ele>
        <time>2026-04-29T06:14:17Z</time>
      </trkpt>
      <trkpt lat="44.93926" lon="4.07987">
        <ele>1189.6</ele>
        <time>2026-04-29T06:14:22Z</time>
      </trkpt>
      <trkpt lat="44.93926" lon="4.07987">
        <ele>1189.6</ele>
        <time>2026-04-29T06:14:27Z</time>
      </trkpt>
      <trkpt lat="44.93926" lon="4.07987">
        <ele>1189.6</ele>
        <time>2026-04-29T06:14:32Z</time>
      </trkpt>
      <trkpt lat="44.93926" lon="4.07987">
        <ele>1189.6</ele>
        <time>2026-04-29T06:14:37Z</time>
      </trkpt>
      <trkpt lat="44.93926" lon="4.07987">
        <ele>1189.6</ele>
        <time>2026-04-29T06:14:42Z</time>
      </trkpt>
      <trkpt lat="44.93926" lon="4.07987">
        <ele>1189.6</ele>
        <time>2026-04-29T06:14:47Z</time>
      </trkpt>
      <trkpt lat="44.93926" lon="4.07987">
        <ele>1189.6</ele>
        <time>2026-04-29T06:14:52Z</time>
      </trkpt>
      <trkpt lat="44.93926" lon="4.07987">
        <ele>1189.6</ele>
        <time>2026-04-29T06:14:57Z</time>
      </trkpt>
      <trkpt lat="44.93926" lon="4.07987">
        <ele>1189.6</ele>
        <time>2026-04-29T06:15:02Z</time>
      </trkpt>
      <trkpt lat="44.93926" lon="4.07987">
        <ele>1189.6</ele>
        <time>2026-04-29T06:15:07Z</time>
      </trkpt>
      <trkpt lat="44.93926" lon="4.07987">
        <ele>1189.6</ele>
        <time>2026-04-29T06:15:12Z</time>
      </trkpt>
      <trkpt lat="44.93926" lon="4.07987">
        <ele>1189.6</ele>
        <time>2026-04-29T06:15:17Z</time>
      </trkpt>
      <trkpt lat="44.93926" lon="4.07987">
        <ele>1189.6</ele>
        <time>2026-04-29T06:15:22Z</time>
      </trkpt>
      <trkpt lat="44.93926" lon="4.07987">
        <ele>1189.6</ele>
        <time>2026-04-29T06:15:27Z</time>
      </trkpt>
      <trkpt lat="44.93926" lon="4.07987">
        <ele>1189.6</ele>
        <time>2026-04-29T06:15:32Z</time>
      </trkpt>
      <trkpt lat="44.93926" lon="4.07987">
        <ele>1189.6</ele>
        <time>2026-04-29T06:15:37Z</time>
      </trkpt>
      <trkpt lat="44.93926" lon="4.07987">
        <ele>1189.6</ele>
        <time>2026-04-29T06:15:42Z</time>
      </trkpt>
      <trkpt lat="44.93926" lon="4.07987">
        <ele>1189.6</ele>
        <time>2026-04-29T06:15:47Z</time>
      </trkpt>
      <trkpt lat="44.93926" lon="4.07987">
        <ele>1189.6</ele>
        <time>2026-04-29T06:15:52Z</time>
      </trkpt>
      <trkpt lat="44.93926" lon="4.07987">
        <ele>1189.6</ele>
        <time>2026-04-29T06:15:57Z</time>
      </trkpt>
      <trkpt lat="44.93926" lon="4.07987">
        <ele>1189.6</ele>
        <time>2026-04-29T06:16:02Z</time>
      </trkpt>
      <trkpt lat="44.93926" lon="4.07987">
        <ele>1189.6</ele>
        <time>2026-04-29T06:16:07Z</time>
      </trkpt>
      <trkpt lat="44.93926" lon="4.07987">
        <ele>1189.6</ele>
        <time>2026-04-29T06:16:12Z</time>
      </trkpt>
      <trkpt lat="44.93926" lon="4.07987">
        <ele>1189.6</ele>
        <time>2026-04-29T06:16:17Z</time>
      </trkpt>
      <trkpt lat="44.93926" lon="4.07987">
        <ele>1189.6</ele>
        <time>2026-04-29T06:16:22Z</time>
      </trkpt>
      <trkpt lat="44.93926" lon="4.07987">
        <ele>1189.6</ele>
        <time>2026-04-29T06:16:27Z</time>
      </trkpt>
      <trkpt lat="44.93926" lon="4.07987">
        <ele>1189.6</ele>
        <time>2026-04-29T06:16:32Z</time>
      </trkpt>
      <trkpt lat="44.93926" lon="4.07987">
        <ele>1189.6</ele>
        <time>2026-04-29T06:16:37Z</time>
      </trkpt>
      <trkpt lat="44.93926" lon="4.07987">
        <ele>1189.6</ele>
        <time>2026-04-29T06:16:42Z</time>
      </trkpt>
      <trkpt lat="44.93926" lon="4.07987">
        <ele>1189.6</ele>
        <time>2026-04-29T06:16:47Z</time>
      </trkpt>
      <trkpt lat="44.93926" lon="4.07987">
        <ele>1189.6</ele>
        <time>2026-04-29T06:16:52Z</time>
      </trkpt>
      <trkpt lat="44.93926" lon="4.07987">
        <ele>1189.6</ele>
        <time>2026-04-29T06:16:57Z</time>
      </trkpt>
      <trkpt lat="44.93926" lon="4.07987">
        <ele>1189.6</ele>
        <time>2026-04-29T06:17:02Z</time>
      </trkpt>
      <trkpt lat="44.93926" lon="4.07987">
        <ele>1189.6</ele>
        <time>2026-04-29T06:17:07Z</time>
      </trkpt>
      <trkpt lat="44.93926" lon="4.07987">
        <ele>1189.6</ele>
        <time>2026-04-29T06:17:12Z</time>
      </trkpt>
      <trkpt lat="44.93926" lon="4.07987">
        <ele>1189.6</ele>
        <time>2026-04-29T06:17:17Z</time>
      </trkpt>
      <trkpt lat="44.93926" lon="4.07987">
        <ele>1189.6</ele>
        <time>2026-04-29T06:17:22Z</time>
      </trkpt>
      <trkpt lat="44.93926" lon="4.07987">
        <ele>1189.6</ele>
        <time>2026-04-29T06:17:27Z</time>
      </trkpt>
      <trkpt lat="44.93926" lon="4.07987">
        <ele>1189.6</ele>
        <time>2026-04-29T06:17:32Z</time>
      </trkpt>
      <trkpt lat="44.93926" lon="4.07987">
        <ele>1189.6</ele>
        <time>2026-04-29T06:17:37Z</time>
      </trkpt>
      <trkpt lat="44.93926" lon="4.07987">
        <ele>1189.6</ele>
        <time>2026-04-29T06:17:42Z</time>
      </trkpt>
      <trkpt lat="44.93926" lon="4.07987">
        <ele>1189.6</ele>
        <time>2026-04-29T06:17:47Z</time>
      </trkpt>
      <trkpt lat="44.93926" lon="4.07987">
        <ele>1189.6</ele>
        <time>2026-04-29T06:17:52Z</time>
      </trkpt>
      <trkpt lat="44.93926" lon="4.07987">
        <ele>1189.6</ele>
        <time>2026-04-29T06:17:57Z</time>
      </trkpt>
      <trkpt lat="44.93926" lon="4.07987">
        <ele>1189.6</ele>
        <time>2026-04-29T06:18:02Z</time>
      </trkpt>
      <trkpt lat="44.93926" lon="4.07987">
        <ele>1189.6</ele>
        <time>2026-04-29T06:18:07Z</time>
      </trkpt>
      <trkpt lat="44.93926" lon="4.07987">
        <ele>1189.6</ele>
        <time>2026-04-29T06:18:12Z</time>
      </trkpt>
      <trkpt lat="44.93926" lon="4.07987">
        <ele>1189.6</ele>
        <time>2026-04-29T06:18:17Z</time>
      </trkpt>
      <trkpt lat="44.93926" lon="4.07987">
        <ele>1189.6</ele>
        <time>2026-04-29T06:18:22Z</time>
      </trkpt>
      <trkpt lat="44.93926" lon="4.07987">
        <ele>1189.6</ele>
        <time>2026-04-29T06:18:27Z</time>
      </trkpt>
      <trkpt lat="44.93926" lon="4.07987">
        <ele>1189.6</ele>
        <time>2026-04-29T06:18:32Z</time>
      </trkpt>
      <trkpt lat="44.93926" lon="4.07987">
        <ele>1189.6</ele>
        <time>2026-04-29T06:18:37Z</time>
      </trkpt>
      <trkpt lat="44.93926" lon="4.07987">
        <ele>1189.6</ele>
        <time>2026-04-29T06:18:42Z</time>
      </trkpt>
      <trkpt lat="44.93926" lon="4.07987">
        <ele>1189.6</ele>
        <time>2026-04-29T06:18:47Z</time>
      </trkpt>
      <trkpt lat="44.93926" lon="4.07987">
        <ele>1189.6</ele>
        <time>2026-04-29T06:18:52Z</time>
      </trkpt>
      <trkpt lat="44.93929" lon="4.07986">
        <ele>1189.6</ele>
        <time>2026-04-29T06:18:57Z</time>
      </trkpt>
      <trkpt lat="44.93929" lon="4.07986">
        <ele>1189.6</ele>
        <time>2026-04-29T06:19:02Z</time>
      </trkpt>
      <trkpt lat="44.93929" lon="4.07986">
        <ele>1189.6</ele>
        <time>2026-04-29T06:19:07Z</time>
      </trkpt>
      <trkpt lat="44.93929" lon="4.07986">
        <ele>1189.6</ele>
        <time>2026-04-29T06:19:12Z</time>
      </trkpt>
      <trkpt lat="44.93929" lon="4.07986">
        <ele>1189.6</ele>
        <time>2026-04-29T06:19:17Z</time>
      </trkpt>
      <trkpt lat="44.93929" lon="4.07986">
        <ele>1189.6</ele>
        <time>2026-04-29T06:19:22Z</time>
      </trkpt>
      <trkpt lat="44.93933" lon="4.07982">
        <ele>1189.8</ele>
        <time>2026-04-29T06:19:27Z</time>
      </trkpt>
      <trkpt lat="44.93935" lon="4.0798">
        <ele>1189.9</ele>
        <time>2026-04-29T06:19:32Z</time>
      </trkpt>
      <trkpt lat="44.93938" lon="4.07978">
        <ele>1189.9</ele>
        <time>2026-04-29T06:19:37Z</time>
      </trkpt>
      <trkpt lat="44.93941" lon="4.07976">
        <ele>1190</ele>
        <time>2026-04-29T06:19:42Z</time>
      </trkpt>
      <trkpt lat="44.93944" lon="4.07974">
        <ele>1190</ele>
        <time>2026-04-29T06:19:47Z</time>
      </trkpt>
      <trkpt lat="44.93945" lon="4.07975">
        <ele>1190</ele>
        <time>2026-04-29T06:19:52Z</time>
      </trkpt>
      <trkpt lat="44.93946" lon="4.07976">
        <ele>1189.9</ele>
        <time>2026-04-29T06:19:57Z</time>
      </trkpt>
      <trkpt lat="44.93946" lon="4.07976">
        <ele>1189.9</ele>
        <time>2026-04-29T06:20:02Z</time>
      </trkpt>
      <trkpt lat="44.93946" lon="4.07976">
        <ele>1189.9</ele>
        <time>2026-04-29T06:20:07Z</time>
      </trkpt>
      <trkpt lat="44.93946" lon="4.07976">
        <ele>1189.9</ele>
        <time>2026-04-29T06:20:12Z</time>
      </trkpt>
      <trkpt lat="44.93946" lon="4.07976">
        <ele>1189.9</ele>
        <time>2026-04-29T06:20:17Z</time>
      </trkpt>
      <trkpt lat="44.93946" lon="4.07976">
        <ele>1189.9</ele>
        <time>2026-04-29T06:20:22Z</time>
      </trkpt>
      <trkpt lat="44.93946" lon="4.07976">
        <ele>1189.9</ele>
        <time>2026-04-29T06:20:27Z</time>
      </trkpt>
      <trkpt lat="44.93946" lon="4.07976">
        <ele>1189.9</ele>
        <time>2026-04-29T06:20:32Z</time>
      </trkpt>
      <trkpt lat="44.93945" lon="4.0798">
        <ele>1189.8</ele>
        <time>2026-04-29T06:20:37Z</time>
      </trkpt>
      <trkpt lat="44.93938" lon="4.07984">
        <ele>1189.7</ele>
        <time>2026-04-29T06:20:42Z</time>
      </trkpt>
      <trkpt lat="44.93931" lon="4.07984">
        <ele>1189.7</ele>
        <time>2026-04-29T06:20:47Z</time>
      </trkpt>
      <trkpt lat="44.93924" lon="4.07982">
        <ele>1189.8</ele>
        <time>2026-04-29T06:20:52Z</time>
      </trkpt>
      <trkpt lat="44.93921" lon="4.07974">
        <ele>1190.2</ele>
        <time>2026-04-29T06:20:57Z</time>
      </trkpt>
      <trkpt lat="44.93919" lon="4.07965">
        <ele>1190.7</ele>
        <time>2026-04-29T06:21:02Z</time>
      </trkpt>
      <trkpt lat="44.93915" lon="4.07958">
        <ele>1191</ele>
        <time>2026-04-29T06:21:07Z</time>
      </trkpt>
      <trkpt lat="44.93911" lon="4.07952">
        <ele>1191.2</ele>
        <time>2026-04-29T06:21:12Z</time>
      </trkpt>
      <trkpt lat="44.93905" lon="4.07947">
        <ele>1191.3</ele>
        <time>2026-04-29T06:21:17Z</time>
      </trkpt>
      <trkpt lat="44.93903" lon="4.0794">
        <ele>1191.6</ele>
        <time>2026-04-29T06:21:22Z</time>
      </trkpt>
      <trkpt lat="44.93896" lon="4.07938">
        <ele>1191.5</ele>
        <time>2026-04-29T06:21:27Z</time>
      </trkpt>
      <trkpt lat="44.93888" lon="4.07939">
        <ele>1191.3</ele>
        <time>2026-04-29T06:21:32Z</time>
      </trkpt>
      <trkpt lat="44.93882" lon="4.07941">
        <ele>1191.1</ele>
        <time>2026-04-29T06:21:37Z</time>
      </trkpt>
      <trkpt lat="44.93875" lon="4.07945">
        <ele>1190.8</ele>
        <time>2026-04-29T06:21:42Z</time>
      </trkpt>
      <trkpt lat="44.9387" lon="4.07949">
        <ele>1190.6</ele>
        <time>2026-04-29T06:21:47Z</time>
      </trkpt>
      <trkpt lat="44.93862" lon="4.07952">
        <ele>1190.4</ele>
        <time>2026-04-29T06:21:52Z</time>
      </trkpt>
      <trkpt lat="44.93855" lon="4.07947">
        <ele>1190.4</ele>
        <time>2026-04-29T06:21:57Z</time>
      </trkpt>
      <trkpt lat="44.93848" lon="4.07944">
        <ele>1190.3</ele>
        <time>2026-04-29T06:22:02Z</time>
      </trkpt>
      <trkpt lat="44.9384" lon="4.07942">
        <ele>1190.1</ele>
        <time>2026-04-29T06:22:07Z</time>
      </trkpt>
      <trkpt lat="44.93833" lon="4.0794">
        <ele>1190</ele>
        <time>2026-04-29T06:22:12Z</time>
      </trkpt>
      <trkpt lat="44.93826" lon="4.07939">
        <ele>1189.7</ele>
        <time>2026-04-29T06:22:17Z</time>
      </trkpt>
      <trkpt lat="44.93819" lon="4.07934">
        <ele>1189.4</ele>
        <time>2026-04-29T06:22:22Z</time>
      </trkpt>
      <trkpt lat="44.93812" lon="4.07928">
        <ele>1189</ele>
        <time>2026-04-29T06:22:27Z</time>
      </trkpt>
      <trkpt lat="44.93806" lon="4.07926">
        <ele>1188.8</ele>
        <time>2026-04-29T06:22:32Z</time>
      </trkpt>
      <trkpt lat="44.938" lon="4.07923">
        <ele>1188.5</ele>
        <time>2026-04-29T06:22:37Z</time>
      </trkpt>
      <trkpt lat="44.93796" lon="4.07917">
        <ele>1188.2</ele>
        <time>2026-04-29T06:22:42Z</time>
      </trkpt>
      <trkpt lat="44.93792" lon="4.07912">
        <ele>1188</ele>
        <time>2026-04-29T06:22:47Z</time>
      </trkpt>
      <trkpt lat="44.93785" lon="4.07909">
        <ele>1187.6</ele>
        <time>2026-04-29T06:22:52Z</time>
      </trkpt>
      <trkpt lat="44.9378" lon="4.07903">
        <ele>1187.3</ele>
        <time>2026-04-29T06:22:57Z</time>
      </trkpt>
      <trkpt lat="44.93776" lon="4.07895">
        <ele>1187</ele>
        <time>2026-04-29T06:23:02Z</time>
      </trkpt>
      <trkpt lat="44.93772" lon="4.07891">
        <ele>1186.7</ele>
        <time>2026-04-29T06:23:07Z</time>
      </trkpt>
      <trkpt lat="44.93766" lon="4.07889">
        <ele>1186.4</ele>
        <time>2026-04-29T06:23:12Z</time>
      </trkpt>
      <trkpt lat="44.93763" lon="4.07892">
        <ele>1186.3</ele>
        <time>2026-04-29T06:23:17Z</time>
      </trkpt>
      <trkpt lat="44.93761" lon="4.079">
        <ele>1186.3</ele>
        <time>2026-04-29T06:23:22Z</time>
      </trkpt>
      <trkpt lat="44.9376" lon="4.07908">
        <ele>1186.4</ele>
        <time>2026-04-29T06:23:27Z</time>
      </trkpt>
      <trkpt lat="44.93759" lon="4.07917">
        <ele>1186.4</ele>
        <time>2026-04-29T06:23:32Z</time>
      </trkpt>
      <trkpt lat="44.93756" lon="4.07925">
        <ele>1186.5</ele>
        <time>2026-04-29T06:23:37Z</time>
      </trkpt>
      <trkpt lat="44.93754" lon="4.07934">
        <ele>1186.6</ele>
        <time>2026-04-29T06:23:42Z</time>
      </trkpt>
      <trkpt lat="44.93752" lon="4.07944">
        <ele>1186.7</ele>
        <time>2026-04-29T06:23:47Z</time>
      </trkpt>
      <trkpt lat="44.93751" lon="4.07953">
        <ele>1186.9</ele>
        <time>2026-04-29T06:23:52Z</time>
      </trkpt>
      <trkpt lat="44.9375" lon="4.07962">
        <ele>1187.1</ele>
        <time>2026-04-29T06:23:57Z</time>
      </trkpt>
      <trkpt lat="44.93748" lon="4.07971">
        <ele>1187.4</ele>
        <time>2026-04-29T06:24:02Z</time>
      </trkpt>
      <trkpt lat="44.93746" lon="4.07981">
        <ele>1187.8</ele>
        <time>2026-04-29T06:24:07Z</time>
      </trkpt>
      <trkpt lat="44.93746" lon="4.07989">
        <ele>1188</ele>
        <time>2026-04-29T06:24:12Z</time>
      </trkpt>
      <trkpt lat="44.93744" lon="4.07999">
        <ele>1188.3</ele>
        <time>2026-04-29T06:24:17Z</time>
      </trkpt>
      <trkpt lat="44.93742" lon="4.08008">
        <ele>1188.3</ele>
        <time>2026-04-29T06:24:22Z</time>
      </trkpt>
      <trkpt lat="44.93742" lon="4.08019">
        <ele>1188.2</ele>
        <time>2026-04-29T06:24:27Z</time>
      </trkpt>
      <trkpt lat="44.93741" lon="4.08027">
        <ele>1188.1</ele>
        <time>2026-04-29T06:24:32Z</time>
      </trkpt>
      <trkpt lat="44.9374" lon="4.08036">
        <ele>1188</ele>
        <time>2026-04-29T06:24:37Z</time>
      </trkpt>
      <trkpt lat="44.93741" lon="4.08039">
        <ele>1187.9</ele>
        <time>2026-04-29T06:24:42Z</time>
      </trkpt>
      <trkpt lat="44.9374" lon="4.0804">
        <ele>1187.9</ele>
        <time>2026-04-29T06:24:47Z</time>
      </trkpt>
      <trkpt lat="44.9374" lon="4.08044">
        <ele>1187.8</ele>
        <time>2026-04-29T06:24:52Z</time>
      </trkpt>
      <trkpt lat="44.93739" lon="4.08053">
        <ele>1187.7</ele>
        <time>2026-04-29T06:24:57Z</time>
      </trkpt>
      <trkpt lat="44.93739" lon="4.08059">
        <ele>1187.6</ele>
        <time>2026-04-29T06:25:02Z</time>
      </trkpt>
      <trkpt lat="44.93738" lon="4.08065">
        <ele>1187.5</ele>
        <time>2026-04-29T06:25:07Z</time>
      </trkpt>
      <trkpt lat="44.93739" lon="4.08064">
        <ele>1187.5</ele>
        <time>2026-04-29T06:25:12Z</time>
      </trkpt>
      <trkpt lat="44.93739" lon="4.08064">
        <ele>1187.5</ele>
        <time>2026-04-29T06:25:17Z</time>
      </trkpt>
      <trkpt lat="44.93739" lon="4.08064">
        <ele>1187.5</ele>
        <time>2026-04-29T06:25:22Z</time>
      </trkpt>
      <trkpt lat="44.93739" lon="4.08064">
        <ele>1187.5</ele>
        <time>2026-04-29T06:25:27Z</time>
      </trkpt>
      <trkpt lat="44.93739" lon="4.08064">
        <ele>1187.5</ele>
        <time>2026-04-29T06:25:32Z</time>
      </trkpt>
      <trkpt lat="44.93739" lon="4.08064">
        <ele>1187.5</ele>
        <time>2026-04-29T06:25:37Z</time>
      </trkpt>
      <trkpt lat="44.93739" lon="4.08064">
        <ele>1187.5</ele>
        <time>2026-04-29T06:25:42Z</time>
      </trkpt>
      <trkpt lat="44.93739" lon="4.08064">
        <ele>1187.5</ele>
        <time>2026-04-29T06:25:47Z</time>
      </trkpt>
      <trkpt lat="44.93739" lon="4.08064">
        <ele>1187.5</ele>
        <time>2026-04-29T06:25:52Z</time>
      </trkpt>
      <trkpt lat="44.93739" lon="4.08064">
        <ele>1187.5</ele>
        <time>2026-04-29T06:25:57Z</time>
      </trkpt>
      <trkpt lat="44.93739" lon="4.08064">
        <ele>1187.5</ele>
        <time>2026-04-29T06:26:02Z</time>
      </trkpt>
      <trkpt lat="44.93739" lon="4.08064">
        <ele>1187.5</ele>
        <time>2026-04-29T06:26:07Z</time>
      </trkpt>
      <trkpt lat="44.93739" lon="4.08064">
        <ele>1187.5</ele>
        <time>2026-04-29T06:26:12Z</time>
      </trkpt>
      <trkpt lat="44.93739" lon="4.08064">
        <ele>1187.5</ele>
        <time>2026-04-29T06:26:17Z</time>
      </trkpt>
      <trkpt lat="44.93739" lon="4.08064">
        <ele>1187.5</ele>
        <time>2026-04-29T06:26:22Z</time>
      </trkpt>
      <trkpt lat="44.93739" lon="4.08064">
        <ele>1187.5</ele>
        <time>2026-04-29T06:26:27Z</time>
      </trkpt>
      <trkpt lat="44.93739" lon="4.08064">
        <ele>1187.5</ele>
        <time>2026-04-29T06:26:32Z</time>
      </trkpt>
      <trkpt lat="44.93739" lon="4.08064">
        <ele>1187.5</ele>
        <time>2026-04-29T06:26:37Z</time>
      </trkpt>
      <trkpt lat="44.93739" lon="4.08064">
        <ele>1187.5</ele>
        <time>2026-04-29T06:26:42Z</time>
      </trkpt>
      <trkpt lat="44.93739" lon="4.08064">
        <ele>1187.5</ele>
        <time>2026-04-29T06:26:47Z</time>
      </trkpt>
      <trkpt lat="44.93739" lon="4.08064">
        <ele>1187.5</ele>
        <time>2026-04-29T06:26:52Z</time>
      </trkpt>
      <trkpt lat="44.93739" lon="4.08064">
        <ele>1187.5</ele>
        <time>2026-04-29T06:26:57Z</time>
      </trkpt>
      <trkpt lat="44.93739" lon="4.08064">
        <ele>1187.5</ele>
        <time>2026-04-29T06:27:02Z</time>
      </trkpt>
      <trkpt lat="44.93739" lon="4.08064">
        <ele>1187.5</ele>
        <time>2026-04-29T06:27:07Z</time>
      </trkpt>
      <trkpt lat="44.93739" lon="4.08064">
        <ele>1187.5</ele>
        <time>2026-04-29T06:27:12Z</time>
      </trkpt>
      <trkpt lat="44.93739" lon="4.08064">
        <ele>1187.5</ele>
        <time>2026-04-29T06:27:17Z</time>
      </trkpt>
      <trkpt lat="44.93739" lon="4.08064">
        <ele>1187.5</ele>
        <time>2026-04-29T06:27:22Z</time>
      </trkpt>
      <trkpt lat="44.93739" lon="4.08064">
        <ele>1187.5</ele>
        <time>2026-04-29T06:27:27Z</time>
      </trkpt>
      <trkpt lat="44.93739" lon="4.08064">
        <ele>1187.5</ele>
        <time>2026-04-29T06:27:32Z</time>
      </trkpt>
      <trkpt lat="44.93739" lon="4.08064">
        <ele>1187.5</ele>
        <time>2026-04-29T06:27:37Z</time>
      </trkpt>
      <trkpt lat="44.93739" lon="4.08064">
        <ele>1187.5</ele>
        <time>2026-04-29T06:27:42Z</time>
      </trkpt>
      <trkpt lat="44.93739" lon="4.08064">
        <ele>1187.5</ele>
        <time>2026-04-29T06:27:47Z</time>
      </trkpt>
      <trkpt lat="44.93739" lon="4.08064">
        <ele>1187.5</ele>
        <time>2026-04-29T06:27:52Z</time>
      </trkpt>
      <trkpt lat="44.93739" lon="4.08064">
        <ele>1187.5</ele>
        <time>2026-04-29T06:27:57Z</time>
      </trkpt>
      <trkpt lat="44.93739" lon="4.08064">
        <ele>1187.5</ele>
        <time>2026-04-29T06:28:02Z</time>
      </trkpt>
      <trkpt lat="44.93739" lon="4.08064">
        <ele>1187.5</ele>
        <time>2026-04-29T06:28:07Z</time>
      </trkpt>
      <trkpt lat="44.93739" lon="4.08064">
        <ele>1187.5</ele>
        <time>2026-04-29T06:28:12Z</time>
      </trkpt>
      <trkpt lat="44.93739" lon="4.08064">
        <ele>1187.5</ele>
        <time>2026-04-29T06:28:17Z</time>
      </trkpt>
      <trkpt lat="44.93739" lon="4.08064">
        <ele>1187.5</ele>
        <time>2026-04-29T06:28:22Z</time>
      </trkpt>
      <trkpt lat="44.93739" lon="4.08064">
        <ele>1187.5</ele>
        <time>2026-04-29T06:28:27Z</time>
      </trkpt>
      <trkpt lat="44.93739" lon="4.08064">
        <ele>1187.5</ele>
        <time>2026-04-29T06:28:32Z</time>
      </trkpt>
      <trkpt lat="44.93739" lon="4.08064">
        <ele>1187.5</ele>
        <time>2026-04-29T06:28:37Z</time>
      </trkpt>
      <trkpt lat="44.93739" lon="4.08064">
        <ele>1187.5</ele>
        <time>2026-04-29T06:28:42Z</time>
      </trkpt>
      <trkpt lat="44.93739" lon="4.08064">
        <ele>1187.5</ele>
        <time>2026-04-29T06:28:47Z</time>
      </trkpt>
      <trkpt lat="44.93739" lon="4.08064">
        <ele>1187.5</ele>
        <time>2026-04-29T06:28:52Z</time>
      </trkpt>
      <trkpt lat="44.93739" lon="4.08064">
        <ele>1187.5</ele>
        <time>2026-04-29T06:28:57Z</time>
      </trkpt>
      <trkpt lat="44.93739" lon="4.08064">
        <ele>1187.5</ele>
        <time>2026-04-29T06:29:02Z</time>
      </trkpt>
      <trkpt lat="44.93739" lon="4.08064">
        <ele>1187.5</ele>
        <time>2026-04-29T06:29:07Z</time>
      </trkpt>
      <trkpt lat="44.93739" lon="4.08064">
        <ele>1187.5</ele>
        <time>2026-04-29T06:29:12Z</time>
      </trkpt>
      <trkpt lat="44.93739" lon="4.08064">
        <ele>1187.5</ele>
        <time>2026-04-29T06:29:17Z</time>
      </trkpt>
      <trkpt lat="44.93739" lon="4.08064">
        <ele>1187.5</ele>
        <time>2026-04-29T06:29:22Z</time>
      </trkpt>
      <trkpt lat="44.93739" lon="4.08064">
        <ele>1187.5</ele>
        <time>2026-04-29T06:29:27Z</time>
      </trkpt>
      <trkpt lat="44.93739" lon="4.08064">
        <ele>1187.5</ele>
        <time>2026-04-29T06:29:32Z</time>
      </trkpt>
      <trkpt lat="44.93739" lon="4.08064">
        <ele>1187.5</ele>
        <time>2026-04-29T06:29:37Z</time>
      </trkpt>
      <trkpt lat="44.93739" lon="4.08064">
        <ele>1187.5</ele>
        <time>2026-04-29T06:29:42Z</time>
      </trkpt>
      <trkpt lat="44.93739" lon="4.08064">
        <ele>1187.5</ele>
        <time>2026-04-29T06:29:47Z</time>
      </trkpt>
      <trkpt lat="44.93739" lon="4.08064">
        <ele>1187.5</ele>
        <time>2026-04-29T06:29:52Z</time>
      </trkpt>
      <trkpt lat="44.93739" lon="4.08064">
        <ele>1187.5</ele>
        <time>2026-04-29T06:29:57Z</time>
      </trkpt>
      <trkpt lat="44.93739" lon="4.08064">
        <ele>1187.5</ele>
        <time>2026-04-29T06:30:02Z</time>
      </trkpt>
      <trkpt lat="44.93739" lon="4.08064">
        <ele>1187.5</ele>
        <time>2026-04-29T06:30:07Z</time>
      </trkpt>
      <trkpt lat="44.93739" lon="4.08064">
        <ele>1187.5</ele>
        <time>2026-04-29T06:30:12Z</time>
      </trkpt>
      <trkpt lat="44.93739" lon="4.08064">
        <ele>1187.5</ele>
        <time>2026-04-29T06:30:17Z</time>
      </trkpt>
      <trkpt lat="44.93739" lon="4.08064">
        <ele>1187.5</ele>
        <time>2026-04-29T06:30:22Z</time>
      </trkpt>
      <trkpt lat="44.93739" lon="4.08064">
        <ele>1187.5</ele>
        <time>2026-04-29T06:30:27Z</time>
      </trkpt>
      <trkpt lat="44.93739" lon="4.08064">
        <ele>1187.5</ele>
        <time>2026-04-29T06:30:32Z</time>
      </trkpt>
      <trkpt lat="44.93739" lon="4.08064">
        <ele>1187.5</ele>
        <time>2026-04-29T06:30:37Z</time>
      </trkpt>
      <trkpt lat="44.93739" lon="4.08064">
        <ele>1187.5</ele>
        <time>2026-04-29T06:30:42Z</time>
      </trkpt>
      <trkpt lat="44.93739" lon="4.08064">
        <ele>1187.5</ele>
        <time>2026-04-29T06:30:47Z</time>
      </trkpt>
      <trkpt lat="44.93739" lon="4.08064">
        <ele>1187.5</ele>
        <time>2026-04-29T06:30:52Z</time>
      </trkpt>
      <trkpt lat="44.93739" lon="4.08064">
        <ele>1187.5</ele>
        <time>2026-04-29T06:30:57Z</time>
      </trkpt>
      <trkpt lat="44.93739" lon="4.08064">
        <ele>1187.5</ele>
        <time>2026-04-29T06:31:02Z</time>
      </trkpt>
      <trkpt lat="44.93739" lon="4.08064">
        <ele>1187.5</ele>
        <time>2026-04-29T06:31:07Z</time>
      </trkpt>
      <trkpt lat="44.93739" lon="4.08064">
        <ele>1187.5</ele>
        <time>2026-04-29T06:31:12Z</time>
      </trkpt>
      <trkpt lat="44.93739" lon="4.08064">
        <ele>1187.5</ele>
        <time>2026-04-29T06:31:17Z</time>
      </trkpt>
      <trkpt lat="44.93739" lon="4.08064">
        <ele>1187.5</ele>
        <time>2026-04-29T06:31:22Z</time>
      </trkpt>
      <trkpt lat="44.93739" lon="4.08064">
        <ele>1187.5</ele>
        <time>2026-04-29T06:31:27Z</time>
      </trkpt>
      <trkpt lat="44.93739" lon="4.08064">
        <ele>1187.5</ele>
        <time>2026-04-29T06:31:32Z</time>
      </trkpt>
      <trkpt lat="44.93739" lon="4.08064">
        <ele>1187.5</ele>
        <time>2026-04-29T06:31:37Z</time>
      </trkpt>
      <trkpt lat="44.93739" lon="4.08064">
        <ele>1187.5</ele>
        <time>2026-04-29T06:31:42Z</time>
      </trkpt>
      <trkpt lat="44.93739" lon="4.08064">
        <ele>1187.5</ele>
        <time>2026-04-29T06:31:47Z</time>
      </trkpt>
      <trkpt lat="44.93739" lon="4.08064">
        <ele>1187.5</ele>
        <time>2026-04-29T06:31:52Z</time>
      </trkpt>
      <trkpt lat="44.93739" lon="4.08064">
        <ele>1187.5</ele>
        <time>2026-04-29T06:31:57Z</time>
      </trkpt>
      <trkpt lat="44.93739" lon="4.08064">
        <ele>1187.5</ele>
        <time>2026-04-29T06:31:57Z</time>
      </trkpt>
      <trkpt lat="44.93738" lon="4.08063">
        <ele>1187.5</ele>
        <time>2026-04-29T06:32:01Z</time>
      </trkpt>
      <trkpt lat="44.93738" lon="4.08066">
        <ele>1187.5</ele>
        <time>2026-04-29T06:32:06Z</time>
      </trkpt>
      <trkpt lat="44.93738" lon="4.08073">
        <ele>1187.3</ele>
        <time>2026-04-29T06:32:12Z</time>
      </trkpt>
      <trkpt lat="44.93738" lon="4.08081">
        <ele>1187.2</ele>
        <time>2026-04-29T06:32:17Z</time>
      </trkpt>
      <trkpt lat="44.93738" lon="4.08089">
        <ele>1187.1</ele>
        <time>2026-04-29T06:32:22Z</time>
      </trkpt>
      <trkpt lat="44.93737" lon="4.08098">
        <ele>1187.1</ele>
        <time>2026-04-29T06:32:27Z</time>
      </trkpt>
      <trkpt lat="44.93737" lon="4.08106">
        <ele>1187</ele>
        <time>2026-04-29T06:32:32Z</time>
      </trkpt>
      <trkpt lat="44.93737" lon="4.08115">
        <ele>1186.9</ele>
        <time>2026-04-29T06:32:37Z</time>
      </trkpt>
      <trkpt lat="44.93737" lon="4.08124">
        <ele>1186.9</ele>
        <time>2026-04-29T06:32:42Z</time>
      </trkpt>
      <trkpt lat="44.93737" lon="4.08135">
        <ele>1186.8</ele>
        <time>2026-04-29T06:32:47Z</time>
      </trkpt>
      <trkpt lat="44.93736" lon="4.08145">
        <ele>1186.7</ele>
        <time>2026-04-29T06:32:52Z</time>
      </trkpt>
      <trkpt lat="44.93736" lon="4.08155">
        <ele>1186.6</ele>
        <time>2026-04-29T06:32:57Z</time>
      </trkpt>
      <trkpt lat="44.93737" lon="4.08164">
        <ele>1186.6</ele>
        <time>2026-04-29T06:33:02Z</time>
      </trkpt>
      <trkpt lat="44.93737" lon="4.08173">
        <ele>1186.9</ele>
        <time>2026-04-29T06:33:07Z</time>
      </trkpt>
      <trkpt lat="44.93737" lon="4.08181">
        <ele>1187.3</ele>
        <time>2026-04-29T06:33:12Z</time>
      </trkpt>
      <trkpt lat="44.93739" lon="4.08184">
        <ele>1187.7</ele>
        <time>2026-04-29T06:33:17Z</time>
      </trkpt>
      <trkpt lat="44.93737" lon="4.08188">
        <ele>1187.7</ele>
        <time>2026-04-29T06:33:22Z</time>
      </trkpt>
      <trkpt lat="44.93731" lon="4.08193">
        <ele>1187.3</ele>
        <time>2026-04-29T06:33:27Z</time>
      </trkpt>
      <trkpt lat="44.93725" lon="4.08195">
        <ele>1186.8</ele>
        <time>2026-04-29T06:33:32Z</time>
      </trkpt>
      <trkpt lat="44.93719" lon="4.08199">
        <ele>1186.3</ele>
        <time>2026-04-29T06:33:37Z</time>
      </trkpt>
      <trkpt lat="44.93712" lon="4.08203">
        <ele>1185.8</ele>
        <time>2026-04-29T06:33:42Z</time>
      </trkpt>
      <trkpt lat="44.93706" lon="4.08207">
        <ele>1185.4</ele>
        <time>2026-04-29T06:33:47Z</time>
      </trkpt>
      <trkpt lat="44.93701" lon="4.08209">
        <ele>1185</ele>
        <time>2026-04-29T06:33:52Z</time>
      </trkpt>
      <trkpt lat="44.93695" lon="4.08211">
        <ele>1184.5</ele>
        <time>2026-04-29T06:33:57Z</time>
      </trkpt>
      <trkpt lat="44.93688" lon="4.08212">
        <ele>1183.9</ele>
        <time>2026-04-29T06:34:02Z</time>
      </trkpt>
      <trkpt lat="44.93683" lon="4.0821">
        <ele>1183.3</ele>
        <time>2026-04-29T06:34:07Z</time>
      </trkpt>
      <trkpt lat="44.93676" lon="4.08212">
        <ele>1182.7</ele>
        <time>2026-04-29T06:34:12Z</time>
      </trkpt>
      <trkpt lat="44.9367" lon="4.08215">
        <ele>1182.2</ele>
        <time>2026-04-29T06:34:17Z</time>
      </trkpt>
      <trkpt lat="44.93664" lon="4.08216">
        <ele>1181.3</ele>
        <time>2026-04-29T06:34:22Z</time>
      </trkpt>
      <trkpt lat="44.93657" lon="4.08218">
        <ele>1179.6</ele>
        <time>2026-04-29T06:34:27Z</time>
      </trkpt>
      <trkpt lat="44.93652" lon="4.08221">
        <ele>1178.4</ele>
        <time>2026-04-29T06:34:32Z</time>
      </trkpt>
      <trkpt lat="44.93646" lon="4.08225">
        <ele>1177</ele>
        <time>2026-04-29T06:34:37Z</time>
      </trkpt>
      <trkpt lat="44.93639" lon="4.08227">
        <ele>1175.1</ele>
        <time>2026-04-29T06:34:42Z</time>
      </trkpt>
      <trkpt lat="44.93632" lon="4.0823">
        <ele>1173.3</ele>
        <time>2026-04-29T06:34:47Z</time>
      </trkpt>
      <trkpt lat="44.93626" lon="4.08232">
        <ele>1171.7</ele>
        <time>2026-04-29T06:34:52Z</time>
      </trkpt>
      <trkpt lat="44.9362" lon="4.08234">
        <ele>1170</ele>
        <time>2026-04-29T06:34:57Z</time>
      </trkpt>
      <trkpt lat="44.93613" lon="4.08236">
        <ele>1168</ele>
        <time>2026-04-29T06:35:02Z</time>
      </trkpt>
      <trkpt lat="44.93608" lon="4.08242">
        <ele>1166.5</ele>
        <time>2026-04-29T06:35:07Z</time>
      </trkpt>
      <trkpt lat="44.93604" lon="4.08245">
        <ele>1165.3</ele>
        <time>2026-04-29T06:35:12Z</time>
      </trkpt>
      <trkpt lat="44.93597" lon="4.08244">
        <ele>1163.3</ele>
        <time>2026-04-29T06:35:17Z</time>
      </trkpt>
      <trkpt lat="44.93591" lon="4.08245">
        <ele>1161.5</ele>
        <time>2026-04-29T06:35:22Z</time>
      </trkpt>
      <trkpt lat="44.93586" lon="4.0825">
        <ele>1159.8</ele>
        <time>2026-04-29T06:35:27Z</time>
      </trkpt>
      <trkpt lat="44.93581" lon="4.08254">
        <ele>1158.6</ele>
        <time>2026-04-29T06:35:32Z</time>
      </trkpt>
      <trkpt lat="44.93577" lon="4.08259">
        <ele>1157.6</ele>
        <time>2026-04-29T06:35:37Z</time>
      </trkpt>
      <trkpt lat="44.93575" lon="4.08265">
        <ele>1157.6</ele>
        <time>2026-04-29T06:35:42Z</time>
      </trkpt>
      <trkpt lat="44.93574" lon="4.08273">
        <ele>1158.1</ele>
        <time>2026-04-29T06:35:47Z</time>
      </trkpt>
      <trkpt lat="44.93574" lon="4.0828">
        <ele>1158.9</ele>
        <time>2026-04-29T06:35:52Z</time>
      </trkpt>
      <trkpt lat="44.9357" lon="4.08285">
        <ele>1157.9</ele>
        <time>2026-04-29T06:35:57Z</time>
      </trkpt>
      <trkpt lat="44.93569" lon="4.08291">
        <ele>1158.2</ele>
        <time>2026-04-29T06:36:02Z</time>
      </trkpt>
      <trkpt lat="44.93569" lon="4.083">
        <ele>1159.3</ele>
        <time>2026-04-29T06:36:07Z</time>
      </trkpt>
      <trkpt lat="44.93568" lon="4.08309">
        <ele>1159.9</ele>
        <time>2026-04-29T06:36:12Z</time>
      </trkpt>
      <trkpt lat="44.93566" lon="4.08317">
        <ele>1160</ele>
        <time>2026-04-29T06:36:17Z</time>
      </trkpt>
      <trkpt lat="44.93566" lon="4.08322">
        <ele>1160.6</ele>
        <time>2026-04-29T06:36:22Z</time>
      </trkpt>
      <trkpt lat="44.93568" lon="4.08324">
        <ele>1161.7</ele>
        <time>2026-04-29T06:36:27Z</time>
      </trkpt>
      <trkpt lat="44.93568" lon="4.08324">
        <ele>1161.7</ele>
        <time>2026-04-29T06:36:32Z</time>
      </trkpt>
      <trkpt lat="44.93568" lon="4.08324">
        <ele>1161.7</ele>
        <time>2026-04-29T06:36:37Z</time>
      </trkpt>
      <trkpt lat="44.93568" lon="4.08324">
        <ele>1161.7</ele>
        <time>2026-04-29T06:36:42Z</time>
      </trkpt>
      <trkpt lat="44.93568" lon="4.08324">
        <ele>1161.7</ele>
        <time>2026-04-29T06:36:47Z</time>
      </trkpt>
      <trkpt lat="44.93568" lon="4.08324">
        <ele>1161.7</ele>
        <time>2026-04-29T06:36:52Z</time>
      </trkpt>
      <trkpt lat="44.93568" lon="4.08324">
        <ele>1161.7</ele>
        <time>2026-04-29T06:36:57Z</time>
      </trkpt>
      <trkpt lat="44.93568" lon="4.08324">
        <ele>1161.7</ele>
        <time>2026-04-29T06:37:02Z</time>
      </trkpt>
      <trkpt lat="44.93568" lon="4.08324">
        <ele>1161.7</ele>
        <time>2026-04-29T06:37:07Z</time>
      </trkpt>
      <trkpt lat="44.93568" lon="4.08324">
        <ele>1161.7</ele>
        <time>2026-04-29T06:37:12Z</time>
      </trkpt>
      <trkpt lat="44.93568" lon="4.08324">
        <ele>1161.7</ele>
        <time>2026-04-29T06:37:17Z</time>
      </trkpt>
      <trkpt lat="44.93568" lon="4.08324">
        <ele>1161.7</ele>
        <time>2026-04-29T06:37:22Z</time>
      </trkpt>
      <trkpt lat="44.93568" lon="4.08324">
        <ele>1161.7</ele>
        <time>2026-04-29T06:37:27Z</time>
      </trkpt>
      <trkpt lat="44.93568" lon="4.08324">
        <ele>1161.7</ele>
        <time>2026-04-29T06:37:32Z</time>
      </trkpt>
      <trkpt lat="44.93568" lon="4.08324">
        <ele>1161.7</ele>
        <time>2026-04-29T06:37:37Z</time>
      </trkpt>
      <trkpt lat="44.93568" lon="4.08324">
        <ele>1161.7</ele>
        <time>2026-04-29T06:37:42Z</time>
      </trkpt>
      <trkpt lat="44.93568" lon="4.08324">
        <ele>1161.7</ele>
        <time>2026-04-29T06:37:47Z</time>
      </trkpt>
      <trkpt lat="44.93568" lon="4.08324">
        <ele>1161.7</ele>
        <time>2026-04-29T06:37:52Z</time>
      </trkpt>
      <trkpt lat="44.93568" lon="4.08324">
        <ele>1161.7</ele>
        <time>2026-04-29T06:37:57Z</time>
      </trkpt>
      <trkpt lat="44.93568" lon="4.08324">
        <ele>1161.7</ele>
        <time>2026-04-29T06:38:02Z</time>
      </trkpt>
      <trkpt lat="44.93568" lon="4.08324">
        <ele>1161.7</ele>
        <time>2026-04-29T06:38:07Z</time>
      </trkpt>
      <trkpt lat="44.93568" lon="4.08324">
        <ele>1161.7</ele>
        <time>2026-04-29T06:38:12Z</time>
      </trkpt>
      <trkpt lat="44.93568" lon="4.08324">
        <ele>1161.7</ele>
        <time>2026-04-29T06:38:17Z</time>
      </trkpt>
      <trkpt lat="44.93568" lon="4.08324">
        <ele>1161.7</ele>
        <time>2026-04-29T06:38:22Z</time>
      </trkpt>
      <trkpt lat="44.93568" lon="4.08324">
        <ele>1161.7</ele>
        <time>2026-04-29T06:38:27Z</time>
      </trkpt>
      <trkpt lat="44.93568" lon="4.08324">
        <ele>1161.7</ele>
        <time>2026-04-29T06:38:32Z</time>
      </trkpt>
      <trkpt lat="44.93568" lon="4.08324">
        <ele>1161.7</ele>
        <time>2026-04-29T06:38:37Z</time>
      </trkpt>
      <trkpt lat="44.93568" lon="4.08324">
        <ele>1161.7</ele>
        <time>2026-04-29T06:38:42Z</time>
      </trkpt>
      <trkpt lat="44.93568" lon="4.08324">
        <ele>1161.7</ele>
        <time>2026-04-29T06:38:47Z</time>
      </trkpt>
      <trkpt lat="44.93568" lon="4.08324">
        <ele>1161.7</ele>
        <time>2026-04-29T06:38:52Z</time>
      </trkpt>
      <trkpt lat="44.93568" lon="4.08324">
        <ele>1161.7</ele>
        <time>2026-04-29T06:38:57Z</time>
      </trkpt>
      <trkpt lat="44.93568" lon="4.08324">
        <ele>1161.7</ele>
        <time>2026-04-29T06:39:02Z</time>
      </trkpt>
      <trkpt lat="44.93568" lon="4.08324">
        <ele>1161.7</ele>
        <time>2026-04-29T06:39:07Z</time>
      </trkpt>
      <trkpt lat="44.93568" lon="4.08324">
        <ele>1161.7</ele>
        <time>2026-04-29T06:39:12Z</time>
      </trkpt>
      <trkpt lat="44.93568" lon="4.08324">
        <ele>1161.7</ele>
        <time>2026-04-29T06:39:17Z</time>
      </trkpt>
      <trkpt lat="44.93568" lon="4.08324">
        <ele>1161.7</ele>
        <time>2026-04-29T06:39:22Z</time>
      </trkpt>
      <trkpt lat="44.93568" lon="4.08324">
        <ele>1161.7</ele>
        <time>2026-04-29T06:39:27Z</time>
      </trkpt>
      <trkpt lat="44.93568" lon="4.08324">
        <ele>1161.7</ele>
        <time>2026-04-29T06:39:32Z</time>
      </trkpt>
      <trkpt lat="44.93568" lon="4.08324">
        <ele>1161.7</ele>
        <time>2026-04-29T06:39:37Z</time>
      </trkpt>
      <trkpt lat="44.93568" lon="4.08324">
        <ele>1161.7</ele>
        <time>2026-04-29T06:39:42Z</time>
      </trkpt>
      <trkpt lat="44.93568" lon="4.08324">
        <ele>1161.7</ele>
        <time>2026-04-29T06:39:47Z</time>
      </trkpt>
      <trkpt lat="44.93568" lon="4.08324">
        <ele>1161.7</ele>
        <time>2026-04-29T06:39:52Z</time>
      </trkpt>
      <trkpt lat="44.93568" lon="4.08324">
        <ele>1161.7</ele>
        <time>2026-04-29T06:39:57Z</time>
      </trkpt>
      <trkpt lat="44.93568" lon="4.08324">
        <ele>1161.7</ele>
        <time>2026-04-29T06:40:02Z</time>
      </trkpt>
      <trkpt lat="44.93568" lon="4.08324">
        <ele>1161.7</ele>
        <time>2026-04-29T06:40:07Z</time>
      </trkpt>
      <trkpt lat="44.93568" lon="4.08324">
        <ele>1161.7</ele>
        <time>2026-04-29T06:40:12Z</time>
      </trkpt>
      <trkpt lat="44.93568" lon="4.08324">
        <ele>1161.7</ele>
        <time>2026-04-29T06:40:17Z</time>
      </trkpt>
      <trkpt lat="44.93568" lon="4.08324">
        <ele>1161.7</ele>
        <time>2026-04-29T06:40:22Z</time>
      </trkpt>
      <trkpt lat="44.93568" lon="4.08324">
        <ele>1161.7</ele>
        <time>2026-04-29T06:40:27Z</time>
      </trkpt>
      <trkpt lat="44.93568" lon="4.08324">
        <ele>1161.7</ele>
        <time>2026-04-29T06:40:32Z</time>
      </trkpt>
      <trkpt lat="44.93568" lon="4.08324">
        <ele>1161.7</ele>
        <time>2026-04-29T06:40:37Z</time>
      </trkpt>
      <trkpt lat="44.93568" lon="4.08324">
        <ele>1161.7</ele>
        <time>2026-04-29T06:40:42Z</time>
      </trkpt>
      <trkpt lat="44.93568" lon="4.08324">
        <ele>1161.7</ele>
        <time>2026-04-29T06:40:47Z</time>
      </trkpt>
      <trkpt lat="44.93568" lon="4.08324">
        <ele>1161.7</ele>
        <time>2026-04-29T06:40:52Z</time>
      </trkpt>
      <trkpt lat="44.93568" lon="4.08324">
        <ele>1161.7</ele>
        <time>2026-04-29T06:40:57Z</time>
      </trkpt>
      <trkpt lat="44.93568" lon="4.08324">
        <ele>1161.7</ele>
        <time>2026-04-29T06:41:02Z</time>
      </trkpt>
      <trkpt lat="44.93568" lon="4.08324">
        <ele>1161.7</ele>
        <time>2026-04-29T06:41:07Z</time>
      </trkpt>
      <trkpt lat="44.93568" lon="4.08324">
        <ele>1161.7</ele>
        <time>2026-04-29T06:41:12Z</time>
      </trkpt>
      <trkpt lat="44.93568" lon="4.08324">
        <ele>1161.7</ele>
        <time>2026-04-29T06:41:17Z</time>
      </trkpt>
      <trkpt lat="44.93568" lon="4.08324">
        <ele>1161.7</ele>
        <time>2026-04-29T06:41:22Z</time>
      </trkpt>
      <trkpt lat="44.93568" lon="4.08324">
        <ele>1161.7</ele>
        <time>2026-04-29T06:41:27Z</time>
      </trkpt>
      <trkpt lat="44.93568" lon="4.08324">
        <ele>1161.7</ele>
        <time>2026-04-29T06:41:32Z</time>
      </trkpt>
      <trkpt lat="44.93568" lon="4.08324">
        <ele>1161.7</ele>
        <time>2026-04-29T06:41:37Z</time>
      </trkpt>
      <trkpt lat="44.93568" lon="4.08324">
        <ele>1161.7</ele>
        <time>2026-04-29T06:41:42Z</time>
      </trkpt>
      <trkpt lat="44.93568" lon="4.08324">
        <ele>1161.7</ele>
        <time>2026-04-29T06:41:47Z</time>
      </trkpt>
      <trkpt lat="44.93568" lon="4.08324">
        <ele>1161.7</ele>
        <time>2026-04-29T06:41:52Z</time>
      </trkpt>
      <trkpt lat="44.93568" lon="4.08324">
        <ele>1161.7</ele>
        <time>2026-04-29T06:41:57Z</time>
      </trkpt>
      <trkpt lat="44.93568" lon="4.08324">
        <ele>1161.7</ele>
        <time>2026-04-29T06:42:02Z</time>
      </trkpt>
      <trkpt lat="44.93568" lon="4.08324">
        <ele>1161.7</ele>
        <time>2026-04-29T06:42:07Z</time>
      </trkpt>
      <trkpt lat="44.93568" lon="4.08324">
        <ele>1161.7</ele>
        <time>2026-04-29T06:42:12Z</time>
      </trkpt>
      <trkpt lat="44.93562" lon="4.08325">
        <ele>1159.3</ele>
        <time>2026-04-29T06:42:17Z</time>
      </trkpt>
      <trkpt lat="44.93557" lon="4.08326">
        <ele>1157.4</ele>
        <time>2026-04-29T06:42:22Z</time>
      </trkpt>
      <trkpt lat="44.93552" lon="4.08328">
        <ele>1155.6</ele>
        <time>2026-04-29T06:42:27Z</time>
      </trkpt>
      <trkpt lat="44.93546" lon="4.08329">
        <ele>1153.3</ele>
        <time>2026-04-29T06:42:32Z</time>
      </trkpt>
      <trkpt lat="44.93541" lon="4.08329">
        <ele>1151.3</ele>
        <time>2026-04-29T06:42:37Z</time>
      </trkpt>
      <trkpt lat="44.93539" lon="4.08329">
        <ele>1150.4</ele>
        <time>2026-04-29T06:42:42Z</time>
      </trkpt>
      <trkpt lat="44.93539" lon="4.08329">
        <ele>1150.4</ele>
        <time>2026-04-29T06:42:47Z</time>
      </trkpt>
      <trkpt lat="44.93539" lon="4.08329">
        <ele>1150.4</ele>
        <time>2026-04-29T06:42:52Z</time>
      </trkpt>
      <trkpt lat="44.93539" lon="4.08329">
        <ele>1150.4</ele>
        <time>2026-04-29T06:42:57Z</time>
      </trkpt>
      <trkpt lat="44.93539" lon="4.08329">
        <ele>1150.4</ele>
        <time>2026-04-29T06:43:02Z</time>
      </trkpt>
      <trkpt lat="44.93539" lon="4.08329">
        <ele>1150.4</ele>
        <time>2026-04-29T06:43:07Z</time>
      </trkpt>
      <trkpt lat="44.93539" lon="4.08329">
        <ele>1150.4</ele>
        <time>2026-04-29T06:43:12Z</time>
      </trkpt>
      <trkpt lat="44.93539" lon="4.08329">
        <ele>1150.4</ele>
        <time>2026-04-29T06:43:17Z</time>
      </trkpt>
      <trkpt lat="44.93539" lon="4.08329">
        <ele>1150.4</ele>
        <time>2026-04-29T06:43:22Z</time>
      </trkpt>
      <trkpt lat="44.93534" lon="4.08332">
        <ele>1148.7</ele>
        <time>2026-04-29T06:43:27Z</time>
      </trkpt>
      <trkpt lat="44.93531" lon="4.08333">
        <ele>1147.6</ele>
        <time>2026-04-29T06:43:32Z</time>
      </trkpt>
      <trkpt lat="44.9353" lon="4.08333">
        <ele>1147.2</ele>
        <time>2026-04-29T06:43:37Z</time>
      </trkpt>
      <trkpt lat="44.9353" lon="4.08333">
        <ele>1147.2</ele>
        <time>2026-04-29T06:43:42Z</time>
      </trkpt>
      <trkpt lat="44.9353" lon="4.08333">
        <ele>1147.2</ele>
        <time>2026-04-29T06:43:47Z</time>
      </trkpt>
      <trkpt lat="44.9353" lon="4.08333">
        <ele>1147.2</ele>
        <time>2026-04-29T06:43:52Z</time>
      </trkpt>
      <trkpt lat="44.9353" lon="4.08333">
        <ele>1147.2</ele>
        <time>2026-04-29T06:43:57Z</time>
      </trkpt>
      <trkpt lat="44.9353" lon="4.08333">
        <ele>1147.2</ele>
        <time>2026-04-29T06:44:02Z</time>
      </trkpt>
      <trkpt lat="44.9353" lon="4.08333">
        <ele>1147.2</ele>
        <time>2026-04-29T06:44:07Z</time>
      </trkpt>
      <trkpt lat="44.9353" lon="4.08333">
        <ele>1147.2</ele>
        <time>2026-04-29T06:44:12Z</time>
      </trkpt>
      <trkpt lat="44.93535" lon="4.08332">
        <ele>1149.1</ele>
        <time>2026-04-29T06:44:17Z</time>
      </trkpt>
      <trkpt lat="44.93541" lon="4.08336">
        <ele>1151.5</ele>
        <time>2026-04-29T06:44:22Z</time>
      </trkpt>
      <trkpt lat="44.93543" lon="4.08341">
        <ele>1152</ele>
        <time>2026-04-29T06:44:27Z</time>
      </trkpt>
      <trkpt lat="44.93543" lon="4.08347">
        <ele>1151.5</ele>
        <time>2026-04-29T06:44:32Z</time>
      </trkpt>
      <trkpt lat="44.93544" lon="4.08352">
        <ele>1151.6</ele>
        <time>2026-04-29T06:44:37Z</time>
      </trkpt>
      <trkpt lat="44.93544" lon="4.08352">
        <ele>1151.6</ele>
        <time>2026-04-29T06:44:42Z</time>
      </trkpt>
      <trkpt lat="44.93544" lon="4.08352">
        <ele>1151.6</ele>
        <time>2026-04-29T06:44:47Z</time>
      </trkpt>
      <trkpt lat="44.93544" lon="4.08352">
        <ele>1151.6</ele>
        <time>2026-04-29T06:44:52Z</time>
      </trkpt>
      <trkpt lat="44.93544" lon="4.08352">
        <ele>1151.6</ele>
        <time>2026-04-29T06:44:57Z</time>
      </trkpt>
      <trkpt lat="44.93544" lon="4.08352">
        <ele>1151.6</ele>
        <time>2026-04-29T06:45:02Z</time>
      </trkpt>
      <trkpt lat="44.93544" lon="4.08352">
        <ele>1151.6</ele>
        <time>2026-04-29T06:45:07Z</time>
      </trkpt>
      <trkpt lat="44.93543" lon="4.08355">
        <ele>1151</ele>
        <time>2026-04-29T06:45:12Z</time>
      </trkpt>
      <trkpt lat="44.93546" lon="4.08363">
        <ele>1151.6</ele>
        <time>2026-04-29T06:45:17Z</time>
      </trkpt>
      <trkpt lat="44.9355" lon="4.08368">
        <ele>1152.7</ele>
        <time>2026-04-29T06:45:22Z</time>
      </trkpt>
      <trkpt lat="44.93553" lon="4.08377">
        <ele>1153.2</ele>
        <time>2026-04-29T06:45:27Z</time>
      </trkpt>
      <trkpt lat="44.93558" lon="4.08383">
        <ele>1154.6</ele>
        <time>2026-04-29T06:45:32Z</time>
      </trkpt>
      <trkpt lat="44.93561" lon="4.0839">
        <ele>1155.2</ele>
        <time>2026-04-29T06:45:37Z</time>
      </trkpt>
      <trkpt lat="44.93565" lon="4.08396">
        <ele>1156.2</ele>
        <time>2026-04-29T06:45:42Z</time>
      </trkpt>
      <trkpt lat="44.93571" lon="4.08402">
        <ele>1157.9</ele>
        <time>2026-04-29T06:45:47Z</time>
      </trkpt>
      <trkpt lat="44.93576" lon="4.08409">
        <ele>1159.1</ele>
        <time>2026-04-29T06:45:52Z</time>
      </trkpt>
      <trkpt lat="44.93582" lon="4.08416">
        <ele>1160.6</ele>
        <time>2026-04-29T06:45:57Z</time>
      </trkpt>
      <trkpt lat="44.93586" lon="4.08423">
        <ele>1160.8</ele>
        <time>2026-04-29T06:46:02Z</time>
      </trkpt>
      <trkpt lat="44.93589" lon="4.08432">
        <ele>1160.2</ele>
        <time>2026-04-29T06:46:07Z</time>
      </trkpt>
      <trkpt lat="44.93591" lon="4.0844">
        <ele>1159.6</ele>
        <time>2026-04-29T06:46:12Z</time>
      </trkpt>
      <trkpt lat="44.93594" lon="4.08449">
        <ele>1159.1</ele>
        <time>2026-04-29T06:46:17Z</time>
      </trkpt>
      <trkpt lat="44.93597" lon="4.08455">
        <ele>1159.1</ele>
        <time>2026-04-29T06:46:22Z</time>
      </trkpt>
      <trkpt lat="44.93601" lon="4.08464">
        <ele>1159</ele>
        <time>2026-04-29T06:46:27Z</time>
      </trkpt>
      <trkpt lat="44.93604" lon="4.08473">
        <ele>1158.7</ele>
        <time>2026-04-29T06:46:32Z</time>
      </trkpt>
      <trkpt lat="44.93608" lon="4.08482">
        <ele>1158.6</ele>
        <time>2026-04-29T06:46:37Z</time>
      </trkpt>
      <trkpt lat="44.93612" lon="4.08489">
        <ele>1159</ele>
        <time>2026-04-29T06:46:42Z</time>
      </trkpt>
      <trkpt lat="44.93618" lon="4.08499">
        <ele>1159.6</ele>
        <time>2026-04-29T06:46:47Z</time>
      </trkpt>
      <trkpt lat="44.93623" lon="4.08506">
        <ele>1161.2</ele>
        <time>2026-04-29T06:46:52Z</time>
      </trkpt>
      <trkpt lat="44.93628" lon="4.0851">
        <ele>1163.1</ele>
        <time>2026-04-29T06:46:57Z</time>
      </trkpt>
      <trkpt lat="44.93632" lon="4.08518">
        <ele>1164.5</ele>
        <time>2026-04-29T06:47:02Z</time>
      </trkpt>
      <trkpt lat="44.93637" lon="4.08524">
        <ele>1166.5</ele>
        <time>2026-04-29T06:47:07Z</time>
      </trkpt>
      <trkpt lat="44.9364" lon="4.08529">
        <ele>1167.7</ele>
        <time>2026-04-29T06:47:12Z</time>
      </trkpt>
      <trkpt lat="44.93641" lon="4.08536">
        <ele>1168.1</ele>
        <time>2026-04-29T06:47:17Z</time>
      </trkpt>
      <trkpt lat="44.93639" lon="4.08543">
        <ele>1167.4</ele>
        <time>2026-04-29T06:47:22Z</time>
      </trkpt>
      <trkpt lat="44.93636" lon="4.08549">
        <ele>1166.2</ele>
        <time>2026-04-29T06:47:27Z</time>
      </trkpt>
      <trkpt lat="44.93632" lon="4.08554">
        <ele>1164.6</ele>
        <time>2026-04-29T06:47:32Z</time>
      </trkpt>
      <trkpt lat="44.93627" lon="4.0856">
        <ele>1162.5</ele>
        <time>2026-04-29T06:47:37Z</time>
      </trkpt>
      <trkpt lat="44.93623" lon="4.08566">
        <ele>1160.8</ele>
        <time>2026-04-29T06:47:42Z</time>
      </trkpt>
      <trkpt lat="44.93619" lon="4.08573">
        <ele>1159</ele>
        <time>2026-04-29T06:47:47Z</time>
      </trkpt>
      <trkpt lat="44.93614" lon="4.0858">
        <ele>1156.7</ele>
        <time>2026-04-29T06:47:52Z</time>
      </trkpt>
      <trkpt lat="44.93611" lon="4.08588">
        <ele>1155.4</ele>
        <time>2026-04-29T06:47:57Z</time>
      </trkpt>
      <trkpt lat="44.93609" lon="4.08595">
        <ele>1154.6</ele>
        <time>2026-04-29T06:48:02Z</time>
      </trkpt>
      <trkpt lat="44.93609" lon="4.08605">
        <ele>1154.8</ele>
        <time>2026-04-29T06:48:07Z</time>
      </trkpt>
      <trkpt lat="44.93606" lon="4.08614">
        <ele>1153.6</ele>
        <time>2026-04-29T06:48:12Z</time>
      </trkpt>
      <trkpt lat="44.93603" lon="4.08624">
        <ele>1152.3</ele>
        <time>2026-04-29T06:48:17Z</time>
      </trkpt>
      <trkpt lat="44.93602" lon="4.08634">
        <ele>1152</ele>
        <time>2026-04-29T06:48:22Z</time>
      </trkpt>
      <trkpt lat="44.93602" lon="4.08643">
        <ele>1152.1</ele>
        <time>2026-04-29T06:48:27Z</time>
      </trkpt>
      <trkpt lat="44.93602" lon="4.08651">
        <ele>1152.2</ele>
        <time>2026-04-29T06:48:32Z</time>
      </trkpt>
      <trkpt lat="44.93599" lon="4.08661">
        <ele>1150.8</ele>
        <time>2026-04-29T06:48:37Z</time>
      </trkpt>
      <trkpt lat="44.93599" lon="4.08671">
        <ele>1151.2</ele>
        <time>2026-04-29T06:48:42Z</time>
      </trkpt>
      <trkpt lat="44.93597" lon="4.08681">
        <ele>1150.9</ele>
        <time>2026-04-29T06:48:47Z</time>
      </trkpt>
      <trkpt lat="44.93595" lon="4.08689">
        <ele>1150.4</ele>
        <time>2026-04-29T06:48:52Z</time>
      </trkpt>
      <trkpt lat="44.93594" lon="4.08699">
        <ele>1150.6</ele>
        <time>2026-04-29T06:48:57Z</time>
      </trkpt>
      <trkpt lat="44.93592" lon="4.08708">
        <ele>1150.2</ele>
        <time>2026-04-29T06:49:02Z</time>
      </trkpt>
      <trkpt lat="44.93591" lon="4.08717">
        <ele>1150.4</ele>
        <time>2026-04-29T06:49:07Z</time>
      </trkpt>
      <trkpt lat="44.9359" lon="4.08724">
        <ele>1150.4</ele>
        <time>2026-04-29T06:49:12Z</time>
      </trkpt>
      <trkpt lat="44.9359" lon="4.08731">
        <ele>1150.9</ele>
        <time>2026-04-29T06:49:17Z</time>
      </trkpt>
      <trkpt lat="44.93589" lon="4.08738">
        <ele>1150.9</ele>
        <time>2026-04-29T06:49:22Z</time>
      </trkpt>
      <trkpt lat="44.93587" lon="4.08746">
        <ele>1150.5</ele>
        <time>2026-04-29T06:49:27Z</time>
      </trkpt>
      <trkpt lat="44.93586" lon="4.08753">
        <ele>1150.4</ele>
        <time>2026-04-29T06:49:32Z</time>
      </trkpt>
      <trkpt lat="44.93586" lon="4.08761">
        <ele>1150.8</ele>
        <time>2026-04-29T06:49:37Z</time>
      </trkpt>
      <trkpt lat="44.93587" lon="4.08768">
        <ele>1151.6</ele>
        <time>2026-04-29T06:49:42Z</time>
      </trkpt>
      <trkpt lat="44.93587" lon="4.08777">
        <ele>1152</ele>
        <time>2026-04-29T06:49:47Z</time>
      </trkpt>
      <trkpt lat="44.93589" lon="4.08785">
        <ele>1153.2</ele>
        <time>2026-04-29T06:49:52Z</time>
      </trkpt>
      <trkpt lat="44.9359" lon="4.08794">
        <ele>1154.1</ele>
        <time>2026-04-29T06:49:57Z</time>
      </trkpt>
      <trkpt lat="44.93591" lon="4.08804">
        <ele>1154.9</ele>
        <time>2026-04-29T06:50:02Z</time>
      </trkpt>
      <trkpt lat="44.93591" lon="4.08817">
        <ele>1155.5</ele>
        <time>2026-04-29T06:50:07Z</time>
      </trkpt>
      <trkpt lat="44.93591" lon="4.08827">
        <ele>1155.9</ele>
        <time>2026-04-29T06:50:12Z</time>
      </trkpt>
      <trkpt lat="44.93591" lon="4.08836">
        <ele>1156</ele>
        <time>2026-04-29T06:50:17Z</time>
      </trkpt>
      <trkpt lat="44.93592" lon="4.08846">
        <ele>1156.1</ele>
        <time>2026-04-29T06:50:22Z</time>
      </trkpt>
      <trkpt lat="44.93593" lon="4.08855">
        <ele>1156.2</ele>
        <time>2026-04-29T06:50:27Z</time>
      </trkpt>
      <trkpt lat="44.93593" lon="4.08862">
        <ele>1156</ele>
        <time>2026-04-29T06:50:32Z</time>
      </trkpt>
      <trkpt lat="44.93594" lon="4.08869">
        <ele>1156.2</ele>
        <time>2026-04-29T06:50:37Z</time>
      </trkpt>
      <trkpt lat="44.93594" lon="4.08876">
        <ele>1155.9</ele>
        <time>2026-04-29T06:50:42Z</time>
      </trkpt>
      <trkpt lat="44.93596" lon="4.08884">
        <ele>1156.5</ele>
        <time>2026-04-29T06:50:47Z</time>
      </trkpt>
      <trkpt lat="44.93597" lon="4.08889">
        <ele>1156.8</ele>
        <time>2026-04-29T06:50:52Z</time>
      </trkpt>
      <trkpt lat="44.93597" lon="4.08896">
        <ele>1156.6</ele>
        <time>2026-04-29T06:50:57Z</time>
      </trkpt>
      <trkpt lat="44.93598" lon="4.08905">
        <ele>1156.7</ele>
        <time>2026-04-29T06:51:02Z</time>
      </trkpt>
      <trkpt lat="44.936" lon="4.08913">
        <ele>1157.3</ele>
        <time>2026-04-29T06:51:07Z</time>
      </trkpt>
      <trkpt lat="44.93603" lon="4.08922">
        <ele>1158.2</ele>
        <time>2026-04-29T06:51:12Z</time>
      </trkpt>
      <trkpt lat="44.93606" lon="4.08928">
        <ele>1159.1</ele>
        <time>2026-04-29T06:51:17Z</time>
      </trkpt>
      <trkpt lat="44.93608" lon="4.08939">
        <ele>1159.4</ele>
        <time>2026-04-29T06:51:22Z</time>
      </trkpt>
      <trkpt lat="44.93609" lon="4.0895">
        <ele>1159.2</ele>
        <time>2026-04-29T06:51:27Z</time>
      </trkpt>
      <trkpt lat="44.9361" lon="4.0896">
        <ele>1159.1</ele>
        <time>2026-04-29T06:51:32Z</time>
      </trkpt>
      <trkpt lat="44.93611" lon="4.08967">
        <ele>1159.1</ele>
        <time>2026-04-29T06:51:37Z</time>
      </trkpt>
      <trkpt lat="44.9361" lon="4.0897">
        <ele>1158.5</ele>
        <time>2026-04-29T06:51:42Z</time>
      </trkpt>
      <trkpt lat="44.9361" lon="4.0897">
        <ele>1158.5</ele>
        <time>2026-04-29T06:51:47Z</time>
      </trkpt>
      <trkpt lat="44.93613" lon="4.08978">
        <ele>1159.4</ele>
        <time>2026-04-29T06:51:52Z</time>
      </trkpt>
      <trkpt lat="44.93614" lon="4.08987">
        <ele>1159.3</ele>
        <time>2026-04-29T06:51:57Z</time>
      </trkpt>
      <trkpt lat="44.93615" lon="4.08997">
        <ele>1159.2</ele>
        <time>2026-04-29T06:52:02Z</time>
      </trkpt>
      <trkpt lat="44.93616" lon="4.09007">
        <ele>1159.1</ele>
        <time>2026-04-29T06:52:07Z</time>
      </trkpt>
      <trkpt lat="44.93618" lon="4.09015">
        <ele>1159.6</ele>
        <time>2026-04-29T06:52:12Z</time>
      </trkpt>
      <trkpt lat="44.93619" lon="4.09025">
        <ele>1159.5</ele>
        <time>2026-04-29T06:52:17Z</time>
      </trkpt>
      <trkpt lat="44.93619" lon="4.09033">
        <ele>1159</ele>
        <time>2026-04-29T06:52:22Z</time>
      </trkpt>
      <trkpt lat="44.93621" lon="4.0904">
        <ele>1159.5</ele>
        <time>2026-04-29T06:52:27Z</time>
      </trkpt>
      <trkpt lat="44.93624" lon="4.09048">
        <ele>1160.5</ele>
        <time>2026-04-29T06:52:32Z</time>
      </trkpt>
      <trkpt lat="44.93627" lon="4.09054">
        <ele>1161.5</ele>
        <time>2026-04-29T06:52:37Z</time>
      </trkpt>
      <trkpt lat="44.93631" lon="4.0906">
        <ele>1163</ele>
        <time>2026-04-29T06:52:42Z</time>
      </trkpt>
      <trkpt lat="44.93635" lon="4.09064">
        <ele>1164.6</ele>
        <time>2026-04-29T06:52:47Z</time>
      </trkpt>
      <trkpt lat="44.93641" lon="4.09066">
        <ele>1167.2</ele>
        <time>2026-04-29T06:52:52Z</time>
      </trkpt>
      <trkpt lat="44.93647" lon="4.09069">
        <ele>1169.8</ele>
        <time>2026-04-29T06:52:57Z</time>
      </trkpt>
      <trkpt lat="44.93654" lon="4.09069">
        <ele>1172.9</ele>
        <time>2026-04-29T06:53:02Z</time>
      </trkpt>
      <trkpt lat="44.9366" lon="4.0907">
        <ele>1175.6</ele>
        <time>2026-04-29T06:53:07Z</time>
      </trkpt>
      <trkpt lat="44.93667" lon="4.09072">
        <ele>1178.6</ele>
        <time>2026-04-29T06:53:12Z</time>
      </trkpt>
      <trkpt lat="44.93671" lon="4.09074">
        <ele>1179.8</ele>
        <time>2026-04-29T06:53:17Z</time>
      </trkpt>
      <trkpt lat="44.93672" lon="4.09079">
        <ele>1179.9</ele>
        <time>2026-04-29T06:53:22Z</time>
      </trkpt>
      <trkpt lat="44.93674" lon="4.09085">
        <ele>1180.2</ele>
        <time>2026-04-29T06:53:27Z</time>
      </trkpt>
      <trkpt lat="44.93676" lon="4.09093">
        <ele>1180.5</ele>
        <time>2026-04-29T06:53:32Z</time>
      </trkpt>
      <trkpt lat="44.93676" lon="4.09097">
        <ele>1180.3</ele>
        <time>2026-04-29T06:53:37Z</time>
      </trkpt>
      <trkpt lat="44.93678" lon="4.09096">
        <ele>1181</ele>
        <time>2026-04-29T06:53:42Z</time>
      </trkpt>
      <trkpt lat="44.93683" lon="4.09094">
        <ele>1182.7</ele>
        <time>2026-04-29T06:53:47Z</time>
      </trkpt>
      <trkpt lat="44.93688" lon="4.0909">
        <ele>1184.4</ele>
        <time>2026-04-29T06:53:52Z</time>
      </trkpt>
      <trkpt lat="44.93695" lon="4.09085">
        <ele>1186.8</ele>
        <time>2026-04-29T06:53:57Z</time>
      </trkpt>
      <trkpt lat="44.937" lon="4.09081">
        <ele>1188.5</ele>
        <time>2026-04-29T06:54:02Z</time>
      </trkpt>
      <trkpt lat="44.93707" lon="4.09074">
        <ele>1190.9</ele>
        <time>2026-04-29T06:54:07Z</time>
      </trkpt>
      <trkpt lat="44.93714" lon="4.0907">
        <ele>1193.1</ele>
        <time>2026-04-29T06:54:12Z</time>
      </trkpt>
      <trkpt lat="44.93719" lon="4.09068">
        <ele>1194.7</ele>
        <time>2026-04-29T06:54:17Z</time>
      </trkpt>
      <trkpt lat="44.93724" lon="4.09068">
        <ele>1196.2</ele>
        <time>2026-04-29T06:54:22Z</time>
      </trkpt>
      <trkpt lat="44.93729" lon="4.09069">
        <ele>1197.8</ele>
        <time>2026-04-29T06:54:27Z</time>
      </trkpt>
      <trkpt lat="44.93734" lon="4.0907">
        <ele>1199.3</ele>
        <time>2026-04-29T06:54:32Z</time>
      </trkpt>
      <trkpt lat="44.93739" lon="4.09072">
        <ele>1200.8</ele>
        <time>2026-04-29T06:54:37Z</time>
      </trkpt>
      <trkpt lat="44.93744" lon="4.09074">
        <ele>1202.3</ele>
        <time>2026-04-29T06:54:42Z</time>
      </trkpt>
      <trkpt lat="44.9375" lon="4.09077">
        <ele>1204.1</ele>
        <time>2026-04-29T06:54:47Z</time>
      </trkpt>
      <trkpt lat="44.93757" lon="4.09078">
        <ele>1204.8</ele>
        <time>2026-04-29T06:54:52Z</time>
      </trkpt>
      <trkpt lat="44.93763" lon="4.09077">
        <ele>1205.4</ele>
        <time>2026-04-29T06:54:57Z</time>
      </trkpt>
      <trkpt lat="44.93768" lon="4.09076">
        <ele>1205.9</ele>
        <time>2026-04-29T06:55:02Z</time>
      </trkpt>
      <trkpt lat="44.93774" lon="4.09075">
        <ele>1206.5</ele>
        <time>2026-04-29T06:55:07Z</time>
      </trkpt>
      <trkpt lat="44.93781" lon="4.09075">
        <ele>1207.3</ele>
        <time>2026-04-29T06:55:12Z</time>
      </trkpt>
      <trkpt lat="44.93786" lon="4.09074">
        <ele>1207.8</ele>
        <time>2026-04-29T06:55:17Z</time>
      </trkpt>
      <trkpt lat="44.9379" lon="4.09072">
        <ele>1208.1</ele>
        <time>2026-04-29T06:55:22Z</time>
      </trkpt>
      <trkpt lat="44.93795" lon="4.09072">
        <ele>1208.6</ele>
        <time>2026-04-29T06:55:27Z</time>
      </trkpt>
      <trkpt lat="44.93795" lon="4.09072">
        <ele>1208.6</ele>
        <time>2026-04-29T06:55:32Z</time>
      </trkpt>
      <trkpt lat="44.93795" lon="4.09072">
        <ele>1208.6</ele>
        <time>2026-04-29T06:55:37Z</time>
      </trkpt>
      <trkpt lat="44.93805" lon="4.09074">
        <ele>1209.7</ele>
        <time>2026-04-29T06:55:42Z</time>
      </trkpt>
      <trkpt lat="44.93813" lon="4.09075">
        <ele>1210.5</ele>
        <time>2026-04-29T06:55:47Z</time>
      </trkpt>
      <trkpt lat="44.93822" lon="4.09076">
        <ele>1211.5</ele>
        <time>2026-04-29T06:55:52Z</time>
      </trkpt>
      <trkpt lat="44.93829" lon="4.09076">
        <ele>1212.2</ele>
        <time>2026-04-29T06:55:57Z</time>
      </trkpt>
      <trkpt lat="44.93835" lon="4.09076">
        <ele>1212.6</ele>
        <time>2026-04-29T06:56:02Z</time>
      </trkpt>
      <trkpt lat="44.9384" lon="4.09076">
        <ele>1212.7</ele>
        <time>2026-04-29T06:56:07Z</time>
      </trkpt>
      <trkpt lat="44.93845" lon="4.09075">
        <ele>1212.6</ele>
        <time>2026-04-29T06:56:12Z</time>
      </trkpt>
      <trkpt lat="44.93853" lon="4.09075">
        <ele>1212.6</ele>
        <time>2026-04-29T06:56:17Z</time>
      </trkpt>
      <trkpt lat="44.9386" lon="4.09075">
        <ele>1212.6</ele>
        <time>2026-04-29T06:56:22Z</time>
      </trkpt>
      <trkpt lat="44.93868" lon="4.09075">
        <ele>1212.6</ele>
        <time>2026-04-29T06:56:27Z</time>
      </trkpt>
      <trkpt lat="44.93874" lon="4.09075">
        <ele>1212.6</ele>
        <time>2026-04-29T06:56:32Z</time>
      </trkpt>
      <trkpt lat="44.93879" lon="4.09074">
        <ele>1212.6</ele>
        <time>2026-04-29T06:56:37Z</time>
      </trkpt>
      <trkpt lat="44.93884" lon="4.09073">
        <ele>1212.6</ele>
        <time>2026-04-29T06:56:42Z</time>
      </trkpt>
      <trkpt lat="44.9389" lon="4.09073">
        <ele>1212.6</ele>
        <time>2026-04-29T06:56:47Z</time>
      </trkpt>
      <trkpt lat="44.93897" lon="4.09075">
        <ele>1212.7</ele>
        <time>2026-04-29T06:56:52Z</time>
      </trkpt>
      <trkpt lat="44.93904" lon="4.09075">
        <ele>1212.7</ele>
        <time>2026-04-29T06:56:57Z</time>
      </trkpt>
      <trkpt lat="44.93911" lon="4.09074">
        <ele>1212.7</ele>
        <time>2026-04-29T06:57:02Z</time>
      </trkpt>
      <trkpt lat="44.93917" lon="4.09073">
        <ele>1212.6</ele>
        <time>2026-04-29T06:57:07Z</time>
      </trkpt>
      <trkpt lat="44.93923" lon="4.09072">
        <ele>1212.7</ele>
        <time>2026-04-29T06:57:12Z</time>
      </trkpt>
      <trkpt lat="44.93931" lon="4.09073">
        <ele>1213</ele>
        <time>2026-04-29T06:57:17Z</time>
      </trkpt>
      <trkpt lat="44.9394" lon="4.09071">
        <ele>1213.1</ele>
        <time>2026-04-29T06:57:22Z</time>
      </trkpt>
      <trkpt lat="44.93947" lon="4.09069">
        <ele>1213.1</ele>
        <time>2026-04-29T06:57:27Z</time>
      </trkpt>
      <trkpt lat="44.93954" lon="4.09069">
        <ele>1213.3</ele>
        <time>2026-04-29T06:57:32Z</time>
      </trkpt>
      <trkpt lat="44.9396" lon="4.0907">
        <ele>1213.5</ele>
        <time>2026-04-29T06:57:37Z</time>
      </trkpt>
      <trkpt lat="44.93964" lon="4.09069">
        <ele>1213.5</ele>
        <time>2026-04-29T06:57:42Z</time>
      </trkpt>
      <trkpt lat="44.9397" lon="4.09067">
        <ele>1213.6</ele>
        <time>2026-04-29T06:57:47Z</time>
      </trkpt>
      <trkpt lat="44.93975" lon="4.09065">
        <ele>1213.6</ele>
        <time>2026-04-29T06:57:52Z</time>
      </trkpt>
      <trkpt lat="44.93983" lon="4.09063">
        <ele>1213.7</ele>
        <time>2026-04-29T06:57:57Z</time>
      </trkpt>
      <trkpt lat="44.93992" lon="4.09064">
        <ele>1213.9</ele>
        <time>2026-04-29T06:58:02Z</time>
      </trkpt>
      <trkpt lat="44.94004" lon="4.09065">
        <ele>1214.4</ele>
        <time>2026-04-29T06:58:07Z</time>
      </trkpt>
      <trkpt lat="44.94012" lon="4.09066">
        <ele>1215</ele>
        <time>2026-04-29T06:58:12Z</time>
      </trkpt>
      <trkpt lat="44.94021" lon="4.09066">
        <ele>1215.6</ele>
        <time>2026-04-29T06:58:17Z</time>
      </trkpt>
      <trkpt lat="44.9403" lon="4.09064">
        <ele>1216.1</ele>
        <time>2026-04-29T06:58:22Z</time>
      </trkpt>
      <trkpt lat="44.94038" lon="4.09061">
        <ele>1216.5</ele>
        <time>2026-04-29T06:58:27Z</time>
      </trkpt>
      <trkpt lat="44.94044" lon="4.0906">
        <ele>1216.9</ele>
        <time>2026-04-29T06:58:32Z</time>
      </trkpt>
      <trkpt lat="44.94054" lon="4.0906">
        <ele>1217.6</ele>
        <time>2026-04-29T06:58:37Z</time>
      </trkpt>
      <trkpt lat="44.94062" lon="4.09062">
        <ele>1218.2</ele>
        <time>2026-04-29T06:58:42Z</time>
      </trkpt>
      <trkpt lat="44.94069" lon="4.09066">
        <ele>1219</ele>
        <time>2026-04-29T06:58:47Z</time>
      </trkpt>
      <trkpt lat="44.9408" lon="4.09066">
        <ele>1219.7</ele>
        <time>2026-04-29T06:58:52Z</time>
      </trkpt>
      <trkpt lat="44.9408" lon="4.09062">
        <ele>1219.5</ele>
        <time>2026-04-29T06:58:57Z</time>
      </trkpt>
      <trkpt lat="44.94084" lon="4.09057">
        <ele>1219.4</ele>
        <time>2026-04-29T06:59:02Z</time>
      </trkpt>
      <trkpt lat="44.94091" lon="4.09057">
        <ele>1219.4</ele>
        <time>2026-04-29T06:59:07Z</time>
      </trkpt>
      <trkpt lat="44.94098" lon="4.09059">
        <ele>1219.4</ele>
        <time>2026-04-29T06:59:12Z</time>
      </trkpt>
      <trkpt lat="44.94104" lon="4.09063">
        <ele>1219.5</ele>
        <time>2026-04-29T06:59:17Z</time>
      </trkpt>
      <trkpt lat="44.9411" lon="4.09064">
        <ele>1219.5</ele>
        <time>2026-04-29T06:59:22Z</time>
      </trkpt>
      <trkpt lat="44.94117" lon="4.09063">
        <ele>1219.4</ele>
        <time>2026-04-29T06:59:27Z</time>
      </trkpt>
      <trkpt lat="44.94124" lon="4.09065">
        <ele>1219.4</ele>
        <time>2026-04-29T06:59:32Z</time>
      </trkpt>
      <trkpt lat="44.94131" lon="4.09069">
        <ele>1219.4</ele>
        <time>2026-04-29T06:59:37Z</time>
      </trkpt>
      <trkpt lat="44.94137" lon="4.09071">
        <ele>1219.4</ele>
        <time>2026-04-29T06:59:42Z</time>
      </trkpt>
      <trkpt lat="44.94142" lon="4.09074">
        <ele>1219.3</ele>
        <time>2026-04-29T06:59:47Z</time>
      </trkpt>
      <trkpt lat="44.9415" lon="4.09078">
        <ele>1219.3</ele>
        <time>2026-04-29T06:59:52Z</time>
      </trkpt>
      <trkpt lat="44.94159" lon="4.09081">
        <ele>1219.1</ele>
        <time>2026-04-29T06:59:57Z</time>
      </trkpt>
      <trkpt lat="44.94168" lon="4.09085">
        <ele>1219</ele>
        <time>2026-04-29T07:00:02Z</time>
      </trkpt>
      <trkpt lat="44.94176" lon="4.09087">
        <ele>1218.8</ele>
        <time>2026-04-29T07:00:07Z</time>
      </trkpt>
      <trkpt lat="44.94183" lon="4.09088">
        <ele>1218.6</ele>
        <time>2026-04-29T07:00:12Z</time>
      </trkpt>
      <trkpt lat="44.94189" lon="4.09089">
        <ele>1218.4</ele>
        <time>2026-04-29T07:00:17Z</time>
      </trkpt>
      <trkpt lat="44.94196" lon="4.09088">
        <ele>1218.3</ele>
        <time>2026-04-29T07:00:22Z</time>
      </trkpt>
      <trkpt lat="44.94202" lon="4.09088">
        <ele>1218.1</ele>
        <time>2026-04-29T07:00:27Z</time>
      </trkpt>
      <trkpt lat="44.94209" lon="4.09089">
        <ele>1217.9</ele>
        <time>2026-04-29T07:00:32Z</time>
      </trkpt>
      <trkpt lat="44.94216" lon="4.0909">
        <ele>1217.7</ele>
        <time>2026-04-29T07:00:37Z</time>
      </trkpt>
      <trkpt lat="44.94223" lon="4.09089">
        <ele>1217.6</ele>
        <time>2026-04-29T07:00:42Z</time>
      </trkpt>
      <trkpt lat="44.94228" lon="4.09088">
        <ele>1217.4</ele>
        <time>2026-04-29T07:00:47Z</time>
      </trkpt>
      <trkpt lat="44.94234" lon="4.09084">
        <ele>1217.4</ele>
        <time>2026-04-29T07:00:52Z</time>
      </trkpt>
      <trkpt lat="44.94242" lon="4.09079">
        <ele>1217.3</ele>
        <time>2026-04-29T07:00:57Z</time>
      </trkpt>
      <trkpt lat="44.94248" lon="4.09073">
        <ele>1217.3</ele>
        <time>2026-04-29T07:01:02Z</time>
      </trkpt>
      <trkpt lat="44.94255" lon="4.09067">
        <ele>1217.3</ele>
        <time>2026-04-29T07:01:07Z</time>
      </trkpt>
      <trkpt lat="44.9426" lon="4.09058">
        <ele>1217.5</ele>
        <time>2026-04-29T07:01:12Z</time>
      </trkpt>
      <trkpt lat="44.94265" lon="4.0905">
        <ele>1217.6</ele>
        <time>2026-04-29T07:01:17Z</time>
      </trkpt>
      <trkpt lat="44.9427" lon="4.0904">
        <ele>1217.8</ele>
        <time>2026-04-29T07:01:22Z</time>
      </trkpt>
      <trkpt lat="44.94275" lon="4.09032">
        <ele>1217.9</ele>
        <time>2026-04-29T07:01:27Z</time>
      </trkpt>
      <trkpt lat="44.9428" lon="4.09025">
        <ele>1218</ele>
        <time>2026-04-29T07:01:32Z</time>
      </trkpt>
      <trkpt lat="44.94284" lon="4.09018">
        <ele>1218.2</ele>
        <time>2026-04-29T07:01:37Z</time>
      </trkpt>
      <trkpt lat="44.94289" lon="4.09011">
        <ele>1218.3</ele>
        <time>2026-04-29T07:01:42Z</time>
      </trkpt>
      <trkpt lat="44.94293" lon="4.09002">
        <ele>1218.4</ele>
        <time>2026-04-29T07:01:47Z</time>
      </trkpt>
      <trkpt lat="44.94297" lon="4.08994">
        <ele>1218.3</ele>
        <time>2026-04-29T07:01:52Z</time>
      </trkpt>
      <trkpt lat="44.94301" lon="4.08986">
        <ele>1218.2</ele>
        <time>2026-04-29T07:01:57Z</time>
      </trkpt>
      <trkpt lat="44.94306" lon="4.08977">
        <ele>1218</ele>
        <time>2026-04-29T07:02:02Z</time>
      </trkpt>
      <trkpt lat="44.94312" lon="4.08968">
        <ele>1217.8</ele>
        <time>2026-04-29T07:02:07Z</time>
      </trkpt>
      <trkpt lat="44.94317" lon="4.08959">
        <ele>1217.6</ele>
        <time>2026-04-29T07:02:12Z</time>
      </trkpt>
      <trkpt lat="44.94323" lon="4.08952">
        <ele>1217.5</ele>
        <time>2026-04-29T07:02:17Z</time>
      </trkpt>
      <trkpt lat="44.94329" lon="4.08945">
        <ele>1217.4</ele>
        <time>2026-04-29T07:02:22Z</time>
      </trkpt>
      <trkpt lat="44.94334" lon="4.08937">
        <ele>1217.2</ele>
        <time>2026-04-29T07:02:27Z</time>
      </trkpt>
      <trkpt lat="44.94342" lon="4.08929">
        <ele>1216.5</ele>
        <time>2026-04-29T07:02:32Z</time>
      </trkpt>
      <trkpt lat="44.9435" lon="4.0892">
        <ele>1215.8</ele>
        <time>2026-04-29T07:02:37Z</time>
      </trkpt>
      <trkpt lat="44.94356" lon="4.08912">
        <ele>1215.1</ele>
        <time>2026-04-29T07:02:42Z</time>
      </trkpt>
      <trkpt lat="44.94361" lon="4.08905">
        <ele>1214.4</ele>
        <time>2026-04-29T07:02:47Z</time>
      </trkpt>
      <trkpt lat="44.94367" lon="4.08898">
        <ele>1213.5</ele>
        <time>2026-04-29T07:02:52Z</time>
      </trkpt>
      <trkpt lat="44.94372" lon="4.08892">
        <ele>1212.9</ele>
        <time>2026-04-29T07:02:57Z</time>
      </trkpt>
      <trkpt lat="44.94374" lon="4.08884">
        <ele>1212.3</ele>
        <time>2026-04-29T07:03:02Z</time>
      </trkpt>
      <trkpt lat="44.94376" lon="4.08878">
        <ele>1211.8</ele>
        <time>2026-04-29T07:03:07Z</time>
      </trkpt>
      <trkpt lat="44.94381" lon="4.0887">
        <ele>1211.1</ele>
        <time>2026-04-29T07:03:12Z</time>
      </trkpt>
      <trkpt lat="44.94386" lon="4.08862">
        <ele>1210.3</ele>
        <time>2026-04-29T07:03:17Z</time>
      </trkpt>
      <trkpt lat="44.94389" lon="4.08855">
        <ele>1209.8</ele>
        <time>2026-04-29T07:03:22Z</time>
      </trkpt>
      <trkpt lat="44.94394" lon="4.08851">
        <ele>1209.3</ele>
        <time>2026-04-29T07:03:27Z</time>
      </trkpt>
      <trkpt lat="44.94399" lon="4.08846">
        <ele>1208.7</ele>
        <time>2026-04-29T07:03:32Z</time>
      </trkpt>
      <trkpt lat="44.94406" lon="4.08842">
        <ele>1208.1</ele>
        <time>2026-04-29T07:03:37Z</time>
      </trkpt>
      <trkpt lat="44.94414" lon="4.08843">
        <ele>1207.6</ele>
        <time>2026-04-29T07:03:42Z</time>
      </trkpt>
      <trkpt lat="44.94421" lon="4.08848">
        <ele>1207</ele>
        <time>2026-04-29T07:03:47Z</time>
      </trkpt>
      <trkpt lat="44.94425" lon="4.08854">
        <ele>1206.7</ele>
        <time>2026-04-29T07:03:52Z</time>
      </trkpt>
      <trkpt lat="44.94428" lon="4.08863">
        <ele>1206.8</ele>
        <time>2026-04-29T07:03:57Z</time>
      </trkpt>
      <trkpt lat="44.94433" lon="4.08871">
        <ele>1206.5</ele>
        <time>2026-04-29T07:04:02Z</time>
      </trkpt>
      <trkpt lat="44.94437" lon="4.0888">
        <ele>1206.5</ele>
        <time>2026-04-29T07:04:07Z</time>
      </trkpt>
      <trkpt lat="44.94441" lon="4.08889">
        <ele>1206.6</ele>
        <time>2026-04-29T07:04:12Z</time>
      </trkpt>
      <trkpt lat="44.94443" lon="4.08898">
        <ele>1206.9</ele>
        <time>2026-04-29T07:04:17Z</time>
      </trkpt>
      <trkpt lat="44.94446" lon="4.08909">
        <ele>1207.3</ele>
        <time>2026-04-29T07:04:22Z</time>
      </trkpt>
      <trkpt lat="44.9445" lon="4.08919">
        <ele>1207.5</ele>
        <time>2026-04-29T07:04:27Z</time>
      </trkpt>
      <trkpt lat="44.94452" lon="4.08929">
        <ele>1207.6</ele>
        <time>2026-04-29T07:04:32Z</time>
      </trkpt>
      <trkpt lat="44.94456" lon="4.08938">
        <ele>1207.5</ele>
        <time>2026-04-29T07:04:37Z</time>
      </trkpt>
      <trkpt lat="44.94458" lon="4.08946">
        <ele>1207.6</ele>
        <time>2026-04-29T07:04:42Z</time>
      </trkpt>
      <trkpt lat="44.94461" lon="4.08955">
        <ele>1207.7</ele>
        <time>2026-04-29T07:04:47Z</time>
      </trkpt>
      <trkpt lat="44.94464" lon="4.08963">
        <ele>1207.7</ele>
        <time>2026-04-29T07:04:52Z</time>
      </trkpt>
      <trkpt lat="44.94467" lon="4.08972">
        <ele>1207.8</ele>
        <time>2026-04-29T07:04:57Z</time>
      </trkpt>
      <trkpt lat="44.9447" lon="4.08983">
        <ele>1208.1</ele>
        <time>2026-04-29T07:05:02Z</time>
      </trkpt>
      <trkpt lat="44.94473" lon="4.08993">
        <ele>1208.3</ele>
        <time>2026-04-29T07:05:07Z</time>
      </trkpt>
      <trkpt lat="44.94477" lon="4.09003">
        <ele>1208.5</ele>
        <time>2026-04-29T07:05:12Z</time>
      </trkpt>
      <trkpt lat="44.94482" lon="4.09013">
        <ele>1208.7</ele>
        <time>2026-04-29T07:05:17Z</time>
      </trkpt>
      <trkpt lat="44.94487" lon="4.09018">
        <ele>1208.6</ele>
        <time>2026-04-29T07:05:22Z</time>
      </trkpt>
      <trkpt lat="44.94491" lon="4.09019">
        <ele>1208.4</ele>
        <time>2026-04-29T07:05:27Z</time>
      </trkpt>
      <trkpt lat="44.94498" lon="4.09017">
        <ele>1207.9</ele>
        <time>2026-04-29T07:05:32Z</time>
      </trkpt>
      <trkpt lat="44.94505" lon="4.09013">
        <ele>1206.8</ele>
        <time>2026-04-29T07:05:37Z</time>
      </trkpt>
      <trkpt lat="44.94511" lon="4.09007">
        <ele>1205.4</ele>
        <time>2026-04-29T07:05:42Z</time>
      </trkpt>
      <trkpt lat="44.94517" lon="4.09003">
        <ele>1204.1</ele>
        <time>2026-04-29T07:05:47Z</time>
      </trkpt>
      <trkpt lat="44.94521" lon="4.08997">
        <ele>1203</ele>
        <time>2026-04-29T07:05:52Z</time>
      </trkpt>
      <trkpt lat="44.94525" lon="4.08992">
        <ele>1201.8</ele>
        <time>2026-04-29T07:05:57Z</time>
      </trkpt>
      <trkpt lat="44.94528" lon="4.08987">
        <ele>1200.8</ele>
        <time>2026-04-29T07:06:02Z</time>
      </trkpt>
      <trkpt lat="44.94534" lon="4.08982">
        <ele>1199.2</ele>
        <time>2026-04-29T07:06:07Z</time>
      </trkpt>
      <trkpt lat="44.94538" lon="4.08976">
        <ele>1197.8</ele>
        <time>2026-04-29T07:06:12Z</time>
      </trkpt>
      <trkpt lat="44.94543" lon="4.0897">
        <ele>1196.2</ele>
        <time>2026-04-29T07:06:17Z</time>
      </trkpt>
      <trkpt lat="44.94548" lon="4.08964">
        <ele>1194.5</ele>
        <time>2026-04-29T07:06:22Z</time>
      </trkpt>
      <trkpt lat="44.94554" lon="4.08958">
        <ele>1192.5</ele>
        <time>2026-04-29T07:06:27Z</time>
      </trkpt>
      <trkpt lat="44.94561" lon="4.08952">
        <ele>1190.2</ele>
        <time>2026-04-29T07:06:32Z</time>
      </trkpt>
      <trkpt lat="44.94566" lon="4.08945">
        <ele>1188.2</ele>
        <time>2026-04-29T07:06:37Z</time>
      </trkpt>
      <trkpt lat="44.9457" lon="4.08938">
        <ele>1186.3</ele>
        <time>2026-04-29T07:06:42Z</time>
      </trkpt>
      <trkpt lat="44.94574" lon="4.08932">
        <ele>1184.5</ele>
        <time>2026-04-29T07:06:47Z</time>
      </trkpt>
      <trkpt lat="44.94577" lon="4.08923">
        <ele>1182.5</ele>
        <time>2026-04-29T07:06:52Z</time>
      </trkpt>
      <trkpt lat="44.9458" lon="4.08915">
        <ele>1180.8</ele>
        <time>2026-04-29T07:06:57Z</time>
      </trkpt>
      <trkpt lat="44.94585" lon="4.08906">
        <ele>1179.1</ele>
        <time>2026-04-29T07:07:02Z</time>
      </trkpt>
      <trkpt lat="44.94591" lon="4.08901">
        <ele>1178</ele>
        <time>2026-04-29T07:07:07Z</time>
      </trkpt>
      <trkpt lat="44.94589" lon="4.08898">
        <ele>1178.1</ele>
        <time>2026-04-29T07:07:12Z</time>
      </trkpt>
      <trkpt lat="44.94591" lon="4.08895">
        <ele>1177.6</ele>
        <time>2026-04-29T07:07:17Z</time>
      </trkpt>
      <trkpt lat="44.94591" lon="4.08895">
        <ele>1177.6</ele>
        <time>2026-04-29T07:07:22Z</time>
      </trkpt>
      <trkpt lat="44.94591" lon="4.08895">
        <ele>1177.6</ele>
        <time>2026-04-29T07:07:27Z</time>
      </trkpt>
      <trkpt lat="44.94597" lon="4.08896">
        <ele>1176.8</ele>
        <time>2026-04-29T07:07:32Z</time>
      </trkpt>
      <trkpt lat="44.94599" lon="4.08895">
        <ele>1176.4</ele>
        <time>2026-04-29T07:07:37Z</time>
      </trkpt>
      <trkpt lat="44.94603" lon="4.08891">
        <ele>1175.6</ele>
        <time>2026-04-29T07:07:42Z</time>
      </trkpt>
      <trkpt lat="44.9461" lon="4.08887">
        <ele>1174.4</ele>
        <time>2026-04-29T07:07:47Z</time>
      </trkpt>
      <trkpt lat="44.94613" lon="4.08884">
        <ele>1173.8</ele>
        <time>2026-04-29T07:07:52Z</time>
      </trkpt>
      <trkpt lat="44.94616" lon="4.08883">
        <ele>1173.3</ele>
        <time>2026-04-29T07:07:57Z</time>
      </trkpt>
      <trkpt lat="44.94622" lon="4.08881">
        <ele>1172.3</ele>
        <time>2026-04-29T07:08:02Z</time>
      </trkpt>
      <trkpt lat="44.94627" lon="4.08878">
        <ele>1171.4</ele>
        <time>2026-04-29T07:08:07Z</time>
      </trkpt>
      <trkpt lat="44.94631" lon="4.08875">
        <ele>1170.6</ele>
        <time>2026-04-29T07:08:12Z</time>
      </trkpt>
      <trkpt lat="44.94637" lon="4.08875">
        <ele>1169.8</ele>
        <time>2026-04-29T07:08:17Z</time>
      </trkpt>
      <trkpt lat="44.9464" lon="4.08872">
        <ele>1169.2</ele>
        <time>2026-04-29T07:08:22Z</time>
      </trkpt>
      <trkpt lat="44.94641" lon="4.08869">
        <ele>1168.8</ele>
        <time>2026-04-29T07:08:27Z</time>
      </trkpt>
      <trkpt lat="44.94642" lon="4.08866">
        <ele>1168.5</ele>
        <time>2026-04-29T07:08:32Z</time>
      </trkpt>
      <trkpt lat="44.94642" lon="4.08866">
        <ele>1168.5</ele>
        <time>2026-04-29T07:08:37Z</time>
      </trkpt>
      <trkpt lat="44.94642" lon="4.08866">
        <ele>1168.5</ele>
        <time>2026-04-29T07:08:42Z</time>
      </trkpt>
      <trkpt lat="44.94642" lon="4.08866">
        <ele>1168.5</ele>
        <time>2026-04-29T07:08:47Z</time>
      </trkpt>
      <trkpt lat="44.94642" lon="4.08866">
        <ele>1168.5</ele>
        <time>2026-04-29T07:08:52Z</time>
      </trkpt>
      <trkpt lat="44.94642" lon="4.08866">
        <ele>1168.5</ele>
        <time>2026-04-29T07:08:57Z</time>
      </trkpt>
      <trkpt lat="44.94642" lon="4.08866">
        <ele>1168.5</ele>
        <time>2026-04-29T07:09:02Z</time>
      </trkpt>
      <trkpt lat="44.94642" lon="4.08866">
        <ele>1168.5</ele>
        <time>2026-04-29T07:09:07Z</time>
      </trkpt>
      <trkpt lat="44.94642" lon="4.08866">
        <ele>1168.5</ele>
        <time>2026-04-29T07:09:12Z</time>
      </trkpt>
      <trkpt lat="44.94642" lon="4.08866">
        <ele>1168.5</ele>
        <time>2026-04-29T07:09:17Z</time>
      </trkpt>
      <trkpt lat="44.94642" lon="4.08866">
        <ele>1168.5</ele>
        <time>2026-04-29T07:09:22Z</time>
      </trkpt>
      <trkpt lat="44.94642" lon="4.08866">
        <ele>1168.5</ele>
        <time>2026-04-29T07:09:27Z</time>
      </trkpt>
      <trkpt lat="44.94642" lon="4.08866">
        <ele>1168.5</ele>
        <time>2026-04-29T07:09:32Z</time>
      </trkpt>
      <trkpt lat="44.94642" lon="4.08872">
        <ele>1168.9</ele>
        <time>2026-04-29T07:09:37Z</time>
      </trkpt>
      <trkpt lat="44.94642" lon="4.08873">
        <ele>1168.9</ele>
        <time>2026-04-29T07:09:42Z</time>
      </trkpt>
      <trkpt lat="44.94649" lon="4.08868">
        <ele>1167.6</ele>
        <time>2026-04-29T07:09:47Z</time>
      </trkpt>
      <trkpt lat="44.94653" lon="4.08869">
        <ele>1167.1</ele>
        <time>2026-04-29T07:09:52Z</time>
      </trkpt>
      <trkpt lat="44.94656" lon="4.08868">
        <ele>1166.6</ele>
        <time>2026-04-29T07:09:57Z</time>
      </trkpt>
      <trkpt lat="44.9466" lon="4.08866">
        <ele>1165.9</ele>
        <time>2026-04-29T07:10:02Z</time>
      </trkpt>
      <trkpt lat="44.94663" lon="4.08866">
        <ele>1165.5</ele>
        <time>2026-04-29T07:10:07Z</time>
      </trkpt>
      <trkpt lat="44.94665" lon="4.08864">
        <ele>1165.1</ele>
        <time>2026-04-29T07:10:12Z</time>
      </trkpt>
      <trkpt lat="44.94669" lon="4.08862">
        <ele>1164.4</ele>
        <time>2026-04-29T07:10:17Z</time>
      </trkpt>
      <trkpt lat="44.94671" lon="4.0886">
        <ele>1164.1</ele>
        <time>2026-04-29T07:10:22Z</time>
      </trkpt>
      <trkpt lat="44.94674" lon="4.08859">
        <ele>1163.7</ele>
        <time>2026-04-29T07:10:27Z</time>
      </trkpt>
      <trkpt lat="44.94677" lon="4.08859">
        <ele>1163.3</ele>
        <time>2026-04-29T07:10:32Z</time>
      </trkpt>
      <trkpt lat="44.9468" lon="4.08858">
        <ele>1162.9</ele>
        <time>2026-04-29T07:10:37Z</time>
      </trkpt>
      <trkpt lat="44.94684" lon="4.08856">
        <ele>1162.3</ele>
        <time>2026-04-29T07:10:42Z</time>
      </trkpt>
      <trkpt lat="44.94688" lon="4.08854">
        <ele>1161.7</ele>
        <time>2026-04-29T07:10:47Z</time>
      </trkpt>
      <trkpt lat="44.94692" lon="4.08852">
        <ele>1161.1</ele>
        <time>2026-04-29T07:10:52Z</time>
      </trkpt>
      <trkpt lat="44.94696" lon="4.08848">
        <ele>1160.4</ele>
        <time>2026-04-29T07:10:57Z</time>
      </trkpt>
      <trkpt lat="44.94699" lon="4.08845">
        <ele>1159.9</ele>
        <time>2026-04-29T07:11:02Z</time>
      </trkpt>
      <trkpt lat="44.94702" lon="4.08843">
        <ele>1159.4</ele>
        <time>2026-04-29T07:11:07Z</time>
      </trkpt>
      <trkpt lat="44.94706" lon="4.08842">
        <ele>1158.8</ele>
        <time>2026-04-29T07:11:12Z</time>
      </trkpt>
      <trkpt lat="44.9471" lon="4.0884">
        <ele>1158.2</ele>
        <time>2026-04-29T07:11:17Z</time>
      </trkpt>
      <trkpt lat="44.94714" lon="4.08839">
        <ele>1157.7</ele>
        <time>2026-04-29T07:11:22Z</time>
      </trkpt>
      <trkpt lat="44.94717" lon="4.08836">
        <ele>1157.1</ele>
        <time>2026-04-29T07:11:27Z</time>
      </trkpt>
      <trkpt lat="44.9472" lon="4.08831">
        <ele>1156.4</ele>
        <time>2026-04-29T07:11:32Z</time>
      </trkpt>
      <trkpt lat="44.94725" lon="4.08829">
        <ele>1155.6</ele>
        <time>2026-04-29T07:11:37Z</time>
      </trkpt>
      <trkpt lat="44.94729" lon="4.08829">
        <ele>1155.2</ele>
        <time>2026-04-29T07:11:42Z</time>
      </trkpt>
      <trkpt lat="44.94733" lon="4.08829">
        <ele>1154.7</ele>
        <time>2026-04-29T07:11:47Z</time>
      </trkpt>
      <trkpt lat="44.94738" lon="4.08832">
        <ele>1154.3</ele>
        <time>2026-04-29T07:11:52Z</time>
      </trkpt>
      <trkpt lat="44.94738" lon="4.08839">
        <ele>1154.8</ele>
        <time>2026-04-29T07:11:57Z</time>
      </trkpt>
      <trkpt lat="44.94735" lon="4.08846">
        <ele>1155.7</ele>
        <time>2026-04-29T07:12:02Z</time>
      </trkpt>
      <trkpt lat="44.94732" lon="4.08854">
        <ele>1156.6</ele>
        <time>2026-04-29T07:12:07Z</time>
      </trkpt>
      <trkpt lat="44.94729" lon="4.08862">
        <ele>1157.5</ele>
        <time>2026-04-29T07:12:12Z</time>
      </trkpt>
      <trkpt lat="44.94727" lon="4.0887">
        <ele>1158.3</ele>
        <time>2026-04-29T07:12:17Z</time>
      </trkpt>
      <trkpt lat="44.94725" lon="4.08877">
        <ele>1159</ele>
        <time>2026-04-29T07:12:22Z</time>
      </trkpt>
      <trkpt lat="44.94725" lon="4.08878">
        <ele>1159.1</ele>
        <time>2026-04-29T07:12:27Z</time>
      </trkpt>
      <trkpt lat="44.94724" lon="4.08883">
        <ele>1159.5</ele>
        <time>2026-04-29T07:12:32Z</time>
      </trkpt>
      <trkpt lat="44.94723" lon="4.08891">
        <ele>1160.2</ele>
        <time>2026-04-29T07:12:37Z</time>
      </trkpt>
      <trkpt lat="44.94722" lon="4.089">
        <ele>1160.9</ele>
        <time>2026-04-29T07:12:42Z</time>
      </trkpt>
      <trkpt lat="44.94721" lon="4.0891">
        <ele>1161.7</ele>
        <time>2026-04-29T07:12:47Z</time>
      </trkpt>
      <trkpt lat="44.94722" lon="4.08918">
        <ele>1162.1</ele>
        <time>2026-04-29T07:12:52Z</time>
      </trkpt>
      <trkpt lat="44.94722" lon="4.08925">
        <ele>1162.6</ele>
        <time>2026-04-29T07:12:57Z</time>
      </trkpt>
      <trkpt lat="44.94722" lon="4.08929">
        <ele>1162.9</ele>
        <time>2026-04-29T07:13:02Z</time>
      </trkpt>
      <trkpt lat="44.94723" lon="4.08931">
        <ele>1162.9</ele>
        <time>2026-04-29T07:13:07Z</time>
      </trkpt>
      <trkpt lat="44.94722" lon="4.08938">
        <ele>1163.5</ele>
        <time>2026-04-29T07:13:12Z</time>
      </trkpt>
      <trkpt lat="44.94722" lon="4.08946">
        <ele>1164</ele>
        <time>2026-04-29T07:13:17Z</time>
      </trkpt>
      <trkpt lat="44.94723" lon="4.08956">
        <ele>1164.6</ele>
        <time>2026-04-29T07:13:22Z</time>
      </trkpt>
      <trkpt lat="44.94726" lon="4.08966">
        <ele>1164.9</ele>
        <time>2026-04-29T07:13:27Z</time>
      </trkpt>
      <trkpt lat="44.94729" lon="4.08976">
        <ele>1165.2</ele>
        <time>2026-04-29T07:13:32Z</time>
      </trkpt>
      <trkpt lat="44.94732" lon="4.08985">
        <ele>1165.4</ele>
        <time>2026-04-29T07:13:37Z</time>
      </trkpt>
      <trkpt lat="44.94734" lon="4.08996">
        <ele>1165.9</ele>
        <time>2026-04-29T07:13:42Z</time>
      </trkpt>
      <trkpt lat="44.94736" lon="4.09003">
        <ele>1165.9</ele>
        <time>2026-04-29T07:13:47Z</time>
      </trkpt>
      <trkpt lat="44.94737" lon="4.09014">
        <ele>1166</ele>
        <time>2026-04-29T07:13:52Z</time>
      </trkpt>
      <trkpt lat="44.94741" lon="4.09024">
        <ele>1165.5</ele>
        <time>2026-04-29T07:13:57Z</time>
      </trkpt>
      <trkpt lat="44.94741" lon="4.09033">
        <ele>1165.6</ele>
        <time>2026-04-29T07:14:02Z</time>
      </trkpt>
      <trkpt lat="44.94742" lon="4.09044">
        <ele>1165.5</ele>
        <time>2026-04-29T07:14:07Z</time>
      </trkpt>
      <trkpt lat="44.94741" lon="4.09052">
        <ele>1165.8</ele>
        <time>2026-04-29T07:14:12Z</time>
      </trkpt>
      <trkpt lat="44.94743" lon="4.09062">
        <ele>1165.5</ele>
        <time>2026-04-29T07:14:17Z</time>
      </trkpt>
      <trkpt lat="44.94748" lon="4.09073">
        <ele>1164.5</ele>
        <time>2026-04-29T07:14:22Z</time>
      </trkpt>
      <trkpt lat="44.94749" lon="4.09082">
        <ele>1164.2</ele>
        <time>2026-04-29T07:14:27Z</time>
      </trkpt>
      <trkpt lat="44.94751" lon="4.09092">
        <ele>1163.3</ele>
        <time>2026-04-29T07:14:32Z</time>
      </trkpt>
      <trkpt lat="44.94753" lon="4.09102">
        <ele>1162.2</ele>
        <time>2026-04-29T07:14:37Z</time>
      </trkpt>
      <trkpt lat="44.94754" lon="4.09114">
        <ele>1161.4</ele>
        <time>2026-04-29T07:14:42Z</time>
      </trkpt>
      <trkpt lat="44.94758" lon="4.09123">
        <ele>1159.6</ele>
        <time>2026-04-29T07:14:47Z</time>
      </trkpt>
      <trkpt lat="44.94762" lon="4.0913">
        <ele>1157.9</ele>
        <time>2026-04-29T07:14:52Z</time>
      </trkpt>
      <trkpt lat="44.94768" lon="4.09137">
        <ele>1155.5</ele>
        <time>2026-04-29T07:14:57Z</time>
      </trkpt>
      <trkpt lat="44.94774" lon="4.09143">
        <ele>1153.1</ele>
        <time>2026-04-29T07:15:02Z</time>
      </trkpt>
      <trkpt lat="44.94781" lon="4.09147">
        <ele>1150.5</ele>
        <time>2026-04-29T07:15:07Z</time>
      </trkpt>
      <trkpt lat="44.94788" lon="4.09149">
        <ele>1147.9</ele>
        <time>2026-04-29T07:15:12Z</time>
      </trkpt>
      <trkpt lat="44.94795" lon="4.0915">
        <ele>1145.3</ele>
        <time>2026-04-29T07:15:17Z</time>
      </trkpt>
      <trkpt lat="44.94802" lon="4.09147">
        <ele>1142.8</ele>
        <time>2026-04-29T07:15:22Z</time>
      </trkpt>
      <trkpt lat="44.94808" lon="4.09143">
        <ele>1140.8</ele>
        <time>2026-04-29T07:15:27Z</time>
      </trkpt>
      <trkpt lat="44.94814" lon="4.0914">
        <ele>1138.7</ele>
        <time>2026-04-29T07:15:32Z</time>
      </trkpt>
      <trkpt lat="44.94817" lon="4.09136">
        <ele>1137.7</ele>
        <time>2026-04-29T07:15:37Z</time>
      </trkpt>
      <trkpt lat="44.94822" lon="4.09132">
        <ele>1136</ele>
        <time>2026-04-29T07:15:42Z</time>
      </trkpt>
      <trkpt lat="44.94826" lon="4.09126">
        <ele>1134.7</ele>
        <time>2026-04-29T07:15:47Z</time>
      </trkpt>
      <trkpt lat="44.94831" lon="4.09121">
        <ele>1133</ele>
        <time>2026-04-29T07:15:52Z</time>
      </trkpt>
      <trkpt lat="44.94836" lon="4.09117">
        <ele>1132.1</ele>
        <time>2026-04-29T07:15:57Z</time>
      </trkpt>
      <trkpt lat="44.9484" lon="4.0911">
        <ele>1132</ele>
        <time>2026-04-29T07:16:02Z</time>
      </trkpt>
      <trkpt lat="44.94845" lon="4.09107">
        <ele>1131.7</ele>
        <time>2026-04-29T07:16:07Z</time>
      </trkpt>
      <trkpt lat="44.94848" lon="4.09101">
        <ele>1131.5</ele>
        <time>2026-04-29T07:16:12Z</time>
      </trkpt>
      <trkpt lat="44.94853" lon="4.09096">
        <ele>1131.2</ele>
        <time>2026-04-29T07:16:17Z</time>
      </trkpt>
      <trkpt lat="44.94859" lon="4.0909">
        <ele>1130.6</ele>
        <time>2026-04-29T07:16:22Z</time>
      </trkpt>
      <trkpt lat="44.94863" lon="4.09085">
        <ele>1130.2</ele>
        <time>2026-04-29T07:16:27Z</time>
      </trkpt>
      <trkpt lat="44.94867" lon="4.09079">
        <ele>1129.7</ele>
        <time>2026-04-29T07:16:32Z</time>
      </trkpt>
      <trkpt lat="44.94873" lon="4.09073">
        <ele>1128.9</ele>
        <time>2026-04-29T07:16:37Z</time>
      </trkpt>
      <trkpt lat="44.94876" lon="4.09066">
        <ele>1128.4</ele>
        <time>2026-04-29T07:16:42Z</time>
      </trkpt>
      <trkpt lat="44.9488" lon="4.09059">
        <ele>1127.7</ele>
        <time>2026-04-29T07:16:47Z</time>
      </trkpt>
      <trkpt lat="44.94884" lon="4.09054">
        <ele>1127.1</ele>
        <time>2026-04-29T07:16:52Z</time>
      </trkpt>
      <trkpt lat="44.94888" lon="4.09048">
        <ele>1126.4</ele>
        <time>2026-04-29T07:16:57Z</time>
      </trkpt>
      <trkpt lat="44.94892" lon="4.09042">
        <ele>1125.6</ele>
        <time>2026-04-29T07:17:02Z</time>
      </trkpt>
      <trkpt lat="44.94896" lon="4.09035">
        <ele>1124.8</ele>
        <time>2026-04-29T07:17:07Z</time>
      </trkpt>
      <trkpt lat="44.949" lon="4.09029">
        <ele>1124</ele>
        <time>2026-04-29T07:17:12Z</time>
      </trkpt>
      <trkpt lat="44.94904" lon="4.09023">
        <ele>1123.1</ele>
        <time>2026-04-29T07:17:17Z</time>
      </trkpt>
      <trkpt lat="44.94908" lon="4.09017">
        <ele>1122.3</ele>
        <time>2026-04-29T07:17:22Z</time>
      </trkpt>
      <trkpt lat="44.94911" lon="4.0901">
        <ele>1121.4</ele>
        <time>2026-04-29T07:17:27Z</time>
      </trkpt>
      <trkpt lat="44.94915" lon="4.09004">
        <ele>1120.5</ele>
        <time>2026-04-29T07:17:32Z</time>
      </trkpt>
      <trkpt lat="44.94919" lon="4.08997">
        <ele>1120.3</ele>
        <time>2026-04-29T07:17:37Z</time>
      </trkpt>
      <trkpt lat="44.94923" lon="4.0899">
        <ele>1120.7</ele>
        <time>2026-04-29T07:17:42Z</time>
      </trkpt>
      <trkpt lat="44.94926" lon="4.08984">
        <ele>1121</ele>
        <time>2026-04-29T07:17:47Z</time>
      </trkpt>
      <trkpt lat="44.94929" lon="4.08977">
        <ele>1121.1</ele>
        <time>2026-04-29T07:17:52Z</time>
      </trkpt>
      <trkpt lat="44.94934" lon="4.08971">
        <ele>1121.6</ele>
        <time>2026-04-29T07:17:57Z</time>
      </trkpt>
      <trkpt lat="44.94937" lon="4.08965">
        <ele>1121.7</ele>
        <time>2026-04-29T07:18:02Z</time>
      </trkpt>
      <trkpt lat="44.9494" lon="4.08958">
        <ele>1121.7</ele>
        <time>2026-04-29T07:18:07Z</time>
      </trkpt>
      <trkpt lat="44.94943" lon="4.08951">
        <ele>1121.7</ele>
        <time>2026-04-29T07:18:12Z</time>
      </trkpt>
      <trkpt lat="44.94947" lon="4.08944">
        <ele>1121.7</ele>
        <time>2026-04-29T07:18:17Z</time>
      </trkpt>
      <trkpt lat="44.94951" lon="4.08937">
        <ele>1121.7</ele>
        <time>2026-04-29T07:18:22Z</time>
      </trkpt>
      <trkpt lat="44.94954" lon="4.08931">
        <ele>1121.6</ele>
        <time>2026-04-29T07:18:27Z</time>
      </trkpt>
      <trkpt lat="44.94958" lon="4.08924">
        <ele>1121.5</ele>
        <time>2026-04-29T07:18:32Z</time>
      </trkpt>
      <trkpt lat="44.94961" lon="4.08916">
        <ele>1121.2</ele>
        <time>2026-04-29T07:18:37Z</time>
      </trkpt>
      <trkpt lat="44.94965" lon="4.08908">
        <ele>1121.2</ele>
        <time>2026-04-29T07:18:42Z</time>
      </trkpt>
      <trkpt lat="44.94968" lon="4.08901">
        <ele>1121.1</ele>
        <time>2026-04-29T07:18:47Z</time>
      </trkpt>
      <trkpt lat="44.94971" lon="4.08893">
        <ele>1120.9</ele>
        <time>2026-04-29T07:18:52Z</time>
      </trkpt>
      <trkpt lat="44.94975" lon="4.08887">
        <ele>1120.9</ele>
        <time>2026-04-29T07:18:57Z</time>
      </trkpt>
      <trkpt lat="44.94978" lon="4.08881">
        <ele>1120.8</ele>
        <time>2026-04-29T07:19:02Z</time>
      </trkpt>
      <trkpt lat="44.94981" lon="4.08873">
        <ele>1120.5</ele>
        <time>2026-04-29T07:19:07Z</time>
      </trkpt>
      <trkpt lat="44.94984" lon="4.08866">
        <ele>1120.3</ele>
        <time>2026-04-29T07:19:12Z</time>
      </trkpt>
      <trkpt lat="44.94987" lon="4.08859">
        <ele>1120</ele>
        <time>2026-04-29T07:19:17Z</time>
      </trkpt>
      <trkpt lat="44.94988" lon="4.0885">
        <ele>1119.5</ele>
        <time>2026-04-29T07:19:22Z</time>
      </trkpt>
      <trkpt lat="44.94989" lon="4.08842">
        <ele>1119</ele>
        <time>2026-04-29T07:19:27Z</time>
      </trkpt>
      <trkpt lat="44.94991" lon="4.08835">
        <ele>1118.7</ele>
        <time>2026-04-29T07:19:32Z</time>
      </trkpt>
      <trkpt lat="44.94993" lon="4.08827">
        <ele>1118.4</ele>
        <time>2026-04-29T07:19:37Z</time>
      </trkpt>
      <trkpt lat="44.94996" lon="4.08819">
        <ele>1118.2</ele>
        <time>2026-04-29T07:19:42Z</time>
      </trkpt>
      <trkpt lat="44.95001" lon="4.08814">
        <ele>1118.3</ele>
        <time>2026-04-29T07:19:47Z</time>
      </trkpt>
      <trkpt lat="44.95005" lon="4.08809">
        <ele>1119.2</ele>
        <time>2026-04-29T07:19:52Z</time>
      </trkpt>
      <trkpt lat="44.9501" lon="4.08805">
        <ele>1120.3</ele>
        <time>2026-04-29T07:19:57Z</time>
      </trkpt>
      <trkpt lat="44.95016" lon="4.08801">
        <ele>1121.6</ele>
        <time>2026-04-29T07:20:02Z</time>
      </trkpt>
      <trkpt lat="44.95021" lon="4.08797">
        <ele>1122.7</ele>
        <time>2026-04-29T07:20:07Z</time>
      </trkpt>
      <trkpt lat="44.95026" lon="4.08793">
        <ele>1123.8</ele>
        <time>2026-04-29T07:20:12Z</time>
      </trkpt>
      <trkpt lat="44.9503" lon="4.08789">
        <ele>1124.6</ele>
        <time>2026-04-29T07:20:17Z</time>
      </trkpt>
      <trkpt lat="44.95035" lon="4.08785">
        <ele>1125.6</ele>
        <time>2026-04-29T07:20:22Z</time>
      </trkpt>
      <trkpt lat="44.9504" lon="4.08779">
        <ele>1126.5</ele>
        <time>2026-04-29T07:20:27Z</time>
      </trkpt>
      <trkpt lat="44.95045" lon="4.08774">
        <ele>1127.4</ele>
        <time>2026-04-29T07:20:32Z</time>
      </trkpt>
      <trkpt lat="44.9505" lon="4.08772">
        <ele>1128.5</ele>
        <time>2026-04-29T07:20:37Z</time>
      </trkpt>
      <trkpt lat="44.95053" lon="4.08779">
        <ele>1129.8</ele>
        <time>2026-04-29T07:20:42Z</time>
      </trkpt>
      <trkpt lat="44.95053" lon="4.08786">
        <ele>1130.3</ele>
        <time>2026-04-29T07:20:47Z</time>
      </trkpt>
      <trkpt lat="44.95052" lon="4.08793">
        <ele>1130.5</ele>
        <time>2026-04-29T07:20:52Z</time>
      </trkpt>
      <trkpt lat="44.9505" lon="4.08801">
        <ele>1130.5</ele>
        <time>2026-04-29T07:20:57Z</time>
      </trkpt>
      <trkpt lat="44.95048" lon="4.08809">
        <ele>1130.6</ele>
        <time>2026-04-29T07:21:02Z</time>
      </trkpt>
      <trkpt lat="44.95046" lon="4.08816">
        <ele>1130.5</ele>
        <time>2026-04-29T07:21:07Z</time>
      </trkpt>
      <trkpt lat="44.95047" lon="4.08816">
        <ele>1130.8</ele>
        <time>2026-04-29T07:21:12Z</time>
      </trkpt>
      <trkpt lat="44.95047" lon="4.08817">
        <ele>1130.9</ele>
        <time>2026-04-29T07:21:17Z</time>
      </trkpt>
      <trkpt lat="44.95046" lon="4.08818">
        <ele>1130.7</ele>
        <time>2026-04-29T07:21:22Z</time>
      </trkpt>
      <trkpt lat="44.95043" lon="4.08825">
        <ele>1130.3</ele>
        <time>2026-04-29T07:21:27Z</time>
      </trkpt>
      <trkpt lat="44.95042" lon="4.08833">
        <ele>1130.6</ele>
        <time>2026-04-29T07:21:32Z</time>
      </trkpt>
      <trkpt lat="44.95041" lon="4.0884">
        <ele>1130.9</ele>
        <time>2026-04-29T07:21:37Z</time>
      </trkpt>
      <trkpt lat="44.95039" lon="4.08848">
        <ele>1131.1</ele>
        <time>2026-04-29T07:21:42Z</time>
      </trkpt>
      <trkpt lat="44.95037" lon="4.08857">
        <ele>1131.3</ele>
        <time>2026-04-29T07:21:47Z</time>
      </trkpt>
      <trkpt lat="44.95036" lon="4.08864">
        <ele>1131.6</ele>
        <time>2026-04-29T07:21:52Z</time>
      </trkpt>
      <trkpt lat="44.95035" lon="4.08873">
        <ele>1132.1</ele>
        <time>2026-04-29T07:21:57Z</time>
      </trkpt>
      <trkpt lat="44.95034" lon="4.08881">
        <ele>1132.5</ele>
        <time>2026-04-29T07:22:02Z</time>
      </trkpt>
      <trkpt lat="44.95033" lon="4.0889">
        <ele>1133</ele>
        <time>2026-04-29T07:22:07Z</time>
      </trkpt>
      <trkpt lat="44.95031" lon="4.08898">
        <ele>1133.1</ele>
        <time>2026-04-29T07:22:12Z</time>
      </trkpt>
      <trkpt lat="44.95029" lon="4.08906">
        <ele>1133.1</ele>
        <time>2026-04-29T07:22:17Z</time>
      </trkpt>
      <trkpt lat="44.95028" lon="4.08914">
        <ele>1133.5</ele>
        <time>2026-04-29T07:22:22Z</time>
      </trkpt>
      <trkpt lat="44.95026" lon="4.08922">
        <ele>1133.8</ele>
        <time>2026-04-29T07:22:27Z</time>
      </trkpt>
      <trkpt lat="44.95024" lon="4.0893">
        <ele>1134.1</ele>
        <time>2026-04-29T07:22:32Z</time>
      </trkpt>
      <trkpt lat="44.95022" lon="4.08938">
        <ele>1134.4</ele>
        <time>2026-04-29T07:22:37Z</time>
      </trkpt>
      <trkpt lat="44.9502" lon="4.08946">
        <ele>1134.8</ele>
        <time>2026-04-29T07:22:42Z</time>
      </trkpt>
      <trkpt lat="44.95019" lon="4.08953">
        <ele>1135.3</ele>
        <time>2026-04-29T07:22:47Z</time>
      </trkpt>
      <trkpt lat="44.95017" lon="4.08961">
        <ele>1135.6</ele>
        <time>2026-04-29T07:22:52Z</time>
      </trkpt>
      <trkpt lat="44.95016" lon="4.08969">
        <ele>1136.3</ele>
        <time>2026-04-29T07:22:57Z</time>
      </trkpt>
      <trkpt lat="44.95014" lon="4.08977">
        <ele>1136.6</ele>
        <time>2026-04-29T07:23:02Z</time>
      </trkpt>
      <trkpt lat="44.95013" lon="4.08985">
        <ele>1137.3</ele>
        <time>2026-04-29T07:23:07Z</time>
      </trkpt>
      <trkpt lat="44.95011" lon="4.08993">
        <ele>1137.6</ele>
        <time>2026-04-29T07:23:12Z</time>
      </trkpt>
      <trkpt lat="44.9501" lon="4.09001">
        <ele>1138.2</ele>
        <time>2026-04-29T07:23:17Z</time>
      </trkpt>
      <trkpt lat="44.95009" lon="4.0901">
        <ele>1138.8</ele>
        <time>2026-04-29T07:23:22Z</time>
      </trkpt>
      <trkpt lat="44.95009" lon="4.09018">
        <ele>1139.7</ele>
        <time>2026-04-29T07:23:27Z</time>
      </trkpt>
      <trkpt lat="44.95008" lon="4.09025">
        <ele>1140.1</ele>
        <time>2026-04-29T07:23:32Z</time>
      </trkpt>
      <trkpt lat="44.95012" lon="4.0903">
        <ele>1141.8</ele>
        <time>2026-04-29T07:23:37Z</time>
      </trkpt>
      <trkpt lat="44.95015" lon="4.09024">
        <ele>1142.1</ele>
        <time>2026-04-29T07:23:42Z</time>
      </trkpt>
      <trkpt lat="44.95017" lon="4.09017">
        <ele>1142</ele>
        <time>2026-04-29T07:23:47Z</time>
      </trkpt>
      <trkpt lat="44.95021" lon="4.09012">
        <ele>1142.7</ele>
        <time>2026-04-29T07:23:52Z</time>
      </trkpt>
      <trkpt lat="44.95022" lon="4.09004">
        <ele>1142.3</ele>
        <time>2026-04-29T07:23:57Z</time>
      </trkpt>
      <trkpt lat="44.95025" lon="4.08999">
        <ele>1142.7</ele>
        <time>2026-04-29T07:24:02Z</time>
      </trkpt>
      <trkpt lat="44.95029" lon="4.08991">
        <ele>1143</ele>
        <time>2026-04-29T07:24:07Z</time>
      </trkpt>
      <trkpt lat="44.95033" lon="4.08985">
        <ele>1143.5</ele>
        <time>2026-04-29T07:24:12Z</time>
      </trkpt>
      <trkpt lat="44.95038" lon="4.0898">
        <ele>1144.5</ele>
        <time>2026-04-29T07:24:17Z</time>
      </trkpt>
      <trkpt lat="44.95043" lon="4.08976">
        <ele>1145.5</ele>
        <time>2026-04-29T07:24:22Z</time>
      </trkpt>
      <trkpt lat="44.95049" lon="4.08973">
        <ele>1147</ele>
        <time>2026-04-29T07:24:27Z</time>
      </trkpt>
      <trkpt lat="44.95054" lon="4.0897">
        <ele>1148.2</ele>
        <time>2026-04-29T07:24:32Z</time>
      </trkpt>
      <trkpt lat="44.9506" lon="4.08968">
        <ele>1149.9</ele>
        <time>2026-04-29T07:24:37Z</time>
      </trkpt>
      <trkpt lat="44.95065" lon="4.08964">
        <ele>1151</ele>
        <time>2026-04-29T07:24:42Z</time>
      </trkpt>
      <trkpt lat="44.95071" lon="4.08961">
        <ele>1152.5</ele>
        <time>2026-04-29T07:24:47Z</time>
      </trkpt>
      <trkpt lat="44.95076" lon="4.08961">
        <ele>1154</ele>
        <time>2026-04-29T07:24:52Z</time>
      </trkpt>
      <trkpt lat="44.95082" lon="4.0896">
        <ele>1155.8</ele>
        <time>2026-04-29T07:24:57Z</time>
      </trkpt>
      <trkpt lat="44.95088" lon="4.08958">
        <ele>1157</ele>
        <time>2026-04-29T07:25:02Z</time>
      </trkpt>
      <trkpt lat="44.95093" lon="4.08958">
        <ele>1158.1</ele>
        <time>2026-04-29T07:25:07Z</time>
      </trkpt>
      <trkpt lat="44.951" lon="4.08957">
        <ele>1159.5</ele>
        <time>2026-04-29T07:25:12Z</time>
      </trkpt>
      <trkpt lat="44.95106" lon="4.08957">
        <ele>1160.9</ele>
        <time>2026-04-29T07:25:17Z</time>
      </trkpt>
      <trkpt lat="44.95112" lon="4.08958">
        <ele>1162.3</ele>
        <time>2026-04-29T07:25:22Z</time>
      </trkpt>
      <trkpt lat="44.95118" lon="4.08958">
        <ele>1163.7</ele>
        <time>2026-04-29T07:25:27Z</time>
      </trkpt>
      <trkpt lat="44.95125" lon="4.08957">
        <ele>1165.1</ele>
        <time>2026-04-29T07:25:32Z</time>
      </trkpt>
      <trkpt lat="44.95132" lon="4.08952">
        <ele>1166.2</ele>
        <time>2026-04-29T07:25:37Z</time>
      </trkpt>
      <trkpt lat="44.95138" lon="4.08953">
        <ele>1167.6</ele>
        <time>2026-04-29T07:25:42Z</time>
      </trkpt>
      <trkpt lat="44.95145" lon="4.08952">
        <ele>1169.1</ele>
        <time>2026-04-29T07:25:47Z</time>
      </trkpt>
      <trkpt lat="44.95153" lon="4.08954">
        <ele>1171.1</ele>
        <time>2026-04-29T07:25:52Z</time>
      </trkpt>
      <trkpt lat="44.95159" lon="4.08956">
        <ele>1172.6</ele>
        <time>2026-04-29T07:25:57Z</time>
      </trkpt>
      <trkpt lat="44.95166" lon="4.08957">
        <ele>1174.2</ele>
        <time>2026-04-29T07:26:02Z</time>
      </trkpt>
      <trkpt lat="44.95172" lon="4.08956">
        <ele>1174.6</ele>
        <time>2026-04-29T07:26:07Z</time>
      </trkpt>
      <trkpt lat="44.95178" lon="4.08955">
        <ele>1174.9</ele>
        <time>2026-04-29T07:26:12Z</time>
      </trkpt>
      <trkpt lat="44.95184" lon="4.08955">
        <ele>1175.3</ele>
        <time>2026-04-29T07:26:17Z</time>
      </trkpt>
      <trkpt lat="44.95191" lon="4.08953">
        <ele>1175.5</ele>
        <time>2026-04-29T07:26:22Z</time>
      </trkpt>
      <trkpt lat="44.95197" lon="4.08951">
        <ele>1175.8</ele>
        <time>2026-04-29T07:26:27Z</time>
      </trkpt>
      <trkpt lat="44.95204" lon="4.08949">
        <ele>1176.1</ele>
        <time>2026-04-29T07:26:32Z</time>
      </trkpt>
      <trkpt lat="44.95209" lon="4.08945">
        <ele>1176.1</ele>
        <time>2026-04-29T07:26:37Z</time>
      </trkpt>
      <trkpt lat="44.95213" lon="4.0894">
        <ele>1176</ele>
        <time>2026-04-29T07:26:42Z</time>
      </trkpt>
      <trkpt lat="44.95219" lon="4.08936">
        <ele>1176.1</ele>
        <time>2026-04-29T07:26:47Z</time>
      </trkpt>
      <trkpt lat="44.95224" lon="4.08929">
        <ele>1176</ele>
        <time>2026-04-29T07:26:52Z</time>
      </trkpt>
      <trkpt lat="44.9523" lon="4.08924">
        <ele>1176</ele>
        <time>2026-04-29T07:26:57Z</time>
      </trkpt>
      <trkpt lat="44.95235" lon="4.08919">
        <ele>1176.1</ele>
        <time>2026-04-29T07:27:02Z</time>
      </trkpt>
      <trkpt lat="44.9524" lon="4.08913">
        <ele>1176.2</ele>
        <time>2026-04-29T07:27:07Z</time>
      </trkpt>
      <trkpt lat="44.95246" lon="4.08907">
        <ele>1176.5</ele>
        <time>2026-04-29T07:27:12Z</time>
      </trkpt>
      <trkpt lat="44.95252" lon="4.08902">
        <ele>1176.7</ele>
        <time>2026-04-29T07:27:17Z</time>
      </trkpt>
      <trkpt lat="44.95258" lon="4.08897">
        <ele>1176.7</ele>
        <time>2026-04-29T07:27:22Z</time>
      </trkpt>
      <trkpt lat="44.95264" lon="4.08891">
        <ele>1176.7</ele>
        <time>2026-04-29T07:27:27Z</time>
      </trkpt>
      <trkpt lat="44.95271" lon="4.08887">
        <ele>1176.8</ele>
        <time>2026-04-29T07:27:32Z</time>
      </trkpt>
      <trkpt lat="44.95277" lon="4.08883">
        <ele>1176.8</ele>
        <time>2026-04-29T07:27:37Z</time>
      </trkpt>
      <trkpt lat="44.95283" lon="4.0888">
        <ele>1176.9</ele>
        <time>2026-04-29T07:27:42Z</time>
      </trkpt>
      <trkpt lat="44.95289" lon="4.08876">
        <ele>1177</ele>
        <time>2026-04-29T07:27:47Z</time>
      </trkpt>
      <trkpt lat="44.95295" lon="4.08872">
        <ele>1177</ele>
        <time>2026-04-29T07:27:52Z</time>
      </trkpt>
      <trkpt lat="44.95302" lon="4.08869">
        <ele>1177.1</ele>
        <time>2026-04-29T07:27:57Z</time>
      </trkpt>
      <trkpt lat="44.95308" lon="4.08865">
        <ele>1177.2</ele>
        <time>2026-04-29T07:28:02Z</time>
      </trkpt>
      <trkpt lat="44.95314" lon="4.08862">
        <ele>1177.2</ele>
        <time>2026-04-29T07:28:07Z</time>
      </trkpt>
      <trkpt lat="44.95321" lon="4.08859">
        <ele>1177.3</ele>
        <time>2026-04-29T07:28:12Z</time>
      </trkpt>
      <trkpt lat="44.95328" lon="4.08856">
        <ele>1177.4</ele>
        <time>2026-04-29T07:28:17Z</time>
      </trkpt>
      <trkpt lat="44.95335" lon="4.08854">
        <ele>1177.5</ele>
        <time>2026-04-29T07:28:22Z</time>
      </trkpt>
      <trkpt lat="44.95341" lon="4.08854">
        <ele>1177.6</ele>
        <time>2026-04-29T07:28:27Z</time>
      </trkpt>
      <trkpt lat="44.95348" lon="4.08853">
        <ele>1177.6</ele>
        <time>2026-04-29T07:28:32Z</time>
      </trkpt>
      <trkpt lat="44.95355" lon="4.08851">
        <ele>1177.6</ele>
        <time>2026-04-29T07:28:37Z</time>
      </trkpt>
      <trkpt lat="44.95362" lon="4.08851">
        <ele>1177.7</ele>
        <time>2026-04-29T07:28:42Z</time>
      </trkpt>
      <trkpt lat="44.95368" lon="4.0885">
        <ele>1177.7</ele>
        <time>2026-04-29T07:28:47Z</time>
      </trkpt>
      <trkpt lat="44.95374" lon="4.08849">
        <ele>1177.8</ele>
        <time>2026-04-29T07:28:52Z</time>
      </trkpt>
      <trkpt lat="44.9538" lon="4.08852">
        <ele>1177.9</ele>
        <time>2026-04-29T07:28:57Z</time>
      </trkpt>
      <trkpt lat="44.95385" lon="4.08855">
        <ele>1178</ele>
        <time>2026-04-29T07:29:02Z</time>
      </trkpt>
      <trkpt lat="44.9539" lon="4.0886">
        <ele>1178.1</ele>
        <time>2026-04-29T07:29:07Z</time>
      </trkpt>
      <trkpt lat="44.95393" lon="4.08866">
        <ele>1178.2</ele>
        <time>2026-04-29T07:29:12Z</time>
      </trkpt>
      <trkpt lat="44.95398" lon="4.08871">
        <ele>1178.3</ele>
        <time>2026-04-29T07:29:17Z</time>
      </trkpt>
      <trkpt lat="44.95403" lon="4.08877">
        <ele>1178.4</ele>
        <time>2026-04-29T07:29:22Z</time>
      </trkpt>
      <trkpt lat="44.95408" lon="4.08881">
        <ele>1178.5</ele>
        <time>2026-04-29T07:29:27Z</time>
      </trkpt>
      <trkpt lat="44.95413" lon="4.08887">
        <ele>1178.6</ele>
        <time>2026-04-29T07:29:32Z</time>
      </trkpt>
      <trkpt lat="44.95419" lon="4.08892">
        <ele>1178.8</ele>
        <time>2026-04-29T07:29:37Z</time>
      </trkpt>
      <trkpt lat="44.95424" lon="4.08897">
        <ele>1179</ele>
        <time>2026-04-29T07:29:42Z</time>
      </trkpt>
      <trkpt lat="44.95429" lon="4.08902">
        <ele>1179.2</ele>
        <time>2026-04-29T07:29:47Z</time>
      </trkpt>
      <trkpt lat="44.95434" lon="4.08906">
        <ele>1179.4</ele>
        <time>2026-04-29T07:29:52Z</time>
      </trkpt>
      <trkpt lat="44.95439" lon="4.0891">
        <ele>1179.7</ele>
        <time>2026-04-29T07:29:57Z</time>
      </trkpt>
      <trkpt lat="44.95445" lon="4.08916">
        <ele>1180</ele>
        <time>2026-04-29T07:30:02Z</time>
      </trkpt>
      <trkpt lat="44.95449" lon="4.08923">
        <ele>1180.3</ele>
        <time>2026-04-29T07:30:07Z</time>
      </trkpt>
      <trkpt lat="44.95453" lon="4.08928">
        <ele>1180.6</ele>
        <time>2026-04-29T07:30:12Z</time>
      </trkpt>
      <trkpt lat="44.95458" lon="4.08934">
        <ele>1180.9</ele>
        <time>2026-04-29T07:30:17Z</time>
      </trkpt>
      <trkpt lat="44.95462" lon="4.08939">
        <ele>1181.2</ele>
        <time>2026-04-29T07:30:22Z</time>
      </trkpt>
      <trkpt lat="44.95466" lon="4.08944">
        <ele>1181.4</ele>
        <time>2026-04-29T07:30:27Z</time>
      </trkpt>
      <trkpt lat="44.95469" lon="4.08945">
        <ele>1181.6</ele>
        <time>2026-04-29T07:30:32Z</time>
      </trkpt>
      <trkpt lat="44.9547" lon="4.08943">
        <ele>1181.6</ele>
        <time>2026-04-29T07:30:37Z</time>
      </trkpt>
      <trkpt lat="44.9547" lon="4.08943">
        <ele>1181.6</ele>
        <time>2026-04-29T07:30:42Z</time>
      </trkpt>
      <trkpt lat="44.9547" lon="4.08943">
        <ele>1181.6</ele>
        <time>2026-04-29T07:30:47Z</time>
      </trkpt>
      <trkpt lat="44.9547" lon="4.08943">
        <ele>1181.6</ele>
        <time>2026-04-29T07:30:52Z</time>
      </trkpt>
      <trkpt lat="44.9547" lon="4.08943">
        <ele>1181.6</ele>
        <time>2026-04-29T07:30:57Z</time>
      </trkpt>
      <trkpt lat="44.9547" lon="4.08943">
        <ele>1181.6</ele>
        <time>2026-04-29T07:31:02Z</time>
      </trkpt>
      <trkpt lat="44.95474" lon="4.08945">
        <ele>1181.7</ele>
        <time>2026-04-29T07:31:07Z</time>
      </trkpt>
      <trkpt lat="44.95476" lon="4.08952">
        <ele>1182</ele>
        <time>2026-04-29T07:31:12Z</time>
      </trkpt>
      <trkpt lat="44.9548" lon="4.08958">
        <ele>1182.3</ele>
        <time>2026-04-29T07:31:17Z</time>
      </trkpt>
      <trkpt lat="44.95482" lon="4.08966">
        <ele>1182.5</ele>
        <time>2026-04-29T07:31:22Z</time>
      </trkpt>
      <trkpt lat="44.9548" lon="4.08975">
        <ele>1182.7</ele>
        <time>2026-04-29T07:31:27Z</time>
      </trkpt>
      <trkpt lat="44.95474" lon="4.08981">
        <ele>1182.6</ele>
        <time>2026-04-29T07:31:32Z</time>
      </trkpt>
      <trkpt lat="44.95468" lon="4.08987">
        <ele>1182.5</ele>
        <time>2026-04-29T07:31:37Z</time>
      </trkpt>
      <trkpt lat="44.95464" lon="4.08992">
        <ele>1182.5</ele>
        <time>2026-04-29T07:31:42Z</time>
      </trkpt>
      <trkpt lat="44.95459" lon="4.08999">
        <ele>1182.5</ele>
        <time>2026-04-29T07:31:47Z</time>
      </trkpt>
      <trkpt lat="44.95453" lon="4.09006">
        <ele>1182.4</ele>
        <time>2026-04-29T07:31:52Z</time>
      </trkpt>
      <trkpt lat="44.95449" lon="4.09013">
        <ele>1182.5</ele>
        <time>2026-04-29T07:31:57Z</time>
      </trkpt>
      <trkpt lat="44.95443" lon="4.0902">
        <ele>1182.4</ele>
        <time>2026-04-29T07:32:02Z</time>
      </trkpt>
      <trkpt lat="44.95438" lon="4.09027">
        <ele>1182.5</ele>
        <time>2026-04-29T07:32:07Z</time>
      </trkpt>
      <trkpt lat="44.95433" lon="4.09034">
        <ele>1182.6</ele>
        <time>2026-04-29T07:32:12Z</time>
      </trkpt>
      <trkpt lat="44.95428" lon="4.09041">
        <ele>1182.7</ele>
        <time>2026-04-29T07:32:17Z</time>
      </trkpt>
      <trkpt lat="44.95422" lon="4.09047">
        <ele>1182.8</ele>
        <time>2026-04-29T07:32:22Z</time>
      </trkpt>
      <trkpt lat="44.95416" lon="4.09054">
        <ele>1183</ele>
        <time>2026-04-29T07:32:27Z</time>
      </trkpt>
      <trkpt lat="44.9541" lon="4.09062">
        <ele>1183.4</ele>
        <time>2026-04-29T07:32:32Z</time>
      </trkpt>
      <trkpt lat="44.95405" lon="4.09068">
        <ele>1183.6</ele>
        <time>2026-04-29T07:32:37Z</time>
      </trkpt>
      <trkpt lat="44.95401" lon="4.09075">
        <ele>1183.9</ele>
        <time>2026-04-29T07:32:42Z</time>
      </trkpt>
      <trkpt lat="44.95395" lon="4.09082">
        <ele>1184.2</ele>
        <time>2026-04-29T07:32:47Z</time>
      </trkpt>
      <trkpt lat="44.95389" lon="4.09089">
        <ele>1184.2</ele>
        <time>2026-04-29T07:32:52Z</time>
      </trkpt>
      <trkpt lat="44.95384" lon="4.09095">
        <ele>1184.2</ele>
        <time>2026-04-29T07:32:57Z</time>
      </trkpt>
      <trkpt lat="44.95378" lon="4.091">
        <ele>1184.2</ele>
        <time>2026-04-29T07:33:02Z</time>
      </trkpt>
      <trkpt lat="44.95373" lon="4.09106">
        <ele>1184.3</ele>
        <time>2026-04-29T07:33:07Z</time>
      </trkpt>
      <trkpt lat="44.95367" lon="4.09115">
        <ele>1184.3</ele>
        <time>2026-04-29T07:33:12Z</time>
      </trkpt>
      <trkpt lat="44.95362" lon="4.09121">
        <ele>1184.3</ele>
        <time>2026-04-29T07:33:17Z</time>
      </trkpt>
      <trkpt lat="44.95356" lon="4.09128">
        <ele>1184.4</ele>
        <time>2026-04-29T07:33:22Z</time>
      </trkpt>
      <trkpt lat="44.9535" lon="4.09134">
        <ele>1184.6</ele>
        <time>2026-04-29T07:33:27Z</time>
      </trkpt>
      <trkpt lat="44.95345" lon="4.09138">
        <ele>1184.7</ele>
        <time>2026-04-29T07:33:32Z</time>
      </trkpt>
      <trkpt lat="44.95339" lon="4.09143">
        <ele>1184.8</ele>
        <time>2026-04-29T07:33:37Z</time>
      </trkpt>
      <trkpt lat="44.95335" lon="4.0915">
        <ele>1184.9</ele>
        <time>2026-04-29T07:33:42Z</time>
      </trkpt>
      <trkpt lat="44.95331" lon="4.09156">
        <ele>1185</ele>
        <time>2026-04-29T07:33:47Z</time>
      </trkpt>
      <trkpt lat="44.95326" lon="4.09162">
        <ele>1185</ele>
        <time>2026-04-29T07:33:52Z</time>
      </trkpt>
      <trkpt lat="44.95321" lon="4.09169">
        <ele>1184.9</ele>
        <time>2026-04-29T07:33:57Z</time>
      </trkpt>
      <trkpt lat="44.95317" lon="4.09175">
        <ele>1184.8</ele>
        <time>2026-04-29T07:34:02Z</time>
      </trkpt>
      <trkpt lat="44.95311" lon="4.09179">
        <ele>1184.7</ele>
        <time>2026-04-29T07:34:07Z</time>
      </trkpt>
      <trkpt lat="44.95306" lon="4.09184">
        <ele>1184.6</ele>
        <time>2026-04-29T07:34:12Z</time>
      </trkpt>
      <trkpt lat="44.95301" lon="4.09191">
        <ele>1184.6</ele>
        <time>2026-04-29T07:34:17Z</time>
      </trkpt>
      <trkpt lat="44.95297" lon="4.09194">
        <ele>1184.6</ele>
        <time>2026-04-29T07:34:22Z</time>
      </trkpt>
      <trkpt lat="44.95296" lon="4.09199">
        <ele>1184.5</ele>
        <time>2026-04-29T07:34:27Z</time>
      </trkpt>
      <trkpt lat="44.95292" lon="4.09204">
        <ele>1184.5</ele>
        <time>2026-04-29T07:34:32Z</time>
      </trkpt>
      <trkpt lat="44.95288" lon="4.09212">
        <ele>1184.6</ele>
        <time>2026-04-29T07:34:37Z</time>
      </trkpt>
      <trkpt lat="44.9529" lon="4.09219">
        <ele>1184.4</ele>
        <time>2026-04-29T07:34:42Z</time>
      </trkpt>
      <trkpt lat="44.95298" lon="4.09223">
        <ele>1184.1</ele>
        <time>2026-04-29T07:34:47Z</time>
      </trkpt>
      <trkpt lat="44.95307" lon="4.09223">
        <ele>1183.8</ele>
        <time>2026-04-29T07:34:52Z</time>
      </trkpt>
      <trkpt lat="44.95314" lon="4.09224">
        <ele>1183.6</ele>
        <time>2026-04-29T07:34:57Z</time>
      </trkpt>
      <trkpt lat="44.95321" lon="4.09224">
        <ele>1183.3</ele>
        <time>2026-04-29T07:35:02Z</time>
      </trkpt>
      <trkpt lat="44.95328" lon="4.09223">
        <ele>1183.1</ele>
        <time>2026-04-29T07:35:07Z</time>
      </trkpt>
      <trkpt lat="44.95335" lon="4.0922">
        <ele>1183</ele>
        <time>2026-04-29T07:35:12Z</time>
      </trkpt>
      <trkpt lat="44.95342" lon="4.0922">
        <ele>1182.5</ele>
        <time>2026-04-29T07:35:17Z</time>
      </trkpt>
      <trkpt lat="44.95349" lon="4.09217">
        <ele>1182.2</ele>
        <time>2026-04-29T07:35:22Z</time>
      </trkpt>
      <trkpt lat="44.95355" lon="4.09214">
        <ele>1181.9</ele>
        <time>2026-04-29T07:35:27Z</time>
      </trkpt>
      <trkpt lat="44.95363" lon="4.09211">
        <ele>1181.6</ele>
        <time>2026-04-29T07:35:32Z</time>
      </trkpt>
      <trkpt lat="44.95366" lon="4.09213">
        <ele>1181.3</ele>
        <time>2026-04-29T07:35:37Z</time>
      </trkpt>
      <trkpt lat="44.95367" lon="4.09213">
        <ele>1181.2</ele>
        <time>2026-04-29T07:35:42Z</time>
      </trkpt>
      <trkpt lat="44.95367" lon="4.09213">
        <ele>1181.2</ele>
        <time>2026-04-29T07:35:47Z</time>
      </trkpt>
      <trkpt lat="44.95372" lon="4.09207">
        <ele>1181.3</ele>
        <time>2026-04-29T07:35:52Z</time>
      </trkpt>
      <trkpt lat="44.95377" lon="4.09205">
        <ele>1181.1</ele>
        <time>2026-04-29T07:35:57Z</time>
      </trkpt>
      <trkpt lat="44.95385" lon="4.09203">
        <ele>1180.8</ele>
        <time>2026-04-29T07:36:02Z</time>
      </trkpt>
      <trkpt lat="44.95393" lon="4.09201">
        <ele>1180.4</ele>
        <time>2026-04-29T07:36:07Z</time>
      </trkpt>
      <trkpt lat="44.95399" lon="4.092">
        <ele>1180.2</ele>
        <time>2026-04-29T07:36:12Z</time>
      </trkpt>
      <trkpt lat="44.95406" lon="4.09197">
        <ele>1180</ele>
        <time>2026-04-29T07:36:17Z</time>
      </trkpt>
      <trkpt lat="44.95412" lon="4.09195">
        <ele>1179.9</ele>
        <time>2026-04-29T07:36:22Z</time>
      </trkpt>
      <trkpt lat="44.95418" lon="4.09192">
        <ele>1179.8</ele>
        <time>2026-04-29T07:36:27Z</time>
      </trkpt>
      <trkpt lat="44.95424" lon="4.0919">
        <ele>1179.7</ele>
        <time>2026-04-29T07:36:32Z</time>
      </trkpt>
      <trkpt lat="44.95431" lon="4.09188">
        <ele>1179.5</ele>
        <time>2026-04-29T07:36:37Z</time>
      </trkpt>
      <trkpt lat="44.9544" lon="4.09186">
        <ele>1179.3</ele>
        <time>2026-04-29T07:36:42Z</time>
      </trkpt>
      <trkpt lat="44.95446" lon="4.09187">
        <ele>1178.9</ele>
        <time>2026-04-29T07:36:47Z</time>
      </trkpt>
      <trkpt lat="44.95452" lon="4.09187">
        <ele>1178.6</ele>
        <time>2026-04-29T07:36:52Z</time>
      </trkpt>
      <trkpt lat="44.95458" lon="4.09188">
        <ele>1178.2</ele>
        <time>2026-04-29T07:36:57Z</time>
      </trkpt>
      <trkpt lat="44.95466" lon="4.09187">
        <ele>1177.9</ele>
        <time>2026-04-29T07:37:02Z</time>
      </trkpt>
      <trkpt lat="44.95474" lon="4.09188">
        <ele>1177.5</ele>
        <time>2026-04-29T07:37:07Z</time>
      </trkpt>
      <trkpt lat="44.95482" lon="4.09186">
        <ele>1177.2</ele>
        <time>2026-04-29T07:37:12Z</time>
      </trkpt>
      <trkpt lat="44.95487" lon="4.09185">
        <ele>1177.1</ele>
        <time>2026-04-29T07:37:17Z</time>
      </trkpt>
      <trkpt lat="44.95491" lon="4.09186">
        <ele>1176.8</ele>
        <time>2026-04-29T07:37:22Z</time>
      </trkpt>
      <trkpt lat="44.95492" lon="4.09186">
        <ele>1176.8</ele>
        <time>2026-04-29T07:37:27Z</time>
      </trkpt>
      <trkpt lat="44.95494" lon="4.09184">
        <ele>1176.8</ele>
        <time>2026-04-29T07:37:32Z</time>
      </trkpt>
      <trkpt lat="44.955" lon="4.09182">
        <ele>1176.7</ele>
        <time>2026-04-29T07:37:37Z</time>
      </trkpt>
      <trkpt lat="44.95506" lon="4.09181">
        <ele>1176.8</ele>
        <time>2026-04-29T07:37:42Z</time>
      </trkpt>
      <trkpt lat="44.95512" lon="4.09179">
        <ele>1177</ele>
        <time>2026-04-29T07:37:47Z</time>
      </trkpt>
      <trkpt lat="44.95518" lon="4.09178">
        <ele>1177.2</ele>
        <time>2026-04-29T07:37:52Z</time>
      </trkpt>
      <trkpt lat="44.95524" lon="4.09176">
        <ele>1177.4</ele>
        <time>2026-04-29T07:37:57Z</time>
      </trkpt>
      <trkpt lat="44.9553" lon="4.09176">
        <ele>1177.5</ele>
        <time>2026-04-29T07:38:02Z</time>
      </trkpt>
      <trkpt lat="44.95537" lon="4.09175">
        <ele>1177.6</ele>
        <time>2026-04-29T07:38:07Z</time>
      </trkpt>
      <trkpt lat="44.95544" lon="4.09174">
        <ele>1177.8</ele>
        <time>2026-04-29T07:38:12Z</time>
      </trkpt>
      <trkpt lat="44.95549" lon="4.09173">
        <ele>1177.9</ele>
        <time>2026-04-29T07:38:17Z</time>
      </trkpt>
      <trkpt lat="44.95555" lon="4.09173">
        <ele>1178</ele>
        <time>2026-04-29T07:38:22Z</time>
      </trkpt>
      <trkpt lat="44.95563" lon="4.09174">
        <ele>1177.9</ele>
        <time>2026-04-29T07:38:27Z</time>
      </trkpt>
      <trkpt lat="44.9557" lon="4.09174">
        <ele>1178</ele>
        <time>2026-04-29T07:38:32Z</time>
      </trkpt>
      <trkpt lat="44.95579" lon="4.09173">
        <ele>1178.2</ele>
        <time>2026-04-29T07:38:37Z</time>
      </trkpt>
      <trkpt lat="44.95587" lon="4.09174">
        <ele>1178.2</ele>
        <time>2026-04-29T07:38:42Z</time>
      </trkpt>
      <trkpt lat="44.95595" lon="4.09173">
        <ele>1178.3</ele>
        <time>2026-04-29T07:38:47Z</time>
      </trkpt>
      <trkpt lat="44.95602" lon="4.09171">
        <ele>1178.7</ele>
        <time>2026-04-29T07:38:52Z</time>
      </trkpt>
      <trkpt lat="44.9561" lon="4.0917">
        <ele>1178.9</ele>
        <time>2026-04-29T07:38:57Z</time>
      </trkpt>
      <trkpt lat="44.95617" lon="4.09169">
        <ele>1179.1</ele>
        <time>2026-04-29T07:39:02Z</time>
      </trkpt>
      <trkpt lat="44.95623" lon="4.0917">
        <ele>1179</ele>
        <time>2026-04-29T07:39:07Z</time>
      </trkpt>
      <trkpt lat="44.9563" lon="4.0917">
        <ele>1179.1</ele>
        <time>2026-04-29T07:39:12Z</time>
      </trkpt>
      <trkpt lat="44.95638" lon="4.09171">
        <ele>1179</ele>
        <time>2026-04-29T07:39:17Z</time>
      </trkpt>
      <trkpt lat="44.95645" lon="4.0917">
        <ele>1179.3</ele>
        <time>2026-04-29T07:39:22Z</time>
      </trkpt>
      <trkpt lat="44.95653" lon="4.0917">
        <ele>1179.3</ele>
        <time>2026-04-29T07:39:27Z</time>
      </trkpt>
      <trkpt lat="44.95662" lon="4.0917">
        <ele>1179.4</ele>
        <time>2026-04-29T07:39:32Z</time>
      </trkpt>
      <trkpt lat="44.95669" lon="4.0917">
        <ele>1179.4</ele>
        <time>2026-04-29T07:39:37Z</time>
      </trkpt>
      <trkpt lat="44.95674" lon="4.0917">
        <ele>1179.3</ele>
        <time>2026-04-29T07:39:42Z</time>
      </trkpt>
      <trkpt lat="44.95681" lon="4.0917">
        <ele>1179.1</ele>
        <time>2026-04-29T07:39:47Z</time>
      </trkpt>
      <trkpt lat="44.95689" lon="4.09169">
        <ele>1179.1</ele>
        <time>2026-04-29T07:39:52Z</time>
      </trkpt>
      <trkpt lat="44.95698" lon="4.0917">
        <ele>1178.7</ele>
        <time>2026-04-29T07:39:57Z</time>
      </trkpt>
      <trkpt lat="44.95705" lon="4.09168">
        <ele>1178.9</ele>
        <time>2026-04-29T07:40:02Z</time>
      </trkpt>
      <trkpt lat="44.95712" lon="4.09169">
        <ele>1178.5</ele>
        <time>2026-04-29T07:40:07Z</time>
      </trkpt>
      <trkpt lat="44.9572" lon="4.09168">
        <ele>1178.5</ele>
        <time>2026-04-29T07:40:12Z</time>
      </trkpt>
      <trkpt lat="44.95727" lon="4.09168">
        <ele>1178.3</ele>
        <time>2026-04-29T07:40:17Z</time>
      </trkpt>
      <trkpt lat="44.95734" lon="4.09169">
        <ele>1178</ele>
        <time>2026-04-29T07:40:22Z</time>
      </trkpt>
      <trkpt lat="44.95742" lon="4.09169">
        <ele>1177.8</ele>
        <time>2026-04-29T07:40:27Z</time>
      </trkpt>
      <trkpt lat="44.95749" lon="4.09169">
        <ele>1177.7</ele>
        <time>2026-04-29T07:40:32Z</time>
      </trkpt>
      <trkpt lat="44.95756" lon="4.09168">
        <ele>1177.5</ele>
        <time>2026-04-29T07:40:37Z</time>
      </trkpt>
      <trkpt lat="44.95762" lon="4.09168">
        <ele>1177.2</ele>
        <time>2026-04-29T07:40:42Z</time>
      </trkpt>
      <trkpt lat="44.95769" lon="4.09167">
        <ele>1177</ele>
        <time>2026-04-29T07:40:47Z</time>
      </trkpt>
      <trkpt lat="44.95776" lon="4.09165">
        <ele>1177</ele>
        <time>2026-04-29T07:40:52Z</time>
      </trkpt>
      <trkpt lat="44.95782" lon="4.09164">
        <ele>1176.8</ele>
        <time>2026-04-29T07:40:57Z</time>
      </trkpt>
      <trkpt lat="44.9579" lon="4.09163">
        <ele>1176.6</ele>
        <time>2026-04-29T07:41:02Z</time>
      </trkpt>
      <trkpt lat="44.95798" lon="4.09162">
        <ele>1176.4</ele>
        <time>2026-04-29T07:41:07Z</time>
      </trkpt>
      <trkpt lat="44.95806" lon="4.09161">
        <ele>1176.2</ele>
        <time>2026-04-29T07:41:12Z</time>
      </trkpt>
      <trkpt lat="44.95813" lon="4.09163">
        <ele>1175.5</ele>
        <time>2026-04-29T07:41:17Z</time>
      </trkpt>
      <trkpt lat="44.95821" lon="4.09165">
        <ele>1174.8</ele>
        <time>2026-04-29T07:41:22Z</time>
      </trkpt>
      <trkpt lat="44.95828" lon="4.09168">
        <ele>1174.1</ele>
        <time>2026-04-29T07:41:27Z</time>
      </trkpt>
      <trkpt lat="44.95836" lon="4.09172">
        <ele>1173.1</ele>
        <time>2026-04-29T07:41:32Z</time>
      </trkpt>
      <trkpt lat="44.95843" lon="4.09175">
        <ele>1172.4</ele>
        <time>2026-04-29T07:41:37Z</time>
      </trkpt>
      <trkpt lat="44.9585" lon="4.09177">
        <ele>1171.8</ele>
        <time>2026-04-29T07:41:42Z</time>
      </trkpt>
      <trkpt lat="44.95857" lon="4.0918">
        <ele>1171.1</ele>
        <time>2026-04-29T07:41:47Z</time>
      </trkpt>
      <trkpt lat="44.95865" lon="4.09183">
        <ele>1170.4</ele>
        <time>2026-04-29T07:41:52Z</time>
      </trkpt>
      <trkpt lat="44.95872" lon="4.09185">
        <ele>1169.8</ele>
        <time>2026-04-29T07:41:57Z</time>
      </trkpt>
      <trkpt lat="44.95879" lon="4.09187">
        <ele>1169.3</ele>
        <time>2026-04-29T07:42:02Z</time>
      </trkpt>
      <trkpt lat="44.95886" lon="4.09191">
        <ele>1168.5</ele>
        <time>2026-04-29T07:42:07Z</time>
      </trkpt>
      <trkpt lat="44.95892" lon="4.09194">
        <ele>1167.9</ele>
        <time>2026-04-29T07:42:12Z</time>
      </trkpt>
      <trkpt lat="44.95898" lon="4.09198">
        <ele>1167.3</ele>
        <time>2026-04-29T07:42:17Z</time>
      </trkpt>
      <trkpt lat="44.95905" lon="4.09202">
        <ele>1166.6</ele>
        <time>2026-04-29T07:42:22Z</time>
      </trkpt>
      <trkpt lat="44.95911" lon="4.09207">
        <ele>1165.8</ele>
        <time>2026-04-29T07:42:27Z</time>
      </trkpt>
      <trkpt lat="44.95917" lon="4.09213">
        <ele>1165</ele>
        <time>2026-04-29T07:42:32Z</time>
      </trkpt>
      <trkpt lat="44.95924" lon="4.09219">
        <ele>1164.4</ele>
        <time>2026-04-29T07:42:37Z</time>
      </trkpt>
      <trkpt lat="44.95928" lon="4.09225">
        <ele>1163.9</ele>
        <time>2026-04-29T07:42:42Z</time>
      </trkpt>
      <trkpt lat="44.95931" lon="4.09231">
        <ele>1163.4</ele>
        <time>2026-04-29T07:42:47Z</time>
      </trkpt>
      <trkpt lat="44.9593" lon="4.09238">
        <ele>1162.7</ele>
        <time>2026-04-29T07:42:52Z</time>
      </trkpt>
      <trkpt lat="44.9593" lon="4.09241">
        <ele>1162.4</ele>
        <time>2026-04-29T07:42:57Z</time>
      </trkpt>
      <trkpt lat="44.9593" lon="4.09241">
        <ele>1162.4</ele>
        <time>2026-04-29T07:43:02Z</time>
      </trkpt>
      <trkpt lat="44.9593" lon="4.09241">
        <ele>1162.4</ele>
        <time>2026-04-29T07:43:07Z</time>
      </trkpt>
      <trkpt lat="44.9593" lon="4.09241">
        <ele>1162.4</ele>
        <time>2026-04-29T07:43:12Z</time>
      </trkpt>
      <trkpt lat="44.9593" lon="4.09241">
        <ele>1162.4</ele>
        <time>2026-04-29T07:43:17Z</time>
      </trkpt>
      <trkpt lat="44.9593" lon="4.09241">
        <ele>1162.4</ele>
        <time>2026-04-29T07:43:22Z</time>
      </trkpt>
      <trkpt lat="44.9593" lon="4.09241">
        <ele>1162.4</ele>
        <time>2026-04-29T07:43:27Z</time>
      </trkpt>
      <trkpt lat="44.9593" lon="4.09241">
        <ele>1162.4</ele>
        <time>2026-04-29T07:43:32Z</time>
      </trkpt>
      <trkpt lat="44.9593" lon="4.09241">
        <ele>1162.4</ele>
        <time>2026-04-29T07:43:37Z</time>
      </trkpt>
      <trkpt lat="44.9593" lon="4.09241">
        <ele>1162.4</ele>
        <time>2026-04-29T07:43:42Z</time>
      </trkpt>
      <trkpt lat="44.9593" lon="4.09241">
        <ele>1162.4</ele>
        <time>2026-04-29T07:43:47Z</time>
      </trkpt>
      <trkpt lat="44.9593" lon="4.09241">
        <ele>1162.4</ele>
        <time>2026-04-29T07:43:52Z</time>
      </trkpt>
      <trkpt lat="44.9593" lon="4.09241">
        <ele>1162.4</ele>
        <time>2026-04-29T07:43:57Z</time>
      </trkpt>
      <trkpt lat="44.9593" lon="4.09241">
        <ele>1162.4</ele>
        <time>2026-04-29T07:44:02Z</time>
      </trkpt>
      <trkpt lat="44.9593" lon="4.09241">
        <ele>1162.4</ele>
        <time>2026-04-29T07:44:07Z</time>
      </trkpt>
      <trkpt lat="44.9593" lon="4.09241">
        <ele>1162.4</ele>
        <time>2026-04-29T07:44:12Z</time>
      </trkpt>
      <trkpt lat="44.9593" lon="4.09241">
        <ele>1162.4</ele>
        <time>2026-04-29T07:44:17Z</time>
      </trkpt>
      <trkpt lat="44.9593" lon="4.09241">
        <ele>1162.4</ele>
        <time>2026-04-29T07:44:22Z</time>
      </trkpt>
      <trkpt lat="44.9593" lon="4.09241">
        <ele>1162.4</ele>
        <time>2026-04-29T07:44:27Z</time>
      </trkpt>
      <trkpt lat="44.9593" lon="4.09241">
        <ele>1162.4</ele>
        <time>2026-04-29T07:44:32Z</time>
      </trkpt>
      <trkpt lat="44.9593" lon="4.09241">
        <ele>1162.4</ele>
        <time>2026-04-29T07:44:37Z</time>
      </trkpt>
      <trkpt lat="44.9593" lon="4.09241">
        <ele>1162.4</ele>
        <time>2026-04-29T07:44:42Z</time>
      </trkpt>
      <trkpt lat="44.9593" lon="4.09241">
        <ele>1162.4</ele>
        <time>2026-04-29T07:44:47Z</time>
      </trkpt>
      <trkpt lat="44.9593" lon="4.09241">
        <ele>1162.4</ele>
        <time>2026-04-29T07:44:52Z</time>
      </trkpt>
      <trkpt lat="44.9593" lon="4.09241">
        <ele>1162.4</ele>
        <time>2026-04-29T07:44:57Z</time>
      </trkpt>
      <trkpt lat="44.9593" lon="4.09241">
        <ele>1162.4</ele>
        <time>2026-04-29T07:45:02Z</time>
      </trkpt>
      <trkpt lat="44.9593" lon="4.09241">
        <ele>1162.4</ele>
        <time>2026-04-29T07:45:07Z</time>
      </trkpt>
      <trkpt lat="44.9593" lon="4.09241">
        <ele>1162.4</ele>
        <time>2026-04-29T07:45:12Z</time>
      </trkpt>
      <trkpt lat="44.9593" lon="4.09241">
        <ele>1162.4</ele>
        <time>2026-04-29T07:45:17Z</time>
      </trkpt>
      <trkpt lat="44.9593" lon="4.09241">
        <ele>1162.4</ele>
        <time>2026-04-29T07:45:22Z</time>
      </trkpt>
      <trkpt lat="44.95924" lon="4.09242">
        <ele>1162.1</ele>
        <time>2026-04-29T07:45:27Z</time>
      </trkpt>
      <trkpt lat="44.95919" lon="4.09246">
        <ele>1161.5</ele>
        <time>2026-04-29T07:45:32Z</time>
      </trkpt>
      <trkpt lat="44.95914" lon="4.09251">
        <ele>1160.9</ele>
        <time>2026-04-29T07:45:37Z</time>
      </trkpt>
      <trkpt lat="44.95908" lon="4.09256">
        <ele>1160.4</ele>
        <time>2026-04-29T07:45:42Z</time>
      </trkpt>
      <trkpt lat="44.95902" lon="4.09259">
        <ele>1160.2</ele>
        <time>2026-04-29T07:45:47Z</time>
      </trkpt>
      <trkpt lat="44.95895" lon="4.09262">
        <ele>1159.9</ele>
        <time>2026-04-29T07:45:52Z</time>
      </trkpt>
      <trkpt lat="44.95889" lon="4.09265">
        <ele>1159.6</ele>
        <time>2026-04-29T07:45:57Z</time>
      </trkpt>
      <trkpt lat="44.95883" lon="4.09267">
        <ele>1159.4</ele>
        <time>2026-04-29T07:46:02Z</time>
      </trkpt>
      <trkpt lat="44.95875" lon="4.09268">
        <ele>1159.3</ele>
        <time>2026-04-29T07:46:07Z</time>
      </trkpt>
      <trkpt lat="44.95868" lon="4.09266">
        <ele>1159.6</ele>
        <time>2026-04-29T07:46:12Z</time>
      </trkpt>
      <trkpt lat="44.95868" lon="4.09266">
        <ele>1159.6</ele>
        <time>2026-04-29T07:46:17Z</time>
      </trkpt>
      <trkpt lat="44.95868" lon="4.09266">
        <ele>1159.6</ele>
        <time>2026-04-29T07:46:22Z</time>
      </trkpt>
      <trkpt lat="44.95867" lon="4.09267">
        <ele>1159.5</ele>
        <time>2026-04-29T07:46:27Z</time>
      </trkpt>
      <trkpt lat="44.9586" lon="4.09267">
        <ele>1159.6</ele>
        <time>2026-04-29T07:46:32Z</time>
      </trkpt>
      <trkpt lat="44.95853" lon="4.09267">
        <ele>1159.6</ele>
        <time>2026-04-29T07:46:37Z</time>
      </trkpt>
      <trkpt lat="44.95845" lon="4.09267">
        <ele>1159.7</ele>
        <time>2026-04-29T07:46:42Z</time>
      </trkpt>
      <trkpt lat="44.95838" lon="4.09266">
        <ele>1159.9</ele>
        <time>2026-04-29T07:46:47Z</time>
      </trkpt>
      <trkpt lat="44.95831" lon="4.09268">
        <ele>1159.7</ele>
        <time>2026-04-29T07:46:52Z</time>
      </trkpt>
      <trkpt lat="44.95824" lon="4.0927">
        <ele>1159.7</ele>
        <time>2026-04-29T07:46:57Z</time>
      </trkpt>
      <trkpt lat="44.95815" lon="4.09269">
        <ele>1160.1</ele>
        <time>2026-04-29T07:47:02Z</time>
      </trkpt>
      <trkpt lat="44.95809" lon="4.09268">
        <ele>1160.4</ele>
        <time>2026-04-29T07:47:07Z</time>
      </trkpt>
      <trkpt lat="44.95802" lon="4.09269">
        <ele>1160.5</ele>
        <time>2026-04-29T07:47:12Z</time>
      </trkpt>
      <trkpt lat="44.95796" lon="4.09267">
        <ele>1161</ele>
        <time>2026-04-29T07:47:17Z</time>
      </trkpt>
      <trkpt lat="44.95788" lon="4.09267">
        <ele>1161.3</ele>
        <time>2026-04-29T07:47:22Z</time>
      </trkpt>
      <trkpt lat="44.95782" lon="4.09267">
        <ele>1161.5</ele>
        <time>2026-04-29T07:47:27Z</time>
      </trkpt>
      <trkpt lat="44.95776" lon="4.09268">
        <ele>1161.5</ele>
        <time>2026-04-29T07:47:32Z</time>
      </trkpt>
      <trkpt lat="44.95768" lon="4.0927">
        <ele>1161.5</ele>
        <time>2026-04-29T07:47:37Z</time>
      </trkpt>
      <trkpt lat="44.95761" lon="4.09272">
        <ele>1161.5</ele>
        <time>2026-04-29T07:47:42Z</time>
      </trkpt>
      <trkpt lat="44.95754" lon="4.09275">
        <ele>1161.3</ele>
        <time>2026-04-29T07:47:47Z</time>
      </trkpt>
      <trkpt lat="44.95746" lon="4.09276">
        <ele>1161.4</ele>
        <time>2026-04-29T07:47:52Z</time>
      </trkpt>
      <trkpt lat="44.95739" lon="4.09279">
        <ele>1161.2</ele>
        <time>2026-04-29T07:47:57Z</time>
      </trkpt>
      <trkpt lat="44.95731" lon="4.09283">
        <ele>1161</ele>
        <time>2026-04-29T07:48:02Z</time>
      </trkpt>
      <trkpt lat="44.95723" lon="4.09287">
        <ele>1160.8</ele>
        <time>2026-04-29T07:48:07Z</time>
      </trkpt>
      <trkpt lat="44.95715" lon="4.09291">
        <ele>1160.6</ele>
        <time>2026-04-29T07:48:12Z</time>
      </trkpt>
      <trkpt lat="44.95707" lon="4.09295">
        <ele>1160.4</ele>
        <time>2026-04-29T07:48:17Z</time>
      </trkpt>
      <trkpt lat="44.95702" lon="4.09298">
        <ele>1160.2</ele>
        <time>2026-04-29T07:48:22Z</time>
      </trkpt>
      <trkpt lat="44.95695" lon="4.09302">
        <ele>1160.1</ele>
        <time>2026-04-29T07:48:27Z</time>
      </trkpt>
      <trkpt lat="44.95688" lon="4.09306">
        <ele>1159.9</ele>
        <time>2026-04-29T07:48:32Z</time>
      </trkpt>
      <trkpt lat="44.95681" lon="4.09308">
        <ele>1160</ele>
        <time>2026-04-29T07:48:37Z</time>
      </trkpt>
      <trkpt lat="44.95673" lon="4.09311">
        <ele>1160.1</ele>
        <time>2026-04-29T07:48:42Z</time>
      </trkpt>
      <trkpt lat="44.95665" lon="4.09313">
        <ele>1160.3</ele>
        <time>2026-04-29T07:48:47Z</time>
      </trkpt>
      <trkpt lat="44.95659" lon="4.09315">
        <ele>1160.3</ele>
        <time>2026-04-29T07:48:52Z</time>
      </trkpt>
      <trkpt lat="44.95652" lon="4.09316">
        <ele>1160.5</ele>
        <time>2026-04-29T07:48:57Z</time>
      </trkpt>
      <trkpt lat="44.95646" lon="4.09319">
        <ele>1160.5</ele>
        <time>2026-04-29T07:49:02Z</time>
      </trkpt>
      <trkpt lat="44.9564" lon="4.09323">
        <ele>1160.3</ele>
        <time>2026-04-29T07:49:07Z</time>
      </trkpt>
      <trkpt lat="44.95633" lon="4.09329">
        <ele>1160</ele>
        <time>2026-04-29T07:49:12Z</time>
      </trkpt>
      <trkpt lat="44.95626" lon="4.09332">
        <ele>1160.1</ele>
        <time>2026-04-29T07:49:17Z</time>
      </trkpt>
      <trkpt lat="44.95619" lon="4.09337">
        <ele>1160.1</ele>
        <time>2026-04-29T07:49:22Z</time>
      </trkpt>
      <trkpt lat="44.95612" lon="4.09341">
        <ele>1160.2</ele>
        <time>2026-04-29T07:49:27Z</time>
      </trkpt>
      <trkpt lat="44.95604" lon="4.09346">
        <ele>1160.3</ele>
        <time>2026-04-29T07:49:32Z</time>
      </trkpt>
      <trkpt lat="44.95599" lon="4.0935">
        <ele>1160.4</ele>
        <time>2026-04-29T07:49:37Z</time>
      </trkpt>
      <trkpt lat="44.95593" lon="4.09355">
        <ele>1160.4</ele>
        <time>2026-04-29T07:49:42Z</time>
      </trkpt>
      <trkpt lat="44.95587" lon="4.09361">
        <ele>1160.5</ele>
        <time>2026-04-29T07:49:47Z</time>
      </trkpt>
      <trkpt lat="44.95581" lon="4.09366">
        <ele>1160.5</ele>
        <time>2026-04-29T07:49:52Z</time>
      </trkpt>
      <trkpt lat="44.95575" lon="4.09371">
        <ele>1160.5</ele>
        <time>2026-04-29T07:49:57Z</time>
      </trkpt>
      <trkpt lat="44.9557" lon="4.09376">
        <ele>1160.4</ele>
        <time>2026-04-29T07:50:02Z</time>
      </trkpt>
      <trkpt lat="44.95564" lon="4.09382">
        <ele>1160.4</ele>
        <time>2026-04-29T07:50:07Z</time>
      </trkpt>
      <trkpt lat="44.95558" lon="4.09388">
        <ele>1160.4</ele>
        <time>2026-04-29T07:50:12Z</time>
      </trkpt>
      <trkpt lat="44.95553" lon="4.09394">
        <ele>1160.3</ele>
        <time>2026-04-29T07:50:17Z</time>
      </trkpt>
      <trkpt lat="44.95547" lon="4.09401">
        <ele>1160.3</ele>
        <time>2026-04-29T07:50:22Z</time>
      </trkpt>
      <trkpt lat="44.9554" lon="4.09407">
        <ele>1160.4</ele>
        <time>2026-04-29T07:50:27Z</time>
      </trkpt>
      <trkpt lat="44.95535" lon="4.09414">
        <ele>1160.4</ele>
        <time>2026-04-29T07:50:32Z</time>
      </trkpt>
      <trkpt lat="44.95531" lon="4.09421">
        <ele>1160.5</ele>
        <time>2026-04-29T07:50:37Z</time>
      </trkpt>
      <trkpt lat="44.95525" lon="4.09427">
        <ele>1160.7</ele>
        <time>2026-04-29T07:50:42Z</time>
      </trkpt>
      <trkpt lat="44.95519" lon="4.09433">
        <ele>1161</ele>
        <time>2026-04-29T07:50:47Z</time>
      </trkpt>
      <trkpt lat="44.95513" lon="4.09438">
        <ele>1161.3</ele>
        <time>2026-04-29T07:50:52Z</time>
      </trkpt>
      <trkpt lat="44.9551" lon="4.09445">
        <ele>1161.4</ele>
        <time>2026-04-29T07:50:57Z</time>
      </trkpt>
      <trkpt lat="44.95506" lon="4.09451">
        <ele>1161.6</ele>
        <time>2026-04-29T07:51:02Z</time>
      </trkpt>
      <trkpt lat="44.95501" lon="4.09459">
        <ele>1161.9</ele>
        <time>2026-04-29T07:51:07Z</time>
      </trkpt>
      <trkpt lat="44.95494" lon="4.09464">
        <ele>1162.5</ele>
        <time>2026-04-29T07:51:12Z</time>
      </trkpt>
      <trkpt lat="44.9549" lon="4.09471">
        <ele>1162.9</ele>
        <time>2026-04-29T07:51:17Z</time>
      </trkpt>
      <trkpt lat="44.95485" lon="4.09478">
        <ele>1163.3</ele>
        <time>2026-04-29T07:51:22Z</time>
      </trkpt>
      <trkpt lat="44.95481" lon="4.09485">
        <ele>1163.7</ele>
        <time>2026-04-29T07:51:27Z</time>
      </trkpt>
      <trkpt lat="44.95477" lon="4.09491">
        <ele>1164.1</ele>
        <time>2026-04-29T07:51:32Z</time>
      </trkpt>
      <trkpt lat="44.95472" lon="4.09498">
        <ele>1164.7</ele>
        <time>2026-04-29T07:51:37Z</time>
      </trkpt>
      <trkpt lat="44.95467" lon="4.09507">
        <ele>1165.2</ele>
        <time>2026-04-29T07:51:42Z</time>
      </trkpt>
      <trkpt lat="44.95463" lon="4.09514">
        <ele>1165.5</ele>
        <time>2026-04-29T07:51:47Z</time>
      </trkpt>
      <trkpt lat="44.95458" lon="4.09522">
        <ele>1166</ele>
        <time>2026-04-29T07:51:52Z</time>
      </trkpt>
      <trkpt lat="44.95454" lon="4.09529">
        <ele>1166.5</ele>
        <time>2026-04-29T07:51:57Z</time>
      </trkpt>
      <trkpt lat="44.9545" lon="4.09537">
        <ele>1166.9</ele>
        <time>2026-04-29T07:52:02Z</time>
      </trkpt>
      <trkpt lat="44.95446" lon="4.09545">
        <ele>1167.3</ele>
        <time>2026-04-29T07:52:07Z</time>
      </trkpt>
      <trkpt lat="44.95441" lon="4.09553">
        <ele>1167.9</ele>
        <time>2026-04-29T07:52:12Z</time>
      </trkpt>
      <trkpt lat="44.95439" lon="4.09561">
        <ele>1168.2</ele>
        <time>2026-04-29T07:52:17Z</time>
      </trkpt>
      <trkpt lat="44.95435" lon="4.09569">
        <ele>1168.7</ele>
        <time>2026-04-29T07:52:22Z</time>
      </trkpt>
      <trkpt lat="44.95432" lon="4.09577">
        <ele>1169.1</ele>
        <time>2026-04-29T07:52:27Z</time>
      </trkpt>
      <trkpt lat="44.95429" lon="4.09585">
        <ele>1169.5</ele>
        <time>2026-04-29T07:52:32Z</time>
      </trkpt>
      <trkpt lat="44.95426" lon="4.09592">
        <ele>1169.7</ele>
        <time>2026-04-29T07:52:37Z</time>
      </trkpt>
      <trkpt lat="44.95423" lon="4.09601">
        <ele>1169.8</ele>
        <time>2026-04-29T07:52:42Z</time>
      </trkpt>
      <trkpt lat="44.95419" lon="4.09609">
        <ele>1170.1</ele>
        <time>2026-04-29T07:52:47Z</time>
      </trkpt>
      <trkpt lat="44.95416" lon="4.09618">
        <ele>1170.2</ele>
        <time>2026-04-29T07:52:52Z</time>
      </trkpt>
      <trkpt lat="44.95413" lon="4.09626">
        <ele>1170.4</ele>
        <time>2026-04-29T07:52:57Z</time>
      </trkpt>
      <trkpt lat="44.95411" lon="4.09634">
        <ele>1170.4</ele>
        <time>2026-04-29T07:53:02Z</time>
      </trkpt>
      <trkpt lat="44.95408" lon="4.09643">
        <ele>1170.5</ele>
        <time>2026-04-29T07:53:07Z</time>
      </trkpt>
      <trkpt lat="44.95405" lon="4.09651">
        <ele>1170.7</ele>
        <time>2026-04-29T07:53:12Z</time>
      </trkpt>
      <trkpt lat="44.95402" lon="4.0966">
        <ele>1170.9</ele>
        <time>2026-04-29T07:53:17Z</time>
      </trkpt>
      <trkpt lat="44.95401" lon="4.09668">
        <ele>1170.8</ele>
        <time>2026-04-29T07:53:22Z</time>
      </trkpt>
      <trkpt lat="44.95402" lon="4.09668">
        <ele>1170.7</ele>
        <time>2026-04-29T07:53:27Z</time>
      </trkpt>
      <trkpt lat="44.95402" lon="4.09668">
        <ele>1170.7</ele>
        <time>2026-04-29T07:53:32Z</time>
      </trkpt>
      <trkpt lat="44.95402" lon="4.09668">
        <ele>1170.7</ele>
        <time>2026-04-29T07:53:37Z</time>
      </trkpt>
      <trkpt lat="44.954" lon="4.09673">
        <ele>1170.8</ele>
        <time>2026-04-29T07:53:42Z</time>
      </trkpt>
      <trkpt lat="44.95399" lon="4.09681">
        <ele>1170.8</ele>
        <time>2026-04-29T07:53:47Z</time>
      </trkpt>
      <trkpt lat="44.95399" lon="4.09691">
        <ele>1170.5</ele>
        <time>2026-04-29T07:53:52Z</time>
      </trkpt>
      <trkpt lat="44.954" lon="4.09699">
        <ele>1170.2</ele>
        <time>2026-04-29T07:53:57Z</time>
      </trkpt>
      <trkpt lat="44.95402" lon="4.09708">
        <ele>1169.8</ele>
        <time>2026-04-29T07:54:02Z</time>
      </trkpt>
      <trkpt lat="44.95405" lon="4.09717">
        <ele>1169.2</ele>
        <time>2026-04-29T07:54:07Z</time>
      </trkpt>
      <trkpt lat="44.95409" lon="4.09726">
        <ele>1168.5</ele>
        <time>2026-04-29T07:54:12Z</time>
      </trkpt>
      <trkpt lat="44.95412" lon="4.09736">
        <ele>1167.9</ele>
        <time>2026-04-29T07:54:17Z</time>
      </trkpt>
      <trkpt lat="44.95416" lon="4.09745">
        <ele>1167.2</ele>
        <time>2026-04-29T07:54:22Z</time>
      </trkpt>
      <trkpt lat="44.95419" lon="4.09756">
        <ele>1166.8</ele>
        <time>2026-04-29T07:54:27Z</time>
      </trkpt>
      <trkpt lat="44.95423" lon="4.09765">
        <ele>1166.4</ele>
        <time>2026-04-29T07:54:32Z</time>
      </trkpt>
      <trkpt lat="44.95427" lon="4.09773">
        <ele>1166</ele>
        <time>2026-04-29T07:54:37Z</time>
      </trkpt>
      <trkpt lat="44.95432" lon="4.09781">
        <ele>1165.7</ele>
        <time>2026-04-29T07:54:42Z</time>
      </trkpt>
      <trkpt lat="44.95436" lon="4.09788">
        <ele>1165.4</ele>
        <time>2026-04-29T07:54:47Z</time>
      </trkpt>
      <trkpt lat="44.95432" lon="4.09793">
        <ele>1165.6</ele>
        <time>2026-04-29T07:54:52Z</time>
      </trkpt>
      <trkpt lat="44.95431" lon="4.09795">
        <ele>1165.6</ele>
        <time>2026-04-29T07:54:57Z</time>
      </trkpt>
      <trkpt lat="44.95432" lon="4.09795">
        <ele>1165.6</ele>
        <time>2026-04-29T07:55:02Z</time>
      </trkpt>
      <trkpt lat="44.95432" lon="4.09795">
        <ele>1165.6</ele>
        <time>2026-04-29T07:55:07Z</time>
      </trkpt>
      <trkpt lat="44.95432" lon="4.09795">
        <ele>1165.6</ele>
        <time>2026-04-29T07:55:12Z</time>
      </trkpt>
      <trkpt lat="44.95432" lon="4.09795">
        <ele>1165.6</ele>
        <time>2026-04-29T07:55:17Z</time>
      </trkpt>
      <trkpt lat="44.95432" lon="4.09795">
        <ele>1165.6</ele>
        <time>2026-04-29T07:55:22Z</time>
      </trkpt>
      <trkpt lat="44.95432" lon="4.09795">
        <ele>1165.6</ele>
        <time>2026-04-29T07:55:27Z</time>
      </trkpt>
      <trkpt lat="44.95432" lon="4.09795">
        <ele>1165.6</ele>
        <time>2026-04-29T07:55:32Z</time>
      </trkpt>
      <trkpt lat="44.95432" lon="4.09795">
        <ele>1165.6</ele>
        <time>2026-04-29T07:55:37Z</time>
      </trkpt>
      <trkpt lat="44.95432" lon="4.09795">
        <ele>1165.6</ele>
        <time>2026-04-29T07:55:42Z</time>
      </trkpt>
      <trkpt lat="44.95432" lon="4.09795">
        <ele>1165.6</ele>
        <time>2026-04-29T07:55:47Z</time>
      </trkpt>
      <trkpt lat="44.95432" lon="4.09795">
        <ele>1165.6</ele>
        <time>2026-04-29T07:55:52Z</time>
      </trkpt>
      <trkpt lat="44.95432" lon="4.09795">
        <ele>1165.6</ele>
        <time>2026-04-29T07:55:57Z</time>
      </trkpt>
      <trkpt lat="44.95432" lon="4.09795">
        <ele>1165.6</ele>
        <time>2026-04-29T07:56:02Z</time>
      </trkpt>
      <trkpt lat="44.95432" lon="4.09795">
        <ele>1165.6</ele>
        <time>2026-04-29T07:56:07Z</time>
      </trkpt>
      <trkpt lat="44.95432" lon="4.09795">
        <ele>1165.6</ele>
        <time>2026-04-29T07:56:12Z</time>
      </trkpt>
      <trkpt lat="44.95432" lon="4.09795">
        <ele>1165.6</ele>
        <time>2026-04-29T07:56:17Z</time>
      </trkpt>
      <trkpt lat="44.95432" lon="4.09795">
        <ele>1165.6</ele>
        <time>2026-04-29T07:56:22Z</time>
      </trkpt>
      <trkpt lat="44.95432" lon="4.09795">
        <ele>1165.6</ele>
        <time>2026-04-29T07:56:27Z</time>
      </trkpt>
      <trkpt lat="44.95432" lon="4.09795">
        <ele>1165.6</ele>
        <time>2026-04-29T07:56:32Z</time>
      </trkpt>
      <trkpt lat="44.95432" lon="4.09795">
        <ele>1165.6</ele>
        <time>2026-04-29T07:56:37Z</time>
      </trkpt>
      <trkpt lat="44.95432" lon="4.09795">
        <ele>1165.6</ele>
        <time>2026-04-29T07:56:42Z</time>
      </trkpt>
      <trkpt lat="44.95432" lon="4.09795">
        <ele>1165.6</ele>
        <time>2026-04-29T07:56:47Z</time>
      </trkpt>
      <trkpt lat="44.95432" lon="4.09795">
        <ele>1165.6</ele>
        <time>2026-04-29T07:56:52Z</time>
      </trkpt>
      <trkpt lat="44.95432" lon="4.09795">
        <ele>1165.6</ele>
        <time>2026-04-29T07:56:57Z</time>
      </trkpt>
      <trkpt lat="44.95432" lon="4.09795">
        <ele>1165.6</ele>
        <time>2026-04-29T07:57:02Z</time>
      </trkpt>
      <trkpt lat="44.95432" lon="4.09795">
        <ele>1165.6</ele>
        <time>2026-04-29T07:57:07Z</time>
      </trkpt>
      <trkpt lat="44.95432" lon="4.09795">
        <ele>1165.6</ele>
        <time>2026-04-29T07:57:12Z</time>
      </trkpt>
      <trkpt lat="44.95432" lon="4.09795">
        <ele>1165.6</ele>
        <time>2026-04-29T07:57:17Z</time>
      </trkpt>
      <trkpt lat="44.95432" lon="4.09795">
        <ele>1165.6</ele>
        <time>2026-04-29T07:57:22Z</time>
      </trkpt>
      <trkpt lat="44.95432" lon="4.09795">
        <ele>1165.6</ele>
        <time>2026-04-29T07:57:27Z</time>
      </trkpt>
      <trkpt lat="44.95432" lon="4.09795">
        <ele>1165.6</ele>
        <time>2026-04-29T07:57:32Z</time>
      </trkpt>
      <trkpt lat="44.95432" lon="4.09795">
        <ele>1165.6</ele>
        <time>2026-04-29T07:57:37Z</time>
      </trkpt>
      <trkpt lat="44.95432" lon="4.09795">
        <ele>1165.6</ele>
        <time>2026-04-29T07:57:42Z</time>
      </trkpt>
      <trkpt lat="44.95432" lon="4.09795">
        <ele>1165.6</ele>
        <time>2026-04-29T07:57:47Z</time>
      </trkpt>
      <trkpt lat="44.95432" lon="4.09795">
        <ele>1165.6</ele>
        <time>2026-04-29T07:57:52Z</time>
      </trkpt>
      <trkpt lat="44.95432" lon="4.09795">
        <ele>1165.6</ele>
        <time>2026-04-29T07:57:57Z</time>
      </trkpt>
      <trkpt lat="44.95432" lon="4.09795">
        <ele>1165.6</ele>
        <time>2026-04-29T07:58:02Z</time>
      </trkpt>
      <trkpt lat="44.95432" lon="4.09795">
        <ele>1165.6</ele>
        <time>2026-04-29T07:58:07Z</time>
      </trkpt>
      <trkpt lat="44.95432" lon="4.09795">
        <ele>1165.6</ele>
        <time>2026-04-29T07:58:12Z</time>
      </trkpt>
      <trkpt lat="44.95432" lon="4.09795">
        <ele>1165.6</ele>
        <time>2026-04-29T07:58:17Z</time>
      </trkpt>
      <trkpt lat="44.95432" lon="4.09795">
        <ele>1165.6</ele>
        <time>2026-04-29T07:58:22Z</time>
      </trkpt>
      <trkpt lat="44.95432" lon="4.09795">
        <ele>1165.6</ele>
        <time>2026-04-29T07:58:27Z</time>
      </trkpt>
      <trkpt lat="44.95432" lon="4.09795">
        <ele>1165.6</ele>
        <time>2026-04-29T07:58:32Z</time>
      </trkpt>
      <trkpt lat="44.95432" lon="4.09795">
        <ele>1165.6</ele>
        <time>2026-04-29T07:58:37Z</time>
      </trkpt>
      <trkpt lat="44.95435" lon="4.09796">
        <ele>1165.4</ele>
        <time>2026-04-29T07:58:42Z</time>
      </trkpt>
      <trkpt lat="44.95438" lon="4.098">
        <ele>1165.2</ele>
        <time>2026-04-29T07:58:47Z</time>
      </trkpt>
      <trkpt lat="44.95437" lon="4.09804">
        <ele>1165.2</ele>
        <time>2026-04-29T07:58:52Z</time>
      </trkpt>
      <trkpt lat="44.95442" lon="4.09807">
        <ele>1164.9</ele>
        <time>2026-04-29T07:58:57Z</time>
      </trkpt>
      <trkpt lat="44.95448" lon="4.09812">
        <ele>1164.6</ele>
        <time>2026-04-29T07:59:02Z</time>
      </trkpt>
      <trkpt lat="44.95453" lon="4.09817">
        <ele>1164.3</ele>
        <time>2026-04-29T07:59:07Z</time>
      </trkpt>
      <trkpt lat="44.95459" lon="4.09824">
        <ele>1164</ele>
        <time>2026-04-29T07:59:12Z</time>
      </trkpt>
      <trkpt lat="44.95462" lon="4.09832">
        <ele>1163.8</ele>
        <time>2026-04-29T07:59:17Z</time>
      </trkpt>
      <trkpt lat="44.95467" lon="4.09841">
        <ele>1163.7</ele>
        <time>2026-04-29T07:59:22Z</time>
      </trkpt>
      <trkpt lat="44.95471" lon="4.09849">
        <ele>1163.6</ele>
        <time>2026-04-29T07:59:27Z</time>
      </trkpt>
      <trkpt lat="44.95474" lon="4.09857">
        <ele>1163.5</ele>
        <time>2026-04-29T07:59:32Z</time>
      </trkpt>
      <trkpt lat="44.95479" lon="4.09866">
        <ele>1163.4</ele>
        <time>2026-04-29T07:59:37Z</time>
      </trkpt>
      <trkpt lat="44.95483" lon="4.09874">
        <ele>1163.3</ele>
        <time>2026-04-29T07:59:42Z</time>
      </trkpt>
      <trkpt lat="44.95487" lon="4.09882">
        <ele>1163.2</ele>
        <time>2026-04-29T07:59:47Z</time>
      </trkpt>
      <trkpt lat="44.95489" lon="4.09891">
        <ele>1163.2</ele>
        <time>2026-04-29T07:59:52Z</time>
      </trkpt>
      <trkpt lat="44.9549" lon="4.09899">
        <ele>1163.3</ele>
        <time>2026-04-29T07:59:57Z</time>
      </trkpt>
      <trkpt lat="44.95492" lon="4.09908">
        <ele>1163.3</ele>
        <time>2026-04-29T08:00:02Z</time>
      </trkpt>
      <trkpt lat="44.95493" lon="4.09918">
        <ele>1163.4</ele>
        <time>2026-04-29T08:00:07Z</time>
      </trkpt>
      <trkpt lat="44.95494" lon="4.09925">
        <ele>1163.9</ele>
        <time>2026-04-29T08:00:12Z</time>
      </trkpt>
      <trkpt lat="44.95497" lon="4.09928">
        <ele>1164</ele>
        <time>2026-04-29T08:00:17Z</time>
      </trkpt>
      <trkpt lat="44.95497" lon="4.09935">
        <ele>1164.5</ele>
        <time>2026-04-29T08:00:22Z</time>
      </trkpt>
      <trkpt lat="44.95496" lon="4.09945">
        <ele>1165.2</ele>
        <time>2026-04-29T08:00:27Z</time>
      </trkpt>
      <trkpt lat="44.95497" lon="4.09953">
        <ele>1165.7</ele>
        <time>2026-04-29T08:00:32Z</time>
      </trkpt>
      <trkpt lat="44.95499" lon="4.09961">
        <ele>1166.2</ele>
        <time>2026-04-29T08:00:37Z</time>
      </trkpt>
      <trkpt lat="44.955" lon="4.0997">
        <ele>1166.8</ele>
        <time>2026-04-29T08:00:42Z</time>
      </trkpt>
      <trkpt lat="44.955" lon="4.09979">
        <ele>1167.5</ele>
        <time>2026-04-29T08:00:47Z</time>
      </trkpt>
      <trkpt lat="44.95502" lon="4.09989">
        <ele>1168.2</ele>
        <time>2026-04-29T08:00:52Z</time>
      </trkpt>
      <trkpt lat="44.95501" lon="4.09996">
        <ele>1168.7</ele>
        <time>2026-04-29T08:00:57Z</time>
      </trkpt>
      <trkpt lat="44.95501" lon="4.1">
        <ele>1169</ele>
        <time>2026-04-29T08:01:02Z</time>
      </trkpt>
      <trkpt lat="44.95504" lon="4.10005">
        <ele>1169.1</ele>
        <time>2026-04-29T08:01:07Z</time>
      </trkpt>
      <trkpt lat="44.95506" lon="4.10012">
        <ele>1169.3</ele>
        <time>2026-04-29T08:01:12Z</time>
      </trkpt>
      <trkpt lat="44.95506" lon="4.10015">
        <ele>1169.4</ele>
        <time>2026-04-29T08:01:17Z</time>
      </trkpt>
      <trkpt lat="44.95506" lon="4.10013">
        <ele>1169.3</ele>
        <time>2026-04-29T08:01:22Z</time>
      </trkpt>
      <trkpt lat="44.95506" lon="4.10013">
        <ele>1169.3</ele>
        <time>2026-04-29T08:01:27Z</time>
      </trkpt>
      <trkpt lat="44.955" lon="4.10014">
        <ele>1169.5</ele>
        <time>2026-04-29T08:01:32Z</time>
      </trkpt>
      <trkpt lat="44.95495" lon="4.10016">
        <ele>1169.8</ele>
        <time>2026-04-29T08:01:37Z</time>
      </trkpt>
      <trkpt lat="44.95491" lon="4.10016">
        <ele>1169.9</ele>
        <time>2026-04-29T08:01:42Z</time>
      </trkpt>
      <trkpt lat="44.95488" lon="4.10021">
        <ele>1170.3</ele>
        <time>2026-04-29T08:01:47Z</time>
      </trkpt>
      <trkpt lat="44.95486" lon="4.10027">
        <ele>1170.6</ele>
        <time>2026-04-29T08:01:52Z</time>
      </trkpt>
      <trkpt lat="44.95487" lon="4.10032">
        <ele>1170.7</ele>
        <time>2026-04-29T08:01:57Z</time>
      </trkpt>
      <trkpt lat="44.95488" lon="4.10033">
        <ele>1170.7</ele>
        <time>2026-04-29T08:02:02Z</time>
      </trkpt>
      <trkpt lat="44.9549" lon="4.10037">
        <ele>1170.8</ele>
        <time>2026-04-29T08:02:07Z</time>
      </trkpt>
      <trkpt lat="44.95493" lon="4.10045">
        <ele>1171</ele>
        <time>2026-04-29T08:02:12Z</time>
      </trkpt>
      <trkpt lat="44.95494" lon="4.10053">
        <ele>1171.2</ele>
        <time>2026-04-29T08:02:17Z</time>
      </trkpt>
      <trkpt lat="44.95493" lon="4.10062">
        <ele>1171.6</ele>
        <time>2026-04-29T08:02:22Z</time>
      </trkpt>
      <trkpt lat="44.9549" lon="4.10069">
        <ele>1172</ele>
        <time>2026-04-29T08:02:27Z</time>
      </trkpt>
      <trkpt lat="44.95486" lon="4.10075">
        <ele>1172.5</ele>
        <time>2026-04-29T08:02:32Z</time>
      </trkpt>
      <trkpt lat="44.95482" lon="4.10083">
        <ele>1173.1</ele>
        <time>2026-04-29T08:02:37Z</time>
      </trkpt>
      <trkpt lat="44.95481" lon="4.10091">
        <ele>1173.3</ele>
        <time>2026-04-29T08:02:42Z</time>
      </trkpt>
      <trkpt lat="44.9548" lon="4.10099">
        <ele>1173.5</ele>
        <time>2026-04-29T08:02:47Z</time>
      </trkpt>
      <trkpt lat="44.95481" lon="4.10092">
        <ele>1173.3</ele>
        <time>2026-04-29T08:02:52Z</time>
      </trkpt>
      <trkpt lat="44.95481" lon="4.10083">
        <ele>1173.1</ele>
        <time>2026-04-29T08:02:57Z</time>
      </trkpt>
      <trkpt lat="44.95481" lon="4.10077">
        <ele>1172.9</ele>
        <time>2026-04-29T08:03:02Z</time>
      </trkpt>
      <trkpt lat="44.95481" lon="4.10077">
        <ele>1172.9</ele>
        <time>2026-04-29T08:03:07Z</time>
      </trkpt>
      <trkpt lat="44.95483" lon="4.10084">
        <ele>1173</ele>
        <time>2026-04-29T08:03:12Z</time>
      </trkpt>
      <trkpt lat="44.95482" lon="4.10093">
        <ele>1173.2</ele>
        <time>2026-04-29T08:03:17Z</time>
      </trkpt>
      <trkpt lat="44.95481" lon="4.101">
        <ele>1173.4</ele>
        <time>2026-04-29T08:03:22Z</time>
      </trkpt>
      <trkpt lat="44.95481" lon="4.101">
        <ele>1173.4</ele>
        <time>2026-04-29T08:03:27Z</time>
      </trkpt>
      <trkpt lat="44.95481" lon="4.101">
        <ele>1173.4</ele>
        <time>2026-04-29T08:03:32Z</time>
      </trkpt>
      <trkpt lat="44.95481" lon="4.101">
        <ele>1173.4</ele>
        <time>2026-04-29T08:03:37Z</time>
      </trkpt>
      <trkpt lat="44.95481" lon="4.101">
        <ele>1173.4</ele>
        <time>2026-04-29T08:03:42Z</time>
      </trkpt>
      <trkpt lat="44.95481" lon="4.101">
        <ele>1173.4</ele>
        <time>2026-04-29T08:03:47Z</time>
      </trkpt>
      <trkpt lat="44.95479" lon="4.10098">
        <ele>1173.5</ele>
        <time>2026-04-29T08:03:52Z</time>
      </trkpt>
      <trkpt lat="44.95478" lon="4.10098">
        <ele>1173.6</ele>
        <time>2026-04-29T08:03:57Z</time>
      </trkpt>
      <trkpt lat="44.95478" lon="4.10098">
        <ele>1173.6</ele>
        <time>2026-04-29T08:04:02Z</time>
      </trkpt>
      <trkpt lat="44.95478" lon="4.10098">
        <ele>1173.6</ele>
        <time>2026-04-29T08:04:07Z</time>
      </trkpt>
      <trkpt lat="44.95478" lon="4.10098">
        <ele>1173.6</ele>
        <time>2026-04-29T08:04:12Z</time>
      </trkpt>
      <trkpt lat="44.95478" lon="4.10098">
        <ele>1173.6</ele>
        <time>2026-04-29T08:04:17Z</time>
      </trkpt>
      <trkpt lat="44.95478" lon="4.10098">
        <ele>1173.6</ele>
        <time>2026-04-29T08:04:22Z</time>
      </trkpt>
      <trkpt lat="44.95478" lon="4.10098">
        <ele>1173.6</ele>
        <time>2026-04-29T08:04:27Z</time>
      </trkpt>
      <trkpt lat="44.95478" lon="4.10098">
        <ele>1173.6</ele>
        <time>2026-04-29T08:04:32Z</time>
      </trkpt>
      <trkpt lat="44.95478" lon="4.10098">
        <ele>1173.6</ele>
        <time>2026-04-29T08:04:37Z</time>
      </trkpt>
      <trkpt lat="44.95476" lon="4.10109">
        <ele>1173.9</ele>
        <time>2026-04-29T08:04:42Z</time>
      </trkpt>
      <trkpt lat="44.95472" lon="4.10117">
        <ele>1174.4</ele>
        <time>2026-04-29T08:04:47Z</time>
      </trkpt>
      <trkpt lat="44.95469" lon="4.10118">
        <ele>1174.6</ele>
        <time>2026-04-29T08:04:52Z</time>
      </trkpt>
      <trkpt lat="44.95467" lon="4.1012">
        <ele>1174.8</ele>
        <time>2026-04-29T08:04:57Z</time>
      </trkpt>
      <trkpt lat="44.95463" lon="4.10127">
        <ele>1175.2</ele>
        <time>2026-04-29T08:05:02Z</time>
      </trkpt>
      <trkpt lat="44.95459" lon="4.10133">
        <ele>1175.6</ele>
        <time>2026-04-29T08:05:07Z</time>
      </trkpt>
      <trkpt lat="44.95454" lon="4.10139">
        <ele>1176.2</ele>
        <time>2026-04-29T08:05:12Z</time>
      </trkpt>
      <trkpt lat="44.95451" lon="4.10144">
        <ele>1176.5</ele>
        <time>2026-04-29T08:05:17Z</time>
      </trkpt>
      <trkpt lat="44.95451" lon="4.1015">
        <ele>1176.7</ele>
        <time>2026-04-29T08:05:22Z</time>
      </trkpt>
      <trkpt lat="44.95447" lon="4.10156">
        <ele>1177.2</ele>
        <time>2026-04-29T08:05:27Z</time>
      </trkpt>
      <trkpt lat="44.95442" lon="4.10164">
        <ele>1177.8</ele>
        <time>2026-04-29T08:05:32Z</time>
      </trkpt>
      <trkpt lat="44.95439" lon="4.10171">
        <ele>1178.3</ele>
        <time>2026-04-29T08:05:37Z</time>
      </trkpt>
      <trkpt lat="44.95436" lon="4.10178">
        <ele>1178.7</ele>
        <time>2026-04-29T08:05:42Z</time>
      </trkpt>
      <trkpt lat="44.95433" lon="4.10186">
        <ele>1179.2</ele>
        <time>2026-04-29T08:05:47Z</time>
      </trkpt>
      <trkpt lat="44.95429" lon="4.10194">
        <ele>1179.7</ele>
        <time>2026-04-29T08:05:52Z</time>
      </trkpt>
      <trkpt lat="44.95425" lon="4.102">
        <ele>1180.2</ele>
        <time>2026-04-29T08:05:57Z</time>
      </trkpt>
      <trkpt lat="44.9542" lon="4.10206">
        <ele>1180.7</ele>
        <time>2026-04-29T08:06:02Z</time>
      </trkpt>
      <trkpt lat="44.95414" lon="4.10214">
        <ele>1181.4</ele>
        <time>2026-04-29T08:06:07Z</time>
      </trkpt>
      <trkpt lat="44.9541" lon="4.10224">
        <ele>1181.9</ele>
        <time>2026-04-29T08:06:12Z</time>
      </trkpt>
      <trkpt lat="44.95405" lon="4.10228">
        <ele>1182.4</ele>
        <time>2026-04-29T08:06:17Z</time>
      </trkpt>
      <trkpt lat="44.95401" lon="4.10232">
        <ele>1182.8</ele>
        <time>2026-04-29T08:06:22Z</time>
      </trkpt>
      <trkpt lat="44.95397" lon="4.10235">
        <ele>1183.2</ele>
        <time>2026-04-29T08:06:27Z</time>
      </trkpt>
      <trkpt lat="44.95391" lon="4.1024">
        <ele>1183.7</ele>
        <time>2026-04-29T08:06:32Z</time>
      </trkpt>
      <trkpt lat="44.95386" lon="4.10244">
        <ele>1184.1</ele>
        <time>2026-04-29T08:06:37Z</time>
      </trkpt>
      <trkpt lat="44.95381" lon="4.10249">
        <ele>1184.6</ele>
        <time>2026-04-29T08:06:42Z</time>
      </trkpt>
      <trkpt lat="44.95377" lon="4.10254">
        <ele>1185</ele>
        <time>2026-04-29T08:06:47Z</time>
      </trkpt>
      <trkpt lat="44.95372" lon="4.10257">
        <ele>1185.4</ele>
        <time>2026-04-29T08:06:52Z</time>
      </trkpt>
      <trkpt lat="44.95367" lon="4.10264">
        <ele>1185.9</ele>
        <time>2026-04-29T08:06:57Z</time>
      </trkpt>
      <trkpt lat="44.95363" lon="4.10269">
        <ele>1186.3</ele>
        <time>2026-04-29T08:07:02Z</time>
      </trkpt>
      <trkpt lat="44.95358" lon="4.1027">
        <ele>1186.7</ele>
        <time>2026-04-29T08:07:07Z</time>
      </trkpt>
      <trkpt lat="44.95352" lon="4.10272">
        <ele>1187.2</ele>
        <time>2026-04-29T08:07:12Z</time>
      </trkpt>
      <trkpt lat="44.95349" lon="4.10281">
        <ele>1187.6</ele>
        <time>2026-04-29T08:07:17Z</time>
      </trkpt>
      <trkpt lat="44.95345" lon="4.10288">
        <ele>1188.1</ele>
        <time>2026-04-29T08:07:22Z</time>
      </trkpt>
      <trkpt lat="44.9534" lon="4.10291">
        <ele>1188.5</ele>
        <time>2026-04-29T08:07:27Z</time>
      </trkpt>
      <trkpt lat="44.95334" lon="4.10297">
        <ele>1189.1</ele>
        <time>2026-04-29T08:07:32Z</time>
      </trkpt>
      <trkpt lat="44.95329" lon="4.10302">
        <ele>1189.9</ele>
        <time>2026-04-29T08:07:37Z</time>
      </trkpt>
      <trkpt lat="44.95325" lon="4.10308">
        <ele>1190.6</ele>
        <time>2026-04-29T08:07:42Z</time>
      </trkpt>
      <trkpt lat="44.9532" lon="4.10313">
        <ele>1191.5</ele>
        <time>2026-04-29T08:07:47Z</time>
      </trkpt>
      <trkpt lat="44.95315" lon="4.10318">
        <ele>1192.3</ele>
        <time>2026-04-29T08:07:52Z</time>
      </trkpt>
      <trkpt lat="44.9531" lon="4.10324">
        <ele>1193.2</ele>
        <time>2026-04-29T08:07:57Z</time>
      </trkpt>
      <trkpt lat="44.95305" lon="4.10328">
        <ele>1194</ele>
        <time>2026-04-29T08:08:02Z</time>
      </trkpt>
      <trkpt lat="44.953" lon="4.10333">
        <ele>1194.8</ele>
        <time>2026-04-29T08:08:07Z</time>
      </trkpt>
      <trkpt lat="44.95295" lon="4.10339">
        <ele>1195.4</ele>
        <time>2026-04-29T08:08:12Z</time>
      </trkpt>
      <trkpt lat="44.9529" lon="4.10342">
        <ele>1196</ele>
        <time>2026-04-29T08:08:17Z</time>
      </trkpt>
      <trkpt lat="44.95284" lon="4.10346">
        <ele>1196.7</ele>
        <time>2026-04-29T08:08:22Z</time>
      </trkpt>
      <trkpt lat="44.95279" lon="4.10349">
        <ele>1197.3</ele>
        <time>2026-04-29T08:08:27Z</time>
      </trkpt>
      <trkpt lat="44.95272" lon="4.10352">
        <ele>1198.1</ele>
        <time>2026-04-29T08:08:32Z</time>
      </trkpt>
      <trkpt lat="44.95266" lon="4.10356">
        <ele>1198.8</ele>
        <time>2026-04-29T08:08:37Z</time>
      </trkpt>
      <trkpt lat="44.95262" lon="4.10361">
        <ele>1199.1</ele>
        <time>2026-04-29T08:08:42Z</time>
      </trkpt>
      <trkpt lat="44.95257" lon="4.10365">
        <ele>1199.6</ele>
        <time>2026-04-29T08:08:47Z</time>
      </trkpt>
      <trkpt lat="44.95251" lon="4.10369">
        <ele>1200.2</ele>
        <time>2026-04-29T08:08:52Z</time>
      </trkpt>
      <trkpt lat="44.95246" lon="4.10372">
        <ele>1201.1</ele>
        <time>2026-04-29T08:08:57Z</time>
      </trkpt>
      <trkpt lat="44.9524" lon="4.10375">
        <ele>1202.4</ele>
        <time>2026-04-29T08:09:02Z</time>
      </trkpt>
      <trkpt lat="44.95233" lon="4.10377">
        <ele>1204</ele>
        <time>2026-04-29T08:09:07Z</time>
      </trkpt>
      <trkpt lat="44.95228" lon="4.1038">
        <ele>1205.1</ele>
        <time>2026-04-29T08:09:12Z</time>
      </trkpt>
      <trkpt lat="44.95222" lon="4.10384">
        <ele>1206.4</ele>
        <time>2026-04-29T08:09:17Z</time>
      </trkpt>
      <trkpt lat="44.95217" lon="4.10386">
        <ele>1207.5</ele>
        <time>2026-04-29T08:09:22Z</time>
      </trkpt>
      <trkpt lat="44.95211" lon="4.1039">
        <ele>1208.8</ele>
        <time>2026-04-29T08:09:27Z</time>
      </trkpt>
      <trkpt lat="44.95205" lon="4.10393">
        <ele>1210.2</ele>
        <time>2026-04-29T08:09:32Z</time>
      </trkpt>
      <trkpt lat="44.95199" lon="4.10398">
        <ele>1211.5</ele>
        <time>2026-04-29T08:09:37Z</time>
      </trkpt>
      <trkpt lat="44.95195" lon="4.10402">
        <ele>1212.3</ele>
        <time>2026-04-29T08:09:42Z</time>
      </trkpt>
      <trkpt lat="44.9519" lon="4.10405">
        <ele>1213.5</ele>
        <time>2026-04-29T08:09:47Z</time>
      </trkpt>
      <trkpt lat="44.95185" lon="4.10408">
        <ele>1214.6</ele>
        <time>2026-04-29T08:09:52Z</time>
      </trkpt>
      <trkpt lat="44.9518" lon="4.10411">
        <ele>1215.8</ele>
        <time>2026-04-29T08:09:57Z</time>
      </trkpt>
      <trkpt lat="44.95174" lon="4.10414">
        <ele>1217.2</ele>
        <time>2026-04-29T08:10:02Z</time>
      </trkpt>
      <trkpt lat="44.95169" lon="4.10418">
        <ele>1218.4</ele>
        <time>2026-04-29T08:10:07Z</time>
      </trkpt>
      <trkpt lat="44.95164" lon="4.10423">
        <ele>1219.1</ele>
        <time>2026-04-29T08:10:12Z</time>
      </trkpt>
      <trkpt lat="44.95159" lon="4.10428">
        <ele>1219.6</ele>
        <time>2026-04-29T08:10:17Z</time>
      </trkpt>
      <trkpt lat="44.95153" lon="4.10435">
        <ele>1220.2</ele>
        <time>2026-04-29T08:10:22Z</time>
      </trkpt>
      <trkpt lat="44.95148" lon="4.10442">
        <ele>1220.7</ele>
        <time>2026-04-29T08:10:27Z</time>
      </trkpt>
      <trkpt lat="44.95145" lon="4.10451">
        <ele>1220.8</ele>
        <time>2026-04-29T08:10:32Z</time>
      </trkpt>
      <trkpt lat="44.95142" lon="4.1046">
        <ele>1221</ele>
        <time>2026-04-29T08:10:37Z</time>
      </trkpt>
      <trkpt lat="44.95139" lon="4.10469">
        <ele>1221.2</ele>
        <time>2026-04-29T08:10:42Z</time>
      </trkpt>
      <trkpt lat="44.95137" lon="4.10477">
        <ele>1221.3</ele>
        <time>2026-04-29T08:10:47Z</time>
      </trkpt>
      <trkpt lat="44.95134" lon="4.10486">
        <ele>1221.5</ele>
        <time>2026-04-29T08:10:52Z</time>
      </trkpt>
      <trkpt lat="44.95132" lon="4.10495">
        <ele>1221.5</ele>
        <time>2026-04-29T08:10:57Z</time>
      </trkpt>
      <trkpt lat="44.9513" lon="4.10505">
        <ele>1221.5</ele>
        <time>2026-04-29T08:11:02Z</time>
      </trkpt>
      <trkpt lat="44.95128" lon="4.10515">
        <ele>1221.2</ele>
        <time>2026-04-29T08:11:07Z</time>
      </trkpt>
      <trkpt lat="44.95126" lon="4.10523">
        <ele>1221.1</ele>
        <time>2026-04-29T08:11:12Z</time>
      </trkpt>
      <trkpt lat="44.95124" lon="4.10533">
        <ele>1220.9</ele>
        <time>2026-04-29T08:11:17Z</time>
      </trkpt>
      <trkpt lat="44.95122" lon="4.10541">
        <ele>1220.7</ele>
        <time>2026-04-29T08:11:22Z</time>
      </trkpt>
      <trkpt lat="44.9512" lon="4.10551">
        <ele>1220.5</ele>
        <time>2026-04-29T08:11:27Z</time>
      </trkpt>
      <trkpt lat="44.95118" lon="4.1056">
        <ele>1220.3</ele>
        <time>2026-04-29T08:11:32Z</time>
      </trkpt>
      <trkpt lat="44.95117" lon="4.10568">
        <ele>1220</ele>
        <time>2026-04-29T08:11:37Z</time>
      </trkpt>
      <trkpt lat="44.95115" lon="4.10576">
        <ele>1219.8</ele>
        <time>2026-04-29T08:11:42Z</time>
      </trkpt>
      <trkpt lat="44.95112" lon="4.10586">
        <ele>1219.7</ele>
        <time>2026-04-29T08:11:47Z</time>
      </trkpt>
      <trkpt lat="44.95109" lon="4.10596">
        <ele>1219.3</ele>
        <time>2026-04-29T08:11:52Z</time>
      </trkpt>
      <trkpt lat="44.95107" lon="4.10605">
        <ele>1218.8</ele>
        <time>2026-04-29T08:11:57Z</time>
      </trkpt>
      <trkpt lat="44.95105" lon="4.10616">
        <ele>1218.2</ele>
        <time>2026-04-29T08:12:02Z</time>
      </trkpt>
      <trkpt lat="44.95103" lon="4.10625">
        <ele>1217.6</ele>
        <time>2026-04-29T08:12:07Z</time>
      </trkpt>
      <trkpt lat="44.95101" lon="4.10634">
        <ele>1217.1</ele>
        <time>2026-04-29T08:12:12Z</time>
      </trkpt>
      <trkpt lat="44.95101" lon="4.10643">
        <ele>1216.3</ele>
        <time>2026-04-29T08:12:17Z</time>
      </trkpt>
      <trkpt lat="44.951" lon="4.10653">
        <ele>1215.6</ele>
        <time>2026-04-29T08:12:22Z</time>
      </trkpt>
      <trkpt lat="44.95099" lon="4.10662">
        <ele>1214.9</ele>
        <time>2026-04-29T08:12:27Z</time>
      </trkpt>
      <trkpt lat="44.95096" lon="4.10673">
        <ele>1214.2</ele>
        <time>2026-04-29T08:12:32Z</time>
      </trkpt>
      <trkpt lat="44.95095" lon="4.10682">
        <ele>1213.4</ele>
        <time>2026-04-29T08:12:37Z</time>
      </trkpt>
      <trkpt lat="44.95093" lon="4.10692">
        <ele>1212.6</ele>
        <time>2026-04-29T08:12:42Z</time>
      </trkpt>
      <trkpt lat="44.95091" lon="4.10701">
        <ele>1211.8</ele>
        <time>2026-04-29T08:12:47Z</time>
      </trkpt>
      <trkpt lat="44.95088" lon="4.10711">
        <ele>1211</ele>
        <time>2026-04-29T08:12:52Z</time>
      </trkpt>
      <trkpt lat="44.95085" lon="4.10721">
        <ele>1210.1</ele>
        <time>2026-04-29T08:12:57Z</time>
      </trkpt>
      <trkpt lat="44.95081" lon="4.1073">
        <ele>1209.1</ele>
        <time>2026-04-29T08:13:02Z</time>
      </trkpt>
      <trkpt lat="44.95077" lon="4.10736">
        <ele>1208.4</ele>
        <time>2026-04-29T08:13:07Z</time>
      </trkpt>
      <trkpt lat="44.95072" lon="4.10745">
        <ele>1207.2</ele>
        <time>2026-04-29T08:13:12Z</time>
      </trkpt>
      <trkpt lat="44.95067" lon="4.10753">
        <ele>1206</ele>
        <time>2026-04-29T08:13:17Z</time>
      </trkpt>
      <trkpt lat="44.95063" lon="4.1076">
        <ele>1205</ele>
        <time>2026-04-29T08:13:22Z</time>
      </trkpt>
      <trkpt lat="44.95059" lon="4.10764">
        <ele>1204.3</ele>
        <time>2026-04-29T08:13:27Z</time>
      </trkpt>
      <trkpt lat="44.95059" lon="4.10764">
        <ele>1204.3</ele>
        <time>2026-04-29T08:13:32Z</time>
      </trkpt>
      <trkpt lat="44.95059" lon="4.10764">
        <ele>1204.3</ele>
        <time>2026-04-29T08:13:37Z</time>
      </trkpt>
      <trkpt lat="44.95055" lon="4.10769">
        <ele>1203.4</ele>
        <time>2026-04-29T08:13:42Z</time>
      </trkpt>
      <trkpt lat="44.9505" lon="4.10774">
        <ele>1202.4</ele>
        <time>2026-04-29T08:13:47Z</time>
      </trkpt>
      <trkpt lat="44.95044" lon="4.10781">
        <ele>1201</ele>
        <time>2026-04-29T08:13:52Z</time>
      </trkpt>
      <trkpt lat="44.95039" lon="4.10787">
        <ele>1199.8</ele>
        <time>2026-04-29T08:13:57Z</time>
      </trkpt>
      <trkpt lat="44.95033" lon="4.10793">
        <ele>1198.4</ele>
        <time>2026-04-29T08:14:02Z</time>
      </trkpt>
      <trkpt lat="44.95027" lon="4.10798">
        <ele>1197.1</ele>
        <time>2026-04-29T08:14:07Z</time>
      </trkpt>
      <trkpt lat="44.95026" lon="4.108">
        <ele>1196.6</ele>
        <time>2026-04-29T08:14:12Z</time>
      </trkpt>
      <trkpt lat="44.95025" lon="4.10801">
        <ele>1196.4</ele>
        <time>2026-04-29T08:14:17Z</time>
      </trkpt>
      <trkpt lat="44.95025" lon="4.10801">
        <ele>1196.4</ele>
        <time>2026-04-29T08:14:22Z</time>
      </trkpt>
      <trkpt lat="44.95025" lon="4.10801">
        <ele>1196.4</ele>
        <time>2026-04-29T08:14:27Z</time>
      </trkpt>
      <trkpt lat="44.95023" lon="4.10802">
        <ele>1196</ele>
        <time>2026-04-29T08:14:32Z</time>
      </trkpt>
      <trkpt lat="44.95016" lon="4.10807">
        <ele>1194.6</ele>
        <time>2026-04-29T08:14:37Z</time>
      </trkpt>
      <trkpt lat="44.9501" lon="4.10811">
        <ele>1193.3</ele>
        <time>2026-04-29T08:14:42Z</time>
      </trkpt>
      <trkpt lat="44.95003" lon="4.10814">
        <ele>1192</ele>
        <time>2026-04-29T08:14:47Z</time>
      </trkpt>
      <trkpt lat="44.94996" lon="4.10817">
        <ele>1190.5</ele>
        <time>2026-04-29T08:14:52Z</time>
      </trkpt>
      <trkpt lat="44.94989" lon="4.10819">
        <ele>1188.9</ele>
        <time>2026-04-29T08:14:57Z</time>
      </trkpt>
      <trkpt lat="44.94983" lon="4.10822">
        <ele>1187.4</ele>
        <time>2026-04-29T08:15:02Z</time>
      </trkpt>
      <trkpt lat="44.94976" lon="4.10823">
        <ele>1186</ele>
        <time>2026-04-29T08:15:07Z</time>
      </trkpt>
      <trkpt lat="44.94969" lon="4.10825">
        <ele>1184.5</ele>
        <time>2026-04-29T08:15:12Z</time>
      </trkpt>
      <trkpt lat="44.9496" lon="4.10826">
        <ele>1182.8</ele>
        <time>2026-04-29T08:15:17Z</time>
      </trkpt>
      <trkpt lat="44.94953" lon="4.10827">
        <ele>1181.4</ele>
        <time>2026-04-29T08:15:22Z</time>
      </trkpt>
      <trkpt lat="44.94946" lon="4.10826">
        <ele>1180.5</ele>
        <time>2026-04-29T08:15:27Z</time>
      </trkpt>
      <trkpt lat="44.94938" lon="4.10824">
        <ele>1179.5</ele>
        <time>2026-04-29T08:15:32Z</time>
      </trkpt>
      <trkpt lat="44.94932" lon="4.10821">
        <ele>1179.2</ele>
        <time>2026-04-29T08:15:37Z</time>
      </trkpt>
      <trkpt lat="44.94924" lon="4.10818">
        <ele>1178.5</ele>
        <time>2026-04-29T08:15:42Z</time>
      </trkpt>
      <trkpt lat="44.94918" lon="4.10816">
        <ele>1178</ele>
        <time>2026-04-29T08:15:47Z</time>
      </trkpt>
      <trkpt lat="44.94913" lon="4.10812">
        <ele>1178.4</ele>
        <time>2026-04-29T08:15:52Z</time>
      </trkpt>
      <trkpt lat="44.94906" lon="4.10807">
        <ele>1179</ele>
        <time>2026-04-29T08:15:57Z</time>
      </trkpt>
      <trkpt lat="44.94897" lon="4.10802">
        <ele>1179.5</ele>
        <time>2026-04-29T08:16:02Z</time>
      </trkpt>
      <trkpt lat="44.94891" lon="4.10798">
        <ele>1179.9</ele>
        <time>2026-04-29T08:16:07Z</time>
      </trkpt>
      <trkpt lat="44.94884" lon="4.10794">
        <ele>1180.2</ele>
        <time>2026-04-29T08:16:12Z</time>
      </trkpt>
      <trkpt lat="44.94877" lon="4.10792">
        <ele>1180.1</ele>
        <time>2026-04-29T08:16:17Z</time>
      </trkpt>
      <trkpt lat="44.94868" lon="4.1079">
        <ele>1179.8</ele>
        <time>2026-04-29T08:16:22Z</time>
      </trkpt>
      <trkpt lat="44.94861" lon="4.10788">
        <ele>1179.7</ele>
        <time>2026-04-29T08:16:27Z</time>
      </trkpt>
      <trkpt lat="44.94854" lon="4.10788">
        <ele>1179.1</ele>
        <time>2026-04-29T08:16:32Z</time>
      </trkpt>
      <trkpt lat="44.94846" lon="4.10787">
        <ele>1178.7</ele>
        <time>2026-04-29T08:16:37Z</time>
      </trkpt>
      <trkpt lat="44.94839" lon="4.10787">
        <ele>1178.2</ele>
        <time>2026-04-29T08:16:42Z</time>
      </trkpt>
      <trkpt lat="44.94831" lon="4.10787">
        <ele>1178</ele>
        <time>2026-04-29T08:16:47Z</time>
      </trkpt>
      <trkpt lat="44.94825" lon="4.10788">
        <ele>1178.4</ele>
        <time>2026-04-29T08:16:52Z</time>
      </trkpt>
      <trkpt lat="44.94818" lon="4.1079">
        <ele>1178.7</ele>
        <time>2026-04-29T08:16:57Z</time>
      </trkpt>
      <trkpt lat="44.94811" lon="4.10792">
        <ele>1179</ele>
        <time>2026-04-29T08:17:02Z</time>
      </trkpt>
      <trkpt lat="44.94805" lon="4.10794">
        <ele>1179.1</ele>
        <time>2026-04-29T08:17:07Z</time>
      </trkpt>
      <trkpt lat="44.94799" lon="4.10796">
        <ele>1179.3</ele>
        <time>2026-04-29T08:17:12Z</time>
      </trkpt>
      <trkpt lat="44.94792" lon="4.10798">
        <ele>1179.6</ele>
        <time>2026-04-29T08:17:17Z</time>
      </trkpt>
      <trkpt lat="44.94784" lon="4.10801">
        <ele>1179.8</ele>
        <time>2026-04-29T08:17:22Z</time>
      </trkpt>
      <trkpt lat="44.94777" lon="4.10804">
        <ele>1179.9</ele>
        <time>2026-04-29T08:17:27Z</time>
      </trkpt>
      <trkpt lat="44.9477" lon="4.10806">
        <ele>1180.2</ele>
        <time>2026-04-29T08:17:32Z</time>
      </trkpt>
      <trkpt lat="44.94763" lon="4.1081">
        <ele>1180.1</ele>
        <time>2026-04-29T08:17:37Z</time>
      </trkpt>
      <trkpt lat="44.94757" lon="4.10812">
        <ele>1180.2</ele>
        <time>2026-04-29T08:17:42Z</time>
      </trkpt>
      <trkpt lat="44.9475" lon="4.10816">
        <ele>1180.1</ele>
        <time>2026-04-29T08:17:47Z</time>
      </trkpt>
      <trkpt lat="44.94743" lon="4.1082">
        <ele>1179.8</ele>
        <time>2026-04-29T08:17:52Z</time>
      </trkpt>
      <trkpt lat="44.94737" lon="4.10824">
        <ele>1179.5</ele>
        <time>2026-04-29T08:17:57Z</time>
      </trkpt>
      <trkpt lat="44.94729" lon="4.10828">
        <ele>1179.2</ele>
        <time>2026-04-29T08:18:02Z</time>
      </trkpt>
      <trkpt lat="44.94723" lon="4.10834">
        <ele>1178.5</ele>
        <time>2026-04-29T08:18:07Z</time>
      </trkpt>
      <trkpt lat="44.9472" lon="4.10842">
        <ele>1177.6</ele>
        <time>2026-04-29T08:18:12Z</time>
      </trkpt>
      <trkpt lat="44.94715" lon="4.10851">
        <ele>1176.8</ele>
        <time>2026-04-29T08:18:17Z</time>
      </trkpt>
      <trkpt lat="44.9471" lon="4.10861">
        <ele>1175.9</ele>
        <time>2026-04-29T08:18:22Z</time>
      </trkpt>
      <trkpt lat="44.94707" lon="4.10871">
        <ele>1174.9</ele>
        <time>2026-04-29T08:18:27Z</time>
      </trkpt>
      <trkpt lat="44.94703" lon="4.10879">
        <ele>1174.2</ele>
        <time>2026-04-29T08:18:32Z</time>
      </trkpt>
      <trkpt lat="44.94699" lon="4.10887">
        <ele>1173.7</ele>
        <time>2026-04-29T08:18:37Z</time>
      </trkpt>
      <trkpt lat="44.94694" lon="4.10896">
        <ele>1173.1</ele>
        <time>2026-04-29T08:18:42Z</time>
      </trkpt>
      <trkpt lat="44.94691" lon="4.10904">
        <ele>1172.5</ele>
        <time>2026-04-29T08:18:47Z</time>
      </trkpt>
      <trkpt lat="44.94687" lon="4.10912">
        <ele>1172.1</ele>
        <time>2026-04-29T08:18:52Z</time>
      </trkpt>
      <trkpt lat="44.94682" lon="4.10921">
        <ele>1171.6</ele>
        <time>2026-04-29T08:18:57Z</time>
      </trkpt>
      <trkpt lat="44.94677" lon="4.10931">
        <ele>1170.9</ele>
        <time>2026-04-29T08:19:02Z</time>
      </trkpt>
      <trkpt lat="44.94672" lon="4.10939">
        <ele>1170.4</ele>
        <time>2026-04-29T08:19:07Z</time>
      </trkpt>
      <trkpt lat="44.94668" lon="4.10947">
        <ele>1169.8</ele>
        <time>2026-04-29T08:19:12Z</time>
      </trkpt>
      <trkpt lat="44.94663" lon="4.10954">
        <ele>1169.4</ele>
        <time>2026-04-29T08:19:17Z</time>
      </trkpt>
      <trkpt lat="44.94659" lon="4.1096">
        <ele>1169.1</ele>
        <time>2026-04-29T08:19:22Z</time>
      </trkpt>
      <trkpt lat="44.94654" lon="4.10967">
        <ele>1168.7</ele>
        <time>2026-04-29T08:19:27Z</time>
      </trkpt>
      <trkpt lat="44.94648" lon="4.10975">
        <ele>1168.2</ele>
        <time>2026-04-29T08:19:32Z</time>
      </trkpt>
      <trkpt lat="44.94643" lon="4.10982">
        <ele>1167.9</ele>
        <time>2026-04-29T08:19:37Z</time>
      </trkpt>
      <trkpt lat="44.94638" lon="4.10987">
        <ele>1167.8</ele>
        <time>2026-04-29T08:19:42Z</time>
      </trkpt>
      <trkpt lat="44.94632" lon="4.10993">
        <ele>1167.6</ele>
        <time>2026-04-29T08:19:47Z</time>
      </trkpt>
      <trkpt lat="44.94626" lon="4.11001">
        <ele>1167.3</ele>
        <time>2026-04-29T08:19:52Z</time>
      </trkpt>
      <trkpt lat="44.94619" lon="4.11008">
        <ele>1167.4</ele>
        <time>2026-04-29T08:19:57Z</time>
      </trkpt>
      <trkpt lat="44.94612" lon="4.11016">
        <ele>1167.4</ele>
        <time>2026-04-29T08:20:02Z</time>
      </trkpt>
      <trkpt lat="44.94605" lon="4.11022">
        <ele>1167.6</ele>
        <time>2026-04-29T08:20:07Z</time>
      </trkpt>
      <trkpt lat="44.946" lon="4.11028">
        <ele>1167.6</ele>
        <time>2026-04-29T08:20:12Z</time>
      </trkpt>
      <trkpt lat="44.94594" lon="4.11036">
        <ele>1167.7</ele>
        <time>2026-04-29T08:20:17Z</time>
      </trkpt>
      <trkpt lat="44.94589" lon="4.11043">
        <ele>1167.7</ele>
        <time>2026-04-29T08:20:22Z</time>
      </trkpt>
      <trkpt lat="44.94583" lon="4.11051">
        <ele>1167.8</ele>
        <time>2026-04-29T08:20:27Z</time>
      </trkpt>
      <trkpt lat="44.94579" lon="4.11059">
        <ele>1167.6</ele>
        <time>2026-04-29T08:20:32Z</time>
      </trkpt>
      <trkpt lat="44.94574" lon="4.11066">
        <ele>1167.6</ele>
        <time>2026-04-29T08:20:37Z</time>
      </trkpt>
      <trkpt lat="44.94569" lon="4.11073">
        <ele>1167.6</ele>
        <time>2026-04-29T08:20:42Z</time>
      </trkpt>
      <trkpt lat="44.94565" lon="4.11079">
        <ele>1167.6</ele>
        <time>2026-04-29T08:20:47Z</time>
      </trkpt>
      <trkpt lat="44.94561" lon="4.11085">
        <ele>1167.5</ele>
        <time>2026-04-29T08:20:52Z</time>
      </trkpt>
      <trkpt lat="44.94556" lon="4.11093">
        <ele>1167</ele>
        <time>2026-04-29T08:20:57Z</time>
      </trkpt>
      <trkpt lat="44.94552" lon="4.11102">
        <ele>1166.4</ele>
        <time>2026-04-29T08:21:02Z</time>
      </trkpt>
      <trkpt lat="44.94548" lon="4.11111">
        <ele>1165.6</ele>
        <time>2026-04-29T08:21:07Z</time>
      </trkpt>
      <trkpt lat="44.94543" lon="4.1112">
        <ele>1165</ele>
        <time>2026-04-29T08:21:12Z</time>
      </trkpt>
      <trkpt lat="44.94539" lon="4.11129">
        <ele>1164.3</ele>
        <time>2026-04-29T08:21:17Z</time>
      </trkpt>
      <trkpt lat="44.94535" lon="4.11138">
        <ele>1163.5</ele>
        <time>2026-04-29T08:21:22Z</time>
      </trkpt>
      <trkpt lat="44.94531" lon="4.11147">
        <ele>1162.7</ele>
        <time>2026-04-29T08:21:27Z</time>
      </trkpt>
      <trkpt lat="44.94525" lon="4.11157">
        <ele>1161.9</ele>
        <time>2026-04-29T08:21:32Z</time>
      </trkpt>
      <trkpt lat="44.94521" lon="4.11165">
        <ele>1161.2</ele>
        <time>2026-04-29T08:21:37Z</time>
      </trkpt>
      <trkpt lat="44.94517" lon="4.11173">
        <ele>1160.4</ele>
        <time>2026-04-29T08:21:42Z</time>
      </trkpt>
      <trkpt lat="44.94512" lon="4.1118">
        <ele>1159.7</ele>
        <time>2026-04-29T08:21:47Z</time>
      </trkpt>
      <trkpt lat="44.94506" lon="4.11188">
        <ele>1158.9</ele>
        <time>2026-04-29T08:21:52Z</time>
      </trkpt>
      <trkpt lat="44.94501" lon="4.11197">
        <ele>1157.8</ele>
        <time>2026-04-29T08:21:57Z</time>
      </trkpt>
      <trkpt lat="44.94495" lon="4.11203">
        <ele>1157</ele>
        <time>2026-04-29T08:22:02Z</time>
      </trkpt>
      <trkpt lat="44.9449" lon="4.1121">
        <ele>1155.9</ele>
        <time>2026-04-29T08:22:07Z</time>
      </trkpt>
      <trkpt lat="44.94485" lon="4.11217">
        <ele>1154.9</ele>
        <time>2026-04-29T08:22:12Z</time>
      </trkpt>
      <trkpt lat="44.9448" lon="4.11224">
        <ele>1154</ele>
        <time>2026-04-29T08:22:17Z</time>
      </trkpt>
      <trkpt lat="44.94474" lon="4.11232">
        <ele>1153.1</ele>
        <time>2026-04-29T08:22:22Z</time>
      </trkpt>
      <trkpt lat="44.94468" lon="4.11239">
        <ele>1152.4</ele>
        <time>2026-04-29T08:22:27Z</time>
      </trkpt>
      <trkpt lat="44.94462" lon="4.11245">
        <ele>1151.9</ele>
        <time>2026-04-29T08:22:32Z</time>
      </trkpt>
      <trkpt lat="44.94457" lon="4.11251">
        <ele>1151.6</ele>
        <time>2026-04-29T08:22:37Z</time>
      </trkpt>
      <trkpt lat="44.94452" lon="4.11257">
        <ele>1151.7</ele>
        <time>2026-04-29T08:22:42Z</time>
      </trkpt>
      <trkpt lat="44.94447" lon="4.11263">
        <ele>1151.9</ele>
        <time>2026-04-29T08:22:47Z</time>
      </trkpt>
      <trkpt lat="44.94441" lon="4.11269">
        <ele>1152.2</ele>
        <time>2026-04-29T08:22:52Z</time>
      </trkpt>
      <trkpt lat="44.94435" lon="4.11277">
        <ele>1152.5</ele>
        <time>2026-04-29T08:22:57Z</time>
      </trkpt>
      <trkpt lat="44.9443" lon="4.11285">
        <ele>1152.9</ele>
        <time>2026-04-29T08:23:02Z</time>
      </trkpt>
      <trkpt lat="44.94427" lon="4.11294">
        <ele>1153.1</ele>
        <time>2026-04-29T08:23:07Z</time>
      </trkpt>
      <trkpt lat="44.94425" lon="4.11305">
        <ele>1153.2</ele>
        <time>2026-04-29T08:23:12Z</time>
      </trkpt>
      <trkpt lat="44.94425" lon="4.11314">
        <ele>1153.1</ele>
        <time>2026-04-29T08:23:17Z</time>
      </trkpt>
      <trkpt lat="44.94425" lon="4.11325">
        <ele>1153</ele>
        <time>2026-04-29T08:23:22Z</time>
      </trkpt>
      <trkpt lat="44.94427" lon="4.11335">
        <ele>1152.9</ele>
        <time>2026-04-29T08:23:27Z</time>
      </trkpt>
      <trkpt lat="44.94429" lon="4.11344">
        <ele>1153.2</ele>
        <time>2026-04-29T08:23:32Z</time>
      </trkpt>
      <trkpt lat="44.94432" lon="4.11353">
        <ele>1153.3</ele>
        <time>2026-04-29T08:23:37Z</time>
      </trkpt>
      <trkpt lat="44.94434" lon="4.11363">
        <ele>1153.5</ele>
        <time>2026-04-29T08:23:42Z</time>
      </trkpt>
      <trkpt lat="44.94437" lon="4.11372">
        <ele>1153.6</ele>
        <time>2026-04-29T08:23:47Z</time>
      </trkpt>
      <trkpt lat="44.94439" lon="4.11383">
        <ele>1153.8</ele>
        <time>2026-04-29T08:23:52Z</time>
      </trkpt>
      <trkpt lat="44.94441" lon="4.11392">
        <ele>1153.9</ele>
        <time>2026-04-29T08:23:57Z</time>
      </trkpt>
      <trkpt lat="44.94442" lon="4.11402">
        <ele>1154.2</ele>
        <time>2026-04-29T08:24:02Z</time>
      </trkpt>
      <trkpt lat="44.94444" lon="4.11412">
        <ele>1154.2</ele>
        <time>2026-04-29T08:24:07Z</time>
      </trkpt>
      <trkpt lat="44.94446" lon="4.11422">
        <ele>1154</ele>
        <time>2026-04-29T08:24:12Z</time>
      </trkpt>
      <trkpt lat="44.94447" lon="4.11432">
        <ele>1153.7</ele>
        <time>2026-04-29T08:24:17Z</time>
      </trkpt>
      <trkpt lat="44.94448" lon="4.11443">
        <ele>1153.4</ele>
        <time>2026-04-29T08:24:22Z</time>
      </trkpt>
      <trkpt lat="44.94449" lon="4.11453">
        <ele>1153.1</ele>
        <time>2026-04-29T08:24:27Z</time>
      </trkpt>
      <trkpt lat="44.94451" lon="4.11464">
        <ele>1152.5</ele>
        <time>2026-04-29T08:24:32Z</time>
      </trkpt>
      <trkpt lat="44.94452" lon="4.11473">
        <ele>1152.2</ele>
        <time>2026-04-29T08:24:37Z</time>
      </trkpt>
      <trkpt lat="44.94453" lon="4.11484">
        <ele>1151.9</ele>
        <time>2026-04-29T08:24:42Z</time>
      </trkpt>
      <trkpt lat="44.94454" lon="4.11494">
        <ele>1151.6</ele>
        <time>2026-04-29T08:24:47Z</time>
      </trkpt>
      <trkpt lat="44.94455" lon="4.11505">
        <ele>1151.1</ele>
        <time>2026-04-29T08:24:52Z</time>
      </trkpt>
      <trkpt lat="44.94457" lon="4.11515">
        <ele>1150.3</ele>
        <time>2026-04-29T08:24:57Z</time>
      </trkpt>
      <trkpt lat="44.94457" lon="4.11526">
        <ele>1150</ele>
        <time>2026-04-29T08:25:02Z</time>
      </trkpt>
      <trkpt lat="44.94458" lon="4.11537">
        <ele>1149.5</ele>
        <time>2026-04-29T08:25:07Z</time>
      </trkpt>
      <trkpt lat="44.94459" lon="4.11547">
        <ele>1149</ele>
        <time>2026-04-29T08:25:12Z</time>
      </trkpt>
      <trkpt lat="44.9446" lon="4.11556">
        <ele>1148.5</ele>
        <time>2026-04-29T08:25:17Z</time>
      </trkpt>
      <trkpt lat="44.94461" lon="4.11565">
        <ele>1148.1</ele>
        <time>2026-04-29T08:25:22Z</time>
      </trkpt>
      <trkpt lat="44.94462" lon="4.11574">
        <ele>1147.6</ele>
        <time>2026-04-29T08:25:27Z</time>
      </trkpt>
      <trkpt lat="44.94461" lon="4.11583">
        <ele>1147.6</ele>
        <time>2026-04-29T08:25:32Z</time>
      </trkpt>
      <trkpt lat="44.94461" lon="4.11591">
        <ele>1147.6</ele>
        <time>2026-04-29T08:25:37Z</time>
      </trkpt>
      <trkpt lat="44.94461" lon="4.11599">
        <ele>1147.7</ele>
        <time>2026-04-29T08:25:42Z</time>
      </trkpt>
      <trkpt lat="44.9446" lon="4.11607">
        <ele>1147.9</ele>
        <time>2026-04-29T08:25:47Z</time>
      </trkpt>
      <trkpt lat="44.94459" lon="4.11614">
        <ele>1148.1</ele>
        <time>2026-04-29T08:25:52Z</time>
      </trkpt>
      <trkpt lat="44.94458" lon="4.11622">
        <ele>1148.3</ele>
        <time>2026-04-29T08:25:57Z</time>
      </trkpt>
      <trkpt lat="44.94458" lon="4.11629">
        <ele>1148.3</ele>
        <time>2026-04-29T08:26:02Z</time>
      </trkpt>
      <trkpt lat="44.94457" lon="4.11637">
        <ele>1148.5</ele>
        <time>2026-04-29T08:26:07Z</time>
      </trkpt>
      <trkpt lat="44.94457" lon="4.11644">
        <ele>1148.6</ele>
        <time>2026-04-29T08:26:12Z</time>
      </trkpt>
      <trkpt lat="44.94457" lon="4.1165">
        <ele>1148.6</ele>
        <time>2026-04-29T08:26:17Z</time>
      </trkpt>
      <trkpt lat="44.94456" lon="4.11657">
        <ele>1148.8</ele>
        <time>2026-04-29T08:26:22Z</time>
      </trkpt>
      <trkpt lat="44.94455" lon="4.11663">
        <ele>1148.9</ele>
        <time>2026-04-29T08:26:27Z</time>
      </trkpt>
      <trkpt lat="44.94455" lon="4.1167">
        <ele>1149</ele>
        <time>2026-04-29T08:26:32Z</time>
      </trkpt>
      <trkpt lat="44.94454" lon="4.11678">
        <ele>1149.1</ele>
        <time>2026-04-29T08:26:37Z</time>
      </trkpt>
      <trkpt lat="44.94454" lon="4.11686">
        <ele>1149.2</ele>
        <time>2026-04-29T08:26:42Z</time>
      </trkpt>
      <trkpt lat="44.94452" lon="4.11691">
        <ele>1149.4</ele>
        <time>2026-04-29T08:26:47Z</time>
      </trkpt>
      <trkpt lat="44.94451" lon="4.11698">
        <ele>1149.4</ele>
        <time>2026-04-29T08:26:52Z</time>
      </trkpt>
      <trkpt lat="44.94449" lon="4.11703">
        <ele>1149.6</ele>
        <time>2026-04-29T08:26:57Z</time>
      </trkpt>
      <trkpt lat="44.94447" lon="4.1171">
        <ele>1149.7</ele>
        <time>2026-04-29T08:27:02Z</time>
      </trkpt>
      <trkpt lat="44.94445" lon="4.11717">
        <ele>1149.7</ele>
        <time>2026-04-29T08:27:07Z</time>
      </trkpt>
      <trkpt lat="44.94444" lon="4.11723">
        <ele>1149.7</ele>
        <time>2026-04-29T08:27:12Z</time>
      </trkpt>
      <trkpt lat="44.94442" lon="4.11728">
        <ele>1149.7</ele>
        <time>2026-04-29T08:27:17Z</time>
      </trkpt>
      <trkpt lat="44.94441" lon="4.11733">
        <ele>1149.6</ele>
        <time>2026-04-29T08:27:22Z</time>
      </trkpt>
      <trkpt lat="44.94439" lon="4.11739">
        <ele>1149.5</ele>
        <time>2026-04-29T08:27:27Z</time>
      </trkpt>
      <trkpt lat="44.94438" lon="4.11745">
        <ele>1149.4</ele>
        <time>2026-04-29T08:27:32Z</time>
      </trkpt>
      <trkpt lat="44.94437" lon="4.11751">
        <ele>1149.3</ele>
        <time>2026-04-29T08:27:37Z</time>
      </trkpt>
      <trkpt lat="44.94436" lon="4.11757">
        <ele>1149.7</ele>
        <time>2026-04-29T08:27:42Z</time>
      </trkpt>
      <trkpt lat="44.94435" lon="4.11763">
        <ele>1150.1</ele>
        <time>2026-04-29T08:27:47Z</time>
      </trkpt>
      <trkpt lat="44.94434" lon="4.11768">
        <ele>1150.5</ele>
        <time>2026-04-29T08:27:52Z</time>
      </trkpt>
      <trkpt lat="44.94432" lon="4.11776">
        <ele>1151</ele>
        <time>2026-04-29T08:27:57Z</time>
      </trkpt>
      <trkpt lat="44.94432" lon="4.11784">
        <ele>1151.5</ele>
        <time>2026-04-29T08:28:02Z</time>
      </trkpt>
      <trkpt lat="44.94431" lon="4.11791">
        <ele>1152</ele>
        <time>2026-04-29T08:28:07Z</time>
      </trkpt>
      <trkpt lat="44.94429" lon="4.11798">
        <ele>1152.4</ele>
        <time>2026-04-29T08:28:12Z</time>
      </trkpt>
      <trkpt lat="44.94429" lon="4.11804">
        <ele>1152.8</ele>
        <time>2026-04-29T08:28:17Z</time>
      </trkpt>
      <trkpt lat="44.94428" lon="4.11812">
        <ele>1153.3</ele>
        <time>2026-04-29T08:28:22Z</time>
      </trkpt>
      <trkpt lat="44.94427" lon="4.11821">
        <ele>1153.8</ele>
        <time>2026-04-29T08:28:27Z</time>
      </trkpt>
      <trkpt lat="44.94425" lon="4.11828">
        <ele>1154.2</ele>
        <time>2026-04-29T08:28:32Z</time>
      </trkpt>
      <trkpt lat="44.94424" lon="4.11832">
        <ele>1154.4</ele>
        <time>2026-04-29T08:28:37Z</time>
      </trkpt>
      <trkpt lat="44.94424" lon="4.11832">
        <ele>1154.4</ele>
        <time>2026-04-29T08:28:42Z</time>
      </trkpt>
      <trkpt lat="44.94424" lon="4.11835">
        <ele>1154.6</ele>
        <time>2026-04-29T08:28:47Z</time>
      </trkpt>
      <trkpt lat="44.94421" lon="4.1184">
        <ele>1154.8</ele>
        <time>2026-04-29T08:28:52Z</time>
      </trkpt>
      <trkpt lat="44.94421" lon="4.11847">
        <ele>1155.4</ele>
        <time>2026-04-29T08:28:57Z</time>
      </trkpt>
      <trkpt lat="44.9442" lon="4.11857">
        <ele>1156.2</ele>
        <time>2026-04-29T08:29:02Z</time>
      </trkpt>
      <trkpt lat="44.94419" lon="4.11864">
        <ele>1156.7</ele>
        <time>2026-04-29T08:29:07Z</time>
      </trkpt>
      <trkpt lat="44.94418" lon="4.11872">
        <ele>1157.3</ele>
        <time>2026-04-29T08:29:12Z</time>
      </trkpt>
      <trkpt lat="44.94417" lon="4.11881">
        <ele>1158</ele>
        <time>2026-04-29T08:29:17Z</time>
      </trkpt>
      <trkpt lat="44.94417" lon="4.11887">
        <ele>1158.5</ele>
        <time>2026-04-29T08:29:22Z</time>
      </trkpt>
      <trkpt lat="44.94416" lon="4.11895">
        <ele>1159.2</ele>
        <time>2026-04-29T08:29:27Z</time>
      </trkpt>
      <trkpt lat="44.94416" lon="4.11902">
        <ele>1159.8</ele>
        <time>2026-04-29T08:29:32Z</time>
      </trkpt>
      <trkpt lat="44.94415" lon="4.11909">
        <ele>1160.3</ele>
        <time>2026-04-29T08:29:37Z</time>
      </trkpt>
      <trkpt lat="44.94416" lon="4.11917">
        <ele>1161</ele>
        <time>2026-04-29T08:29:42Z</time>
      </trkpt>
      <trkpt lat="44.94416" lon="4.11925">
        <ele>1161.6</ele>
        <time>2026-04-29T08:29:47Z</time>
      </trkpt>
      <trkpt lat="44.94416" lon="4.11932">
        <ele>1162.1</ele>
        <time>2026-04-29T08:29:52Z</time>
      </trkpt>
      <trkpt lat="44.94416" lon="4.11938">
        <ele>1162.5</ele>
        <time>2026-04-29T08:29:57Z</time>
      </trkpt>
      <trkpt lat="44.94416" lon="4.11946">
        <ele>1163.1</ele>
        <time>2026-04-29T08:30:02Z</time>
      </trkpt>
      <trkpt lat="44.94417" lon="4.11955">
        <ele>1163.8</ele>
        <time>2026-04-29T08:30:07Z</time>
      </trkpt>
      <trkpt lat="44.94417" lon="4.11962">
        <ele>1164.3</ele>
        <time>2026-04-29T08:30:12Z</time>
      </trkpt>
      <trkpt lat="44.94418" lon="4.11969">
        <ele>1164.8</ele>
        <time>2026-04-29T08:30:17Z</time>
      </trkpt>
      <trkpt lat="44.9442" lon="4.11976">
        <ele>1165.4</ele>
        <time>2026-04-29T08:30:22Z</time>
      </trkpt>
      <trkpt lat="44.94421" lon="4.11984">
        <ele>1166.1</ele>
        <time>2026-04-29T08:30:27Z</time>
      </trkpt>
      <trkpt lat="44.94423" lon="4.1199">
        <ele>1166.6</ele>
        <time>2026-04-29T08:30:32Z</time>
      </trkpt>
      <trkpt lat="44.94425" lon="4.11998">
        <ele>1167.4</ele>
        <time>2026-04-29T08:30:37Z</time>
      </trkpt>
      <trkpt lat="44.94427" lon="4.12006">
        <ele>1168.1</ele>
        <time>2026-04-29T08:30:42Z</time>
      </trkpt>
      <trkpt lat="44.94431" lon="4.12012">
        <ele>1168.9</ele>
        <time>2026-04-29T08:30:47Z</time>
      </trkpt>
      <trkpt lat="44.94435" lon="4.12016">
        <ele>1169.4</ele>
        <time>2026-04-29T08:30:52Z</time>
      </trkpt>
      <trkpt lat="44.9444" lon="4.1202">
        <ele>1170.1</ele>
        <time>2026-04-29T08:30:57Z</time>
      </trkpt>
      <trkpt lat="44.94444" lon="4.12025">
        <ele>1170.7</ele>
        <time>2026-04-29T08:31:02Z</time>
      </trkpt>
      <trkpt lat="44.94447" lon="4.12031">
        <ele>1171.4</ele>
        <time>2026-04-29T08:31:07Z</time>
      </trkpt>
      <trkpt lat="44.94453" lon="4.12034">
        <ele>1172</ele>
        <time>2026-04-29T08:31:12Z</time>
      </trkpt>
      <trkpt lat="44.94458" lon="4.12037">
        <ele>1172.6</ele>
        <time>2026-04-29T08:31:17Z</time>
      </trkpt>
      <trkpt lat="44.94463" lon="4.12035">
        <ele>1172.7</ele>
        <time>2026-04-29T08:31:22Z</time>
      </trkpt>
      <trkpt lat="44.9447" lon="4.12032">
        <ele>1172.9</ele>
        <time>2026-04-29T08:31:27Z</time>
      </trkpt>
      <trkpt lat="44.94475" lon="4.12029">
        <ele>1172.9</ele>
        <time>2026-04-29T08:31:32Z</time>
      </trkpt>
      <trkpt lat="44.94481" lon="4.12028">
        <ele>1173.2</ele>
        <time>2026-04-29T08:31:37Z</time>
      </trkpt>
      <trkpt lat="44.94487" lon="4.12025">
        <ele>1173.3</ele>
        <time>2026-04-29T08:31:42Z</time>
      </trkpt>
      <trkpt lat="44.94492" lon="4.12024">
        <ele>1173.5</ele>
        <time>2026-04-29T08:31:47Z</time>
      </trkpt>
      <trkpt lat="44.94498" lon="4.12023">
        <ele>1173.8</ele>
        <time>2026-04-29T08:31:52Z</time>
      </trkpt>
      <trkpt lat="44.94505" lon="4.12023">
        <ele>1174.3</ele>
        <time>2026-04-29T08:31:57Z</time>
      </trkpt>
      <trkpt lat="44.94511" lon="4.12023">
        <ele>1174.7</ele>
        <time>2026-04-29T08:32:02Z</time>
      </trkpt>
      <trkpt lat="44.94516" lon="4.12025">
        <ele>1175.2</ele>
        <time>2026-04-29T08:32:07Z</time>
      </trkpt>
      <trkpt lat="44.94519" lon="4.12025">
        <ele>1175.4</ele>
        <time>2026-04-29T08:32:12Z</time>
      </trkpt>
      <trkpt lat="44.94519" lon="4.12024">
        <ele>1175.3</ele>
        <time>2026-04-29T08:32:17Z</time>
      </trkpt>
      <trkpt lat="44.94519" lon="4.12024">
        <ele>1175.3</ele>
        <time>2026-04-29T08:32:22Z</time>
      </trkpt>
      <trkpt lat="44.94519" lon="4.12024">
        <ele>1175.3</ele>
        <time>2026-04-29T08:32:27Z</time>
      </trkpt>
      <trkpt lat="44.94519" lon="4.12024">
        <ele>1175.3</ele>
        <time>2026-04-29T08:32:32Z</time>
      </trkpt>
      <trkpt lat="44.94519" lon="4.12024">
        <ele>1175.3</ele>
        <time>2026-04-29T08:32:37Z</time>
      </trkpt>
      <trkpt lat="44.94523" lon="4.12024">
        <ele>1175.6</ele>
        <time>2026-04-29T08:32:42Z</time>
      </trkpt>
      <trkpt lat="44.94529" lon="4.12024">
        <ele>1176</ele>
        <time>2026-04-29T08:32:47Z</time>
      </trkpt>
      <trkpt lat="44.94535" lon="4.12025">
        <ele>1176.5</ele>
        <time>2026-04-29T08:32:52Z</time>
      </trkpt>
      <trkpt lat="44.94542" lon="4.12025">
        <ele>1177</ele>
        <time>2026-04-29T08:32:57Z</time>
      </trkpt>
      <trkpt lat="44.94549" lon="4.12025">
        <ele>1177.5</ele>
        <time>2026-04-29T08:33:02Z</time>
      </trkpt>
      <trkpt lat="44.94555" lon="4.12023">
        <ele>1177.7</ele>
        <time>2026-04-29T08:33:07Z</time>
      </trkpt>
      <trkpt lat="44.94563" lon="4.12022">
        <ele>1178.1</ele>
        <time>2026-04-29T08:33:12Z</time>
      </trkpt>
      <trkpt lat="44.94573" lon="4.12021">
        <ele>1178.6</ele>
        <time>2026-04-29T08:33:17Z</time>
      </trkpt>
      <trkpt lat="44.94581" lon="4.1202">
        <ele>1179</ele>
        <time>2026-04-29T08:33:22Z</time>
      </trkpt>
      <trkpt lat="44.94587" lon="4.1202">
        <ele>1179.4</ele>
        <time>2026-04-29T08:33:27Z</time>
      </trkpt>
      <trkpt lat="44.94594" lon="4.12019">
        <ele>1179.7</ele>
        <time>2026-04-29T08:33:32Z</time>
      </trkpt>
      <trkpt lat="44.94602" lon="4.1202">
        <ele>1180.4</ele>
        <time>2026-04-29T08:33:37Z</time>
      </trkpt>
      <trkpt lat="44.9461" lon="4.1202">
        <ele>1181</ele>
        <time>2026-04-29T08:33:42Z</time>
      </trkpt>
      <trkpt lat="44.94618" lon="4.1202">
        <ele>1181.6</ele>
        <time>2026-04-29T08:33:47Z</time>
      </trkpt>
      <trkpt lat="44.94625" lon="4.1202">
        <ele>1182.1</ele>
        <time>2026-04-29T08:33:52Z</time>
      </trkpt>
      <trkpt lat="44.94632" lon="4.12018">
        <ele>1182.2</ele>
        <time>2026-04-29T08:33:57Z</time>
      </trkpt>
      <trkpt lat="44.94638" lon="4.12017">
        <ele>1182.3</ele>
        <time>2026-04-29T08:34:02Z</time>
      </trkpt>
      <trkpt lat="44.94645" lon="4.12013">
        <ele>1181.9</ele>
        <time>2026-04-29T08:34:07Z</time>
      </trkpt>
      <trkpt lat="44.94653" lon="4.12008">
        <ele>1181.2</ele>
        <time>2026-04-29T08:34:12Z</time>
      </trkpt>
      <trkpt lat="44.9466" lon="4.12003">
        <ele>1180.4</ele>
        <time>2026-04-29T08:34:17Z</time>
      </trkpt>
      <trkpt lat="44.94668" lon="4.12">
        <ele>1180.2</ele>
        <time>2026-04-29T08:34:22Z</time>
      </trkpt>
      <trkpt lat="44.94675" lon="4.11995">
        <ele>1180.3</ele>
        <time>2026-04-29T08:34:27Z</time>
      </trkpt>
      <trkpt lat="44.94682" lon="4.11991">
        <ele>1180.5</ele>
        <time>2026-04-29T08:34:32Z</time>
      </trkpt>
      <trkpt lat="44.94688" lon="4.11984">
        <ele>1180.2</ele>
        <time>2026-04-29T08:34:37Z</time>
      </trkpt>
      <trkpt lat="44.94694" lon="4.11978">
        <ele>1179.9</ele>
        <time>2026-04-29T08:34:42Z</time>
      </trkpt>
      <trkpt lat="44.947" lon="4.1197">
        <ele>1179.4</ele>
        <time>2026-04-29T08:34:47Z</time>
      </trkpt>
      <trkpt lat="44.94707" lon="4.11965">
        <ele>1179.4</ele>
        <time>2026-04-29T08:34:52Z</time>
      </trkpt>
      <trkpt lat="44.94714" lon="4.11961">
        <ele>1179.5</ele>
        <time>2026-04-29T08:34:57Z</time>
      </trkpt>
      <trkpt lat="44.94717" lon="4.11957">
        <ele>1179.2</ele>
        <time>2026-04-29T08:35:02Z</time>
      </trkpt>
      <trkpt lat="44.94716" lon="4.11956">
        <ele>1179</ele>
        <time>2026-04-29T08:35:07Z</time>
      </trkpt>
      <trkpt lat="44.94716" lon="4.11956">
        <ele>1179</ele>
        <time>2026-04-29T08:35:12Z</time>
      </trkpt>
      <trkpt lat="44.94723" lon="4.11954">
        <ele>1179.4</ele>
        <time>2026-04-29T08:35:17Z</time>
      </trkpt>
      <trkpt lat="44.94729" lon="4.11951">
        <ele>1179.5</ele>
        <time>2026-04-29T08:35:22Z</time>
      </trkpt>
      <trkpt lat="44.94736" lon="4.11949">
        <ele>1180</ele>
        <time>2026-04-29T08:35:27Z</time>
      </trkpt>
      <trkpt lat="44.94743" lon="4.11946">
        <ele>1180.2</ele>
        <time>2026-04-29T08:35:32Z</time>
      </trkpt>
      <trkpt lat="44.9475" lon="4.11943">
        <ele>1180.4</ele>
        <time>2026-04-29T08:35:37Z</time>
      </trkpt>
      <trkpt lat="44.94756" lon="4.1194">
        <ele>1180.4</ele>
        <time>2026-04-29T08:35:42Z</time>
      </trkpt>
      <trkpt lat="44.94762" lon="4.11935">
        <ele>1180.1</ele>
        <time>2026-04-29T08:35:47Z</time>
      </trkpt>
      <trkpt lat="44.94771" lon="4.11931">
        <ele>1180.1</ele>
        <time>2026-04-29T08:35:52Z</time>
      </trkpt>
      <trkpt lat="44.94778" lon="4.11927">
        <ele>1179.9</ele>
        <time>2026-04-29T08:35:57Z</time>
      </trkpt>
      <trkpt lat="44.94783" lon="4.11923">
        <ele>1179.6</ele>
        <time>2026-04-29T08:36:02Z</time>
      </trkpt>
      <trkpt lat="44.94791" lon="4.11918">
        <ele>1179.2</ele>
        <time>2026-04-29T08:36:07Z</time>
      </trkpt>
      <trkpt lat="44.94797" lon="4.11914">
        <ele>1179</ele>
        <time>2026-04-29T08:36:12Z</time>
      </trkpt>
      <trkpt lat="44.94804" lon="4.11908">
        <ele>1178.5</ele>
        <time>2026-04-29T08:36:17Z</time>
      </trkpt>
      <trkpt lat="44.94811" lon="4.11904">
        <ele>1178.3</ele>
        <time>2026-04-29T08:36:22Z</time>
      </trkpt>
      <trkpt lat="44.94817" lon="4.119">
        <ele>1178</ele>
        <time>2026-04-29T08:36:27Z</time>
      </trkpt>
      <trkpt lat="44.94824" lon="4.11896">
        <ele>1177.7</ele>
        <time>2026-04-29T08:36:32Z</time>
      </trkpt>
      <trkpt lat="44.94831" lon="4.11892">
        <ele>1177.4</ele>
        <time>2026-04-29T08:36:37Z</time>
      </trkpt>
      <trkpt lat="44.94838" lon="4.11888">
        <ele>1177.4</ele>
        <time>2026-04-29T08:36:42Z</time>
      </trkpt>
      <trkpt lat="44.94844" lon="4.11885">
        <ele>1177.5</ele>
        <time>2026-04-29T08:36:47Z</time>
      </trkpt>
      <trkpt lat="44.94851" lon="4.11883">
        <ele>1177.9</ele>
        <time>2026-04-29T08:36:52Z</time>
      </trkpt>
      <trkpt lat="44.94857" lon="4.1188">
        <ele>1178</ele>
        <time>2026-04-29T08:36:57Z</time>
      </trkpt>
      <trkpt lat="44.94864" lon="4.11877">
        <ele>1178.2</ele>
        <time>2026-04-29T08:37:02Z</time>
      </trkpt>
      <trkpt lat="44.94871" lon="4.11874">
        <ele>1178.4</ele>
        <time>2026-04-29T08:37:07Z</time>
      </trkpt>
      <trkpt lat="44.94877" lon="4.11873">
        <ele>1178.8</ele>
        <time>2026-04-29T08:37:12Z</time>
      </trkpt>
      <trkpt lat="44.94883" lon="4.1187">
        <ele>1178.8</ele>
        <time>2026-04-29T08:37:17Z</time>
      </trkpt>
      <trkpt lat="44.9489" lon="4.11867">
        <ele>1178.9</ele>
        <time>2026-04-29T08:37:22Z</time>
      </trkpt>
      <trkpt lat="44.94897" lon="4.11865">
        <ele>1179.2</ele>
        <time>2026-04-29T08:37:27Z</time>
      </trkpt>
      <trkpt lat="44.94904" lon="4.11864">
        <ele>1179.7</ele>
        <time>2026-04-29T08:37:32Z</time>
      </trkpt>
      <trkpt lat="44.94911" lon="4.11862">
        <ele>1180</ele>
        <time>2026-04-29T08:37:37Z</time>
      </trkpt>
      <trkpt lat="44.94918" lon="4.11863">
        <ele>1180.9</ele>
        <time>2026-04-29T08:37:42Z</time>
      </trkpt>
      <trkpt lat="44.94924" lon="4.11863">
        <ele>1181.4</ele>
        <time>2026-04-29T08:37:47Z</time>
      </trkpt>
      <trkpt lat="44.94931" lon="4.11865">
        <ele>1182.5</ele>
        <time>2026-04-29T08:37:52Z</time>
      </trkpt>
      <trkpt lat="44.94937" lon="4.11869">
        <ele>1183.9</ele>
        <time>2026-04-29T08:37:57Z</time>
      </trkpt>
      <trkpt lat="44.94944" lon="4.11871">
        <ele>1185</ele>
        <time>2026-04-29T08:38:02Z</time>
      </trkpt>
      <trkpt lat="44.94951" lon="4.11873">
        <ele>1186.1</ele>
        <time>2026-04-29T08:38:07Z</time>
      </trkpt>
      <trkpt lat="44.94956" lon="4.11879">
        <ele>1188</ele>
        <time>2026-04-29T08:38:12Z</time>
      </trkpt>
      <trkpt lat="44.94962" lon="4.11885">
        <ele>1189.9</ele>
        <time>2026-04-29T08:38:17Z</time>
      </trkpt>
      <trkpt lat="44.94968" lon="4.1189">
        <ele>1191.7</ele>
        <time>2026-04-29T08:38:22Z</time>
      </trkpt>
      <trkpt lat="44.94974" lon="4.11894">
        <ele>1193.1</ele>
        <time>2026-04-29T08:38:27Z</time>
      </trkpt>
      <trkpt lat="44.94976" lon="4.11893">
        <ele>1193.1</ele>
        <time>2026-04-29T08:38:32Z</time>
      </trkpt>
      <trkpt lat="44.94976" lon="4.11891">
        <ele>1192.6</ele>
        <time>2026-04-29T08:38:37Z</time>
      </trkpt>
      <trkpt lat="44.94976" lon="4.11891">
        <ele>1192.6</ele>
        <time>2026-04-29T08:38:42Z</time>
      </trkpt>
      <trkpt lat="44.94976" lon="4.11891">
        <ele>1192.6</ele>
        <time>2026-04-29T08:38:47Z</time>
      </trkpt>
      <trkpt lat="44.94976" lon="4.11894">
        <ele>1193.3</ele>
        <time>2026-04-29T08:38:52Z</time>
      </trkpt>
      <trkpt lat="44.94979" lon="4.11899">
        <ele>1194.8</ele>
        <time>2026-04-29T08:38:57Z</time>
      </trkpt>
      <trkpt lat="44.94984" lon="4.11905">
        <ele>1196.7</ele>
        <time>2026-04-29T08:39:02Z</time>
      </trkpt>
      <trkpt lat="44.94988" lon="4.11914">
        <ele>1199.2</ele>
        <time>2026-04-29T08:39:07Z</time>
      </trkpt>
      <trkpt lat="44.94991" lon="4.11921">
        <ele>1200.8</ele>
        <time>2026-04-29T08:39:12Z</time>
      </trkpt>
      <trkpt lat="44.94996" lon="4.11929">
        <ele>1202.6</ele>
        <time>2026-04-29T08:39:17Z</time>
      </trkpt>
      <trkpt lat="44.94998" lon="4.11939">
        <ele>1204.3</ele>
        <time>2026-04-29T08:39:22Z</time>
      </trkpt>
      <trkpt lat="44.95001" lon="4.11947">
        <ele>1205.6</ele>
        <time>2026-04-29T08:39:27Z</time>
      </trkpt>
      <trkpt lat="44.95003" lon="4.11958">
        <ele>1207.1</ele>
        <time>2026-04-29T08:39:32Z</time>
      </trkpt>
      <trkpt lat="44.95005" lon="4.11968">
        <ele>1208.3</ele>
        <time>2026-04-29T08:39:37Z</time>
      </trkpt>
      <trkpt lat="44.95008" lon="4.11979">
        <ele>1209.5</ele>
        <time>2026-04-29T08:39:42Z</time>
      </trkpt>
      <trkpt lat="44.95008" lon="4.11988">
        <ele>1210.9</ele>
        <time>2026-04-29T08:39:47Z</time>
      </trkpt>
      <trkpt lat="44.95008" lon="4.11996">
        <ele>1212.1</ele>
        <time>2026-04-29T08:39:52Z</time>
      </trkpt>
      <trkpt lat="44.95008" lon="4.12003">
        <ele>1212.9</ele>
        <time>2026-04-29T08:39:57Z</time>
      </trkpt>
      <trkpt lat="44.95008" lon="4.12008">
        <ele>1213.2</ele>
        <time>2026-04-29T08:40:02Z</time>
      </trkpt>
      <trkpt lat="44.95009" lon="4.12009">
        <ele>1213.1</ele>
        <time>2026-04-29T08:40:07Z</time>
      </trkpt>
      <trkpt lat="44.95011" lon="4.12013">
        <ele>1213</ele>
        <time>2026-04-29T08:40:12Z</time>
      </trkpt>
      <trkpt lat="44.95011" lon="4.12019">
        <ele>1213.4</ele>
        <time>2026-04-29T08:40:17Z</time>
      </trkpt>
      <trkpt lat="44.95013" lon="4.12015">
        <ele>1212.8</ele>
        <time>2026-04-29T08:40:22Z</time>
      </trkpt>
      <trkpt lat="44.95014" lon="4.12015">
        <ele>1212.6</ele>
        <time>2026-04-29T08:40:27Z</time>
      </trkpt>
      <trkpt lat="44.95014" lon="4.12015">
        <ele>1212.6</ele>
        <time>2026-04-29T08:40:32Z</time>
      </trkpt>
      <trkpt lat="44.95014" lon="4.12015">
        <ele>1212.6</ele>
        <time>2026-04-29T08:40:37Z</time>
      </trkpt>
      <trkpt lat="44.95017" lon="4.1202">
        <ele>1212.4</ele>
        <time>2026-04-29T08:40:42Z</time>
      </trkpt>
      <trkpt lat="44.95018" lon="4.1203">
        <ele>1212.8</ele>
        <time>2026-04-29T08:40:47Z</time>
      </trkpt>
      <trkpt lat="44.95018" lon="4.12039">
        <ele>1213.4</ele>
        <time>2026-04-29T08:40:52Z</time>
      </trkpt>
      <trkpt lat="44.95019" lon="4.12048">
        <ele>1213.7</ele>
        <time>2026-04-29T08:40:57Z</time>
      </trkpt>
      <trkpt lat="44.9502" lon="4.12053">
        <ele>1213.8</ele>
        <time>2026-04-29T08:41:02Z</time>
      </trkpt>
      <trkpt lat="44.95021" lon="4.12057">
        <ele>1213.9</ele>
        <time>2026-04-29T08:41:07Z</time>
      </trkpt>
      <trkpt lat="44.95022" lon="4.12062">
        <ele>1214</ele>
        <time>2026-04-29T08:41:12Z</time>
      </trkpt>
      <trkpt lat="44.95022" lon="4.12068">
        <ele>1214.3</ele>
        <time>2026-04-29T08:41:17Z</time>
      </trkpt>
      <trkpt lat="44.95024" lon="4.12075">
        <ele>1214.3</ele>
        <time>2026-04-29T08:41:22Z</time>
      </trkpt>
      <trkpt lat="44.95026" lon="4.12082">
        <ele>1214.3</ele>
        <time>2026-04-29T08:41:27Z</time>
      </trkpt>
      <trkpt lat="44.95028" lon="4.1209">
        <ele>1214.2</ele>
        <time>2026-04-29T08:41:32Z</time>
      </trkpt>
      <trkpt lat="44.95031" lon="4.12097">
        <ele>1213.9</ele>
        <time>2026-04-29T08:41:37Z</time>
      </trkpt>
      <trkpt lat="44.95033" lon="4.12105">
        <ele>1213.8</ele>
        <time>2026-04-29T08:41:42Z</time>
      </trkpt>
      <trkpt lat="44.95034" lon="4.12112">
        <ele>1213.9</ele>
        <time>2026-04-29T08:41:47Z</time>
      </trkpt>
      <trkpt lat="44.95035" lon="4.12112">
        <ele>1213.7</ele>
        <time>2026-04-29T08:41:52Z</time>
      </trkpt>
      <trkpt lat="44.95035" lon="4.12112">
        <ele>1213.7</ele>
        <time>2026-04-29T08:41:57Z</time>
      </trkpt>
      <trkpt lat="44.95035" lon="4.12112">
        <ele>1213.7</ele>
        <time>2026-04-29T08:42:02Z</time>
      </trkpt>
      <trkpt lat="44.95035" lon="4.12112">
        <ele>1213.7</ele>
        <time>2026-04-29T08:42:07Z</time>
      </trkpt>
      <trkpt lat="44.95034" lon="4.12117">
        <ele>1214.1</ele>
        <time>2026-04-29T08:42:12Z</time>
      </trkpt>
      <trkpt lat="44.95036" lon="4.12123">
        <ele>1213.9</ele>
        <time>2026-04-29T08:42:17Z</time>
      </trkpt>
      <trkpt lat="44.95036" lon="4.1213">
        <ele>1214.2</ele>
        <time>2026-04-29T08:42:22Z</time>
      </trkpt>
      <trkpt lat="44.95036" lon="4.12137">
        <ele>1214.5</ele>
        <time>2026-04-29T08:42:27Z</time>
      </trkpt>
      <trkpt lat="44.95039" lon="4.12148">
        <ele>1214.3</ele>
        <time>2026-04-29T08:42:32Z</time>
      </trkpt>
      <trkpt lat="44.95042" lon="4.12158">
        <ele>1214.1</ele>
        <time>2026-04-29T08:42:37Z</time>
      </trkpt>
      <trkpt lat="44.95046" lon="4.12166">
        <ele>1213.5</ele>
        <time>2026-04-29T08:42:42Z</time>
      </trkpt>
      <trkpt lat="44.95049" lon="4.12174">
        <ele>1213.2</ele>
        <time>2026-04-29T08:42:47Z</time>
      </trkpt>
      <trkpt lat="44.95051" lon="4.12181">
        <ele>1213.1</ele>
        <time>2026-04-29T08:42:52Z</time>
      </trkpt>
      <trkpt lat="44.95054" lon="4.12188">
        <ele>1212.8</ele>
        <time>2026-04-29T08:42:57Z</time>
      </trkpt>
      <trkpt lat="44.95058" lon="4.12195">
        <ele>1212.4</ele>
        <time>2026-04-29T08:43:02Z</time>
      </trkpt>
      <trkpt lat="44.9506" lon="4.12202">
        <ele>1212.5</ele>
        <time>2026-04-29T08:43:07Z</time>
      </trkpt>
      <trkpt lat="44.95062" lon="4.12209">
        <ele>1212.5</ele>
        <time>2026-04-29T08:43:12Z</time>
      </trkpt>
      <trkpt lat="44.95064" lon="4.12215">
        <ele>1212.5</ele>
        <time>2026-04-29T08:43:17Z</time>
      </trkpt>
      <trkpt lat="44.95067" lon="4.12223">
        <ele>1212.5</ele>
        <time>2026-04-29T08:43:22Z</time>
      </trkpt>
      <trkpt lat="44.9507" lon="4.1223">
        <ele>1212.5</ele>
        <time>2026-04-29T08:43:27Z</time>
      </trkpt>
      <trkpt lat="44.95072" lon="4.12237">
        <ele>1212.7</ele>
        <time>2026-04-29T08:43:32Z</time>
      </trkpt>
      <trkpt lat="44.95074" lon="4.12243">
        <ele>1212.8</ele>
        <time>2026-04-29T08:43:37Z</time>
      </trkpt>
      <trkpt lat="44.95075" lon="4.12244">
        <ele>1212.7</ele>
        <time>2026-04-29T08:43:42Z</time>
      </trkpt>
      <trkpt lat="44.95076" lon="4.12244">
        <ele>1212.6</ele>
        <time>2026-04-29T08:43:47Z</time>
      </trkpt>
      <trkpt lat="44.95076" lon="4.12244">
        <ele>1212.6</ele>
        <time>2026-04-29T08:43:52Z</time>
      </trkpt>
      <trkpt lat="44.95076" lon="4.12244">
        <ele>1212.6</ele>
        <time>2026-04-29T08:43:57Z</time>
      </trkpt>
      <trkpt lat="44.95076" lon="4.12244">
        <ele>1212.6</ele>
        <time>2026-04-29T08:44:02Z</time>
      </trkpt>
      <trkpt lat="44.95076" lon="4.12244">
        <ele>1212.6</ele>
        <time>2026-04-29T08:44:07Z</time>
      </trkpt>
      <trkpt lat="44.95076" lon="4.12244">
        <ele>1212.6</ele>
        <time>2026-04-29T08:44:12Z</time>
      </trkpt>
      <trkpt lat="44.95076" lon="4.12244">
        <ele>1212.6</ele>
        <time>2026-04-29T08:44:17Z</time>
      </trkpt>
      <trkpt lat="44.95076" lon="4.12244">
        <ele>1212.6</ele>
        <time>2026-04-29T08:44:22Z</time>
      </trkpt>
      <trkpt lat="44.95076" lon="4.12244">
        <ele>1212.6</ele>
        <time>2026-04-29T08:44:27Z</time>
      </trkpt>
      <trkpt lat="44.95076" lon="4.12244">
        <ele>1212.6</ele>
        <time>2026-04-29T08:44:32Z</time>
      </trkpt>
      <trkpt lat="44.95076" lon="4.12244">
        <ele>1212.6</ele>
        <time>2026-04-29T08:44:37Z</time>
      </trkpt>
      <trkpt lat="44.95076" lon="4.12244">
        <ele>1212.6</ele>
        <time>2026-04-29T08:44:42Z</time>
      </trkpt>
      <trkpt lat="44.95076" lon="4.12244">
        <ele>1212.6</ele>
        <time>2026-04-29T08:44:47Z</time>
      </trkpt>
      <trkpt lat="44.95076" lon="4.12244">
        <ele>1212.6</ele>
        <time>2026-04-29T08:44:52Z</time>
      </trkpt>
      <trkpt lat="44.95076" lon="4.12244">
        <ele>1212.6</ele>
        <time>2026-04-29T08:44:57Z</time>
      </trkpt>
      <trkpt lat="44.95076" lon="4.12244">
        <ele>1212.6</ele>
        <time>2026-04-29T08:45:02Z</time>
      </trkpt>
      <trkpt lat="44.95076" lon="4.12244">
        <ele>1212.6</ele>
        <time>2026-04-29T08:45:07Z</time>
      </trkpt>
      <trkpt lat="44.95076" lon="4.12244">
        <ele>1212.6</ele>
        <time>2026-04-29T08:45:12Z</time>
      </trkpt>
      <trkpt lat="44.95076" lon="4.12244">
        <ele>1212.6</ele>
        <time>2026-04-29T08:45:17Z</time>
      </trkpt>
      <trkpt lat="44.95076" lon="4.12244">
        <ele>1212.6</ele>
        <time>2026-04-29T08:45:22Z</time>
      </trkpt>
      <trkpt lat="44.95076" lon="4.12244">
        <ele>1212.6</ele>
        <time>2026-04-29T08:45:27Z</time>
      </trkpt>
      <trkpt lat="44.95076" lon="4.12244">
        <ele>1212.6</ele>
        <time>2026-04-29T08:45:32Z</time>
      </trkpt>
      <trkpt lat="44.95076" lon="4.12244">
        <ele>1212.6</ele>
        <time>2026-04-29T08:45:37Z</time>
      </trkpt>
      <trkpt lat="44.95076" lon="4.12244">
        <ele>1212.6</ele>
        <time>2026-04-29T08:45:42Z</time>
      </trkpt>
      <trkpt lat="44.95076" lon="4.12244">
        <ele>1212.6</ele>
        <time>2026-04-29T08:45:47Z</time>
      </trkpt>
      <trkpt lat="44.95076" lon="4.12244">
        <ele>1212.6</ele>
        <time>2026-04-29T08:45:52Z</time>
      </trkpt>
      <trkpt lat="44.95076" lon="4.12244">
        <ele>1212.6</ele>
        <time>2026-04-29T08:45:57Z</time>
      </trkpt>
      <trkpt lat="44.95076" lon="4.12244">
        <ele>1212.6</ele>
        <time>2026-04-29T08:46:02Z</time>
      </trkpt>
      <trkpt lat="44.95076" lon="4.12244">
        <ele>1212.6</ele>
        <time>2026-04-29T08:46:07Z</time>
      </trkpt>
      <trkpt lat="44.95076" lon="4.12244">
        <ele>1212.6</ele>
        <time>2026-04-29T08:46:12Z</time>
      </trkpt>
      <trkpt lat="44.95076" lon="4.12244">
        <ele>1212.6</ele>
        <time>2026-04-29T08:46:17Z</time>
      </trkpt>
      <trkpt lat="44.95076" lon="4.12244">
        <ele>1212.6</ele>
        <time>2026-04-29T08:46:22Z</time>
      </trkpt>
      <trkpt lat="44.95076" lon="4.12244">
        <ele>1212.6</ele>
        <time>2026-04-29T08:46:27Z</time>
      </trkpt>
      <trkpt lat="44.95076" lon="4.12244">
        <ele>1212.6</ele>
        <time>2026-04-29T08:46:32Z</time>
      </trkpt>
      <trkpt lat="44.95076" lon="4.12244">
        <ele>1212.6</ele>
        <time>2026-04-29T08:46:37Z</time>
      </trkpt>
      <trkpt lat="44.95076" lon="4.12244">
        <ele>1212.6</ele>
        <time>2026-04-29T08:46:42Z</time>
      </trkpt>
      <trkpt lat="44.95076" lon="4.12244">
        <ele>1212.6</ele>
        <time>2026-04-29T08:46:47Z</time>
      </trkpt>
      <trkpt lat="44.95076" lon="4.12244">
        <ele>1212.6</ele>
        <time>2026-04-29T08:46:52Z</time>
      </trkpt>
      <trkpt lat="44.95076" lon="4.12244">
        <ele>1212.6</ele>
        <time>2026-04-29T08:46:57Z</time>
      </trkpt>
      <trkpt lat="44.95076" lon="4.12244">
        <ele>1212.6</ele>
        <time>2026-04-29T08:47:02Z</time>
      </trkpt>
      <trkpt lat="44.95076" lon="4.12244">
        <ele>1212.6</ele>
        <time>2026-04-29T08:47:07Z</time>
      </trkpt>
      <trkpt lat="44.95076" lon="4.12244">
        <ele>1212.6</ele>
        <time>2026-04-29T08:47:12Z</time>
      </trkpt>
      <trkpt lat="44.95076" lon="4.12244">
        <ele>1212.6</ele>
        <time>2026-04-29T08:47:17Z</time>
      </trkpt>
      <trkpt lat="44.95076" lon="4.12244">
        <ele>1212.6</ele>
        <time>2026-04-29T08:47:22Z</time>
      </trkpt>
      <trkpt lat="44.95076" lon="4.12244">
        <ele>1212.6</ele>
        <time>2026-04-29T08:47:27Z</time>
      </trkpt>
      <trkpt lat="44.95076" lon="4.12244">
        <ele>1212.6</ele>
        <time>2026-04-29T08:47:32Z</time>
      </trkpt>
      <trkpt lat="44.95076" lon="4.12244">
        <ele>1212.6</ele>
        <time>2026-04-29T08:47:37Z</time>
      </trkpt>
      <trkpt lat="44.95076" lon="4.12244">
        <ele>1212.6</ele>
        <time>2026-04-29T08:47:42Z</time>
      </trkpt>
      <trkpt lat="44.95076" lon="4.12244">
        <ele>1212.6</ele>
        <time>2026-04-29T08:47:47Z</time>
      </trkpt>
      <trkpt lat="44.95076" lon="4.12244">
        <ele>1212.6</ele>
        <time>2026-04-29T08:47:52Z</time>
      </trkpt>
      <trkpt lat="44.95076" lon="4.12244">
        <ele>1212.6</ele>
        <time>2026-04-29T08:47:57Z</time>
      </trkpt>
      <trkpt lat="44.95076" lon="4.12244">
        <ele>1212.6</ele>
        <time>2026-04-29T08:48:02Z</time>
      </trkpt>
      <trkpt lat="44.95076" lon="4.12244">
        <ele>1212.6</ele>
        <time>2026-04-29T08:48:07Z</time>
      </trkpt>
      <trkpt lat="44.95076" lon="4.12244">
        <ele>1212.6</ele>
        <time>2026-04-29T08:48:12Z</time>
      </trkpt>
      <trkpt lat="44.95076" lon="4.12244">
        <ele>1212.6</ele>
        <time>2026-04-29T08:48:17Z</time>
      </trkpt>
      <trkpt lat="44.95076" lon="4.12244">
        <ele>1212.6</ele>
        <time>2026-04-29T08:48:22Z</time>
      </trkpt>
      <trkpt lat="44.95076" lon="4.12244">
        <ele>1212.6</ele>
        <time>2026-04-29T08:48:27Z</time>
      </trkpt>
      <trkpt lat="44.95076" lon="4.12244">
        <ele>1212.6</ele>
        <time>2026-04-29T08:48:32Z</time>
      </trkpt>
      <trkpt lat="44.95076" lon="4.12244">
        <ele>1212.6</ele>
        <time>2026-04-29T08:48:37Z</time>
      </trkpt>
      <trkpt lat="44.95076" lon="4.12244">
        <ele>1212.6</ele>
        <time>2026-04-29T08:48:42Z</time>
      </trkpt>
      <trkpt lat="44.95076" lon="4.12244">
        <ele>1212.6</ele>
        <time>2026-04-29T08:48:47Z</time>
      </trkpt>
      <trkpt lat="44.95076" lon="4.12244">
        <ele>1212.6</ele>
        <time>2026-04-29T08:48:52Z</time>
      </trkpt>
      <trkpt lat="44.95076" lon="4.12244">
        <ele>1212.6</ele>
        <time>2026-04-29T08:48:57Z</time>
      </trkpt>
      <trkpt lat="44.95076" lon="4.12244">
        <ele>1212.6</ele>
        <time>2026-04-29T08:49:02Z</time>
      </trkpt>
      <trkpt lat="44.95076" lon="4.12244">
        <ele>1212.6</ele>
        <time>2026-04-29T08:49:07Z</time>
      </trkpt>
      <trkpt lat="44.95076" lon="4.12244">
        <ele>1212.6</ele>
        <time>2026-04-29T08:49:12Z</time>
      </trkpt>
      <trkpt lat="44.95076" lon="4.12244">
        <ele>1212.6</ele>
        <time>2026-04-29T08:49:17Z</time>
      </trkpt>
      <trkpt lat="44.95076" lon="4.12244">
        <ele>1212.6</ele>
        <time>2026-04-29T08:49:22Z</time>
      </trkpt>
      <trkpt lat="44.95076" lon="4.12244">
        <ele>1212.6</ele>
        <time>2026-04-29T08:49:27Z</time>
      </trkpt>
      <trkpt lat="44.95076" lon="4.12244">
        <ele>1212.6</ele>
        <time>2026-04-29T08:49:32Z</time>
      </trkpt>
      <trkpt lat="44.95076" lon="4.12244">
        <ele>1212.6</ele>
        <time>2026-04-29T08:49:37Z</time>
      </trkpt>
      <trkpt lat="44.95076" lon="4.12244">
        <ele>1212.6</ele>
        <time>2026-04-29T08:49:42Z</time>
      </trkpt>
      <trkpt lat="44.95076" lon="4.12244">
        <ele>1212.6</ele>
        <time>2026-04-29T08:49:47Z</time>
      </trkpt>
      <trkpt lat="44.95076" lon="4.12244">
        <ele>1212.6</ele>
        <time>2026-04-29T08:49:52Z</time>
      </trkpt>
      <trkpt lat="44.95076" lon="4.12244">
        <ele>1212.6</ele>
        <time>2026-04-29T08:49:57Z</time>
      </trkpt>
      <trkpt lat="44.95076" lon="4.12244">
        <ele>1212.6</ele>
        <time>2026-04-29T08:50:02Z</time>
      </trkpt>
      <trkpt lat="44.95076" lon="4.12244">
        <ele>1212.6</ele>
        <time>2026-04-29T08:50:07Z</time>
      </trkpt>
      <trkpt lat="44.95076" lon="4.12244">
        <ele>1212.6</ele>
        <time>2026-04-29T08:50:12Z</time>
      </trkpt>
      <trkpt lat="44.95076" lon="4.12244">
        <ele>1212.6</ele>
        <time>2026-04-29T08:50:17Z</time>
      </trkpt>
      <trkpt lat="44.95076" lon="4.12244">
        <ele>1212.6</ele>
        <time>2026-04-29T08:50:22Z</time>
      </trkpt>
      <trkpt lat="44.95076" lon="4.12244">
        <ele>1212.6</ele>
        <time>2026-04-29T08:50:27Z</time>
      </trkpt>
      <trkpt lat="44.95076" lon="4.12244">
        <ele>1212.6</ele>
        <time>2026-04-29T08:50:32Z</time>
      </trkpt>
      <trkpt lat="44.95075" lon="4.12247">
        <ele>1213</ele>
        <time>2026-04-29T08:50:37Z</time>
      </trkpt>
      <trkpt lat="44.9508" lon="4.12258">
        <ele>1213.3</ele>
        <time>2026-04-29T08:50:42Z</time>
      </trkpt>
      <trkpt lat="44.95082" lon="4.12267">
        <ele>1214</ele>
        <time>2026-04-29T08:50:47Z</time>
      </trkpt>
      <trkpt lat="44.95084" lon="4.12276">
        <ele>1214.7</ele>
        <time>2026-04-29T08:50:52Z</time>
      </trkpt>
      <trkpt lat="44.95087" lon="4.12285">
        <ele>1215</ele>
        <time>2026-04-29T08:50:57Z</time>
      </trkpt>
      <trkpt lat="44.95089" lon="4.12294">
        <ele>1215.6</ele>
        <time>2026-04-29T08:51:02Z</time>
      </trkpt>
      <trkpt lat="44.95091" lon="4.12302">
        <ele>1216</ele>
        <time>2026-04-29T08:51:07Z</time>
      </trkpt>
      <trkpt lat="44.95093" lon="4.1231">
        <ele>1216.5</ele>
        <time>2026-04-29T08:51:12Z</time>
      </trkpt>
      <trkpt lat="44.95096" lon="4.12318">
        <ele>1216.8</ele>
        <time>2026-04-29T08:51:17Z</time>
      </trkpt>
      <trkpt lat="44.95098" lon="4.12326">
        <ele>1217.3</ele>
        <time>2026-04-29T08:51:22Z</time>
      </trkpt>
      <trkpt lat="44.95101" lon="4.12334">
        <ele>1217.6</ele>
        <time>2026-04-29T08:51:27Z</time>
      </trkpt>
      <trkpt lat="44.95104" lon="4.12343">
        <ele>1217.6</ele>
        <time>2026-04-29T08:51:32Z</time>
      </trkpt>
      <trkpt lat="44.95108" lon="4.1235">
        <ele>1217.3</ele>
        <time>2026-04-29T08:51:37Z</time>
      </trkpt>
      <trkpt lat="44.95112" lon="4.12358">
        <ele>1217.1</ele>
        <time>2026-04-29T08:51:42Z</time>
      </trkpt>
      <trkpt lat="44.95117" lon="4.12365">
        <ele>1216.6</ele>
        <time>2026-04-29T08:51:47Z</time>
      </trkpt>
      <trkpt lat="44.95124" lon="4.12371">
        <ele>1215.7</ele>
        <time>2026-04-29T08:51:52Z</time>
      </trkpt>
      <trkpt lat="44.9513" lon="4.12377">
        <ele>1215</ele>
        <time>2026-04-29T08:51:57Z</time>
      </trkpt>
      <trkpt lat="44.95138" lon="4.1238">
        <ele>1213.7</ele>
        <time>2026-04-29T08:52:02Z</time>
      </trkpt>
      <trkpt lat="44.95146" lon="4.12382">
        <ele>1212.3</ele>
        <time>2026-04-29T08:52:07Z</time>
      </trkpt>
      <trkpt lat="44.95154" lon="4.12382">
        <ele>1210.8</ele>
        <time>2026-04-29T08:52:12Z</time>
      </trkpt>
      <trkpt lat="44.95162" lon="4.12381">
        <ele>1209.3</ele>
        <time>2026-04-29T08:52:17Z</time>
      </trkpt>
      <trkpt lat="44.9517" lon="4.1238">
        <ele>1207.9</ele>
        <time>2026-04-29T08:52:22Z</time>
      </trkpt>
      <trkpt lat="44.95177" lon="4.12381">
        <ele>1207</ele>
        <time>2026-04-29T08:52:27Z</time>
      </trkpt>
      <trkpt lat="44.95184" lon="4.12382">
        <ele>1206.1</ele>
        <time>2026-04-29T08:52:32Z</time>
      </trkpt>
      <trkpt lat="44.95191" lon="4.12383">
        <ele>1205.2</ele>
        <time>2026-04-29T08:52:37Z</time>
      </trkpt>
      <trkpt lat="44.95197" lon="4.12382">
        <ele>1204.3</ele>
        <time>2026-04-29T08:52:42Z</time>
      </trkpt>
      <trkpt lat="44.95205" lon="4.12382">
        <ele>1203.3</ele>
        <time>2026-04-29T08:52:47Z</time>
      </trkpt>
      <trkpt lat="44.95213" lon="4.12382">
        <ele>1202.2</ele>
        <time>2026-04-29T08:52:52Z</time>
      </trkpt>
      <trkpt lat="44.9522" lon="4.12382">
        <ele>1201.2</ele>
        <time>2026-04-29T08:52:57Z</time>
      </trkpt>
      <trkpt lat="44.95226" lon="4.12383">
        <ele>1200.5</ele>
        <time>2026-04-29T08:53:02Z</time>
      </trkpt>
      <trkpt lat="44.95234" lon="4.12383">
        <ele>1199.4</ele>
        <time>2026-04-29T08:53:07Z</time>
      </trkpt>
      <trkpt lat="44.95242" lon="4.12384">
        <ele>1198.3</ele>
        <time>2026-04-29T08:53:12Z</time>
      </trkpt>
      <trkpt lat="44.95249" lon="4.12384">
        <ele>1197.4</ele>
        <time>2026-04-29T08:53:17Z</time>
      </trkpt>
      <trkpt lat="44.95255" lon="4.12384">
        <ele>1197.4</ele>
        <time>2026-04-29T08:53:22Z</time>
      </trkpt>
      <trkpt lat="44.95262" lon="4.12384">
        <ele>1197.5</ele>
        <time>2026-04-29T08:53:27Z</time>
      </trkpt>
      <trkpt lat="44.95267" lon="4.12384">
        <ele>1197.7</ele>
        <time>2026-04-29T08:53:32Z</time>
      </trkpt>
      <trkpt lat="44.95274" lon="4.12384">
        <ele>1197.8</ele>
        <time>2026-04-29T08:53:37Z</time>
      </trkpt>
      <trkpt lat="44.95279" lon="4.12384">
        <ele>1198</ele>
        <time>2026-04-29T08:53:42Z</time>
      </trkpt>
      <trkpt lat="44.95285" lon="4.12383">
        <ele>1198</ele>
        <time>2026-04-29T08:53:47Z</time>
      </trkpt>
      <trkpt lat="44.9529" lon="4.12382">
        <ele>1198</ele>
        <time>2026-04-29T08:53:52Z</time>
      </trkpt>
      <trkpt lat="44.95296" lon="4.12382">
        <ele>1198.2</ele>
        <time>2026-04-29T08:53:57Z</time>
      </trkpt>
      <trkpt lat="44.95299" lon="4.1238">
        <ele>1198.1</ele>
        <time>2026-04-29T08:54:02Z</time>
      </trkpt>
      <trkpt lat="44.95304" lon="4.12378">
        <ele>1198</ele>
        <time>2026-04-29T08:54:07Z</time>
      </trkpt>
      <trkpt lat="44.95309" lon="4.12378">
        <ele>1198.2</ele>
        <time>2026-04-29T08:54:12Z</time>
      </trkpt>
      <trkpt lat="44.95313" lon="4.12376">
        <ele>1198.1</ele>
        <time>2026-04-29T08:54:17Z</time>
      </trkpt>
      <trkpt lat="44.95319" lon="4.12374">
        <ele>1198.1</ele>
        <time>2026-04-29T08:54:22Z</time>
      </trkpt>
      <trkpt lat="44.95324" lon="4.12373">
        <ele>1198.1</ele>
        <time>2026-04-29T08:54:27Z</time>
      </trkpt>
      <trkpt lat="44.95332" lon="4.12371">
        <ele>1198.1</ele>
        <time>2026-04-29T08:54:32Z</time>
      </trkpt>
      <trkpt lat="44.95337" lon="4.12372">
        <ele>1198.5</ele>
        <time>2026-04-29T08:54:37Z</time>
      </trkpt>
      <trkpt lat="44.95342" lon="4.12375">
        <ele>1199.1</ele>
        <time>2026-04-29T08:54:42Z</time>
      </trkpt>
      <trkpt lat="44.95346" lon="4.12379">
        <ele>1199.7</ele>
        <time>2026-04-29T08:54:47Z</time>
      </trkpt>
      <trkpt lat="44.9535" lon="4.12385">
        <ele>1200.5</ele>
        <time>2026-04-29T08:54:52Z</time>
      </trkpt>
      <trkpt lat="44.95352" lon="4.12393">
        <ele>1201.4</ele>
        <time>2026-04-29T08:54:57Z</time>
      </trkpt>
      <trkpt lat="44.95353" lon="4.124">
        <ele>1202</ele>
        <time>2026-04-29T08:55:02Z</time>
      </trkpt>
      <trkpt lat="44.95356" lon="4.12404">
        <ele>1202.6</ele>
        <time>2026-04-29T08:55:07Z</time>
      </trkpt>
      <trkpt lat="44.95358" lon="4.12401">
        <ele>1202.5</ele>
        <time>2026-04-29T08:55:12Z</time>
      </trkpt>
      <trkpt lat="44.95357" lon="4.12405">
        <ele>1202.7</ele>
        <time>2026-04-29T08:55:17Z</time>
      </trkpt>
      <trkpt lat="44.95356" lon="4.12408">
        <ele>1202.9</ele>
        <time>2026-04-29T08:55:22Z</time>
      </trkpt>
      <trkpt lat="44.95353" lon="4.12416">
        <ele>1203.4</ele>
        <time>2026-04-29T08:55:27Z</time>
      </trkpt>
      <trkpt lat="44.95352" lon="4.12424">
        <ele>1203.9</ele>
        <time>2026-04-29T08:55:32Z</time>
      </trkpt>
      <trkpt lat="44.95351" lon="4.12431">
        <ele>1204.4</ele>
        <time>2026-04-29T08:55:37Z</time>
      </trkpt>
      <trkpt lat="44.9535" lon="4.12438">
        <ele>1204.8</ele>
        <time>2026-04-29T08:55:42Z</time>
      </trkpt>
      <trkpt lat="44.95347" lon="4.12444">
        <ele>1205.1</ele>
        <time>2026-04-29T08:55:47Z</time>
      </trkpt>
      <trkpt lat="44.95346" lon="4.12453">
        <ele>1205.8</ele>
        <time>2026-04-29T08:55:52Z</time>
      </trkpt>
      <trkpt lat="44.95344" lon="4.12463">
        <ele>1206.4</ele>
        <time>2026-04-29T08:55:57Z</time>
      </trkpt>
      <trkpt lat="44.95343" lon="4.12471">
        <ele>1207</ele>
        <time>2026-04-29T08:56:02Z</time>
      </trkpt>
      <trkpt lat="44.95341" lon="4.12478">
        <ele>1207.5</ele>
        <time>2026-04-29T08:56:07Z</time>
      </trkpt>
      <trkpt lat="44.9534" lon="4.12485">
        <ele>1208</ele>
        <time>2026-04-29T08:56:12Z</time>
      </trkpt>
      <trkpt lat="44.95337" lon="4.12495">
        <ele>1208.7</ele>
        <time>2026-04-29T08:56:17Z</time>
      </trkpt>
      <trkpt lat="44.95335" lon="4.12504">
        <ele>1209.3</ele>
        <time>2026-04-29T08:56:22Z</time>
      </trkpt>
      <trkpt lat="44.95333" lon="4.12513">
        <ele>1209.8</ele>
        <time>2026-04-29T08:56:27Z</time>
      </trkpt>
      <trkpt lat="44.95332" lon="4.1252">
        <ele>1210.2</ele>
        <time>2026-04-29T08:56:32Z</time>
      </trkpt>
      <trkpt lat="44.9533" lon="4.1253">
        <ele>1210.7</ele>
        <time>2026-04-29T08:56:37Z</time>
      </trkpt>
      <trkpt lat="44.95328" lon="4.1254">
        <ele>1211.3</ele>
        <time>2026-04-29T08:56:42Z</time>
      </trkpt>
      <trkpt lat="44.95326" lon="4.1255">
        <ele>1211.8</ele>
        <time>2026-04-29T08:56:47Z</time>
      </trkpt>
      <trkpt lat="44.95325" lon="4.12559">
        <ele>1212.4</ele>
        <time>2026-04-29T08:56:52Z</time>
      </trkpt>
      <trkpt lat="44.95322" lon="4.12568">
        <ele>1212.9</ele>
        <time>2026-04-29T08:56:57Z</time>
      </trkpt>
      <trkpt lat="44.9532" lon="4.12576">
        <ele>1213.4</ele>
        <time>2026-04-29T08:57:02Z</time>
      </trkpt>
      <trkpt lat="44.95319" lon="4.12584">
        <ele>1213.9</ele>
        <time>2026-04-29T08:57:07Z</time>
      </trkpt>
      <trkpt lat="44.95317" lon="4.12593">
        <ele>1214.9</ele>
        <time>2026-04-29T08:57:12Z</time>
      </trkpt>
      <trkpt lat="44.95315" lon="4.12601">
        <ele>1215.7</ele>
        <time>2026-04-29T08:57:17Z</time>
      </trkpt>
      <trkpt lat="44.95313" lon="4.1261">
        <ele>1216.7</ele>
        <time>2026-04-29T08:57:22Z</time>
      </trkpt>
      <trkpt lat="44.95311" lon="4.12616">
        <ele>1217.4</ele>
        <time>2026-04-29T08:57:27Z</time>
      </trkpt>
      <trkpt lat="44.95309" lon="4.12622">
        <ele>1218</ele>
        <time>2026-04-29T08:57:32Z</time>
      </trkpt>
      <trkpt lat="44.95306" lon="4.12628">
        <ele>1218.7</ele>
        <time>2026-04-29T08:57:37Z</time>
      </trkpt>
      <trkpt lat="44.95303" lon="4.12635">
        <ele>1219.4</ele>
        <time>2026-04-29T08:57:42Z</time>
      </trkpt>
      <trkpt lat="44.95299" lon="4.12641">
        <ele>1220.1</ele>
        <time>2026-04-29T08:57:47Z</time>
      </trkpt>
      <trkpt lat="44.95297" lon="4.12645">
        <ele>1220.5</ele>
        <time>2026-04-29T08:57:52Z</time>
      </trkpt>
      <trkpt lat="44.95295" lon="4.12649">
        <ele>1221</ele>
        <time>2026-04-29T08:57:57Z</time>
      </trkpt>
      <trkpt lat="44.95292" lon="4.12654">
        <ele>1221.6</ele>
        <time>2026-04-29T08:58:02Z</time>
      </trkpt>
      <trkpt lat="44.9529" lon="4.12661">
        <ele>1222.4</ele>
        <time>2026-04-29T08:58:07Z</time>
      </trkpt>
      <trkpt lat="44.95287" lon="4.12666">
        <ele>1222.9</ele>
        <time>2026-04-29T08:58:12Z</time>
      </trkpt>
      <trkpt lat="44.95284" lon="4.12672">
        <ele>1223.6</ele>
        <time>2026-04-29T08:58:17Z</time>
      </trkpt>
      <trkpt lat="44.95282" lon="4.12676">
        <ele>1224.1</ele>
        <time>2026-04-29T08:58:22Z</time>
      </trkpt>
      <trkpt lat="44.95279" lon="4.12682">
        <ele>1224.8</ele>
        <time>2026-04-29T08:58:27Z</time>
      </trkpt>
      <trkpt lat="44.95277" lon="4.12686">
        <ele>1225.2</ele>
        <time>2026-04-29T08:58:32Z</time>
      </trkpt>
      <trkpt lat="44.95274" lon="4.12692">
        <ele>1225.9</ele>
        <time>2026-04-29T08:58:37Z</time>
      </trkpt>
      <trkpt lat="44.95271" lon="4.12697">
        <ele>1226.5</ele>
        <time>2026-04-29T08:58:42Z</time>
      </trkpt>
      <trkpt lat="44.95268" lon="4.12703">
        <ele>1227.1</ele>
        <time>2026-04-29T08:58:47Z</time>
      </trkpt>
      <trkpt lat="44.95265" lon="4.12708">
        <ele>1227.6</ele>
        <time>2026-04-29T08:58:52Z</time>
      </trkpt>
      <trkpt lat="44.95263" lon="4.12713">
        <ele>1228.2</ele>
        <time>2026-04-29T08:58:57Z</time>
      </trkpt>
      <trkpt lat="44.9526" lon="4.12719">
        <ele>1228.8</ele>
        <time>2026-04-29T08:59:02Z</time>
      </trkpt>
      <trkpt lat="44.95257" lon="4.12724">
        <ele>1229.3</ele>
        <time>2026-04-29T08:59:07Z</time>
      </trkpt>
      <trkpt lat="44.95255" lon="4.12728">
        <ele>1229.7</ele>
        <time>2026-04-29T08:59:12Z</time>
      </trkpt>
      <trkpt lat="44.95253" lon="4.12734">
        <ele>1230.3</ele>
        <time>2026-04-29T08:59:17Z</time>
      </trkpt>
      <trkpt lat="44.95251" lon="4.1274">
        <ele>1230.9</ele>
        <time>2026-04-29T08:59:22Z</time>
      </trkpt>
      <trkpt lat="44.95249" lon="4.12747">
        <ele>1231.6</ele>
        <time>2026-04-29T08:59:27Z</time>
      </trkpt>
      <trkpt lat="44.95246" lon="4.12755">
        <ele>1232</ele>
        <time>2026-04-29T08:59:32Z</time>
      </trkpt>
      <trkpt lat="44.95244" lon="4.12761">
        <ele>1232.1</ele>
        <time>2026-04-29T08:59:37Z</time>
      </trkpt>
      <trkpt lat="44.95243" lon="4.12768">
        <ele>1232.2</ele>
        <time>2026-04-29T08:59:42Z</time>
      </trkpt>
      <trkpt lat="44.95243" lon="4.12774">
        <ele>1232.4</ele>
        <time>2026-04-29T08:59:47Z</time>
      </trkpt>
      <trkpt lat="44.95243" lon="4.12782">
        <ele>1232.6</ele>
        <time>2026-04-29T08:59:52Z</time>
      </trkpt>
      <trkpt lat="44.95245" lon="4.1279">
        <ele>1232.9</ele>
        <time>2026-04-29T08:59:57Z</time>
      </trkpt>
      <trkpt lat="44.95246" lon="4.12797">
        <ele>1233.1</ele>
        <time>2026-04-29T09:00:02Z</time>
      </trkpt>
      <trkpt lat="44.95248" lon="4.12805">
        <ele>1233.3</ele>
        <time>2026-04-29T09:00:07Z</time>
      </trkpt>
      <trkpt lat="44.95249" lon="4.12813">
        <ele>1233.5</ele>
        <time>2026-04-29T09:00:12Z</time>
      </trkpt>
      <trkpt lat="44.9525" lon="4.12821">
        <ele>1233.7</ele>
        <time>2026-04-29T09:00:17Z</time>
      </trkpt>
      <trkpt lat="44.95252" lon="4.12828">
        <ele>1234</ele>
        <time>2026-04-29T09:00:22Z</time>
      </trkpt>
      <trkpt lat="44.95254" lon="4.12837">
        <ele>1234.3</ele>
        <time>2026-04-29T09:00:27Z</time>
      </trkpt>
      <trkpt lat="44.95255" lon="4.12844">
        <ele>1234.5</ele>
        <time>2026-04-29T09:00:32Z</time>
      </trkpt>
      <trkpt lat="44.95257" lon="4.1285">
        <ele>1234.7</ele>
        <time>2026-04-29T09:00:37Z</time>
      </trkpt>
      <trkpt lat="44.95259" lon="4.12857">
        <ele>1235</ele>
        <time>2026-04-29T09:00:42Z</time>
      </trkpt>
      <trkpt lat="44.9526" lon="4.12864">
        <ele>1235.2</ele>
        <time>2026-04-29T09:00:47Z</time>
      </trkpt>
      <trkpt lat="44.95262" lon="4.12873">
        <ele>1235.5</ele>
        <time>2026-04-29T09:00:52Z</time>
      </trkpt>
      <trkpt lat="44.95264" lon="4.12881">
        <ele>1235.8</ele>
        <time>2026-04-29T09:00:57Z</time>
      </trkpt>
      <trkpt lat="44.95266" lon="4.12888">
        <ele>1236.1</ele>
        <time>2026-04-29T09:01:02Z</time>
      </trkpt>
      <trkpt lat="44.95269" lon="4.12897">
        <ele>1236.4</ele>
        <time>2026-04-29T09:01:07Z</time>
      </trkpt>
      <trkpt lat="44.95272" lon="4.12906">
        <ele>1236.8</ele>
        <time>2026-04-29T09:01:12Z</time>
      </trkpt>
      <trkpt lat="44.95274" lon="4.12915">
        <ele>1237.1</ele>
        <time>2026-04-29T09:01:17Z</time>
      </trkpt>
      <trkpt lat="44.95278" lon="4.12923">
        <ele>1237.4</ele>
        <time>2026-04-29T09:01:22Z</time>
      </trkpt>
      <trkpt lat="44.9528" lon="4.12933">
        <ele>1237.7</ele>
        <time>2026-04-29T09:01:27Z</time>
      </trkpt>
      <trkpt lat="44.95284" lon="4.12941">
        <ele>1238</ele>
        <time>2026-04-29T09:01:32Z</time>
      </trkpt>
      <trkpt lat="44.95288" lon="4.1295">
        <ele>1238.3</ele>
        <time>2026-04-29T09:01:37Z</time>
      </trkpt>
      <trkpt lat="44.95291" lon="4.12961">
        <ele>1238.5</ele>
        <time>2026-04-29T09:01:42Z</time>
      </trkpt>
      <trkpt lat="44.95294" lon="4.12969">
        <ele>1238.7</ele>
        <time>2026-04-29T09:01:47Z</time>
      </trkpt>
      <trkpt lat="44.95297" lon="4.12977">
        <ele>1238.9</ele>
        <time>2026-04-29T09:01:52Z</time>
      </trkpt>
      <trkpt lat="44.95303" lon="4.12983">
        <ele>1239.1</ele>
        <time>2026-04-29T09:01:57Z</time>
      </trkpt>
      <trkpt lat="44.95308" lon="4.12993">
        <ele>1239.3</ele>
        <time>2026-04-29T09:02:02Z</time>
      </trkpt>
      <trkpt lat="44.95311" lon="4.12999">
        <ele>1239.5</ele>
        <time>2026-04-29T09:02:07Z</time>
      </trkpt>
      <trkpt lat="44.95315" lon="4.13006">
        <ele>1239.6</ele>
        <time>2026-04-29T09:02:12Z</time>
      </trkpt>
      <trkpt lat="44.95319" lon="4.13015">
        <ele>1239.8</ele>
        <time>2026-04-29T09:02:17Z</time>
      </trkpt>
      <trkpt lat="44.95323" lon="4.13023">
        <ele>1239.9</ele>
        <time>2026-04-29T09:02:22Z</time>
      </trkpt>
      <trkpt lat="44.95326" lon="4.13032">
        <ele>1240</ele>
        <time>2026-04-29T09:02:27Z</time>
      </trkpt>
      <trkpt lat="44.95329" lon="4.13042">
        <ele>1240</ele>
        <time>2026-04-29T09:02:32Z</time>
      </trkpt>
      <trkpt lat="44.95333" lon="4.13051">
        <ele>1240</ele>
        <time>2026-04-29T09:02:37Z</time>
      </trkpt>
      <trkpt lat="44.95337" lon="4.1306">
        <ele>1240</ele>
        <time>2026-04-29T09:02:42Z</time>
      </trkpt>
      <trkpt lat="44.95341" lon="4.1307">
        <ele>1240</ele>
        <time>2026-04-29T09:02:47Z</time>
      </trkpt>
      <trkpt lat="44.95344" lon="4.13079">
        <ele>1240</ele>
        <time>2026-04-29T09:02:52Z</time>
      </trkpt>
      <trkpt lat="44.95348" lon="4.13087">
        <ele>1240.1</ele>
        <time>2026-04-29T09:02:57Z</time>
      </trkpt>
      <trkpt lat="44.95351" lon="4.13096">
        <ele>1240.4</ele>
        <time>2026-04-29T09:03:02Z</time>
      </trkpt>
      <trkpt lat="44.95355" lon="4.13106">
        <ele>1240.6</ele>
        <time>2026-04-29T09:03:07Z</time>
      </trkpt>
      <trkpt lat="44.95357" lon="4.13116">
        <ele>1240.8</ele>
        <time>2026-04-29T09:03:12Z</time>
      </trkpt>
      <trkpt lat="44.9536" lon="4.13125">
        <ele>1241</ele>
        <time>2026-04-29T09:03:17Z</time>
      </trkpt>
      <trkpt lat="44.95363" lon="4.13134">
        <ele>1241.2</ele>
        <time>2026-04-29T09:03:22Z</time>
      </trkpt>
      <trkpt lat="44.95367" lon="4.13143">
        <ele>1241.3</ele>
        <time>2026-04-29T09:03:27Z</time>
      </trkpt>
      <trkpt lat="44.9537" lon="4.13154">
        <ele>1241.4</ele>
        <time>2026-04-29T09:03:32Z</time>
      </trkpt>
      <trkpt lat="44.95373" lon="4.13164">
        <ele>1241.5</ele>
        <time>2026-04-29T09:03:37Z</time>
      </trkpt>
      <trkpt lat="44.95374" lon="4.13174">
        <ele>1241.5</ele>
        <time>2026-04-29T09:03:42Z</time>
      </trkpt>
      <trkpt lat="44.95376" lon="4.13183">
        <ele>1241.5</ele>
        <time>2026-04-29T09:03:47Z</time>
      </trkpt>
      <trkpt lat="44.95378" lon="4.13194">
        <ele>1241.4</ele>
        <time>2026-04-29T09:03:52Z</time>
      </trkpt>
      <trkpt lat="44.95381" lon="4.13203">
        <ele>1241.2</ele>
        <time>2026-04-29T09:03:57Z</time>
      </trkpt>
      <trkpt lat="44.95383" lon="4.13213">
        <ele>1241.1</ele>
        <time>2026-04-29T09:04:02Z</time>
      </trkpt>
      <trkpt lat="44.95386" lon="4.13223">
        <ele>1240.9</ele>
        <time>2026-04-29T09:04:07Z</time>
      </trkpt>
      <trkpt lat="44.95388" lon="4.13233">
        <ele>1240.8</ele>
        <time>2026-04-29T09:04:12Z</time>
      </trkpt>
      <trkpt lat="44.95391" lon="4.13243">
        <ele>1240.6</ele>
        <time>2026-04-29T09:04:17Z</time>
      </trkpt>
      <trkpt lat="44.95394" lon="4.13254">
        <ele>1240.4</ele>
        <time>2026-04-29T09:04:22Z</time>
      </trkpt>
      <trkpt lat="44.95396" lon="4.13264">
        <ele>1240.4</ele>
        <time>2026-04-29T09:04:27Z</time>
      </trkpt>
      <trkpt lat="44.95398" lon="4.13274">
        <ele>1240.3</ele>
        <time>2026-04-29T09:04:32Z</time>
      </trkpt>
      <trkpt lat="44.954" lon="4.13284">
        <ele>1240.3</ele>
        <time>2026-04-29T09:04:37Z</time>
      </trkpt>
      <trkpt lat="44.95402" lon="4.13293">
        <ele>1240.3</ele>
        <time>2026-04-29T09:04:42Z</time>
      </trkpt>
      <trkpt lat="44.95405" lon="4.13303">
        <ele>1240.2</ele>
        <time>2026-04-29T09:04:47Z</time>
      </trkpt>
      <trkpt lat="44.95407" lon="4.13312">
        <ele>1240.2</ele>
        <time>2026-04-29T09:04:52Z</time>
      </trkpt>
      <trkpt lat="44.95408" lon="4.13322">
        <ele>1240.3</ele>
        <time>2026-04-29T09:04:57Z</time>
      </trkpt>
      <trkpt lat="44.95411" lon="4.1333">
        <ele>1240.2</ele>
        <time>2026-04-29T09:05:02Z</time>
      </trkpt>
      <trkpt lat="44.95414" lon="4.1334">
        <ele>1240.4</ele>
        <time>2026-04-29T09:05:07Z</time>
      </trkpt>
      <trkpt lat="44.95416" lon="4.1335">
        <ele>1240.6</ele>
        <time>2026-04-29T09:05:12Z</time>
      </trkpt>
      <trkpt lat="44.95419" lon="4.13359">
        <ele>1240.8</ele>
        <time>2026-04-29T09:05:17Z</time>
      </trkpt>
      <trkpt lat="44.95422" lon="4.13367">
        <ele>1241</ele>
        <time>2026-04-29T09:05:22Z</time>
      </trkpt>
      <trkpt lat="44.95424" lon="4.13377">
        <ele>1241.3</ele>
        <time>2026-04-29T09:05:27Z</time>
      </trkpt>
      <trkpt lat="44.95428" lon="4.13386">
        <ele>1241.4</ele>
        <time>2026-04-29T09:05:32Z</time>
      </trkpt>
      <trkpt lat="44.95431" lon="4.13395">
        <ele>1241.6</ele>
        <time>2026-04-29T09:05:37Z</time>
      </trkpt>
      <trkpt lat="44.95435" lon="4.13404">
        <ele>1241.7</ele>
        <time>2026-04-29T09:05:42Z</time>
      </trkpt>
      <trkpt lat="44.95439" lon="4.13413">
        <ele>1241.8</ele>
        <time>2026-04-29T09:05:47Z</time>
      </trkpt>
      <trkpt lat="44.95443" lon="4.13422">
        <ele>1241.9</ele>
        <time>2026-04-29T09:05:52Z</time>
      </trkpt>
      <trkpt lat="44.95448" lon="4.1343">
        <ele>1241.9</ele>
        <time>2026-04-29T09:05:57Z</time>
      </trkpt>
      <trkpt lat="44.95453" lon="4.13438">
        <ele>1241.9</ele>
        <time>2026-04-29T09:06:02Z</time>
      </trkpt>
      <trkpt lat="44.95458" lon="4.13446">
        <ele>1241.9</ele>
        <time>2026-04-29T09:06:07Z</time>
      </trkpt>
      <trkpt lat="44.95462" lon="4.13454">
        <ele>1242</ele>
        <time>2026-04-29T09:06:12Z</time>
      </trkpt>
      <trkpt lat="44.95466" lon="4.13462">
        <ele>1242</ele>
        <time>2026-04-29T09:06:17Z</time>
      </trkpt>
      <trkpt lat="44.95471" lon="4.13469">
        <ele>1242.1</ele>
        <time>2026-04-29T09:06:22Z</time>
      </trkpt>
      <trkpt lat="44.95476" lon="4.13478">
        <ele>1242.1</ele>
        <time>2026-04-29T09:06:27Z</time>
      </trkpt>
      <trkpt lat="44.95482" lon="4.13484">
        <ele>1242.1</ele>
        <time>2026-04-29T09:06:32Z</time>
      </trkpt>
      <trkpt lat="44.95488" lon="4.13491">
        <ele>1242.1</ele>
        <time>2026-04-29T09:06:37Z</time>
      </trkpt>
      <trkpt lat="44.95493" lon="4.13498">
        <ele>1242.2</ele>
        <time>2026-04-29T09:06:42Z</time>
      </trkpt>
      <trkpt lat="44.95498" lon="4.13505">
        <ele>1242.1</ele>
        <time>2026-04-29T09:06:47Z</time>
      </trkpt>
      <trkpt lat="44.95503" lon="4.13511">
        <ele>1241.9</ele>
        <time>2026-04-29T09:06:52Z</time>
      </trkpt>
      <trkpt lat="44.9551" lon="4.13519">
        <ele>1241.5</ele>
        <time>2026-04-29T09:06:57Z</time>
      </trkpt>
      <trkpt lat="44.95516" lon="4.13525">
        <ele>1241.2</ele>
        <time>2026-04-29T09:07:02Z</time>
      </trkpt>
      <trkpt lat="44.95522" lon="4.13533">
        <ele>1241.1</ele>
        <time>2026-04-29T09:07:07Z</time>
      </trkpt>
      <trkpt lat="44.95527" lon="4.13538">
        <ele>1240.9</ele>
        <time>2026-04-29T09:07:12Z</time>
      </trkpt>
      <trkpt lat="44.95532" lon="4.13543">
        <ele>1240.8</ele>
        <time>2026-04-29T09:07:17Z</time>
      </trkpt>
      <trkpt lat="44.95535" lon="4.13545">
        <ele>1240.7</ele>
        <time>2026-04-29T09:07:22Z</time>
      </trkpt>
      <trkpt lat="44.95535" lon="4.13545">
        <ele>1240.7</ele>
        <time>2026-04-29T09:07:27Z</time>
      </trkpt>
      <trkpt lat="44.95535" lon="4.13545">
        <ele>1240.7</ele>
        <time>2026-04-29T09:07:32Z</time>
      </trkpt>
      <trkpt lat="44.95535" lon="4.13545">
        <ele>1240.7</ele>
        <time>2026-04-29T09:07:37Z</time>
      </trkpt>
      <trkpt lat="44.95535" lon="4.13545">
        <ele>1240.7</ele>
        <time>2026-04-29T09:07:42Z</time>
      </trkpt>
      <trkpt lat="44.95535" lon="4.13545">
        <ele>1240.7</ele>
        <time>2026-04-29T09:07:47Z</time>
      </trkpt>
      <trkpt lat="44.95541" lon="4.13554">
        <ele>1240.8</ele>
        <time>2026-04-29T09:07:52Z</time>
      </trkpt>
      <trkpt lat="44.95543" lon="4.13558">
        <ele>1240.9</ele>
        <time>2026-04-29T09:07:57Z</time>
      </trkpt>
      <trkpt lat="44.95549" lon="4.13564">
        <ele>1240.9</ele>
        <time>2026-04-29T09:08:02Z</time>
      </trkpt>
      <trkpt lat="44.95553" lon="4.13571">
        <ele>1241.1</ele>
        <time>2026-04-29T09:08:07Z</time>
      </trkpt>
      <trkpt lat="44.95558" lon="4.13578">
        <ele>1241.3</ele>
        <time>2026-04-29T09:08:12Z</time>
      </trkpt>
      <trkpt lat="44.95563" lon="4.13586">
        <ele>1241.5</ele>
        <time>2026-04-29T09:08:17Z</time>
      </trkpt>
      <trkpt lat="44.95569" lon="4.13592">
        <ele>1241.4</ele>
        <time>2026-04-29T09:08:22Z</time>
      </trkpt>
      <trkpt lat="44.95574" lon="4.13598">
        <ele>1241.4</ele>
        <time>2026-04-29T09:08:27Z</time>
      </trkpt>
      <trkpt lat="44.95582" lon="4.13606">
        <ele>1241.3</ele>
        <time>2026-04-29T09:08:32Z</time>
      </trkpt>
      <trkpt lat="44.95588" lon="4.13611">
        <ele>1240.9</ele>
        <time>2026-04-29T09:08:37Z</time>
      </trkpt>
      <trkpt lat="44.95594" lon="4.13616">
        <ele>1240.4</ele>
        <time>2026-04-29T09:08:42Z</time>
      </trkpt>
      <trkpt lat="44.956" lon="4.1362">
        <ele>1239.9</ele>
        <time>2026-04-29T09:08:47Z</time>
      </trkpt>
      <trkpt lat="44.95606" lon="4.13623">
        <ele>1239.4</ele>
        <time>2026-04-29T09:08:52Z</time>
      </trkpt>
      <trkpt lat="44.95613" lon="4.13625">
        <ele>1238.8</ele>
        <time>2026-04-29T09:08:57Z</time>
      </trkpt>
      <trkpt lat="44.9562" lon="4.13625">
        <ele>1238.2</ele>
        <time>2026-04-29T09:09:02Z</time>
      </trkpt>
      <trkpt lat="44.95626" lon="4.13626">
        <ele>1237.7</ele>
        <time>2026-04-29T09:09:07Z</time>
      </trkpt>
      <trkpt lat="44.95632" lon="4.13626">
        <ele>1237.2</ele>
        <time>2026-04-29T09:09:12Z</time>
      </trkpt>
      <trkpt lat="44.95638" lon="4.13625">
        <ele>1236.6</ele>
        <time>2026-04-29T09:09:17Z</time>
      </trkpt>
      <trkpt lat="44.95641" lon="4.13623">
        <ele>1236.2</ele>
        <time>2026-04-29T09:09:22Z</time>
      </trkpt>
      <trkpt lat="44.95646" lon="4.13622">
        <ele>1235.7</ele>
        <time>2026-04-29T09:09:27Z</time>
      </trkpt>
      <trkpt lat="44.95654" lon="4.13621">
        <ele>1235</ele>
        <time>2026-04-29T09:09:32Z</time>
      </trkpt>
      <trkpt lat="44.9566" lon="4.1362">
        <ele>1234.4</ele>
        <time>2026-04-29T09:09:37Z</time>
      </trkpt>
      <trkpt lat="44.95666" lon="4.13619">
        <ele>1233.8</ele>
        <time>2026-04-29T09:09:42Z</time>
      </trkpt>
      <trkpt lat="44.95672" lon="4.13619">
        <ele>1233.8</ele>
        <time>2026-04-29T09:09:47Z</time>
      </trkpt>
      <trkpt lat="44.95678" lon="4.13618">
        <ele>1234</ele>
        <time>2026-04-29T09:09:52Z</time>
      </trkpt>
      <trkpt lat="44.95683" lon="4.13618">
        <ele>1234.1</ele>
        <time>2026-04-29T09:09:57Z</time>
      </trkpt>
      <trkpt lat="44.9569" lon="4.13619">
        <ele>1234.3</ele>
        <time>2026-04-29T09:10:02Z</time>
      </trkpt>
      <trkpt lat="44.95696" lon="4.1362">
        <ele>1234.5</ele>
        <time>2026-04-29T09:10:07Z</time>
      </trkpt>
      <trkpt lat="44.95701" lon="4.13622">
        <ele>1234.7</ele>
        <time>2026-04-29T09:10:12Z</time>
      </trkpt>
      <trkpt lat="44.95708" lon="4.13623">
        <ele>1234.9</ele>
        <time>2026-04-29T09:10:17Z</time>
      </trkpt>
      <trkpt lat="44.95714" lon="4.13624">
        <ele>1235.1</ele>
        <time>2026-04-29T09:10:22Z</time>
      </trkpt>
      <trkpt lat="44.95719" lon="4.13626">
        <ele>1235.3</ele>
        <time>2026-04-29T09:10:27Z</time>
      </trkpt>
      <trkpt lat="44.95726" lon="4.13629">
        <ele>1235.5</ele>
        <time>2026-04-29T09:10:32Z</time>
      </trkpt>
      <trkpt lat="44.95731" lon="4.13632">
        <ele>1235.8</ele>
        <time>2026-04-29T09:10:37Z</time>
      </trkpt>
      <trkpt lat="44.95736" lon="4.13635">
        <ele>1235.9</ele>
        <time>2026-04-29T09:10:42Z</time>
      </trkpt>
      <trkpt lat="44.95742" lon="4.1364">
        <ele>1236.2</ele>
        <time>2026-04-29T09:10:47Z</time>
      </trkpt>
      <trkpt lat="44.95747" lon="4.13645">
        <ele>1236.4</ele>
        <time>2026-04-29T09:10:52Z</time>
      </trkpt>
      <trkpt lat="44.95753" lon="4.13649">
        <ele>1236.8</ele>
        <time>2026-04-29T09:10:57Z</time>
      </trkpt>
      <trkpt lat="44.95759" lon="4.13652">
        <ele>1237.4</ele>
        <time>2026-04-29T09:11:02Z</time>
      </trkpt>
      <trkpt lat="44.95764" lon="4.13658">
        <ele>1237.9</ele>
        <time>2026-04-29T09:11:07Z</time>
      </trkpt>
      <trkpt lat="44.95766" lon="4.13664">
        <ele>1238.1</ele>
        <time>2026-04-29T09:11:12Z</time>
      </trkpt>
      <trkpt lat="44.95765" lon="4.13665">
        <ele>1238.1</ele>
        <time>2026-04-29T09:11:17Z</time>
      </trkpt>
      <trkpt lat="44.95768" lon="4.13665">
        <ele>1238.3</ele>
        <time>2026-04-29T09:11:22Z</time>
      </trkpt>
      <trkpt lat="44.95775" lon="4.13668">
        <ele>1238.8</ele>
        <time>2026-04-29T09:11:27Z</time>
      </trkpt>
      <trkpt lat="44.95781" lon="4.13673">
        <ele>1239.2</ele>
        <time>2026-04-29T09:11:32Z</time>
      </trkpt>
      <trkpt lat="44.95786" lon="4.13679">
        <ele>1239.6</ele>
        <time>2026-04-29T09:11:37Z</time>
      </trkpt>
      <trkpt lat="44.95791" lon="4.13685">
        <ele>1240</ele>
        <time>2026-04-29T09:11:42Z</time>
      </trkpt>
      <trkpt lat="44.95797" lon="4.13692">
        <ele>1240.4</ele>
        <time>2026-04-29T09:11:47Z</time>
      </trkpt>
      <trkpt lat="44.95802" lon="4.13697">
        <ele>1240.7</ele>
        <time>2026-04-29T09:11:52Z</time>
      </trkpt>
      <trkpt lat="44.95807" lon="4.13703">
        <ele>1241.1</ele>
        <time>2026-04-29T09:11:57Z</time>
      </trkpt>
      <trkpt lat="44.95813" lon="4.1371">
        <ele>1241.5</ele>
        <time>2026-04-29T09:12:02Z</time>
      </trkpt>
      <trkpt lat="44.95818" lon="4.13718">
        <ele>1241.9</ele>
        <time>2026-04-29T09:12:07Z</time>
      </trkpt>
      <trkpt lat="44.95823" lon="4.13725">
        <ele>1242.3</ele>
        <time>2026-04-29T09:12:12Z</time>
      </trkpt>
      <trkpt lat="44.95828" lon="4.13733">
        <ele>1242.6</ele>
        <time>2026-04-29T09:12:17Z</time>
      </trkpt>
      <trkpt lat="44.95835" lon="4.1374">
        <ele>1243</ele>
        <time>2026-04-29T09:12:22Z</time>
      </trkpt>
      <trkpt lat="44.95839" lon="4.13747">
        <ele>1243.1</ele>
        <time>2026-04-29T09:12:27Z</time>
      </trkpt>
      <trkpt lat="44.95844" lon="4.13753">
        <ele>1243.2</ele>
        <time>2026-04-29T09:12:32Z</time>
      </trkpt>
      <trkpt lat="44.95849" lon="4.1376">
        <ele>1243.3</ele>
        <time>2026-04-29T09:12:37Z</time>
      </trkpt>
      <trkpt lat="44.95856" lon="4.13767">
        <ele>1243.3</ele>
        <time>2026-04-29T09:12:42Z</time>
      </trkpt>
      <trkpt lat="44.95862" lon="4.13772">
        <ele>1243.4</ele>
        <time>2026-04-29T09:12:47Z</time>
      </trkpt>
      <trkpt lat="44.95869" lon="4.13778">
        <ele>1243.5</ele>
        <time>2026-04-29T09:12:52Z</time>
      </trkpt>
      <trkpt lat="44.95875" lon="4.13782">
        <ele>1243.6</ele>
        <time>2026-04-29T09:12:57Z</time>
      </trkpt>
      <trkpt lat="44.95881" lon="4.13788">
        <ele>1243.7</ele>
        <time>2026-04-29T09:13:02Z</time>
      </trkpt>
      <trkpt lat="44.95887" lon="4.13792">
        <ele>1243.8</ele>
        <time>2026-04-29T09:13:07Z</time>
      </trkpt>
      <trkpt lat="44.95894" lon="4.13794">
        <ele>1243.9</ele>
        <time>2026-04-29T09:13:12Z</time>
      </trkpt>
      <trkpt lat="44.95901" lon="4.13796">
        <ele>1244.1</ele>
        <time>2026-04-29T09:13:17Z</time>
      </trkpt>
      <trkpt lat="44.95909" lon="4.13797">
        <ele>1244.3</ele>
        <time>2026-04-29T09:13:22Z</time>
      </trkpt>
      <trkpt lat="44.95915" lon="4.13801">
        <ele>1244.3</ele>
        <time>2026-04-29T09:13:27Z</time>
      </trkpt>
      <trkpt lat="44.95922" lon="4.13804">
        <ele>1244.7</ele>
        <time>2026-04-29T09:13:32Z</time>
      </trkpt>
      <trkpt lat="44.95929" lon="4.13807">
        <ele>1245</ele>
        <time>2026-04-29T09:13:37Z</time>
      </trkpt>
      <trkpt lat="44.95936" lon="4.13809">
        <ele>1245.4</ele>
        <time>2026-04-29T09:13:42Z</time>
      </trkpt>
      <trkpt lat="44.95943" lon="4.13811">
        <ele>1245.7</ele>
        <time>2026-04-29T09:13:47Z</time>
      </trkpt>
      <trkpt lat="44.9595" lon="4.13815">
        <ele>1246</ele>
        <time>2026-04-29T09:13:52Z</time>
      </trkpt>
      <trkpt lat="44.95956" lon="4.13818">
        <ele>1246.2</ele>
        <time>2026-04-29T09:13:57Z</time>
      </trkpt>
      <trkpt lat="44.95964" lon="4.13822">
        <ele>1246.6</ele>
        <time>2026-04-29T09:14:02Z</time>
      </trkpt>
      <trkpt lat="44.95971" lon="4.13825">
        <ele>1246.8</ele>
        <time>2026-04-29T09:14:07Z</time>
      </trkpt>
      <trkpt lat="44.95978" lon="4.13829">
        <ele>1247.1</ele>
        <time>2026-04-29T09:14:12Z</time>
      </trkpt>
      <trkpt lat="44.95985" lon="4.1383">
        <ele>1247.4</ele>
        <time>2026-04-29T09:14:17Z</time>
      </trkpt>
      <trkpt lat="44.95992" lon="4.13831">
        <ele>1247.7</ele>
        <time>2026-04-29T09:14:22Z</time>
      </trkpt>
      <trkpt lat="44.96001" lon="4.13832">
        <ele>1248.1</ele>
        <time>2026-04-29T09:14:27Z</time>
      </trkpt>
      <trkpt lat="44.96008" lon="4.13832">
        <ele>1248.2</ele>
        <time>2026-04-29T09:14:32Z</time>
      </trkpt>
      <trkpt lat="44.96014" lon="4.13833">
        <ele>1248.3</ele>
        <time>2026-04-29T09:14:37Z</time>
      </trkpt>
      <trkpt lat="44.96022" lon="4.13834">
        <ele>1248.5</ele>
        <time>2026-04-29T09:14:42Z</time>
      </trkpt>
      <trkpt lat="44.96029" lon="4.13834">
        <ele>1248.7</ele>
        <time>2026-04-29T09:14:47Z</time>
      </trkpt>
      <trkpt lat="44.96037" lon="4.13833">
        <ele>1248.9</ele>
        <time>2026-04-29T09:14:52Z</time>
      </trkpt>
      <trkpt lat="44.96044" lon="4.13833">
        <ele>1249.1</ele>
        <time>2026-04-29T09:14:57Z</time>
      </trkpt>
      <trkpt lat="44.96049" lon="4.13839">
        <ele>1249.1</ele>
        <time>2026-04-29T09:15:02Z</time>
      </trkpt>
      <trkpt lat="44.96052" lon="4.13848">
        <ele>1249.2</ele>
        <time>2026-04-29T09:15:07Z</time>
      </trkpt>
      <trkpt lat="44.96056" lon="4.13857">
        <ele>1249.3</ele>
        <time>2026-04-29T09:15:12Z</time>
      </trkpt>
      <trkpt lat="44.96058" lon="4.13865">
        <ele>1249.3</ele>
        <time>2026-04-29T09:15:17Z</time>
      </trkpt>
      <trkpt lat="44.96058" lon="4.13869">
        <ele>1249.3</ele>
        <time>2026-04-29T09:15:22Z</time>
      </trkpt>
      <trkpt lat="44.96058" lon="4.1387">
        <ele>1249.3</ele>
        <time>2026-04-29T09:15:27Z</time>
      </trkpt>
      <trkpt lat="44.96058" lon="4.1387">
        <ele>1249.3</ele>
        <time>2026-04-29T09:15:32Z</time>
      </trkpt>
      <trkpt lat="44.96058" lon="4.1387">
        <ele>1249.3</ele>
        <time>2026-04-29T09:15:37Z</time>
      </trkpt>
      <trkpt lat="44.96058" lon="4.1387">
        <ele>1249.3</ele>
        <time>2026-04-29T09:15:42Z</time>
      </trkpt>
      <trkpt lat="44.96058" lon="4.1387">
        <ele>1249.3</ele>
        <time>2026-04-29T09:15:47Z</time>
      </trkpt>
      <trkpt lat="44.96058" lon="4.1387">
        <ele>1249.3</ele>
        <time>2026-04-29T09:15:52Z</time>
      </trkpt>
      <trkpt lat="44.9606" lon="4.13879">
        <ele>1249.3</ele>
        <time>2026-04-29T09:15:57Z</time>
      </trkpt>
      <trkpt lat="44.96061" lon="4.1389">
        <ele>1249.3</ele>
        <time>2026-04-29T09:16:02Z</time>
      </trkpt>
      <trkpt lat="44.96063" lon="4.13899">
        <ele>1249.3</ele>
        <time>2026-04-29T09:16:07Z</time>
      </trkpt>
      <trkpt lat="44.96064" lon="4.13908">
        <ele>1249.3</ele>
        <time>2026-04-29T09:16:12Z</time>
      </trkpt>
      <trkpt lat="44.96066" lon="4.13919">
        <ele>1249.5</ele>
        <time>2026-04-29T09:16:17Z</time>
      </trkpt>
      <trkpt lat="44.96067" lon="4.13929">
        <ele>1249.8</ele>
        <time>2026-04-29T09:16:22Z</time>
      </trkpt>
      <trkpt lat="44.96069" lon="4.13938">
        <ele>1250.2</ele>
        <time>2026-04-29T09:16:27Z</time>
      </trkpt>
      <trkpt lat="44.9607" lon="4.13952">
        <ele>1250.7</ele>
        <time>2026-04-29T09:16:32Z</time>
      </trkpt>
      <trkpt lat="44.96073" lon="4.13961">
        <ele>1251.2</ele>
        <time>2026-04-29T09:16:37Z</time>
      </trkpt>
      <trkpt lat="44.96075" lon="4.1397">
        <ele>1251.6</ele>
        <time>2026-04-29T09:16:42Z</time>
      </trkpt>
      <trkpt lat="44.96077" lon="4.1398">
        <ele>1252</ele>
        <time>2026-04-29T09:16:47Z</time>
      </trkpt>
      <trkpt lat="44.96078" lon="4.13991">
        <ele>1252.4</ele>
        <time>2026-04-29T09:16:52Z</time>
      </trkpt>
      <trkpt lat="44.9608" lon="4.14">
        <ele>1252.8</ele>
        <time>2026-04-29T09:16:57Z</time>
      </trkpt>
      <trkpt lat="44.96083" lon="4.14009">
        <ele>1253.2</ele>
        <time>2026-04-29T09:17:02Z</time>
      </trkpt>
      <trkpt lat="44.96085" lon="4.14019">
        <ele>1253.5</ele>
        <time>2026-04-29T09:17:07Z</time>
      </trkpt>
      <trkpt lat="44.96088" lon="4.14026">
        <ele>1253.6</ele>
        <time>2026-04-29T09:17:12Z</time>
      </trkpt>
      <trkpt lat="44.96093" lon="4.14032">
        <ele>1253.7</ele>
        <time>2026-04-29T09:17:17Z</time>
      </trkpt>
      <trkpt lat="44.96098" lon="4.14041">
        <ele>1253.9</ele>
        <time>2026-04-29T09:17:22Z</time>
      </trkpt>
      <trkpt lat="44.96103" lon="4.1405">
        <ele>1254.1</ele>
        <time>2026-04-29T09:17:27Z</time>
      </trkpt>
      <trkpt lat="44.96108" lon="4.14056">
        <ele>1254.1</ele>
        <time>2026-04-29T09:17:32Z</time>
      </trkpt>
      <trkpt lat="44.96112" lon="4.14062">
        <ele>1254.2</ele>
        <time>2026-04-29T09:17:37Z</time>
      </trkpt>
      <trkpt lat="44.96117" lon="4.14069">
        <ele>1254.3</ele>
        <time>2026-04-29T09:17:42Z</time>
      </trkpt>
      <trkpt lat="44.96122" lon="4.14078">
        <ele>1254.4</ele>
        <time>2026-04-29T09:17:47Z</time>
      </trkpt>
      <trkpt lat="44.96127" lon="4.14085">
        <ele>1254.5</ele>
        <time>2026-04-29T09:17:52Z</time>
      </trkpt>
      <trkpt lat="44.96131" lon="4.14094">
        <ele>1254.8</ele>
        <time>2026-04-29T09:17:57Z</time>
      </trkpt>
      <trkpt lat="44.96136" lon="4.14103">
        <ele>1255.1</ele>
        <time>2026-04-29T09:18:02Z</time>
      </trkpt>
      <trkpt lat="44.96141" lon="4.14111">
        <ele>1255.3</ele>
        <time>2026-04-29T09:18:07Z</time>
      </trkpt>
      <trkpt lat="44.96145" lon="4.1412">
        <ele>1255.6</ele>
        <time>2026-04-29T09:18:12Z</time>
      </trkpt>
      <trkpt lat="44.96149" lon="4.14127">
        <ele>1255.8</ele>
        <time>2026-04-29T09:18:17Z</time>
      </trkpt>
      <trkpt lat="44.96152" lon="4.14134">
        <ele>1256</ele>
        <time>2026-04-29T09:18:22Z</time>
      </trkpt>
      <trkpt lat="44.96153" lon="4.14139">
        <ele>1256.2</ele>
        <time>2026-04-29T09:18:27Z</time>
      </trkpt>
      <trkpt lat="44.96156" lon="4.14145">
        <ele>1256.3</ele>
        <time>2026-04-29T09:18:32Z</time>
      </trkpt>
      <trkpt lat="44.96159" lon="4.14151">
        <ele>1256.5</ele>
        <time>2026-04-29T09:18:37Z</time>
      </trkpt>
      <trkpt lat="44.96161" lon="4.14156">
        <ele>1256.7</ele>
        <time>2026-04-29T09:18:42Z</time>
      </trkpt>
      <trkpt lat="44.96163" lon="4.14159">
        <ele>1256.8</ele>
        <time>2026-04-29T09:18:47Z</time>
      </trkpt>
      <trkpt lat="44.96166" lon="4.14162">
        <ele>1256.8</ele>
        <time>2026-04-29T09:18:52Z</time>
      </trkpt>
      <trkpt lat="44.96166" lon="4.14162">
        <ele>1256.8</ele>
        <time>2026-04-29T09:18:57Z</time>
      </trkpt>
      <trkpt lat="44.96166" lon="4.14162">
        <ele>1256.8</ele>
        <time>2026-04-29T09:19:02Z</time>
      </trkpt>
      <trkpt lat="44.96166" lon="4.14162">
        <ele>1256.8</ele>
        <time>2026-04-29T09:19:07Z</time>
      </trkpt>
      <trkpt lat="44.96166" lon="4.14162">
        <ele>1256.8</ele>
        <time>2026-04-29T09:19:12Z</time>
      </trkpt>
      <trkpt lat="44.96166" lon="4.14162">
        <ele>1256.8</ele>
        <time>2026-04-29T09:19:17Z</time>
      </trkpt>
      <trkpt lat="44.96166" lon="4.14162">
        <ele>1256.8</ele>
        <time>2026-04-29T09:19:22Z</time>
      </trkpt>
      <trkpt lat="44.96166" lon="4.14162">
        <ele>1256.8</ele>
        <time>2026-04-29T09:19:27Z</time>
      </trkpt>
      <trkpt lat="44.96169" lon="4.14166">
        <ele>1256.9</ele>
        <time>2026-04-29T09:19:32Z</time>
      </trkpt>
      <trkpt lat="44.96173" lon="4.14175">
        <ele>1257.1</ele>
        <time>2026-04-29T09:19:37Z</time>
      </trkpt>
      <trkpt lat="44.96177" lon="4.14182">
        <ele>1257.2</ele>
        <time>2026-04-29T09:19:42Z</time>
      </trkpt>
      <trkpt lat="44.96182" lon="4.14188">
        <ele>1257.2</ele>
        <time>2026-04-29T09:19:47Z</time>
      </trkpt>
      <trkpt lat="44.96188" lon="4.14194">
        <ele>1257.1</ele>
        <time>2026-04-29T09:19:52Z</time>
      </trkpt>
      <trkpt lat="44.96193" lon="4.14201">
        <ele>1257.1</ele>
        <time>2026-04-29T09:19:57Z</time>
      </trkpt>
      <trkpt lat="44.96199" lon="4.14207">
        <ele>1257</ele>
        <time>2026-04-29T09:20:02Z</time>
      </trkpt>
      <trkpt lat="44.96204" lon="4.14215">
        <ele>1257</ele>
        <time>2026-04-29T09:20:07Z</time>
      </trkpt>
      <trkpt lat="44.96209" lon="4.14221">
        <ele>1256.9</ele>
        <time>2026-04-29T09:20:12Z</time>
      </trkpt>
      <trkpt lat="44.96214" lon="4.14229">
        <ele>1256.9</ele>
        <time>2026-04-29T09:20:17Z</time>
      </trkpt>
      <trkpt lat="44.96219" lon="4.14237">
        <ele>1256.8</ele>
        <time>2026-04-29T09:20:22Z</time>
      </trkpt>
      <trkpt lat="44.96224" lon="4.14244">
        <ele>1256.7</ele>
        <time>2026-04-29T09:20:27Z</time>
      </trkpt>
      <trkpt lat="44.9623" lon="4.14251">
        <ele>1256.5</ele>
        <time>2026-04-29T09:20:32Z</time>
      </trkpt>
      <trkpt lat="44.96236" lon="4.14258">
        <ele>1256.4</ele>
        <time>2026-04-29T09:20:37Z</time>
      </trkpt>
      <trkpt lat="44.96242" lon="4.14262">
        <ele>1256.1</ele>
        <time>2026-04-29T09:20:42Z</time>
      </trkpt>
      <trkpt lat="44.96249" lon="4.14265">
        <ele>1255.8</ele>
        <time>2026-04-29T09:20:47Z</time>
      </trkpt>
      <trkpt lat="44.96256" lon="4.14267">
        <ele>1255.5</ele>
        <time>2026-04-29T09:20:52Z</time>
      </trkpt>
      <trkpt lat="44.96262" lon="4.14266">
        <ele>1255.2</ele>
        <time>2026-04-29T09:20:57Z</time>
      </trkpt>
      <trkpt lat="44.96264" lon="4.14266">
        <ele>1255.1</ele>
        <time>2026-04-29T09:21:02Z</time>
      </trkpt>
      <trkpt lat="44.9627" lon="4.14264">
        <ele>1254.8</ele>
        <time>2026-04-29T09:21:07Z</time>
      </trkpt>
      <trkpt lat="44.96277" lon="4.14263">
        <ele>1254.4</ele>
        <time>2026-04-29T09:21:12Z</time>
      </trkpt>
      <trkpt lat="44.96283" lon="4.14261">
        <ele>1254</ele>
        <time>2026-04-29T09:21:17Z</time>
      </trkpt>
      <trkpt lat="44.96291" lon="4.14258">
        <ele>1253.5</ele>
        <time>2026-04-29T09:21:22Z</time>
      </trkpt>
      <trkpt lat="44.96299" lon="4.14255">
        <ele>1252.9</ele>
        <time>2026-04-29T09:21:27Z</time>
      </trkpt>
      <trkpt lat="44.96306" lon="4.14252">
        <ele>1252.4</ele>
        <time>2026-04-29T09:21:32Z</time>
      </trkpt>
      <trkpt lat="44.96313" lon="4.14249">
        <ele>1251.9</ele>
        <time>2026-04-29T09:21:37Z</time>
      </trkpt>
      <trkpt lat="44.96321" lon="4.14247">
        <ele>1251.5</ele>
        <time>2026-04-29T09:21:42Z</time>
      </trkpt>
      <trkpt lat="44.96328" lon="4.14245">
        <ele>1251.1</ele>
        <time>2026-04-29T09:21:47Z</time>
      </trkpt>
      <trkpt lat="44.96335" lon="4.14242">
        <ele>1250.6</ele>
        <time>2026-04-29T09:21:52Z</time>
      </trkpt>
      <trkpt lat="44.96342" lon="4.14241">
        <ele>1250.3</ele>
        <time>2026-04-29T09:21:57Z</time>
      </trkpt>
      <trkpt lat="44.96349" lon="4.14241">
        <ele>1249.9</ele>
        <time>2026-04-29T09:22:02Z</time>
      </trkpt>
      <trkpt lat="44.96356" lon="4.14242">
        <ele>1249.7</ele>
        <time>2026-04-29T09:22:07Z</time>
      </trkpt>
      <trkpt lat="44.96362" lon="4.14244">
        <ele>1249.4</ele>
        <time>2026-04-29T09:22:12Z</time>
      </trkpt>
      <trkpt lat="44.96369" lon="4.14247">
        <ele>1249.2</ele>
        <time>2026-04-29T09:22:17Z</time>
      </trkpt>
      <trkpt lat="44.96377" lon="4.14249">
        <ele>1248.9</ele>
        <time>2026-04-29T09:22:22Z</time>
      </trkpt>
      <trkpt lat="44.96384" lon="4.14251">
        <ele>1248.6</ele>
        <time>2026-04-29T09:22:27Z</time>
      </trkpt>
      <trkpt lat="44.96391" lon="4.14252">
        <ele>1248.3</ele>
        <time>2026-04-29T09:22:32Z</time>
      </trkpt>
      <trkpt lat="44.96397" lon="4.14253">
        <ele>1248.1</ele>
        <time>2026-04-29T09:22:37Z</time>
      </trkpt>
      <trkpt lat="44.96405" lon="4.14253">
        <ele>1247.7</ele>
        <time>2026-04-29T09:22:42Z</time>
      </trkpt>
      <trkpt lat="44.96412" lon="4.14252">
        <ele>1247.3</ele>
        <time>2026-04-29T09:22:47Z</time>
      </trkpt>
      <trkpt lat="44.9642" lon="4.14251">
        <ele>1247.2</ele>
        <time>2026-04-29T09:22:52Z</time>
      </trkpt>
      <trkpt lat="44.96428" lon="4.1425">
        <ele>1247.4</ele>
        <time>2026-04-29T09:22:57Z</time>
      </trkpt>
      <trkpt lat="44.96435" lon="4.14247">
        <ele>1247.6</ele>
        <time>2026-04-29T09:23:02Z</time>
      </trkpt>
      <trkpt lat="44.96436" lon="4.14246">
        <ele>1247.6</ele>
        <time>2026-04-29T09:23:07Z</time>
      </trkpt>
      <trkpt lat="44.96443" lon="4.14246">
        <ele>1247.8</ele>
        <time>2026-04-29T09:23:12Z</time>
      </trkpt>
      <trkpt lat="44.96449" lon="4.14242">
        <ele>1247.9</ele>
        <time>2026-04-29T09:23:17Z</time>
      </trkpt>
      <trkpt lat="44.96456" lon="4.14238">
        <ele>1248</ele>
        <time>2026-04-29T09:23:22Z</time>
      </trkpt>
      <trkpt lat="44.96462" lon="4.14234">
        <ele>1248</ele>
        <time>2026-04-29T09:23:27Z</time>
      </trkpt>
      <trkpt lat="44.96468" lon="4.14229">
        <ele>1248</ele>
        <time>2026-04-29T09:23:32Z</time>
      </trkpt>
      <trkpt lat="44.96475" lon="4.14227">
        <ele>1248.2</ele>
        <time>2026-04-29T09:23:37Z</time>
      </trkpt>
      <trkpt lat="44.96483" lon="4.14229">
        <ele>1248.5</ele>
        <time>2026-04-29T09:23:42Z</time>
      </trkpt>
      <trkpt lat="44.96489" lon="4.14229">
        <ele>1248.7</ele>
        <time>2026-04-29T09:23:47Z</time>
      </trkpt>
      <trkpt lat="44.96495" lon="4.1423">
        <ele>1248.9</ele>
        <time>2026-04-29T09:23:52Z</time>
      </trkpt>
      <trkpt lat="44.96504" lon="4.14229">
        <ele>1249</ele>
        <time>2026-04-29T09:23:57Z</time>
      </trkpt>
      <trkpt lat="44.96512" lon="4.14228">
        <ele>1249</ele>
        <time>2026-04-29T09:24:02Z</time>
      </trkpt>
      <trkpt lat="44.9652" lon="4.1423">
        <ele>1249.2</ele>
        <time>2026-04-29T09:24:07Z</time>
      </trkpt>
      <trkpt lat="44.96526" lon="4.1423">
        <ele>1249.2</ele>
        <time>2026-04-29T09:24:12Z</time>
      </trkpt>
      <trkpt lat="44.96534" lon="4.14229">
        <ele>1249.2</ele>
        <time>2026-04-29T09:24:17Z</time>
      </trkpt>
      <trkpt lat="44.96542" lon="4.1423">
        <ele>1249.3</ele>
        <time>2026-04-29T09:24:22Z</time>
      </trkpt>
      <trkpt lat="44.9655" lon="4.1423">
        <ele>1249.3</ele>
        <time>2026-04-29T09:24:27Z</time>
      </trkpt>
      <trkpt lat="44.96556" lon="4.1423">
        <ele>1249.4</ele>
        <time>2026-04-29T09:24:32Z</time>
      </trkpt>
      <trkpt lat="44.96562" lon="4.1423">
        <ele>1249.4</ele>
        <time>2026-04-29T09:24:37Z</time>
      </trkpt>
      <trkpt lat="44.96569" lon="4.1423">
        <ele>1249.4</ele>
        <time>2026-04-29T09:24:42Z</time>
      </trkpt>
      <trkpt lat="44.96577" lon="4.14231">
        <ele>1249.5</ele>
        <time>2026-04-29T09:24:47Z</time>
      </trkpt>
      <trkpt lat="44.96584" lon="4.14232">
        <ele>1249.6</ele>
        <time>2026-04-29T09:24:52Z</time>
      </trkpt>
      <trkpt lat="44.96591" lon="4.14233">
        <ele>1249.6</ele>
        <time>2026-04-29T09:24:57Z</time>
      </trkpt>
      <trkpt lat="44.96598" lon="4.14234">
        <ele>1249.7</ele>
        <time>2026-04-29T09:25:02Z</time>
      </trkpt>
      <trkpt lat="44.96605" lon="4.14235">
        <ele>1249.8</ele>
        <time>2026-04-29T09:25:07Z</time>
      </trkpt>
      <trkpt lat="44.96613" lon="4.14236">
        <ele>1249.9</ele>
        <time>2026-04-29T09:25:12Z</time>
      </trkpt>
      <trkpt lat="44.96621" lon="4.14236">
        <ele>1250</ele>
        <time>2026-04-29T09:25:17Z</time>
      </trkpt>
      <trkpt lat="44.96628" lon="4.14238">
        <ele>1250.1</ele>
        <time>2026-04-29T09:25:22Z</time>
      </trkpt>
      <trkpt lat="44.96637" lon="4.14238">
        <ele>1250.2</ele>
        <time>2026-04-29T09:25:27Z</time>
      </trkpt>
      <trkpt lat="44.96644" lon="4.14238">
        <ele>1250.2</ele>
        <time>2026-04-29T09:25:32Z</time>
      </trkpt>
      <trkpt lat="44.96651" lon="4.14239">
        <ele>1250.3</ele>
        <time>2026-04-29T09:25:37Z</time>
      </trkpt>
      <trkpt lat="44.96659" lon="4.14238">
        <ele>1250.4</ele>
        <time>2026-04-29T09:25:42Z</time>
      </trkpt>
      <trkpt lat="44.96666" lon="4.14238">
        <ele>1250.4</ele>
        <time>2026-04-29T09:25:47Z</time>
      </trkpt>
      <trkpt lat="44.96674" lon="4.14238">
        <ele>1250.3</ele>
        <time>2026-04-29T09:25:52Z</time>
      </trkpt>
      <trkpt lat="44.96681" lon="4.14238">
        <ele>1250.3</ele>
        <time>2026-04-29T09:25:57Z</time>
      </trkpt>
      <trkpt lat="44.96688" lon="4.14238">
        <ele>1250.2</ele>
        <time>2026-04-29T09:26:02Z</time>
      </trkpt>
      <trkpt lat="44.96694" lon="4.14237">
        <ele>1250.1</ele>
        <time>2026-04-29T09:26:07Z</time>
      </trkpt>
      <trkpt lat="44.96702" lon="4.14236">
        <ele>1250</ele>
        <time>2026-04-29T09:26:12Z</time>
      </trkpt>
      <trkpt lat="44.9671" lon="4.14236">
        <ele>1249.9</ele>
        <time>2026-04-29T09:26:17Z</time>
      </trkpt>
      <trkpt lat="44.96719" lon="4.14236">
        <ele>1249.8</ele>
        <time>2026-04-29T09:26:22Z</time>
      </trkpt>
      <trkpt lat="44.96725" lon="4.14236">
        <ele>1249.7</ele>
        <time>2026-04-29T09:26:27Z</time>
      </trkpt>
      <trkpt lat="44.96734" lon="4.14236">
        <ele>1249.7</ele>
        <time>2026-04-29T09:26:32Z</time>
      </trkpt>
      <trkpt lat="44.96741" lon="4.14236">
        <ele>1249.6</ele>
        <time>2026-04-29T09:26:37Z</time>
      </trkpt>
      <trkpt lat="44.96748" lon="4.14236">
        <ele>1249.5</ele>
        <time>2026-04-29T09:26:42Z</time>
      </trkpt>
      <trkpt lat="44.96755" lon="4.14236">
        <ele>1249.3</ele>
        <time>2026-04-29T09:26:47Z</time>
      </trkpt>
      <trkpt lat="44.96762" lon="4.14236">
        <ele>1249.1</ele>
        <time>2026-04-29T09:26:52Z</time>
      </trkpt>
      <trkpt lat="44.9677" lon="4.14236">
        <ele>1248.9</ele>
        <time>2026-04-29T09:26:57Z</time>
      </trkpt>
      <trkpt lat="44.96777" lon="4.14237">
        <ele>1248.7</ele>
        <time>2026-04-29T09:27:02Z</time>
      </trkpt>
      <trkpt lat="44.96784" lon="4.14236">
        <ele>1248.5</ele>
        <time>2026-04-29T09:27:07Z</time>
      </trkpt>
      <trkpt lat="44.96791" lon="4.14236">
        <ele>1248.3</ele>
        <time>2026-04-29T09:27:12Z</time>
      </trkpt>
      <trkpt lat="44.96799" lon="4.14237">
        <ele>1248</ele>
        <time>2026-04-29T09:27:17Z</time>
      </trkpt>
      <trkpt lat="44.96806" lon="4.14236">
        <ele>1247.8</ele>
        <time>2026-04-29T09:27:22Z</time>
      </trkpt>
      <trkpt lat="44.96814" lon="4.14236">
        <ele>1247.6</ele>
        <time>2026-04-29T09:27:27Z</time>
      </trkpt>
      <trkpt lat="44.96821" lon="4.14235">
        <ele>1247.4</ele>
        <time>2026-04-29T09:27:32Z</time>
      </trkpt>
      <trkpt lat="44.96829" lon="4.14234">
        <ele>1247.1</ele>
        <time>2026-04-29T09:27:37Z</time>
      </trkpt>
      <trkpt lat="44.96836" lon="4.14233">
        <ele>1246.9</ele>
        <time>2026-04-29T09:27:42Z</time>
      </trkpt>
      <trkpt lat="44.96844" lon="4.14232">
        <ele>1246.7</ele>
        <time>2026-04-29T09:27:47Z</time>
      </trkpt>
      <trkpt lat="44.96852" lon="4.14232">
        <ele>1246.5</ele>
        <time>2026-04-29T09:27:52Z</time>
      </trkpt>
      <trkpt lat="44.96859" lon="4.14231">
        <ele>1246.3</ele>
        <time>2026-04-29T09:27:57Z</time>
      </trkpt>
      <trkpt lat="44.96868" lon="4.1423">
        <ele>1246.1</ele>
        <time>2026-04-29T09:28:02Z</time>
      </trkpt>
      <trkpt lat="44.96875" lon="4.14229">
        <ele>1245.9</ele>
        <time>2026-04-29T09:28:07Z</time>
      </trkpt>
      <trkpt lat="44.96884" lon="4.14229">
        <ele>1245.6</ele>
        <time>2026-04-29T09:28:12Z</time>
      </trkpt>
      <trkpt lat="44.96891" lon="4.14229">
        <ele>1245.4</ele>
        <time>2026-04-29T09:28:17Z</time>
      </trkpt>
      <trkpt lat="44.96898" lon="4.14228">
        <ele>1245.2</ele>
        <time>2026-04-29T09:28:22Z</time>
      </trkpt>
      <trkpt lat="44.96905" lon="4.14228">
        <ele>1245.1</ele>
        <time>2026-04-29T09:28:27Z</time>
      </trkpt>
      <trkpt lat="44.96913" lon="4.14229">
        <ele>1244.8</ele>
        <time>2026-04-29T09:28:32Z</time>
      </trkpt>
      <trkpt lat="44.9692" lon="4.14228">
        <ele>1244.7</ele>
        <time>2026-04-29T09:28:37Z</time>
      </trkpt>
      <trkpt lat="44.96928" lon="4.14228">
        <ele>1244.6</ele>
        <time>2026-04-29T09:28:42Z</time>
      </trkpt>
      <trkpt lat="44.96936" lon="4.14227">
        <ele>1244.4</ele>
        <time>2026-04-29T09:28:47Z</time>
      </trkpt>
      <trkpt lat="44.96944" lon="4.14227">
        <ele>1244.3</ele>
        <time>2026-04-29T09:28:52Z</time>
      </trkpt>
      <trkpt lat="44.9695" lon="4.14228">
        <ele>1244.2</ele>
        <time>2026-04-29T09:28:57Z</time>
      </trkpt>
      <trkpt lat="44.96958" lon="4.14229">
        <ele>1244.1</ele>
        <time>2026-04-29T09:29:02Z</time>
      </trkpt>
      <trkpt lat="44.96965" lon="4.14231">
        <ele>1244.1</ele>
        <time>2026-04-29T09:29:07Z</time>
      </trkpt>
      <trkpt lat="44.96972" lon="4.14231">
        <ele>1244</ele>
        <time>2026-04-29T09:29:12Z</time>
      </trkpt>
      <trkpt lat="44.9698" lon="4.14232">
        <ele>1243.9</ele>
        <time>2026-04-29T09:29:17Z</time>
      </trkpt>
      <trkpt lat="44.96987" lon="4.14234">
        <ele>1243.8</ele>
        <time>2026-04-29T09:29:22Z</time>
      </trkpt>
      <trkpt lat="44.96994" lon="4.14236">
        <ele>1243.7</ele>
        <time>2026-04-29T09:29:27Z</time>
      </trkpt>
      <trkpt lat="44.97001" lon="4.14236">
        <ele>1243.7</ele>
        <time>2026-04-29T09:29:32Z</time>
      </trkpt>
      <trkpt lat="44.97008" lon="4.14236">
        <ele>1243.7</ele>
        <time>2026-04-29T09:29:37Z</time>
      </trkpt>
      <trkpt lat="44.97015" lon="4.14237">
        <ele>1243.7</ele>
        <time>2026-04-29T09:29:42Z</time>
      </trkpt>
      <trkpt lat="44.97022" lon="4.14236">
        <ele>1243.7</ele>
        <time>2026-04-29T09:29:47Z</time>
      </trkpt>
      <trkpt lat="44.9703" lon="4.14235">
        <ele>1243.6</ele>
        <time>2026-04-29T09:29:52Z</time>
      </trkpt>
      <trkpt lat="44.97038" lon="4.14234">
        <ele>1243.6</ele>
        <time>2026-04-29T09:29:57Z</time>
      </trkpt>
      <trkpt lat="44.97045" lon="4.14233">
        <ele>1243.6</ele>
        <time>2026-04-29T09:30:02Z</time>
      </trkpt>
      <trkpt lat="44.97053" lon="4.14232">
        <ele>1243.6</ele>
        <time>2026-04-29T09:30:07Z</time>
      </trkpt>
      <trkpt lat="44.97061" lon="4.14233">
        <ele>1243.6</ele>
        <time>2026-04-29T09:30:12Z</time>
      </trkpt>
      <trkpt lat="44.97067" lon="4.14233">
        <ele>1243.6</ele>
        <time>2026-04-29T09:30:17Z</time>
      </trkpt>
      <trkpt lat="44.97074" lon="4.14237">
        <ele>1243.7</ele>
        <time>2026-04-29T09:30:22Z</time>
      </trkpt>
      <trkpt lat="44.97079" lon="4.1424">
        <ele>1243.8</ele>
        <time>2026-04-29T09:30:27Z</time>
      </trkpt>
      <trkpt lat="44.97086" lon="4.14243">
        <ele>1243.7</ele>
        <time>2026-04-29T09:30:32Z</time>
      </trkpt>
      <trkpt lat="44.97091" lon="4.14245">
        <ele>1243.5</ele>
        <time>2026-04-29T09:30:37Z</time>
      </trkpt>
      <trkpt lat="44.97092" lon="4.14245">
        <ele>1243.5</ele>
        <time>2026-04-29T09:30:42Z</time>
      </trkpt>
      <trkpt lat="44.97095" lon="4.14246">
        <ele>1243.4</ele>
        <time>2026-04-29T09:30:47Z</time>
      </trkpt>
      <trkpt lat="44.97103" lon="4.14247">
        <ele>1243</ele>
        <time>2026-04-29T09:30:52Z</time>
      </trkpt>
      <trkpt lat="44.97111" lon="4.14248">
        <ele>1242.7</ele>
        <time>2026-04-29T09:30:57Z</time>
      </trkpt>
      <trkpt lat="44.97117" lon="4.14249">
        <ele>1242.4</ele>
        <time>2026-04-29T09:31:02Z</time>
      </trkpt>
      <trkpt lat="44.97124" lon="4.14248">
        <ele>1242.1</ele>
        <time>2026-04-29T09:31:07Z</time>
      </trkpt>
      <trkpt lat="44.97131" lon="4.14248">
        <ele>1241.7</ele>
        <time>2026-04-29T09:31:12Z</time>
      </trkpt>
      <trkpt lat="44.97138" lon="4.14246">
        <ele>1241.4</ele>
        <time>2026-04-29T09:31:17Z</time>
      </trkpt>
      <trkpt lat="44.97143" lon="4.14245">
        <ele>1241.2</ele>
        <time>2026-04-29T09:31:22Z</time>
      </trkpt>
      <trkpt lat="44.97143" lon="4.14245">
        <ele>1241.2</ele>
        <time>2026-04-29T09:31:27Z</time>
      </trkpt>
      <trkpt lat="44.97143" lon="4.14245">
        <ele>1241.2</ele>
        <time>2026-04-29T09:31:32Z</time>
      </trkpt>
      <trkpt lat="44.97148" lon="4.14243">
        <ele>1241.1</ele>
        <time>2026-04-29T09:31:37Z</time>
      </trkpt>
      <trkpt lat="44.97155" lon="4.14241">
        <ele>1240.8</ele>
        <time>2026-04-29T09:31:42Z</time>
      </trkpt>
      <trkpt lat="44.97161" lon="4.14237">
        <ele>1240.7</ele>
        <time>2026-04-29T09:31:47Z</time>
      </trkpt>
      <trkpt lat="44.97168" lon="4.14233">
        <ele>1240.5</ele>
        <time>2026-04-29T09:31:52Z</time>
      </trkpt>
      <trkpt lat="44.97174" lon="4.14228">
        <ele>1240.1</ele>
        <time>2026-04-29T09:31:57Z</time>
      </trkpt>
      <trkpt lat="44.9718" lon="4.14224">
        <ele>1239.8</ele>
        <time>2026-04-29T09:32:02Z</time>
      </trkpt>
      <trkpt lat="44.97186" lon="4.14221">
        <ele>1239.5</ele>
        <time>2026-04-29T09:32:07Z</time>
      </trkpt>
      <trkpt lat="44.97192" lon="4.14217">
        <ele>1239.4</ele>
        <time>2026-04-29T09:32:12Z</time>
      </trkpt>
      <trkpt lat="44.97199" lon="4.14214">
        <ele>1239.2</ele>
        <time>2026-04-29T09:32:17Z</time>
      </trkpt>
      <trkpt lat="44.97205" lon="4.1421">
        <ele>1239.3</ele>
        <time>2026-04-29T09:32:22Z</time>
      </trkpt>
      <trkpt lat="44.9721" lon="4.14207">
        <ele>1239.3</ele>
        <time>2026-04-29T09:32:27Z</time>
      </trkpt>
      <trkpt lat="44.97217" lon="4.14203">
        <ele>1239.5</ele>
        <time>2026-04-29T09:32:32Z</time>
      </trkpt>
      <trkpt lat="44.97224" lon="4.14199">
        <ele>1239.7</ele>
        <time>2026-04-29T09:32:37Z</time>
      </trkpt>
      <trkpt lat="44.97232" lon="4.14196">
        <ele>1239.9</ele>
        <time>2026-04-29T09:32:42Z</time>
      </trkpt>
      <trkpt lat="44.97239" lon="4.14193">
        <ele>1240.2</ele>
        <time>2026-04-29T09:32:47Z</time>
      </trkpt>
      <trkpt lat="44.97246" lon="4.1419">
        <ele>1240.6</ele>
        <time>2026-04-29T09:32:52Z</time>
      </trkpt>
      <trkpt lat="44.97253" lon="4.14187">
        <ele>1240.7</ele>
        <time>2026-04-29T09:32:57Z</time>
      </trkpt>
      <trkpt lat="44.9726" lon="4.14183">
        <ele>1240.5</ele>
        <time>2026-04-29T09:33:02Z</time>
      </trkpt>
      <trkpt lat="44.97266" lon="4.14181">
        <ele>1240.1</ele>
        <time>2026-04-29T09:33:07Z</time>
      </trkpt>
      <trkpt lat="44.9727" lon="4.14179">
        <ele>1240</ele>
        <time>2026-04-29T09:33:12Z</time>
      </trkpt>
      <trkpt lat="44.97274" lon="4.14178">
        <ele>1239.6</ele>
        <time>2026-04-29T09:33:17Z</time>
      </trkpt>
      <trkpt lat="44.9728" lon="4.14177">
        <ele>1239</ele>
        <time>2026-04-29T09:33:22Z</time>
      </trkpt>
      <trkpt lat="44.97286" lon="4.14175">
        <ele>1238.6</ele>
        <time>2026-04-29T09:33:27Z</time>
      </trkpt>
      <trkpt lat="44.97294" lon="4.14176">
        <ele>1237.3</ele>
        <time>2026-04-29T09:33:32Z</time>
      </trkpt>
      <trkpt lat="44.97302" lon="4.14175">
        <ele>1236.5</ele>
        <time>2026-04-29T09:33:37Z</time>
      </trkpt>
      <trkpt lat="44.97309" lon="4.14175">
        <ele>1235.5</ele>
        <time>2026-04-29T09:33:42Z</time>
      </trkpt>
      <trkpt lat="44.97316" lon="4.14175">
        <ele>1234.6</ele>
        <time>2026-04-29T09:33:47Z</time>
      </trkpt>
      <trkpt lat="44.97323" lon="4.14175">
        <ele>1233.7</ele>
        <time>2026-04-29T09:33:52Z</time>
      </trkpt>
      <trkpt lat="44.97332" lon="4.14175">
        <ele>1232.5</ele>
        <time>2026-04-29T09:33:57Z</time>
      </trkpt>
      <trkpt lat="44.97338" lon="4.14176">
        <ele>1231.6</ele>
        <time>2026-04-29T09:34:02Z</time>
      </trkpt>
      <trkpt lat="44.97345" lon="4.14177">
        <ele>1230.6</ele>
        <time>2026-04-29T09:34:07Z</time>
      </trkpt>
      <trkpt lat="44.97352" lon="4.14176">
        <ele>1230</ele>
        <time>2026-04-29T09:34:12Z</time>
      </trkpt>
      <trkpt lat="44.97359" lon="4.14174">
        <ele>1229.5</ele>
        <time>2026-04-29T09:34:17Z</time>
      </trkpt>
      <trkpt lat="44.97367" lon="4.14174">
        <ele>1228.6</ele>
        <time>2026-04-29T09:34:22Z</time>
      </trkpt>
      <trkpt lat="44.97371" lon="4.14173">
        <ele>1228.3</ele>
        <time>2026-04-29T09:34:27Z</time>
      </trkpt>
      <trkpt lat="44.97376" lon="4.14175">
        <ele>1227.4</ele>
        <time>2026-04-29T09:34:32Z</time>
      </trkpt>
      <trkpt lat="44.97384" lon="4.14175">
        <ele>1226.5</ele>
        <time>2026-04-29T09:34:37Z</time>
      </trkpt>
      <trkpt lat="44.97392" lon="4.14176">
        <ele>1225.4</ele>
        <time>2026-04-29T09:34:42Z</time>
      </trkpt>
      <trkpt lat="44.974" lon="4.14175">
        <ele>1224.6</ele>
        <time>2026-04-29T09:34:47Z</time>
      </trkpt>
      <trkpt lat="44.97407" lon="4.14176">
        <ele>1223.7</ele>
        <time>2026-04-29T09:34:52Z</time>
      </trkpt>
      <trkpt lat="44.97414" lon="4.14177">
        <ele>1222.7</ele>
        <time>2026-04-29T09:34:57Z</time>
      </trkpt>
      <trkpt lat="44.97422" lon="4.14178">
        <ele>1221.9</ele>
        <time>2026-04-29T09:35:02Z</time>
      </trkpt>
      <trkpt lat="44.97429" lon="4.14178">
        <ele>1221.6</ele>
        <time>2026-04-29T09:35:07Z</time>
      </trkpt>
      <trkpt lat="44.97437" lon="4.14177">
        <ele>1221.3</ele>
        <time>2026-04-29T09:35:12Z</time>
      </trkpt>
      <trkpt lat="44.97443" lon="4.14176">
        <ele>1221.1</ele>
        <time>2026-04-29T09:35:17Z</time>
      </trkpt>
      <trkpt lat="44.9745" lon="4.14176">
        <ele>1220.7</ele>
        <time>2026-04-29T09:35:22Z</time>
      </trkpt>
      <trkpt lat="44.97458" lon="4.14175">
        <ele>1220.4</ele>
        <time>2026-04-29T09:35:27Z</time>
      </trkpt>
      <trkpt lat="44.97465" lon="4.14172">
        <ele>1220.4</ele>
        <time>2026-04-29T09:35:32Z</time>
      </trkpt>
      <trkpt lat="44.97472" lon="4.1417">
        <ele>1220.2</ele>
        <time>2026-04-29T09:35:37Z</time>
      </trkpt>
      <trkpt lat="44.97478" lon="4.14168">
        <ele>1220.1</ele>
        <time>2026-04-29T09:35:42Z</time>
      </trkpt>
      <trkpt lat="44.97485" lon="4.14165">
        <ele>1220.1</ele>
        <time>2026-04-29T09:35:47Z</time>
      </trkpt>
      <trkpt lat="44.97491" lon="4.14162">
        <ele>1220.1</ele>
        <time>2026-04-29T09:35:52Z</time>
      </trkpt>
      <trkpt lat="44.97497" lon="4.1416">
        <ele>1219.9</ele>
        <time>2026-04-29T09:35:57Z</time>
      </trkpt>
      <trkpt lat="44.97502" lon="4.14156">
        <ele>1220.2</ele>
        <time>2026-04-29T09:36:02Z</time>
      </trkpt>
      <trkpt lat="44.97508" lon="4.14151">
        <ele>1220.9</ele>
        <time>2026-04-29T09:36:07Z</time>
      </trkpt>
      <trkpt lat="44.97514" lon="4.14152">
        <ele>1220.9</ele>
        <time>2026-04-29T09:36:12Z</time>
      </trkpt>
      <trkpt lat="44.9752" lon="4.14155">
        <ele>1220.8</ele>
        <time>2026-04-29T09:36:17Z</time>
      </trkpt>
      <trkpt lat="44.97527" lon="4.14162">
        <ele>1220.2</ele>
        <time>2026-04-29T09:36:22Z</time>
      </trkpt>
      <trkpt lat="44.97532" lon="4.14167">
        <ele>1219.7</ele>
        <time>2026-04-29T09:36:27Z</time>
      </trkpt>
      <trkpt lat="44.97537" lon="4.14174">
        <ele>1219</ele>
        <time>2026-04-29T09:36:32Z</time>
      </trkpt>
      <trkpt lat="44.97541" lon="4.14179">
        <ele>1218.4</ele>
        <time>2026-04-29T09:36:37Z</time>
      </trkpt>
      <trkpt lat="44.97546" lon="4.14183">
        <ele>1218</ele>
        <time>2026-04-29T09:36:42Z</time>
      </trkpt>
      <trkpt lat="44.97552" lon="4.14189">
        <ele>1217.4</ele>
        <time>2026-04-29T09:36:47Z</time>
      </trkpt>
      <trkpt lat="44.97556" lon="4.14193">
        <ele>1217</ele>
        <time>2026-04-29T09:36:52Z</time>
      </trkpt>
      <trkpt lat="44.97563" lon="4.14196">
        <ele>1216.7</ele>
        <time>2026-04-29T09:36:57Z</time>
      </trkpt>
      <trkpt lat="44.97573" lon="4.14199">
        <ele>1216.5</ele>
        <time>2026-04-29T09:37:02Z</time>
      </trkpt>
      <trkpt lat="44.97579" lon="4.14201">
        <ele>1216.4</ele>
        <time>2026-04-29T09:37:07Z</time>
      </trkpt>
      <trkpt lat="44.97584" lon="4.14205">
        <ele>1216</ele>
        <time>2026-04-29T09:37:12Z</time>
      </trkpt>
      <trkpt lat="44.97584" lon="4.1421">
        <ele>1215.3</ele>
        <time>2026-04-29T09:37:17Z</time>
      </trkpt>
      <trkpt lat="44.97584" lon="4.1421">
        <ele>1215.3</ele>
        <time>2026-04-29T09:37:22Z</time>
      </trkpt>
      <trkpt lat="44.97584" lon="4.1421">
        <ele>1215.3</ele>
        <time>2026-04-29T09:37:27Z</time>
      </trkpt>
      <trkpt lat="44.97588" lon="4.14212">
        <ele>1215.2</ele>
        <time>2026-04-29T09:37:32Z</time>
      </trkpt>
      <trkpt lat="44.97595" lon="4.14214">
        <ele>1215.2</ele>
        <time>2026-04-29T09:37:37Z</time>
      </trkpt>
      <trkpt lat="44.97601" lon="4.14218">
        <ele>1214.9</ele>
        <time>2026-04-29T09:37:42Z</time>
      </trkpt>
      <trkpt lat="44.97608" lon="4.1422">
        <ele>1214.9</ele>
        <time>2026-04-29T09:37:47Z</time>
      </trkpt>
      <trkpt lat="44.97613" lon="4.14224">
        <ele>1214.5</ele>
        <time>2026-04-29T09:37:52Z</time>
      </trkpt>
      <trkpt lat="44.97618" lon="4.14229">
        <ele>1213.9</ele>
        <time>2026-04-29T09:37:57Z</time>
      </trkpt>
      <trkpt lat="44.97625" lon="4.1424">
        <ele>1212.5</ele>
        <time>2026-04-29T09:38:02Z</time>
      </trkpt>
      <trkpt lat="44.97631" lon="4.14245">
        <ele>1211.9</ele>
        <time>2026-04-29T09:38:07Z</time>
      </trkpt>
      <trkpt lat="44.97637" lon="4.14248">
        <ele>1211.6</ele>
        <time>2026-04-29T09:38:12Z</time>
      </trkpt>
      <trkpt lat="44.97642" lon="4.14251">
        <ele>1211.3</ele>
        <time>2026-04-29T09:38:17Z</time>
      </trkpt>
      <trkpt lat="44.97649" lon="4.14253">
        <ele>1211.3</ele>
        <time>2026-04-29T09:38:22Z</time>
      </trkpt>
      <trkpt lat="44.97655" lon="4.14257">
        <ele>1211.1</ele>
        <time>2026-04-29T09:38:27Z</time>
      </trkpt>
      <trkpt lat="44.97661" lon="4.14262">
        <ele>1210.7</ele>
        <time>2026-04-29T09:38:32Z</time>
      </trkpt>
      <trkpt lat="44.97667" lon="4.14269">
        <ele>1210.2</ele>
        <time>2026-04-29T09:38:37Z</time>
      </trkpt>
      <trkpt lat="44.97672" lon="4.14274">
        <ele>1210.2</ele>
        <time>2026-04-29T09:38:42Z</time>
      </trkpt>
      <trkpt lat="44.97677" lon="4.14278">
        <ele>1210.3</ele>
        <time>2026-04-29T09:38:47Z</time>
      </trkpt>
      <trkpt lat="44.97681" lon="4.14279">
        <ele>1210.5</ele>
        <time>2026-04-29T09:38:52Z</time>
      </trkpt>
      <trkpt lat="44.97685" lon="4.14283">
        <ele>1210.5</ele>
        <time>2026-04-29T09:38:57Z</time>
      </trkpt>
      <trkpt lat="44.97687" lon="4.14284">
        <ele>1210.5</ele>
        <time>2026-04-29T09:39:02Z</time>
      </trkpt>
      <trkpt lat="44.97689" lon="4.14285">
        <ele>1210.6</ele>
        <time>2026-04-29T09:39:07Z</time>
      </trkpt>
      <trkpt lat="44.97689" lon="4.14285">
        <ele>1210.6</ele>
        <time>2026-04-29T09:39:12Z</time>
      </trkpt>
      <trkpt lat="44.97689" lon="4.14285">
        <ele>1210.6</ele>
        <time>2026-04-29T09:39:17Z</time>
      </trkpt>
      <trkpt lat="44.97689" lon="4.14285">
        <ele>1210.6</ele>
        <time>2026-04-29T09:39:22Z</time>
      </trkpt>
      <trkpt lat="44.97697" lon="4.14283">
        <ele>1211.5</ele>
        <time>2026-04-29T09:39:27Z</time>
      </trkpt>
      <trkpt lat="44.97699" lon="4.14281">
        <ele>1211.9</ele>
        <time>2026-04-29T09:39:32Z</time>
      </trkpt>
      <trkpt lat="44.97704" lon="4.1428">
        <ele>1212.5</ele>
        <time>2026-04-29T09:39:37Z</time>
      </trkpt>
      <trkpt lat="44.97708" lon="4.14282">
        <ele>1212.6</ele>
        <time>2026-04-29T09:39:42Z</time>
      </trkpt>
      <trkpt lat="44.97709" lon="4.14284">
        <ele>1212.5</ele>
        <time>2026-04-29T09:39:47Z</time>
      </trkpt>
      <trkpt lat="44.97709" lon="4.14285">
        <ele>1212.4</ele>
        <time>2026-04-29T09:39:52Z</time>
      </trkpt>
      <trkpt lat="44.97709" lon="4.14285">
        <ele>1212.4</ele>
        <time>2026-04-29T09:39:57Z</time>
      </trkpt>
      <trkpt lat="44.97709" lon="4.14285">
        <ele>1212.4</ele>
        <time>2026-04-29T09:40:02Z</time>
      </trkpt>
      <trkpt lat="44.97709" lon="4.14285">
        <ele>1212.4</ele>
        <time>2026-04-29T09:40:07Z</time>
      </trkpt>
      <trkpt lat="44.97707" lon="4.14292">
        <ele>1211.3</ele>
        <time>2026-04-29T09:40:12Z</time>
      </trkpt>
      <trkpt lat="44.97706" lon="4.14299">
        <ele>1210.4</ele>
        <time>2026-04-29T09:40:17Z</time>
      </trkpt>
      <trkpt lat="44.97707" lon="4.143">
        <ele>1210.4</ele>
        <time>2026-04-29T09:40:22Z</time>
      </trkpt>
      <trkpt lat="44.97708" lon="4.143">
        <ele>1210.5</ele>
        <time>2026-04-29T09:40:27Z</time>
      </trkpt>
      <trkpt lat="44.97708" lon="4.143">
        <ele>1210.5</ele>
        <time>2026-04-29T09:40:32Z</time>
      </trkpt>
      <trkpt lat="44.97708" lon="4.143">
        <ele>1210.5</ele>
        <time>2026-04-29T09:40:37Z</time>
      </trkpt>
      <trkpt lat="44.97708" lon="4.143">
        <ele>1210.5</ele>
        <time>2026-04-29T09:40:42Z</time>
      </trkpt>
      <trkpt lat="44.97708" lon="4.143">
        <ele>1210.5</ele>
        <time>2026-04-29T09:40:47Z</time>
      </trkpt>
      <trkpt lat="44.97708" lon="4.143">
        <ele>1210.5</ele>
        <time>2026-04-29T09:40:52Z</time>
      </trkpt>
      <trkpt lat="44.97708" lon="4.143">
        <ele>1210.5</ele>
        <time>2026-04-29T09:40:57Z</time>
      </trkpt>
      <trkpt lat="44.97708" lon="4.143">
        <ele>1210.5</ele>
        <time>2026-04-29T09:41:02Z</time>
      </trkpt>
      <trkpt lat="44.97708" lon="4.143">
        <ele>1210.5</ele>
        <time>2026-04-29T09:41:07Z</time>
      </trkpt>
      <trkpt lat="44.97708" lon="4.143">
        <ele>1210.5</ele>
        <time>2026-04-29T09:41:12Z</time>
      </trkpt>
      <trkpt lat="44.97708" lon="4.143">
        <ele>1210.5</ele>
        <time>2026-04-29T09:41:17Z</time>
      </trkpt>
      <trkpt lat="44.97708" lon="4.143">
        <ele>1210.5</ele>
        <time>2026-04-29T09:41:22Z</time>
      </trkpt>
      <trkpt lat="44.97708" lon="4.143">
        <ele>1210.5</ele>
        <time>2026-04-29T09:41:27Z</time>
      </trkpt>
      <trkpt lat="44.97708" lon="4.143">
        <ele>1210.5</ele>
        <time>2026-04-29T09:41:32Z</time>
      </trkpt>
      <trkpt lat="44.97708" lon="4.143">
        <ele>1210.5</ele>
        <time>2026-04-29T09:41:37Z</time>
      </trkpt>
      <trkpt lat="44.97708" lon="4.143">
        <ele>1210.5</ele>
        <time>2026-04-29T09:41:42Z</time>
      </trkpt>
      <trkpt lat="44.97713" lon="4.14292">
        <ele>1211.9</ele>
        <time>2026-04-29T09:41:47Z</time>
      </trkpt>
      <trkpt lat="44.97713" lon="4.14292">
        <ele>1211.9</ele>
        <time>2026-04-29T09:41:52Z</time>
      </trkpt>
      <trkpt lat="44.97713" lon="4.14292">
        <ele>1211.9</ele>
        <time>2026-04-29T09:41:57Z</time>
      </trkpt>
      <trkpt lat="44.97712" lon="4.14274">
        <ele>1214</ele>
        <time>2026-04-29T09:42:02Z</time>
      </trkpt>
      <trkpt lat="44.97712" lon="4.14268">
        <ele>1214.7</ele>
        <time>2026-04-29T09:42:07Z</time>
      </trkpt>
      <trkpt lat="44.97712" lon="4.14265">
        <ele>1215.1</ele>
        <time>2026-04-29T09:42:12Z</time>
      </trkpt>
      <trkpt lat="44.97714" lon="4.14258">
        <ele>1216.1</ele>
        <time>2026-04-29T09:42:17Z</time>
      </trkpt>
      <trkpt lat="44.97714" lon="4.14252">
        <ele>1216.9</ele>
        <time>2026-04-29T09:42:22Z</time>
      </trkpt>
      <trkpt lat="44.97713" lon="4.14245">
        <ele>1217.8</ele>
        <time>2026-04-29T09:42:27Z</time>
      </trkpt>
      <trkpt lat="44.97713" lon="4.14241">
        <ele>1218.5</ele>
        <time>2026-04-29T09:42:32Z</time>
      </trkpt>
      <trkpt lat="44.97713" lon="4.14241">
        <ele>1218.5</ele>
        <time>2026-04-29T09:42:37Z</time>
      </trkpt>
      <trkpt lat="44.97713" lon="4.14243">
        <ele>1218.2</ele>
        <time>2026-04-29T09:42:42Z</time>
      </trkpt>
      <trkpt lat="44.97713" lon="4.1425">
        <ele>1217</ele>
        <time>2026-04-29T09:42:47Z</time>
      </trkpt>
      <trkpt lat="44.97713" lon="4.14253">
        <ele>1216.6</ele>
        <time>2026-04-29T09:42:52Z</time>
      </trkpt>
      <trkpt lat="44.97713" lon="4.14254">
        <ele>1216.5</ele>
        <time>2026-04-29T09:42:57Z</time>
      </trkpt>
      <trkpt lat="44.97713" lon="4.14254">
        <ele>1216.5</ele>
        <time>2026-04-29T09:43:02Z</time>
      </trkpt>
      <trkpt lat="44.97714" lon="4.14269">
        <ele>1214.8</ele>
        <time>2026-04-29T09:43:07Z</time>
      </trkpt>
      <trkpt lat="44.97715" lon="4.14277">
        <ele>1213.9</ele>
        <time>2026-04-29T09:43:12Z</time>
      </trkpt>
      <trkpt lat="44.97717" lon="4.14282">
        <ele>1213.4</ele>
        <time>2026-04-29T09:43:17Z</time>
      </trkpt>
      <trkpt lat="44.97723" lon="4.14282">
        <ele>1214</ele>
        <time>2026-04-29T09:43:22Z</time>
      </trkpt>
      <trkpt lat="44.97728" lon="4.14285">
        <ele>1214</ele>
        <time>2026-04-29T09:43:27Z</time>
      </trkpt>
      <trkpt lat="44.97732" lon="4.14285">
        <ele>1214.4</ele>
        <time>2026-04-29T09:43:32Z</time>
      </trkpt>
      <trkpt lat="44.97738" lon="4.14286">
        <ele>1214.8</ele>
        <time>2026-04-29T09:43:37Z</time>
      </trkpt>
      <trkpt lat="44.97749" lon="4.14286">
        <ele>1215.7</ele>
        <time>2026-04-29T09:43:42Z</time>
      </trkpt>
      <trkpt lat="44.97757" lon="4.14287">
        <ele>1216.5</ele>
        <time>2026-04-29T09:43:47Z</time>
      </trkpt>
      <trkpt lat="44.97763" lon="4.14292">
        <ele>1216.4</ele>
        <time>2026-04-29T09:43:52Z</time>
      </trkpt>
      <trkpt lat="44.97765" lon="4.14296">
        <ele>1216.1</ele>
        <time>2026-04-29T09:43:57Z</time>
      </trkpt>
      <trkpt lat="44.97766" lon="4.14301">
        <ele>1215.5</ele>
        <time>2026-04-29T09:44:02Z</time>
      </trkpt>
      <trkpt lat="44.97767" lon="4.14307">
        <ele>1214.8</ele>
        <time>2026-04-29T09:44:07Z</time>
      </trkpt>
      <trkpt lat="44.97767" lon="4.14307">
        <ele>1214.8</ele>
        <time>2026-04-29T09:44:07Z</time>
      </trkpt>
      <trkpt lat="44.97764" lon="4.14315">
        <ele>1213.3</ele>
        <time>2026-04-29T10:35:37Z</time>
      </trkpt>
      <trkpt lat="44.97764" lon="4.14315">
        <ele>1213.3</ele>
        <time>2026-04-29T10:35:43Z</time>
      </trkpt>
      <trkpt lat="44.97764" lon="4.14315">
        <ele>1213.3</ele>
        <time>2026-04-29T10:35:48Z</time>
      </trkpt>
      <trkpt lat="44.97764" lon="4.14315">
        <ele>1213.3</ele>
        <time>2026-04-29T10:35:53Z</time>
      </trkpt>
      <trkpt lat="44.97764" lon="4.14315">
        <ele>1213.3</ele>
        <time>2026-04-29T10:35:58Z</time>
      </trkpt>
      <trkpt lat="44.97764" lon="4.14315">
        <ele>1213.3</ele>
        <time>2026-04-29T10:36:03Z</time>
      </trkpt>
      <trkpt lat="44.97764" lon="4.14315">
        <ele>1213.3</ele>
        <time>2026-04-29T10:36:08Z</time>
      </trkpt>
      <trkpt lat="44.97761" lon="4.14307">
        <ele>1214.1</ele>
        <time>2026-04-29T10:36:13Z</time>
      </trkpt>
      <trkpt lat="44.97761" lon="4.14307">
        <ele>1214.1</ele>
        <time>2026-04-29T10:36:13Z</time>
      </trkpt>
      <trkpt lat="44.97759" lon="4.14305">
        <ele>1214.1</ele>
        <time>2026-04-29T10:36:54Z</time>
      </trkpt>
      <trkpt lat="44.97759" lon="4.14305">
        <ele>1214.1</ele>
        <time>2026-04-29T10:37:01Z</time>
      </trkpt>
      <trkpt lat="44.97759" lon="4.14305">
        <ele>1214.1</ele>
        <time>2026-04-29T10:37:06Z</time>
      </trkpt>
      <trkpt lat="44.97759" lon="4.14305">
        <ele>1214.1</ele>
        <time>2026-04-29T10:37:11Z</time>
      </trkpt>
      <trkpt lat="44.97759" lon="4.14305">
        <ele>1214.1</ele>
        <time>2026-04-29T10:37:16Z</time>
      </trkpt>
      <trkpt lat="44.97759" lon="4.14305">
        <ele>1214.1</ele>
        <time>2026-04-29T10:37:21Z</time>
      </trkpt>
      <trkpt lat="44.97759" lon="4.14305">
        <ele>1214.1</ele>
        <time>2026-04-29T10:37:26Z</time>
      </trkpt>
      <trkpt lat="44.97759" lon="4.14305">
        <ele>1214.1</ele>
        <time>2026-04-29T10:37:31Z</time>
      </trkpt>
      <trkpt lat="44.97759" lon="4.14305">
        <ele>1214.1</ele>
        <time>2026-04-29T10:37:36Z</time>
      </trkpt>
      <trkpt lat="44.97759" lon="4.14305">
        <ele>1214.1</ele>
        <time>2026-04-29T10:37:41Z</time>
      </trkpt>
      <trkpt lat="44.97759" lon="4.14305">
        <ele>1214.1</ele>
        <time>2026-04-29T10:37:46Z</time>
      </trkpt>
      <trkpt lat="44.97759" lon="4.14305">
        <ele>1214.1</ele>
        <time>2026-04-29T10:37:51Z</time>
      </trkpt>
      <trkpt lat="44.97759" lon="4.14305">
        <ele>1214.1</ele>
        <time>2026-04-29T10:37:56Z</time>
      </trkpt>
      <trkpt lat="44.97759" lon="4.14305">
        <ele>1214.1</ele>
        <time>2026-04-29T10:38:01Z</time>
      </trkpt>
      <trkpt lat="44.97763" lon="4.14307">
        <ele>1214.3</ele>
        <time>2026-04-29T10:38:06Z</time>
      </trkpt>
      <trkpt lat="44.97761" lon="4.14315">
        <ele>1212.9</ele>
        <time>2026-04-29T10:38:11Z</time>
      </trkpt>
      <trkpt lat="44.97762" lon="4.14323">
        <ele>1211.9</ele>
        <time>2026-04-29T10:38:16Z</time>
      </trkpt>
      <trkpt lat="44.97762" lon="4.14331">
        <ele>1210.8</ele>
        <time>2026-04-29T10:38:21Z</time>
      </trkpt>
      <trkpt lat="44.97762" lon="4.14338">
        <ele>1210</ele>
        <time>2026-04-29T10:38:26Z</time>
      </trkpt>
      <trkpt lat="44.97759" lon="4.14346">
        <ele>1208.8</ele>
        <time>2026-04-29T10:38:31Z</time>
      </trkpt>
      <trkpt lat="44.97755" lon="4.14353">
        <ele>1207.7</ele>
        <time>2026-04-29T10:38:36Z</time>
      </trkpt>
      <trkpt lat="44.97752" lon="4.14361">
        <ele>1206.6</ele>
        <time>2026-04-29T10:38:41Z</time>
      </trkpt>
      <trkpt lat="44.97748" lon="4.14368">
        <ele>1205.6</ele>
        <time>2026-04-29T10:38:46Z</time>
      </trkpt>
      <trkpt lat="44.97743" lon="4.14374">
        <ele>1204.8</ele>
        <time>2026-04-29T10:38:51Z</time>
      </trkpt>
      <trkpt lat="44.97739" lon="4.1438">
        <ele>1204.2</ele>
        <time>2026-04-29T10:38:56Z</time>
      </trkpt>
      <trkpt lat="44.97738" lon="4.14388">
        <ele>1203.4</ele>
        <time>2026-04-29T10:39:01Z</time>
      </trkpt>
      <trkpt lat="44.97734" lon="4.14394">
        <ele>1202.8</ele>
        <time>2026-04-29T10:39:06Z</time>
      </trkpt>
      <trkpt lat="44.97733" lon="4.14394">
        <ele>1202.8</ele>
        <time>2026-04-29T10:39:11Z</time>
      </trkpt>
      <trkpt lat="44.97733" lon="4.14394">
        <ele>1202.8</ele>
        <time>2026-04-29T10:39:16Z</time>
      </trkpt>
      <trkpt lat="44.97733" lon="4.14394">
        <ele>1202.8</ele>
        <time>2026-04-29T10:39:21Z</time>
      </trkpt>
      <trkpt lat="44.97733" lon="4.14394">
        <ele>1202.8</ele>
        <time>2026-04-29T10:39:26Z</time>
      </trkpt>
      <trkpt lat="44.97733" lon="4.14394">
        <ele>1202.8</ele>
        <time>2026-04-29T10:39:31Z</time>
      </trkpt>
      <trkpt lat="44.97733" lon="4.14394">
        <ele>1202.8</ele>
        <time>2026-04-29T10:39:36Z</time>
      </trkpt>
      <trkpt lat="44.97733" lon="4.14394">
        <ele>1202.8</ele>
        <time>2026-04-29T10:39:41Z</time>
      </trkpt>
      <trkpt lat="44.97733" lon="4.14394">
        <ele>1202.8</ele>
        <time>2026-04-29T10:39:46Z</time>
      </trkpt>
      <trkpt lat="44.97733" lon="4.14394">
        <ele>1202.8</ele>
        <time>2026-04-29T10:39:51Z</time>
      </trkpt>
      <trkpt lat="44.97733" lon="4.14394">
        <ele>1202.8</ele>
        <time>2026-04-29T10:39:56Z</time>
      </trkpt>
      <trkpt lat="44.97728" lon="4.14388">
        <ele>1203.1</ele>
        <time>2026-04-29T10:40:01Z</time>
      </trkpt>
      <trkpt lat="44.97722" lon="4.14389">
        <ele>1202.9</ele>
        <time>2026-04-29T10:40:06Z</time>
      </trkpt>
      <trkpt lat="44.97716" lon="4.14388">
        <ele>1202.8</ele>
        <time>2026-04-29T10:40:11Z</time>
      </trkpt>
      <trkpt lat="44.97709" lon="4.14383">
        <ele>1202.9</ele>
        <time>2026-04-29T10:40:16Z</time>
      </trkpt>
      <trkpt lat="44.97703" lon="4.14375">
        <ele>1203.3</ele>
        <time>2026-04-29T10:40:21Z</time>
      </trkpt>
      <trkpt lat="44.97699" lon="4.14369">
        <ele>1203.6</ele>
        <time>2026-04-29T10:40:26Z</time>
      </trkpt>
      <trkpt lat="44.97694" lon="4.14363">
        <ele>1203.7</ele>
        <time>2026-04-29T10:40:31Z</time>
      </trkpt>
      <trkpt lat="44.97689" lon="4.14358">
        <ele>1203.8</ele>
        <time>2026-04-29T10:40:36Z</time>
      </trkpt>
      <trkpt lat="44.97686" lon="4.14352">
        <ele>1204.1</ele>
        <time>2026-04-29T10:40:41Z</time>
      </trkpt>
      <trkpt lat="44.97682" lon="4.14345">
        <ele>1204.3</ele>
        <time>2026-04-29T10:40:46Z</time>
      </trkpt>
      <trkpt lat="44.97679" lon="4.14341">
        <ele>1204.3</ele>
        <time>2026-04-29T10:40:51Z</time>
      </trkpt>
      <trkpt lat="44.97673" lon="4.14337">
        <ele>1204.2</ele>
        <time>2026-04-29T10:40:56Z</time>
      </trkpt>
      <trkpt lat="44.97667" lon="4.14329">
        <ele>1204.4</ele>
        <time>2026-04-29T10:41:01Z</time>
      </trkpt>
      <trkpt lat="44.97661" lon="4.14319">
        <ele>1205.4</ele>
        <time>2026-04-29T10:41:06Z</time>
      </trkpt>
      <trkpt lat="44.97653" lon="4.14315">
        <ele>1205.7</ele>
        <time>2026-04-29T10:41:11Z</time>
      </trkpt>
      <trkpt lat="44.97644" lon="4.14311">
        <ele>1206</ele>
        <time>2026-04-29T10:41:16Z</time>
      </trkpt>
      <trkpt lat="44.97639" lon="4.14308">
        <ele>1206.2</ele>
        <time>2026-04-29T10:41:21Z</time>
      </trkpt>
      <trkpt lat="44.97639" lon="4.14304">
        <ele>1206.6</ele>
        <time>2026-04-29T10:41:26Z</time>
      </trkpt>
      <trkpt lat="44.9764" lon="4.14304">
        <ele>1206.6</ele>
        <time>2026-04-29T10:41:31Z</time>
      </trkpt>
      <trkpt lat="44.97638" lon="4.14304">
        <ele>1206.6</ele>
        <time>2026-04-29T10:41:36Z</time>
      </trkpt>
      <trkpt lat="44.97631" lon="4.14306">
        <ele>1206.3</ele>
        <time>2026-04-29T10:41:41Z</time>
      </trkpt>
      <trkpt lat="44.97626" lon="4.14307">
        <ele>1206.2</ele>
        <time>2026-04-29T10:41:46Z</time>
      </trkpt>
      <trkpt lat="44.97625" lon="4.14306">
        <ele>1206.3</ele>
        <time>2026-04-29T10:41:51Z</time>
      </trkpt>
      <trkpt lat="44.97625" lon="4.14307">
        <ele>1206.2</ele>
        <time>2026-04-29T10:41:56Z</time>
      </trkpt>
      <trkpt lat="44.97625" lon="4.14312">
        <ele>1205.8</ele>
        <time>2026-04-29T10:42:01Z</time>
      </trkpt>
      <trkpt lat="44.97625" lon="4.14323">
        <ele>1204.9</ele>
        <time>2026-04-29T10:42:06Z</time>
      </trkpt>
      <trkpt lat="44.97619" lon="4.1433">
        <ele>1204.3</ele>
        <time>2026-04-29T10:42:11Z</time>
      </trkpt>
      <trkpt lat="44.97614" lon="4.14337">
        <ele>1204</ele>
        <time>2026-04-29T10:42:16Z</time>
      </trkpt>
      <trkpt lat="44.97609" lon="4.14343">
        <ele>1203.9</ele>
        <time>2026-04-29T10:42:21Z</time>
      </trkpt>
      <trkpt lat="44.97602" lon="4.14349">
        <ele>1204</ele>
        <time>2026-04-29T10:42:26Z</time>
      </trkpt>
      <trkpt lat="44.97597" lon="4.14356">
        <ele>1204</ele>
        <time>2026-04-29T10:42:31Z</time>
      </trkpt>
      <trkpt lat="44.97592" lon="4.14364">
        <ele>1204.2</ele>
        <time>2026-04-29T10:42:36Z</time>
      </trkpt>
      <trkpt lat="44.97588" lon="4.14372">
        <ele>1204.3</ele>
        <time>2026-04-29T10:42:41Z</time>
      </trkpt>
      <trkpt lat="44.97584" lon="4.14379">
        <ele>1204.5</ele>
        <time>2026-04-29T10:42:46Z</time>
      </trkpt>
      <trkpt lat="44.97579" lon="4.14386">
        <ele>1204.7</ele>
        <time>2026-04-29T10:42:51Z</time>
      </trkpt>
      <trkpt lat="44.97574" lon="4.14393">
        <ele>1205</ele>
        <time>2026-04-29T10:42:56Z</time>
      </trkpt>
      <trkpt lat="44.97569" lon="4.14401">
        <ele>1205.2</ele>
        <time>2026-04-29T10:43:01Z</time>
      </trkpt>
      <trkpt lat="44.97565" lon="4.14407">
        <ele>1205.5</ele>
        <time>2026-04-29T10:43:06Z</time>
      </trkpt>
      <trkpt lat="44.9756" lon="4.14412">
        <ele>1205.7</ele>
        <time>2026-04-29T10:43:11Z</time>
      </trkpt>
      <trkpt lat="44.97555" lon="4.14418">
        <ele>1206.1</ele>
        <time>2026-04-29T10:43:16Z</time>
      </trkpt>
      <trkpt lat="44.9755" lon="4.14425">
        <ele>1206.6</ele>
        <time>2026-04-29T10:43:21Z</time>
      </trkpt>
      <trkpt lat="44.9755" lon="4.14434">
        <ele>1207</ele>
        <time>2026-04-29T10:43:26Z</time>
      </trkpt>
      <trkpt lat="44.97553" lon="4.14444">
        <ele>1207.4</ele>
        <time>2026-04-29T10:43:31Z</time>
      </trkpt>
      <trkpt lat="44.97554" lon="4.14453">
        <ele>1207.8</ele>
        <time>2026-04-29T10:43:36Z</time>
      </trkpt>
      <trkpt lat="44.97554" lon="4.14461">
        <ele>1208.2</ele>
        <time>2026-04-29T10:43:41Z</time>
      </trkpt>
      <trkpt lat="44.97557" lon="4.14466">
        <ele>1208.3</ele>
        <time>2026-04-29T10:43:46Z</time>
      </trkpt>
      <trkpt lat="44.97563" lon="4.14469">
        <ele>1208.2</ele>
        <time>2026-04-29T10:43:51Z</time>
      </trkpt>
      <trkpt lat="44.97567" lon="4.14471">
        <ele>1208.2</ele>
        <time>2026-04-29T10:43:56Z</time>
      </trkpt>
      <trkpt lat="44.9757" lon="4.14472">
        <ele>1208.1</ele>
        <time>2026-04-29T10:44:01Z</time>
      </trkpt>
      <trkpt lat="44.9757" lon="4.14472">
        <ele>1208.1</ele>
        <time>2026-04-29T10:44:06Z</time>
      </trkpt>
      <trkpt lat="44.9757" lon="4.14472">
        <ele>1208.1</ele>
        <time>2026-04-29T10:44:11Z</time>
      </trkpt>
      <trkpt lat="44.9757" lon="4.14472">
        <ele>1208.1</ele>
        <time>2026-04-29T10:44:16Z</time>
      </trkpt>
      <trkpt lat="44.9757" lon="4.14472">
        <ele>1208.1</ele>
        <time>2026-04-29T10:44:21Z</time>
      </trkpt>
      <trkpt lat="44.9757" lon="4.14472">
        <ele>1208.1</ele>
        <time>2026-04-29T10:44:26Z</time>
      </trkpt>
      <trkpt lat="44.9757" lon="4.14472">
        <ele>1208.1</ele>
        <time>2026-04-29T10:44:31Z</time>
      </trkpt>
      <trkpt lat="44.9757" lon="4.14472">
        <ele>1208.1</ele>
        <time>2026-04-29T10:44:36Z</time>
      </trkpt>
      <trkpt lat="44.97565" lon="4.14482">
        <ele>1208.8</ele>
        <time>2026-04-29T10:44:41Z</time>
      </trkpt>
      <trkpt lat="44.97563" lon="4.1449">
        <ele>1209.3</ele>
        <time>2026-04-29T10:44:46Z</time>
      </trkpt>
      <trkpt lat="44.97562" lon="4.14498">
        <ele>1209.7</ele>
        <time>2026-04-29T10:44:51Z</time>
      </trkpt>
      <trkpt lat="44.97562" lon="4.14507">
        <ele>1210.4</ele>
        <time>2026-04-29T10:44:56Z</time>
      </trkpt>
      <trkpt lat="44.97564" lon="4.14517">
        <ele>1211.3</ele>
        <time>2026-04-29T10:45:01Z</time>
      </trkpt>
      <trkpt lat="44.97567" lon="4.14525">
        <ele>1211.9</ele>
        <time>2026-04-29T10:45:06Z</time>
      </trkpt>
      <trkpt lat="44.97569" lon="4.14535">
        <ele>1212.8</ele>
        <time>2026-04-29T10:45:11Z</time>
      </trkpt>
      <trkpt lat="44.97569" lon="4.14543">
        <ele>1213.6</ele>
        <time>2026-04-29T10:45:16Z</time>
      </trkpt>
      <trkpt lat="44.97572" lon="4.1455">
        <ele>1214.1</ele>
        <time>2026-04-29T10:45:21Z</time>
      </trkpt>
      <trkpt lat="44.97571" lon="4.14557">
        <ele>1214.8</ele>
        <time>2026-04-29T10:45:26Z</time>
      </trkpt>
      <trkpt lat="44.97569" lon="4.14561">
        <ele>1215.2</ele>
        <time>2026-04-29T10:45:31Z</time>
      </trkpt>
      <trkpt lat="44.97568" lon="4.14564">
        <ele>1215.6</ele>
        <time>2026-04-29T10:45:36Z</time>
      </trkpt>
      <trkpt lat="44.97568" lon="4.14564">
        <ele>1215.6</ele>
        <time>2026-04-29T10:45:41Z</time>
      </trkpt>
      <trkpt lat="44.97567" lon="4.14565">
        <ele>1215.7</ele>
        <time>2026-04-29T10:45:46Z</time>
      </trkpt>
      <trkpt lat="44.97565" lon="4.14569">
        <ele>1216.1</ele>
        <time>2026-04-29T10:45:51Z</time>
      </trkpt>
      <trkpt lat="44.97563" lon="4.14571">
        <ele>1216.3</ele>
        <time>2026-04-29T10:45:56Z</time>
      </trkpt>
      <trkpt lat="44.97563" lon="4.14576">
        <ele>1216.8</ele>
        <time>2026-04-29T10:46:01Z</time>
      </trkpt>
      <trkpt lat="44.97563" lon="4.1458">
        <ele>1217.2</ele>
        <time>2026-04-29T10:46:06Z</time>
      </trkpt>
      <trkpt lat="44.97561" lon="4.14583">
        <ele>1217.5</ele>
        <time>2026-04-29T10:46:11Z</time>
      </trkpt>
      <trkpt lat="44.97559" lon="4.14586">
        <ele>1218</ele>
        <time>2026-04-29T10:46:16Z</time>
      </trkpt>
      <trkpt lat="44.97558" lon="4.14589">
        <ele>1218.4</ele>
        <time>2026-04-29T10:46:21Z</time>
      </trkpt>
      <trkpt lat="44.97556" lon="4.14592">
        <ele>1218.9</ele>
        <time>2026-04-29T10:46:26Z</time>
      </trkpt>
      <trkpt lat="44.97555" lon="4.14595">
        <ele>1219.4</ele>
        <time>2026-04-29T10:46:31Z</time>
      </trkpt>
      <trkpt lat="44.97556" lon="4.146">
        <ele>1220.1</ele>
        <time>2026-04-29T10:46:36Z</time>
      </trkpt>
      <trkpt lat="44.97556" lon="4.14604">
        <ele>1220.6</ele>
        <time>2026-04-29T10:46:41Z</time>
      </trkpt>
      <trkpt lat="44.97554" lon="4.14607">
        <ele>1221.1</ele>
        <time>2026-04-29T10:46:46Z</time>
      </trkpt>
      <trkpt lat="44.97554" lon="4.14608">
        <ele>1221.2</ele>
        <time>2026-04-29T10:46:51Z</time>
      </trkpt>
      <trkpt lat="44.97554" lon="4.14608">
        <ele>1221.2</ele>
        <time>2026-04-29T10:46:56Z</time>
      </trkpt>
      <trkpt lat="44.97554" lon="4.14608">
        <ele>1221.2</ele>
        <time>2026-04-29T10:47:01Z</time>
      </trkpt>
      <trkpt lat="44.97554" lon="4.14608">
        <ele>1221.2</ele>
        <time>2026-04-29T10:47:06Z</time>
      </trkpt>
      <trkpt lat="44.97547" lon="4.14618">
        <ele>1222.7</ele>
        <time>2026-04-29T10:47:11Z</time>
      </trkpt>
      <trkpt lat="44.97546" lon="4.14621">
        <ele>1223.2</ele>
        <time>2026-04-29T10:47:16Z</time>
      </trkpt>
      <trkpt lat="44.97546" lon="4.14624">
        <ele>1223.6</ele>
        <time>2026-04-29T10:47:21Z</time>
      </trkpt>
      <trkpt lat="44.97546" lon="4.14627">
        <ele>1224</ele>
        <time>2026-04-29T10:47:26Z</time>
      </trkpt>
      <trkpt lat="44.97546" lon="4.14631">
        <ele>1224.6</ele>
        <time>2026-04-29T10:47:31Z</time>
      </trkpt>
      <trkpt lat="44.97547" lon="4.14635">
        <ele>1225.1</ele>
        <time>2026-04-29T10:47:36Z</time>
      </trkpt>
      <trkpt lat="44.97548" lon="4.14638">
        <ele>1225.5</ele>
        <time>2026-04-29T10:47:41Z</time>
      </trkpt>
      <trkpt lat="44.97548" lon="4.14642">
        <ele>1226.1</ele>
        <time>2026-04-29T10:47:46Z</time>
      </trkpt>
      <trkpt lat="44.97547" lon="4.14645">
        <ele>1226.5</ele>
        <time>2026-04-29T10:47:51Z</time>
      </trkpt>
      <trkpt lat="44.97548" lon="4.14648">
        <ele>1226.9</ele>
        <time>2026-04-29T10:47:56Z</time>
      </trkpt>
      <trkpt lat="44.97549" lon="4.14652">
        <ele>1227.5</ele>
        <time>2026-04-29T10:48:01Z</time>
      </trkpt>
      <trkpt lat="44.9755" lon="4.14655">
        <ele>1227.9</ele>
        <time>2026-04-29T10:48:06Z</time>
      </trkpt>
      <trkpt lat="44.97551" lon="4.1466">
        <ele>1228.7</ele>
        <time>2026-04-29T10:48:11Z</time>
      </trkpt>
      <trkpt lat="44.97551" lon="4.14664">
        <ele>1229.2</ele>
        <time>2026-04-29T10:48:16Z</time>
      </trkpt>
      <trkpt lat="44.97551" lon="4.14669">
        <ele>1229.8</ele>
        <time>2026-04-29T10:48:21Z</time>
      </trkpt>
      <trkpt lat="44.97551" lon="4.14673">
        <ele>1230.2</ele>
        <time>2026-04-29T10:48:26Z</time>
      </trkpt>
      <trkpt lat="44.97552" lon="4.14678">
        <ele>1230.7</ele>
        <time>2026-04-29T10:48:31Z</time>
      </trkpt>
      <trkpt lat="44.97552" lon="4.14683">
        <ele>1231.2</ele>
        <time>2026-04-29T10:48:36Z</time>
      </trkpt>
      <trkpt lat="44.97553" lon="4.14689">
        <ele>1231.8</ele>
        <time>2026-04-29T10:48:41Z</time>
      </trkpt>
      <trkpt lat="44.97553" lon="4.14694">
        <ele>1232.2</ele>
        <time>2026-04-29T10:48:46Z</time>
      </trkpt>
      <trkpt lat="44.97554" lon="4.147">
        <ele>1232.8</ele>
        <time>2026-04-29T10:48:51Z</time>
      </trkpt>
      <trkpt lat="44.97554" lon="4.14707">
        <ele>1233.5</ele>
        <time>2026-04-29T10:48:56Z</time>
      </trkpt>
      <trkpt lat="44.97555" lon="4.14713">
        <ele>1234.1</ele>
        <time>2026-04-29T10:49:01Z</time>
      </trkpt>
      <trkpt lat="44.97555" lon="4.14718">
        <ele>1234.6</ele>
        <time>2026-04-29T10:49:06Z</time>
      </trkpt>
      <trkpt lat="44.97556" lon="4.14725">
        <ele>1235.3</ele>
        <time>2026-04-29T10:49:11Z</time>
      </trkpt>
      <trkpt lat="44.97555" lon="4.14731">
        <ele>1235.8</ele>
        <time>2026-04-29T10:49:16Z</time>
      </trkpt>
      <trkpt lat="44.97555" lon="4.14738">
        <ele>1236.5</ele>
        <time>2026-04-29T10:49:21Z</time>
      </trkpt>
      <trkpt lat="44.97555" lon="4.14746">
        <ele>1237.3</ele>
        <time>2026-04-29T10:49:26Z</time>
      </trkpt>
      <trkpt lat="44.97554" lon="4.14753">
        <ele>1237.7</ele>
        <time>2026-04-29T10:49:31Z</time>
      </trkpt>
      <trkpt lat="44.97554" lon="4.14759">
        <ele>1238</ele>
        <time>2026-04-29T10:49:36Z</time>
      </trkpt>
      <trkpt lat="44.97553" lon="4.14767">
        <ele>1238.3</ele>
        <time>2026-04-29T10:49:41Z</time>
      </trkpt>
      <trkpt lat="44.97552" lon="4.14774">
        <ele>1238.6</ele>
        <time>2026-04-29T10:49:46Z</time>
      </trkpt>
      <trkpt lat="44.97551" lon="4.14781">
        <ele>1238.9</ele>
        <time>2026-04-29T10:49:51Z</time>
      </trkpt>
      <trkpt lat="44.97549" lon="4.14788">
        <ele>1239.1</ele>
        <time>2026-04-29T10:49:56Z</time>
      </trkpt>
      <trkpt lat="44.97548" lon="4.14796">
        <ele>1239.4</ele>
        <time>2026-04-29T10:50:01Z</time>
      </trkpt>
      <trkpt lat="44.97547" lon="4.14803">
        <ele>1239.7</ele>
        <time>2026-04-29T10:50:06Z</time>
      </trkpt>
      <trkpt lat="44.97546" lon="4.14809">
        <ele>1240</ele>
        <time>2026-04-29T10:50:11Z</time>
      </trkpt>
      <trkpt lat="44.97545" lon="4.14816">
        <ele>1240.3</ele>
        <time>2026-04-29T10:50:16Z</time>
      </trkpt>
      <trkpt lat="44.97544" lon="4.14823">
        <ele>1240.6</ele>
        <time>2026-04-29T10:50:21Z</time>
      </trkpt>
      <trkpt lat="44.97542" lon="4.14831">
        <ele>1240.9</ele>
        <time>2026-04-29T10:50:26Z</time>
      </trkpt>
      <trkpt lat="44.9754" lon="4.14838">
        <ele>1241.1</ele>
        <time>2026-04-29T10:50:31Z</time>
      </trkpt>
      <trkpt lat="44.97539" lon="4.14846">
        <ele>1241.3</ele>
        <time>2026-04-29T10:50:36Z</time>
      </trkpt>
      <trkpt lat="44.97537" lon="4.14851">
        <ele>1241.4</ele>
        <time>2026-04-29T10:50:41Z</time>
      </trkpt>
      <trkpt lat="44.97537" lon="4.14852">
        <ele>1241.5</ele>
        <time>2026-04-29T10:50:46Z</time>
      </trkpt>
      <trkpt lat="44.97537" lon="4.14856">
        <ele>1241.6</ele>
        <time>2026-04-29T10:50:51Z</time>
      </trkpt>
      <trkpt lat="44.97535" lon="4.14865">
        <ele>1241.8</ele>
        <time>2026-04-29T10:50:56Z</time>
      </trkpt>
      <trkpt lat="44.97532" lon="4.14873">
        <ele>1242</ele>
        <time>2026-04-29T10:51:01Z</time>
      </trkpt>
      <trkpt lat="44.97531" lon="4.1488">
        <ele>1242.2</ele>
        <time>2026-04-29T10:51:06Z</time>
      </trkpt>
      <trkpt lat="44.9753" lon="4.14888">
        <ele>1242.5</ele>
        <time>2026-04-29T10:51:11Z</time>
      </trkpt>
      <trkpt lat="44.97527" lon="4.14896">
        <ele>1242.7</ele>
        <time>2026-04-29T10:51:16Z</time>
      </trkpt>
      <trkpt lat="44.97526" lon="4.14905">
        <ele>1242.9</ele>
        <time>2026-04-29T10:51:21Z</time>
      </trkpt>
      <trkpt lat="44.97526" lon="4.14914">
        <ele>1243.2</ele>
        <time>2026-04-29T10:51:26Z</time>
      </trkpt>
      <trkpt lat="44.97525" lon="4.14921">
        <ele>1243.5</ele>
        <time>2026-04-29T10:51:31Z</time>
      </trkpt>
      <trkpt lat="44.97524" lon="4.14929">
        <ele>1243.8</ele>
        <time>2026-04-29T10:51:36Z</time>
      </trkpt>
      <trkpt lat="44.97523" lon="4.14936">
        <ele>1244.1</ele>
        <time>2026-04-29T10:51:41Z</time>
      </trkpt>
      <trkpt lat="44.97523" lon="4.14944">
        <ele>1244.4</ele>
        <time>2026-04-29T10:51:46Z</time>
      </trkpt>
      <trkpt lat="44.97521" lon="4.14952">
        <ele>1244.7</ele>
        <time>2026-04-29T10:51:51Z</time>
      </trkpt>
      <trkpt lat="44.97519" lon="4.14962">
        <ele>1245.2</ele>
        <time>2026-04-29T10:51:56Z</time>
      </trkpt>
      <trkpt lat="44.97517" lon="4.14972">
        <ele>1245.6</ele>
        <time>2026-04-29T10:52:01Z</time>
      </trkpt>
      <trkpt lat="44.97516" lon="4.1498">
        <ele>1245.9</ele>
        <time>2026-04-29T10:52:06Z</time>
      </trkpt>
      <trkpt lat="44.97514" lon="4.14989">
        <ele>1246.3</ele>
        <time>2026-04-29T10:52:11Z</time>
      </trkpt>
      <trkpt lat="44.97512" lon="4.14998">
        <ele>1246.8</ele>
        <time>2026-04-29T10:52:16Z</time>
      </trkpt>
      <trkpt lat="44.9751" lon="4.15006">
        <ele>1247</ele>
        <time>2026-04-29T10:52:21Z</time>
      </trkpt>
      <trkpt lat="44.97508" lon="4.15014">
        <ele>1247.2</ele>
        <time>2026-04-29T10:52:26Z</time>
      </trkpt>
      <trkpt lat="44.97507" lon="4.15023">
        <ele>1247.5</ele>
        <time>2026-04-29T10:52:31Z</time>
      </trkpt>
      <trkpt lat="44.97506" lon="4.15031">
        <ele>1247.7</ele>
        <time>2026-04-29T10:52:36Z</time>
      </trkpt>
      <trkpt lat="44.97506" lon="4.15039">
        <ele>1247.9</ele>
        <time>2026-04-29T10:52:41Z</time>
      </trkpt>
      <trkpt lat="44.97504" lon="4.15048">
        <ele>1248.1</ele>
        <time>2026-04-29T10:52:46Z</time>
      </trkpt>
      <trkpt lat="44.97503" lon="4.15057">
        <ele>1248.3</ele>
        <time>2026-04-29T10:52:51Z</time>
      </trkpt>
      <trkpt lat="44.975" lon="4.15067">
        <ele>1248.6</ele>
        <time>2026-04-29T10:52:56Z</time>
      </trkpt>
      <trkpt lat="44.97498" lon="4.15076">
        <ele>1248.8</ele>
        <time>2026-04-29T10:53:01Z</time>
      </trkpt>
      <trkpt lat="44.97497" lon="4.15085">
        <ele>1248.9</ele>
        <time>2026-04-29T10:53:06Z</time>
      </trkpt>
      <trkpt lat="44.97494" lon="4.15094">
        <ele>1248.8</ele>
        <time>2026-04-29T10:53:11Z</time>
      </trkpt>
      <trkpt lat="44.97492" lon="4.15102">
        <ele>1248.7</ele>
        <time>2026-04-29T10:53:16Z</time>
      </trkpt>
      <trkpt lat="44.97489" lon="4.15111">
        <ele>1248.5</ele>
        <time>2026-04-29T10:53:21Z</time>
      </trkpt>
      <trkpt lat="44.97486" lon="4.15118">
        <ele>1248.3</ele>
        <time>2026-04-29T10:53:26Z</time>
      </trkpt>
      <trkpt lat="44.97481" lon="4.15127">
        <ele>1248.1</ele>
        <time>2026-04-29T10:53:31Z</time>
      </trkpt>
      <trkpt lat="44.97478" lon="4.15135">
        <ele>1248</ele>
        <time>2026-04-29T10:53:36Z</time>
      </trkpt>
      <trkpt lat="44.97478" lon="4.15144">
        <ele>1247.8</ele>
        <time>2026-04-29T10:53:41Z</time>
      </trkpt>
      <trkpt lat="44.97476" lon="4.15154">
        <ele>1247.6</ele>
        <time>2026-04-29T10:53:46Z</time>
      </trkpt>
      <trkpt lat="44.97475" lon="4.15162">
        <ele>1247.5</ele>
        <time>2026-04-29T10:53:51Z</time>
      </trkpt>
      <trkpt lat="44.97474" lon="4.15172">
        <ele>1247.4</ele>
        <time>2026-04-29T10:53:56Z</time>
      </trkpt>
      <trkpt lat="44.97473" lon="4.1518">
        <ele>1247.5</ele>
        <time>2026-04-29T10:54:01Z</time>
      </trkpt>
      <trkpt lat="44.97472" lon="4.15189">
        <ele>1247.5</ele>
        <time>2026-04-29T10:54:06Z</time>
      </trkpt>
      <trkpt lat="44.97471" lon="4.15198">
        <ele>1247.5</ele>
        <time>2026-04-29T10:54:11Z</time>
      </trkpt>
      <trkpt lat="44.9747" lon="4.15208">
        <ele>1247.6</ele>
        <time>2026-04-29T10:54:16Z</time>
      </trkpt>
      <trkpt lat="44.97469" lon="4.15216">
        <ele>1247.6</ele>
        <time>2026-04-29T10:54:21Z</time>
      </trkpt>
      <trkpt lat="44.97468" lon="4.15225">
        <ele>1247.7</ele>
        <time>2026-04-29T10:54:26Z</time>
      </trkpt>
      <trkpt lat="44.97467" lon="4.15235">
        <ele>1247.7</ele>
        <time>2026-04-29T10:54:31Z</time>
      </trkpt>
      <trkpt lat="44.97466" lon="4.15244">
        <ele>1247.7</ele>
        <time>2026-04-29T10:54:36Z</time>
      </trkpt>
      <trkpt lat="44.97465" lon="4.15254">
        <ele>1247.8</ele>
        <time>2026-04-29T10:54:41Z</time>
      </trkpt>
      <trkpt lat="44.97464" lon="4.15263">
        <ele>1247.9</ele>
        <time>2026-04-29T10:54:46Z</time>
      </trkpt>
      <trkpt lat="44.97463" lon="4.15272">
        <ele>1247.9</ele>
        <time>2026-04-29T10:54:51Z</time>
      </trkpt>
      <trkpt lat="44.97462" lon="4.15279">
        <ele>1248</ele>
        <time>2026-04-29T10:54:56Z</time>
      </trkpt>
      <trkpt lat="44.97462" lon="4.15288">
        <ele>1248.1</ele>
        <time>2026-04-29T10:55:01Z</time>
      </trkpt>
      <trkpt lat="44.97461" lon="4.15298">
        <ele>1248.2</ele>
        <time>2026-04-29T10:55:06Z</time>
      </trkpt>
      <trkpt lat="44.97459" lon="4.15306">
        <ele>1248.2</ele>
        <time>2026-04-29T10:55:11Z</time>
      </trkpt>
      <trkpt lat="44.97458" lon="4.15313">
        <ele>1248.2</ele>
        <time>2026-04-29T10:55:16Z</time>
      </trkpt>
      <trkpt lat="44.97458" lon="4.15313">
        <ele>1248.2</ele>
        <time>2026-04-29T10:55:21Z</time>
      </trkpt>
      <trkpt lat="44.97458" lon="4.15313">
        <ele>1248.2</ele>
        <time>2026-04-29T10:55:26Z</time>
      </trkpt>
      <trkpt lat="44.97458" lon="4.15313">
        <ele>1248.2</ele>
        <time>2026-04-29T10:55:31Z</time>
      </trkpt>
      <trkpt lat="44.97458" lon="4.15313">
        <ele>1248.2</ele>
        <time>2026-04-29T10:55:36Z</time>
      </trkpt>
      <trkpt lat="44.97459" lon="4.1532">
        <ele>1248.4</ele>
        <time>2026-04-29T10:55:41Z</time>
      </trkpt>
      <trkpt lat="44.97457" lon="4.15328">
        <ele>1248.4</ele>
        <time>2026-04-29T10:55:46Z</time>
      </trkpt>
      <trkpt lat="44.97456" lon="4.15337">
        <ele>1248.4</ele>
        <time>2026-04-29T10:55:51Z</time>
      </trkpt>
      <trkpt lat="44.97456" lon="4.15345">
        <ele>1248.3</ele>
        <time>2026-04-29T10:55:56Z</time>
      </trkpt>
      <trkpt lat="44.97456" lon="4.15354">
        <ele>1248.3</ele>
        <time>2026-04-29T10:56:01Z</time>
      </trkpt>
      <trkpt lat="44.97455" lon="4.15364">
        <ele>1248.2</ele>
        <time>2026-04-29T10:56:06Z</time>
      </trkpt>
      <trkpt lat="44.97455" lon="4.15371">
        <ele>1248.2</ele>
        <time>2026-04-29T10:56:11Z</time>
      </trkpt>
      <trkpt lat="44.97456" lon="4.15373">
        <ele>1248.2</ele>
        <time>2026-04-29T10:56:16Z</time>
      </trkpt>
      <trkpt lat="44.97456" lon="4.15382">
        <ele>1248.1</ele>
        <time>2026-04-29T10:56:21Z</time>
      </trkpt>
      <trkpt lat="44.97455" lon="4.15392">
        <ele>1248.1</ele>
        <time>2026-04-29T10:56:26Z</time>
      </trkpt>
      <trkpt lat="44.97454" lon="4.15402">
        <ele>1248</ele>
        <time>2026-04-29T10:56:31Z</time>
      </trkpt>
      <trkpt lat="44.97452" lon="4.1541">
        <ele>1247.9</ele>
        <time>2026-04-29T10:56:36Z</time>
      </trkpt>
      <trkpt lat="44.97451" lon="4.15416">
        <ele>1247.8</ele>
        <time>2026-04-29T10:56:41Z</time>
      </trkpt>
      <trkpt lat="44.9745" lon="4.15424">
        <ele>1247.7</ele>
        <time>2026-04-29T10:56:46Z</time>
      </trkpt>
      <trkpt lat="44.97448" lon="4.15432">
        <ele>1247.6</ele>
        <time>2026-04-29T10:56:51Z</time>
      </trkpt>
      <trkpt lat="44.9745" lon="4.15437">
        <ele>1247.6</ele>
        <time>2026-04-29T10:56:56Z</time>
      </trkpt>
      <trkpt lat="44.97449" lon="4.15446">
        <ele>1247.4</ele>
        <time>2026-04-29T10:57:01Z</time>
      </trkpt>
      <trkpt lat="44.97448" lon="4.15452">
        <ele>1247.3</ele>
        <time>2026-04-29T10:57:06Z</time>
      </trkpt>
      <trkpt lat="44.97448" lon="4.15458">
        <ele>1247.3</ele>
        <time>2026-04-29T10:57:11Z</time>
      </trkpt>
      <trkpt lat="44.97449" lon="4.15464">
        <ele>1247.2</ele>
        <time>2026-04-29T10:57:16Z</time>
      </trkpt>
      <trkpt lat="44.9745" lon="4.15469">
        <ele>1247.2</ele>
        <time>2026-04-29T10:57:21Z</time>
      </trkpt>
      <trkpt lat="44.97451" lon="4.15473">
        <ele>1247.1</ele>
        <time>2026-04-29T10:57:26Z</time>
      </trkpt>
      <trkpt lat="44.97451" lon="4.15477">
        <ele>1247.1</ele>
        <time>2026-04-29T10:57:31Z</time>
      </trkpt>
      <trkpt lat="44.97451" lon="4.15477">
        <ele>1247.1</ele>
        <time>2026-04-29T10:57:36Z</time>
      </trkpt>
      <trkpt lat="44.97451" lon="4.15477">
        <ele>1247.1</ele>
        <time>2026-04-29T10:57:41Z</time>
      </trkpt>
      <trkpt lat="44.97451" lon="4.15477">
        <ele>1247.1</ele>
        <time>2026-04-29T10:57:46Z</time>
      </trkpt>
      <trkpt lat="44.97451" lon="4.15477">
        <ele>1247.1</ele>
        <time>2026-04-29T10:57:51Z</time>
      </trkpt>
      <trkpt lat="44.97451" lon="4.15477">
        <ele>1247.1</ele>
        <time>2026-04-29T10:57:56Z</time>
      </trkpt>
      <trkpt lat="44.97451" lon="4.15477">
        <ele>1247.1</ele>
        <time>2026-04-29T10:58:01Z</time>
      </trkpt>
      <trkpt lat="44.97451" lon="4.15477">
        <ele>1247.1</ele>
        <time>2026-04-29T10:58:06Z</time>
      </trkpt>
      <trkpt lat="44.97451" lon="4.15477">
        <ele>1247.1</ele>
        <time>2026-04-29T10:58:11Z</time>
      </trkpt>
      <trkpt lat="44.97451" lon="4.15477">
        <ele>1247.1</ele>
        <time>2026-04-29T10:58:16Z</time>
      </trkpt>
      <trkpt lat="44.97451" lon="4.15477">
        <ele>1247.1</ele>
        <time>2026-04-29T10:58:21Z</time>
      </trkpt>
      <trkpt lat="44.97451" lon="4.15477">
        <ele>1247.1</ele>
        <time>2026-04-29T10:58:26Z</time>
      </trkpt>
      <trkpt lat="44.97451" lon="4.15477">
        <ele>1247.1</ele>
        <time>2026-04-29T10:58:31Z</time>
      </trkpt>
      <trkpt lat="44.97451" lon="4.15477">
        <ele>1247.1</ele>
        <time>2026-04-29T10:58:36Z</time>
      </trkpt>
      <trkpt lat="44.97451" lon="4.15477">
        <ele>1247.1</ele>
        <time>2026-04-29T10:58:41Z</time>
      </trkpt>
      <trkpt lat="44.97451" lon="4.15477">
        <ele>1247.1</ele>
        <time>2026-04-29T10:58:46Z</time>
      </trkpt>
      <trkpt lat="44.97451" lon="4.15477">
        <ele>1247.1</ele>
        <time>2026-04-29T10:58:51Z</time>
      </trkpt>
      <trkpt lat="44.97451" lon="4.15477">
        <ele>1247.1</ele>
        <time>2026-04-29T10:58:56Z</time>
      </trkpt>
      <trkpt lat="44.97451" lon="4.15477">
        <ele>1247.1</ele>
        <time>2026-04-29T10:59:01Z</time>
      </trkpt>
      <trkpt lat="44.97451" lon="4.15477">
        <ele>1247.1</ele>
        <time>2026-04-29T10:59:06Z</time>
      </trkpt>
      <trkpt lat="44.97451" lon="4.15477">
        <ele>1247.1</ele>
        <time>2026-04-29T10:59:11Z</time>
      </trkpt>
      <trkpt lat="44.97451" lon="4.15477">
        <ele>1247.1</ele>
        <time>2026-04-29T10:59:16Z</time>
      </trkpt>
      <trkpt lat="44.97451" lon="4.15477">
        <ele>1247.1</ele>
        <time>2026-04-29T10:59:21Z</time>
      </trkpt>
      <trkpt lat="44.97451" lon="4.15477">
        <ele>1247.1</ele>
        <time>2026-04-29T10:59:26Z</time>
      </trkpt>
      <trkpt lat="44.97451" lon="4.15477">
        <ele>1247.1</ele>
        <time>2026-04-29T10:59:31Z</time>
      </trkpt>
      <trkpt lat="44.97451" lon="4.15477">
        <ele>1247.1</ele>
        <time>2026-04-29T10:59:36Z</time>
      </trkpt>
      <trkpt lat="44.97451" lon="4.15477">
        <ele>1247.1</ele>
        <time>2026-04-29T10:59:41Z</time>
      </trkpt>
      <trkpt lat="44.97451" lon="4.15477">
        <ele>1247.1</ele>
        <time>2026-04-29T10:59:46Z</time>
      </trkpt>
      <trkpt lat="44.97452" lon="4.15482">
        <ele>1247.1</ele>
        <time>2026-04-29T10:59:51Z</time>
      </trkpt>
      <trkpt lat="44.97452" lon="4.15492">
        <ele>1246.9</ele>
        <time>2026-04-29T10:59:56Z</time>
      </trkpt>
      <trkpt lat="44.97451" lon="4.155">
        <ele>1246.8</ele>
        <time>2026-04-29T11:00:01Z</time>
      </trkpt>
      <trkpt lat="44.97451" lon="4.15509">
        <ele>1246.8</ele>
        <time>2026-04-29T11:00:06Z</time>
      </trkpt>
      <trkpt lat="44.9745" lon="4.15518">
        <ele>1246.8</ele>
        <time>2026-04-29T11:00:11Z</time>
      </trkpt>
      <trkpt lat="44.9745" lon="4.15528">
        <ele>1246.7</ele>
        <time>2026-04-29T11:00:16Z</time>
      </trkpt>
      <trkpt lat="44.97451" lon="4.15538">
        <ele>1246.7</ele>
        <time>2026-04-29T11:00:21Z</time>
      </trkpt>
      <trkpt lat="44.97453" lon="4.15544">
        <ele>1246.8</ele>
        <time>2026-04-29T11:00:26Z</time>
      </trkpt>
      <trkpt lat="44.97456" lon="4.15553">
        <ele>1246.9</ele>
        <time>2026-04-29T11:00:31Z</time>
      </trkpt>
      <trkpt lat="44.97459" lon="4.1556">
        <ele>1247</ele>
        <time>2026-04-29T11:00:36Z</time>
      </trkpt>
      <trkpt lat="44.97464" lon="4.15565">
        <ele>1247.2</ele>
        <time>2026-04-29T11:00:41Z</time>
      </trkpt>
      <trkpt lat="44.9747" lon="4.15568">
        <ele>1247.5</ele>
        <time>2026-04-29T11:00:46Z</time>
      </trkpt>
      <trkpt lat="44.97475" lon="4.15574">
        <ele>1247.8</ele>
        <time>2026-04-29T11:00:51Z</time>
      </trkpt>
      <trkpt lat="44.97482" lon="4.15578">
        <ele>1248.1</ele>
        <time>2026-04-29T11:00:56Z</time>
      </trkpt>
      <trkpt lat="44.97487" lon="4.15583">
        <ele>1248.4</ele>
        <time>2026-04-29T11:01:01Z</time>
      </trkpt>
      <trkpt lat="44.97494" lon="4.15587">
        <ele>1248.8</ele>
        <time>2026-04-29T11:01:06Z</time>
      </trkpt>
      <trkpt lat="44.975" lon="4.15592">
        <ele>1249.2</ele>
        <time>2026-04-29T11:01:11Z</time>
      </trkpt>
      <trkpt lat="44.97505" lon="4.15599">
        <ele>1249.6</ele>
        <time>2026-04-29T11:01:16Z</time>
      </trkpt>
      <trkpt lat="44.97507" lon="4.15607">
        <ele>1249.8</ele>
        <time>2026-04-29T11:01:21Z</time>
      </trkpt>
      <trkpt lat="44.97508" lon="4.15615">
        <ele>1250.1</ele>
        <time>2026-04-29T11:01:26Z</time>
      </trkpt>
      <trkpt lat="44.97508" lon="4.15623">
        <ele>1250.3</ele>
        <time>2026-04-29T11:01:31Z</time>
      </trkpt>
      <trkpt lat="44.97507" lon="4.1563">
        <ele>1250.4</ele>
        <time>2026-04-29T11:01:36Z</time>
      </trkpt>
      <trkpt lat="44.97509" lon="4.15638">
        <ele>1250.7</ele>
        <time>2026-04-29T11:01:41Z</time>
      </trkpt>
      <trkpt lat="44.97509" lon="4.15647">
        <ele>1250.9</ele>
        <time>2026-04-29T11:01:46Z</time>
      </trkpt>
      <trkpt lat="44.97507" lon="4.15657">
        <ele>1251.1</ele>
        <time>2026-04-29T11:01:51Z</time>
      </trkpt>
      <trkpt lat="44.97508" lon="4.15666">
        <ele>1251.4</ele>
        <time>2026-04-29T11:01:56Z</time>
      </trkpt>
      <trkpt lat="44.97509" lon="4.15673">
        <ele>1251.6</ele>
        <time>2026-04-29T11:02:01Z</time>
      </trkpt>
      <trkpt lat="44.97509" lon="4.15681">
        <ele>1251.8</ele>
        <time>2026-04-29T11:02:06Z</time>
      </trkpt>
      <trkpt lat="44.9751" lon="4.15688">
        <ele>1252</ele>
        <time>2026-04-29T11:02:11Z</time>
      </trkpt>
      <trkpt lat="44.9751" lon="4.15697">
        <ele>1252.3</ele>
        <time>2026-04-29T11:02:16Z</time>
      </trkpt>
      <trkpt lat="44.97509" lon="4.15706">
        <ele>1252.4</ele>
        <time>2026-04-29T11:02:21Z</time>
      </trkpt>
      <trkpt lat="44.9751" lon="4.15715">
        <ele>1252.7</ele>
        <time>2026-04-29T11:02:26Z</time>
      </trkpt>
      <trkpt lat="44.97511" lon="4.15724">
        <ele>1253</ele>
        <time>2026-04-29T11:02:31Z</time>
      </trkpt>
      <trkpt lat="44.97511" lon="4.15732">
        <ele>1253.2</ele>
        <time>2026-04-29T11:02:36Z</time>
      </trkpt>
      <trkpt lat="44.97513" lon="4.15741">
        <ele>1253.5</ele>
        <time>2026-04-29T11:02:41Z</time>
      </trkpt>
      <trkpt lat="44.97517" lon="4.15747">
        <ele>1253.9</ele>
        <time>2026-04-29T11:02:46Z</time>
      </trkpt>
      <trkpt lat="44.97522" lon="4.15754">
        <ele>1254.5</ele>
        <time>2026-04-29T11:02:51Z</time>
      </trkpt>
      <trkpt lat="44.97528" lon="4.15758">
        <ele>1255</ele>
        <time>2026-04-29T11:02:56Z</time>
      </trkpt>
      <trkpt lat="44.9753" lon="4.15763">
        <ele>1255.4</ele>
        <time>2026-04-29T11:03:01Z</time>
      </trkpt>
      <trkpt lat="44.97532" lon="4.15768">
        <ele>1255.7</ele>
        <time>2026-04-29T11:03:06Z</time>
      </trkpt>
      <trkpt lat="44.97532" lon="4.15774">
        <ele>1256</ele>
        <time>2026-04-29T11:03:11Z</time>
      </trkpt>
      <trkpt lat="44.97532" lon="4.15781">
        <ele>1256.3</ele>
        <time>2026-04-29T11:03:16Z</time>
      </trkpt>
      <trkpt lat="44.97534" lon="4.15788">
        <ele>1256.7</ele>
        <time>2026-04-29T11:03:21Z</time>
      </trkpt>
      <trkpt lat="44.97534" lon="4.15796">
        <ele>1257</ele>
        <time>2026-04-29T11:03:26Z</time>
      </trkpt>
      <trkpt lat="44.97534" lon="4.15803">
        <ele>1257.3</ele>
        <time>2026-04-29T11:03:31Z</time>
      </trkpt>
      <trkpt lat="44.97534" lon="4.15811">
        <ele>1257.7</ele>
        <time>2026-04-29T11:03:36Z</time>
      </trkpt>
      <trkpt lat="44.97535" lon="4.15819">
        <ele>1258.1</ele>
        <time>2026-04-29T11:03:41Z</time>
      </trkpt>
      <trkpt lat="44.97535" lon="4.15827">
        <ele>1258.4</ele>
        <time>2026-04-29T11:03:46Z</time>
      </trkpt>
      <trkpt lat="44.97535" lon="4.15836">
        <ele>1258.8</ele>
        <time>2026-04-29T11:03:51Z</time>
      </trkpt>
      <trkpt lat="44.97536" lon="4.15844">
        <ele>1259.4</ele>
        <time>2026-04-29T11:03:56Z</time>
      </trkpt>
      <trkpt lat="44.97536" lon="4.15851">
        <ele>1259.8</ele>
        <time>2026-04-29T11:04:01Z</time>
      </trkpt>
      <trkpt lat="44.97535" lon="4.15859">
        <ele>1260.2</ele>
        <time>2026-04-29T11:04:06Z</time>
      </trkpt>
      <trkpt lat="44.97535" lon="4.15868">
        <ele>1260.8</ele>
        <time>2026-04-29T11:04:11Z</time>
      </trkpt>
      <trkpt lat="44.97535" lon="4.15876">
        <ele>1261.2</ele>
        <time>2026-04-29T11:04:16Z</time>
      </trkpt>
      <trkpt lat="44.97535" lon="4.15885">
        <ele>1261.8</ele>
        <time>2026-04-29T11:04:21Z</time>
      </trkpt>
      <trkpt lat="44.97535" lon="4.15894">
        <ele>1262.3</ele>
        <time>2026-04-29T11:04:26Z</time>
      </trkpt>
      <trkpt lat="44.97534" lon="4.15901">
        <ele>1262.7</ele>
        <time>2026-04-29T11:04:31Z</time>
      </trkpt>
      <trkpt lat="44.97532" lon="4.15907">
        <ele>1263</ele>
        <time>2026-04-29T11:04:36Z</time>
      </trkpt>
      <trkpt lat="44.97529" lon="4.15914">
        <ele>1263.2</ele>
        <time>2026-04-29T11:04:41Z</time>
      </trkpt>
      <trkpt lat="44.97527" lon="4.15921">
        <ele>1263.6</ele>
        <time>2026-04-29T11:04:46Z</time>
      </trkpt>
      <trkpt lat="44.97525" lon="4.15929">
        <ele>1264</ele>
        <time>2026-04-29T11:04:51Z</time>
      </trkpt>
      <trkpt lat="44.97524" lon="4.15936">
        <ele>1264.5</ele>
        <time>2026-04-29T11:04:56Z</time>
      </trkpt>
      <trkpt lat="44.97524" lon="4.15944">
        <ele>1265</ele>
        <time>2026-04-29T11:05:01Z</time>
      </trkpt>
      <trkpt lat="44.97523" lon="4.15951">
        <ele>1265.5</ele>
        <time>2026-04-29T11:05:06Z</time>
      </trkpt>
      <trkpt lat="44.97524" lon="4.15957">
        <ele>1265.9</ele>
        <time>2026-04-29T11:05:11Z</time>
      </trkpt>
      <trkpt lat="44.97524" lon="4.15964">
        <ele>1266.4</ele>
        <time>2026-04-29T11:05:16Z</time>
      </trkpt>
      <trkpt lat="44.97524" lon="4.15972">
        <ele>1266.9</ele>
        <time>2026-04-29T11:05:21Z</time>
      </trkpt>
      <trkpt lat="44.97525" lon="4.15979">
        <ele>1267.5</ele>
        <time>2026-04-29T11:05:26Z</time>
      </trkpt>
      <trkpt lat="44.97525" lon="4.15986">
        <ele>1267.9</ele>
        <time>2026-04-29T11:05:31Z</time>
      </trkpt>
      <trkpt lat="44.97526" lon="4.15988">
        <ele>1268.1</ele>
        <time>2026-04-29T11:05:36Z</time>
      </trkpt>
      <trkpt lat="44.97527" lon="4.15989">
        <ele>1268.2</ele>
        <time>2026-04-29T11:05:41Z</time>
      </trkpt>
      <trkpt lat="44.97527" lon="4.15989">
        <ele>1268.2</ele>
        <time>2026-04-29T11:05:46Z</time>
      </trkpt>
      <trkpt lat="44.97527" lon="4.15989">
        <ele>1268.2</ele>
        <time>2026-04-29T11:05:51Z</time>
      </trkpt>
      <trkpt lat="44.97527" lon="4.15989">
        <ele>1268.2</ele>
        <time>2026-04-29T11:05:56Z</time>
      </trkpt>
      <trkpt lat="44.97527" lon="4.15989">
        <ele>1268.2</ele>
        <time>2026-04-29T11:06:01Z</time>
      </trkpt>
      <trkpt lat="44.97527" lon="4.15989">
        <ele>1268.2</ele>
        <time>2026-04-29T11:06:06Z</time>
      </trkpt>
      <trkpt lat="44.97527" lon="4.15989">
        <ele>1268.2</ele>
        <time>2026-04-29T11:06:11Z</time>
      </trkpt>
      <trkpt lat="44.97527" lon="4.15989">
        <ele>1268.2</ele>
        <time>2026-04-29T11:06:16Z</time>
      </trkpt>
      <trkpt lat="44.97527" lon="4.15989">
        <ele>1268.2</ele>
        <time>2026-04-29T11:06:21Z</time>
      </trkpt>
      <trkpt lat="44.97527" lon="4.15989">
        <ele>1268.2</ele>
        <time>2026-04-29T11:06:26Z</time>
      </trkpt>
      <trkpt lat="44.97527" lon="4.15989">
        <ele>1268.2</ele>
        <time>2026-04-29T11:06:31Z</time>
      </trkpt>
      <trkpt lat="44.97527" lon="4.15989">
        <ele>1268.2</ele>
        <time>2026-04-29T11:06:36Z</time>
      </trkpt>
      <trkpt lat="44.97527" lon="4.15989">
        <ele>1268.2</ele>
        <time>2026-04-29T11:06:41Z</time>
      </trkpt>
      <trkpt lat="44.97527" lon="4.15989">
        <ele>1268.2</ele>
        <time>2026-04-29T11:06:46Z</time>
      </trkpt>
      <trkpt lat="44.97527" lon="4.15989">
        <ele>1268.2</ele>
        <time>2026-04-29T11:06:51Z</time>
      </trkpt>
      <trkpt lat="44.97527" lon="4.15989">
        <ele>1268.2</ele>
        <time>2026-04-29T11:06:56Z</time>
      </trkpt>
      <trkpt lat="44.97527" lon="4.15989">
        <ele>1268.2</ele>
        <time>2026-04-29T11:07:01Z</time>
      </trkpt>
      <trkpt lat="44.97527" lon="4.15989">
        <ele>1268.2</ele>
        <time>2026-04-29T11:07:06Z</time>
      </trkpt>
      <trkpt lat="44.97527" lon="4.15989">
        <ele>1268.2</ele>
        <time>2026-04-29T11:07:11Z</time>
      </trkpt>
      <trkpt lat="44.97527" lon="4.15989">
        <ele>1268.2</ele>
        <time>2026-04-29T11:07:16Z</time>
      </trkpt>
      <trkpt lat="44.97527" lon="4.15989">
        <ele>1268.2</ele>
        <time>2026-04-29T11:07:21Z</time>
      </trkpt>
      <trkpt lat="44.97527" lon="4.15989">
        <ele>1268.2</ele>
        <time>2026-04-29T11:07:26Z</time>
      </trkpt>
      <trkpt lat="44.97527" lon="4.15989">
        <ele>1268.2</ele>
        <time>2026-04-29T11:07:31Z</time>
      </trkpt>
      <trkpt lat="44.97527" lon="4.15989">
        <ele>1268.2</ele>
        <time>2026-04-29T11:07:36Z</time>
      </trkpt>
      <trkpt lat="44.97527" lon="4.15989">
        <ele>1268.2</ele>
        <time>2026-04-29T11:07:41Z</time>
      </trkpt>
      <trkpt lat="44.97527" lon="4.15989">
        <ele>1268.2</ele>
        <time>2026-04-29T11:07:46Z</time>
      </trkpt>
      <trkpt lat="44.97527" lon="4.15989">
        <ele>1268.2</ele>
        <time>2026-04-29T11:07:51Z</time>
      </trkpt>
      <trkpt lat="44.97527" lon="4.15989">
        <ele>1268.2</ele>
        <time>2026-04-29T11:07:56Z</time>
      </trkpt>
      <trkpt lat="44.97527" lon="4.15989">
        <ele>1268.2</ele>
        <time>2026-04-29T11:08:01Z</time>
      </trkpt>
      <trkpt lat="44.97527" lon="4.15989">
        <ele>1268.2</ele>
        <time>2026-04-29T11:08:06Z</time>
      </trkpt>
      <trkpt lat="44.97527" lon="4.15989">
        <ele>1268.2</ele>
        <time>2026-04-29T11:08:11Z</time>
      </trkpt>
      <trkpt lat="44.97527" lon="4.15989">
        <ele>1268.2</ele>
        <time>2026-04-29T11:08:16Z</time>
      </trkpt>
      <trkpt lat="44.97527" lon="4.15989">
        <ele>1268.2</ele>
        <time>2026-04-29T11:08:21Z</time>
      </trkpt>
      <trkpt lat="44.97527" lon="4.15989">
        <ele>1268.2</ele>
        <time>2026-04-29T11:08:26Z</time>
      </trkpt>
      <trkpt lat="44.97527" lon="4.15989">
        <ele>1268.2</ele>
        <time>2026-04-29T11:08:31Z</time>
      </trkpt>
      <trkpt lat="44.97527" lon="4.15989">
        <ele>1268.2</ele>
        <time>2026-04-29T11:08:36Z</time>
      </trkpt>
      <trkpt lat="44.97527" lon="4.15989">
        <ele>1268.2</ele>
        <time>2026-04-29T11:08:41Z</time>
      </trkpt>
      <trkpt lat="44.97527" lon="4.15989">
        <ele>1268.2</ele>
        <time>2026-04-29T11:08:46Z</time>
      </trkpt>
      <trkpt lat="44.97527" lon="4.15989">
        <ele>1268.2</ele>
        <time>2026-04-29T11:08:51Z</time>
      </trkpt>
      <trkpt lat="44.97527" lon="4.15989">
        <ele>1268.2</ele>
        <time>2026-04-29T11:08:56Z</time>
      </trkpt>
      <trkpt lat="44.97527" lon="4.15989">
        <ele>1268.2</ele>
        <time>2026-04-29T11:09:01Z</time>
      </trkpt>
      <trkpt lat="44.97527" lon="4.15989">
        <ele>1268.2</ele>
        <time>2026-04-29T11:09:06Z</time>
      </trkpt>
      <trkpt lat="44.97526" lon="4.15995">
        <ele>1268.6</ele>
        <time>2026-04-29T11:09:11Z</time>
      </trkpt>
      <trkpt lat="44.97527" lon="4.16001">
        <ele>1269.1</ele>
        <time>2026-04-29T11:09:16Z</time>
      </trkpt>
      <trkpt lat="44.97527" lon="4.16007">
        <ele>1269.6</ele>
        <time>2026-04-29T11:09:21Z</time>
      </trkpt>
      <trkpt lat="44.97528" lon="4.16013">
        <ele>1270.1</ele>
        <time>2026-04-29T11:09:26Z</time>
      </trkpt>
      <trkpt lat="44.97529" lon="4.16018">
        <ele>1270.6</ele>
        <time>2026-04-29T11:09:31Z</time>
      </trkpt>
      <trkpt lat="44.97529" lon="4.16023">
        <ele>1271</ele>
        <time>2026-04-29T11:09:36Z</time>
      </trkpt>
      <trkpt lat="44.9753" lon="4.16029">
        <ele>1271.5</ele>
        <time>2026-04-29T11:09:41Z</time>
      </trkpt>
      <trkpt lat="44.97532" lon="4.16034">
        <ele>1272</ele>
        <time>2026-04-29T11:09:46Z</time>
      </trkpt>
      <trkpt lat="44.97532" lon="4.1604">
        <ele>1272.5</ele>
        <time>2026-04-29T11:09:51Z</time>
      </trkpt>
      <trkpt lat="44.97532" lon="4.16048">
        <ele>1273.2</ele>
        <time>2026-04-29T11:09:56Z</time>
      </trkpt>
      <trkpt lat="44.97533" lon="4.16055">
        <ele>1273.8</ele>
        <time>2026-04-29T11:10:01Z</time>
      </trkpt>
      <trkpt lat="44.97533" lon="4.1606">
        <ele>1274.2</ele>
        <time>2026-04-29T11:10:06Z</time>
      </trkpt>
      <trkpt lat="44.97534" lon="4.16068">
        <ele>1274.9</ele>
        <time>2026-04-29T11:10:11Z</time>
      </trkpt>
      <trkpt lat="44.97535" lon="4.16076">
        <ele>1275.6</ele>
        <time>2026-04-29T11:10:16Z</time>
      </trkpt>
      <trkpt lat="44.97535" lon="4.16082">
        <ele>1276.1</ele>
        <time>2026-04-29T11:10:21Z</time>
      </trkpt>
      <trkpt lat="44.97536" lon="4.16089">
        <ele>1276.6</ele>
        <time>2026-04-29T11:10:26Z</time>
      </trkpt>
      <trkpt lat="44.97537" lon="4.16095">
        <ele>1277</ele>
        <time>2026-04-29T11:10:31Z</time>
      </trkpt>
      <trkpt lat="44.97538" lon="4.16102">
        <ele>1277.5</ele>
        <time>2026-04-29T11:10:36Z</time>
      </trkpt>
      <trkpt lat="44.97539" lon="4.16109">
        <ele>1278</ele>
        <time>2026-04-29T11:10:41Z</time>
      </trkpt>
      <trkpt lat="44.97539" lon="4.16118">
        <ele>1278.5</ele>
        <time>2026-04-29T11:10:46Z</time>
      </trkpt>
      <trkpt lat="44.97539" lon="4.16127">
        <ele>1279.1</ele>
        <time>2026-04-29T11:10:51Z</time>
      </trkpt>
      <trkpt lat="44.97538" lon="4.16134">
        <ele>1279.5</ele>
        <time>2026-04-29T11:10:56Z</time>
      </trkpt>
      <trkpt lat="44.97538" lon="4.16142">
        <ele>1279.9</ele>
        <time>2026-04-29T11:11:01Z</time>
      </trkpt>
      <trkpt lat="44.97537" lon="4.1615">
        <ele>1280.4</ele>
        <time>2026-04-29T11:11:06Z</time>
      </trkpt>
      <trkpt lat="44.97537" lon="4.16159">
        <ele>1281</ele>
        <time>2026-04-29T11:11:11Z</time>
      </trkpt>
      <trkpt lat="44.97536" lon="4.16167">
        <ele>1281.5</ele>
        <time>2026-04-29T11:11:16Z</time>
      </trkpt>
      <trkpt lat="44.97537" lon="4.16175">
        <ele>1281.9</ele>
        <time>2026-04-29T11:11:21Z</time>
      </trkpt>
      <trkpt lat="44.97538" lon="4.16186">
        <ele>1282.6</ele>
        <time>2026-04-29T11:11:26Z</time>
      </trkpt>
      <trkpt lat="44.97539" lon="4.16195">
        <ele>1283.1</ele>
        <time>2026-04-29T11:11:31Z</time>
      </trkpt>
      <trkpt lat="44.97541" lon="4.16202">
        <ele>1283.6</ele>
        <time>2026-04-29T11:11:36Z</time>
      </trkpt>
      <trkpt lat="44.97543" lon="4.16202">
        <ele>1283.6</ele>
        <time>2026-04-29T11:11:41Z</time>
      </trkpt>
      <trkpt lat="44.97549" lon="4.16202">
        <ele>1283.8</ele>
        <time>2026-04-29T11:11:46Z</time>
      </trkpt>
      <trkpt lat="44.97556" lon="4.16199">
        <ele>1283.7</ele>
        <time>2026-04-29T11:11:51Z</time>
      </trkpt>
      <trkpt lat="44.97559" lon="4.16193">
        <ele>1283.4</ele>
        <time>2026-04-29T11:11:56Z</time>
      </trkpt>
      <trkpt lat="44.97565" lon="4.1619">
        <ele>1283.3</ele>
        <time>2026-04-29T11:12:01Z</time>
      </trkpt>
      <trkpt lat="44.97571" lon="4.16186">
        <ele>1283.2</ele>
        <time>2026-04-29T11:12:06Z</time>
      </trkpt>
      <trkpt lat="44.97578" lon="4.16183">
        <ele>1283.1</ele>
        <time>2026-04-29T11:12:11Z</time>
      </trkpt>
      <trkpt lat="44.97587" lon="4.16179">
        <ele>1283.1</ele>
        <time>2026-04-29T11:12:16Z</time>
      </trkpt>
      <trkpt lat="44.97597" lon="4.16174">
        <ele>1283.3</ele>
        <time>2026-04-29T11:12:21Z</time>
      </trkpt>
      <trkpt lat="44.97606" lon="4.16168">
        <ele>1283.4</ele>
        <time>2026-04-29T11:12:26Z</time>
      </trkpt>
      <trkpt lat="44.97612" lon="4.16163">
        <ele>1283.6</ele>
        <time>2026-04-29T11:12:31Z</time>
      </trkpt>
      <trkpt lat="44.97617" lon="4.16158">
        <ele>1283.6</ele>
        <time>2026-04-29T11:12:36Z</time>
      </trkpt>
      <trkpt lat="44.97621" lon="4.16153">
        <ele>1283.7</ele>
        <time>2026-04-29T11:12:41Z</time>
      </trkpt>
      <trkpt lat="44.97627" lon="4.16149">
        <ele>1283.9</ele>
        <time>2026-04-29T11:12:46Z</time>
      </trkpt>
      <trkpt lat="44.97634" lon="4.16146">
        <ele>1284.2</ele>
        <time>2026-04-29T11:12:51Z</time>
      </trkpt>
      <trkpt lat="44.97638" lon="4.16141">
        <ele>1284.3</ele>
        <time>2026-04-29T11:12:56Z</time>
      </trkpt>
      <trkpt lat="44.97644" lon="4.16138">
        <ele>1284.5</ele>
        <time>2026-04-29T11:13:01Z</time>
      </trkpt>
      <trkpt lat="44.97649" lon="4.16136">
        <ele>1284.8</ele>
        <time>2026-04-29T11:13:06Z</time>
      </trkpt>
      <trkpt lat="44.97654" lon="4.16137">
        <ele>1285.1</ele>
        <time>2026-04-29T11:13:11Z</time>
      </trkpt>
      <trkpt lat="44.97654" lon="4.16142">
        <ele>1285.3</ele>
        <time>2026-04-29T11:13:16Z</time>
      </trkpt>
      <trkpt lat="44.97655" lon="4.16148">
        <ele>1285.6</ele>
        <time>2026-04-29T11:13:21Z</time>
      </trkpt>
      <trkpt lat="44.97653" lon="4.16157">
        <ele>1285.8</ele>
        <time>2026-04-29T11:13:26Z</time>
      </trkpt>
      <trkpt lat="44.97653" lon="4.16167">
        <ele>1286.2</ele>
        <time>2026-04-29T11:13:31Z</time>
      </trkpt>
      <trkpt lat="44.97652" lon="4.16175">
        <ele>1286.6</ele>
        <time>2026-04-29T11:13:36Z</time>
      </trkpt>
      <trkpt lat="44.9765" lon="4.16184">
        <ele>1286.9</ele>
        <time>2026-04-29T11:13:41Z</time>
      </trkpt>
      <trkpt lat="44.97648" lon="4.16193">
        <ele>1287.3</ele>
        <time>2026-04-29T11:13:46Z</time>
      </trkpt>
      <trkpt lat="44.97646" lon="4.16201">
        <ele>1287.6</ele>
        <time>2026-04-29T11:13:51Z</time>
      </trkpt>
      <trkpt lat="44.97645" lon="4.16212">
        <ele>1288.2</ele>
        <time>2026-04-29T11:13:56Z</time>
      </trkpt>
      <trkpt lat="44.97643" lon="4.16218">
        <ele>1288.4</ele>
        <time>2026-04-29T11:14:01Z</time>
      </trkpt>
      <trkpt lat="44.97642" lon="4.16229">
        <ele>1289</ele>
        <time>2026-04-29T11:14:06Z</time>
      </trkpt>
      <trkpt lat="44.97641" lon="4.16241">
        <ele>1289.6</ele>
        <time>2026-04-29T11:14:11Z</time>
      </trkpt>
      <trkpt lat="44.97639" lon="4.16253">
        <ele>1290.1</ele>
        <time>2026-04-29T11:14:16Z</time>
      </trkpt>
      <trkpt lat="44.97639" lon="4.16261">
        <ele>1290.4</ele>
        <time>2026-04-29T11:14:21Z</time>
      </trkpt>
      <trkpt lat="44.97638" lon="4.1627">
        <ele>1290.7</ele>
        <time>2026-04-29T11:14:26Z</time>
      </trkpt>
      <trkpt lat="44.97637" lon="4.1628">
        <ele>1291</ele>
        <time>2026-04-29T11:14:31Z</time>
      </trkpt>
      <trkpt lat="44.97636" lon="4.16292">
        <ele>1291.5</ele>
        <time>2026-04-29T11:14:36Z</time>
      </trkpt>
      <trkpt lat="44.97638" lon="4.16301">
        <ele>1291.8</ele>
        <time>2026-04-29T11:14:41Z</time>
      </trkpt>
      <trkpt lat="44.97637" lon="4.1631">
        <ele>1292.1</ele>
        <time>2026-04-29T11:14:46Z</time>
      </trkpt>
      <trkpt lat="44.97637" lon="4.16319">
        <ele>1292.5</ele>
        <time>2026-04-29T11:14:51Z</time>
      </trkpt>
      <trkpt lat="44.97635" lon="4.16329">
        <ele>1292.8</ele>
        <time>2026-04-29T11:14:56Z</time>
      </trkpt>
      <trkpt lat="44.97635" lon="4.16338">
        <ele>1293</ele>
        <time>2026-04-29T11:15:01Z</time>
      </trkpt>
      <trkpt lat="44.97635" lon="4.16349">
        <ele>1293.1</ele>
        <time>2026-04-29T11:15:06Z</time>
      </trkpt>
      <trkpt lat="44.97634" lon="4.16358">
        <ele>1293.2</ele>
        <time>2026-04-29T11:15:11Z</time>
      </trkpt>
      <trkpt lat="44.97631" lon="4.16366">
        <ele>1293.3</ele>
        <time>2026-04-29T11:15:16Z</time>
      </trkpt>
      <trkpt lat="44.97628" lon="4.16373">
        <ele>1293.4</ele>
        <time>2026-04-29T11:15:21Z</time>
      </trkpt>
      <trkpt lat="44.97627" lon="4.16382">
        <ele>1293.6</ele>
        <time>2026-04-29T11:15:26Z</time>
      </trkpt>
      <trkpt lat="44.97625" lon="4.16392">
        <ele>1293.7</ele>
        <time>2026-04-29T11:15:31Z</time>
      </trkpt>
      <trkpt lat="44.97624" lon="4.164">
        <ele>1293.8</ele>
        <time>2026-04-29T11:15:36Z</time>
      </trkpt>
      <trkpt lat="44.97622" lon="4.16409">
        <ele>1294</ele>
        <time>2026-04-29T11:15:41Z</time>
      </trkpt>
      <trkpt lat="44.9762" lon="4.16417">
        <ele>1294.1</ele>
        <time>2026-04-29T11:15:46Z</time>
      </trkpt>
      <trkpt lat="44.9762" lon="4.16427">
        <ele>1294.2</ele>
        <time>2026-04-29T11:15:51Z</time>
      </trkpt>
      <trkpt lat="44.97619" lon="4.16436">
        <ele>1294.4</ele>
        <time>2026-04-29T11:15:56Z</time>
      </trkpt>
      <trkpt lat="44.97618" lon="4.16443">
        <ele>1294.5</ele>
        <time>2026-04-29T11:16:01Z</time>
      </trkpt>
      <trkpt lat="44.97617" lon="4.16446">
        <ele>1294.5</ele>
        <time>2026-04-29T11:16:06Z</time>
      </trkpt>
      <trkpt lat="44.97617" lon="4.16446">
        <ele>1294.5</ele>
        <time>2026-04-29T11:16:11Z</time>
      </trkpt>
      <trkpt lat="44.97617" lon="4.16446">
        <ele>1294.5</ele>
        <time>2026-04-29T11:16:16Z</time>
      </trkpt>
      <trkpt lat="44.97617" lon="4.16446">
        <ele>1294.5</ele>
        <time>2026-04-29T11:16:21Z</time>
      </trkpt>
      <trkpt lat="44.97617" lon="4.16446">
        <ele>1294.5</ele>
        <time>2026-04-29T11:16:26Z</time>
      </trkpt>
      <trkpt lat="44.97616" lon="4.16454">
        <ele>1294.7</ele>
        <time>2026-04-29T11:16:31Z</time>
      </trkpt>
      <trkpt lat="44.97614" lon="4.16462">
        <ele>1294.8</ele>
        <time>2026-04-29T11:16:36Z</time>
      </trkpt>
      <trkpt lat="44.97612" lon="4.16472">
        <ele>1295</ele>
        <time>2026-04-29T11:16:41Z</time>
      </trkpt>
      <trkpt lat="44.97611" lon="4.16483">
        <ele>1295.1</ele>
        <time>2026-04-29T11:16:46Z</time>
      </trkpt>
      <trkpt lat="44.9761" lon="4.16492">
        <ele>1295.3</ele>
        <time>2026-04-29T11:16:51Z</time>
      </trkpt>
      <trkpt lat="44.97608" lon="4.16501">
        <ele>1295.4</ele>
        <time>2026-04-29T11:16:56Z</time>
      </trkpt>
      <trkpt lat="44.97607" lon="4.16511">
        <ele>1295.5</ele>
        <time>2026-04-29T11:17:01Z</time>
      </trkpt>
      <trkpt lat="44.97608" lon="4.1652">
        <ele>1295.4</ele>
        <time>2026-04-29T11:17:06Z</time>
      </trkpt>
      <trkpt lat="44.97608" lon="4.1653">
        <ele>1295.4</ele>
        <time>2026-04-29T11:17:11Z</time>
      </trkpt>
      <trkpt lat="44.97607" lon="4.16539">
        <ele>1295.5</ele>
        <time>2026-04-29T11:17:16Z</time>
      </trkpt>
      <trkpt lat="44.97604" lon="4.16547">
        <ele>1295.6</ele>
        <time>2026-04-29T11:17:21Z</time>
      </trkpt>
      <trkpt lat="44.97603" lon="4.16559">
        <ele>1295.7</ele>
        <time>2026-04-29T11:17:26Z</time>
      </trkpt>
      <trkpt lat="44.97601" lon="4.16569">
        <ele>1295.9</ele>
        <time>2026-04-29T11:17:31Z</time>
      </trkpt>
      <trkpt lat="44.976" lon="4.1658">
        <ele>1296</ele>
        <time>2026-04-29T11:17:36Z</time>
      </trkpt>
      <trkpt lat="44.97598" lon="4.16588">
        <ele>1295.8</ele>
        <time>2026-04-29T11:17:41Z</time>
      </trkpt>
      <trkpt lat="44.97596" lon="4.16597">
        <ele>1295.4</ele>
        <time>2026-04-29T11:17:46Z</time>
      </trkpt>
      <trkpt lat="44.9759" lon="4.16605">
        <ele>1295.3</ele>
        <time>2026-04-29T11:17:51Z</time>
      </trkpt>
      <trkpt lat="44.97585" lon="4.16612">
        <ele>1295.2</ele>
        <time>2026-04-29T11:17:56Z</time>
      </trkpt>
      <trkpt lat="44.97581" lon="4.16618">
        <ele>1295</ele>
        <time>2026-04-29T11:18:01Z</time>
      </trkpt>
      <trkpt lat="44.97576" lon="4.16623">
        <ele>1295</ele>
        <time>2026-04-29T11:18:06Z</time>
      </trkpt>
      <trkpt lat="44.97573" lon="4.1663">
        <ele>1294.8</ele>
        <time>2026-04-29T11:18:11Z</time>
      </trkpt>
      <trkpt lat="44.97569" lon="4.16637">
        <ele>1294.7</ele>
        <time>2026-04-29T11:18:16Z</time>
      </trkpt>
      <trkpt lat="44.97565" lon="4.16642">
        <ele>1294.7</ele>
        <time>2026-04-29T11:18:21Z</time>
      </trkpt>
      <trkpt lat="44.97558" lon="4.16644">
        <ele>1295.1</ele>
        <time>2026-04-29T11:18:26Z</time>
      </trkpt>
      <trkpt lat="44.97551" lon="4.16642">
        <ele>1295.6</ele>
        <time>2026-04-29T11:18:31Z</time>
      </trkpt>
      <trkpt lat="44.97543" lon="4.16641">
        <ele>1296.2</ele>
        <time>2026-04-29T11:18:36Z</time>
      </trkpt>
      <trkpt lat="44.97536" lon="4.16639">
        <ele>1296.7</ele>
        <time>2026-04-29T11:18:41Z</time>
      </trkpt>
      <trkpt lat="44.97529" lon="4.16641">
        <ele>1297.1</ele>
        <time>2026-04-29T11:18:46Z</time>
      </trkpt>
      <trkpt lat="44.97524" lon="4.16642">
        <ele>1297.4</ele>
        <time>2026-04-29T11:18:51Z</time>
      </trkpt>
      <trkpt lat="44.97518" lon="4.16644">
        <ele>1297.8</ele>
        <time>2026-04-29T11:18:56Z</time>
      </trkpt>
      <trkpt lat="44.97512" lon="4.16648">
        <ele>1298.2</ele>
        <time>2026-04-29T11:19:01Z</time>
      </trkpt>
      <trkpt lat="44.97506" lon="4.16653">
        <ele>1298.6</ele>
        <time>2026-04-29T11:19:06Z</time>
      </trkpt>
      <trkpt lat="44.97499" lon="4.16657">
        <ele>1299</ele>
        <time>2026-04-29T11:19:11Z</time>
      </trkpt>
      <trkpt lat="44.97491" lon="4.1666">
        <ele>1298.9</ele>
        <time>2026-04-29T11:19:16Z</time>
      </trkpt>
      <trkpt lat="44.97485" lon="4.16662">
        <ele>1298.8</ele>
        <time>2026-04-29T11:19:21Z</time>
      </trkpt>
      <trkpt lat="44.9748" lon="4.16663">
        <ele>1298.8</ele>
        <time>2026-04-29T11:19:26Z</time>
      </trkpt>
      <trkpt lat="44.97473" lon="4.16665">
        <ele>1298.7</ele>
        <time>2026-04-29T11:19:31Z</time>
      </trkpt>
      <trkpt lat="44.97467" lon="4.16668">
        <ele>1298.6</ele>
        <time>2026-04-29T11:19:36Z</time>
      </trkpt>
      <trkpt lat="44.97461" lon="4.16673">
        <ele>1298.4</ele>
        <time>2026-04-29T11:19:41Z</time>
      </trkpt>
      <trkpt lat="44.97453" lon="4.16676">
        <ele>1298.4</ele>
        <time>2026-04-29T11:19:46Z</time>
      </trkpt>
      <trkpt lat="44.97448" lon="4.16677">
        <ele>1298.3</ele>
        <time>2026-04-29T11:19:51Z</time>
      </trkpt>
      <trkpt lat="44.97442" lon="4.16679">
        <ele>1298.3</ele>
        <time>2026-04-29T11:19:56Z</time>
      </trkpt>
      <trkpt lat="44.97437" lon="4.16687">
        <ele>1298.2</ele>
        <time>2026-04-29T11:20:01Z</time>
      </trkpt>
      <trkpt lat="44.97434" lon="4.16699">
        <ele>1298.3</ele>
        <time>2026-04-29T11:20:06Z</time>
      </trkpt>
      <trkpt lat="44.97434" lon="4.16709">
        <ele>1298.3</ele>
        <time>2026-04-29T11:20:11Z</time>
      </trkpt>
      <trkpt lat="44.97435" lon="4.1672">
        <ele>1298.3</ele>
        <time>2026-04-29T11:20:16Z</time>
      </trkpt>
      <trkpt lat="44.97436" lon="4.16732">
        <ele>1298.3</ele>
        <time>2026-04-29T11:20:21Z</time>
      </trkpt>
      <trkpt lat="44.97439" lon="4.1674">
        <ele>1298.2</ele>
        <time>2026-04-29T11:20:26Z</time>
      </trkpt>
      <trkpt lat="44.97441" lon="4.16749">
        <ele>1298.1</ele>
        <time>2026-04-29T11:20:31Z</time>
      </trkpt>
      <trkpt lat="44.97443" lon="4.16759">
        <ele>1297.8</ele>
        <time>2026-04-29T11:20:36Z</time>
      </trkpt>
      <trkpt lat="44.97444" lon="4.16772">
        <ele>1297.3</ele>
        <time>2026-04-29T11:20:41Z</time>
      </trkpt>
      <trkpt lat="44.97446" lon="4.16781">
        <ele>1297</ele>
        <time>2026-04-29T11:20:46Z</time>
      </trkpt>
      <trkpt lat="44.97449" lon="4.1679">
        <ele>1296.6</ele>
        <time>2026-04-29T11:20:51Z</time>
      </trkpt>
      <trkpt lat="44.97452" lon="4.16805">
        <ele>1296</ele>
        <time>2026-04-29T11:20:56Z</time>
      </trkpt>
      <trkpt lat="44.97453" lon="4.16814">
        <ele>1295.7</ele>
        <time>2026-04-29T11:21:01Z</time>
      </trkpt>
      <trkpt lat="44.97456" lon="4.16822">
        <ele>1295.4</ele>
        <time>2026-04-29T11:21:06Z</time>
      </trkpt>
      <trkpt lat="44.97458" lon="4.1683">
        <ele>1295.1</ele>
        <time>2026-04-29T11:21:11Z</time>
      </trkpt>
      <trkpt lat="44.9746" lon="4.16839">
        <ele>1294.9</ele>
        <time>2026-04-29T11:21:16Z</time>
      </trkpt>
      <trkpt lat="44.97461" lon="4.16846">
        <ele>1294.8</ele>
        <time>2026-04-29T11:21:21Z</time>
      </trkpt>
      <trkpt lat="44.97462" lon="4.16847">
        <ele>1294.7</ele>
        <time>2026-04-29T11:21:26Z</time>
      </trkpt>
      <trkpt lat="44.97463" lon="4.16847">
        <ele>1294.7</ele>
        <time>2026-04-29T11:21:31Z</time>
      </trkpt>
      <trkpt lat="44.97463" lon="4.16847">
        <ele>1294.7</ele>
        <time>2026-04-29T11:21:36Z</time>
      </trkpt>
      <trkpt lat="44.97463" lon="4.16847">
        <ele>1294.7</ele>
        <time>2026-04-29T11:21:41Z</time>
      </trkpt>
      <trkpt lat="44.97463" lon="4.16847">
        <ele>1294.7</ele>
        <time>2026-04-29T11:21:46Z</time>
      </trkpt>
      <trkpt lat="44.97463" lon="4.16847">
        <ele>1294.7</ele>
        <time>2026-04-29T11:21:51Z</time>
      </trkpt>
      <trkpt lat="44.97463" lon="4.16847">
        <ele>1294.7</ele>
        <time>2026-04-29T11:21:56Z</time>
      </trkpt>
      <trkpt lat="44.97463" lon="4.16847">
        <ele>1294.7</ele>
        <time>2026-04-29T11:22:01Z</time>
      </trkpt>
      <trkpt lat="44.97463" lon="4.16847">
        <ele>1294.7</ele>
        <time>2026-04-29T11:22:06Z</time>
      </trkpt>
      <trkpt lat="44.97463" lon="4.16847">
        <ele>1294.7</ele>
        <time>2026-04-29T11:22:11Z</time>
      </trkpt>
      <trkpt lat="44.97463" lon="4.16847">
        <ele>1294.7</ele>
        <time>2026-04-29T11:22:16Z</time>
      </trkpt>
      <trkpt lat="44.97466" lon="4.1686">
        <ele>1294.5</ele>
        <time>2026-04-29T11:22:21Z</time>
      </trkpt>
      <trkpt lat="44.97468" lon="4.16869">
        <ele>1294.3</ele>
        <time>2026-04-29T11:22:26Z</time>
      </trkpt>
      <trkpt lat="44.97469" lon="4.16877">
        <ele>1294.2</ele>
        <time>2026-04-29T11:22:31Z</time>
      </trkpt>
      <trkpt lat="44.9747" lon="4.16877">
        <ele>1294.2</ele>
        <time>2026-04-29T11:22:36Z</time>
      </trkpt>
      <trkpt lat="44.97473" lon="4.16877">
        <ele>1294.1</ele>
        <time>2026-04-29T11:22:41Z</time>
      </trkpt>
      <trkpt lat="44.97479" lon="4.16876">
        <ele>1294</ele>
        <time>2026-04-29T11:22:46Z</time>
      </trkpt>
      <trkpt lat="44.97486" lon="4.16873">
        <ele>1293.9</ele>
        <time>2026-04-29T11:22:51Z</time>
      </trkpt>
      <trkpt lat="44.97492" lon="4.1687">
        <ele>1293.8</ele>
        <time>2026-04-29T11:22:56Z</time>
      </trkpt>
      <trkpt lat="44.97498" lon="4.16869">
        <ele>1293.6</ele>
        <time>2026-04-29T11:23:01Z</time>
      </trkpt>
      <trkpt lat="44.97505" lon="4.16868">
        <ele>1292.9</ele>
        <time>2026-04-29T11:23:06Z</time>
      </trkpt>
      <trkpt lat="44.97512" lon="4.16865">
        <ele>1292</ele>
        <time>2026-04-29T11:23:11Z</time>
      </trkpt>
      <trkpt lat="44.97519" lon="4.16863">
        <ele>1291</ele>
        <time>2026-04-29T11:23:16Z</time>
      </trkpt>
      <trkpt lat="44.97525" lon="4.16861">
        <ele>1290.2</ele>
        <time>2026-04-29T11:23:21Z</time>
      </trkpt>
      <trkpt lat="44.97531" lon="4.1686">
        <ele>1289.3</ele>
        <time>2026-04-29T11:23:26Z</time>
      </trkpt>
      <trkpt lat="44.97539" lon="4.16861">
        <ele>1288.2</ele>
        <time>2026-04-29T11:23:31Z</time>
      </trkpt>
      <trkpt lat="44.97546" lon="4.16861">
        <ele>1287.2</ele>
        <time>2026-04-29T11:23:36Z</time>
      </trkpt>
      <trkpt lat="44.97556" lon="4.16862">
        <ele>1285.8</ele>
        <time>2026-04-29T11:23:41Z</time>
      </trkpt>
      <trkpt lat="44.97564" lon="4.16865">
        <ele>1284.8</ele>
        <time>2026-04-29T11:23:46Z</time>
      </trkpt>
      <trkpt lat="44.97571" lon="4.16868">
        <ele>1283.9</ele>
        <time>2026-04-29T11:23:51Z</time>
      </trkpt>
      <trkpt lat="44.97578" lon="4.1687">
        <ele>1283</ele>
        <time>2026-04-29T11:23:56Z</time>
      </trkpt>
      <trkpt lat="44.97585" lon="4.16873">
        <ele>1282.2</ele>
        <time>2026-04-29T11:24:01Z</time>
      </trkpt>
      <trkpt lat="44.97592" lon="4.16876">
        <ele>1281.5</ele>
        <time>2026-04-29T11:24:06Z</time>
      </trkpt>
      <trkpt lat="44.97598" lon="4.16879">
        <ele>1280.9</ele>
        <time>2026-04-29T11:24:11Z</time>
      </trkpt>
      <trkpt lat="44.97605" lon="4.1688">
        <ele>1280.1</ele>
        <time>2026-04-29T11:24:16Z</time>
      </trkpt>
      <trkpt lat="44.97611" lon="4.16879">
        <ele>1279.4</ele>
        <time>2026-04-29T11:24:21Z</time>
      </trkpt>
      <trkpt lat="44.97616" lon="4.16876">
        <ele>1278.8</ele>
        <time>2026-04-29T11:24:26Z</time>
      </trkpt>
      <trkpt lat="44.9762" lon="4.16872">
        <ele>1278.3</ele>
        <time>2026-04-29T11:24:31Z</time>
      </trkpt>
      <trkpt lat="44.97626" lon="4.1687">
        <ele>1277.7</ele>
        <time>2026-04-29T11:24:36Z</time>
      </trkpt>
      <trkpt lat="44.97633" lon="4.1687">
        <ele>1276.9</ele>
        <time>2026-04-29T11:24:41Z</time>
      </trkpt>
      <trkpt lat="44.97639" lon="4.16874">
        <ele>1276.2</ele>
        <time>2026-04-29T11:24:46Z</time>
      </trkpt>
      <trkpt lat="44.97646" lon="4.16878">
        <ele>1275.3</ele>
        <time>2026-04-29T11:24:51Z</time>
      </trkpt>
      <trkpt lat="44.97653" lon="4.16882">
        <ele>1274.3</ele>
        <time>2026-04-29T11:24:56Z</time>
      </trkpt>
      <trkpt lat="44.9766" lon="4.16884">
        <ele>1273.4</ele>
        <time>2026-04-29T11:25:01Z</time>
      </trkpt>
      <trkpt lat="44.97667" lon="4.16888">
        <ele>1272.3</ele>
        <time>2026-04-29T11:25:06Z</time>
      </trkpt>
      <trkpt lat="44.97673" lon="4.16891">
        <ele>1271.6</ele>
        <time>2026-04-29T11:25:11Z</time>
      </trkpt>
      <trkpt lat="44.9768" lon="4.16892">
        <ele>1270.9</ele>
        <time>2026-04-29T11:25:16Z</time>
      </trkpt>
      <trkpt lat="44.97686" lon="4.16888">
        <ele>1270.4</ele>
        <time>2026-04-29T11:25:21Z</time>
      </trkpt>
      <trkpt lat="44.97688" lon="4.16892">
        <ele>1270.1</ele>
        <time>2026-04-29T11:25:26Z</time>
      </trkpt>
      <trkpt lat="44.97685" lon="4.16903">
        <ele>1269.9</ele>
        <time>2026-04-29T11:25:31Z</time>
      </trkpt>
      <trkpt lat="44.97685" lon="4.16915">
        <ele>1269.3</ele>
        <time>2026-04-29T11:25:36Z</time>
      </trkpt>
      <trkpt lat="44.97687" lon="4.16924">
        <ele>1269</ele>
        <time>2026-04-29T11:25:41Z</time>
      </trkpt>
      <trkpt lat="44.97687" lon="4.16932">
        <ele>1269</ele>
        <time>2026-04-29T11:25:46Z</time>
      </trkpt>
      <trkpt lat="44.97684" lon="4.16941">
        <ele>1269.2</ele>
        <time>2026-04-29T11:25:51Z</time>
      </trkpt>
      <trkpt lat="44.97683" lon="4.16949">
        <ele>1269.3</ele>
        <time>2026-04-29T11:25:56Z</time>
      </trkpt>
      <trkpt lat="44.97683" lon="4.16951">
        <ele>1269.3</ele>
        <time>2026-04-29T11:26:01Z</time>
      </trkpt>
      <trkpt lat="44.9768" lon="4.16941">
        <ele>1269.6</ele>
        <time>2026-04-29T11:26:06Z</time>
      </trkpt>
      <trkpt lat="44.97674" lon="4.16937">
        <ele>1270.3</ele>
        <time>2026-04-29T11:26:11Z</time>
      </trkpt>
      <trkpt lat="44.9767" lon="4.16934">
        <ele>1270.7</ele>
        <time>2026-04-29T11:26:16Z</time>
      </trkpt>
      <trkpt lat="44.97664" lon="4.16931">
        <ele>1271.4</ele>
        <time>2026-04-29T11:26:21Z</time>
      </trkpt>
      <trkpt lat="44.9766" lon="4.16925">
        <ele>1272.1</ele>
        <time>2026-04-29T11:26:26Z</time>
      </trkpt>
      <trkpt lat="44.97658" lon="4.16921">
        <ele>1272.4</ele>
        <time>2026-04-29T11:26:31Z</time>
      </trkpt>
      <trkpt lat="44.97657" lon="4.16916">
        <ele>1272.5</ele>
        <time>2026-04-29T11:26:36Z</time>
      </trkpt>
      <trkpt lat="44.97656" lon="4.1691">
        <ele>1272.9</ele>
        <time>2026-04-29T11:26:41Z</time>
      </trkpt>
      <trkpt lat="44.97655" lon="4.16904">
        <ele>1273.3</ele>
        <time>2026-04-29T11:26:46Z</time>
      </trkpt>
      <trkpt lat="44.97654" lon="4.16899">
        <ele>1273.6</ele>
        <time>2026-04-29T11:26:51Z</time>
      </trkpt>
      <trkpt lat="44.97652" lon="4.16894">
        <ele>1274</ele>
        <time>2026-04-29T11:26:56Z</time>
      </trkpt>
      <trkpt lat="44.97649" lon="4.16889">
        <ele>1274.6</ele>
        <time>2026-04-29T11:27:01Z</time>
      </trkpt>
      <trkpt lat="44.97646" lon="4.16883">
        <ele>1275.1</ele>
        <time>2026-04-29T11:27:06Z</time>
      </trkpt>
      <trkpt lat="44.97643" lon="4.16878">
        <ele>1275.6</ele>
        <time>2026-04-29T11:27:11Z</time>
      </trkpt>
      <trkpt lat="44.9764" lon="4.16873">
        <ele>1276.1</ele>
        <time>2026-04-29T11:27:16Z</time>
      </trkpt>
      <trkpt lat="44.97637" lon="4.16869">
        <ele>1276.5</ele>
        <time>2026-04-29T11:27:21Z</time>
      </trkpt>
      <trkpt lat="44.97633" lon="4.16867">
        <ele>1277</ele>
        <time>2026-04-29T11:27:26Z</time>
      </trkpt>
      <trkpt lat="44.97629" lon="4.16866">
        <ele>1277.4</ele>
        <time>2026-04-29T11:27:31Z</time>
      </trkpt>
      <trkpt lat="44.97625" lon="4.16866">
        <ele>1277.8</ele>
        <time>2026-04-29T11:27:36Z</time>
      </trkpt>
      <trkpt lat="44.9762" lon="4.16867">
        <ele>1278.3</ele>
        <time>2026-04-29T11:27:41Z</time>
      </trkpt>
      <trkpt lat="44.97616" lon="4.16869">
        <ele>1278.8</ele>
        <time>2026-04-29T11:27:46Z</time>
      </trkpt>
      <trkpt lat="44.97612" lon="4.16871">
        <ele>1279.2</ele>
        <time>2026-04-29T11:27:51Z</time>
      </trkpt>
      <trkpt lat="44.97609" lon="4.16876">
        <ele>1279.6</ele>
        <time>2026-04-29T11:27:56Z</time>
      </trkpt>
      <trkpt lat="44.97613" lon="4.16889">
        <ele>1279.2</ele>
        <time>2026-04-29T11:28:01Z</time>
      </trkpt>
      <trkpt lat="44.97618" lon="4.16897">
        <ele>1278.6</ele>
        <time>2026-04-29T11:28:06Z</time>
      </trkpt>
      <trkpt lat="44.97624" lon="4.16903">
        <ele>1277.7</ele>
        <time>2026-04-29T11:28:11Z</time>
      </trkpt>
      <trkpt lat="44.97629" lon="4.16909">
        <ele>1277</ele>
        <time>2026-04-29T11:28:16Z</time>
      </trkpt>
      <trkpt lat="44.9763" lon="4.16916">
        <ele>1276.7</ele>
        <time>2026-04-29T11:28:21Z</time>
      </trkpt>
      <trkpt lat="44.97631" lon="4.16926">
        <ele>1276.7</ele>
        <time>2026-04-29T11:28:26Z</time>
      </trkpt>
      <trkpt lat="44.97632" lon="4.16933">
        <ele>1276.6</ele>
        <time>2026-04-29T11:28:31Z</time>
      </trkpt>
      <trkpt lat="44.97632" lon="4.1694">
        <ele>1276.6</ele>
        <time>2026-04-29T11:28:36Z</time>
      </trkpt>
      <trkpt lat="44.97635" lon="4.16948">
        <ele>1276.2</ele>
        <time>2026-04-29T11:28:41Z</time>
      </trkpt>
      <trkpt lat="44.97638" lon="4.16956">
        <ele>1275.8</ele>
        <time>2026-04-29T11:28:46Z</time>
      </trkpt>
      <trkpt lat="44.97639" lon="4.16967">
        <ele>1275.7</ele>
        <time>2026-04-29T11:28:51Z</time>
      </trkpt>
      <trkpt lat="44.97643" lon="4.16978">
        <ele>1275.1</ele>
        <time>2026-04-29T11:28:56Z</time>
      </trkpt>
      <trkpt lat="44.97645" lon="4.16987">
        <ele>1274.8</ele>
        <time>2026-04-29T11:29:01Z</time>
      </trkpt>
      <trkpt lat="44.97648" lon="4.16996">
        <ele>1274.3</ele>
        <time>2026-04-29T11:29:06Z</time>
      </trkpt>
      <trkpt lat="44.97652" lon="4.17004">
        <ele>1273.8</ele>
        <time>2026-04-29T11:29:11Z</time>
      </trkpt>
      <trkpt lat="44.97656" lon="4.17013">
        <ele>1273.4</ele>
        <time>2026-04-29T11:29:16Z</time>
      </trkpt>
      <trkpt lat="44.9766" lon="4.17021">
        <ele>1273.1</ele>
        <time>2026-04-29T11:29:21Z</time>
      </trkpt>
      <trkpt lat="44.97665" lon="4.17028">
        <ele>1272.6</ele>
        <time>2026-04-29T11:29:26Z</time>
      </trkpt>
      <trkpt lat="44.97669" lon="4.17037">
        <ele>1272.5</ele>
        <time>2026-04-29T11:29:31Z</time>
      </trkpt>
      <trkpt lat="44.97673" lon="4.17042">
        <ele>1272.3</ele>
        <time>2026-04-29T11:29:36Z</time>
      </trkpt>
      <trkpt lat="44.97678" lon="4.1705">
        <ele>1272</ele>
        <time>2026-04-29T11:29:41Z</time>
      </trkpt>
      <trkpt lat="44.97684" lon="4.17057">
        <ele>1271.7</ele>
        <time>2026-04-29T11:29:46Z</time>
      </trkpt>
      <trkpt lat="44.9769" lon="4.17064">
        <ele>1271.3</ele>
        <time>2026-04-29T11:29:51Z</time>
      </trkpt>
      <trkpt lat="44.97696" lon="4.17071">
        <ele>1270.9</ele>
        <time>2026-04-29T11:29:56Z</time>
      </trkpt>
      <trkpt lat="44.97702" lon="4.17075">
        <ele>1270.4</ele>
        <time>2026-04-29T11:30:01Z</time>
      </trkpt>
      <trkpt lat="44.97708" lon="4.17081">
        <ele>1269.9</ele>
        <time>2026-04-29T11:30:06Z</time>
      </trkpt>
      <trkpt lat="44.97714" lon="4.17089">
        <ele>1269.8</ele>
        <time>2026-04-29T11:30:11Z</time>
      </trkpt>
      <trkpt lat="44.97719" lon="4.17098">
        <ele>1270</ele>
        <time>2026-04-29T11:30:16Z</time>
      </trkpt>
      <trkpt lat="44.97725" lon="4.17105">
        <ele>1269.9</ele>
        <time>2026-04-29T11:30:21Z</time>
      </trkpt>
      <trkpt lat="44.97731" lon="4.1711">
        <ele>1269.7</ele>
        <time>2026-04-29T11:30:26Z</time>
      </trkpt>
      <trkpt lat="44.97737" lon="4.17114">
        <ele>1269.4</ele>
        <time>2026-04-29T11:30:31Z</time>
      </trkpt>
      <trkpt lat="44.97743" lon="4.17119">
        <ele>1269.2</ele>
        <time>2026-04-29T11:30:36Z</time>
      </trkpt>
      <trkpt lat="44.97749" lon="4.17124">
        <ele>1269</ele>
        <time>2026-04-29T11:30:41Z</time>
      </trkpt>
      <trkpt lat="44.97755" lon="4.1713">
        <ele>1268.8</ele>
        <time>2026-04-29T11:30:46Z</time>
      </trkpt>
      <trkpt lat="44.97761" lon="4.17135">
        <ele>1268.5</ele>
        <time>2026-04-29T11:30:51Z</time>
      </trkpt>
      <trkpt lat="44.97768" lon="4.1714">
        <ele>1268.1</ele>
        <time>2026-04-29T11:30:56Z</time>
      </trkpt>
      <trkpt lat="44.97775" lon="4.17144">
        <ele>1267.5</ele>
        <time>2026-04-29T11:31:01Z</time>
      </trkpt>
      <trkpt lat="44.97781" lon="4.17148">
        <ele>1267</ele>
        <time>2026-04-29T11:31:06Z</time>
      </trkpt>
      <trkpt lat="44.97787" lon="4.17153">
        <ele>1266.6</ele>
        <time>2026-04-29T11:31:11Z</time>
      </trkpt>
      <trkpt lat="44.97793" lon="4.17158">
        <ele>1266.1</ele>
        <time>2026-04-29T11:31:16Z</time>
      </trkpt>
      <trkpt lat="44.97798" lon="4.17164">
        <ele>1265.9</ele>
        <time>2026-04-29T11:31:21Z</time>
      </trkpt>
      <trkpt lat="44.97804" lon="4.17169">
        <ele>1265.4</ele>
        <time>2026-04-29T11:31:26Z</time>
      </trkpt>
      <trkpt lat="44.9781" lon="4.17175">
        <ele>1265</ele>
        <time>2026-04-29T11:31:31Z</time>
      </trkpt>
      <trkpt lat="44.97817" lon="4.17178">
        <ele>1264.3</ele>
        <time>2026-04-29T11:31:36Z</time>
      </trkpt>
      <trkpt lat="44.97824" lon="4.17183">
        <ele>1263.7</ele>
        <time>2026-04-29T11:31:41Z</time>
      </trkpt>
      <trkpt lat="44.9783" lon="4.17187">
        <ele>1263.2</ele>
        <time>2026-04-29T11:31:46Z</time>
      </trkpt>
      <trkpt lat="44.97838" lon="4.1719">
        <ele>1262.1</ele>
        <time>2026-04-29T11:31:51Z</time>
      </trkpt>
      <trkpt lat="44.97846" lon="4.17192">
        <ele>1260.8</ele>
        <time>2026-04-29T11:31:56Z</time>
      </trkpt>
      <trkpt lat="44.97853" lon="4.17192">
        <ele>1259.6</ele>
        <time>2026-04-29T11:32:01Z</time>
      </trkpt>
      <trkpt lat="44.9786" lon="4.17194">
        <ele>1258.5</ele>
        <time>2026-04-29T11:32:06Z</time>
      </trkpt>
      <trkpt lat="44.97867" lon="4.17196">
        <ele>1257.4</ele>
        <time>2026-04-29T11:32:11Z</time>
      </trkpt>
      <trkpt lat="44.97874" lon="4.17196">
        <ele>1256.1</ele>
        <time>2026-04-29T11:32:16Z</time>
      </trkpt>
      <trkpt lat="44.97882" lon="4.17196">
        <ele>1254.7</ele>
        <time>2026-04-29T11:32:21Z</time>
      </trkpt>
      <trkpt lat="44.97888" lon="4.17199">
        <ele>1253.9</ele>
        <time>2026-04-29T11:32:26Z</time>
      </trkpt>
      <trkpt lat="44.97894" lon="4.17206">
        <ele>1253.4</ele>
        <time>2026-04-29T11:32:31Z</time>
      </trkpt>
      <trkpt lat="44.97899" lon="4.17208">
        <ele>1252.7</ele>
        <time>2026-04-29T11:32:36Z</time>
      </trkpt>
      <trkpt lat="44.97905" lon="4.17208">
        <ele>1251.6</ele>
        <time>2026-04-29T11:32:41Z</time>
      </trkpt>
      <trkpt lat="44.9791" lon="4.17205">
        <ele>1250.4</ele>
        <time>2026-04-29T11:32:46Z</time>
      </trkpt>
      <trkpt lat="44.97914" lon="4.17204">
        <ele>1249.6</ele>
        <time>2026-04-29T11:32:51Z</time>
      </trkpt>
      <trkpt lat="44.97919" lon="4.17204">
        <ele>1248.9</ele>
        <time>2026-04-29T11:32:56Z</time>
      </trkpt>
      <trkpt lat="44.97924" lon="4.17206">
        <ele>1248.4</ele>
        <time>2026-04-29T11:33:01Z</time>
      </trkpt>
      <trkpt lat="44.97929" lon="4.17209">
        <ele>1248</ele>
        <time>2026-04-29T11:33:06Z</time>
      </trkpt>
      <trkpt lat="44.97932" lon="4.17208">
        <ele>1247.5</ele>
        <time>2026-04-29T11:33:11Z</time>
      </trkpt>
      <trkpt lat="44.97934" lon="4.17208">
        <ele>1247.3</ele>
        <time>2026-04-29T11:33:16Z</time>
      </trkpt>
      <trkpt lat="44.97935" lon="4.17209">
        <ele>1247.2</ele>
        <time>2026-04-29T11:33:21Z</time>
      </trkpt>
      <trkpt lat="44.97935" lon="4.17221">
        <ele>1248</ele>
        <time>2026-04-29T11:33:26Z</time>
      </trkpt>
      <trkpt lat="44.97938" lon="4.17234">
        <ele>1248.4</ele>
        <time>2026-04-29T11:33:31Z</time>
      </trkpt>
      <trkpt lat="44.9794" lon="4.17241">
        <ele>1248.5</ele>
        <time>2026-04-29T11:33:36Z</time>
      </trkpt>
      <trkpt lat="44.97939" lon="4.17239">
        <ele>1248.6</ele>
        <time>2026-04-29T11:33:41Z</time>
      </trkpt>
      <trkpt lat="44.97942" lon="4.17235">
        <ele>1247.9</ele>
        <time>2026-04-29T11:33:46Z</time>
      </trkpt>
      <trkpt lat="44.97942" lon="4.17235">
        <ele>1247.9</ele>
        <time>2026-04-29T11:33:51Z</time>
      </trkpt>
      <trkpt lat="44.97942" lon="4.17235">
        <ele>1247.9</ele>
        <time>2026-04-29T11:33:56Z</time>
      </trkpt>
      <trkpt lat="44.97942" lon="4.17235">
        <ele>1247.9</ele>
        <time>2026-04-29T11:34:01Z</time>
      </trkpt>
      <trkpt lat="44.97942" lon="4.17235">
        <ele>1247.9</ele>
        <time>2026-04-29T11:34:06Z</time>
      </trkpt>
      <trkpt lat="44.97942" lon="4.17235">
        <ele>1247.9</ele>
        <time>2026-04-29T11:34:11Z</time>
      </trkpt>
      <trkpt lat="44.97942" lon="4.17235">
        <ele>1247.9</ele>
        <time>2026-04-29T11:34:16Z</time>
      </trkpt>
      <trkpt lat="44.97942" lon="4.17235">
        <ele>1247.9</ele>
        <time>2026-04-29T11:34:21Z</time>
      </trkpt>
      <trkpt lat="44.97943" lon="4.17235">
        <ele>1247.7</ele>
        <time>2026-04-29T11:34:26Z</time>
      </trkpt>
      <trkpt lat="44.97946" lon="4.17241">
        <ele>1247.6</ele>
        <time>2026-04-29T11:34:31Z</time>
      </trkpt>
      <trkpt lat="44.9795" lon="4.17244">
        <ele>1247.1</ele>
        <time>2026-04-29T11:34:36Z</time>
      </trkpt>
      <trkpt lat="44.97954" lon="4.17243">
        <ele>1246.4</ele>
        <time>2026-04-29T11:34:41Z</time>
      </trkpt>
      <trkpt lat="44.97956" lon="4.17242">
        <ele>1246</ele>
        <time>2026-04-29T11:34:46Z</time>
      </trkpt>
      <trkpt lat="44.97956" lon="4.17242">
        <ele>1246</ele>
        <time>2026-04-29T11:34:51Z</time>
      </trkpt>
      <trkpt lat="44.97956" lon="4.17242">
        <ele>1246</ele>
        <time>2026-04-29T11:34:56Z</time>
      </trkpt>
      <trkpt lat="44.97956" lon="4.17242">
        <ele>1246</ele>
        <time>2026-04-29T11:35:01Z</time>
      </trkpt>
      <trkpt lat="44.97956" lon="4.17242">
        <ele>1246</ele>
        <time>2026-04-29T11:35:06Z</time>
      </trkpt>
      <trkpt lat="44.97956" lon="4.17242">
        <ele>1246</ele>
        <time>2026-04-29T11:35:11Z</time>
      </trkpt>
      <trkpt lat="44.97956" lon="4.17242">
        <ele>1246</ele>
        <time>2026-04-29T11:35:16Z</time>
      </trkpt>
      <trkpt lat="44.97956" lon="4.17242">
        <ele>1246</ele>
        <time>2026-04-29T11:35:21Z</time>
      </trkpt>
      <trkpt lat="44.97956" lon="4.17242">
        <ele>1246</ele>
        <time>2026-04-29T11:35:26Z</time>
      </trkpt>
      <trkpt lat="44.97956" lon="4.17242">
        <ele>1246</ele>
        <time>2026-04-29T11:35:31Z</time>
      </trkpt>
      <trkpt lat="44.97956" lon="4.17242">
        <ele>1246</ele>
        <time>2026-04-29T11:35:36Z</time>
      </trkpt>
      <trkpt lat="44.97956" lon="4.17242">
        <ele>1246</ele>
        <time>2026-04-29T11:35:41Z</time>
      </trkpt>
      <trkpt lat="44.97956" lon="4.17242">
        <ele>1246</ele>
        <time>2026-04-29T11:35:46Z</time>
      </trkpt>
      <trkpt lat="44.97956" lon="4.17242">
        <ele>1246</ele>
        <time>2026-04-29T11:35:51Z</time>
      </trkpt>
      <trkpt lat="44.97956" lon="4.17242">
        <ele>1246</ele>
        <time>2026-04-29T11:35:56Z</time>
      </trkpt>
      <trkpt lat="44.97956" lon="4.17242">
        <ele>1246</ele>
        <time>2026-04-29T11:36:01Z</time>
      </trkpt>
      <trkpt lat="44.97956" lon="4.17242">
        <ele>1246</ele>
        <time>2026-04-29T11:36:06Z</time>
      </trkpt>
      <trkpt lat="44.97956" lon="4.17242">
        <ele>1246</ele>
        <time>2026-04-29T11:36:11Z</time>
      </trkpt>
      <trkpt lat="44.97956" lon="4.17242">
        <ele>1246</ele>
        <time>2026-04-29T11:36:16Z</time>
      </trkpt>
      <trkpt lat="44.97956" lon="4.17242">
        <ele>1246</ele>
        <time>2026-04-29T11:36:21Z</time>
      </trkpt>
      <trkpt lat="44.97956" lon="4.17242">
        <ele>1246</ele>
        <time>2026-04-29T11:36:26Z</time>
      </trkpt>
      <trkpt lat="44.97956" lon="4.17242">
        <ele>1246</ele>
        <time>2026-04-29T11:36:31Z</time>
      </trkpt>
      <trkpt lat="44.97956" lon="4.17242">
        <ele>1246</ele>
        <time>2026-04-29T11:36:36Z</time>
      </trkpt>
      <trkpt lat="44.97964" lon="4.17254">
        <ele>1245.2</ele>
        <time>2026-04-29T11:36:41Z</time>
      </trkpt>
      <trkpt lat="44.97965" lon="4.17258">
        <ele>1245.2</ele>
        <time>2026-04-29T11:36:46Z</time>
      </trkpt>
      <trkpt lat="44.97966" lon="4.17259">
        <ele>1245.1</ele>
        <time>2026-04-29T11:36:51Z</time>
      </trkpt>
      <trkpt lat="44.97966" lon="4.17259">
        <ele>1245.1</ele>
        <time>2026-04-29T11:36:56Z</time>
      </trkpt>
      <trkpt lat="44.97966" lon="4.17259">
        <ele>1245.1</ele>
        <time>2026-04-29T11:37:01Z</time>
      </trkpt>
      <trkpt lat="44.97966" lon="4.17259">
        <ele>1245.1</ele>
        <time>2026-04-29T11:37:06Z</time>
      </trkpt>
      <trkpt lat="44.97969" lon="4.17267">
        <ele>1245</ele>
        <time>2026-04-29T11:37:11Z</time>
      </trkpt>
      <trkpt lat="44.97973" lon="4.17264">
        <ele>1244.1</ele>
        <time>2026-04-29T11:37:16Z</time>
      </trkpt>
      <trkpt lat="44.97973" lon="4.17263">
        <ele>1244.1</ele>
        <time>2026-04-29T11:37:21Z</time>
      </trkpt>
      <trkpt lat="44.97965" lon="4.17261">
        <ele>1245.4</ele>
        <time>2026-04-29T11:37:26Z</time>
      </trkpt>
      <trkpt lat="44.97957" lon="4.17258">
        <ele>1246.6</ele>
        <time>2026-04-29T11:37:31Z</time>
      </trkpt>
      <trkpt lat="44.97953" lon="4.17256">
        <ele>1247.2</ele>
        <time>2026-04-29T11:37:36Z</time>
      </trkpt>
      <trkpt lat="44.97948" lon="4.17256">
        <ele>1248</ele>
        <time>2026-04-29T11:37:41Z</time>
      </trkpt>
      <trkpt lat="44.97942" lon="4.17258">
        <ele>1249.2</ele>
        <time>2026-04-29T11:37:46Z</time>
      </trkpt>
      <trkpt lat="44.97937" lon="4.17263">
        <ele>1250.3</ele>
        <time>2026-04-29T11:37:51Z</time>
      </trkpt>
      <trkpt lat="44.97932" lon="4.17268">
        <ele>1251.4</ele>
        <time>2026-04-29T11:37:56Z</time>
      </trkpt>
      <trkpt lat="44.97928" lon="4.1727">
        <ele>1252.2</ele>
        <time>2026-04-29T11:38:01Z</time>
      </trkpt>
      <trkpt lat="44.9792" lon="4.17273">
        <ele>1253.8</ele>
        <time>2026-04-29T11:38:06Z</time>
      </trkpt>
      <trkpt lat="44.97914" lon="4.17278">
        <ele>1255.1</ele>
        <time>2026-04-29T11:38:11Z</time>
      </trkpt>
      <trkpt lat="44.97906" lon="4.17281">
        <ele>1256.6</ele>
        <time>2026-04-29T11:38:16Z</time>
      </trkpt>
      <trkpt lat="44.97901" lon="4.17286">
        <ele>1257.7</ele>
        <time>2026-04-29T11:38:21Z</time>
      </trkpt>
      <trkpt lat="44.979" lon="4.17295">
        <ele>1258.4</ele>
        <time>2026-04-29T11:38:26Z</time>
      </trkpt>
      <trkpt lat="44.97902" lon="4.17304">
        <ele>1258.5</ele>
        <time>2026-04-29T11:38:31Z</time>
      </trkpt>
      <trkpt lat="44.97904" lon="4.17307">
        <ele>1258.4</ele>
        <time>2026-04-29T11:38:36Z</time>
      </trkpt>
      <trkpt lat="44.9791" lon="4.17305">
        <ele>1257.3</ele>
        <time>2026-04-29T11:38:41Z</time>
      </trkpt>
      <trkpt lat="44.97915" lon="4.17307">
        <ele>1256.7</ele>
        <time>2026-04-29T11:38:46Z</time>
      </trkpt>
      <trkpt lat="44.97921" lon="4.17307">
        <ele>1255.6</ele>
        <time>2026-04-29T11:38:51Z</time>
      </trkpt>
      <trkpt lat="44.97927" lon="4.1731">
        <ele>1254.7</ele>
        <time>2026-04-29T11:38:56Z</time>
      </trkpt>
      <trkpt lat="44.97932" lon="4.17316">
        <ele>1254.1</ele>
        <time>2026-04-29T11:39:01Z</time>
      </trkpt>
      <trkpt lat="44.97937" lon="4.17323">
        <ele>1253.5</ele>
        <time>2026-04-29T11:39:06Z</time>
      </trkpt>
      <trkpt lat="44.9794" lon="4.17332">
        <ele>1253.4</ele>
        <time>2026-04-29T11:39:11Z</time>
      </trkpt>
      <trkpt lat="44.97943" lon="4.17342">
        <ele>1253.1</ele>
        <time>2026-04-29T11:39:16Z</time>
      </trkpt>
      <trkpt lat="44.97947" lon="4.1735">
        <ele>1252.6</ele>
        <time>2026-04-29T11:39:21Z</time>
      </trkpt>
      <trkpt lat="44.9795" lon="4.17358">
        <ele>1252.3</ele>
        <time>2026-04-29T11:39:26Z</time>
      </trkpt>
      <trkpt lat="44.97954" lon="4.17365">
        <ele>1251.7</ele>
        <time>2026-04-29T11:39:31Z</time>
      </trkpt>
      <trkpt lat="44.97957" lon="4.17374">
        <ele>1251.5</ele>
        <time>2026-04-29T11:39:36Z</time>
      </trkpt>
      <trkpt lat="44.9796" lon="4.17381">
        <ele>1251.1</ele>
        <time>2026-04-29T11:39:41Z</time>
      </trkpt>
      <trkpt lat="44.97962" lon="4.1739">
        <ele>1251.1</ele>
        <time>2026-04-29T11:39:46Z</time>
      </trkpt>
      <trkpt lat="44.97965" lon="4.17396">
        <ele>1250.8</ele>
        <time>2026-04-29T11:39:51Z</time>
      </trkpt>
      <trkpt lat="44.97967" lon="4.17405">
        <ele>1250.8</ele>
        <time>2026-04-29T11:39:56Z</time>
      </trkpt>
      <trkpt lat="44.97969" lon="4.17412">
        <ele>1250.7</ele>
        <time>2026-04-29T11:40:01Z</time>
      </trkpt>
      <trkpt lat="44.9797" lon="4.17419">
        <ele>1250.8</ele>
        <time>2026-04-29T11:40:06Z</time>
      </trkpt>
      <trkpt lat="44.97973" lon="4.17427">
        <ele>1250.8</ele>
        <time>2026-04-29T11:40:11Z</time>
      </trkpt>
      <trkpt lat="44.97977" lon="4.17434">
        <ele>1250.7</ele>
        <time>2026-04-29T11:40:16Z</time>
      </trkpt>
      <trkpt lat="44.97979" lon="4.17441">
        <ele>1250.9</ele>
        <time>2026-04-29T11:40:21Z</time>
      </trkpt>
      <trkpt lat="44.9798" lon="4.17448">
        <ele>1251.2</ele>
        <time>2026-04-29T11:40:26Z</time>
      </trkpt>
      <trkpt lat="44.97981" lon="4.17456">
        <ele>1251.6</ele>
        <time>2026-04-29T11:40:31Z</time>
      </trkpt>
      <trkpt lat="44.97981" lon="4.17464">
        <ele>1252.2</ele>
        <time>2026-04-29T11:40:36Z</time>
      </trkpt>
      <trkpt lat="44.9798" lon="4.17468">
        <ele>1252.5</ele>
        <time>2026-04-29T11:40:41Z</time>
      </trkpt>
      <trkpt lat="44.9798" lon="4.17468">
        <ele>1252.5</ele>
        <time>2026-04-29T11:40:46Z</time>
      </trkpt>
      <trkpt lat="44.9798" lon="4.17468">
        <ele>1252.5</ele>
        <time>2026-04-29T11:40:51Z</time>
      </trkpt>
      <trkpt lat="44.97978" lon="4.17469">
        <ele>1252.8</ele>
        <time>2026-04-29T11:40:56Z</time>
      </trkpt>
      <trkpt lat="44.97976" lon="4.17474">
        <ele>1253.4</ele>
        <time>2026-04-29T11:41:01Z</time>
      </trkpt>
      <trkpt lat="44.97973" lon="4.17479">
        <ele>1254</ele>
        <time>2026-04-29T11:41:06Z</time>
      </trkpt>
      <trkpt lat="44.97968" lon="4.17483">
        <ele>1254.7</ele>
        <time>2026-04-29T11:41:11Z</time>
      </trkpt>
      <trkpt lat="44.97964" lon="4.17487">
        <ele>1255.3</ele>
        <time>2026-04-29T11:41:16Z</time>
      </trkpt>
      <trkpt lat="44.97962" lon="4.17492">
        <ele>1255.8</ele>
        <time>2026-04-29T11:41:21Z</time>
      </trkpt>
      <trkpt lat="44.9796" lon="4.17495">
        <ele>1256.1</ele>
        <time>2026-04-29T11:41:26Z</time>
      </trkpt>
      <trkpt lat="44.97959" lon="4.17504">
        <ele>1256.7</ele>
        <time>2026-04-29T11:41:31Z</time>
      </trkpt>
      <trkpt lat="44.97957" lon="4.17511">
        <ele>1257.3</ele>
        <time>2026-04-29T11:41:36Z</time>
      </trkpt>
      <trkpt lat="44.97954" lon="4.1752">
        <ele>1258.1</ele>
        <time>2026-04-29T11:41:41Z</time>
      </trkpt>
      <trkpt lat="44.97951" lon="4.17525">
        <ele>1258.6</ele>
        <time>2026-04-29T11:41:46Z</time>
      </trkpt>
      <trkpt lat="44.9795" lon="4.17529">
        <ele>1258.9</ele>
        <time>2026-04-29T11:41:51Z</time>
      </trkpt>
      <trkpt lat="44.97947" lon="4.17534">
        <ele>1259.3</ele>
        <time>2026-04-29T11:41:56Z</time>
      </trkpt>
      <trkpt lat="44.97944" lon="4.17539">
        <ele>1259.7</ele>
        <time>2026-04-29T11:42:01Z</time>
      </trkpt>
      <trkpt lat="44.97941" lon="4.17545">
        <ele>1260.1</ele>
        <time>2026-04-29T11:42:06Z</time>
      </trkpt>
      <trkpt lat="44.97938" lon="4.1755">
        <ele>1260.5</ele>
        <time>2026-04-29T11:42:11Z</time>
      </trkpt>
      <trkpt lat="44.97937" lon="4.17554">
        <ele>1260.7</ele>
        <time>2026-04-29T11:42:16Z</time>
      </trkpt>
      <trkpt lat="44.97935" lon="4.17562">
        <ele>1261.1</ele>
        <time>2026-04-29T11:42:21Z</time>
      </trkpt>
      <trkpt lat="44.97933" lon="4.17567">
        <ele>1261.3</ele>
        <time>2026-04-29T11:42:26Z</time>
      </trkpt>
      <trkpt lat="44.97931" lon="4.17573">
        <ele>1261.6</ele>
        <time>2026-04-29T11:42:31Z</time>
      </trkpt>
      <trkpt lat="44.9793" lon="4.1758">
        <ele>1261.9</ele>
        <time>2026-04-29T11:42:36Z</time>
      </trkpt>
      <trkpt lat="44.97929" lon="4.17586">
        <ele>1262.1</ele>
        <time>2026-04-29T11:42:41Z</time>
      </trkpt>
      <trkpt lat="44.97928" lon="4.17592">
        <ele>1262.4</ele>
        <time>2026-04-29T11:42:46Z</time>
      </trkpt>
      <trkpt lat="44.97928" lon="4.17596">
        <ele>1262.5</ele>
        <time>2026-04-29T11:42:51Z</time>
      </trkpt>
      <trkpt lat="44.97926" lon="4.17601">
        <ele>1262.7</ele>
        <time>2026-04-29T11:42:56Z</time>
      </trkpt>
      <trkpt lat="44.97924" lon="4.17607">
        <ele>1262.9</ele>
        <time>2026-04-29T11:43:01Z</time>
      </trkpt>
      <trkpt lat="44.97922" lon="4.17611">
        <ele>1263.1</ele>
        <time>2026-04-29T11:43:06Z</time>
      </trkpt>
      <trkpt lat="44.9792" lon="4.17619">
        <ele>1263.3</ele>
        <time>2026-04-29T11:43:11Z</time>
      </trkpt>
      <trkpt lat="44.97918" lon="4.17627">
        <ele>1263.6</ele>
        <time>2026-04-29T11:43:16Z</time>
      </trkpt>
      <trkpt lat="44.97916" lon="4.17632">
        <ele>1263.9</ele>
        <time>2026-04-29T11:43:21Z</time>
      </trkpt>
      <trkpt lat="44.97915" lon="4.17638">
        <ele>1264.2</ele>
        <time>2026-04-29T11:43:26Z</time>
      </trkpt>
      <trkpt lat="44.97913" lon="4.17643">
        <ele>1264.7</ele>
        <time>2026-04-29T11:43:31Z</time>
      </trkpt>
      <trkpt lat="44.97912" lon="4.17648">
        <ele>1265</ele>
        <time>2026-04-29T11:43:36Z</time>
      </trkpt>
      <trkpt lat="44.97908" lon="4.17655">
        <ele>1265.7</ele>
        <time>2026-04-29T11:43:41Z</time>
      </trkpt>
      <trkpt lat="44.97907" lon="4.17661">
        <ele>1266</ele>
        <time>2026-04-29T11:43:46Z</time>
      </trkpt>
      <trkpt lat="44.97905" lon="4.17668">
        <ele>1266.4</ele>
        <time>2026-04-29T11:43:51Z</time>
      </trkpt>
      <trkpt lat="44.97905" lon="4.17674">
        <ele>1266.6</ele>
        <time>2026-04-29T11:43:56Z</time>
      </trkpt>
      <trkpt lat="44.97906" lon="4.17681">
        <ele>1266.7</ele>
        <time>2026-04-29T11:44:01Z</time>
      </trkpt>
      <trkpt lat="44.97905" lon="4.17687">
        <ele>1267</ele>
        <time>2026-04-29T11:44:06Z</time>
      </trkpt>
      <trkpt lat="44.97906" lon="4.17695">
        <ele>1267.2</ele>
        <time>2026-04-29T11:44:11Z</time>
      </trkpt>
      <trkpt lat="44.97906" lon="4.17701">
        <ele>1267.4</ele>
        <time>2026-04-29T11:44:16Z</time>
      </trkpt>
      <trkpt lat="44.97906" lon="4.17707">
        <ele>1267.5</ele>
        <time>2026-04-29T11:44:21Z</time>
      </trkpt>
      <trkpt lat="44.97906" lon="4.17714">
        <ele>1267.8</ele>
        <time>2026-04-29T11:44:26Z</time>
      </trkpt>
      <trkpt lat="44.97905" lon="4.17719">
        <ele>1268</ele>
        <time>2026-04-29T11:44:31Z</time>
      </trkpt>
      <trkpt lat="44.97903" lon="4.17725">
        <ele>1268.4</ele>
        <time>2026-04-29T11:44:36Z</time>
      </trkpt>
      <trkpt lat="44.97903" lon="4.17731">
        <ele>1268.6</ele>
        <time>2026-04-29T11:44:41Z</time>
      </trkpt>
      <trkpt lat="44.97904" lon="4.17738">
        <ele>1268.7</ele>
        <time>2026-04-29T11:44:46Z</time>
      </trkpt>
      <trkpt lat="44.97903" lon="4.17746">
        <ele>1269</ele>
        <time>2026-04-29T11:44:51Z</time>
      </trkpt>
      <trkpt lat="44.97902" lon="4.17752">
        <ele>1269.3</ele>
        <time>2026-04-29T11:44:56Z</time>
      </trkpt>
      <trkpt lat="44.979" lon="4.17759">
        <ele>1269.8</ele>
        <time>2026-04-29T11:45:01Z</time>
      </trkpt>
      <trkpt lat="44.979" lon="4.17766">
        <ele>1270.1</ele>
        <time>2026-04-29T11:45:06Z</time>
      </trkpt>
      <trkpt lat="44.97899" lon="4.17772">
        <ele>1270.4</ele>
        <time>2026-04-29T11:45:11Z</time>
      </trkpt>
      <trkpt lat="44.97901" lon="4.1778">
        <ele>1270.6</ele>
        <time>2026-04-29T11:45:16Z</time>
      </trkpt>
      <trkpt lat="44.97901" lon="4.17788">
        <ele>1271</ele>
        <time>2026-04-29T11:45:21Z</time>
      </trkpt>
      <trkpt lat="44.97901" lon="4.17795">
        <ele>1271.3</ele>
        <time>2026-04-29T11:45:26Z</time>
      </trkpt>
      <trkpt lat="44.97902" lon="4.178">
        <ele>1271.4</ele>
        <time>2026-04-29T11:45:31Z</time>
      </trkpt>
      <trkpt lat="44.97901" lon="4.17804">
        <ele>1271.7</ele>
        <time>2026-04-29T11:45:36Z</time>
      </trkpt>
      <trkpt lat="44.979" lon="4.17809">
        <ele>1271.9</ele>
        <time>2026-04-29T11:45:41Z</time>
      </trkpt>
      <trkpt lat="44.97901" lon="4.17816">
        <ele>1272.2</ele>
        <time>2026-04-29T11:45:46Z</time>
      </trkpt>
      <trkpt lat="44.97901" lon="4.17822">
        <ele>1272.4</ele>
        <time>2026-04-29T11:45:51Z</time>
      </trkpt>
      <trkpt lat="44.97901" lon="4.17826">
        <ele>1272.6</ele>
        <time>2026-04-29T11:45:56Z</time>
      </trkpt>
      <trkpt lat="44.979" lon="4.17831">
        <ele>1272.9</ele>
        <time>2026-04-29T11:46:01Z</time>
      </trkpt>
      <trkpt lat="44.97901" lon="4.17835">
        <ele>1273</ele>
        <time>2026-04-29T11:46:06Z</time>
      </trkpt>
      <trkpt lat="44.979" lon="4.1784">
        <ele>1273.3</ele>
        <time>2026-04-29T11:46:11Z</time>
      </trkpt>
      <trkpt lat="44.979" lon="4.17846">
        <ele>1273.6</ele>
        <time>2026-04-29T11:46:16Z</time>
      </trkpt>
      <trkpt lat="44.979" lon="4.17853">
        <ele>1274</ele>
        <time>2026-04-29T11:46:21Z</time>
      </trkpt>
      <trkpt lat="44.979" lon="4.17859">
        <ele>1274.3</ele>
        <time>2026-04-29T11:46:26Z</time>
      </trkpt>
      <trkpt lat="44.97902" lon="4.17866">
        <ele>1274.6</ele>
        <time>2026-04-29T11:46:31Z</time>
      </trkpt>
      <trkpt lat="44.97902" lon="4.17871">
        <ele>1274.8</ele>
        <time>2026-04-29T11:46:36Z</time>
      </trkpt>
      <trkpt lat="44.97902" lon="4.17879">
        <ele>1275.2</ele>
        <time>2026-04-29T11:46:41Z</time>
      </trkpt>
      <trkpt lat="44.97903" lon="4.17884">
        <ele>1275.5</ele>
        <time>2026-04-29T11:46:46Z</time>
      </trkpt>
      <trkpt lat="44.97903" lon="4.17889">
        <ele>1275.7</ele>
        <time>2026-04-29T11:46:51Z</time>
      </trkpt>
      <trkpt lat="44.97905" lon="4.17893">
        <ele>1275.9</ele>
        <time>2026-04-29T11:46:56Z</time>
      </trkpt>
      <trkpt lat="44.97907" lon="4.17898">
        <ele>1276.1</ele>
        <time>2026-04-29T11:47:01Z</time>
      </trkpt>
      <trkpt lat="44.9791" lon="4.17902">
        <ele>1276.3</ele>
        <time>2026-04-29T11:47:06Z</time>
      </trkpt>
      <trkpt lat="44.97912" lon="4.17906">
        <ele>1276.4</ele>
        <time>2026-04-29T11:47:11Z</time>
      </trkpt>
      <trkpt lat="44.97914" lon="4.17911">
        <ele>1276.7</ele>
        <time>2026-04-29T11:47:16Z</time>
      </trkpt>
      <trkpt lat="44.97916" lon="4.17914">
        <ele>1276.8</ele>
        <time>2026-04-29T11:47:21Z</time>
      </trkpt>
      <trkpt lat="44.97917" lon="4.17917">
        <ele>1277.1</ele>
        <time>2026-04-29T11:47:26Z</time>
      </trkpt>
      <trkpt lat="44.97917" lon="4.17917">
        <ele>1277.1</ele>
        <time>2026-04-29T11:47:31Z</time>
      </trkpt>
      <trkpt lat="44.97921" lon="4.17924">
        <ele>1277.7</ele>
        <time>2026-04-29T11:47:36Z</time>
      </trkpt>
      <trkpt lat="44.97928" lon="4.17925">
        <ele>1278.7</ele>
        <time>2026-04-29T11:47:41Z</time>
      </trkpt>
      <trkpt lat="44.97931" lon="4.17929">
        <ele>1279.1</ele>
        <time>2026-04-29T11:47:46Z</time>
      </trkpt>
      <trkpt lat="44.97933" lon="4.17935">
        <ele>1279.5</ele>
        <time>2026-04-29T11:47:51Z</time>
      </trkpt>
      <trkpt lat="44.97936" lon="4.17939">
        <ele>1280</ele>
        <time>2026-04-29T11:47:56Z</time>
      </trkpt>
      <trkpt lat="44.97937" lon="4.17942">
        <ele>1280.1</ele>
        <time>2026-04-29T11:48:01Z</time>
      </trkpt>
      <trkpt lat="44.97938" lon="4.17942">
        <ele>1280.3</ele>
        <time>2026-04-29T11:48:06Z</time>
      </trkpt>
      <trkpt lat="44.97938" lon="4.17942">
        <ele>1280.3</ele>
        <time>2026-04-29T11:48:11Z</time>
      </trkpt>
      <trkpt lat="44.97938" lon="4.17942">
        <ele>1280.3</ele>
        <time>2026-04-29T11:48:16Z</time>
      </trkpt>
      <trkpt lat="44.97938" lon="4.17942">
        <ele>1280.3</ele>
        <time>2026-04-29T11:48:21Z</time>
      </trkpt>
      <trkpt lat="44.97938" lon="4.17942">
        <ele>1280.3</ele>
        <time>2026-04-29T11:48:26Z</time>
      </trkpt>
      <trkpt lat="44.97938" lon="4.17942">
        <ele>1280.3</ele>
        <time>2026-04-29T11:48:31Z</time>
      </trkpt>
      <trkpt lat="44.97938" lon="4.17942">
        <ele>1280.3</ele>
        <time>2026-04-29T11:48:36Z</time>
      </trkpt>
      <trkpt lat="44.97938" lon="4.17942">
        <ele>1280.3</ele>
        <time>2026-04-29T11:48:41Z</time>
      </trkpt>
      <trkpt lat="44.97938" lon="4.17942">
        <ele>1280.3</ele>
        <time>2026-04-29T11:48:46Z</time>
      </trkpt>
      <trkpt lat="44.97938" lon="4.17942">
        <ele>1280.3</ele>
        <time>2026-04-29T11:48:51Z</time>
      </trkpt>
      <trkpt lat="44.97938" lon="4.17942">
        <ele>1280.3</ele>
        <time>2026-04-29T11:48:56Z</time>
      </trkpt>
      <trkpt lat="44.97938" lon="4.17942">
        <ele>1280.3</ele>
        <time>2026-04-29T11:49:01Z</time>
      </trkpt>
      <trkpt lat="44.97938" lon="4.17942">
        <ele>1280.3</ele>
        <time>2026-04-29T11:49:06Z</time>
      </trkpt>
      <trkpt lat="44.97938" lon="4.17942">
        <ele>1280.3</ele>
        <time>2026-04-29T11:49:11Z</time>
      </trkpt>
      <trkpt lat="44.97938" lon="4.17942">
        <ele>1280.3</ele>
        <time>2026-04-29T11:49:16Z</time>
      </trkpt>
      <trkpt lat="44.97938" lon="4.17942">
        <ele>1280.3</ele>
        <time>2026-04-29T11:49:21Z</time>
      </trkpt>
      <trkpt lat="44.97938" lon="4.17942">
        <ele>1280.3</ele>
        <time>2026-04-29T11:49:26Z</time>
      </trkpt>
      <trkpt lat="44.97938" lon="4.17942">
        <ele>1280.3</ele>
        <time>2026-04-29T11:49:31Z</time>
      </trkpt>
      <trkpt lat="44.97938" lon="4.17942">
        <ele>1280.3</ele>
        <time>2026-04-29T11:49:36Z</time>
      </trkpt>
      <trkpt lat="44.97938" lon="4.17942">
        <ele>1280.3</ele>
        <time>2026-04-29T11:49:41Z</time>
      </trkpt>
      <trkpt lat="44.97938" lon="4.17942">
        <ele>1280.3</ele>
        <time>2026-04-29T11:49:46Z</time>
      </trkpt>
      <trkpt lat="44.97938" lon="4.17942">
        <ele>1280.3</ele>
        <time>2026-04-29T11:49:51Z</time>
      </trkpt>
      <trkpt lat="44.97938" lon="4.17942">
        <ele>1280.3</ele>
        <time>2026-04-29T11:49:56Z</time>
      </trkpt>
      <trkpt lat="44.97938" lon="4.17942">
        <ele>1280.3</ele>
        <time>2026-04-29T11:50:01Z</time>
      </trkpt>
      <trkpt lat="44.97938" lon="4.17942">
        <ele>1280.3</ele>
        <time>2026-04-29T11:50:06Z</time>
      </trkpt>
      <trkpt lat="44.97938" lon="4.17942">
        <ele>1280.3</ele>
        <time>2026-04-29T11:50:11Z</time>
      </trkpt>
      <trkpt lat="44.97939" lon="4.1795">
        <ele>1280.5</ele>
        <time>2026-04-29T11:50:16Z</time>
      </trkpt>
      <trkpt lat="44.97942" lon="4.17956">
        <ele>1281</ele>
        <time>2026-04-29T11:50:21Z</time>
      </trkpt>
      <trkpt lat="44.97944" lon="4.1796">
        <ele>1281.3</ele>
        <time>2026-04-29T11:50:26Z</time>
      </trkpt>
      <trkpt lat="44.97947" lon="4.17965">
        <ele>1281.7</ele>
        <time>2026-04-29T11:50:31Z</time>
      </trkpt>
      <trkpt lat="44.9795" lon="4.17969">
        <ele>1282.2</ele>
        <time>2026-04-29T11:50:36Z</time>
      </trkpt>
      <trkpt lat="44.97953" lon="4.17974">
        <ele>1282.6</ele>
        <time>2026-04-29T11:50:41Z</time>
      </trkpt>
      <trkpt lat="44.97956" lon="4.1798">
        <ele>1283</ele>
        <time>2026-04-29T11:50:46Z</time>
      </trkpt>
      <trkpt lat="44.97959" lon="4.17985">
        <ele>1283.4</ele>
        <time>2026-04-29T11:50:51Z</time>
      </trkpt>
      <trkpt lat="44.97961" lon="4.17991">
        <ele>1283.7</ele>
        <time>2026-04-29T11:50:56Z</time>
      </trkpt>
      <trkpt lat="44.97963" lon="4.17995">
        <ele>1284</ele>
        <time>2026-04-29T11:51:01Z</time>
      </trkpt>
      <trkpt lat="44.97966" lon="4.18">
        <ele>1284.3</ele>
        <time>2026-04-29T11:51:06Z</time>
      </trkpt>
      <trkpt lat="44.97967" lon="4.18005">
        <ele>1284.6</ele>
        <time>2026-04-29T11:51:11Z</time>
      </trkpt>
      <trkpt lat="44.97969" lon="4.18011">
        <ele>1284.9</ele>
        <time>2026-04-29T11:51:16Z</time>
      </trkpt>
      <trkpt lat="44.97971" lon="4.18017">
        <ele>1285.3</ele>
        <time>2026-04-29T11:51:21Z</time>
      </trkpt>
      <trkpt lat="44.97973" lon="4.18023">
        <ele>1285.6</ele>
        <time>2026-04-29T11:51:26Z</time>
      </trkpt>
      <trkpt lat="44.97974" lon="4.1803">
        <ele>1285.9</ele>
        <time>2026-04-29T11:51:31Z</time>
      </trkpt>
      <trkpt lat="44.97975" lon="4.18037">
        <ele>1286.2</ele>
        <time>2026-04-29T11:51:36Z</time>
      </trkpt>
      <trkpt lat="44.97976" lon="4.18044">
        <ele>1286.5</ele>
        <time>2026-04-29T11:51:41Z</time>
      </trkpt>
      <trkpt lat="44.97977" lon="4.18051">
        <ele>1286.7</ele>
        <time>2026-04-29T11:51:46Z</time>
      </trkpt>
      <trkpt lat="44.97978" lon="4.18058">
        <ele>1287</ele>
        <time>2026-04-29T11:51:51Z</time>
      </trkpt>
      <trkpt lat="44.97979" lon="4.18064">
        <ele>1287.3</ele>
        <time>2026-04-29T11:51:56Z</time>
      </trkpt>
      <trkpt lat="44.9798" lon="4.1807">
        <ele>1287.5</ele>
        <time>2026-04-29T11:52:01Z</time>
      </trkpt>
      <trkpt lat="44.97982" lon="4.18076">
        <ele>1287.9</ele>
        <time>2026-04-29T11:52:06Z</time>
      </trkpt>
      <trkpt lat="44.97982" lon="4.18082">
        <ele>1288</ele>
        <time>2026-04-29T11:52:11Z</time>
      </trkpt>
      <trkpt lat="44.97982" lon="4.18087">
        <ele>1288.1</ele>
        <time>2026-04-29T11:52:16Z</time>
      </trkpt>
      <trkpt lat="44.97981" lon="4.18089">
        <ele>1288</ele>
        <time>2026-04-29T11:52:21Z</time>
      </trkpt>
      <trkpt lat="44.97981" lon="4.18089">
        <ele>1288</ele>
        <time>2026-04-29T11:52:26Z</time>
      </trkpt>
      <trkpt lat="44.97975" lon="4.1809">
        <ele>1287.4</ele>
        <time>2026-04-29T11:52:31Z</time>
      </trkpt>
      <trkpt lat="44.9797" lon="4.18087">
        <ele>1286.8</ele>
        <time>2026-04-29T11:52:36Z</time>
      </trkpt>
      <trkpt lat="44.97966" lon="4.1808">
        <ele>1286.2</ele>
        <time>2026-04-29T11:52:41Z</time>
      </trkpt>
      <trkpt lat="44.97962" lon="4.18076">
        <ele>1285.7</ele>
        <time>2026-04-29T11:52:46Z</time>
      </trkpt>
      <trkpt lat="44.97959" lon="4.18069">
        <ele>1285.2</ele>
        <time>2026-04-29T11:52:51Z</time>
      </trkpt>
      <trkpt lat="44.97956" lon="4.18061">
        <ele>1284.7</ele>
        <time>2026-04-29T11:52:56Z</time>
      </trkpt>
      <trkpt lat="44.97952" lon="4.18054">
        <ele>1284.1</ele>
        <time>2026-04-29T11:53:01Z</time>
      </trkpt>
      <trkpt lat="44.97948" lon="4.18047">
        <ele>1283.5</ele>
        <time>2026-04-29T11:53:06Z</time>
      </trkpt>
      <trkpt lat="44.97942" lon="4.18039">
        <ele>1282.7</ele>
        <time>2026-04-29T11:53:11Z</time>
      </trkpt>
      <trkpt lat="44.97938" lon="4.18034">
        <ele>1282.1</ele>
        <time>2026-04-29T11:53:16Z</time>
      </trkpt>
      <trkpt lat="44.97932" lon="4.18027">
        <ele>1281.3</ele>
        <time>2026-04-29T11:53:21Z</time>
      </trkpt>
      <trkpt lat="44.97926" lon="4.18023">
        <ele>1280.6</ele>
        <time>2026-04-29T11:53:26Z</time>
      </trkpt>
      <trkpt lat="44.9792" lon="4.18017">
        <ele>1279.8</ele>
        <time>2026-04-29T11:53:31Z</time>
      </trkpt>
      <trkpt lat="44.97915" lon="4.18013">
        <ele>1279.3</ele>
        <time>2026-04-29T11:53:36Z</time>
      </trkpt>
      <trkpt lat="44.9791" lon="4.18008">
        <ele>1279</ele>
        <time>2026-04-29T11:53:41Z</time>
      </trkpt>
      <trkpt lat="44.97902" lon="4.18003">
        <ele>1278.7</ele>
        <time>2026-04-29T11:53:46Z</time>
      </trkpt>
      <trkpt lat="44.97896" lon="4.17999">
        <ele>1278.5</ele>
        <time>2026-04-29T11:53:51Z</time>
      </trkpt>
      <trkpt lat="44.9789" lon="4.17995">
        <ele>1278.3</ele>
        <time>2026-04-29T11:53:56Z</time>
      </trkpt>
      <trkpt lat="44.97884" lon="4.17989">
        <ele>1278.1</ele>
        <time>2026-04-29T11:54:01Z</time>
      </trkpt>
      <trkpt lat="44.9788" lon="4.17985">
        <ele>1278</ele>
        <time>2026-04-29T11:54:06Z</time>
      </trkpt>
      <trkpt lat="44.97876" lon="4.17981">
        <ele>1277.9</ele>
        <time>2026-04-29T11:54:11Z</time>
      </trkpt>
      <trkpt lat="44.9787" lon="4.17977">
        <ele>1277.8</ele>
        <time>2026-04-29T11:54:16Z</time>
      </trkpt>
      <trkpt lat="44.97864" lon="4.17973">
        <ele>1277.7</ele>
        <time>2026-04-29T11:54:21Z</time>
      </trkpt>
      <trkpt lat="44.97859" lon="4.17966">
        <ele>1277.6</ele>
        <time>2026-04-29T11:54:26Z</time>
      </trkpt>
      <trkpt lat="44.97851" lon="4.1796">
        <ele>1277.6</ele>
        <time>2026-04-29T11:54:31Z</time>
      </trkpt>
      <trkpt lat="44.97845" lon="4.17955">
        <ele>1277.6</ele>
        <time>2026-04-29T11:54:36Z</time>
      </trkpt>
      <trkpt lat="44.97838" lon="4.17951">
        <ele>1277.6</ele>
        <time>2026-04-29T11:54:41Z</time>
      </trkpt>
      <trkpt lat="44.97832" lon="4.17945">
        <ele>1277.7</ele>
        <time>2026-04-29T11:54:46Z</time>
      </trkpt>
      <trkpt lat="44.97827" lon="4.1794">
        <ele>1277.9</ele>
        <time>2026-04-29T11:54:51Z</time>
      </trkpt>
      <trkpt lat="44.97822" lon="4.17936">
        <ele>1278.1</ele>
        <time>2026-04-29T11:54:56Z</time>
      </trkpt>
      <trkpt lat="44.97817" lon="4.17931">
        <ele>1278.3</ele>
        <time>2026-04-29T11:55:01Z</time>
      </trkpt>
      <trkpt lat="44.97811" lon="4.17927">
        <ele>1278.6</ele>
        <time>2026-04-29T11:55:06Z</time>
      </trkpt>
      <trkpt lat="44.97806" lon="4.17921">
        <ele>1278.9</ele>
        <time>2026-04-29T11:55:11Z</time>
      </trkpt>
      <trkpt lat="44.97799" lon="4.17915">
        <ele>1279.2</ele>
        <time>2026-04-29T11:55:16Z</time>
      </trkpt>
      <trkpt lat="44.97794" lon="4.1791">
        <ele>1279.4</ele>
        <time>2026-04-29T11:55:21Z</time>
      </trkpt>
      <trkpt lat="44.97789" lon="4.17904">
        <ele>1279.5</ele>
        <time>2026-04-29T11:55:26Z</time>
      </trkpt>
      <trkpt lat="44.97782" lon="4.179">
        <ele>1279.8</ele>
        <time>2026-04-29T11:55:31Z</time>
      </trkpt>
      <trkpt lat="44.97777" lon="4.17894">
        <ele>1279.9</ele>
        <time>2026-04-29T11:55:36Z</time>
      </trkpt>
      <trkpt lat="44.97772" lon="4.1789">
        <ele>1280.1</ele>
        <time>2026-04-29T11:55:41Z</time>
      </trkpt>
      <trkpt lat="44.97768" lon="4.17884">
        <ele>1280.3</ele>
        <time>2026-04-29T11:55:46Z</time>
      </trkpt>
      <trkpt lat="44.97761" lon="4.17879">
        <ele>1280.5</ele>
        <time>2026-04-29T11:55:51Z</time>
      </trkpt>
      <trkpt lat="44.97756" lon="4.17873">
        <ele>1280.7</ele>
        <time>2026-04-29T11:55:56Z</time>
      </trkpt>
      <trkpt lat="44.97752" lon="4.17867">
        <ele>1280.9</ele>
        <time>2026-04-29T11:56:01Z</time>
      </trkpt>
      <trkpt lat="44.97745" lon="4.17861">
        <ele>1281.1</ele>
        <time>2026-04-29T11:56:06Z</time>
      </trkpt>
      <trkpt lat="44.97741" lon="4.17856">
        <ele>1281.1</ele>
        <time>2026-04-29T11:56:11Z</time>
      </trkpt>
      <trkpt lat="44.97735" lon="4.1785">
        <ele>1281.2</ele>
        <time>2026-04-29T11:56:16Z</time>
      </trkpt>
      <trkpt lat="44.97729" lon="4.17844">
        <ele>1281.3</ele>
        <time>2026-04-29T11:56:21Z</time>
      </trkpt>
      <trkpt lat="44.97723" lon="4.1784">
        <ele>1281.3</ele>
        <time>2026-04-29T11:56:26Z</time>
      </trkpt>
      <trkpt lat="44.97718" lon="4.17834">
        <ele>1281.4</ele>
        <time>2026-04-29T11:56:31Z</time>
      </trkpt>
      <trkpt lat="44.97713" lon="4.17829">
        <ele>1281.4</ele>
        <time>2026-04-29T11:56:36Z</time>
      </trkpt>
      <trkpt lat="44.97709" lon="4.17825">
        <ele>1281.3</ele>
        <time>2026-04-29T11:56:41Z</time>
      </trkpt>
      <trkpt lat="44.97704" lon="4.17819">
        <ele>1281.3</ele>
        <time>2026-04-29T11:56:46Z</time>
      </trkpt>
      <trkpt lat="44.97699" lon="4.17814">
        <ele>1281.3</ele>
        <time>2026-04-29T11:56:51Z</time>
      </trkpt>
      <trkpt lat="44.97693" lon="4.1781">
        <ele>1281.3</ele>
        <time>2026-04-29T11:56:56Z</time>
      </trkpt>
      <trkpt lat="44.97688" lon="4.17804">
        <ele>1281.3</ele>
        <time>2026-04-29T11:57:01Z</time>
      </trkpt>
      <trkpt lat="44.97681" lon="4.17802">
        <ele>1281.4</ele>
        <time>2026-04-29T11:57:06Z</time>
      </trkpt>
      <trkpt lat="44.97676" lon="4.17798">
        <ele>1281.4</ele>
        <time>2026-04-29T11:57:11Z</time>
      </trkpt>
      <trkpt lat="44.9767" lon="4.17795">
        <ele>1281.5</ele>
        <time>2026-04-29T11:57:16Z</time>
      </trkpt>
      <trkpt lat="44.97664" lon="4.17792">
        <ele>1281.5</ele>
        <time>2026-04-29T11:57:21Z</time>
      </trkpt>
      <trkpt lat="44.97657" lon="4.1779">
        <ele>1281.6</ele>
        <time>2026-04-29T11:57:26Z</time>
      </trkpt>
      <trkpt lat="44.97652" lon="4.17789">
        <ele>1281.7</ele>
        <time>2026-04-29T11:57:31Z</time>
      </trkpt>
      <trkpt lat="44.97645" lon="4.17787">
        <ele>1281.7</ele>
        <time>2026-04-29T11:57:36Z</time>
      </trkpt>
      <trkpt lat="44.9764" lon="4.17785">
        <ele>1281.8</ele>
        <time>2026-04-29T11:57:41Z</time>
      </trkpt>
      <trkpt lat="44.97633" lon="4.17784">
        <ele>1281.9</ele>
        <time>2026-04-29T11:57:46Z</time>
      </trkpt>
      <trkpt lat="44.97626" lon="4.17781">
        <ele>1282</ele>
        <time>2026-04-29T11:57:51Z</time>
      </trkpt>
      <trkpt lat="44.97619" lon="4.1778">
        <ele>1282.1</ele>
        <time>2026-04-29T11:57:56Z</time>
      </trkpt>
      <trkpt lat="44.97614" lon="4.17779">
        <ele>1282.2</ele>
        <time>2026-04-29T11:58:01Z</time>
      </trkpt>
      <trkpt lat="44.97607" lon="4.17777">
        <ele>1282.3</ele>
        <time>2026-04-29T11:58:06Z</time>
      </trkpt>
      <trkpt lat="44.97603" lon="4.17775">
        <ele>1282.4</ele>
        <time>2026-04-29T11:58:11Z</time>
      </trkpt>
      <trkpt lat="44.97597" lon="4.17773">
        <ele>1282.5</ele>
        <time>2026-04-29T11:58:16Z</time>
      </trkpt>
      <trkpt lat="44.97591" lon="4.17768">
        <ele>1282.6</ele>
        <time>2026-04-29T11:58:21Z</time>
      </trkpt>
      <trkpt lat="44.97585" lon="4.17766">
        <ele>1282.8</ele>
        <time>2026-04-29T11:58:26Z</time>
      </trkpt>
      <trkpt lat="44.97579" lon="4.17762">
        <ele>1282.8</ele>
        <time>2026-04-29T11:58:31Z</time>
      </trkpt>
      <trkpt lat="44.97573" lon="4.1776">
        <ele>1282.9</ele>
        <time>2026-04-29T11:58:36Z</time>
      </trkpt>
      <trkpt lat="44.97567" lon="4.17758">
        <ele>1282.9</ele>
        <time>2026-04-29T11:58:41Z</time>
      </trkpt>
      <trkpt lat="44.97561" lon="4.17756">
        <ele>1282.9</ele>
        <time>2026-04-29T11:58:46Z</time>
      </trkpt>
      <trkpt lat="44.97557" lon="4.17754">
        <ele>1282.9</ele>
        <time>2026-04-29T11:58:51Z</time>
      </trkpt>
      <trkpt lat="44.97556" lon="4.17752">
        <ele>1283</ele>
        <time>2026-04-29T11:58:56Z</time>
      </trkpt>
      <trkpt lat="44.97556" lon="4.17751">
        <ele>1283</ele>
        <time>2026-04-29T11:59:01Z</time>
      </trkpt>
      <trkpt lat="44.97556" lon="4.17751">
        <ele>1283</ele>
        <time>2026-04-29T11:59:06Z</time>
      </trkpt>
      <trkpt lat="44.97556" lon="4.17751">
        <ele>1283</ele>
        <time>2026-04-29T11:59:11Z</time>
      </trkpt>
      <trkpt lat="44.97556" lon="4.17751">
        <ele>1283</ele>
        <time>2026-04-29T11:59:16Z</time>
      </trkpt>
      <trkpt lat="44.97556" lon="4.17751">
        <ele>1283</ele>
        <time>2026-04-29T11:59:21Z</time>
      </trkpt>
      <trkpt lat="44.97549" lon="4.17752">
        <ele>1283</ele>
        <time>2026-04-29T11:59:26Z</time>
      </trkpt>
      <trkpt lat="44.97546" lon="4.17757">
        <ele>1282.8</ele>
        <time>2026-04-29T11:59:31Z</time>
      </trkpt>
      <trkpt lat="44.97547" lon="4.17764">
        <ele>1282.7</ele>
        <time>2026-04-29T11:59:36Z</time>
      </trkpt>
      <trkpt lat="44.97549" lon="4.17771">
        <ele>1282.5</ele>
        <time>2026-04-29T11:59:41Z</time>
      </trkpt>
      <trkpt lat="44.97552" lon="4.17778">
        <ele>1282.4</ele>
        <time>2026-04-29T11:59:46Z</time>
      </trkpt>
      <trkpt lat="44.97554" lon="4.17788">
        <ele>1282.2</ele>
        <time>2026-04-29T11:59:51Z</time>
      </trkpt>
      <trkpt lat="44.97557" lon="4.17796">
        <ele>1282.1</ele>
        <time>2026-04-29T11:59:56Z</time>
      </trkpt>
      <trkpt lat="44.9756" lon="4.17804">
        <ele>1282</ele>
        <time>2026-04-29T12:00:01Z</time>
      </trkpt>
      <trkpt lat="44.97563" lon="4.17812">
        <ele>1281.9</ele>
        <time>2026-04-29T12:00:06Z</time>
      </trkpt>
      <trkpt lat="44.97565" lon="4.17822">
        <ele>1281.8</ele>
        <time>2026-04-29T12:00:11Z</time>
      </trkpt>
      <trkpt lat="44.97567" lon="4.1783">
        <ele>1281.7</ele>
        <time>2026-04-29T12:00:16Z</time>
      </trkpt>
      <trkpt lat="44.97569" lon="4.1784">
        <ele>1281.6</ele>
        <time>2026-04-29T12:00:21Z</time>
      </trkpt>
      <trkpt lat="44.97572" lon="4.17849">
        <ele>1281.5</ele>
        <time>2026-04-29T12:00:26Z</time>
      </trkpt>
      <trkpt lat="44.97576" lon="4.17859">
        <ele>1281.5</ele>
        <time>2026-04-29T12:00:31Z</time>
      </trkpt>
      <trkpt lat="44.97579" lon="4.17869">
        <ele>1281.4</ele>
        <time>2026-04-29T12:00:36Z</time>
      </trkpt>
      <trkpt lat="44.97581" lon="4.17875">
        <ele>1281.4</ele>
        <time>2026-04-29T12:00:41Z</time>
      </trkpt>
      <trkpt lat="44.97584" lon="4.17883">
        <ele>1281.4</ele>
        <time>2026-04-29T12:00:46Z</time>
      </trkpt>
      <trkpt lat="44.97587" lon="4.17892">
        <ele>1281.3</ele>
        <time>2026-04-29T12:00:51Z</time>
      </trkpt>
      <trkpt lat="44.97588" lon="4.179">
        <ele>1281.2</ele>
        <time>2026-04-29T12:00:56Z</time>
      </trkpt>
      <trkpt lat="44.97591" lon="4.17911">
        <ele>1281.2</ele>
        <time>2026-04-29T12:01:01Z</time>
      </trkpt>
      <trkpt lat="44.97593" lon="4.1792">
        <ele>1281.1</ele>
        <time>2026-04-29T12:01:06Z</time>
      </trkpt>
      <trkpt lat="44.97595" lon="4.17929">
        <ele>1281</ele>
        <time>2026-04-29T12:01:11Z</time>
      </trkpt>
      <trkpt lat="44.97598" lon="4.17938">
        <ele>1280.9</ele>
        <time>2026-04-29T12:01:16Z</time>
      </trkpt>
      <trkpt lat="44.97601" lon="4.17947">
        <ele>1280.8</ele>
        <time>2026-04-29T12:01:21Z</time>
      </trkpt>
      <trkpt lat="44.97603" lon="4.17957">
        <ele>1280.8</ele>
        <time>2026-04-29T12:01:26Z</time>
      </trkpt>
      <trkpt lat="44.97606" lon="4.17967">
        <ele>1280.7</ele>
        <time>2026-04-29T12:01:31Z</time>
      </trkpt>
      <trkpt lat="44.97607" lon="4.17977">
        <ele>1280.6</ele>
        <time>2026-04-29T12:01:36Z</time>
      </trkpt>
      <trkpt lat="44.97609" lon="4.17987">
        <ele>1280.5</ele>
        <time>2026-04-29T12:01:41Z</time>
      </trkpt>
      <trkpt lat="44.9761" lon="4.17995">
        <ele>1280.4</ele>
        <time>2026-04-29T12:01:46Z</time>
      </trkpt>
      <trkpt lat="44.97613" lon="4.18002">
        <ele>1280.2</ele>
        <time>2026-04-29T12:01:51Z</time>
      </trkpt>
      <trkpt lat="44.97613" lon="4.18012">
        <ele>1279.5</ele>
        <time>2026-04-29T12:01:56Z</time>
      </trkpt>
      <trkpt lat="44.97616" lon="4.18021">
        <ele>1279</ele>
        <time>2026-04-29T12:02:01Z</time>
      </trkpt>
      <trkpt lat="44.97618" lon="4.18032">
        <ele>1278.3</ele>
        <time>2026-04-29T12:02:06Z</time>
      </trkpt>
      <trkpt lat="44.9762" lon="4.18042">
        <ele>1277.6</ele>
        <time>2026-04-29T12:02:11Z</time>
      </trkpt>
      <trkpt lat="44.97622" lon="4.18049">
        <ele>1277.2</ele>
        <time>2026-04-29T12:02:16Z</time>
      </trkpt>
      <trkpt lat="44.97626" lon="4.18057">
        <ele>1276.8</ele>
        <time>2026-04-29T12:02:21Z</time>
      </trkpt>
      <trkpt lat="44.97629" lon="4.18064">
        <ele>1276.4</ele>
        <time>2026-04-29T12:02:26Z</time>
      </trkpt>
      <trkpt lat="44.97632" lon="4.18072">
        <ele>1275.9</ele>
        <time>2026-04-29T12:02:31Z</time>
      </trkpt>
      <trkpt lat="44.97633" lon="4.18079">
        <ele>1275.5</ele>
        <time>2026-04-29T12:02:36Z</time>
      </trkpt>
      <trkpt lat="44.97634" lon="4.18088">
        <ele>1274.7</ele>
        <time>2026-04-29T12:02:41Z</time>
      </trkpt>
      <trkpt lat="44.97637" lon="4.18097">
        <ele>1273.9</ele>
        <time>2026-04-29T12:02:46Z</time>
      </trkpt>
      <trkpt lat="44.9764" lon="4.18107">
        <ele>1273</ele>
        <time>2026-04-29T12:02:51Z</time>
      </trkpt>
      <trkpt lat="44.9764" lon="4.18118">
        <ele>1271.9</ele>
        <time>2026-04-29T12:02:56Z</time>
      </trkpt>
      <trkpt lat="44.97642" lon="4.18129">
        <ele>1270.9</ele>
        <time>2026-04-29T12:03:01Z</time>
      </trkpt>
      <trkpt lat="44.97645" lon="4.1814">
        <ele>1269.9</ele>
        <time>2026-04-29T12:03:06Z</time>
      </trkpt>
      <trkpt lat="44.97646" lon="4.18151">
        <ele>1268.8</ele>
        <time>2026-04-29T12:03:11Z</time>
      </trkpt>
      <trkpt lat="44.97648" lon="4.1816">
        <ele>1268</ele>
        <time>2026-04-29T12:03:16Z</time>
      </trkpt>
      <trkpt lat="44.97649" lon="4.18168">
        <ele>1267.2</ele>
        <time>2026-04-29T12:03:21Z</time>
      </trkpt>
      <trkpt lat="44.97651" lon="4.18176">
        <ele>1266.3</ele>
        <time>2026-04-29T12:03:26Z</time>
      </trkpt>
      <trkpt lat="44.97652" lon="4.18184">
        <ele>1265.5</ele>
        <time>2026-04-29T12:03:31Z</time>
      </trkpt>
      <trkpt lat="44.97655" lon="4.18193">
        <ele>1264.6</ele>
        <time>2026-04-29T12:03:36Z</time>
      </trkpt>
      <trkpt lat="44.97657" lon="4.18203">
        <ele>1263.5</ele>
        <time>2026-04-29T12:03:41Z</time>
      </trkpt>
      <trkpt lat="44.97658" lon="4.18212">
        <ele>1262.6</ele>
        <time>2026-04-29T12:03:46Z</time>
      </trkpt>
      <trkpt lat="44.97659" lon="4.18219">
        <ele>1261.8</ele>
        <time>2026-04-29T12:03:51Z</time>
      </trkpt>
      <trkpt lat="44.9766" lon="4.18228">
        <ele>1260.9</ele>
        <time>2026-04-29T12:03:56Z</time>
      </trkpt>
      <trkpt lat="44.97661" lon="4.18238">
        <ele>1259.9</ele>
        <time>2026-04-29T12:04:01Z</time>
      </trkpt>
      <trkpt lat="44.97663" lon="4.18246">
        <ele>1259.1</ele>
        <time>2026-04-29T12:04:06Z</time>
      </trkpt>
      <trkpt lat="44.97666" lon="4.18256">
        <ele>1259</ele>
        <time>2026-04-29T12:04:11Z</time>
      </trkpt>
      <trkpt lat="44.97667" lon="4.18265">
        <ele>1259.2</ele>
        <time>2026-04-29T12:04:16Z</time>
      </trkpt>
      <trkpt lat="44.97666" lon="4.18277">
        <ele>1259.3</ele>
        <time>2026-04-29T12:04:21Z</time>
      </trkpt>
      <trkpt lat="44.97662" lon="4.18286">
        <ele>1258.9</ele>
        <time>2026-04-29T12:04:26Z</time>
      </trkpt>
      <trkpt lat="44.9766" lon="4.18294">
        <ele>1258.7</ele>
        <time>2026-04-29T12:04:31Z</time>
      </trkpt>
      <trkpt lat="44.97659" lon="4.18301">
        <ele>1258.6</ele>
        <time>2026-04-29T12:04:36Z</time>
      </trkpt>
      <trkpt lat="44.97658" lon="4.18312">
        <ele>1258.6</ele>
        <time>2026-04-29T12:04:41Z</time>
      </trkpt>
      <trkpt lat="44.97656" lon="4.18322">
        <ele>1258.3</ele>
        <time>2026-04-29T12:04:46Z</time>
      </trkpt>
      <trkpt lat="44.97653" lon="4.18332">
        <ele>1257.9</ele>
        <time>2026-04-29T12:04:51Z</time>
      </trkpt>
      <trkpt lat="44.97649" lon="4.18341">
        <ele>1257.4</ele>
        <time>2026-04-29T12:04:56Z</time>
      </trkpt>
      <trkpt lat="44.97646" lon="4.18348">
        <ele>1257</ele>
        <time>2026-04-29T12:05:01Z</time>
      </trkpt>
      <trkpt lat="44.97644" lon="4.18356">
        <ele>1256.8</ele>
        <time>2026-04-29T12:05:06Z</time>
      </trkpt>
      <trkpt lat="44.97643" lon="4.18367">
        <ele>1256.8</ele>
        <time>2026-04-29T12:05:11Z</time>
      </trkpt>
      <trkpt lat="44.97642" lon="4.18374">
        <ele>1256.8</ele>
        <time>2026-04-29T12:05:16Z</time>
      </trkpt>
      <trkpt lat="44.9764" lon="4.18383">
        <ele>1256.6</ele>
        <time>2026-04-29T12:05:21Z</time>
      </trkpt>
      <trkpt lat="44.97639" lon="4.18388">
        <ele>1256.6</ele>
        <time>2026-04-29T12:05:26Z</time>
      </trkpt>
      <trkpt lat="44.97641" lon="4.18393">
        <ele>1256.9</ele>
        <time>2026-04-29T12:05:31Z</time>
      </trkpt>
      <trkpt lat="44.97641" lon="4.18393">
        <ele>1256.9</ele>
        <time>2026-04-29T12:05:36Z</time>
      </trkpt>
      <trkpt lat="44.97641" lon="4.18393">
        <ele>1256.9</ele>
        <time>2026-04-29T12:05:41Z</time>
      </trkpt>
      <trkpt lat="44.97641" lon="4.18393">
        <ele>1256.9</ele>
        <time>2026-04-29T12:05:46Z</time>
      </trkpt>
      <trkpt lat="44.97641" lon="4.18393">
        <ele>1256.9</ele>
        <time>2026-04-29T12:05:51Z</time>
      </trkpt>
      <trkpt lat="44.97634" lon="4.18397">
        <ele>1256</ele>
        <time>2026-04-29T12:05:56Z</time>
      </trkpt>
      <trkpt lat="44.97632" lon="4.18406">
        <ele>1255.8</ele>
        <time>2026-04-29T12:06:01Z</time>
      </trkpt>
      <trkpt lat="44.97629" lon="4.18414">
        <ele>1255.5</ele>
        <time>2026-04-29T12:06:06Z</time>
      </trkpt>
      <trkpt lat="44.97628" lon="4.18421">
        <ele>1255.3</ele>
        <time>2026-04-29T12:06:11Z</time>
      </trkpt>
      <trkpt lat="44.97626" lon="4.1843">
        <ele>1254.9</ele>
        <time>2026-04-29T12:06:16Z</time>
      </trkpt>
      <trkpt lat="44.97623" lon="4.18439">
        <ele>1254.3</ele>
        <time>2026-04-29T12:06:21Z</time>
      </trkpt>
      <trkpt lat="44.97621" lon="4.1845">
        <ele>1253.9</ele>
        <time>2026-04-29T12:06:26Z</time>
      </trkpt>
      <trkpt lat="44.9762" lon="4.18459">
        <ele>1253.6</ele>
        <time>2026-04-29T12:06:31Z</time>
      </trkpt>
      <trkpt lat="44.97621" lon="4.18469">
        <ele>1253.6</ele>
        <time>2026-04-29T12:06:36Z</time>
      </trkpt>
      <trkpt lat="44.97618" lon="4.18478">
        <ele>1253.1</ele>
        <time>2026-04-29T12:06:41Z</time>
      </trkpt>
      <trkpt lat="44.97616" lon="4.18489">
        <ele>1252.7</ele>
        <time>2026-04-29T12:06:46Z</time>
      </trkpt>
      <trkpt lat="44.97615" lon="4.18499">
        <ele>1252.4</ele>
        <time>2026-04-29T12:06:51Z</time>
      </trkpt>
      <trkpt lat="44.97614" lon="4.18508">
        <ele>1252.2</ele>
        <time>2026-04-29T12:06:56Z</time>
      </trkpt>
      <trkpt lat="44.97612" lon="4.18519">
        <ele>1251.7</ele>
        <time>2026-04-29T12:07:01Z</time>
      </trkpt>
      <trkpt lat="44.97611" lon="4.1853">
        <ele>1251.4</ele>
        <time>2026-04-29T12:07:06Z</time>
      </trkpt>
      <trkpt lat="44.97608" lon="4.1854">
        <ele>1250.8</ele>
        <time>2026-04-29T12:07:11Z</time>
      </trkpt>
      <trkpt lat="44.97606" lon="4.18549">
        <ele>1250.4</ele>
        <time>2026-04-29T12:07:16Z</time>
      </trkpt>
      <trkpt lat="44.97604" lon="4.18557">
        <ele>1250</ele>
        <time>2026-04-29T12:07:21Z</time>
      </trkpt>
      <trkpt lat="44.97604" lon="4.18567">
        <ele>1249.8</ele>
        <time>2026-04-29T12:07:26Z</time>
      </trkpt>
      <trkpt lat="44.97603" lon="4.18577">
        <ele>1249.5</ele>
        <time>2026-04-29T12:07:31Z</time>
      </trkpt>
      <trkpt lat="44.97603" lon="4.18587">
        <ele>1249.3</ele>
        <time>2026-04-29T12:07:36Z</time>
      </trkpt>
      <trkpt lat="44.97601" lon="4.18597">
        <ele>1249.1</ele>
        <time>2026-04-29T12:07:41Z</time>
      </trkpt>
      <trkpt lat="44.976" lon="4.18606">
        <ele>1248.9</ele>
        <time>2026-04-29T12:07:46Z</time>
      </trkpt>
      <trkpt lat="44.97597" lon="4.18618">
        <ele>1248.4</ele>
        <time>2026-04-29T12:07:51Z</time>
      </trkpt>
      <trkpt lat="44.97593" lon="4.18628">
        <ele>1247.8</ele>
        <time>2026-04-29T12:07:56Z</time>
      </trkpt>
      <trkpt lat="44.97591" lon="4.18636">
        <ele>1247.5</ele>
        <time>2026-04-29T12:08:01Z</time>
      </trkpt>
      <trkpt lat="44.97591" lon="4.18639">
        <ele>1247.4</ele>
        <time>2026-04-29T12:08:06Z</time>
      </trkpt>
      <trkpt lat="44.9759" lon="4.18639">
        <ele>1247.3</ele>
        <time>2026-04-29T12:08:11Z</time>
      </trkpt>
      <trkpt lat="44.9759" lon="4.18639">
        <ele>1247.3</ele>
        <time>2026-04-29T12:08:16Z</time>
      </trkpt>
      <trkpt lat="44.9759" lon="4.18639">
        <ele>1247.3</ele>
        <time>2026-04-29T12:08:21Z</time>
      </trkpt>
      <trkpt lat="44.9759" lon="4.18639">
        <ele>1247.3</ele>
        <time>2026-04-29T12:08:26Z</time>
      </trkpt>
      <trkpt lat="44.9759" lon="4.18639">
        <ele>1247.3</ele>
        <time>2026-04-29T12:08:31Z</time>
      </trkpt>
      <trkpt lat="44.97591" lon="4.1865">
        <ele>1247.3</ele>
        <time>2026-04-29T12:08:36Z</time>
      </trkpt>
      <trkpt lat="44.97588" lon="4.18658">
        <ele>1246.8</ele>
        <time>2026-04-29T12:08:41Z</time>
      </trkpt>
      <trkpt lat="44.97586" lon="4.18668">
        <ele>1246.4</ele>
        <time>2026-04-29T12:08:46Z</time>
      </trkpt>
      <trkpt lat="44.97585" lon="4.18678">
        <ele>1246.3</ele>
        <time>2026-04-29T12:08:51Z</time>
      </trkpt>
      <trkpt lat="44.97582" lon="4.1869">
        <ele>1245.8</ele>
        <time>2026-04-29T12:08:56Z</time>
      </trkpt>
      <trkpt lat="44.97578" lon="4.187">
        <ele>1245.3</ele>
        <time>2026-04-29T12:09:01Z</time>
      </trkpt>
      <trkpt lat="44.97576" lon="4.18709">
        <ele>1245.1</ele>
        <time>2026-04-29T12:09:06Z</time>
      </trkpt>
      <trkpt lat="44.97576" lon="4.18717">
        <ele>1245.1</ele>
        <time>2026-04-29T12:09:11Z</time>
      </trkpt>
      <trkpt lat="44.97575" lon="4.18727">
        <ele>1244.9</ele>
        <time>2026-04-29T12:09:16Z</time>
      </trkpt>
      <trkpt lat="44.97572" lon="4.18737">
        <ele>1244.5</ele>
        <time>2026-04-29T12:09:21Z</time>
      </trkpt>
      <trkpt lat="44.97568" lon="4.18748">
        <ele>1244</ele>
        <time>2026-04-29T12:09:26Z</time>
      </trkpt>
      <trkpt lat="44.97565" lon="4.18758">
        <ele>1243.5</ele>
        <time>2026-04-29T12:09:31Z</time>
      </trkpt>
      <trkpt lat="44.97563" lon="4.18766">
        <ele>1243.1</ele>
        <time>2026-04-29T12:09:36Z</time>
      </trkpt>
      <trkpt lat="44.9756" lon="4.18774">
        <ele>1242.6</ele>
        <time>2026-04-29T12:09:41Z</time>
      </trkpt>
      <trkpt lat="44.97558" lon="4.18785">
        <ele>1242.2</ele>
        <time>2026-04-29T12:09:46Z</time>
      </trkpt>
      <trkpt lat="44.97554" lon="4.18794">
        <ele>1241.6</ele>
        <time>2026-04-29T12:09:51Z</time>
      </trkpt>
      <trkpt lat="44.97551" lon="4.18803">
        <ele>1241.1</ele>
        <time>2026-04-29T12:09:56Z</time>
      </trkpt>
      <trkpt lat="44.97547" lon="4.18813">
        <ele>1240.4</ele>
        <time>2026-04-29T12:10:01Z</time>
      </trkpt>
      <trkpt lat="44.97544" lon="4.18822">
        <ele>1239.9</ele>
        <time>2026-04-29T12:10:06Z</time>
      </trkpt>
      <trkpt lat="44.9754" lon="4.1883">
        <ele>1239.3</ele>
        <time>2026-04-29T12:10:11Z</time>
      </trkpt>
      <trkpt lat="44.97539" lon="4.18838">
        <ele>1239.1</ele>
        <time>2026-04-29T12:10:16Z</time>
      </trkpt>
      <trkpt lat="44.97535" lon="4.18847">
        <ele>1238.4</ele>
        <time>2026-04-29T12:10:21Z</time>
      </trkpt>
      <trkpt lat="44.97533" lon="4.18857">
        <ele>1238</ele>
        <time>2026-04-29T12:10:26Z</time>
      </trkpt>
      <trkpt lat="44.97529" lon="4.18869">
        <ele>1237.3</ele>
        <time>2026-04-29T12:10:31Z</time>
      </trkpt>
      <trkpt lat="44.97527" lon="4.18878">
        <ele>1236.9</ele>
        <time>2026-04-29T12:10:36Z</time>
      </trkpt>
      <trkpt lat="44.97526" lon="4.18887">
        <ele>1236.6</ele>
        <time>2026-04-29T12:10:41Z</time>
      </trkpt>
      <trkpt lat="44.97524" lon="4.18896">
        <ele>1236.2</ele>
        <time>2026-04-29T12:10:46Z</time>
      </trkpt>
      <trkpt lat="44.97523" lon="4.18905">
        <ele>1235.9</ele>
        <time>2026-04-29T12:10:51Z</time>
      </trkpt>
      <trkpt lat="44.97519" lon="4.18912">
        <ele>1235.3</ele>
        <time>2026-04-29T12:10:56Z</time>
      </trkpt>
      <trkpt lat="44.97517" lon="4.18921">
        <ele>1235</ele>
        <time>2026-04-29T12:11:01Z</time>
      </trkpt>
      <trkpt lat="44.97513" lon="4.18931">
        <ele>1234.4</ele>
        <time>2026-04-29T12:11:06Z</time>
      </trkpt>
      <trkpt lat="44.9751" lon="4.18935">
        <ele>1234</ele>
        <time>2026-04-29T12:11:11Z</time>
      </trkpt>
      <trkpt lat="44.97507" lon="4.18938">
        <ele>1233.6</ele>
        <time>2026-04-29T12:11:16Z</time>
      </trkpt>
      <trkpt lat="44.97505" lon="4.18946">
        <ele>1233.3</ele>
        <time>2026-04-29T12:11:21Z</time>
      </trkpt>
      <trkpt lat="44.97502" lon="4.18953">
        <ele>1232.8</ele>
        <time>2026-04-29T12:11:26Z</time>
      </trkpt>
      <trkpt lat="44.975" lon="4.18963">
        <ele>1232.4</ele>
        <time>2026-04-29T12:11:31Z</time>
      </trkpt>
      <trkpt lat="44.97499" lon="4.18972">
        <ele>1232.2</ele>
        <time>2026-04-29T12:11:36Z</time>
      </trkpt>
      <trkpt lat="44.97499" lon="4.18981">
        <ele>1232.1</ele>
        <time>2026-04-29T12:11:41Z</time>
      </trkpt>
      <trkpt lat="44.97497" lon="4.18989">
        <ele>1231.8</ele>
        <time>2026-04-29T12:11:46Z</time>
      </trkpt>
      <trkpt lat="44.97495" lon="4.18997">
        <ele>1231.4</ele>
        <time>2026-04-29T12:11:51Z</time>
      </trkpt>
      <trkpt lat="44.97493" lon="4.19">
        <ele>1231.2</ele>
        <time>2026-04-29T12:11:56Z</time>
      </trkpt>
      <trkpt lat="44.97493" lon="4.19001">
        <ele>1231.1</ele>
        <time>2026-04-29T12:12:01Z</time>
      </trkpt>
      <trkpt lat="44.97493" lon="4.19001">
        <ele>1231.1</ele>
        <time>2026-04-29T12:12:06Z</time>
      </trkpt>
      <trkpt lat="44.97493" lon="4.19001">
        <ele>1231.1</ele>
        <time>2026-04-29T12:12:11Z</time>
      </trkpt>
      <trkpt lat="44.97491" lon="4.19003">
        <ele>1230.8</ele>
        <time>2026-04-29T12:12:16Z</time>
      </trkpt>
      <trkpt lat="44.97491" lon="4.19011">
        <ele>1230.5</ele>
        <time>2026-04-29T12:12:21Z</time>
      </trkpt>
      <trkpt lat="44.97491" lon="4.1902">
        <ele>1230.1</ele>
        <time>2026-04-29T12:12:26Z</time>
      </trkpt>
      <trkpt lat="44.97488" lon="4.19029">
        <ele>1229.4</ele>
        <time>2026-04-29T12:12:31Z</time>
      </trkpt>
      <trkpt lat="44.97488" lon="4.1904">
        <ele>1229</ele>
        <time>2026-04-29T12:12:36Z</time>
      </trkpt>
      <trkpt lat="44.97487" lon="4.19048">
        <ele>1228.5</ele>
        <time>2026-04-29T12:12:41Z</time>
      </trkpt>
      <trkpt lat="44.97488" lon="4.19055">
        <ele>1228.4</ele>
        <time>2026-04-29T12:12:46Z</time>
      </trkpt>
      <trkpt lat="44.97488" lon="4.19062">
        <ele>1228.1</ele>
        <time>2026-04-29T12:12:51Z</time>
      </trkpt>
      <trkpt lat="44.97489" lon="4.19071">
        <ele>1227.9</ele>
        <time>2026-04-29T12:12:56Z</time>
      </trkpt>
      <trkpt lat="44.97489" lon="4.19082">
        <ele>1227.5</ele>
        <time>2026-04-29T12:13:01Z</time>
      </trkpt>
      <trkpt lat="44.9749" lon="4.19091">
        <ele>1226.8</ele>
        <time>2026-04-29T12:13:06Z</time>
      </trkpt>
      <trkpt lat="44.97492" lon="4.191">
        <ele>1226.3</ele>
        <time>2026-04-29T12:13:11Z</time>
      </trkpt>
      <trkpt lat="44.97493" lon="4.1911">
        <ele>1225.5</ele>
        <time>2026-04-29T12:13:16Z</time>
      </trkpt>
      <trkpt lat="44.97492" lon="4.19118">
        <ele>1224.6</ele>
        <time>2026-04-29T12:13:21Z</time>
      </trkpt>
      <trkpt lat="44.97492" lon="4.19123">
        <ele>1224.1</ele>
        <time>2026-04-29T12:13:26Z</time>
      </trkpt>
      <trkpt lat="44.97493" lon="4.1913">
        <ele>1223.6</ele>
        <time>2026-04-29T12:13:31Z</time>
      </trkpt>
      <trkpt lat="44.97496" lon="4.19136">
        <ele>1223.4</ele>
        <time>2026-04-29T12:13:36Z</time>
      </trkpt>
      <trkpt lat="44.975" lon="4.19144">
        <ele>1223.2</ele>
        <time>2026-04-29T12:13:41Z</time>
      </trkpt>
      <trkpt lat="44.97505" lon="4.19152">
        <ele>1222.9</ele>
        <time>2026-04-29T12:13:46Z</time>
      </trkpt>
      <trkpt lat="44.97511" lon="4.19158">
        <ele>1223</ele>
        <time>2026-04-29T12:13:51Z</time>
      </trkpt>
      <trkpt lat="44.97516" lon="4.19166">
        <ele>1222.8</ele>
        <time>2026-04-29T12:13:56Z</time>
      </trkpt>
      <trkpt lat="44.97521" lon="4.19172">
        <ele>1222.7</ele>
        <time>2026-04-29T12:14:01Z</time>
      </trkpt>
      <trkpt lat="44.97526" lon="4.19177">
        <ele>1222.6</ele>
        <time>2026-04-29T12:14:06Z</time>
      </trkpt>
      <trkpt lat="44.97533" lon="4.19185">
        <ele>1222.4</ele>
        <time>2026-04-29T12:14:11Z</time>
      </trkpt>
      <trkpt lat="44.97538" lon="4.19192">
        <ele>1222.1</ele>
        <time>2026-04-29T12:14:16Z</time>
      </trkpt>
      <trkpt lat="44.97543" lon="4.19198">
        <ele>1221.9</ele>
        <time>2026-04-29T12:14:21Z</time>
      </trkpt>
      <trkpt lat="44.97545" lon="4.19208">
        <ele>1220.9</ele>
        <time>2026-04-29T12:14:26Z</time>
      </trkpt>
      <trkpt lat="44.97547" lon="4.1922">
        <ele>1219.6</ele>
        <time>2026-04-29T12:14:31Z</time>
      </trkpt>
      <trkpt lat="44.97549" lon="4.19228">
        <ele>1218.8</ele>
        <time>2026-04-29T12:14:36Z</time>
      </trkpt>
      <trkpt lat="44.97551" lon="4.19237">
        <ele>1217.9</ele>
        <time>2026-04-29T12:14:41Z</time>
      </trkpt>
      <trkpt lat="44.97551" lon="4.19246">
        <ele>1216.8</ele>
        <time>2026-04-29T12:14:46Z</time>
      </trkpt>
      <trkpt lat="44.97551" lon="4.19254">
        <ele>1216</ele>
        <time>2026-04-29T12:14:51Z</time>
      </trkpt>
      <trkpt lat="44.97549" lon="4.19266">
        <ele>1214.8</ele>
        <time>2026-04-29T12:14:56Z</time>
      </trkpt>
      <trkpt lat="44.97551" lon="4.19275">
        <ele>1214.3</ele>
        <time>2026-04-29T12:15:01Z</time>
      </trkpt>
      <trkpt lat="44.97552" lon="4.19284">
        <ele>1213.6</ele>
        <time>2026-04-29T12:15:06Z</time>
      </trkpt>
      <trkpt lat="44.97553" lon="4.19294">
        <ele>1212.9</ele>
        <time>2026-04-29T12:15:11Z</time>
      </trkpt>
      <trkpt lat="44.97553" lon="4.19303">
        <ele>1212.2</ele>
        <time>2026-04-29T12:15:16Z</time>
      </trkpt>
      <trkpt lat="44.97554" lon="4.19312">
        <ele>1211.5</ele>
        <time>2026-04-29T12:15:21Z</time>
      </trkpt>
      <trkpt lat="44.97555" lon="4.19319">
        <ele>1211.1</ele>
        <time>2026-04-29T12:15:26Z</time>
      </trkpt>
      <trkpt lat="44.97553" lon="4.19329">
        <ele>1210.1</ele>
        <time>2026-04-29T12:15:31Z</time>
      </trkpt>
      <trkpt lat="44.97551" lon="4.19338">
        <ele>1209.3</ele>
        <time>2026-04-29T12:15:36Z</time>
      </trkpt>
      <trkpt lat="44.97549" lon="4.19346">
        <ele>1208.8</ele>
        <time>2026-04-29T12:15:41Z</time>
      </trkpt>
      <trkpt lat="44.97549" lon="4.19354">
        <ele>1208.5</ele>
        <time>2026-04-29T12:15:46Z</time>
      </trkpt>
      <trkpt lat="44.97548" lon="4.19362">
        <ele>1208.2</ele>
        <time>2026-04-29T12:15:51Z</time>
      </trkpt>
      <trkpt lat="44.97546" lon="4.19371">
        <ele>1207.6</ele>
        <time>2026-04-29T12:15:56Z</time>
      </trkpt>
      <trkpt lat="44.97545" lon="4.1938">
        <ele>1207.2</ele>
        <time>2026-04-29T12:16:01Z</time>
      </trkpt>
      <trkpt lat="44.97542" lon="4.19388">
        <ele>1206.6</ele>
        <time>2026-04-29T12:16:06Z</time>
      </trkpt>
      <trkpt lat="44.97541" lon="4.19396">
        <ele>1206.2</ele>
        <time>2026-04-29T12:16:11Z</time>
      </trkpt>
      <trkpt lat="44.97539" lon="4.19405">
        <ele>1205.6</ele>
        <time>2026-04-29T12:16:16Z</time>
      </trkpt>
      <trkpt lat="44.97537" lon="4.19418">
        <ele>1205</ele>
        <time>2026-04-29T12:16:21Z</time>
      </trkpt>
      <trkpt lat="44.97535" lon="4.19429">
        <ele>1204.6</ele>
        <time>2026-04-29T12:16:26Z</time>
      </trkpt>
      <trkpt lat="44.97534" lon="4.19437">
        <ele>1204.3</ele>
        <time>2026-04-29T12:16:31Z</time>
      </trkpt>
      <trkpt lat="44.97535" lon="4.1944">
        <ele>1204.4</ele>
        <time>2026-04-29T12:16:36Z</time>
      </trkpt>
      <trkpt lat="44.97536" lon="4.19442">
        <ele>1204.5</ele>
        <time>2026-04-29T12:16:41Z</time>
      </trkpt>
      <trkpt lat="44.97536" lon="4.19442">
        <ele>1204.5</ele>
        <time>2026-04-29T12:16:46Z</time>
      </trkpt>
      <trkpt lat="44.97536" lon="4.19442">
        <ele>1204.5</ele>
        <time>2026-04-29T12:16:51Z</time>
      </trkpt>
      <trkpt lat="44.97536" lon="4.19442">
        <ele>1204.5</ele>
        <time>2026-04-29T12:16:56Z</time>
      </trkpt>
      <trkpt lat="44.97536" lon="4.19442">
        <ele>1204.5</ele>
        <time>2026-04-29T12:17:01Z</time>
      </trkpt>
      <trkpt lat="44.97536" lon="4.19442">
        <ele>1204.5</ele>
        <time>2026-04-29T12:17:06Z</time>
      </trkpt>
      <trkpt lat="44.97536" lon="4.19442">
        <ele>1204.5</ele>
        <time>2026-04-29T12:17:11Z</time>
      </trkpt>
      <trkpt lat="44.97536" lon="4.19442">
        <ele>1204.5</ele>
        <time>2026-04-29T12:17:16Z</time>
      </trkpt>
      <trkpt lat="44.97536" lon="4.19442">
        <ele>1204.5</ele>
        <time>2026-04-29T12:17:21Z</time>
      </trkpt>
      <trkpt lat="44.97536" lon="4.19442">
        <ele>1204.5</ele>
        <time>2026-04-29T12:17:26Z</time>
      </trkpt>
      <trkpt lat="44.97536" lon="4.19442">
        <ele>1204.5</ele>
        <time>2026-04-29T12:17:31Z</time>
      </trkpt>
      <trkpt lat="44.97536" lon="4.19442">
        <ele>1204.5</ele>
        <time>2026-04-29T12:17:36Z</time>
      </trkpt>
      <trkpt lat="44.97536" lon="4.19442">
        <ele>1204.5</ele>
        <time>2026-04-29T12:17:41Z</time>
      </trkpt>
      <trkpt lat="44.97536" lon="4.19442">
        <ele>1204.5</ele>
        <time>2026-04-29T12:17:46Z</time>
      </trkpt>
      <trkpt lat="44.97536" lon="4.19442">
        <ele>1204.5</ele>
        <time>2026-04-29T12:17:51Z</time>
      </trkpt>
      <trkpt lat="44.97536" lon="4.19442">
        <ele>1204.5</ele>
        <time>2026-04-29T12:17:56Z</time>
      </trkpt>
      <trkpt lat="44.97536" lon="4.19442">
        <ele>1204.5</ele>
        <time>2026-04-29T12:18:01Z</time>
      </trkpt>
      <trkpt lat="44.97536" lon="4.19442">
        <ele>1204.5</ele>
        <time>2026-04-29T12:18:06Z</time>
      </trkpt>
      <trkpt lat="44.97536" lon="4.19442">
        <ele>1204.5</ele>
        <time>2026-04-29T12:18:11Z</time>
      </trkpt>
      <trkpt lat="44.97532" lon="4.19456">
        <ele>1203.8</ele>
        <time>2026-04-29T12:18:16Z</time>
      </trkpt>
      <trkpt lat="44.97531" lon="4.19463">
        <ele>1203.6</ele>
        <time>2026-04-29T12:18:21Z</time>
      </trkpt>
      <trkpt lat="44.97528" lon="4.19471">
        <ele>1203.2</ele>
        <time>2026-04-29T12:18:26Z</time>
      </trkpt>
      <trkpt lat="44.97525" lon="4.19478">
        <ele>1202.7</ele>
        <time>2026-04-29T12:18:31Z</time>
      </trkpt>
      <trkpt lat="44.97522" lon="4.19486">
        <ele>1202.3</ele>
        <time>2026-04-29T12:18:36Z</time>
      </trkpt>
      <trkpt lat="44.97518" lon="4.19493">
        <ele>1201.8</ele>
        <time>2026-04-29T12:18:41Z</time>
      </trkpt>
      <trkpt lat="44.97516" lon="4.195">
        <ele>1201.5</ele>
        <time>2026-04-29T12:18:46Z</time>
      </trkpt>
      <trkpt lat="44.97512" lon="4.19508">
        <ele>1200.9</ele>
        <time>2026-04-29T12:18:51Z</time>
      </trkpt>
      <trkpt lat="44.97509" lon="4.19514">
        <ele>1200.4</ele>
        <time>2026-04-29T12:18:56Z</time>
      </trkpt>
      <trkpt lat="44.97506" lon="4.19523">
        <ele>1199.8</ele>
        <time>2026-04-29T12:19:01Z</time>
      </trkpt>
      <trkpt lat="44.97504" lon="4.19533">
        <ele>1199.2</ele>
        <time>2026-04-29T12:19:06Z</time>
      </trkpt>
      <trkpt lat="44.97505" lon="4.19544">
        <ele>1198.9</ele>
        <time>2026-04-29T12:19:11Z</time>
      </trkpt>
      <trkpt lat="44.97508" lon="4.19553">
        <ele>1198.9</ele>
        <time>2026-04-29T12:19:16Z</time>
      </trkpt>
      <trkpt lat="44.97509" lon="4.19563">
        <ele>1198.7</ele>
        <time>2026-04-29T12:19:21Z</time>
      </trkpt>
      <trkpt lat="44.9751" lon="4.19573">
        <ele>1198.4</ele>
        <time>2026-04-29T12:19:26Z</time>
      </trkpt>
      <trkpt lat="44.9751" lon="4.19581">
        <ele>1198.2</ele>
        <time>2026-04-29T12:19:31Z</time>
      </trkpt>
      <trkpt lat="44.97511" lon="4.19591">
        <ele>1198.2</ele>
        <time>2026-04-29T12:19:36Z</time>
      </trkpt>
      <trkpt lat="44.97514" lon="4.19599">
        <ele>1198.4</ele>
        <time>2026-04-29T12:19:41Z</time>
      </trkpt>
      <trkpt lat="44.97516" lon="4.19606">
        <ele>1198.6</ele>
        <time>2026-04-29T12:19:46Z</time>
      </trkpt>
      <trkpt lat="44.9751" lon="4.19608">
        <ele>1198</ele>
        <time>2026-04-29T12:19:51Z</time>
      </trkpt>
      <trkpt lat="44.97504" lon="4.19606">
        <ele>1197.4</ele>
        <time>2026-04-29T12:19:56Z</time>
      </trkpt>
      <trkpt lat="44.97502" lon="4.19604">
        <ele>1197.2</ele>
        <time>2026-04-29T12:20:01Z</time>
      </trkpt>
      <trkpt lat="44.97501" lon="4.19604">
        <ele>1197.1</ele>
        <time>2026-04-29T12:20:06Z</time>
      </trkpt>
      <trkpt lat="44.97501" lon="4.19604">
        <ele>1197.1</ele>
        <time>2026-04-29T12:20:11Z</time>
      </trkpt>
      <trkpt lat="44.97501" lon="4.19604">
        <ele>1197.1</ele>
        <time>2026-04-29T12:20:16Z</time>
      </trkpt>
      <trkpt lat="44.97501" lon="4.19604">
        <ele>1197.1</ele>
        <time>2026-04-29T12:20:21Z</time>
      </trkpt>
      <trkpt lat="44.97501" lon="4.19604">
        <ele>1197.1</ele>
        <time>2026-04-29T12:20:26Z</time>
      </trkpt>
      <trkpt lat="44.97496" lon="4.19606">
        <ele>1196.6</ele>
        <time>2026-04-29T12:20:31Z</time>
      </trkpt>
      <trkpt lat="44.97491" lon="4.19608">
        <ele>1196.2</ele>
        <time>2026-04-29T12:20:36Z</time>
      </trkpt>
      <trkpt lat="44.97487" lon="4.19614">
        <ele>1195.8</ele>
        <time>2026-04-29T12:20:41Z</time>
      </trkpt>
      <trkpt lat="44.97484" lon="4.19617">
        <ele>1195.5</ele>
        <time>2026-04-29T12:20:46Z</time>
      </trkpt>
      <trkpt lat="44.97482" lon="4.19622">
        <ele>1195.3</ele>
        <time>2026-04-29T12:20:51Z</time>
      </trkpt>
      <trkpt lat="44.9748" lon="4.19626">
        <ele>1195.1</ele>
        <time>2026-04-29T12:20:56Z</time>
      </trkpt>
      <trkpt lat="44.9748" lon="4.19626">
        <ele>1195.1</ele>
        <time>2026-04-29T12:21:01Z</time>
      </trkpt>
      <trkpt lat="44.9748" lon="4.19626">
        <ele>1195.1</ele>
        <time>2026-04-29T12:21:06Z</time>
      </trkpt>
      <trkpt lat="44.9748" lon="4.19626">
        <ele>1195.1</ele>
        <time>2026-04-29T12:21:11Z</time>
      </trkpt>
      <trkpt lat="44.97478" lon="4.19629">
        <ele>1194.9</ele>
        <time>2026-04-29T12:21:16Z</time>
      </trkpt>
      <trkpt lat="44.97477" lon="4.19636">
        <ele>1194.7</ele>
        <time>2026-04-29T12:21:21Z</time>
      </trkpt>
      <trkpt lat="44.97475" lon="4.19643">
        <ele>1194.5</ele>
        <time>2026-04-29T12:21:26Z</time>
      </trkpt>
      <trkpt lat="44.97474" lon="4.19648">
        <ele>1194.3</ele>
        <time>2026-04-29T12:21:31Z</time>
      </trkpt>
      <trkpt lat="44.97472" lon="4.19654">
        <ele>1194.1</ele>
        <time>2026-04-29T12:21:36Z</time>
      </trkpt>
      <trkpt lat="44.9747" lon="4.19661">
        <ele>1193.8</ele>
        <time>2026-04-29T12:21:41Z</time>
      </trkpt>
      <trkpt lat="44.97468" lon="4.19667">
        <ele>1193.5</ele>
        <time>2026-04-29T12:21:46Z</time>
      </trkpt>
      <trkpt lat="44.97462" lon="4.19677">
        <ele>1192.6</ele>
        <time>2026-04-29T12:21:51Z</time>
      </trkpt>
      <trkpt lat="44.97457" lon="4.19686">
        <ele>1191.9</ele>
        <time>2026-04-29T12:21:56Z</time>
      </trkpt>
      <trkpt lat="44.97453" lon="4.19693">
        <ele>1191.3</ele>
        <time>2026-04-29T12:22:01Z</time>
      </trkpt>
      <trkpt lat="44.97453" lon="4.197">
        <ele>1191.2</ele>
        <time>2026-04-29T12:22:06Z</time>
      </trkpt>
      <trkpt lat="44.97456" lon="4.19708">
        <ele>1191.3</ele>
        <time>2026-04-29T12:22:11Z</time>
      </trkpt>
      <trkpt lat="44.97459" lon="4.19717">
        <ele>1191.4</ele>
        <time>2026-04-29T12:22:16Z</time>
      </trkpt>
      <trkpt lat="44.97462" lon="4.19725">
        <ele>1191.4</ele>
        <time>2026-04-29T12:22:21Z</time>
      </trkpt>
      <trkpt lat="44.97463" lon="4.19734">
        <ele>1191.3</ele>
        <time>2026-04-29T12:22:26Z</time>
      </trkpt>
      <trkpt lat="44.97465" lon="4.19742">
        <ele>1191.3</ele>
        <time>2026-04-29T12:22:31Z</time>
      </trkpt>
      <trkpt lat="44.97468" lon="4.1975">
        <ele>1191.3</ele>
        <time>2026-04-29T12:22:36Z</time>
      </trkpt>
      <trkpt lat="44.97471" lon="4.19757">
        <ele>1191.5</ele>
        <time>2026-04-29T12:22:41Z</time>
      </trkpt>
      <trkpt lat="44.97473" lon="4.19766">
        <ele>1191.7</ele>
        <time>2026-04-29T12:22:46Z</time>
      </trkpt>
      <trkpt lat="44.97471" lon="4.1977">
        <ele>1191.5</ele>
        <time>2026-04-29T12:22:51Z</time>
      </trkpt>
      <trkpt lat="44.97471" lon="4.1977">
        <ele>1191.5</ele>
        <time>2026-04-29T12:22:56Z</time>
      </trkpt>
      <trkpt lat="44.97471" lon="4.1977">
        <ele>1191.5</ele>
        <time>2026-04-29T12:23:01Z</time>
      </trkpt>
      <trkpt lat="44.97471" lon="4.1977">
        <ele>1191.5</ele>
        <time>2026-04-29T12:23:06Z</time>
      </trkpt>
      <trkpt lat="44.97471" lon="4.1977">
        <ele>1191.5</ele>
        <time>2026-04-29T12:23:11Z</time>
      </trkpt>
      <trkpt lat="44.97471" lon="4.1977">
        <ele>1191.5</ele>
        <time>2026-04-29T12:23:16Z</time>
      </trkpt>
      <trkpt lat="44.97471" lon="4.1977">
        <ele>1191.5</ele>
        <time>2026-04-29T12:23:21Z</time>
      </trkpt>
      <trkpt lat="44.97471" lon="4.1977">
        <ele>1191.5</ele>
        <time>2026-04-29T12:23:26Z</time>
      </trkpt>
      <trkpt lat="44.97468" lon="4.19774">
        <ele>1191.2</ele>
        <time>2026-04-29T12:23:31Z</time>
      </trkpt>
      <trkpt lat="44.97465" lon="4.19778">
        <ele>1190.9</ele>
        <time>2026-04-29T12:23:36Z</time>
      </trkpt>
      <trkpt lat="44.9746" lon="4.19783">
        <ele>1190.4</ele>
        <time>2026-04-29T12:23:41Z</time>
      </trkpt>
      <trkpt lat="44.97458" lon="4.19787">
        <ele>1190.2</ele>
        <time>2026-04-29T12:23:46Z</time>
      </trkpt>
      <trkpt lat="44.97455" lon="4.19792">
        <ele>1189.9</ele>
        <time>2026-04-29T12:23:51Z</time>
      </trkpt>
      <trkpt lat="44.97449" lon="4.19797">
        <ele>1189.4</ele>
        <time>2026-04-29T12:23:56Z</time>
      </trkpt>
      <trkpt lat="44.97447" lon="4.19805">
        <ele>1189.1</ele>
        <time>2026-04-29T12:24:01Z</time>
      </trkpt>
      <trkpt lat="44.97446" lon="4.19813">
        <ele>1189</ele>
        <time>2026-04-29T12:24:06Z</time>
      </trkpt>
      <trkpt lat="44.97444" lon="4.19822">
        <ele>1188.7</ele>
        <time>2026-04-29T12:24:11Z</time>
      </trkpt>
      <trkpt lat="44.97446" lon="4.19826">
        <ele>1188.9</ele>
        <time>2026-04-29T12:24:16Z</time>
      </trkpt>
      <trkpt lat="44.97448" lon="4.19831">
        <ele>1189</ele>
        <time>2026-04-29T12:24:21Z</time>
      </trkpt>
      <trkpt lat="44.97448" lon="4.19838">
        <ele>1188.8</ele>
        <time>2026-04-29T12:24:26Z</time>
      </trkpt>
      <trkpt lat="44.97448" lon="4.19845">
        <ele>1188.5</ele>
        <time>2026-04-29T12:24:31Z</time>
      </trkpt>
      <trkpt lat="44.97449" lon="4.19851">
        <ele>1188.3</ele>
        <time>2026-04-29T12:24:36Z</time>
      </trkpt>
      <trkpt lat="44.97449" lon="4.19857">
        <ele>1188.1</ele>
        <time>2026-04-29T12:24:41Z</time>
      </trkpt>
      <trkpt lat="44.97449" lon="4.19865">
        <ele>1187.7</ele>
        <time>2026-04-29T12:24:46Z</time>
      </trkpt>
      <trkpt lat="44.97451" lon="4.1987">
        <ele>1187.7</ele>
        <time>2026-04-29T12:24:51Z</time>
      </trkpt>
      <trkpt lat="44.97451" lon="4.19877">
        <ele>1187.4</ele>
        <time>2026-04-29T12:24:56Z</time>
      </trkpt>
      <trkpt lat="44.97453" lon="4.19886">
        <ele>1187.2</ele>
        <time>2026-04-29T12:25:01Z</time>
      </trkpt>
      <trkpt lat="44.97454" lon="4.19895">
        <ele>1187</ele>
        <time>2026-04-29T12:25:06Z</time>
      </trkpt>
      <trkpt lat="44.97454" lon="4.19903">
        <ele>1186.6</ele>
        <time>2026-04-29T12:25:11Z</time>
      </trkpt>
      <trkpt lat="44.97453" lon="4.19912">
        <ele>1186.1</ele>
        <time>2026-04-29T12:25:16Z</time>
      </trkpt>
      <trkpt lat="44.97454" lon="4.19919">
        <ele>1185.9</ele>
        <time>2026-04-29T12:25:21Z</time>
      </trkpt>
      <trkpt lat="44.97453" lon="4.19927">
        <ele>1185.2</ele>
        <time>2026-04-29T12:25:26Z</time>
      </trkpt>
      <trkpt lat="44.97453" lon="4.19936">
        <ele>1184.7</ele>
        <time>2026-04-29T12:25:31Z</time>
      </trkpt>
      <trkpt lat="44.97453" lon="4.19944">
        <ele>1184.1</ele>
        <time>2026-04-29T12:25:36Z</time>
      </trkpt>
      <trkpt lat="44.97453" lon="4.19949">
        <ele>1183.8</ele>
        <time>2026-04-29T12:25:41Z</time>
      </trkpt>
      <trkpt lat="44.97452" lon="4.19955">
        <ele>1183.3</ele>
        <time>2026-04-29T12:25:46Z</time>
      </trkpt>
      <trkpt lat="44.97454" lon="4.19961">
        <ele>1183.1</ele>
        <time>2026-04-29T12:25:51Z</time>
      </trkpt>
      <trkpt lat="44.97455" lon="4.19968">
        <ele>1182.8</ele>
        <time>2026-04-29T12:25:56Z</time>
      </trkpt>
      <trkpt lat="44.97456" lon="4.19977">
        <ele>1182.3</ele>
        <time>2026-04-29T12:26:01Z</time>
      </trkpt>
      <trkpt lat="44.97457" lon="4.19984">
        <ele>1181.9</ele>
        <time>2026-04-29T12:26:06Z</time>
      </trkpt>
      <trkpt lat="44.97457" lon="4.19992">
        <ele>1181.4</ele>
        <time>2026-04-29T12:26:11Z</time>
      </trkpt>
      <trkpt lat="44.97456" lon="4.20001">
        <ele>1180.7</ele>
        <time>2026-04-29T12:26:16Z</time>
      </trkpt>
      <trkpt lat="44.97456" lon="4.20009">
        <ele>1180.3</ele>
        <time>2026-04-29T12:26:21Z</time>
      </trkpt>
      <trkpt lat="44.97457" lon="4.20016">
        <ele>1180</ele>
        <time>2026-04-29T12:26:26Z</time>
      </trkpt>
      <trkpt lat="44.97457" lon="4.20023">
        <ele>1179.6</ele>
        <time>2026-04-29T12:26:31Z</time>
      </trkpt>
      <trkpt lat="44.97457" lon="4.20028">
        <ele>1179.4</ele>
        <time>2026-04-29T12:26:36Z</time>
      </trkpt>
      <trkpt lat="44.97457" lon="4.20035">
        <ele>1179</ele>
        <time>2026-04-29T12:26:41Z</time>
      </trkpt>
      <trkpt lat="44.97457" lon="4.20042">
        <ele>1178.6</ele>
        <time>2026-04-29T12:26:46Z</time>
      </trkpt>
      <trkpt lat="44.97459" lon="4.20049">
        <ele>1178.4</ele>
        <time>2026-04-29T12:26:51Z</time>
      </trkpt>
      <trkpt lat="44.97459" lon="4.20058">
        <ele>1177.9</ele>
        <time>2026-04-29T12:26:56Z</time>
      </trkpt>
      <trkpt lat="44.97459" lon="4.20065">
        <ele>1177.5</ele>
        <time>2026-04-29T12:27:01Z</time>
      </trkpt>
      <trkpt lat="44.97459" lon="4.20073">
        <ele>1177.1</ele>
        <time>2026-04-29T12:27:06Z</time>
      </trkpt>
      <trkpt lat="44.9746" lon="4.20081">
        <ele>1176.8</ele>
        <time>2026-04-29T12:27:11Z</time>
      </trkpt>
      <trkpt lat="44.97461" lon="4.20092">
        <ele>1176.2</ele>
        <time>2026-04-29T12:27:16Z</time>
      </trkpt>
      <trkpt lat="44.97461" lon="4.201">
        <ele>1175.6</ele>
        <time>2026-04-29T12:27:21Z</time>
      </trkpt>
      <trkpt lat="44.97462" lon="4.20108">
        <ele>1175.2</ele>
        <time>2026-04-29T12:27:26Z</time>
      </trkpt>
      <trkpt lat="44.97463" lon="4.20116">
        <ele>1174.8</ele>
        <time>2026-04-29T12:27:31Z</time>
      </trkpt>
      <trkpt lat="44.97465" lon="4.20122">
        <ele>1174.5</ele>
        <time>2026-04-29T12:27:36Z</time>
      </trkpt>
      <trkpt lat="44.97465" lon="4.2013">
        <ele>1174</ele>
        <time>2026-04-29T12:27:41Z</time>
      </trkpt>
      <trkpt lat="44.97467" lon="4.20137">
        <ele>1173.8</ele>
        <time>2026-04-29T12:27:46Z</time>
      </trkpt>
      <trkpt lat="44.97468" lon="4.20144">
        <ele>1173.4</ele>
        <time>2026-04-29T12:27:51Z</time>
      </trkpt>
      <trkpt lat="44.9747" lon="4.20153">
        <ele>1173</ele>
        <time>2026-04-29T12:27:56Z</time>
      </trkpt>
      <trkpt lat="44.97472" lon="4.20164">
        <ele>1172.5</ele>
        <time>2026-04-29T12:28:01Z</time>
      </trkpt>
      <trkpt lat="44.97474" lon="4.2017">
        <ele>1172.3</ele>
        <time>2026-04-29T12:28:06Z</time>
      </trkpt>
      <trkpt lat="44.97475" lon="4.2018">
        <ele>1171.6</ele>
        <time>2026-04-29T12:28:11Z</time>
      </trkpt>
      <trkpt lat="44.97477" lon="4.20188">
        <ele>1171.2</ele>
        <time>2026-04-29T12:28:16Z</time>
      </trkpt>
      <trkpt lat="44.9748" lon="4.20195">
        <ele>1171</ele>
        <time>2026-04-29T12:28:21Z</time>
      </trkpt>
      <trkpt lat="44.97483" lon="4.20201">
        <ele>1170.8</ele>
        <time>2026-04-29T12:28:26Z</time>
      </trkpt>
      <trkpt lat="44.97483" lon="4.20208">
        <ele>1170.3</ele>
        <time>2026-04-29T12:28:31Z</time>
      </trkpt>
      <trkpt lat="44.97485" lon="4.20217">
        <ele>1169.8</ele>
        <time>2026-04-29T12:28:36Z</time>
      </trkpt>
      <trkpt lat="44.97486" lon="4.20224">
        <ele>1169.4</ele>
        <time>2026-04-29T12:28:41Z</time>
      </trkpt>
      <trkpt lat="44.97488" lon="4.20228">
        <ele>1169.3</ele>
        <time>2026-04-29T12:28:46Z</time>
      </trkpt>
      <trkpt lat="44.9749" lon="4.20236">
        <ele>1168.9</ele>
        <time>2026-04-29T12:28:51Z</time>
      </trkpt>
      <trkpt lat="44.9749" lon="4.20246">
        <ele>1168.2</ele>
        <time>2026-04-29T12:28:56Z</time>
      </trkpt>
      <trkpt lat="44.97492" lon="4.20252">
        <ele>1168</ele>
        <time>2026-04-29T12:29:01Z</time>
      </trkpt>
      <trkpt lat="44.97493" lon="4.20259">
        <ele>1167.6</ele>
        <time>2026-04-29T12:29:06Z</time>
      </trkpt>
      <trkpt lat="44.97491" lon="4.20267">
        <ele>1166.9</ele>
        <time>2026-04-29T12:29:11Z</time>
      </trkpt>
      <trkpt lat="44.97489" lon="4.20273">
        <ele>1166.3</ele>
        <time>2026-04-29T12:29:16Z</time>
      </trkpt>
      <trkpt lat="44.97489" lon="4.20281">
        <ele>1165.8</ele>
        <time>2026-04-29T12:29:21Z</time>
      </trkpt>
      <trkpt lat="44.97488" lon="4.2029">
        <ele>1165.2</ele>
        <time>2026-04-29T12:29:26Z</time>
      </trkpt>
      <trkpt lat="44.97489" lon="4.20297">
        <ele>1164.8</ele>
        <time>2026-04-29T12:29:31Z</time>
      </trkpt>
      <trkpt lat="44.97489" lon="4.20306">
        <ele>1164.2</ele>
        <time>2026-04-29T12:29:36Z</time>
      </trkpt>
      <trkpt lat="44.9749" lon="4.20315">
        <ele>1163.7</ele>
        <time>2026-04-29T12:29:41Z</time>
      </trkpt>
      <trkpt lat="44.9749" lon="4.20324">
        <ele>1163.1</ele>
        <time>2026-04-29T12:29:46Z</time>
      </trkpt>
      <trkpt lat="44.97489" lon="4.20332">
        <ele>1162.6</ele>
        <time>2026-04-29T12:29:51Z</time>
      </trkpt>
      <trkpt lat="44.97488" lon="4.2034">
        <ele>1162.3</ele>
        <time>2026-04-29T12:29:56Z</time>
      </trkpt>
      <trkpt lat="44.97487" lon="4.20348">
        <ele>1162.1</ele>
        <time>2026-04-29T12:30:01Z</time>
      </trkpt>
      <trkpt lat="44.97489" lon="4.20357">
        <ele>1161.9</ele>
        <time>2026-04-29T12:30:06Z</time>
      </trkpt>
      <trkpt lat="44.9749" lon="4.20364">
        <ele>1161.8</ele>
        <time>2026-04-29T12:30:11Z</time>
      </trkpt>
      <trkpt lat="44.97492" lon="4.20372">
        <ele>1161.7</ele>
        <time>2026-04-29T12:30:16Z</time>
      </trkpt>
      <trkpt lat="44.97493" lon="4.20383">
        <ele>1161.5</ele>
        <time>2026-04-29T12:30:21Z</time>
      </trkpt>
      <trkpt lat="44.97495" lon="4.20394">
        <ele>1161.3</ele>
        <time>2026-04-29T12:30:26Z</time>
      </trkpt>
      <trkpt lat="44.97498" lon="4.20404">
        <ele>1161.2</ele>
        <time>2026-04-29T12:30:31Z</time>
      </trkpt>
      <trkpt lat="44.97499" lon="4.20414">
        <ele>1161</ele>
        <time>2026-04-29T12:30:36Z</time>
      </trkpt>
      <trkpt lat="44.97501" lon="4.20424">
        <ele>1160.6</ele>
        <time>2026-04-29T12:30:41Z</time>
      </trkpt>
      <trkpt lat="44.97502" lon="4.20432">
        <ele>1160.2</ele>
        <time>2026-04-29T12:30:46Z</time>
      </trkpt>
      <trkpt lat="44.97504" lon="4.20441">
        <ele>1159.8</ele>
        <time>2026-04-29T12:30:51Z</time>
      </trkpt>
      <trkpt lat="44.97505" lon="4.20449">
        <ele>1159.4</ele>
        <time>2026-04-29T12:30:56Z</time>
      </trkpt>
      <trkpt lat="44.97507" lon="4.20458">
        <ele>1159</ele>
        <time>2026-04-29T12:31:01Z</time>
      </trkpt>
      <trkpt lat="44.97507" lon="4.20466">
        <ele>1158.6</ele>
        <time>2026-04-29T12:31:06Z</time>
      </trkpt>
      <trkpt lat="44.97508" lon="4.20472">
        <ele>1158.3</ele>
        <time>2026-04-29T12:31:11Z</time>
      </trkpt>
      <trkpt lat="44.97509" lon="4.20478">
        <ele>1158</ele>
        <time>2026-04-29T12:31:16Z</time>
      </trkpt>
      <trkpt lat="44.97511" lon="4.20484">
        <ele>1157.8</ele>
        <time>2026-04-29T12:31:21Z</time>
      </trkpt>
      <trkpt lat="44.97513" lon="4.20491">
        <ele>1157.6</ele>
        <time>2026-04-29T12:31:26Z</time>
      </trkpt>
      <trkpt lat="44.97513" lon="4.20499">
        <ele>1157.1</ele>
        <time>2026-04-29T12:31:31Z</time>
      </trkpt>
      <trkpt lat="44.97513" lon="4.20504">
        <ele>1156.9</ele>
        <time>2026-04-29T12:31:36Z</time>
      </trkpt>
      <trkpt lat="44.97513" lon="4.2051">
        <ele>1156.6</ele>
        <time>2026-04-29T12:31:41Z</time>
      </trkpt>
      <trkpt lat="44.97513" lon="4.20516">
        <ele>1156.3</ele>
        <time>2026-04-29T12:31:46Z</time>
      </trkpt>
      <trkpt lat="44.97512" lon="4.20521">
        <ele>1156</ele>
        <time>2026-04-29T12:31:51Z</time>
      </trkpt>
      <trkpt lat="44.97513" lon="4.20527">
        <ele>1155.8</ele>
        <time>2026-04-29T12:31:56Z</time>
      </trkpt>
      <trkpt lat="44.97514" lon="4.20532">
        <ele>1155.6</ele>
        <time>2026-04-29T12:32:01Z</time>
      </trkpt>
      <trkpt lat="44.97514" lon="4.20539">
        <ele>1155.3</ele>
        <time>2026-04-29T12:32:06Z</time>
      </trkpt>
      <trkpt lat="44.97515" lon="4.20544">
        <ele>1155.1</ele>
        <time>2026-04-29T12:32:11Z</time>
      </trkpt>
      <trkpt lat="44.97517" lon="4.20552">
        <ele>1154.9</ele>
        <time>2026-04-29T12:32:16Z</time>
      </trkpt>
      <trkpt lat="44.97518" lon="4.2056">
        <ele>1154.6</ele>
        <time>2026-04-29T12:32:21Z</time>
      </trkpt>
      <trkpt lat="44.9752" lon="4.20566">
        <ele>1154.5</ele>
        <time>2026-04-29T12:32:26Z</time>
      </trkpt>
      <trkpt lat="44.97522" lon="4.20573">
        <ele>1154.3</ele>
        <time>2026-04-29T12:32:31Z</time>
      </trkpt>
      <trkpt lat="44.97526" lon="4.20581">
        <ele>1154.3</ele>
        <time>2026-04-29T12:32:36Z</time>
      </trkpt>
      <trkpt lat="44.9753" lon="4.20587">
        <ele>1154.5</ele>
        <time>2026-04-29T12:32:41Z</time>
      </trkpt>
      <trkpt lat="44.97534" lon="4.20595">
        <ele>1154.9</ele>
        <time>2026-04-29T12:32:46Z</time>
      </trkpt>
      <trkpt lat="44.97537" lon="4.20602">
        <ele>1155.2</ele>
        <time>2026-04-29T12:32:51Z</time>
      </trkpt>
      <trkpt lat="44.9754" lon="4.20611">
        <ele>1155.4</ele>
        <time>2026-04-29T12:32:56Z</time>
      </trkpt>
      <trkpt lat="44.97541" lon="4.2062">
        <ele>1155.5</ele>
        <time>2026-04-29T12:33:01Z</time>
      </trkpt>
      <trkpt lat="44.97543" lon="4.20628">
        <ele>1155.6</ele>
        <time>2026-04-29T12:33:06Z</time>
      </trkpt>
      <trkpt lat="44.97544" lon="4.20637">
        <ele>1155.6</ele>
        <time>2026-04-29T12:33:11Z</time>
      </trkpt>
      <trkpt lat="44.97544" lon="4.20647">
        <ele>1155.6</ele>
        <time>2026-04-29T12:33:16Z</time>
      </trkpt>
      <trkpt lat="44.97546" lon="4.20654">
        <ele>1155.7</ele>
        <time>2026-04-29T12:33:21Z</time>
      </trkpt>
      <trkpt lat="44.97545" lon="4.20663">
        <ele>1155.6</ele>
        <time>2026-04-29T12:33:26Z</time>
      </trkpt>
      <trkpt lat="44.97544" lon="4.20673">
        <ele>1155.6</ele>
        <time>2026-04-29T12:33:31Z</time>
      </trkpt>
      <trkpt lat="44.97544" lon="4.20682">
        <ele>1155.6</ele>
        <time>2026-04-29T12:33:36Z</time>
      </trkpt>
      <trkpt lat="44.97545" lon="4.2069">
        <ele>1155.6</ele>
        <time>2026-04-29T12:33:41Z</time>
      </trkpt>
      <trkpt lat="44.97548" lon="4.207">
        <ele>1155.7</ele>
        <time>2026-04-29T12:33:46Z</time>
      </trkpt>
      <trkpt lat="44.9755" lon="4.20707">
        <ele>1155.8</ele>
        <time>2026-04-29T12:33:51Z</time>
      </trkpt>
      <trkpt lat="44.97552" lon="4.20716">
        <ele>1155.9</ele>
        <time>2026-04-29T12:33:56Z</time>
      </trkpt>
      <trkpt lat="44.97555" lon="4.20725">
        <ele>1156</ele>
        <time>2026-04-29T12:34:01Z</time>
      </trkpt>
      <trkpt lat="44.97557" lon="4.20733">
        <ele>1156.1</ele>
        <time>2026-04-29T12:34:06Z</time>
      </trkpt>
      <trkpt lat="44.9756" lon="4.20743">
        <ele>1156.2</ele>
        <time>2026-04-29T12:34:11Z</time>
      </trkpt>
      <trkpt lat="44.97563" lon="4.20751">
        <ele>1156.3</ele>
        <time>2026-04-29T12:34:16Z</time>
      </trkpt>
      <trkpt lat="44.97565" lon="4.20762">
        <ele>1156.2</ele>
        <time>2026-04-29T12:34:21Z</time>
      </trkpt>
      <trkpt lat="44.97567" lon="4.2077">
        <ele>1156.2</ele>
        <time>2026-04-29T12:34:26Z</time>
      </trkpt>
      <trkpt lat="44.97568" lon="4.20781">
        <ele>1156.2</ele>
        <time>2026-04-29T12:34:31Z</time>
      </trkpt>
      <trkpt lat="44.9757" lon="4.20789">
        <ele>1156.2</ele>
        <time>2026-04-29T12:34:36Z</time>
      </trkpt>
      <trkpt lat="44.97572" lon="4.20797">
        <ele>1156.3</ele>
        <time>2026-04-29T12:34:41Z</time>
      </trkpt>
      <trkpt lat="44.97574" lon="4.20804">
        <ele>1156.4</ele>
        <time>2026-04-29T12:34:46Z</time>
      </trkpt>
      <trkpt lat="44.97575" lon="4.2081">
        <ele>1156.4</ele>
        <time>2026-04-29T12:34:51Z</time>
      </trkpt>
      <trkpt lat="44.97576" lon="4.20816">
        <ele>1156.5</ele>
        <time>2026-04-29T12:34:56Z</time>
      </trkpt>
      <trkpt lat="44.97576" lon="4.20822">
        <ele>1156.4</ele>
        <time>2026-04-29T12:35:01Z</time>
      </trkpt>
      <trkpt lat="44.97576" lon="4.20827">
        <ele>1156.4</ele>
        <time>2026-04-29T12:35:06Z</time>
      </trkpt>
      <trkpt lat="44.97575" lon="4.2083">
        <ele>1156.3</ele>
        <time>2026-04-29T12:35:11Z</time>
      </trkpt>
      <trkpt lat="44.97573" lon="4.20834">
        <ele>1156.1</ele>
        <time>2026-04-29T12:35:16Z</time>
      </trkpt>
      <trkpt lat="44.97575" lon="4.20843">
        <ele>1156.1</ele>
        <time>2026-04-29T12:35:21Z</time>
      </trkpt>
      <trkpt lat="44.97577" lon="4.20847">
        <ele>1156.3</ele>
        <time>2026-04-29T12:35:26Z</time>
      </trkpt>
      <trkpt lat="44.97579" lon="4.20851">
        <ele>1156.4</ele>
        <time>2026-04-29T12:35:31Z</time>
      </trkpt>
      <trkpt lat="44.97581" lon="4.20856">
        <ele>1156.5</ele>
        <time>2026-04-29T12:35:36Z</time>
      </trkpt>
      <trkpt lat="44.97583" lon="4.20862">
        <ele>1156.6</ele>
        <time>2026-04-29T12:35:41Z</time>
      </trkpt>
      <trkpt lat="44.97582" lon="4.20871">
        <ele>1156.4</ele>
        <time>2026-04-29T12:35:46Z</time>
      </trkpt>
      <trkpt lat="44.97583" lon="4.20878">
        <ele>1156.4</ele>
        <time>2026-04-29T12:35:51Z</time>
      </trkpt>
      <trkpt lat="44.97582" lon="4.20885">
        <ele>1156.2</ele>
        <time>2026-04-29T12:35:56Z</time>
      </trkpt>
      <trkpt lat="44.97583" lon="4.20894">
        <ele>1156.2</ele>
        <time>2026-04-29T12:36:01Z</time>
      </trkpt>
      <trkpt lat="44.97582" lon="4.20902">
        <ele>1156</ele>
        <time>2026-04-29T12:36:06Z</time>
      </trkpt>
      <trkpt lat="44.97582" lon="4.20909">
        <ele>1155.9</ele>
        <time>2026-04-29T12:36:11Z</time>
      </trkpt>
      <trkpt lat="44.97581" lon="4.20915">
        <ele>1155.7</ele>
        <time>2026-04-29T12:36:16Z</time>
      </trkpt>
      <trkpt lat="44.97581" lon="4.20924">
        <ele>1155.7</ele>
        <time>2026-04-29T12:36:21Z</time>
      </trkpt>
      <trkpt lat="44.97581" lon="4.20932">
        <ele>1155.7</ele>
        <time>2026-04-29T12:36:26Z</time>
      </trkpt>
      <trkpt lat="44.97581" lon="4.20942">
        <ele>1155.7</ele>
        <time>2026-04-29T12:36:31Z</time>
      </trkpt>
      <trkpt lat="44.97579" lon="4.2095">
        <ele>1155.4</ele>
        <time>2026-04-29T12:36:36Z</time>
      </trkpt>
      <trkpt lat="44.97579" lon="4.20959">
        <ele>1155.4</ele>
        <time>2026-04-29T12:36:41Z</time>
      </trkpt>
      <trkpt lat="44.97578" lon="4.20968">
        <ele>1155.2</ele>
        <time>2026-04-29T12:36:46Z</time>
      </trkpt>
      <trkpt lat="44.97579" lon="4.20977">
        <ele>1155.3</ele>
        <time>2026-04-29T12:36:51Z</time>
      </trkpt>
      <trkpt lat="44.97577" lon="4.20988">
        <ele>1155</ele>
        <time>2026-04-29T12:36:56Z</time>
      </trkpt>
      <trkpt lat="44.97576" lon="4.20996">
        <ele>1154.8</ele>
        <time>2026-04-29T12:37:01Z</time>
      </trkpt>
      <trkpt lat="44.97576" lon="4.21007">
        <ele>1154.5</ele>
        <time>2026-04-29T12:37:06Z</time>
      </trkpt>
      <trkpt lat="44.97577" lon="4.21019">
        <ele>1154.3</ele>
        <time>2026-04-29T12:37:11Z</time>
      </trkpt>
      <trkpt lat="44.97576" lon="4.21026">
        <ele>1153.9</ele>
        <time>2026-04-29T12:37:16Z</time>
      </trkpt>
      <trkpt lat="44.97577" lon="4.21033">
        <ele>1153.8</ele>
        <time>2026-04-29T12:37:21Z</time>
      </trkpt>
      <trkpt lat="44.97577" lon="4.21041">
        <ele>1153.5</ele>
        <time>2026-04-29T12:37:26Z</time>
      </trkpt>
      <trkpt lat="44.9758" lon="4.21048">
        <ele>1153.7</ele>
        <time>2026-04-29T12:37:31Z</time>
      </trkpt>
      <trkpt lat="44.97583" lon="4.21055">
        <ele>1154</ele>
        <time>2026-04-29T12:37:36Z</time>
      </trkpt>
      <trkpt lat="44.97586" lon="4.21064">
        <ele>1154.1</ele>
        <time>2026-04-29T12:37:41Z</time>
      </trkpt>
      <trkpt lat="44.97589" lon="4.21073">
        <ele>1154.3</ele>
        <time>2026-04-29T12:37:46Z</time>
      </trkpt>
      <trkpt lat="44.9759" lon="4.21082">
        <ele>1154.2</ele>
        <time>2026-04-29T12:37:51Z</time>
      </trkpt>
      <trkpt lat="44.97591" lon="4.2109">
        <ele>1154</ele>
        <time>2026-04-29T12:37:56Z</time>
      </trkpt>
      <trkpt lat="44.97593" lon="4.21099">
        <ele>1153.9</ele>
        <time>2026-04-29T12:38:01Z</time>
      </trkpt>
      <trkpt lat="44.97593" lon="4.21109">
        <ele>1153.5</ele>
        <time>2026-04-29T12:38:06Z</time>
      </trkpt>
      <trkpt lat="44.97593" lon="4.21117">
        <ele>1153.1</ele>
        <time>2026-04-29T12:38:11Z</time>
      </trkpt>
      <trkpt lat="44.97595" lon="4.21124">
        <ele>1153.2</ele>
        <time>2026-04-29T12:38:16Z</time>
      </trkpt>
      <trkpt lat="44.97595" lon="4.21134">
        <ele>1152.8</ele>
        <time>2026-04-29T12:38:21Z</time>
      </trkpt>
      <trkpt lat="44.97596" lon="4.21142">
        <ele>1152.6</ele>
        <time>2026-04-29T12:38:26Z</time>
      </trkpt>
      <trkpt lat="44.97597" lon="4.21149">
        <ele>1152.5</ele>
        <time>2026-04-29T12:38:31Z</time>
      </trkpt>
      <trkpt lat="44.976" lon="4.21157">
        <ele>1152.8</ele>
        <time>2026-04-29T12:38:36Z</time>
      </trkpt>
      <trkpt lat="44.97603" lon="4.21164">
        <ele>1153.1</ele>
        <time>2026-04-29T12:38:41Z</time>
      </trkpt>
      <trkpt lat="44.97607" lon="4.21171">
        <ele>1153.5</ele>
        <time>2026-04-29T12:38:46Z</time>
      </trkpt>
      <trkpt lat="44.97609" lon="4.2118">
        <ele>1153.2</ele>
        <time>2026-04-29T12:38:51Z</time>
      </trkpt>
      <trkpt lat="44.97612" lon="4.21187">
        <ele>1153.2</ele>
        <time>2026-04-29T12:38:56Z</time>
      </trkpt>
      <trkpt lat="44.97616" lon="4.21195">
        <ele>1153.4</ele>
        <time>2026-04-29T12:39:01Z</time>
      </trkpt>
      <trkpt lat="44.9762" lon="4.21201">
        <ele>1153.8</ele>
        <time>2026-04-29T12:39:06Z</time>
      </trkpt>
      <trkpt lat="44.97623" lon="4.21208">
        <ele>1153.9</ele>
        <time>2026-04-29T12:39:11Z</time>
      </trkpt>
      <trkpt lat="44.97625" lon="4.21218">
        <ele>1153.5</ele>
        <time>2026-04-29T12:39:16Z</time>
      </trkpt>
      <trkpt lat="44.9763" lon="4.21226">
        <ele>1153.9</ele>
        <time>2026-04-29T12:39:21Z</time>
      </trkpt>
      <trkpt lat="44.97632" lon="4.21235">
        <ele>1153.7</ele>
        <time>2026-04-29T12:39:26Z</time>
      </trkpt>
      <trkpt lat="44.97636" lon="4.21243">
        <ele>1153.9</ele>
        <time>2026-04-29T12:39:31Z</time>
      </trkpt>
      <trkpt lat="44.9764" lon="4.21249">
        <ele>1154.3</ele>
        <time>2026-04-29T12:39:36Z</time>
      </trkpt>
      <trkpt lat="44.97643" lon="4.21258">
        <ele>1154.2</ele>
        <time>2026-04-29T12:39:41Z</time>
      </trkpt>
      <trkpt lat="44.97646" lon="4.21259">
        <ele>1154.7</ele>
        <time>2026-04-29T12:39:46Z</time>
      </trkpt>
      <trkpt lat="44.97647" lon="4.2126">
        <ele>1154.8</ele>
        <time>2026-04-29T12:39:51Z</time>
      </trkpt>
      <trkpt lat="44.97647" lon="4.2126">
        <ele>1154.8</ele>
        <time>2026-04-29T12:39:56Z</time>
      </trkpt>
      <trkpt lat="44.97647" lon="4.2126">
        <ele>1154.8</ele>
        <time>2026-04-29T12:40:01Z</time>
      </trkpt>
      <trkpt lat="44.97647" lon="4.2126">
        <ele>1154.8</ele>
        <time>2026-04-29T12:40:06Z</time>
      </trkpt>
      <trkpt lat="44.97647" lon="4.2126">
        <ele>1154.8</ele>
        <time>2026-04-29T12:40:11Z</time>
      </trkpt>
      <trkpt lat="44.97647" lon="4.2126">
        <ele>1154.8</ele>
        <time>2026-04-29T12:40:16Z</time>
      </trkpt>
      <trkpt lat="44.97647" lon="4.2126">
        <ele>1154.8</ele>
        <time>2026-04-29T12:40:21Z</time>
      </trkpt>
      <trkpt lat="44.97647" lon="4.2126">
        <ele>1154.8</ele>
        <time>2026-04-29T12:40:26Z</time>
      </trkpt>
      <trkpt lat="44.97647" lon="4.2126">
        <ele>1154.8</ele>
        <time>2026-04-29T12:40:31Z</time>
      </trkpt>
      <trkpt lat="44.97647" lon="4.2126">
        <ele>1154.8</ele>
        <time>2026-04-29T12:40:36Z</time>
      </trkpt>
      <trkpt lat="44.97647" lon="4.2126">
        <ele>1154.8</ele>
        <time>2026-04-29T12:40:41Z</time>
      </trkpt>
      <trkpt lat="44.97647" lon="4.2126">
        <ele>1154.8</ele>
        <time>2026-04-29T12:40:46Z</time>
      </trkpt>
      <trkpt lat="44.97647" lon="4.2126">
        <ele>1154.8</ele>
        <time>2026-04-29T12:40:51Z</time>
      </trkpt>
      <trkpt lat="44.97647" lon="4.2126">
        <ele>1154.8</ele>
        <time>2026-04-29T12:40:56Z</time>
      </trkpt>
      <trkpt lat="44.97647" lon="4.2126">
        <ele>1154.8</ele>
        <time>2026-04-29T12:41:01Z</time>
      </trkpt>
      <trkpt lat="44.97647" lon="4.2126">
        <ele>1154.8</ele>
        <time>2026-04-29T12:41:06Z</time>
      </trkpt>
      <trkpt lat="44.97647" lon="4.2126">
        <ele>1154.8</ele>
        <time>2026-04-29T12:41:11Z</time>
      </trkpt>
      <trkpt lat="44.97647" lon="4.2126">
        <ele>1154.8</ele>
        <time>2026-04-29T12:41:16Z</time>
      </trkpt>
      <trkpt lat="44.97647" lon="4.2126">
        <ele>1154.8</ele>
        <time>2026-04-29T12:41:21Z</time>
      </trkpt>
      <trkpt lat="44.97647" lon="4.2126">
        <ele>1154.8</ele>
        <time>2026-04-29T12:41:26Z</time>
      </trkpt>
      <trkpt lat="44.97647" lon="4.2126">
        <ele>1154.8</ele>
        <time>2026-04-29T12:41:31Z</time>
      </trkpt>
      <trkpt lat="44.97647" lon="4.2126">
        <ele>1154.8</ele>
        <time>2026-04-29T12:41:36Z</time>
      </trkpt>
      <trkpt lat="44.97647" lon="4.2126">
        <ele>1154.8</ele>
        <time>2026-04-29T12:41:41Z</time>
      </trkpt>
      <trkpt lat="44.97647" lon="4.2126">
        <ele>1154.8</ele>
        <time>2026-04-29T12:41:46Z</time>
      </trkpt>
      <trkpt lat="44.97647" lon="4.2126">
        <ele>1154.8</ele>
        <time>2026-04-29T12:41:51Z</time>
      </trkpt>
      <trkpt lat="44.97647" lon="4.2126">
        <ele>1154.8</ele>
        <time>2026-04-29T12:41:56Z</time>
      </trkpt>
      <trkpt lat="44.97647" lon="4.2126">
        <ele>1154.8</ele>
        <time>2026-04-29T12:42:01Z</time>
      </trkpt>
      <trkpt lat="44.97647" lon="4.2126">
        <ele>1154.8</ele>
        <time>2026-04-29T12:42:06Z</time>
      </trkpt>
      <trkpt lat="44.97647" lon="4.2126">
        <ele>1154.8</ele>
        <time>2026-04-29T12:42:11Z</time>
      </trkpt>
      <trkpt lat="44.97647" lon="4.2126">
        <ele>1154.8</ele>
        <time>2026-04-29T12:42:16Z</time>
      </trkpt>
      <trkpt lat="44.97647" lon="4.2126">
        <ele>1154.8</ele>
        <time>2026-04-29T12:42:21Z</time>
      </trkpt>
      <trkpt lat="44.97647" lon="4.2126">
        <ele>1154.8</ele>
        <time>2026-04-29T12:42:26Z</time>
      </trkpt>
      <trkpt lat="44.97647" lon="4.2126">
        <ele>1154.8</ele>
        <time>2026-04-29T12:42:31Z</time>
      </trkpt>
      <trkpt lat="44.97647" lon="4.2126">
        <ele>1154.8</ele>
        <time>2026-04-29T12:42:36Z</time>
      </trkpt>
      <trkpt lat="44.97647" lon="4.2126">
        <ele>1154.8</ele>
        <time>2026-04-29T12:42:41Z</time>
      </trkpt>
      <trkpt lat="44.97647" lon="4.2126">
        <ele>1154.8</ele>
        <time>2026-04-29T12:42:46Z</time>
      </trkpt>
      <trkpt lat="44.97647" lon="4.2126">
        <ele>1154.8</ele>
        <time>2026-04-29T12:42:51Z</time>
      </trkpt>
      <trkpt lat="44.97647" lon="4.2126">
        <ele>1154.8</ele>
        <time>2026-04-29T12:42:56Z</time>
      </trkpt>
      <trkpt lat="44.97647" lon="4.2126">
        <ele>1154.8</ele>
        <time>2026-04-29T12:43:01Z</time>
      </trkpt>
      <trkpt lat="44.97647" lon="4.2126">
        <ele>1154.8</ele>
        <time>2026-04-29T12:43:06Z</time>
      </trkpt>
      <trkpt lat="44.97647" lon="4.2126">
        <ele>1154.8</ele>
        <time>2026-04-29T12:43:11Z</time>
      </trkpt>
      <trkpt lat="44.97647" lon="4.2126">
        <ele>1154.8</ele>
        <time>2026-04-29T12:43:16Z</time>
      </trkpt>
      <trkpt lat="44.9765" lon="4.21275">
        <ele>1154.1</ele>
        <time>2026-04-29T12:43:21Z</time>
      </trkpt>
      <trkpt lat="44.97652" lon="4.21277">
        <ele>1154.4</ele>
        <time>2026-04-29T12:43:26Z</time>
      </trkpt>
      <trkpt lat="44.97654" lon="4.21275">
        <ele>1155</ele>
        <time>2026-04-29T12:43:31Z</time>
      </trkpt>
      <trkpt lat="44.97655" lon="4.21274">
        <ele>1155.3</ele>
        <time>2026-04-29T12:43:36Z</time>
      </trkpt>
      <trkpt lat="44.97655" lon="4.21274">
        <ele>1155.3</ele>
        <time>2026-04-29T12:43:41Z</time>
      </trkpt>
      <trkpt lat="44.97655" lon="4.21274">
        <ele>1155.3</ele>
        <time>2026-04-29T12:43:46Z</time>
      </trkpt>
      <trkpt lat="44.97655" lon="4.21274">
        <ele>1155.3</ele>
        <time>2026-04-29T12:43:51Z</time>
      </trkpt>
      <trkpt lat="44.97655" lon="4.21274">
        <ele>1155.3</ele>
        <time>2026-04-29T12:43:56Z</time>
      </trkpt>
      <trkpt lat="44.97655" lon="4.21274">
        <ele>1155.3</ele>
        <time>2026-04-29T12:44:01Z</time>
      </trkpt>
      <trkpt lat="44.97655" lon="4.21274">
        <ele>1155.3</ele>
        <time>2026-04-29T12:44:06Z</time>
      </trkpt>
      <trkpt lat="44.97655" lon="4.21274">
        <ele>1155.3</ele>
        <time>2026-04-29T12:44:11Z</time>
      </trkpt>
      <trkpt lat="44.97655" lon="4.21274">
        <ele>1155.3</ele>
        <time>2026-04-29T12:44:16Z</time>
      </trkpt>
      <trkpt lat="44.97655" lon="4.21274">
        <ele>1155.3</ele>
        <time>2026-04-29T12:44:21Z</time>
      </trkpt>
      <trkpt lat="44.97655" lon="4.21274">
        <ele>1155.3</ele>
        <time>2026-04-29T12:44:26Z</time>
      </trkpt>
      <trkpt lat="44.97655" lon="4.21274">
        <ele>1155.3</ele>
        <time>2026-04-29T12:44:31Z</time>
      </trkpt>
      <trkpt lat="44.97655" lon="4.21274">
        <ele>1155.3</ele>
        <time>2026-04-29T12:44:36Z</time>
      </trkpt>
      <trkpt lat="44.97655" lon="4.21274">
        <ele>1155.3</ele>
        <time>2026-04-29T12:44:41Z</time>
      </trkpt>
      <trkpt lat="44.97655" lon="4.21274">
        <ele>1155.3</ele>
        <time>2026-04-29T12:44:46Z</time>
      </trkpt>
      <trkpt lat="44.97655" lon="4.21274">
        <ele>1155.3</ele>
        <time>2026-04-29T12:44:51Z</time>
      </trkpt>
      <trkpt lat="44.97655" lon="4.21274">
        <ele>1155.3</ele>
        <time>2026-04-29T12:44:56Z</time>
      </trkpt>
      <trkpt lat="44.97655" lon="4.21274">
        <ele>1155.3</ele>
        <time>2026-04-29T12:45:01Z</time>
      </trkpt>
      <trkpt lat="44.97655" lon="4.21274">
        <ele>1155.3</ele>
        <time>2026-04-29T12:45:06Z</time>
      </trkpt>
      <trkpt lat="44.97659" lon="4.21279">
        <ele>1155.6</ele>
        <time>2026-04-29T12:45:11Z</time>
      </trkpt>
      <trkpt lat="44.9766" lon="4.21289">
        <ele>1154.9</ele>
        <time>2026-04-29T12:45:16Z</time>
      </trkpt>
      <trkpt lat="44.97663" lon="4.21295">
        <ele>1154.9</ele>
        <time>2026-04-29T12:45:21Z</time>
      </trkpt>
      <trkpt lat="44.97666" lon="4.213">
        <ele>1155.1</ele>
        <time>2026-04-29T12:45:26Z</time>
      </trkpt>
      <trkpt lat="44.97671" lon="4.21305">
        <ele>1155.4</ele>
        <time>2026-04-29T12:45:31Z</time>
      </trkpt>
      <trkpt lat="44.97675" lon="4.21309">
        <ele>1155.7</ele>
        <time>2026-04-29T12:45:36Z</time>
      </trkpt>
      <trkpt lat="44.97679" lon="4.21315">
        <ele>1155.8</ele>
        <time>2026-04-29T12:45:41Z</time>
      </trkpt>
      <trkpt lat="44.97685" lon="4.2132">
        <ele>1156.2</ele>
        <time>2026-04-29T12:45:46Z</time>
      </trkpt>
      <trkpt lat="44.9769" lon="4.21326">
        <ele>1156.4</ele>
        <time>2026-04-29T12:45:51Z</time>
      </trkpt>
      <trkpt lat="44.97695" lon="4.21331">
        <ele>1156.7</ele>
        <time>2026-04-29T12:45:56Z</time>
      </trkpt>
      <trkpt lat="44.977" lon="4.21338">
        <ele>1156.8</ele>
        <time>2026-04-29T12:46:01Z</time>
      </trkpt>
      <trkpt lat="44.97703" lon="4.21346">
        <ele>1156.5</ele>
        <time>2026-04-29T12:46:06Z</time>
      </trkpt>
      <trkpt lat="44.97706" lon="4.21358">
        <ele>1155.9</ele>
        <time>2026-04-29T12:46:11Z</time>
      </trkpt>
      <trkpt lat="44.97707" lon="4.21366">
        <ele>1155.4</ele>
        <time>2026-04-29T12:46:16Z</time>
      </trkpt>
      <trkpt lat="44.97711" lon="4.21372">
        <ele>1155.4</ele>
        <time>2026-04-29T12:46:21Z</time>
      </trkpt>
      <trkpt lat="44.97714" lon="4.21381">
        <ele>1155.1</ele>
        <time>2026-04-29T12:46:26Z</time>
      </trkpt>
      <trkpt lat="44.97718" lon="4.21389">
        <ele>1154.9</ele>
        <time>2026-04-29T12:46:31Z</time>
      </trkpt>
      <trkpt lat="44.97721" lon="4.21399">
        <ele>1154.4</ele>
        <time>2026-04-29T12:46:36Z</time>
      </trkpt>
      <trkpt lat="44.97723" lon="4.21407">
        <ele>1154</ele>
        <time>2026-04-29T12:46:41Z</time>
      </trkpt>
      <trkpt lat="44.97725" lon="4.21416">
        <ele>1153.5</ele>
        <time>2026-04-29T12:46:46Z</time>
      </trkpt>
      <trkpt lat="44.97727" lon="4.21424">
        <ele>1152.9</ele>
        <time>2026-04-29T12:46:51Z</time>
      </trkpt>
      <trkpt lat="44.97729" lon="4.21433">
        <ele>1152.2</ele>
        <time>2026-04-29T12:46:56Z</time>
      </trkpt>
      <trkpt lat="44.9773" lon="4.21443">
        <ele>1151.3</ele>
        <time>2026-04-29T12:47:01Z</time>
      </trkpt>
      <trkpt lat="44.97734" lon="4.21454">
        <ele>1150.6</ele>
        <time>2026-04-29T12:47:06Z</time>
      </trkpt>
      <trkpt lat="44.97739" lon="4.21461">
        <ele>1150.4</ele>
        <time>2026-04-29T12:47:11Z</time>
      </trkpt>
      <trkpt lat="44.97745" lon="4.21463">
        <ele>1150.9</ele>
        <time>2026-04-29T12:47:16Z</time>
      </trkpt>
      <trkpt lat="44.97746" lon="4.2146">
        <ele>1151.3</ele>
        <time>2026-04-29T12:47:21Z</time>
      </trkpt>
      <trkpt lat="44.97742" lon="4.21458">
        <ele>1151.1</ele>
        <time>2026-04-29T12:47:26Z</time>
      </trkpt>
      <trkpt lat="44.97739" lon="4.2146">
        <ele>1150.5</ele>
        <time>2026-04-29T12:47:31Z</time>
      </trkpt>
      <trkpt lat="44.97734" lon="4.21462">
        <ele>1149.7</ele>
        <time>2026-04-29T12:47:36Z</time>
      </trkpt>
      <trkpt lat="44.97732" lon="4.21466">
        <ele>1149</ele>
        <time>2026-04-29T12:47:41Z</time>
      </trkpt>
      <trkpt lat="44.9773" lon="4.21473">
        <ele>1148</ele>
        <time>2026-04-29T12:47:46Z</time>
      </trkpt>
      <trkpt lat="44.97729" lon="4.21484">
        <ele>1146.7</ele>
        <time>2026-04-29T12:47:51Z</time>
      </trkpt>
      <trkpt lat="44.97726" lon="4.21493">
        <ele>1145.4</ele>
        <time>2026-04-29T12:47:56Z</time>
      </trkpt>
      <trkpt lat="44.97723" lon="4.21499">
        <ele>1144.5</ele>
        <time>2026-04-29T12:48:01Z</time>
      </trkpt>
      <trkpt lat="44.97719" lon="4.21506">
        <ele>1143.4</ele>
        <time>2026-04-29T12:48:06Z</time>
      </trkpt>
      <trkpt lat="44.97715" lon="4.21513">
        <ele>1142.3</ele>
        <time>2026-04-29T12:48:11Z</time>
      </trkpt>
      <trkpt lat="44.97712" lon="4.21518">
        <ele>1141.5</ele>
        <time>2026-04-29T12:48:16Z</time>
      </trkpt>
      <trkpt lat="44.97708" lon="4.21522">
        <ele>1140.7</ele>
        <time>2026-04-29T12:48:21Z</time>
      </trkpt>
      <trkpt lat="44.97704" lon="4.21529">
        <ele>1139.6</ele>
        <time>2026-04-29T12:48:26Z</time>
      </trkpt>
      <trkpt lat="44.97702" lon="4.21536">
        <ele>1138.8</ele>
        <time>2026-04-29T12:48:31Z</time>
      </trkpt>
      <trkpt lat="44.97703" lon="4.21545">
        <ele>1137.9</ele>
        <time>2026-04-29T12:48:36Z</time>
      </trkpt>
      <trkpt lat="44.97703" lon="4.21553">
        <ele>1137.1</ele>
        <time>2026-04-29T12:48:41Z</time>
      </trkpt>
      <trkpt lat="44.97701" lon="4.21561">
        <ele>1136.1</ele>
        <time>2026-04-29T12:48:46Z</time>
      </trkpt>
      <trkpt lat="44.97699" lon="4.21568">
        <ele>1135.3</ele>
        <time>2026-04-29T12:48:51Z</time>
      </trkpt>
      <trkpt lat="44.97699" lon="4.21576">
        <ele>1134.5</ele>
        <time>2026-04-29T12:48:56Z</time>
      </trkpt>
      <trkpt lat="44.97696" lon="4.21584">
        <ele>1133.4</ele>
        <time>2026-04-29T12:49:01Z</time>
      </trkpt>
      <trkpt lat="44.97696" lon="4.21591">
        <ele>1132.8</ele>
        <time>2026-04-29T12:49:06Z</time>
      </trkpt>
      <trkpt lat="44.97696" lon="4.21598">
        <ele>1132.2</ele>
        <time>2026-04-29T12:49:11Z</time>
      </trkpt>
      <trkpt lat="44.97696" lon="4.21604">
        <ele>1131.6</ele>
        <time>2026-04-29T12:49:16Z</time>
      </trkpt>
      <trkpt lat="44.97697" lon="4.21611">
        <ele>1131.1</ele>
        <time>2026-04-29T12:49:21Z</time>
      </trkpt>
      <trkpt lat="44.97697" lon="4.21617">
        <ele>1130.5</ele>
        <time>2026-04-29T12:49:26Z</time>
      </trkpt>
      <trkpt lat="44.97696" lon="4.21621">
        <ele>1130.1</ele>
        <time>2026-04-29T12:49:31Z</time>
      </trkpt>
      <trkpt lat="44.97699" lon="4.21629">
        <ele>1129.6</ele>
        <time>2026-04-29T12:49:36Z</time>
      </trkpt>
      <trkpt lat="44.97699" lon="4.21636">
        <ele>1128.9</ele>
        <time>2026-04-29T12:49:41Z</time>
      </trkpt>
      <trkpt lat="44.97698" lon="4.21642">
        <ele>1128.3</ele>
        <time>2026-04-29T12:49:46Z</time>
      </trkpt>
      <trkpt lat="44.97698" lon="4.2165">
        <ele>1127.6</ele>
        <time>2026-04-29T12:49:51Z</time>
      </trkpt>
      <trkpt lat="44.97698" lon="4.21659">
        <ele>1126.8</ele>
        <time>2026-04-29T12:49:56Z</time>
      </trkpt>
      <trkpt lat="44.97698" lon="4.21664">
        <ele>1126.4</ele>
        <time>2026-04-29T12:50:01Z</time>
      </trkpt>
      <trkpt lat="44.977" lon="4.21668">
        <ele>1126.2</ele>
        <time>2026-04-29T12:50:06Z</time>
      </trkpt>
      <trkpt lat="44.97703" lon="4.21675">
        <ele>1126</ele>
        <time>2026-04-29T12:50:11Z</time>
      </trkpt>
      <trkpt lat="44.97707" lon="4.21682">
        <ele>1125.9</ele>
        <time>2026-04-29T12:50:16Z</time>
      </trkpt>
      <trkpt lat="44.97711" lon="4.21689">
        <ele>1125.8</ele>
        <time>2026-04-29T12:50:21Z</time>
      </trkpt>
      <trkpt lat="44.97714" lon="4.21696">
        <ele>1125.6</ele>
        <time>2026-04-29T12:50:26Z</time>
      </trkpt>
      <trkpt lat="44.97715" lon="4.21701">
        <ele>1125.4</ele>
        <time>2026-04-29T12:50:31Z</time>
      </trkpt>
      <trkpt lat="44.97716" lon="4.21706">
        <ele>1125.2</ele>
        <time>2026-04-29T12:50:36Z</time>
      </trkpt>
      <trkpt lat="44.9772" lon="4.21711">
        <ele>1125</ele>
        <time>2026-04-29T12:50:41Z</time>
      </trkpt>
      <trkpt lat="44.97725" lon="4.21716">
        <ele>1124.9</ele>
        <time>2026-04-29T12:50:46Z</time>
      </trkpt>
      <trkpt lat="44.97733" lon="4.21721">
        <ele>1124.7</ele>
        <time>2026-04-29T12:50:51Z</time>
      </trkpt>
      <trkpt lat="44.97737" lon="4.21728">
        <ele>1124.3</ele>
        <time>2026-04-29T12:50:56Z</time>
      </trkpt>
      <trkpt lat="44.9774" lon="4.21735">
        <ele>1123.9</ele>
        <time>2026-04-29T12:51:01Z</time>
      </trkpt>
      <trkpt lat="44.97744" lon="4.21738">
        <ele>1123.8</ele>
        <time>2026-04-29T12:51:06Z</time>
      </trkpt>
      <trkpt lat="44.9775" lon="4.2174">
        <ele>1123.6</ele>
        <time>2026-04-29T12:51:11Z</time>
      </trkpt>
      <trkpt lat="44.97757" lon="4.21744">
        <ele>1123.2</ele>
        <time>2026-04-29T12:51:16Z</time>
      </trkpt>
      <trkpt lat="44.97764" lon="4.21747">
        <ele>1122.8</ele>
        <time>2026-04-29T12:51:21Z</time>
      </trkpt>
      <trkpt lat="44.97769" lon="4.21751">
        <ele>1122.5</ele>
        <time>2026-04-29T12:51:26Z</time>
      </trkpt>
      <trkpt lat="44.97774" lon="4.21759">
        <ele>1122.3</ele>
        <time>2026-04-29T12:51:31Z</time>
      </trkpt>
      <trkpt lat="44.97776" lon="4.21769">
        <ele>1122.1</ele>
        <time>2026-04-29T12:51:36Z</time>
      </trkpt>
      <trkpt lat="44.9778" lon="4.21778">
        <ele>1121.9</ele>
        <time>2026-04-29T12:51:41Z</time>
      </trkpt>
      <trkpt lat="44.97784" lon="4.21787">
        <ele>1121.7</ele>
        <time>2026-04-29T12:51:46Z</time>
      </trkpt>
      <trkpt lat="44.97782" lon="4.21797">
        <ele>1121.7</ele>
        <time>2026-04-29T12:51:51Z</time>
      </trkpt>
      <trkpt lat="44.97784" lon="4.21805">
        <ele>1121.5</ele>
        <time>2026-04-29T12:51:56Z</time>
      </trkpt>
      <trkpt lat="44.97784" lon="4.21815">
        <ele>1121.4</ele>
        <time>2026-04-29T12:52:01Z</time>
      </trkpt>
      <trkpt lat="44.97782" lon="4.21823">
        <ele>1121.4</ele>
        <time>2026-04-29T12:52:06Z</time>
      </trkpt>
      <trkpt lat="44.97782" lon="4.21829">
        <ele>1121.3</ele>
        <time>2026-04-29T12:52:11Z</time>
      </trkpt>
      <trkpt lat="44.97782" lon="4.21832">
        <ele>1121.2</ele>
        <time>2026-04-29T12:52:16Z</time>
      </trkpt>
      <trkpt lat="44.97782" lon="4.21832">
        <ele>1121.2</ele>
        <time>2026-04-29T12:52:21Z</time>
      </trkpt>
      <trkpt lat="44.97781" lon="4.21832">
        <ele>1121.3</ele>
        <time>2026-04-29T12:52:26Z</time>
      </trkpt>
      <trkpt lat="44.97781" lon="4.21832">
        <ele>1121.3</ele>
        <time>2026-04-29T12:52:31Z</time>
      </trkpt>
      <trkpt lat="44.97781" lon="4.21832">
        <ele>1121.3</ele>
        <time>2026-04-29T12:52:36Z</time>
      </trkpt>
      <trkpt lat="44.97781" lon="4.21832">
        <ele>1121.3</ele>
        <time>2026-04-29T12:52:41Z</time>
      </trkpt>
      <trkpt lat="44.97781" lon="4.21832">
        <ele>1121.3</ele>
        <time>2026-04-29T12:52:46Z</time>
      </trkpt>
      <trkpt lat="44.97781" lon="4.21832">
        <ele>1121.3</ele>
        <time>2026-04-29T12:52:51Z</time>
      </trkpt>
      <trkpt lat="44.97781" lon="4.21832">
        <ele>1121.3</ele>
        <time>2026-04-29T12:52:56Z</time>
      </trkpt>
      <trkpt lat="44.97779" lon="4.21835">
        <ele>1121.4</ele>
        <time>2026-04-29T12:53:01Z</time>
      </trkpt>
      <trkpt lat="44.97779" lon="4.21835">
        <ele>1121.4</ele>
        <time>2026-04-29T12:53:06Z</time>
      </trkpt>
      <trkpt lat="44.97779" lon="4.21835">
        <ele>1121.4</ele>
        <time>2026-04-29T12:53:11Z</time>
      </trkpt>
      <trkpt lat="44.97779" lon="4.21835">
        <ele>1121.4</ele>
        <time>2026-04-29T12:53:16Z</time>
      </trkpt>
      <trkpt lat="44.97779" lon="4.21835">
        <ele>1121.4</ele>
        <time>2026-04-29T12:53:21Z</time>
      </trkpt>
      <trkpt lat="44.97779" lon="4.21835">
        <ele>1121.4</ele>
        <time>2026-04-29T12:53:26Z</time>
      </trkpt>
      <trkpt lat="44.97778" lon="4.21848">
        <ele>1122.4</ele>
        <time>2026-04-29T12:53:31Z</time>
      </trkpt>
      <trkpt lat="44.97778" lon="4.21856">
        <ele>1123</ele>
        <time>2026-04-29T12:53:36Z</time>
      </trkpt>
      <trkpt lat="44.97778" lon="4.21859">
        <ele>1123.3</ele>
        <time>2026-04-29T12:53:41Z</time>
      </trkpt>
      <trkpt lat="44.97782" lon="4.21867">
        <ele>1123.7</ele>
        <time>2026-04-29T12:53:46Z</time>
      </trkpt>
      <trkpt lat="44.97783" lon="4.21878">
        <ele>1124.5</ele>
        <time>2026-04-29T12:53:51Z</time>
      </trkpt>
      <trkpt lat="44.97783" lon="4.21886">
        <ele>1125.1</ele>
        <time>2026-04-29T12:53:56Z</time>
      </trkpt>
      <trkpt lat="44.97782" lon="4.21894">
        <ele>1125.8</ele>
        <time>2026-04-29T12:54:01Z</time>
      </trkpt>
      <trkpt lat="44.97782" lon="4.21902">
        <ele>1126.4</ele>
        <time>2026-04-29T12:54:06Z</time>
      </trkpt>
      <trkpt lat="44.97782" lon="4.21911">
        <ele>1127</ele>
        <time>2026-04-29T12:54:11Z</time>
      </trkpt>
      <trkpt lat="44.97783" lon="4.21921">
        <ele>1127.8</ele>
        <time>2026-04-29T12:54:16Z</time>
      </trkpt>
      <trkpt lat="44.97782" lon="4.2193">
        <ele>1128.7</ele>
        <time>2026-04-29T12:54:21Z</time>
      </trkpt>
      <trkpt lat="44.97785" lon="4.21939">
        <ele>1129.3</ele>
        <time>2026-04-29T12:54:26Z</time>
      </trkpt>
      <trkpt lat="44.97787" lon="4.21948">
        <ele>1129.9</ele>
        <time>2026-04-29T12:54:31Z</time>
      </trkpt>
      <trkpt lat="44.97792" lon="4.21954">
        <ele>1130.1</ele>
        <time>2026-04-29T12:54:36Z</time>
      </trkpt>
      <trkpt lat="44.97795" lon="4.21961">
        <ele>1130.5</ele>
        <time>2026-04-29T12:54:41Z</time>
      </trkpt>
      <trkpt lat="44.978" lon="4.21967">
        <ele>1130.6</ele>
        <time>2026-04-29T12:54:46Z</time>
      </trkpt>
      <trkpt lat="44.97805" lon="4.21973">
        <ele>1130.7</ele>
        <time>2026-04-29T12:54:51Z</time>
      </trkpt>
      <trkpt lat="44.97811" lon="4.21978">
        <ele>1130.5</ele>
        <time>2026-04-29T12:54:56Z</time>
      </trkpt>
      <trkpt lat="44.97817" lon="4.21983">
        <ele>1130.4</ele>
        <time>2026-04-29T12:55:01Z</time>
      </trkpt>
      <trkpt lat="44.97823" lon="4.21985">
        <ele>1130</ele>
        <time>2026-04-29T12:55:06Z</time>
      </trkpt>
      <trkpt lat="44.97829" lon="4.21988">
        <ele>1129.7</ele>
        <time>2026-04-29T12:55:11Z</time>
      </trkpt>
      <trkpt lat="44.97835" lon="4.21991">
        <ele>1129.4</ele>
        <time>2026-04-29T12:55:16Z</time>
      </trkpt>
      <trkpt lat="44.97842" lon="4.21993">
        <ele>1129.4</ele>
        <time>2026-04-29T12:55:21Z</time>
      </trkpt>
      <trkpt lat="44.97849" lon="4.21994">
        <ele>1129.4</ele>
        <time>2026-04-29T12:55:26Z</time>
      </trkpt>
      <trkpt lat="44.97856" lon="4.21997">
        <ele>1129.5</ele>
        <time>2026-04-29T12:55:31Z</time>
      </trkpt>
      <trkpt lat="44.97862" lon="4.22">
        <ele>1129.7</ele>
        <time>2026-04-29T12:55:36Z</time>
      </trkpt>
      <trkpt lat="44.97869" lon="4.22004">
        <ele>1130</ele>
        <time>2026-04-29T12:55:41Z</time>
      </trkpt>
      <trkpt lat="44.97875" lon="4.22007">
        <ele>1130.3</ele>
        <time>2026-04-29T12:55:46Z</time>
      </trkpt>
      <trkpt lat="44.97881" lon="4.22009">
        <ele>1130.5</ele>
        <time>2026-04-29T12:55:51Z</time>
      </trkpt>
      <trkpt lat="44.97887" lon="4.22012">
        <ele>1130.8</ele>
        <time>2026-04-29T12:55:56Z</time>
      </trkpt>
      <trkpt lat="44.97894" lon="4.22015">
        <ele>1131.1</ele>
        <time>2026-04-29T12:56:01Z</time>
      </trkpt>
      <trkpt lat="44.979" lon="4.22018">
        <ele>1131.4</ele>
        <time>2026-04-29T12:56:06Z</time>
      </trkpt>
      <trkpt lat="44.97906" lon="4.22021">
        <ele>1131.8</ele>
        <time>2026-04-29T12:56:11Z</time>
      </trkpt>
      <trkpt lat="44.9791" lon="4.22024">
        <ele>1132.2</ele>
        <time>2026-04-29T12:56:16Z</time>
      </trkpt>
      <trkpt lat="44.97913" lon="4.2203">
        <ele>1133</ele>
        <time>2026-04-29T12:56:21Z</time>
      </trkpt>
      <trkpt lat="44.97919" lon="4.22034">
        <ele>1133.6</ele>
        <time>2026-04-29T12:56:26Z</time>
      </trkpt>
      <trkpt lat="44.97923" lon="4.22038">
        <ele>1134.2</ele>
        <time>2026-04-29T12:56:31Z</time>
      </trkpt>
      <trkpt lat="44.97924" lon="4.22039">
        <ele>1134.4</ele>
        <time>2026-04-29T12:56:36Z</time>
      </trkpt>
      <trkpt lat="44.97925" lon="4.2204">
        <ele>1134.6</ele>
        <time>2026-04-29T12:56:41Z</time>
      </trkpt>
      <trkpt lat="44.97927" lon="4.22041">
        <ele>1134.8</ele>
        <time>2026-04-29T12:56:46Z</time>
      </trkpt>
      <trkpt lat="44.9793" lon="4.22042">
        <ele>1135</ele>
        <time>2026-04-29T12:56:51Z</time>
      </trkpt>
      <trkpt lat="44.97935" lon="4.22043">
        <ele>1135.3</ele>
        <time>2026-04-29T12:56:56Z</time>
      </trkpt>
      <trkpt lat="44.97939" lon="4.22044">
        <ele>1135.6</ele>
        <time>2026-04-29T12:57:01Z</time>
      </trkpt>
      <trkpt lat="44.97944" lon="4.22045">
        <ele>1136</ele>
        <time>2026-04-29T12:57:06Z</time>
      </trkpt>
      <trkpt lat="44.97947" lon="4.22046">
        <ele>1136.2</ele>
        <time>2026-04-29T12:57:11Z</time>
      </trkpt>
      <trkpt lat="44.97952" lon="4.22048">
        <ele>1136.7</ele>
        <time>2026-04-29T12:57:16Z</time>
      </trkpt>
      <trkpt lat="44.97955" lon="4.22051">
        <ele>1137.2</ele>
        <time>2026-04-29T12:57:21Z</time>
      </trkpt>
      <trkpt lat="44.97959" lon="4.22054">
        <ele>1137.8</ele>
        <time>2026-04-29T12:57:26Z</time>
      </trkpt>
      <trkpt lat="44.97962" lon="4.22058">
        <ele>1138.5</ele>
        <time>2026-04-29T12:57:31Z</time>
      </trkpt>
      <trkpt lat="44.97965" lon="4.22061">
        <ele>1139.1</ele>
        <time>2026-04-29T12:57:36Z</time>
      </trkpt>
      <trkpt lat="44.97968" lon="4.22062">
        <ele>1139.3</ele>
        <time>2026-04-29T12:57:41Z</time>
      </trkpt>
      <trkpt lat="44.97972" lon="4.22064">
        <ele>1139.8</ele>
        <time>2026-04-29T12:57:46Z</time>
      </trkpt>
      <trkpt lat="44.97974" lon="4.22065">
        <ele>1140</ele>
        <time>2026-04-29T12:57:51Z</time>
      </trkpt>
      <trkpt lat="44.97976" lon="4.22067">
        <ele>1140.4</ele>
        <time>2026-04-29T12:57:56Z</time>
      </trkpt>
      <trkpt lat="44.97979" lon="4.22069">
        <ele>1140.8</ele>
        <time>2026-04-29T12:58:01Z</time>
      </trkpt>
      <trkpt lat="44.97984" lon="4.22071">
        <ele>1141.4</ele>
        <time>2026-04-29T12:58:06Z</time>
      </trkpt>
      <trkpt lat="44.97987" lon="4.22072">
        <ele>1141.7</ele>
        <time>2026-04-29T12:58:11Z</time>
      </trkpt>
      <trkpt lat="44.9799" lon="4.22074">
        <ele>1142.1</ele>
        <time>2026-04-29T12:58:16Z</time>
      </trkpt>
      <trkpt lat="44.97993" lon="4.22075">
        <ele>1142.4</ele>
        <time>2026-04-29T12:58:21Z</time>
      </trkpt>
      <trkpt lat="44.97996" lon="4.22076">
        <ele>1142.7</ele>
        <time>2026-04-29T12:58:26Z</time>
      </trkpt>
      <trkpt lat="44.97999" lon="4.22077">
        <ele>1143</ele>
        <time>2026-04-29T12:58:31Z</time>
      </trkpt>
      <trkpt lat="44.98003" lon="4.22078">
        <ele>1143.5</ele>
        <time>2026-04-29T12:58:36Z</time>
      </trkpt>
      <trkpt lat="44.98006" lon="4.22079">
        <ele>1144</ele>
        <time>2026-04-29T12:58:41Z</time>
      </trkpt>
      <trkpt lat="44.98009" lon="4.22081">
        <ele>1144.6</ele>
        <time>2026-04-29T12:58:46Z</time>
      </trkpt>
      <trkpt lat="44.98012" lon="4.22083">
        <ele>1145.2</ele>
        <time>2026-04-29T12:58:51Z</time>
      </trkpt>
      <trkpt lat="44.98015" lon="4.22082">
        <ele>1145.4</ele>
        <time>2026-04-29T12:58:56Z</time>
      </trkpt>
      <trkpt lat="44.98017" lon="4.22083">
        <ele>1145.8</ele>
        <time>2026-04-29T12:59:01Z</time>
      </trkpt>
      <trkpt lat="44.9802" lon="4.22085">
        <ele>1146.6</ele>
        <time>2026-04-29T12:59:06Z</time>
      </trkpt>
      <trkpt lat="44.98021" lon="4.22085">
        <ele>1146.7</ele>
        <time>2026-04-29T12:59:11Z</time>
      </trkpt>
      <trkpt lat="44.98021" lon="4.22085">
        <ele>1146.7</ele>
        <time>2026-04-29T12:59:16Z</time>
      </trkpt>
      <trkpt lat="44.98026" lon="4.22086">
        <ele>1147.5</ele>
        <time>2026-04-29T12:59:21Z</time>
      </trkpt>
      <trkpt lat="44.9803" lon="4.22087">
        <ele>1148.2</ele>
        <time>2026-04-29T12:59:26Z</time>
      </trkpt>
      <trkpt lat="44.98034" lon="4.22088">
        <ele>1148.8</ele>
        <time>2026-04-29T12:59:31Z</time>
      </trkpt>
      <trkpt lat="44.98037" lon="4.22089">
        <ele>1149.4</ele>
        <time>2026-04-29T12:59:36Z</time>
      </trkpt>
      <trkpt lat="44.9804" lon="4.2209">
        <ele>1150</ele>
        <time>2026-04-29T12:59:41Z</time>
      </trkpt>
      <trkpt lat="44.98044" lon="4.22093">
        <ele>1151.2</ele>
        <time>2026-04-29T12:59:46Z</time>
      </trkpt>
      <trkpt lat="44.98048" lon="4.22095">
        <ele>1152.1</ele>
        <time>2026-04-29T12:59:51Z</time>
      </trkpt>
      <trkpt lat="44.98051" lon="4.22097">
        <ele>1153</ele>
        <time>2026-04-29T12:59:56Z</time>
      </trkpt>
      <trkpt lat="44.98054" lon="4.22099">
        <ele>1153.8</ele>
        <time>2026-04-29T13:00:01Z</time>
      </trkpt>
      <trkpt lat="44.98058" lon="4.22101">
        <ele>1154.7</ele>
        <time>2026-04-29T13:00:06Z</time>
      </trkpt>
      <trkpt lat="44.98063" lon="4.22103">
        <ele>1155.8</ele>
        <time>2026-04-29T13:00:11Z</time>
      </trkpt>
      <trkpt lat="44.98067" lon="4.22106">
        <ele>1156.9</ele>
        <time>2026-04-29T13:00:16Z</time>
      </trkpt>
      <trkpt lat="44.98071" lon="4.22108">
        <ele>1157.9</ele>
        <time>2026-04-29T13:00:21Z</time>
      </trkpt>
      <trkpt lat="44.98074" lon="4.22111">
        <ele>1159</ele>
        <time>2026-04-29T13:00:26Z</time>
      </trkpt>
      <trkpt lat="44.98078" lon="4.22115">
        <ele>1160.4</ele>
        <time>2026-04-29T13:00:31Z</time>
      </trkpt>
      <trkpt lat="44.98083" lon="4.22117">
        <ele>1161.4</ele>
        <time>2026-04-29T13:00:36Z</time>
      </trkpt>
      <trkpt lat="44.98087" lon="4.22121">
        <ele>1162.4</ele>
        <time>2026-04-29T13:00:41Z</time>
      </trkpt>
      <trkpt lat="44.9809" lon="4.22123">
        <ele>1162.9</ele>
        <time>2026-04-29T13:00:46Z</time>
      </trkpt>
      <trkpt lat="44.98094" lon="4.22125">
        <ele>1163.3</ele>
        <time>2026-04-29T13:00:51Z</time>
      </trkpt>
      <trkpt lat="44.98097" lon="4.22127">
        <ele>1163.8</ele>
        <time>2026-04-29T13:00:56Z</time>
      </trkpt>
      <trkpt lat="44.981" lon="4.2213">
        <ele>1164.5</ele>
        <time>2026-04-29T13:01:01Z</time>
      </trkpt>
      <trkpt lat="44.98104" lon="4.22133">
        <ele>1165.2</ele>
        <time>2026-04-29T13:01:06Z</time>
      </trkpt>
      <trkpt lat="44.98107" lon="4.22136">
        <ele>1166</ele>
        <time>2026-04-29T13:01:11Z</time>
      </trkpt>
      <trkpt lat="44.9811" lon="4.2214">
        <ele>1167</ele>
        <time>2026-04-29T13:01:16Z</time>
      </trkpt>
      <trkpt lat="44.98113" lon="4.22144">
        <ele>1168</ele>
        <time>2026-04-29T13:01:21Z</time>
      </trkpt>
      <trkpt lat="44.98118" lon="4.22148">
        <ele>1169</ele>
        <time>2026-04-29T13:01:26Z</time>
      </trkpt>
      <trkpt lat="44.98122" lon="4.2215">
        <ele>1169.5</ele>
        <time>2026-04-29T13:01:31Z</time>
      </trkpt>
      <trkpt lat="44.98127" lon="4.22153">
        <ele>1170.3</ele>
        <time>2026-04-29T13:01:36Z</time>
      </trkpt>
      <trkpt lat="44.98128" lon="4.22154">
        <ele>1170.6</ele>
        <time>2026-04-29T13:01:41Z</time>
      </trkpt>
      <trkpt lat="44.9813" lon="4.22156">
        <ele>1171.1</ele>
        <time>2026-04-29T13:01:46Z</time>
      </trkpt>
      <trkpt lat="44.98134" lon="4.22157">
        <ele>1171.4</ele>
        <time>2026-04-29T13:01:51Z</time>
      </trkpt>
      <trkpt lat="44.98139" lon="4.22159">
        <ele>1171.9</ele>
        <time>2026-04-29T13:01:56Z</time>
      </trkpt>
      <trkpt lat="44.98143" lon="4.22162">
        <ele>1172.7</ele>
        <time>2026-04-29T13:02:01Z</time>
      </trkpt>
      <trkpt lat="44.98146" lon="4.22166">
        <ele>1173.8</ele>
        <time>2026-04-29T13:02:06Z</time>
      </trkpt>
      <trkpt lat="44.98151" lon="4.22168">
        <ele>1174.2</ele>
        <time>2026-04-29T13:02:11Z</time>
      </trkpt>
      <trkpt lat="44.98154" lon="4.22172">
        <ele>1174.7</ele>
        <time>2026-04-29T13:02:16Z</time>
      </trkpt>
      <trkpt lat="44.98158" lon="4.22175">
        <ele>1175.1</ele>
        <time>2026-04-29T13:02:21Z</time>
      </trkpt>
      <trkpt lat="44.98163" lon="4.22179">
        <ele>1175.6</ele>
        <time>2026-04-29T13:02:26Z</time>
      </trkpt>
      <trkpt lat="44.98166" lon="4.22183">
        <ele>1176.2</ele>
        <time>2026-04-29T13:02:31Z</time>
      </trkpt>
      <trkpt lat="44.9817" lon="4.2219">
        <ele>1176.7</ele>
        <time>2026-04-29T13:02:36Z</time>
      </trkpt>
      <trkpt lat="44.98175" lon="4.22194">
        <ele>1176.8</ele>
        <time>2026-04-29T13:02:41Z</time>
      </trkpt>
      <trkpt lat="44.98178" lon="4.22199">
        <ele>1177.2</ele>
        <time>2026-04-29T13:02:46Z</time>
      </trkpt>
      <trkpt lat="44.98181" lon="4.22204">
        <ele>1177.6</ele>
        <time>2026-04-29T13:02:51Z</time>
      </trkpt>
      <trkpt lat="44.98182" lon="4.22208">
        <ele>1178.1</ele>
        <time>2026-04-29T13:02:56Z</time>
      </trkpt>
      <trkpt lat="44.98181" lon="4.22211">
        <ele>1178.6</ele>
        <time>2026-04-29T13:03:01Z</time>
      </trkpt>
      <trkpt lat="44.98181" lon="4.22211">
        <ele>1178.6</ele>
        <time>2026-04-29T13:03:06Z</time>
      </trkpt>
      <trkpt lat="44.98181" lon="4.22211">
        <ele>1178.6</ele>
        <time>2026-04-29T13:03:11Z</time>
      </trkpt>
      <trkpt lat="44.98181" lon="4.22211">
        <ele>1178.6</ele>
        <time>2026-04-29T13:03:16Z</time>
      </trkpt>
      <trkpt lat="44.98191" lon="4.22218">
        <ele>1178.8</ele>
        <time>2026-04-29T13:03:21Z</time>
      </trkpt>
      <trkpt lat="44.98195" lon="4.22221">
        <ele>1178.9</ele>
        <time>2026-04-29T13:03:26Z</time>
      </trkpt>
      <trkpt lat="44.98202" lon="4.22224">
        <ele>1178.8</ele>
        <time>2026-04-29T13:03:31Z</time>
      </trkpt>
      <trkpt lat="44.98207" lon="4.2223">
        <ele>1179.4</ele>
        <time>2026-04-29T13:03:36Z</time>
      </trkpt>
      <trkpt lat="44.98212" lon="4.22237">
        <ele>1180.1</ele>
        <time>2026-04-29T13:03:41Z</time>
      </trkpt>
      <trkpt lat="44.98214" lon="4.22241">
        <ele>1180.7</ele>
        <time>2026-04-29T13:03:46Z</time>
      </trkpt>
      <trkpt lat="44.98219" lon="4.22248">
        <ele>1181.5</ele>
        <time>2026-04-29T13:03:51Z</time>
      </trkpt>
      <trkpt lat="44.98224" lon="4.22256">
        <ele>1181.9</ele>
        <time>2026-04-29T13:03:56Z</time>
      </trkpt>
      <trkpt lat="44.98229" lon="4.22262">
        <ele>1182.1</ele>
        <time>2026-04-29T13:04:01Z</time>
      </trkpt>
      <trkpt lat="44.98235" lon="4.22269">
        <ele>1182.2</ele>
        <time>2026-04-29T13:04:06Z</time>
      </trkpt>
      <trkpt lat="44.98238" lon="4.22276">
        <ele>1182.5</ele>
        <time>2026-04-29T13:04:11Z</time>
      </trkpt>
      <trkpt lat="44.98242" lon="4.22283">
        <ele>1182.8</ele>
        <time>2026-04-29T13:04:16Z</time>
      </trkpt>
      <trkpt lat="44.98247" lon="4.22292">
        <ele>1183.2</ele>
        <time>2026-04-29T13:04:21Z</time>
      </trkpt>
      <trkpt lat="44.98251" lon="4.22299">
        <ele>1183.4</ele>
        <time>2026-04-29T13:04:26Z</time>
      </trkpt>
      <trkpt lat="44.98254" lon="4.22306">
        <ele>1183.6</ele>
        <time>2026-04-29T13:04:31Z</time>
      </trkpt>
      <trkpt lat="44.98259" lon="4.22314">
        <ele>1183.6</ele>
        <time>2026-04-29T13:04:36Z</time>
      </trkpt>
      <trkpt lat="44.98263" lon="4.22321">
        <ele>1183.8</ele>
        <time>2026-04-29T13:04:41Z</time>
      </trkpt>
      <trkpt lat="44.98267" lon="4.22329">
        <ele>1184.2</ele>
        <time>2026-04-29T13:04:46Z</time>
      </trkpt>
      <trkpt lat="44.98271" lon="4.22338">
        <ele>1184.3</ele>
        <time>2026-04-29T13:04:51Z</time>
      </trkpt>
      <trkpt lat="44.98276" lon="4.22348">
        <ele>1184.1</ele>
        <time>2026-04-29T13:04:56Z</time>
      </trkpt>
      <trkpt lat="44.9828" lon="4.22354">
        <ele>1183.9</ele>
        <time>2026-04-29T13:05:01Z</time>
      </trkpt>
      <trkpt lat="44.98283" lon="4.22362">
        <ele>1183.9</ele>
        <time>2026-04-29T13:05:06Z</time>
      </trkpt>
      <trkpt lat="44.98286" lon="4.22371">
        <ele>1184</ele>
        <time>2026-04-29T13:05:11Z</time>
      </trkpt>
      <trkpt lat="44.9829" lon="4.22377">
        <ele>1183.9</ele>
        <time>2026-04-29T13:05:16Z</time>
      </trkpt>
      <trkpt lat="44.98294" lon="4.22384">
        <ele>1183.9</ele>
        <time>2026-04-29T13:05:21Z</time>
      </trkpt>
      <trkpt lat="44.98297" lon="4.22391">
        <ele>1184</ele>
        <time>2026-04-29T13:05:26Z</time>
      </trkpt>
      <trkpt lat="44.98302" lon="4.22399">
        <ele>1184.1</ele>
        <time>2026-04-29T13:05:31Z</time>
      </trkpt>
      <trkpt lat="44.98306" lon="4.22409">
        <ele>1184.3</ele>
        <time>2026-04-29T13:05:36Z</time>
      </trkpt>
      <trkpt lat="44.9831" lon="4.22419">
        <ele>1184.6</ele>
        <time>2026-04-29T13:05:41Z</time>
      </trkpt>
      <trkpt lat="44.98313" lon="4.22424">
        <ele>1184.6</ele>
        <time>2026-04-29T13:05:46Z</time>
      </trkpt>
      <trkpt lat="44.98316" lon="4.2243">
        <ele>1184.6</ele>
        <time>2026-04-29T13:05:51Z</time>
      </trkpt>
      <trkpt lat="44.98322" lon="4.22437">
        <ele>1184.7</ele>
        <time>2026-04-29T13:05:56Z</time>
      </trkpt>
      <trkpt lat="44.98327" lon="4.22442">
        <ele>1184.7</ele>
        <time>2026-04-29T13:06:01Z</time>
      </trkpt>
      <trkpt lat="44.98332" lon="4.22447">
        <ele>1184.7</ele>
        <time>2026-04-29T13:06:06Z</time>
      </trkpt>
      <trkpt lat="44.98337" lon="4.22452">
        <ele>1184.6</ele>
        <time>2026-04-29T13:06:11Z</time>
      </trkpt>
      <trkpt lat="44.98342" lon="4.22457">
        <ele>1184.5</ele>
        <time>2026-04-29T13:06:16Z</time>
      </trkpt>
      <trkpt lat="44.98348" lon="4.22461">
        <ele>1184.3</ele>
        <time>2026-04-29T13:06:21Z</time>
      </trkpt>
      <trkpt lat="44.98354" lon="4.22466">
        <ele>1184.2</ele>
        <time>2026-04-29T13:06:26Z</time>
      </trkpt>
      <trkpt lat="44.9836" lon="4.22471">
        <ele>1184.2</ele>
        <time>2026-04-29T13:06:31Z</time>
      </trkpt>
      <trkpt lat="44.98367" lon="4.22476">
        <ele>1184.2</ele>
        <time>2026-04-29T13:06:36Z</time>
      </trkpt>
      <trkpt lat="44.98371" lon="4.22481">
        <ele>1184.4</ele>
        <time>2026-04-29T13:06:41Z</time>
      </trkpt>
      <trkpt lat="44.98375" lon="4.22485">
        <ele>1184.5</ele>
        <time>2026-04-29T13:06:46Z</time>
      </trkpt>
      <trkpt lat="44.9838" lon="4.22488">
        <ele>1184.6</ele>
        <time>2026-04-29T13:06:51Z</time>
      </trkpt>
      <trkpt lat="44.98384" lon="4.22492">
        <ele>1184.8</ele>
        <time>2026-04-29T13:06:56Z</time>
      </trkpt>
      <trkpt lat="44.98385" lon="4.22494">
        <ele>1184.9</ele>
        <time>2026-04-29T13:07:01Z</time>
      </trkpt>
      <trkpt lat="44.98385" lon="4.22494">
        <ele>1184.9</ele>
        <time>2026-04-29T13:07:06Z</time>
      </trkpt>
      <trkpt lat="44.98385" lon="4.22494">
        <ele>1184.9</ele>
        <time>2026-04-29T13:07:11Z</time>
      </trkpt>
      <trkpt lat="44.98387" lon="4.22497">
        <ele>1185.1</ele>
        <time>2026-04-29T13:07:16Z</time>
      </trkpt>
      <trkpt lat="44.9839" lon="4.22501">
        <ele>1185.3</ele>
        <time>2026-04-29T13:07:21Z</time>
      </trkpt>
      <trkpt lat="44.98394" lon="4.22505">
        <ele>1185.4</ele>
        <time>2026-04-29T13:07:26Z</time>
      </trkpt>
      <trkpt lat="44.98397" lon="4.22508">
        <ele>1185.4</ele>
        <time>2026-04-29T13:07:31Z</time>
      </trkpt>
      <trkpt lat="44.98401" lon="4.22513">
        <ele>1185.5</ele>
        <time>2026-04-29T13:07:36Z</time>
      </trkpt>
      <trkpt lat="44.98405" lon="4.22517">
        <ele>1185.6</ele>
        <time>2026-04-29T13:07:41Z</time>
      </trkpt>
      <trkpt lat="44.98409" lon="4.2252">
        <ele>1185.7</ele>
        <time>2026-04-29T13:07:46Z</time>
      </trkpt>
      <trkpt lat="44.98409" lon="4.2252">
        <ele>1185.7</ele>
        <time>2026-04-29T13:07:51Z</time>
      </trkpt>
      <trkpt lat="44.98409" lon="4.2252">
        <ele>1185.7</ele>
        <time>2026-04-29T13:07:56Z</time>
      </trkpt>
      <trkpt lat="44.98412" lon="4.22522">
        <ele>1185.8</ele>
        <time>2026-04-29T13:08:01Z</time>
      </trkpt>
      <trkpt lat="44.98416" lon="4.22527">
        <ele>1186</ele>
        <time>2026-04-29T13:08:06Z</time>
      </trkpt>
      <trkpt lat="44.9842" lon="4.22532">
        <ele>1186</ele>
        <time>2026-04-29T13:08:11Z</time>
      </trkpt>
      <trkpt lat="44.98423" lon="4.22539">
        <ele>1186.2</ele>
        <time>2026-04-29T13:08:16Z</time>
      </trkpt>
      <trkpt lat="44.98428" lon="4.22544">
        <ele>1186.3</ele>
        <time>2026-04-29T13:08:21Z</time>
      </trkpt>
      <trkpt lat="44.98431" lon="4.22549">
        <ele>1186.5</ele>
        <time>2026-04-29T13:08:26Z</time>
      </trkpt>
      <trkpt lat="44.98435" lon="4.22552">
        <ele>1186.6</ele>
        <time>2026-04-29T13:08:31Z</time>
      </trkpt>
      <trkpt lat="44.98439" lon="4.22556">
        <ele>1186.8</ele>
        <time>2026-04-29T13:08:36Z</time>
      </trkpt>
      <trkpt lat="44.98443" lon="4.22559">
        <ele>1186.9</ele>
        <time>2026-04-29T13:08:41Z</time>
      </trkpt>
      <trkpt lat="44.98447" lon="4.22563">
        <ele>1187.2</ele>
        <time>2026-04-29T13:08:46Z</time>
      </trkpt>
      <trkpt lat="44.98451" lon="4.22566">
        <ele>1187.4</ele>
        <time>2026-04-29T13:08:51Z</time>
      </trkpt>
      <trkpt lat="44.98455" lon="4.22569">
        <ele>1187.7</ele>
        <time>2026-04-29T13:08:56Z</time>
      </trkpt>
      <trkpt lat="44.98457" lon="4.22571">
        <ele>1187.9</ele>
        <time>2026-04-29T13:09:01Z</time>
      </trkpt>
      <trkpt lat="44.98461" lon="4.22576">
        <ele>1188.4</ele>
        <time>2026-04-29T13:09:06Z</time>
      </trkpt>
      <trkpt lat="44.98466" lon="4.22582">
        <ele>1189.1</ele>
        <time>2026-04-29T13:09:11Z</time>
      </trkpt>
      <trkpt lat="44.98471" lon="4.2259">
        <ele>1189.2</ele>
        <time>2026-04-29T13:09:16Z</time>
      </trkpt>
      <trkpt lat="44.98473" lon="4.22594">
        <ele>1189.1</ele>
        <time>2026-04-29T13:09:21Z</time>
      </trkpt>
      <trkpt lat="44.98474" lon="4.22594">
        <ele>1189.2</ele>
        <time>2026-04-29T13:09:26Z</time>
      </trkpt>
      <trkpt lat="44.98479" lon="4.22595">
        <ele>1189.3</ele>
        <time>2026-04-29T13:09:31Z</time>
      </trkpt>
      <trkpt lat="44.98484" lon="4.22601">
        <ele>1189.3</ele>
        <time>2026-04-29T13:09:36Z</time>
      </trkpt>
      <trkpt lat="44.98488" lon="4.22604">
        <ele>1189.4</ele>
        <time>2026-04-29T13:09:41Z</time>
      </trkpt>
      <trkpt lat="44.98493" lon="4.22611">
        <ele>1189.4</ele>
        <time>2026-04-29T13:09:46Z</time>
      </trkpt>
      <trkpt lat="44.98491" lon="4.22624">
        <ele>1189.2</ele>
        <time>2026-04-29T13:09:51Z</time>
      </trkpt>
      <trkpt lat="44.98491" lon="4.22624">
        <ele>1189.2</ele>
        <time>2026-04-29T13:09:56Z</time>
      </trkpt>
      <trkpt lat="44.98488" lon="4.22624">
        <ele>1189.1</ele>
        <time>2026-04-29T13:10:01Z</time>
      </trkpt>
      <trkpt lat="44.98482" lon="4.22628">
        <ele>1188.8</ele>
        <time>2026-04-29T13:10:06Z</time>
      </trkpt>
      <trkpt lat="44.98476" lon="4.22632">
        <ele>1188.5</ele>
        <time>2026-04-29T13:10:11Z</time>
      </trkpt>
      <trkpt lat="44.98472" lon="4.22631">
        <ele>1188.4</ele>
        <time>2026-04-29T13:10:16Z</time>
      </trkpt>
      <trkpt lat="44.98468" lon="4.22629">
        <ele>1188.3</ele>
        <time>2026-04-29T13:10:21Z</time>
      </trkpt>
      <trkpt lat="44.98461" lon="4.22626">
        <ele>1188.1</ele>
        <time>2026-04-29T13:10:26Z</time>
      </trkpt>
      <trkpt lat="44.98457" lon="4.22622">
        <ele>1188</ele>
        <time>2026-04-29T13:10:31Z</time>
      </trkpt>
      <trkpt lat="44.98455" lon="4.22618">
        <ele>1188.1</ele>
        <time>2026-04-29T13:10:36Z</time>
      </trkpt>
      <trkpt lat="44.98451" lon="4.22616">
        <ele>1188</ele>
        <time>2026-04-29T13:10:41Z</time>
      </trkpt>
      <trkpt lat="44.98447" lon="4.22615">
        <ele>1187.9</ele>
        <time>2026-04-29T13:10:46Z</time>
      </trkpt>
      <trkpt lat="44.98442" lon="4.22614">
        <ele>1187.7</ele>
        <time>2026-04-29T13:10:51Z</time>
      </trkpt>
      <trkpt lat="44.9844" lon="4.22612">
        <ele>1187.7</ele>
        <time>2026-04-29T13:10:56Z</time>
      </trkpt>
      <trkpt lat="44.98438" lon="4.22607">
        <ele>1187.8</ele>
        <time>2026-04-29T13:11:01Z</time>
      </trkpt>
      <trkpt lat="44.98438" lon="4.22602">
        <ele>1188</ele>
        <time>2026-04-29T13:11:06Z</time>
      </trkpt>
      <trkpt lat="44.98437" lon="4.226">
        <ele>1188</ele>
        <time>2026-04-29T13:11:11Z</time>
      </trkpt>
      <trkpt lat="44.98437" lon="4.226">
        <ele>1188</ele>
        <time>2026-04-29T13:11:16Z</time>
      </trkpt>
      <trkpt lat="44.98437" lon="4.226">
        <ele>1188</ele>
        <time>2026-04-29T13:11:21Z</time>
      </trkpt>
      <trkpt lat="44.98437" lon="4.226">
        <ele>1188</ele>
        <time>2026-04-29T13:11:26Z</time>
      </trkpt>
      <trkpt lat="44.98437" lon="4.226">
        <ele>1188</ele>
        <time>2026-04-29T13:11:31Z</time>
      </trkpt>
      <trkpt lat="44.98437" lon="4.226">
        <ele>1188</ele>
        <time>2026-04-29T13:11:36Z</time>
      </trkpt>
      <trkpt lat="44.98441" lon="4.22615">
        <ele>1187.7</ele>
        <time>2026-04-29T13:11:41Z</time>
      </trkpt>
      <trkpt lat="44.98447" lon="4.22616">
        <ele>1187.8</ele>
        <time>2026-04-29T13:11:46Z</time>
      </trkpt>
      <trkpt lat="44.98454" lon="4.22612">
        <ele>1188.2</ele>
        <time>2026-04-29T13:11:51Z</time>
      </trkpt>
      <trkpt lat="44.98461" lon="4.22614">
        <ele>1188.4</ele>
        <time>2026-04-29T13:11:56Z</time>
      </trkpt>
      <trkpt lat="44.98464" lon="4.22621">
        <ele>1188.3</ele>
        <time>2026-04-29T13:12:01Z</time>
      </trkpt>
      <trkpt lat="44.98468" lon="4.22629">
        <ele>1188.3</ele>
        <time>2026-04-29T13:12:06Z</time>
      </trkpt>
      <trkpt lat="44.98469" lon="4.22638">
        <ele>1188.1</ele>
        <time>2026-04-29T13:12:11Z</time>
      </trkpt>
      <trkpt lat="44.98471" lon="4.22646">
        <ele>1188</ele>
        <time>2026-04-29T13:12:16Z</time>
      </trkpt>
      <trkpt lat="44.9847" lon="4.22655">
        <ele>1187.8</ele>
        <time>2026-04-29T13:12:21Z</time>
      </trkpt>
      <trkpt lat="44.9847" lon="4.22662">
        <ele>1187.7</ele>
        <time>2026-04-29T13:12:26Z</time>
      </trkpt>
      <trkpt lat="44.9847" lon="4.22671">
        <ele>1187.2</ele>
        <time>2026-04-29T13:12:31Z</time>
      </trkpt>
      <trkpt lat="44.98467" lon="4.22678">
        <ele>1186.4</ele>
        <time>2026-04-29T13:12:36Z</time>
      </trkpt>
      <trkpt lat="44.98466" lon="4.22686">
        <ele>1185.6</ele>
        <time>2026-04-29T13:12:41Z</time>
      </trkpt>
      <trkpt lat="44.98464" lon="4.22692">
        <ele>1185</ele>
        <time>2026-04-29T13:12:46Z</time>
      </trkpt>
      <trkpt lat="44.98463" lon="4.22697">
        <ele>1184.5</ele>
        <time>2026-04-29T13:12:51Z</time>
      </trkpt>
      <trkpt lat="44.98463" lon="4.22702">
        <ele>1184</ele>
        <time>2026-04-29T13:12:56Z</time>
      </trkpt>
      <trkpt lat="44.98464" lon="4.22703">
        <ele>1184</ele>
        <time>2026-04-29T13:13:01Z</time>
      </trkpt>
      <trkpt lat="44.98464" lon="4.22703">
        <ele>1184</ele>
        <time>2026-04-29T13:13:06Z</time>
      </trkpt>
      <trkpt lat="44.98467" lon="4.22694">
        <ele>1184.9</ele>
        <time>2026-04-29T13:13:11Z</time>
      </trkpt>
      <trkpt lat="44.9847" lon="4.22687">
        <ele>1185.7</ele>
        <time>2026-04-29T13:13:16Z</time>
      </trkpt>
      <trkpt lat="44.98472" lon="4.22681">
        <ele>1186.3</ele>
        <time>2026-04-29T13:13:21Z</time>
      </trkpt>
      <trkpt lat="44.98476" lon="4.22675">
        <ele>1187.1</ele>
        <time>2026-04-29T13:13:26Z</time>
      </trkpt>
      <trkpt lat="44.98478" lon="4.22669">
        <ele>1187.7</ele>
        <time>2026-04-29T13:13:31Z</time>
      </trkpt>
      <trkpt lat="44.98484" lon="4.22664">
        <ele>1188.3</ele>
        <time>2026-04-29T13:13:36Z</time>
      </trkpt>
      <trkpt lat="44.98492" lon="4.2266">
        <ele>1188.7</ele>
        <time>2026-04-29T13:13:41Z</time>
      </trkpt>
      <trkpt lat="44.98499" lon="4.22658">
        <ele>1189.1</ele>
        <time>2026-04-29T13:13:46Z</time>
      </trkpt>
      <trkpt lat="44.98504" lon="4.22658">
        <ele>1188.9</ele>
        <time>2026-04-29T13:13:51Z</time>
      </trkpt>
      <trkpt lat="44.98512" lon="4.22655">
        <ele>1188.5</ele>
        <time>2026-04-29T13:13:56Z</time>
      </trkpt>
      <trkpt lat="44.98516" lon="4.2266">
        <ele>1188.2</ele>
        <time>2026-04-29T13:14:01Z</time>
      </trkpt>
      <trkpt lat="44.98516" lon="4.2266">
        <ele>1188.2</ele>
        <time>2026-04-29T13:14:06Z</time>
      </trkpt>
      <trkpt lat="44.98521" lon="4.22654">
        <ele>1188</ele>
        <time>2026-04-29T13:14:11Z</time>
      </trkpt>
      <trkpt lat="44.98526" lon="4.22647">
        <ele>1187.6</ele>
        <time>2026-04-29T13:14:16Z</time>
      </trkpt>
      <trkpt lat="44.98529" lon="4.22647">
        <ele>1187.4</ele>
        <time>2026-04-29T13:14:21Z</time>
      </trkpt>
      <trkpt lat="44.98531" lon="4.22649">
        <ele>1187.3</ele>
        <time>2026-04-29T13:14:26Z</time>
      </trkpt>
      <trkpt lat="44.98529" lon="4.22655">
        <ele>1187.5</ele>
        <time>2026-04-29T13:14:31Z</time>
      </trkpt>
      <trkpt lat="44.98533" lon="4.22662">
        <ele>1187.4</ele>
        <time>2026-04-29T13:14:36Z</time>
      </trkpt>
      <trkpt lat="44.98533" lon="4.22662">
        <ele>1187.4</ele>
        <time>2026-04-29T13:14:41Z</time>
      </trkpt>
      <trkpt lat="44.98533" lon="4.22662">
        <ele>1187.4</ele>
        <time>2026-04-29T13:14:46Z</time>
      </trkpt>
      <trkpt lat="44.98533" lon="4.22662">
        <ele>1187.4</ele>
        <time>2026-04-29T13:14:51Z</time>
      </trkpt>
      <trkpt lat="44.98533" lon="4.22662">
        <ele>1187.4</ele>
        <time>2026-04-29T13:14:56Z</time>
      </trkpt>
      <trkpt lat="44.98533" lon="4.22662">
        <ele>1187.4</ele>
        <time>2026-04-29T13:15:01Z</time>
      </trkpt>
      <trkpt lat="44.98538" lon="4.22663">
        <ele>1187.1</ele>
        <time>2026-04-29T13:15:06Z</time>
      </trkpt>
      <trkpt lat="44.98541" lon="4.22672">
        <ele>1186.6</ele>
        <time>2026-04-29T13:15:11Z</time>
      </trkpt>
      <trkpt lat="44.98545" lon="4.22675">
        <ele>1186.3</ele>
        <time>2026-04-29T13:15:16Z</time>
      </trkpt>
      <trkpt lat="44.98547" lon="4.22675">
        <ele>1186.2</ele>
        <time>2026-04-29T13:15:21Z</time>
      </trkpt>
      <trkpt lat="44.98546" lon="4.22675">
        <ele>1186.2</ele>
        <time>2026-04-29T13:15:26Z</time>
      </trkpt>
      <trkpt lat="44.98546" lon="4.22675">
        <ele>1186.2</ele>
        <time>2026-04-29T13:15:26Z</time>
      </trkpt>
      <trkpt lat="44.98548" lon="4.22678">
        <ele>1185.9</ele>
        <time>2026-04-29T13:55:21Z</time>
      </trkpt>
      <trkpt lat="44.98548" lon="4.22678">
        <ele>1185.9</ele>
        <time>2026-04-29T13:55:27Z</time>
      </trkpt>
      <trkpt lat="44.98548" lon="4.22678">
        <ele>1185.9</ele>
        <time>2026-04-29T13:55:32Z</time>
      </trkpt>
      <trkpt lat="44.98548" lon="4.22678">
        <ele>1185.9</ele>
        <time>2026-04-29T13:55:37Z</time>
      </trkpt>
      <trkpt lat="44.98545" lon="4.22671">
        <ele>1186.5</ele>
        <time>2026-04-29T13:55:42Z</time>
      </trkpt>
      <trkpt lat="44.98546" lon="4.22666">
        <ele>1186.8</ele>
        <time>2026-04-29T13:55:47Z</time>
      </trkpt>
      <trkpt lat="44.9855" lon="4.22663">
        <ele>1186.5</ele>
        <time>2026-04-29T13:55:52Z</time>
      </trkpt>
      <trkpt lat="44.98557" lon="4.22664">
        <ele>1186.2</ele>
        <time>2026-04-29T13:55:57Z</time>
      </trkpt>
      <trkpt lat="44.98564" lon="4.22664">
        <ele>1185.8</ele>
        <time>2026-04-29T13:56:02Z</time>
      </trkpt>
      <trkpt lat="44.98571" lon="4.22667">
        <ele>1185.6</ele>
        <time>2026-04-29T13:56:07Z</time>
      </trkpt>
      <trkpt lat="44.98573" lon="4.22677">
        <ele>1184.9</ele>
        <time>2026-04-29T13:56:12Z</time>
      </trkpt>
      <trkpt lat="44.98571" lon="4.22682">
        <ele>1184.7</ele>
        <time>2026-04-29T13:56:17Z</time>
      </trkpt>
      <trkpt lat="44.98566" lon="4.22685">
        <ele>1184.8</ele>
        <time>2026-04-29T13:56:22Z</time>
      </trkpt>
      <trkpt lat="44.98566" lon="4.22688">
        <ele>1184.6</ele>
        <time>2026-04-29T13:56:27Z</time>
      </trkpt>
      <trkpt lat="44.98567" lon="4.22687">
        <ele>1184.6</ele>
        <time>2026-04-29T13:56:32Z</time>
      </trkpt>
      <trkpt lat="44.98568" lon="4.22687">
        <ele>1184.6</ele>
        <time>2026-04-29T13:56:37Z</time>
      </trkpt>
      <trkpt lat="44.98568" lon="4.22687">
        <ele>1184.6</ele>
        <time>2026-04-29T13:56:42Z</time>
      </trkpt>
      <trkpt lat="44.98568" lon="4.22687">
        <ele>1184.6</ele>
        <time>2026-04-29T13:56:47Z</time>
      </trkpt>
      <trkpt lat="44.98568" lon="4.22687">
        <ele>1184.6</ele>
        <time>2026-04-29T13:56:52Z</time>
      </trkpt>
      <trkpt lat="44.98568" lon="4.22687">
        <ele>1184.6</ele>
        <time>2026-04-29T13:56:57Z</time>
      </trkpt>
      <trkpt lat="44.98568" lon="4.22687">
        <ele>1184.6</ele>
        <time>2026-04-29T13:57:02Z</time>
      </trkpt>
      <trkpt lat="44.98568" lon="4.22687">
        <ele>1184.6</ele>
        <time>2026-04-29T13:57:07Z</time>
      </trkpt>
      <trkpt lat="44.98568" lon="4.22687">
        <ele>1184.6</ele>
        <time>2026-04-29T13:57:12Z</time>
      </trkpt>
      <trkpt lat="44.98568" lon="4.22687">
        <ele>1184.6</ele>
        <time>2026-04-29T13:57:17Z</time>
      </trkpt>
      <trkpt lat="44.98568" lon="4.22687">
        <ele>1184.6</ele>
        <time>2026-04-29T13:57:22Z</time>
      </trkpt>
      <trkpt lat="44.98572" lon="4.22692">
        <ele>1184.2</ele>
        <time>2026-04-29T13:57:27Z</time>
      </trkpt>
      <trkpt lat="44.98577" lon="4.22695">
        <ele>1183.8</ele>
        <time>2026-04-29T13:57:32Z</time>
      </trkpt>
      <trkpt lat="44.98584" lon="4.22698">
        <ele>1183.5</ele>
        <time>2026-04-29T13:57:37Z</time>
      </trkpt>
      <trkpt lat="44.9859" lon="4.22703">
        <ele>1182.9</ele>
        <time>2026-04-29T13:57:42Z</time>
      </trkpt>
      <trkpt lat="44.98596" lon="4.22707">
        <ele>1182.3</ele>
        <time>2026-04-29T13:57:47Z</time>
      </trkpt>
      <trkpt lat="44.98602" lon="4.22706">
        <ele>1182</ele>
        <time>2026-04-29T13:57:52Z</time>
      </trkpt>
      <trkpt lat="44.98608" lon="4.22708">
        <ele>1181.5</ele>
        <time>2026-04-29T13:57:57Z</time>
      </trkpt>
      <trkpt lat="44.98612" lon="4.2272">
        <ele>1180.6</ele>
        <time>2026-04-29T13:58:02Z</time>
      </trkpt>
      <trkpt lat="44.98613" lon="4.22731">
        <ele>1179.9</ele>
        <time>2026-04-29T13:58:07Z</time>
      </trkpt>
      <trkpt lat="44.98614" lon="4.22741">
        <ele>1179.3</ele>
        <time>2026-04-29T13:58:12Z</time>
      </trkpt>
      <trkpt lat="44.98614" lon="4.22751">
        <ele>1178.6</ele>
        <time>2026-04-29T13:58:17Z</time>
      </trkpt>
      <trkpt lat="44.98614" lon="4.22758">
        <ele>1177.2</ele>
        <time>2026-04-29T13:58:22Z</time>
      </trkpt>
      <trkpt lat="44.98614" lon="4.22765">
        <ele>1175.8</ele>
        <time>2026-04-29T13:58:27Z</time>
      </trkpt>
      <trkpt lat="44.9861" lon="4.22768">
        <ele>1175.6</ele>
        <time>2026-04-29T13:58:32Z</time>
      </trkpt>
      <trkpt lat="44.98602" lon="4.22768">
        <ele>1176.2</ele>
        <time>2026-04-29T13:58:37Z</time>
      </trkpt>
      <trkpt lat="44.98595" lon="4.22765">
        <ele>1177.3</ele>
        <time>2026-04-29T13:58:42Z</time>
      </trkpt>
      <trkpt lat="44.98588" lon="4.22766">
        <ele>1177.6</ele>
        <time>2026-04-29T13:58:47Z</time>
      </trkpt>
      <trkpt lat="44.98585" lon="4.22765">
        <ele>1178</ele>
        <time>2026-04-29T13:58:52Z</time>
      </trkpt>
      <trkpt lat="44.9859" lon="4.22765">
        <ele>1177.6</ele>
        <time>2026-04-29T13:58:57Z</time>
      </trkpt>
      <trkpt lat="44.98595" lon="4.22766">
        <ele>1177.1</ele>
        <time>2026-04-29T13:59:02Z</time>
      </trkpt>
      <trkpt lat="44.98601" lon="4.22765">
        <ele>1176.8</ele>
        <time>2026-04-29T13:59:07Z</time>
      </trkpt>
      <trkpt lat="44.98606" lon="4.22767">
        <ele>1176</ele>
        <time>2026-04-29T13:59:12Z</time>
      </trkpt>
      <trkpt lat="44.9861" lon="4.22766">
        <ele>1175.9</ele>
        <time>2026-04-29T13:59:17Z</time>
      </trkpt>
      <trkpt lat="44.98613" lon="4.22769">
        <ele>1175.1</ele>
        <time>2026-04-29T13:59:22Z</time>
      </trkpt>
      <trkpt lat="44.98613" lon="4.22771">
        <ele>1174.7</ele>
        <time>2026-04-29T13:59:27Z</time>
      </trkpt>
      <trkpt lat="44.98614" lon="4.22772">
        <ele>1174.5</ele>
        <time>2026-04-29T13:59:32Z</time>
      </trkpt>
      <trkpt lat="44.98614" lon="4.22772">
        <ele>1174.5</ele>
        <time>2026-04-29T13:59:37Z</time>
      </trkpt>
      <trkpt lat="44.98612" lon="4.22775">
        <ele>1174</ele>
        <time>2026-04-29T13:59:42Z</time>
      </trkpt>
      <trkpt lat="44.98613" lon="4.22774">
        <ele>1174.2</ele>
        <time>2026-04-29T13:59:47Z</time>
      </trkpt>
      <trkpt lat="44.98613" lon="4.22774">
        <ele>1174.2</ele>
        <time>2026-04-29T13:59:52Z</time>
      </trkpt>
      <trkpt lat="44.98613" lon="4.2277">
        <ele>1174.9</ele>
        <time>2026-04-29T13:59:57Z</time>
      </trkpt>
      <trkpt lat="44.98614" lon="4.22765">
        <ele>1175.8</ele>
        <time>2026-04-29T14:00:02Z</time>
      </trkpt>
      <trkpt lat="44.98618" lon="4.2276">
        <ele>1176.5</ele>
        <time>2026-04-29T14:00:07Z</time>
      </trkpt>
      <trkpt lat="44.9862" lon="4.22758">
        <ele>1176.8</ele>
        <time>2026-04-29T14:00:12Z</time>
      </trkpt>
      <trkpt lat="44.98624" lon="4.2276">
        <ele>1176.1</ele>
        <time>2026-04-29T14:00:17Z</time>
      </trkpt>
      <trkpt lat="44.98627" lon="4.2277">
        <ele>1173.9</ele>
        <time>2026-04-29T14:00:22Z</time>
      </trkpt>
      <trkpt lat="44.9863" lon="4.22778">
        <ele>1172.1</ele>
        <time>2026-04-29T14:00:27Z</time>
      </trkpt>
      <trkpt lat="44.98635" lon="4.22784">
        <ele>1170.5</ele>
        <time>2026-04-29T14:00:32Z</time>
      </trkpt>
      <trkpt lat="44.9864" lon="4.22792">
        <ele>1168.5</ele>
        <time>2026-04-29T14:00:37Z</time>
      </trkpt>
      <trkpt lat="44.98644" lon="4.22801">
        <ele>1166.4</ele>
        <time>2026-04-29T14:00:42Z</time>
      </trkpt>
      <trkpt lat="44.98648" lon="4.22809">
        <ele>1164.5</ele>
        <time>2026-04-29T14:00:47Z</time>
      </trkpt>
      <trkpt lat="44.98652" lon="4.22815">
        <ele>1162.9</ele>
        <time>2026-04-29T14:00:52Z</time>
      </trkpt>
      <trkpt lat="44.98655" lon="4.2282">
        <ele>1161.7</ele>
        <time>2026-04-29T14:00:57Z</time>
      </trkpt>
      <trkpt lat="44.98659" lon="4.22828">
        <ele>1159.7</ele>
        <time>2026-04-29T14:01:02Z</time>
      </trkpt>
      <trkpt lat="44.98659" lon="4.22836">
        <ele>1158.1</ele>
        <time>2026-04-29T14:01:07Z</time>
      </trkpt>
      <trkpt lat="44.98656" lon="4.22841">
        <ele>1157.4</ele>
        <time>2026-04-29T14:01:12Z</time>
      </trkpt>
      <trkpt lat="44.98651" lon="4.22841">
        <ele>1157.8</ele>
        <time>2026-04-29T14:01:17Z</time>
      </trkpt>
      <trkpt lat="44.98647" lon="4.22843">
        <ele>1157.7</ele>
        <time>2026-04-29T14:01:22Z</time>
      </trkpt>
      <trkpt lat="44.98641" lon="4.22843">
        <ele>1158.1</ele>
        <time>2026-04-29T14:01:27Z</time>
      </trkpt>
      <trkpt lat="44.98635" lon="4.22841">
        <ele>1159</ele>
        <time>2026-04-29T14:01:32Z</time>
      </trkpt>
      <trkpt lat="44.98632" lon="4.22838">
        <ele>1159.9</ele>
        <time>2026-04-29T14:01:37Z</time>
      </trkpt>
      <trkpt lat="44.98625" lon="4.22835">
        <ele>1161.1</ele>
        <time>2026-04-29T14:01:42Z</time>
      </trkpt>
      <trkpt lat="44.98618" lon="4.22833">
        <ele>1162.2</ele>
        <time>2026-04-29T14:01:47Z</time>
      </trkpt>
      <trkpt lat="44.9861" lon="4.22831">
        <ele>1163.2</ele>
        <time>2026-04-29T14:01:52Z</time>
      </trkpt>
      <trkpt lat="44.98601" lon="4.2283">
        <ele>1164.2</ele>
        <time>2026-04-29T14:01:57Z</time>
      </trkpt>
      <trkpt lat="44.98594" lon="4.2283">
        <ele>1164.7</ele>
        <time>2026-04-29T14:02:02Z</time>
      </trkpt>
      <trkpt lat="44.98585" lon="4.2283">
        <ele>1165.5</ele>
        <time>2026-04-29T14:02:07Z</time>
      </trkpt>
      <trkpt lat="44.98576" lon="4.22831">
        <ele>1165.8</ele>
        <time>2026-04-29T14:02:12Z</time>
      </trkpt>
      <trkpt lat="44.98569" lon="4.22834">
        <ele>1165.5</ele>
        <time>2026-04-29T14:02:17Z</time>
      </trkpt>
      <trkpt lat="44.98563" lon="4.22838">
        <ele>1164.8</ele>
        <time>2026-04-29T14:02:22Z</time>
      </trkpt>
      <trkpt lat="44.98555" lon="4.22842">
        <ele>1164.3</ele>
        <time>2026-04-29T14:02:27Z</time>
      </trkpt>
      <trkpt lat="44.98547" lon="4.22845">
        <ele>1164</ele>
        <time>2026-04-29T14:02:32Z</time>
      </trkpt>
      <trkpt lat="44.9854" lon="4.22849">
        <ele>1163.4</ele>
        <time>2026-04-29T14:02:37Z</time>
      </trkpt>
      <trkpt lat="44.98534" lon="4.22853">
        <ele>1162.8</ele>
        <time>2026-04-29T14:02:42Z</time>
      </trkpt>
      <trkpt lat="44.98528" lon="4.22858">
        <ele>1162</ele>
        <time>2026-04-29T14:02:47Z</time>
      </trkpt>
      <trkpt lat="44.98521" lon="4.2286">
        <ele>1162</ele>
        <time>2026-04-29T14:02:52Z</time>
      </trkpt>
      <trkpt lat="44.98514" lon="4.22866">
        <ele>1161.1</ele>
        <time>2026-04-29T14:02:57Z</time>
      </trkpt>
      <trkpt lat="44.98506" lon="4.22872">
        <ele>1160.3</ele>
        <time>2026-04-29T14:03:02Z</time>
      </trkpt>
      <trkpt lat="44.98499" lon="4.22876">
        <ele>1159.8</ele>
        <time>2026-04-29T14:03:07Z</time>
      </trkpt>
      <trkpt lat="44.98491" lon="4.2288">
        <ele>1159.5</ele>
        <time>2026-04-29T14:03:12Z</time>
      </trkpt>
      <trkpt lat="44.98485" lon="4.22883">
        <ele>1159.3</ele>
        <time>2026-04-29T14:03:17Z</time>
      </trkpt>
      <trkpt lat="44.98478" lon="4.22884">
        <ele>1159.5</ele>
        <time>2026-04-29T14:03:22Z</time>
      </trkpt>
      <trkpt lat="44.98471" lon="4.22886">
        <ele>1159.6</ele>
        <time>2026-04-29T14:03:27Z</time>
      </trkpt>
      <trkpt lat="44.98464" lon="4.22892">
        <ele>1159</ele>
        <time>2026-04-29T14:03:32Z</time>
      </trkpt>
      <trkpt lat="44.9846" lon="4.22894">
        <ele>1159</ele>
        <time>2026-04-29T14:03:37Z</time>
      </trkpt>
      <trkpt lat="44.98457" lon="4.22896">
        <ele>1158.8</ele>
        <time>2026-04-29T14:03:42Z</time>
      </trkpt>
      <trkpt lat="44.98453" lon="4.22899">
        <ele>1158.6</ele>
        <time>2026-04-29T14:03:47Z</time>
      </trkpt>
      <trkpt lat="44.98449" lon="4.22903">
        <ele>1158.2</ele>
        <time>2026-04-29T14:03:52Z</time>
      </trkpt>
      <trkpt lat="44.98448" lon="4.22904">
        <ele>1158.2</ele>
        <time>2026-04-29T14:03:57Z</time>
      </trkpt>
      <trkpt lat="44.98448" lon="4.22904">
        <ele>1158.2</ele>
        <time>2026-04-29T14:04:02Z</time>
      </trkpt>
      <trkpt lat="44.98443" lon="4.22903">
        <ele>1158.8</ele>
        <time>2026-04-29T14:04:07Z</time>
      </trkpt>
      <trkpt lat="44.98443" lon="4.22901">
        <ele>1159.1</ele>
        <time>2026-04-29T14:04:12Z</time>
      </trkpt>
      <trkpt lat="44.98444" lon="4.229">
        <ele>1159.2</ele>
        <time>2026-04-29T14:04:17Z</time>
      </trkpt>
      <trkpt lat="44.98444" lon="4.229">
        <ele>1159.2</ele>
        <time>2026-04-29T14:04:22Z</time>
      </trkpt>
      <trkpt lat="44.98444" lon="4.229">
        <ele>1159.2</ele>
        <time>2026-04-29T14:04:27Z</time>
      </trkpt>
      <trkpt lat="44.98444" lon="4.229">
        <ele>1159.2</ele>
        <time>2026-04-29T14:04:32Z</time>
      </trkpt>
      <trkpt lat="44.98444" lon="4.229">
        <ele>1159.2</ele>
        <time>2026-04-29T14:04:37Z</time>
      </trkpt>
      <trkpt lat="44.98444" lon="4.229">
        <ele>1159.2</ele>
        <time>2026-04-29T14:04:42Z</time>
      </trkpt>
      <trkpt lat="44.9845" lon="4.22904">
        <ele>1158</ele>
        <time>2026-04-29T14:04:47Z</time>
      </trkpt>
      <trkpt lat="44.98455" lon="4.22899">
        <ele>1158.4</ele>
        <time>2026-04-29T14:04:52Z</time>
      </trkpt>
      <trkpt lat="44.9846" lon="4.22895">
        <ele>1158.8</ele>
        <time>2026-04-29T14:04:57Z</time>
      </trkpt>
      <trkpt lat="44.98465" lon="4.22891">
        <ele>1159.1</ele>
        <time>2026-04-29T14:05:02Z</time>
      </trkpt>
      <trkpt lat="44.98471" lon="4.2289">
        <ele>1158.9</ele>
        <time>2026-04-29T14:05:07Z</time>
      </trkpt>
      <trkpt lat="44.98477" lon="4.22887">
        <ele>1159</ele>
        <time>2026-04-29T14:05:12Z</time>
      </trkpt>
      <trkpt lat="44.98483" lon="4.22884">
        <ele>1159.2</ele>
        <time>2026-04-29T14:05:17Z</time>
      </trkpt>
      <trkpt lat="44.98489" lon="4.22882">
        <ele>1159.2</ele>
        <time>2026-04-29T14:05:22Z</time>
      </trkpt>
      <trkpt lat="44.98494" lon="4.22881">
        <ele>1159.1</ele>
        <time>2026-04-29T14:05:27Z</time>
      </trkpt>
      <trkpt lat="44.985" lon="4.22878">
        <ele>1159.4</ele>
        <time>2026-04-29T14:05:32Z</time>
      </trkpt>
      <trkpt lat="44.98506" lon="4.22875">
        <ele>1159.6</ele>
        <time>2026-04-29T14:05:37Z</time>
      </trkpt>
      <trkpt lat="44.98513" lon="4.22871">
        <ele>1160</ele>
        <time>2026-04-29T14:05:42Z</time>
      </trkpt>
      <trkpt lat="44.98519" lon="4.22868">
        <ele>1160.3</ele>
        <time>2026-04-29T14:05:47Z</time>
      </trkpt>
      <trkpt lat="44.98524" lon="4.22865">
        <ele>1160.7</ele>
        <time>2026-04-29T14:05:52Z</time>
      </trkpt>
      <trkpt lat="44.9853" lon="4.22861">
        <ele>1161.2</ele>
        <time>2026-04-29T14:05:57Z</time>
      </trkpt>
      <trkpt lat="44.98536" lon="4.22856">
        <ele>1162</ele>
        <time>2026-04-29T14:06:02Z</time>
      </trkpt>
      <trkpt lat="44.98543" lon="4.22853">
        <ele>1162.3</ele>
        <time>2026-04-29T14:06:07Z</time>
      </trkpt>
      <trkpt lat="44.98547" lon="4.2285">
        <ele>1162.8</ele>
        <time>2026-04-29T14:06:12Z</time>
      </trkpt>
      <trkpt lat="44.98554" lon="4.22846">
        <ele>1163.4</ele>
        <time>2026-04-29T14:06:17Z</time>
      </trkpt>
      <trkpt lat="44.98561" lon="4.22841">
        <ele>1164.2</ele>
        <time>2026-04-29T14:06:22Z</time>
      </trkpt>
      <trkpt lat="44.98566" lon="4.22837">
        <ele>1164.9</ele>
        <time>2026-04-29T14:06:27Z</time>
      </trkpt>
      <trkpt lat="44.98571" lon="4.22833">
        <ele>1165.7</ele>
        <time>2026-04-29T14:06:32Z</time>
      </trkpt>
      <trkpt lat="44.98577" lon="4.22832">
        <ele>1165.6</ele>
        <time>2026-04-29T14:06:37Z</time>
      </trkpt>
      <trkpt lat="44.98584" lon="4.22831">
        <ele>1165.4</ele>
        <time>2026-04-29T14:06:42Z</time>
      </trkpt>
      <trkpt lat="44.98591" lon="4.22831">
        <ele>1164.8</ele>
        <time>2026-04-29T14:06:47Z</time>
      </trkpt>
      <trkpt lat="44.98598" lon="4.22833">
        <ele>1163.8</ele>
        <time>2026-04-29T14:06:52Z</time>
      </trkpt>
      <trkpt lat="44.98604" lon="4.22834">
        <ele>1163.1</ele>
        <time>2026-04-29T14:06:57Z</time>
      </trkpt>
      <trkpt lat="44.9861" lon="4.22835">
        <ele>1162.4</ele>
        <time>2026-04-29T14:07:02Z</time>
      </trkpt>
      <trkpt lat="44.98617" lon="4.22836">
        <ele>1161.6</ele>
        <time>2026-04-29T14:07:07Z</time>
      </trkpt>
      <trkpt lat="44.98622" lon="4.22838">
        <ele>1160.7</ele>
        <time>2026-04-29T14:07:12Z</time>
      </trkpt>
      <trkpt lat="44.98627" lon="4.2284">
        <ele>1159.9</ele>
        <time>2026-04-29T14:07:17Z</time>
      </trkpt>
      <trkpt lat="44.98632" lon="4.22843">
        <ele>1158.8</ele>
        <time>2026-04-29T14:07:22Z</time>
      </trkpt>
      <trkpt lat="44.98637" lon="4.22844">
        <ele>1158.2</ele>
        <time>2026-04-29T14:07:27Z</time>
      </trkpt>
      <trkpt lat="44.98641" lon="4.22845">
        <ele>1157.7</ele>
        <time>2026-04-29T14:07:32Z</time>
      </trkpt>
      <trkpt lat="44.98646" lon="4.22843">
        <ele>1157.7</ele>
        <time>2026-04-29T14:07:37Z</time>
      </trkpt>
      <trkpt lat="44.98653" lon="4.22841">
        <ele>1157.6</ele>
        <time>2026-04-29T14:07:42Z</time>
      </trkpt>
      <trkpt lat="44.9866" lon="4.22844">
        <ele>1156.5</ele>
        <time>2026-04-29T14:07:47Z</time>
      </trkpt>
      <trkpt lat="44.98664" lon="4.22852">
        <ele>1154.6</ele>
        <time>2026-04-29T14:07:52Z</time>
      </trkpt>
      <trkpt lat="44.98667" lon="4.22859">
        <ele>1153.1</ele>
        <time>2026-04-29T14:07:57Z</time>
      </trkpt>
      <trkpt lat="44.98669" lon="4.22867">
        <ele>1151.8</ele>
        <time>2026-04-29T14:08:02Z</time>
      </trkpt>
      <trkpt lat="44.98671" lon="4.22876">
        <ele>1150.3</ele>
        <time>2026-04-29T14:08:07Z</time>
      </trkpt>
      <trkpt lat="44.98673" lon="4.22888">
        <ele>1148.3</ele>
        <time>2026-04-29T14:08:12Z</time>
      </trkpt>
      <trkpt lat="44.98675" lon="4.22898">
        <ele>1146.6</ele>
        <time>2026-04-29T14:08:17Z</time>
      </trkpt>
      <trkpt lat="44.98677" lon="4.22908">
        <ele>1145</ele>
        <time>2026-04-29T14:08:22Z</time>
      </trkpt>
      <trkpt lat="44.98679" lon="4.22918">
        <ele>1143.5</ele>
        <time>2026-04-29T14:08:27Z</time>
      </trkpt>
      <trkpt lat="44.98682" lon="4.22929">
        <ele>1142.4</ele>
        <time>2026-04-29T14:08:32Z</time>
      </trkpt>
      <trkpt lat="44.98684" lon="4.22939">
        <ele>1141.3</ele>
        <time>2026-04-29T14:08:37Z</time>
      </trkpt>
      <trkpt lat="44.98688" lon="4.22948">
        <ele>1140.5</ele>
        <time>2026-04-29T14:08:42Z</time>
      </trkpt>
      <trkpt lat="44.98692" lon="4.22955">
        <ele>1139.9</ele>
        <time>2026-04-29T14:08:47Z</time>
      </trkpt>
      <trkpt lat="44.98697" lon="4.22961">
        <ele>1139.5</ele>
        <time>2026-04-29T14:08:52Z</time>
      </trkpt>
      <trkpt lat="44.98701" lon="4.22968">
        <ele>1138.8</ele>
        <time>2026-04-29T14:08:57Z</time>
      </trkpt>
      <trkpt lat="44.98704" lon="4.22976">
        <ele>1137.9</ele>
        <time>2026-04-29T14:09:02Z</time>
      </trkpt>
      <trkpt lat="44.98706" lon="4.2298">
        <ele>1137.4</ele>
        <time>2026-04-29T14:09:07Z</time>
      </trkpt>
      <trkpt lat="44.98705" lon="4.22981">
        <ele>1137.2</ele>
        <time>2026-04-29T14:09:12Z</time>
      </trkpt>
      <trkpt lat="44.98705" lon="4.22981">
        <ele>1137.2</ele>
        <time>2026-04-29T14:09:17Z</time>
      </trkpt>
      <trkpt lat="44.98705" lon="4.22981">
        <ele>1137.2</ele>
        <time>2026-04-29T14:09:22Z</time>
      </trkpt>
      <trkpt lat="44.98708" lon="4.22985">
        <ele>1136.8</ele>
        <time>2026-04-29T14:09:27Z</time>
      </trkpt>
      <trkpt lat="44.9871" lon="4.22993">
        <ele>1135.7</ele>
        <time>2026-04-29T14:09:32Z</time>
      </trkpt>
      <trkpt lat="44.9871" lon="4.23002">
        <ele>1134.4</ele>
        <time>2026-04-29T14:09:37Z</time>
      </trkpt>
      <trkpt lat="44.98714" lon="4.23007">
        <ele>1134.1</ele>
        <time>2026-04-29T14:09:42Z</time>
      </trkpt>
      <trkpt lat="44.98714" lon="4.23007">
        <ele>1134.1</ele>
        <time>2026-04-29T14:09:47Z</time>
      </trkpt>
      <trkpt lat="44.98714" lon="4.23007">
        <ele>1134.1</ele>
        <time>2026-04-29T14:09:52Z</time>
      </trkpt>
      <trkpt lat="44.98711" lon="4.23008">
        <ele>1133.8</ele>
        <time>2026-04-29T14:09:57Z</time>
      </trkpt>
      <trkpt lat="44.98711" lon="4.23008">
        <ele>1133.8</ele>
        <time>2026-04-29T14:10:02Z</time>
      </trkpt>
      <trkpt lat="44.98711" lon="4.23008">
        <ele>1133.8</ele>
        <time>2026-04-29T14:10:07Z</time>
      </trkpt>
      <trkpt lat="44.98711" lon="4.23008">
        <ele>1133.8</ele>
        <time>2026-04-29T14:10:12Z</time>
      </trkpt>
      <trkpt lat="44.98706" lon="4.23013">
        <ele>1133</ele>
        <time>2026-04-29T14:10:17Z</time>
      </trkpt>
      <trkpt lat="44.987" lon="4.23015">
        <ele>1132.5</ele>
        <time>2026-04-29T14:10:22Z</time>
      </trkpt>
      <trkpt lat="44.98696" lon="4.23018">
        <ele>1131.9</ele>
        <time>2026-04-29T14:10:27Z</time>
      </trkpt>
      <trkpt lat="44.98696" lon="4.23024">
        <ele>1131.3</ele>
        <time>2026-04-29T14:10:32Z</time>
      </trkpt>
      <trkpt lat="44.98698" lon="4.23032">
        <ele>1130.6</ele>
        <time>2026-04-29T14:10:37Z</time>
      </trkpt>
      <trkpt lat="44.98698" lon="4.23042">
        <ele>1129.6</ele>
        <time>2026-04-29T14:10:42Z</time>
      </trkpt>
      <trkpt lat="44.98699" lon="4.23051">
        <ele>1128.7</ele>
        <time>2026-04-29T14:10:47Z</time>
      </trkpt>
      <trkpt lat="44.98701" lon="4.23062">
        <ele>1127.6</ele>
        <time>2026-04-29T14:10:52Z</time>
      </trkpt>
      <trkpt lat="44.98701" lon="4.23073">
        <ele>1126.5</ele>
        <time>2026-04-29T14:10:57Z</time>
      </trkpt>
      <trkpt lat="44.98702" lon="4.23084">
        <ele>1125.4</ele>
        <time>2026-04-29T14:11:02Z</time>
      </trkpt>
      <trkpt lat="44.98702" lon="4.23095">
        <ele>1124.4</ele>
        <time>2026-04-29T14:11:07Z</time>
      </trkpt>
      <trkpt lat="44.98702" lon="4.23104">
        <ele>1123.6</ele>
        <time>2026-04-29T14:11:12Z</time>
      </trkpt>
      <trkpt lat="44.98702" lon="4.23115">
        <ele>1122.7</ele>
        <time>2026-04-29T14:11:17Z</time>
      </trkpt>
      <trkpt lat="44.98703" lon="4.23125">
        <ele>1121.8</ele>
        <time>2026-04-29T14:11:22Z</time>
      </trkpt>
      <trkpt lat="44.98702" lon="4.23135">
        <ele>1120.9</ele>
        <time>2026-04-29T14:11:27Z</time>
      </trkpt>
      <trkpt lat="44.98702" lon="4.23148">
        <ele>1119.8</ele>
        <time>2026-04-29T14:11:32Z</time>
      </trkpt>
      <trkpt lat="44.98704" lon="4.2316">
        <ele>1118.7</ele>
        <time>2026-04-29T14:11:37Z</time>
      </trkpt>
      <trkpt lat="44.98705" lon="4.2317">
        <ele>1117.8</ele>
        <time>2026-04-29T14:11:42Z</time>
      </trkpt>
      <trkpt lat="44.98706" lon="4.23183">
        <ele>1116.5</ele>
        <time>2026-04-29T14:11:47Z</time>
      </trkpt>
      <trkpt lat="44.98708" lon="4.23195">
        <ele>1115.3</ele>
        <time>2026-04-29T14:11:52Z</time>
      </trkpt>
      <trkpt lat="44.98708" lon="4.23207">
        <ele>1114.1</ele>
        <time>2026-04-29T14:11:57Z</time>
      </trkpt>
      <trkpt lat="44.98709" lon="4.23217">
        <ele>1113.2</ele>
        <time>2026-04-29T14:12:02Z</time>
      </trkpt>
      <trkpt lat="44.9871" lon="4.23227">
        <ele>1112.2</ele>
        <time>2026-04-29T14:12:07Z</time>
      </trkpt>
      <trkpt lat="44.98711" lon="4.23238">
        <ele>1111.1</ele>
        <time>2026-04-29T14:12:12Z</time>
      </trkpt>
      <trkpt lat="44.98712" lon="4.23248">
        <ele>1110.1</ele>
        <time>2026-04-29T14:12:17Z</time>
      </trkpt>
      <trkpt lat="44.98713" lon="4.23258">
        <ele>1109.5</ele>
        <time>2026-04-29T14:12:22Z</time>
      </trkpt>
      <trkpt lat="44.98714" lon="4.23269">
        <ele>1108.9</ele>
        <time>2026-04-29T14:12:27Z</time>
      </trkpt>
      <trkpt lat="44.98716" lon="4.2328">
        <ele>1108.2</ele>
        <time>2026-04-29T14:12:32Z</time>
      </trkpt>
      <trkpt lat="44.98718" lon="4.2329">
        <ele>1107.7</ele>
        <time>2026-04-29T14:12:37Z</time>
      </trkpt>
      <trkpt lat="44.9872" lon="4.23301">
        <ele>1107.1</ele>
        <time>2026-04-29T14:12:42Z</time>
      </trkpt>
      <trkpt lat="44.98722" lon="4.23311">
        <ele>1106.5</ele>
        <time>2026-04-29T14:12:47Z</time>
      </trkpt>
      <trkpt lat="44.98725" lon="4.23323">
        <ele>1105.8</ele>
        <time>2026-04-29T14:12:52Z</time>
      </trkpt>
      <trkpt lat="44.98727" lon="4.23332">
        <ele>1105.3</ele>
        <time>2026-04-29T14:12:57Z</time>
      </trkpt>
      <trkpt lat="44.98729" lon="4.23344">
        <ele>1104.7</ele>
        <time>2026-04-29T14:13:02Z</time>
      </trkpt>
      <trkpt lat="44.98731" lon="4.23355">
        <ele>1104.2</ele>
        <time>2026-04-29T14:13:07Z</time>
      </trkpt>
      <trkpt lat="44.98733" lon="4.23366">
        <ele>1103.6</ele>
        <time>2026-04-29T14:13:12Z</time>
      </trkpt>
      <trkpt lat="44.98734" lon="4.23376">
        <ele>1103.1</ele>
        <time>2026-04-29T14:13:17Z</time>
      </trkpt>
      <trkpt lat="44.98736" lon="4.23387">
        <ele>1102.6</ele>
        <time>2026-04-29T14:13:22Z</time>
      </trkpt>
      <trkpt lat="44.98737" lon="4.23398">
        <ele>1102.1</ele>
        <time>2026-04-29T14:13:27Z</time>
      </trkpt>
      <trkpt lat="44.98739" lon="4.23409">
        <ele>1101.5</ele>
        <time>2026-04-29T14:13:32Z</time>
      </trkpt>
      <trkpt lat="44.98742" lon="4.23419">
        <ele>1101</ele>
        <time>2026-04-29T14:13:37Z</time>
      </trkpt>
      <trkpt lat="44.98745" lon="4.23427">
        <ele>1100.6</ele>
        <time>2026-04-29T14:13:42Z</time>
      </trkpt>
      <trkpt lat="44.98748" lon="4.23433">
        <ele>1100.2</ele>
        <time>2026-04-29T14:13:47Z</time>
      </trkpt>
      <trkpt lat="44.98755" lon="4.23438">
        <ele>1099.8</ele>
        <time>2026-04-29T14:13:52Z</time>
      </trkpt>
      <trkpt lat="44.98761" lon="4.23443">
        <ele>1099.3</ele>
        <time>2026-04-29T14:13:57Z</time>
      </trkpt>
      <trkpt lat="44.98767" lon="4.23447">
        <ele>1098.9</ele>
        <time>2026-04-29T14:14:02Z</time>
      </trkpt>
      <trkpt lat="44.98774" lon="4.23446">
        <ele>1098.7</ele>
        <time>2026-04-29T14:14:07Z</time>
      </trkpt>
      <trkpt lat="44.98782" lon="4.23447">
        <ele>1098.4</ele>
        <time>2026-04-29T14:14:12Z</time>
      </trkpt>
      <trkpt lat="44.98787" lon="4.2345">
        <ele>1098.1</ele>
        <time>2026-04-29T14:14:17Z</time>
      </trkpt>
      <trkpt lat="44.98791" lon="4.23457">
        <ele>1097.6</ele>
        <time>2026-04-29T14:14:22Z</time>
      </trkpt>
      <trkpt lat="44.98791" lon="4.23464">
        <ele>1097.3</ele>
        <time>2026-04-29T14:14:27Z</time>
      </trkpt>
      <trkpt lat="44.9879" lon="4.23473">
        <ele>1096.9</ele>
        <time>2026-04-29T14:14:32Z</time>
      </trkpt>
      <trkpt lat="44.98789" lon="4.23483">
        <ele>1096.4</ele>
        <time>2026-04-29T14:14:37Z</time>
      </trkpt>
      <trkpt lat="44.98788" lon="4.23494">
        <ele>1095.9</ele>
        <time>2026-04-29T14:14:42Z</time>
      </trkpt>
      <trkpt lat="44.98788" lon="4.23505">
        <ele>1095.4</ele>
        <time>2026-04-29T14:14:47Z</time>
      </trkpt>
      <trkpt lat="44.98788" lon="4.23515">
        <ele>1095</ele>
        <time>2026-04-29T14:14:52Z</time>
      </trkpt>
      <trkpt lat="44.98788" lon="4.23526">
        <ele>1094.5</ele>
        <time>2026-04-29T14:14:57Z</time>
      </trkpt>
      <trkpt lat="44.98788" lon="4.23537">
        <ele>1094.1</ele>
        <time>2026-04-29T14:15:02Z</time>
      </trkpt>
      <trkpt lat="44.98786" lon="4.23546">
        <ele>1093.7</ele>
        <time>2026-04-29T14:15:07Z</time>
      </trkpt>
      <trkpt lat="44.98786" lon="4.23557">
        <ele>1093.3</ele>
        <time>2026-04-29T14:15:12Z</time>
      </trkpt>
      <trkpt lat="44.98786" lon="4.23568">
        <ele>1092.8</ele>
        <time>2026-04-29T14:15:17Z</time>
      </trkpt>
      <trkpt lat="44.98786" lon="4.23579">
        <ele>1092.3</ele>
        <time>2026-04-29T14:15:22Z</time>
      </trkpt>
      <trkpt lat="44.98786" lon="4.23588">
        <ele>1092</ele>
        <time>2026-04-29T14:15:27Z</time>
      </trkpt>
      <trkpt lat="44.98786" lon="4.236">
        <ele>1091.6</ele>
        <time>2026-04-29T14:15:32Z</time>
      </trkpt>
      <trkpt lat="44.98786" lon="4.23611">
        <ele>1091.3</ele>
        <time>2026-04-29T14:15:37Z</time>
      </trkpt>
      <trkpt lat="44.98786" lon="4.23621">
        <ele>1091</ele>
        <time>2026-04-29T14:15:42Z</time>
      </trkpt>
      <trkpt lat="44.98786" lon="4.23632">
        <ele>1090.6</ele>
        <time>2026-04-29T14:15:47Z</time>
      </trkpt>
      <trkpt lat="44.98786" lon="4.23644">
        <ele>1090.3</ele>
        <time>2026-04-29T14:15:52Z</time>
      </trkpt>
      <trkpt lat="44.98786" lon="4.23656">
        <ele>1089.9</ele>
        <time>2026-04-29T14:15:57Z</time>
      </trkpt>
      <trkpt lat="44.98786" lon="4.23668">
        <ele>1089.5</ele>
        <time>2026-04-29T14:16:02Z</time>
      </trkpt>
      <trkpt lat="44.98787" lon="4.23679">
        <ele>1089.2</ele>
        <time>2026-04-29T14:16:07Z</time>
      </trkpt>
      <trkpt lat="44.98786" lon="4.23689">
        <ele>1088.9</ele>
        <time>2026-04-29T14:16:12Z</time>
      </trkpt>
      <trkpt lat="44.98787" lon="4.237">
        <ele>1088.6</ele>
        <time>2026-04-29T14:16:17Z</time>
      </trkpt>
      <trkpt lat="44.98787" lon="4.23711">
        <ele>1088.3</ele>
        <time>2026-04-29T14:16:22Z</time>
      </trkpt>
      <trkpt lat="44.98787" lon="4.23721">
        <ele>1088</ele>
        <time>2026-04-29T14:16:27Z</time>
      </trkpt>
      <trkpt lat="44.98788" lon="4.23731">
        <ele>1087.6</ele>
        <time>2026-04-29T14:16:32Z</time>
      </trkpt>
      <trkpt lat="44.98786" lon="4.23741">
        <ele>1087.4</ele>
        <time>2026-04-29T14:16:37Z</time>
      </trkpt>
      <trkpt lat="44.98786" lon="4.23753">
        <ele>1087.2</ele>
        <time>2026-04-29T14:16:42Z</time>
      </trkpt>
      <trkpt lat="44.98784" lon="4.23763">
        <ele>1087.4</ele>
        <time>2026-04-29T14:16:47Z</time>
      </trkpt>
      <trkpt lat="44.98782" lon="4.23774">
        <ele>1087.7</ele>
        <time>2026-04-29T14:16:52Z</time>
      </trkpt>
      <trkpt lat="44.98782" lon="4.23783">
        <ele>1087.9</ele>
        <time>2026-04-29T14:16:57Z</time>
      </trkpt>
      <trkpt lat="44.9878" lon="4.23793">
        <ele>1088.1</ele>
        <time>2026-04-29T14:17:02Z</time>
      </trkpt>
      <trkpt lat="44.98777" lon="4.23802">
        <ele>1088.4</ele>
        <time>2026-04-29T14:17:07Z</time>
      </trkpt>
      <trkpt lat="44.98776" lon="4.23813">
        <ele>1088.7</ele>
        <time>2026-04-29T14:17:12Z</time>
      </trkpt>
      <trkpt lat="44.98774" lon="4.23823">
        <ele>1088.9</ele>
        <time>2026-04-29T14:17:17Z</time>
      </trkpt>
      <trkpt lat="44.98772" lon="4.23832">
        <ele>1089.2</ele>
        <time>2026-04-29T14:17:22Z</time>
      </trkpt>
      <trkpt lat="44.98772" lon="4.23841">
        <ele>1089.8</ele>
        <time>2026-04-29T14:17:27Z</time>
      </trkpt>
      <trkpt lat="44.98772" lon="4.23851">
        <ele>1090.6</ele>
        <time>2026-04-29T14:17:32Z</time>
      </trkpt>
      <trkpt lat="44.98771" lon="4.2386">
        <ele>1091.4</ele>
        <time>2026-04-29T14:17:37Z</time>
      </trkpt>
      <trkpt lat="44.9877" lon="4.23867">
        <ele>1092</ele>
        <time>2026-04-29T14:17:42Z</time>
      </trkpt>
      <trkpt lat="44.98769" lon="4.23873">
        <ele>1092.5</ele>
        <time>2026-04-29T14:17:47Z</time>
      </trkpt>
      <trkpt lat="44.98767" lon="4.2388">
        <ele>1093.2</ele>
        <time>2026-04-29T14:17:52Z</time>
      </trkpt>
      <trkpt lat="44.98766" lon="4.23885">
        <ele>1093.6</ele>
        <time>2026-04-29T14:17:57Z</time>
      </trkpt>
      <trkpt lat="44.98765" lon="4.23891">
        <ele>1094.2</ele>
        <time>2026-04-29T14:18:02Z</time>
      </trkpt>
      <trkpt lat="44.98763" lon="4.23896">
        <ele>1094.7</ele>
        <time>2026-04-29T14:18:07Z</time>
      </trkpt>
      <trkpt lat="44.98763" lon="4.23903">
        <ele>1095.3</ele>
        <time>2026-04-29T14:18:12Z</time>
      </trkpt>
      <trkpt lat="44.98761" lon="4.23909">
        <ele>1095.8</ele>
        <time>2026-04-29T14:18:17Z</time>
      </trkpt>
      <trkpt lat="44.98761" lon="4.23915">
        <ele>1096.3</ele>
        <time>2026-04-29T14:18:22Z</time>
      </trkpt>
      <trkpt lat="44.98761" lon="4.23921">
        <ele>1097.2</ele>
        <time>2026-04-29T14:18:27Z</time>
      </trkpt>
      <trkpt lat="44.98761" lon="4.23928">
        <ele>1098.4</ele>
        <time>2026-04-29T14:18:32Z</time>
      </trkpt>
      <trkpt lat="44.98762" lon="4.23935">
        <ele>1099.4</ele>
        <time>2026-04-29T14:18:37Z</time>
      </trkpt>
      <trkpt lat="44.9876" lon="4.23942">
        <ele>1100.8</ele>
        <time>2026-04-29T14:18:42Z</time>
      </trkpt>
      <trkpt lat="44.98758" lon="4.23949">
        <ele>1102.1</ele>
        <time>2026-04-29T14:18:47Z</time>
      </trkpt>
      <trkpt lat="44.98759" lon="4.23956">
        <ele>1103.2</ele>
        <time>2026-04-29T14:18:52Z</time>
      </trkpt>
      <trkpt lat="44.98759" lon="4.23963">
        <ele>1104.4</ele>
        <time>2026-04-29T14:18:57Z</time>
      </trkpt>
      <trkpt lat="44.98758" lon="4.2397">
        <ele>1105.7</ele>
        <time>2026-04-29T14:19:02Z</time>
      </trkpt>
      <trkpt lat="44.98758" lon="4.23977">
        <ele>1106.9</ele>
        <time>2026-04-29T14:19:07Z</time>
      </trkpt>
      <trkpt lat="44.98757" lon="4.23983">
        <ele>1108</ele>
        <time>2026-04-29T14:19:12Z</time>
      </trkpt>
      <trkpt lat="44.98756" lon="4.23989">
        <ele>1109.2</ele>
        <time>2026-04-29T14:19:17Z</time>
      </trkpt>
      <trkpt lat="44.98755" lon="4.23995">
        <ele>1110.4</ele>
        <time>2026-04-29T14:19:22Z</time>
      </trkpt>
      <trkpt lat="44.98753" lon="4.24">
        <ele>1111.5</ele>
        <time>2026-04-29T14:19:27Z</time>
      </trkpt>
      <trkpt lat="44.98753" lon="4.24006">
        <ele>1112.7</ele>
        <time>2026-04-29T14:19:32Z</time>
      </trkpt>
      <trkpt lat="44.98752" lon="4.24012">
        <ele>1114</ele>
        <time>2026-04-29T14:19:37Z</time>
      </trkpt>
      <trkpt lat="44.98751" lon="4.24018">
        <ele>1115.3</ele>
        <time>2026-04-29T14:19:42Z</time>
      </trkpt>
      <trkpt lat="44.98751" lon="4.24023">
        <ele>1116.2</ele>
        <time>2026-04-29T14:19:47Z</time>
      </trkpt>
      <trkpt lat="44.98752" lon="4.24028">
        <ele>1117</ele>
        <time>2026-04-29T14:19:52Z</time>
      </trkpt>
      <trkpt lat="44.98752" lon="4.24035">
        <ele>1118.4</ele>
        <time>2026-04-29T14:19:57Z</time>
      </trkpt>
      <trkpt lat="44.98752" lon="4.24039">
        <ele>1119.1</ele>
        <time>2026-04-29T14:20:02Z</time>
      </trkpt>
      <trkpt lat="44.98753" lon="4.24044">
        <ele>1119.9</ele>
        <time>2026-04-29T14:20:07Z</time>
      </trkpt>
      <trkpt lat="44.98754" lon="4.2405">
        <ele>1120.9</ele>
        <time>2026-04-29T14:20:12Z</time>
      </trkpt>
      <trkpt lat="44.98756" lon="4.24055">
        <ele>1121.4</ele>
        <time>2026-04-29T14:20:17Z</time>
      </trkpt>
      <trkpt lat="44.98758" lon="4.2406">
        <ele>1122</ele>
        <time>2026-04-29T14:20:22Z</time>
      </trkpt>
      <trkpt lat="44.9876" lon="4.24064">
        <ele>1122.4</ele>
        <time>2026-04-29T14:20:27Z</time>
      </trkpt>
      <trkpt lat="44.98761" lon="4.24068">
        <ele>1122.9</ele>
        <time>2026-04-29T14:20:32Z</time>
      </trkpt>
      <trkpt lat="44.98762" lon="4.24074">
        <ele>1123.8</ele>
        <time>2026-04-29T14:20:37Z</time>
      </trkpt>
      <trkpt lat="44.98764" lon="4.24076">
        <ele>1123.8</ele>
        <time>2026-04-29T14:20:42Z</time>
      </trkpt>
      <trkpt lat="44.98764" lon="4.24079">
        <ele>1124.3</ele>
        <time>2026-04-29T14:20:47Z</time>
      </trkpt>
      <trkpt lat="44.98765" lon="4.24083">
        <ele>1124.9</ele>
        <time>2026-04-29T14:20:52Z</time>
      </trkpt>
      <trkpt lat="44.98766" lon="4.24087">
        <ele>1125.1</ele>
        <time>2026-04-29T14:20:57Z</time>
      </trkpt>
      <trkpt lat="44.98767" lon="4.24092">
        <ele>1125.3</ele>
        <time>2026-04-29T14:21:02Z</time>
      </trkpt>
      <trkpt lat="44.9877" lon="4.24095">
        <ele>1125</ele>
        <time>2026-04-29T14:21:07Z</time>
      </trkpt>
      <trkpt lat="44.98771" lon="4.241">
        <ele>1125.3</ele>
        <time>2026-04-29T14:21:12Z</time>
      </trkpt>
      <trkpt lat="44.98774" lon="4.24105">
        <ele>1125.3</ele>
        <time>2026-04-29T14:21:17Z</time>
      </trkpt>
      <trkpt lat="44.98776" lon="4.24109">
        <ele>1125.3</ele>
        <time>2026-04-29T14:21:22Z</time>
      </trkpt>
      <trkpt lat="44.98778" lon="4.24114">
        <ele>1125.5</ele>
        <time>2026-04-29T14:21:27Z</time>
      </trkpt>
      <trkpt lat="44.98779" lon="4.2412">
        <ele>1125.9</ele>
        <time>2026-04-29T14:21:32Z</time>
      </trkpt>
      <trkpt lat="44.9878" lon="4.24125">
        <ele>1126.3</ele>
        <time>2026-04-29T14:21:37Z</time>
      </trkpt>
      <trkpt lat="44.98781" lon="4.2413">
        <ele>1126.7</ele>
        <time>2026-04-29T14:21:42Z</time>
      </trkpt>
      <trkpt lat="44.98782" lon="4.24135">
        <ele>1127.1</ele>
        <time>2026-04-29T14:21:47Z</time>
      </trkpt>
      <trkpt lat="44.98783" lon="4.24139">
        <ele>1127.4</ele>
        <time>2026-04-29T14:21:52Z</time>
      </trkpt>
      <trkpt lat="44.98784" lon="4.24144">
        <ele>1127.8</ele>
        <time>2026-04-29T14:21:57Z</time>
      </trkpt>
      <trkpt lat="44.98785" lon="4.24149">
        <ele>1128.2</ele>
        <time>2026-04-29T14:22:02Z</time>
      </trkpt>
      <trkpt lat="44.98786" lon="4.24154">
        <ele>1128.7</ele>
        <time>2026-04-29T14:22:07Z</time>
      </trkpt>
      <trkpt lat="44.98787" lon="4.24159">
        <ele>1129.1</ele>
        <time>2026-04-29T14:22:12Z</time>
      </trkpt>
      <trkpt lat="44.98788" lon="4.24164">
        <ele>1129.6</ele>
        <time>2026-04-29T14:22:17Z</time>
      </trkpt>
      <trkpt lat="44.98789" lon="4.24168">
        <ele>1130</ele>
        <time>2026-04-29T14:22:22Z</time>
      </trkpt>
      <trkpt lat="44.98789" lon="4.24172">
        <ele>1130.6</ele>
        <time>2026-04-29T14:22:27Z</time>
      </trkpt>
      <trkpt lat="44.9879" lon="4.24176">
        <ele>1131.1</ele>
        <time>2026-04-29T14:22:32Z</time>
      </trkpt>
      <trkpt lat="44.98791" lon="4.2418">
        <ele>1131.6</ele>
        <time>2026-04-29T14:22:37Z</time>
      </trkpt>
      <trkpt lat="44.98792" lon="4.24185">
        <ele>1132.2</ele>
        <time>2026-04-29T14:22:42Z</time>
      </trkpt>
      <trkpt lat="44.98792" lon="4.24192">
        <ele>1133.3</ele>
        <time>2026-04-29T14:22:47Z</time>
      </trkpt>
      <trkpt lat="44.98791" lon="4.24198">
        <ele>1134.3</ele>
        <time>2026-04-29T14:22:52Z</time>
      </trkpt>
      <trkpt lat="44.98791" lon="4.24204">
        <ele>1135.2</ele>
        <time>2026-04-29T14:22:57Z</time>
      </trkpt>
      <trkpt lat="44.98792" lon="4.24209">
        <ele>1135.8</ele>
        <time>2026-04-29T14:23:02Z</time>
      </trkpt>
      <trkpt lat="44.98791" lon="4.24215">
        <ele>1136.8</ele>
        <time>2026-04-29T14:23:07Z</time>
      </trkpt>
      <trkpt lat="44.98792" lon="4.2422">
        <ele>1137.5</ele>
        <time>2026-04-29T14:23:12Z</time>
      </trkpt>
      <trkpt lat="44.98793" lon="4.24226">
        <ele>1138.3</ele>
        <time>2026-04-29T14:23:17Z</time>
      </trkpt>
      <trkpt lat="44.98793" lon="4.2423">
        <ele>1138.9</ele>
        <time>2026-04-29T14:23:22Z</time>
      </trkpt>
      <trkpt lat="44.98793" lon="4.24234">
        <ele>1139.5</ele>
        <time>2026-04-29T14:23:27Z</time>
      </trkpt>
      <trkpt lat="44.98793" lon="4.24239">
        <ele>1140.2</ele>
        <time>2026-04-29T14:23:32Z</time>
      </trkpt>
      <trkpt lat="44.98794" lon="4.24245">
        <ele>1141.1</ele>
        <time>2026-04-29T14:23:37Z</time>
      </trkpt>
      <trkpt lat="44.98795" lon="4.2425">
        <ele>1141.8</ele>
        <time>2026-04-29T14:23:42Z</time>
      </trkpt>
      <trkpt lat="44.98795" lon="4.24253">
        <ele>1142.2</ele>
        <time>2026-04-29T14:23:47Z</time>
      </trkpt>
      <trkpt lat="44.98794" lon="4.24258">
        <ele>1142.9</ele>
        <time>2026-04-29T14:23:52Z</time>
      </trkpt>
      <trkpt lat="44.98792" lon="4.24265">
        <ele>1144</ele>
        <time>2026-04-29T14:23:57Z</time>
      </trkpt>
      <trkpt lat="44.98793" lon="4.2427">
        <ele>1144.6</ele>
        <time>2026-04-29T14:24:02Z</time>
      </trkpt>
      <trkpt lat="44.98791" lon="4.24273">
        <ele>1145.1</ele>
        <time>2026-04-29T14:24:07Z</time>
      </trkpt>
      <trkpt lat="44.98788" lon="4.24277">
        <ele>1145.8</ele>
        <time>2026-04-29T14:24:12Z</time>
      </trkpt>
      <trkpt lat="44.98786" lon="4.24281">
        <ele>1146.4</ele>
        <time>2026-04-29T14:24:17Z</time>
      </trkpt>
      <trkpt lat="44.98784" lon="4.24286">
        <ele>1147.2</ele>
        <time>2026-04-29T14:24:22Z</time>
      </trkpt>
      <trkpt lat="44.98784" lon="4.24289">
        <ele>1147.6</ele>
        <time>2026-04-29T14:24:27Z</time>
      </trkpt>
      <trkpt lat="44.98785" lon="4.24293">
        <ele>1148.1</ele>
        <time>2026-04-29T14:24:32Z</time>
      </trkpt>
      <trkpt lat="44.98784" lon="4.24299">
        <ele>1148.9</ele>
        <time>2026-04-29T14:24:37Z</time>
      </trkpt>
      <trkpt lat="44.98782" lon="4.24305">
        <ele>1149.8</ele>
        <time>2026-04-29T14:24:42Z</time>
      </trkpt>
      <trkpt lat="44.98782" lon="4.24312">
        <ele>1150.7</ele>
        <time>2026-04-29T14:24:47Z</time>
      </trkpt>
      <trkpt lat="44.98783" lon="4.24319">
        <ele>1151.6</ele>
        <time>2026-04-29T14:24:52Z</time>
      </trkpt>
      <trkpt lat="44.98783" lon="4.24327">
        <ele>1152.6</ele>
        <time>2026-04-29T14:24:57Z</time>
      </trkpt>
      <trkpt lat="44.98782" lon="4.24334">
        <ele>1153.5</ele>
        <time>2026-04-29T14:25:02Z</time>
      </trkpt>
      <trkpt lat="44.98781" lon="4.24342">
        <ele>1154</ele>
        <time>2026-04-29T14:25:07Z</time>
      </trkpt>
      <trkpt lat="44.9878" lon="4.2435">
        <ele>1154.5</ele>
        <time>2026-04-29T14:25:12Z</time>
      </trkpt>
      <trkpt lat="44.9878" lon="4.24357">
        <ele>1154.9</ele>
        <time>2026-04-29T14:25:17Z</time>
      </trkpt>
      <trkpt lat="44.98779" lon="4.24364">
        <ele>1155.3</ele>
        <time>2026-04-29T14:25:22Z</time>
      </trkpt>
      <trkpt lat="44.98777" lon="4.24372">
        <ele>1155.9</ele>
        <time>2026-04-29T14:25:27Z</time>
      </trkpt>
      <trkpt lat="44.98778" lon="4.24381">
        <ele>1156.3</ele>
        <time>2026-04-29T14:25:32Z</time>
      </trkpt>
      <trkpt lat="44.9878" lon="4.2439">
        <ele>1156.8</ele>
        <time>2026-04-29T14:25:37Z</time>
      </trkpt>
      <trkpt lat="44.98782" lon="4.24399">
        <ele>1157.2</ele>
        <time>2026-04-29T14:25:42Z</time>
      </trkpt>
      <trkpt lat="44.98782" lon="4.24408">
        <ele>1157.7</ele>
        <time>2026-04-29T14:25:47Z</time>
      </trkpt>
      <trkpt lat="44.98782" lon="4.24416">
        <ele>1158.2</ele>
        <time>2026-04-29T14:25:52Z</time>
      </trkpt>
      <trkpt lat="44.98782" lon="4.24423">
        <ele>1158.6</ele>
        <time>2026-04-29T14:25:57Z</time>
      </trkpt>
      <trkpt lat="44.98782" lon="4.24431">
        <ele>1159.1</ele>
        <time>2026-04-29T14:26:02Z</time>
      </trkpt>
      <trkpt lat="44.98782" lon="4.24438">
        <ele>1159.5</ele>
        <time>2026-04-29T14:26:07Z</time>
      </trkpt>
      <trkpt lat="44.98782" lon="4.24446">
        <ele>1159.9</ele>
        <time>2026-04-29T14:26:12Z</time>
      </trkpt>
      <trkpt lat="44.98783" lon="4.24455">
        <ele>1160.4</ele>
        <time>2026-04-29T14:26:17Z</time>
      </trkpt>
      <trkpt lat="44.98784" lon="4.24463">
        <ele>1160.8</ele>
        <time>2026-04-29T14:26:22Z</time>
      </trkpt>
      <trkpt lat="44.98787" lon="4.24473">
        <ele>1161.3</ele>
        <time>2026-04-29T14:26:27Z</time>
      </trkpt>
      <trkpt lat="44.98789" lon="4.24482">
        <ele>1161.7</ele>
        <time>2026-04-29T14:26:32Z</time>
      </trkpt>
      <trkpt lat="44.98791" lon="4.24491">
        <ele>1162.1</ele>
        <time>2026-04-29T14:26:37Z</time>
      </trkpt>
      <trkpt lat="44.98792" lon="4.24499">
        <ele>1162.4</ele>
        <time>2026-04-29T14:26:42Z</time>
      </trkpt>
      <trkpt lat="44.98796" lon="4.24507">
        <ele>1162.4</ele>
        <time>2026-04-29T14:26:47Z</time>
      </trkpt>
      <trkpt lat="44.98799" lon="4.24515">
        <ele>1162.4</ele>
        <time>2026-04-29T14:26:52Z</time>
      </trkpt>
      <trkpt lat="44.98801" lon="4.24521">
        <ele>1162.4</ele>
        <time>2026-04-29T14:26:57Z</time>
      </trkpt>
      <trkpt lat="44.98802" lon="4.24528">
        <ele>1162.5</ele>
        <time>2026-04-29T14:27:02Z</time>
      </trkpt>
      <trkpt lat="44.98804" lon="4.24536">
        <ele>1162.5</ele>
        <time>2026-04-29T14:27:07Z</time>
      </trkpt>
      <trkpt lat="44.98806" lon="4.24544">
        <ele>1162.5</ele>
        <time>2026-04-29T14:27:12Z</time>
      </trkpt>
      <trkpt lat="44.98808" lon="4.24551">
        <ele>1162.5</ele>
        <time>2026-04-29T14:27:17Z</time>
      </trkpt>
      <trkpt lat="44.9881" lon="4.24559">
        <ele>1162.4</ele>
        <time>2026-04-29T14:27:22Z</time>
      </trkpt>
      <trkpt lat="44.98812" lon="4.24565">
        <ele>1162.3</ele>
        <time>2026-04-29T14:27:27Z</time>
      </trkpt>
      <trkpt lat="44.98814" lon="4.24568">
        <ele>1162.1</ele>
        <time>2026-04-29T14:27:32Z</time>
      </trkpt>
      <trkpt lat="44.98815" lon="4.24568">
        <ele>1162</ele>
        <time>2026-04-29T14:27:37Z</time>
      </trkpt>
      <trkpt lat="44.98815" lon="4.24568">
        <ele>1162</ele>
        <time>2026-04-29T14:27:42Z</time>
      </trkpt>
      <trkpt lat="44.98815" lon="4.24568">
        <ele>1162</ele>
        <time>2026-04-29T14:27:47Z</time>
      </trkpt>
      <trkpt lat="44.98815" lon="4.24568">
        <ele>1162</ele>
        <time>2026-04-29T14:27:52Z</time>
      </trkpt>
      <trkpt lat="44.98815" lon="4.24568">
        <ele>1162</ele>
        <time>2026-04-29T14:27:57Z</time>
      </trkpt>
      <trkpt lat="44.98815" lon="4.24568">
        <ele>1162</ele>
        <time>2026-04-29T14:28:02Z</time>
      </trkpt>
      <trkpt lat="44.98815" lon="4.24568">
        <ele>1162</ele>
        <time>2026-04-29T14:28:07Z</time>
      </trkpt>
      <trkpt lat="44.98815" lon="4.24568">
        <ele>1162</ele>
        <time>2026-04-29T14:28:12Z</time>
      </trkpt>
      <trkpt lat="44.98815" lon="4.24568">
        <ele>1162</ele>
        <time>2026-04-29T14:28:17Z</time>
      </trkpt>
      <trkpt lat="44.98815" lon="4.24568">
        <ele>1162</ele>
        <time>2026-04-29T14:28:22Z</time>
      </trkpt>
      <trkpt lat="44.98815" lon="4.24568">
        <ele>1162</ele>
        <time>2026-04-29T14:28:27Z</time>
      </trkpt>
      <trkpt lat="44.98815" lon="4.24568">
        <ele>1162</ele>
        <time>2026-04-29T14:28:32Z</time>
      </trkpt>
      <trkpt lat="44.98815" lon="4.24568">
        <ele>1162</ele>
        <time>2026-04-29T14:28:37Z</time>
      </trkpt>
      <trkpt lat="44.98815" lon="4.24568">
        <ele>1162</ele>
        <time>2026-04-29T14:28:42Z</time>
      </trkpt>
      <trkpt lat="44.98815" lon="4.24568">
        <ele>1162</ele>
        <time>2026-04-29T14:28:47Z</time>
      </trkpt>
      <trkpt lat="44.98815" lon="4.24568">
        <ele>1162</ele>
        <time>2026-04-29T14:28:52Z</time>
      </trkpt>
      <trkpt lat="44.98815" lon="4.24568">
        <ele>1162</ele>
        <time>2026-04-29T14:28:57Z</time>
      </trkpt>
      <trkpt lat="44.98815" lon="4.24568">
        <ele>1162</ele>
        <time>2026-04-29T14:29:02Z</time>
      </trkpt>
      <trkpt lat="44.98815" lon="4.24568">
        <ele>1162</ele>
        <time>2026-04-29T14:29:07Z</time>
      </trkpt>
      <trkpt lat="44.98815" lon="4.24568">
        <ele>1162</ele>
        <time>2026-04-29T14:29:12Z</time>
      </trkpt>
      <trkpt lat="44.98815" lon="4.24568">
        <ele>1162</ele>
        <time>2026-04-29T14:29:17Z</time>
      </trkpt>
      <trkpt lat="44.98815" lon="4.24568">
        <ele>1162</ele>
        <time>2026-04-29T14:29:22Z</time>
      </trkpt>
      <trkpt lat="44.98815" lon="4.24568">
        <ele>1162</ele>
        <time>2026-04-29T14:29:27Z</time>
      </trkpt>
      <trkpt lat="44.98815" lon="4.24568">
        <ele>1162</ele>
        <time>2026-04-29T14:29:32Z</time>
      </trkpt>
      <trkpt lat="44.98815" lon="4.24568">
        <ele>1162</ele>
        <time>2026-04-29T14:29:37Z</time>
      </trkpt>
      <trkpt lat="44.98815" lon="4.24568">
        <ele>1162</ele>
        <time>2026-04-29T14:29:42Z</time>
      </trkpt>
      <trkpt lat="44.98815" lon="4.24568">
        <ele>1162</ele>
        <time>2026-04-29T14:29:47Z</time>
      </trkpt>
      <trkpt lat="44.98815" lon="4.24568">
        <ele>1162</ele>
        <time>2026-04-29T14:29:52Z</time>
      </trkpt>
      <trkpt lat="44.98815" lon="4.24568">
        <ele>1162</ele>
        <time>2026-04-29T14:29:57Z</time>
      </trkpt>
      <trkpt lat="44.98815" lon="4.24568">
        <ele>1162</ele>
        <time>2026-04-29T14:30:02Z</time>
      </trkpt>
      <trkpt lat="44.98815" lon="4.24568">
        <ele>1162</ele>
        <time>2026-04-29T14:30:07Z</time>
      </trkpt>
      <trkpt lat="44.98815" lon="4.24568">
        <ele>1162</ele>
        <time>2026-04-29T14:30:12Z</time>
      </trkpt>
      <trkpt lat="44.98815" lon="4.24568">
        <ele>1162</ele>
        <time>2026-04-29T14:30:17Z</time>
      </trkpt>
      <trkpt lat="44.98815" lon="4.24568">
        <ele>1162</ele>
        <time>2026-04-29T14:30:22Z</time>
      </trkpt>
      <trkpt lat="44.98815" lon="4.24568">
        <ele>1162</ele>
        <time>2026-04-29T14:30:27Z</time>
      </trkpt>
      <trkpt lat="44.98812" lon="4.24581">
        <ele>1162.5</ele>
        <time>2026-04-29T14:30:32Z</time>
      </trkpt>
      <trkpt lat="44.98812" lon="4.24584">
        <ele>1162.6</ele>
        <time>2026-04-29T14:30:37Z</time>
      </trkpt>
      <trkpt lat="44.98817" lon="4.24596">
        <ele>1162</ele>
        <time>2026-04-29T14:30:42Z</time>
      </trkpt>
      <trkpt lat="44.98818" lon="4.24605">
        <ele>1161.9</ele>
        <time>2026-04-29T14:30:47Z</time>
      </trkpt>
      <trkpt lat="44.98819" lon="4.24606">
        <ele>1161.8</ele>
        <time>2026-04-29T14:30:52Z</time>
      </trkpt>
      <trkpt lat="44.98821" lon="4.24608">
        <ele>1161.5</ele>
        <time>2026-04-29T14:30:57Z</time>
      </trkpt>
      <trkpt lat="44.98825" lon="4.24613">
        <ele>1161</ele>
        <time>2026-04-29T14:31:02Z</time>
      </trkpt>
      <trkpt lat="44.98829" lon="4.24621">
        <ele>1160.5</ele>
        <time>2026-04-29T14:31:07Z</time>
      </trkpt>
      <trkpt lat="44.98831" lon="4.2463">
        <ele>1160.3</ele>
        <time>2026-04-29T14:31:12Z</time>
      </trkpt>
      <trkpt lat="44.98833" lon="4.24639">
        <ele>1160</ele>
        <time>2026-04-29T14:31:17Z</time>
      </trkpt>
      <trkpt lat="44.98834" lon="4.2465">
        <ele>1160</ele>
        <time>2026-04-29T14:31:22Z</time>
      </trkpt>
      <trkpt lat="44.98836" lon="4.2466">
        <ele>1159.8</ele>
        <time>2026-04-29T14:31:27Z</time>
      </trkpt>
      <trkpt lat="44.98837" lon="4.24669">
        <ele>1159.7</ele>
        <time>2026-04-29T14:31:32Z</time>
      </trkpt>
      <trkpt lat="44.98837" lon="4.24678">
        <ele>1159.5</ele>
        <time>2026-04-29T14:31:37Z</time>
      </trkpt>
      <trkpt lat="44.98836" lon="4.24689">
        <ele>1159.3</ele>
        <time>2026-04-29T14:31:42Z</time>
      </trkpt>
      <trkpt lat="44.98836" lon="4.24699">
        <ele>1159.1</ele>
        <time>2026-04-29T14:31:47Z</time>
      </trkpt>
      <trkpt lat="44.98836" lon="4.24708">
        <ele>1158.9</ele>
        <time>2026-04-29T14:31:52Z</time>
      </trkpt>
      <trkpt lat="44.98834" lon="4.24718">
        <ele>1158.7</ele>
        <time>2026-04-29T14:31:57Z</time>
      </trkpt>
      <trkpt lat="44.98833" lon="4.24729">
        <ele>1158.5</ele>
        <time>2026-04-29T14:32:02Z</time>
      </trkpt>
      <trkpt lat="44.98833" lon="4.24739">
        <ele>1158.3</ele>
        <time>2026-04-29T14:32:07Z</time>
      </trkpt>
      <trkpt lat="44.98833" lon="4.24749">
        <ele>1158.1</ele>
        <time>2026-04-29T14:32:12Z</time>
      </trkpt>
      <trkpt lat="44.98832" lon="4.24759">
        <ele>1157.9</ele>
        <time>2026-04-29T14:32:17Z</time>
      </trkpt>
      <trkpt lat="44.9883" lon="4.24767">
        <ele>1157.9</ele>
        <time>2026-04-29T14:32:22Z</time>
      </trkpt>
      <trkpt lat="44.98829" lon="4.24777">
        <ele>1157.7</ele>
        <time>2026-04-29T14:32:27Z</time>
      </trkpt>
      <trkpt lat="44.9883" lon="4.24787">
        <ele>1157.4</ele>
        <time>2026-04-29T14:32:32Z</time>
      </trkpt>
      <trkpt lat="44.98832" lon="4.24798">
        <ele>1156.9</ele>
        <time>2026-04-29T14:32:37Z</time>
      </trkpt>
      <trkpt lat="44.98832" lon="4.24807">
        <ele>1156.7</ele>
        <time>2026-04-29T14:32:42Z</time>
      </trkpt>
      <trkpt lat="44.98831" lon="4.24813">
        <ele>1156.6</ele>
        <time>2026-04-29T14:32:47Z</time>
      </trkpt>
      <trkpt lat="44.98828" lon="4.24822">
        <ele>1156.6</ele>
        <time>2026-04-29T14:32:52Z</time>
      </trkpt>
      <trkpt lat="44.98827" lon="4.24833">
        <ele>1156.3</ele>
        <time>2026-04-29T14:32:57Z</time>
      </trkpt>
      <trkpt lat="44.98828" lon="4.24843">
        <ele>1155.8</ele>
        <time>2026-04-29T14:33:02Z</time>
      </trkpt>
      <trkpt lat="44.98829" lon="4.24855">
        <ele>1155.2</ele>
        <time>2026-04-29T14:33:07Z</time>
      </trkpt>
      <trkpt lat="44.98831" lon="4.24865">
        <ele>1154.6</ele>
        <time>2026-04-29T14:33:12Z</time>
      </trkpt>
      <trkpt lat="44.98833" lon="4.24874">
        <ele>1154.1</ele>
        <time>2026-04-29T14:33:17Z</time>
      </trkpt>
      <trkpt lat="44.98833" lon="4.24884">
        <ele>1153.6</ele>
        <time>2026-04-29T14:33:22Z</time>
      </trkpt>
      <trkpt lat="44.98834" lon="4.24896">
        <ele>1153</ele>
        <time>2026-04-29T14:33:27Z</time>
      </trkpt>
      <trkpt lat="44.98834" lon="4.24898">
        <ele>1152.9</ele>
        <time>2026-04-29T14:33:32Z</time>
      </trkpt>
      <trkpt lat="44.98834" lon="4.24898">
        <ele>1152.9</ele>
        <time>2026-04-29T14:33:37Z</time>
      </trkpt>
      <trkpt lat="44.98834" lon="4.24898">
        <ele>1152.9</ele>
        <time>2026-04-29T14:33:42Z</time>
      </trkpt>
      <trkpt lat="44.98834" lon="4.24898">
        <ele>1152.9</ele>
        <time>2026-04-29T14:33:47Z</time>
      </trkpt>
      <trkpt lat="44.98834" lon="4.24898">
        <ele>1152.9</ele>
        <time>2026-04-29T14:33:52Z</time>
      </trkpt>
      <trkpt lat="44.98834" lon="4.24898">
        <ele>1152.9</ele>
        <time>2026-04-29T14:33:57Z</time>
      </trkpt>
      <trkpt lat="44.98834" lon="4.24898">
        <ele>1152.9</ele>
        <time>2026-04-29T14:34:02Z</time>
      </trkpt>
      <trkpt lat="44.98834" lon="4.24898">
        <ele>1152.9</ele>
        <time>2026-04-29T14:34:07Z</time>
      </trkpt>
      <trkpt lat="44.98834" lon="4.24898">
        <ele>1152.9</ele>
        <time>2026-04-29T14:34:12Z</time>
      </trkpt>
      <trkpt lat="44.98834" lon="4.24898">
        <ele>1152.9</ele>
        <time>2026-04-29T14:34:17Z</time>
      </trkpt>
      <trkpt lat="44.98834" lon="4.24898">
        <ele>1152.9</ele>
        <time>2026-04-29T14:34:22Z</time>
      </trkpt>
      <trkpt lat="44.98834" lon="4.24898">
        <ele>1152.9</ele>
        <time>2026-04-29T14:34:27Z</time>
      </trkpt>
      <trkpt lat="44.98834" lon="4.24898">
        <ele>1152.9</ele>
        <time>2026-04-29T14:34:32Z</time>
      </trkpt>
      <trkpt lat="44.98834" lon="4.24898">
        <ele>1152.9</ele>
        <time>2026-04-29T14:34:37Z</time>
      </trkpt>
      <trkpt lat="44.98834" lon="4.24898">
        <ele>1152.9</ele>
        <time>2026-04-29T14:34:42Z</time>
      </trkpt>
      <trkpt lat="44.98834" lon="4.24898">
        <ele>1152.9</ele>
        <time>2026-04-29T14:34:47Z</time>
      </trkpt>
      <trkpt lat="44.98834" lon="4.24898">
        <ele>1152.9</ele>
        <time>2026-04-29T14:34:52Z</time>
      </trkpt>
      <trkpt lat="44.98834" lon="4.24898">
        <ele>1152.9</ele>
        <time>2026-04-29T14:34:57Z</time>
      </trkpt>
      <trkpt lat="44.98836" lon="4.24909">
        <ele>1152.2</ele>
        <time>2026-04-29T14:35:02Z</time>
      </trkpt>
      <trkpt lat="44.98837" lon="4.24921">
        <ele>1151.7</ele>
        <time>2026-04-29T14:35:07Z</time>
      </trkpt>
      <trkpt lat="44.9884" lon="4.2493">
        <ele>1151.2</ele>
        <time>2026-04-29T14:35:12Z</time>
      </trkpt>
      <trkpt lat="44.9884" lon="4.2494">
        <ele>1150.9</ele>
        <time>2026-04-29T14:35:17Z</time>
      </trkpt>
      <trkpt lat="44.98839" lon="4.24952">
        <ele>1150.5</ele>
        <time>2026-04-29T14:35:22Z</time>
      </trkpt>
      <trkpt lat="44.98839" lon="4.24962">
        <ele>1150.1</ele>
        <time>2026-04-29T14:35:27Z</time>
      </trkpt>
      <trkpt lat="44.98839" lon="4.24973">
        <ele>1149.7</ele>
        <time>2026-04-29T14:35:32Z</time>
      </trkpt>
      <trkpt lat="44.98838" lon="4.24984">
        <ele>1149.4</ele>
        <time>2026-04-29T14:35:37Z</time>
      </trkpt>
      <trkpt lat="44.98836" lon="4.24993">
        <ele>1149.2</ele>
        <time>2026-04-29T14:35:42Z</time>
      </trkpt>
      <trkpt lat="44.98833" lon="4.25003">
        <ele>1148.9</ele>
        <time>2026-04-29T14:35:47Z</time>
      </trkpt>
      <trkpt lat="44.9883" lon="4.25012">
        <ele>1148.7</ele>
        <time>2026-04-29T14:35:52Z</time>
      </trkpt>
      <trkpt lat="44.98827" lon="4.25022">
        <ele>1148.5</ele>
        <time>2026-04-29T14:35:57Z</time>
      </trkpt>
      <trkpt lat="44.98825" lon="4.25031">
        <ele>1148.3</ele>
        <time>2026-04-29T14:36:02Z</time>
      </trkpt>
      <trkpt lat="44.98825" lon="4.2504">
        <ele>1148</ele>
        <time>2026-04-29T14:36:07Z</time>
      </trkpt>
      <trkpt lat="44.98825" lon="4.25044">
        <ele>1147.9</ele>
        <time>2026-04-29T14:36:12Z</time>
      </trkpt>
      <trkpt lat="44.98828" lon="4.25047">
        <ele>1147.6</ele>
        <time>2026-04-29T14:36:17Z</time>
      </trkpt>
      <trkpt lat="44.98834" lon="4.25054">
        <ele>1147</ele>
        <time>2026-04-29T14:36:22Z</time>
      </trkpt>
      <trkpt lat="44.98839" lon="4.25059">
        <ele>1146.6</ele>
        <time>2026-04-29T14:36:27Z</time>
      </trkpt>
      <trkpt lat="44.98846" lon="4.2506">
        <ele>1146.3</ele>
        <time>2026-04-29T14:36:32Z</time>
      </trkpt>
      <trkpt lat="44.98854" lon="4.25064">
        <ele>1145.8</ele>
        <time>2026-04-29T14:36:37Z</time>
      </trkpt>
      <trkpt lat="44.98863" lon="4.25066">
        <ele>1145.3</ele>
        <time>2026-04-29T14:36:42Z</time>
      </trkpt>
      <trkpt lat="44.9887" lon="4.25069">
        <ele>1144.8</ele>
        <time>2026-04-29T14:36:47Z</time>
      </trkpt>
      <trkpt lat="44.98877" lon="4.25074">
        <ele>1144.3</ele>
        <time>2026-04-29T14:36:52Z</time>
      </trkpt>
      <trkpt lat="44.98883" lon="4.25078">
        <ele>1143.8</ele>
        <time>2026-04-29T14:36:57Z</time>
      </trkpt>
      <trkpt lat="44.98891" lon="4.25082">
        <ele>1143.3</ele>
        <time>2026-04-29T14:37:02Z</time>
      </trkpt>
      <trkpt lat="44.98897" lon="4.25091">
        <ele>1142.7</ele>
        <time>2026-04-29T14:37:07Z</time>
      </trkpt>
      <trkpt lat="44.98895" lon="4.25095">
        <ele>1142.7</ele>
        <time>2026-04-29T14:37:12Z</time>
      </trkpt>
      <trkpt lat="44.98894" lon="4.25099">
        <ele>1142.7</ele>
        <time>2026-04-29T14:37:17Z</time>
      </trkpt>
      <trkpt lat="44.98892" lon="4.25109">
        <ele>1142.5</ele>
        <time>2026-04-29T14:37:22Z</time>
      </trkpt>
      <trkpt lat="44.98888" lon="4.25117">
        <ele>1142.4</ele>
        <time>2026-04-29T14:37:27Z</time>
      </trkpt>
      <trkpt lat="44.98884" lon="4.25126">
        <ele>1142.3</ele>
        <time>2026-04-29T14:37:32Z</time>
      </trkpt>
      <trkpt lat="44.9888" lon="4.25136">
        <ele>1142.2</ele>
        <time>2026-04-29T14:37:37Z</time>
      </trkpt>
      <trkpt lat="44.98878" lon="4.25147">
        <ele>1142</ele>
        <time>2026-04-29T14:37:42Z</time>
      </trkpt>
      <trkpt lat="44.98876" lon="4.25157">
        <ele>1141.8</ele>
        <time>2026-04-29T14:37:47Z</time>
      </trkpt>
      <trkpt lat="44.98873" lon="4.25167">
        <ele>1141.6</ele>
        <time>2026-04-29T14:37:52Z</time>
      </trkpt>
      <trkpt lat="44.98868" lon="4.25175">
        <ele>1141.2</ele>
        <time>2026-04-29T14:37:57Z</time>
      </trkpt>
      <trkpt lat="44.98863" lon="4.25183">
        <ele>1140.9</ele>
        <time>2026-04-29T14:38:02Z</time>
      </trkpt>
      <trkpt lat="44.98857" lon="4.2519">
        <ele>1140.7</ele>
        <time>2026-04-29T14:38:07Z</time>
      </trkpt>
      <trkpt lat="44.98851" lon="4.25197">
        <ele>1140.5</ele>
        <time>2026-04-29T14:38:12Z</time>
      </trkpt>
      <trkpt lat="44.98846" lon="4.25205">
        <ele>1140.2</ele>
        <time>2026-04-29T14:38:17Z</time>
      </trkpt>
      <trkpt lat="44.98842" lon="4.25214">
        <ele>1139.8</ele>
        <time>2026-04-29T14:38:22Z</time>
      </trkpt>
      <trkpt lat="44.98839" lon="4.25225">
        <ele>1139.2</ele>
        <time>2026-04-29T14:38:27Z</time>
      </trkpt>
      <trkpt lat="44.98836" lon="4.25236">
        <ele>1138.7</ele>
        <time>2026-04-29T14:38:32Z</time>
      </trkpt>
      <trkpt lat="44.98833" lon="4.25246">
        <ele>1138.3</ele>
        <time>2026-04-29T14:38:37Z</time>
      </trkpt>
      <trkpt lat="44.98831" lon="4.2525">
        <ele>1138.1</ele>
        <time>2026-04-29T14:38:42Z</time>
      </trkpt>
      <trkpt lat="44.98831" lon="4.2525">
        <ele>1138.1</ele>
        <time>2026-04-29T14:38:47Z</time>
      </trkpt>
      <trkpt lat="44.98831" lon="4.25257">
        <ele>1137.6</ele>
        <time>2026-04-29T14:38:52Z</time>
      </trkpt>
      <trkpt lat="44.98827" lon="4.25268">
        <ele>1136.9</ele>
        <time>2026-04-29T14:38:57Z</time>
      </trkpt>
      <trkpt lat="44.98823" lon="4.25278">
        <ele>1136.3</ele>
        <time>2026-04-29T14:39:02Z</time>
      </trkpt>
      <trkpt lat="44.9882" lon="4.25288">
        <ele>1135.7</ele>
        <time>2026-04-29T14:39:07Z</time>
      </trkpt>
      <trkpt lat="44.98816" lon="4.25299">
        <ele>1135</ele>
        <time>2026-04-29T14:39:12Z</time>
      </trkpt>
      <trkpt lat="44.98813" lon="4.25309">
        <ele>1134.3</ele>
        <time>2026-04-29T14:39:17Z</time>
      </trkpt>
      <trkpt lat="44.9881" lon="4.25319">
        <ele>1133.6</ele>
        <time>2026-04-29T14:39:22Z</time>
      </trkpt>
      <trkpt lat="44.98807" lon="4.25329">
        <ele>1133</ele>
        <time>2026-04-29T14:39:27Z</time>
      </trkpt>
      <trkpt lat="44.98803" lon="4.25339">
        <ele>1132.5</ele>
        <time>2026-04-29T14:39:32Z</time>
      </trkpt>
      <trkpt lat="44.988" lon="4.25349">
        <ele>1132</ele>
        <time>2026-04-29T14:39:37Z</time>
      </trkpt>
      <trkpt lat="44.98797" lon="4.25361">
        <ele>1131.5</ele>
        <time>2026-04-29T14:39:42Z</time>
      </trkpt>
      <trkpt lat="44.98794" lon="4.2537">
        <ele>1131.2</ele>
        <time>2026-04-29T14:39:47Z</time>
      </trkpt>
      <trkpt lat="44.98792" lon="4.25381">
        <ele>1130.7</ele>
        <time>2026-04-29T14:39:52Z</time>
      </trkpt>
      <trkpt lat="44.98791" lon="4.25391">
        <ele>1130.2</ele>
        <time>2026-04-29T14:39:57Z</time>
      </trkpt>
      <trkpt lat="44.98789" lon="4.25403">
        <ele>1129.7</ele>
        <time>2026-04-29T14:40:02Z</time>
      </trkpt>
      <trkpt lat="44.98788" lon="4.25415">
        <ele>1129.2</ele>
        <time>2026-04-29T14:40:07Z</time>
      </trkpt>
      <trkpt lat="44.98786" lon="4.25425">
        <ele>1128.5</ele>
        <time>2026-04-29T14:40:12Z</time>
      </trkpt>
      <trkpt lat="44.98785" lon="4.25436">
        <ele>1127.8</ele>
        <time>2026-04-29T14:40:17Z</time>
      </trkpt>
      <trkpt lat="44.98783" lon="4.25448">
        <ele>1127</ele>
        <time>2026-04-29T14:40:22Z</time>
      </trkpt>
      <trkpt lat="44.98782" lon="4.25459">
        <ele>1126.2</ele>
        <time>2026-04-29T14:40:27Z</time>
      </trkpt>
      <trkpt lat="44.98783" lon="4.2547">
        <ele>1125.4</ele>
        <time>2026-04-29T14:40:32Z</time>
      </trkpt>
      <trkpt lat="44.98783" lon="4.25482">
        <ele>1124.5</ele>
        <time>2026-04-29T14:40:37Z</time>
      </trkpt>
      <trkpt lat="44.98784" lon="4.25493">
        <ele>1123.7</ele>
        <time>2026-04-29T14:40:42Z</time>
      </trkpt>
      <trkpt lat="44.98784" lon="4.25505">
        <ele>1123</ele>
        <time>2026-04-29T14:40:47Z</time>
      </trkpt>
      <trkpt lat="44.98785" lon="4.25516">
        <ele>1122.5</ele>
        <time>2026-04-29T14:40:52Z</time>
      </trkpt>
      <trkpt lat="44.98785" lon="4.25526">
        <ele>1122</ele>
        <time>2026-04-29T14:40:57Z</time>
      </trkpt>
      <trkpt lat="44.98785" lon="4.25539">
        <ele>1121.5</ele>
        <time>2026-04-29T14:41:02Z</time>
      </trkpt>
      <trkpt lat="44.98786" lon="4.2555">
        <ele>1121</ele>
        <time>2026-04-29T14:41:07Z</time>
      </trkpt>
      <trkpt lat="44.98786" lon="4.25561">
        <ele>1120.5</ele>
        <time>2026-04-29T14:41:12Z</time>
      </trkpt>
      <trkpt lat="44.98786" lon="4.25573">
        <ele>1120</ele>
        <time>2026-04-29T14:41:17Z</time>
      </trkpt>
      <trkpt lat="44.98785" lon="4.25584">
        <ele>1119.6</ele>
        <time>2026-04-29T14:41:22Z</time>
      </trkpt>
      <trkpt lat="44.98785" lon="4.25595">
        <ele>1119.1</ele>
        <time>2026-04-29T14:41:27Z</time>
      </trkpt>
      <trkpt lat="44.98786" lon="4.25607">
        <ele>1118.6</ele>
        <time>2026-04-29T14:41:32Z</time>
      </trkpt>
      <trkpt lat="44.98786" lon="4.25617">
        <ele>1118.1</ele>
        <time>2026-04-29T14:41:37Z</time>
      </trkpt>
      <trkpt lat="44.98785" lon="4.25629">
        <ele>1117.6</ele>
        <time>2026-04-29T14:41:42Z</time>
      </trkpt>
      <trkpt lat="44.98786" lon="4.2564">
        <ele>1117.1</ele>
        <time>2026-04-29T14:41:47Z</time>
      </trkpt>
      <trkpt lat="44.98785" lon="4.25652">
        <ele>1116.6</ele>
        <time>2026-04-29T14:41:52Z</time>
      </trkpt>
      <trkpt lat="44.98786" lon="4.25663">
        <ele>1116.2</ele>
        <time>2026-04-29T14:41:57Z</time>
      </trkpt>
      <trkpt lat="44.98785" lon="4.25674">
        <ele>1115.7</ele>
        <time>2026-04-29T14:42:02Z</time>
      </trkpt>
      <trkpt lat="44.98784" lon="4.25683">
        <ele>1115.3</ele>
        <time>2026-04-29T14:42:07Z</time>
      </trkpt>
      <trkpt lat="44.98784" lon="4.25688">
        <ele>1115</ele>
        <time>2026-04-29T14:42:12Z</time>
      </trkpt>
      <trkpt lat="44.98782" lon="4.25699">
        <ele>1114.5</ele>
        <time>2026-04-29T14:42:17Z</time>
      </trkpt>
      <trkpt lat="44.9878" lon="4.25709">
        <ele>1114.1</ele>
        <time>2026-04-29T14:42:22Z</time>
      </trkpt>
      <trkpt lat="44.98777" lon="4.25719">
        <ele>1113.7</ele>
        <time>2026-04-29T14:42:27Z</time>
      </trkpt>
      <trkpt lat="44.98774" lon="4.25729">
        <ele>1113.3</ele>
        <time>2026-04-29T14:42:32Z</time>
      </trkpt>
      <trkpt lat="44.98771" lon="4.25739">
        <ele>1113</ele>
        <time>2026-04-29T14:42:37Z</time>
      </trkpt>
      <trkpt lat="44.98768" lon="4.25748">
        <ele>1112.7</ele>
        <time>2026-04-29T14:42:42Z</time>
      </trkpt>
      <trkpt lat="44.98765" lon="4.25757">
        <ele>1113</ele>
        <time>2026-04-29T14:42:47Z</time>
      </trkpt>
      <trkpt lat="44.98762" lon="4.25767">
        <ele>1113.6</ele>
        <time>2026-04-29T14:42:52Z</time>
      </trkpt>
      <trkpt lat="44.98758" lon="4.25777">
        <ele>1114.3</ele>
        <time>2026-04-29T14:42:57Z</time>
      </trkpt>
      <trkpt lat="44.98755" lon="4.25786">
        <ele>1114.9</ele>
        <time>2026-04-29T14:43:02Z</time>
      </trkpt>
      <trkpt lat="44.98752" lon="4.25795">
        <ele>1115.6</ele>
        <time>2026-04-29T14:43:07Z</time>
      </trkpt>
      <trkpt lat="44.98749" lon="4.25805">
        <ele>1116.4</ele>
        <time>2026-04-29T14:43:12Z</time>
      </trkpt>
      <trkpt lat="44.98746" lon="4.25815">
        <ele>1117.2</ele>
        <time>2026-04-29T14:43:17Z</time>
      </trkpt>
      <trkpt lat="44.98744" lon="4.25824">
        <ele>1118</ele>
        <time>2026-04-29T14:43:22Z</time>
      </trkpt>
      <trkpt lat="44.98741" lon="4.25834">
        <ele>1118.8</ele>
        <time>2026-04-29T14:43:27Z</time>
      </trkpt>
      <trkpt lat="44.98739" lon="4.25844">
        <ele>1119.4</ele>
        <time>2026-04-29T14:43:32Z</time>
      </trkpt>
      <trkpt lat="44.98737" lon="4.25854">
        <ele>1120.1</ele>
        <time>2026-04-29T14:43:37Z</time>
      </trkpt>
      <trkpt lat="44.98736" lon="4.25863">
        <ele>1120.6</ele>
        <time>2026-04-29T14:43:42Z</time>
      </trkpt>
      <trkpt lat="44.98736" lon="4.25873">
        <ele>1121.1</ele>
        <time>2026-04-29T14:43:47Z</time>
      </trkpt>
      <trkpt lat="44.98735" lon="4.25882">
        <ele>1121.6</ele>
        <time>2026-04-29T14:43:52Z</time>
      </trkpt>
      <trkpt lat="44.98734" lon="4.25892">
        <ele>1122.2</ele>
        <time>2026-04-29T14:43:57Z</time>
      </trkpt>
      <trkpt lat="44.98734" lon="4.259">
        <ele>1122.5</ele>
        <time>2026-04-29T14:44:02Z</time>
      </trkpt>
      <trkpt lat="44.98733" lon="4.25909">
        <ele>1123.1</ele>
        <time>2026-04-29T14:44:07Z</time>
      </trkpt>
      <trkpt lat="44.98732" lon="4.25917">
        <ele>1123.5</ele>
        <time>2026-04-29T14:44:12Z</time>
      </trkpt>
      <trkpt lat="44.98733" lon="4.25925">
        <ele>1123.5</ele>
        <time>2026-04-29T14:44:17Z</time>
      </trkpt>
      <trkpt lat="44.98734" lon="4.25933">
        <ele>1123.5</ele>
        <time>2026-04-29T14:44:22Z</time>
      </trkpt>
      <trkpt lat="44.98738" lon="4.2594">
        <ele>1123.3</ele>
        <time>2026-04-29T14:44:27Z</time>
      </trkpt>
      <trkpt lat="44.98743" lon="4.25947">
        <ele>1123</ele>
        <time>2026-04-29T14:44:32Z</time>
      </trkpt>
      <trkpt lat="44.98745" lon="4.25954">
        <ele>1122.9</ele>
        <time>2026-04-29T14:44:37Z</time>
      </trkpt>
      <trkpt lat="44.98745" lon="4.25955">
        <ele>1122.9</ele>
        <time>2026-04-29T14:44:42Z</time>
      </trkpt>
      <trkpt lat="44.9875" lon="4.25955">
        <ele>1122.5</ele>
        <time>2026-04-29T14:44:47Z</time>
      </trkpt>
      <trkpt lat="44.98755" lon="4.25956">
        <ele>1122.1</ele>
        <time>2026-04-29T14:44:52Z</time>
      </trkpt>
      <trkpt lat="44.98756" lon="4.25957">
        <ele>1122.1</ele>
        <time>2026-04-29T14:44:57Z</time>
      </trkpt>
      <trkpt lat="44.9876" lon="4.25963">
        <ele>1121.9</ele>
        <time>2026-04-29T14:45:02Z</time>
      </trkpt>
      <trkpt lat="44.98763" lon="4.25965">
        <ele>1121.8</ele>
        <time>2026-04-29T14:45:07Z</time>
      </trkpt>
      <trkpt lat="44.98763" lon="4.25965">
        <ele>1121.8</ele>
        <time>2026-04-29T14:45:12Z</time>
      </trkpt>
      <trkpt lat="44.98764" lon="4.25966">
        <ele>1121.7</ele>
        <time>2026-04-29T14:45:17Z</time>
      </trkpt>
      <trkpt lat="44.98764" lon="4.25966">
        <ele>1121.7</ele>
        <time>2026-04-29T14:45:22Z</time>
      </trkpt>
      <trkpt lat="44.9877" lon="4.25974">
        <ele>1121.5</ele>
        <time>2026-04-29T14:45:27Z</time>
      </trkpt>
      <trkpt lat="44.98776" lon="4.25978">
        <ele>1121.2</ele>
        <time>2026-04-29T14:45:32Z</time>
      </trkpt>
      <trkpt lat="44.98781" lon="4.25985">
        <ele>1121.1</ele>
        <time>2026-04-29T14:45:37Z</time>
      </trkpt>
      <trkpt lat="44.98787" lon="4.25991">
        <ele>1121</ele>
        <time>2026-04-29T14:45:42Z</time>
      </trkpt>
      <trkpt lat="44.98792" lon="4.25997">
        <ele>1120.9</ele>
        <time>2026-04-29T14:45:47Z</time>
      </trkpt>
      <trkpt lat="44.98799" lon="4.26002">
        <ele>1120.7</ele>
        <time>2026-04-29T14:45:52Z</time>
      </trkpt>
      <trkpt lat="44.98805" lon="4.26007">
        <ele>1120.7</ele>
        <time>2026-04-29T14:45:57Z</time>
      </trkpt>
      <trkpt lat="44.98813" lon="4.26014">
        <ele>1120.8</ele>
        <time>2026-04-29T14:46:02Z</time>
      </trkpt>
      <trkpt lat="44.98819" lon="4.2602">
        <ele>1120.9</ele>
        <time>2026-04-29T14:46:07Z</time>
      </trkpt>
      <trkpt lat="44.98825" lon="4.26028">
        <ele>1121.2</ele>
        <time>2026-04-29T14:46:12Z</time>
      </trkpt>
      <trkpt lat="44.9883" lon="4.26036">
        <ele>1121.7</ele>
        <time>2026-04-29T14:46:17Z</time>
      </trkpt>
      <trkpt lat="44.98836" lon="4.26043">
        <ele>1122</ele>
        <time>2026-04-29T14:46:22Z</time>
      </trkpt>
      <trkpt lat="44.98841" lon="4.26051">
        <ele>1122.4</ele>
        <time>2026-04-29T14:46:27Z</time>
      </trkpt>
      <trkpt lat="44.98846" lon="4.26059">
        <ele>1122.8</ele>
        <time>2026-04-29T14:46:32Z</time>
      </trkpt>
      <trkpt lat="44.98851" lon="4.26067">
        <ele>1123.2</ele>
        <time>2026-04-29T14:46:37Z</time>
      </trkpt>
      <trkpt lat="44.98856" lon="4.26076">
        <ele>1123.7</ele>
        <time>2026-04-29T14:46:42Z</time>
      </trkpt>
      <trkpt lat="44.98861" lon="4.26084">
        <ele>1124</ele>
        <time>2026-04-29T14:46:47Z</time>
      </trkpt>
      <trkpt lat="44.98866" lon="4.26092">
        <ele>1124.4</ele>
        <time>2026-04-29T14:46:52Z</time>
      </trkpt>
      <trkpt lat="44.9887" lon="4.26101">
        <ele>1124.9</ele>
        <time>2026-04-29T14:46:57Z</time>
      </trkpt>
      <trkpt lat="44.98873" lon="4.26112">
        <ele>1125.5</ele>
        <time>2026-04-29T14:47:02Z</time>
      </trkpt>
      <trkpt lat="44.98878" lon="4.2612">
        <ele>1125.8</ele>
        <time>2026-04-29T14:47:07Z</time>
      </trkpt>
      <trkpt lat="44.98882" lon="4.26127">
        <ele>1126.1</ele>
        <time>2026-04-29T14:47:12Z</time>
      </trkpt>
      <trkpt lat="44.98886" lon="4.26135">
        <ele>1126.4</ele>
        <time>2026-04-29T14:47:17Z</time>
      </trkpt>
      <trkpt lat="44.98891" lon="4.26141">
        <ele>1126.6</ele>
        <time>2026-04-29T14:47:22Z</time>
      </trkpt>
      <trkpt lat="44.98895" lon="4.26149">
        <ele>1126.9</ele>
        <time>2026-04-29T14:47:27Z</time>
      </trkpt>
      <trkpt lat="44.98899" lon="4.26159">
        <ele>1127.4</ele>
        <time>2026-04-29T14:47:32Z</time>
      </trkpt>
      <trkpt lat="44.98904" lon="4.26167">
        <ele>1127.6</ele>
        <time>2026-04-29T14:47:37Z</time>
      </trkpt>
      <trkpt lat="44.98909" lon="4.26173">
        <ele>1127.6</ele>
        <time>2026-04-29T14:47:42Z</time>
      </trkpt>
      <trkpt lat="44.98916" lon="4.26176">
        <ele>1127.4</ele>
        <time>2026-04-29T14:47:47Z</time>
      </trkpt>
      <trkpt lat="44.98921" lon="4.26179">
        <ele>1127.3</ele>
        <time>2026-04-29T14:47:52Z</time>
      </trkpt>
      <trkpt lat="44.98924" lon="4.26181">
        <ele>1127.3</ele>
        <time>2026-04-29T14:47:57Z</time>
      </trkpt>
      <trkpt lat="44.98926" lon="4.26182">
        <ele>1127.2</ele>
        <time>2026-04-29T14:48:02Z</time>
      </trkpt>
      <trkpt lat="44.98927" lon="4.26186">
        <ele>1127.3</ele>
        <time>2026-04-29T14:48:07Z</time>
      </trkpt>
      <trkpt lat="44.98924" lon="4.26195">
        <ele>1127.7</ele>
        <time>2026-04-29T14:48:12Z</time>
      </trkpt>
      <trkpt lat="44.98921" lon="4.26201">
        <ele>1128</ele>
        <time>2026-04-29T14:48:17Z</time>
      </trkpt>
      <trkpt lat="44.98919" lon="4.26202">
        <ele>1128.2</ele>
        <time>2026-04-29T14:48:22Z</time>
      </trkpt>
      <trkpt lat="44.98918" lon="4.26201">
        <ele>1128.2</ele>
        <time>2026-04-29T14:48:27Z</time>
      </trkpt>
      <trkpt lat="44.98918" lon="4.26201">
        <ele>1128.2</ele>
        <time>2026-04-29T14:48:32Z</time>
      </trkpt>
      <trkpt lat="44.98922" lon="4.262">
        <ele>1127.9</ele>
        <time>2026-04-29T14:48:37Z</time>
      </trkpt>
      <trkpt lat="44.98927" lon="4.26201">
        <ele>1127.7</ele>
        <time>2026-04-29T14:48:42Z</time>
      </trkpt>
      <trkpt lat="44.98935" lon="4.26203">
        <ele>1127.4</ele>
        <time>2026-04-29T14:48:47Z</time>
      </trkpt>
      <trkpt lat="44.98942" lon="4.26205">
        <ele>1127.1</ele>
        <time>2026-04-29T14:48:52Z</time>
      </trkpt>
      <trkpt lat="44.9895" lon="4.26205">
        <ele>1126.7</ele>
        <time>2026-04-29T14:48:57Z</time>
      </trkpt>
      <trkpt lat="44.98956" lon="4.26203">
        <ele>1126.3</ele>
        <time>2026-04-29T14:49:02Z</time>
      </trkpt>
      <trkpt lat="44.98964" lon="4.26199">
        <ele>1125.9</ele>
        <time>2026-04-29T14:49:07Z</time>
      </trkpt>
      <trkpt lat="44.98971" lon="4.26194">
        <ele>1125.6</ele>
        <time>2026-04-29T14:49:12Z</time>
      </trkpt>
      <trkpt lat="44.98977" lon="4.26186">
        <ele>1125.4</ele>
        <time>2026-04-29T14:49:17Z</time>
      </trkpt>
      <trkpt lat="44.98982" lon="4.2618">
        <ele>1125.3</ele>
        <time>2026-04-29T14:49:22Z</time>
      </trkpt>
      <trkpt lat="44.98988" lon="4.26177">
        <ele>1125.1</ele>
        <time>2026-04-29T14:49:27Z</time>
      </trkpt>
      <trkpt lat="44.98995" lon="4.26177">
        <ele>1124.9</ele>
        <time>2026-04-29T14:49:32Z</time>
      </trkpt>
      <trkpt lat="44.99002" lon="4.26178">
        <ele>1124.6</ele>
        <time>2026-04-29T14:49:37Z</time>
      </trkpt>
      <trkpt lat="44.99009" lon="4.2618">
        <ele>1124</ele>
        <time>2026-04-29T14:49:42Z</time>
      </trkpt>
      <trkpt lat="44.99017" lon="4.26183">
        <ele>1123.3</ele>
        <time>2026-04-29T14:49:47Z</time>
      </trkpt>
      <trkpt lat="44.99026" lon="4.26184">
        <ele>1122.6</ele>
        <time>2026-04-29T14:49:52Z</time>
      </trkpt>
      <trkpt lat="44.99034" lon="4.26186">
        <ele>1121.9</ele>
        <time>2026-04-29T14:49:57Z</time>
      </trkpt>
      <trkpt lat="44.99041" lon="4.26189">
        <ele>1121.2</ele>
        <time>2026-04-29T14:50:02Z</time>
      </trkpt>
      <trkpt lat="44.99048" lon="4.26195">
        <ele>1120.5</ele>
        <time>2026-04-29T14:50:07Z</time>
      </trkpt>
      <trkpt lat="44.99055" lon="4.26198">
        <ele>1119.8</ele>
        <time>2026-04-29T14:50:12Z</time>
      </trkpt>
      <trkpt lat="44.99064" lon="4.262">
        <ele>1119</ele>
        <time>2026-04-29T14:50:17Z</time>
      </trkpt>
      <trkpt lat="44.99072" lon="4.26202">
        <ele>1118.2</ele>
        <time>2026-04-29T14:50:22Z</time>
      </trkpt>
      <trkpt lat="44.9908" lon="4.26206">
        <ele>1117.4</ele>
        <time>2026-04-29T14:50:27Z</time>
      </trkpt>
      <trkpt lat="44.99087" lon="4.26213">
        <ele>1116.7</ele>
        <time>2026-04-29T14:50:32Z</time>
      </trkpt>
      <trkpt lat="44.99095" lon="4.26217">
        <ele>1116.3</ele>
        <time>2026-04-29T14:50:37Z</time>
      </trkpt>
      <trkpt lat="44.99101" lon="4.26222">
        <ele>1115.9</ele>
        <time>2026-04-29T14:50:42Z</time>
      </trkpt>
      <trkpt lat="44.99107" lon="4.26229">
        <ele>1115.5</ele>
        <time>2026-04-29T14:50:47Z</time>
      </trkpt>
      <trkpt lat="44.99112" lon="4.26233">
        <ele>1115.3</ele>
        <time>2026-04-29T14:50:52Z</time>
      </trkpt>
      <trkpt lat="44.99115" lon="4.26234">
        <ele>1115.2</ele>
        <time>2026-04-29T14:50:57Z</time>
      </trkpt>
      <trkpt lat="44.99115" lon="4.26234">
        <ele>1115.2</ele>
        <time>2026-04-29T14:51:02Z</time>
      </trkpt>
      <trkpt lat="44.99115" lon="4.26234">
        <ele>1115.2</ele>
        <time>2026-04-29T14:51:07Z</time>
      </trkpt>
      <trkpt lat="44.99114" lon="4.2624">
        <ele>1115</ele>
        <time>2026-04-29T14:51:12Z</time>
      </trkpt>
      <trkpt lat="44.99121" lon="4.2625">
        <ele>1114.5</ele>
        <time>2026-04-29T14:51:17Z</time>
      </trkpt>
      <trkpt lat="44.99128" lon="4.26255">
        <ele>1114.3</ele>
        <time>2026-04-29T14:51:22Z</time>
      </trkpt>
      <trkpt lat="44.99134" lon="4.2626">
        <ele>1114.2</ele>
        <time>2026-04-29T14:51:27Z</time>
      </trkpt>
      <trkpt lat="44.99138" lon="4.26267">
        <ele>1113.9</ele>
        <time>2026-04-29T14:51:32Z</time>
      </trkpt>
      <trkpt lat="44.99144" lon="4.2627">
        <ele>1113.8</ele>
        <time>2026-04-29T14:51:37Z</time>
      </trkpt>
      <trkpt lat="44.99151" lon="4.26272">
        <ele>1113.7</ele>
        <time>2026-04-29T14:51:42Z</time>
      </trkpt>
      <trkpt lat="44.99158" lon="4.26275">
        <ele>1113.5</ele>
        <time>2026-04-29T14:51:47Z</time>
      </trkpt>
      <trkpt lat="44.99165" lon="4.26279">
        <ele>1113.3</ele>
        <time>2026-04-29T14:51:52Z</time>
      </trkpt>
      <trkpt lat="44.9917" lon="4.26285">
        <ele>1113.1</ele>
        <time>2026-04-29T14:51:57Z</time>
      </trkpt>
      <trkpt lat="44.99176" lon="4.26289">
        <ele>1112.8</ele>
        <time>2026-04-29T14:52:02Z</time>
      </trkpt>
      <trkpt lat="44.99184" lon="4.26297">
        <ele>1112.3</ele>
        <time>2026-04-29T14:52:07Z</time>
      </trkpt>
      <trkpt lat="44.99191" lon="4.26306">
        <ele>1111.9</ele>
        <time>2026-04-29T14:52:12Z</time>
      </trkpt>
      <trkpt lat="44.99195" lon="4.26312">
        <ele>1111.6</ele>
        <time>2026-04-29T14:52:17Z</time>
      </trkpt>
      <trkpt lat="44.99201" lon="4.2632">
        <ele>1111.1</ele>
        <time>2026-04-29T14:52:22Z</time>
      </trkpt>
      <trkpt lat="44.99207" lon="4.26327">
        <ele>1110.7</ele>
        <time>2026-04-29T14:52:27Z</time>
      </trkpt>
      <trkpt lat="44.99212" lon="4.26336">
        <ele>1110.2</ele>
        <time>2026-04-29T14:52:32Z</time>
      </trkpt>
      <trkpt lat="44.99216" lon="4.26342">
        <ele>1109.7</ele>
        <time>2026-04-29T14:52:37Z</time>
      </trkpt>
      <trkpt lat="44.99221" lon="4.26348">
        <ele>1109.2</ele>
        <time>2026-04-29T14:52:42Z</time>
      </trkpt>
      <trkpt lat="44.99222" lon="4.26349">
        <ele>1109.1</ele>
        <time>2026-04-29T14:52:47Z</time>
      </trkpt>
      <trkpt lat="44.99222" lon="4.2635">
        <ele>1109.1</ele>
        <time>2026-04-29T14:52:52Z</time>
      </trkpt>
      <trkpt lat="44.99224" lon="4.26352">
        <ele>1108.9</ele>
        <time>2026-04-29T14:52:57Z</time>
      </trkpt>
      <trkpt lat="44.99225" lon="4.26352">
        <ele>1108.9</ele>
        <time>2026-04-29T14:53:02Z</time>
      </trkpt>
      <trkpt lat="44.99226" lon="4.26351">
        <ele>1108.9</ele>
        <time>2026-04-29T14:53:07Z</time>
      </trkpt>
      <trkpt lat="44.99226" lon="4.26351">
        <ele>1108.9</ele>
        <time>2026-04-29T14:53:12Z</time>
      </trkpt>
      <trkpt lat="44.99226" lon="4.26351">
        <ele>1108.9</ele>
        <time>2026-04-29T14:53:17Z</time>
      </trkpt>
      <trkpt lat="44.99226" lon="4.26351">
        <ele>1108.9</ele>
        <time>2026-04-29T14:53:22Z</time>
      </trkpt>
      <trkpt lat="44.99226" lon="4.26351">
        <ele>1108.9</ele>
        <time>2026-04-29T14:53:27Z</time>
      </trkpt>
      <trkpt lat="44.99226" lon="4.26351">
        <ele>1108.9</ele>
        <time>2026-04-29T14:53:32Z</time>
      </trkpt>
      <trkpt lat="44.99226" lon="4.26351">
        <ele>1108.9</ele>
        <time>2026-04-29T14:53:37Z</time>
      </trkpt>
      <trkpt lat="44.99226" lon="4.26351">
        <ele>1108.9</ele>
        <time>2026-04-29T14:53:42Z</time>
      </trkpt>
      <trkpt lat="44.99226" lon="4.26351">
        <ele>1108.9</ele>
        <time>2026-04-29T14:53:47Z</time>
      </trkpt>
      <trkpt lat="44.99226" lon="4.26351">
        <ele>1108.9</ele>
        <time>2026-04-29T14:53:52Z</time>
      </trkpt>
      <trkpt lat="44.99226" lon="4.26351">
        <ele>1108.9</ele>
        <time>2026-04-29T14:53:57Z</time>
      </trkpt>
      <trkpt lat="44.99226" lon="4.26351">
        <ele>1108.9</ele>
        <time>2026-04-29T14:54:02Z</time>
      </trkpt>
      <trkpt lat="44.99226" lon="4.26351">
        <ele>1108.9</ele>
        <time>2026-04-29T14:54:07Z</time>
      </trkpt>
      <trkpt lat="44.99226" lon="4.26351">
        <ele>1108.9</ele>
        <time>2026-04-29T14:54:12Z</time>
      </trkpt>
      <trkpt lat="44.99226" lon="4.26351">
        <ele>1108.9</ele>
        <time>2026-04-29T14:54:17Z</time>
      </trkpt>
      <trkpt lat="44.99226" lon="4.26351">
        <ele>1108.9</ele>
        <time>2026-04-29T14:54:22Z</time>
      </trkpt>
      <trkpt lat="44.99237" lon="4.26357">
        <ele>1108.2</ele>
        <time>2026-04-29T14:54:27Z</time>
      </trkpt>
      <trkpt lat="44.99241" lon="4.26363">
        <ele>1107.8</ele>
        <time>2026-04-29T14:54:32Z</time>
      </trkpt>
      <trkpt lat="44.99246" lon="4.26368">
        <ele>1107.4</ele>
        <time>2026-04-29T14:54:37Z</time>
      </trkpt>
      <trkpt lat="44.99251" lon="4.26374">
        <ele>1107</ele>
        <time>2026-04-29T14:54:42Z</time>
      </trkpt>
      <trkpt lat="44.99256" lon="4.2638">
        <ele>1106.5</ele>
        <time>2026-04-29T14:54:47Z</time>
      </trkpt>
      <trkpt lat="44.99263" lon="4.26384">
        <ele>1105.9</ele>
        <time>2026-04-29T14:54:52Z</time>
      </trkpt>
      <trkpt lat="44.9927" lon="4.26391">
        <ele>1105.3</ele>
        <time>2026-04-29T14:54:57Z</time>
      </trkpt>
      <trkpt lat="44.99276" lon="4.26397">
        <ele>1104.7</ele>
        <time>2026-04-29T14:55:02Z</time>
      </trkpt>
      <trkpt lat="44.99282" lon="4.26404">
        <ele>1104.1</ele>
        <time>2026-04-29T14:55:07Z</time>
      </trkpt>
      <trkpt lat="44.99288" lon="4.26411">
        <ele>1103.4</ele>
        <time>2026-04-29T14:55:12Z</time>
      </trkpt>
      <trkpt lat="44.99292" lon="4.26419">
        <ele>1102.8</ele>
        <time>2026-04-29T14:55:17Z</time>
      </trkpt>
      <trkpt lat="44.99298" lon="4.26428">
        <ele>1102</ele>
        <time>2026-04-29T14:55:22Z</time>
      </trkpt>
      <trkpt lat="44.99304" lon="4.26437">
        <ele>1101.2</ele>
        <time>2026-04-29T14:55:27Z</time>
      </trkpt>
      <trkpt lat="44.99309" lon="4.26444">
        <ele>1100.5</ele>
        <time>2026-04-29T14:55:32Z</time>
      </trkpt>
      <trkpt lat="44.99315" lon="4.26445">
        <ele>1100.2</ele>
        <time>2026-04-29T14:55:37Z</time>
      </trkpt>
      <trkpt lat="44.99323" lon="4.26448">
        <ele>1099.6</ele>
        <time>2026-04-29T14:55:42Z</time>
      </trkpt>
      <trkpt lat="44.99331" lon="4.26451">
        <ele>1099.1</ele>
        <time>2026-04-29T14:55:47Z</time>
      </trkpt>
      <trkpt lat="44.99339" lon="4.26453">
        <ele>1098.4</ele>
        <time>2026-04-29T14:55:52Z</time>
      </trkpt>
      <trkpt lat="44.99347" lon="4.26456">
        <ele>1097.6</ele>
        <time>2026-04-29T14:55:57Z</time>
      </trkpt>
      <trkpt lat="44.99354" lon="4.2646">
        <ele>1096.9</ele>
        <time>2026-04-29T14:56:02Z</time>
      </trkpt>
      <trkpt lat="44.9936" lon="4.26463">
        <ele>1096.4</ele>
        <time>2026-04-29T14:56:07Z</time>
      </trkpt>
      <trkpt lat="44.99367" lon="4.26466">
        <ele>1095.8</ele>
        <time>2026-04-29T14:56:12Z</time>
      </trkpt>
      <trkpt lat="44.99375" lon="4.26466">
        <ele>1095.2</ele>
        <time>2026-04-29T14:56:17Z</time>
      </trkpt>
      <trkpt lat="44.99382" lon="4.26465">
        <ele>1094.8</ele>
        <time>2026-04-29T14:56:22Z</time>
      </trkpt>
      <trkpt lat="44.99389" lon="4.26467">
        <ele>1094.2</ele>
        <time>2026-04-29T14:56:27Z</time>
      </trkpt>
      <trkpt lat="44.99395" lon="4.26469">
        <ele>1093.8</ele>
        <time>2026-04-29T14:56:32Z</time>
      </trkpt>
      <trkpt lat="44.99401" lon="4.26474">
        <ele>1093.3</ele>
        <time>2026-04-29T14:56:37Z</time>
      </trkpt>
      <trkpt lat="44.99407" lon="4.26479">
        <ele>1092.8</ele>
        <time>2026-04-29T14:56:42Z</time>
      </trkpt>
      <trkpt lat="44.99412" lon="4.26485">
        <ele>1092.4</ele>
        <time>2026-04-29T14:56:47Z</time>
      </trkpt>
      <trkpt lat="44.99417" lon="4.26492">
        <ele>1092.1</ele>
        <time>2026-04-29T14:56:52Z</time>
      </trkpt>
      <trkpt lat="44.99423" lon="4.26499">
        <ele>1091.9</ele>
        <time>2026-04-29T14:56:57Z</time>
      </trkpt>
      <trkpt lat="44.99429" lon="4.26505">
        <ele>1091.6</ele>
        <time>2026-04-29T14:57:02Z</time>
      </trkpt>
      <trkpt lat="44.99435" lon="4.26512">
        <ele>1091.4</ele>
        <time>2026-04-29T14:57:07Z</time>
      </trkpt>
      <trkpt lat="44.9944" lon="4.26518">
        <ele>1091.2</ele>
        <time>2026-04-29T14:57:12Z</time>
      </trkpt>
      <trkpt lat="44.99444" lon="4.26523">
        <ele>1091</ele>
        <time>2026-04-29T14:57:17Z</time>
      </trkpt>
      <trkpt lat="44.99449" lon="4.26532">
        <ele>1090.7</ele>
        <time>2026-04-29T14:57:22Z</time>
      </trkpt>
      <trkpt lat="44.99452" lon="4.26541">
        <ele>1090.5</ele>
        <time>2026-04-29T14:57:27Z</time>
      </trkpt>
      <trkpt lat="44.99456" lon="4.2655">
        <ele>1090.2</ele>
        <time>2026-04-29T14:57:32Z</time>
      </trkpt>
      <trkpt lat="44.9946" lon="4.26558">
        <ele>1089.9</ele>
        <time>2026-04-29T14:57:37Z</time>
      </trkpt>
      <trkpt lat="44.99466" lon="4.26565">
        <ele>1089.6</ele>
        <time>2026-04-29T14:57:42Z</time>
      </trkpt>
      <trkpt lat="44.99472" lon="4.26571">
        <ele>1089.3</ele>
        <time>2026-04-29T14:57:47Z</time>
      </trkpt>
      <trkpt lat="44.99477" lon="4.26575">
        <ele>1089</ele>
        <time>2026-04-29T14:57:52Z</time>
      </trkpt>
      <trkpt lat="44.99483" lon="4.2658">
        <ele>1088.7</ele>
        <time>2026-04-29T14:57:57Z</time>
      </trkpt>
      <trkpt lat="44.99488" lon="4.26588">
        <ele>1088.3</ele>
        <time>2026-04-29T14:58:02Z</time>
      </trkpt>
      <trkpt lat="44.99491" lon="4.26597">
        <ele>1087.8</ele>
        <time>2026-04-29T14:58:07Z</time>
      </trkpt>
      <trkpt lat="44.99494" lon="4.26606">
        <ele>1087.4</ele>
        <time>2026-04-29T14:58:12Z</time>
      </trkpt>
      <trkpt lat="44.99498" lon="4.26614">
        <ele>1087</ele>
        <time>2026-04-29T14:58:17Z</time>
      </trkpt>
      <trkpt lat="44.995" lon="4.26624">
        <ele>1086.5</ele>
        <time>2026-04-29T14:58:22Z</time>
      </trkpt>
      <trkpt lat="44.99503" lon="4.26632">
        <ele>1086.4</ele>
        <time>2026-04-29T14:58:27Z</time>
      </trkpt>
      <trkpt lat="44.99506" lon="4.26638">
        <ele>1086.4</ele>
        <time>2026-04-29T14:58:32Z</time>
      </trkpt>
      <trkpt lat="44.99507" lon="4.26644">
        <ele>1086.3</ele>
        <time>2026-04-29T14:58:37Z</time>
      </trkpt>
      <trkpt lat="44.99509" lon="4.26646">
        <ele>1086.3</ele>
        <time>2026-04-29T14:58:42Z</time>
      </trkpt>
      <trkpt lat="44.99509" lon="4.26646">
        <ele>1086.3</ele>
        <time>2026-04-29T14:58:47Z</time>
      </trkpt>
      <trkpt lat="44.99511" lon="4.26654">
        <ele>1086.2</ele>
        <time>2026-04-29T14:58:52Z</time>
      </trkpt>
      <trkpt lat="44.99515" lon="4.26662">
        <ele>1086.2</ele>
        <time>2026-04-29T14:58:57Z</time>
      </trkpt>
      <trkpt lat="44.99519" lon="4.2667">
        <ele>1086.4</ele>
        <time>2026-04-29T14:59:02Z</time>
      </trkpt>
      <trkpt lat="44.99522" lon="4.26678">
        <ele>1086.6</ele>
        <time>2026-04-29T14:59:07Z</time>
      </trkpt>
      <trkpt lat="44.99526" lon="4.26687">
        <ele>1086.9</ele>
        <time>2026-04-29T14:59:12Z</time>
      </trkpt>
      <trkpt lat="44.9953" lon="4.26694">
        <ele>1087.3</ele>
        <time>2026-04-29T14:59:17Z</time>
      </trkpt>
      <trkpt lat="44.99534" lon="4.26701">
        <ele>1087.6</ele>
        <time>2026-04-29T14:59:22Z</time>
      </trkpt>
      <trkpt lat="44.99538" lon="4.26709">
        <ele>1088</ele>
        <time>2026-04-29T14:59:27Z</time>
      </trkpt>
      <trkpt lat="44.99542" lon="4.26716">
        <ele>1088.3</ele>
        <time>2026-04-29T14:59:32Z</time>
      </trkpt>
      <trkpt lat="44.99546" lon="4.26722">
        <ele>1088.7</ele>
        <time>2026-04-29T14:59:37Z</time>
      </trkpt>
      <trkpt lat="44.99551" lon="4.26729">
        <ele>1089.1</ele>
        <time>2026-04-29T14:59:42Z</time>
      </trkpt>
      <trkpt lat="44.99555" lon="4.26735">
        <ele>1089.5</ele>
        <time>2026-04-29T14:59:47Z</time>
      </trkpt>
      <trkpt lat="44.99559" lon="4.26741">
        <ele>1089.9</ele>
        <time>2026-04-29T14:59:52Z</time>
      </trkpt>
      <trkpt lat="44.99563" lon="4.26743">
        <ele>1090.2</ele>
        <time>2026-04-29T14:59:57Z</time>
      </trkpt>
      <trkpt lat="44.99568" lon="4.26746">
        <ele>1090.7</ele>
        <time>2026-04-29T15:00:02Z</time>
      </trkpt>
      <trkpt lat="44.99574" lon="4.26746">
        <ele>1091.2</ele>
        <time>2026-04-29T15:00:07Z</time>
      </trkpt>
      <trkpt lat="44.99578" lon="4.26748">
        <ele>1091.5</ele>
        <time>2026-04-29T15:00:12Z</time>
      </trkpt>
      <trkpt lat="44.99584" lon="4.2675">
        <ele>1092</ele>
        <time>2026-04-29T15:00:17Z</time>
      </trkpt>
      <trkpt lat="44.99591" lon="4.26752">
        <ele>1092.3</ele>
        <time>2026-04-29T15:00:22Z</time>
      </trkpt>
      <trkpt lat="44.99598" lon="4.26754">
        <ele>1092.5</ele>
        <time>2026-04-29T15:00:27Z</time>
      </trkpt>
      <trkpt lat="44.99605" lon="4.26757">
        <ele>1092.7</ele>
        <time>2026-04-29T15:00:32Z</time>
      </trkpt>
      <trkpt lat="44.99611" lon="4.26761">
        <ele>1093</ele>
        <time>2026-04-29T15:00:37Z</time>
      </trkpt>
      <trkpt lat="44.99616" lon="4.26766">
        <ele>1093.1</ele>
        <time>2026-04-29T15:00:42Z</time>
      </trkpt>
      <trkpt lat="44.99619" lon="4.26775">
        <ele>1093.2</ele>
        <time>2026-04-29T15:00:47Z</time>
      </trkpt>
      <trkpt lat="44.9962" lon="4.26784">
        <ele>1093.3</ele>
        <time>2026-04-29T15:00:52Z</time>
      </trkpt>
      <trkpt lat="44.99621" lon="4.26794">
        <ele>1093.3</ele>
        <time>2026-04-29T15:00:57Z</time>
      </trkpt>
      <trkpt lat="44.99622" lon="4.26804">
        <ele>1093.3</ele>
        <time>2026-04-29T15:01:02Z</time>
      </trkpt>
      <trkpt lat="44.99622" lon="4.26817">
        <ele>1093.3</ele>
        <time>2026-04-29T15:01:07Z</time>
      </trkpt>
      <trkpt lat="44.99623" lon="4.26824">
        <ele>1093.4</ele>
        <time>2026-04-29T15:01:12Z</time>
      </trkpt>
      <trkpt lat="44.99626" lon="4.26831">
        <ele>1093.6</ele>
        <time>2026-04-29T15:01:17Z</time>
      </trkpt>
      <trkpt lat="44.99629" lon="4.26842">
        <ele>1093.4</ele>
        <time>2026-04-29T15:01:22Z</time>
      </trkpt>
      <trkpt lat="44.99631" lon="4.26851">
        <ele>1093.1</ele>
        <time>2026-04-29T15:01:27Z</time>
      </trkpt>
      <trkpt lat="44.99634" lon="4.2686">
        <ele>1092.9</ele>
        <time>2026-04-29T15:01:32Z</time>
      </trkpt>
      <trkpt lat="44.99636" lon="4.26871">
        <ele>1092.5</ele>
        <time>2026-04-29T15:01:37Z</time>
      </trkpt>
      <trkpt lat="44.99637" lon="4.26881">
        <ele>1092.1</ele>
        <time>2026-04-29T15:01:42Z</time>
      </trkpt>
      <trkpt lat="44.99638" lon="4.26894">
        <ele>1091.6</ele>
        <time>2026-04-29T15:01:47Z</time>
      </trkpt>
      <trkpt lat="44.99638" lon="4.26905">
        <ele>1091.1</ele>
        <time>2026-04-29T15:01:52Z</time>
      </trkpt>
      <trkpt lat="44.99639" lon="4.26915">
        <ele>1090.7</ele>
        <time>2026-04-29T15:01:57Z</time>
      </trkpt>
      <trkpt lat="44.99641" lon="4.26925">
        <ele>1090.3</ele>
        <time>2026-04-29T15:02:02Z</time>
      </trkpt>
      <trkpt lat="44.99642" lon="4.26937">
        <ele>1089.6</ele>
        <time>2026-04-29T15:02:07Z</time>
      </trkpt>
      <trkpt lat="44.99642" lon="4.26949">
        <ele>1088.9</ele>
        <time>2026-04-29T15:02:12Z</time>
      </trkpt>
      <trkpt lat="44.99643" lon="4.2696">
        <ele>1088.3</ele>
        <time>2026-04-29T15:02:17Z</time>
      </trkpt>
      <trkpt lat="44.99644" lon="4.26971">
        <ele>1087.7</ele>
        <time>2026-04-29T15:02:22Z</time>
      </trkpt>
      <trkpt lat="44.99644" lon="4.26982">
        <ele>1087</ele>
        <time>2026-04-29T15:02:27Z</time>
      </trkpt>
      <trkpt lat="44.99646" lon="4.26992">
        <ele>1086.5</ele>
        <time>2026-04-29T15:02:32Z</time>
      </trkpt>
      <trkpt lat="44.99647" lon="4.27003">
        <ele>1085.8</ele>
        <time>2026-04-29T15:02:37Z</time>
      </trkpt>
      <trkpt lat="44.99649" lon="4.27013">
        <ele>1085.2</ele>
        <time>2026-04-29T15:02:42Z</time>
      </trkpt>
      <trkpt lat="44.99651" lon="4.27024">
        <ele>1084.4</ele>
        <time>2026-04-29T15:02:47Z</time>
      </trkpt>
      <trkpt lat="44.99654" lon="4.27034">
        <ele>1083.8</ele>
        <time>2026-04-29T15:02:52Z</time>
      </trkpt>
      <trkpt lat="44.99656" lon="4.27043">
        <ele>1083.1</ele>
        <time>2026-04-29T15:02:57Z</time>
      </trkpt>
      <trkpt lat="44.99658" lon="4.27053">
        <ele>1082.4</ele>
        <time>2026-04-29T15:03:02Z</time>
      </trkpt>
      <trkpt lat="44.99659" lon="4.27064">
        <ele>1081.5</ele>
        <time>2026-04-29T15:03:07Z</time>
      </trkpt>
      <trkpt lat="44.99664" lon="4.27075">
        <ele>1080.7</ele>
        <time>2026-04-29T15:03:12Z</time>
      </trkpt>
      <trkpt lat="44.99668" lon="4.27085">
        <ele>1079.9</ele>
        <time>2026-04-29T15:03:17Z</time>
      </trkpt>
      <trkpt lat="44.99671" lon="4.27094">
        <ele>1079.7</ele>
        <time>2026-04-29T15:03:22Z</time>
      </trkpt>
      <trkpt lat="44.99676" lon="4.27104">
        <ele>1079.4</ele>
        <time>2026-04-29T15:03:27Z</time>
      </trkpt>
      <trkpt lat="44.99679" lon="4.27113">
        <ele>1079.2</ele>
        <time>2026-04-29T15:03:32Z</time>
      </trkpt>
      <trkpt lat="44.99683" lon="4.27124">
        <ele>1078.9</ele>
        <time>2026-04-29T15:03:37Z</time>
      </trkpt>
      <trkpt lat="44.99686" lon="4.27134">
        <ele>1078.7</ele>
        <time>2026-04-29T15:03:42Z</time>
      </trkpt>
      <trkpt lat="44.99686" lon="4.27143">
        <ele>1078.5</ele>
        <time>2026-04-29T15:03:47Z</time>
      </trkpt>
      <trkpt lat="44.99689" lon="4.27153">
        <ele>1078.3</ele>
        <time>2026-04-29T15:03:52Z</time>
      </trkpt>
      <trkpt lat="44.99691" lon="4.27163">
        <ele>1078.1</ele>
        <time>2026-04-29T15:03:57Z</time>
      </trkpt>
      <trkpt lat="44.99691" lon="4.27173">
        <ele>1078.2</ele>
        <time>2026-04-29T15:04:02Z</time>
      </trkpt>
      <trkpt lat="44.99691" lon="4.27182">
        <ele>1078.4</ele>
        <time>2026-04-29T15:04:07Z</time>
      </trkpt>
      <trkpt lat="44.99691" lon="4.27191">
        <ele>1078.6</ele>
        <time>2026-04-29T15:04:12Z</time>
      </trkpt>
      <trkpt lat="44.9969" lon="4.27202">
        <ele>1078.8</ele>
        <time>2026-04-29T15:04:17Z</time>
      </trkpt>
      <trkpt lat="44.9969" lon="4.27212">
        <ele>1079.1</ele>
        <time>2026-04-29T15:04:22Z</time>
      </trkpt>
      <trkpt lat="44.99689" lon="4.27223">
        <ele>1079.4</ele>
        <time>2026-04-29T15:04:27Z</time>
      </trkpt>
      <trkpt lat="44.99689" lon="4.27233">
        <ele>1079.6</ele>
        <time>2026-04-29T15:04:32Z</time>
      </trkpt>
      <trkpt lat="44.99689" lon="4.27243">
        <ele>1079.8</ele>
        <time>2026-04-29T15:04:37Z</time>
      </trkpt>
      <trkpt lat="44.9969" lon="4.27252">
        <ele>1080.1</ele>
        <time>2026-04-29T15:04:42Z</time>
      </trkpt>
      <trkpt lat="44.9969" lon="4.27262">
        <ele>1080.7</ele>
        <time>2026-04-29T15:04:47Z</time>
      </trkpt>
      <trkpt lat="44.99691" lon="4.27271">
        <ele>1081.2</ele>
        <time>2026-04-29T15:04:52Z</time>
      </trkpt>
      <trkpt lat="44.99691" lon="4.27279">
        <ele>1081.6</ele>
        <time>2026-04-29T15:04:57Z</time>
      </trkpt>
      <trkpt lat="44.9969" lon="4.27289">
        <ele>1082.2</ele>
        <time>2026-04-29T15:05:02Z</time>
      </trkpt>
      <trkpt lat="44.99691" lon="4.27297">
        <ele>1082.7</ele>
        <time>2026-04-29T15:05:07Z</time>
      </trkpt>
      <trkpt lat="44.99692" lon="4.27305">
        <ele>1083.1</ele>
        <time>2026-04-29T15:05:12Z</time>
      </trkpt>
      <trkpt lat="44.99691" lon="4.27313">
        <ele>1083.6</ele>
        <time>2026-04-29T15:05:17Z</time>
      </trkpt>
      <trkpt lat="44.9969" lon="4.27321">
        <ele>1084</ele>
        <time>2026-04-29T15:05:22Z</time>
      </trkpt>
      <trkpt lat="44.99689" lon="4.27328">
        <ele>1084.4</ele>
        <time>2026-04-29T15:05:27Z</time>
      </trkpt>
      <trkpt lat="44.99689" lon="4.27336">
        <ele>1084.9</ele>
        <time>2026-04-29T15:05:32Z</time>
      </trkpt>
      <trkpt lat="44.99688" lon="4.27343">
        <ele>1085.2</ele>
        <time>2026-04-29T15:05:37Z</time>
      </trkpt>
      <trkpt lat="44.99689" lon="4.2735">
        <ele>1085.5</ele>
        <time>2026-04-29T15:05:42Z</time>
      </trkpt>
      <trkpt lat="44.99688" lon="4.27357">
        <ele>1085.8</ele>
        <time>2026-04-29T15:05:47Z</time>
      </trkpt>
      <trkpt lat="44.99689" lon="4.27366">
        <ele>1086.2</ele>
        <time>2026-04-29T15:05:52Z</time>
      </trkpt>
      <trkpt lat="44.99689" lon="4.27374">
        <ele>1086.6</ele>
        <time>2026-04-29T15:05:57Z</time>
      </trkpt>
      <trkpt lat="44.99689" lon="4.27383">
        <ele>1087</ele>
        <time>2026-04-29T15:06:02Z</time>
      </trkpt>
      <trkpt lat="44.99688" lon="4.27392">
        <ele>1087.4</ele>
        <time>2026-04-29T15:06:07Z</time>
      </trkpt>
      <trkpt lat="44.99688" lon="4.27401">
        <ele>1087.8</ele>
        <time>2026-04-29T15:06:12Z</time>
      </trkpt>
      <trkpt lat="44.99689" lon="4.27409">
        <ele>1088.1</ele>
        <time>2026-04-29T15:06:17Z</time>
      </trkpt>
      <trkpt lat="44.99689" lon="4.27419">
        <ele>1088.5</ele>
        <time>2026-04-29T15:06:22Z</time>
      </trkpt>
      <trkpt lat="44.99691" lon="4.27427">
        <ele>1088.6</ele>
        <time>2026-04-29T15:06:27Z</time>
      </trkpt>
      <trkpt lat="44.9969" lon="4.27437">
        <ele>1088.8</ele>
        <time>2026-04-29T15:06:32Z</time>
      </trkpt>
      <trkpt lat="44.99691" lon="4.27447">
        <ele>1089</ele>
        <time>2026-04-29T15:06:37Z</time>
      </trkpt>
      <trkpt lat="44.99692" lon="4.27456">
        <ele>1089.2</ele>
        <time>2026-04-29T15:06:42Z</time>
      </trkpt>
      <trkpt lat="44.99693" lon="4.27466">
        <ele>1089.3</ele>
        <time>2026-04-29T15:06:47Z</time>
      </trkpt>
      <trkpt lat="44.99694" lon="4.27477">
        <ele>1089.5</ele>
        <time>2026-04-29T15:06:52Z</time>
      </trkpt>
      <trkpt lat="44.99695" lon="4.27487">
        <ele>1089.7</ele>
        <time>2026-04-29T15:06:57Z</time>
      </trkpt>
      <trkpt lat="44.99696" lon="4.27496">
        <ele>1089.9</ele>
        <time>2026-04-29T15:07:02Z</time>
      </trkpt>
      <trkpt lat="44.99698" lon="4.27506">
        <ele>1090</ele>
        <time>2026-04-29T15:07:07Z</time>
      </trkpt>
      <trkpt lat="44.99699" lon="4.27514">
        <ele>1089.9</ele>
        <time>2026-04-29T15:07:12Z</time>
      </trkpt>
      <trkpt lat="44.997" lon="4.2752">
        <ele>1089.9</ele>
        <time>2026-04-29T15:07:17Z</time>
      </trkpt>
      <trkpt lat="44.99702" lon="4.27528">
        <ele>1089.9</ele>
        <time>2026-04-29T15:07:22Z</time>
      </trkpt>
      <trkpt lat="44.99703" lon="4.27538">
        <ele>1089.8</ele>
        <time>2026-04-29T15:07:27Z</time>
      </trkpt>
      <trkpt lat="44.99704" lon="4.27548">
        <ele>1089.7</ele>
        <time>2026-04-29T15:07:32Z</time>
      </trkpt>
      <trkpt lat="44.99705" lon="4.27557">
        <ele>1089.7</ele>
        <time>2026-04-29T15:07:37Z</time>
      </trkpt>
      <trkpt lat="44.99706" lon="4.27566">
        <ele>1089.6</ele>
        <time>2026-04-29T15:07:42Z</time>
      </trkpt>
      <trkpt lat="44.99707" lon="4.27576">
        <ele>1089.6</ele>
        <time>2026-04-29T15:07:47Z</time>
      </trkpt>
      <trkpt lat="44.99709" lon="4.27586">
        <ele>1089.4</ele>
        <time>2026-04-29T15:07:52Z</time>
      </trkpt>
      <trkpt lat="44.99711" lon="4.27596">
        <ele>1089.2</ele>
        <time>2026-04-29T15:07:57Z</time>
      </trkpt>
      <trkpt lat="44.99712" lon="4.27607">
        <ele>1089</ele>
        <time>2026-04-29T15:08:02Z</time>
      </trkpt>
      <trkpt lat="44.99714" lon="4.27618">
        <ele>1088.8</ele>
        <time>2026-04-29T15:08:07Z</time>
      </trkpt>
      <trkpt lat="44.99715" lon="4.27627">
        <ele>1088.7</ele>
        <time>2026-04-29T15:08:12Z</time>
      </trkpt>
      <trkpt lat="44.99716" lon="4.27636">
        <ele>1088.5</ele>
        <time>2026-04-29T15:08:17Z</time>
      </trkpt>
      <trkpt lat="44.99718" lon="4.27646">
        <ele>1088.3</ele>
        <time>2026-04-29T15:08:22Z</time>
      </trkpt>
      <trkpt lat="44.99719" lon="4.27654">
        <ele>1088.2</ele>
        <time>2026-04-29T15:08:27Z</time>
      </trkpt>
      <trkpt lat="44.99721" lon="4.27664">
        <ele>1088</ele>
        <time>2026-04-29T15:08:32Z</time>
      </trkpt>
      <trkpt lat="44.99722" lon="4.27676">
        <ele>1087.5</ele>
        <time>2026-04-29T15:08:37Z</time>
      </trkpt>
      <trkpt lat="44.99723" lon="4.27688">
        <ele>1086.8</ele>
        <time>2026-04-29T15:08:42Z</time>
      </trkpt>
      <trkpt lat="44.99724" lon="4.27701">
        <ele>1086</ele>
        <time>2026-04-29T15:08:47Z</time>
      </trkpt>
      <trkpt lat="44.99725" lon="4.27712">
        <ele>1085.4</ele>
        <time>2026-04-29T15:08:52Z</time>
      </trkpt>
      <trkpt lat="44.99727" lon="4.27723">
        <ele>1084.7</ele>
        <time>2026-04-29T15:08:57Z</time>
      </trkpt>
      <trkpt lat="44.99729" lon="4.27732">
        <ele>1084.1</ele>
        <time>2026-04-29T15:09:02Z</time>
      </trkpt>
      <trkpt lat="44.99732" lon="4.27741">
        <ele>1083.4</ele>
        <time>2026-04-29T15:09:07Z</time>
      </trkpt>
      <trkpt lat="44.99735" lon="4.27749">
        <ele>1082.8</ele>
        <time>2026-04-29T15:09:12Z</time>
      </trkpt>
      <trkpt lat="44.99741" lon="4.27756">
        <ele>1082.5</ele>
        <time>2026-04-29T15:09:17Z</time>
      </trkpt>
      <trkpt lat="44.99746" lon="4.27764">
        <ele>1082.4</ele>
        <time>2026-04-29T15:09:22Z</time>
      </trkpt>
      <trkpt lat="44.9975" lon="4.27769">
        <ele>1082.2</ele>
        <time>2026-04-29T15:09:27Z</time>
      </trkpt>
      <trkpt lat="44.99754" lon="4.27775">
        <ele>1082.3</ele>
        <time>2026-04-29T15:09:32Z</time>
      </trkpt>
      <trkpt lat="44.99759" lon="4.27781">
        <ele>1082.3</ele>
        <time>2026-04-29T15:09:37Z</time>
      </trkpt>
      <trkpt lat="44.99764" lon="4.27787">
        <ele>1082.4</ele>
        <time>2026-04-29T15:09:42Z</time>
      </trkpt>
      <trkpt lat="44.9977" lon="4.27794">
        <ele>1082.5</ele>
        <time>2026-04-29T15:09:47Z</time>
      </trkpt>
      <trkpt lat="44.99774" lon="4.278">
        <ele>1082.7</ele>
        <time>2026-04-29T15:09:52Z</time>
      </trkpt>
      <trkpt lat="44.99779" lon="4.27805">
        <ele>1082.8</ele>
        <time>2026-04-29T15:09:57Z</time>
      </trkpt>
      <trkpt lat="44.99783" lon="4.27811">
        <ele>1082.9</ele>
        <time>2026-04-29T15:10:02Z</time>
      </trkpt>
      <trkpt lat="44.99787" lon="4.27816">
        <ele>1083.1</ele>
        <time>2026-04-29T15:10:07Z</time>
      </trkpt>
      <trkpt lat="44.99791" lon="4.27821">
        <ele>1083.2</ele>
        <time>2026-04-29T15:10:12Z</time>
      </trkpt>
      <trkpt lat="44.99796" lon="4.27826">
        <ele>1083.4</ele>
        <time>2026-04-29T15:10:17Z</time>
      </trkpt>
      <trkpt lat="44.998" lon="4.27832">
        <ele>1083.6</ele>
        <time>2026-04-29T15:10:22Z</time>
      </trkpt>
      <trkpt lat="44.99804" lon="4.27837">
        <ele>1084</ele>
        <time>2026-04-29T15:10:27Z</time>
      </trkpt>
      <trkpt lat="44.99807" lon="4.27843">
        <ele>1084.6</ele>
        <time>2026-04-29T15:10:32Z</time>
      </trkpt>
      <trkpt lat="44.9981" lon="4.27847">
        <ele>1085</ele>
        <time>2026-04-29T15:10:37Z</time>
      </trkpt>
      <trkpt lat="44.99813" lon="4.27853">
        <ele>1085.5</ele>
        <time>2026-04-29T15:10:42Z</time>
      </trkpt>
      <trkpt lat="44.99815" lon="4.2786">
        <ele>1086.2</ele>
        <time>2026-04-29T15:10:47Z</time>
      </trkpt>
      <trkpt lat="44.99818" lon="4.27869">
        <ele>1087</ele>
        <time>2026-04-29T15:10:52Z</time>
      </trkpt>
      <trkpt lat="44.9982" lon="4.27875">
        <ele>1087.5</ele>
        <time>2026-04-29T15:10:57Z</time>
      </trkpt>
      <trkpt lat="44.99821" lon="4.27883">
        <ele>1088.2</ele>
        <time>2026-04-29T15:11:02Z</time>
      </trkpt>
      <trkpt lat="44.99822" lon="4.27893">
        <ele>1089.1</ele>
        <time>2026-04-29T15:11:07Z</time>
      </trkpt>
      <trkpt lat="44.99823" lon="4.27903">
        <ele>1089.9</ele>
        <time>2026-04-29T15:11:12Z</time>
      </trkpt>
      <trkpt lat="44.99824" lon="4.27912">
        <ele>1090.7</ele>
        <time>2026-04-29T15:11:17Z</time>
      </trkpt>
      <trkpt lat="44.99826" lon="4.27921">
        <ele>1091.3</ele>
        <time>2026-04-29T15:11:22Z</time>
      </trkpt>
      <trkpt lat="44.99827" lon="4.2793">
        <ele>1091.6</ele>
        <time>2026-04-29T15:11:27Z</time>
      </trkpt>
      <trkpt lat="44.99828" lon="4.27939">
        <ele>1091.9</ele>
        <time>2026-04-29T15:11:32Z</time>
      </trkpt>
      <trkpt lat="44.99829" lon="4.27948">
        <ele>1092.2</ele>
        <time>2026-04-29T15:11:37Z</time>
      </trkpt>
      <trkpt lat="44.9983" lon="4.27956">
        <ele>1092.5</ele>
        <time>2026-04-29T15:11:42Z</time>
      </trkpt>
      <trkpt lat="44.99831" lon="4.27965">
        <ele>1092.8</ele>
        <time>2026-04-29T15:11:47Z</time>
      </trkpt>
      <trkpt lat="44.99832" lon="4.27974">
        <ele>1093.1</ele>
        <time>2026-04-29T15:11:52Z</time>
      </trkpt>
      <trkpt lat="44.99833" lon="4.27984">
        <ele>1093.4</ele>
        <time>2026-04-29T15:11:57Z</time>
      </trkpt>
      <trkpt lat="44.99833" lon="4.27993">
        <ele>1093.8</ele>
        <time>2026-04-29T15:12:02Z</time>
      </trkpt>
      <trkpt lat="44.99835" lon="4.28004">
        <ele>1094.1</ele>
        <time>2026-04-29T15:12:07Z</time>
      </trkpt>
      <trkpt lat="44.99836" lon="4.28013">
        <ele>1094.3</ele>
        <time>2026-04-29T15:12:12Z</time>
      </trkpt>
      <trkpt lat="44.99837" lon="4.28022">
        <ele>1094.5</ele>
        <time>2026-04-29T15:12:17Z</time>
      </trkpt>
      <trkpt lat="44.99839" lon="4.28031">
        <ele>1094.6</ele>
        <time>2026-04-29T15:12:22Z</time>
      </trkpt>
      <trkpt lat="44.99841" lon="4.2804">
        <ele>1094.8</ele>
        <time>2026-04-29T15:12:27Z</time>
      </trkpt>
      <trkpt lat="44.99841" lon="4.2805">
        <ele>1095.1</ele>
        <time>2026-04-29T15:12:32Z</time>
      </trkpt>
      <trkpt lat="44.99842" lon="4.28059">
        <ele>1095.3</ele>
        <time>2026-04-29T15:12:37Z</time>
      </trkpt>
      <trkpt lat="44.99842" lon="4.28067">
        <ele>1095.5</ele>
        <time>2026-04-29T15:12:42Z</time>
      </trkpt>
      <trkpt lat="44.99841" lon="4.28076">
        <ele>1095.7</ele>
        <time>2026-04-29T15:12:47Z</time>
      </trkpt>
      <trkpt lat="44.99842" lon="4.28085">
        <ele>1095.9</ele>
        <time>2026-04-29T15:12:52Z</time>
      </trkpt>
      <trkpt lat="44.99842" lon="4.28096">
        <ele>1096.2</ele>
        <time>2026-04-29T15:12:57Z</time>
      </trkpt>
      <trkpt lat="44.99841" lon="4.28108">
        <ele>1096.5</ele>
        <time>2026-04-29T15:13:02Z</time>
      </trkpt>
      <trkpt lat="44.9984" lon="4.28118">
        <ele>1096.7</ele>
        <time>2026-04-29T15:13:07Z</time>
      </trkpt>
      <trkpt lat="44.99839" lon="4.28127">
        <ele>1096.9</ele>
        <time>2026-04-29T15:13:12Z</time>
      </trkpt>
      <trkpt lat="44.9984" lon="4.28136">
        <ele>1097.1</ele>
        <time>2026-04-29T15:13:17Z</time>
      </trkpt>
      <trkpt lat="44.9984" lon="4.28146">
        <ele>1097.4</ele>
        <time>2026-04-29T15:13:22Z</time>
      </trkpt>
      <trkpt lat="44.99841" lon="4.28157">
        <ele>1097.6</ele>
        <time>2026-04-29T15:13:27Z</time>
      </trkpt>
      <trkpt lat="44.99842" lon="4.28169">
        <ele>1097.8</ele>
        <time>2026-04-29T15:13:32Z</time>
      </trkpt>
      <trkpt lat="44.99843" lon="4.2818">
        <ele>1097.9</ele>
        <time>2026-04-29T15:13:37Z</time>
      </trkpt>
      <trkpt lat="44.99844" lon="4.28189">
        <ele>1098</ele>
        <time>2026-04-29T15:13:42Z</time>
      </trkpt>
      <trkpt lat="44.99845" lon="4.28199">
        <ele>1098.1</ele>
        <time>2026-04-29T15:13:47Z</time>
      </trkpt>
      <trkpt lat="44.99846" lon="4.28208">
        <ele>1098.2</ele>
        <time>2026-04-29T15:13:52Z</time>
      </trkpt>
      <trkpt lat="44.99848" lon="4.28218">
        <ele>1098.3</ele>
        <time>2026-04-29T15:13:57Z</time>
      </trkpt>
      <trkpt lat="44.9985" lon="4.28228">
        <ele>1098.3</ele>
        <time>2026-04-29T15:14:02Z</time>
      </trkpt>
      <trkpt lat="44.99851" lon="4.28238">
        <ele>1098.4</ele>
        <time>2026-04-29T15:14:07Z</time>
      </trkpt>
      <trkpt lat="44.99853" lon="4.28248">
        <ele>1098.5</ele>
        <time>2026-04-29T15:14:12Z</time>
      </trkpt>
      <trkpt lat="44.99855" lon="4.28258">
        <ele>1098.6</ele>
        <time>2026-04-29T15:14:17Z</time>
      </trkpt>
      <trkpt lat="44.99857" lon="4.28267">
        <ele>1098.7</ele>
        <time>2026-04-29T15:14:22Z</time>
      </trkpt>
      <trkpt lat="44.99858" lon="4.28278">
        <ele>1098.8</ele>
        <time>2026-04-29T15:14:27Z</time>
      </trkpt>
      <trkpt lat="44.9986" lon="4.28288">
        <ele>1098.8</ele>
        <time>2026-04-29T15:14:32Z</time>
      </trkpt>
      <trkpt lat="44.99861" lon="4.28298">
        <ele>1098.9</ele>
        <time>2026-04-29T15:14:37Z</time>
      </trkpt>
      <trkpt lat="44.99863" lon="4.28309">
        <ele>1098.9</ele>
        <time>2026-04-29T15:14:42Z</time>
      </trkpt>
      <trkpt lat="44.99865" lon="4.28318">
        <ele>1098.9</ele>
        <time>2026-04-29T15:14:47Z</time>
      </trkpt>
      <trkpt lat="44.99867" lon="4.28326">
        <ele>1098.9</ele>
        <time>2026-04-29T15:14:52Z</time>
      </trkpt>
      <trkpt lat="44.99869" lon="4.28336">
        <ele>1098.9</ele>
        <time>2026-04-29T15:14:57Z</time>
        <extensions>
          <visugpx:TrkExtension xmlns:visugpx="https://www.visugpx.com/editgpx/">
            <visugpx:node>4</visugpx:node>
            </visugpx:TrkExtension>
        </extensions>
      </trkpt>
      <trkpt lat="44.99869" lon="4.28336">
        <ele>1097</ele>
        <time>2026-04-29T15:14:57Z</time>
        <extensions>
          <visugpx:TrkExtension xmlns:visugpx="https://www.visugpx.com/editgpx/">
            <visugpx:node>5</visugpx:node>
            </visugpx:TrkExtension>
        </extensions>
      </trkpt>
      <trkpt lat="44.99872" lon="4.28347">
        <ele>1097</ele>
        <time>2026-04-29T15:15:02Z</time>
      </trkpt>
      <trkpt lat="44.99873" lon="4.28358">
        <ele>1097</ele>
        <time>2026-04-29T15:15:07Z</time>
      </trkpt>
      <trkpt lat="44.99874" lon="4.28367">
        <ele>1097.1</ele>
        <time>2026-04-29T15:15:12Z</time>
      </trkpt>
      <trkpt lat="44.99876" lon="4.28377">
        <ele>1097.3</ele>
        <time>2026-04-29T15:15:17Z</time>
      </trkpt>
      <trkpt lat="44.99877" lon="4.28388">
        <ele>1097.4</ele>
        <time>2026-04-29T15:15:22Z</time>
      </trkpt>
      <trkpt lat="44.99879" lon="4.28398">
        <ele>1097.4</ele>
        <time>2026-04-29T15:15:27Z</time>
      </trkpt>
      <trkpt lat="44.99881" lon="4.28408">
        <ele>1097.3</ele>
        <time>2026-04-29T15:15:32Z</time>
      </trkpt>
      <trkpt lat="44.99881" lon="4.28418">
        <ele>1097.3</ele>
        <time>2026-04-29T15:15:37Z</time>
      </trkpt>
      <trkpt lat="44.99882" lon="4.28428">
        <ele>1097.2</ele>
        <time>2026-04-29T15:15:42Z</time>
      </trkpt>
      <trkpt lat="44.99884" lon="4.28438">
        <ele>1097.2</ele>
        <time>2026-04-29T15:15:47Z</time>
      </trkpt>
      <trkpt lat="44.99886" lon="4.28449">
        <ele>1097.3</ele>
        <time>2026-04-29T15:15:52Z</time>
      </trkpt>
      <trkpt lat="44.99887" lon="4.28458">
        <ele>1097.5</ele>
        <time>2026-04-29T15:15:57Z</time>
      </trkpt>
      <trkpt lat="44.99888" lon="4.28468">
        <ele>1097.9</ele>
        <time>2026-04-29T15:16:02Z</time>
      </trkpt>
      <trkpt lat="44.9989" lon="4.28478">
        <ele>1098</ele>
        <time>2026-04-29T15:16:07Z</time>
      </trkpt>
      <trkpt lat="44.99891" lon="4.28488">
        <ele>1097.9</ele>
        <time>2026-04-29T15:16:12Z</time>
      </trkpt>
      <trkpt lat="44.99893" lon="4.28499">
        <ele>1097.9</ele>
        <time>2026-04-29T15:16:17Z</time>
      </trkpt>
      <trkpt lat="44.99894" lon="4.28509">
        <ele>1097.9</ele>
        <time>2026-04-29T15:16:22Z</time>
      </trkpt>
      <trkpt lat="44.99896" lon="4.28518">
        <ele>1097.9</ele>
        <time>2026-04-29T15:16:27Z</time>
      </trkpt>
      <trkpt lat="44.99897" lon="4.28529">
        <ele>1098</ele>
        <time>2026-04-29T15:16:32Z</time>
      </trkpt>
      <trkpt lat="44.99899" lon="4.2854">
        <ele>1098.3</ele>
        <time>2026-04-29T15:16:37Z</time>
      </trkpt>
      <trkpt lat="44.999" lon="4.2855">
        <ele>1098.5</ele>
        <time>2026-04-29T15:16:42Z</time>
      </trkpt>
      <trkpt lat="44.99902" lon="4.2856">
        <ele>1098.6</ele>
        <time>2026-04-29T15:16:47Z</time>
      </trkpt>
      <trkpt lat="44.99903" lon="4.2857">
        <ele>1098.8</ele>
        <time>2026-04-29T15:16:52Z</time>
      </trkpt>
      <trkpt lat="44.99905" lon="4.28581">
        <ele>1099</ele>
        <time>2026-04-29T15:16:57Z</time>
      </trkpt>
      <trkpt lat="44.99906" lon="4.28591">
        <ele>1099</ele>
        <time>2026-04-29T15:17:02Z</time>
      </trkpt>
      <trkpt lat="44.99907" lon="4.28603">
        <ele>1099</ele>
        <time>2026-04-29T15:17:07Z</time>
      </trkpt>
      <trkpt lat="44.99909" lon="4.28613">
        <ele>1099</ele>
        <time>2026-04-29T15:17:12Z</time>
      </trkpt>
      <trkpt lat="44.9991" lon="4.28623">
        <ele>1099.1</ele>
        <time>2026-04-29T15:17:17Z</time>
      </trkpt>
      <trkpt lat="44.99912" lon="4.28633">
        <ele>1099.1</ele>
        <time>2026-04-29T15:17:22Z</time>
      </trkpt>
      <trkpt lat="44.99914" lon="4.28644">
        <ele>1099.3</ele>
        <time>2026-04-29T15:17:27Z</time>
      </trkpt>
      <trkpt lat="44.99916" lon="4.28654">
        <ele>1099.6</ele>
        <time>2026-04-29T15:17:32Z</time>
      </trkpt>
      <trkpt lat="44.99918" lon="4.28665">
        <ele>1099.9</ele>
        <time>2026-04-29T15:17:37Z</time>
      </trkpt>
      <trkpt lat="44.99921" lon="4.28675">
        <ele>1100</ele>
        <time>2026-04-29T15:17:42Z</time>
      </trkpt>
      <trkpt lat="44.99923" lon="4.28685">
        <ele>1100</ele>
        <time>2026-04-29T15:17:47Z</time>
      </trkpt>
      <trkpt lat="44.99925" lon="4.28696">
        <ele>1100</ele>
        <time>2026-04-29T15:17:52Z</time>
      </trkpt>
      <trkpt lat="44.99927" lon="4.28706">
        <ele>1100</ele>
        <time>2026-04-29T15:17:57Z</time>
      </trkpt>
      <trkpt lat="44.9993" lon="4.28716">
        <ele>1100</ele>
        <time>2026-04-29T15:18:02Z</time>
      </trkpt>
      <trkpt lat="44.99933" lon="4.28726">
        <ele>1099.9</ele>
        <time>2026-04-29T15:18:07Z</time>
      </trkpt>
      <trkpt lat="44.99936" lon="4.28736">
        <ele>1099.8</ele>
        <time>2026-04-29T15:18:12Z</time>
      </trkpt>
      <trkpt lat="44.99939" lon="4.28746">
        <ele>1099.8</ele>
        <time>2026-04-29T15:18:17Z</time>
      </trkpt>
      <trkpt lat="44.99942" lon="4.28757">
        <ele>1099.7</ele>
        <time>2026-04-29T15:18:22Z</time>
      </trkpt>
      <trkpt lat="44.99945" lon="4.28767">
        <ele>1099.4</ele>
        <time>2026-04-29T15:18:27Z</time>
      </trkpt>
      <trkpt lat="44.99948" lon="4.28776">
        <ele>1099.1</ele>
        <time>2026-04-29T15:18:32Z</time>
      </trkpt>
      <trkpt lat="44.9995" lon="4.28785">
        <ele>1098.8</ele>
        <time>2026-04-29T15:18:37Z</time>
      </trkpt>
      <trkpt lat="44.99953" lon="4.28794">
        <ele>1098.6</ele>
        <time>2026-04-29T15:18:42Z</time>
      </trkpt>
      <trkpt lat="44.99955" lon="4.28804">
        <ele>1098.4</ele>
        <time>2026-04-29T15:18:47Z</time>
      </trkpt>
      <trkpt lat="44.99958" lon="4.28814">
        <ele>1098.3</ele>
        <time>2026-04-29T15:18:52Z</time>
      </trkpt>
      <trkpt lat="44.99961" lon="4.28822">
        <ele>1098.2</ele>
        <time>2026-04-29T15:18:57Z</time>
      </trkpt>
      <trkpt lat="44.99965" lon="4.28831">
        <ele>1098.1</ele>
        <time>2026-04-29T15:19:02Z</time>
      </trkpt>
      <trkpt lat="44.99969" lon="4.28839">
        <ele>1097.8</ele>
        <time>2026-04-29T15:19:07Z</time>
      </trkpt>
      <trkpt lat="44.99972" lon="4.28847">
        <ele>1097.5</ele>
        <time>2026-04-29T15:19:12Z</time>
      </trkpt>
      <trkpt lat="44.99975" lon="4.28856">
        <ele>1097.3</ele>
        <time>2026-04-29T15:19:17Z</time>
      </trkpt>
      <trkpt lat="44.99981" lon="4.28865">
        <ele>1097.2</ele>
        <time>2026-04-29T15:19:22Z</time>
      </trkpt>
      <trkpt lat="44.99985" lon="4.28874">
        <ele>1097</ele>
        <time>2026-04-29T15:19:27Z</time>
      </trkpt>
      <trkpt lat="44.99989" lon="4.28882">
        <ele>1096.9</ele>
        <time>2026-04-29T15:19:32Z</time>
      </trkpt>
      <trkpt lat="44.99994" lon="4.2889">
        <ele>1096.7</ele>
        <time>2026-04-29T15:19:37Z</time>
      </trkpt>
      <trkpt lat="44.99999" lon="4.28893">
        <ele>1096.7</ele>
        <time>2026-04-29T15:19:42Z</time>
      </trkpt>
      <trkpt lat="45.00006" lon="4.28891">
        <ele>1096.9</ele>
        <time>2026-04-29T15:19:47Z</time>
      </trkpt>
      <trkpt lat="45.00013" lon="4.28885">
        <ele>1097.1</ele>
        <time>2026-04-29T15:19:52Z</time>
      </trkpt>
      <trkpt lat="45.0002" lon="4.28881">
        <ele>1097.3</ele>
        <time>2026-04-29T15:19:57Z</time>
      </trkpt>
      <trkpt lat="45.00025" lon="4.28876">
        <ele>1097.5</ele>
        <time>2026-04-29T15:20:02Z</time>
      </trkpt>
      <trkpt lat="45.0003" lon="4.28874">
        <ele>1097.5</ele>
        <time>2026-04-29T15:20:07Z</time>
      </trkpt>
      <trkpt lat="45.00035" lon="4.28874">
        <ele>1097.5</ele>
        <time>2026-04-29T15:20:12Z</time>
      </trkpt>
      <trkpt lat="45.00038" lon="4.28876">
        <ele>1097.5</ele>
        <time>2026-04-29T15:20:17Z</time>
      </trkpt>
      <trkpt lat="45.00043" lon="4.28878">
        <ele>1097.4</ele>
        <time>2026-04-29T15:20:22Z</time>
      </trkpt>
      <trkpt lat="45.00047" lon="4.2888">
        <ele>1097.3</ele>
        <time>2026-04-29T15:20:27Z</time>
        <extensions>
          <visugpx:TrkExtension xmlns:visugpx="https://www.visugpx.com/editgpx/">
            <visugpx:node>6</visugpx:node>
            </visugpx:TrkExtension>
        </extensions>
      </trkpt>
      <trkpt lat="45.00046" lon="4.28884">
        <ele>1097.2</ele>
        <time>2026-04-30T06:00:25Z</time>
      </trkpt>
      <trkpt lat="45.00052" lon="4.28882">
        <ele>1097.2</ele>
        <time>2026-04-30T06:00:30Z</time>
      </trkpt>
      <trkpt lat="45.00052" lon="4.28882">
        <ele>1097.2</ele>
        <time>2026-04-30T06:00:35Z</time>
      </trkpt>
      <trkpt lat="45.00052" lon="4.28882">
        <ele>1097.2</ele>
        <time>2026-04-30T06:00:40Z</time>
      </trkpt>
      <trkpt lat="45.00052" lon="4.28882">
        <ele>1097.2</ele>
        <time>2026-04-30T06:00:45Z</time>
      </trkpt>
      <trkpt lat="45.00052" lon="4.28882">
        <ele>1097.2</ele>
        <time>2026-04-30T06:00:50Z</time>
      </trkpt>
      <trkpt lat="45.00052" lon="4.28882">
        <ele>1097.2</ele>
        <time>2026-04-30T06:00:55Z</time>
      </trkpt>
      <trkpt lat="45.00052" lon="4.28882">
        <ele>1097.2</ele>
        <time>2026-04-30T06:01:00Z</time>
      </trkpt>
      <trkpt lat="45.00052" lon="4.28882">
        <ele>1097.2</ele>
        <time>2026-04-30T06:01:05Z</time>
      </trkpt>
      <trkpt lat="45.00052" lon="4.28882">
        <ele>1097.2</ele>
        <time>2026-04-30T06:01:10Z</time>
      </trkpt>
      <trkpt lat="45.00052" lon="4.28882">
        <ele>1097.2</ele>
        <time>2026-04-30T06:01:15Z</time>
      </trkpt>
      <trkpt lat="45.00045" lon="4.2888">
        <ele>1097.3</ele>
        <time>2026-04-30T06:01:20Z</time>
      </trkpt>
      <trkpt lat="45.00043" lon="4.28875">
        <ele>1097.5</ele>
        <time>2026-04-30T06:01:25Z</time>
      </trkpt>
      <trkpt lat="45.00037" lon="4.28874">
        <ele>1097.5</ele>
        <time>2026-04-30T06:01:30Z</time>
      </trkpt>
      <trkpt lat="45.00031" lon="4.28878">
        <ele>1097.4</ele>
        <time>2026-04-30T06:01:35Z</time>
      </trkpt>
      <trkpt lat="45.00028" lon="4.28887">
        <ele>1097.1</ele>
        <time>2026-04-30T06:01:40Z</time>
      </trkpt>
      <trkpt lat="45.00025" lon="4.28896">
        <ele>1096.7</ele>
        <time>2026-04-30T06:01:45Z</time>
      </trkpt>
      <trkpt lat="45.0002" lon="4.28905">
        <ele>1096.3</ele>
        <time>2026-04-30T06:01:50Z</time>
      </trkpt>
      <trkpt lat="45.00017" lon="4.28915">
        <ele>1095.7</ele>
        <time>2026-04-30T06:01:55Z</time>
      </trkpt>
      <trkpt lat="45.00011" lon="4.28923">
        <ele>1095.1</ele>
        <time>2026-04-30T06:02:00Z</time>
      </trkpt>
      <trkpt lat="45.00005" lon="4.28931">
        <ele>1094.6</ele>
        <time>2026-04-30T06:02:05Z</time>
      </trkpt>
      <trkpt lat="45" lon="4.28934">
        <ele>1094.4</ele>
        <time>2026-04-30T06:02:10Z</time>
      </trkpt>
      <trkpt lat="44.99992" lon="4.28935">
        <ele>1094.3</ele>
        <time>2026-04-30T06:02:15Z</time>
      </trkpt>
      <trkpt lat="44.99984" lon="4.28935">
        <ele>1094.3</ele>
        <time>2026-04-30T06:02:20Z</time>
      </trkpt>
      <trkpt lat="44.99977" lon="4.28933">
        <ele>1094.4</ele>
        <time>2026-04-30T06:02:25Z</time>
      </trkpt>
      <trkpt lat="44.9997" lon="4.28931">
        <ele>1094.5</ele>
        <time>2026-04-30T06:02:30Z</time>
      </trkpt>
      <trkpt lat="44.99963" lon="4.28927">
        <ele>1094.6</ele>
        <time>2026-04-30T06:02:35Z</time>
      </trkpt>
      <trkpt lat="44.99956" lon="4.28927">
        <ele>1094.6</ele>
        <time>2026-04-30T06:02:40Z</time>
      </trkpt>
      <trkpt lat="44.99948" lon="4.28928">
        <ele>1094.6</ele>
        <time>2026-04-30T06:02:45Z</time>
      </trkpt>
      <trkpt lat="44.99942" lon="4.28929">
        <ele>1094.6</ele>
        <time>2026-04-30T06:02:50Z</time>
      </trkpt>
      <trkpt lat="44.99936" lon="4.2893">
        <ele>1094.7</ele>
        <time>2026-04-30T06:02:55Z</time>
      </trkpt>
      <trkpt lat="44.99929" lon="4.28933">
        <ele>1094.7</ele>
        <time>2026-04-30T06:03:00Z</time>
      </trkpt>
      <trkpt lat="44.99923" lon="4.28935">
        <ele>1094.8</ele>
        <time>2026-04-30T06:03:05Z</time>
      </trkpt>
      <trkpt lat="44.99921" lon="4.28933">
        <ele>1094.9</ele>
        <time>2026-04-30T06:03:10Z</time>
      </trkpt>
      <trkpt lat="44.99921" lon="4.28933">
        <ele>1094.9</ele>
        <time>2026-04-30T06:03:15Z</time>
      </trkpt>
      <trkpt lat="44.99921" lon="4.28933">
        <ele>1094.9</ele>
        <time>2026-04-30T06:03:20Z</time>
      </trkpt>
      <trkpt lat="44.99921" lon="4.28933">
        <ele>1094.9</ele>
        <time>2026-04-30T06:03:25Z</time>
      </trkpt>
      <trkpt lat="44.99921" lon="4.28933">
        <ele>1094.9</ele>
        <time>2026-04-30T06:03:30Z</time>
      </trkpt>
      <trkpt lat="44.99921" lon="4.28933">
        <ele>1094.9</ele>
        <time>2026-04-30T06:03:35Z</time>
      </trkpt>
      <trkpt lat="44.99921" lon="4.28933">
        <ele>1094.9</ele>
        <time>2026-04-30T06:03:40Z</time>
      </trkpt>
      <trkpt lat="44.99919" lon="4.28943">
        <ele>1094.9</ele>
        <time>2026-04-30T06:03:45Z</time>
      </trkpt>
      <trkpt lat="44.99917" lon="4.28947">
        <ele>1094.9</ele>
        <time>2026-04-30T06:03:50Z</time>
      </trkpt>
      <trkpt lat="44.99912" lon="4.28952">
        <ele>1094.7</ele>
        <time>2026-04-30T06:03:55Z</time>
      </trkpt>
      <trkpt lat="44.99908" lon="4.28959">
        <ele>1094.5</ele>
        <time>2026-04-30T06:04:00Z</time>
      </trkpt>
      <trkpt lat="44.99903" lon="4.28966">
        <ele>1094.2</ele>
        <time>2026-04-30T06:04:05Z</time>
      </trkpt>
      <trkpt lat="44.99899" lon="4.28973">
        <ele>1094</ele>
        <time>2026-04-30T06:04:10Z</time>
      </trkpt>
      <trkpt lat="44.99894" lon="4.2898">
        <ele>1094</ele>
        <time>2026-04-30T06:04:15Z</time>
      </trkpt>
      <trkpt lat="44.99888" lon="4.28987">
        <ele>1094</ele>
        <time>2026-04-30T06:04:20Z</time>
      </trkpt>
      <trkpt lat="44.99883" lon="4.28995">
        <ele>1094</ele>
        <time>2026-04-30T06:04:25Z</time>
      </trkpt>
      <trkpt lat="44.99878" lon="4.29001">
        <ele>1094</ele>
        <time>2026-04-30T06:04:30Z</time>
      </trkpt>
      <trkpt lat="44.99873" lon="4.29009">
        <ele>1093.7</ele>
        <time>2026-04-30T06:04:35Z</time>
      </trkpt>
      <trkpt lat="44.99869" lon="4.29018">
        <ele>1093.4</ele>
        <time>2026-04-30T06:04:40Z</time>
      </trkpt>
      <trkpt lat="44.99862" lon="4.29027">
        <ele>1093</ele>
        <time>2026-04-30T06:04:46Z</time>
      </trkpt>
      <trkpt lat="44.99858" lon="4.29036">
        <ele>1092.7</ele>
        <time>2026-04-30T06:04:51Z</time>
      </trkpt>
      <trkpt lat="44.99854" lon="4.29044">
        <ele>1092.6</ele>
        <time>2026-04-30T06:04:56Z</time>
      </trkpt>
      <trkpt lat="44.99851" lon="4.29052">
        <ele>1092.4</ele>
        <time>2026-04-30T06:05:01Z</time>
      </trkpt>
      <trkpt lat="44.99848" lon="4.29061">
        <ele>1092.4</ele>
        <time>2026-04-30T06:05:06Z</time>
      </trkpt>
      <trkpt lat="44.99845" lon="4.29069">
        <ele>1092.4</ele>
        <time>2026-04-30T06:05:11Z</time>
      </trkpt>
      <trkpt lat="44.99843" lon="4.29079">
        <ele>1092.4</ele>
        <time>2026-04-30T06:05:16Z</time>
      </trkpt>
      <trkpt lat="44.99841" lon="4.29088">
        <ele>1092.4</ele>
        <time>2026-04-30T06:05:21Z</time>
      </trkpt>
      <trkpt lat="44.99838" lon="4.29098">
        <ele>1092.7</ele>
        <time>2026-04-30T06:05:26Z</time>
      </trkpt>
      <trkpt lat="44.99837" lon="4.29108">
        <ele>1092.7</ele>
        <time>2026-04-30T06:05:31Z</time>
      </trkpt>
      <trkpt lat="44.99835" lon="4.29117">
        <ele>1092.7</ele>
        <time>2026-04-30T06:05:36Z</time>
      </trkpt>
      <trkpt lat="44.99833" lon="4.29125">
        <ele>1092.5</ele>
        <time>2026-04-30T06:05:41Z</time>
      </trkpt>
      <trkpt lat="44.99831" lon="4.29135">
        <ele>1092.2</ele>
        <time>2026-04-30T06:05:46Z</time>
      </trkpt>
      <trkpt lat="44.99829" lon="4.29143">
        <ele>1092.2</ele>
        <time>2026-04-30T06:05:51Z</time>
      </trkpt>
      <trkpt lat="44.99829" lon="4.29143">
        <ele>1092.2</ele>
        <time>2026-04-30T06:05:56Z</time>
      </trkpt>
      <trkpt lat="44.9983" lon="4.29146">
        <ele>1092.1</ele>
        <time>2026-04-30T06:06:01Z</time>
      </trkpt>
      <trkpt lat="44.9983" lon="4.29146">
        <ele>1092.1</ele>
        <time>2026-04-30T06:06:06Z</time>
      </trkpt>
      <trkpt lat="44.9983" lon="4.29146">
        <ele>1092.1</ele>
        <time>2026-04-30T06:06:11Z</time>
      </trkpt>
      <trkpt lat="44.9983" lon="4.29146">
        <ele>1092.1</ele>
        <time>2026-04-30T06:06:16Z</time>
      </trkpt>
      <trkpt lat="44.9983" lon="4.29146">
        <ele>1092.1</ele>
        <time>2026-04-30T06:06:21Z</time>
      </trkpt>
      <trkpt lat="44.99829" lon="4.29148">
        <ele>1092.2</ele>
        <time>2026-04-30T06:06:26Z</time>
      </trkpt>
      <trkpt lat="44.99828" lon="4.29156">
        <ele>1092.2</ele>
        <time>2026-04-30T06:06:31Z</time>
      </trkpt>
      <trkpt lat="44.99827" lon="4.29165">
        <ele>1092.2</ele>
        <time>2026-04-30T06:06:36Z</time>
      </trkpt>
      <trkpt lat="44.99824" lon="4.29174">
        <ele>1092.3</ele>
        <time>2026-04-30T06:06:41Z</time>
      </trkpt>
      <trkpt lat="44.99823" lon="4.29184">
        <ele>1092.4</ele>
        <time>2026-04-30T06:06:46Z</time>
      </trkpt>
      <trkpt lat="44.99822" lon="4.29193">
        <ele>1092.4</ele>
        <time>2026-04-30T06:06:51Z</time>
      </trkpt>
      <trkpt lat="44.9982" lon="4.29202">
        <ele>1092.8</ele>
        <time>2026-04-30T06:06:56Z</time>
      </trkpt>
      <trkpt lat="44.99818" lon="4.2921">
        <ele>1093.1</ele>
        <time>2026-04-30T06:07:01Z</time>
      </trkpt>
      <trkpt lat="44.99815" lon="4.29219">
        <ele>1093.5</ele>
        <time>2026-04-30T06:07:06Z</time>
      </trkpt>
      <trkpt lat="44.99812" lon="4.29227">
        <ele>1093.8</ele>
        <time>2026-04-30T06:07:11Z</time>
      </trkpt>
      <trkpt lat="44.99811" lon="4.29236">
        <ele>1093.8</ele>
        <time>2026-04-30T06:07:16Z</time>
      </trkpt>
      <trkpt lat="44.99809" lon="4.29245">
        <ele>1093.9</ele>
        <time>2026-04-30T06:07:21Z</time>
      </trkpt>
      <trkpt lat="44.99806" lon="4.29253">
        <ele>1094.1</ele>
        <time>2026-04-30T06:07:26Z</time>
      </trkpt>
      <trkpt lat="44.99804" lon="4.29262">
        <ele>1094.5</ele>
        <time>2026-04-30T06:07:31Z</time>
      </trkpt>
      <trkpt lat="44.99801" lon="4.29271">
        <ele>1094.8</ele>
        <time>2026-04-30T06:07:36Z</time>
      </trkpt>
      <trkpt lat="44.998" lon="4.2928">
        <ele>1095</ele>
        <time>2026-04-30T06:07:41Z</time>
      </trkpt>
      <trkpt lat="44.99797" lon="4.29288">
        <ele>1095.1</ele>
        <time>2026-04-30T06:07:46Z</time>
      </trkpt>
      <trkpt lat="44.99794" lon="4.29295">
        <ele>1095.3</ele>
        <time>2026-04-30T06:07:51Z</time>
      </trkpt>
      <trkpt lat="44.99792" lon="4.29303">
        <ele>1095.4</ele>
        <time>2026-04-30T06:07:56Z</time>
      </trkpt>
      <trkpt lat="44.9979" lon="4.29313">
        <ele>1095.8</ele>
        <time>2026-04-30T06:08:01Z</time>
      </trkpt>
      <trkpt lat="44.99787" lon="4.29321">
        <ele>1096.2</ele>
        <time>2026-04-30T06:08:06Z</time>
      </trkpt>
      <trkpt lat="44.99785" lon="4.29328">
        <ele>1096.5</ele>
        <time>2026-04-30T06:08:11Z</time>
      </trkpt>
      <trkpt lat="44.99782" lon="4.29335">
        <ele>1096.9</ele>
        <time>2026-04-30T06:08:16Z</time>
      </trkpt>
      <trkpt lat="44.99777" lon="4.29342">
        <ele>1097</ele>
        <time>2026-04-30T06:08:21Z</time>
      </trkpt>
      <trkpt lat="44.99773" lon="4.29347">
        <ele>1097.1</ele>
        <time>2026-04-30T06:08:26Z</time>
      </trkpt>
      <trkpt lat="44.99767" lon="4.29351">
        <ele>1097.2</ele>
        <time>2026-04-30T06:08:31Z</time>
      </trkpt>
      <trkpt lat="44.99762" lon="4.29354">
        <ele>1097.4</ele>
        <time>2026-04-30T06:08:36Z</time>
      </trkpt>
      <trkpt lat="44.99756" lon="4.29355">
        <ele>1097.6</ele>
        <time>2026-04-30T06:08:41Z</time>
      </trkpt>
      <trkpt lat="44.99749" lon="4.29354">
        <ele>1097.8</ele>
        <time>2026-04-30T06:08:46Z</time>
      </trkpt>
      <trkpt lat="44.99745" lon="4.29356">
        <ele>1098</ele>
        <time>2026-04-30T06:08:51Z</time>
      </trkpt>
      <trkpt lat="44.99741" lon="4.29356">
        <ele>1098.1</ele>
        <time>2026-04-30T06:08:56Z</time>
      </trkpt>
      <trkpt lat="44.99735" lon="4.29355">
        <ele>1098.3</ele>
        <time>2026-04-30T06:09:01Z</time>
      </trkpt>
      <trkpt lat="44.99728" lon="4.29355">
        <ele>1098.6</ele>
        <time>2026-04-30T06:09:06Z</time>
      </trkpt>
      <trkpt lat="44.99722" lon="4.29354">
        <ele>1098.8</ele>
        <time>2026-04-30T06:09:11Z</time>
      </trkpt>
      <trkpt lat="44.99716" lon="4.29355">
        <ele>1099.2</ele>
        <time>2026-04-30T06:09:16Z</time>
      </trkpt>
      <trkpt lat="44.99711" lon="4.29356">
        <ele>1099.6</ele>
        <time>2026-04-30T06:09:21Z</time>
      </trkpt>
      <trkpt lat="44.99705" lon="4.2936">
        <ele>1100.2</ele>
        <time>2026-04-30T06:09:26Z</time>
      </trkpt>
      <trkpt lat="44.99701" lon="4.29363">
        <ele>1100.6</ele>
        <time>2026-04-30T06:09:31Z</time>
      </trkpt>
      <trkpt lat="44.99696" lon="4.29369">
        <ele>1101.2</ele>
        <time>2026-04-30T06:09:36Z</time>
      </trkpt>
      <trkpt lat="44.99691" lon="4.29375">
        <ele>1101.5</ele>
        <time>2026-04-30T06:09:41Z</time>
      </trkpt>
      <trkpt lat="44.99687" lon="4.29381">
        <ele>1101.7</ele>
        <time>2026-04-30T06:09:46Z</time>
      </trkpt>
      <trkpt lat="44.99683" lon="4.29387">
        <ele>1101.9</ele>
        <time>2026-04-30T06:09:51Z</time>
      </trkpt>
      <trkpt lat="44.99679" lon="4.29394">
        <ele>1102.3</ele>
        <time>2026-04-30T06:09:56Z</time>
      </trkpt>
      <trkpt lat="44.99675" lon="4.294">
        <ele>1102.7</ele>
        <time>2026-04-30T06:10:01Z</time>
      </trkpt>
      <trkpt lat="44.99671" lon="4.29406">
        <ele>1103.1</ele>
        <time>2026-04-30T06:10:06Z</time>
      </trkpt>
      <trkpt lat="44.99666" lon="4.29413">
        <ele>1103.8</ele>
        <time>2026-04-30T06:10:11Z</time>
      </trkpt>
      <trkpt lat="44.99662" lon="4.29419">
        <ele>1104.3</ele>
        <time>2026-04-30T06:10:16Z</time>
      </trkpt>
      <trkpt lat="44.99658" lon="4.29426">
        <ele>1104.6</ele>
        <time>2026-04-30T06:10:21Z</time>
      </trkpt>
      <trkpt lat="44.99654" lon="4.29432">
        <ele>1105</ele>
        <time>2026-04-30T06:10:26Z</time>
      </trkpt>
      <trkpt lat="44.9965" lon="4.29436">
        <ele>1105.3</ele>
        <time>2026-04-30T06:10:31Z</time>
      </trkpt>
      <trkpt lat="44.99647" lon="4.29443">
        <ele>1105.7</ele>
        <time>2026-04-30T06:10:36Z</time>
      </trkpt>
      <trkpt lat="44.99643" lon="4.29449">
        <ele>1106.2</ele>
        <time>2026-04-30T06:10:41Z</time>
      </trkpt>
      <trkpt lat="44.99639" lon="4.29454">
        <ele>1106.7</ele>
        <time>2026-04-30T06:10:46Z</time>
      </trkpt>
      <trkpt lat="44.99636" lon="4.2946">
        <ele>1107.2</ele>
        <time>2026-04-30T06:10:51Z</time>
      </trkpt>
      <trkpt lat="44.99633" lon="4.29465">
        <ele>1107.7</ele>
        <time>2026-04-30T06:10:56Z</time>
      </trkpt>
      <trkpt lat="44.99629" lon="4.2947">
        <ele>1108.2</ele>
        <time>2026-04-30T06:11:01Z</time>
      </trkpt>
      <trkpt lat="44.99626" lon="4.29475">
        <ele>1108.7</ele>
        <time>2026-04-30T06:11:06Z</time>
      </trkpt>
      <trkpt lat="44.99622" lon="4.29481">
        <ele>1109.2</ele>
        <time>2026-04-30T06:11:11Z</time>
      </trkpt>
      <trkpt lat="44.99618" lon="4.29488">
        <ele>1109.9</ele>
        <time>2026-04-30T06:11:16Z</time>
      </trkpt>
      <trkpt lat="44.99615" lon="4.29494">
        <ele>1110.4</ele>
        <time>2026-04-30T06:11:21Z</time>
      </trkpt>
      <trkpt lat="44.99611" lon="4.295">
        <ele>1111</ele>
        <time>2026-04-30T06:11:26Z</time>
      </trkpt>
      <trkpt lat="44.99608" lon="4.29506">
        <ele>1111</ele>
        <time>2026-04-30T06:11:31Z</time>
      </trkpt>
      <trkpt lat="44.99605" lon="4.29512">
        <ele>1111.2</ele>
        <time>2026-04-30T06:11:36Z</time>
      </trkpt>
      <trkpt lat="44.99602" lon="4.29518">
        <ele>1111.4</ele>
        <time>2026-04-30T06:11:41Z</time>
      </trkpt>
      <trkpt lat="44.99601" lon="4.29521">
        <ele>1111.6</ele>
        <time>2026-04-30T06:11:46Z</time>
      </trkpt>
      <trkpt lat="44.99601" lon="4.29521">
        <ele>1111.6</ele>
        <time>2026-04-30T06:11:51Z</time>
      </trkpt>
      <trkpt lat="44.99601" lon="4.29521">
        <ele>1111.6</ele>
        <time>2026-04-30T06:11:56Z</time>
      </trkpt>
      <trkpt lat="44.99599" lon="4.29524">
        <ele>1111.8</ele>
        <time>2026-04-30T06:12:01Z</time>
      </trkpt>
      <trkpt lat="44.99596" lon="4.2953">
        <ele>1112.2</ele>
        <time>2026-04-30T06:12:06Z</time>
      </trkpt>
      <trkpt lat="44.99594" lon="4.29535">
        <ele>1112.5</ele>
        <time>2026-04-30T06:12:11Z</time>
      </trkpt>
      <trkpt lat="44.99591" lon="4.2954">
        <ele>1112.9</ele>
        <time>2026-04-30T06:12:16Z</time>
      </trkpt>
      <trkpt lat="44.99588" lon="4.29546">
        <ele>1113.3</ele>
        <time>2026-04-30T06:12:21Z</time>
      </trkpt>
      <trkpt lat="44.99584" lon="4.29552">
        <ele>1113.8</ele>
        <time>2026-04-30T06:12:26Z</time>
      </trkpt>
      <trkpt lat="44.99581" lon="4.29558">
        <ele>1114.1</ele>
        <time>2026-04-30T06:12:31Z</time>
      </trkpt>
      <trkpt lat="44.99578" lon="4.29564">
        <ele>1114.4</ele>
        <time>2026-04-30T06:12:36Z</time>
      </trkpt>
      <trkpt lat="44.99574" lon="4.2957">
        <ele>1114.7</ele>
        <time>2026-04-30T06:12:41Z</time>
      </trkpt>
      <trkpt lat="44.99571" lon="4.29575">
        <ele>1115</ele>
        <time>2026-04-30T06:12:46Z</time>
      </trkpt>
      <trkpt lat="44.99568" lon="4.29583">
        <ele>1115.5</ele>
        <time>2026-04-30T06:12:51Z</time>
      </trkpt>
      <trkpt lat="44.99565" lon="4.2959">
        <ele>1116.1</ele>
        <time>2026-04-30T06:12:56Z</time>
      </trkpt>
      <trkpt lat="44.99562" lon="4.29595">
        <ele>1116.5</ele>
        <time>2026-04-30T06:13:01Z</time>
      </trkpt>
      <trkpt lat="44.9956" lon="4.296">
        <ele>1116.9</ele>
        <time>2026-04-30T06:13:06Z</time>
      </trkpt>
      <trkpt lat="44.9956" lon="4.29606">
        <ele>1117.3</ele>
        <time>2026-04-30T06:13:11Z</time>
      </trkpt>
      <trkpt lat="44.9956" lon="4.29613">
        <ele>1117.7</ele>
        <time>2026-04-30T06:13:16Z</time>
      </trkpt>
      <trkpt lat="44.99562" lon="4.2962">
        <ele>1117.6</ele>
        <time>2026-04-30T06:13:21Z</time>
      </trkpt>
      <trkpt lat="44.99562" lon="4.29626">
        <ele>1117.7</ele>
        <time>2026-04-30T06:13:26Z</time>
      </trkpt>
      <trkpt lat="44.99563" lon="4.29633">
        <ele>1117.7</ele>
        <time>2026-04-30T06:13:31Z</time>
      </trkpt>
      <trkpt lat="44.99565" lon="4.2964">
        <ele>1117.7</ele>
        <time>2026-04-30T06:13:36Z</time>
      </trkpt>
      <trkpt lat="44.99567" lon="4.29649">
        <ele>1118</ele>
        <time>2026-04-30T06:13:41Z</time>
      </trkpt>
      <trkpt lat="44.99568" lon="4.29658">
        <ele>1118.2</ele>
        <time>2026-04-30T06:13:46Z</time>
      </trkpt>
      <trkpt lat="44.99569" lon="4.29666">
        <ele>1118.5</ele>
        <time>2026-04-30T06:13:51Z</time>
      </trkpt>
      <trkpt lat="44.99572" lon="4.29672">
        <ele>1118.7</ele>
        <time>2026-04-30T06:13:56Z</time>
      </trkpt>
      <trkpt lat="44.99573" lon="4.29679">
        <ele>1119.1</ele>
        <time>2026-04-30T06:14:01Z</time>
      </trkpt>
      <trkpt lat="44.99572" lon="4.29682">
        <ele>1119.3</ele>
        <time>2026-04-30T06:14:06Z</time>
      </trkpt>
      <trkpt lat="44.99571" lon="4.29683">
        <ele>1119.4</ele>
        <time>2026-04-30T06:14:11Z</time>
      </trkpt>
      <trkpt lat="44.99571" lon="4.29683">
        <ele>1119.4</ele>
        <time>2026-04-30T06:14:16Z</time>
      </trkpt>
      <trkpt lat="44.99568" lon="4.29681">
        <ele>1119.3</ele>
        <time>2026-04-30T06:14:21Z</time>
      </trkpt>
      <trkpt lat="44.99568" lon="4.29681">
        <ele>1119.3</ele>
        <time>2026-04-30T06:14:26Z</time>
      </trkpt>
      <trkpt lat="44.99568" lon="4.29681">
        <ele>1119.3</ele>
        <time>2026-04-30T06:14:31Z</time>
      </trkpt>
      <trkpt lat="44.99568" lon="4.29681">
        <ele>1119.3</ele>
        <time>2026-04-30T06:14:36Z</time>
      </trkpt>
      <trkpt lat="44.99568" lon="4.29681">
        <ele>1119.3</ele>
        <time>2026-04-30T06:14:41Z</time>
      </trkpt>
      <trkpt lat="44.99568" lon="4.29681">
        <ele>1119.3</ele>
        <time>2026-04-30T06:14:46Z</time>
      </trkpt>
      <trkpt lat="44.99572" lon="4.29687">
        <ele>1119.6</ele>
        <time>2026-04-30T06:14:51Z</time>
      </trkpt>
      <trkpt lat="44.99572" lon="4.29696">
        <ele>1120.1</ele>
        <time>2026-04-30T06:14:56Z</time>
      </trkpt>
      <trkpt lat="44.99573" lon="4.29705">
        <ele>1120.4</ele>
        <time>2026-04-30T06:15:01Z</time>
      </trkpt>
      <trkpt lat="44.99574" lon="4.29712">
        <ele>1120.6</ele>
        <time>2026-04-30T06:15:06Z</time>
      </trkpt>
      <trkpt lat="44.99573" lon="4.2972">
        <ele>1120.9</ele>
        <time>2026-04-30T06:15:11Z</time>
      </trkpt>
      <trkpt lat="44.99571" lon="4.29729">
        <ele>1121.4</ele>
        <time>2026-04-30T06:15:16Z</time>
      </trkpt>
      <trkpt lat="44.99568" lon="4.29736">
        <ele>1121.8</ele>
        <time>2026-04-30T06:15:21Z</time>
      </trkpt>
      <trkpt lat="44.99565" lon="4.29742">
        <ele>1122.2</ele>
        <time>2026-04-30T06:15:26Z</time>
      </trkpt>
      <trkpt lat="44.99562" lon="4.29749">
        <ele>1122.7</ele>
        <time>2026-04-30T06:15:31Z</time>
      </trkpt>
      <trkpt lat="44.99559" lon="4.29756">
        <ele>1123.3</ele>
        <time>2026-04-30T06:15:36Z</time>
      </trkpt>
      <trkpt lat="44.99557" lon="4.29764">
        <ele>1123.9</ele>
        <time>2026-04-30T06:15:41Z</time>
      </trkpt>
      <trkpt lat="44.99554" lon="4.2977">
        <ele>1124.4</ele>
        <time>2026-04-30T06:15:46Z</time>
      </trkpt>
      <trkpt lat="44.99553" lon="4.29775">
        <ele>1124.8</ele>
        <time>2026-04-30T06:15:51Z</time>
      </trkpt>
      <trkpt lat="44.99551" lon="4.29782">
        <ele>1125.3</ele>
        <time>2026-04-30T06:15:56Z</time>
      </trkpt>
      <trkpt lat="44.99548" lon="4.29787">
        <ele>1125.8</ele>
        <time>2026-04-30T06:16:01Z</time>
      </trkpt>
      <trkpt lat="44.99546" lon="4.29793">
        <ele>1126.3</ele>
        <time>2026-04-30T06:16:06Z</time>
      </trkpt>
      <trkpt lat="44.99544" lon="4.29799">
        <ele>1126.8</ele>
        <time>2026-04-30T06:16:11Z</time>
      </trkpt>
      <trkpt lat="44.99542" lon="4.29806">
        <ele>1127.5</ele>
        <time>2026-04-30T06:16:16Z</time>
      </trkpt>
      <trkpt lat="44.9954" lon="4.29812">
        <ele>1127.9</ele>
        <time>2026-04-30T06:16:21Z</time>
      </trkpt>
      <trkpt lat="44.99539" lon="4.29817">
        <ele>1128.3</ele>
        <time>2026-04-30T06:16:26Z</time>
      </trkpt>
      <trkpt lat="44.99538" lon="4.29823">
        <ele>1128.7</ele>
        <time>2026-04-30T06:16:31Z</time>
      </trkpt>
      <trkpt lat="44.99537" lon="4.2983">
        <ele>1129.1</ele>
        <time>2026-04-30T06:16:36Z</time>
      </trkpt>
      <trkpt lat="44.99536" lon="4.29838">
        <ele>1129.7</ele>
        <time>2026-04-30T06:16:41Z</time>
      </trkpt>
      <trkpt lat="44.99534" lon="4.29846">
        <ele>1130.5</ele>
        <time>2026-04-30T06:16:46Z</time>
      </trkpt>
      <trkpt lat="44.99532" lon="4.29853">
        <ele>1131.1</ele>
        <time>2026-04-30T06:16:51Z</time>
      </trkpt>
      <trkpt lat="44.99531" lon="4.29859">
        <ele>1131.6</ele>
        <time>2026-04-30T06:16:56Z</time>
      </trkpt>
      <trkpt lat="44.99529" lon="4.29864">
        <ele>1132</ele>
        <time>2026-04-30T06:17:01Z</time>
      </trkpt>
      <trkpt lat="44.99529" lon="4.29865">
        <ele>1132.1</ele>
        <time>2026-04-30T06:17:06Z</time>
      </trkpt>
      <trkpt lat="44.99529" lon="4.29866">
        <ele>1132.1</ele>
        <time>2026-04-30T06:17:11Z</time>
      </trkpt>
      <trkpt lat="44.99529" lon="4.29866">
        <ele>1132.1</ele>
        <time>2026-04-30T06:17:16Z</time>
      </trkpt>
      <trkpt lat="44.99529" lon="4.29866">
        <ele>1132.1</ele>
        <time>2026-04-30T06:17:21Z</time>
      </trkpt>
      <trkpt lat="44.99529" lon="4.29866">
        <ele>1132.1</ele>
        <time>2026-04-30T06:17:26Z</time>
      </trkpt>
      <trkpt lat="44.99529" lon="4.29866">
        <ele>1132.1</ele>
        <time>2026-04-30T06:17:31Z</time>
      </trkpt>
      <trkpt lat="44.99529" lon="4.29866">
        <ele>1132.1</ele>
        <time>2026-04-30T06:17:36Z</time>
      </trkpt>
      <trkpt lat="44.99529" lon="4.29866">
        <ele>1132.1</ele>
        <time>2026-04-30T06:17:41Z</time>
      </trkpt>
      <trkpt lat="44.99529" lon="4.29866">
        <ele>1132.1</ele>
        <time>2026-04-30T06:17:46Z</time>
      </trkpt>
      <trkpt lat="44.99529" lon="4.29866">
        <ele>1132.1</ele>
        <time>2026-04-30T06:17:51Z</time>
      </trkpt>
      <trkpt lat="44.99529" lon="4.29866">
        <ele>1132.1</ele>
        <time>2026-04-30T06:17:56Z</time>
      </trkpt>
      <trkpt lat="44.99529" lon="4.29866">
        <ele>1132.1</ele>
        <time>2026-04-30T06:18:01Z</time>
      </trkpt>
      <trkpt lat="44.99529" lon="4.29866">
        <ele>1132.1</ele>
        <time>2026-04-30T06:18:06Z</time>
      </trkpt>
      <trkpt lat="44.99529" lon="4.29866">
        <ele>1132.1</ele>
        <time>2026-04-30T06:18:11Z</time>
      </trkpt>
      <trkpt lat="44.99529" lon="4.29866">
        <ele>1132.1</ele>
        <time>2026-04-30T06:18:16Z</time>
      </trkpt>
      <trkpt lat="44.99529" lon="4.29866">
        <ele>1132.1</ele>
        <time>2026-04-30T06:18:21Z</time>
      </trkpt>
      <trkpt lat="44.99529" lon="4.29866">
        <ele>1132.1</ele>
        <time>2026-04-30T06:18:26Z</time>
      </trkpt>
      <trkpt lat="44.99529" lon="4.29866">
        <ele>1132.1</ele>
        <time>2026-04-30T06:18:31Z</time>
      </trkpt>
      <trkpt lat="44.99529" lon="4.29866">
        <ele>1132.1</ele>
        <time>2026-04-30T06:18:36Z</time>
      </trkpt>
      <trkpt lat="44.99527" lon="4.29874">
        <ele>1132.5</ele>
        <time>2026-04-30T06:18:41Z</time>
      </trkpt>
      <trkpt lat="44.99524" lon="4.29878">
        <ele>1132.8</ele>
        <time>2026-04-30T06:18:46Z</time>
      </trkpt>
      <trkpt lat="44.99522" lon="4.29884">
        <ele>1133.2</ele>
        <time>2026-04-30T06:18:51Z</time>
      </trkpt>
      <trkpt lat="44.9952" lon="4.2989">
        <ele>1133.6</ele>
        <time>2026-04-30T06:18:56Z</time>
      </trkpt>
      <trkpt lat="44.99519" lon="4.29898">
        <ele>1134</ele>
        <time>2026-04-30T06:19:01Z</time>
      </trkpt>
      <trkpt lat="44.99518" lon="4.29906">
        <ele>1134.3</ele>
        <time>2026-04-30T06:19:06Z</time>
      </trkpt>
      <trkpt lat="44.99517" lon="4.29913">
        <ele>1134.6</ele>
        <time>2026-04-30T06:19:11Z</time>
      </trkpt>
      <trkpt lat="44.99515" lon="4.29922">
        <ele>1135.1</ele>
        <time>2026-04-30T06:19:16Z</time>
      </trkpt>
      <trkpt lat="44.99516" lon="4.29924">
        <ele>1135.1</ele>
        <time>2026-04-30T06:19:21Z</time>
      </trkpt>
      <trkpt lat="44.99516" lon="4.29924">
        <ele>1135.1</ele>
        <time>2026-04-30T06:19:26Z</time>
      </trkpt>
      <trkpt lat="44.99516" lon="4.29924">
        <ele>1135.1</ele>
        <time>2026-04-30T06:19:31Z</time>
      </trkpt>
      <trkpt lat="44.99515" lon="4.29932">
        <ele>1135.5</ele>
        <time>2026-04-30T06:19:36Z</time>
      </trkpt>
      <trkpt lat="44.99513" lon="4.29944">
        <ele>1136</ele>
        <time>2026-04-30T06:19:41Z</time>
      </trkpt>
      <trkpt lat="44.99513" lon="4.29956">
        <ele>1136.7</ele>
        <time>2026-04-30T06:19:46Z</time>
      </trkpt>
      <trkpt lat="44.99513" lon="4.29963">
        <ele>1137</ele>
        <time>2026-04-30T06:19:51Z</time>
      </trkpt>
      <trkpt lat="44.99511" lon="4.29971">
        <ele>1137.5</ele>
        <time>2026-04-30T06:19:56Z</time>
      </trkpt>
      <trkpt lat="44.9951" lon="4.29979">
        <ele>1138</ele>
        <time>2026-04-30T06:20:01Z</time>
      </trkpt>
      <trkpt lat="44.99509" lon="4.29988">
        <ele>1138.4</ele>
        <time>2026-04-30T06:20:06Z</time>
      </trkpt>
      <trkpt lat="44.99511" lon="4.29996">
        <ele>1138.8</ele>
        <time>2026-04-30T06:20:11Z</time>
      </trkpt>
      <trkpt lat="44.99513" lon="4.30005">
        <ele>1138.9</ele>
        <time>2026-04-30T06:20:16Z</time>
      </trkpt>
      <trkpt lat="44.99514" lon="4.30015">
        <ele>1138.7</ele>
        <time>2026-04-30T06:20:21Z</time>
      </trkpt>
      <trkpt lat="44.99516" lon="4.30023">
        <ele>1138.6</ele>
        <time>2026-04-30T06:20:26Z</time>
      </trkpt>
      <trkpt lat="44.99516" lon="4.30026">
        <ele>1138.6</ele>
        <time>2026-04-30T06:20:31Z</time>
      </trkpt>
      <trkpt lat="44.99515" lon="4.30026">
        <ele>1138.6</ele>
        <time>2026-04-30T06:20:36Z</time>
      </trkpt>
      <trkpt lat="44.99515" lon="4.30026">
        <ele>1138.6</ele>
        <time>2026-04-30T06:20:41Z</time>
      </trkpt>
      <trkpt lat="44.99515" lon="4.30026">
        <ele>1138.6</ele>
        <time>2026-04-30T06:20:46Z</time>
      </trkpt>
      <trkpt lat="44.99522" lon="4.30031">
        <ele>1138.7</ele>
        <time>2026-04-30T06:20:51Z</time>
      </trkpt>
      <trkpt lat="44.99525" lon="4.3004">
        <ele>1138.5</ele>
        <time>2026-04-30T06:20:56Z</time>
      </trkpt>
      <trkpt lat="44.99529" lon="4.30048">
        <ele>1138.3</ele>
        <time>2026-04-30T06:21:01Z</time>
      </trkpt>
      <trkpt lat="44.99532" lon="4.30055">
        <ele>1138.2</ele>
        <time>2026-04-30T06:21:06Z</time>
      </trkpt>
      <trkpt lat="44.99537" lon="4.30064">
        <ele>1138.2</ele>
        <time>2026-04-30T06:21:11Z</time>
      </trkpt>
      <trkpt lat="44.99542" lon="4.30072">
        <ele>1138.2</ele>
        <time>2026-04-30T06:21:16Z</time>
      </trkpt>
      <trkpt lat="44.99548" lon="4.30078">
        <ele>1138.1</ele>
        <time>2026-04-30T06:21:21Z</time>
      </trkpt>
      <trkpt lat="44.99553" lon="4.30085">
        <ele>1138</ele>
        <time>2026-04-30T06:21:26Z</time>
      </trkpt>
      <trkpt lat="44.99559" lon="4.30092">
        <ele>1137.9</ele>
        <time>2026-04-30T06:21:31Z</time>
      </trkpt>
      <trkpt lat="44.99566" lon="4.30097">
        <ele>1137.6</ele>
        <time>2026-04-30T06:21:36Z</time>
      </trkpt>
      <trkpt lat="44.99573" lon="4.30102">
        <ele>1137.4</ele>
        <time>2026-04-30T06:21:41Z</time>
      </trkpt>
      <trkpt lat="44.99579" lon="4.30107">
        <ele>1137.2</ele>
        <time>2026-04-30T06:21:46Z</time>
      </trkpt>
      <trkpt lat="44.99586" lon="4.30113">
        <ele>1136.9</ele>
        <time>2026-04-30T06:21:51Z</time>
      </trkpt>
      <trkpt lat="44.99593" lon="4.30117">
        <ele>1136.7</ele>
        <time>2026-04-30T06:21:56Z</time>
      </trkpt>
      <trkpt lat="44.996" lon="4.30121">
        <ele>1136.4</ele>
        <time>2026-04-30T06:22:01Z</time>
      </trkpt>
      <trkpt lat="44.99607" lon="4.30128">
        <ele>1136.1</ele>
        <time>2026-04-30T06:22:06Z</time>
      </trkpt>
      <trkpt lat="44.99613" lon="4.30133">
        <ele>1135.9</ele>
        <time>2026-04-30T06:22:11Z</time>
      </trkpt>
      <trkpt lat="44.9962" lon="4.30137">
        <ele>1135.4</ele>
        <time>2026-04-30T06:22:16Z</time>
      </trkpt>
      <trkpt lat="44.99627" lon="4.30142">
        <ele>1134.9</ele>
        <time>2026-04-30T06:22:21Z</time>
      </trkpt>
      <trkpt lat="44.99634" lon="4.30146">
        <ele>1134.4</ele>
        <time>2026-04-30T06:22:26Z</time>
      </trkpt>
      <trkpt lat="44.99641" lon="4.3015">
        <ele>1133.9</ele>
        <time>2026-04-30T06:22:31Z</time>
      </trkpt>
      <trkpt lat="44.9965" lon="4.30151">
        <ele>1133.4</ele>
        <time>2026-04-30T06:22:36Z</time>
      </trkpt>
      <trkpt lat="44.99659" lon="4.3015">
        <ele>1132.8</ele>
        <time>2026-04-30T06:22:41Z</time>
      </trkpt>
      <trkpt lat="44.99665" lon="4.3015">
        <ele>1132.5</ele>
        <time>2026-04-30T06:22:46Z</time>
      </trkpt>
      <trkpt lat="44.99673" lon="4.30151">
        <ele>1131.4</ele>
        <time>2026-04-30T06:22:51Z</time>
      </trkpt>
      <trkpt lat="44.9968" lon="4.30153">
        <ele>1130.3</ele>
        <time>2026-04-30T06:22:56Z</time>
      </trkpt>
      <trkpt lat="44.99687" lon="4.30161">
        <ele>1129.3</ele>
        <time>2026-04-30T06:23:01Z</time>
      </trkpt>
      <trkpt lat="44.99692" lon="4.30169">
        <ele>1128.5</ele>
        <time>2026-04-30T06:23:06Z</time>
      </trkpt>
      <trkpt lat="44.99696" lon="4.30178">
        <ele>1128.2</ele>
        <time>2026-04-30T06:23:11Z</time>
      </trkpt>
      <trkpt lat="44.99699" lon="4.3019">
        <ele>1128.2</ele>
        <time>2026-04-30T06:23:16Z</time>
      </trkpt>
      <trkpt lat="44.99703" lon="4.30199">
        <ele>1127.9</ele>
        <time>2026-04-30T06:23:21Z</time>
      </trkpt>
      <trkpt lat="44.99706" lon="4.30208">
        <ele>1127.7</ele>
        <time>2026-04-30T06:23:26Z</time>
      </trkpt>
      <trkpt lat="44.99709" lon="4.30217">
        <ele>1127.3</ele>
        <time>2026-04-30T06:23:31Z</time>
      </trkpt>
      <trkpt lat="44.99712" lon="4.30224">
        <ele>1126.6</ele>
        <time>2026-04-30T06:23:36Z</time>
      </trkpt>
      <trkpt lat="44.99716" lon="4.30234">
        <ele>1125.8</ele>
        <time>2026-04-30T06:23:41Z</time>
      </trkpt>
      <trkpt lat="44.9972" lon="4.30243">
        <ele>1125.2</ele>
        <time>2026-04-30T06:23:46Z</time>
      </trkpt>
      <trkpt lat="44.99724" lon="4.30254">
        <ele>1124.7</ele>
        <time>2026-04-30T06:23:51Z</time>
      </trkpt>
      <trkpt lat="44.99727" lon="4.30264">
        <ele>1124.3</ele>
        <time>2026-04-30T06:23:56Z</time>
      </trkpt>
      <trkpt lat="44.9973" lon="4.30273">
        <ele>1123.9</ele>
        <time>2026-04-30T06:24:01Z</time>
      </trkpt>
      <trkpt lat="44.99733" lon="4.30282">
        <ele>1123.3</ele>
        <time>2026-04-30T06:24:06Z</time>
      </trkpt>
      <trkpt lat="44.99736" lon="4.30292">
        <ele>1122.5</ele>
        <time>2026-04-30T06:24:11Z</time>
      </trkpt>
      <trkpt lat="44.9974" lon="4.30302">
        <ele>1121.6</ele>
        <time>2026-04-30T06:24:16Z</time>
      </trkpt>
      <trkpt lat="44.99743" lon="4.30313">
        <ele>1120.9</ele>
        <time>2026-04-30T06:24:21Z</time>
      </trkpt>
      <trkpt lat="44.99747" lon="4.30325">
        <ele>1120.4</ele>
        <time>2026-04-30T06:24:26Z</time>
      </trkpt>
      <trkpt lat="44.9975" lon="4.30334">
        <ele>1120</ele>
        <time>2026-04-30T06:24:31Z</time>
      </trkpt>
      <trkpt lat="44.99754" lon="4.30345">
        <ele>1119.2</ele>
        <time>2026-04-30T06:24:36Z</time>
      </trkpt>
      <trkpt lat="44.99755" lon="4.30354">
        <ele>1118.8</ele>
        <time>2026-04-30T06:24:41Z</time>
      </trkpt>
      <trkpt lat="44.99759" lon="4.30364">
        <ele>1118.3</ele>
        <time>2026-04-30T06:24:46Z</time>
      </trkpt>
      <trkpt lat="44.99762" lon="4.30375">
        <ele>1117.9</ele>
        <time>2026-04-30T06:24:51Z</time>
      </trkpt>
      <trkpt lat="44.99766" lon="4.30385">
        <ele>1117.4</ele>
        <time>2026-04-30T06:24:56Z</time>
      </trkpt>
      <trkpt lat="44.99768" lon="4.30389">
        <ele>1117.1</ele>
        <time>2026-04-30T06:25:01Z</time>
      </trkpt>
      <trkpt lat="44.99768" lon="4.30389">
        <ele>1117.1</ele>
        <time>2026-04-30T06:25:06Z</time>
      </trkpt>
      <trkpt lat="44.99768" lon="4.30389">
        <ele>1117.1</ele>
        <time>2026-04-30T06:25:11Z</time>
      </trkpt>
      <trkpt lat="44.99768" lon="4.30389">
        <ele>1117.1</ele>
        <time>2026-04-30T06:25:16Z</time>
      </trkpt>
      <trkpt lat="44.99768" lon="4.30389">
        <ele>1117.1</ele>
        <time>2026-04-30T06:25:21Z</time>
      </trkpt>
      <trkpt lat="44.99768" lon="4.30389">
        <ele>1117.1</ele>
        <time>2026-04-30T06:25:26Z</time>
      </trkpt>
      <trkpt lat="44.99768" lon="4.30389">
        <ele>1117.1</ele>
        <time>2026-04-30T06:25:31Z</time>
      </trkpt>
      <trkpt lat="44.99768" lon="4.30389">
        <ele>1117.1</ele>
        <time>2026-04-30T06:25:36Z</time>
      </trkpt>
      <trkpt lat="44.99768" lon="4.30389">
        <ele>1117.1</ele>
        <time>2026-04-30T06:25:41Z</time>
      </trkpt>
      <trkpt lat="44.99768" lon="4.30389">
        <ele>1117.1</ele>
        <time>2026-04-30T06:25:46Z</time>
      </trkpt>
      <trkpt lat="44.99768" lon="4.30389">
        <ele>1117.1</ele>
        <time>2026-04-30T06:25:51Z</time>
      </trkpt>
      <trkpt lat="44.99768" lon="4.30389">
        <ele>1117.1</ele>
        <time>2026-04-30T06:25:56Z</time>
      </trkpt>
      <trkpt lat="44.99768" lon="4.30389">
        <ele>1117.1</ele>
        <time>2026-04-30T06:26:01Z</time>
      </trkpt>
      <trkpt lat="44.99768" lon="4.30389">
        <ele>1117.1</ele>
        <time>2026-04-30T06:26:06Z</time>
      </trkpt>
      <trkpt lat="44.99768" lon="4.30389">
        <ele>1117.1</ele>
        <time>2026-04-30T06:26:11Z</time>
      </trkpt>
      <trkpt lat="44.99768" lon="4.30389">
        <ele>1117.1</ele>
        <time>2026-04-30T06:26:16Z</time>
      </trkpt>
      <trkpt lat="44.99768" lon="4.30389">
        <ele>1117.1</ele>
        <time>2026-04-30T06:26:21Z</time>
      </trkpt>
      <trkpt lat="44.99768" lon="4.30389">
        <ele>1117.1</ele>
        <time>2026-04-30T06:26:26Z</time>
      </trkpt>
      <trkpt lat="44.99768" lon="4.30389">
        <ele>1117.1</ele>
        <time>2026-04-30T06:26:31Z</time>
      </trkpt>
      <trkpt lat="44.99768" lon="4.30389">
        <ele>1117.1</ele>
        <time>2026-04-30T06:26:36Z</time>
      </trkpt>
      <trkpt lat="44.99768" lon="4.30389">
        <ele>1117.1</ele>
        <time>2026-04-30T06:26:41Z</time>
      </trkpt>
      <trkpt lat="44.99768" lon="4.30389">
        <ele>1117.1</ele>
        <time>2026-04-30T06:26:46Z</time>
      </trkpt>
      <trkpt lat="44.99768" lon="4.30389">
        <ele>1117.1</ele>
        <time>2026-04-30T06:26:51Z</time>
      </trkpt>
      <trkpt lat="44.99768" lon="4.30389">
        <ele>1117.1</ele>
        <time>2026-04-30T06:26:56Z</time>
      </trkpt>
      <trkpt lat="44.99768" lon="4.30389">
        <ele>1117.1</ele>
        <time>2026-04-30T06:27:01Z</time>
      </trkpt>
      <trkpt lat="44.99768" lon="4.30389">
        <ele>1117.1</ele>
        <time>2026-04-30T06:27:06Z</time>
      </trkpt>
      <trkpt lat="44.99768" lon="4.30389">
        <ele>1117.1</ele>
        <time>2026-04-30T06:27:11Z</time>
      </trkpt>
      <trkpt lat="44.99768" lon="4.30389">
        <ele>1117.1</ele>
        <time>2026-04-30T06:27:16Z</time>
      </trkpt>
      <trkpt lat="44.99769" lon="4.30395">
        <ele>1116.9</ele>
        <time>2026-04-30T06:27:21Z</time>
      </trkpt>
      <trkpt lat="44.99771" lon="4.304">
        <ele>1116.6</ele>
        <time>2026-04-30T06:27:26Z</time>
      </trkpt>
      <trkpt lat="44.99773" lon="4.30405">
        <ele>1116.4</ele>
        <time>2026-04-30T06:27:31Z</time>
      </trkpt>
      <trkpt lat="44.99774" lon="4.3041">
        <ele>1116.3</ele>
        <time>2026-04-30T06:27:36Z</time>
      </trkpt>
      <trkpt lat="44.99778" lon="4.30417">
        <ele>1116</ele>
        <time>2026-04-30T06:27:41Z</time>
      </trkpt>
      <trkpt lat="44.99783" lon="4.30423">
        <ele>1115.2</ele>
        <time>2026-04-30T06:27:46Z</time>
      </trkpt>
      <trkpt lat="44.99788" lon="4.30429">
        <ele>1114.3</ele>
        <time>2026-04-30T06:27:51Z</time>
      </trkpt>
      <trkpt lat="44.99794" lon="4.30434">
        <ele>1113.3</ele>
        <time>2026-04-30T06:27:56Z</time>
      </trkpt>
      <trkpt lat="44.998" lon="4.30437">
        <ele>1112.3</ele>
        <time>2026-04-30T06:28:01Z</time>
      </trkpt>
      <trkpt lat="44.99807" lon="4.30439">
        <ele>1111.3</ele>
        <time>2026-04-30T06:28:06Z</time>
      </trkpt>
      <trkpt lat="44.99814" lon="4.30441">
        <ele>1110.9</ele>
        <time>2026-04-30T06:28:11Z</time>
      </trkpt>
      <trkpt lat="44.99821" lon="4.30443">
        <ele>1110.5</ele>
        <time>2026-04-30T06:28:16Z</time>
      </trkpt>
      <trkpt lat="44.99827" lon="4.30444">
        <ele>1110.2</ele>
        <time>2026-04-30T06:28:21Z</time>
      </trkpt>
      <trkpt lat="44.99834" lon="4.30447">
        <ele>1110</ele>
        <time>2026-04-30T06:28:26Z</time>
      </trkpt>
      <trkpt lat="44.99841" lon="4.30452">
        <ele>1109.6</ele>
        <time>2026-04-30T06:28:31Z</time>
      </trkpt>
      <trkpt lat="44.99847" lon="4.30458">
        <ele>1109.3</ele>
        <time>2026-04-30T06:28:36Z</time>
      </trkpt>
      <trkpt lat="44.99853" lon="4.30464">
        <ele>1108.8</ele>
        <time>2026-04-30T06:28:41Z</time>
      </trkpt>
      <trkpt lat="44.9986" lon="4.30473">
        <ele>1108.1</ele>
        <time>2026-04-30T06:28:46Z</time>
      </trkpt>
      <trkpt lat="44.99864" lon="4.30481">
        <ele>1107.6</ele>
        <time>2026-04-30T06:28:51Z</time>
      </trkpt>
      <trkpt lat="44.99868" lon="4.30488">
        <ele>1107.2</ele>
        <time>2026-04-30T06:28:56Z</time>
      </trkpt>
      <trkpt lat="44.99872" lon="4.30498">
        <ele>1106.7</ele>
        <time>2026-04-30T06:29:01Z</time>
      </trkpt>
      <trkpt lat="44.99876" lon="4.30508">
        <ele>1106.2</ele>
        <time>2026-04-30T06:29:06Z</time>
      </trkpt>
      <trkpt lat="44.9988" lon="4.30519">
        <ele>1105.6</ele>
        <time>2026-04-30T06:29:11Z</time>
      </trkpt>
      <trkpt lat="44.99884" lon="4.30529">
        <ele>1105.1</ele>
        <time>2026-04-30T06:29:16Z</time>
      </trkpt>
      <trkpt lat="44.99885" lon="4.30541">
        <ele>1104.7</ele>
        <time>2026-04-30T06:29:21Z</time>
      </trkpt>
      <trkpt lat="44.99886" lon="4.30552">
        <ele>1104.2</ele>
        <time>2026-04-30T06:29:26Z</time>
      </trkpt>
      <trkpt lat="44.99885" lon="4.30564">
        <ele>1103.8</ele>
        <time>2026-04-30T06:29:31Z</time>
      </trkpt>
      <trkpt lat="44.99886" lon="4.30575">
        <ele>1103.4</ele>
        <time>2026-04-30T06:29:36Z</time>
      </trkpt>
      <trkpt lat="44.99887" lon="4.30586">
        <ele>1103</ele>
        <time>2026-04-30T06:29:41Z</time>
      </trkpt>
      <trkpt lat="44.99889" lon="4.30597">
        <ele>1102.5</ele>
        <time>2026-04-30T06:29:46Z</time>
      </trkpt>
      <trkpt lat="44.99892" lon="4.30607">
        <ele>1102</ele>
        <time>2026-04-30T06:29:51Z</time>
      </trkpt>
      <trkpt lat="44.99897" lon="4.30617">
        <ele>1101.5</ele>
        <time>2026-04-30T06:29:56Z</time>
      </trkpt>
      <trkpt lat="44.99902" lon="4.30625">
        <ele>1101</ele>
        <time>2026-04-30T06:30:01Z</time>
      </trkpt>
      <trkpt lat="44.99908" lon="4.30635">
        <ele>1100.5</ele>
        <time>2026-04-30T06:30:06Z</time>
      </trkpt>
      <trkpt lat="44.99913" lon="4.30643">
        <ele>1100</ele>
        <time>2026-04-30T06:30:11Z</time>
      </trkpt>
      <trkpt lat="44.99918" lon="4.30652">
        <ele>1099.5</ele>
        <time>2026-04-30T06:30:16Z</time>
      </trkpt>
      <trkpt lat="44.99923" lon="4.3066">
        <ele>1099.2</ele>
        <time>2026-04-30T06:30:21Z</time>
      </trkpt>
      <trkpt lat="44.99928" lon="4.3067">
        <ele>1098.9</ele>
        <time>2026-04-30T06:30:26Z</time>
      </trkpt>
      <trkpt lat="44.99933" lon="4.30678">
        <ele>1098.6</ele>
        <time>2026-04-30T06:30:31Z</time>
      </trkpt>
      <trkpt lat="44.99938" lon="4.30686">
        <ele>1098.3</ele>
        <time>2026-04-30T06:30:36Z</time>
      </trkpt>
      <trkpt lat="44.99943" lon="4.30697">
        <ele>1098</ele>
        <time>2026-04-30T06:30:41Z</time>
      </trkpt>
      <trkpt lat="44.99948" lon="4.30704">
        <ele>1098</ele>
        <time>2026-04-30T06:30:46Z</time>
      </trkpt>
      <trkpt lat="44.99954" lon="4.30712">
        <ele>1098</ele>
        <time>2026-04-30T06:30:51Z</time>
      </trkpt>
      <trkpt lat="44.9996" lon="4.30721">
        <ele>1098</ele>
        <time>2026-04-30T06:30:56Z</time>
      </trkpt>
      <trkpt lat="44.99967" lon="4.30728">
        <ele>1097.8</ele>
        <time>2026-04-30T06:31:01Z</time>
      </trkpt>
      <trkpt lat="44.99974" lon="4.30729">
        <ele>1097.8</ele>
        <time>2026-04-30T06:31:06Z</time>
      </trkpt>
      <trkpt lat="44.99982" lon="4.30722">
        <ele>1098</ele>
        <time>2026-04-30T06:31:11Z</time>
      </trkpt>
      <trkpt lat="44.99988" lon="4.30715">
        <ele>1098</ele>
        <time>2026-04-30T06:31:16Z</time>
      </trkpt>
      <trkpt lat="44.99993" lon="4.30708">
        <ele>1098</ele>
        <time>2026-04-30T06:31:21Z</time>
      </trkpt>
      <trkpt lat="45.00002" lon="4.30708">
        <ele>1098</ele>
        <time>2026-04-30T06:31:26Z</time>
      </trkpt>
      <trkpt lat="45.00009" lon="4.30708">
        <ele>1098</ele>
        <time>2026-04-30T06:31:31Z</time>
      </trkpt>
      <trkpt lat="45.00016" lon="4.30707">
        <ele>1098</ele>
        <time>2026-04-30T06:31:36Z</time>
      </trkpt>
      <trkpt lat="45.00024" lon="4.30705">
        <ele>1098</ele>
        <time>2026-04-30T06:31:41Z</time>
      </trkpt>
      <trkpt lat="45.00031" lon="4.30703">
        <ele>1097.9</ele>
        <time>2026-04-30T06:31:46Z</time>
      </trkpt>
      <trkpt lat="45.00034" lon="4.30702">
        <ele>1097.8</ele>
        <time>2026-04-30T06:31:51Z</time>
      </trkpt>
      <trkpt lat="45.00042" lon="4.307">
        <ele>1097.5</ele>
        <time>2026-04-30T06:31:56Z</time>
      </trkpt>
      <trkpt lat="45.00049" lon="4.307">
        <ele>1097.2</ele>
        <time>2026-04-30T06:32:01Z</time>
      </trkpt>
      <trkpt lat="45.00056" lon="4.30701">
        <ele>1097</ele>
        <time>2026-04-30T06:32:06Z</time>
      </trkpt>
      <trkpt lat="45.00064" lon="4.30703">
        <ele>1097</ele>
        <time>2026-04-30T06:32:11Z</time>
      </trkpt>
      <trkpt lat="45.0007" lon="4.30706">
        <ele>1097</ele>
        <time>2026-04-30T06:32:16Z</time>
      </trkpt>
      <trkpt lat="45.00077" lon="4.30711">
        <ele>1097</ele>
        <time>2026-04-30T06:32:21Z</time>
      </trkpt>
      <trkpt lat="45.00084" lon="4.30718">
        <ele>1097</ele>
        <time>2026-04-30T06:32:26Z</time>
      </trkpt>
      <trkpt lat="45.00091" lon="4.30724">
        <ele>1096.7</ele>
        <time>2026-04-30T06:32:31Z</time>
      </trkpt>
      <trkpt lat="45.00096" lon="4.30731">
        <ele>1096.7</ele>
        <time>2026-04-30T06:32:36Z</time>
      </trkpt>
      <trkpt lat="45.00103" lon="4.30738">
        <ele>1096.7</ele>
        <time>2026-04-30T06:32:41Z</time>
      </trkpt>
      <trkpt lat="45.00109" lon="4.30745">
        <ele>1096.8</ele>
        <time>2026-04-30T06:32:46Z</time>
      </trkpt>
      <trkpt lat="45.00118" lon="4.3075">
        <ele>1096.8</ele>
        <time>2026-04-30T06:32:51Z</time>
      </trkpt>
      <trkpt lat="45.00125" lon="4.30755">
        <ele>1096.6</ele>
        <time>2026-04-30T06:32:56Z</time>
      </trkpt>
      <trkpt lat="45.00131" lon="4.3076">
        <ele>1096.5</ele>
        <time>2026-04-30T06:33:01Z</time>
      </trkpt>
      <trkpt lat="45.00138" lon="4.30764">
        <ele>1096.5</ele>
        <time>2026-04-30T06:33:06Z</time>
      </trkpt>
      <trkpt lat="45.00145" lon="4.30769">
        <ele>1096.5</ele>
        <time>2026-04-30T06:33:11Z</time>
      </trkpt>
      <trkpt lat="45.00152" lon="4.30774">
        <ele>1096.4</ele>
        <time>2026-04-30T06:33:16Z</time>
      </trkpt>
      <trkpt lat="45.00159" lon="4.30779">
        <ele>1096.3</ele>
        <time>2026-04-30T06:33:21Z</time>
      </trkpt>
      <trkpt lat="45.00167" lon="4.30783">
        <ele>1096.2</ele>
        <time>2026-04-30T06:33:26Z</time>
      </trkpt>
      <trkpt lat="45.00175" lon="4.30788">
        <ele>1096.2</ele>
        <time>2026-04-30T06:33:31Z</time>
      </trkpt>
      <trkpt lat="45.00182" lon="4.30792">
        <ele>1096.2</ele>
        <time>2026-04-30T06:33:36Z</time>
      </trkpt>
      <trkpt lat="45.0019" lon="4.30796">
        <ele>1096.4</ele>
        <time>2026-04-30T06:33:41Z</time>
      </trkpt>
      <trkpt lat="45.00197" lon="4.308">
        <ele>1096.5</ele>
        <time>2026-04-30T06:33:46Z</time>
      </trkpt>
      <trkpt lat="45.00205" lon="4.30804">
        <ele>1096.5</ele>
        <time>2026-04-30T06:33:51Z</time>
      </trkpt>
      <trkpt lat="45.00212" lon="4.30809">
        <ele>1096.4</ele>
        <time>2026-04-30T06:33:56Z</time>
      </trkpt>
      <trkpt lat="45.00219" lon="4.30814">
        <ele>1096.4</ele>
        <time>2026-04-30T06:34:01Z</time>
      </trkpt>
      <trkpt lat="45.00227" lon="4.30818">
        <ele>1096.4</ele>
        <time>2026-04-30T06:34:06Z</time>
      </trkpt>
      <trkpt lat="45.00235" lon="4.3082">
        <ele>1096.3</ele>
        <time>2026-04-30T06:34:11Z</time>
      </trkpt>
      <trkpt lat="45.00243" lon="4.30824">
        <ele>1096.4</ele>
        <time>2026-04-30T06:34:16Z</time>
      </trkpt>
      <trkpt lat="45.00251" lon="4.30826">
        <ele>1096.4</ele>
        <time>2026-04-30T06:34:21Z</time>
      </trkpt>
      <trkpt lat="45.00258" lon="4.30828">
        <ele>1096.4</ele>
        <time>2026-04-30T06:34:26Z</time>
      </trkpt>
      <trkpt lat="45.00264" lon="4.3083">
        <ele>1096.3</ele>
        <time>2026-04-30T06:34:31Z</time>
      </trkpt>
      <trkpt lat="45.00272" lon="4.30832">
        <ele>1096.2</ele>
        <time>2026-04-30T06:34:36Z</time>
      </trkpt>
      <trkpt lat="45.00279" lon="4.30833">
        <ele>1096</ele>
        <time>2026-04-30T06:34:41Z</time>
      </trkpt>
      <trkpt lat="45.00285" lon="4.30836">
        <ele>1096.2</ele>
        <time>2026-04-30T06:34:46Z</time>
      </trkpt>
      <trkpt lat="45.00291" lon="4.30839">
        <ele>1096.3</ele>
        <time>2026-04-30T06:34:51Z</time>
      </trkpt>
      <trkpt lat="45.00297" lon="4.30841">
        <ele>1096.4</ele>
        <time>2026-04-30T06:34:56Z</time>
      </trkpt>
      <trkpt lat="45.00305" lon="4.30842">
        <ele>1096.3</ele>
        <time>2026-04-30T06:35:01Z</time>
      </trkpt>
      <trkpt lat="45.00311" lon="4.30844">
        <ele>1096.4</ele>
        <time>2026-04-30T06:35:06Z</time>
      </trkpt>
      <trkpt lat="45.00318" lon="4.30845">
        <ele>1096.4</ele>
        <time>2026-04-30T06:35:11Z</time>
      </trkpt>
      <trkpt lat="45.00324" lon="4.30845">
        <ele>1096.4</ele>
        <time>2026-04-30T06:35:16Z</time>
      </trkpt>
      <trkpt lat="45.00331" lon="4.30846">
        <ele>1096.5</ele>
        <time>2026-04-30T06:35:21Z</time>
      </trkpt>
      <trkpt lat="45.00337" lon="4.30845">
        <ele>1096.3</ele>
        <time>2026-04-30T06:35:26Z</time>
      </trkpt>
      <trkpt lat="45.00343" lon="4.30845">
        <ele>1096.2</ele>
        <time>2026-04-30T06:35:31Z</time>
      </trkpt>
      <trkpt lat="45.00349" lon="4.30846">
        <ele>1096.1</ele>
        <time>2026-04-30T06:35:36Z</time>
      </trkpt>
      <trkpt lat="45.00355" lon="4.30847">
        <ele>1096.1</ele>
        <time>2026-04-30T06:35:41Z</time>
      </trkpt>
      <trkpt lat="45.00357" lon="4.30847">
        <ele>1096.1</ele>
        <time>2026-04-30T06:35:46Z</time>
      </trkpt>
      <trkpt lat="45.00357" lon="4.30847">
        <ele>1096.1</ele>
        <time>2026-04-30T06:35:51Z</time>
      </trkpt>
      <trkpt lat="45.00357" lon="4.30847">
        <ele>1096.1</ele>
        <time>2026-04-30T06:35:56Z</time>
      </trkpt>
      <trkpt lat="45.00357" lon="4.30847">
        <ele>1096.1</ele>
        <time>2026-04-30T06:36:01Z</time>
      </trkpt>
      <trkpt lat="45.00357" lon="4.30847">
        <ele>1096.1</ele>
        <time>2026-04-30T06:36:06Z</time>
      </trkpt>
      <trkpt lat="45.00357" lon="4.30847">
        <ele>1096.1</ele>
        <time>2026-04-30T06:36:11Z</time>
      </trkpt>
      <trkpt lat="45.00357" lon="4.30847">
        <ele>1096.1</ele>
        <time>2026-04-30T06:36:16Z</time>
      </trkpt>
      <trkpt lat="45.00357" lon="4.30847">
        <ele>1096.1</ele>
        <time>2026-04-30T06:36:21Z</time>
      </trkpt>
      <trkpt lat="45.00357" lon="4.30847">
        <ele>1096.1</ele>
        <time>2026-04-30T06:36:26Z</time>
      </trkpt>
      <trkpt lat="45.00357" lon="4.30847">
        <ele>1096.1</ele>
        <time>2026-04-30T06:36:31Z</time>
      </trkpt>
      <trkpt lat="45.00357" lon="4.30847">
        <ele>1096.1</ele>
        <time>2026-04-30T06:36:36Z</time>
      </trkpt>
      <trkpt lat="45.00357" lon="4.30847">
        <ele>1096.1</ele>
        <time>2026-04-30T06:36:41Z</time>
      </trkpt>
      <trkpt lat="45.00357" lon="4.30847">
        <ele>1096.1</ele>
        <time>2026-04-30T06:36:46Z</time>
      </trkpt>
      <trkpt lat="45.00359" lon="4.30846">
        <ele>1096</ele>
        <time>2026-04-30T06:36:51Z</time>
      </trkpt>
      <trkpt lat="45.00366" lon="4.30846">
        <ele>1095.8</ele>
        <time>2026-04-30T06:36:56Z</time>
      </trkpt>
      <trkpt lat="45.00372" lon="4.30846">
        <ele>1095.7</ele>
        <time>2026-04-30T06:37:01Z</time>
      </trkpt>
      <trkpt lat="45.00378" lon="4.30847">
        <ele>1095.7</ele>
        <time>2026-04-30T06:37:06Z</time>
      </trkpt>
      <trkpt lat="45.00384" lon="4.30846">
        <ele>1095.5</ele>
        <time>2026-04-30T06:37:11Z</time>
      </trkpt>
      <trkpt lat="45.00391" lon="4.30844">
        <ele>1095.3</ele>
        <time>2026-04-30T06:37:16Z</time>
      </trkpt>
      <trkpt lat="45.00397" lon="4.30845">
        <ele>1095.1</ele>
        <time>2026-04-30T06:37:21Z</time>
      </trkpt>
      <trkpt lat="45.00403" lon="4.30845">
        <ele>1094.9</ele>
        <time>2026-04-30T06:37:26Z</time>
      </trkpt>
      <trkpt lat="45.0041" lon="4.30845">
        <ele>1094.7</ele>
        <time>2026-04-30T06:37:31Z</time>
      </trkpt>
      <trkpt lat="45.00416" lon="4.30845">
        <ele>1094.4</ele>
        <time>2026-04-30T06:37:36Z</time>
      </trkpt>
      <trkpt lat="45.00423" lon="4.30846">
        <ele>1094.3</ele>
        <time>2026-04-30T06:37:41Z</time>
      </trkpt>
      <trkpt lat="45.0043" lon="4.30846">
        <ele>1094.2</ele>
        <time>2026-04-30T06:37:46Z</time>
      </trkpt>
      <trkpt lat="45.00435" lon="4.30845">
        <ele>1094</ele>
        <time>2026-04-30T06:37:51Z</time>
      </trkpt>
      <trkpt lat="45.00437" lon="4.30844">
        <ele>1093.9</ele>
        <time>2026-04-30T06:37:56Z</time>
      </trkpt>
      <trkpt lat="45.00437" lon="4.30844">
        <ele>1093.9</ele>
        <time>2026-04-30T06:38:01Z</time>
      </trkpt>
      <trkpt lat="45.00437" lon="4.30844">
        <ele>1093.9</ele>
        <time>2026-04-30T06:38:06Z</time>
      </trkpt>
      <trkpt lat="45.00437" lon="4.30844">
        <ele>1093.9</ele>
        <time>2026-04-30T06:38:11Z</time>
      </trkpt>
      <trkpt lat="45.00437" lon="4.30844">
        <ele>1093.9</ele>
        <time>2026-04-30T06:38:16Z</time>
      </trkpt>
      <trkpt lat="45.00437" lon="4.30844">
        <ele>1093.9</ele>
        <time>2026-04-30T06:38:21Z</time>
      </trkpt>
      <trkpt lat="45.00437" lon="4.30844">
        <ele>1093.9</ele>
        <time>2026-04-30T06:38:26Z</time>
      </trkpt>
      <trkpt lat="45.00437" lon="4.30844">
        <ele>1093.9</ele>
        <time>2026-04-30T06:38:31Z</time>
      </trkpt>
      <trkpt lat="45.00437" lon="4.30844">
        <ele>1093.9</ele>
        <time>2026-04-30T06:38:36Z</time>
      </trkpt>
      <trkpt lat="45.00437" lon="4.30844">
        <ele>1093.9</ele>
        <time>2026-04-30T06:38:41Z</time>
      </trkpt>
      <trkpt lat="45.00437" lon="4.30844">
        <ele>1093.9</ele>
        <time>2026-04-30T06:38:46Z</time>
      </trkpt>
      <trkpt lat="45.00437" lon="4.30844">
        <ele>1093.9</ele>
        <time>2026-04-30T06:38:51Z</time>
      </trkpt>
      <trkpt lat="45.00441" lon="4.30845">
        <ele>1093.9</ele>
        <time>2026-04-30T06:38:56Z</time>
      </trkpt>
      <trkpt lat="45.00446" lon="4.30844">
        <ele>1093.7</ele>
        <time>2026-04-30T06:39:01Z</time>
      </trkpt>
      <trkpt lat="45.00452" lon="4.30843">
        <ele>1093.6</ele>
        <time>2026-04-30T06:39:06Z</time>
      </trkpt>
      <trkpt lat="45.00458" lon="4.30841">
        <ele>1093.4</ele>
        <time>2026-04-30T06:39:11Z</time>
      </trkpt>
      <trkpt lat="45.00465" lon="4.30841">
        <ele>1093.3</ele>
        <time>2026-04-30T06:39:16Z</time>
      </trkpt>
      <trkpt lat="45.00471" lon="4.3084">
        <ele>1093.3</ele>
        <time>2026-04-30T06:39:21Z</time>
      </trkpt>
      <trkpt lat="45.00478" lon="4.3084">
        <ele>1093.2</ele>
        <time>2026-04-30T06:39:26Z</time>
      </trkpt>
      <trkpt lat="45.00485" lon="4.30838">
        <ele>1093.2</ele>
        <time>2026-04-30T06:39:31Z</time>
      </trkpt>
      <trkpt lat="45.00492" lon="4.30838">
        <ele>1093.2</ele>
        <time>2026-04-30T06:39:36Z</time>
      </trkpt>
      <trkpt lat="45.00499" lon="4.30837">
        <ele>1093.1</ele>
        <time>2026-04-30T06:39:41Z</time>
      </trkpt>
      <trkpt lat="45.00506" lon="4.30836">
        <ele>1092.9</ele>
        <time>2026-04-30T06:39:46Z</time>
      </trkpt>
      <trkpt lat="45.00513" lon="4.30835">
        <ele>1092.6</ele>
        <time>2026-04-30T06:39:51Z</time>
      </trkpt>
      <trkpt lat="45.0052" lon="4.30834">
        <ele>1092.3</ele>
        <time>2026-04-30T06:39:56Z</time>
      </trkpt>
      <trkpt lat="45.00528" lon="4.30833">
        <ele>1092</ele>
        <time>2026-04-30T06:40:01Z</time>
      </trkpt>
      <trkpt lat="45.00535" lon="4.30833">
        <ele>1091.7</ele>
        <time>2026-04-30T06:40:06Z</time>
      </trkpt>
      <trkpt lat="45.00542" lon="4.3083">
        <ele>1091.4</ele>
        <time>2026-04-30T06:40:11Z</time>
      </trkpt>
      <trkpt lat="45.00549" lon="4.3083">
        <ele>1091.1</ele>
        <time>2026-04-30T06:40:16Z</time>
      </trkpt>
      <trkpt lat="45.00556" lon="4.30828">
        <ele>1090.8</ele>
        <time>2026-04-30T06:40:21Z</time>
      </trkpt>
      <trkpt lat="45.00563" lon="4.30827">
        <ele>1090.6</ele>
        <time>2026-04-30T06:40:26Z</time>
      </trkpt>
      <trkpt lat="45.0057" lon="4.30826">
        <ele>1090.4</ele>
        <time>2026-04-30T06:40:31Z</time>
      </trkpt>
      <trkpt lat="45.00578" lon="4.30825">
        <ele>1090.1</ele>
        <time>2026-04-30T06:40:36Z</time>
      </trkpt>
      <trkpt lat="45.00585" lon="4.30822">
        <ele>1089.9</ele>
        <time>2026-04-30T06:40:41Z</time>
      </trkpt>
      <trkpt lat="45.00592" lon="4.3082">
        <ele>1089.7</ele>
        <time>2026-04-30T06:40:46Z</time>
      </trkpt>
      <trkpt lat="45.006" lon="4.30817">
        <ele>1089.4</ele>
        <time>2026-04-30T06:40:51Z</time>
      </trkpt>
      <trkpt lat="45.00607" lon="4.30816">
        <ele>1089.1</ele>
        <time>2026-04-30T06:40:56Z</time>
      </trkpt>
      <trkpt lat="45.00614" lon="4.30815">
        <ele>1088.9</ele>
        <time>2026-04-30T06:41:01Z</time>
      </trkpt>
      <trkpt lat="45.00621" lon="4.30815">
        <ele>1088.8</ele>
        <time>2026-04-30T06:41:06Z</time>
      </trkpt>
      <trkpt lat="45.00631" lon="4.30815">
        <ele>1088.5</ele>
        <time>2026-04-30T06:41:11Z</time>
      </trkpt>
      <trkpt lat="45.00638" lon="4.30816">
        <ele>1088.4</ele>
        <time>2026-04-30T06:41:16Z</time>
      </trkpt>
      <trkpt lat="45.00645" lon="4.30819">
        <ele>1088.4</ele>
        <time>2026-04-30T06:41:21Z</time>
      </trkpt>
      <trkpt lat="45.00654" lon="4.30822">
        <ele>1088.3</ele>
        <time>2026-04-30T06:41:26Z</time>
      </trkpt>
      <trkpt lat="45.00661" lon="4.30823">
        <ele>1088.1</ele>
        <time>2026-04-30T06:41:31Z</time>
      </trkpt>
      <trkpt lat="45.00668" lon="4.30825">
        <ele>1088</ele>
        <time>2026-04-30T06:41:36Z</time>
      </trkpt>
      <trkpt lat="45.00675" lon="4.30828">
        <ele>1087.8</ele>
        <time>2026-04-30T06:41:41Z</time>
      </trkpt>
      <trkpt lat="45.00683" lon="4.30831">
        <ele>1087.5</ele>
        <time>2026-04-30T06:41:46Z</time>
      </trkpt>
      <trkpt lat="45.00691" lon="4.30834">
        <ele>1087.1</ele>
        <time>2026-04-30T06:41:51Z</time>
      </trkpt>
      <trkpt lat="45.00698" lon="4.30839">
        <ele>1087</ele>
        <time>2026-04-30T06:41:56Z</time>
      </trkpt>
      <trkpt lat="45.00705" lon="4.30845">
        <ele>1087</ele>
        <time>2026-04-30T06:42:01Z</time>
      </trkpt>
      <trkpt lat="45.00711" lon="4.30854">
        <ele>1087</ele>
        <time>2026-04-30T06:42:06Z</time>
      </trkpt>
      <trkpt lat="45.00715" lon="4.30863">
        <ele>1087</ele>
        <time>2026-04-30T06:42:11Z</time>
      </trkpt>
      <trkpt lat="45.00717" lon="4.30873">
        <ele>1087</ele>
        <time>2026-04-30T06:42:16Z</time>
      </trkpt>
      <trkpt lat="45.00721" lon="4.30882">
        <ele>1087</ele>
        <time>2026-04-30T06:42:21Z</time>
      </trkpt>
      <trkpt lat="45.00724" lon="4.30891">
        <ele>1086.9</ele>
        <time>2026-04-30T06:42:26Z</time>
      </trkpt>
      <trkpt lat="45.00728" lon="4.309">
        <ele>1086.3</ele>
        <time>2026-04-30T06:42:31Z</time>
      </trkpt>
      <trkpt lat="45.00732" lon="4.30909">
        <ele>1085.7</ele>
        <time>2026-04-30T06:42:36Z</time>
      </trkpt>
      <trkpt lat="45.00735" lon="4.30919">
        <ele>1085</ele>
        <time>2026-04-30T06:42:41Z</time>
      </trkpt>
      <trkpt lat="45.00737" lon="4.30929">
        <ele>1084.5</ele>
        <time>2026-04-30T06:42:46Z</time>
      </trkpt>
      <trkpt lat="45.00741" lon="4.30939">
        <ele>1083.8</ele>
        <time>2026-04-30T06:42:51Z</time>
      </trkpt>
      <trkpt lat="45.00744" lon="4.30949">
        <ele>1083.4</ele>
        <time>2026-04-30T06:42:56Z</time>
      </trkpt>
      <trkpt lat="45.00747" lon="4.3096">
        <ele>1083.2</ele>
        <time>2026-04-30T06:43:01Z</time>
      </trkpt>
      <trkpt lat="45.0075" lon="4.30971">
        <ele>1083</ele>
        <time>2026-04-30T06:43:06Z</time>
      </trkpt>
      <trkpt lat="45.00754" lon="4.30981">
        <ele>1083.1</ele>
        <time>2026-04-30T06:43:11Z</time>
      </trkpt>
      <trkpt lat="45.00756" lon="4.3099">
        <ele>1083.3</ele>
        <time>2026-04-30T06:43:16Z</time>
      </trkpt>
      <trkpt lat="45.0076" lon="4.31">
        <ele>1083.3</ele>
        <time>2026-04-30T06:43:21Z</time>
      </trkpt>
      <trkpt lat="45.00764" lon="4.3101">
        <ele>1083</ele>
        <time>2026-04-30T06:43:26Z</time>
      </trkpt>
      <trkpt lat="45.00767" lon="4.31019">
        <ele>1082.8</ele>
        <time>2026-04-30T06:43:31Z</time>
      </trkpt>
      <trkpt lat="45.00771" lon="4.3103">
        <ele>1082.5</ele>
        <time>2026-04-30T06:43:36Z</time>
      </trkpt>
      <trkpt lat="45.00774" lon="4.31041">
        <ele>1082.2</ele>
        <time>2026-04-30T06:43:41Z</time>
      </trkpt>
      <trkpt lat="45.00776" lon="4.31051">
        <ele>1082.1</ele>
        <time>2026-04-30T06:43:46Z</time>
      </trkpt>
      <trkpt lat="45.00777" lon="4.31062">
        <ele>1081.8</ele>
        <time>2026-04-30T06:43:51Z</time>
      </trkpt>
      <trkpt lat="45.00777" lon="4.31072">
        <ele>1081.5</ele>
        <time>2026-04-30T06:43:56Z</time>
      </trkpt>
      <trkpt lat="45.00776" lon="4.31083">
        <ele>1081.1</ele>
        <time>2026-04-30T06:44:01Z</time>
      </trkpt>
      <trkpt lat="45.00774" lon="4.31094">
        <ele>1080.6</ele>
        <time>2026-04-30T06:44:06Z</time>
      </trkpt>
      <trkpt lat="45.00774" lon="4.31103">
        <ele>1080</ele>
        <time>2026-04-30T06:44:11Z</time>
      </trkpt>
      <trkpt lat="45.0077" lon="4.31113">
        <ele>1079.8</ele>
        <time>2026-04-30T06:44:16Z</time>
      </trkpt>
      <trkpt lat="45.00767" lon="4.31122">
        <ele>1079.8</ele>
        <time>2026-04-30T06:44:21Z</time>
      </trkpt>
      <trkpt lat="45.00764" lon="4.31132">
        <ele>1079.7</ele>
        <time>2026-04-30T06:44:26Z</time>
      </trkpt>
      <trkpt lat="45.00762" lon="4.3114">
        <ele>1079.6</ele>
        <time>2026-04-30T06:44:31Z</time>
      </trkpt>
      <trkpt lat="45.00761" lon="4.31149">
        <ele>1079.2</ele>
        <time>2026-04-30T06:44:36Z</time>
      </trkpt>
      <trkpt lat="45.0076" lon="4.31158">
        <ele>1078.8</ele>
        <time>2026-04-30T06:44:41Z</time>
      </trkpt>
      <trkpt lat="45.00759" lon="4.31167">
        <ele>1078.3</ele>
        <time>2026-04-30T06:44:46Z</time>
      </trkpt>
      <trkpt lat="45.0076" lon="4.31169">
        <ele>1078.1</ele>
        <time>2026-04-30T06:44:51Z</time>
      </trkpt>
      <trkpt lat="45.0076" lon="4.31169">
        <ele>1078.1</ele>
        <time>2026-04-30T06:44:56Z</time>
      </trkpt>
      <trkpt lat="45.0076" lon="4.3117">
        <ele>1078</ele>
        <time>2026-04-30T06:45:01Z</time>
      </trkpt>
      <trkpt lat="45.0076" lon="4.3117">
        <ele>1078</ele>
        <time>2026-04-30T06:45:06Z</time>
      </trkpt>
      <trkpt lat="45.0076" lon="4.3117">
        <ele>1078</ele>
        <time>2026-04-30T06:45:11Z</time>
      </trkpt>
      <trkpt lat="45.0076" lon="4.3117">
        <ele>1078</ele>
        <time>2026-04-30T06:45:16Z</time>
      </trkpt>
      <trkpt lat="45.0076" lon="4.3117">
        <ele>1078</ele>
        <time>2026-04-30T06:45:21Z</time>
      </trkpt>
      <trkpt lat="45.0076" lon="4.3117">
        <ele>1078</ele>
        <time>2026-04-30T06:45:26Z</time>
      </trkpt>
      <trkpt lat="45.0076" lon="4.3117">
        <ele>1078</ele>
        <time>2026-04-30T06:45:31Z</time>
      </trkpt>
      <trkpt lat="45.0076" lon="4.3117">
        <ele>1078</ele>
        <time>2026-04-30T06:45:36Z</time>
      </trkpt>
      <trkpt lat="45.0076" lon="4.3117">
        <ele>1078</ele>
        <time>2026-04-30T06:45:41Z</time>
      </trkpt>
      <trkpt lat="45.0076" lon="4.3117">
        <ele>1078</ele>
        <time>2026-04-30T06:45:46Z</time>
      </trkpt>
      <trkpt lat="45.0076" lon="4.3117">
        <ele>1078</ele>
        <time>2026-04-30T06:45:51Z</time>
      </trkpt>
      <trkpt lat="45.0076" lon="4.3117">
        <ele>1078</ele>
        <time>2026-04-30T06:45:56Z</time>
      </trkpt>
      <trkpt lat="45.0076" lon="4.3117">
        <ele>1078</ele>
        <time>2026-04-30T06:46:01Z</time>
      </trkpt>
      <trkpt lat="45.0076" lon="4.3117">
        <ele>1078</ele>
        <time>2026-04-30T06:46:06Z</time>
      </trkpt>
      <trkpt lat="45.0076" lon="4.3117">
        <ele>1078</ele>
        <time>2026-04-30T06:46:11Z</time>
      </trkpt>
      <trkpt lat="45.0076" lon="4.3117">
        <ele>1078</ele>
        <time>2026-04-30T06:46:16Z</time>
      </trkpt>
      <trkpt lat="45.0076" lon="4.3117">
        <ele>1078</ele>
        <time>2026-04-30T06:46:21Z</time>
      </trkpt>
      <trkpt lat="45.0076" lon="4.3117">
        <ele>1078</ele>
        <time>2026-04-30T06:46:26Z</time>
      </trkpt>
      <trkpt lat="45.0076" lon="4.3117">
        <ele>1078</ele>
        <time>2026-04-30T06:46:31Z</time>
      </trkpt>
      <trkpt lat="45.0076" lon="4.3117">
        <ele>1078</ele>
        <time>2026-04-30T06:46:36Z</time>
      </trkpt>
      <trkpt lat="45.0076" lon="4.3117">
        <ele>1078</ele>
        <time>2026-04-30T06:46:41Z</time>
      </trkpt>
      <trkpt lat="45.0076" lon="4.3117">
        <ele>1078</ele>
        <time>2026-04-30T06:46:46Z</time>
      </trkpt>
      <trkpt lat="45.0076" lon="4.3117">
        <ele>1078</ele>
        <time>2026-04-30T06:46:51Z</time>
      </trkpt>
      <trkpt lat="45.0076" lon="4.3117">
        <ele>1078</ele>
        <time>2026-04-30T06:46:56Z</time>
      </trkpt>
      <trkpt lat="45.0076" lon="4.3117">
        <ele>1078</ele>
        <time>2026-04-30T06:47:01Z</time>
      </trkpt>
      <trkpt lat="45.0076" lon="4.3117">
        <ele>1078</ele>
        <time>2026-04-30T06:47:06Z</time>
      </trkpt>
      <trkpt lat="45.0076" lon="4.3117">
        <ele>1078</ele>
        <time>2026-04-30T06:47:11Z</time>
      </trkpt>
      <trkpt lat="45.0076" lon="4.3117">
        <ele>1078</ele>
        <time>2026-04-30T06:47:16Z</time>
      </trkpt>
      <trkpt lat="45.0076" lon="4.3117">
        <ele>1078</ele>
        <time>2026-04-30T06:47:21Z</time>
      </trkpt>
      <trkpt lat="45.0076" lon="4.3117">
        <ele>1078</ele>
        <time>2026-04-30T06:47:26Z</time>
      </trkpt>
      <trkpt lat="45.0076" lon="4.3117">
        <ele>1078</ele>
        <time>2026-04-30T06:47:31Z</time>
      </trkpt>
      <trkpt lat="45.0076" lon="4.3117">
        <ele>1078</ele>
        <time>2026-04-30T06:47:36Z</time>
      </trkpt>
      <trkpt lat="45.0076" lon="4.3117">
        <ele>1078</ele>
        <time>2026-04-30T06:47:41Z</time>
      </trkpt>
      <trkpt lat="45.0076" lon="4.3117">
        <ele>1078</ele>
        <time>2026-04-30T06:47:46Z</time>
      </trkpt>
      <trkpt lat="45.00759" lon="4.31174">
        <ele>1077.6</ele>
        <time>2026-04-30T06:47:51Z</time>
      </trkpt>
      <trkpt lat="45.00756" lon="4.31186">
        <ele>1076.6</ele>
        <time>2026-04-30T06:47:56Z</time>
      </trkpt>
      <trkpt lat="45.00753" lon="4.31198">
        <ele>1075.5</ele>
        <time>2026-04-30T06:48:01Z</time>
      </trkpt>
      <trkpt lat="45.00751" lon="4.31208">
        <ele>1074.5</ele>
        <time>2026-04-30T06:48:06Z</time>
      </trkpt>
      <trkpt lat="45.0075" lon="4.3122">
        <ele>1073.2</ele>
        <time>2026-04-30T06:48:11Z</time>
      </trkpt>
      <trkpt lat="45.00747" lon="4.3123">
        <ele>1072.5</ele>
        <time>2026-04-30T06:48:16Z</time>
      </trkpt>
      <trkpt lat="45.00744" lon="4.31241">
        <ele>1071.8</ele>
        <time>2026-04-30T06:48:21Z</time>
      </trkpt>
      <trkpt lat="45.0074" lon="4.31252">
        <ele>1071.3</ele>
        <time>2026-04-30T06:48:26Z</time>
      </trkpt>
      <trkpt lat="45.00738" lon="4.31262">
        <ele>1070.9</ele>
        <time>2026-04-30T06:48:31Z</time>
      </trkpt>
      <trkpt lat="45.00736" lon="4.31273">
        <ele>1070.4</ele>
        <time>2026-04-30T06:48:36Z</time>
      </trkpt>
      <trkpt lat="45.00734" lon="4.31284">
        <ele>1070</ele>
        <time>2026-04-30T06:48:41Z</time>
      </trkpt>
      <trkpt lat="45.00734" lon="4.31295">
        <ele>1069.3</ele>
        <time>2026-04-30T06:48:46Z</time>
      </trkpt>
      <trkpt lat="45.00734" lon="4.31307">
        <ele>1068.7</ele>
        <time>2026-04-30T06:48:51Z</time>
      </trkpt>
      <trkpt lat="45.00734" lon="4.31318">
        <ele>1068.5</ele>
        <time>2026-04-30T06:48:56Z</time>
      </trkpt>
      <trkpt lat="45.00735" lon="4.31329">
        <ele>1068.2</ele>
        <time>2026-04-30T06:49:01Z</time>
      </trkpt>
      <trkpt lat="45.00735" lon="4.3134">
        <ele>1067.8</ele>
        <time>2026-04-30T06:49:06Z</time>
      </trkpt>
      <trkpt lat="45.00736" lon="4.31352">
        <ele>1067.3</ele>
        <time>2026-04-30T06:49:11Z</time>
      </trkpt>
      <trkpt lat="45.00736" lon="4.31363">
        <ele>1067</ele>
        <time>2026-04-30T06:49:16Z</time>
      </trkpt>
      <trkpt lat="45.00736" lon="4.31374">
        <ele>1066.8</ele>
        <time>2026-04-30T06:49:21Z</time>
      </trkpt>
      <trkpt lat="45.00736" lon="4.31386">
        <ele>1066.6</ele>
        <time>2026-04-30T06:49:26Z</time>
      </trkpt>
      <trkpt lat="45.00737" lon="4.31397">
        <ele>1066.4</ele>
        <time>2026-04-30T06:49:31Z</time>
      </trkpt>
      <trkpt lat="45.00738" lon="4.31407">
        <ele>1066.3</ele>
        <time>2026-04-30T06:49:36Z</time>
      </trkpt>
      <trkpt lat="45.00739" lon="4.31419">
        <ele>1066.2</ele>
        <time>2026-04-30T06:49:41Z</time>
      </trkpt>
      <trkpt lat="45.00739" lon="4.31428">
        <ele>1066</ele>
        <time>2026-04-30T06:49:46Z</time>
      </trkpt>
      <trkpt lat="45.0074" lon="4.31439">
        <ele>1065.8</ele>
        <time>2026-04-30T06:49:51Z</time>
      </trkpt>
      <trkpt lat="45.00743" lon="4.3145">
        <ele>1065.6</ele>
        <time>2026-04-30T06:49:56Z</time>
      </trkpt>
      <trkpt lat="45.00744" lon="4.3146">
        <ele>1065.6</ele>
        <time>2026-04-30T06:50:01Z</time>
      </trkpt>
      <trkpt lat="45.00745" lon="4.3147">
        <ele>1065.5</ele>
        <time>2026-04-30T06:50:06Z</time>
      </trkpt>
      <trkpt lat="45.00747" lon="4.3148">
        <ele>1065.6</ele>
        <time>2026-04-30T06:50:11Z</time>
      </trkpt>
      <trkpt lat="45.00748" lon="4.31492">
        <ele>1065.9</ele>
        <time>2026-04-30T06:50:16Z</time>
      </trkpt>
      <trkpt lat="45.0075" lon="4.31503">
        <ele>1066</ele>
        <time>2026-04-30T06:50:21Z</time>
      </trkpt>
      <trkpt lat="45.00753" lon="4.31515">
        <ele>1065.7</ele>
        <time>2026-04-30T06:50:26Z</time>
      </trkpt>
      <trkpt lat="45.00756" lon="4.31525">
        <ele>1065.4</ele>
        <time>2026-04-30T06:50:31Z</time>
      </trkpt>
      <trkpt lat="45.00759" lon="4.31535">
        <ele>1065.3</ele>
        <time>2026-04-30T06:50:36Z</time>
      </trkpt>
      <trkpt lat="45.00763" lon="4.31546">
        <ele>1065.3</ele>
        <time>2026-04-30T06:50:41Z</time>
      </trkpt>
      <trkpt lat="45.00766" lon="4.31557">
        <ele>1065.3</ele>
        <time>2026-04-30T06:50:46Z</time>
      </trkpt>
      <trkpt lat="45.0077" lon="4.31567">
        <ele>1065.3</ele>
        <time>2026-04-30T06:50:51Z</time>
      </trkpt>
      <trkpt lat="45.00773" lon="4.31576">
        <ele>1065.3</ele>
        <time>2026-04-30T06:50:56Z</time>
      </trkpt>
      <trkpt lat="45.00777" lon="4.31585">
        <ele>1065.1</ele>
        <time>2026-04-30T06:51:01Z</time>
      </trkpt>
      <trkpt lat="45.0078" lon="4.31596">
        <ele>1065.3</ele>
        <time>2026-04-30T06:51:06Z</time>
      </trkpt>
      <trkpt lat="45.00784" lon="4.31606">
        <ele>1065.4</ele>
        <time>2026-04-30T06:51:11Z</time>
      </trkpt>
      <trkpt lat="45.00786" lon="4.31617">
        <ele>1065.8</ele>
        <time>2026-04-30T06:51:16Z</time>
      </trkpt>
      <trkpt lat="45.0079" lon="4.31626">
        <ele>1066</ele>
        <time>2026-04-30T06:51:21Z</time>
      </trkpt>
      <trkpt lat="45.00792" lon="4.31636">
        <ele>1066.3</ele>
        <time>2026-04-30T06:51:26Z</time>
      </trkpt>
      <trkpt lat="45.00794" lon="4.31646">
        <ele>1066.4</ele>
        <time>2026-04-30T06:51:31Z</time>
      </trkpt>
      <trkpt lat="45.00795" lon="4.31656">
        <ele>1066.4</ele>
        <time>2026-04-30T06:51:36Z</time>
      </trkpt>
      <trkpt lat="45.00796" lon="4.31667">
        <ele>1066.4</ele>
        <time>2026-04-30T06:51:41Z</time>
      </trkpt>
      <trkpt lat="45.00795" lon="4.31677">
        <ele>1066.5</ele>
        <time>2026-04-30T06:51:46Z</time>
      </trkpt>
      <trkpt lat="45.00793" lon="4.31687">
        <ele>1066.8</ele>
        <time>2026-04-30T06:51:51Z</time>
      </trkpt>
      <trkpt lat="45.00792" lon="4.317">
        <ele>1066.8</ele>
        <time>2026-04-30T06:51:56Z</time>
      </trkpt>
      <trkpt lat="45.00789" lon="4.31712">
        <ele>1066.8</ele>
        <time>2026-04-30T06:52:01Z</time>
      </trkpt>
      <trkpt lat="45.00787" lon="4.3172">
        <ele>1066.8</ele>
        <time>2026-04-30T06:52:06Z</time>
      </trkpt>
      <trkpt lat="45.00784" lon="4.31729">
        <ele>1067.1</ele>
        <time>2026-04-30T06:52:11Z</time>
      </trkpt>
      <trkpt lat="45.00782" lon="4.31739">
        <ele>1067.4</ele>
        <time>2026-04-30T06:52:16Z</time>
      </trkpt>
      <trkpt lat="45.0078" lon="4.3175">
        <ele>1067.7</ele>
        <time>2026-04-30T06:52:21Z</time>
      </trkpt>
      <trkpt lat="45.00778" lon="4.31761">
        <ele>1067.6</ele>
        <time>2026-04-30T06:52:26Z</time>
      </trkpt>
      <trkpt lat="45.00777" lon="4.31774">
        <ele>1067.3</ele>
        <time>2026-04-30T06:52:31Z</time>
      </trkpt>
      <trkpt lat="45.00775" lon="4.31785">
        <ele>1067.7</ele>
        <time>2026-04-30T06:52:36Z</time>
      </trkpt>
      <trkpt lat="45.00773" lon="4.31796">
        <ele>1068.1</ele>
        <time>2026-04-30T06:52:41Z</time>
      </trkpt>
      <trkpt lat="45.00772" lon="4.31806">
        <ele>1068.3</ele>
        <time>2026-04-30T06:52:46Z</time>
      </trkpt>
      <trkpt lat="45.00771" lon="4.31817">
        <ele>1068.6</ele>
        <time>2026-04-30T06:52:51Z</time>
      </trkpt>
      <trkpt lat="45.0077" lon="4.31829">
        <ele>1068.8</ele>
        <time>2026-04-30T06:52:56Z</time>
      </trkpt>
      <trkpt lat="45.0077" lon="4.31841">
        <ele>1069</ele>
        <time>2026-04-30T06:53:01Z</time>
      </trkpt>
      <trkpt lat="45.00769" lon="4.31853">
        <ele>1069.4</ele>
        <time>2026-04-30T06:53:06Z</time>
      </trkpt>
      <trkpt lat="45.00769" lon="4.31863">
        <ele>1069.6</ele>
        <time>2026-04-30T06:53:11Z</time>
      </trkpt>
      <trkpt lat="45.0077" lon="4.31872">
        <ele>1069.5</ele>
        <time>2026-04-30T06:53:16Z</time>
      </trkpt>
      <trkpt lat="45.00769" lon="4.31884">
        <ele>1069.4</ele>
        <time>2026-04-30T06:53:21Z</time>
      </trkpt>
      <trkpt lat="45.00768" lon="4.31894">
        <ele>1069.4</ele>
        <time>2026-04-30T06:53:26Z</time>
      </trkpt>
      <trkpt lat="45.00766" lon="4.31905">
        <ele>1069.7</ele>
        <time>2026-04-30T06:53:31Z</time>
      </trkpt>
      <trkpt lat="45.00764" lon="4.31914">
        <ele>1069.9</ele>
        <time>2026-04-30T06:53:36Z</time>
      </trkpt>
      <trkpt lat="45.00762" lon="4.31923">
        <ele>1070.2</ele>
        <time>2026-04-30T06:53:41Z</time>
      </trkpt>
      <trkpt lat="45.00761" lon="4.31934">
        <ele>1070.5</ele>
        <time>2026-04-30T06:53:46Z</time>
      </trkpt>
      <trkpt lat="45.0076" lon="4.31943">
        <ele>1070.6</ele>
        <time>2026-04-30T06:53:51Z</time>
      </trkpt>
      <trkpt lat="45.00757" lon="4.31954">
        <ele>1071.1</ele>
        <time>2026-04-30T06:53:56Z</time>
      </trkpt>
      <trkpt lat="45.00754" lon="4.31965">
        <ele>1071.6</ele>
        <time>2026-04-30T06:54:01Z</time>
      </trkpt>
      <trkpt lat="45.00752" lon="4.31976">
        <ele>1071.9</ele>
        <time>2026-04-30T06:54:06Z</time>
      </trkpt>
      <trkpt lat="45.00751" lon="4.31984">
        <ele>1072</ele>
        <time>2026-04-30T06:54:11Z</time>
      </trkpt>
      <trkpt lat="45.00751" lon="4.31994">
        <ele>1072</ele>
        <time>2026-04-30T06:54:16Z</time>
      </trkpt>
      <trkpt lat="45.00751" lon="4.32004">
        <ele>1072</ele>
        <time>2026-04-30T06:54:21Z</time>
      </trkpt>
      <trkpt lat="45.00753" lon="4.32017">
        <ele>1072</ele>
        <time>2026-04-30T06:54:26Z</time>
      </trkpt>
      <trkpt lat="45.00759" lon="4.32026">
        <ele>1072</ele>
        <time>2026-04-30T06:54:31Z</time>
      </trkpt>
      <trkpt lat="45.00763" lon="4.32034">
        <ele>1072.3</ele>
        <time>2026-04-30T06:54:36Z</time>
      </trkpt>
      <trkpt lat="45.00767" lon="4.32039">
        <ele>1072.7</ele>
        <time>2026-04-30T06:54:41Z</time>
      </trkpt>
      <trkpt lat="45.00772" lon="4.32047">
        <ele>1073.2</ele>
        <time>2026-04-30T06:54:46Z</time>
      </trkpt>
      <trkpt lat="45.00777" lon="4.32054">
        <ele>1073.9</ele>
        <time>2026-04-30T06:54:51Z</time>
      </trkpt>
      <trkpt lat="45.00782" lon="4.32062">
        <ele>1074</ele>
        <time>2026-04-30T06:54:56Z</time>
      </trkpt>
      <trkpt lat="45.00788" lon="4.3207">
        <ele>1074.2</ele>
        <time>2026-04-30T06:55:01Z</time>
      </trkpt>
      <trkpt lat="45.00793" lon="4.32078">
        <ele>1074.4</ele>
        <time>2026-04-30T06:55:06Z</time>
      </trkpt>
      <trkpt lat="45.00798" lon="4.32085">
        <ele>1074.8</ele>
        <time>2026-04-30T06:55:11Z</time>
      </trkpt>
      <trkpt lat="45.00803" lon="4.32091">
        <ele>1075.2</ele>
        <time>2026-04-30T06:55:16Z</time>
      </trkpt>
      <trkpt lat="45.00808" lon="4.32101">
        <ele>1075.8</ele>
        <time>2026-04-30T06:55:21Z</time>
      </trkpt>
      <trkpt lat="45.00813" lon="4.32108">
        <ele>1076.2</ele>
        <time>2026-04-30T06:55:26Z</time>
      </trkpt>
      <trkpt lat="45.00817" lon="4.32116">
        <ele>1076.4</ele>
        <time>2026-04-30T06:55:31Z</time>
      </trkpt>
      <trkpt lat="45.00822" lon="4.32123">
        <ele>1076.6</ele>
        <time>2026-04-30T06:55:36Z</time>
      </trkpt>
      <trkpt lat="45.00828" lon="4.32131">
        <ele>1076.8</ele>
        <time>2026-04-30T06:55:41Z</time>
      </trkpt>
      <trkpt lat="45.00834" lon="4.32138">
        <ele>1077</ele>
        <time>2026-04-30T06:55:46Z</time>
      </trkpt>
      <trkpt lat="45.00839" lon="4.32145">
        <ele>1077.4</ele>
        <time>2026-04-30T06:55:51Z</time>
      </trkpt>
      <trkpt lat="45.00845" lon="4.32154">
        <ele>1077.7</ele>
        <time>2026-04-30T06:55:56Z</time>
      </trkpt>
      <trkpt lat="45.00849" lon="4.32162">
        <ele>1077.9</ele>
        <time>2026-04-30T06:56:01Z</time>
      </trkpt>
      <trkpt lat="45.00853" lon="4.3217">
        <ele>1078</ele>
        <time>2026-04-30T06:56:06Z</time>
      </trkpt>
      <trkpt lat="45.00858" lon="4.32178">
        <ele>1078</ele>
        <time>2026-04-30T06:56:11Z</time>
      </trkpt>
      <trkpt lat="45.00863" lon="4.32185">
        <ele>1078</ele>
        <time>2026-04-30T06:56:16Z</time>
      </trkpt>
      <trkpt lat="45.00869" lon="4.32194">
        <ele>1078</ele>
        <time>2026-04-30T06:56:21Z</time>
      </trkpt>
      <trkpt lat="45.00874" lon="4.32203">
        <ele>1078</ele>
        <time>2026-04-30T06:56:26Z</time>
      </trkpt>
      <trkpt lat="45.0088" lon="4.3221">
        <ele>1078</ele>
        <time>2026-04-30T06:56:31Z</time>
      </trkpt>
      <trkpt lat="45.00885" lon="4.32219">
        <ele>1078</ele>
        <time>2026-04-30T06:56:36Z</time>
      </trkpt>
      <trkpt lat="45.00889" lon="4.32225">
        <ele>1078</ele>
        <time>2026-04-30T06:56:41Z</time>
      </trkpt>
      <trkpt lat="45.00895" lon="4.32232">
        <ele>1078.1</ele>
        <time>2026-04-30T06:56:46Z</time>
      </trkpt>
      <trkpt lat="45.00898" lon="4.3224">
        <ele>1078.2</ele>
        <time>2026-04-30T06:56:51Z</time>
      </trkpt>
      <trkpt lat="45.00905" lon="4.32248">
        <ele>1078.5</ele>
        <time>2026-04-30T06:56:56Z</time>
      </trkpt>
      <trkpt lat="45.00908" lon="4.32252">
        <ele>1078.7</ele>
        <time>2026-04-30T06:57:01Z</time>
      </trkpt>
      <trkpt lat="45.00911" lon="4.32253">
        <ele>1078.8</ele>
        <time>2026-04-30T06:57:06Z</time>
      </trkpt>
      <trkpt lat="45.00918" lon="4.32261">
        <ele>1079</ele>
        <time>2026-04-30T06:57:11Z</time>
      </trkpt>
      <trkpt lat="45.00924" lon="4.32268">
        <ele>1079</ele>
        <time>2026-04-30T06:57:16Z</time>
      </trkpt>
      <trkpt lat="45.00929" lon="4.32275">
        <ele>1079</ele>
        <time>2026-04-30T06:57:21Z</time>
      </trkpt>
      <trkpt lat="45.00934" lon="4.32284">
        <ele>1079</ele>
        <time>2026-04-30T06:57:26Z</time>
      </trkpt>
      <trkpt lat="45.00939" lon="4.32292">
        <ele>1079</ele>
        <time>2026-04-30T06:57:31Z</time>
      </trkpt>
      <trkpt lat="45.00944" lon="4.32301">
        <ele>1079</ele>
        <time>2026-04-30T06:57:36Z</time>
      </trkpt>
      <trkpt lat="45.00951" lon="4.3231">
        <ele>1079</ele>
        <time>2026-04-30T06:57:41Z</time>
      </trkpt>
      <trkpt lat="45.00955" lon="4.32318">
        <ele>1079</ele>
        <time>2026-04-30T06:57:46Z</time>
      </trkpt>
      <trkpt lat="45.0096" lon="4.32329">
        <ele>1079</ele>
        <time>2026-04-30T06:57:51Z</time>
      </trkpt>
      <trkpt lat="45.00962" lon="4.32338">
        <ele>1079</ele>
        <time>2026-04-30T06:57:56Z</time>
      </trkpt>
      <trkpt lat="45.00964" lon="4.32348">
        <ele>1079</ele>
        <time>2026-04-30T06:58:01Z</time>
      </trkpt>
      <trkpt lat="45.00968" lon="4.32357">
        <ele>1079</ele>
        <time>2026-04-30T06:58:06Z</time>
      </trkpt>
      <trkpt lat="45.00971" lon="4.32368">
        <ele>1078.8</ele>
        <time>2026-04-30T06:58:11Z</time>
      </trkpt>
      <trkpt lat="45.00972" lon="4.32377">
        <ele>1078.4</ele>
        <time>2026-04-30T06:58:16Z</time>
      </trkpt>
      <trkpt lat="45.00972" lon="4.32377">
        <ele>1078.4</ele>
        <time>2026-04-30T06:58:21Z</time>
      </trkpt>
      <trkpt lat="45.00972" lon="4.32377">
        <ele>1078.4</ele>
        <time>2026-04-30T06:58:26Z</time>
      </trkpt>
      <trkpt lat="45.00972" lon="4.32377">
        <ele>1078.4</ele>
        <time>2026-04-30T06:58:31Z</time>
      </trkpt>
      <trkpt lat="45.00972" lon="4.32377">
        <ele>1078.4</ele>
        <time>2026-04-30T06:58:36Z</time>
      </trkpt>
      <trkpt lat="45.00972" lon="4.32377">
        <ele>1078.4</ele>
        <time>2026-04-30T06:58:41Z</time>
      </trkpt>
      <trkpt lat="45.00972" lon="4.32377">
        <ele>1078.4</ele>
        <time>2026-04-30T06:58:46Z</time>
      </trkpt>
      <trkpt lat="45.00975" lon="4.32383">
        <ele>1078.2</ele>
        <time>2026-04-30T06:58:51Z</time>
      </trkpt>
      <trkpt lat="45.00977" lon="4.32394">
        <ele>1078</ele>
        <time>2026-04-30T06:58:56Z</time>
      </trkpt>
      <trkpt lat="45.00978" lon="4.32405">
        <ele>1078</ele>
        <time>2026-04-30T06:59:01Z</time>
      </trkpt>
      <trkpt lat="45.00981" lon="4.32412">
        <ele>1078</ele>
        <time>2026-04-30T06:59:06Z</time>
      </trkpt>
      <trkpt lat="45.00982" lon="4.32425">
        <ele>1078</ele>
        <time>2026-04-30T06:59:11Z</time>
      </trkpt>
      <trkpt lat="45.00986" lon="4.32438">
        <ele>1078</ele>
        <time>2026-04-30T06:59:16Z</time>
      </trkpt>
      <trkpt lat="45.00988" lon="4.32447">
        <ele>1078</ele>
        <time>2026-04-30T06:59:21Z</time>
      </trkpt>
      <trkpt lat="45.00988" lon="4.32453">
        <ele>1078.1</ele>
        <time>2026-04-30T06:59:26Z</time>
      </trkpt>
      <trkpt lat="45.0099" lon="4.32461">
        <ele>1078.2</ele>
        <time>2026-04-30T06:59:31Z</time>
      </trkpt>
      <trkpt lat="45.00991" lon="4.32472">
        <ele>1078.3</ele>
        <time>2026-04-30T06:59:36Z</time>
      </trkpt>
      <trkpt lat="45.00994" lon="4.32482">
        <ele>1078.2</ele>
        <time>2026-04-30T06:59:41Z</time>
      </trkpt>
      <trkpt lat="45.00997" lon="4.32491">
        <ele>1078.1</ele>
        <time>2026-04-30T06:59:46Z</time>
      </trkpt>
      <trkpt lat="45.00998" lon="4.325">
        <ele>1078.1</ele>
        <time>2026-04-30T06:59:51Z</time>
      </trkpt>
      <trkpt lat="45.01001" lon="4.32506">
        <ele>1078</ele>
        <time>2026-04-30T06:59:56Z</time>
      </trkpt>
      <trkpt lat="45.01003" lon="4.32514">
        <ele>1078</ele>
        <time>2026-04-30T07:00:01Z</time>
      </trkpt>
      <trkpt lat="45.01006" lon="4.32524">
        <ele>1078</ele>
        <time>2026-04-30T07:00:06Z</time>
      </trkpt>
      <trkpt lat="45.01009" lon="4.3253">
        <ele>1078</ele>
        <time>2026-04-30T07:00:11Z</time>
      </trkpt>
      <trkpt lat="45.01011" lon="4.32533">
        <ele>1078</ele>
        <time>2026-04-30T07:00:16Z</time>
      </trkpt>
      <trkpt lat="45.01011" lon="4.32535">
        <ele>1078</ele>
        <time>2026-04-30T07:00:21Z</time>
      </trkpt>
      <trkpt lat="45.0101" lon="4.32537">
        <ele>1078</ele>
        <time>2026-04-30T07:00:26Z</time>
      </trkpt>
      <trkpt lat="45.0101" lon="4.32537">
        <ele>1078</ele>
        <time>2026-04-30T07:00:31Z</time>
      </trkpt>
      <trkpt lat="45.0101" lon="4.32537">
        <ele>1078</ele>
        <time>2026-04-30T07:00:36Z</time>
      </trkpt>
      <trkpt lat="45.0101" lon="4.32537">
        <ele>1078</ele>
        <time>2026-04-30T07:00:41Z</time>
      </trkpt>
      <trkpt lat="45.0101" lon="4.32537">
        <ele>1078</ele>
        <time>2026-04-30T07:00:46Z</time>
      </trkpt>
      <trkpt lat="45.0101" lon="4.32537">
        <ele>1078</ele>
        <time>2026-04-30T07:00:51Z</time>
      </trkpt>
      <trkpt lat="45.0101" lon="4.32537">
        <ele>1078</ele>
        <time>2026-04-30T07:00:56Z</time>
      </trkpt>
      <trkpt lat="45.0101" lon="4.32537">
        <ele>1078</ele>
        <time>2026-04-30T07:01:01Z</time>
      </trkpt>
      <trkpt lat="45.0101" lon="4.32537">
        <ele>1078</ele>
        <time>2026-04-30T07:01:06Z</time>
      </trkpt>
      <trkpt lat="45.0101" lon="4.32537">
        <ele>1078</ele>
        <time>2026-04-30T07:01:11Z</time>
      </trkpt>
      <trkpt lat="45.0101" lon="4.32537">
        <ele>1078</ele>
        <time>2026-04-30T07:01:16Z</time>
      </trkpt>
      <trkpt lat="45.0101" lon="4.32537">
        <ele>1078</ele>
        <time>2026-04-30T07:01:21Z</time>
      </trkpt>
      <trkpt lat="45.0101" lon="4.32537">
        <ele>1078</ele>
        <time>2026-04-30T07:01:26Z</time>
      </trkpt>
      <trkpt lat="45.0101" lon="4.32537">
        <ele>1078</ele>
        <time>2026-04-30T07:01:31Z</time>
      </trkpt>
      <trkpt lat="45.0101" lon="4.32537">
        <ele>1078</ele>
        <time>2026-04-30T07:01:36Z</time>
      </trkpt>
      <trkpt lat="45.0101" lon="4.32537">
        <ele>1078</ele>
        <time>2026-04-30T07:01:41Z</time>
      </trkpt>
      <trkpt lat="45.0101" lon="4.32537">
        <ele>1078</ele>
        <time>2026-04-30T07:01:46Z</time>
      </trkpt>
      <trkpt lat="45.0101" lon="4.32537">
        <ele>1078</ele>
        <time>2026-04-30T07:01:51Z</time>
      </trkpt>
      <trkpt lat="45.0101" lon="4.32537">
        <ele>1078</ele>
        <time>2026-04-30T07:01:56Z</time>
      </trkpt>
      <trkpt lat="45.0101" lon="4.32537">
        <ele>1078</ele>
        <time>2026-04-30T07:02:01Z</time>
      </trkpt>
      <trkpt lat="45.0101" lon="4.32537">
        <ele>1078</ele>
        <time>2026-04-30T07:02:06Z</time>
      </trkpt>
      <trkpt lat="45.0101" lon="4.32537">
        <ele>1078</ele>
        <time>2026-04-30T07:02:11Z</time>
      </trkpt>
      <trkpt lat="45.0101" lon="4.32537">
        <ele>1078</ele>
        <time>2026-04-30T07:02:16Z</time>
      </trkpt>
      <trkpt lat="45.0101" lon="4.32537">
        <ele>1078</ele>
        <time>2026-04-30T07:02:21Z</time>
      </trkpt>
      <trkpt lat="45.0101" lon="4.32537">
        <ele>1078</ele>
        <time>2026-04-30T07:02:26Z</time>
      </trkpt>
      <trkpt lat="45.0101" lon="4.32537">
        <ele>1078</ele>
        <time>2026-04-30T07:02:31Z</time>
      </trkpt>
      <trkpt lat="45.0101" lon="4.32537">
        <ele>1078</ele>
        <time>2026-04-30T07:02:36Z</time>
      </trkpt>
      <trkpt lat="45.0101" lon="4.32537">
        <ele>1078</ele>
        <time>2026-04-30T07:02:41Z</time>
      </trkpt>
      <trkpt lat="45.0101" lon="4.32537">
        <ele>1078</ele>
        <time>2026-04-30T07:02:46Z</time>
      </trkpt>
      <trkpt lat="45.0101" lon="4.32537">
        <ele>1078</ele>
        <time>2026-04-30T07:02:51Z</time>
      </trkpt>
      <trkpt lat="45.0101" lon="4.32537">
        <ele>1078</ele>
        <time>2026-04-30T07:02:56Z</time>
      </trkpt>
      <trkpt lat="45.0101" lon="4.32537">
        <ele>1078</ele>
        <time>2026-04-30T07:03:01Z</time>
      </trkpt>
      <trkpt lat="45.0101" lon="4.32537">
        <ele>1078</ele>
        <time>2026-04-30T07:03:06Z</time>
      </trkpt>
      <trkpt lat="45.0101" lon="4.32537">
        <ele>1078</ele>
        <time>2026-04-30T07:03:11Z</time>
      </trkpt>
      <trkpt lat="45.0101" lon="4.32537">
        <ele>1078</ele>
        <time>2026-04-30T07:03:16Z</time>
      </trkpt>
      <trkpt lat="45.0101" lon="4.32537">
        <ele>1078</ele>
        <time>2026-04-30T07:03:21Z</time>
      </trkpt>
      <trkpt lat="45.0101" lon="4.32537">
        <ele>1078</ele>
        <time>2026-04-30T07:03:26Z</time>
      </trkpt>
      <trkpt lat="45.0101" lon="4.32537">
        <ele>1078</ele>
        <time>2026-04-30T07:03:31Z</time>
      </trkpt>
      <trkpt lat="45.0101" lon="4.32537">
        <ele>1078</ele>
        <time>2026-04-30T07:03:36Z</time>
      </trkpt>
      <trkpt lat="45.0101" lon="4.32537">
        <ele>1078</ele>
        <time>2026-04-30T07:03:41Z</time>
      </trkpt>
      <trkpt lat="45.0101" lon="4.32537">
        <ele>1078</ele>
        <time>2026-04-30T07:03:46Z</time>
      </trkpt>
      <trkpt lat="45.0101" lon="4.32537">
        <ele>1078</ele>
        <time>2026-04-30T07:03:51Z</time>
      </trkpt>
      <trkpt lat="45.0101" lon="4.32537">
        <ele>1078</ele>
        <time>2026-04-30T07:03:56Z</time>
      </trkpt>
      <trkpt lat="45.0101" lon="4.32537">
        <ele>1078</ele>
        <time>2026-04-30T07:04:01Z</time>
      </trkpt>
      <trkpt lat="45.0101" lon="4.32537">
        <ele>1078</ele>
        <time>2026-04-30T07:04:06Z</time>
      </trkpt>
      <trkpt lat="45.0101" lon="4.32537">
        <ele>1078</ele>
        <time>2026-04-30T07:04:11Z</time>
      </trkpt>
      <trkpt lat="45.0101" lon="4.32537">
        <ele>1078</ele>
        <time>2026-04-30T07:04:16Z</time>
      </trkpt>
      <trkpt lat="45.0101" lon="4.32537">
        <ele>1078</ele>
        <time>2026-04-30T07:04:21Z</time>
      </trkpt>
      <trkpt lat="45.0101" lon="4.32537">
        <ele>1078</ele>
        <time>2026-04-30T07:04:26Z</time>
      </trkpt>
      <trkpt lat="45.0101" lon="4.32537">
        <ele>1078</ele>
        <time>2026-04-30T07:04:31Z</time>
      </trkpt>
      <trkpt lat="45.0101" lon="4.32537">
        <ele>1078</ele>
        <time>2026-04-30T07:04:36Z</time>
      </trkpt>
      <trkpt lat="45.0101" lon="4.32537">
        <ele>1078</ele>
        <time>2026-04-30T07:04:41Z</time>
      </trkpt>
      <trkpt lat="45.0101" lon="4.32537">
        <ele>1078</ele>
        <time>2026-04-30T07:04:46Z</time>
      </trkpt>
      <trkpt lat="45.0101" lon="4.32537">
        <ele>1078</ele>
        <time>2026-04-30T07:04:51Z</time>
      </trkpt>
      <trkpt lat="45.0101" lon="4.32537">
        <ele>1078</ele>
        <time>2026-04-30T07:04:56Z</time>
      </trkpt>
      <trkpt lat="45.0101" lon="4.32537">
        <ele>1078</ele>
        <time>2026-04-30T07:05:01Z</time>
      </trkpt>
      <trkpt lat="45.0101" lon="4.32537">
        <ele>1078</ele>
        <time>2026-04-30T07:05:06Z</time>
      </trkpt>
      <trkpt lat="45.0101" lon="4.32537">
        <ele>1078</ele>
        <time>2026-04-30T07:05:11Z</time>
      </trkpt>
      <trkpt lat="45.0101" lon="4.32537">
        <ele>1078</ele>
        <time>2026-04-30T07:05:16Z</time>
      </trkpt>
      <trkpt lat="45.0101" lon="4.32537">
        <ele>1078</ele>
        <time>2026-04-30T07:05:21Z</time>
      </trkpt>
      <trkpt lat="45.0101" lon="4.32537">
        <ele>1078</ele>
        <time>2026-04-30T07:05:26Z</time>
      </trkpt>
      <trkpt lat="45.0101" lon="4.32537">
        <ele>1078</ele>
        <time>2026-04-30T07:05:31Z</time>
      </trkpt>
      <trkpt lat="45.0101" lon="4.32537">
        <ele>1078</ele>
        <time>2026-04-30T07:05:36Z</time>
      </trkpt>
      <trkpt lat="45.0101" lon="4.32537">
        <ele>1078</ele>
        <time>2026-04-30T07:05:41Z</time>
      </trkpt>
      <trkpt lat="45.0101" lon="4.32537">
        <ele>1078</ele>
        <time>2026-04-30T07:05:46Z</time>
      </trkpt>
      <trkpt lat="45.0101" lon="4.32537">
        <ele>1078</ele>
        <time>2026-04-30T07:05:51Z</time>
      </trkpt>
      <trkpt lat="45.0101" lon="4.32537">
        <ele>1078</ele>
        <time>2026-04-30T07:05:56Z</time>
      </trkpt>
      <trkpt lat="45.0101" lon="4.32537">
        <ele>1078</ele>
        <time>2026-04-30T07:06:01Z</time>
      </trkpt>
      <trkpt lat="45.0101" lon="4.32537">
        <ele>1078</ele>
        <time>2026-04-30T07:06:06Z</time>
      </trkpt>
      <trkpt lat="45.0101" lon="4.32537">
        <ele>1078</ele>
        <time>2026-04-30T07:06:11Z</time>
      </trkpt>
      <trkpt lat="45.0101" lon="4.32537">
        <ele>1078</ele>
        <time>2026-04-30T07:06:16Z</time>
      </trkpt>
      <trkpt lat="45.0101" lon="4.32537">
        <ele>1078</ele>
        <time>2026-04-30T07:06:21Z</time>
      </trkpt>
      <trkpt lat="45.0101" lon="4.32537">
        <ele>1078</ele>
        <time>2026-04-30T07:06:26Z</time>
      </trkpt>
      <trkpt lat="45.0101" lon="4.32537">
        <ele>1078</ele>
        <time>2026-04-30T07:06:31Z</time>
      </trkpt>
      <trkpt lat="45.0101" lon="4.32537">
        <ele>1078</ele>
        <time>2026-04-30T07:06:36Z</time>
      </trkpt>
      <trkpt lat="45.0101" lon="4.32537">
        <ele>1078</ele>
        <time>2026-04-30T07:06:41Z</time>
      </trkpt>
      <trkpt lat="45.0101" lon="4.32537">
        <ele>1078</ele>
        <time>2026-04-30T07:06:46Z</time>
      </trkpt>
      <trkpt lat="45.0101" lon="4.32537">
        <ele>1078</ele>
        <time>2026-04-30T07:06:51Z</time>
      </trkpt>
      <trkpt lat="45.0101" lon="4.32537">
        <ele>1078</ele>
        <time>2026-04-30T07:06:56Z</time>
      </trkpt>
      <trkpt lat="45.0101" lon="4.32537">
        <ele>1078</ele>
        <time>2026-04-30T07:07:01Z</time>
      </trkpt>
      <trkpt lat="45.0101" lon="4.32537">
        <ele>1078</ele>
        <time>2026-04-30T07:07:06Z</time>
      </trkpt>
      <trkpt lat="45.0101" lon="4.32537">
        <ele>1078</ele>
        <time>2026-04-30T07:07:11Z</time>
      </trkpt>
      <trkpt lat="45.0101" lon="4.32537">
        <ele>1078</ele>
        <time>2026-04-30T07:07:16Z</time>
      </trkpt>
      <trkpt lat="45.0101" lon="4.32537">
        <ele>1078</ele>
        <time>2026-04-30T07:07:21Z</time>
      </trkpt>
      <trkpt lat="45.0101" lon="4.32537">
        <ele>1078</ele>
        <time>2026-04-30T07:07:26Z</time>
      </trkpt>
      <trkpt lat="45.0101" lon="4.32537">
        <ele>1078</ele>
        <time>2026-04-30T07:07:31Z</time>
      </trkpt>
      <trkpt lat="45.0101" lon="4.32537">
        <ele>1078</ele>
        <time>2026-04-30T07:07:36Z</time>
      </trkpt>
      <trkpt lat="45.0101" lon="4.32537">
        <ele>1078</ele>
        <time>2026-04-30T07:07:41Z</time>
      </trkpt>
      <trkpt lat="45.0101" lon="4.32537">
        <ele>1078</ele>
        <time>2026-04-30T07:07:46Z</time>
      </trkpt>
      <trkpt lat="45.0101" lon="4.32537">
        <ele>1078</ele>
        <time>2026-04-30T07:07:51Z</time>
      </trkpt>
      <trkpt lat="45.0101" lon="4.32537">
        <ele>1078</ele>
        <time>2026-04-30T07:07:56Z</time>
      </trkpt>
      <trkpt lat="45.0101" lon="4.32537">
        <ele>1078</ele>
        <time>2026-04-30T07:08:01Z</time>
      </trkpt>
      <trkpt lat="45.0101" lon="4.32537">
        <ele>1078</ele>
        <time>2026-04-30T07:08:06Z</time>
      </trkpt>
      <trkpt lat="45.0101" lon="4.32537">
        <ele>1078</ele>
        <time>2026-04-30T07:08:11Z</time>
      </trkpt>
      <trkpt lat="45.0101" lon="4.32537">
        <ele>1078</ele>
        <time>2026-04-30T07:08:16Z</time>
      </trkpt>
      <trkpt lat="45.0101" lon="4.32537">
        <ele>1078</ele>
        <time>2026-04-30T07:08:21Z</time>
      </trkpt>
      <trkpt lat="45.0101" lon="4.32537">
        <ele>1078</ele>
        <time>2026-04-30T07:08:26Z</time>
      </trkpt>
      <trkpt lat="45.0101" lon="4.32537">
        <ele>1078</ele>
        <time>2026-04-30T07:08:31Z</time>
      </trkpt>
      <trkpt lat="45.0101" lon="4.32537">
        <ele>1078</ele>
        <time>2026-04-30T07:08:36Z</time>
      </trkpt>
      <trkpt lat="45.0101" lon="4.32537">
        <ele>1078</ele>
        <time>2026-04-30T07:08:41Z</time>
      </trkpt>
      <trkpt lat="45.0101" lon="4.32537">
        <ele>1078</ele>
        <time>2026-04-30T07:08:46Z</time>
      </trkpt>
      <trkpt lat="45.0101" lon="4.32537">
        <ele>1078</ele>
        <time>2026-04-30T07:08:51Z</time>
      </trkpt>
      <trkpt lat="45.0101" lon="4.32537">
        <ele>1078</ele>
        <time>2026-04-30T07:08:56Z</time>
      </trkpt>
      <trkpt lat="45.0101" lon="4.32537">
        <ele>1078</ele>
        <time>2026-04-30T07:09:01Z</time>
      </trkpt>
      <trkpt lat="45.0101" lon="4.32537">
        <ele>1078</ele>
        <time>2026-04-30T07:09:06Z</time>
      </trkpt>
      <trkpt lat="45.0101" lon="4.32537">
        <ele>1078</ele>
        <time>2026-04-30T07:09:11Z</time>
      </trkpt>
      <trkpt lat="45.0101" lon="4.32537">
        <ele>1078</ele>
        <time>2026-04-30T07:09:16Z</time>
      </trkpt>
      <trkpt lat="45.0101" lon="4.32537">
        <ele>1078</ele>
        <time>2026-04-30T07:09:21Z</time>
      </trkpt>
      <trkpt lat="45.0101" lon="4.32537">
        <ele>1078</ele>
        <time>2026-04-30T07:09:26Z</time>
      </trkpt>
      <trkpt lat="45.0101" lon="4.32537">
        <ele>1078</ele>
        <time>2026-04-30T07:09:31Z</time>
      </trkpt>
      <trkpt lat="45.0101" lon="4.32537">
        <ele>1078</ele>
        <time>2026-04-30T07:09:36Z</time>
      </trkpt>
      <trkpt lat="45.0101" lon="4.32537">
        <ele>1078</ele>
        <time>2026-04-30T07:09:41Z</time>
      </trkpt>
      <trkpt lat="45.0101" lon="4.32537">
        <ele>1078</ele>
        <time>2026-04-30T07:09:46Z</time>
      </trkpt>
      <trkpt lat="45.0101" lon="4.32537">
        <ele>1078</ele>
        <time>2026-04-30T07:09:51Z</time>
      </trkpt>
      <trkpt lat="45.0101" lon="4.32537">
        <ele>1078</ele>
        <time>2026-04-30T07:09:56Z</time>
      </trkpt>
      <trkpt lat="45.0101" lon="4.32537">
        <ele>1078</ele>
        <time>2026-04-30T07:10:01Z</time>
      </trkpt>
      <trkpt lat="45.0101" lon="4.32537">
        <ele>1078</ele>
        <time>2026-04-30T07:10:06Z</time>
      </trkpt>
      <trkpt lat="45.0101" lon="4.32537">
        <ele>1078</ele>
        <time>2026-04-30T07:10:11Z</time>
      </trkpt>
      <trkpt lat="45.0101" lon="4.32537">
        <ele>1078</ele>
        <time>2026-04-30T07:10:16Z</time>
      </trkpt>
      <trkpt lat="45.0101" lon="4.32537">
        <ele>1078</ele>
        <time>2026-04-30T07:10:21Z</time>
      </trkpt>
      <trkpt lat="45.0101" lon="4.32537">
        <ele>1078</ele>
        <time>2026-04-30T07:10:26Z</time>
      </trkpt>
      <trkpt lat="45.0101" lon="4.32537">
        <ele>1078</ele>
        <time>2026-04-30T07:10:31Z</time>
      </trkpt>
      <trkpt lat="45.0101" lon="4.32537">
        <ele>1078</ele>
        <time>2026-04-30T07:10:36Z</time>
      </trkpt>
      <trkpt lat="45.0101" lon="4.32537">
        <ele>1078</ele>
        <time>2026-04-30T07:10:41Z</time>
      </trkpt>
      <trkpt lat="45.0101" lon="4.32537">
        <ele>1078</ele>
        <time>2026-04-30T07:10:46Z</time>
      </trkpt>
      <trkpt lat="45.0101" lon="4.32537">
        <ele>1078</ele>
        <time>2026-04-30T07:10:51Z</time>
      </trkpt>
      <trkpt lat="45.0101" lon="4.32537">
        <ele>1078</ele>
        <time>2026-04-30T07:10:56Z</time>
      </trkpt>
      <trkpt lat="45.0101" lon="4.32537">
        <ele>1078</ele>
        <time>2026-04-30T07:11:01Z</time>
      </trkpt>
      <trkpt lat="45.0101" lon="4.32537">
        <ele>1078</ele>
        <time>2026-04-30T07:11:06Z</time>
      </trkpt>
      <trkpt lat="45.0101" lon="4.32537">
        <ele>1078</ele>
        <time>2026-04-30T07:11:11Z</time>
      </trkpt>
      <trkpt lat="45.0101" lon="4.32537">
        <ele>1078</ele>
        <time>2026-04-30T07:11:16Z</time>
      </trkpt>
      <trkpt lat="45.01007" lon="4.32545">
        <ele>1078</ele>
        <time>2026-04-30T07:11:21Z</time>
      </trkpt>
      <trkpt lat="45.0101" lon="4.32554">
        <ele>1078</ele>
        <time>2026-04-30T07:11:26Z</time>
      </trkpt>
      <trkpt lat="45.01013" lon="4.32562">
        <ele>1078</ele>
        <time>2026-04-30T07:11:31Z</time>
      </trkpt>
      <trkpt lat="45.01018" lon="4.32568">
        <ele>1078</ele>
        <time>2026-04-30T07:11:36Z</time>
      </trkpt>
      <trkpt lat="45.0102" lon="4.32578">
        <ele>1078</ele>
        <time>2026-04-30T07:11:41Z</time>
      </trkpt>
      <trkpt lat="45.01021" lon="4.32589">
        <ele>1077.8</ele>
        <time>2026-04-30T07:11:46Z</time>
      </trkpt>
      <trkpt lat="45.01023" lon="4.32598">
        <ele>1077.5</ele>
        <time>2026-04-30T07:11:51Z</time>
      </trkpt>
      <trkpt lat="45.01026" lon="4.32607">
        <ele>1077.1</ele>
        <time>2026-04-30T07:11:56Z</time>
      </trkpt>
      <trkpt lat="45.01027" lon="4.32617">
        <ele>1077.2</ele>
        <time>2026-04-30T07:12:01Z</time>
      </trkpt>
      <trkpt lat="45.0103" lon="4.32626">
        <ele>1077.5</ele>
        <time>2026-04-30T07:12:06Z</time>
      </trkpt>
      <trkpt lat="45.01033" lon="4.32634">
        <ele>1077.7</ele>
        <time>2026-04-30T07:12:11Z</time>
      </trkpt>
      <trkpt lat="45.01036" lon="4.32642">
        <ele>1077.6</ele>
        <time>2026-04-30T07:12:16Z</time>
      </trkpt>
      <trkpt lat="45.01038" lon="4.32652">
        <ele>1077.3</ele>
        <time>2026-04-30T07:12:21Z</time>
      </trkpt>
      <trkpt lat="45.01041" lon="4.32662">
        <ele>1077.1</ele>
        <time>2026-04-30T07:12:26Z</time>
      </trkpt>
      <trkpt lat="45.01043" lon="4.32672">
        <ele>1077</ele>
        <time>2026-04-30T07:12:31Z</time>
      </trkpt>
      <trkpt lat="45.01043" lon="4.32683">
        <ele>1077</ele>
        <time>2026-04-30T07:12:36Z</time>
      </trkpt>
      <trkpt lat="45.01044" lon="4.32693">
        <ele>1077</ele>
        <time>2026-04-30T07:12:41Z</time>
      </trkpt>
      <trkpt lat="45.01046" lon="4.32703">
        <ele>1077</ele>
        <time>2026-04-30T07:12:46Z</time>
      </trkpt>
      <trkpt lat="45.01049" lon="4.32713">
        <ele>1077</ele>
        <time>2026-04-30T07:12:51Z</time>
      </trkpt>
      <trkpt lat="45.01051" lon="4.32723">
        <ele>1077</ele>
        <time>2026-04-30T07:12:56Z</time>
      </trkpt>
      <trkpt lat="45.01053" lon="4.32732">
        <ele>1077</ele>
        <time>2026-04-30T07:13:01Z</time>
      </trkpt>
      <trkpt lat="45.01056" lon="4.3274">
        <ele>1077</ele>
        <time>2026-04-30T07:13:06Z</time>
      </trkpt>
      <trkpt lat="45.01057" lon="4.3275">
        <ele>1077</ele>
        <time>2026-04-30T07:13:11Z</time>
      </trkpt>
      <trkpt lat="45.01057" lon="4.32762">
        <ele>1076.6</ele>
        <time>2026-04-30T07:13:16Z</time>
      </trkpt>
      <trkpt lat="45.01058" lon="4.32772">
        <ele>1076.2</ele>
        <time>2026-04-30T07:13:21Z</time>
      </trkpt>
      <trkpt lat="45.01061" lon="4.32782">
        <ele>1076</ele>
        <time>2026-04-30T07:13:26Z</time>
      </trkpt>
      <trkpt lat="45.01062" lon="4.32793">
        <ele>1076</ele>
        <time>2026-04-30T07:13:31Z</time>
      </trkpt>
      <trkpt lat="45.01063" lon="4.32805">
        <ele>1076</ele>
        <time>2026-04-30T07:13:36Z</time>
      </trkpt>
      <trkpt lat="45.01062" lon="4.32815">
        <ele>1075.9</ele>
        <time>2026-04-30T07:13:41Z</time>
      </trkpt>
      <trkpt lat="45.01065" lon="4.32824">
        <ele>1075.8</ele>
        <time>2026-04-30T07:13:46Z</time>
      </trkpt>
      <trkpt lat="45.01068" lon="4.32833">
        <ele>1075.6</ele>
        <time>2026-04-30T07:13:51Z</time>
      </trkpt>
      <trkpt lat="45.01067" lon="4.32842">
        <ele>1075.1</ele>
        <time>2026-04-30T07:13:56Z</time>
      </trkpt>
      <trkpt lat="45.01061" lon="4.32849">
        <ele>1075.1</ele>
        <time>2026-04-30T07:14:01Z</time>
      </trkpt>
      <trkpt lat="45.01054" lon="4.32858">
        <ele>1075.2</ele>
        <time>2026-04-30T07:14:06Z</time>
      </trkpt>
      <trkpt lat="45.01047" lon="4.32864">
        <ele>1075.2</ele>
        <time>2026-04-30T07:14:11Z</time>
      </trkpt>
      <trkpt lat="45.0104" lon="4.32871">
        <ele>1075.4</ele>
        <time>2026-04-30T07:14:16Z</time>
      </trkpt>
      <trkpt lat="45.01032" lon="4.32878">
        <ele>1075.8</ele>
        <time>2026-04-30T07:14:21Z</time>
      </trkpt>
      <trkpt lat="45.01025" lon="4.32887">
        <ele>1076.1</ele>
        <time>2026-04-30T07:14:26Z</time>
      </trkpt>
      <trkpt lat="45.01018" lon="4.32894">
        <ele>1076.4</ele>
        <time>2026-04-30T07:14:31Z</time>
      </trkpt>
      <trkpt lat="45.01014" lon="4.329">
        <ele>1076.5</ele>
        <time>2026-04-30T07:14:36Z</time>
      </trkpt>
      <trkpt lat="45.01008" lon="4.32906">
        <ele>1076.7</ele>
        <time>2026-04-30T07:14:41Z</time>
      </trkpt>
      <trkpt lat="45.01" lon="4.32913">
        <ele>1077</ele>
        <time>2026-04-30T07:14:46Z</time>
      </trkpt>
      <trkpt lat="45.00994" lon="4.32922">
        <ele>1077.2</ele>
        <time>2026-04-30T07:14:51Z</time>
      </trkpt>
      <trkpt lat="45.00989" lon="4.32931">
        <ele>1077.4</ele>
        <time>2026-04-30T07:14:56Z</time>
      </trkpt>
      <trkpt lat="45.00983" lon="4.3294">
        <ele>1077.6</ele>
        <time>2026-04-30T07:15:01Z</time>
      </trkpt>
      <trkpt lat="45.00979" lon="4.32947">
        <ele>1077.7</ele>
        <time>2026-04-30T07:15:06Z</time>
      </trkpt>
      <trkpt lat="45.00977" lon="4.32954">
        <ele>1077.8</ele>
        <time>2026-04-30T07:15:11Z</time>
      </trkpt>
      <trkpt lat="45.00972" lon="4.32962">
        <ele>1078</ele>
        <time>2026-04-30T07:15:16Z</time>
      </trkpt>
      <trkpt lat="45.00967" lon="4.32972">
        <ele>1078.2</ele>
        <time>2026-04-30T07:15:21Z</time>
      </trkpt>
      <trkpt lat="45.00961" lon="4.32979">
        <ele>1078.4</ele>
        <time>2026-04-30T07:15:26Z</time>
      </trkpt>
      <trkpt lat="45.00956" lon="4.32986">
        <ele>1078.6</ele>
        <time>2026-04-30T07:15:31Z</time>
      </trkpt>
      <trkpt lat="45.00948" lon="4.32996">
        <ele>1078.9</ele>
        <time>2026-04-30T07:15:36Z</time>
      </trkpt>
      <trkpt lat="45.00941" lon="4.33004">
        <ele>1079</ele>
        <time>2026-04-30T07:15:41Z</time>
      </trkpt>
      <trkpt lat="45.00936" lon="4.3301">
        <ele>1079.1</ele>
        <time>2026-04-30T07:15:46Z</time>
      </trkpt>
      <trkpt lat="45.00931" lon="4.33017">
        <ele>1079.3</ele>
        <time>2026-04-30T07:15:51Z</time>
      </trkpt>
      <trkpt lat="45.00926" lon="4.33024">
        <ele>1079.6</ele>
        <time>2026-04-30T07:15:56Z</time>
      </trkpt>
      <trkpt lat="45.00919" lon="4.33032">
        <ele>1079.8</ele>
        <time>2026-04-30T07:16:01Z</time>
      </trkpt>
      <trkpt lat="45.00914" lon="4.33038">
        <ele>1079.6</ele>
        <time>2026-04-30T07:16:06Z</time>
      </trkpt>
      <trkpt lat="45.00908" lon="4.33046">
        <ele>1079.2</ele>
        <time>2026-04-30T07:16:11Z</time>
      </trkpt>
      <trkpt lat="45.00901" lon="4.33052">
        <ele>1079.1</ele>
        <time>2026-04-30T07:16:16Z</time>
      </trkpt>
      <trkpt lat="45.00896" lon="4.33058">
        <ele>1079</ele>
        <time>2026-04-30T07:16:21Z</time>
      </trkpt>
      <trkpt lat="45.00891" lon="4.33066">
        <ele>1079</ele>
        <time>2026-04-30T07:16:26Z</time>
      </trkpt>
      <trkpt lat="45.00886" lon="4.33074">
        <ele>1079</ele>
        <time>2026-04-30T07:16:31Z</time>
      </trkpt>
      <trkpt lat="45.00882" lon="4.33085">
        <ele>1079</ele>
        <time>2026-04-30T07:16:36Z</time>
      </trkpt>
      <trkpt lat="45.00878" lon="4.33093">
        <ele>1079</ele>
        <time>2026-04-30T07:16:41Z</time>
      </trkpt>
      <trkpt lat="45.00876" lon="4.331">
        <ele>1079</ele>
        <time>2026-04-30T07:16:46Z</time>
      </trkpt>
      <trkpt lat="45.00876" lon="4.33101">
        <ele>1079</ele>
        <time>2026-04-30T07:16:51Z</time>
      </trkpt>
      <trkpt lat="45.00874" lon="4.33102">
        <ele>1079</ele>
        <time>2026-04-30T07:16:56Z</time>
      </trkpt>
      <trkpt lat="45.00874" lon="4.33102">
        <ele>1079</ele>
        <time>2026-04-30T07:17:01Z</time>
      </trkpt>
      <trkpt lat="45.00874" lon="4.33102">
        <ele>1079</ele>
        <time>2026-04-30T07:17:06Z</time>
      </trkpt>
      <trkpt lat="45.00874" lon="4.33102">
        <ele>1079</ele>
        <time>2026-04-30T07:17:11Z</time>
      </trkpt>
      <trkpt lat="45.00873" lon="4.33106">
        <ele>1079</ele>
        <time>2026-04-30T07:17:16Z</time>
      </trkpt>
      <trkpt lat="45.00873" lon="4.33106">
        <ele>1079</ele>
        <time>2026-04-30T07:17:21Z</time>
      </trkpt>
      <trkpt lat="45.00873" lon="4.33106">
        <ele>1079</ele>
        <time>2026-04-30T07:17:26Z</time>
      </trkpt>
      <trkpt lat="45.00873" lon="4.33106">
        <ele>1079</ele>
        <time>2026-04-30T07:17:31Z</time>
      </trkpt>
      <trkpt lat="45.00876" lon="4.33104">
        <ele>1079</ele>
        <time>2026-04-30T07:17:36Z</time>
      </trkpt>
      <trkpt lat="45.0088" lon="4.33106">
        <ele>1079</ele>
        <time>2026-04-30T07:17:41Z</time>
      </trkpt>
      <trkpt lat="45.00883" lon="4.33114">
        <ele>1079</ele>
        <time>2026-04-30T07:17:46Z</time>
      </trkpt>
      <trkpt lat="45.00887" lon="4.3312">
        <ele>1079</ele>
        <time>2026-04-30T07:17:51Z</time>
      </trkpt>
      <trkpt lat="45.00893" lon="4.33128">
        <ele>1079</ele>
        <time>2026-04-30T07:17:56Z</time>
      </trkpt>
      <trkpt lat="45.00896" lon="4.33132">
        <ele>1079</ele>
        <time>2026-04-30T07:18:01Z</time>
      </trkpt>
      <trkpt lat="45.00903" lon="4.33141">
        <ele>1079</ele>
        <time>2026-04-30T07:18:06Z</time>
      </trkpt>
      <trkpt lat="45.00908" lon="4.33149">
        <ele>1079.1</ele>
        <time>2026-04-30T07:18:11Z</time>
      </trkpt>
      <trkpt lat="45.00913" lon="4.33156">
        <ele>1079.1</ele>
        <time>2026-04-30T07:18:16Z</time>
      </trkpt>
      <trkpt lat="45.00919" lon="4.33163">
        <ele>1078.9</ele>
        <time>2026-04-30T07:18:21Z</time>
      </trkpt>
      <trkpt lat="45.00926" lon="4.3317">
        <ele>1078.7</ele>
        <time>2026-04-30T07:18:26Z</time>
      </trkpt>
      <trkpt lat="45.00933" lon="4.33176">
        <ele>1078.4</ele>
        <time>2026-04-30T07:18:31Z</time>
      </trkpt>
      <trkpt lat="45.00939" lon="4.33184">
        <ele>1078.2</ele>
        <time>2026-04-30T07:18:36Z</time>
      </trkpt>
      <trkpt lat="45.00944" lon="4.33191">
        <ele>1078</ele>
        <time>2026-04-30T07:18:41Z</time>
      </trkpt>
      <trkpt lat="45.0095" lon="4.33197">
        <ele>1077.6</ele>
        <time>2026-04-30T07:18:46Z</time>
      </trkpt>
      <trkpt lat="45.00956" lon="4.33202">
        <ele>1077.1</ele>
        <time>2026-04-30T07:18:51Z</time>
      </trkpt>
      <trkpt lat="45.00961" lon="4.33204">
        <ele>1076.6</ele>
        <time>2026-04-30T07:18:56Z</time>
      </trkpt>
      <trkpt lat="45.00962" lon="4.33209">
        <ele>1076.4</ele>
        <time>2026-04-30T07:19:01Z</time>
      </trkpt>
      <trkpt lat="45.00961" lon="4.3321">
        <ele>1076.5</ele>
        <time>2026-04-30T07:19:06Z</time>
      </trkpt>
      <trkpt lat="45.0096" lon="4.33209">
        <ele>1076.6</ele>
        <time>2026-04-30T07:19:11Z</time>
      </trkpt>
      <trkpt lat="45.0096" lon="4.33209">
        <ele>1076.6</ele>
        <time>2026-04-30T07:19:16Z</time>
      </trkpt>
      <trkpt lat="45.00969" lon="4.33214">
        <ele>1075.6</ele>
        <time>2026-04-30T07:19:21Z</time>
      </trkpt>
      <trkpt lat="45.00977" lon="4.33222">
        <ele>1074.7</ele>
        <time>2026-04-30T07:19:26Z</time>
      </trkpt>
      <trkpt lat="45.00985" lon="4.33227">
        <ele>1073.9</ele>
        <time>2026-04-30T07:19:31Z</time>
      </trkpt>
      <trkpt lat="45.00991" lon="4.33232">
        <ele>1073.3</ele>
        <time>2026-04-30T07:19:36Z</time>
      </trkpt>
      <trkpt lat="45.00998" lon="4.33235">
        <ele>1072.7</ele>
        <time>2026-04-30T07:19:41Z</time>
      </trkpt>
      <trkpt lat="45.01004" lon="4.33235">
        <ele>1072.2</ele>
        <time>2026-04-30T07:19:46Z</time>
      </trkpt>
      <trkpt lat="45.01009" lon="4.33236">
        <ele>1071.7</ele>
        <time>2026-04-30T07:19:51Z</time>
      </trkpt>
      <trkpt lat="45.01016" lon="4.33237">
        <ele>1071</ele>
        <time>2026-04-30T07:19:56Z</time>
      </trkpt>
      <trkpt lat="45.01024" lon="4.33238">
        <ele>1070.3</ele>
        <time>2026-04-30T07:20:01Z</time>
      </trkpt>
      <trkpt lat="45.01031" lon="4.3324">
        <ele>1069.5</ele>
        <time>2026-04-30T07:20:06Z</time>
      </trkpt>
      <trkpt lat="45.01038" lon="4.33243">
        <ele>1068.5</ele>
        <time>2026-04-30T07:20:11Z</time>
      </trkpt>
      <trkpt lat="45.01045" lon="4.33246">
        <ele>1067.5</ele>
        <time>2026-04-30T07:20:16Z</time>
      </trkpt>
      <trkpt lat="45.01052" lon="4.33247">
        <ele>1066.5</ele>
        <time>2026-04-30T07:20:21Z</time>
      </trkpt>
      <trkpt lat="45.01061" lon="4.33251">
        <ele>1065.4</ele>
        <time>2026-04-30T07:20:26Z</time>
      </trkpt>
      <trkpt lat="45.01067" lon="4.33257">
        <ele>1064.8</ele>
        <time>2026-04-30T07:20:31Z</time>
      </trkpt>
      <trkpt lat="45.01073" lon="4.33263">
        <ele>1064</ele>
        <time>2026-04-30T07:20:36Z</time>
      </trkpt>
      <trkpt lat="45.01078" lon="4.33268">
        <ele>1063.2</ele>
        <time>2026-04-30T07:20:41Z</time>
      </trkpt>
      <trkpt lat="45.01081" lon="4.33272">
        <ele>1062.6</ele>
        <time>2026-04-30T07:20:46Z</time>
      </trkpt>
      <trkpt lat="45.01081" lon="4.33272">
        <ele>1062.6</ele>
        <time>2026-04-30T07:20:51Z</time>
      </trkpt>
      <trkpt lat="45.01082" lon="4.33272">
        <ele>1062.4</ele>
        <time>2026-04-30T07:20:56Z</time>
      </trkpt>
      <trkpt lat="45.01082" lon="4.33272">
        <ele>1062.4</ele>
        <time>2026-04-30T07:21:01Z</time>
      </trkpt>
      <trkpt lat="45.01082" lon="4.33272">
        <ele>1062.4</ele>
        <time>2026-04-30T07:21:06Z</time>
      </trkpt>
      <trkpt lat="45.01082" lon="4.33272">
        <ele>1062.4</ele>
        <time>2026-04-30T07:21:11Z</time>
      </trkpt>
      <trkpt lat="45.01082" lon="4.33272">
        <ele>1062.4</ele>
        <time>2026-04-30T07:21:16Z</time>
      </trkpt>
      <trkpt lat="45.01082" lon="4.33272">
        <ele>1062.4</ele>
        <time>2026-04-30T07:21:21Z</time>
      </trkpt>
      <trkpt lat="45.01082" lon="4.33272">
        <ele>1062.4</ele>
        <time>2026-04-30T07:21:26Z</time>
      </trkpt>
      <trkpt lat="45.01082" lon="4.33272">
        <ele>1062.4</ele>
        <time>2026-04-30T07:21:31Z</time>
      </trkpt>
      <trkpt lat="45.01082" lon="4.33272">
        <ele>1062.4</ele>
        <time>2026-04-30T07:21:36Z</time>
      </trkpt>
      <trkpt lat="45.01082" lon="4.33272">
        <ele>1062.4</ele>
        <time>2026-04-30T07:21:41Z</time>
      </trkpt>
      <trkpt lat="45.01082" lon="4.33272">
        <ele>1062.4</ele>
        <time>2026-04-30T07:21:46Z</time>
      </trkpt>
      <trkpt lat="45.01082" lon="4.33272">
        <ele>1062.4</ele>
        <time>2026-04-30T07:21:51Z</time>
      </trkpt>
      <trkpt lat="45.01082" lon="4.33272">
        <ele>1062.4</ele>
        <time>2026-04-30T07:21:56Z</time>
      </trkpt>
      <trkpt lat="45.01082" lon="4.33272">
        <ele>1062.4</ele>
        <time>2026-04-30T07:22:01Z</time>
      </trkpt>
      <trkpt lat="45.01082" lon="4.33272">
        <ele>1062.4</ele>
        <time>2026-04-30T07:22:06Z</time>
      </trkpt>
      <trkpt lat="45.01082" lon="4.33272">
        <ele>1062.4</ele>
        <time>2026-04-30T07:22:11Z</time>
      </trkpt>
      <trkpt lat="45.01082" lon="4.33272">
        <ele>1062.4</ele>
        <time>2026-04-30T07:22:16Z</time>
      </trkpt>
      <trkpt lat="45.01082" lon="4.33272">
        <ele>1062.4</ele>
        <time>2026-04-30T07:22:21Z</time>
      </trkpt>
      <trkpt lat="45.01082" lon="4.33272">
        <ele>1062.4</ele>
        <time>2026-04-30T07:22:26Z</time>
      </trkpt>
      <trkpt lat="45.01082" lon="4.33272">
        <ele>1062.4</ele>
        <time>2026-04-30T07:22:31Z</time>
      </trkpt>
      <trkpt lat="45.01082" lon="4.33272">
        <ele>1062.4</ele>
        <time>2026-04-30T07:22:36Z</time>
      </trkpt>
      <trkpt lat="45.01082" lon="4.33272">
        <ele>1062.4</ele>
        <time>2026-04-30T07:22:41Z</time>
      </trkpt>
      <trkpt lat="45.01082" lon="4.33272">
        <ele>1062.4</ele>
        <time>2026-04-30T07:22:46Z</time>
      </trkpt>
      <trkpt lat="45.01082" lon="4.33272">
        <ele>1062.4</ele>
        <time>2026-04-30T07:22:51Z</time>
      </trkpt>
      <trkpt lat="45.01082" lon="4.33272">
        <ele>1062.4</ele>
        <time>2026-04-30T07:22:56Z</time>
      </trkpt>
      <trkpt lat="45.01094" lon="4.33277">
        <ele>1060.5</ele>
        <time>2026-04-30T07:23:01Z</time>
      </trkpt>
      <trkpt lat="45.01096" lon="4.33285">
        <ele>1059.8</ele>
        <time>2026-04-30T07:23:06Z</time>
      </trkpt>
      <trkpt lat="45.01094" lon="4.33285">
        <ele>1060.1</ele>
        <time>2026-04-30T07:23:11Z</time>
      </trkpt>
      <trkpt lat="45.01093" lon="4.33285">
        <ele>1060.3</ele>
        <time>2026-04-30T07:23:16Z</time>
      </trkpt>
      <trkpt lat="45.01093" lon="4.33294">
        <ele>1059.8</ele>
        <time>2026-04-30T07:23:21Z</time>
      </trkpt>
      <trkpt lat="45.01094" lon="4.33303">
        <ele>1059.2</ele>
        <time>2026-04-30T07:23:26Z</time>
      </trkpt>
      <trkpt lat="45.01097" lon="4.3331">
        <ele>1058.4</ele>
        <time>2026-04-30T07:23:31Z</time>
      </trkpt>
      <trkpt lat="45.011" lon="4.33317">
        <ele>1057.6</ele>
        <time>2026-04-30T07:23:36Z</time>
      </trkpt>
      <trkpt lat="45.01102" lon="4.33324">
        <ele>1057</ele>
        <time>2026-04-30T07:23:41Z</time>
      </trkpt>
      <trkpt lat="45.01105" lon="4.33329">
        <ele>1056.3</ele>
        <time>2026-04-30T07:23:46Z</time>
      </trkpt>
      <trkpt lat="45.01107" lon="4.33337">
        <ele>1055.5</ele>
        <time>2026-04-30T07:23:51Z</time>
      </trkpt>
      <trkpt lat="45.01109" lon="4.33345">
        <ele>1054.5</ele>
        <time>2026-04-30T07:23:56Z</time>
      </trkpt>
      <trkpt lat="45.01111" lon="4.33352">
        <ele>1053.7</ele>
        <time>2026-04-30T07:24:01Z</time>
      </trkpt>
      <trkpt lat="45.01113" lon="4.33358">
        <ele>1053</ele>
        <time>2026-04-30T07:24:06Z</time>
      </trkpt>
      <trkpt lat="45.01116" lon="4.33363">
        <ele>1052.4</ele>
        <time>2026-04-30T07:24:11Z</time>
      </trkpt>
      <trkpt lat="45.01119" lon="4.33369">
        <ele>1051.9</ele>
        <time>2026-04-30T07:24:16Z</time>
      </trkpt>
      <trkpt lat="45.01122" lon="4.33375">
        <ele>1051.3</ele>
        <time>2026-04-30T07:24:21Z</time>
      </trkpt>
      <trkpt lat="45.01127" lon="4.33381">
        <ele>1050.6</ele>
        <time>2026-04-30T07:24:26Z</time>
      </trkpt>
      <trkpt lat="45.01129" lon="4.33387">
        <ele>1050.1</ele>
        <time>2026-04-30T07:24:31Z</time>
      </trkpt>
      <trkpt lat="45.01131" lon="4.33394">
        <ele>1049.7</ele>
        <time>2026-04-30T07:24:36Z</time>
      </trkpt>
      <trkpt lat="45.01134" lon="4.33404">
        <ele>1049</ele>
        <time>2026-04-30T07:24:41Z</time>
      </trkpt>
      <trkpt lat="45.01138" lon="4.33413">
        <ele>1048.2</ele>
        <time>2026-04-30T07:24:46Z</time>
        <extensions>
          <visugpx:TrkExtension xmlns:visugpx="https://www.visugpx.com/editgpx/">
            <visugpx:node>7</visugpx:node>
            </visugpx:TrkExtension>
        </extensions>
      </trkpt>
      <trkpt lat="45.01138" lon="4.33413">
        <ele>1059.8</ele>
        <time>2026-04-30T07:24:46Z</time>
      </trkpt>
      <trkpt lat="45.01139" lon="4.33422">
        <ele>1059</ele>
        <time>2026-04-30T07:24:51Z</time>
      </trkpt>
      <trkpt lat="45.01139" lon="4.33428">
        <ele>1058.6</ele>
        <time>2026-04-30T07:24:56Z</time>
      </trkpt>
      <trkpt lat="45.01138" lon="4.33434">
        <ele>1058.4</ele>
        <time>2026-04-30T07:25:01Z</time>
      </trkpt>
      <trkpt lat="45.01137" lon="4.33441">
        <ele>1058.1</ele>
        <time>2026-04-30T07:25:06Z</time>
      </trkpt>
      <trkpt lat="45.01138" lon="4.33451">
        <ele>1057.3</ele>
        <time>2026-04-30T07:25:11Z</time>
      </trkpt>
      <trkpt lat="45.0114" lon="4.3346">
        <ele>1056.4</ele>
        <time>2026-04-30T07:25:16Z</time>
      </trkpt>
      <trkpt lat="45.01143" lon="4.33468">
        <ele>1055.4</ele>
        <time>2026-04-30T07:25:21Z</time>
      </trkpt>
      <trkpt lat="45.01148" lon="4.33475">
        <ele>1054.3</ele>
        <time>2026-04-30T07:25:26Z</time>
      </trkpt>
      <trkpt lat="45.0115" lon="4.33483">
        <ele>1053.5</ele>
        <time>2026-04-30T07:25:31Z</time>
      </trkpt>
      <trkpt lat="45.01153" lon="4.33494">
        <ele>1052.3</ele>
        <time>2026-04-30T07:25:36Z</time>
      </trkpt>
      <trkpt lat="45.01157" lon="4.33503">
        <ele>1051.3</ele>
        <time>2026-04-30T07:25:41Z</time>
      </trkpt>
      <trkpt lat="45.0116" lon="4.3351">
        <ele>1050.5</ele>
        <time>2026-04-30T07:25:46Z</time>
      </trkpt>
      <trkpt lat="45.01164" lon="4.33518">
        <ele>1049.6</ele>
        <time>2026-04-30T07:25:51Z</time>
      </trkpt>
      <trkpt lat="45.01168" lon="4.33525">
        <ele>1048.7</ele>
        <time>2026-04-30T07:25:56Z</time>
      </trkpt>
      <trkpt lat="45.01174" lon="4.33532">
        <ele>1047.9</ele>
        <time>2026-04-30T07:26:01Z</time>
      </trkpt>
      <trkpt lat="45.0118" lon="4.33541">
        <ele>1047</ele>
        <time>2026-04-30T07:26:06Z</time>
      </trkpt>
      <trkpt lat="45.01184" lon="4.33548">
        <ele>1046.3</ele>
        <time>2026-04-30T07:26:11Z</time>
      </trkpt>
      <trkpt lat="45.01189" lon="4.33556">
        <ele>1045.5</ele>
        <time>2026-04-30T07:26:16Z</time>
      </trkpt>
      <trkpt lat="45.01194" lon="4.33566">
        <ele>1044.6</ele>
        <time>2026-04-30T07:26:21Z</time>
      </trkpt>
      <trkpt lat="45.01198" lon="4.33575">
        <ele>1043.8</ele>
        <time>2026-04-30T07:26:26Z</time>
      </trkpt>
      <trkpt lat="45.01201" lon="4.33586">
        <ele>1043</ele>
        <time>2026-04-30T07:26:31Z</time>
      </trkpt>
      <trkpt lat="45.01203" lon="4.33596">
        <ele>1042.6</ele>
        <time>2026-04-30T07:26:36Z</time>
      </trkpt>
      <trkpt lat="45.01205" lon="4.33606">
        <ele>1042.2</ele>
        <time>2026-04-30T07:26:41Z</time>
      </trkpt>
      <trkpt lat="45.01206" lon="4.33617">
        <ele>1041.9</ele>
        <time>2026-04-30T07:26:46Z</time>
      </trkpt>
      <trkpt lat="45.01207" lon="4.33628">
        <ele>1041.5</ele>
        <time>2026-04-30T07:26:51Z</time>
      </trkpt>
      <trkpt lat="45.01207" lon="4.33639">
        <ele>1041.3</ele>
        <time>2026-04-30T07:26:56Z</time>
      </trkpt>
      <trkpt lat="45.0121" lon="4.33649">
        <ele>1040.8</ele>
        <time>2026-04-30T07:27:01Z</time>
      </trkpt>
      <trkpt lat="45.01212" lon="4.33659">
        <ele>1040.5</ele>
        <time>2026-04-30T07:27:06Z</time>
      </trkpt>
      <trkpt lat="45.01214" lon="4.3367">
        <ele>1040.1</ele>
        <time>2026-04-30T07:27:11Z</time>
      </trkpt>
      <trkpt lat="45.01217" lon="4.33679">
        <ele>1039.9</ele>
        <time>2026-04-30T07:27:16Z</time>
      </trkpt>
      <trkpt lat="45.0122" lon="4.33689">
        <ele>1039.7</ele>
        <time>2026-04-30T07:27:21Z</time>
      </trkpt>
      <trkpt lat="45.01224" lon="4.337">
        <ele>1039.5</ele>
        <time>2026-04-30T07:27:26Z</time>
      </trkpt>
      <trkpt lat="45.01227" lon="4.33709">
        <ele>1039.4</ele>
        <time>2026-04-30T07:27:31Z</time>
      </trkpt>
      <trkpt lat="45.01232" lon="4.33718">
        <ele>1039.4</ele>
        <time>2026-04-30T07:27:36Z</time>
      </trkpt>
      <trkpt lat="45.01235" lon="4.33728">
        <ele>1039.4</ele>
        <time>2026-04-30T07:27:41Z</time>
      </trkpt>
      <trkpt lat="45.01237" lon="4.33736">
        <ele>1039.5</ele>
        <time>2026-04-30T07:27:46Z</time>
      </trkpt>
      <trkpt lat="45.0124" lon="4.33738">
        <ele>1039.6</ele>
        <time>2026-04-30T07:27:51Z</time>
      </trkpt>
      <trkpt lat="45.0124" lon="4.33741">
        <ele>1039.6</ele>
        <time>2026-04-30T07:27:56Z</time>
      </trkpt>
      <trkpt lat="45.01243" lon="4.3375">
        <ele>1039.8</ele>
        <time>2026-04-30T07:28:01Z</time>
      </trkpt>
      <trkpt lat="45.01246" lon="4.33759">
        <ele>1039.4</ele>
        <time>2026-04-30T07:28:06Z</time>
      </trkpt>
      <trkpt lat="45.01248" lon="4.33767">
        <ele>1039</ele>
        <time>2026-04-30T07:28:11Z</time>
      </trkpt>
      <trkpt lat="45.01249" lon="4.33778">
        <ele>1038.3</ele>
        <time>2026-04-30T07:28:16Z</time>
      </trkpt>
      <trkpt lat="45.01251" lon="4.33789">
        <ele>1037.7</ele>
        <time>2026-04-30T07:28:21Z</time>
      </trkpt>
      <trkpt lat="45.01253" lon="4.338">
        <ele>1037.2</ele>
        <time>2026-04-30T07:28:26Z</time>
      </trkpt>
      <trkpt lat="45.01255" lon="4.33808">
        <ele>1036.8</ele>
        <time>2026-04-30T07:28:31Z</time>
      </trkpt>
      <trkpt lat="45.01258" lon="4.3382">
        <ele>1036.3</ele>
        <time>2026-04-30T07:28:36Z</time>
      </trkpt>
      <trkpt lat="45.01261" lon="4.3383">
        <ele>1036</ele>
        <time>2026-04-30T07:28:41Z</time>
      </trkpt>
      <trkpt lat="45.01264" lon="4.3384">
        <ele>1035.9</ele>
        <time>2026-04-30T07:28:46Z</time>
      </trkpt>
      <trkpt lat="45.01268" lon="4.33849">
        <ele>1036</ele>
        <time>2026-04-30T07:28:51Z</time>
      </trkpt>
      <trkpt lat="45.01271" lon="4.33858">
        <ele>1036</ele>
        <time>2026-04-30T07:28:56Z</time>
      </trkpt>
      <trkpt lat="45.01275" lon="4.33866">
        <ele>1036.1</ele>
        <time>2026-04-30T07:29:01Z</time>
      </trkpt>
      <trkpt lat="45.01279" lon="4.33877">
        <ele>1036.2</ele>
        <time>2026-04-30T07:29:06Z</time>
      </trkpt>
      <trkpt lat="45.01284" lon="4.33886">
        <ele>1036.4</ele>
        <time>2026-04-30T07:29:11Z</time>
      </trkpt>
      <trkpt lat="45.01288" lon="4.33896">
        <ele>1036.6</ele>
        <time>2026-04-30T07:29:16Z</time>
      </trkpt>
      <trkpt lat="45.01293" lon="4.33905">
        <ele>1036.8</ele>
        <time>2026-04-30T07:29:21Z</time>
      </trkpt>
      <trkpt lat="45.01299" lon="4.33915">
        <ele>1037.1</ele>
        <time>2026-04-30T07:29:26Z</time>
      </trkpt>
      <trkpt lat="45.01304" lon="4.33923">
        <ele>1037.5</ele>
        <time>2026-04-30T07:29:31Z</time>
      </trkpt>
      <trkpt lat="45.01309" lon="4.33933">
        <ele>1037.9</ele>
        <time>2026-04-30T07:29:36Z</time>
      </trkpt>
      <trkpt lat="45.01315" lon="4.33941">
        <ele>1038.4</ele>
        <time>2026-04-30T07:29:41Z</time>
      </trkpt>
      <trkpt lat="45.0132" lon="4.3395">
        <ele>1038.8</ele>
        <time>2026-04-30T07:29:46Z</time>
      </trkpt>
      <trkpt lat="45.01325" lon="4.33957">
        <ele>1039.3</ele>
        <time>2026-04-30T07:29:51Z</time>
      </trkpt>
      <trkpt lat="45.01332" lon="4.33964">
        <ele>1039.9</ele>
        <time>2026-04-30T07:29:56Z</time>
      </trkpt>
      <trkpt lat="45.01338" lon="4.33969">
        <ele>1040.2</ele>
        <time>2026-04-30T07:30:01Z</time>
      </trkpt>
      <trkpt lat="45.01344" lon="4.33972">
        <ele>1040.5</ele>
        <time>2026-04-30T07:30:06Z</time>
      </trkpt>
      <trkpt lat="45.0135" lon="4.33977">
        <ele>1040.8</ele>
        <time>2026-04-30T07:30:11Z</time>
      </trkpt>
      <trkpt lat="45.01357" lon="4.33984">
        <ele>1041</ele>
        <time>2026-04-30T07:30:16Z</time>
      </trkpt>
      <trkpt lat="45.01362" lon="4.3399">
        <ele>1041.2</ele>
        <time>2026-04-30T07:30:21Z</time>
      </trkpt>
      <trkpt lat="45.01367" lon="4.33994">
        <ele>1041.3</ele>
        <time>2026-04-30T07:30:26Z</time>
      </trkpt>
      <trkpt lat="45.01373" lon="4.33999">
        <ele>1041.4</ele>
        <time>2026-04-30T07:30:31Z</time>
      </trkpt>
      <trkpt lat="45.01379" lon="4.34006">
        <ele>1041.6</ele>
        <time>2026-04-30T07:30:36Z</time>
      </trkpt>
      <trkpt lat="45.01386" lon="4.34015">
        <ele>1041.6</ele>
        <time>2026-04-30T07:30:41Z</time>
      </trkpt>
      <trkpt lat="45.01393" lon="4.34023">
        <ele>1041.6</ele>
        <time>2026-04-30T07:30:46Z</time>
      </trkpt>
      <trkpt lat="45.01397" lon="4.3403">
        <ele>1041.6</ele>
        <time>2026-04-30T07:30:51Z</time>
      </trkpt>
      <trkpt lat="45.01401" lon="4.34039">
        <ele>1041.4</ele>
        <time>2026-04-30T07:30:56Z</time>
      </trkpt>
      <trkpt lat="45.01405" lon="4.34048">
        <ele>1041.2</ele>
        <time>2026-04-30T07:31:01Z</time>
      </trkpt>
      <trkpt lat="45.01409" lon="4.34057">
        <ele>1040.9</ele>
        <time>2026-04-30T07:31:06Z</time>
      </trkpt>
      <trkpt lat="45.01411" lon="4.34067">
        <ele>1040.6</ele>
        <time>2026-04-30T07:31:11Z</time>
      </trkpt>
      <trkpt lat="45.01414" lon="4.34075">
        <ele>1040.3</ele>
        <time>2026-04-30T07:31:16Z</time>
      </trkpt>
      <trkpt lat="45.01417" lon="4.34087">
        <ele>1039.9</ele>
        <time>2026-04-30T07:31:21Z</time>
      </trkpt>
      <trkpt lat="45.0142" lon="4.34095">
        <ele>1039.9</ele>
        <time>2026-04-30T07:31:26Z</time>
      </trkpt>
      <trkpt lat="45.01422" lon="4.34105">
        <ele>1039.7</ele>
        <time>2026-04-30T07:31:31Z</time>
      </trkpt>
      <trkpt lat="45.01425" lon="4.34113">
        <ele>1039.6</ele>
        <time>2026-04-30T07:31:36Z</time>
      </trkpt>
      <trkpt lat="45.01428" lon="4.34126">
        <ele>1039.4</ele>
        <time>2026-04-30T07:31:41Z</time>
      </trkpt>
      <trkpt lat="45.01431" lon="4.34139">
        <ele>1039.2</ele>
        <time>2026-04-30T07:31:46Z</time>
      </trkpt>
      <trkpt lat="45.01434" lon="4.34151">
        <ele>1039</ele>
        <time>2026-04-30T07:31:51Z</time>
      </trkpt>
      <trkpt lat="45.01437" lon="4.34162">
        <ele>1038.9</ele>
        <time>2026-04-30T07:31:56Z</time>
      </trkpt>
      <trkpt lat="45.01439" lon="4.34173">
        <ele>1038.8</ele>
        <time>2026-04-30T07:32:01Z</time>
      </trkpt>
      <trkpt lat="45.01441" lon="4.34183">
        <ele>1038.7</ele>
        <time>2026-04-30T07:32:06Z</time>
      </trkpt>
      <trkpt lat="45.01445" lon="4.34192">
        <ele>1038.9</ele>
        <time>2026-04-30T07:32:11Z</time>
      </trkpt>
      <trkpt lat="45.01448" lon="4.34202">
        <ele>1038.9</ele>
        <time>2026-04-30T07:32:16Z</time>
      </trkpt>
      <trkpt lat="45.0145" lon="4.34212">
        <ele>1038.8</ele>
        <time>2026-04-30T07:32:21Z</time>
      </trkpt>
      <trkpt lat="45.01454" lon="4.34222">
        <ele>1038.9</ele>
        <time>2026-04-30T07:32:26Z</time>
      </trkpt>
      <trkpt lat="45.01458" lon="4.34234">
        <ele>1038.9</ele>
        <time>2026-04-30T07:32:31Z</time>
      </trkpt>
      <trkpt lat="45.01462" lon="4.34244">
        <ele>1038.9</ele>
        <time>2026-04-30T07:32:36Z</time>
      </trkpt>
      <trkpt lat="45.01465" lon="4.34255">
        <ele>1039.2</ele>
        <time>2026-04-30T07:32:41Z</time>
      </trkpt>
      <trkpt lat="45.01467" lon="4.34265">
        <ele>1039.8</ele>
        <time>2026-04-30T07:32:46Z</time>
      </trkpt>
      <trkpt lat="45.0147" lon="4.34273">
        <ele>1040.4</ele>
        <time>2026-04-30T07:32:51Z</time>
      </trkpt>
      <trkpt lat="45.01473" lon="4.34283">
        <ele>1041.1</ele>
        <time>2026-04-30T07:32:56Z</time>
      </trkpt>
      <trkpt lat="45.01475" lon="4.34292">
        <ele>1041.7</ele>
        <time>2026-04-30T07:33:01Z</time>
      </trkpt>
      <trkpt lat="45.01478" lon="4.34302">
        <ele>1042.3</ele>
        <time>2026-04-30T07:33:06Z</time>
      </trkpt>
      <trkpt lat="45.01482" lon="4.34312">
        <ele>1043.1</ele>
        <time>2026-04-30T07:33:11Z</time>
      </trkpt>
      <trkpt lat="45.01485" lon="4.34322">
        <ele>1043.7</ele>
        <time>2026-04-30T07:33:16Z</time>
      </trkpt>
      <trkpt lat="45.01489" lon="4.34331">
        <ele>1044.4</ele>
        <time>2026-04-30T07:33:21Z</time>
      </trkpt>
      <trkpt lat="45.01493" lon="4.34344">
        <ele>1045.5</ele>
        <time>2026-04-30T07:33:26Z</time>
      </trkpt>
      <trkpt lat="45.01497" lon="4.34353">
        <ele>1046.5</ele>
        <time>2026-04-30T07:33:31Z</time>
      </trkpt>
      <trkpt lat="45.015" lon="4.34362">
        <ele>1047.4</ele>
        <time>2026-04-30T07:33:36Z</time>
      </trkpt>
      <trkpt lat="45.01503" lon="4.34371">
        <ele>1047.9</ele>
        <time>2026-04-30T07:33:41Z</time>
      </trkpt>
      <trkpt lat="45.01507" lon="4.34383">
        <ele>1048.5</ele>
        <time>2026-04-30T07:33:46Z</time>
      </trkpt>
      <trkpt lat="45.01511" lon="4.34391">
        <ele>1048.8</ele>
        <time>2026-04-30T07:33:51Z</time>
      </trkpt>
      <trkpt lat="45.01516" lon="4.34401">
        <ele>1049</ele>
        <time>2026-04-30T07:33:56Z</time>
      </trkpt>
      <trkpt lat="45.0152" lon="4.34407">
        <ele>1049</ele>
        <time>2026-04-30T07:34:01Z</time>
      </trkpt>
      <trkpt lat="45.01524" lon="4.34417">
        <ele>1049.1</ele>
        <time>2026-04-30T07:34:06Z</time>
      </trkpt>
      <trkpt lat="45.01527" lon="4.34427">
        <ele>1048.9</ele>
        <time>2026-04-30T07:34:11Z</time>
      </trkpt>
      <trkpt lat="45.0153" lon="4.34438">
        <ele>1048.7</ele>
        <time>2026-04-30T07:34:16Z</time>
      </trkpt>
      <trkpt lat="45.01534" lon="4.3445">
        <ele>1048.4</ele>
        <time>2026-04-30T07:34:21Z</time>
      </trkpt>
      <trkpt lat="45.01537" lon="4.34459">
        <ele>1048.1</ele>
        <time>2026-04-30T07:34:26Z</time>
      </trkpt>
      <trkpt lat="45.01539" lon="4.34467">
        <ele>1048</ele>
        <time>2026-04-30T07:34:31Z</time>
      </trkpt>
      <trkpt lat="45.01539" lon="4.34479">
        <ele>1048.1</ele>
        <time>2026-04-30T07:34:36Z</time>
      </trkpt>
      <trkpt lat="45.01539" lon="4.34491">
        <ele>1048.3</ele>
        <time>2026-04-30T07:34:41Z</time>
      </trkpt>
      <trkpt lat="45.01542" lon="4.34501">
        <ele>1047.9</ele>
        <time>2026-04-30T07:34:46Z</time>
      </trkpt>
      <trkpt lat="45.01543" lon="4.34518">
        <ele>1046.7</ele>
        <time>2026-04-30T07:34:51Z</time>
      </trkpt>
      <trkpt lat="45.01544" lon="4.34529">
        <ele>1045.9</ele>
        <time>2026-04-30T07:34:56Z</time>
      </trkpt>
      <trkpt lat="45.01544" lon="4.34542">
        <ele>1045.1</ele>
        <time>2026-04-30T07:35:01Z</time>
      </trkpt>
      <trkpt lat="45.01544" lon="4.34552">
        <ele>1044.5</ele>
        <time>2026-04-30T07:35:06Z</time>
      </trkpt>
      <trkpt lat="45.01542" lon="4.34564">
        <ele>1044.1</ele>
        <time>2026-04-30T07:35:11Z</time>
      </trkpt>
      <trkpt lat="45.01539" lon="4.34574">
        <ele>1043.9</ele>
        <time>2026-04-30T07:35:16Z</time>
      </trkpt>
      <trkpt lat="45.01536" lon="4.34583">
        <ele>1043.8</ele>
        <time>2026-04-30T07:35:21Z</time>
      </trkpt>
      <trkpt lat="45.01535" lon="4.34594">
        <ele>1043</ele>
        <time>2026-04-30T07:35:26Z</time>
      </trkpt>
      <trkpt lat="45.01532" lon="4.34603">
        <ele>1042.6</ele>
        <time>2026-04-30T07:35:31Z</time>
      </trkpt>
      <trkpt lat="45.01531" lon="4.34614">
        <ele>1041.7</ele>
        <time>2026-04-30T07:35:36Z</time>
      </trkpt>
      <trkpt lat="45.0153" lon="4.34624">
        <ele>1041</ele>
        <time>2026-04-30T07:35:41Z</time>
      </trkpt>
      <trkpt lat="45.01529" lon="4.34635">
        <ele>1040.1</ele>
        <time>2026-04-30T07:35:46Z</time>
      </trkpt>
      <trkpt lat="45.01527" lon="4.34645">
        <ele>1039.4</ele>
        <time>2026-04-30T07:35:51Z</time>
      </trkpt>
      <trkpt lat="45.01528" lon="4.34639">
        <ele>1039.8</ele>
        <time>2026-04-30T07:35:56Z</time>
      </trkpt>
      <trkpt lat="45.0153" lon="4.34631">
        <ele>1040.3</ele>
        <time>2026-04-30T07:36:01Z</time>
      </trkpt>
      <trkpt lat="45.01534" lon="4.34624">
        <ele>1040.4</ele>
        <time>2026-04-30T07:36:06Z</time>
      </trkpt>
      <trkpt lat="45.01535" lon="4.34628">
        <ele>1039.9</ele>
        <time>2026-04-30T07:36:11Z</time>
      </trkpt>
      <trkpt lat="45.01537" lon="4.34636">
        <ele>1038.9</ele>
        <time>2026-04-30T07:36:16Z</time>
      </trkpt>
      <trkpt lat="45.01539" lon="4.34646">
        <ele>1037.7</ele>
        <time>2026-04-30T07:36:21Z</time>
      </trkpt>
      <trkpt lat="45.01538" lon="4.34652">
        <ele>1037.3</ele>
        <time>2026-04-30T07:36:26Z</time>
      </trkpt>
      <trkpt lat="45.01539" lon="4.34659">
        <ele>1036.5</ele>
        <time>2026-04-30T07:36:31Z</time>
      </trkpt>
      <trkpt lat="45.01543" lon="4.34665">
        <ele>1035.5</ele>
        <time>2026-04-30T07:36:36Z</time>
      </trkpt>
      <trkpt lat="45.01545" lon="4.34671">
        <ele>1034.5</ele>
        <time>2026-04-30T07:36:41Z</time>
      </trkpt>
      <trkpt lat="45.01548" lon="4.3468">
        <ele>1033</ele>
        <time>2026-04-30T07:36:46Z</time>
      </trkpt>
      <trkpt lat="45.01549" lon="4.34687">
        <ele>1032</ele>
        <time>2026-04-30T07:36:51Z</time>
      </trkpt>
      <trkpt lat="45.01553" lon="4.34692">
        <ele>1030.9</ele>
        <time>2026-04-30T07:36:56Z</time>
      </trkpt>
      <trkpt lat="45.01557" lon="4.347">
        <ele>1029.5</ele>
        <time>2026-04-30T07:37:01Z</time>
      </trkpt>
      <trkpt lat="45.01559" lon="4.34707">
        <ele>1028.4</ele>
        <time>2026-04-30T07:37:06Z</time>
      </trkpt>
      <trkpt lat="45.01562" lon="4.34715">
        <ele>1027.2</ele>
        <time>2026-04-30T07:37:11Z</time>
      </trkpt>
      <trkpt lat="45.01564" lon="4.34723">
        <ele>1026</ele>
        <time>2026-04-30T07:37:16Z</time>
      </trkpt>
      <trkpt lat="45.01565" lon="4.34734">
        <ele>1024.6</ele>
        <time>2026-04-30T07:37:21Z</time>
      </trkpt>
      <trkpt lat="45.01566" lon="4.34743">
        <ele>1023.5</ele>
        <time>2026-04-30T07:37:26Z</time>
      </trkpt>
      <trkpt lat="45.01567" lon="4.34752">
        <ele>1022.5</ele>
        <time>2026-04-30T07:37:31Z</time>
      </trkpt>
      <trkpt lat="45.0157" lon="4.34764">
        <ele>1021.6</ele>
        <time>2026-04-30T07:37:36Z</time>
      </trkpt>
      <trkpt lat="45.01574" lon="4.34772">
        <ele>1020.9</ele>
        <time>2026-04-30T07:37:41Z</time>
      </trkpt>
      <trkpt lat="45.01582" lon="4.34779">
        <ele>1020.1</ele>
        <time>2026-04-30T07:37:46Z</time>
      </trkpt>
      <trkpt lat="45.01586" lon="4.34784">
        <ele>1019.6</ele>
        <time>2026-04-30T07:37:51Z</time>
      </trkpt>
      <trkpt lat="45.01589" lon="4.34789">
        <ele>1019.3</ele>
        <time>2026-04-30T07:37:56Z</time>
      </trkpt>
      <trkpt lat="45.01593" lon="4.34798">
        <ele>1018.7</ele>
        <time>2026-04-30T07:38:01Z</time>
      </trkpt>
      <trkpt lat="45.01594" lon="4.34806">
        <ele>1018.4</ele>
        <time>2026-04-30T07:38:06Z</time>
      </trkpt>
      <trkpt lat="45.01593" lon="4.34809">
        <ele>1018.3</ele>
        <time>2026-04-30T07:38:11Z</time>
      </trkpt>
      <trkpt lat="45.01593" lon="4.34809">
        <ele>1018.3</ele>
        <time>2026-04-30T07:38:16Z</time>
      </trkpt>
      <trkpt lat="45.01593" lon="4.34809">
        <ele>1018.3</ele>
        <time>2026-04-30T07:38:21Z</time>
      </trkpt>
      <trkpt lat="45.016" lon="4.34817">
        <ele>1017.7</ele>
        <time>2026-04-30T07:38:26Z</time>
      </trkpt>
      <trkpt lat="45.01606" lon="4.34825">
        <ele>1017.2</ele>
        <time>2026-04-30T07:38:31Z</time>
      </trkpt>
      <trkpt lat="45.0161" lon="4.34836">
        <ele>1016.7</ele>
        <time>2026-04-30T07:38:36Z</time>
      </trkpt>
      <trkpt lat="45.01613" lon="4.34848">
        <ele>1016.5</ele>
        <time>2026-04-30T07:38:41Z</time>
      </trkpt>
      <trkpt lat="45.01614" lon="4.34856">
        <ele>1016.5</ele>
        <time>2026-04-30T07:38:46Z</time>
      </trkpt>
      <trkpt lat="45.01617" lon="4.34863">
        <ele>1016.4</ele>
        <time>2026-04-30T07:38:51Z</time>
      </trkpt>
      <trkpt lat="45.01618" lon="4.34869">
        <ele>1016.4</ele>
        <time>2026-04-30T07:38:56Z</time>
      </trkpt>
      <trkpt lat="45.01621" lon="4.34874">
        <ele>1016.3</ele>
        <time>2026-04-30T07:39:01Z</time>
      </trkpt>
      <trkpt lat="45.01624" lon="4.3488">
        <ele>1016.3</ele>
        <time>2026-04-30T07:39:06Z</time>
      </trkpt>
      <trkpt lat="45.01627" lon="4.34887">
        <ele>1016.3</ele>
        <time>2026-04-30T07:39:11Z</time>
      </trkpt>
      <trkpt lat="45.01629" lon="4.34893">
        <ele>1016.3</ele>
        <time>2026-04-30T07:39:16Z</time>
      </trkpt>
      <trkpt lat="45.01631" lon="4.34899">
        <ele>1016.4</ele>
        <time>2026-04-30T07:39:21Z</time>
      </trkpt>
      <trkpt lat="45.01633" lon="4.34905">
        <ele>1016.5</ele>
        <time>2026-04-30T07:39:26Z</time>
      </trkpt>
      <trkpt lat="45.01636" lon="4.34911">
        <ele>1016.6</ele>
        <time>2026-04-30T07:39:31Z</time>
      </trkpt>
      <trkpt lat="45.0164" lon="4.34916">
        <ele>1016.7</ele>
        <time>2026-04-30T07:39:36Z</time>
      </trkpt>
      <trkpt lat="45.01641" lon="4.34922">
        <ele>1017.1</ele>
        <time>2026-04-30T07:39:41Z</time>
      </trkpt>
      <trkpt lat="45.01643" lon="4.34929">
        <ele>1017.7</ele>
        <time>2026-04-30T07:39:46Z</time>
      </trkpt>
      <trkpt lat="45.01646" lon="4.34937">
        <ele>1018.4</ele>
        <time>2026-04-30T07:39:51Z</time>
      </trkpt>
      <trkpt lat="45.01649" lon="4.34943">
        <ele>1019</ele>
        <time>2026-04-30T07:39:56Z</time>
      </trkpt>
      <trkpt lat="45.01652" lon="4.34949">
        <ele>1019.6</ele>
        <time>2026-04-30T07:40:01Z</time>
      </trkpt>
      <trkpt lat="45.01655" lon="4.34957">
        <ele>1020.4</ele>
        <time>2026-04-30T07:40:06Z</time>
      </trkpt>
      <trkpt lat="45.01658" lon="4.34966">
        <ele>1021.3</ele>
        <time>2026-04-30T07:40:11Z</time>
      </trkpt>
      <trkpt lat="45.01662" lon="4.34973">
        <ele>1022.2</ele>
        <time>2026-04-30T07:40:16Z</time>
      </trkpt>
      <trkpt lat="45.01665" lon="4.34981">
        <ele>1023.1</ele>
        <time>2026-04-30T07:40:21Z</time>
      </trkpt>
      <trkpt lat="45.01668" lon="4.34989">
        <ele>1024</ele>
        <time>2026-04-30T07:40:26Z</time>
      </trkpt>
      <trkpt lat="45.01672" lon="4.34998">
        <ele>1024.9</ele>
        <time>2026-04-30T07:40:31Z</time>
      </trkpt>
      <trkpt lat="45.01676" lon="4.35008">
        <ele>1026.1</ele>
        <time>2026-04-30T07:40:36Z</time>
      </trkpt>
      <trkpt lat="45.01679" lon="4.35015">
        <ele>1026.9</ele>
        <time>2026-04-30T07:40:41Z</time>
      </trkpt>
      <trkpt lat="45.01683" lon="4.35024">
        <ele>1027.9</ele>
        <time>2026-04-30T07:40:46Z</time>
      </trkpt>
      <trkpt lat="45.01687" lon="4.35034">
        <ele>1028.9</ele>
        <time>2026-04-30T07:40:51Z</time>
      </trkpt>
      <trkpt lat="45.01691" lon="4.35041">
        <ele>1029.5</ele>
        <time>2026-04-30T07:40:56Z</time>
      </trkpt>
      <trkpt lat="45.01694" lon="4.3505">
        <ele>1030.3</ele>
        <time>2026-04-30T07:41:01Z</time>
      </trkpt>
      <trkpt lat="45.01698" lon="4.35059">
        <ele>1031</ele>
        <time>2026-04-30T07:41:06Z</time>
      </trkpt>
      <trkpt lat="45.01702" lon="4.35068">
        <ele>1031.6</ele>
        <time>2026-04-30T07:41:11Z</time>
      </trkpt>
      <trkpt lat="45.01706" lon="4.35077">
        <ele>1032.1</ele>
        <time>2026-04-30T07:41:16Z</time>
      </trkpt>
      <trkpt lat="45.01709" lon="4.35085">
        <ele>1032.5</ele>
        <time>2026-04-30T07:41:21Z</time>
      </trkpt>
      <trkpt lat="45.01713" lon="4.35094">
        <ele>1032.5</ele>
        <time>2026-04-30T07:41:26Z</time>
      </trkpt>
      <trkpt lat="45.01717" lon="4.35103">
        <ele>1032.5</ele>
        <time>2026-04-30T07:41:31Z</time>
      </trkpt>
      <trkpt lat="45.01721" lon="4.35112">
        <ele>1032.4</ele>
        <time>2026-04-30T07:41:36Z</time>
      </trkpt>
      <trkpt lat="45.01724" lon="4.35121">
        <ele>1032.4</ele>
        <time>2026-04-30T07:41:41Z</time>
      </trkpt>
      <trkpt lat="45.01728" lon="4.35131">
        <ele>1032.3</ele>
        <time>2026-04-30T07:41:46Z</time>
      </trkpt>
      <trkpt lat="45.01732" lon="4.3514">
        <ele>1032.2</ele>
        <time>2026-04-30T07:41:51Z</time>
      </trkpt>
      <trkpt lat="45.01737" lon="4.35148">
        <ele>1031.9</ele>
        <time>2026-04-30T07:41:56Z</time>
      </trkpt>
      <trkpt lat="45.01741" lon="4.35156">
        <ele>1031.7</ele>
        <time>2026-04-30T07:42:01Z</time>
      </trkpt>
      <trkpt lat="45.01743" lon="4.35164">
        <ele>1031.6</ele>
        <time>2026-04-30T07:42:06Z</time>
      </trkpt>
      <trkpt lat="45.01743" lon="4.35166">
        <ele>1031.7</ele>
        <time>2026-04-30T07:42:11Z</time>
      </trkpt>
      <trkpt lat="45.01742" lon="4.35166">
        <ele>1031.8</ele>
        <time>2026-04-30T07:42:16Z</time>
      </trkpt>
      <trkpt lat="45.01742" lon="4.35166">
        <ele>1031.8</ele>
        <time>2026-04-30T07:42:21Z</time>
      </trkpt>
      <trkpt lat="45.01742" lon="4.35166">
        <ele>1031.8</ele>
        <time>2026-04-30T07:42:26Z</time>
      </trkpt>
      <trkpt lat="45.01748" lon="4.35173">
        <ele>1031</ele>
        <time>2026-04-30T07:42:31Z</time>
      </trkpt>
      <trkpt lat="45.01753" lon="4.3518">
        <ele>1030.4</ele>
        <time>2026-04-30T07:42:36Z</time>
      </trkpt>
      <trkpt lat="45.01757" lon="4.35187">
        <ele>1030.1</ele>
        <time>2026-04-30T07:42:41Z</time>
      </trkpt>
      <trkpt lat="45.01762" lon="4.35196">
        <ele>1029.7</ele>
        <time>2026-04-30T07:42:46Z</time>
      </trkpt>
      <trkpt lat="45.01768" lon="4.35204">
        <ele>1029.4</ele>
        <time>2026-04-30T07:42:51Z</time>
      </trkpt>
      <trkpt lat="45.01772" lon="4.35212">
        <ele>1029.2</ele>
        <time>2026-04-30T07:42:56Z</time>
      </trkpt>
      <trkpt lat="45.01777" lon="4.3522">
        <ele>1029</ele>
        <time>2026-04-30T07:43:01Z</time>
      </trkpt>
      <trkpt lat="45.0178" lon="4.35226">
        <ele>1029</ele>
        <time>2026-04-30T07:43:06Z</time>
      </trkpt>
      <trkpt lat="45.01785" lon="4.35233">
        <ele>1028.9</ele>
        <time>2026-04-30T07:43:11Z</time>
      </trkpt>
      <trkpt lat="45.01789" lon="4.35241">
        <ele>1029</ele>
        <time>2026-04-30T07:43:16Z</time>
      </trkpt>
      <trkpt lat="45.01794" lon="4.35248">
        <ele>1029.1</ele>
        <time>2026-04-30T07:43:21Z</time>
      </trkpt>
      <trkpt lat="45.01799" lon="4.35256">
        <ele>1029.2</ele>
        <time>2026-04-30T07:43:26Z</time>
      </trkpt>
      <trkpt lat="45.01804" lon="4.35265">
        <ele>1029.3</ele>
        <time>2026-04-30T07:43:31Z</time>
      </trkpt>
      <trkpt lat="45.01809" lon="4.35273">
        <ele>1029.5</ele>
        <time>2026-04-30T07:43:36Z</time>
      </trkpt>
      <trkpt lat="45.01813" lon="4.35282">
        <ele>1029.7</ele>
        <time>2026-04-30T07:43:41Z</time>
      </trkpt>
      <trkpt lat="45.01818" lon="4.3529">
        <ele>1029.9</ele>
        <time>2026-04-30T07:43:46Z</time>
      </trkpt>
      <trkpt lat="45.01823" lon="4.35299">
        <ele>1030.2</ele>
        <time>2026-04-30T07:43:51Z</time>
      </trkpt>
      <trkpt lat="45.01829" lon="4.35306">
        <ele>1030.5</ele>
        <time>2026-04-30T07:43:56Z</time>
      </trkpt>
      <trkpt lat="45.01834" lon="4.35313">
        <ele>1030.8</ele>
        <time>2026-04-30T07:44:01Z</time>
      </trkpt>
      <trkpt lat="45.01838" lon="4.35319">
        <ele>1031.3</ele>
        <time>2026-04-30T07:44:06Z</time>
      </trkpt>
      <trkpt lat="45.01841" lon="4.35326">
        <ele>1031.6</ele>
        <time>2026-04-30T07:44:11Z</time>
      </trkpt>
      <trkpt lat="45.01845" lon="4.35334">
        <ele>1032.1</ele>
        <time>2026-04-30T07:44:16Z</time>
      </trkpt>
      <trkpt lat="45.0185" lon="4.35343">
        <ele>1032.9</ele>
        <time>2026-04-30T07:44:21Z</time>
      </trkpt>
      <trkpt lat="45.01852" lon="4.35352">
        <ele>1033.3</ele>
        <time>2026-04-30T07:44:26Z</time>
      </trkpt>
      <trkpt lat="45.01856" lon="4.35361">
        <ele>1033.9</ele>
        <time>2026-04-30T07:44:31Z</time>
      </trkpt>
      <trkpt lat="45.01859" lon="4.35369">
        <ele>1034.4</ele>
        <time>2026-04-30T07:44:36Z</time>
      </trkpt>
      <trkpt lat="45.01862" lon="4.35378">
        <ele>1034.8</ele>
        <time>2026-04-30T07:44:41Z</time>
      </trkpt>
      <trkpt lat="45.01866" lon="4.35389">
        <ele>1035.4</ele>
        <time>2026-04-30T07:44:46Z</time>
      </trkpt>
      <trkpt lat="45.01869" lon="4.35399">
        <ele>1035.8</ele>
        <time>2026-04-30T07:44:51Z</time>
      </trkpt>
      <trkpt lat="45.01872" lon="4.35408">
        <ele>1036.2</ele>
        <time>2026-04-30T07:44:56Z</time>
      </trkpt>
      <trkpt lat="45.01873" lon="4.35417">
        <ele>1036.4</ele>
        <time>2026-04-30T07:45:01Z</time>
      </trkpt>
      <trkpt lat="45.01876" lon="4.35427">
        <ele>1036.7</ele>
        <time>2026-04-30T07:45:06Z</time>
      </trkpt>
      <trkpt lat="45.01879" lon="4.35436">
        <ele>1037.1</ele>
        <time>2026-04-30T07:45:11Z</time>
      </trkpt>
      <trkpt lat="45.01883" lon="4.35444">
        <ele>1037.4</ele>
        <time>2026-04-30T07:45:16Z</time>
      </trkpt>
      <trkpt lat="45.01887" lon="4.35453">
        <ele>1037.8</ele>
        <time>2026-04-30T07:45:21Z</time>
      </trkpt>
      <trkpt lat="45.01891" lon="4.35461">
        <ele>1038.2</ele>
        <time>2026-04-30T07:45:26Z</time>
      </trkpt>
      <trkpt lat="45.01896" lon="4.35471">
        <ele>1038.6</ele>
        <time>2026-04-30T07:45:31Z</time>
      </trkpt>
      <trkpt lat="45.019" lon="4.35481">
        <ele>1038.9</ele>
        <time>2026-04-30T07:45:36Z</time>
      </trkpt>
      <trkpt lat="45.01905" lon="4.35488">
        <ele>1039.3</ele>
        <time>2026-04-30T07:45:41Z</time>
      </trkpt>
      <trkpt lat="45.01909" lon="4.35494">
        <ele>1039.6</ele>
        <time>2026-04-30T07:45:46Z</time>
      </trkpt>
      <trkpt lat="45.01914" lon="4.35503">
        <ele>1039.8</ele>
        <time>2026-04-30T07:45:51Z</time>
      </trkpt>
      <trkpt lat="45.01919" lon="4.35512">
        <ele>1039.5</ele>
        <time>2026-04-30T07:45:56Z</time>
      </trkpt>
      <trkpt lat="45.01923" lon="4.3552">
        <ele>1039.1</ele>
        <time>2026-04-30T07:46:01Z</time>
      </trkpt>
      <trkpt lat="45.01925" lon="4.35529">
        <ele>1038.8</ele>
        <time>2026-04-30T07:46:06Z</time>
      </trkpt>
      <trkpt lat="45.01925" lon="4.35537">
        <ele>1038.5</ele>
        <time>2026-04-30T07:46:11Z</time>
      </trkpt>
      <trkpt lat="45.01926" lon="4.35544">
        <ele>1038.3</ele>
        <time>2026-04-30T07:46:16Z</time>
      </trkpt>
      <trkpt lat="45.01922" lon="4.3555">
        <ele>1038.1</ele>
        <time>2026-04-30T07:46:21Z</time>
      </trkpt>
      <trkpt lat="45.01923" lon="4.35552">
        <ele>1038</ele>
        <time>2026-04-30T07:46:26Z</time>
      </trkpt>
      <trkpt lat="45.01922" lon="4.35553">
        <ele>1038</ele>
        <time>2026-04-30T07:46:31Z</time>
      </trkpt>
      <trkpt lat="45.01921" lon="4.35552">
        <ele>1038.1</ele>
        <time>2026-04-30T07:46:36Z</time>
      </trkpt>
      <trkpt lat="45.01914" lon="4.35553">
        <ele>1038</ele>
        <time>2026-04-30T07:46:41Z</time>
      </trkpt>
      <trkpt lat="45.01907" lon="4.35556">
        <ele>1037.5</ele>
        <time>2026-04-30T07:46:46Z</time>
      </trkpt>
      <trkpt lat="45.01901" lon="4.35558">
        <ele>1037.2</ele>
        <time>2026-04-30T07:46:51Z</time>
      </trkpt>
      <trkpt lat="45.01894" lon="4.35561">
        <ele>1036.7</ele>
        <time>2026-04-30T07:46:56Z</time>
      </trkpt>
      <trkpt lat="45.01888" lon="4.35565">
        <ele>1036.3</ele>
        <time>2026-04-30T07:47:01Z</time>
      </trkpt>
      <trkpt lat="45.01881" lon="4.35569">
        <ele>1035.8</ele>
        <time>2026-04-30T07:47:06Z</time>
      </trkpt>
      <trkpt lat="45.01874" lon="4.35571">
        <ele>1035.4</ele>
        <time>2026-04-30T07:47:11Z</time>
      </trkpt>
      <trkpt lat="45.01866" lon="4.35575">
        <ele>1034.9</ele>
        <time>2026-04-30T07:47:16Z</time>
      </trkpt>
      <trkpt lat="45.01859" lon="4.35579">
        <ele>1034.4</ele>
        <time>2026-04-30T07:47:21Z</time>
      </trkpt>
      <trkpt lat="45.01851" lon="4.35583">
        <ele>1033.9</ele>
        <time>2026-04-30T07:47:26Z</time>
      </trkpt>
      <trkpt lat="45.01844" lon="4.35587">
        <ele>1033.4</ele>
        <time>2026-04-30T07:47:31Z</time>
      </trkpt>
      <trkpt lat="45.01837" lon="4.35592">
        <ele>1033</ele>
        <time>2026-04-30T07:47:36Z</time>
      </trkpt>
      <trkpt lat="45.0183" lon="4.35596">
        <ele>1032.6</ele>
        <time>2026-04-30T07:47:41Z</time>
      </trkpt>
      <trkpt lat="45.01823" lon="4.356">
        <ele>1032.2</ele>
        <time>2026-04-30T07:47:46Z</time>
      </trkpt>
      <trkpt lat="45.01816" lon="4.35605">
        <ele>1031.8</ele>
        <time>2026-04-30T07:47:51Z</time>
      </trkpt>
      <trkpt lat="45.01809" lon="4.35609">
        <ele>1031.4</ele>
        <time>2026-04-30T07:47:56Z</time>
      </trkpt>
      <trkpt lat="45.01802" lon="4.35613">
        <ele>1031</ele>
        <time>2026-04-30T07:48:01Z</time>
      </trkpt>
      <trkpt lat="45.01794" lon="4.35616">
        <ele>1030.6</ele>
        <time>2026-04-30T07:48:06Z</time>
      </trkpt>
      <trkpt lat="45.01786" lon="4.35622">
        <ele>1030.1</ele>
        <time>2026-04-30T07:48:11Z</time>
      </trkpt>
      <trkpt lat="45.01778" lon="4.35626">
        <ele>1029.6</ele>
        <time>2026-04-30T07:48:16Z</time>
      </trkpt>
      <trkpt lat="45.0177" lon="4.3563">
        <ele>1029.2</ele>
        <time>2026-04-30T07:48:21Z</time>
      </trkpt>
      <trkpt lat="45.01763" lon="4.35635">
        <ele>1028.7</ele>
        <time>2026-04-30T07:48:26Z</time>
      </trkpt>
      <trkpt lat="45.01755" lon="4.35639">
        <ele>1028.2</ele>
        <time>2026-04-30T07:48:31Z</time>
      </trkpt>
      <trkpt lat="45.01748" lon="4.35643">
        <ele>1027.8</ele>
        <time>2026-04-30T07:48:36Z</time>
      </trkpt>
      <trkpt lat="45.0174" lon="4.35647">
        <ele>1027.3</ele>
        <time>2026-04-30T07:48:41Z</time>
      </trkpt>
      <trkpt lat="45.01733" lon="4.35651">
        <ele>1026.8</ele>
        <time>2026-04-30T07:48:46Z</time>
      </trkpt>
      <trkpt lat="45.01725" lon="4.35655">
        <ele>1026.3</ele>
        <time>2026-04-30T07:48:51Z</time>
      </trkpt>
      <trkpt lat="45.01718" lon="4.3566">
        <ele>1025.7</ele>
        <time>2026-04-30T07:48:56Z</time>
      </trkpt>
      <trkpt lat="45.0171" lon="4.35664">
        <ele>1025.2</ele>
        <time>2026-04-30T07:49:01Z</time>
      </trkpt>
      <trkpt lat="45.01703" lon="4.35668">
        <ele>1024.7</ele>
        <time>2026-04-30T07:49:06Z</time>
      </trkpt>
      <trkpt lat="45.01695" lon="4.35672">
        <ele>1024.4</ele>
        <time>2026-04-30T07:49:11Z</time>
      </trkpt>
      <trkpt lat="45.01688" lon="4.35674">
        <ele>1024</ele>
        <time>2026-04-30T07:49:16Z</time>
      </trkpt>
      <trkpt lat="45.0168" lon="4.35677">
        <ele>1023.6</ele>
        <time>2026-04-30T07:49:21Z</time>
      </trkpt>
      <trkpt lat="45.01672" lon="4.35678">
        <ele>1023.1</ele>
        <time>2026-04-30T07:49:26Z</time>
      </trkpt>
      <trkpt lat="45.01665" lon="4.35679">
        <ele>1022.8</ele>
        <time>2026-04-30T07:49:31Z</time>
      </trkpt>
      <trkpt lat="45.01656" lon="4.3568">
        <ele>1022.8</ele>
        <time>2026-04-30T07:49:36Z</time>
      </trkpt>
      <trkpt lat="45.01648" lon="4.35682">
        <ele>1022.7</ele>
        <time>2026-04-30T07:49:41Z</time>
      </trkpt>
      <trkpt lat="45.0164" lon="4.35685">
        <ele>1022.6</ele>
        <time>2026-04-30T07:49:46Z</time>
      </trkpt>
      <trkpt lat="45.01633" lon="4.35688">
        <ele>1022.4</ele>
        <time>2026-04-30T07:49:51Z</time>
      </trkpt>
      <trkpt lat="45.01626" lon="4.35691">
        <ele>1022.3</ele>
        <time>2026-04-30T07:49:56Z</time>
      </trkpt>
      <trkpt lat="45.01625" lon="4.35697">
        <ele>1022.1</ele>
        <time>2026-04-30T07:50:01Z</time>
      </trkpt>
      <trkpt lat="45.01631" lon="4.35705">
        <ele>1021.9</ele>
        <time>2026-04-30T07:50:06Z</time>
      </trkpt>
      <trkpt lat="45.01635" lon="4.35713">
        <ele>1021.8</ele>
        <time>2026-04-30T07:50:11Z</time>
      </trkpt>
      <trkpt lat="45.0164" lon="4.3572">
        <ele>1021.7</ele>
        <time>2026-04-30T07:50:16Z</time>
      </trkpt>
      <trkpt lat="45.01644" lon="4.35729">
        <ele>1021.6</ele>
        <time>2026-04-30T07:50:21Z</time>
      </trkpt>
      <trkpt lat="45.01649" lon="4.35738">
        <ele>1021.6</ele>
        <time>2026-04-30T07:50:26Z</time>
      </trkpt>
      <trkpt lat="45.01654" lon="4.35745">
        <ele>1021.6</ele>
        <time>2026-04-30T07:50:31Z</time>
      </trkpt>
      <trkpt lat="45.01658" lon="4.35753">
        <ele>1021.6</ele>
        <time>2026-04-30T07:50:36Z</time>
      </trkpt>
      <trkpt lat="45.01663" lon="4.35761">
        <ele>1021.7</ele>
        <time>2026-04-30T07:50:41Z</time>
      </trkpt>
      <trkpt lat="45.01667" lon="4.35768">
        <ele>1021.8</ele>
        <time>2026-04-30T07:50:46Z</time>
      </trkpt>
      <trkpt lat="45.01671" lon="4.35776">
        <ele>1022</ele>
        <time>2026-04-30T07:50:51Z</time>
      </trkpt>
      <trkpt lat="45.01673" lon="4.35785">
        <ele>1022.1</ele>
        <time>2026-04-30T07:50:56Z</time>
      </trkpt>
      <trkpt lat="45.01676" lon="4.35794">
        <ele>1022.2</ele>
        <time>2026-04-30T07:51:01Z</time>
      </trkpt>
      <trkpt lat="45.01679" lon="4.35804">
        <ele>1022.3</ele>
        <time>2026-04-30T07:51:06Z</time>
      </trkpt>
      <trkpt lat="45.01682" lon="4.35813">
        <ele>1022.4</ele>
        <time>2026-04-30T07:51:11Z</time>
      </trkpt>
      <trkpt lat="45.01685" lon="4.35822">
        <ele>1022.5</ele>
        <time>2026-04-30T07:51:16Z</time>
      </trkpt>
      <trkpt lat="45.01688" lon="4.35831">
        <ele>1022.6</ele>
        <time>2026-04-30T07:51:21Z</time>
      </trkpt>
      <trkpt lat="45.01691" lon="4.3584">
        <ele>1022.7</ele>
        <time>2026-04-30T07:51:26Z</time>
      </trkpt>
      <trkpt lat="45.01695" lon="4.3585">
        <ele>1022.9</ele>
        <time>2026-04-30T07:51:31Z</time>
      </trkpt>
      <trkpt lat="45.01698" lon="4.35859">
        <ele>1023</ele>
        <time>2026-04-30T07:51:36Z</time>
      </trkpt>
      <trkpt lat="45.01701" lon="4.35868">
        <ele>1023.1</ele>
        <time>2026-04-30T07:51:41Z</time>
      </trkpt>
      <trkpt lat="45.01704" lon="4.35878">
        <ele>1023.2</ele>
        <time>2026-04-30T07:51:46Z</time>
      </trkpt>
      <trkpt lat="45.01707" lon="4.35888">
        <ele>1023.3</ele>
        <time>2026-04-30T07:51:51Z</time>
      </trkpt>
      <trkpt lat="45.0171" lon="4.35898">
        <ele>1023.3</ele>
        <time>2026-04-30T07:51:56Z</time>
      </trkpt>
      <trkpt lat="45.01713" lon="4.35907">
        <ele>1023.4</ele>
        <time>2026-04-30T07:52:01Z</time>
      </trkpt>
      <trkpt lat="45.01715" lon="4.35917">
        <ele>1023.3</ele>
        <time>2026-04-30T07:52:06Z</time>
      </trkpt>
      <trkpt lat="45.01717" lon="4.35926">
        <ele>1023.2</ele>
        <time>2026-04-30T07:52:11Z</time>
      </trkpt>
      <trkpt lat="45.0172" lon="4.35934">
        <ele>1023.2</ele>
        <time>2026-04-30T07:52:16Z</time>
      </trkpt>
      <trkpt lat="45.01724" lon="4.35942">
        <ele>1023.2</ele>
        <time>2026-04-30T07:52:21Z</time>
      </trkpt>
      <trkpt lat="45.01728" lon="4.3595">
        <ele>1023.2</ele>
        <time>2026-04-30T07:52:26Z</time>
      </trkpt>
      <trkpt lat="45.01731" lon="4.3596">
        <ele>1023.2</ele>
        <time>2026-04-30T07:52:31Z</time>
      </trkpt>
      <trkpt lat="45.01734" lon="4.35969">
        <ele>1023.1</ele>
        <time>2026-04-30T07:52:36Z</time>
      </trkpt>
      <trkpt lat="45.01737" lon="4.35977">
        <ele>1023</ele>
        <time>2026-04-30T07:52:41Z</time>
      </trkpt>
      <trkpt lat="45.0174" lon="4.35985">
        <ele>1023</ele>
        <time>2026-04-30T07:52:46Z</time>
      </trkpt>
      <trkpt lat="45.01742" lon="4.35995">
        <ele>1022.8</ele>
        <time>2026-04-30T07:52:51Z</time>
      </trkpt>
      <trkpt lat="45.01744" lon="4.36004">
        <ele>1022.7</ele>
        <time>2026-04-30T07:52:56Z</time>
      </trkpt>
      <trkpt lat="45.01749" lon="4.36013">
        <ele>1022.8</ele>
        <time>2026-04-30T07:53:01Z</time>
      </trkpt>
      <trkpt lat="45.01752" lon="4.36022">
        <ele>1022.9</ele>
        <time>2026-04-30T07:53:06Z</time>
      </trkpt>
      <trkpt lat="45.01755" lon="4.3603">
        <ele>1023</ele>
        <time>2026-04-30T07:53:11Z</time>
      </trkpt>
      <trkpt lat="45.01757" lon="4.36037">
        <ele>1023.1</ele>
        <time>2026-04-30T07:53:16Z</time>
      </trkpt>
      <trkpt lat="45.0176" lon="4.36044">
        <ele>1023.2</ele>
        <time>2026-04-30T07:53:21Z</time>
      </trkpt>
      <trkpt lat="45.01761" lon="4.36052">
        <ele>1023.1</ele>
        <time>2026-04-30T07:53:26Z</time>
      </trkpt>
      <trkpt lat="45.01764" lon="4.3606">
        <ele>1023.2</ele>
        <time>2026-04-30T07:53:31Z</time>
      </trkpt>
      <trkpt lat="45.01767" lon="4.36068">
        <ele>1023.3</ele>
        <time>2026-04-30T07:53:36Z</time>
      </trkpt>
      <trkpt lat="45.01769" lon="4.36075">
        <ele>1023.3</ele>
        <time>2026-04-30T07:53:41Z</time>
      </trkpt>
      <trkpt lat="45.01772" lon="4.36083">
        <ele>1023.3</ele>
        <time>2026-04-30T07:53:46Z</time>
      </trkpt>
      <trkpt lat="45.01774" lon="4.36091">
        <ele>1024.1</ele>
        <time>2026-04-30T07:53:51Z</time>
      </trkpt>
      <trkpt lat="45.01776" lon="4.36101">
        <ele>1025</ele>
        <time>2026-04-30T07:53:56Z</time>
      </trkpt>
      <trkpt lat="45.01779" lon="4.3611">
        <ele>1025.9</ele>
        <time>2026-04-30T07:54:01Z</time>
      </trkpt>
      <trkpt lat="45.01781" lon="4.36119">
        <ele>1026.7</ele>
        <time>2026-04-30T07:54:06Z</time>
      </trkpt>
      <trkpt lat="45.01783" lon="4.36128">
        <ele>1027.5</ele>
        <time>2026-04-30T07:54:11Z</time>
      </trkpt>
      <trkpt lat="45.01784" lon="4.36137">
        <ele>1028.3</ele>
        <time>2026-04-30T07:54:16Z</time>
      </trkpt>
      <trkpt lat="45.01785" lon="4.36147">
        <ele>1029.1</ele>
        <time>2026-04-30T07:54:21Z</time>
      </trkpt>
      <trkpt lat="45.01785" lon="4.36152">
        <ele>1029.5</ele>
        <time>2026-04-30T07:54:26Z</time>
      </trkpt>
      <trkpt lat="45.01787" lon="4.36159">
        <ele>1030.2</ele>
        <time>2026-04-30T07:54:31Z</time>
      </trkpt>
      <trkpt lat="45.01789" lon="4.36168">
        <ele>1030.9</ele>
        <time>2026-04-30T07:54:36Z</time>
      </trkpt>
      <trkpt lat="45.01791" lon="4.36177">
        <ele>1031.4</ele>
        <time>2026-04-30T07:54:41Z</time>
      </trkpt>
      <trkpt lat="45.01792" lon="4.36186">
        <ele>1031.8</ele>
        <time>2026-04-30T07:54:46Z</time>
      </trkpt>
      <trkpt lat="45.01793" lon="4.36195">
        <ele>1032.2</ele>
        <time>2026-04-30T07:54:51Z</time>
      </trkpt>
      <trkpt lat="45.01793" lon="4.36204">
        <ele>1032.6</ele>
        <time>2026-04-30T07:54:56Z</time>
      </trkpt>
      <trkpt lat="45.01793" lon="4.36213">
        <ele>1033</ele>
        <time>2026-04-30T07:55:01Z</time>
      </trkpt>
      <trkpt lat="45.01794" lon="4.36223">
        <ele>1033.5</ele>
        <time>2026-04-30T07:55:06Z</time>
      </trkpt>
      <trkpt lat="45.01794" lon="4.36232">
        <ele>1033.8</ele>
        <time>2026-04-30T07:55:11Z</time>
      </trkpt>
      <trkpt lat="45.01793" lon="4.36242">
        <ele>1034.2</ele>
        <time>2026-04-30T07:55:16Z</time>
      </trkpt>
      <trkpt lat="45.01793" lon="4.3625">
        <ele>1034.5</ele>
        <time>2026-04-30T07:55:21Z</time>
      </trkpt>
      <trkpt lat="45.01792" lon="4.36259">
        <ele>1035.1</ele>
        <time>2026-04-30T07:55:26Z</time>
      </trkpt>
      <trkpt lat="45.01795" lon="4.36266">
        <ele>1035.6</ele>
        <time>2026-04-30T07:55:31Z</time>
      </trkpt>
      <trkpt lat="45.01799" lon="4.36271">
        <ele>1036</ele>
        <time>2026-04-30T07:55:36Z</time>
      </trkpt>
      <trkpt lat="45.01806" lon="4.36273">
        <ele>1036.4</ele>
        <time>2026-04-30T07:55:41Z</time>
      </trkpt>
      <trkpt lat="45.01813" lon="4.36276">
        <ele>1036.8</ele>
        <time>2026-04-30T07:55:46Z</time>
      </trkpt>
      <trkpt lat="45.01819" lon="4.36281">
        <ele>1037.3</ele>
        <time>2026-04-30T07:55:51Z</time>
      </trkpt>
      <trkpt lat="45.01825" lon="4.36283">
        <ele>1037.7</ele>
        <time>2026-04-30T07:55:56Z</time>
      </trkpt>
      <trkpt lat="45.01833" lon="4.36284">
        <ele>1038</ele>
        <time>2026-04-30T07:56:01Z</time>
      </trkpt>
      <trkpt lat="45.01841" lon="4.36283">
        <ele>1037.5</ele>
        <time>2026-04-30T07:56:06Z</time>
      </trkpt>
      <trkpt lat="45.01849" lon="4.36286">
        <ele>1037.2</ele>
        <time>2026-04-30T07:56:11Z</time>
      </trkpt>
      <trkpt lat="45.01856" lon="4.36292">
        <ele>1037</ele>
        <time>2026-04-30T07:56:16Z</time>
      </trkpt>
      <trkpt lat="45.0186" lon="4.36299">
        <ele>1037.1</ele>
        <time>2026-04-30T07:56:21Z</time>
      </trkpt>
      <trkpt lat="45.01861" lon="4.36309">
        <ele>1037.5</ele>
        <time>2026-04-30T07:56:26Z</time>
      </trkpt>
      <trkpt lat="45.01858" lon="4.36317">
        <ele>1038.1</ele>
        <time>2026-04-30T07:56:31Z</time>
      </trkpt>
      <trkpt lat="45.01855" lon="4.36326">
        <ele>1038.8</ele>
        <time>2026-04-30T07:56:36Z</time>
      </trkpt>
      <trkpt lat="45.01851" lon="4.36334">
        <ele>1039.5</ele>
        <time>2026-04-30T07:56:41Z</time>
      </trkpt>
      <trkpt lat="45.01847" lon="4.36344">
        <ele>1039.4</ele>
        <time>2026-04-30T07:56:46Z</time>
      </trkpt>
      <trkpt lat="45.01844" lon="4.36355">
        <ele>1039.3</ele>
        <time>2026-04-30T07:56:51Z</time>
      </trkpt>
      <trkpt lat="45.01841" lon="4.36365">
        <ele>1039.2</ele>
        <time>2026-04-30T07:56:56Z</time>
      </trkpt>
      <trkpt lat="45.01839" lon="4.36375">
        <ele>1039</ele>
        <time>2026-04-30T07:57:01Z</time>
      </trkpt>
      <trkpt lat="45.01836" lon="4.36385">
        <ele>1038.9</ele>
        <time>2026-04-30T07:57:06Z</time>
      </trkpt>
      <trkpt lat="45.01834" lon="4.36395">
        <ele>1038.7</ele>
        <time>2026-04-30T07:57:11Z</time>
      </trkpt>
      <trkpt lat="45.0183" lon="4.36404">
        <ele>1038.6</ele>
        <time>2026-04-30T07:57:16Z</time>
      </trkpt>
      <trkpt lat="45.01827" lon="4.36412">
        <ele>1038.5</ele>
        <time>2026-04-30T07:57:21Z</time>
      </trkpt>
      <trkpt lat="45.01822" lon="4.36419">
        <ele>1038.4</ele>
        <time>2026-04-30T07:57:26Z</time>
      </trkpt>
      <trkpt lat="45.01818" lon="4.36425">
        <ele>1037.8</ele>
        <time>2026-04-30T07:57:31Z</time>
      </trkpt>
      <trkpt lat="45.01813" lon="4.36436">
        <ele>1036.7</ele>
        <time>2026-04-30T07:57:36Z</time>
      </trkpt>
      <trkpt lat="45.01808" lon="4.36443">
        <ele>1036.2</ele>
        <time>2026-04-30T07:57:41Z</time>
      </trkpt>
      <trkpt lat="45.01802" lon="4.36451">
        <ele>1035.7</ele>
        <time>2026-04-30T07:57:46Z</time>
      </trkpt>
      <trkpt lat="45.01797" lon="4.36457">
        <ele>1035.4</ele>
        <time>2026-04-30T07:57:51Z</time>
      </trkpt>
      <trkpt lat="45.01793" lon="4.36464">
        <ele>1035</ele>
        <time>2026-04-30T07:57:56Z</time>
      </trkpt>
      <trkpt lat="45.01793" lon="4.36466">
        <ele>1034.7</ele>
        <time>2026-04-30T07:58:01Z</time>
      </trkpt>
      <trkpt lat="45.01793" lon="4.36467">
        <ele>1034.6</ele>
        <time>2026-04-30T07:58:06Z</time>
      </trkpt>
      <trkpt lat="45.01793" lon="4.36467">
        <ele>1034.6</ele>
        <time>2026-04-30T07:58:11Z</time>
      </trkpt>
      <trkpt lat="45.0179" lon="4.36466">
        <ele>1035</ele>
        <time>2026-04-30T07:58:16Z</time>
      </trkpt>
      <trkpt lat="45.01786" lon="4.3647">
        <ele>1035</ele>
        <time>2026-04-30T07:58:21Z</time>
      </trkpt>
      <trkpt lat="45.01782" lon="4.36476">
        <ele>1034.7</ele>
        <time>2026-04-30T07:58:26Z</time>
      </trkpt>
      <trkpt lat="45.01776" lon="4.36484">
        <ele>1034.5</ele>
        <time>2026-04-30T07:58:31Z</time>
      </trkpt>
      <trkpt lat="45.01772" lon="4.36491">
        <ele>1034.3</ele>
        <time>2026-04-30T07:58:36Z</time>
      </trkpt>
      <trkpt lat="45.01767" lon="4.36497">
        <ele>1034.2</ele>
        <time>2026-04-30T07:58:41Z</time>
      </trkpt>
      <trkpt lat="45.0176" lon="4.36505">
        <ele>1034.2</ele>
        <time>2026-04-30T07:58:46Z</time>
      </trkpt>
      <trkpt lat="45.01754" lon="4.36512">
        <ele>1034.1</ele>
        <time>2026-04-30T07:58:51Z</time>
      </trkpt>
      <trkpt lat="45.01748" lon="4.3652">
        <ele>1033.5</ele>
        <time>2026-04-30T07:58:56Z</time>
      </trkpt>
      <trkpt lat="45.01742" lon="4.36527">
        <ele>1032.6</ele>
        <time>2026-04-30T07:59:01Z</time>
      </trkpt>
      <trkpt lat="45.01738" lon="4.36535">
        <ele>1031.6</ele>
        <time>2026-04-30T07:59:06Z</time>
      </trkpt>
      <trkpt lat="45.01732" lon="4.36543">
        <ele>1030.6</ele>
        <time>2026-04-30T07:59:11Z</time>
      </trkpt>
      <trkpt lat="45.01726" lon="4.36551">
        <ele>1029.8</ele>
        <time>2026-04-30T07:59:16Z</time>
      </trkpt>
      <trkpt lat="45.01718" lon="4.36553">
        <ele>1029.6</ele>
        <time>2026-04-30T07:59:21Z</time>
      </trkpt>
      <trkpt lat="45.01712" lon="4.36556">
        <ele>1029.3</ele>
        <time>2026-04-30T07:59:26Z</time>
      </trkpt>
      <trkpt lat="45.01706" lon="4.36559">
        <ele>1029.1</ele>
        <time>2026-04-30T07:59:31Z</time>
      </trkpt>
      <trkpt lat="45.01699" lon="4.36563">
        <ele>1028.8</ele>
        <time>2026-04-30T07:59:36Z</time>
      </trkpt>
      <trkpt lat="45.01693" lon="4.3657">
        <ele>1028.3</ele>
        <time>2026-04-30T07:59:41Z</time>
      </trkpt>
      <trkpt lat="45.01687" lon="4.36578">
        <ele>1027.9</ele>
        <time>2026-04-30T07:59:46Z</time>
      </trkpt>
      <trkpt lat="45.01684" lon="4.36588">
        <ele>1027</ele>
        <time>2026-04-30T07:59:51Z</time>
      </trkpt>
      <trkpt lat="45.01679" lon="4.36597">
        <ele>1026</ele>
        <time>2026-04-30T07:59:56Z</time>
      </trkpt>
      <trkpt lat="45.01676" lon="4.36608">
        <ele>1024.7</ele>
        <time>2026-04-30T08:00:01Z</time>
      </trkpt>
      <trkpt lat="45.01674" lon="4.36617">
        <ele>1023.7</ele>
        <time>2026-04-30T08:00:06Z</time>
      </trkpt>
      <trkpt lat="45.01672" lon="4.36625">
        <ele>1022.8</ele>
        <time>2026-04-30T08:00:11Z</time>
      </trkpt>
      <trkpt lat="45.01671" lon="4.36635">
        <ele>1021.6</ele>
        <time>2026-04-30T08:00:16Z</time>
      </trkpt>
      <trkpt lat="45.01667" lon="4.36643">
        <ele>1020.8</ele>
        <time>2026-04-30T08:00:21Z</time>
      </trkpt>
      <trkpt lat="45.01664" lon="4.36652">
        <ele>1019.4</ele>
        <time>2026-04-30T08:00:26Z</time>
      </trkpt>
      <trkpt lat="45.01664" lon="4.36664">
        <ele>1018</ele>
        <time>2026-04-30T08:00:31Z</time>
      </trkpt>
      <trkpt lat="45.01668" lon="4.36674">
        <ele>1016.6</ele>
        <time>2026-04-30T08:00:36Z</time>
      </trkpt>
      <trkpt lat="45.01672" lon="4.36682">
        <ele>1015</ele>
        <time>2026-04-30T08:00:41Z</time>
      </trkpt>
      <trkpt lat="45.01675" lon="4.36692">
        <ele>1013.2</ele>
        <time>2026-04-30T08:00:46Z</time>
      </trkpt>
      <trkpt lat="45.01678" lon="4.36703">
        <ele>1011.3</ele>
        <time>2026-04-30T08:00:51Z</time>
      </trkpt>
      <trkpt lat="45.01679" lon="4.36713">
        <ele>1009.7</ele>
        <time>2026-04-30T08:00:56Z</time>
      </trkpt>
      <trkpt lat="45.01678" lon="4.36724">
        <ele>1007.8</ele>
        <time>2026-04-30T08:01:01Z</time>
      </trkpt>
      <trkpt lat="45.0168" lon="4.36735">
        <ele>1006.1</ele>
        <time>2026-04-30T08:01:06Z</time>
      </trkpt>
      <trkpt lat="45.01682" lon="4.36744">
        <ele>1004.7</ele>
        <time>2026-04-30T08:01:11Z</time>
      </trkpt>
      <trkpt lat="45.01683" lon="4.36755">
        <ele>1003.7</ele>
        <time>2026-04-30T08:01:16Z</time>
      </trkpt>
      <trkpt lat="45.01683" lon="4.36764">
        <ele>1003.4</ele>
        <time>2026-04-30T08:01:21Z</time>
      </trkpt>
      <trkpt lat="45.01682" lon="4.36771">
        <ele>1003.2</ele>
        <time>2026-04-30T08:01:26Z</time>
      </trkpt>
      <trkpt lat="45.0168" lon="4.36778">
        <ele>1002.9</ele>
        <time>2026-04-30T08:01:31Z</time>
      </trkpt>
      <trkpt lat="45.01679" lon="4.36788">
        <ele>1002.6</ele>
        <time>2026-04-30T08:01:36Z</time>
      </trkpt>
      <trkpt lat="45.01678" lon="4.36798">
        <ele>1002.2</ele>
        <time>2026-04-30T08:01:41Z</time>
      </trkpt>
      <trkpt lat="45.01678" lon="4.36809">
        <ele>1001.9</ele>
        <time>2026-04-30T08:01:46Z</time>
      </trkpt>
      <trkpt lat="45.01677" lon="4.36818">
        <ele>1001.6</ele>
        <time>2026-04-30T08:01:51Z</time>
      </trkpt>
      <trkpt lat="45.01675" lon="4.36825">
        <ele>1001.1</ele>
        <time>2026-04-30T08:01:56Z</time>
      </trkpt>
      <trkpt lat="45.01673" lon="4.36832">
        <ele>1000.7</ele>
        <time>2026-04-30T08:02:01Z</time>
      </trkpt>
      <trkpt lat="45.01672" lon="4.3684">
        <ele>1000.8</ele>
        <time>2026-04-30T08:02:06Z</time>
      </trkpt>
      <trkpt lat="45.01672" lon="4.36849">
        <ele>1001.1</ele>
        <time>2026-04-30T08:02:11Z</time>
      </trkpt>
      <trkpt lat="45.01673" lon="4.36859">
        <ele>1001.6</ele>
        <time>2026-04-30T08:02:16Z</time>
      </trkpt>
      <trkpt lat="45.01674" lon="4.36866">
        <ele>1001.9</ele>
        <time>2026-04-30T08:02:21Z</time>
      </trkpt>
      <trkpt lat="45.01675" lon="4.36872">
        <ele>1002.2</ele>
        <time>2026-04-30T08:02:26Z</time>
      </trkpt>
      <trkpt lat="45.01676" lon="4.36875">
        <ele>1002.5</ele>
        <time>2026-04-30T08:02:31Z</time>
      </trkpt>
      <trkpt lat="45.01681" lon="4.36877">
        <ele>1003</ele>
        <time>2026-04-30T08:02:36Z</time>
      </trkpt>
      <trkpt lat="45.01687" lon="4.3688">
        <ele>1003.7</ele>
        <time>2026-04-30T08:02:41Z</time>
      </trkpt>
      <trkpt lat="45.01693" lon="4.36882">
        <ele>1004.4</ele>
        <time>2026-04-30T08:02:46Z</time>
      </trkpt>
      <trkpt lat="45.01699" lon="4.36886">
        <ele>1005.1</ele>
        <time>2026-04-30T08:02:51Z</time>
      </trkpt>
      <trkpt lat="45.01705" lon="4.36889">
        <ele>1005.8</ele>
        <time>2026-04-30T08:02:56Z</time>
      </trkpt>
      <trkpt lat="45.01711" lon="4.36893">
        <ele>1006.6</ele>
        <time>2026-04-30T08:03:01Z</time>
      </trkpt>
      <trkpt lat="45.01716" lon="4.36897">
        <ele>1007.2</ele>
        <time>2026-04-30T08:03:06Z</time>
      </trkpt>
      <trkpt lat="45.01722" lon="4.369">
        <ele>1007.8</ele>
        <time>2026-04-30T08:03:11Z</time>
      </trkpt>
      <trkpt lat="45.01727" lon="4.36904">
        <ele>1008.4</ele>
        <time>2026-04-30T08:03:16Z</time>
      </trkpt>
      <trkpt lat="45.01732" lon="4.36908">
        <ele>1009</ele>
        <time>2026-04-30T08:03:21Z</time>
      </trkpt>
      <trkpt lat="45.01734" lon="4.3691">
        <ele>1009.3</ele>
        <time>2026-04-30T08:03:26Z</time>
      </trkpt>
      <trkpt lat="45.01739" lon="4.36913">
        <ele>1009.9</ele>
        <time>2026-04-30T08:03:31Z</time>
      </trkpt>
      <trkpt lat="45.01745" lon="4.36917">
        <ele>1010.5</ele>
        <time>2026-04-30T08:03:36Z</time>
      </trkpt>
      <trkpt lat="45.01752" lon="4.36921">
        <ele>1011</ele>
        <time>2026-04-30T08:03:41Z</time>
      </trkpt>
      <trkpt lat="45.01757" lon="4.36924">
        <ele>1011.3</ele>
        <time>2026-04-30T08:03:46Z</time>
      </trkpt>
      <trkpt lat="45.01762" lon="4.36929">
        <ele>1011.5</ele>
        <time>2026-04-30T08:03:51Z</time>
      </trkpt>
      <trkpt lat="45.01768" lon="4.36934">
        <ele>1011.8</ele>
        <time>2026-04-30T08:03:56Z</time>
      </trkpt>
      <trkpt lat="45.01773" lon="4.36939">
        <ele>1012.1</ele>
        <time>2026-04-30T08:04:01Z</time>
      </trkpt>
      <trkpt lat="45.01778" lon="4.36942">
        <ele>1012.4</ele>
        <time>2026-04-30T08:04:06Z</time>
      </trkpt>
      <trkpt lat="45.01783" lon="4.36947">
        <ele>1012.8</ele>
        <time>2026-04-30T08:04:11Z</time>
      </trkpt>
      <trkpt lat="45.01788" lon="4.36952">
        <ele>1013.2</ele>
        <time>2026-04-30T08:04:16Z</time>
      </trkpt>
      <trkpt lat="45.01793" lon="4.36957">
        <ele>1013.6</ele>
        <time>2026-04-30T08:04:21Z</time>
      </trkpt>
      <trkpt lat="45.018" lon="4.36962">
        <ele>1014.2</ele>
        <time>2026-04-30T08:04:26Z</time>
      </trkpt>
      <trkpt lat="45.01806" lon="4.36966">
        <ele>1014.7</ele>
        <time>2026-04-30T08:04:31Z</time>
      </trkpt>
      <trkpt lat="45.01812" lon="4.36972">
        <ele>1015.3</ele>
        <time>2026-04-30T08:04:36Z</time>
      </trkpt>
      <trkpt lat="45.01817" lon="4.36978">
        <ele>1015.8</ele>
        <time>2026-04-30T08:04:41Z</time>
      </trkpt>
      <trkpt lat="45.01823" lon="4.36984">
        <ele>1016.5</ele>
        <time>2026-04-30T08:04:46Z</time>
      </trkpt>
      <trkpt lat="45.01829" lon="4.36991">
        <ele>1017.3</ele>
        <time>2026-04-30T08:04:51Z</time>
      </trkpt>
      <trkpt lat="45.01835" lon="4.36997">
        <ele>1018</ele>
        <time>2026-04-30T08:04:56Z</time>
      </trkpt>
      <trkpt lat="45.01841" lon="4.37003">
        <ele>1018.4</ele>
        <time>2026-04-30T08:05:01Z</time>
      </trkpt>
      <trkpt lat="45.01847" lon="4.37009">
        <ele>1018.5</ele>
        <time>2026-04-30T08:05:06Z</time>
      </trkpt>
      <trkpt lat="45.01853" lon="4.37015">
        <ele>1018.7</ele>
        <time>2026-04-30T08:05:11Z</time>
      </trkpt>
      <trkpt lat="45.01859" lon="4.37022">
        <ele>1018.8</ele>
        <time>2026-04-30T08:05:16Z</time>
      </trkpt>
      <trkpt lat="45.01865" lon="4.37029">
        <ele>1019</ele>
        <time>2026-04-30T08:05:21Z</time>
      </trkpt>
      <trkpt lat="45.0187" lon="4.37036">
        <ele>1019.1</ele>
        <time>2026-04-30T08:05:26Z</time>
      </trkpt>
      <trkpt lat="45.01876" lon="4.37042">
        <ele>1019.3</ele>
        <time>2026-04-30T08:05:31Z</time>
      </trkpt>
      <trkpt lat="45.01884" lon="4.37048">
        <ele>1019.7</ele>
        <time>2026-04-30T08:05:36Z</time>
      </trkpt>
      <trkpt lat="45.0189" lon="4.37054">
        <ele>1019.9</ele>
        <time>2026-04-30T08:05:41Z</time>
      </trkpt>
      <trkpt lat="45.01896" lon="4.37059">
        <ele>1020.2</ele>
        <time>2026-04-30T08:05:46Z</time>
      </trkpt>
      <trkpt lat="45.01903" lon="4.37063">
        <ele>1020.5</ele>
        <time>2026-04-30T08:05:51Z</time>
      </trkpt>
      <trkpt lat="45.0191" lon="4.37069">
        <ele>1020.9</ele>
        <time>2026-04-30T08:05:56Z</time>
      </trkpt>
      <trkpt lat="45.01914" lon="4.37076">
        <ele>1021</ele>
        <time>2026-04-30T08:06:01Z</time>
      </trkpt>
      <trkpt lat="45.01921" lon="4.37083">
        <ele>1021</ele>
        <time>2026-04-30T08:06:06Z</time>
      </trkpt>
      <trkpt lat="45.01927" lon="4.37089">
        <ele>1021.1</ele>
        <time>2026-04-30T08:06:11Z</time>
      </trkpt>
      <trkpt lat="45.01934" lon="4.37095">
        <ele>1021.3</ele>
        <time>2026-04-30T08:06:16Z</time>
      </trkpt>
      <trkpt lat="45.0194" lon="4.37101">
        <ele>1021.5</ele>
        <time>2026-04-30T08:06:21Z</time>
      </trkpt>
      <trkpt lat="45.01946" lon="4.37108">
        <ele>1021.7</ele>
        <time>2026-04-30T08:06:26Z</time>
      </trkpt>
      <trkpt lat="45.01952" lon="4.37115">
        <ele>1021.9</ele>
        <time>2026-04-30T08:06:31Z</time>
      </trkpt>
      <trkpt lat="45.01959" lon="4.37122">
        <ele>1022.2</ele>
        <time>2026-04-30T08:06:36Z</time>
      </trkpt>
      <trkpt lat="45.01965" lon="4.37129">
        <ele>1022.4</ele>
        <time>2026-04-30T08:06:41Z</time>
      </trkpt>
      <trkpt lat="45.0197" lon="4.37136">
        <ele>1022.7</ele>
        <time>2026-04-30T08:06:46Z</time>
      </trkpt>
      <trkpt lat="45.01975" lon="4.37145">
        <ele>1023</ele>
        <time>2026-04-30T08:06:51Z</time>
      </trkpt>
      <trkpt lat="45.01982" lon="4.37153">
        <ele>1023.3</ele>
        <time>2026-04-30T08:06:56Z</time>
      </trkpt>
      <trkpt lat="45.01988" lon="4.37159">
        <ele>1023.6</ele>
        <time>2026-04-30T08:07:01Z</time>
      </trkpt>
      <trkpt lat="45.01993" lon="4.37166">
        <ele>1023.9</ele>
        <time>2026-04-30T08:07:06Z</time>
      </trkpt>
      <trkpt lat="45.01999" lon="4.37169">
        <ele>1024.1</ele>
        <time>2026-04-30T08:07:11Z</time>
      </trkpt>
      <trkpt lat="45.02003" lon="4.37175">
        <ele>1024.5</ele>
        <time>2026-04-30T08:07:16Z</time>
      </trkpt>
      <trkpt lat="45.02008" lon="4.37183">
        <ele>1024.9</ele>
        <time>2026-04-30T08:07:21Z</time>
      </trkpt>
      <trkpt lat="45.02012" lon="4.37189">
        <ele>1025.3</ele>
        <time>2026-04-30T08:07:26Z</time>
      </trkpt>
      <trkpt lat="45.02019" lon="4.37195">
        <ele>1025.7</ele>
        <time>2026-04-30T08:07:31Z</time>
      </trkpt>
      <trkpt lat="45.02024" lon="4.372">
        <ele>1025.9</ele>
        <time>2026-04-30T08:07:36Z</time>
      </trkpt>
      <trkpt lat="45.02029" lon="4.37203">
        <ele>1026.1</ele>
        <time>2026-04-30T08:07:41Z</time>
      </trkpt>
      <trkpt lat="45.02035" lon="4.37205">
        <ele>1026.3</ele>
        <time>2026-04-30T08:07:46Z</time>
      </trkpt>
      <trkpt lat="45.02039" lon="4.37209">
        <ele>1026.5</ele>
        <time>2026-04-30T08:07:51Z</time>
      </trkpt>
      <trkpt lat="45.02039" lon="4.37218">
        <ele>1026.8</ele>
        <time>2026-04-30T08:07:56Z</time>
      </trkpt>
      <trkpt lat="45.02037" lon="4.37227">
        <ele>1027.1</ele>
        <time>2026-04-30T08:08:01Z</time>
      </trkpt>
      <trkpt lat="45.02035" lon="4.37237">
        <ele>1027.5</ele>
        <time>2026-04-30T08:08:06Z</time>
      </trkpt>
      <trkpt lat="45.02033" lon="4.37248">
        <ele>1027.9</ele>
        <time>2026-04-30T08:08:11Z</time>
      </trkpt>
      <trkpt lat="45.0203" lon="4.37255">
        <ele>1027.9</ele>
        <time>2026-04-30T08:08:16Z</time>
      </trkpt>
      <trkpt lat="45.02027" lon="4.37264">
        <ele>1027.8</ele>
        <time>2026-04-30T08:08:21Z</time>
      </trkpt>
      <trkpt lat="45.02023" lon="4.37273">
        <ele>1027.7</ele>
        <time>2026-04-30T08:08:26Z</time>
      </trkpt>
      <trkpt lat="45.02018" lon="4.37282">
        <ele>1027.8</ele>
        <time>2026-04-30T08:08:31Z</time>
      </trkpt>
      <trkpt lat="45.02014" lon="4.37292">
        <ele>1027.9</ele>
        <time>2026-04-30T08:08:36Z</time>
      </trkpt>
      <trkpt lat="45.0201" lon="4.37302">
        <ele>1028.1</ele>
        <time>2026-04-30T08:08:41Z</time>
      </trkpt>
      <trkpt lat="45.02006" lon="4.3731">
        <ele>1028.4</ele>
        <time>2026-04-30T08:08:46Z</time>
      </trkpt>
      <trkpt lat="45.02002" lon="4.37321">
        <ele>1028.7</ele>
        <time>2026-04-30T08:08:51Z</time>
      </trkpt>
      <trkpt lat="45.01998" lon="4.37331">
        <ele>1028.9</ele>
        <time>2026-04-30T08:08:56Z</time>
      </trkpt>
      <trkpt lat="45.01995" lon="4.37342">
        <ele>1028.4</ele>
        <time>2026-04-30T08:09:01Z</time>
      </trkpt>
      <trkpt lat="45.01991" lon="4.37351">
        <ele>1027.8</ele>
        <time>2026-04-30T08:09:06Z</time>
      </trkpt>
      <trkpt lat="45.01987" lon="4.37361">
        <ele>1027.3</ele>
        <time>2026-04-30T08:09:11Z</time>
      </trkpt>
      <trkpt lat="45.01984" lon="4.37369">
        <ele>1026.8</ele>
        <time>2026-04-30T08:09:16Z</time>
      </trkpt>
      <trkpt lat="45.01981" lon="4.37376">
        <ele>1026.5</ele>
        <time>2026-04-30T08:09:21Z</time>
      </trkpt>
      <trkpt lat="45.01977" lon="4.37385">
        <ele>1026.1</ele>
        <time>2026-04-30T08:09:26Z</time>
      </trkpt>
      <trkpt lat="45.01973" lon="4.37394">
        <ele>1025.7</ele>
        <time>2026-04-30T08:09:31Z</time>
      </trkpt>
      <trkpt lat="45.01968" lon="4.37402">
        <ele>1025.4</ele>
        <time>2026-04-30T08:09:36Z</time>
      </trkpt>
      <trkpt lat="45.01963" lon="4.37409">
        <ele>1025.2</ele>
        <time>2026-04-30T08:09:41Z</time>
      </trkpt>
      <trkpt lat="45.01959" lon="4.37414">
        <ele>1025.1</ele>
        <time>2026-04-30T08:09:46Z</time>
      </trkpt>
      <trkpt lat="45.01954" lon="4.37423">
        <ele>1024.8</ele>
        <time>2026-04-30T08:09:51Z</time>
      </trkpt>
      <trkpt lat="45.0195" lon="4.3743">
        <ele>1024.6</ele>
        <time>2026-04-30T08:09:56Z</time>
      </trkpt>
      <trkpt lat="45.01946" lon="4.3744">
        <ele>1024.3</ele>
        <time>2026-04-30T08:10:01Z</time>
      </trkpt>
      <trkpt lat="45.01943" lon="4.37447">
        <ele>1024.2</ele>
        <time>2026-04-30T08:10:06Z</time>
      </trkpt>
      <trkpt lat="45.01938" lon="4.37455">
        <ele>1024.2</ele>
        <time>2026-04-30T08:10:11Z</time>
      </trkpt>
      <trkpt lat="45.01935" lon="4.37461">
        <ele>1024.2</ele>
        <time>2026-04-30T08:10:16Z</time>
      </trkpt>
      <trkpt lat="45.01931" lon="4.37468">
        <ele>1024.3</ele>
        <time>2026-04-30T08:10:21Z</time>
      </trkpt>
      <trkpt lat="45.01927" lon="4.37478">
        <ele>1024.4</ele>
        <time>2026-04-30T08:10:26Z</time>
      </trkpt>
      <trkpt lat="45.01923" lon="4.37486">
        <ele>1024.6</ele>
        <time>2026-04-30T08:10:31Z</time>
      </trkpt>
      <trkpt lat="45.01918" lon="4.37497">
        <ele>1024.9</ele>
        <time>2026-04-30T08:10:36Z</time>
      </trkpt>
      <trkpt lat="45.01914" lon="4.37507">
        <ele>1025.1</ele>
        <time>2026-04-30T08:10:41Z</time>
      </trkpt>
      <trkpt lat="45.0191" lon="4.37515">
        <ele>1025.1</ele>
        <time>2026-04-30T08:10:46Z</time>
      </trkpt>
      <trkpt lat="45.01905" lon="4.37524">
        <ele>1025</ele>
        <time>2026-04-30T08:10:51Z</time>
      </trkpt>
      <trkpt lat="45.019" lon="4.37535">
        <ele>1024.9</ele>
        <time>2026-04-30T08:10:56Z</time>
      </trkpt>
      <trkpt lat="45.01896" lon="4.37547">
        <ele>1024.8</ele>
        <time>2026-04-30T08:11:01Z</time>
      </trkpt>
      <trkpt lat="45.01892" lon="4.37557">
        <ele>1024.7</ele>
        <time>2026-04-30T08:11:06Z</time>
      </trkpt>
      <trkpt lat="45.01887" lon="4.37566">
        <ele>1024.4</ele>
        <time>2026-04-30T08:11:11Z</time>
      </trkpt>
      <trkpt lat="45.01882" lon="4.37577">
        <ele>1024.1</ele>
        <time>2026-04-30T08:11:16Z</time>
      </trkpt>
      <trkpt lat="45.01878" lon="4.37585">
        <ele>1023.6</ele>
        <time>2026-04-30T08:11:21Z</time>
      </trkpt>
      <trkpt lat="45.01874" lon="4.37594">
        <ele>1022.6</ele>
        <time>2026-04-30T08:11:26Z</time>
      </trkpt>
      <trkpt lat="45.01871" lon="4.37603">
        <ele>1021.6</ele>
        <time>2026-04-30T08:11:31Z</time>
      </trkpt>
      <trkpt lat="45.01869" lon="4.37608">
        <ele>1021.1</ele>
        <time>2026-04-30T08:11:36Z</time>
      </trkpt>
      <trkpt lat="45.01867" lon="4.37616">
        <ele>1020.2</ele>
        <time>2026-04-30T08:11:41Z</time>
      </trkpt>
      <trkpt lat="45.01865" lon="4.37624">
        <ele>1019.4</ele>
        <time>2026-04-30T08:11:46Z</time>
      </trkpt>
      <trkpt lat="45.01863" lon="4.37632">
        <ele>1018.6</ele>
        <time>2026-04-30T08:11:51Z</time>
      </trkpt>
      <trkpt lat="45.0186" lon="4.3764">
        <ele>1017.7</ele>
        <time>2026-04-30T08:11:56Z</time>
      </trkpt>
      <trkpt lat="45.01857" lon="4.37647">
        <ele>1016.9</ele>
        <time>2026-04-30T08:12:01Z</time>
      </trkpt>
      <trkpt lat="45.01852" lon="4.37654">
        <ele>1015.8</ele>
        <time>2026-04-30T08:12:06Z</time>
      </trkpt>
      <trkpt lat="45.01848" lon="4.37663">
        <ele>1014.7</ele>
        <time>2026-04-30T08:12:11Z</time>
      </trkpt>
      <trkpt lat="45.01843" lon="4.37671">
        <ele>1013.7</ele>
        <time>2026-04-30T08:12:16Z</time>
      </trkpt>
      <trkpt lat="45.01838" lon="4.37679">
        <ele>1012.9</ele>
        <time>2026-04-30T08:12:21Z</time>
      </trkpt>
      <trkpt lat="45.01832" lon="4.37689">
        <ele>1011.8</ele>
        <time>2026-04-30T08:12:26Z</time>
      </trkpt>
      <trkpt lat="45.01834" lon="4.37702">
        <ele>1011.4</ele>
        <time>2026-04-30T08:12:31Z</time>
      </trkpt>
      <trkpt lat="45.01838" lon="4.37713">
        <ele>1011.2</ele>
        <time>2026-04-30T08:12:36Z</time>
      </trkpt>
      <trkpt lat="45.01837" lon="4.37723">
        <ele>1010.6</ele>
        <time>2026-04-30T08:12:41Z</time>
      </trkpt>
      <trkpt lat="45.01838" lon="4.37732">
        <ele>1010.3</ele>
        <time>2026-04-30T08:12:46Z</time>
      </trkpt>
      <trkpt lat="45.01839" lon="4.37741">
        <ele>1010</ele>
        <time>2026-04-30T08:12:51Z</time>
      </trkpt>
      <trkpt lat="45.01837" lon="4.3775">
        <ele>1009.4</ele>
        <time>2026-04-30T08:12:56Z</time>
      </trkpt>
      <trkpt lat="45.01834" lon="4.37755">
        <ele>1009.5</ele>
        <time>2026-04-30T08:13:01Z</time>
      </trkpt>
      <trkpt lat="45.01831" lon="4.3776">
        <ele>1009.9</ele>
        <time>2026-04-30T08:13:06Z</time>
      </trkpt>
      <trkpt lat="45.01826" lon="4.37764">
        <ele>1010.1</ele>
        <time>2026-04-30T08:13:11Z</time>
      </trkpt>
      <trkpt lat="45.01822" lon="4.37768">
        <ele>1010.4</ele>
        <time>2026-04-30T08:13:16Z</time>
      </trkpt>
      <trkpt lat="45.01818" lon="4.37774">
        <ele>1011</ele>
        <time>2026-04-30T08:13:21Z</time>
      </trkpt>
      <trkpt lat="45.01814" lon="4.37779">
        <ele>1011.4</ele>
        <time>2026-04-30T08:13:26Z</time>
      </trkpt>
      <trkpt lat="45.01809" lon="4.37784">
        <ele>1011.9</ele>
        <time>2026-04-30T08:13:31Z</time>
      </trkpt>
      <trkpt lat="45.01804" lon="4.37792">
        <ele>1012.7</ele>
        <time>2026-04-30T08:13:36Z</time>
      </trkpt>
      <trkpt lat="45.01797" lon="4.37797">
        <ele>1013.2</ele>
        <time>2026-04-30T08:13:41Z</time>
      </trkpt>
      <trkpt lat="45.01794" lon="4.37803">
        <ele>1013.9</ele>
        <time>2026-04-30T08:13:46Z</time>
      </trkpt>
      <trkpt lat="45.01788" lon="4.37809">
        <ele>1014.6</ele>
        <time>2026-04-30T08:13:51Z</time>
      </trkpt>
      <trkpt lat="45.01784" lon="4.37815">
        <ele>1015.3</ele>
        <time>2026-04-30T08:13:56Z</time>
      </trkpt>
      <trkpt lat="45.01779" lon="4.37822">
        <ele>1016.2</ele>
        <time>2026-04-30T08:14:01Z</time>
      </trkpt>
      <trkpt lat="45.01773" lon="4.37828">
        <ele>1017</ele>
        <time>2026-04-30T08:14:06Z</time>
      </trkpt>
      <trkpt lat="45.01769" lon="4.37837">
        <ele>1017.9</ele>
        <time>2026-04-30T08:14:11Z</time>
      </trkpt>
      <trkpt lat="45.01763" lon="4.37843">
        <ele>1018.2</ele>
        <time>2026-04-30T08:14:16Z</time>
      </trkpt>
      <trkpt lat="45.01757" lon="4.37849">
        <ele>1018.5</ele>
        <time>2026-04-30T08:14:21Z</time>
      </trkpt>
      <trkpt lat="45.01751" lon="4.37855">
        <ele>1018.8</ele>
        <time>2026-04-30T08:14:26Z</time>
      </trkpt>
      <trkpt lat="45.01745" lon="4.37862">
        <ele>1019.4</ele>
        <time>2026-04-30T08:14:31Z</time>
      </trkpt>
      <trkpt lat="45.01739" lon="4.37869">
        <ele>1020.1</ele>
        <time>2026-04-30T08:14:36Z</time>
      </trkpt>
      <trkpt lat="45.01734" lon="4.37873">
        <ele>1020.6</ele>
        <time>2026-04-30T08:14:41Z</time>
      </trkpt>
      <trkpt lat="45.01729" lon="4.3788">
        <ele>1021.1</ele>
        <time>2026-04-30T08:14:46Z</time>
      </trkpt>
      <trkpt lat="45.01722" lon="4.37887">
        <ele>1021.8</ele>
        <time>2026-04-30T08:14:51Z</time>
      </trkpt>
      <trkpt lat="45.01715" lon="4.37891">
        <ele>1022.3</ele>
        <time>2026-04-30T08:14:56Z</time>
      </trkpt>
      <trkpt lat="45.01707" lon="4.37892">
        <ele>1022.8</ele>
        <time>2026-04-30T08:15:01Z</time>
      </trkpt>
      <trkpt lat="45.01701" lon="4.37892">
        <ele>1023.2</ele>
        <time>2026-04-30T08:15:06Z</time>
      </trkpt>
      <trkpt lat="45.01699" lon="4.37894">
        <ele>1023.3</ele>
        <time>2026-04-30T08:15:11Z</time>
      </trkpt>
      <trkpt lat="45.017" lon="4.37896">
        <ele>1023.3</ele>
        <time>2026-04-30T08:15:16Z</time>
      </trkpt>
      <trkpt lat="45.01703" lon="4.37902">
        <ele>1023.1</ele>
        <time>2026-04-30T08:15:21Z</time>
      </trkpt>
      <trkpt lat="45.01707" lon="4.37907">
        <ele>1023</ele>
        <time>2026-04-30T08:15:26Z</time>
      </trkpt>
      <trkpt lat="45.0171" lon="4.37912">
        <ele>1022.9</ele>
        <time>2026-04-30T08:15:31Z</time>
      </trkpt>
      <trkpt lat="45.01713" lon="4.37913">
        <ele>1022.7</ele>
        <time>2026-04-30T08:15:36Z</time>
      </trkpt>
      <trkpt lat="45.01715" lon="4.37918">
        <ele>1022.4</ele>
        <time>2026-04-30T08:15:41Z</time>
      </trkpt>
      <trkpt lat="45.01715" lon="4.37925">
        <ele>1021.2</ele>
        <time>2026-04-30T08:15:46Z</time>
      </trkpt>
      <trkpt lat="45.01713" lon="4.37935">
        <ele>1019.5</ele>
        <time>2026-04-30T08:15:51Z</time>
      </trkpt>
      <trkpt lat="45.01714" lon="4.37941">
        <ele>1018.4</ele>
        <time>2026-04-30T08:15:56Z</time>
      </trkpt>
      <trkpt lat="45.01714" lon="4.37947">
        <ele>1017.3</ele>
        <time>2026-04-30T08:16:01Z</time>
      </trkpt>
      <trkpt lat="45.01716" lon="4.3795">
        <ele>1016.7</ele>
        <time>2026-04-30T08:16:06Z</time>
      </trkpt>
      <trkpt lat="45.01717" lon="4.37952">
        <ele>1016.3</ele>
        <time>2026-04-30T08:16:11Z</time>
      </trkpt>
      <trkpt lat="45.01717" lon="4.37952">
        <ele>1016.3</ele>
        <time>2026-04-30T08:16:16Z</time>
      </trkpt>
      <trkpt lat="45.01719" lon="4.37956">
        <ele>1015.5</ele>
        <time>2026-04-30T08:16:21Z</time>
      </trkpt>
      <trkpt lat="45.01723" lon="4.37959">
        <ele>1014.9</ele>
        <time>2026-04-30T08:16:26Z</time>
      </trkpt>
      <trkpt lat="45.01725" lon="4.37964">
        <ele>1013.9</ele>
        <time>2026-04-30T08:16:31Z</time>
      </trkpt>
      <trkpt lat="45.01728" lon="4.37972">
        <ele>1012.4</ele>
        <time>2026-04-30T08:16:36Z</time>
      </trkpt>
      <trkpt lat="45.01733" lon="4.37979">
        <ele>1011</ele>
        <time>2026-04-30T08:16:41Z</time>
      </trkpt>
      <trkpt lat="45.01736" lon="4.37983">
        <ele>1010.3</ele>
        <time>2026-04-30T08:16:46Z</time>
      </trkpt>
      <trkpt lat="45.01741" lon="4.3799">
        <ele>1008.9</ele>
        <time>2026-04-30T08:16:51Z</time>
      </trkpt>
      <trkpt lat="45.01746" lon="4.37997">
        <ele>1007.6</ele>
        <time>2026-04-30T08:16:56Z</time>
      </trkpt>
      <trkpt lat="45.01751" lon="4.38003">
        <ele>1006.8</ele>
        <time>2026-04-30T08:17:01Z</time>
      </trkpt>
      <trkpt lat="45.01755" lon="4.3801">
        <ele>1006.6</ele>
        <time>2026-04-30T08:17:06Z</time>
      </trkpt>
      <trkpt lat="45.0176" lon="4.38018">
        <ele>1006.4</ele>
        <time>2026-04-30T08:17:11Z</time>
      </trkpt>
      <trkpt lat="45.01763" lon="4.38029">
        <ele>1005.6</ele>
        <time>2026-04-30T08:17:16Z</time>
      </trkpt>
      <trkpt lat="45.01765" lon="4.38041">
        <ele>1004.7</ele>
        <time>2026-04-30T08:17:21Z</time>
      </trkpt>
      <trkpt lat="45.01769" lon="4.38049">
        <ele>1004.3</ele>
        <time>2026-04-30T08:17:26Z</time>
      </trkpt>
      <trkpt lat="45.01773" lon="4.38055">
        <ele>1004</ele>
        <time>2026-04-30T08:17:31Z</time>
      </trkpt>
      <trkpt lat="45.01775" lon="4.38063">
        <ele>1003.4</ele>
        <time>2026-04-30T08:17:36Z</time>
      </trkpt>
      <trkpt lat="45.01776" lon="4.38065">
        <ele>1003.3</ele>
        <time>2026-04-30T08:17:41Z</time>
      </trkpt>
      <trkpt lat="45.01776" lon="4.38065">
        <ele>1003.3</ele>
        <time>2026-04-30T08:17:46Z</time>
      </trkpt>
      <trkpt lat="45.0178" lon="4.38068">
        <ele>1003.3</ele>
        <time>2026-04-30T08:17:51Z</time>
      </trkpt>
      <trkpt lat="45.01785" lon="4.38073">
        <ele>1003.1</ele>
        <time>2026-04-30T08:17:56Z</time>
      </trkpt>
      <trkpt lat="45.01787" lon="4.38077">
        <ele>1002.9</ele>
        <time>2026-04-30T08:18:01Z</time>
      </trkpt>
      <trkpt lat="45.01792" lon="4.38081">
        <ele>1002.8</ele>
        <time>2026-04-30T08:18:06Z</time>
      </trkpt>
      <trkpt lat="45.01799" lon="4.38086">
        <ele>1003.1</ele>
        <time>2026-04-30T08:18:11Z</time>
      </trkpt>
      <trkpt lat="45.01806" lon="4.3809">
        <ele>1003.6</ele>
        <time>2026-04-30T08:18:16Z</time>
      </trkpt>
      <trkpt lat="45.0181" lon="4.38094">
        <ele>1003.9</ele>
        <time>2026-04-30T08:18:21Z</time>
      </trkpt>
      <trkpt lat="45.01815" lon="4.38097">
        <ele>1004.1</ele>
        <time>2026-04-30T08:18:26Z</time>
      </trkpt>
      <trkpt lat="45.0182" lon="4.38103">
        <ele>1004.2</ele>
        <time>2026-04-30T08:18:31Z</time>
      </trkpt>
      <trkpt lat="45.01825" lon="4.38108">
        <ele>1004.2</ele>
        <time>2026-04-30T08:18:36Z</time>
      </trkpt>
      <trkpt lat="45.01829" lon="4.38115">
        <ele>1004</ele>
        <time>2026-04-30T08:18:41Z</time>
      </trkpt>
      <trkpt lat="45.01832" lon="4.3812">
        <ele>1003.7</ele>
        <time>2026-04-30T08:18:46Z</time>
      </trkpt>
      <trkpt lat="45.01837" lon="4.38125">
        <ele>1004</ele>
        <time>2026-04-30T08:18:51Z</time>
      </trkpt>
      <trkpt lat="45.01842" lon="4.38132">
        <ele>1004.5</ele>
        <time>2026-04-30T08:18:56Z</time>
      </trkpt>
      <trkpt lat="45.01845" lon="4.38139">
        <ele>1004.6</ele>
        <time>2026-04-30T08:19:01Z</time>
      </trkpt>
      <trkpt lat="45.01848" lon="4.38146">
        <ele>1004.7</ele>
        <time>2026-04-30T08:19:06Z</time>
      </trkpt>
      <trkpt lat="45.01852" lon="4.38151">
        <ele>1005</ele>
        <time>2026-04-30T08:19:11Z</time>
      </trkpt>
      <trkpt lat="45.01856" lon="4.38158">
        <ele>1005.1</ele>
        <time>2026-04-30T08:19:16Z</time>
      </trkpt>
      <trkpt lat="45.01861" lon="4.38167">
        <ele>1005.3</ele>
        <time>2026-04-30T08:19:21Z</time>
      </trkpt>
      <trkpt lat="45.01863" lon="4.38174">
        <ele>1005.8</ele>
        <time>2026-04-30T08:19:26Z</time>
      </trkpt>
      <trkpt lat="45.01865" lon="4.38181">
        <ele>1006.2</ele>
        <time>2026-04-30T08:19:31Z</time>
      </trkpt>
      <trkpt lat="45.01868" lon="4.38188">
        <ele>1006.7</ele>
        <time>2026-04-30T08:19:36Z</time>
      </trkpt>
      <trkpt lat="45.0187" lon="4.38198">
        <ele>1007.2</ele>
        <time>2026-04-30T08:19:41Z</time>
      </trkpt>
      <trkpt lat="45.01872" lon="4.38206">
        <ele>1007.5</ele>
        <time>2026-04-30T08:19:46Z</time>
      </trkpt>
      <trkpt lat="45.01873" lon="4.38218">
        <ele>1007.8</ele>
        <time>2026-04-30T08:19:51Z</time>
      </trkpt>
      <trkpt lat="45.01875" lon="4.38229">
        <ele>1008.1</ele>
        <time>2026-04-30T08:19:56Z</time>
      </trkpt>
      <trkpt lat="45.01874" lon="4.3824">
        <ele>1008.3</ele>
        <time>2026-04-30T08:20:01Z</time>
      </trkpt>
      <trkpt lat="45.01874" lon="4.3825">
        <ele>1008.5</ele>
        <time>2026-04-30T08:20:06Z</time>
      </trkpt>
      <trkpt lat="45.01877" lon="4.38257">
        <ele>1009</ele>
        <time>2026-04-30T08:20:11Z</time>
      </trkpt>
      <trkpt lat="45.01877" lon="4.38269">
        <ele>1009.8</ele>
        <time>2026-04-30T08:20:16Z</time>
      </trkpt>
      <trkpt lat="45.01874" lon="4.38281">
        <ele>1010.8</ele>
        <time>2026-04-30T08:20:21Z</time>
      </trkpt>
      <trkpt lat="45.01872" lon="4.38292">
        <ele>1011.7</ele>
        <time>2026-04-30T08:20:26Z</time>
      </trkpt>
      <trkpt lat="45.01872" lon="4.38304">
        <ele>1012.7</ele>
        <time>2026-04-30T08:20:31Z</time>
      </trkpt>
      <trkpt lat="45.01874" lon="4.38314">
        <ele>1013.2</ele>
        <time>2026-04-30T08:20:36Z</time>
      </trkpt>
      <trkpt lat="45.01876" lon="4.38326">
        <ele>1013.8</ele>
        <time>2026-04-30T08:20:41Z</time>
      </trkpt>
      <trkpt lat="45.01878" lon="4.38336">
        <ele>1014.1</ele>
        <time>2026-04-30T08:20:46Z</time>
      </trkpt>
      <trkpt lat="45.01879" lon="4.38347">
        <ele>1014.3</ele>
        <time>2026-04-30T08:20:51Z</time>
      </trkpt>
      <trkpt lat="45.01882" lon="4.38359">
        <ele>1014.1</ele>
        <time>2026-04-30T08:20:56Z</time>
      </trkpt>
      <trkpt lat="45.01884" lon="4.3837">
        <ele>1014</ele>
        <time>2026-04-30T08:21:01Z</time>
      </trkpt>
      <trkpt lat="45.01887" lon="4.38375">
        <ele>1013.6</ele>
        <time>2026-04-30T08:21:06Z</time>
      </trkpt>
      <trkpt lat="45.01892" lon="4.38379">
        <ele>1012.6</ele>
        <time>2026-04-30T08:21:11Z</time>
      </trkpt>
      <trkpt lat="45.01898" lon="4.38384">
        <ele>1011.4</ele>
        <time>2026-04-30T08:21:16Z</time>
      </trkpt>
      <trkpt lat="45.01905" lon="4.38387">
        <ele>1009.9</ele>
        <time>2026-04-30T08:21:21Z</time>
      </trkpt>
      <trkpt lat="45.01911" lon="4.38389">
        <ele>1008.6</ele>
        <time>2026-04-30T08:21:26Z</time>
      </trkpt>
      <trkpt lat="45.01917" lon="4.38391">
        <ele>1007.3</ele>
        <time>2026-04-30T08:21:31Z</time>
      </trkpt>
      <trkpt lat="45.01926" lon="4.38389">
        <ele>1008.4</ele>
        <time>2026-04-30T08:21:36Z</time>
      </trkpt>
      <trkpt lat="45.01937" lon="4.38389">
        <ele>1009.6</ele>
        <time>2026-04-30T08:21:41Z</time>
      </trkpt>
      <trkpt lat="45.01946" lon="4.38388">
        <ele>1010.7</ele>
        <time>2026-04-30T08:21:46Z</time>
      </trkpt>
      <trkpt lat="45.01955" lon="4.38389">
        <ele>1011.6</ele>
        <time>2026-04-30T08:21:51Z</time>
      </trkpt>
      <trkpt lat="45.01962" lon="4.38389">
        <ele>1012.4</ele>
        <time>2026-04-30T08:21:56Z</time>
      </trkpt>
      <trkpt lat="45.01968" lon="4.38392">
        <ele>1012.6</ele>
        <time>2026-04-30T08:22:01Z</time>
      </trkpt>
      <trkpt lat="45.01973" lon="4.38396">
        <ele>1012.5</ele>
        <time>2026-04-30T08:22:06Z</time>
      </trkpt>
      <trkpt lat="45.01979" lon="4.38399">
        <ele>1012.5</ele>
        <time>2026-04-30T08:22:11Z</time>
      </trkpt>
      <trkpt lat="45.01985" lon="4.38402">
        <ele>1012.4</ele>
        <time>2026-04-30T08:22:16Z</time>
      </trkpt>
      <trkpt lat="45.0199" lon="4.38405">
        <ele>1012.1</ele>
        <time>2026-04-30T08:22:21Z</time>
      </trkpt>
      <trkpt lat="45.01995" lon="4.38408">
        <ele>1011.8</ele>
        <time>2026-04-30T08:22:26Z</time>
      </trkpt>
      <trkpt lat="45.02001" lon="4.38413">
        <ele>1011</ele>
        <time>2026-04-30T08:22:31Z</time>
      </trkpt>
      <trkpt lat="45.02005" lon="4.38417">
        <ele>1010.5</ele>
        <time>2026-04-30T08:22:36Z</time>
      </trkpt>
      <trkpt lat="45.02007" lon="4.38423">
        <ele>1010.3</ele>
        <time>2026-04-30T08:22:41Z</time>
      </trkpt>
      <trkpt lat="45.02009" lon="4.38432">
        <ele>1009.9</ele>
        <time>2026-04-30T08:22:46Z</time>
      </trkpt>
      <trkpt lat="45.02009" lon="4.38441">
        <ele>1009.3</ele>
        <time>2026-04-30T08:22:51Z</time>
      </trkpt>
      <trkpt lat="45.02008" lon="4.38452">
        <ele>1008.5</ele>
        <time>2026-04-30T08:22:56Z</time>
      </trkpt>
      <trkpt lat="45.02006" lon="4.38464">
        <ele>1007.6</ele>
        <time>2026-04-30T08:23:01Z</time>
      </trkpt>
      <trkpt lat="45.02007" lon="4.38476">
        <ele>1006.9</ele>
        <time>2026-04-30T08:23:06Z</time>
      </trkpt>
      <trkpt lat="45.02007" lon="4.38487">
        <ele>1006.2</ele>
        <time>2026-04-30T08:23:11Z</time>
      </trkpt>
      <trkpt lat="45.02009" lon="4.38495">
        <ele>1005.9</ele>
        <time>2026-04-30T08:23:16Z</time>
      </trkpt>
      <trkpt lat="45.02012" lon="4.38504">
        <ele>1005.8</ele>
        <time>2026-04-30T08:23:21Z</time>
      </trkpt>
      <trkpt lat="45.02014" lon="4.38512">
        <ele>1006.2</ele>
        <time>2026-04-30T08:23:26Z</time>
      </trkpt>
      <trkpt lat="45.02016" lon="4.38518">
        <ele>1006.5</ele>
        <time>2026-04-30T08:23:31Z</time>
      </trkpt>
      <trkpt lat="45.02019" lon="4.38526">
        <ele>1006.7</ele>
        <time>2026-04-30T08:23:36Z</time>
      </trkpt>
      <trkpt lat="45.02022" lon="4.38535">
        <ele>1007</ele>
        <time>2026-04-30T08:23:41Z</time>
      </trkpt>
      <trkpt lat="45.02026" lon="4.38543">
        <ele>1007.2</ele>
        <time>2026-04-30T08:23:46Z</time>
      </trkpt>
      <trkpt lat="45.02029" lon="4.38551">
        <ele>1007.3</ele>
        <time>2026-04-30T08:23:51Z</time>
      </trkpt>
      <trkpt lat="45.02028" lon="4.38555">
        <ele>1007.3</ele>
        <time>2026-04-30T08:23:56Z</time>
      </trkpt>
      <trkpt lat="45.02028" lon="4.38556">
        <ele>1007.3</ele>
        <time>2026-04-30T08:24:01Z</time>
      </trkpt>
      <trkpt lat="45.02033" lon="4.38566">
        <ele>1007.3</ele>
        <time>2026-04-30T08:24:06Z</time>
      </trkpt>
      <trkpt lat="45.02036" lon="4.38575">
        <ele>1007.3</ele>
        <time>2026-04-30T08:24:11Z</time>
      </trkpt>
      <trkpt lat="45.02039" lon="4.38582">
        <ele>1007.1</ele>
        <time>2026-04-30T08:24:16Z</time>
      </trkpt>
      <trkpt lat="45.02043" lon="4.38591">
        <ele>1007.1</ele>
        <time>2026-04-30T08:24:21Z</time>
      </trkpt>
      <trkpt lat="45.02047" lon="4.386">
        <ele>1007</ele>
        <time>2026-04-30T08:24:26Z</time>
      </trkpt>
      <trkpt lat="45.02048" lon="4.38603">
        <ele>1007</ele>
        <time>2026-04-30T08:24:31Z</time>
      </trkpt>
      <trkpt lat="45.02048" lon="4.38605">
        <ele>1007</ele>
        <time>2026-04-30T08:24:36Z</time>
      </trkpt>
      <trkpt lat="45.02048" lon="4.38605">
        <ele>1007</ele>
        <time>2026-04-30T08:24:41Z</time>
      </trkpt>
      <trkpt lat="45.02048" lon="4.38605">
        <ele>1007</ele>
        <time>2026-04-30T08:24:46Z</time>
      </trkpt>
      <trkpt lat="45.02048" lon="4.38605">
        <ele>1007</ele>
        <time>2026-04-30T08:24:51Z</time>
      </trkpt>
      <trkpt lat="45.02048" lon="4.38605">
        <ele>1007</ele>
        <time>2026-04-30T08:24:56Z</time>
      </trkpt>
      <trkpt lat="45.02048" lon="4.38605">
        <ele>1007</ele>
        <time>2026-04-30T08:25:01Z</time>
      </trkpt>
      <trkpt lat="45.02048" lon="4.38605">
        <ele>1007</ele>
        <time>2026-04-30T08:25:06Z</time>
      </trkpt>
      <trkpt lat="45.02048" lon="4.38605">
        <ele>1007</ele>
        <time>2026-04-30T08:25:11Z</time>
      </trkpt>
      <trkpt lat="45.02048" lon="4.38605">
        <ele>1007</ele>
        <time>2026-04-30T08:25:16Z</time>
      </trkpt>
      <trkpt lat="45.02048" lon="4.38605">
        <ele>1007</ele>
        <time>2026-04-30T08:25:21Z</time>
      </trkpt>
      <trkpt lat="45.02048" lon="4.38605">
        <ele>1007</ele>
        <time>2026-04-30T08:25:26Z</time>
      </trkpt>
      <trkpt lat="45.02048" lon="4.38605">
        <ele>1007</ele>
        <time>2026-04-30T08:25:31Z</time>
      </trkpt>
      <trkpt lat="45.02048" lon="4.38605">
        <ele>1007</ele>
        <time>2026-04-30T08:25:36Z</time>
      </trkpt>
      <trkpt lat="45.02048" lon="4.38605">
        <ele>1007</ele>
        <time>2026-04-30T08:25:41Z</time>
      </trkpt>
      <trkpt lat="45.02048" lon="4.38605">
        <ele>1007</ele>
        <time>2026-04-30T08:25:46Z</time>
      </trkpt>
      <trkpt lat="45.02048" lon="4.38605">
        <ele>1007</ele>
        <time>2026-04-30T08:25:51Z</time>
      </trkpt>
      <trkpt lat="45.02048" lon="4.38605">
        <ele>1007</ele>
        <time>2026-04-30T08:25:56Z</time>
      </trkpt>
      <trkpt lat="45.02048" lon="4.38616">
        <ele>1007.1</ele>
        <time>2026-04-30T08:26:01Z</time>
      </trkpt>
      <trkpt lat="45.02053" lon="4.38624">
        <ele>1006.9</ele>
        <time>2026-04-30T08:26:06Z</time>
      </trkpt>
      <trkpt lat="45.02058" lon="4.38631">
        <ele>1006.5</ele>
        <time>2026-04-30T08:26:11Z</time>
      </trkpt>
      <trkpt lat="45.02061" lon="4.38639">
        <ele>1006.3</ele>
        <time>2026-04-30T08:26:16Z</time>
      </trkpt>
      <trkpt lat="45.02059" lon="4.38648">
        <ele>1006.5</ele>
        <time>2026-04-30T08:26:21Z</time>
      </trkpt>
      <trkpt lat="45.02058" lon="4.38655">
        <ele>1006.7</ele>
        <time>2026-04-30T08:26:26Z</time>
      </trkpt>
      <trkpt lat="45.02059" lon="4.38655">
        <ele>1006.6</ele>
        <time>2026-04-30T08:26:31Z</time>
      </trkpt>
      <trkpt lat="45.02059" lon="4.38656">
        <ele>1006.6</ele>
        <time>2026-04-30T08:26:36Z</time>
      </trkpt>
      <trkpt lat="45.02057" lon="4.38661">
        <ele>1006.8</ele>
        <time>2026-04-30T08:26:41Z</time>
      </trkpt>
      <trkpt lat="45.02051" lon="4.38672">
        <ele>1007.7</ele>
        <time>2026-04-30T08:26:46Z</time>
      </trkpt>
      <trkpt lat="45.02041" lon="4.38674">
        <ele>1008.9</ele>
        <time>2026-04-30T08:26:51Z</time>
      </trkpt>
      <trkpt lat="45.02034" lon="4.38683">
        <ele>1010.1</ele>
        <time>2026-04-30T08:26:56Z</time>
      </trkpt>
      <trkpt lat="45.02027" lon="4.38685">
        <ele>1011</ele>
        <time>2026-04-30T08:27:01Z</time>
      </trkpt>
      <trkpt lat="45.0202" lon="4.38686">
        <ele>1012</ele>
        <time>2026-04-30T08:27:06Z</time>
      </trkpt>
      <trkpt lat="45.02012" lon="4.38685">
        <ele>1012.9</ele>
        <time>2026-04-30T08:27:11Z</time>
      </trkpt>
      <trkpt lat="45.02007" lon="4.38681">
        <ele>1013.2</ele>
        <time>2026-04-30T08:27:16Z</time>
      </trkpt>
      <trkpt lat="45.02006" lon="4.38676">
        <ele>1013</ele>
        <time>2026-04-30T08:27:21Z</time>
      </trkpt>
      <trkpt lat="45.02007" lon="4.38672">
        <ele>1012.6</ele>
        <time>2026-04-30T08:27:26Z</time>
      </trkpt>
      <trkpt lat="45.02007" lon="4.38671">
        <ele>1012.5</ele>
        <time>2026-04-30T08:27:31Z</time>
      </trkpt>
      <trkpt lat="45.02007" lon="4.38671">
        <ele>1012.5</ele>
        <time>2026-04-30T08:27:36Z</time>
      </trkpt>
      <trkpt lat="45.02007" lon="4.38671">
        <ele>1012.5</ele>
        <time>2026-04-30T08:27:41Z</time>
      </trkpt>
      <trkpt lat="45.02007" lon="4.38671">
        <ele>1012.5</ele>
        <time>2026-04-30T08:27:46Z</time>
      </trkpt>
      <trkpt lat="45.02007" lon="4.38671">
        <ele>1012.5</ele>
        <time>2026-04-30T08:27:51Z</time>
      </trkpt>
      <trkpt lat="45.02003" lon="4.38669">
        <ele>1012.8</ele>
        <time>2026-04-30T08:27:56Z</time>
      </trkpt>
      <trkpt lat="45.01998" lon="4.38667">
        <ele>1013.2</ele>
        <time>2026-04-30T08:28:01Z</time>
      </trkpt>
      <trkpt lat="45.01994" lon="4.38661">
        <ele>1013.2</ele>
        <time>2026-04-30T08:28:06Z</time>
      </trkpt>
      <trkpt lat="45.01991" lon="4.38654">
        <ele>1013.1</ele>
        <time>2026-04-30T08:28:11Z</time>
      </trkpt>
      <trkpt lat="45.01987" lon="4.38647">
        <ele>1013</ele>
        <time>2026-04-30T08:28:16Z</time>
      </trkpt>
      <trkpt lat="45.0198" lon="4.38638">
        <ele>1013.1</ele>
        <time>2026-04-30T08:28:21Z</time>
      </trkpt>
      <trkpt lat="45.01974" lon="4.38631">
        <ele>1013.3</ele>
        <time>2026-04-30T08:28:26Z</time>
      </trkpt>
      <trkpt lat="45.01969" lon="4.38624">
        <ele>1013.4</ele>
        <time>2026-04-30T08:28:31Z</time>
      </trkpt>
      <trkpt lat="45.01969" lon="4.38616">
        <ele>1013</ele>
        <time>2026-04-30T08:28:36Z</time>
      </trkpt>
      <trkpt lat="45.01968" lon="4.38613">
        <ele>1013</ele>
        <time>2026-04-30T08:28:41Z</time>
      </trkpt>
      <trkpt lat="45.01967" lon="4.3861">
        <ele>1012.9</ele>
        <time>2026-04-30T08:28:46Z</time>
      </trkpt>
      <trkpt lat="45.01967" lon="4.3861">
        <ele>1012.9</ele>
        <time>2026-04-30T08:28:51Z</time>
      </trkpt>
      <trkpt lat="45.01967" lon="4.3861">
        <ele>1012.9</ele>
        <time>2026-04-30T08:28:56Z</time>
      </trkpt>
      <trkpt lat="45.01967" lon="4.3861">
        <ele>1012.9</ele>
        <time>2026-04-30T08:29:01Z</time>
      </trkpt>
      <trkpt lat="45.01965" lon="4.38606">
        <ele>1012.9</ele>
        <time>2026-04-30T08:29:06Z</time>
      </trkpt>
      <trkpt lat="45.0196" lon="4.38607">
        <ele>1013.4</ele>
        <time>2026-04-30T08:29:11Z</time>
      </trkpt>
      <trkpt lat="45.01953" lon="4.38601">
        <ele>1013.7</ele>
        <time>2026-04-30T08:29:16Z</time>
      </trkpt>
      <trkpt lat="45.01947" lon="4.38596">
        <ele>1014</ele>
        <time>2026-04-30T08:29:21Z</time>
      </trkpt>
      <trkpt lat="45.01939" lon="4.38596">
        <ele>1014.6</ele>
        <time>2026-04-30T08:29:26Z</time>
      </trkpt>
      <trkpt lat="45.01933" lon="4.38591">
        <ele>1014.9</ele>
        <time>2026-04-30T08:29:31Z</time>
      </trkpt>
      <trkpt lat="45.01928" lon="4.38587">
        <ele>1015.2</ele>
        <time>2026-04-30T08:29:36Z</time>
      </trkpt>
      <trkpt lat="45.01921" lon="4.38586">
        <ele>1015.7</ele>
        <time>2026-04-30T08:29:41Z</time>
      </trkpt>
      <trkpt lat="45.01915" lon="4.38582">
        <ele>1016.1</ele>
        <time>2026-04-30T08:29:46Z</time>
      </trkpt>
      <trkpt lat="45.01909" lon="4.38581">
        <ele>1016.8</ele>
        <time>2026-04-30T08:29:51Z</time>
      </trkpt>
      <trkpt lat="45.01902" lon="4.38579">
        <ele>1017.6</ele>
        <time>2026-04-30T08:29:56Z</time>
      </trkpt>
      <trkpt lat="45.01896" lon="4.38577">
        <ele>1018.2</ele>
        <time>2026-04-30T08:30:01Z</time>
      </trkpt>
      <trkpt lat="45.01889" lon="4.38575">
        <ele>1019</ele>
        <time>2026-04-30T08:30:06Z</time>
      </trkpt>
      <trkpt lat="45.01883" lon="4.38571">
        <ele>1019.7</ele>
        <time>2026-04-30T08:30:11Z</time>
      </trkpt>
      <trkpt lat="45.01877" lon="4.38567">
        <ele>1020.3</ele>
        <time>2026-04-30T08:30:16Z</time>
      </trkpt>
      <trkpt lat="45.01871" lon="4.38566">
        <ele>1021.1</ele>
        <time>2026-04-30T08:30:21Z</time>
      </trkpt>
      <trkpt lat="45.01863" lon="4.38561">
        <ele>1022.1</ele>
        <time>2026-04-30T08:30:26Z</time>
      </trkpt>
      <trkpt lat="45.01858" lon="4.38558">
        <ele>1022.8</ele>
        <time>2026-04-30T08:30:31Z</time>
      </trkpt>
      <trkpt lat="45.01852" lon="4.38556">
        <ele>1023.6</ele>
        <time>2026-04-30T08:30:36Z</time>
      </trkpt>
      <trkpt lat="45.01845" lon="4.38553">
        <ele>1024.7</ele>
        <time>2026-04-30T08:30:41Z</time>
      </trkpt>
      <trkpt lat="45.01837" lon="4.38551">
        <ele>1025.8</ele>
        <time>2026-04-30T08:30:46Z</time>
      </trkpt>
      <trkpt lat="45.01831" lon="4.38548">
        <ele>1026.6</ele>
        <time>2026-04-30T08:30:51Z</time>
      </trkpt>
      <trkpt lat="45.01826" lon="4.38547">
        <ele>1026.9</ele>
        <time>2026-04-30T08:30:56Z</time>
      </trkpt>
      <trkpt lat="45.01819" lon="4.38543">
        <ele>1027.3</ele>
        <time>2026-04-30T08:31:01Z</time>
      </trkpt>
      <trkpt lat="45.01813" lon="4.38538">
        <ele>1027.6</ele>
        <time>2026-04-30T08:31:06Z</time>
      </trkpt>
      <trkpt lat="45.01809" lon="4.38532">
        <ele>1027.8</ele>
        <time>2026-04-30T08:31:11Z</time>
      </trkpt>
      <trkpt lat="45.01803" lon="4.38528">
        <ele>1028</ele>
        <time>2026-04-30T08:31:16Z</time>
      </trkpt>
      <trkpt lat="45.01797" lon="4.38525">
        <ele>1028.2</ele>
        <time>2026-04-30T08:31:21Z</time>
      </trkpt>
      <trkpt lat="45.01791" lon="4.38523">
        <ele>1028.4</ele>
        <time>2026-04-30T08:31:26Z</time>
      </trkpt>
      <trkpt lat="45.01785" lon="4.38524">
        <ele>1028.7</ele>
        <time>2026-04-30T08:31:31Z</time>
      </trkpt>
      <trkpt lat="45.0178" lon="4.38526">
        <ele>1029</ele>
        <time>2026-04-30T08:31:36Z</time>
      </trkpt>
      <trkpt lat="45.01778" lon="4.38531">
        <ele>1029.2</ele>
        <time>2026-04-30T08:31:41Z</time>
      </trkpt>
      <trkpt lat="45.01776" lon="4.38535">
        <ele>1029.4</ele>
        <time>2026-04-30T08:31:46Z</time>
      </trkpt>
      <trkpt lat="45.01774" lon="4.38541">
        <ele>1029.7</ele>
        <time>2026-04-30T08:31:51Z</time>
      </trkpt>
      <trkpt lat="45.01771" lon="4.38547">
        <ele>1030</ele>
        <time>2026-04-30T08:31:56Z</time>
      </trkpt>
      <trkpt lat="45.01767" lon="4.38552">
        <ele>1030.5</ele>
        <time>2026-04-30T08:32:01Z</time>
      </trkpt>
      <trkpt lat="45.01763" lon="4.38556">
        <ele>1030.9</ele>
        <time>2026-04-30T08:32:06Z</time>
      </trkpt>
      <trkpt lat="45.01759" lon="4.3856">
        <ele>1031.3</ele>
        <time>2026-04-30T08:32:11Z</time>
      </trkpt>
      <trkpt lat="45.01754" lon="4.38565">
        <ele>1031.8</ele>
        <time>2026-04-30T08:32:16Z</time>
      </trkpt>
      <trkpt lat="45.01748" lon="4.38568">
        <ele>1032.4</ele>
        <time>2026-04-30T08:32:21Z</time>
      </trkpt>
      <trkpt lat="45.01744" lon="4.3857">
        <ele>1032.8</ele>
        <time>2026-04-30T08:32:26Z</time>
      </trkpt>
      <trkpt lat="45.01739" lon="4.38571">
        <ele>1033.2</ele>
        <time>2026-04-30T08:32:31Z</time>
      </trkpt>
      <trkpt lat="45.01734" lon="4.38571">
        <ele>1033.6</ele>
        <time>2026-04-30T08:32:36Z</time>
      </trkpt>
      <trkpt lat="45.01728" lon="4.38571">
        <ele>1034</ele>
        <time>2026-04-30T08:32:41Z</time>
      </trkpt>
      <trkpt lat="45.01722" lon="4.38572">
        <ele>1034.5</ele>
        <time>2026-04-30T08:32:46Z</time>
      </trkpt>
      <trkpt lat="45.01716" lon="4.38573">
        <ele>1035</ele>
        <time>2026-04-30T08:32:51Z</time>
      </trkpt>
      <trkpt lat="45.01712" lon="4.38573">
        <ele>1035.3</ele>
        <time>2026-04-30T08:32:56Z</time>
      </trkpt>
      <trkpt lat="45.01707" lon="4.38574">
        <ele>1035.7</ele>
        <time>2026-04-30T08:33:01Z</time>
      </trkpt>
      <trkpt lat="45.017" lon="4.38576">
        <ele>1036.3</ele>
        <time>2026-04-30T08:33:06Z</time>
      </trkpt>
      <trkpt lat="45.01694" lon="4.38579">
        <ele>1036.9</ele>
        <time>2026-04-30T08:33:11Z</time>
      </trkpt>
      <trkpt lat="45.01687" lon="4.38581">
        <ele>1037.4</ele>
        <time>2026-04-30T08:33:16Z</time>
      </trkpt>
      <trkpt lat="45.01682" lon="4.38585">
        <ele>1038</ele>
        <time>2026-04-30T08:33:21Z</time>
      </trkpt>
      <trkpt lat="45.01676" lon="4.38588">
        <ele>1038.5</ele>
        <time>2026-04-30T08:33:26Z</time>
      </trkpt>
      <trkpt lat="45.01671" lon="4.38591">
        <ele>1039.1</ele>
        <time>2026-04-30T08:33:31Z</time>
      </trkpt>
      <trkpt lat="45.01666" lon="4.38593">
        <ele>1039.5</ele>
        <time>2026-04-30T08:33:36Z</time>
      </trkpt>
      <trkpt lat="45.01659" lon="4.38597">
        <ele>1040.3</ele>
        <time>2026-04-30T08:33:41Z</time>
      </trkpt>
      <trkpt lat="45.01654" lon="4.38601">
        <ele>1040.8</ele>
        <time>2026-04-30T08:33:46Z</time>
      </trkpt>
      <trkpt lat="45.01649" lon="4.38606">
        <ele>1041.4</ele>
        <time>2026-04-30T08:33:51Z</time>
      </trkpt>
      <trkpt lat="45.01645" lon="4.3861">
        <ele>1041.9</ele>
        <time>2026-04-30T08:33:56Z</time>
      </trkpt>
      <trkpt lat="45.0164" lon="4.38615">
        <ele>1042.4</ele>
        <time>2026-04-30T08:34:01Z</time>
      </trkpt>
      <trkpt lat="45.01635" lon="4.3862">
        <ele>1042.9</ele>
        <time>2026-04-30T08:34:06Z</time>
      </trkpt>
      <trkpt lat="45.01632" lon="4.38625">
        <ele>1043.3</ele>
        <time>2026-04-30T08:34:11Z</time>
      </trkpt>
      <trkpt lat="45.01628" lon="4.3863">
        <ele>1043.7</ele>
        <time>2026-04-30T08:34:16Z</time>
      </trkpt>
      <trkpt lat="45.01623" lon="4.38635">
        <ele>1044.2</ele>
        <time>2026-04-30T08:34:21Z</time>
      </trkpt>
      <trkpt lat="45.01618" lon="4.38641">
        <ele>1044.6</ele>
        <time>2026-04-30T08:34:26Z</time>
      </trkpt>
      <trkpt lat="45.01614" lon="4.38645">
        <ele>1045</ele>
        <time>2026-04-30T08:34:31Z</time>
      </trkpt>
      <trkpt lat="45.01609" lon="4.38649">
        <ele>1045.4</ele>
        <time>2026-04-30T08:34:36Z</time>
      </trkpt>
      <trkpt lat="45.01605" lon="4.38654">
        <ele>1045.7</ele>
        <time>2026-04-30T08:34:41Z</time>
      </trkpt>
      <trkpt lat="45.016" lon="4.38658">
        <ele>1046</ele>
        <time>2026-04-30T08:34:46Z</time>
      </trkpt>
      <trkpt lat="45.01596" lon="4.38662">
        <ele>1046.3</ele>
        <time>2026-04-30T08:34:51Z</time>
      </trkpt>
      <trkpt lat="45.01592" lon="4.38665">
        <ele>1046.6</ele>
        <time>2026-04-30T08:34:56Z</time>
      </trkpt>
      <trkpt lat="45.01587" lon="4.38671">
        <ele>1047</ele>
        <time>2026-04-30T08:35:01Z</time>
      </trkpt>
      <trkpt lat="45.01583" lon="4.38676">
        <ele>1047.3</ele>
        <time>2026-04-30T08:35:06Z</time>
      </trkpt>
      <trkpt lat="45.01578" lon="4.38681">
        <ele>1047.6</ele>
        <time>2026-04-30T08:35:11Z</time>
      </trkpt>
      <trkpt lat="45.01573" lon="4.38686">
        <ele>1047.8</ele>
        <time>2026-04-30T08:35:16Z</time>
      </trkpt>
      <trkpt lat="45.0157" lon="4.38688">
        <ele>1047.9</ele>
        <time>2026-04-30T08:35:21Z</time>
      </trkpt>
      <trkpt lat="45.01567" lon="4.38683">
        <ele>1047.8</ele>
        <time>2026-04-30T08:35:26Z</time>
      </trkpt>
      <trkpt lat="45.01566" lon="4.38678">
        <ele>1047.6</ele>
        <time>2026-04-30T08:35:31Z</time>
      </trkpt>
      <trkpt lat="45.01563" lon="4.38673">
        <ele>1047.5</ele>
        <time>2026-04-30T08:35:36Z</time>
      </trkpt>
      <trkpt lat="45.0156" lon="4.38666">
        <ele>1047.3</ele>
        <time>2026-04-30T08:35:41Z</time>
      </trkpt>
      <trkpt lat="45.01556" lon="4.38659">
        <ele>1047.2</ele>
        <time>2026-04-30T08:35:46Z</time>
      </trkpt>
      <trkpt lat="45.01551" lon="4.38653">
        <ele>1047.1</ele>
        <time>2026-04-30T08:35:51Z</time>
      </trkpt>
      <trkpt lat="45.01545" lon="4.38649">
        <ele>1047.1</ele>
        <time>2026-04-30T08:35:56Z</time>
      </trkpt>
      <trkpt lat="45.0154" lon="4.38644">
        <ele>1047</ele>
        <time>2026-04-30T08:36:01Z</time>
      </trkpt>
      <trkpt lat="45.01534" lon="4.3864">
        <ele>1046.9</ele>
        <time>2026-04-30T08:36:06Z</time>
      </trkpt>
      <trkpt lat="45.01527" lon="4.38637">
        <ele>1046.8</ele>
        <time>2026-04-30T08:36:11Z</time>
      </trkpt>
      <trkpt lat="45.01522" lon="4.38636">
        <ele>1046.8</ele>
        <time>2026-04-30T08:36:16Z</time>
      </trkpt>
      <trkpt lat="45.01514" lon="4.38636">
        <ele>1046.9</ele>
        <time>2026-04-30T08:36:21Z</time>
      </trkpt>
      <trkpt lat="45.01508" lon="4.38637">
        <ele>1046.9</ele>
        <time>2026-04-30T08:36:26Z</time>
      </trkpt>
      <trkpt lat="45.01501" lon="4.38644">
        <ele>1047.2</ele>
        <time>2026-04-30T08:36:31Z</time>
      </trkpt>
      <trkpt lat="45.015" lon="4.38653">
        <ele>1047.5</ele>
        <time>2026-04-30T08:36:36Z</time>
      </trkpt>
      <trkpt lat="45.01499" lon="4.38661">
        <ele>1047.8</ele>
        <time>2026-04-30T08:36:41Z</time>
      </trkpt>
      <trkpt lat="45.01496" lon="4.38672">
        <ele>1048</ele>
        <time>2026-04-30T08:36:46Z</time>
      </trkpt>
      <trkpt lat="45.01496" lon="4.38682">
        <ele>1048.4</ele>
        <time>2026-04-30T08:36:51Z</time>
      </trkpt>
      <trkpt lat="45.01494" lon="4.3869">
        <ele>1048.6</ele>
        <time>2026-04-30T08:36:56Z</time>
      </trkpt>
      <trkpt lat="45.01492" lon="4.38698">
        <ele>1048.8</ele>
        <time>2026-04-30T08:37:01Z</time>
      </trkpt>
      <trkpt lat="45.0149" lon="4.38707">
        <ele>1049</ele>
        <time>2026-04-30T08:37:06Z</time>
      </trkpt>
      <trkpt lat="45.01487" lon="4.38715">
        <ele>1049.1</ele>
        <time>2026-04-30T08:37:11Z</time>
      </trkpt>
      <trkpt lat="45.01485" lon="4.38723">
        <ele>1049.2</ele>
        <time>2026-04-30T08:37:16Z</time>
      </trkpt>
      <trkpt lat="45.01484" lon="4.3873">
        <ele>1049.4</ele>
        <time>2026-04-30T08:37:21Z</time>
      </trkpt>
      <trkpt lat="45.01481" lon="4.3874">
        <ele>1049.6</ele>
        <time>2026-04-30T08:37:26Z</time>
      </trkpt>
      <trkpt lat="45.01477" lon="4.3875">
        <ele>1049.6</ele>
        <time>2026-04-30T08:37:31Z</time>
      </trkpt>
      <trkpt lat="45.01474" lon="4.38757">
        <ele>1049.6</ele>
        <time>2026-04-30T08:37:36Z</time>
      </trkpt>
      <trkpt lat="45.0147" lon="4.38764">
        <ele>1049.5</ele>
        <time>2026-04-30T08:37:41Z</time>
      </trkpt>
      <trkpt lat="45.01464" lon="4.38766">
        <ele>1049.2</ele>
        <time>2026-04-30T08:37:46Z</time>
      </trkpt>
      <trkpt lat="45.01459" lon="4.38766">
        <ele>1048.9</ele>
        <time>2026-04-30T08:37:51Z</time>
      </trkpt>
      <trkpt lat="45.01456" lon="4.38777">
        <ele>1049</ele>
        <time>2026-04-30T08:37:56Z</time>
      </trkpt>
      <trkpt lat="45.01456" lon="4.38788">
        <ele>1049.3</ele>
        <time>2026-04-30T08:38:01Z</time>
      </trkpt>
      <trkpt lat="45.01457" lon="4.38796">
        <ele>1049.5</ele>
        <time>2026-04-30T08:38:06Z</time>
      </trkpt>
      <trkpt lat="45.01454" lon="4.38801">
        <ele>1049.5</ele>
        <time>2026-04-30T08:38:11Z</time>
      </trkpt>
      <trkpt lat="45.01449" lon="4.38809">
        <ele>1049.4</ele>
        <time>2026-04-30T08:38:16Z</time>
      </trkpt>
      <trkpt lat="45.01445" lon="4.38817">
        <ele>1049.3</ele>
        <time>2026-04-30T08:38:21Z</time>
      </trkpt>
      <trkpt lat="45.0144" lon="4.38821">
        <ele>1049.1</ele>
        <time>2026-04-30T08:38:26Z</time>
      </trkpt>
      <trkpt lat="45.01434" lon="4.38829">
        <ele>1048.9</ele>
        <time>2026-04-30T08:38:31Z</time>
      </trkpt>
      <trkpt lat="45.01427" lon="4.38837">
        <ele>1048.8</ele>
        <time>2026-04-30T08:38:36Z</time>
      </trkpt>
      <trkpt lat="45.01423" lon="4.38844">
        <ele>1048.9</ele>
        <time>2026-04-30T08:38:41Z</time>
      </trkpt>
      <trkpt lat="45.01417" lon="4.38852">
        <ele>1048.9</ele>
        <time>2026-04-30T08:38:46Z</time>
      </trkpt>
      <trkpt lat="45.01413" lon="4.38859">
        <ele>1049.1</ele>
        <time>2026-04-30T08:38:51Z</time>
      </trkpt>
      <trkpt lat="45.01407" lon="4.38867">
        <ele>1049.3</ele>
        <time>2026-04-30T08:38:56Z</time>
      </trkpt>
      <trkpt lat="45.01402" lon="4.38876">
        <ele>1049.5</ele>
        <time>2026-04-30T08:39:01Z</time>
      </trkpt>
      <trkpt lat="45.01398" lon="4.38884">
        <ele>1049.8</ele>
        <time>2026-04-30T08:39:06Z</time>
      </trkpt>
      <trkpt lat="45.01395" lon="4.38891">
        <ele>1050</ele>
        <time>2026-04-30T08:39:11Z</time>
      </trkpt>
      <trkpt lat="45.01391" lon="4.38896">
        <ele>1050.1</ele>
        <time>2026-04-30T08:39:16Z</time>
      </trkpt>
      <trkpt lat="45.01387" lon="4.38902">
        <ele>1050.2</ele>
        <time>2026-04-30T08:39:21Z</time>
      </trkpt>
      <trkpt lat="45.01385" lon="4.38912">
        <ele>1050.6</ele>
        <time>2026-04-30T08:39:26Z</time>
      </trkpt>
      <trkpt lat="45.01379" lon="4.38913">
        <ele>1050.5</ele>
        <time>2026-04-30T08:39:31Z</time>
      </trkpt>
      <trkpt lat="45.01371" lon="4.38906">
        <ele>1049.8</ele>
        <time>2026-04-30T08:39:36Z</time>
      </trkpt>
      <trkpt lat="45.01366" lon="4.389">
        <ele>1049.4</ele>
        <time>2026-04-30T08:39:41Z</time>
      </trkpt>
      <trkpt lat="45.0136" lon="4.38893">
        <ele>1048.8</ele>
        <time>2026-04-30T08:39:46Z</time>
      </trkpt>
      <trkpt lat="45.01355" lon="4.38892">
        <ele>1048.6</ele>
        <time>2026-04-30T08:39:51Z</time>
      </trkpt>
      <trkpt lat="45.0135" lon="4.38886">
        <ele>1048.1</ele>
        <time>2026-04-30T08:39:56Z</time>
      </trkpt>
      <trkpt lat="45.01348" lon="4.38881">
        <ele>1047.8</ele>
        <time>2026-04-30T08:40:01Z</time>
      </trkpt>
      <trkpt lat="45.01345" lon="4.38872">
        <ele>1047.3</ele>
        <time>2026-04-30T08:40:06Z</time>
      </trkpt>
      <trkpt lat="45.0134" lon="4.38866">
        <ele>1046.8</ele>
        <time>2026-04-30T08:40:11Z</time>
      </trkpt>
      <trkpt lat="45.01337" lon="4.38856">
        <ele>1046.2</ele>
        <time>2026-04-30T08:40:16Z</time>
      </trkpt>
      <trkpt lat="45.01335" lon="4.38844">
        <ele>1045.6</ele>
        <time>2026-04-30T08:40:21Z</time>
      </trkpt>
      <trkpt lat="45.01333" lon="4.38835">
        <ele>1045.1</ele>
        <time>2026-04-30T08:40:26Z</time>
      </trkpt>
      <trkpt lat="45.01327" lon="4.38829">
        <ele>1044.5</ele>
        <time>2026-04-30T08:40:31Z</time>
      </trkpt>
      <trkpt lat="45.01322" lon="4.38818">
        <ele>1043.8</ele>
        <time>2026-04-30T08:40:36Z</time>
      </trkpt>
      <trkpt lat="45.01316" lon="4.3882">
        <ele>1043.6</ele>
        <time>2026-04-30T08:40:41Z</time>
      </trkpt>
      <trkpt lat="45.01307" lon="4.38824">
        <ele>1043.4</ele>
        <time>2026-04-30T08:40:46Z</time>
      </trkpt>
      <trkpt lat="45.01299" lon="4.38827">
        <ele>1043.1</ele>
        <time>2026-04-30T08:40:51Z</time>
      </trkpt>
      <trkpt lat="45.01291" lon="4.38833">
        <ele>1043</ele>
        <time>2026-04-30T08:40:56Z</time>
      </trkpt>
      <trkpt lat="45.01286" lon="4.38836">
        <ele>1042.8</ele>
        <time>2026-04-30T08:41:01Z</time>
      </trkpt>
      <trkpt lat="45.01284" lon="4.38835">
        <ele>1042.7</ele>
        <time>2026-04-30T08:41:06Z</time>
      </trkpt>
      <trkpt lat="45.01284" lon="4.38835">
        <ele>1042.7</ele>
        <time>2026-04-30T08:41:11Z</time>
      </trkpt>
      <trkpt lat="45.01284" lon="4.38835">
        <ele>1042.7</ele>
        <time>2026-04-30T08:41:16Z</time>
      </trkpt>
      <trkpt lat="45.01284" lon="4.38835">
        <ele>1042.7</ele>
        <time>2026-04-30T08:41:21Z</time>
      </trkpt>
      <trkpt lat="45.01284" lon="4.38835">
        <ele>1042.7</ele>
        <time>2026-04-30T08:41:26Z</time>
      </trkpt>
      <trkpt lat="45.01284" lon="4.38835">
        <ele>1042.7</ele>
        <time>2026-04-30T08:41:31Z</time>
      </trkpt>
      <trkpt lat="45.01284" lon="4.38835">
        <ele>1042.7</ele>
        <time>2026-04-30T08:41:31Z</time>
      </trkpt>
      <trkpt lat="45.01294" lon="4.38842">
        <ele>1043.5</ele>
        <time>2026-04-30T08:55:39Z</time>
      </trkpt>
      <trkpt lat="45.01293" lon="4.38833">
        <ele>1043.1</ele>
        <time>2026-04-30T08:55:45Z</time>
      </trkpt>
      <trkpt lat="45.01293" lon="4.38833">
        <ele>1043.1</ele>
        <time>2026-04-30T08:55:50Z</time>
      </trkpt>
      <trkpt lat="45.01293" lon="4.38833">
        <ele>1043.1</ele>
        <time>2026-04-30T08:55:55Z</time>
      </trkpt>
      <trkpt lat="45.01293" lon="4.38833">
        <ele>1043.1</ele>
        <time>2026-04-30T08:56:00Z</time>
      </trkpt>
      <trkpt lat="45.01293" lon="4.38833">
        <ele>1043.1</ele>
        <time>2026-04-30T08:56:05Z</time>
      </trkpt>
      <trkpt lat="45.01293" lon="4.38833">
        <ele>1043.1</ele>
        <time>2026-04-30T08:56:10Z</time>
      </trkpt>
      <trkpt lat="45.01293" lon="4.38833">
        <ele>1043.1</ele>
        <time>2026-04-30T08:56:15Z</time>
      </trkpt>
      <trkpt lat="45.01293" lon="4.38833">
        <ele>1043.1</ele>
        <time>2026-04-30T08:56:20Z</time>
      </trkpt>
      <trkpt lat="45.01293" lon="4.38833">
        <ele>1043.1</ele>
        <time>2026-04-30T08:56:25Z</time>
      </trkpt>
      <trkpt lat="45.01293" lon="4.38833">
        <ele>1043.1</ele>
        <time>2026-04-30T08:56:30Z</time>
      </trkpt>
      <trkpt lat="45.01291" lon="4.38843">
        <ele>1043.4</ele>
        <time>2026-04-30T08:56:35Z</time>
      </trkpt>
      <trkpt lat="45.01296" lon="4.38848">
        <ele>1043.8</ele>
        <time>2026-04-30T08:56:40Z</time>
      </trkpt>
      <trkpt lat="45.01299" lon="4.38851">
        <ele>1044.1</ele>
        <time>2026-04-30T08:56:45Z</time>
      </trkpt>
      <trkpt lat="45.01302" lon="4.38856">
        <ele>1044.5</ele>
        <time>2026-04-30T08:56:50Z</time>
      </trkpt>
      <trkpt lat="45.01309" lon="4.38862">
        <ele>1045.1</ele>
        <time>2026-04-30T08:56:55Z</time>
      </trkpt>
      <trkpt lat="45.01315" lon="4.38856">
        <ele>1045.1</ele>
        <time>2026-04-30T08:57:00Z</time>
      </trkpt>
      <trkpt lat="45.01319" lon="4.38849">
        <ele>1045</ele>
        <time>2026-04-30T08:57:05Z</time>
      </trkpt>
      <trkpt lat="45.01324" lon="4.38842">
        <ele>1045</ele>
        <time>2026-04-30T08:57:10Z</time>
      </trkpt>
      <trkpt lat="45.01329" lon="4.38837">
        <ele>1045</ele>
        <time>2026-04-30T08:57:15Z</time>
      </trkpt>
      <trkpt lat="45.01332" lon="4.38842">
        <ele>1045.4</ele>
        <time>2026-04-30T08:57:20Z</time>
      </trkpt>
      <trkpt lat="45.01334" lon="4.38851">
        <ele>1045.9</ele>
        <time>2026-04-30T08:57:25Z</time>
      </trkpt>
      <trkpt lat="45.01336" lon="4.3886">
        <ele>1046.4</ele>
        <time>2026-04-30T08:57:30Z</time>
      </trkpt>
      <trkpt lat="45.01339" lon="4.38866">
        <ele>1046.8</ele>
        <time>2026-04-30T08:57:35Z</time>
      </trkpt>
      <trkpt lat="45.01341" lon="4.38871">
        <ele>1047.1</ele>
        <time>2026-04-30T08:57:40Z</time>
      </trkpt>
      <trkpt lat="45.01345" lon="4.38874">
        <ele>1047.4</ele>
        <time>2026-04-30T08:57:45Z</time>
      </trkpt>
      <trkpt lat="45.01347" lon="4.38877">
        <ele>1047.6</ele>
        <time>2026-04-30T08:57:50Z</time>
      </trkpt>
      <trkpt lat="45.01348" lon="4.38883">
        <ele>1047.9</ele>
        <time>2026-04-30T08:57:55Z</time>
      </trkpt>
      <trkpt lat="45.01349" lon="4.38891">
        <ele>1048.3</ele>
        <time>2026-04-30T08:58:00Z</time>
      </trkpt>
      <trkpt lat="45.01354" lon="4.3889">
        <ele>1048.5</ele>
        <time>2026-04-30T08:58:05Z</time>
      </trkpt>
      <trkpt lat="45.01357" lon="4.38896">
        <ele>1048.9</ele>
        <time>2026-04-30T08:58:10Z</time>
      </trkpt>
      <trkpt lat="45.01361" lon="4.38901">
        <ele>1049.2</ele>
        <time>2026-04-30T08:58:15Z</time>
      </trkpt>
      <trkpt lat="45.01366" lon="4.38905">
        <ele>1049.6</ele>
        <time>2026-04-30T08:58:20Z</time>
      </trkpt>
      <trkpt lat="45.01372" lon="4.38909">
        <ele>1050</ele>
        <time>2026-04-30T08:58:25Z</time>
      </trkpt>
      <trkpt lat="45.01379" lon="4.38912">
        <ele>1050.4</ele>
        <time>2026-04-30T08:58:30Z</time>
      </trkpt>
      <trkpt lat="45.01385" lon="4.38922">
        <ele>1051</ele>
        <time>2026-04-30T08:58:35Z</time>
      </trkpt>
      <trkpt lat="45.01382" lon="4.38928">
        <ele>1051.1</ele>
        <time>2026-04-30T08:58:40Z</time>
      </trkpt>
      <trkpt lat="45.01378" lon="4.38939">
        <ele>1051.3</ele>
        <time>2026-04-30T08:58:45Z</time>
      </trkpt>
      <trkpt lat="45.01374" lon="4.38946">
        <ele>1051.3</ele>
        <time>2026-04-30T08:58:50Z</time>
      </trkpt>
      <trkpt lat="45.0137" lon="4.38954">
        <ele>1051.5</ele>
        <time>2026-04-30T08:58:55Z</time>
      </trkpt>
      <trkpt lat="45.01366" lon="4.38962">
        <ele>1051.6</ele>
        <time>2026-04-30T08:59:00Z</time>
      </trkpt>
      <trkpt lat="45.01362" lon="4.38971">
        <ele>1051.8</ele>
        <time>2026-04-30T08:59:05Z</time>
      </trkpt>
      <trkpt lat="45.01359" lon="4.38982">
        <ele>1052</ele>
        <time>2026-04-30T08:59:10Z</time>
      </trkpt>
      <trkpt lat="45.01355" lon="4.38992">
        <ele>1052.3</ele>
        <time>2026-04-30T08:59:15Z</time>
      </trkpt>
      <trkpt lat="45.0135" lon="4.39001">
        <ele>1052.5</ele>
        <time>2026-04-30T08:59:20Z</time>
      </trkpt>
      <trkpt lat="45.01347" lon="4.39007">
        <ele>1052.7</ele>
        <time>2026-04-30T08:59:25Z</time>
      </trkpt>
      <trkpt lat="45.01344" lon="4.39011">
        <ele>1052.9</ele>
        <time>2026-04-30T08:59:30Z</time>
      </trkpt>
      <trkpt lat="45.0134" lon="4.39019">
        <ele>1053.3</ele>
        <time>2026-04-30T08:59:35Z</time>
      </trkpt>
      <trkpt lat="45.01334" lon="4.39025">
        <ele>1053.5</ele>
        <time>2026-04-30T08:59:40Z</time>
      </trkpt>
      <trkpt lat="45.01329" lon="4.39029">
        <ele>1053.5</ele>
        <time>2026-04-30T08:59:45Z</time>
      </trkpt>
      <trkpt lat="45.01325" lon="4.39041">
        <ele>1054</ele>
        <time>2026-04-30T08:59:50Z</time>
      </trkpt>
      <trkpt lat="45.01319" lon="4.3905">
        <ele>1054.1</ele>
        <time>2026-04-30T08:59:55Z</time>
      </trkpt>
      <trkpt lat="45.01314" lon="4.39055">
        <ele>1054.1</ele>
        <time>2026-04-30T09:00:00Z</time>
      </trkpt>
      <trkpt lat="45.01308" lon="4.3906">
        <ele>1053.9</ele>
        <time>2026-04-30T09:00:05Z</time>
      </trkpt>
      <trkpt lat="45.01302" lon="4.39064">
        <ele>1053.8</ele>
        <time>2026-04-30T09:00:10Z</time>
      </trkpt>
      <trkpt lat="45.01296" lon="4.39069">
        <ele>1053.6</ele>
        <time>2026-04-30T09:00:15Z</time>
      </trkpt>
      <trkpt lat="45.01289" lon="4.39077">
        <ele>1053.5</ele>
        <time>2026-04-30T09:00:20Z</time>
      </trkpt>
      <trkpt lat="45.01282" lon="4.39082">
        <ele>1053.2</ele>
        <time>2026-04-30T09:00:25Z</time>
      </trkpt>
      <trkpt lat="45.01276" lon="4.39087">
        <ele>1053.1</ele>
        <time>2026-04-30T09:00:30Z</time>
      </trkpt>
      <trkpt lat="45.01269" lon="4.3909">
        <ele>1052.8</ele>
        <time>2026-04-30T09:00:35Z</time>
      </trkpt>
      <trkpt lat="45.01263" lon="4.39095">
        <ele>1052.8</ele>
        <time>2026-04-30T09:00:40Z</time>
      </trkpt>
      <trkpt lat="45.01259" lon="4.39101">
        <ele>1052.9</ele>
        <time>2026-04-30T09:00:45Z</time>
      </trkpt>
      <trkpt lat="45.01254" lon="4.39103">
        <ele>1052.7</ele>
        <time>2026-04-30T09:00:50Z</time>
      </trkpt>
      <trkpt lat="45.01249" lon="4.39109">
        <ele>1052.8</ele>
        <time>2026-04-30T09:00:55Z</time>
      </trkpt>
      <trkpt lat="45.01242" lon="4.39118">
        <ele>1053.3</ele>
        <time>2026-04-30T09:01:00Z</time>
      </trkpt>
      <trkpt lat="45.01234" lon="4.39124">
        <ele>1053.5</ele>
        <time>2026-04-30T09:01:05Z</time>
      </trkpt>
      <trkpt lat="45.01229" lon="4.39132">
        <ele>1053.8</ele>
        <time>2026-04-30T09:01:10Z</time>
      </trkpt>
      <trkpt lat="45.01223" lon="4.39135">
        <ele>1053.8</ele>
        <time>2026-04-30T09:01:15Z</time>
      </trkpt>
      <trkpt lat="45.01218" lon="4.39139">
        <ele>1053.9</ele>
        <time>2026-04-30T09:01:20Z</time>
      </trkpt>
      <trkpt lat="45.01218" lon="4.39144">
        <ele>1054.1</ele>
        <time>2026-04-30T09:01:25Z</time>
      </trkpt>
      <trkpt lat="45.0122" lon="4.39153">
        <ele>1054.8</ele>
        <time>2026-04-30T09:01:30Z</time>
      </trkpt>
      <trkpt lat="45.01222" lon="4.3916">
        <ele>1055.3</ele>
        <time>2026-04-30T09:01:35Z</time>
      </trkpt>
      <trkpt lat="45.01223" lon="4.39167">
        <ele>1055.7</ele>
        <time>2026-04-30T09:01:40Z</time>
      </trkpt>
      <trkpt lat="45.01222" lon="4.39175">
        <ele>1056.3</ele>
        <time>2026-04-30T09:01:45Z</time>
      </trkpt>
      <trkpt lat="45.01221" lon="4.39183">
        <ele>1056.8</ele>
        <time>2026-04-30T09:01:50Z</time>
      </trkpt>
      <trkpt lat="45.01221" lon="4.39192">
        <ele>1057.4</ele>
        <time>2026-04-30T09:01:55Z</time>
      </trkpt>
      <trkpt lat="45.01219" lon="4.392">
        <ele>1057.8</ele>
        <time>2026-04-30T09:02:00Z</time>
      </trkpt>
      <trkpt lat="45.01218" lon="4.39208">
        <ele>1058.3</ele>
        <time>2026-04-30T09:02:05Z</time>
      </trkpt>
      <trkpt lat="45.01216" lon="4.39217">
        <ele>1058.7</ele>
        <time>2026-04-30T09:02:10Z</time>
      </trkpt>
      <trkpt lat="45.01214" lon="4.39224">
        <ele>1059</ele>
        <time>2026-04-30T09:02:15Z</time>
      </trkpt>
      <trkpt lat="45.01212" lon="4.3923">
        <ele>1059.2</ele>
        <time>2026-04-30T09:02:20Z</time>
      </trkpt>
      <trkpt lat="45.0121" lon="4.39236">
        <ele>1059.3</ele>
        <time>2026-04-30T09:02:25Z</time>
      </trkpt>
      <trkpt lat="45.0121" lon="4.39243">
        <ele>1059.8</ele>
        <time>2026-04-30T09:02:30Z</time>
      </trkpt>
      <trkpt lat="45.01208" lon="4.39251">
        <ele>1060.1</ele>
        <time>2026-04-30T09:02:35Z</time>
      </trkpt>
      <trkpt lat="45.01206" lon="4.39258">
        <ele>1060.5</ele>
        <time>2026-04-30T09:02:40Z</time>
      </trkpt>
      <trkpt lat="45.01205" lon="4.39266">
        <ele>1061.1</ele>
        <time>2026-04-30T09:02:45Z</time>
      </trkpt>
      <trkpt lat="45.01203" lon="4.39275">
        <ele>1061.6</ele>
        <time>2026-04-30T09:02:50Z</time>
      </trkpt>
      <trkpt lat="45.01202" lon="4.39282">
        <ele>1062.1</ele>
        <time>2026-04-30T09:02:55Z</time>
      </trkpt>
      <trkpt lat="45.01201" lon="4.39289">
        <ele>1062.6</ele>
        <time>2026-04-30T09:03:00Z</time>
      </trkpt>
      <trkpt lat="45.01202" lon="4.39297">
        <ele>1063.5</ele>
        <time>2026-04-30T09:03:05Z</time>
      </trkpt>
      <trkpt lat="45.01201" lon="4.39304">
        <ele>1064</ele>
        <time>2026-04-30T09:03:10Z</time>
      </trkpt>
      <trkpt lat="45.012" lon="4.39309">
        <ele>1064.2</ele>
        <time>2026-04-30T09:03:15Z</time>
      </trkpt>
      <trkpt lat="45.012" lon="4.39316">
        <ele>1064.9</ele>
        <time>2026-04-30T09:03:20Z</time>
      </trkpt>
      <trkpt lat="45.01198" lon="4.39323">
        <ele>1065.1</ele>
        <time>2026-04-30T09:03:25Z</time>
      </trkpt>
      <trkpt lat="45.01194" lon="4.39331">
        <ele>1065.1</ele>
        <time>2026-04-30T09:03:30Z</time>
      </trkpt>
      <trkpt lat="45.01192" lon="4.39337">
        <ele>1065.2</ele>
        <time>2026-04-30T09:03:35Z</time>
      </trkpt>
      <trkpt lat="45.01191" lon="4.39341">
        <ele>1065.4</ele>
        <time>2026-04-30T09:03:40Z</time>
      </trkpt>
      <trkpt lat="45.01192" lon="4.39341">
        <ele>1065.6</ele>
        <time>2026-04-30T09:03:45Z</time>
      </trkpt>
      <trkpt lat="45.01194" lon="4.39347">
        <ele>1066.6</ele>
        <time>2026-04-30T09:03:50Z</time>
      </trkpt>
      <trkpt lat="45.01196" lon="4.39353">
        <ele>1067.5</ele>
        <time>2026-04-30T09:03:55Z</time>
      </trkpt>
      <trkpt lat="45.01197" lon="4.39359">
        <ele>1068.3</ele>
        <time>2026-04-30T09:04:00Z</time>
      </trkpt>
      <trkpt lat="45.01197" lon="4.39366">
        <ele>1069</ele>
        <time>2026-04-30T09:04:05Z</time>
      </trkpt>
      <trkpt lat="45.01198" lon="4.39374">
        <ele>1070</ele>
        <time>2026-04-30T09:04:10Z</time>
      </trkpt>
      <trkpt lat="45.01198" lon="4.39382">
        <ele>1070.8</ele>
        <time>2026-04-30T09:04:15Z</time>
      </trkpt>
      <trkpt lat="45.01199" lon="4.39388">
        <ele>1071.6</ele>
        <time>2026-04-30T09:04:20Z</time>
      </trkpt>
      <trkpt lat="45.012" lon="4.39395">
        <ele>1072.5</ele>
        <time>2026-04-30T09:04:25Z</time>
      </trkpt>
      <trkpt lat="45.01201" lon="4.39401">
        <ele>1073.3</ele>
        <time>2026-04-30T09:04:30Z</time>
      </trkpt>
      <trkpt lat="45.01202" lon="4.39406">
        <ele>1074</ele>
        <time>2026-04-30T09:04:35Z</time>
      </trkpt>
      <trkpt lat="45.01203" lon="4.39413">
        <ele>1074.9</ele>
        <time>2026-04-30T09:04:40Z</time>
      </trkpt>
      <trkpt lat="45.01202" lon="4.39419">
        <ele>1075.2</ele>
        <time>2026-04-30T09:04:45Z</time>
      </trkpt>
      <trkpt lat="45.012" lon="4.39424">
        <ele>1075.1</ele>
        <time>2026-04-30T09:04:50Z</time>
      </trkpt>
      <trkpt lat="45.01199" lon="4.3943">
        <ele>1075.4</ele>
        <time>2026-04-30T09:04:55Z</time>
      </trkpt>
      <trkpt lat="45.01198" lon="4.39438">
        <ele>1075.7</ele>
        <time>2026-04-30T09:05:00Z</time>
      </trkpt>
      <trkpt lat="45.01196" lon="4.39444">
        <ele>1075.8</ele>
        <time>2026-04-30T09:05:05Z</time>
      </trkpt>
      <trkpt lat="45.01194" lon="4.3945">
        <ele>1075.8</ele>
        <time>2026-04-30T09:05:10Z</time>
      </trkpt>
      <trkpt lat="45.01192" lon="4.39458">
        <ele>1075.9</ele>
        <time>2026-04-30T09:05:15Z</time>
      </trkpt>
      <trkpt lat="45.01191" lon="4.39465">
        <ele>1076.3</ele>
        <time>2026-04-30T09:05:20Z</time>
      </trkpt>
      <trkpt lat="45.01191" lon="4.3947">
        <ele>1076.7</ele>
        <time>2026-04-30T09:05:25Z</time>
      </trkpt>
      <trkpt lat="45.01191" lon="4.3947">
        <ele>1076.7</ele>
        <time>2026-04-30T09:05:30Z</time>
      </trkpt>
      <trkpt lat="45.0119" lon="4.39477">
        <ele>1077</ele>
        <time>2026-04-30T09:05:35Z</time>
      </trkpt>
      <trkpt lat="45.01189" lon="4.39484">
        <ele>1077.3</ele>
        <time>2026-04-30T09:05:40Z</time>
      </trkpt>
      <trkpt lat="45.01187" lon="4.3949">
        <ele>1077.4</ele>
        <time>2026-04-30T09:05:45Z</time>
      </trkpt>
      <trkpt lat="45.01186" lon="4.39493">
        <ele>1077.4</ele>
        <time>2026-04-30T09:05:50Z</time>
      </trkpt>
      <trkpt lat="45.01185" lon="4.39499">
        <ele>1077.7</ele>
        <time>2026-04-30T09:05:55Z</time>
      </trkpt>
      <trkpt lat="45.01185" lon="4.39502">
        <ele>1077.8</ele>
        <time>2026-04-30T09:06:00Z</time>
      </trkpt>
      <trkpt lat="45.01183" lon="4.39503">
        <ele>1077.4</ele>
        <time>2026-04-30T09:06:05Z</time>
      </trkpt>
      <trkpt lat="45.01183" lon="4.39505">
        <ele>1077.4</ele>
        <time>2026-04-30T09:06:10Z</time>
      </trkpt>
      <trkpt lat="45.01182" lon="4.39513">
        <ele>1077.3</ele>
        <time>2026-04-30T09:06:15Z</time>
      </trkpt>
      <trkpt lat="45.01182" lon="4.39522">
        <ele>1077.5</ele>
        <time>2026-04-30T09:06:20Z</time>
      </trkpt>
      <trkpt lat="45.01182" lon="4.39529">
        <ele>1077.6</ele>
        <time>2026-04-30T09:06:25Z</time>
      </trkpt>
      <trkpt lat="45.01181" lon="4.39537">
        <ele>1077.5</ele>
        <time>2026-04-30T09:06:30Z</time>
      </trkpt>
      <trkpt lat="45.0118" lon="4.39544">
        <ele>1077.4</ele>
        <time>2026-04-30T09:06:35Z</time>
      </trkpt>
      <trkpt lat="45.01179" lon="4.39552">
        <ele>1077.3</ele>
        <time>2026-04-30T09:06:40Z</time>
      </trkpt>
      <trkpt lat="45.01178" lon="4.39554">
        <ele>1077.1</ele>
        <time>2026-04-30T09:06:45Z</time>
      </trkpt>
      <trkpt lat="45.01178" lon="4.39554">
        <ele>1077.1</ele>
        <time>2026-04-30T09:06:50Z</time>
      </trkpt>
      <trkpt lat="45.01177" lon="4.3956">
        <ele>1077</ele>
        <time>2026-04-30T09:06:55Z</time>
      </trkpt>
      <trkpt lat="45.01177" lon="4.39566">
        <ele>1077.1</ele>
        <time>2026-04-30T09:07:00Z</time>
      </trkpt>
      <trkpt lat="45.01176" lon="4.39574">
        <ele>1077</ele>
        <time>2026-04-30T09:07:05Z</time>
      </trkpt>
      <trkpt lat="45.01175" lon="4.3958">
        <ele>1076.9</ele>
        <time>2026-04-30T09:07:10Z</time>
      </trkpt>
      <trkpt lat="45.01175" lon="4.39581">
        <ele>1076.9</ele>
        <time>2026-04-30T09:07:15Z</time>
      </trkpt>
      <trkpt lat="45.01175" lon="4.39581">
        <ele>1076.9</ele>
        <time>2026-04-30T09:07:20Z</time>
      </trkpt>
      <trkpt lat="45.01175" lon="4.39581">
        <ele>1076.9</ele>
        <time>2026-04-30T09:07:25Z</time>
      </trkpt>
      <trkpt lat="45.01175" lon="4.39581">
        <ele>1076.9</ele>
        <time>2026-04-30T09:07:30Z</time>
      </trkpt>
      <trkpt lat="45.01175" lon="4.39581">
        <ele>1076.9</ele>
        <time>2026-04-30T09:07:35Z</time>
      </trkpt>
      <trkpt lat="45.01176" lon="4.39587">
        <ele>1077.4</ele>
        <time>2026-04-30T09:07:40Z</time>
      </trkpt>
      <trkpt lat="45.01176" lon="4.39598">
        <ele>1078.1</ele>
        <time>2026-04-30T09:07:45Z</time>
      </trkpt>
      <trkpt lat="45.01176" lon="4.39608">
        <ele>1078.8</ele>
        <time>2026-04-30T09:07:50Z</time>
      </trkpt>
      <trkpt lat="45.01176" lon="4.39616">
        <ele>1079.4</ele>
        <time>2026-04-30T09:07:55Z</time>
      </trkpt>
      <trkpt lat="45.01177" lon="4.3962">
        <ele>1079.9</ele>
        <time>2026-04-30T09:08:00Z</time>
      </trkpt>
      <trkpt lat="45.01177" lon="4.39625">
        <ele>1080.2</ele>
        <time>2026-04-30T09:08:05Z</time>
      </trkpt>
      <trkpt lat="45.0118" lon="4.39632">
        <ele>1081.4</ele>
        <time>2026-04-30T09:08:10Z</time>
      </trkpt>
      <trkpt lat="45.01183" lon="4.39639">
        <ele>1082.5</ele>
        <time>2026-04-30T09:08:15Z</time>
      </trkpt>
      <trkpt lat="45.01186" lon="4.39646">
        <ele>1083.6</ele>
        <time>2026-04-30T09:08:20Z</time>
      </trkpt>
      <trkpt lat="45.01189" lon="4.39654">
        <ele>1084.7</ele>
        <time>2026-04-30T09:08:25Z</time>
      </trkpt>
      <trkpt lat="45.01193" lon="4.39658">
        <ele>1085.8</ele>
        <time>2026-04-30T09:08:30Z</time>
      </trkpt>
      <trkpt lat="45.01195" lon="4.39664">
        <ele>1086.6</ele>
        <time>2026-04-30T09:08:35Z</time>
      </trkpt>
      <trkpt lat="45.01199" lon="4.3967">
        <ele>1087.6</ele>
        <time>2026-04-30T09:08:40Z</time>
      </trkpt>
      <trkpt lat="45.01205" lon="4.39674">
        <ele>1088.8</ele>
        <time>2026-04-30T09:08:45Z</time>
      </trkpt>
      <trkpt lat="45.01209" lon="4.39678">
        <ele>1089.6</ele>
        <time>2026-04-30T09:08:50Z</time>
      </trkpt>
      <trkpt lat="45.01214" lon="4.3968">
        <ele>1090.4</ele>
        <time>2026-04-30T09:08:55Z</time>
      </trkpt>
      <trkpt lat="45.01219" lon="4.39683">
        <ele>1091.3</ele>
        <time>2026-04-30T09:09:00Z</time>
      </trkpt>
      <trkpt lat="45.01225" lon="4.39686">
        <ele>1092.2</ele>
        <time>2026-04-30T09:09:05Z</time>
      </trkpt>
      <trkpt lat="45.01231" lon="4.39688">
        <ele>1093.1</ele>
        <time>2026-04-30T09:09:10Z</time>
      </trkpt>
      <trkpt lat="45.01236" lon="4.3969">
        <ele>1093.8</ele>
        <time>2026-04-30T09:09:15Z</time>
      </trkpt>
      <trkpt lat="45.01243" lon="4.39694">
        <ele>1094.6</ele>
        <time>2026-04-30T09:09:20Z</time>
      </trkpt>
      <trkpt lat="45.01242" lon="4.39697">
        <ele>1094.3</ele>
        <time>2026-04-30T09:09:25Z</time>
      </trkpt>
      <trkpt lat="45.01241" lon="4.39698">
        <ele>1094.1</ele>
        <time>2026-04-30T09:09:30Z</time>
      </trkpt>
      <trkpt lat="45.01241" lon="4.39697">
        <ele>1094.1</ele>
        <time>2026-04-30T09:09:35Z</time>
      </trkpt>
      <trkpt lat="45.01241" lon="4.39697">
        <ele>1094.1</ele>
        <time>2026-04-30T09:09:40Z</time>
      </trkpt>
      <trkpt lat="45.01241" lon="4.39697">
        <ele>1094.1</ele>
        <time>2026-04-30T09:09:45Z</time>
      </trkpt>
      <trkpt lat="45.01241" lon="4.39697">
        <ele>1094.1</ele>
        <time>2026-04-30T09:09:50Z</time>
      </trkpt>
      <trkpt lat="45.01247" lon="4.3969">
        <ele>1095.6</ele>
        <time>2026-04-30T09:09:55Z</time>
      </trkpt>
      <trkpt lat="45.01256" lon="4.39688">
        <ele>1096.8</ele>
        <time>2026-04-30T09:10:00Z</time>
      </trkpt>
      <trkpt lat="45.01262" lon="4.39687">
        <ele>1097.6</ele>
        <time>2026-04-30T09:10:05Z</time>
      </trkpt>
      <trkpt lat="45.01269" lon="4.39684">
        <ele>1098.6</ele>
        <time>2026-04-30T09:10:10Z</time>
      </trkpt>
      <trkpt lat="45.01274" lon="4.39683">
        <ele>1099.3</ele>
        <time>2026-04-30T09:10:15Z</time>
      </trkpt>
      <trkpt lat="45.01281" lon="4.39683">
        <ele>1100.1</ele>
        <time>2026-04-30T09:10:20Z</time>
      </trkpt>
      <trkpt lat="45.01287" lon="4.39683">
        <ele>1100.7</ele>
        <time>2026-04-30T09:10:25Z</time>
      </trkpt>
      <trkpt lat="45.01291" lon="4.39684">
        <ele>1101</ele>
        <time>2026-04-30T09:10:30Z</time>
      </trkpt>
      <trkpt lat="45.0129" lon="4.39685">
        <ele>1100.8</ele>
        <time>2026-04-30T09:10:35Z</time>
      </trkpt>
      <trkpt lat="45.01291" lon="4.39685">
        <ele>1100.9</ele>
        <time>2026-04-30T09:10:40Z</time>
      </trkpt>
      <trkpt lat="45.01291" lon="4.39685">
        <ele>1100.9</ele>
        <time>2026-04-30T09:10:45Z</time>
      </trkpt>
      <trkpt lat="45.01295" lon="4.39684">
        <ele>1101.5</ele>
        <time>2026-04-30T09:10:50Z</time>
      </trkpt>
      <trkpt lat="45.01301" lon="4.3968">
        <ele>1102.7</ele>
        <time>2026-04-30T09:10:55Z</time>
      </trkpt>
      <trkpt lat="45.01308" lon="4.3968">
        <ele>1103.5</ele>
        <time>2026-04-30T09:11:00Z</time>
      </trkpt>
      <trkpt lat="45.01314" lon="4.39677">
        <ele>1104.7</ele>
        <time>2026-04-30T09:11:05Z</time>
      </trkpt>
      <trkpt lat="45.01317" lon="4.3968">
        <ele>1104.6</ele>
        <time>2026-04-30T09:11:10Z</time>
      </trkpt>
      <trkpt lat="45.01322" lon="4.3968">
        <ele>1105.1</ele>
        <time>2026-04-30T09:11:15Z</time>
      </trkpt>
      <trkpt lat="45.01328" lon="4.39682">
        <ele>1105.5</ele>
        <time>2026-04-30T09:11:20Z</time>
      </trkpt>
      <trkpt lat="45.01333" lon="4.39683">
        <ele>1105.8</ele>
        <time>2026-04-30T09:11:25Z</time>
      </trkpt>
      <trkpt lat="45.01341" lon="4.39683">
        <ele>1106</ele>
        <time>2026-04-30T09:11:30Z</time>
      </trkpt>
      <trkpt lat="45.0135" lon="4.39683">
        <ele>1106.1</ele>
        <time>2026-04-30T09:11:35Z</time>
      </trkpt>
      <trkpt lat="45.01356" lon="4.39683">
        <ele>1106.2</ele>
        <time>2026-04-30T09:11:40Z</time>
      </trkpt>
      <trkpt lat="45.01364" lon="4.39685">
        <ele>1106</ele>
        <time>2026-04-30T09:11:45Z</time>
      </trkpt>
      <trkpt lat="45.01371" lon="4.39684">
        <ele>1106.3</ele>
        <time>2026-04-30T09:11:50Z</time>
      </trkpt>
      <trkpt lat="45.01378" lon="4.3969">
        <ele>1105.1</ele>
        <time>2026-04-30T09:11:55Z</time>
      </trkpt>
      <trkpt lat="45.01385" lon="4.39691">
        <ele>1105</ele>
        <time>2026-04-30T09:12:00Z</time>
      </trkpt>
      <trkpt lat="45.01392" lon="4.39693">
        <ele>1104.7</ele>
        <time>2026-04-30T09:12:05Z</time>
      </trkpt>
      <trkpt lat="45.01398" lon="4.39695">
        <ele>1104.3</ele>
        <time>2026-04-30T09:12:10Z</time>
      </trkpt>
      <trkpt lat="45.01403" lon="4.39698">
        <ele>1103.7</ele>
        <time>2026-04-30T09:12:15Z</time>
      </trkpt>
      <trkpt lat="45.0141" lon="4.397">
        <ele>1103.3</ele>
        <time>2026-04-30T09:12:20Z</time>
      </trkpt>
      <trkpt lat="45.01418" lon="4.39698">
        <ele>1103.7</ele>
        <time>2026-04-30T09:12:25Z</time>
      </trkpt>
      <trkpt lat="45.01424" lon="4.39699">
        <ele>1103</ele>
        <time>2026-04-30T09:12:30Z</time>
      </trkpt>
      <trkpt lat="45.01431" lon="4.397">
        <ele>1102.2</ele>
        <time>2026-04-30T09:12:35Z</time>
      </trkpt>
      <trkpt lat="45.01438" lon="4.39701">
        <ele>1101.4</ele>
        <time>2026-04-30T09:12:40Z</time>
      </trkpt>
      <trkpt lat="45.01445" lon="4.39702">
        <ele>1100.6</ele>
        <time>2026-04-30T09:12:45Z</time>
      </trkpt>
      <trkpt lat="45.01453" lon="4.39702">
        <ele>1099.9</ele>
        <time>2026-04-30T09:12:50Z</time>
      </trkpt>
      <trkpt lat="45.01458" lon="4.39702">
        <ele>1099.5</ele>
        <time>2026-04-30T09:12:55Z</time>
      </trkpt>
      <trkpt lat="45.01464" lon="4.39703">
        <ele>1098.8</ele>
        <time>2026-04-30T09:13:00Z</time>
      </trkpt>
      <trkpt lat="45.0147" lon="4.39706">
        <ele>1097.8</ele>
        <time>2026-04-30T09:13:05Z</time>
      </trkpt>
      <trkpt lat="45.01475" lon="4.39709">
        <ele>1096.8</ele>
        <time>2026-04-30T09:13:10Z</time>
      </trkpt>
      <trkpt lat="45.01481" lon="4.39709">
        <ele>1096.4</ele>
        <time>2026-04-30T09:13:15Z</time>
      </trkpt>
      <trkpt lat="45.01486" lon="4.39707">
        <ele>1096.3</ele>
        <time>2026-04-30T09:13:20Z</time>
      </trkpt>
      <trkpt lat="45.01493" lon="4.39703">
        <ele>1096.5</ele>
        <time>2026-04-30T09:13:25Z</time>
      </trkpt>
      <trkpt lat="45.01498" lon="4.39698">
        <ele>1096.9</ele>
        <time>2026-04-30T09:13:30Z</time>
      </trkpt>
      <trkpt lat="45.01503" lon="4.39691">
        <ele>1097.5</ele>
        <time>2026-04-30T09:13:35Z</time>
      </trkpt>
      <trkpt lat="45.01509" lon="4.39682">
        <ele>1098.2</ele>
        <time>2026-04-30T09:13:40Z</time>
      </trkpt>
      <trkpt lat="45.01514" lon="4.39676">
        <ele>1098.4</ele>
        <time>2026-04-30T09:13:45Z</time>
      </trkpt>
      <trkpt lat="45.01514" lon="4.39676">
        <ele>1098.4</ele>
        <time>2026-04-30T09:13:50Z</time>
      </trkpt>
      <trkpt lat="45.01512" lon="4.39678">
        <ele>1098.4</ele>
        <time>2026-04-30T09:13:55Z</time>
      </trkpt>
      <trkpt lat="45.01507" lon="4.39687">
        <ele>1097.7</ele>
        <time>2026-04-30T09:14:00Z</time>
      </trkpt>
      <trkpt lat="45.01502" lon="4.39695">
        <ele>1097</ele>
        <time>2026-04-30T09:14:05Z</time>
      </trkpt>
      <trkpt lat="45.01497" lon="4.397">
        <ele>1096.7</ele>
        <time>2026-04-30T09:14:10Z</time>
      </trkpt>
      <trkpt lat="45.01492" lon="4.39706">
        <ele>1096</ele>
        <time>2026-04-30T09:14:15Z</time>
      </trkpt>
      <trkpt lat="45.0149" lon="4.3971">
        <ele>1095.5</ele>
        <time>2026-04-30T09:14:20Z</time>
      </trkpt>
      <trkpt lat="45.01492" lon="4.39715">
        <ele>1094.5</ele>
        <time>2026-04-30T09:14:25Z</time>
      </trkpt>
      <trkpt lat="45.01497" lon="4.39719">
        <ele>1093.4</ele>
        <time>2026-04-30T09:14:30Z</time>
      </trkpt>
      <trkpt lat="45.01502" lon="4.39723">
        <ele>1092.4</ele>
        <time>2026-04-30T09:14:35Z</time>
      </trkpt>
      <trkpt lat="45.01509" lon="4.39729">
        <ele>1090.9</ele>
        <time>2026-04-30T09:14:40Z</time>
      </trkpt>
      <trkpt lat="45.01515" lon="4.39732">
        <ele>1090.1</ele>
        <time>2026-04-30T09:14:45Z</time>
      </trkpt>
      <trkpt lat="45.01519" lon="4.39733">
        <ele>1089.7</ele>
        <time>2026-04-30T09:14:50Z</time>
      </trkpt>
      <trkpt lat="45.01526" lon="4.39737">
        <ele>1088.8</ele>
        <time>2026-04-30T09:14:55Z</time>
      </trkpt>
      <trkpt lat="45.01532" lon="4.39739">
        <ele>1088.2</ele>
        <time>2026-04-30T09:15:00Z</time>
      </trkpt>
      <trkpt lat="45.01537" lon="4.39737">
        <ele>1088.2</ele>
        <time>2026-04-30T09:15:05Z</time>
      </trkpt>
      <trkpt lat="45.01539" lon="4.39732">
        <ele>1088.6</ele>
        <time>2026-04-30T09:15:10Z</time>
      </trkpt>
      <trkpt lat="45.01543" lon="4.3973">
        <ele>1088.6</ele>
        <time>2026-04-30T09:15:15Z</time>
      </trkpt>
      <trkpt lat="45.0155" lon="4.39727">
        <ele>1088.4</ele>
        <time>2026-04-30T09:15:20Z</time>
      </trkpt>
      <trkpt lat="45.01551" lon="4.39725">
        <ele>1088.5</ele>
        <time>2026-04-30T09:15:25Z</time>
      </trkpt>
      <trkpt lat="45.0155" lon="4.39723">
        <ele>1088.8</ele>
        <time>2026-04-30T09:15:30Z</time>
      </trkpt>
      <trkpt lat="45.0155" lon="4.39724">
        <ele>1088.7</ele>
        <time>2026-04-30T09:15:35Z</time>
      </trkpt>
      <trkpt lat="45.01549" lon="4.39734">
        <ele>1087.8</ele>
        <time>2026-04-30T09:15:40Z</time>
      </trkpt>
      <trkpt lat="45.01547" lon="4.39744">
        <ele>1086.9</ele>
        <time>2026-04-30T09:15:45Z</time>
      </trkpt>
      <trkpt lat="45.01552" lon="4.39745">
        <ele>1086.6</ele>
        <time>2026-04-30T09:15:50Z</time>
      </trkpt>
      <trkpt lat="45.01553" lon="4.39741">
        <ele>1086.9</ele>
        <time>2026-04-30T09:15:55Z</time>
      </trkpt>
      <trkpt lat="45.01554" lon="4.39739">
        <ele>1087</ele>
        <time>2026-04-30T09:16:00Z</time>
      </trkpt>
      <trkpt lat="45.01554" lon="4.39739">
        <ele>1087</ele>
        <time>2026-04-30T09:16:05Z</time>
      </trkpt>
      <trkpt lat="45.01554" lon="4.39739">
        <ele>1087</ele>
        <time>2026-04-30T09:16:10Z</time>
      </trkpt>
      <trkpt lat="45.01558" lon="4.39737">
        <ele>1087</ele>
        <time>2026-04-30T09:16:15Z</time>
      </trkpt>
      <trkpt lat="45.0156" lon="4.39738">
        <ele>1086.8</ele>
        <time>2026-04-30T09:16:20Z</time>
      </trkpt>
      <trkpt lat="45.01558" lon="4.39736">
        <ele>1087.1</ele>
        <time>2026-04-30T09:16:25Z</time>
      </trkpt>
      <trkpt lat="45.01558" lon="4.39736">
        <ele>1087.1</ele>
        <time>2026-04-30T09:16:30Z</time>
      </trkpt>
      <trkpt lat="45.01557" lon="4.39731">
        <ele>1087.6</ele>
        <time>2026-04-30T09:16:35Z</time>
      </trkpt>
      <trkpt lat="45.01561" lon="4.39729">
        <ele>1087.5</ele>
        <time>2026-04-30T09:16:40Z</time>
      </trkpt>
      <trkpt lat="45.01563" lon="4.39732">
        <ele>1087.1</ele>
        <time>2026-04-30T09:16:45Z</time>
      </trkpt>
      <trkpt lat="45.01563" lon="4.39739">
        <ele>1086.6</ele>
        <time>2026-04-30T09:16:50Z</time>
      </trkpt>
      <trkpt lat="45.01567" lon="4.39743">
        <ele>1086.1</ele>
        <time>2026-04-30T09:16:55Z</time>
      </trkpt>
      <trkpt lat="45.01573" lon="4.39743">
        <ele>1085.8</ele>
        <time>2026-04-30T09:17:00Z</time>
      </trkpt>
      <trkpt lat="45.01575" lon="4.3974">
        <ele>1085.9</ele>
        <time>2026-04-30T09:17:05Z</time>
      </trkpt>
      <trkpt lat="45.01572" lon="4.39741">
        <ele>1086</ele>
        <time>2026-04-30T09:17:10Z</time>
      </trkpt>
      <trkpt lat="45.01567" lon="4.39744">
        <ele>1086</ele>
        <time>2026-04-30T09:17:15Z</time>
      </trkpt>
      <trkpt lat="45.01563" lon="4.39745">
        <ele>1086.1</ele>
        <time>2026-04-30T09:17:20Z</time>
      </trkpt>
      <trkpt lat="45.01557" lon="4.39745">
        <ele>1086.4</ele>
        <time>2026-04-30T09:17:25Z</time>
      </trkpt>
      <trkpt lat="45.01552" lon="4.39745">
        <ele>1086.6</ele>
        <time>2026-04-30T09:17:30Z</time>
      </trkpt>
      <trkpt lat="45.01547" lon="4.39743">
        <ele>1087</ele>
        <time>2026-04-30T09:17:35Z</time>
      </trkpt>
      <trkpt lat="45.01543" lon="4.39742">
        <ele>1087.3</ele>
        <time>2026-04-30T09:17:40Z</time>
      </trkpt>
      <trkpt lat="45.01537" lon="4.39738">
        <ele>1088</ele>
        <time>2026-04-30T09:17:45Z</time>
      </trkpt>
      <trkpt lat="45.01532" lon="4.39736">
        <ele>1088.6</ele>
        <time>2026-04-30T09:17:50Z</time>
      </trkpt>
      <trkpt lat="45.01526" lon="4.39738">
        <ele>1088.6</ele>
        <time>2026-04-30T09:17:55Z</time>
      </trkpt>
      <trkpt lat="45.01522" lon="4.39735">
        <ele>1089.3</ele>
        <time>2026-04-30T09:18:00Z</time>
      </trkpt>
      <trkpt lat="45.01516" lon="4.39735">
        <ele>1089.6</ele>
        <time>2026-04-30T09:18:05Z</time>
      </trkpt>
      <trkpt lat="45.0151" lon="4.39739">
        <ele>1089.3</ele>
        <time>2026-04-30T09:18:10Z</time>
      </trkpt>
      <trkpt lat="45.01511" lon="4.39746">
        <ele>1088.2</ele>
        <time>2026-04-30T09:18:15Z</time>
      </trkpt>
      <trkpt lat="45.01516" lon="4.39755">
        <ele>1087.2</ele>
        <time>2026-04-30T09:18:20Z</time>
      </trkpt>
      <trkpt lat="45.0152" lon="4.39763">
        <ele>1086.6</ele>
        <time>2026-04-30T09:18:25Z</time>
      </trkpt>
      <trkpt lat="45.01524" lon="4.3977">
        <ele>1086.2</ele>
        <time>2026-04-30T09:18:30Z</time>
      </trkpt>
      <trkpt lat="45.01528" lon="4.39774">
        <ele>1086</ele>
        <time>2026-04-30T09:18:35Z</time>
      </trkpt>
      <trkpt lat="45.01534" lon="4.39779">
        <ele>1085.8</ele>
        <time>2026-04-30T09:18:40Z</time>
      </trkpt>
      <trkpt lat="45.01539" lon="4.39786">
        <ele>1085.6</ele>
        <time>2026-04-30T09:18:45Z</time>
      </trkpt>
      <trkpt lat="45.01543" lon="4.39794">
        <ele>1085.5</ele>
        <time>2026-04-30T09:18:50Z</time>
      </trkpt>
      <trkpt lat="45.01548" lon="4.39801">
        <ele>1085.4</ele>
        <time>2026-04-30T09:18:55Z</time>
      </trkpt>
      <trkpt lat="45.01554" lon="4.39807">
        <ele>1085.5</ele>
        <time>2026-04-30T09:19:00Z</time>
      </trkpt>
      <trkpt lat="45.01559" lon="4.39813">
        <ele>1085.6</ele>
        <time>2026-04-30T09:19:05Z</time>
      </trkpt>
      <trkpt lat="45.01566" lon="4.39819">
        <ele>1085.9</ele>
        <time>2026-04-30T09:19:10Z</time>
      </trkpt>
      <trkpt lat="45.01573" lon="4.39821">
        <ele>1086.2</ele>
        <time>2026-04-30T09:19:15Z</time>
      </trkpt>
      <trkpt lat="45.0158" lon="4.39825">
        <ele>1086.6</ele>
        <time>2026-04-30T09:19:20Z</time>
      </trkpt>
      <trkpt lat="45.01586" lon="4.39829">
        <ele>1086.8</ele>
        <time>2026-04-30T09:19:25Z</time>
      </trkpt>
      <trkpt lat="45.01593" lon="4.39832">
        <ele>1086.6</ele>
        <time>2026-04-30T09:19:30Z</time>
      </trkpt>
      <trkpt lat="45.01602" lon="4.39835">
        <ele>1086.3</ele>
        <time>2026-04-30T09:19:35Z</time>
      </trkpt>
      <trkpt lat="45.0161" lon="4.39839">
        <ele>1086</ele>
        <time>2026-04-30T09:19:40Z</time>
      </trkpt>
      <trkpt lat="45.01618" lon="4.39842">
        <ele>1085.8</ele>
        <time>2026-04-30T09:19:45Z</time>
      </trkpt>
      <trkpt lat="45.01626" lon="4.39847">
        <ele>1085.6</ele>
        <time>2026-04-30T09:19:50Z</time>
      </trkpt>
      <trkpt lat="45.01633" lon="4.39852">
        <ele>1085.4</ele>
        <time>2026-04-30T09:19:55Z</time>
      </trkpt>
      <trkpt lat="45.0164" lon="4.39858">
        <ele>1085.4</ele>
        <time>2026-04-30T09:20:00Z</time>
      </trkpt>
      <trkpt lat="45.01645" lon="4.39866">
        <ele>1085.4</ele>
        <time>2026-04-30T09:20:05Z</time>
      </trkpt>
      <trkpt lat="45.01651" lon="4.39869">
        <ele>1085.4</ele>
        <time>2026-04-30T09:20:10Z</time>
      </trkpt>
      <trkpt lat="45.01657" lon="4.3987">
        <ele>1085.4</ele>
        <time>2026-04-30T09:20:15Z</time>
      </trkpt>
      <trkpt lat="45.01664" lon="4.39868">
        <ele>1085.3</ele>
        <time>2026-04-30T09:20:20Z</time>
      </trkpt>
      <trkpt lat="45.01672" lon="4.39868">
        <ele>1084.7</ele>
        <time>2026-04-30T09:20:25Z</time>
      </trkpt>
      <trkpt lat="45.01679" lon="4.39871">
        <ele>1084</ele>
        <time>2026-04-30T09:20:30Z</time>
      </trkpt>
      <trkpt lat="45.01685" lon="4.39871">
        <ele>1083.3</ele>
        <time>2026-04-30T09:20:35Z</time>
      </trkpt>
      <trkpt lat="45.01693" lon="4.3987">
        <ele>1082.4</ele>
        <time>2026-04-30T09:20:40Z</time>
      </trkpt>
      <trkpt lat="45.01702" lon="4.39867">
        <ele>1081.4</ele>
        <time>2026-04-30T09:20:45Z</time>
      </trkpt>
      <trkpt lat="45.01711" lon="4.39866">
        <ele>1080.4</ele>
        <time>2026-04-30T09:20:50Z</time>
      </trkpt>
      <trkpt lat="45.01719" lon="4.39863">
        <ele>1079.6</ele>
        <time>2026-04-30T09:20:55Z</time>
      </trkpt>
      <trkpt lat="45.01725" lon="4.39862">
        <ele>1078.9</ele>
        <time>2026-04-30T09:21:00Z</time>
      </trkpt>
      <trkpt lat="45.01733" lon="4.39859">
        <ele>1078.1</ele>
        <time>2026-04-30T09:21:05Z</time>
      </trkpt>
      <trkpt lat="45.01741" lon="4.39856">
        <ele>1077.4</ele>
        <time>2026-04-30T09:21:10Z</time>
      </trkpt>
      <trkpt lat="45.01749" lon="4.39853">
        <ele>1076.6</ele>
        <time>2026-04-30T09:21:15Z</time>
      </trkpt>
      <trkpt lat="45.01754" lon="4.39851">
        <ele>1076.3</ele>
        <time>2026-04-30T09:21:20Z</time>
      </trkpt>
      <trkpt lat="45.01762" lon="4.39849">
        <ele>1075.8</ele>
        <time>2026-04-30T09:21:25Z</time>
      </trkpt>
      <trkpt lat="45.01769" lon="4.3985">
        <ele>1075.2</ele>
        <time>2026-04-30T09:21:30Z</time>
      </trkpt>
      <trkpt lat="45.01777" lon="4.39852">
        <ele>1074.6</ele>
        <time>2026-04-30T09:21:35Z</time>
      </trkpt>
      <trkpt lat="45.01787" lon="4.39854">
        <ele>1073.9</ele>
        <time>2026-04-30T09:21:40Z</time>
      </trkpt>
      <trkpt lat="45.01797" lon="4.39855">
        <ele>1073.3</ele>
        <time>2026-04-30T09:21:45Z</time>
      </trkpt>
      <trkpt lat="45.01805" lon="4.39855">
        <ele>1072.7</ele>
        <time>2026-04-30T09:21:50Z</time>
      </trkpt>
      <trkpt lat="45.01811" lon="4.39852">
        <ele>1072.2</ele>
        <time>2026-04-30T09:21:55Z</time>
      </trkpt>
      <trkpt lat="45.01817" lon="4.39848">
        <ele>1071.7</ele>
        <time>2026-04-30T09:22:00Z</time>
      </trkpt>
      <trkpt lat="45.0182" lon="4.39846">
        <ele>1071.5</ele>
        <time>2026-04-30T09:22:05Z</time>
      </trkpt>
      <trkpt lat="45.01821" lon="4.39845">
        <ele>1071.4</ele>
        <time>2026-04-30T09:22:10Z</time>
      </trkpt>
      <trkpt lat="45.01822" lon="4.39845">
        <ele>1071.3</ele>
        <time>2026-04-30T09:22:15Z</time>
      </trkpt>
      <trkpt lat="45.01825" lon="4.39842">
        <ele>1071</ele>
        <time>2026-04-30T09:22:20Z</time>
      </trkpt>
      <trkpt lat="45.0183" lon="4.39835">
        <ele>1070.3</ele>
        <time>2026-04-30T09:22:25Z</time>
      </trkpt>
      <trkpt lat="45.01836" lon="4.39832">
        <ele>1070.2</ele>
        <time>2026-04-30T09:22:30Z</time>
      </trkpt>
      <trkpt lat="45.01843" lon="4.39828">
        <ele>1070.8</ele>
        <time>2026-04-30T09:22:35Z</time>
      </trkpt>
      <trkpt lat="45.01848" lon="4.39826">
        <ele>1071.1</ele>
        <time>2026-04-30T09:22:40Z</time>
      </trkpt>
      <trkpt lat="45.01854" lon="4.39823">
        <ele>1071.4</ele>
        <time>2026-04-30T09:22:45Z</time>
      </trkpt>
      <trkpt lat="45.01859" lon="4.39819">
        <ele>1071.6</ele>
        <time>2026-04-30T09:22:50Z</time>
      </trkpt>
      <trkpt lat="45.01865" lon="4.39814">
        <ele>1071.6</ele>
        <time>2026-04-30T09:22:55Z</time>
      </trkpt>
      <trkpt lat="45.01871" lon="4.39812">
        <ele>1071.7</ele>
        <time>2026-04-30T09:23:00Z</time>
      </trkpt>
      <trkpt lat="45.0188" lon="4.39809">
        <ele>1071.6</ele>
        <time>2026-04-30T09:23:05Z</time>
      </trkpt>
      <trkpt lat="45.01886" lon="4.39806">
        <ele>1071.4</ele>
        <time>2026-04-30T09:23:10Z</time>
      </trkpt>
      <trkpt lat="45.01892" lon="4.39805">
        <ele>1071.3</ele>
        <time>2026-04-30T09:23:15Z</time>
      </trkpt>
      <trkpt lat="45.01899" lon="4.39804">
        <ele>1071.1</ele>
        <time>2026-04-30T09:23:20Z</time>
      </trkpt>
      <trkpt lat="45.01906" lon="4.39803">
        <ele>1071</ele>
        <time>2026-04-30T09:23:25Z</time>
      </trkpt>
      <trkpt lat="45.01911" lon="4.39798">
        <ele>1070.2</ele>
        <time>2026-04-30T09:23:30Z</time>
      </trkpt>
      <trkpt lat="45.01911" lon="4.39793">
        <ele>1069.4</ele>
        <time>2026-04-30T09:23:35Z</time>
      </trkpt>
      <trkpt lat="45.0191" lon="4.39792">
        <ele>1069.3</ele>
        <time>2026-04-30T09:23:40Z</time>
      </trkpt>
      <trkpt lat="45.0191" lon="4.39792">
        <ele>1069.3</ele>
        <time>2026-04-30T09:23:45Z</time>
      </trkpt>
      <trkpt lat="45.01918" lon="4.39795">
        <ele>1069.6</ele>
        <time>2026-04-30T09:23:50Z</time>
      </trkpt>
      <trkpt lat="45.01926" lon="4.39799">
        <ele>1070.5</ele>
        <time>2026-04-30T09:23:55Z</time>
      </trkpt>
      <trkpt lat="45.01932" lon="4.39801">
        <ele>1071</ele>
        <time>2026-04-30T09:24:00Z</time>
      </trkpt>
      <trkpt lat="45.01936" lon="4.39804">
        <ele>1071.7</ele>
        <time>2026-04-30T09:24:05Z</time>
      </trkpt>
      <trkpt lat="45.01942" lon="4.39808">
        <ele>1072.6</ele>
        <time>2026-04-30T09:24:10Z</time>
      </trkpt>
      <trkpt lat="45.01948" lon="4.39812">
        <ele>1073.4</ele>
        <time>2026-04-30T09:24:15Z</time>
      </trkpt>
      <trkpt lat="45.01955" lon="4.39818">
        <ele>1074.7</ele>
        <time>2026-04-30T09:24:20Z</time>
      </trkpt>
      <trkpt lat="45.0196" lon="4.39826">
        <ele>1076.3</ele>
        <time>2026-04-30T09:24:25Z</time>
      </trkpt>
      <trkpt lat="45.01963" lon="4.39833">
        <ele>1077.6</ele>
        <time>2026-04-30T09:24:30Z</time>
      </trkpt>
      <trkpt lat="45.01966" lon="4.39843">
        <ele>1079.3</ele>
        <time>2026-04-30T09:24:35Z</time>
      </trkpt>
      <trkpt lat="45.01968" lon="4.39855">
        <ele>1081.3</ele>
        <time>2026-04-30T09:24:40Z</time>
      </trkpt>
      <trkpt lat="45.01973" lon="4.39864">
        <ele>1082.9</ele>
        <time>2026-04-30T09:24:45Z</time>
      </trkpt>
      <trkpt lat="45.01977" lon="4.39875">
        <ele>1084.9</ele>
        <time>2026-04-30T09:24:50Z</time>
      </trkpt>
      <trkpt lat="45.01979" lon="4.39881">
        <ele>1086</ele>
        <time>2026-04-30T09:24:55Z</time>
      </trkpt>
      <trkpt lat="45.01983" lon="4.3989">
        <ele>1087.6</ele>
        <time>2026-04-30T09:25:00Z</time>
      </trkpt>
      <trkpt lat="45.01986" lon="4.399">
        <ele>1089.4</ele>
        <time>2026-04-30T09:25:05Z</time>
      </trkpt>
      <trkpt lat="45.0199" lon="4.3991">
        <ele>1091.3</ele>
        <time>2026-04-30T09:25:10Z</time>
      </trkpt>
      <trkpt lat="45.01992" lon="4.39917">
        <ele>1092.5</ele>
        <time>2026-04-30T09:25:15Z</time>
      </trkpt>
      <trkpt lat="45.01997" lon="4.39926">
        <ele>1093.6</ele>
        <time>2026-04-30T09:25:20Z</time>
      </trkpt>
      <trkpt lat="45.02004" lon="4.39938">
        <ele>1093.7</ele>
        <time>2026-04-30T09:25:25Z</time>
      </trkpt>
      <trkpt lat="45.0201" lon="4.39947">
        <ele>1092.9</ele>
        <time>2026-04-30T09:25:30Z</time>
      </trkpt>
      <trkpt lat="45.02014" lon="4.39956">
        <ele>1092.7</ele>
        <time>2026-04-30T09:25:35Z</time>
      </trkpt>
      <trkpt lat="45.02015" lon="4.39965">
        <ele>1093.2</ele>
        <time>2026-04-30T09:25:40Z</time>
      </trkpt>
      <trkpt lat="45.02016" lon="4.39974">
        <ele>1093.8</ele>
        <time>2026-04-30T09:25:45Z</time>
      </trkpt>
      <trkpt lat="45.02019" lon="4.39982">
        <ele>1093.8</ele>
        <time>2026-04-30T09:25:50Z</time>
      </trkpt>
      <trkpt lat="45.02021" lon="4.39991">
        <ele>1094.1</ele>
        <time>2026-04-30T09:25:55Z</time>
      </trkpt>
      <trkpt lat="45.02024" lon="4.40001">
        <ele>1094.3</ele>
        <time>2026-04-30T09:26:00Z</time>
      </trkpt>
      <trkpt lat="45.02027" lon="4.4001">
        <ele>1094.6</ele>
        <time>2026-04-30T09:26:05Z</time>
      </trkpt>
      <trkpt lat="45.02031" lon="4.40018">
        <ele>1094.4</ele>
        <time>2026-04-30T09:26:10Z</time>
      </trkpt>
      <trkpt lat="45.02035" lon="4.40028">
        <ele>1094.5</ele>
        <time>2026-04-30T09:26:15Z</time>
      </trkpt>
      <trkpt lat="45.02039" lon="4.40038">
        <ele>1094.5</ele>
        <time>2026-04-30T09:26:20Z</time>
      </trkpt>
      <trkpt lat="45.02042" lon="4.40048">
        <ele>1094.8</ele>
        <time>2026-04-30T09:26:25Z</time>
      </trkpt>
      <trkpt lat="45.02046" lon="4.40056">
        <ele>1094.6</ele>
        <time>2026-04-30T09:26:30Z</time>
      </trkpt>
      <trkpt lat="45.02049" lon="4.40066">
        <ele>1094.9</ele>
        <time>2026-04-30T09:26:35Z</time>
      </trkpt>
      <trkpt lat="45.02052" lon="4.40075">
        <ele>1095.1</ele>
        <time>2026-04-30T09:26:40Z</time>
      </trkpt>
      <trkpt lat="45.02055" lon="4.40083">
        <ele>1095.1</ele>
        <time>2026-04-30T09:26:45Z</time>
      </trkpt>
      <trkpt lat="45.02059" lon="4.40089">
        <ele>1094.4</ele>
        <time>2026-04-30T09:26:50Z</time>
      </trkpt>
      <trkpt lat="45.02065" lon="4.40098">
        <ele>1093.2</ele>
        <time>2026-04-30T09:26:55Z</time>
      </trkpt>
      <trkpt lat="45.02068" lon="4.40107">
        <ele>1092.8</ele>
        <time>2026-04-30T09:27:00Z</time>
      </trkpt>
      <trkpt lat="45.02072" lon="4.40114">
        <ele>1092</ele>
        <time>2026-04-30T09:27:05Z</time>
      </trkpt>
      <trkpt lat="45.02077" lon="4.40121">
        <ele>1091</ele>
        <time>2026-04-30T09:27:10Z</time>
      </trkpt>
      <trkpt lat="45.02081" lon="4.40128">
        <ele>1090.2</ele>
        <time>2026-04-30T09:27:15Z</time>
      </trkpt>
      <trkpt lat="45.02086" lon="4.40134">
        <ele>1088.9</ele>
        <time>2026-04-30T09:27:20Z</time>
      </trkpt>
      <trkpt lat="45.02089" lon="4.4014">
        <ele>1088.1</ele>
        <time>2026-04-30T09:27:25Z</time>
      </trkpt>
      <trkpt lat="45.02095" lon="4.40145">
        <ele>1086.3</ele>
        <time>2026-04-30T09:27:30Z</time>
      </trkpt>
      <trkpt lat="45.02101" lon="4.40149">
        <ele>1084.5</ele>
        <time>2026-04-30T09:27:35Z</time>
      </trkpt>
      <trkpt lat="45.02109" lon="4.40152">
        <ele>1081.9</ele>
        <time>2026-04-30T09:27:40Z</time>
      </trkpt>
      <trkpt lat="45.02115" lon="4.40153">
        <ele>1080</ele>
        <time>2026-04-30T09:27:45Z</time>
      </trkpt>
      <trkpt lat="45.0212" lon="4.40157">
        <ele>1078.6</ele>
        <time>2026-04-30T09:27:50Z</time>
      </trkpt>
      <trkpt lat="45.02125" lon="4.40157">
        <ele>1076.9</ele>
        <time>2026-04-30T09:27:55Z</time>
      </trkpt>
      <trkpt lat="45.02129" lon="4.40157">
        <ele>1075.6</ele>
        <time>2026-04-30T09:28:00Z</time>
      </trkpt>
      <trkpt lat="45.02134" lon="4.40157">
        <ele>1074</ele>
        <time>2026-04-30T09:28:05Z</time>
      </trkpt>
      <trkpt lat="45.02141" lon="4.40155">
        <ele>1071.5</ele>
        <time>2026-04-30T09:28:10Z</time>
      </trkpt>
      <trkpt lat="45.0215" lon="4.40154">
        <ele>1068.5</ele>
        <time>2026-04-30T09:28:15Z</time>
      </trkpt>
      <trkpt lat="45.02159" lon="4.40154">
        <ele>1065.5</ele>
        <time>2026-04-30T09:28:20Z</time>
      </trkpt>
      <trkpt lat="45.02167" lon="4.40159">
        <ele>1063.3</ele>
        <time>2026-04-30T09:28:25Z</time>
      </trkpt>
      <trkpt lat="45.0217" lon="4.40165">
        <ele>1063.1</ele>
        <time>2026-04-30T09:28:30Z</time>
      </trkpt>
      <trkpt lat="45.0217" lon="4.40173">
        <ele>1063.2</ele>
        <time>2026-04-30T09:28:35Z</time>
      </trkpt>
      <trkpt lat="45.02171" lon="4.40181">
        <ele>1063</ele>
        <time>2026-04-30T09:28:40Z</time>
      </trkpt>
      <trkpt lat="45.02174" lon="4.40187">
        <ele>1062.3</ele>
        <time>2026-04-30T09:28:45Z</time>
      </trkpt>
      <trkpt lat="45.02176" lon="4.40195">
        <ele>1061.9</ele>
        <time>2026-04-30T09:28:50Z</time>
      </trkpt>
      <trkpt lat="45.02178" lon="4.40201">
        <ele>1061.5</ele>
        <time>2026-04-30T09:28:55Z</time>
      </trkpt>
      <trkpt lat="45.02178" lon="4.40211">
        <ele>1061.5</ele>
        <time>2026-04-30T09:29:00Z</time>
      </trkpt>
      <trkpt lat="45.0218" lon="4.40222">
        <ele>1061.1</ele>
        <time>2026-04-30T09:29:05Z</time>
      </trkpt>
      <trkpt lat="45.02182" lon="4.40232">
        <ele>1060.6</ele>
        <time>2026-04-30T09:29:10Z</time>
      </trkpt>
      <trkpt lat="45.02187" lon="4.40242">
        <ele>1059.6</ele>
        <time>2026-04-30T09:29:15Z</time>
      </trkpt>
      <trkpt lat="45.02191" lon="4.4025">
        <ele>1058.7</ele>
        <time>2026-04-30T09:29:20Z</time>
      </trkpt>
      <trkpt lat="45.02199" lon="4.40256">
        <ele>1057</ele>
        <time>2026-04-30T09:29:25Z</time>
      </trkpt>
      <trkpt lat="45.02205" lon="4.40262">
        <ele>1055.6</ele>
        <time>2026-04-30T09:29:30Z</time>
      </trkpt>
      <trkpt lat="45.02212" lon="4.40266">
        <ele>1054</ele>
        <time>2026-04-30T09:29:35Z</time>
      </trkpt>
      <trkpt lat="45.02216" lon="4.40271">
        <ele>1053</ele>
        <time>2026-04-30T09:29:40Z</time>
      </trkpt>
      <trkpt lat="45.02221" lon="4.40273">
        <ele>1051.9</ele>
        <time>2026-04-30T09:29:45Z</time>
      </trkpt>
      <trkpt lat="45.02228" lon="4.40276">
        <ele>1050.3</ele>
        <time>2026-04-30T09:29:50Z</time>
      </trkpt>
      <trkpt lat="45.02237" lon="4.40276">
        <ele>1048.3</ele>
        <time>2026-04-30T09:29:55Z</time>
      </trkpt>
      <trkpt lat="45.02248" lon="4.40273">
        <ele>1045.9</ele>
        <time>2026-04-30T09:30:00Z</time>
      </trkpt>
      <trkpt lat="45.02259" lon="4.40271">
        <ele>1045.3</ele>
        <time>2026-04-30T09:30:05Z</time>
      </trkpt>
      <trkpt lat="45.02263" lon="4.40266">
        <ele>1045.3</ele>
        <time>2026-04-30T09:30:10Z</time>
      </trkpt>
      <trkpt lat="45.02267" lon="4.4026">
        <ele>1045.2</ele>
        <time>2026-04-30T09:30:15Z</time>
      </trkpt>
      <trkpt lat="45.02269" lon="4.40252">
        <ele>1045.3</ele>
        <time>2026-04-30T09:30:20Z</time>
      </trkpt>
      <trkpt lat="45.02272" lon="4.40244">
        <ele>1045.1</ele>
        <time>2026-04-30T09:30:25Z</time>
      </trkpt>
      <trkpt lat="45.02275" lon="4.40238">
        <ele>1044.9</ele>
        <time>2026-04-30T09:30:30Z</time>
      </trkpt>
      <trkpt lat="45.02278" lon="4.40232">
        <ele>1044.7</ele>
        <time>2026-04-30T09:30:35Z</time>
      </trkpt>
      <trkpt lat="45.02281" lon="4.40226">
        <ele>1044.5</ele>
        <time>2026-04-30T09:30:40Z</time>
      </trkpt>
      <trkpt lat="45.02282" lon="4.40216">
        <ele>1044.3</ele>
        <time>2026-04-30T09:30:45Z</time>
      </trkpt>
      <trkpt lat="45.02283" lon="4.40207">
        <ele>1044.1</ele>
        <time>2026-04-30T09:30:50Z</time>
      </trkpt>
      <trkpt lat="45.02285" lon="4.40199">
        <ele>1043.9</ele>
        <time>2026-04-30T09:30:55Z</time>
      </trkpt>
      <trkpt lat="45.02285" lon="4.4019">
        <ele>1043.7</ele>
        <time>2026-04-30T09:31:00Z</time>
      </trkpt>
      <trkpt lat="45.02285" lon="4.40184">
        <ele>1043.6</ele>
        <time>2026-04-30T09:31:05Z</time>
      </trkpt>
      <trkpt lat="45.02285" lon="4.40178">
        <ele>1043.5</ele>
        <time>2026-04-30T09:31:10Z</time>
      </trkpt>
      <trkpt lat="45.02287" lon="4.40172">
        <ele>1043.3</ele>
        <time>2026-04-30T09:31:15Z</time>
      </trkpt>
      <trkpt lat="45.02286" lon="4.40166">
        <ele>1043.3</ele>
        <time>2026-04-30T09:31:20Z</time>
      </trkpt>
      <trkpt lat="45.02286" lon="4.40161">
        <ele>1043.1</ele>
        <time>2026-04-30T09:31:25Z</time>
      </trkpt>
      <trkpt lat="45.02287" lon="4.40154">
        <ele>1043</ele>
        <time>2026-04-30T09:31:30Z</time>
      </trkpt>
      <trkpt lat="45.0229" lon="4.40147">
        <ele>1042.8</ele>
        <time>2026-04-30T09:31:35Z</time>
      </trkpt>
      <trkpt lat="45.02291" lon="4.40141">
        <ele>1042.7</ele>
        <time>2026-04-30T09:31:40Z</time>
      </trkpt>
      <trkpt lat="45.02294" lon="4.40135">
        <ele>1042.6</ele>
        <time>2026-04-30T09:31:45Z</time>
      </trkpt>
      <trkpt lat="45.02297" lon="4.40129">
        <ele>1042.6</ele>
        <time>2026-04-30T09:31:50Z</time>
      </trkpt>
      <trkpt lat="45.02299" lon="4.40121">
        <ele>1042.7</ele>
        <time>2026-04-30T09:31:55Z</time>
      </trkpt>
      <trkpt lat="45.02303" lon="4.40119">
        <ele>1042.8</ele>
        <time>2026-04-30T09:32:00Z</time>
      </trkpt>
      <trkpt lat="45.02308" lon="4.40121">
        <ele>1043</ele>
        <time>2026-04-30T09:32:05Z</time>
      </trkpt>
      <trkpt lat="45.02312" lon="4.40127">
        <ele>1042.9</ele>
        <time>2026-04-30T09:32:10Z</time>
      </trkpt>
      <trkpt lat="45.02316" lon="4.40132">
        <ele>1042.9</ele>
        <time>2026-04-30T09:32:15Z</time>
      </trkpt>
      <trkpt lat="45.0232" lon="4.40138">
        <ele>1042.7</ele>
        <time>2026-04-30T09:32:20Z</time>
      </trkpt>
      <trkpt lat="45.02325" lon="4.40142">
        <ele>1042.5</ele>
        <time>2026-04-30T09:32:25Z</time>
      </trkpt>
      <trkpt lat="45.0233" lon="4.40149">
        <ele>1042.1</ele>
        <time>2026-04-30T09:32:30Z</time>
      </trkpt>
      <trkpt lat="45.02334" lon="4.40153">
        <ele>1041.9</ele>
        <time>2026-04-30T09:32:35Z</time>
      </trkpt>
      <trkpt lat="45.02338" lon="4.4016">
        <ele>1042.3</ele>
        <time>2026-04-30T09:32:40Z</time>
      </trkpt>
      <trkpt lat="45.02343" lon="4.40165">
        <ele>1043.1</ele>
        <time>2026-04-30T09:32:45Z</time>
      </trkpt>
      <trkpt lat="45.02348" lon="4.40171">
        <ele>1044.1</ele>
        <time>2026-04-30T09:32:50Z</time>
      </trkpt>
      <trkpt lat="45.02354" lon="4.40177">
        <ele>1045.6</ele>
        <time>2026-04-30T09:32:55Z</time>
      </trkpt>
      <trkpt lat="45.0236" lon="4.40181">
        <ele>1046.9</ele>
        <time>2026-04-30T09:33:00Z</time>
      </trkpt>
      <trkpt lat="45.02367" lon="4.40186">
        <ele>1048.6</ele>
        <time>2026-04-30T09:33:05Z</time>
      </trkpt>
      <trkpt lat="45.02371" lon="4.40191">
        <ele>1049.7</ele>
        <time>2026-04-30T09:33:10Z</time>
      </trkpt>
      <trkpt lat="45.02376" lon="4.40195">
        <ele>1050.9</ele>
        <time>2026-04-30T09:33:15Z</time>
      </trkpt>
      <trkpt lat="45.02381" lon="4.402">
        <ele>1052.2</ele>
        <time>2026-04-30T09:33:20Z</time>
      </trkpt>
      <trkpt lat="45.02387" lon="4.40203">
        <ele>1053.7</ele>
        <time>2026-04-30T09:33:25Z</time>
      </trkpt>
      <trkpt lat="45.02395" lon="4.40206">
        <ele>1055.6</ele>
        <time>2026-04-30T09:33:30Z</time>
      </trkpt>
      <trkpt lat="45.02402" lon="4.4021">
        <ele>1057.3</ele>
        <time>2026-04-30T09:33:35Z</time>
      </trkpt>
      <trkpt lat="45.0241" lon="4.40214">
        <ele>1059.3</ele>
        <time>2026-04-30T09:33:40Z</time>
      </trkpt>
      <trkpt lat="45.02417" lon="4.4022">
        <ele>1061.2</ele>
        <time>2026-04-30T09:33:45Z</time>
      </trkpt>
      <trkpt lat="45.02422" lon="4.40225">
        <ele>1061.7</ele>
        <time>2026-04-30T09:33:50Z</time>
      </trkpt>
      <trkpt lat="45.02427" lon="4.40229">
        <ele>1062.1</ele>
        <time>2026-04-30T09:33:55Z</time>
      </trkpt>
      <trkpt lat="45.02434" lon="4.40233">
        <ele>1062.7</ele>
        <time>2026-04-30T09:34:00Z</time>
      </trkpt>
      <trkpt lat="45.02442" lon="4.40238">
        <ele>1063.4</ele>
        <time>2026-04-30T09:34:05Z</time>
      </trkpt>
      <trkpt lat="45.02449" lon="4.40243">
        <ele>1064</ele>
        <time>2026-04-30T09:34:10Z</time>
      </trkpt>
      <trkpt lat="45.02455" lon="4.40246">
        <ele>1064.5</ele>
        <time>2026-04-30T09:34:15Z</time>
      </trkpt>
      <trkpt lat="45.02461" lon="4.4025">
        <ele>1065.1</ele>
        <time>2026-04-30T09:34:20Z</time>
      </trkpt>
      <trkpt lat="45.02467" lon="4.40256">
        <ele>1065.5</ele>
        <time>2026-04-30T09:34:25Z</time>
      </trkpt>
      <trkpt lat="45.02471" lon="4.40262">
        <ele>1065.7</ele>
        <time>2026-04-30T09:34:30Z</time>
      </trkpt>
      <trkpt lat="45.02478" lon="4.40267">
        <ele>1066.1</ele>
        <time>2026-04-30T09:34:35Z</time>
      </trkpt>
      <trkpt lat="45.02485" lon="4.40274">
        <ele>1066.5</ele>
        <time>2026-04-30T09:34:40Z</time>
      </trkpt>
      <trkpt lat="45.02491" lon="4.40279">
        <ele>1066.9</ele>
        <time>2026-04-30T09:34:45Z</time>
      </trkpt>
      <trkpt lat="45.02499" lon="4.40283">
        <ele>1067.3</ele>
        <time>2026-04-30T09:34:50Z</time>
      </trkpt>
      <trkpt lat="45.02503" lon="4.40288">
        <ele>1067.3</ele>
        <time>2026-04-30T09:34:55Z</time>
      </trkpt>
      <trkpt lat="45.02509" lon="4.40293">
        <ele>1067.1</ele>
        <time>2026-04-30T09:35:00Z</time>
      </trkpt>
      <trkpt lat="45.02514" lon="4.403">
        <ele>1066.9</ele>
        <time>2026-04-30T09:35:05Z</time>
      </trkpt>
      <trkpt lat="45.02518" lon="4.40305">
        <ele>1066.7</ele>
        <time>2026-04-30T09:35:10Z</time>
      </trkpt>
      <trkpt lat="45.02522" lon="4.40312">
        <ele>1066.5</ele>
        <time>2026-04-30T09:35:15Z</time>
      </trkpt>
      <trkpt lat="45.02528" lon="4.40315">
        <ele>1066.1</ele>
        <time>2026-04-30T09:35:20Z</time>
      </trkpt>
      <trkpt lat="45.02533" lon="4.40318">
        <ele>1065.8</ele>
        <time>2026-04-30T09:35:25Z</time>
      </trkpt>
      <trkpt lat="45.02539" lon="4.40319">
        <ele>1065.4</ele>
        <time>2026-04-30T09:35:30Z</time>
      </trkpt>
      <trkpt lat="45.02546" lon="4.40325">
        <ele>1064.9</ele>
        <time>2026-04-30T09:35:35Z</time>
      </trkpt>
      <trkpt lat="45.02553" lon="4.4033">
        <ele>1064.3</ele>
        <time>2026-04-30T09:35:40Z</time>
      </trkpt>
      <trkpt lat="45.02561" lon="4.40333">
        <ele>1063.6</ele>
        <time>2026-04-30T09:35:45Z</time>
      </trkpt>
      <trkpt lat="45.02568" lon="4.40337">
        <ele>1062.7</ele>
        <time>2026-04-30T09:35:50Z</time>
      </trkpt>
      <trkpt lat="45.02575" lon="4.40342">
        <ele>1061.7</ele>
        <time>2026-04-30T09:35:55Z</time>
      </trkpt>
      <trkpt lat="45.02581" lon="4.40347">
        <ele>1060.8</ele>
        <time>2026-04-30T09:36:00Z</time>
      </trkpt>
      <trkpt lat="45.02587" lon="4.40355">
        <ele>1059.9</ele>
        <time>2026-04-30T09:36:05Z</time>
      </trkpt>
      <trkpt lat="45.02592" lon="4.4036">
        <ele>1059.4</ele>
        <time>2026-04-30T09:36:10Z</time>
      </trkpt>
      <trkpt lat="45.02601" lon="4.40363">
        <ele>1059.1</ele>
        <time>2026-04-30T09:36:15Z</time>
      </trkpt>
      <trkpt lat="45.02606" lon="4.40368">
        <ele>1058.6</ele>
        <time>2026-04-30T09:36:20Z</time>
      </trkpt>
      <trkpt lat="45.02613" lon="4.40373">
        <ele>1058.2</ele>
        <time>2026-04-30T09:36:25Z</time>
      </trkpt>
      <trkpt lat="45.02623" lon="4.40378">
        <ele>1057.7</ele>
        <time>2026-04-30T09:36:30Z</time>
      </trkpt>
      <trkpt lat="45.0263" lon="4.40386">
        <ele>1057.1</ele>
        <time>2026-04-30T09:36:35Z</time>
      </trkpt>
      <trkpt lat="45.02638" lon="4.40391">
        <ele>1056.7</ele>
        <time>2026-04-30T09:36:40Z</time>
      </trkpt>
      <trkpt lat="45.02646" lon="4.40396">
        <ele>1056.4</ele>
        <time>2026-04-30T09:36:45Z</time>
      </trkpt>
      <trkpt lat="45.02652" lon="4.40401">
        <ele>1056</ele>
        <time>2026-04-30T09:36:50Z</time>
      </trkpt>
      <trkpt lat="45.02655" lon="4.40406">
        <ele>1055.7</ele>
        <time>2026-04-30T09:36:55Z</time>
      </trkpt>
      <trkpt lat="45.02662" lon="4.40411">
        <ele>1055.4</ele>
        <time>2026-04-30T09:37:00Z</time>
      </trkpt>
      <trkpt lat="45.02668" lon="4.40416">
        <ele>1055.1</ele>
        <time>2026-04-30T09:37:05Z</time>
      </trkpt>
      <trkpt lat="45.02674" lon="4.4042">
        <ele>1055.3</ele>
        <time>2026-04-30T09:37:10Z</time>
      </trkpt>
      <trkpt lat="45.0268" lon="4.40423">
        <ele>1055.5</ele>
        <time>2026-04-30T09:37:15Z</time>
      </trkpt>
      <trkpt lat="45.02682" lon="4.40427">
        <ele>1055.4</ele>
        <time>2026-04-30T09:37:20Z</time>
      </trkpt>
      <trkpt lat="45.02683" lon="4.40428">
        <ele>1055.4</ele>
        <time>2026-04-30T09:37:25Z</time>
      </trkpt>
      <trkpt lat="45.02683" lon="4.40429">
        <ele>1055.3</ele>
        <time>2026-04-30T09:37:30Z</time>
      </trkpt>
      <trkpt lat="45.02683" lon="4.40429">
        <ele>1055.3</ele>
        <time>2026-04-30T09:37:35Z</time>
      </trkpt>
      <trkpt lat="45.02683" lon="4.40429">
        <ele>1055.3</ele>
        <time>2026-04-30T09:37:40Z</time>
      </trkpt>
      <trkpt lat="45.02683" lon="4.40429">
        <ele>1055.3</ele>
        <time>2026-04-30T09:37:45Z</time>
      </trkpt>
      <trkpt lat="45.02683" lon="4.40429">
        <ele>1055.3</ele>
        <time>2026-04-30T09:37:50Z</time>
      </trkpt>
      <trkpt lat="45.02683" lon="4.40429">
        <ele>1055.3</ele>
        <time>2026-04-30T09:37:55Z</time>
      </trkpt>
      <trkpt lat="45.02683" lon="4.40429">
        <ele>1055.3</ele>
        <time>2026-04-30T09:38:00Z</time>
      </trkpt>
      <trkpt lat="45.02683" lon="4.40429">
        <ele>1055.3</ele>
        <time>2026-04-30T09:38:05Z</time>
      </trkpt>
      <trkpt lat="45.02683" lon="4.40429">
        <ele>1055.3</ele>
        <time>2026-04-30T09:38:10Z</time>
      </trkpt>
      <trkpt lat="45.02683" lon="4.40429">
        <ele>1055.3</ele>
        <time>2026-04-30T09:38:15Z</time>
      </trkpt>
      <trkpt lat="45.02683" lon="4.40429">
        <ele>1055.3</ele>
        <time>2026-04-30T09:38:20Z</time>
      </trkpt>
      <trkpt lat="45.02683" lon="4.40429">
        <ele>1055.3</ele>
        <time>2026-04-30T09:38:25Z</time>
      </trkpt>
      <trkpt lat="45.02683" lon="4.40429">
        <ele>1055.3</ele>
        <time>2026-04-30T09:38:30Z</time>
      </trkpt>
      <trkpt lat="45.02683" lon="4.40429">
        <ele>1055.3</ele>
        <time>2026-04-30T09:38:35Z</time>
      </trkpt>
      <trkpt lat="45.02683" lon="4.40429">
        <ele>1055.3</ele>
        <time>2026-04-30T09:38:40Z</time>
      </trkpt>
      <trkpt lat="45.02683" lon="4.40429">
        <ele>1055.3</ele>
        <time>2026-04-30T09:38:45Z</time>
      </trkpt>
      <trkpt lat="45.02683" lon="4.40429">
        <ele>1055.3</ele>
        <time>2026-04-30T09:38:50Z</time>
      </trkpt>
      <trkpt lat="45.02683" lon="4.40429">
        <ele>1055.3</ele>
        <time>2026-04-30T09:38:55Z</time>
      </trkpt>
      <trkpt lat="45.02683" lon="4.40429">
        <ele>1055.3</ele>
        <time>2026-04-30T09:39:00Z</time>
      </trkpt>
      <trkpt lat="45.02683" lon="4.40429">
        <ele>1055.3</ele>
        <time>2026-04-30T09:39:05Z</time>
      </trkpt>
      <trkpt lat="45.02683" lon="4.40429">
        <ele>1055.3</ele>
        <time>2026-04-30T09:39:10Z</time>
      </trkpt>
      <trkpt lat="45.02683" lon="4.40429">
        <ele>1055.3</ele>
        <time>2026-04-30T09:39:15Z</time>
      </trkpt>
      <trkpt lat="45.02683" lon="4.40429">
        <ele>1055.3</ele>
        <time>2026-04-30T09:39:20Z</time>
      </trkpt>
      <trkpt lat="45.02683" lon="4.40429">
        <ele>1055.3</ele>
        <time>2026-04-30T09:39:25Z</time>
      </trkpt>
      <trkpt lat="45.02683" lon="4.40429">
        <ele>1055.3</ele>
        <time>2026-04-30T09:39:30Z</time>
      </trkpt>
      <trkpt lat="45.02683" lon="4.40429">
        <ele>1055.3</ele>
        <time>2026-04-30T09:39:35Z</time>
      </trkpt>
      <trkpt lat="45.02683" lon="4.40429">
        <ele>1055.3</ele>
        <time>2026-04-30T09:39:40Z</time>
      </trkpt>
      <trkpt lat="45.02683" lon="4.40429">
        <ele>1055.3</ele>
        <time>2026-04-30T09:39:45Z</time>
      </trkpt>
      <trkpt lat="45.02683" lon="4.40429">
        <ele>1055.3</ele>
        <time>2026-04-30T09:39:50Z</time>
      </trkpt>
      <trkpt lat="45.02683" lon="4.40429">
        <ele>1055.3</ele>
        <time>2026-04-30T09:39:55Z</time>
      </trkpt>
      <trkpt lat="45.02683" lon="4.40429">
        <ele>1055.3</ele>
        <time>2026-04-30T09:40:00Z</time>
      </trkpt>
      <trkpt lat="45.02683" lon="4.40429">
        <ele>1055.3</ele>
        <time>2026-04-30T09:40:05Z</time>
      </trkpt>
      <trkpt lat="45.02683" lon="4.40429">
        <ele>1055.3</ele>
        <time>2026-04-30T09:40:10Z</time>
      </trkpt>
      <trkpt lat="45.02683" lon="4.40429">
        <ele>1055.3</ele>
        <time>2026-04-30T09:40:15Z</time>
      </trkpt>
      <trkpt lat="45.02683" lon="4.40429">
        <ele>1055.3</ele>
        <time>2026-04-30T09:40:20Z</time>
      </trkpt>
      <trkpt lat="45.02683" lon="4.40429">
        <ele>1055.3</ele>
        <time>2026-04-30T09:40:25Z</time>
      </trkpt>
      <trkpt lat="45.02683" lon="4.40429">
        <ele>1055.3</ele>
        <time>2026-04-30T09:40:30Z</time>
      </trkpt>
      <trkpt lat="45.02683" lon="4.40429">
        <ele>1055.3</ele>
        <time>2026-04-30T09:40:35Z</time>
      </trkpt>
      <trkpt lat="45.02683" lon="4.40429">
        <ele>1055.3</ele>
        <time>2026-04-30T09:40:40Z</time>
      </trkpt>
      <trkpt lat="45.02683" lon="4.40429">
        <ele>1055.3</ele>
        <time>2026-04-30T09:40:45Z</time>
      </trkpt>
      <trkpt lat="45.02683" lon="4.40429">
        <ele>1055.3</ele>
        <time>2026-04-30T09:40:50Z</time>
      </trkpt>
      <trkpt lat="45.02683" lon="4.40429">
        <ele>1055.3</ele>
        <time>2026-04-30T09:40:55Z</time>
      </trkpt>
      <trkpt lat="45.02683" lon="4.40429">
        <ele>1055.3</ele>
        <time>2026-04-30T09:41:00Z</time>
      </trkpt>
      <trkpt lat="45.02683" lon="4.40429">
        <ele>1055.3</ele>
        <time>2026-04-30T09:41:05Z</time>
      </trkpt>
      <trkpt lat="45.02683" lon="4.40429">
        <ele>1055.3</ele>
        <time>2026-04-30T09:41:10Z</time>
      </trkpt>
      <trkpt lat="45.02683" lon="4.40429">
        <ele>1055.3</ele>
        <time>2026-04-30T09:41:15Z</time>
      </trkpt>
      <trkpt lat="45.02683" lon="4.40429">
        <ele>1055.3</ele>
        <time>2026-04-30T09:41:20Z</time>
      </trkpt>
      <trkpt lat="45.02683" lon="4.40429">
        <ele>1055.3</ele>
        <time>2026-04-30T09:41:25Z</time>
      </trkpt>
      <trkpt lat="45.02678" lon="4.4044">
        <ele>1054.2</ele>
        <time>2026-04-30T09:41:30Z</time>
      </trkpt>
      <trkpt lat="45.02678" lon="4.4044">
        <ele>1054.2</ele>
        <time>2026-04-30T09:41:35Z</time>
      </trkpt>
      <trkpt lat="45.02678" lon="4.4044">
        <ele>1054.2</ele>
        <time>2026-04-30T09:41:40Z</time>
      </trkpt>
      <trkpt lat="45.02678" lon="4.4044">
        <ele>1054.2</ele>
        <time>2026-04-30T09:41:45Z</time>
      </trkpt>
      <trkpt lat="45.02678" lon="4.4044">
        <ele>1054.2</ele>
        <time>2026-04-30T09:41:50Z</time>
      </trkpt>
      <trkpt lat="45.02678" lon="4.4044">
        <ele>1054.2</ele>
        <time>2026-04-30T09:41:55Z</time>
      </trkpt>
      <trkpt lat="45.02678" lon="4.4044">
        <ele>1054.2</ele>
        <time>2026-04-30T09:42:00Z</time>
      </trkpt>
      <trkpt lat="45.02678" lon="4.4044">
        <ele>1054.2</ele>
        <time>2026-04-30T09:42:05Z</time>
      </trkpt>
      <trkpt lat="45.02678" lon="4.4044">
        <ele>1054.2</ele>
        <time>2026-04-30T09:42:10Z</time>
      </trkpt>
      <trkpt lat="45.02678" lon="4.4044">
        <ele>1054.2</ele>
        <time>2026-04-30T09:42:15Z</time>
      </trkpt>
      <trkpt lat="45.02678" lon="4.4044">
        <ele>1054.2</ele>
        <time>2026-04-30T09:42:20Z</time>
      </trkpt>
      <trkpt lat="45.02678" lon="4.4044">
        <ele>1054.2</ele>
        <time>2026-04-30T09:42:25Z</time>
      </trkpt>
      <trkpt lat="45.02678" lon="4.4044">
        <ele>1054.2</ele>
        <time>2026-04-30T09:42:30Z</time>
      </trkpt>
      <trkpt lat="45.02678" lon="4.4044">
        <ele>1054.2</ele>
        <time>2026-04-30T09:42:35Z</time>
      </trkpt>
      <trkpt lat="45.02678" lon="4.4044">
        <ele>1054.2</ele>
        <time>2026-04-30T09:42:40Z</time>
      </trkpt>
      <trkpt lat="45.02678" lon="4.4044">
        <ele>1054.2</ele>
        <time>2026-04-30T09:42:45Z</time>
      </trkpt>
      <trkpt lat="45.02678" lon="4.4044">
        <ele>1054.2</ele>
        <time>2026-04-30T09:42:50Z</time>
      </trkpt>
      <trkpt lat="45.02678" lon="4.4044">
        <ele>1054.2</ele>
        <time>2026-04-30T09:42:55Z</time>
      </trkpt>
      <trkpt lat="45.02678" lon="4.4044">
        <ele>1054.2</ele>
        <time>2026-04-30T09:43:00Z</time>
      </trkpt>
      <trkpt lat="45.02678" lon="4.4044">
        <ele>1054.2</ele>
        <time>2026-04-30T09:43:05Z</time>
      </trkpt>
      <trkpt lat="45.02678" lon="4.4044">
        <ele>1054.2</ele>
        <time>2026-04-30T09:43:10Z</time>
      </trkpt>
      <trkpt lat="45.02678" lon="4.4044">
        <ele>1054.2</ele>
        <time>2026-04-30T09:43:15Z</time>
      </trkpt>
      <trkpt lat="45.02678" lon="4.4044">
        <ele>1054.2</ele>
        <time>2026-04-30T09:43:20Z</time>
      </trkpt>
      <trkpt lat="45.02678" lon="4.4044">
        <ele>1054.2</ele>
        <time>2026-04-30T09:43:25Z</time>
      </trkpt>
      <trkpt lat="45.02678" lon="4.4044">
        <ele>1054.2</ele>
        <time>2026-04-30T09:43:30Z</time>
      </trkpt>
      <trkpt lat="45.02678" lon="4.4044">
        <ele>1054.2</ele>
        <time>2026-04-30T09:43:35Z</time>
      </trkpt>
      <trkpt lat="45.02678" lon="4.4044">
        <ele>1054.2</ele>
        <time>2026-04-30T09:43:40Z</time>
      </trkpt>
      <trkpt lat="45.02687" lon="4.40434">
        <ele>1055.3</ele>
        <time>2026-04-30T09:43:45Z</time>
      </trkpt>
      <trkpt lat="45.02695" lon="4.4044">
        <ele>1055.6</ele>
        <time>2026-04-30T09:43:50Z</time>
      </trkpt>
      <trkpt lat="45.02702" lon="4.40444">
        <ele>1055.9</ele>
        <time>2026-04-30T09:43:55Z</time>
      </trkpt>
      <trkpt lat="45.02708" lon="4.40449">
        <ele>1056</ele>
        <time>2026-04-30T09:44:00Z</time>
      </trkpt>
      <trkpt lat="45.02716" lon="4.40454">
        <ele>1056.4</ele>
        <time>2026-04-30T09:44:05Z</time>
      </trkpt>
      <trkpt lat="45.02723" lon="4.40458">
        <ele>1056.8</ele>
        <time>2026-04-30T09:44:10Z</time>
      </trkpt>
      <trkpt lat="45.02729" lon="4.40463">
        <ele>1057</ele>
        <time>2026-04-30T09:44:15Z</time>
      </trkpt>
      <trkpt lat="45.02734" lon="4.40468">
        <ele>1057.1</ele>
        <time>2026-04-30T09:44:20Z</time>
      </trkpt>
      <trkpt lat="45.0274" lon="4.40472">
        <ele>1057.5</ele>
        <time>2026-04-30T09:44:25Z</time>
      </trkpt>
      <trkpt lat="45.02746" lon="4.40476">
        <ele>1057.8</ele>
        <time>2026-04-30T09:44:30Z</time>
      </trkpt>
      <trkpt lat="45.02751" lon="4.40482">
        <ele>1057.9</ele>
        <time>2026-04-30T09:44:35Z</time>
      </trkpt>
      <trkpt lat="45.02755" lon="4.40484">
        <ele>1057.9</ele>
        <time>2026-04-30T09:44:40Z</time>
      </trkpt>
      <trkpt lat="45.02755" lon="4.40484">
        <ele>1057.9</ele>
        <time>2026-04-30T09:44:45Z</time>
      </trkpt>
      <trkpt lat="45.02755" lon="4.40484">
        <ele>1057.9</ele>
        <time>2026-04-30T09:44:50Z</time>
      </trkpt>
      <trkpt lat="45.02758" lon="4.40488">
        <ele>1057.9</ele>
        <time>2026-04-30T09:44:55Z</time>
      </trkpt>
      <trkpt lat="45.02764" lon="4.40492">
        <ele>1057.9</ele>
        <time>2026-04-30T09:45:00Z</time>
      </trkpt>
      <trkpt lat="45.02769" lon="4.40494">
        <ele>1058</ele>
        <time>2026-04-30T09:45:05Z</time>
      </trkpt>
      <trkpt lat="45.02775" lon="4.40497">
        <ele>1058</ele>
        <time>2026-04-30T09:45:10Z</time>
      </trkpt>
      <trkpt lat="45.02781" lon="4.40501">
        <ele>1058.1</ele>
        <time>2026-04-30T09:45:15Z</time>
      </trkpt>
      <trkpt lat="45.02787" lon="4.40504">
        <ele>1058.3</ele>
        <time>2026-04-30T09:45:20Z</time>
      </trkpt>
      <trkpt lat="45.0279" lon="4.40506">
        <ele>1058.4</ele>
        <time>2026-04-30T09:45:25Z</time>
      </trkpt>
      <trkpt lat="45.02795" lon="4.40512">
        <ele>1058.5</ele>
        <time>2026-04-30T09:45:30Z</time>
      </trkpt>
      <trkpt lat="45.02799" lon="4.4052">
        <ele>1058.7</ele>
        <time>2026-04-30T09:45:35Z</time>
      </trkpt>
      <trkpt lat="45.02805" lon="4.40525">
        <ele>1059</ele>
        <time>2026-04-30T09:45:40Z</time>
      </trkpt>
      <trkpt lat="45.02811" lon="4.40527">
        <ele>1059.3</ele>
        <time>2026-04-30T09:45:45Z</time>
      </trkpt>
      <trkpt lat="45.02816" lon="4.40532">
        <ele>1059.7</ele>
        <time>2026-04-30T09:45:50Z</time>
      </trkpt>
      <trkpt lat="45.02822" lon="4.40536">
        <ele>1060.1</ele>
        <time>2026-04-30T09:45:55Z</time>
      </trkpt>
      <trkpt lat="45.02829" lon="4.40543">
        <ele>1060.7</ele>
        <time>2026-04-30T09:46:00Z</time>
      </trkpt>
      <trkpt lat="45.02836" lon="4.40547">
        <ele>1061.2</ele>
        <time>2026-04-30T09:46:05Z</time>
      </trkpt>
      <trkpt lat="45.02842" lon="4.40552">
        <ele>1061.5</ele>
        <time>2026-04-30T09:46:10Z</time>
      </trkpt>
      <trkpt lat="45.02848" lon="4.40557">
        <ele>1061.8</ele>
        <time>2026-04-30T09:46:15Z</time>
      </trkpt>
      <trkpt lat="45.02854" lon="4.40561">
        <ele>1062.1</ele>
        <time>2026-04-30T09:46:20Z</time>
      </trkpt>
      <trkpt lat="45.0286" lon="4.40566">
        <ele>1062.5</ele>
        <time>2026-04-30T09:46:25Z</time>
      </trkpt>
      <trkpt lat="45.02865" lon="4.40571">
        <ele>1062.9</ele>
        <time>2026-04-30T09:46:30Z</time>
      </trkpt>
      <trkpt lat="45.0287" lon="4.40576">
        <ele>1063.4</ele>
        <time>2026-04-30T09:46:35Z</time>
      </trkpt>
      <trkpt lat="45.02876" lon="4.4058">
        <ele>1063.9</ele>
        <time>2026-04-30T09:46:40Z</time>
      </trkpt>
      <trkpt lat="45.02882" lon="4.40585">
        <ele>1064.4</ele>
        <time>2026-04-30T09:46:45Z</time>
      </trkpt>
      <trkpt lat="45.0289" lon="4.40589">
        <ele>1065</ele>
        <time>2026-04-30T09:46:50Z</time>
      </trkpt>
      <trkpt lat="45.02897" lon="4.40591">
        <ele>1065.5</ele>
        <time>2026-04-30T09:46:55Z</time>
      </trkpt>
      <trkpt lat="45.02904" lon="4.40595">
        <ele>1066.1</ele>
        <time>2026-04-30T09:47:00Z</time>
      </trkpt>
      <trkpt lat="45.02911" lon="4.40599">
        <ele>1066.8</ele>
        <time>2026-04-30T09:47:05Z</time>
      </trkpt>
      <trkpt lat="45.02917" lon="4.40601">
        <ele>1067.3</ele>
        <time>2026-04-30T09:47:10Z</time>
      </trkpt>
      <trkpt lat="45.02921" lon="4.40607">
        <ele>1067.7</ele>
        <time>2026-04-30T09:47:15Z</time>
      </trkpt>
      <trkpt lat="45.02926" lon="4.40613">
        <ele>1068.1</ele>
        <time>2026-04-30T09:47:20Z</time>
      </trkpt>
      <trkpt lat="45.0293" lon="4.40617">
        <ele>1068.3</ele>
        <time>2026-04-30T09:47:25Z</time>
      </trkpt>
      <trkpt lat="45.02936" lon="4.40622">
        <ele>1068.7</ele>
        <time>2026-04-30T09:47:30Z</time>
      </trkpt>
      <trkpt lat="45.02942" lon="4.40625">
        <ele>1068.8</ele>
        <time>2026-04-30T09:47:35Z</time>
      </trkpt>
      <trkpt lat="45.02947" lon="4.40631">
        <ele>1069.3</ele>
        <time>2026-04-30T09:47:40Z</time>
      </trkpt>
      <trkpt lat="45.02952" lon="4.40635">
        <ele>1069.6</ele>
        <time>2026-04-30T09:47:45Z</time>
      </trkpt>
      <trkpt lat="45.02957" lon="4.40636">
        <ele>1069.6</ele>
        <time>2026-04-30T09:47:50Z</time>
      </trkpt>
      <trkpt lat="45.02962" lon="4.40639">
        <ele>1069.8</ele>
        <time>2026-04-30T09:47:55Z</time>
      </trkpt>
      <trkpt lat="45.02968" lon="4.40641">
        <ele>1070</ele>
        <time>2026-04-30T09:48:00Z</time>
      </trkpt>
      <trkpt lat="45.02973" lon="4.40643">
        <ele>1070.1</ele>
        <time>2026-04-30T09:48:05Z</time>
      </trkpt>
      <trkpt lat="45.02979" lon="4.40646">
        <ele>1070.3</ele>
        <time>2026-04-30T09:48:10Z</time>
      </trkpt>
      <trkpt lat="45.02986" lon="4.40649">
        <ele>1070.6</ele>
        <time>2026-04-30T09:48:15Z</time>
      </trkpt>
      <trkpt lat="45.02993" lon="4.40652">
        <ele>1070.8</ele>
        <time>2026-04-30T09:48:20Z</time>
      </trkpt>
      <trkpt lat="45.02999" lon="4.40654">
        <ele>1070.9</ele>
        <time>2026-04-30T09:48:25Z</time>
      </trkpt>
      <trkpt lat="45.03007" lon="4.40659">
        <ele>1071.3</ele>
        <time>2026-04-30T09:48:30Z</time>
      </trkpt>
      <trkpt lat="45.03012" lon="4.40662">
        <ele>1071.5</ele>
        <time>2026-04-30T09:48:35Z</time>
      </trkpt>
      <trkpt lat="45.03017" lon="4.40665">
        <ele>1071.7</ele>
        <time>2026-04-30T09:48:40Z</time>
      </trkpt>
      <trkpt lat="45.03022" lon="4.40667">
        <ele>1071.7</ele>
        <time>2026-04-30T09:48:45Z</time>
      </trkpt>
      <trkpt lat="45.03029" lon="4.40669">
        <ele>1071.7</ele>
        <time>2026-04-30T09:48:50Z</time>
      </trkpt>
      <trkpt lat="45.03037" lon="4.4067">
        <ele>1071.7</ele>
        <time>2026-04-30T09:48:55Z</time>
      </trkpt>
      <trkpt lat="45.03046" lon="4.4067">
        <ele>1071.6</ele>
        <time>2026-04-30T09:49:00Z</time>
      </trkpt>
      <trkpt lat="45.03052" lon="4.40669">
        <ele>1071.5</ele>
        <time>2026-04-30T09:49:05Z</time>
      </trkpt>
      <trkpt lat="45.03058" lon="4.4067">
        <ele>1071.4</ele>
        <time>2026-04-30T09:49:10Z</time>
      </trkpt>
      <trkpt lat="45.03065" lon="4.40671">
        <ele>1071.4</ele>
        <time>2026-04-30T09:49:15Z</time>
      </trkpt>
      <trkpt lat="45.03072" lon="4.40673">
        <ele>1071.4</ele>
        <time>2026-04-30T09:49:20Z</time>
      </trkpt>
      <trkpt lat="45.03078" lon="4.40674">
        <ele>1071.3</ele>
        <time>2026-04-30T09:49:25Z</time>
      </trkpt>
      <trkpt lat="45.03084" lon="4.40673">
        <ele>1071.3</ele>
        <time>2026-04-30T09:49:30Z</time>
      </trkpt>
      <trkpt lat="45.03091" lon="4.40665">
        <ele>1071.2</ele>
        <time>2026-04-30T09:49:35Z</time>
      </trkpt>
      <trkpt lat="45.03091" lon="4.40666">
        <ele>1071.2</ele>
        <time>2026-04-30T09:49:40Z</time>
      </trkpt>
      <trkpt lat="45.03091" lon="4.40669">
        <ele>1071.4</ele>
        <time>2026-04-30T09:49:45Z</time>
      </trkpt>
      <trkpt lat="45.03091" lon="4.40674">
        <ele>1071.5</ele>
        <time>2026-04-30T09:49:50Z</time>
      </trkpt>
      <trkpt lat="45.03092" lon="4.40679">
        <ele>1071.7</ele>
        <time>2026-04-30T09:49:55Z</time>
      </trkpt>
      <trkpt lat="45.03097" lon="4.40681">
        <ele>1072</ele>
        <time>2026-04-30T09:50:00Z</time>
      </trkpt>
      <trkpt lat="45.03104" lon="4.40681">
        <ele>1072.2</ele>
        <time>2026-04-30T09:50:05Z</time>
      </trkpt>
      <trkpt lat="45.0311" lon="4.40681">
        <ele>1072.4</ele>
        <time>2026-04-30T09:50:10Z</time>
      </trkpt>
      <trkpt lat="45.03116" lon="4.40681">
        <ele>1072.6</ele>
        <time>2026-04-30T09:50:15Z</time>
      </trkpt>
      <trkpt lat="45.03122" lon="4.40681">
        <ele>1072.7</ele>
        <time>2026-04-30T09:50:20Z</time>
      </trkpt>
      <trkpt lat="45.03131" lon="4.4068">
        <ele>1073</ele>
        <time>2026-04-30T09:50:25Z</time>
      </trkpt>
      <trkpt lat="45.03138" lon="4.40679">
        <ele>1073.2</ele>
        <time>2026-04-30T09:50:30Z</time>
      </trkpt>
      <trkpt lat="45.03145" lon="4.40677">
        <ele>1073.4</ele>
        <time>2026-04-30T09:50:35Z</time>
      </trkpt>
      <trkpt lat="45.03152" lon="4.40676">
        <ele>1073.6</ele>
        <time>2026-04-30T09:50:40Z</time>
      </trkpt>
      <trkpt lat="45.03157" lon="4.40677">
        <ele>1073.8</ele>
        <time>2026-04-30T09:50:45Z</time>
      </trkpt>
      <trkpt lat="45.03159" lon="4.40683">
        <ele>1074</ele>
        <time>2026-04-30T09:50:50Z</time>
      </trkpt>
      <trkpt lat="45.03159" lon="4.40686">
        <ele>1074</ele>
        <time>2026-04-30T09:50:55Z</time>
      </trkpt>
      <trkpt lat="45.03159" lon="4.40686">
        <ele>1074</ele>
        <time>2026-04-30T09:51:00Z</time>
      </trkpt>
      <trkpt lat="45.03159" lon="4.40686">
        <ele>1074</ele>
        <time>2026-04-30T09:51:05Z</time>
      </trkpt>
      <trkpt lat="45.03159" lon="4.40686">
        <ele>1074</ele>
        <time>2026-04-30T09:51:10Z</time>
      </trkpt>
      <trkpt lat="45.03159" lon="4.40686">
        <ele>1074</ele>
        <time>2026-04-30T09:51:15Z</time>
      </trkpt>
      <trkpt lat="45.03159" lon="4.40686">
        <ele>1074</ele>
        <time>2026-04-30T09:51:20Z</time>
      </trkpt>
      <trkpt lat="45.03159" lon="4.40686">
        <ele>1074</ele>
        <time>2026-04-30T09:51:25Z</time>
      </trkpt>
      <trkpt lat="45.03165" lon="4.40676">
        <ele>1074.1</ele>
        <time>2026-04-30T09:51:30Z</time>
      </trkpt>
      <trkpt lat="45.03171" lon="4.40674">
        <ele>1074.4</ele>
        <time>2026-04-30T09:51:35Z</time>
      </trkpt>
      <trkpt lat="45.03177" lon="4.40673">
        <ele>1074.8</ele>
        <time>2026-04-30T09:51:40Z</time>
      </trkpt>
      <trkpt lat="45.03182" lon="4.40673">
        <ele>1075.1</ele>
        <time>2026-04-30T09:51:45Z</time>
      </trkpt>
      <trkpt lat="45.03188" lon="4.40672">
        <ele>1075.6</ele>
        <time>2026-04-30T09:51:50Z</time>
      </trkpt>
      <trkpt lat="45.03195" lon="4.40671">
        <ele>1076</ele>
        <time>2026-04-30T09:51:55Z</time>
      </trkpt>
      <trkpt lat="45.03201" lon="4.40669">
        <ele>1076.5</ele>
        <time>2026-04-30T09:52:00Z</time>
      </trkpt>
      <trkpt lat="45.03206" lon="4.40667">
        <ele>1076.8</ele>
        <time>2026-04-30T09:52:05Z</time>
      </trkpt>
      <trkpt lat="45.03211" lon="4.40666">
        <ele>1077.2</ele>
        <time>2026-04-30T09:52:10Z</time>
      </trkpt>
      <trkpt lat="45.03218" lon="4.40665">
        <ele>1077.7</ele>
        <time>2026-04-30T09:52:15Z</time>
      </trkpt>
      <trkpt lat="45.03223" lon="4.40664">
        <ele>1078</ele>
        <time>2026-04-30T09:52:20Z</time>
      </trkpt>
      <trkpt lat="45.03231" lon="4.40664">
        <ele>1078.6</ele>
        <time>2026-04-30T09:52:25Z</time>
      </trkpt>
      <trkpt lat="45.03237" lon="4.40664">
        <ele>1079</ele>
        <time>2026-04-30T09:52:30Z</time>
      </trkpt>
      <trkpt lat="45.03244" lon="4.40663">
        <ele>1079.6</ele>
        <time>2026-04-30T09:52:35Z</time>
      </trkpt>
      <trkpt lat="45.0325" lon="4.40663">
        <ele>1080</ele>
        <time>2026-04-30T09:52:40Z</time>
      </trkpt>
      <trkpt lat="45.03255" lon="4.40663">
        <ele>1080.3</ele>
        <time>2026-04-30T09:52:45Z</time>
      </trkpt>
      <trkpt lat="45.03262" lon="4.40663">
        <ele>1080.7</ele>
        <time>2026-04-30T09:52:50Z</time>
      </trkpt>
      <trkpt lat="45.03267" lon="4.40661">
        <ele>1081.1</ele>
        <time>2026-04-30T09:52:55Z</time>
      </trkpt>
      <trkpt lat="45.03272" lon="4.40662">
        <ele>1081.4</ele>
        <time>2026-04-30T09:53:00Z</time>
      </trkpt>
      <trkpt lat="45.03278" lon="4.40662">
        <ele>1081.8</ele>
        <time>2026-04-30T09:53:05Z</time>
      </trkpt>
      <trkpt lat="45.03285" lon="4.4066">
        <ele>1082.2</ele>
        <time>2026-04-30T09:53:10Z</time>
      </trkpt>
      <trkpt lat="45.03292" lon="4.40659">
        <ele>1082.7</ele>
        <time>2026-04-30T09:53:15Z</time>
      </trkpt>
      <trkpt lat="45.03298" lon="4.4066">
        <ele>1083.1</ele>
        <time>2026-04-30T09:53:20Z</time>
      </trkpt>
      <trkpt lat="45.03302" lon="4.40658">
        <ele>1083.4</ele>
        <time>2026-04-30T09:53:25Z</time>
      </trkpt>
      <trkpt lat="45.03308" lon="4.40658">
        <ele>1083.8</ele>
        <time>2026-04-30T09:53:30Z</time>
      </trkpt>
      <trkpt lat="45.03316" lon="4.40657">
        <ele>1084.3</ele>
        <time>2026-04-30T09:53:35Z</time>
      </trkpt>
      <trkpt lat="45.03323" lon="4.40656">
        <ele>1084.8</ele>
        <time>2026-04-30T09:53:40Z</time>
      </trkpt>
      <trkpt lat="45.03327" lon="4.40656">
        <ele>1085.1</ele>
        <time>2026-04-30T09:53:45Z</time>
      </trkpt>
      <trkpt lat="45.03331" lon="4.40657">
        <ele>1085.3</ele>
        <time>2026-04-30T09:53:50Z</time>
      </trkpt>
      <trkpt lat="45.03338" lon="4.40656">
        <ele>1085.7</ele>
        <time>2026-04-30T09:53:55Z</time>
      </trkpt>
      <trkpt lat="45.03342" lon="4.40656">
        <ele>1085.9</ele>
        <time>2026-04-30T09:54:00Z</time>
      </trkpt>
      <trkpt lat="45.0335" lon="4.40657">
        <ele>1086.3</ele>
        <time>2026-04-30T09:54:05Z</time>
      </trkpt>
      <trkpt lat="45.03356" lon="4.40659">
        <ele>1086.5</ele>
        <time>2026-04-30T09:54:10Z</time>
      </trkpt>
      <trkpt lat="45.03362" lon="4.40658">
        <ele>1086.8</ele>
        <time>2026-04-30T09:54:15Z</time>
      </trkpt>
      <trkpt lat="45.03367" lon="4.40656">
        <ele>1087.2</ele>
        <time>2026-04-30T09:54:20Z</time>
      </trkpt>
      <trkpt lat="45.03372" lon="4.40655">
        <ele>1087.5</ele>
        <time>2026-04-30T09:54:25Z</time>
      </trkpt>
      <trkpt lat="45.03377" lon="4.40656">
        <ele>1087.7</ele>
        <time>2026-04-30T09:54:30Z</time>
      </trkpt>
      <trkpt lat="45.03382" lon="4.40655">
        <ele>1088</ele>
        <time>2026-04-30T09:54:35Z</time>
      </trkpt>
      <trkpt lat="45.03388" lon="4.40655">
        <ele>1088.3</ele>
        <time>2026-04-30T09:54:40Z</time>
      </trkpt>
      <trkpt lat="45.03395" lon="4.40658">
        <ele>1088.5</ele>
        <time>2026-04-30T09:54:45Z</time>
      </trkpt>
      <trkpt lat="45.034" lon="4.40659">
        <ele>1088.6</ele>
        <time>2026-04-30T09:54:50Z</time>
      </trkpt>
      <trkpt lat="45.03405" lon="4.40658">
        <ele>1088.9</ele>
        <time>2026-04-30T09:54:55Z</time>
      </trkpt>
      <trkpt lat="45.03411" lon="4.40655">
        <ele>1089.4</ele>
        <time>2026-04-30T09:55:00Z</time>
      </trkpt>
      <trkpt lat="45.03418" lon="4.40654">
        <ele>1089.9</ele>
        <time>2026-04-30T09:55:05Z</time>
      </trkpt>
      <trkpt lat="45.03425" lon="4.40657">
        <ele>1090.5</ele>
        <time>2026-04-30T09:55:10Z</time>
      </trkpt>
      <trkpt lat="45.03431" lon="4.40657">
        <ele>1091.1</ele>
        <time>2026-04-30T09:55:15Z</time>
      </trkpt>
      <trkpt lat="45.03437" lon="4.40657">
        <ele>1091.7</ele>
        <time>2026-04-30T09:55:20Z</time>
      </trkpt>
      <trkpt lat="45.03442" lon="4.40656">
        <ele>1092.3</ele>
        <time>2026-04-30T09:55:25Z</time>
      </trkpt>
      <trkpt lat="45.03449" lon="4.40654">
        <ele>1093.2</ele>
        <time>2026-04-30T09:55:30Z</time>
      </trkpt>
      <trkpt lat="45.03455" lon="4.40652">
        <ele>1093.9</ele>
        <time>2026-04-30T09:55:35Z</time>
      </trkpt>
      <trkpt lat="45.03462" lon="4.4065">
        <ele>1094.8</ele>
        <time>2026-04-30T09:55:40Z</time>
      </trkpt>
      <trkpt lat="45.03469" lon="4.4065">
        <ele>1095.5</ele>
        <time>2026-04-30T09:55:45Z</time>
      </trkpt>
      <trkpt lat="45.03475" lon="4.40648">
        <ele>1096.3</ele>
        <time>2026-04-30T09:55:50Z</time>
      </trkpt>
      <trkpt lat="45.0348" lon="4.40647">
        <ele>1096.8</ele>
        <time>2026-04-30T09:55:55Z</time>
      </trkpt>
      <trkpt lat="45.03485" lon="4.40646">
        <ele>1097.4</ele>
        <time>2026-04-30T09:56:00Z</time>
      </trkpt>
      <trkpt lat="45.0349" lon="4.40646">
        <ele>1097.9</ele>
        <time>2026-04-30T09:56:05Z</time>
      </trkpt>
      <trkpt lat="45.03497" lon="4.40646">
        <ele>1098.7</ele>
        <time>2026-04-30T09:56:10Z</time>
      </trkpt>
      <trkpt lat="45.03502" lon="4.40644">
        <ele>1099.1</ele>
        <time>2026-04-30T09:56:15Z</time>
      </trkpt>
      <trkpt lat="45.03511" lon="4.4064">
        <ele>1099.6</ele>
        <time>2026-04-30T09:56:20Z</time>
      </trkpt>
      <trkpt lat="45.03522" lon="4.4064">
        <ele>1099.9</ele>
        <time>2026-04-30T09:56:25Z</time>
      </trkpt>
      <trkpt lat="45.03531" lon="4.40638">
        <ele>1100.3</ele>
        <time>2026-04-30T09:56:30Z</time>
      </trkpt>
      <trkpt lat="45.03538" lon="4.40637">
        <ele>1100.5</ele>
        <time>2026-04-30T09:56:35Z</time>
      </trkpt>
      <trkpt lat="45.03545" lon="4.40638">
        <ele>1100.7</ele>
        <time>2026-04-30T09:56:40Z</time>
      </trkpt>
      <trkpt lat="45.0355" lon="4.40638">
        <ele>1100.8</ele>
        <time>2026-04-30T09:56:45Z</time>
      </trkpt>
      <trkpt lat="45.03556" lon="4.40639">
        <ele>1100.9</ele>
        <time>2026-04-30T09:56:50Z</time>
      </trkpt>
      <trkpt lat="45.03562" lon="4.4064">
        <ele>1101</ele>
        <time>2026-04-30T09:56:55Z</time>
      </trkpt>
      <trkpt lat="45.03568" lon="4.40643">
        <ele>1100.9</ele>
        <time>2026-04-30T09:57:00Z</time>
      </trkpt>
      <trkpt lat="45.03573" lon="4.40646">
        <ele>1100.7</ele>
        <time>2026-04-30T09:57:05Z</time>
      </trkpt>
      <trkpt lat="45.0358" lon="4.40645">
        <ele>1101</ele>
        <time>2026-04-30T09:57:10Z</time>
      </trkpt>
      <trkpt lat="45.03587" lon="4.40645">
        <ele>1101.1</ele>
        <time>2026-04-30T09:57:15Z</time>
      </trkpt>
      <trkpt lat="45.03594" lon="4.40645">
        <ele>1101.2</ele>
        <time>2026-04-30T09:57:20Z</time>
      </trkpt>
      <trkpt lat="45.03599" lon="4.40646">
        <ele>1101.2</ele>
        <time>2026-04-30T09:57:25Z</time>
      </trkpt>
      <trkpt lat="45.03604" lon="4.40648">
        <ele>1101.1</ele>
        <time>2026-04-30T09:57:30Z</time>
      </trkpt>
      <trkpt lat="45.03609" lon="4.40651">
        <ele>1100.9</ele>
        <time>2026-04-30T09:57:35Z</time>
      </trkpt>
      <trkpt lat="45.03616" lon="4.40652">
        <ele>1100.9</ele>
        <time>2026-04-30T09:57:40Z</time>
      </trkpt>
      <trkpt lat="45.03625" lon="4.40654">
        <ele>1100.9</ele>
        <time>2026-04-30T09:57:45Z</time>
      </trkpt>
      <trkpt lat="45.03633" lon="4.40655">
        <ele>1101</ele>
        <time>2026-04-30T09:57:50Z</time>
      </trkpt>
      <trkpt lat="45.03641" lon="4.40657">
        <ele>1101</ele>
        <time>2026-04-30T09:57:55Z</time>
      </trkpt>
      <trkpt lat="45.0365" lon="4.40659">
        <ele>1101</ele>
        <time>2026-04-30T09:58:00Z</time>
      </trkpt>
      <trkpt lat="45.03655" lon="4.40659">
        <ele>1101.1</ele>
        <time>2026-04-30T09:58:05Z</time>
      </trkpt>
      <trkpt lat="45.03659" lon="4.4066">
        <ele>1101.2</ele>
        <time>2026-04-30T09:58:10Z</time>
      </trkpt>
      <trkpt lat="45.03665" lon="4.40662">
        <ele>1101.2</ele>
        <time>2026-04-30T09:58:15Z</time>
      </trkpt>
      <trkpt lat="45.03671" lon="4.40665">
        <ele>1101.3</ele>
        <time>2026-04-30T09:58:20Z</time>
      </trkpt>
      <trkpt lat="45.03677" lon="4.40666">
        <ele>1101.6</ele>
        <time>2026-04-30T09:58:25Z</time>
      </trkpt>
      <trkpt lat="45.03684" lon="4.40667">
        <ele>1102</ele>
        <time>2026-04-30T09:58:30Z</time>
      </trkpt>
      <trkpt lat="45.03692" lon="4.40667">
        <ele>1102.5</ele>
        <time>2026-04-30T09:58:35Z</time>
      </trkpt>
      <trkpt lat="45.03698" lon="4.4067">
        <ele>1102.8</ele>
        <time>2026-04-30T09:58:40Z</time>
      </trkpt>
      <trkpt lat="45.03704" lon="4.40671">
        <ele>1103.1</ele>
        <time>2026-04-30T09:58:45Z</time>
      </trkpt>
      <trkpt lat="45.03711" lon="4.40672">
        <ele>1103.5</ele>
        <time>2026-04-30T09:58:50Z</time>
      </trkpt>
      <trkpt lat="45.03718" lon="4.40673">
        <ele>1103.9</ele>
        <time>2026-04-30T09:58:55Z</time>
      </trkpt>
      <trkpt lat="45.03725" lon="4.40674">
        <ele>1104.4</ele>
        <time>2026-04-30T09:59:00Z</time>
      </trkpt>
      <trkpt lat="45.03731" lon="4.40676">
        <ele>1104.7</ele>
        <time>2026-04-30T09:59:05Z</time>
      </trkpt>
      <trkpt lat="45.03739" lon="4.40677">
        <ele>1105.2</ele>
        <time>2026-04-30T09:59:10Z</time>
      </trkpt>
      <trkpt lat="45.03745" lon="4.40676">
        <ele>1105.6</ele>
        <time>2026-04-30T09:59:15Z</time>
      </trkpt>
      <trkpt lat="45.03751" lon="4.40677">
        <ele>1105.9</ele>
        <time>2026-04-30T09:59:20Z</time>
      </trkpt>
      <trkpt lat="45.03756" lon="4.40679">
        <ele>1106</ele>
        <time>2026-04-30T09:59:25Z</time>
      </trkpt>
      <trkpt lat="45.03762" lon="4.40681">
        <ele>1106.2</ele>
        <time>2026-04-30T09:59:30Z</time>
      </trkpt>
      <trkpt lat="45.03767" lon="4.40682">
        <ele>1106.3</ele>
        <time>2026-04-30T09:59:35Z</time>
      </trkpt>
      <trkpt lat="45.03773" lon="4.40683">
        <ele>1106.5</ele>
        <time>2026-04-30T09:59:40Z</time>
      </trkpt>
      <trkpt lat="45.03779" lon="4.40682">
        <ele>1106.7</ele>
        <time>2026-04-30T09:59:45Z</time>
      </trkpt>
      <trkpt lat="45.03782" lon="4.40684">
        <ele>1106.7</ele>
        <time>2026-04-30T09:59:50Z</time>
      </trkpt>
      <trkpt lat="45.03787" lon="4.40686">
        <ele>1106.8</ele>
        <time>2026-04-30T09:59:55Z</time>
      </trkpt>
      <trkpt lat="45.03793" lon="4.40687">
        <ele>1106.9</ele>
        <time>2026-04-30T10:00:00Z</time>
      </trkpt>
      <trkpt lat="45.03798" lon="4.40686">
        <ele>1107.1</ele>
        <time>2026-04-30T10:00:05Z</time>
      </trkpt>
      <trkpt lat="45.03807" lon="4.40686">
        <ele>1107.3</ele>
        <time>2026-04-30T10:00:10Z</time>
      </trkpt>
      <trkpt lat="45.03813" lon="4.40685">
        <ele>1107.5</ele>
        <time>2026-04-30T10:00:15Z</time>
      </trkpt>
      <trkpt lat="45.03818" lon="4.40686">
        <ele>1107.6</ele>
        <time>2026-04-30T10:00:20Z</time>
      </trkpt>
      <trkpt lat="45.03824" lon="4.40688">
        <ele>1107.7</ele>
        <time>2026-04-30T10:00:25Z</time>
      </trkpt>
      <trkpt lat="45.0383" lon="4.40689">
        <ele>1107.8</ele>
        <time>2026-04-30T10:00:30Z</time>
      </trkpt>
      <trkpt lat="45.03837" lon="4.40687">
        <ele>1108.2</ele>
        <time>2026-04-30T10:00:35Z</time>
      </trkpt>
      <trkpt lat="45.03843" lon="4.40686">
        <ele>1108.6</ele>
        <time>2026-04-30T10:00:40Z</time>
      </trkpt>
      <trkpt lat="45.03849" lon="4.40686">
        <ele>1108.9</ele>
        <time>2026-04-30T10:00:45Z</time>
      </trkpt>
      <trkpt lat="45.03856" lon="4.40687">
        <ele>1109.2</ele>
        <time>2026-04-30T10:00:50Z</time>
      </trkpt>
      <trkpt lat="45.03863" lon="4.40684">
        <ele>1109.7</ele>
        <time>2026-04-30T10:00:55Z</time>
      </trkpt>
      <trkpt lat="45.03869" lon="4.40684">
        <ele>1110</ele>
        <time>2026-04-30T10:01:00Z</time>
      </trkpt>
      <trkpt lat="45.03874" lon="4.40683">
        <ele>1110.3</ele>
        <time>2026-04-30T10:01:05Z</time>
      </trkpt>
      <trkpt lat="45.03881" lon="4.40684">
        <ele>1110.6</ele>
        <time>2026-04-30T10:01:10Z</time>
      </trkpt>
      <trkpt lat="45.03888" lon="4.40683">
        <ele>1111</ele>
        <time>2026-04-30T10:01:15Z</time>
      </trkpt>
      <trkpt lat="45.03894" lon="4.40682">
        <ele>1111.3</ele>
        <time>2026-04-30T10:01:20Z</time>
      </trkpt>
      <trkpt lat="45.03903" lon="4.4068">
        <ele>1111.8</ele>
        <time>2026-04-30T10:01:25Z</time>
      </trkpt>
      <trkpt lat="45.03913" lon="4.40681">
        <ele>1112.3</ele>
        <time>2026-04-30T10:01:30Z</time>
      </trkpt>
      <trkpt lat="45.0392" lon="4.4068">
        <ele>1112.6</ele>
        <time>2026-04-30T10:01:35Z</time>
      </trkpt>
      <trkpt lat="45.03926" lon="4.40679">
        <ele>1112.7</ele>
        <time>2026-04-30T10:01:40Z</time>
      </trkpt>
      <trkpt lat="45.03932" lon="4.40682">
        <ele>1112.6</ele>
        <time>2026-04-30T10:01:45Z</time>
      </trkpt>
      <trkpt lat="45.03938" lon="4.40682">
        <ele>1112.7</ele>
        <time>2026-04-30T10:01:50Z</time>
      </trkpt>
      <trkpt lat="45.03945" lon="4.40683">
        <ele>1112.7</ele>
        <time>2026-04-30T10:01:55Z</time>
      </trkpt>
      <trkpt lat="45.0395" lon="4.40682">
        <ele>1112.8</ele>
        <time>2026-04-30T10:02:00Z</time>
      </trkpt>
      <trkpt lat="45.03957" lon="4.40683">
        <ele>1112.8</ele>
        <time>2026-04-30T10:02:05Z</time>
      </trkpt>
      <trkpt lat="45.03964" lon="4.40683">
        <ele>1112.9</ele>
        <time>2026-04-30T10:02:10Z</time>
      </trkpt>
      <trkpt lat="45.03973" lon="4.40683">
        <ele>1113</ele>
        <time>2026-04-30T10:02:15Z</time>
      </trkpt>
      <trkpt lat="45.0398" lon="4.40684">
        <ele>1113</ele>
        <time>2026-04-30T10:02:20Z</time>
      </trkpt>
      <trkpt lat="45.03987" lon="4.40684">
        <ele>1113</ele>
        <time>2026-04-30T10:02:25Z</time>
      </trkpt>
      <trkpt lat="45.03994" lon="4.40682">
        <ele>1113.2</ele>
        <time>2026-04-30T10:02:30Z</time>
      </trkpt>
      <trkpt lat="45.04001" lon="4.40681">
        <ele>1113.3</ele>
        <time>2026-04-30T10:02:35Z</time>
      </trkpt>
      <trkpt lat="45.04011" lon="4.40678">
        <ele>1113.3</ele>
        <time>2026-04-30T10:02:40Z</time>
      </trkpt>
      <trkpt lat="45.04021" lon="4.40676">
        <ele>1113.3</ele>
        <time>2026-04-30T10:02:45Z</time>
      </trkpt>
      <trkpt lat="45.04027" lon="4.40675">
        <ele>1113.2</ele>
        <time>2026-04-30T10:02:50Z</time>
      </trkpt>
      <trkpt lat="45.04033" lon="4.40674">
        <ele>1113.2</ele>
        <time>2026-04-30T10:02:55Z</time>
      </trkpt>
      <trkpt lat="45.0404" lon="4.40673">
        <ele>1113.2</ele>
        <time>2026-04-30T10:03:00Z</time>
      </trkpt>
      <trkpt lat="45.04048" lon="4.40672">
        <ele>1113.1</ele>
        <time>2026-04-30T10:03:05Z</time>
      </trkpt>
      <trkpt lat="45.04056" lon="4.4067">
        <ele>1113.1</ele>
        <time>2026-04-30T10:03:10Z</time>
      </trkpt>
      <trkpt lat="45.04064" lon="4.40673">
        <ele>1112.9</ele>
        <time>2026-04-30T10:03:15Z</time>
      </trkpt>
      <trkpt lat="45.04071" lon="4.40674">
        <ele>1112.7</ele>
        <time>2026-04-30T10:03:20Z</time>
      </trkpt>
      <trkpt lat="45.04078" lon="4.40674">
        <ele>1112.6</ele>
        <time>2026-04-30T10:03:25Z</time>
      </trkpt>
      <trkpt lat="45.04086" lon="4.40672">
        <ele>1112.6</ele>
        <time>2026-04-30T10:03:30Z</time>
      </trkpt>
      <trkpt lat="45.04091" lon="4.40673">
        <ele>1112.3</ele>
        <time>2026-04-30T10:03:35Z</time>
      </trkpt>
      <trkpt lat="45.04099" lon="4.40673">
        <ele>1111.9</ele>
        <time>2026-04-30T10:03:40Z</time>
      </trkpt>
      <trkpt lat="45.04102" lon="4.40673">
        <ele>1111.7</ele>
        <time>2026-04-30T10:03:45Z</time>
      </trkpt>
      <trkpt lat="45.04104" lon="4.40673">
        <ele>1111.6</ele>
        <time>2026-04-30T10:03:50Z</time>
      </trkpt>
      <trkpt lat="45.04107" lon="4.40674">
        <ele>1111.4</ele>
        <time>2026-04-30T10:03:55Z</time>
      </trkpt>
      <trkpt lat="45.04112" lon="4.40674">
        <ele>1111.2</ele>
        <time>2026-04-30T10:04:00Z</time>
      </trkpt>
      <trkpt lat="45.04119" lon="4.40671">
        <ele>1111</ele>
        <time>2026-04-30T10:04:05Z</time>
      </trkpt>
      <trkpt lat="45.04124" lon="4.40668">
        <ele>1111</ele>
        <time>2026-04-30T10:04:10Z</time>
      </trkpt>
      <trkpt lat="45.0413" lon="4.40667">
        <ele>1110.7</ele>
        <time>2026-04-30T10:04:15Z</time>
      </trkpt>
      <trkpt lat="45.04135" lon="4.40663">
        <ele>1110.6</ele>
        <time>2026-04-30T10:04:20Z</time>
      </trkpt>
      <trkpt lat="45.0414" lon="4.40666">
        <ele>1110.3</ele>
        <time>2026-04-30T10:04:25Z</time>
      </trkpt>
      <trkpt lat="45.0414" lon="4.40666">
        <ele>1110.3</ele>
        <time>2026-04-30T10:04:30Z</time>
      </trkpt>
      <trkpt lat="45.0414" lon="4.40666">
        <ele>1110.3</ele>
        <time>2026-04-30T10:04:35Z</time>
      </trkpt>
      <trkpt lat="45.0414" lon="4.40666">
        <ele>1110.3</ele>
        <time>2026-04-30T10:04:40Z</time>
      </trkpt>
      <trkpt lat="45.0414" lon="4.40666">
        <ele>1110.3</ele>
        <time>2026-04-30T10:04:45Z</time>
      </trkpt>
      <trkpt lat="45.0414" lon="4.40666">
        <ele>1110.3</ele>
        <time>2026-04-30T10:04:50Z</time>
      </trkpt>
      <trkpt lat="45.0414" lon="4.40666">
        <ele>1110.3</ele>
        <time>2026-04-30T10:04:55Z</time>
      </trkpt>
      <trkpt lat="45.0414" lon="4.40666">
        <ele>1110.3</ele>
        <time>2026-04-30T10:05:00Z</time>
      </trkpt>
      <trkpt lat="45.0414" lon="4.40666">
        <ele>1110.3</ele>
        <time>2026-04-30T10:05:05Z</time>
      </trkpt>
      <trkpt lat="45.0414" lon="4.40666">
        <ele>1110.3</ele>
        <time>2026-04-30T10:05:10Z</time>
      </trkpt>
      <trkpt lat="45.0414" lon="4.40666">
        <ele>1110.3</ele>
        <time>2026-04-30T10:05:15Z</time>
      </trkpt>
      <trkpt lat="45.0414" lon="4.40666">
        <ele>1110.3</ele>
        <time>2026-04-30T10:05:20Z</time>
      </trkpt>
      <trkpt lat="45.0414" lon="4.40666">
        <ele>1110.3</ele>
        <time>2026-04-30T10:05:25Z</time>
      </trkpt>
      <trkpt lat="45.0414" lon="4.40666">
        <ele>1110.3</ele>
        <time>2026-04-30T10:05:30Z</time>
      </trkpt>
      <trkpt lat="45.0414" lon="4.40666">
        <ele>1110.3</ele>
        <time>2026-04-30T10:05:35Z</time>
      </trkpt>
      <trkpt lat="45.0414" lon="4.40666">
        <ele>1110.3</ele>
        <time>2026-04-30T10:05:40Z</time>
      </trkpt>
      <trkpt lat="45.04146" lon="4.40662">
        <ele>1110.1</ele>
        <time>2026-04-30T10:05:45Z</time>
      </trkpt>
      <trkpt lat="45.0415" lon="4.40655">
        <ele>1110</ele>
        <time>2026-04-30T10:05:50Z</time>
      </trkpt>
      <trkpt lat="45.04157" lon="4.40652">
        <ele>1109.7</ele>
        <time>2026-04-30T10:05:55Z</time>
      </trkpt>
      <trkpt lat="45.04164" lon="4.40649">
        <ele>1109.3</ele>
        <time>2026-04-30T10:06:00Z</time>
      </trkpt>
      <trkpt lat="45.04171" lon="4.40646">
        <ele>1108.6</ele>
        <time>2026-04-30T10:06:05Z</time>
      </trkpt>
      <trkpt lat="45.0418" lon="4.40644">
        <ele>1107.4</ele>
        <time>2026-04-30T10:06:10Z</time>
      </trkpt>
      <trkpt lat="45.04188" lon="4.40641">
        <ele>1106.3</ele>
        <time>2026-04-30T10:06:15Z</time>
      </trkpt>
      <trkpt lat="45.04194" lon="4.40639">
        <ele>1105.5</ele>
        <time>2026-04-30T10:06:20Z</time>
      </trkpt>
      <trkpt lat="45.04202" lon="4.40636">
        <ele>1104.4</ele>
        <time>2026-04-30T10:06:25Z</time>
      </trkpt>
      <trkpt lat="45.0421" lon="4.40634">
        <ele>1103.4</ele>
        <time>2026-04-30T10:06:30Z</time>
      </trkpt>
      <trkpt lat="45.04216" lon="4.40631">
        <ele>1102.6</ele>
        <time>2026-04-30T10:06:35Z</time>
      </trkpt>
      <trkpt lat="45.04224" lon="4.40627">
        <ele>1101.5</ele>
        <time>2026-04-30T10:06:40Z</time>
      </trkpt>
      <trkpt lat="45.0423" lon="4.40624">
        <ele>1100.8</ele>
        <time>2026-04-30T10:06:45Z</time>
      </trkpt>
      <trkpt lat="45.04237" lon="4.40619">
        <ele>1099.9</ele>
        <time>2026-04-30T10:06:50Z</time>
      </trkpt>
      <trkpt lat="45.04245" lon="4.40616">
        <ele>1098.9</ele>
        <time>2026-04-30T10:06:55Z</time>
      </trkpt>
      <trkpt lat="45.04252" lon="4.40613">
        <ele>1098.3</ele>
        <time>2026-04-30T10:07:00Z</time>
      </trkpt>
      <trkpt lat="45.04258" lon="4.40612">
        <ele>1098.3</ele>
        <time>2026-04-30T10:07:05Z</time>
      </trkpt>
      <trkpt lat="45.04264" lon="4.40607">
        <ele>1098.4</ele>
        <time>2026-04-30T10:07:10Z</time>
      </trkpt>
      <trkpt lat="45.04271" lon="4.40602">
        <ele>1098.6</ele>
        <time>2026-04-30T10:07:15Z</time>
      </trkpt>
      <trkpt lat="45.04277" lon="4.40599">
        <ele>1098.6</ele>
        <time>2026-04-30T10:07:20Z</time>
      </trkpt>
      <trkpt lat="45.04285" lon="4.40598">
        <ele>1098.6</ele>
        <time>2026-04-30T10:07:25Z</time>
      </trkpt>
      <trkpt lat="45.04293" lon="4.40595">
        <ele>1098.7</ele>
        <time>2026-04-30T10:07:30Z</time>
      </trkpt>
      <trkpt lat="45.04299" lon="4.40595">
        <ele>1098.7</ele>
        <time>2026-04-30T10:07:35Z</time>
      </trkpt>
      <trkpt lat="45.04308" lon="4.40593">
        <ele>1098.8</ele>
        <time>2026-04-30T10:07:40Z</time>
      </trkpt>
      <trkpt lat="45.04315" lon="4.4059">
        <ele>1098.8</ele>
        <time>2026-04-30T10:07:45Z</time>
      </trkpt>
      <trkpt lat="45.04321" lon="4.40587">
        <ele>1098.9</ele>
        <time>2026-04-30T10:07:50Z</time>
      </trkpt>
      <trkpt lat="45.04326" lon="4.40584">
        <ele>1099</ele>
        <time>2026-04-30T10:07:55Z</time>
      </trkpt>
      <trkpt lat="45.04333" lon="4.40583">
        <ele>1099</ele>
        <time>2026-04-30T10:08:00Z</time>
      </trkpt>
      <trkpt lat="45.04341" lon="4.40582">
        <ele>1099.2</ele>
        <time>2026-04-30T10:08:05Z</time>
      </trkpt>
      <trkpt lat="45.04347" lon="4.40579">
        <ele>1099.5</ele>
        <time>2026-04-30T10:08:10Z</time>
      </trkpt>
      <trkpt lat="45.04352" lon="4.4058">
        <ele>1099.6</ele>
        <time>2026-04-30T10:08:15Z</time>
      </trkpt>
      <trkpt lat="45.04357" lon="4.40584">
        <ele>1099.5</ele>
        <time>2026-04-30T10:08:20Z</time>
      </trkpt>
      <trkpt lat="45.04363" lon="4.4059">
        <ele>1099.5</ele>
        <time>2026-04-30T10:08:25Z</time>
      </trkpt>
      <trkpt lat="45.04369" lon="4.40594">
        <ele>1099.5</ele>
        <time>2026-04-30T10:08:30Z</time>
      </trkpt>
      <trkpt lat="45.04377" lon="4.40596">
        <ele>1099.7</ele>
        <time>2026-04-30T10:08:35Z</time>
      </trkpt>
      <trkpt lat="45.04385" lon="4.40594">
        <ele>1099.9</ele>
        <time>2026-04-30T10:08:40Z</time>
      </trkpt>
      <trkpt lat="45.0439" lon="4.40589">
        <ele>1100.2</ele>
        <time>2026-04-30T10:08:45Z</time>
      </trkpt>
      <trkpt lat="45.04394" lon="4.40581">
        <ele>1100.6</ele>
        <time>2026-04-30T10:08:50Z</time>
      </trkpt>
      <trkpt lat="45.04397" lon="4.40572">
        <ele>1101.2</ele>
        <time>2026-04-30T10:08:55Z</time>
      </trkpt>
      <trkpt lat="45.04399" lon="4.40567">
        <ele>1101.6</ele>
        <time>2026-04-30T10:09:00Z</time>
      </trkpt>
      <trkpt lat="45.044" lon="4.40566">
        <ele>1101.7</ele>
        <time>2026-04-30T10:09:05Z</time>
      </trkpt>
      <trkpt lat="45.044" lon="4.40566">
        <ele>1101.7</ele>
        <time>2026-04-30T10:09:10Z</time>
      </trkpt>
      <trkpt lat="45.04403" lon="4.40558">
        <ele>1102.3</ele>
        <time>2026-04-30T10:09:15Z</time>
      </trkpt>
      <trkpt lat="45.04406" lon="4.4055">
        <ele>1103</ele>
        <time>2026-04-30T10:09:20Z</time>
      </trkpt>
      <trkpt lat="45.04409" lon="4.4054">
        <ele>1103.8</ele>
        <time>2026-04-30T10:09:25Z</time>
      </trkpt>
      <trkpt lat="45.04413" lon="4.40532">
        <ele>1104.5</ele>
        <time>2026-04-30T10:09:30Z</time>
      </trkpt>
      <trkpt lat="45.04416" lon="4.40522">
        <ele>1105.4</ele>
        <time>2026-04-30T10:09:35Z</time>
      </trkpt>
      <trkpt lat="45.04419" lon="4.40513">
        <ele>1106.1</ele>
        <time>2026-04-30T10:09:40Z</time>
      </trkpt>
      <trkpt lat="45.04423" lon="4.40505">
        <ele>1106.7</ele>
        <time>2026-04-30T10:09:45Z</time>
      </trkpt>
      <trkpt lat="45.04426" lon="4.40496">
        <ele>1107.1</ele>
        <time>2026-04-30T10:09:50Z</time>
      </trkpt>
      <trkpt lat="45.0443" lon="4.40486">
        <ele>1107</ele>
        <time>2026-04-30T10:09:55Z</time>
      </trkpt>
      <trkpt lat="45.04435" lon="4.40478">
        <ele>1107</ele>
        <time>2026-04-30T10:10:00Z</time>
      </trkpt>
      <trkpt lat="45.04438" lon="4.4047">
        <ele>1106.9</ele>
        <time>2026-04-30T10:10:05Z</time>
      </trkpt>
      <trkpt lat="45.0444" lon="4.40458">
        <ele>1106.8</ele>
        <time>2026-04-30T10:10:10Z</time>
      </trkpt>
      <trkpt lat="45.04444" lon="4.40446">
        <ele>1106.7</ele>
        <time>2026-04-30T10:10:15Z</time>
      </trkpt>
      <trkpt lat="45.04446" lon="4.40436">
        <ele>1106.6</ele>
        <time>2026-04-30T10:10:20Z</time>
      </trkpt>
      <trkpt lat="45.04449" lon="4.40426">
        <ele>1106.5</ele>
        <time>2026-04-30T10:10:25Z</time>
      </trkpt>
      <trkpt lat="45.04452" lon="4.40415">
        <ele>1106.3</ele>
        <time>2026-04-30T10:10:30Z</time>
      </trkpt>
      <trkpt lat="45.04453" lon="4.40403">
        <ele>1105.6</ele>
        <time>2026-04-30T10:10:35Z</time>
      </trkpt>
      <trkpt lat="45.04455" lon="4.40393">
        <ele>1105</ele>
        <time>2026-04-30T10:10:40Z</time>
      </trkpt>
      <trkpt lat="45.04459" lon="4.40384">
        <ele>1104.6</ele>
        <time>2026-04-30T10:10:45Z</time>
      </trkpt>
      <trkpt lat="45.04464" lon="4.40374">
        <ele>1104.1</ele>
        <time>2026-04-30T10:10:50Z</time>
      </trkpt>
      <trkpt lat="45.04468" lon="4.40366">
        <ele>1103.7</ele>
        <time>2026-04-30T10:10:55Z</time>
      </trkpt>
      <trkpt lat="45.04472" lon="4.40357">
        <ele>1103.3</ele>
        <time>2026-04-30T10:11:00Z</time>
      </trkpt>
      <trkpt lat="45.04478" lon="4.40349">
        <ele>1103.1</ele>
        <time>2026-04-30T10:11:05Z</time>
      </trkpt>
      <trkpt lat="45.04483" lon="4.4034">
        <ele>1102.7</ele>
        <time>2026-04-30T10:11:10Z</time>
      </trkpt>
      <trkpt lat="45.04488" lon="4.40333">
        <ele>1102.5</ele>
        <time>2026-04-30T10:11:15Z</time>
      </trkpt>
      <trkpt lat="45.04493" lon="4.40325">
        <ele>1102.2</ele>
        <time>2026-04-30T10:11:20Z</time>
      </trkpt>
      <trkpt lat="45.04498" lon="4.40317">
        <ele>1101.9</ele>
        <time>2026-04-30T10:11:25Z</time>
      </trkpt>
      <trkpt lat="45.04503" lon="4.40309">
        <ele>1101.6</ele>
        <time>2026-04-30T10:11:30Z</time>
      </trkpt>
      <trkpt lat="45.04507" lon="4.40299">
        <ele>1101.2</ele>
        <time>2026-04-30T10:11:35Z</time>
      </trkpt>
      <trkpt lat="45.0451" lon="4.40289">
        <ele>1100.7</ele>
        <time>2026-04-30T10:11:40Z</time>
      </trkpt>
      <trkpt lat="45.04513" lon="4.40279">
        <ele>1100.3</ele>
        <time>2026-04-30T10:11:45Z</time>
      </trkpt>
      <trkpt lat="45.04516" lon="4.40269">
        <ele>1099.9</ele>
        <time>2026-04-30T10:11:50Z</time>
      </trkpt>
      <trkpt lat="45.04519" lon="4.40259">
        <ele>1099.6</ele>
        <time>2026-04-30T10:11:55Z</time>
      </trkpt>
      <trkpt lat="45.04522" lon="4.40249">
        <ele>1099.3</ele>
        <time>2026-04-30T10:12:00Z</time>
      </trkpt>
      <trkpt lat="45.04526" lon="4.4024">
        <ele>1098.9</ele>
        <time>2026-04-30T10:12:05Z</time>
      </trkpt>
      <trkpt lat="45.04531" lon="4.4023">
        <ele>1098.6</ele>
        <time>2026-04-30T10:12:10Z</time>
      </trkpt>
      <trkpt lat="45.04534" lon="4.40221">
        <ele>1098.2</ele>
        <time>2026-04-30T10:12:15Z</time>
      </trkpt>
      <trkpt lat="45.04538" lon="4.40212">
        <ele>1098</ele>
        <time>2026-04-30T10:12:20Z</time>
      </trkpt>
      <trkpt lat="45.04542" lon="4.40202">
        <ele>1097.6</ele>
        <time>2026-04-30T10:12:25Z</time>
      </trkpt>
      <trkpt lat="45.04545" lon="4.40193">
        <ele>1097.3</ele>
        <time>2026-04-30T10:12:30Z</time>
      </trkpt>
      <trkpt lat="45.04548" lon="4.40184">
        <ele>1097</ele>
        <time>2026-04-30T10:12:35Z</time>
      </trkpt>
      <trkpt lat="45.04552" lon="4.40174">
        <ele>1096.8</ele>
        <time>2026-04-30T10:12:40Z</time>
      </trkpt>
      <trkpt lat="45.04557" lon="4.40166">
        <ele>1096.7</ele>
        <time>2026-04-30T10:12:45Z</time>
      </trkpt>
      <trkpt lat="45.04561" lon="4.40158">
        <ele>1096.6</ele>
        <time>2026-04-30T10:12:50Z</time>
      </trkpt>
      <trkpt lat="45.04566" lon="4.40149">
        <ele>1096.4</ele>
        <time>2026-04-30T10:12:55Z</time>
      </trkpt>
      <trkpt lat="45.04571" lon="4.4014">
        <ele>1096.2</ele>
        <time>2026-04-30T10:13:00Z</time>
      </trkpt>
      <trkpt lat="45.04576" lon="4.40132">
        <ele>1096</ele>
        <time>2026-04-30T10:13:05Z</time>
      </trkpt>
      <trkpt lat="45.04582" lon="4.40123">
        <ele>1095.8</ele>
        <time>2026-04-30T10:13:10Z</time>
      </trkpt>
      <trkpt lat="45.04587" lon="4.40115">
        <ele>1095.4</ele>
        <time>2026-04-30T10:13:15Z</time>
      </trkpt>
      <trkpt lat="45.04592" lon="4.40108">
        <ele>1095.1</ele>
        <time>2026-04-30T10:13:20Z</time>
      </trkpt>
      <trkpt lat="45.04596" lon="4.40102">
        <ele>1094.9</ele>
        <time>2026-04-30T10:13:25Z</time>
      </trkpt>
      <trkpt lat="45.04601" lon="4.40095">
        <ele>1094.7</ele>
        <time>2026-04-30T10:13:30Z</time>
      </trkpt>
      <trkpt lat="45.04604" lon="4.40089">
        <ele>1094.5</ele>
        <time>2026-04-30T10:13:35Z</time>
      </trkpt>
      <trkpt lat="45.04605" lon="4.4009">
        <ele>1094.6</ele>
        <time>2026-04-30T10:13:40Z</time>
      </trkpt>
      <trkpt lat="45.04605" lon="4.4009">
        <ele>1094.6</ele>
        <time>2026-04-30T10:13:45Z</time>
      </trkpt>
      <trkpt lat="45.04606" lon="4.40083">
        <ele>1094.3</ele>
        <time>2026-04-30T10:13:50Z</time>
      </trkpt>
      <trkpt lat="45.0461" lon="4.40078">
        <ele>1094.2</ele>
        <time>2026-04-30T10:13:55Z</time>
      </trkpt>
      <trkpt lat="45.04612" lon="4.40071">
        <ele>1093.9</ele>
        <time>2026-04-30T10:14:00Z</time>
      </trkpt>
      <trkpt lat="45.04615" lon="4.40065">
        <ele>1093.8</ele>
        <time>2026-04-30T10:14:05Z</time>
      </trkpt>
      <trkpt lat="45.04618" lon="4.40058">
        <ele>1093.6</ele>
        <time>2026-04-30T10:14:10Z</time>
      </trkpt>
      <trkpt lat="45.04623" lon="4.40054">
        <ele>1093.9</ele>
        <time>2026-04-30T10:14:15Z</time>
      </trkpt>
      <trkpt lat="45.04623" lon="4.40054">
        <ele>1093.9</ele>
        <time>2026-04-30T10:14:20Z</time>
      </trkpt>
      <trkpt lat="45.04623" lon="4.40054">
        <ele>1093.9</ele>
        <time>2026-04-30T10:14:25Z</time>
      </trkpt>
      <trkpt lat="45.04623" lon="4.40054">
        <ele>1093.9</ele>
        <time>2026-04-30T10:14:30Z</time>
      </trkpt>
      <trkpt lat="45.04624" lon="4.4005">
        <ele>1093.8</ele>
        <time>2026-04-30T10:14:35Z</time>
      </trkpt>
      <trkpt lat="45.04627" lon="4.40044">
        <ele>1093.8</ele>
        <time>2026-04-30T10:14:40Z</time>
      </trkpt>
      <trkpt lat="45.04634" lon="4.40035">
        <ele>1094.3</ele>
        <time>2026-04-30T10:14:45Z</time>
      </trkpt>
      <trkpt lat="45.04637" lon="4.40029">
        <ele>1094.6</ele>
        <time>2026-04-30T10:14:50Z</time>
      </trkpt>
      <trkpt lat="45.04641" lon="4.40023">
        <ele>1095</ele>
        <time>2026-04-30T10:14:55Z</time>
      </trkpt>
      <trkpt lat="45.04645" lon="4.40016">
        <ele>1095.4</ele>
        <time>2026-04-30T10:15:00Z</time>
      </trkpt>
      <trkpt lat="45.04649" lon="4.4001">
        <ele>1096</ele>
        <time>2026-04-30T10:15:05Z</time>
      </trkpt>
      <trkpt lat="45.04652" lon="4.40004">
        <ele>1096.4</ele>
        <time>2026-04-30T10:15:10Z</time>
      </trkpt>
      <trkpt lat="45.04656" lon="4.39996">
        <ele>1096.9</ele>
        <time>2026-04-30T10:15:15Z</time>
      </trkpt>
      <trkpt lat="45.04661" lon="4.3999">
        <ele>1097.5</ele>
        <time>2026-04-30T10:15:20Z</time>
      </trkpt>
      <trkpt lat="45.04666" lon="4.39983">
        <ele>1098.1</ele>
        <time>2026-04-30T10:15:25Z</time>
      </trkpt>
      <trkpt lat="45.04671" lon="4.39976">
        <ele>1098.1</ele>
        <time>2026-04-30T10:15:30Z</time>
      </trkpt>
      <trkpt lat="45.04675" lon="4.39969">
        <ele>1098</ele>
        <time>2026-04-30T10:15:35Z</time>
      </trkpt>
      <trkpt lat="45.04679" lon="4.39962">
        <ele>1098.1</ele>
        <time>2026-04-30T10:15:40Z</time>
      </trkpt>
      <trkpt lat="45.04684" lon="4.39954">
        <ele>1098.2</ele>
        <time>2026-04-30T10:15:45Z</time>
      </trkpt>
      <trkpt lat="45.04688" lon="4.39946">
        <ele>1098.4</ele>
        <time>2026-04-30T10:15:50Z</time>
      </trkpt>
      <trkpt lat="45.04692" lon="4.39938">
        <ele>1098.7</ele>
        <time>2026-04-30T10:15:55Z</time>
      </trkpt>
      <trkpt lat="45.04697" lon="4.39933">
        <ele>1099.1</ele>
        <time>2026-04-30T10:16:00Z</time>
      </trkpt>
      <trkpt lat="45.04697" lon="4.3993">
        <ele>1099.1</ele>
        <time>2026-04-30T10:16:05Z</time>
      </trkpt>
      <trkpt lat="45.04697" lon="4.3993">
        <ele>1099.1</ele>
        <time>2026-04-30T10:16:10Z</time>
      </trkpt>
      <trkpt lat="45.04697" lon="4.3993">
        <ele>1099.1</ele>
        <time>2026-04-30T10:16:15Z</time>
      </trkpt>
      <trkpt lat="45.04697" lon="4.3993">
        <ele>1099.1</ele>
        <time>2026-04-30T10:16:20Z</time>
      </trkpt>
      <trkpt lat="45.04697" lon="4.3993">
        <ele>1099.1</ele>
        <time>2026-04-30T10:16:25Z</time>
      </trkpt>
      <trkpt lat="45.04697" lon="4.3993">
        <ele>1099.1</ele>
        <time>2026-04-30T10:16:30Z</time>
      </trkpt>
      <trkpt lat="45.04698" lon="4.39924">
        <ele>1099.2</ele>
        <time>2026-04-30T10:16:35Z</time>
      </trkpt>
      <trkpt lat="45.04708" lon="4.39918">
        <ele>1100.4</ele>
        <time>2026-04-30T10:16:40Z</time>
      </trkpt>
      <trkpt lat="45.04708" lon="4.39918">
        <ele>1100.4</ele>
        <time>2026-04-30T10:16:45Z</time>
      </trkpt>
      <trkpt lat="45.04708" lon="4.39918">
        <ele>1100.4</ele>
        <time>2026-04-30T10:16:50Z</time>
      </trkpt>
      <trkpt lat="45.04708" lon="4.39918">
        <ele>1100.4</ele>
        <time>2026-04-30T10:16:55Z</time>
      </trkpt>
      <trkpt lat="45.04708" lon="4.39918">
        <ele>1100.4</ele>
        <time>2026-04-30T10:17:00Z</time>
      </trkpt>
      <trkpt lat="45.04708" lon="4.39918">
        <ele>1100.4</ele>
        <time>2026-04-30T10:17:05Z</time>
      </trkpt>
      <trkpt lat="45.04708" lon="4.39918">
        <ele>1100.4</ele>
        <time>2026-04-30T10:17:10Z</time>
      </trkpt>
      <trkpt lat="45.04709" lon="4.39913">
        <ele>1100.5</ele>
        <time>2026-04-30T10:17:15Z</time>
      </trkpt>
      <trkpt lat="45.04714" lon="4.39907">
        <ele>1101.1</ele>
        <time>2026-04-30T10:17:20Z</time>
      </trkpt>
      <trkpt lat="45.04719" lon="4.39899">
        <ele>1101.6</ele>
        <time>2026-04-30T10:17:25Z</time>
      </trkpt>
      <trkpt lat="45.04724" lon="4.39893">
        <ele>1102.2</ele>
        <time>2026-04-30T10:17:30Z</time>
      </trkpt>
      <trkpt lat="45.04731" lon="4.39885">
        <ele>1103</ele>
        <time>2026-04-30T10:17:35Z</time>
      </trkpt>
      <trkpt lat="45.04735" lon="4.39876">
        <ele>1103.4</ele>
        <time>2026-04-30T10:17:40Z</time>
      </trkpt>
      <trkpt lat="45.04741" lon="4.39869">
        <ele>1104.2</ele>
        <time>2026-04-30T10:17:45Z</time>
      </trkpt>
      <trkpt lat="45.04745" lon="4.3986">
        <ele>1104.6</ele>
        <time>2026-04-30T10:17:50Z</time>
      </trkpt>
      <trkpt lat="45.04748" lon="4.39851">
        <ele>1104.9</ele>
        <time>2026-04-30T10:17:55Z</time>
      </trkpt>
      <trkpt lat="45.04754" lon="4.39842">
        <ele>1105.1</ele>
        <time>2026-04-30T10:18:00Z</time>
      </trkpt>
      <trkpt lat="45.04759" lon="4.39834">
        <ele>1105.1</ele>
        <time>2026-04-30T10:18:05Z</time>
      </trkpt>
      <trkpt lat="45.04764" lon="4.39827">
        <ele>1104.9</ele>
        <time>2026-04-30T10:18:10Z</time>
      </trkpt>
      <trkpt lat="45.04769" lon="4.39821">
        <ele>1104.8</ele>
        <time>2026-04-30T10:18:15Z</time>
      </trkpt>
      <trkpt lat="45.04774" lon="4.39812">
        <ele>1104.6</ele>
        <time>2026-04-30T10:18:20Z</time>
      </trkpt>
      <trkpt lat="45.0478" lon="4.39804">
        <ele>1104.6</ele>
        <time>2026-04-30T10:18:25Z</time>
      </trkpt>
      <trkpt lat="45.04784" lon="4.39795">
        <ele>1104.5</ele>
        <time>2026-04-30T10:18:30Z</time>
      </trkpt>
      <trkpt lat="45.04786" lon="4.39788">
        <ele>1104.4</ele>
        <time>2026-04-30T10:18:35Z</time>
      </trkpt>
      <trkpt lat="45.04789" lon="4.39779">
        <ele>1104.4</ele>
        <time>2026-04-30T10:18:40Z</time>
      </trkpt>
      <trkpt lat="45.04793" lon="4.39773">
        <ele>1104.5</ele>
        <time>2026-04-30T10:18:45Z</time>
      </trkpt>
      <trkpt lat="45.04797" lon="4.39765">
        <ele>1104.6</ele>
        <time>2026-04-30T10:18:50Z</time>
      </trkpt>
      <trkpt lat="45.04801" lon="4.39757">
        <ele>1104.8</ele>
        <time>2026-04-30T10:18:55Z</time>
      </trkpt>
      <trkpt lat="45.04805" lon="4.39749">
        <ele>1104.9</ele>
        <time>2026-04-30T10:19:00Z</time>
      </trkpt>
      <trkpt lat="45.04809" lon="4.3974">
        <ele>1104.7</ele>
        <time>2026-04-30T10:19:05Z</time>
      </trkpt>
      <trkpt lat="45.04813" lon="4.39732">
        <ele>1104.6</ele>
        <time>2026-04-30T10:19:10Z</time>
      </trkpt>
      <trkpt lat="45.04816" lon="4.39723">
        <ele>1104.3</ele>
        <time>2026-04-30T10:19:15Z</time>
      </trkpt>
      <trkpt lat="45.04819" lon="4.39713">
        <ele>1103.9</ele>
        <time>2026-04-30T10:19:20Z</time>
      </trkpt>
      <trkpt lat="45.0482" lon="4.39703">
        <ele>1103.4</ele>
        <time>2026-04-30T10:19:25Z</time>
      </trkpt>
      <trkpt lat="45.0482" lon="4.39693">
        <ele>1102.8</ele>
        <time>2026-04-30T10:19:30Z</time>
      </trkpt>
      <trkpt lat="45.04823" lon="4.39685">
        <ele>1102.5</ele>
        <time>2026-04-30T10:19:35Z</time>
      </trkpt>
      <trkpt lat="45.04827" lon="4.39677">
        <ele>1102.3</ele>
        <time>2026-04-30T10:19:40Z</time>
      </trkpt>
      <trkpt lat="45.04829" lon="4.39669">
        <ele>1101.9</ele>
        <time>2026-04-30T10:19:45Z</time>
      </trkpt>
      <trkpt lat="45.04831" lon="4.39659">
        <ele>1101.6</ele>
        <time>2026-04-30T10:19:50Z</time>
      </trkpt>
      <trkpt lat="45.04833" lon="4.39647">
        <ele>1101.3</ele>
        <time>2026-04-30T10:19:55Z</time>
      </trkpt>
      <trkpt lat="45.04835" lon="4.3964">
        <ele>1101</ele>
        <time>2026-04-30T10:20:00Z</time>
      </trkpt>
      <trkpt lat="45.04837" lon="4.39629">
        <ele>1100.6</ele>
        <time>2026-04-30T10:20:05Z</time>
      </trkpt>
      <trkpt lat="45.0484" lon="4.39619">
        <ele>1100.1</ele>
        <time>2026-04-30T10:20:10Z</time>
      </trkpt>
      <trkpt lat="45.04839" lon="4.39607">
        <ele>1099.7</ele>
        <time>2026-04-30T10:20:15Z</time>
      </trkpt>
      <trkpt lat="45.04841" lon="4.39596">
        <ele>1099.3</ele>
        <time>2026-04-30T10:20:20Z</time>
      </trkpt>
      <trkpt lat="45.04844" lon="4.39585">
        <ele>1098.9</ele>
        <time>2026-04-30T10:20:25Z</time>
      </trkpt>
      <trkpt lat="45.04845" lon="4.39577">
        <ele>1098.4</ele>
        <time>2026-04-30T10:20:30Z</time>
      </trkpt>
      <trkpt lat="45.04844" lon="4.39569">
        <ele>1097.9</ele>
        <time>2026-04-30T10:20:35Z</time>
      </trkpt>
      <trkpt lat="45.04843" lon="4.39561">
        <ele>1097.3</ele>
        <time>2026-04-30T10:20:40Z</time>
      </trkpt>
      <trkpt lat="45.04842" lon="4.39552">
        <ele>1096.7</ele>
        <time>2026-04-30T10:20:45Z</time>
      </trkpt>
      <trkpt lat="45.04841" lon="4.39542">
        <ele>1096</ele>
        <time>2026-04-30T10:20:50Z</time>
      </trkpt>
      <trkpt lat="45.04841" lon="4.39533">
        <ele>1095.4</ele>
        <time>2026-04-30T10:20:55Z</time>
      </trkpt>
      <trkpt lat="45.04843" lon="4.39522">
        <ele>1094.6</ele>
        <time>2026-04-30T10:21:00Z</time>
      </trkpt>
      <trkpt lat="45.04847" lon="4.39512">
        <ele>1094</ele>
        <time>2026-04-30T10:21:05Z</time>
      </trkpt>
      <trkpt lat="45.04846" lon="4.39506">
        <ele>1093.6</ele>
        <time>2026-04-30T10:21:10Z</time>
      </trkpt>
      <trkpt lat="45.04849" lon="4.395">
        <ele>1093.2</ele>
        <time>2026-04-30T10:21:15Z</time>
      </trkpt>
      <trkpt lat="45.04852" lon="4.39496">
        <ele>1092.7</ele>
        <time>2026-04-30T10:21:20Z</time>
      </trkpt>
      <trkpt lat="45.04852" lon="4.39487">
        <ele>1091.6</ele>
        <time>2026-04-30T10:21:25Z</time>
      </trkpt>
      <trkpt lat="45.04852" lon="4.39478">
        <ele>1090.4</ele>
        <time>2026-04-30T10:21:30Z</time>
      </trkpt>
      <trkpt lat="45.04853" lon="4.39467">
        <ele>1089.1</ele>
        <time>2026-04-30T10:21:35Z</time>
      </trkpt>
      <trkpt lat="45.04854" lon="4.39458">
        <ele>1088</ele>
        <time>2026-04-30T10:21:40Z</time>
      </trkpt>
      <trkpt lat="45.0485" lon="4.39451">
        <ele>1087</ele>
        <time>2026-04-30T10:21:45Z</time>
      </trkpt>
      <trkpt lat="45.04848" lon="4.39443">
        <ele>1085.9</ele>
        <time>2026-04-30T10:21:50Z</time>
      </trkpt>
      <trkpt lat="45.04845" lon="4.39433">
        <ele>1084.5</ele>
        <time>2026-04-30T10:21:55Z</time>
      </trkpt>
      <trkpt lat="45.04841" lon="4.39427">
        <ele>1083.6</ele>
        <time>2026-04-30T10:22:00Z</time>
      </trkpt>
      <trkpt lat="45.04837" lon="4.39424">
        <ele>1083.1</ele>
        <time>2026-04-30T10:22:05Z</time>
      </trkpt>
      <trkpt lat="45.04837" lon="4.39424">
        <ele>1083.1</ele>
        <time>2026-04-30T10:22:10Z</time>
      </trkpt>
      <trkpt lat="45.04837" lon="4.39424">
        <ele>1083.1</ele>
        <time>2026-04-30T10:22:15Z</time>
      </trkpt>
      <trkpt lat="45.04837" lon="4.39424">
        <ele>1083.1</ele>
        <time>2026-04-30T10:22:20Z</time>
      </trkpt>
      <trkpt lat="45.04837" lon="4.39424">
        <ele>1083.1</ele>
        <time>2026-04-30T10:22:25Z</time>
      </trkpt>
      <trkpt lat="45.04837" lon="4.39424">
        <ele>1083.1</ele>
        <time>2026-04-30T10:22:30Z</time>
      </trkpt>
      <trkpt lat="45.04841" lon="4.39429">
        <ele>1083.9</ele>
        <time>2026-04-30T10:22:35Z</time>
      </trkpt>
      <trkpt lat="45.04848" lon="4.39431">
        <ele>1084.4</ele>
        <time>2026-04-30T10:22:40Z</time>
      </trkpt>
      <trkpt lat="45.04852" lon="4.39429">
        <ele>1084.2</ele>
        <time>2026-04-30T10:22:45Z</time>
      </trkpt>
      <trkpt lat="45.04861" lon="4.39426">
        <ele>1084.2</ele>
        <time>2026-04-30T10:22:50Z</time>
      </trkpt>
      <trkpt lat="45.04863" lon="4.39422">
        <ele>1083.7</ele>
        <time>2026-04-30T10:22:55Z</time>
      </trkpt>
      <trkpt lat="45.04864" lon="4.39421">
        <ele>1083.6</ele>
        <time>2026-04-30T10:23:00Z</time>
      </trkpt>
      <trkpt lat="45.04867" lon="4.39424">
        <ele>1084.1</ele>
        <time>2026-04-30T10:23:05Z</time>
      </trkpt>
      <trkpt lat="45.04871" lon="4.39427">
        <ele>1084.6</ele>
        <time>2026-04-30T10:23:10Z</time>
      </trkpt>
      <trkpt lat="45.04876" lon="4.39427">
        <ele>1084.8</ele>
        <time>2026-04-30T10:23:15Z</time>
      </trkpt>
      <trkpt lat="45.04883" lon="4.39425">
        <ele>1084.8</ele>
        <time>2026-04-30T10:23:20Z</time>
      </trkpt>
      <trkpt lat="45.04891" lon="4.39419">
        <ele>1084.3</ele>
        <time>2026-04-30T10:23:25Z</time>
      </trkpt>
      <trkpt lat="45.04896" lon="4.39417">
        <ele>1084.3</ele>
        <time>2026-04-30T10:23:30Z</time>
      </trkpt>
      <trkpt lat="45.049" lon="4.39418">
        <ele>1084.6</ele>
        <time>2026-04-30T10:23:35Z</time>
      </trkpt>
      <trkpt lat="45.04904" lon="4.39423">
        <ele>1085.3</ele>
        <time>2026-04-30T10:23:40Z</time>
      </trkpt>
      <trkpt lat="45.04907" lon="4.39424">
        <ele>1085.5</ele>
        <time>2026-04-30T10:23:45Z</time>
      </trkpt>
      <trkpt lat="45.04914" lon="4.39424">
        <ele>1085.7</ele>
        <time>2026-04-30T10:23:50Z</time>
      </trkpt>
      <trkpt lat="45.0492" lon="4.39426">
        <ele>1085.9</ele>
        <time>2026-04-30T10:23:55Z</time>
      </trkpt>
      <trkpt lat="45.04925" lon="4.39419">
        <ele>1085</ele>
        <time>2026-04-30T10:24:00Z</time>
      </trkpt>
      <trkpt lat="45.04929" lon="4.39414">
        <ele>1084.3</ele>
        <time>2026-04-30T10:24:05Z</time>
      </trkpt>
      <trkpt lat="45.04932" lon="4.3941">
        <ele>1083.7</ele>
        <time>2026-04-30T10:24:10Z</time>
      </trkpt>
      <trkpt lat="45.04937" lon="4.39405">
        <ele>1082.9</ele>
        <time>2026-04-30T10:24:15Z</time>
      </trkpt>
      <trkpt lat="45.04945" lon="4.394">
        <ele>1082.1</ele>
        <time>2026-04-30T10:24:20Z</time>
      </trkpt>
      <trkpt lat="45.04949" lon="4.39398">
        <ele>1081.7</ele>
        <time>2026-04-30T10:24:25Z</time>
      </trkpt>
      <trkpt lat="45.04951" lon="4.39398">
        <ele>1081.7</ele>
        <time>2026-04-30T10:24:30Z</time>
      </trkpt>
      <trkpt lat="45.04953" lon="4.39395">
        <ele>1081.2</ele>
        <time>2026-04-30T10:24:35Z</time>
      </trkpt>
      <trkpt lat="45.04953" lon="4.3939">
        <ele>1080.6</ele>
        <time>2026-04-30T10:24:40Z</time>
      </trkpt>
      <trkpt lat="45.04953" lon="4.3939">
        <ele>1080.6</ele>
        <time>2026-04-30T10:24:45Z</time>
      </trkpt>
      <trkpt lat="45.04953" lon="4.3939">
        <ele>1080.6</ele>
        <time>2026-04-30T10:24:50Z</time>
      </trkpt>
      <trkpt lat="45.04953" lon="4.3939">
        <ele>1080.6</ele>
        <time>2026-04-30T10:24:55Z</time>
      </trkpt>
      <trkpt lat="45.04953" lon="4.3939">
        <ele>1080.6</ele>
        <time>2026-04-30T10:25:00Z</time>
      </trkpt>
      <trkpt lat="45.04953" lon="4.3939">
        <ele>1080.6</ele>
        <time>2026-04-30T10:25:05Z</time>
      </trkpt>
      <trkpt lat="45.04953" lon="4.3939">
        <ele>1080.6</ele>
        <time>2026-04-30T10:25:10Z</time>
      </trkpt>
      <trkpt lat="45.04953" lon="4.3939">
        <ele>1080.6</ele>
        <time>2026-04-30T10:25:15Z</time>
      </trkpt>
      <trkpt lat="45.04953" lon="4.3939">
        <ele>1080.6</ele>
        <time>2026-04-30T10:25:20Z</time>
      </trkpt>
      <trkpt lat="45.04953" lon="4.3939">
        <ele>1080.6</ele>
        <time>2026-04-30T10:25:25Z</time>
      </trkpt>
      <trkpt lat="45.04953" lon="4.39402">
        <ele>1082.2</ele>
        <time>2026-04-30T10:25:30Z</time>
      </trkpt>
      <trkpt lat="45.04955" lon="4.39409">
        <ele>1083.1</ele>
        <time>2026-04-30T10:25:35Z</time>
      </trkpt>
      <trkpt lat="45.04958" lon="4.39417">
        <ele>1084</ele>
        <time>2026-04-30T10:25:40Z</time>
      </trkpt>
      <trkpt lat="45.04962" lon="4.39423">
        <ele>1084.4</ele>
        <time>2026-04-30T10:25:45Z</time>
      </trkpt>
      <trkpt lat="45.04964" lon="4.39428">
        <ele>1084.7</ele>
        <time>2026-04-30T10:25:50Z</time>
      </trkpt>
      <trkpt lat="45.04965" lon="4.39429">
        <ele>1084.7</ele>
        <time>2026-04-30T10:25:55Z</time>
      </trkpt>
      <trkpt lat="45.04966" lon="4.39429">
        <ele>1084.7</ele>
        <time>2026-04-30T10:26:00Z</time>
      </trkpt>
      <trkpt lat="45.04966" lon="4.39429">
        <ele>1084.7</ele>
        <time>2026-04-30T10:26:05Z</time>
      </trkpt>
      <trkpt lat="45.04966" lon="4.39429">
        <ele>1084.7</ele>
        <time>2026-04-30T10:26:10Z</time>
      </trkpt>
      <trkpt lat="45.04966" lon="4.39429">
        <ele>1084.7</ele>
        <time>2026-04-30T10:26:15Z</time>
      </trkpt>
      <trkpt lat="45.04966" lon="4.39429">
        <ele>1084.7</ele>
        <time>2026-04-30T10:26:20Z</time>
      </trkpt>
      <trkpt lat="45.04966" lon="4.39426">
        <ele>1084.5</ele>
        <time>2026-04-30T10:26:25Z</time>
      </trkpt>
      <trkpt lat="45.04964" lon="4.39426">
        <ele>1084.6</ele>
        <time>2026-04-30T10:26:30Z</time>
      </trkpt>
      <trkpt lat="45.04962" lon="4.39429">
        <ele>1084.8</ele>
        <time>2026-04-30T10:26:35Z</time>
      </trkpt>
      <trkpt lat="45.04961" lon="4.39436">
        <ele>1085.4</ele>
        <time>2026-04-30T10:26:40Z</time>
      </trkpt>
      <trkpt lat="45.04962" lon="4.39443">
        <ele>1085.9</ele>
        <time>2026-04-30T10:26:45Z</time>
      </trkpt>
      <trkpt lat="45.04962" lon="4.39452">
        <ele>1086.6</ele>
        <time>2026-04-30T10:26:50Z</time>
      </trkpt>
      <trkpt lat="45.04961" lon="4.39461">
        <ele>1087.3</ele>
        <time>2026-04-30T10:26:55Z</time>
      </trkpt>
      <trkpt lat="45.04964" lon="4.39472">
        <ele>1088</ele>
        <time>2026-04-30T10:27:00Z</time>
      </trkpt>
      <trkpt lat="45.04962" lon="4.39481">
        <ele>1088.8</ele>
        <time>2026-04-30T10:27:05Z</time>
      </trkpt>
      <trkpt lat="45.04961" lon="4.39487">
        <ele>1089.3</ele>
        <time>2026-04-30T10:27:10Z</time>
      </trkpt>
      <trkpt lat="45.0496" lon="4.39496">
        <ele>1090.1</ele>
        <time>2026-04-30T10:27:15Z</time>
      </trkpt>
      <trkpt lat="45.04959" lon="4.39505">
        <ele>1090.6</ele>
        <time>2026-04-30T10:27:20Z</time>
      </trkpt>
      <trkpt lat="45.04961" lon="4.39511">
        <ele>1090.6</ele>
        <time>2026-04-30T10:27:25Z</time>
      </trkpt>
      <trkpt lat="45.04961" lon="4.39517">
        <ele>1090.8</ele>
        <time>2026-04-30T10:27:30Z</time>
      </trkpt>
      <trkpt lat="45.04957" lon="4.39522">
        <ele>1091.3</ele>
        <time>2026-04-30T10:27:35Z</time>
      </trkpt>
      <trkpt lat="45.04952" lon="4.39528">
        <ele>1091.9</ele>
        <time>2026-04-30T10:27:40Z</time>
      </trkpt>
      <trkpt lat="45.04954" lon="4.39534">
        <ele>1091.9</ele>
        <time>2026-04-30T10:27:45Z</time>
      </trkpt>
      <trkpt lat="45.04952" lon="4.39543">
        <ele>1092.4</ele>
        <time>2026-04-30T10:27:50Z</time>
      </trkpt>
      <trkpt lat="45.04951" lon="4.39554">
        <ele>1092.9</ele>
        <time>2026-04-30T10:27:55Z</time>
      </trkpt>
      <trkpt lat="45.04953" lon="4.39566">
        <ele>1093.1</ele>
        <time>2026-04-30T10:28:00Z</time>
      </trkpt>
      <trkpt lat="45.04952" lon="4.39577">
        <ele>1093.6</ele>
        <time>2026-04-30T10:28:05Z</time>
      </trkpt>
      <trkpt lat="45.04951" lon="4.39583">
        <ele>1093.9</ele>
        <time>2026-04-30T10:28:10Z</time>
      </trkpt>
      <trkpt lat="45.04948" lon="4.39592">
        <ele>1094.3</ele>
        <time>2026-04-30T10:28:15Z</time>
      </trkpt>
      <trkpt lat="45.04949" lon="4.39602">
        <ele>1094.3</ele>
        <time>2026-04-30T10:28:20Z</time>
      </trkpt>
      <trkpt lat="45.0495" lon="4.39612">
        <ele>1094.2</ele>
        <time>2026-04-30T10:28:25Z</time>
      </trkpt>
      <trkpt lat="45.04949" lon="4.39623">
        <ele>1094.4</ele>
        <time>2026-04-30T10:28:30Z</time>
      </trkpt>
      <trkpt lat="45.04949" lon="4.39633">
        <ele>1094.5</ele>
        <time>2026-04-30T10:28:35Z</time>
      </trkpt>
      <trkpt lat="45.0495" lon="4.39648">
        <ele>1094.5</ele>
        <time>2026-04-30T10:28:40Z</time>
      </trkpt>
      <trkpt lat="45.04953" lon="4.3966">
        <ele>1094.2</ele>
        <time>2026-04-30T10:28:45Z</time>
      </trkpt>
      <trkpt lat="45.04959" lon="4.39665">
        <ele>1093.4</ele>
        <time>2026-04-30T10:28:50Z</time>
      </trkpt>
      <trkpt lat="45.04962" lon="4.39669">
        <ele>1093</ele>
        <time>2026-04-30T10:28:55Z</time>
      </trkpt>
      <trkpt lat="45.04967" lon="4.39674">
        <ele>1092.3</ele>
        <time>2026-04-30T10:29:00Z</time>
      </trkpt>
      <trkpt lat="45.04972" lon="4.39677">
        <ele>1091.6</ele>
        <time>2026-04-30T10:29:05Z</time>
      </trkpt>
      <trkpt lat="45.04979" lon="4.39682">
        <ele>1090.6</ele>
        <time>2026-04-30T10:29:10Z</time>
      </trkpt>
      <trkpt lat="45.04987" lon="4.39685">
        <ele>1089.4</ele>
        <time>2026-04-30T10:29:15Z</time>
      </trkpt>
      <trkpt lat="45.04994" lon="4.39687">
        <ele>1088.4</ele>
        <time>2026-04-30T10:29:20Z</time>
      </trkpt>
      <trkpt lat="45.05003" lon="4.39686">
        <ele>1087.3</ele>
        <time>2026-04-30T10:29:25Z</time>
      </trkpt>
      <trkpt lat="45.05009" lon="4.39683">
        <ele>1086.8</ele>
        <time>2026-04-30T10:29:30Z</time>
      </trkpt>
      <trkpt lat="45.05016" lon="4.39677">
        <ele>1086.2</ele>
        <time>2026-04-30T10:29:35Z</time>
      </trkpt>
      <trkpt lat="45.05022" lon="4.39671">
        <ele>1085.6</ele>
        <time>2026-04-30T10:29:40Z</time>
      </trkpt>
      <trkpt lat="45.0503" lon="4.39668">
        <ele>1084.8</ele>
        <time>2026-04-30T10:29:45Z</time>
      </trkpt>
      <trkpt lat="45.05038" lon="4.39662">
        <ele>1083.8</ele>
        <time>2026-04-30T10:29:50Z</time>
      </trkpt>
      <trkpt lat="45.05045" lon="4.39655">
        <ele>1082.9</ele>
        <time>2026-04-30T10:29:55Z</time>
      </trkpt>
      <trkpt lat="45.0505" lon="4.39649">
        <ele>1082.2</ele>
        <time>2026-04-30T10:30:00Z</time>
      </trkpt>
      <trkpt lat="45.05055" lon="4.39644">
        <ele>1081.5</ele>
        <time>2026-04-30T10:30:05Z</time>
      </trkpt>
      <trkpt lat="45.05063" lon="4.39637">
        <ele>1080.4</ele>
        <time>2026-04-30T10:30:10Z</time>
      </trkpt>
      <trkpt lat="45.05068" lon="4.39632">
        <ele>1079.6</ele>
        <time>2026-04-30T10:30:15Z</time>
      </trkpt>
      <trkpt lat="45.05076" lon="4.39631">
        <ele>1078.6</ele>
        <time>2026-04-30T10:30:20Z</time>
      </trkpt>
      <trkpt lat="45.05082" lon="4.39627">
        <ele>1077.7</ele>
        <time>2026-04-30T10:30:25Z</time>
      </trkpt>
      <trkpt lat="45.05087" lon="4.39622">
        <ele>1077.4</ele>
        <time>2026-04-30T10:30:30Z</time>
      </trkpt>
      <trkpt lat="45.05093" lon="4.39616">
        <ele>1077.2</ele>
        <time>2026-04-30T10:30:35Z</time>
      </trkpt>
      <trkpt lat="45.05097" lon="4.39608">
        <ele>1076.9</ele>
        <time>2026-04-30T10:30:40Z</time>
      </trkpt>
      <trkpt lat="45.05103" lon="4.39603">
        <ele>1076.7</ele>
        <time>2026-04-30T10:30:45Z</time>
      </trkpt>
      <trkpt lat="45.05106" lon="4.39601">
        <ele>1076.6</ele>
        <time>2026-04-30T10:30:50Z</time>
      </trkpt>
      <trkpt lat="45.05112" lon="4.39595">
        <ele>1076.3</ele>
        <time>2026-04-30T10:30:55Z</time>
      </trkpt>
      <trkpt lat="45.05117" lon="4.39591">
        <ele>1076</ele>
        <time>2026-04-30T10:31:00Z</time>
      </trkpt>
      <trkpt lat="45.05124" lon="4.39586">
        <ele>1075.7</ele>
        <time>2026-04-30T10:31:05Z</time>
      </trkpt>
      <trkpt lat="45.05131" lon="4.39583">
        <ele>1075.4</ele>
        <time>2026-04-30T10:31:10Z</time>
      </trkpt>
      <trkpt lat="45.05136" lon="4.39582">
        <ele>1075.3</ele>
        <time>2026-04-30T10:31:15Z</time>
      </trkpt>
      <trkpt lat="45.05142" lon="4.39582">
        <ele>1075.3</ele>
        <time>2026-04-30T10:31:20Z</time>
      </trkpt>
      <trkpt lat="45.05143" lon="4.39582">
        <ele>1075.2</ele>
        <time>2026-04-30T10:31:25Z</time>
      </trkpt>
      <trkpt lat="45.05144" lon="4.39582">
        <ele>1075.2</ele>
        <time>2026-04-30T10:31:30Z</time>
      </trkpt>
      <trkpt lat="45.05144" lon="4.39582">
        <ele>1075.2</ele>
        <time>2026-04-30T10:31:35Z</time>
      </trkpt>
      <trkpt lat="45.05148" lon="4.39579">
        <ele>1075.1</ele>
        <time>2026-04-30T10:31:40Z</time>
      </trkpt>
      <trkpt lat="45.05148" lon="4.39579">
        <ele>1075.1</ele>
        <time>2026-04-30T10:31:45Z</time>
      </trkpt>
      <trkpt lat="45.05148" lon="4.39579">
        <ele>1075.1</ele>
        <time>2026-04-30T10:31:50Z</time>
      </trkpt>
      <trkpt lat="45.05148" lon="4.39579">
        <ele>1075.1</ele>
        <time>2026-04-30T10:31:55Z</time>
      </trkpt>
      <trkpt lat="45.05148" lon="4.39579">
        <ele>1075.1</ele>
        <time>2026-04-30T10:32:00Z</time>
      </trkpt>
      <trkpt lat="45.05148" lon="4.39579">
        <ele>1075.1</ele>
        <time>2026-04-30T10:32:05Z</time>
      </trkpt>
      <trkpt lat="45.05148" lon="4.39579">
        <ele>1075.1</ele>
        <time>2026-04-30T10:32:10Z</time>
      </trkpt>
      <trkpt lat="45.05148" lon="4.39579">
        <ele>1075.1</ele>
        <time>2026-04-30T10:32:15Z</time>
      </trkpt>
      <trkpt lat="45.05148" lon="4.39579">
        <ele>1075.1</ele>
        <time>2026-04-30T10:32:20Z</time>
      </trkpt>
      <trkpt lat="45.05148" lon="4.39579">
        <ele>1075.1</ele>
        <time>2026-04-30T10:32:25Z</time>
      </trkpt>
      <trkpt lat="45.05148" lon="4.39579">
        <ele>1075.1</ele>
        <time>2026-04-30T10:32:30Z</time>
      </trkpt>
      <trkpt lat="45.05148" lon="4.39579">
        <ele>1075.1</ele>
        <time>2026-04-30T10:32:35Z</time>
      </trkpt>
      <trkpt lat="45.05148" lon="4.39579">
        <ele>1075.1</ele>
        <time>2026-04-30T10:32:40Z</time>
      </trkpt>
      <trkpt lat="45.05148" lon="4.39579">
        <ele>1075.1</ele>
        <time>2026-04-30T10:32:45Z</time>
      </trkpt>
      <trkpt lat="45.05148" lon="4.39579">
        <ele>1075.1</ele>
        <time>2026-04-30T10:32:50Z</time>
      </trkpt>
      <trkpt lat="45.05148" lon="4.39579">
        <ele>1075.1</ele>
        <time>2026-04-30T10:32:55Z</time>
      </trkpt>
      <trkpt lat="45.05148" lon="4.39579">
        <ele>1075.1</ele>
        <time>2026-04-30T10:33:00Z</time>
      </trkpt>
      <trkpt lat="45.05148" lon="4.39579">
        <ele>1075.1</ele>
        <time>2026-04-30T10:33:05Z</time>
      </trkpt>
      <trkpt lat="45.05148" lon="4.39579">
        <ele>1075.1</ele>
        <time>2026-04-30T10:33:10Z</time>
      </trkpt>
      <trkpt lat="45.05148" lon="4.39579">
        <ele>1075.1</ele>
        <time>2026-04-30T10:33:15Z</time>
      </trkpt>
      <trkpt lat="45.05148" lon="4.39579">
        <ele>1075.1</ele>
        <time>2026-04-30T10:33:20Z</time>
      </trkpt>
      <trkpt lat="45.05148" lon="4.39579">
        <ele>1075.1</ele>
        <time>2026-04-30T10:33:25Z</time>
      </trkpt>
      <trkpt lat="45.05148" lon="4.39579">
        <ele>1075.1</ele>
        <time>2026-04-30T10:33:30Z</time>
      </trkpt>
      <trkpt lat="45.05148" lon="4.39579">
        <ele>1075.1</ele>
        <time>2026-04-30T10:33:35Z</time>
      </trkpt>
      <trkpt lat="45.05148" lon="4.39579">
        <ele>1075.1</ele>
        <time>2026-04-30T10:33:40Z</time>
      </trkpt>
      <trkpt lat="45.05148" lon="4.39579">
        <ele>1075.1</ele>
        <time>2026-04-30T10:33:45Z</time>
      </trkpt>
      <trkpt lat="45.05148" lon="4.39579">
        <ele>1075.1</ele>
        <time>2026-04-30T10:33:50Z</time>
      </trkpt>
      <trkpt lat="45.05148" lon="4.39579">
        <ele>1075.1</ele>
        <time>2026-04-30T10:33:55Z</time>
      </trkpt>
      <trkpt lat="45.05148" lon="4.39579">
        <ele>1075.1</ele>
        <time>2026-04-30T10:34:00Z</time>
      </trkpt>
      <trkpt lat="45.05148" lon="4.39579">
        <ele>1075.1</ele>
        <time>2026-04-30T10:34:05Z</time>
      </trkpt>
      <trkpt lat="45.05148" lon="4.39579">
        <ele>1075.1</ele>
        <time>2026-04-30T10:34:10Z</time>
      </trkpt>
      <trkpt lat="45.05148" lon="4.39579">
        <ele>1075.1</ele>
        <time>2026-04-30T10:34:15Z</time>
      </trkpt>
      <trkpt lat="45.05148" lon="4.39579">
        <ele>1075.1</ele>
        <time>2026-04-30T10:34:20Z</time>
      </trkpt>
      <trkpt lat="45.05148" lon="4.39579">
        <ele>1075.1</ele>
        <time>2026-04-30T10:34:25Z</time>
      </trkpt>
      <trkpt lat="45.05148" lon="4.39579">
        <ele>1075.1</ele>
        <time>2026-04-30T10:34:30Z</time>
      </trkpt>
      <trkpt lat="45.05148" lon="4.39579">
        <ele>1075.1</ele>
        <time>2026-04-30T10:34:35Z</time>
      </trkpt>
      <trkpt lat="45.05148" lon="4.39579">
        <ele>1075.1</ele>
        <time>2026-04-30T10:34:40Z</time>
      </trkpt>
      <trkpt lat="45.05148" lon="4.39579">
        <ele>1075.1</ele>
        <time>2026-04-30T10:34:45Z</time>
      </trkpt>
      <trkpt lat="45.05148" lon="4.39579">
        <ele>1075.1</ele>
        <time>2026-04-30T10:34:50Z</time>
      </trkpt>
      <trkpt lat="45.05148" lon="4.39579">
        <ele>1075.1</ele>
        <time>2026-04-30T10:34:55Z</time>
      </trkpt>
      <trkpt lat="45.05148" lon="4.39579">
        <ele>1075.1</ele>
        <time>2026-04-30T10:35:00Z</time>
      </trkpt>
      <trkpt lat="45.05148" lon="4.39579">
        <ele>1075.1</ele>
        <time>2026-04-30T10:35:05Z</time>
      </trkpt>
      <trkpt lat="45.05148" lon="4.39579">
        <ele>1075.1</ele>
        <time>2026-04-30T10:35:10Z</time>
      </trkpt>
      <trkpt lat="45.05148" lon="4.39579">
        <ele>1075.1</ele>
        <time>2026-04-30T10:35:15Z</time>
      </trkpt>
      <trkpt lat="45.05148" lon="4.39579">
        <ele>1075.1</ele>
        <time>2026-04-30T10:35:20Z</time>
      </trkpt>
      <trkpt lat="45.05148" lon="4.39579">
        <ele>1075.1</ele>
        <time>2026-04-30T10:35:25Z</time>
      </trkpt>
      <trkpt lat="45.05148" lon="4.39579">
        <ele>1075.1</ele>
        <time>2026-04-30T10:35:30Z</time>
      </trkpt>
      <trkpt lat="45.05148" lon="4.39579">
        <ele>1075.1</ele>
        <time>2026-04-30T10:35:35Z</time>
      </trkpt>
      <trkpt lat="45.05148" lon="4.39578">
        <ele>1075.1</ele>
        <time>2026-04-30T10:35:40Z</time>
      </trkpt>
      <trkpt lat="45.05148" lon="4.39578">
        <ele>1075.1</ele>
        <time>2026-04-30T10:35:45Z</time>
      </trkpt>
      <trkpt lat="45.05148" lon="4.39578">
        <ele>1075.1</ele>
        <time>2026-04-30T10:35:50Z</time>
      </trkpt>
      <trkpt lat="45.05148" lon="4.39578">
        <ele>1075.1</ele>
        <time>2026-04-30T10:35:55Z</time>
      </trkpt>
      <trkpt lat="45.05148" lon="4.39578">
        <ele>1075.1</ele>
        <time>2026-04-30T10:36:00Z</time>
      </trkpt>
      <trkpt lat="45.05156" lon="4.39576">
        <ele>1074.9</ele>
        <time>2026-04-30T10:36:05Z</time>
      </trkpt>
      <trkpt lat="45.05161" lon="4.39569">
        <ele>1074.7</ele>
        <time>2026-04-30T10:36:10Z</time>
      </trkpt>
      <trkpt lat="45.05166" lon="4.39564">
        <ele>1074.5</ele>
        <time>2026-04-30T10:36:15Z</time>
      </trkpt>
      <trkpt lat="45.0517" lon="4.39559">
        <ele>1074.7</ele>
        <time>2026-04-30T10:36:20Z</time>
      </trkpt>
      <trkpt lat="45.05175" lon="4.39554">
        <ele>1075.1</ele>
        <time>2026-04-30T10:36:25Z</time>
      </trkpt>
      <trkpt lat="45.05179" lon="4.39549">
        <ele>1075.3</ele>
        <time>2026-04-30T10:36:30Z</time>
      </trkpt>
      <trkpt lat="45.05183" lon="4.39546">
        <ele>1075.7</ele>
        <time>2026-04-30T10:36:35Z</time>
      </trkpt>
      <trkpt lat="45.05181" lon="4.39545">
        <ele>1075.4</ele>
        <time>2026-04-30T10:36:40Z</time>
      </trkpt>
      <trkpt lat="45.0518" lon="4.39537">
        <ele>1075.2</ele>
        <time>2026-04-30T10:36:45Z</time>
      </trkpt>
      <trkpt lat="45.05182" lon="4.39529">
        <ele>1075.2</ele>
        <time>2026-04-30T10:36:50Z</time>
      </trkpt>
      <trkpt lat="45.05181" lon="4.39521">
        <ele>1075</ele>
        <time>2026-04-30T10:36:55Z</time>
      </trkpt>
      <trkpt lat="45.05179" lon="4.39513">
        <ele>1074.6</ele>
        <time>2026-04-30T10:37:00Z</time>
      </trkpt>
      <trkpt lat="45.05176" lon="4.39506">
        <ele>1074.1</ele>
        <time>2026-04-30T10:37:05Z</time>
      </trkpt>
      <trkpt lat="45.05175" lon="4.39498">
        <ele>1073.9</ele>
        <time>2026-04-30T10:37:10Z</time>
      </trkpt>
      <trkpt lat="45.05173" lon="4.39491">
        <ele>1073.7</ele>
        <time>2026-04-30T10:37:15Z</time>
      </trkpt>
      <trkpt lat="45.05171" lon="4.39486">
        <ele>1073.4</ele>
        <time>2026-04-30T10:37:20Z</time>
      </trkpt>
      <trkpt lat="45.05169" lon="4.39486">
        <ele>1073.2</ele>
        <time>2026-04-30T10:37:25Z</time>
      </trkpt>
      <trkpt lat="45.05169" lon="4.39487">
        <ele>1073.2</ele>
        <time>2026-04-30T10:37:30Z</time>
      </trkpt>
      <trkpt lat="45.05169" lon="4.39487">
        <ele>1073.2</ele>
        <time>2026-04-30T10:37:35Z</time>
      </trkpt>
      <trkpt lat="45.05169" lon="4.39487">
        <ele>1073.2</ele>
        <time>2026-04-30T10:37:40Z</time>
      </trkpt>
      <trkpt lat="45.05169" lon="4.39487">
        <ele>1073.2</ele>
        <time>2026-04-30T10:37:45Z</time>
      </trkpt>
      <trkpt lat="45.05169" lon="4.39487">
        <ele>1073.2</ele>
        <time>2026-04-30T10:37:50Z</time>
      </trkpt>
      <trkpt lat="45.05169" lon="4.39487">
        <ele>1073.2</ele>
        <time>2026-04-30T10:37:55Z</time>
      </trkpt>
      <trkpt lat="45.05169" lon="4.39487">
        <ele>1073.2</ele>
        <time>2026-04-30T10:38:00Z</time>
      </trkpt>
      <trkpt lat="45.05169" lon="4.39487">
        <ele>1073.2</ele>
        <time>2026-04-30T10:38:05Z</time>
      </trkpt>
      <trkpt lat="45.05169" lon="4.39487">
        <ele>1073.2</ele>
        <time>2026-04-30T10:38:10Z</time>
      </trkpt>
      <trkpt lat="45.05169" lon="4.39487">
        <ele>1073.2</ele>
        <time>2026-04-30T10:38:15Z</time>
      </trkpt>
      <trkpt lat="45.05169" lon="4.39487">
        <ele>1073.2</ele>
        <time>2026-04-30T10:38:20Z</time>
      </trkpt>
      <trkpt lat="45.05171" lon="4.39488">
        <ele>1073.4</ele>
        <time>2026-04-30T10:38:25Z</time>
      </trkpt>
      <trkpt lat="45.05173" lon="4.39498">
        <ele>1073.7</ele>
        <time>2026-04-30T10:38:30Z</time>
      </trkpt>
      <trkpt lat="45.05176" lon="4.39506">
        <ele>1074.1</ele>
        <time>2026-04-30T10:38:35Z</time>
      </trkpt>
      <trkpt lat="45.0518" lon="4.39514">
        <ele>1074.7</ele>
        <time>2026-04-30T10:38:40Z</time>
      </trkpt>
      <trkpt lat="45.05184" lon="4.39518">
        <ele>1075.2</ele>
        <time>2026-04-30T10:38:45Z</time>
      </trkpt>
      <trkpt lat="45.05188" lon="4.3952">
        <ele>1075.7</ele>
        <time>2026-04-30T10:38:50Z</time>
      </trkpt>
      <trkpt lat="45.05193" lon="4.3952">
        <ele>1076.2</ele>
        <time>2026-04-30T10:38:55Z</time>
      </trkpt>
      <trkpt lat="45.05199" lon="4.39522">
        <ele>1076.8</ele>
        <time>2026-04-30T10:39:00Z</time>
      </trkpt>
      <trkpt lat="45.05205" lon="4.39523">
        <ele>1077.4</ele>
        <time>2026-04-30T10:39:05Z</time>
      </trkpt>
      <trkpt lat="45.05211" lon="4.39525">
        <ele>1078.1</ele>
        <time>2026-04-30T10:39:10Z</time>
      </trkpt>
      <trkpt lat="45.05217" lon="4.3953">
        <ele>1078.7</ele>
        <time>2026-04-30T10:39:15Z</time>
      </trkpt>
      <trkpt lat="45.05222" lon="4.39535">
        <ele>1079.3</ele>
        <time>2026-04-30T10:39:20Z</time>
      </trkpt>
      <trkpt lat="45.05226" lon="4.39543">
        <ele>1079.7</ele>
        <time>2026-04-30T10:39:25Z</time>
      </trkpt>
      <trkpt lat="45.05233" lon="4.39548">
        <ele>1080.4</ele>
        <time>2026-04-30T10:39:30Z</time>
      </trkpt>
      <trkpt lat="45.05238" lon="4.39552">
        <ele>1080.9</ele>
        <time>2026-04-30T10:39:35Z</time>
      </trkpt>
      <trkpt lat="45.05243" lon="4.39558">
        <ele>1081.4</ele>
        <time>2026-04-30T10:39:40Z</time>
      </trkpt>
      <trkpt lat="45.05248" lon="4.39562">
        <ele>1081.8</ele>
        <time>2026-04-30T10:39:45Z</time>
      </trkpt>
      <trkpt lat="45.05253" lon="4.39567">
        <ele>1082.3</ele>
        <time>2026-04-30T10:39:50Z</time>
      </trkpt>
      <trkpt lat="45.05258" lon="4.39571">
        <ele>1082.8</ele>
        <time>2026-04-30T10:39:55Z</time>
      </trkpt>
      <trkpt lat="45.05263" lon="4.39575">
        <ele>1083.3</ele>
        <time>2026-04-30T10:40:00Z</time>
      </trkpt>
      <trkpt lat="45.05267" lon="4.3958">
        <ele>1083.6</ele>
        <time>2026-04-30T10:40:05Z</time>
      </trkpt>
      <trkpt lat="45.05269" lon="4.39581">
        <ele>1083.8</ele>
        <time>2026-04-30T10:40:10Z</time>
      </trkpt>
      <trkpt lat="45.05273" lon="4.39585">
        <ele>1084.2</ele>
        <time>2026-04-30T10:40:15Z</time>
      </trkpt>
      <trkpt lat="45.05278" lon="4.3959">
        <ele>1084.5</ele>
        <time>2026-04-30T10:40:20Z</time>
      </trkpt>
      <trkpt lat="45.05284" lon="4.39595">
        <ele>1084.9</ele>
        <time>2026-04-30T10:40:25Z</time>
      </trkpt>
      <trkpt lat="45.05291" lon="4.39601">
        <ele>1085.3</ele>
        <time>2026-04-30T10:40:30Z</time>
      </trkpt>
      <trkpt lat="45.05296" lon="4.39607">
        <ele>1085.5</ele>
        <time>2026-04-30T10:40:35Z</time>
      </trkpt>
      <trkpt lat="45.05301" lon="4.39611">
        <ele>1085.8</ele>
        <time>2026-04-30T10:40:40Z</time>
      </trkpt>
      <trkpt lat="45.05306" lon="4.39615">
        <ele>1086</ele>
        <time>2026-04-30T10:40:45Z</time>
      </trkpt>
      <trkpt lat="45.05312" lon="4.39617">
        <ele>1086.3</ele>
        <time>2026-04-30T10:40:50Z</time>
      </trkpt>
      <trkpt lat="45.05318" lon="4.3962">
        <ele>1086.7</ele>
        <time>2026-04-30T10:40:55Z</time>
      </trkpt>
      <trkpt lat="45.05324" lon="4.3962">
        <ele>1087.1</ele>
        <time>2026-04-30T10:41:00Z</time>
      </trkpt>
      <trkpt lat="45.05329" lon="4.39617">
        <ele>1087.6</ele>
        <time>2026-04-30T10:41:05Z</time>
      </trkpt>
      <trkpt lat="45.05331" lon="4.39616">
        <ele>1087.9</ele>
        <time>2026-04-30T10:41:10Z</time>
      </trkpt>
      <trkpt lat="45.05336" lon="4.39621">
        <ele>1088.1</ele>
        <time>2026-04-30T10:41:15Z</time>
      </trkpt>
      <trkpt lat="45.05339" lon="4.39627">
        <ele>1088.1</ele>
        <time>2026-04-30T10:41:20Z</time>
      </trkpt>
      <trkpt lat="45.05341" lon="4.39633">
        <ele>1088.1</ele>
        <time>2026-04-30T10:41:25Z</time>
      </trkpt>
      <trkpt lat="45.05343" lon="4.39639">
        <ele>1088</ele>
        <time>2026-04-30T10:41:30Z</time>
      </trkpt>
      <trkpt lat="45.05345" lon="4.39649">
        <ele>1087.8</ele>
        <time>2026-04-30T10:41:35Z</time>
      </trkpt>
      <trkpt lat="45.05347" lon="4.39658">
        <ele>1087.6</ele>
        <time>2026-04-30T10:41:40Z</time>
      </trkpt>
      <trkpt lat="45.05349" lon="4.39665">
        <ele>1087.5</ele>
        <time>2026-04-30T10:41:45Z</time>
      </trkpt>
      <trkpt lat="45.05351" lon="4.39678">
        <ele>1087.8</ele>
        <time>2026-04-30T10:41:50Z</time>
      </trkpt>
      <trkpt lat="45.05353" lon="4.3969">
        <ele>1088.1</ele>
        <time>2026-04-30T10:41:55Z</time>
      </trkpt>
      <trkpt lat="45.05356" lon="4.39699">
        <ele>1088.6</ele>
        <time>2026-04-30T10:42:00Z</time>
      </trkpt>
      <trkpt lat="45.05359" lon="4.3971">
        <ele>1089.2</ele>
        <time>2026-04-30T10:42:05Z</time>
      </trkpt>
      <trkpt lat="45.05361" lon="4.39721">
        <ele>1089.5</ele>
        <time>2026-04-30T10:42:10Z</time>
      </trkpt>
      <trkpt lat="45.05363" lon="4.39729">
        <ele>1089.9</ele>
        <time>2026-04-30T10:42:15Z</time>
      </trkpt>
      <trkpt lat="45.05367" lon="4.39738">
        <ele>1090.6</ele>
        <time>2026-04-30T10:42:20Z</time>
      </trkpt>
      <trkpt lat="45.0537" lon="4.39748">
        <ele>1091.1</ele>
        <time>2026-04-30T10:42:25Z</time>
      </trkpt>
      <trkpt lat="45.05374" lon="4.39755">
        <ele>1091.9</ele>
        <time>2026-04-30T10:42:30Z</time>
      </trkpt>
      <trkpt lat="45.05379" lon="4.39765">
        <ele>1092.7</ele>
        <time>2026-04-30T10:42:35Z</time>
      </trkpt>
      <trkpt lat="45.05382" lon="4.39777">
        <ele>1093.2</ele>
        <time>2026-04-30T10:42:40Z</time>
      </trkpt>
      <trkpt lat="45.05386" lon="4.39788">
        <ele>1093.8</ele>
        <time>2026-04-30T10:42:45Z</time>
      </trkpt>
      <trkpt lat="45.0539" lon="4.398">
        <ele>1094.3</ele>
        <time>2026-04-30T10:42:50Z</time>
      </trkpt>
      <trkpt lat="45.05394" lon="4.39807">
        <ele>1094.8</ele>
        <time>2026-04-30T10:42:55Z</time>
      </trkpt>
      <trkpt lat="45.054" lon="4.39807">
        <ele>1095.5</ele>
        <time>2026-04-30T10:43:00Z</time>
      </trkpt>
      <trkpt lat="45.05403" lon="4.39812">
        <ele>1095.8</ele>
        <time>2026-04-30T10:43:05Z</time>
      </trkpt>
      <trkpt lat="45.05407" lon="4.39813">
        <ele>1096.3</ele>
        <time>2026-04-30T10:43:10Z</time>
      </trkpt>
      <trkpt lat="45.05407" lon="4.39812">
        <ele>1096.3</ele>
        <time>2026-04-30T10:43:15Z</time>
      </trkpt>
      <trkpt lat="45.05408" lon="4.39811">
        <ele>1096.5</ele>
        <time>2026-04-30T10:43:20Z</time>
      </trkpt>
      <trkpt lat="45.05408" lon="4.39811">
        <ele>1096.5</ele>
        <time>2026-04-30T10:43:25Z</time>
      </trkpt>
      <trkpt lat="45.05408" lon="4.39811">
        <ele>1096.5</ele>
        <time>2026-04-30T10:43:30Z</time>
      </trkpt>
      <trkpt lat="45.05408" lon="4.39811">
        <ele>1096.5</ele>
        <time>2026-04-30T10:43:35Z</time>
      </trkpt>
      <trkpt lat="45.05408" lon="4.39811">
        <ele>1096.5</ele>
        <time>2026-04-30T10:43:40Z</time>
      </trkpt>
      <trkpt lat="45.05408" lon="4.39811">
        <ele>1096.5</ele>
        <time>2026-04-30T10:43:45Z</time>
      </trkpt>
      <trkpt lat="45.05408" lon="4.39811">
        <ele>1096.5</ele>
        <time>2026-04-30T10:43:50Z</time>
      </trkpt>
      <trkpt lat="45.05408" lon="4.39811">
        <ele>1096.5</ele>
        <time>2026-04-30T10:43:55Z</time>
      </trkpt>
      <trkpt lat="45.05408" lon="4.39811">
        <ele>1096.5</ele>
        <time>2026-04-30T10:44:00Z</time>
      </trkpt>
      <trkpt lat="45.05408" lon="4.39811">
        <ele>1096.5</ele>
        <time>2026-04-30T10:44:05Z</time>
      </trkpt>
      <trkpt lat="45.05408" lon="4.39811">
        <ele>1096.5</ele>
        <time>2026-04-30T10:44:10Z</time>
      </trkpt>
      <trkpt lat="45.05408" lon="4.39811">
        <ele>1096.5</ele>
        <time>2026-04-30T10:44:15Z</time>
      </trkpt>
      <trkpt lat="45.05405" lon="4.39815">
        <ele>1096</ele>
        <time>2026-04-30T10:44:20Z</time>
      </trkpt>
      <trkpt lat="45.05405" lon="4.39816">
        <ele>1096</ele>
        <time>2026-04-30T10:44:25Z</time>
      </trkpt>
      <trkpt lat="45.05405" lon="4.39816">
        <ele>1096</ele>
        <time>2026-04-30T10:44:30Z</time>
      </trkpt>
      <trkpt lat="45.05405" lon="4.39816">
        <ele>1096</ele>
        <time>2026-04-30T10:44:35Z</time>
      </trkpt>
      <trkpt lat="45.05405" lon="4.39816">
        <ele>1096</ele>
        <time>2026-04-30T10:44:40Z</time>
      </trkpt>
      <trkpt lat="45.05405" lon="4.39816">
        <ele>1096</ele>
        <time>2026-04-30T10:44:45Z</time>
      </trkpt>
      <trkpt lat="45.05405" lon="4.39816">
        <ele>1096</ele>
        <time>2026-04-30T10:44:50Z</time>
      </trkpt>
      <trkpt lat="45.05405" lon="4.39816">
        <ele>1096</ele>
        <time>2026-04-30T10:44:55Z</time>
      </trkpt>
      <trkpt lat="45.05405" lon="4.39816">
        <ele>1096</ele>
        <time>2026-04-30T10:45:00Z</time>
      </trkpt>
      <trkpt lat="45.05405" lon="4.39816">
        <ele>1096</ele>
        <time>2026-04-30T10:45:05Z</time>
      </trkpt>
      <trkpt lat="45.05405" lon="4.39816">
        <ele>1096</ele>
        <time>2026-04-30T10:45:10Z</time>
      </trkpt>
      <trkpt lat="45.05405" lon="4.39816">
        <ele>1096</ele>
        <time>2026-04-30T10:45:15Z</time>
      </trkpt>
      <trkpt lat="45.05405" lon="4.39816">
        <ele>1096</ele>
        <time>2026-04-30T10:45:20Z</time>
      </trkpt>
      <trkpt lat="45.05405" lon="4.39816">
        <ele>1096</ele>
        <time>2026-04-30T10:45:25Z</time>
      </trkpt>
      <trkpt lat="45.05405" lon="4.39816">
        <ele>1096</ele>
        <time>2026-04-30T10:45:30Z</time>
      </trkpt>
      <trkpt lat="45.05405" lon="4.39816">
        <ele>1096</ele>
        <time>2026-04-30T10:45:35Z</time>
      </trkpt>
      <trkpt lat="45.05405" lon="4.39816">
        <ele>1096</ele>
        <time>2026-04-30T10:45:40Z</time>
      </trkpt>
      <trkpt lat="45.05405" lon="4.39816">
        <ele>1096</ele>
        <time>2026-04-30T10:45:45Z</time>
      </trkpt>
      <trkpt lat="45.05405" lon="4.39816">
        <ele>1096</ele>
        <time>2026-04-30T10:45:50Z</time>
      </trkpt>
      <trkpt lat="45.05405" lon="4.39816">
        <ele>1096</ele>
        <time>2026-04-30T10:45:55Z</time>
      </trkpt>
      <trkpt lat="45.05405" lon="4.39816">
        <ele>1096</ele>
        <time>2026-04-30T10:46:00Z</time>
      </trkpt>
      <trkpt lat="45.05405" lon="4.39816">
        <ele>1096</ele>
        <time>2026-04-30T10:46:05Z</time>
      </trkpt>
      <trkpt lat="45.05405" lon="4.39816">
        <ele>1096</ele>
        <time>2026-04-30T10:46:10Z</time>
      </trkpt>
      <trkpt lat="45.05405" lon="4.39816">
        <ele>1096</ele>
        <time>2026-04-30T10:46:15Z</time>
      </trkpt>
      <trkpt lat="45.05405" lon="4.39816">
        <ele>1096</ele>
        <time>2026-04-30T10:46:20Z</time>
      </trkpt>
      <trkpt lat="45.05405" lon="4.39816">
        <ele>1096</ele>
        <time>2026-04-30T10:46:25Z</time>
      </trkpt>
      <trkpt lat="45.05405" lon="4.39816">
        <ele>1096</ele>
        <time>2026-04-30T10:46:30Z</time>
      </trkpt>
      <trkpt lat="45.05405" lon="4.39816">
        <ele>1096</ele>
        <time>2026-04-30T10:46:35Z</time>
      </trkpt>
      <trkpt lat="45.05405" lon="4.39816">
        <ele>1096</ele>
        <time>2026-04-30T10:46:40Z</time>
      </trkpt>
      <trkpt lat="45.05405" lon="4.39816">
        <ele>1096</ele>
        <time>2026-04-30T10:46:45Z</time>
      </trkpt>
      <trkpt lat="45.05405" lon="4.39816">
        <ele>1096</ele>
        <time>2026-04-30T10:46:50Z</time>
      </trkpt>
      <trkpt lat="45.05405" lon="4.39816">
        <ele>1096</ele>
        <time>2026-04-30T10:46:55Z</time>
      </trkpt>
      <trkpt lat="45.05405" lon="4.39816">
        <ele>1096</ele>
        <time>2026-04-30T10:47:00Z</time>
      </trkpt>
      <trkpt lat="45.05405" lon="4.39816">
        <ele>1096</ele>
        <time>2026-04-30T10:47:05Z</time>
      </trkpt>
      <trkpt lat="45.05405" lon="4.39816">
        <ele>1096</ele>
        <time>2026-04-30T10:47:10Z</time>
      </trkpt>
      <trkpt lat="45.05405" lon="4.39816">
        <ele>1096</ele>
        <time>2026-04-30T10:47:15Z</time>
      </trkpt>
      <trkpt lat="45.05405" lon="4.39816">
        <ele>1096</ele>
        <time>2026-04-30T10:47:20Z</time>
      </trkpt>
      <trkpt lat="45.05405" lon="4.39816">
        <ele>1096</ele>
        <time>2026-04-30T10:47:25Z</time>
      </trkpt>
      <trkpt lat="45.05405" lon="4.39816">
        <ele>1096</ele>
        <time>2026-04-30T10:47:30Z</time>
      </trkpt>
      <trkpt lat="45.05405" lon="4.39816">
        <ele>1096</ele>
        <time>2026-04-30T10:47:35Z</time>
      </trkpt>
      <trkpt lat="45.05405" lon="4.39816">
        <ele>1096</ele>
        <time>2026-04-30T10:47:40Z</time>
      </trkpt>
      <trkpt lat="45.05405" lon="4.39816">
        <ele>1096</ele>
        <time>2026-04-30T10:47:45Z</time>
      </trkpt>
      <trkpt lat="45.05405" lon="4.39816">
        <ele>1096</ele>
        <time>2026-04-30T10:47:50Z</time>
      </trkpt>
      <trkpt lat="45.05405" lon="4.39816">
        <ele>1096</ele>
        <time>2026-04-30T10:47:55Z</time>
      </trkpt>
      <trkpt lat="45.05405" lon="4.39816">
        <ele>1096</ele>
        <time>2026-04-30T10:48:00Z</time>
      </trkpt>
      <trkpt lat="45.05405" lon="4.39816">
        <ele>1096</ele>
        <time>2026-04-30T10:48:05Z</time>
      </trkpt>
      <trkpt lat="45.05405" lon="4.39816">
        <ele>1096</ele>
        <time>2026-04-30T10:48:10Z</time>
      </trkpt>
      <trkpt lat="45.05405" lon="4.39816">
        <ele>1096</ele>
        <time>2026-04-30T10:48:15Z</time>
      </trkpt>
      <trkpt lat="45.05405" lon="4.39816">
        <ele>1096</ele>
        <time>2026-04-30T10:48:20Z</time>
      </trkpt>
      <trkpt lat="45.05405" lon="4.39816">
        <ele>1096</ele>
        <time>2026-04-30T10:48:25Z</time>
      </trkpt>
      <trkpt lat="45.05405" lon="4.39816">
        <ele>1096</ele>
        <time>2026-04-30T10:48:30Z</time>
      </trkpt>
      <trkpt lat="45.05405" lon="4.39816">
        <ele>1096</ele>
        <time>2026-04-30T10:48:35Z</time>
      </trkpt>
      <trkpt lat="45.05405" lon="4.39816">
        <ele>1096</ele>
        <time>2026-04-30T10:48:40Z</time>
      </trkpt>
      <trkpt lat="45.05405" lon="4.39816">
        <ele>1096</ele>
        <time>2026-04-30T10:48:45Z</time>
      </trkpt>
      <trkpt lat="45.05405" lon="4.39816">
        <ele>1096</ele>
        <time>2026-04-30T10:48:50Z</time>
      </trkpt>
      <trkpt lat="45.05405" lon="4.39816">
        <ele>1096</ele>
        <time>2026-04-30T10:48:55Z</time>
      </trkpt>
      <trkpt lat="45.05405" lon="4.39816">
        <ele>1096</ele>
        <time>2026-04-30T10:49:00Z</time>
      </trkpt>
      <trkpt lat="45.05405" lon="4.39816">
        <ele>1096</ele>
        <time>2026-04-30T10:49:05Z</time>
      </trkpt>
      <trkpt lat="45.05405" lon="4.39816">
        <ele>1096</ele>
        <time>2026-04-30T10:49:10Z</time>
      </trkpt>
      <trkpt lat="45.05405" lon="4.39816">
        <ele>1096</ele>
        <time>2026-04-30T10:49:15Z</time>
      </trkpt>
      <trkpt lat="45.05405" lon="4.39816">
        <ele>1096</ele>
        <time>2026-04-30T10:49:20Z</time>
      </trkpt>
      <trkpt lat="45.05409" lon="4.39828">
        <ele>1096.3</ele>
        <time>2026-04-30T10:49:25Z</time>
      </trkpt>
      <trkpt lat="45.0541" lon="4.39828">
        <ele>1096.4</ele>
        <time>2026-04-30T10:49:30Z</time>
      </trkpt>
      <trkpt lat="45.0541" lon="4.39828">
        <ele>1096.4</ele>
        <time>2026-04-30T10:49:35Z</time>
      </trkpt>
      <trkpt lat="45.0541" lon="4.39828">
        <ele>1096.4</ele>
        <time>2026-04-30T10:49:40Z</time>
      </trkpt>
      <trkpt lat="45.0541" lon="4.39828">
        <ele>1096.4</ele>
        <time>2026-04-30T10:49:45Z</time>
      </trkpt>
      <trkpt lat="45.0541" lon="4.39828">
        <ele>1096.4</ele>
        <time>2026-04-30T10:49:50Z</time>
      </trkpt>
      <trkpt lat="45.0541" lon="4.39828">
        <ele>1096.4</ele>
        <time>2026-04-30T10:49:55Z</time>
      </trkpt>
      <trkpt lat="45.0541" lon="4.39828">
        <ele>1096.4</ele>
        <time>2026-04-30T10:50:00Z</time>
      </trkpt>
      <trkpt lat="45.0541" lon="4.39828">
        <ele>1096.4</ele>
        <time>2026-04-30T10:50:05Z</time>
      </trkpt>
      <trkpt lat="45.0541" lon="4.39828">
        <ele>1096.4</ele>
        <time>2026-04-30T10:50:10Z</time>
      </trkpt>
      <trkpt lat="45.0541" lon="4.39828">
        <ele>1096.4</ele>
        <time>2026-04-30T10:50:15Z</time>
      </trkpt>
      <trkpt lat="45.0541" lon="4.39828">
        <ele>1096.4</ele>
        <time>2026-04-30T10:50:20Z</time>
      </trkpt>
      <trkpt lat="45.0541" lon="4.39828">
        <ele>1096.4</ele>
        <time>2026-04-30T10:50:25Z</time>
      </trkpt>
      <trkpt lat="45.0541" lon="4.39828">
        <ele>1096.4</ele>
        <time>2026-04-30T10:50:30Z</time>
      </trkpt>
      <trkpt lat="45.0541" lon="4.39828">
        <ele>1096.4</ele>
        <time>2026-04-30T10:50:35Z</time>
      </trkpt>
      <trkpt lat="45.0541" lon="4.39828">
        <ele>1096.4</ele>
        <time>2026-04-30T10:50:40Z</time>
      </trkpt>
      <trkpt lat="45.0541" lon="4.39828">
        <ele>1096.4</ele>
        <time>2026-04-30T10:50:45Z</time>
      </trkpt>
      <trkpt lat="45.0541" lon="4.39828">
        <ele>1096.4</ele>
        <time>2026-04-30T10:50:50Z</time>
      </trkpt>
      <trkpt lat="45.0541" lon="4.39828">
        <ele>1096.4</ele>
        <time>2026-04-30T10:50:55Z</time>
      </trkpt>
      <trkpt lat="45.0541" lon="4.39828">
        <ele>1096.4</ele>
        <time>2026-04-30T10:51:00Z</time>
      </trkpt>
      <trkpt lat="45.0541" lon="4.39828">
        <ele>1096.4</ele>
        <time>2026-04-30T10:51:05Z</time>
      </trkpt>
      <trkpt lat="45.0541" lon="4.39828">
        <ele>1096.4</ele>
        <time>2026-04-30T10:51:10Z</time>
      </trkpt>
      <trkpt lat="45.0541" lon="4.39828">
        <ele>1096.4</ele>
        <time>2026-04-30T10:51:15Z</time>
      </trkpt>
      <trkpt lat="45.0541" lon="4.39828">
        <ele>1096.4</ele>
        <time>2026-04-30T10:51:20Z</time>
      </trkpt>
      <trkpt lat="45.0541" lon="4.39828">
        <ele>1096.4</ele>
        <time>2026-04-30T10:51:25Z</time>
      </trkpt>
      <trkpt lat="45.0541" lon="4.39828">
        <ele>1096.4</ele>
        <time>2026-04-30T10:51:30Z</time>
      </trkpt>
      <trkpt lat="45.0541" lon="4.39828">
        <ele>1096.4</ele>
        <time>2026-04-30T10:51:35Z</time>
      </trkpt>
      <trkpt lat="45.0541" lon="4.39828">
        <ele>1096.4</ele>
        <time>2026-04-30T10:51:40Z</time>
      </trkpt>
      <trkpt lat="45.0541" lon="4.39828">
        <ele>1096.4</ele>
        <time>2026-04-30T10:51:45Z</time>
      </trkpt>
      <trkpt lat="45.0541" lon="4.39828">
        <ele>1096.4</ele>
        <time>2026-04-30T10:51:50Z</time>
      </trkpt>
      <trkpt lat="45.0541" lon="4.39828">
        <ele>1096.4</ele>
        <time>2026-04-30T10:51:55Z</time>
      </trkpt>
      <trkpt lat="45.0541" lon="4.39828">
        <ele>1096.4</ele>
        <time>2026-04-30T10:52:00Z</time>
      </trkpt>
      <trkpt lat="45.0541" lon="4.39828">
        <ele>1096.4</ele>
        <time>2026-04-30T10:52:05Z</time>
      </trkpt>
      <trkpt lat="45.05417" lon="4.39839">
        <ele>1096.7</ele>
        <time>2026-04-30T10:52:10Z</time>
      </trkpt>
      <trkpt lat="45.05417" lon="4.39839">
        <ele>1096.7</ele>
        <time>2026-04-30T10:52:15Z</time>
      </trkpt>
      <trkpt lat="45.05417" lon="4.39839">
        <ele>1096.7</ele>
        <time>2026-04-30T10:52:20Z</time>
      </trkpt>
      <trkpt lat="45.05417" lon="4.39839">
        <ele>1096.7</ele>
        <time>2026-04-30T10:52:25Z</time>
      </trkpt>
      <trkpt lat="45.05417" lon="4.39839">
        <ele>1096.7</ele>
        <time>2026-04-30T10:52:30Z</time>
      </trkpt>
      <trkpt lat="45.05417" lon="4.39839">
        <ele>1096.7</ele>
        <time>2026-04-30T10:52:35Z</time>
      </trkpt>
      <trkpt lat="45.05417" lon="4.39839">
        <ele>1096.7</ele>
        <time>2026-04-30T10:52:40Z</time>
      </trkpt>
      <trkpt lat="45.05417" lon="4.39839">
        <ele>1096.7</ele>
        <time>2026-04-30T10:52:45Z</time>
      </trkpt>
      <trkpt lat="45.05417" lon="4.39839">
        <ele>1096.7</ele>
        <time>2026-04-30T10:52:50Z</time>
      </trkpt>
      <trkpt lat="45.05417" lon="4.39839">
        <ele>1096.7</ele>
        <time>2026-04-30T10:52:55Z</time>
      </trkpt>
      <trkpt lat="45.05417" lon="4.39839">
        <ele>1096.7</ele>
        <time>2026-04-30T10:53:00Z</time>
      </trkpt>
      <trkpt lat="45.05417" lon="4.39839">
        <ele>1096.7</ele>
        <time>2026-04-30T10:53:05Z</time>
      </trkpt>
      <trkpt lat="45.05417" lon="4.39839">
        <ele>1096.7</ele>
        <time>2026-04-30T10:53:10Z</time>
      </trkpt>
      <trkpt lat="45.05417" lon="4.39839">
        <ele>1096.7</ele>
        <time>2026-04-30T10:53:15Z</time>
      </trkpt>
      <trkpt lat="45.05417" lon="4.39839">
        <ele>1096.7</ele>
        <time>2026-04-30T10:53:20Z</time>
      </trkpt>
      <trkpt lat="45.05417" lon="4.39839">
        <ele>1096.7</ele>
        <time>2026-04-30T10:53:25Z</time>
      </trkpt>
      <trkpt lat="45.05417" lon="4.39839">
        <ele>1096.7</ele>
        <time>2026-04-30T10:53:30Z</time>
      </trkpt>
      <trkpt lat="45.05417" lon="4.39839">
        <ele>1096.7</ele>
        <time>2026-04-30T10:53:35Z</time>
      </trkpt>
      <trkpt lat="45.05417" lon="4.39839">
        <ele>1096.7</ele>
        <time>2026-04-30T10:53:40Z</time>
      </trkpt>
      <trkpt lat="45.05417" lon="4.39839">
        <ele>1096.7</ele>
        <time>2026-04-30T10:53:45Z</time>
      </trkpt>
      <trkpt lat="45.05417" lon="4.39839">
        <ele>1096.7</ele>
        <time>2026-04-30T10:53:50Z</time>
      </trkpt>
      <trkpt lat="45.05417" lon="4.39839">
        <ele>1096.7</ele>
        <time>2026-04-30T10:53:55Z</time>
      </trkpt>
      <trkpt lat="45.05417" lon="4.39839">
        <ele>1096.7</ele>
        <time>2026-04-30T10:54:00Z</time>
      </trkpt>
      <trkpt lat="45.05417" lon="4.39839">
        <ele>1096.7</ele>
        <time>2026-04-30T10:54:05Z</time>
      </trkpt>
      <trkpt lat="45.05417" lon="4.39839">
        <ele>1096.7</ele>
        <time>2026-04-30T10:54:10Z</time>
      </trkpt>
      <trkpt lat="45.05417" lon="4.39839">
        <ele>1096.7</ele>
        <time>2026-04-30T10:54:15Z</time>
      </trkpt>
      <trkpt lat="45.05417" lon="4.39839">
        <ele>1096.7</ele>
        <time>2026-04-30T10:54:20Z</time>
      </trkpt>
      <trkpt lat="45.05417" lon="4.39839">
        <ele>1096.7</ele>
        <time>2026-04-30T10:54:25Z</time>
      </trkpt>
      <trkpt lat="45.05417" lon="4.39839">
        <ele>1096.7</ele>
        <time>2026-04-30T10:54:30Z</time>
      </trkpt>
      <trkpt lat="45.05417" lon="4.39839">
        <ele>1096.7</ele>
        <time>2026-04-30T10:54:35Z</time>
      </trkpt>
      <trkpt lat="45.05417" lon="4.39839">
        <ele>1096.7</ele>
        <time>2026-04-30T10:54:40Z</time>
      </trkpt>
      <trkpt lat="45.05417" lon="4.39839">
        <ele>1096.7</ele>
        <time>2026-04-30T10:54:45Z</time>
      </trkpt>
      <trkpt lat="45.05417" lon="4.39839">
        <ele>1096.7</ele>
        <time>2026-04-30T10:54:50Z</time>
      </trkpt>
      <trkpt lat="45.05417" lon="4.39839">
        <ele>1096.7</ele>
        <time>2026-04-30T10:54:55Z</time>
      </trkpt>
      <trkpt lat="45.05417" lon="4.39839">
        <ele>1096.7</ele>
        <time>2026-04-30T10:55:00Z</time>
      </trkpt>
      <trkpt lat="45.05417" lon="4.39839">
        <ele>1096.7</ele>
        <time>2026-04-30T10:55:05Z</time>
      </trkpt>
      <trkpt lat="45.05417" lon="4.39839">
        <ele>1096.7</ele>
        <time>2026-04-30T10:55:10Z</time>
      </trkpt>
      <trkpt lat="45.05417" lon="4.39839">
        <ele>1096.7</ele>
        <time>2026-04-30T10:55:15Z</time>
      </trkpt>
      <trkpt lat="45.05417" lon="4.39839">
        <ele>1096.7</ele>
        <time>2026-04-30T10:55:20Z</time>
      </trkpt>
      <trkpt lat="45.05417" lon="4.39839">
        <ele>1096.7</ele>
        <time>2026-04-30T10:55:25Z</time>
      </trkpt>
      <trkpt lat="45.05417" lon="4.39839">
        <ele>1096.7</ele>
        <time>2026-04-30T10:55:30Z</time>
      </trkpt>
      <trkpt lat="45.05417" lon="4.39839">
        <ele>1096.7</ele>
        <time>2026-04-30T10:55:35Z</time>
      </trkpt>
      <trkpt lat="45.05417" lon="4.39839">
        <ele>1096.7</ele>
        <time>2026-04-30T10:55:40Z</time>
      </trkpt>
      <trkpt lat="45.05417" lon="4.39839">
        <ele>1096.7</ele>
        <time>2026-04-30T10:55:45Z</time>
      </trkpt>
      <trkpt lat="45.05417" lon="4.39839">
        <ele>1096.7</ele>
        <time>2026-04-30T10:55:50Z</time>
      </trkpt>
      <trkpt lat="45.05417" lon="4.39839">
        <ele>1096.7</ele>
        <time>2026-04-30T10:55:55Z</time>
      </trkpt>
      <trkpt lat="45.05417" lon="4.39839">
        <ele>1096.7</ele>
        <time>2026-04-30T10:56:00Z</time>
      </trkpt>
      <trkpt lat="45.05417" lon="4.39839">
        <ele>1096.7</ele>
        <time>2026-04-30T10:56:05Z</time>
      </trkpt>
      <trkpt lat="45.05417" lon="4.39839">
        <ele>1096.7</ele>
        <time>2026-04-30T10:56:10Z</time>
      </trkpt>
      <trkpt lat="45.05417" lon="4.39839">
        <ele>1096.7</ele>
        <time>2026-04-30T10:56:15Z</time>
      </trkpt>
      <trkpt lat="45.05417" lon="4.39839">
        <ele>1096.7</ele>
        <time>2026-04-30T10:56:20Z</time>
      </trkpt>
      <trkpt lat="45.05417" lon="4.39839">
        <ele>1096.7</ele>
        <time>2026-04-30T10:56:25Z</time>
      </trkpt>
      <trkpt lat="45.05417" lon="4.39839">
        <ele>1096.7</ele>
        <time>2026-04-30T10:56:30Z</time>
      </trkpt>
      <trkpt lat="45.05417" lon="4.39839">
        <ele>1096.7</ele>
        <time>2026-04-30T10:56:35Z</time>
      </trkpt>
      <trkpt lat="45.05417" lon="4.39839">
        <ele>1096.7</ele>
        <time>2026-04-30T10:56:40Z</time>
      </trkpt>
      <trkpt lat="45.05417" lon="4.39839">
        <ele>1096.7</ele>
        <time>2026-04-30T10:56:45Z</time>
      </trkpt>
      <trkpt lat="45.05417" lon="4.39839">
        <ele>1096.7</ele>
        <time>2026-04-30T10:56:50Z</time>
      </trkpt>
      <trkpt lat="45.05417" lon="4.39839">
        <ele>1096.7</ele>
        <time>2026-04-30T10:56:55Z</time>
      </trkpt>
      <trkpt lat="45.05417" lon="4.39839">
        <ele>1096.7</ele>
        <time>2026-04-30T10:57:00Z</time>
      </trkpt>
      <trkpt lat="45.05417" lon="4.39839">
        <ele>1096.7</ele>
        <time>2026-04-30T10:57:05Z</time>
      </trkpt>
      <trkpt lat="45.05417" lon="4.39839">
        <ele>1096.7</ele>
        <time>2026-04-30T10:57:10Z</time>
      </trkpt>
      <trkpt lat="45.05417" lon="4.39839">
        <ele>1096.7</ele>
        <time>2026-04-30T10:57:15Z</time>
      </trkpt>
      <trkpt lat="45.05417" lon="4.39839">
        <ele>1096.7</ele>
        <time>2026-04-30T10:57:20Z</time>
      </trkpt>
      <trkpt lat="45.05417" lon="4.39839">
        <ele>1096.7</ele>
        <time>2026-04-30T10:57:25Z</time>
      </trkpt>
      <trkpt lat="45.05417" lon="4.39839">
        <ele>1096.7</ele>
        <time>2026-04-30T10:57:30Z</time>
      </trkpt>
      <trkpt lat="45.05417" lon="4.39839">
        <ele>1096.7</ele>
        <time>2026-04-30T10:57:35Z</time>
      </trkpt>
      <trkpt lat="45.05417" lon="4.39839">
        <ele>1096.7</ele>
        <time>2026-04-30T10:57:40Z</time>
      </trkpt>
      <trkpt lat="45.05417" lon="4.39839">
        <ele>1096.7</ele>
        <time>2026-04-30T10:57:45Z</time>
      </trkpt>
      <trkpt lat="45.05417" lon="4.39839">
        <ele>1096.7</ele>
        <time>2026-04-30T10:57:50Z</time>
      </trkpt>
      <trkpt lat="45.05417" lon="4.39839">
        <ele>1096.7</ele>
        <time>2026-04-30T10:57:55Z</time>
      </trkpt>
      <trkpt lat="45.05417" lon="4.39839">
        <ele>1096.7</ele>
        <time>2026-04-30T10:58:00Z</time>
      </trkpt>
      <trkpt lat="45.05417" lon="4.39839">
        <ele>1096.7</ele>
        <time>2026-04-30T10:58:05Z</time>
      </trkpt>
      <trkpt lat="45.05417" lon="4.39839">
        <ele>1096.7</ele>
        <time>2026-04-30T10:58:10Z</time>
      </trkpt>
      <trkpt lat="45.05417" lon="4.39839">
        <ele>1096.7</ele>
        <time>2026-04-30T10:58:15Z</time>
      </trkpt>
      <trkpt lat="45.05417" lon="4.39839">
        <ele>1096.7</ele>
        <time>2026-04-30T10:58:20Z</time>
      </trkpt>
      <trkpt lat="45.05417" lon="4.39839">
        <ele>1096.7</ele>
        <time>2026-04-30T10:58:25Z</time>
      </trkpt>
      <trkpt lat="45.05417" lon="4.39839">
        <ele>1096.7</ele>
        <time>2026-04-30T10:58:30Z</time>
      </trkpt>
      <trkpt lat="45.05417" lon="4.39839">
        <ele>1096.7</ele>
        <time>2026-04-30T10:58:35Z</time>
      </trkpt>
      <trkpt lat="45.05417" lon="4.39839">
        <ele>1096.7</ele>
        <time>2026-04-30T10:58:40Z</time>
      </trkpt>
      <trkpt lat="45.05417" lon="4.39839">
        <ele>1096.7</ele>
        <time>2026-04-30T10:58:45Z</time>
      </trkpt>
      <trkpt lat="45.05417" lon="4.39839">
        <ele>1096.7</ele>
        <time>2026-04-30T10:58:50Z</time>
      </trkpt>
      <trkpt lat="45.05417" lon="4.39839">
        <ele>1096.7</ele>
        <time>2026-04-30T10:58:55Z</time>
      </trkpt>
      <trkpt lat="45.05417" lon="4.39839">
        <ele>1096.7</ele>
        <time>2026-04-30T10:59:00Z</time>
      </trkpt>
      <trkpt lat="45.05417" lon="4.39839">
        <ele>1096.7</ele>
        <time>2026-04-30T10:59:05Z</time>
      </trkpt>
      <trkpt lat="45.05417" lon="4.39839">
        <ele>1096.7</ele>
        <time>2026-04-30T10:59:10Z</time>
      </trkpt>
      <trkpt lat="45.05417" lon="4.39839">
        <ele>1096.7</ele>
        <time>2026-04-30T10:59:15Z</time>
      </trkpt>
      <trkpt lat="45.05417" lon="4.39839">
        <ele>1096.7</ele>
        <time>2026-04-30T10:59:20Z</time>
      </trkpt>
      <trkpt lat="45.05417" lon="4.39839">
        <ele>1096.7</ele>
        <time>2026-04-30T10:59:25Z</time>
      </trkpt>
      <trkpt lat="45.05417" lon="4.39839">
        <ele>1096.7</ele>
        <time>2026-04-30T10:59:30Z</time>
      </trkpt>
      <trkpt lat="45.05417" lon="4.39839">
        <ele>1096.7</ele>
        <time>2026-04-30T10:59:35Z</time>
      </trkpt>
      <trkpt lat="45.05417" lon="4.39839">
        <ele>1096.7</ele>
        <time>2026-04-30T10:59:40Z</time>
      </trkpt>
      <trkpt lat="45.05417" lon="4.39839">
        <ele>1096.7</ele>
        <time>2026-04-30T10:59:45Z</time>
      </trkpt>
      <trkpt lat="45.05417" lon="4.39839">
        <ele>1096.7</ele>
        <time>2026-04-30T10:59:50Z</time>
      </trkpt>
      <trkpt lat="45.05417" lon="4.39839">
        <ele>1096.7</ele>
        <time>2026-04-30T10:59:55Z</time>
      </trkpt>
      <trkpt lat="45.05417" lon="4.39839">
        <ele>1096.7</ele>
        <time>2026-04-30T11:00:00Z</time>
      </trkpt>
      <trkpt lat="45.05417" lon="4.39839">
        <ele>1096.7</ele>
        <time>2026-04-30T11:00:05Z</time>
      </trkpt>
      <trkpt lat="45.05417" lon="4.39839">
        <ele>1096.7</ele>
        <time>2026-04-30T11:00:10Z</time>
      </trkpt>
      <trkpt lat="45.05417" lon="4.39839">
        <ele>1096.7</ele>
        <time>2026-04-30T11:00:15Z</time>
      </trkpt>
      <trkpt lat="45.05417" lon="4.39839">
        <ele>1096.7</ele>
        <time>2026-04-30T11:00:20Z</time>
      </trkpt>
      <trkpt lat="45.05417" lon="4.39839">
        <ele>1096.7</ele>
        <time>2026-04-30T11:00:25Z</time>
      </trkpt>
      <trkpt lat="45.05417" lon="4.39839">
        <ele>1096.7</ele>
        <time>2026-04-30T11:00:30Z</time>
      </trkpt>
      <trkpt lat="45.05417" lon="4.39839">
        <ele>1096.7</ele>
        <time>2026-04-30T11:00:35Z</time>
      </trkpt>
      <trkpt lat="45.05417" lon="4.39839">
        <ele>1096.7</ele>
        <time>2026-04-30T11:00:40Z</time>
      </trkpt>
      <trkpt lat="45.05417" lon="4.39839">
        <ele>1096.7</ele>
        <time>2026-04-30T11:00:45Z</time>
      </trkpt>
      <trkpt lat="45.05417" lon="4.39839">
        <ele>1096.7</ele>
        <time>2026-04-30T11:00:50Z</time>
      </trkpt>
      <trkpt lat="45.05417" lon="4.39839">
        <ele>1096.7</ele>
        <time>2026-04-30T11:00:55Z</time>
      </trkpt>
      <trkpt lat="45.05417" lon="4.39839">
        <ele>1096.7</ele>
        <time>2026-04-30T11:01:00Z</time>
      </trkpt>
      <trkpt lat="45.05417" lon="4.39847">
        <ele>1096.2</ele>
        <time>2026-04-30T11:01:05Z</time>
      </trkpt>
      <trkpt lat="45.0542" lon="4.3985">
        <ele>1096.3</ele>
        <time>2026-04-30T11:01:10Z</time>
      </trkpt>
      <trkpt lat="45.05422" lon="4.39855">
        <ele>1096.1</ele>
        <time>2026-04-30T11:01:15Z</time>
      </trkpt>
      <trkpt lat="45.05425" lon="4.39859">
        <ele>1096.1</ele>
        <time>2026-04-30T11:01:20Z</time>
      </trkpt>
      <trkpt lat="45.05428" lon="4.39863">
        <ele>1096</ele>
        <time>2026-04-30T11:01:25Z</time>
      </trkpt>
      <trkpt lat="45.05429" lon="4.39869">
        <ele>1095.7</ele>
        <time>2026-04-30T11:01:30Z</time>
      </trkpt>
      <trkpt lat="45.0543" lon="4.39875">
        <ele>1095.4</ele>
        <time>2026-04-30T11:01:35Z</time>
      </trkpt>
      <trkpt lat="45.05432" lon="4.39878">
        <ele>1095.3</ele>
        <time>2026-04-30T11:01:40Z</time>
      </trkpt>
      <trkpt lat="45.05434" lon="4.39881">
        <ele>1095.2</ele>
        <time>2026-04-30T11:01:45Z</time>
      </trkpt>
      <trkpt lat="45.05436" lon="4.39884">
        <ele>1095.2</ele>
        <time>2026-04-30T11:01:50Z</time>
      </trkpt>
      <trkpt lat="45.05438" lon="4.39889">
        <ele>1094.9</ele>
        <time>2026-04-30T11:01:55Z</time>
      </trkpt>
      <trkpt lat="45.05442" lon="4.39892">
        <ele>1095</ele>
        <time>2026-04-30T11:02:00Z</time>
      </trkpt>
      <trkpt lat="45.05444" lon="4.39898">
        <ele>1094.7</ele>
        <time>2026-04-30T11:02:05Z</time>
      </trkpt>
      <trkpt lat="45.05446" lon="4.39904">
        <ele>1094.3</ele>
        <time>2026-04-30T11:02:10Z</time>
      </trkpt>
      <trkpt lat="45.05448" lon="4.39908">
        <ele>1094.1</ele>
        <time>2026-04-30T11:02:15Z</time>
      </trkpt>
      <trkpt lat="45.05449" lon="4.39912">
        <ele>1093.9</ele>
        <time>2026-04-30T11:02:20Z</time>
      </trkpt>
      <trkpt lat="45.0545" lon="4.39915">
        <ele>1093.7</ele>
        <time>2026-04-30T11:02:25Z</time>
      </trkpt>
      <trkpt lat="45.05449" lon="4.3992">
        <ele>1093.5</ele>
        <time>2026-04-30T11:02:30Z</time>
      </trkpt>
      <trkpt lat="45.0545" lon="4.39925">
        <ele>1093.4</ele>
        <time>2026-04-30T11:02:35Z</time>
      </trkpt>
      <trkpt lat="45.05452" lon="4.39928">
        <ele>1093.4</ele>
        <time>2026-04-30T11:02:40Z</time>
      </trkpt>
      <trkpt lat="45.05454" lon="4.39933">
        <ele>1093.3</ele>
        <time>2026-04-30T11:02:45Z</time>
      </trkpt>
      <trkpt lat="45.05455" lon="4.39938">
        <ele>1093.1</ele>
        <time>2026-04-30T11:02:50Z</time>
      </trkpt>
      <trkpt lat="45.05456" lon="4.39942">
        <ele>1093</ele>
        <time>2026-04-30T11:02:55Z</time>
      </trkpt>
      <trkpt lat="45.05457" lon="4.39947">
        <ele>1092.9</ele>
        <time>2026-04-30T11:03:00Z</time>
      </trkpt>
      <trkpt lat="45.05458" lon="4.39951">
        <ele>1092.8</ele>
        <time>2026-04-30T11:03:05Z</time>
      </trkpt>
      <trkpt lat="45.05458" lon="4.39956">
        <ele>1092.6</ele>
        <time>2026-04-30T11:03:10Z</time>
      </trkpt>
      <trkpt lat="45.05459" lon="4.3996">
        <ele>1092.4</ele>
        <time>2026-04-30T11:03:15Z</time>
      </trkpt>
      <trkpt lat="45.0546" lon="4.39964">
        <ele>1092.3</ele>
        <time>2026-04-30T11:03:20Z</time>
      </trkpt>
      <trkpt lat="45.0546" lon="4.3997">
        <ele>1092.1</ele>
        <time>2026-04-30T11:03:25Z</time>
      </trkpt>
      <trkpt lat="45.05461" lon="4.39974">
        <ele>1091.9</ele>
        <time>2026-04-30T11:03:30Z</time>
      </trkpt>
      <trkpt lat="45.05461" lon="4.39976">
        <ele>1091.9</ele>
        <time>2026-04-30T11:03:35Z</time>
      </trkpt>
      <trkpt lat="45.05461" lon="4.39981">
        <ele>1091.7</ele>
        <time>2026-04-30T11:03:40Z</time>
      </trkpt>
      <trkpt lat="45.05461" lon="4.39987">
        <ele>1091.4</ele>
        <time>2026-04-30T11:03:45Z</time>
      </trkpt>
      <trkpt lat="45.05461" lon="4.39994">
        <ele>1091.2</ele>
        <time>2026-04-30T11:03:50Z</time>
      </trkpt>
      <trkpt lat="45.05461" lon="4.4">
        <ele>1090.9</ele>
        <time>2026-04-30T11:03:55Z</time>
      </trkpt>
      <trkpt lat="45.05462" lon="4.40007">
        <ele>1091.1</ele>
        <time>2026-04-30T11:04:00Z</time>
      </trkpt>
      <trkpt lat="45.05462" lon="4.40012">
        <ele>1091.2</ele>
        <time>2026-04-30T11:04:05Z</time>
      </trkpt>
      <trkpt lat="45.05462" lon="4.40018">
        <ele>1091.3</ele>
        <time>2026-04-30T11:04:10Z</time>
      </trkpt>
      <trkpt lat="45.05464" lon="4.40026">
        <ele>1091.4</ele>
        <time>2026-04-30T11:04:15Z</time>
      </trkpt>
      <trkpt lat="45.05465" lon="4.4003">
        <ele>1091.5</ele>
        <time>2026-04-30T11:04:20Z</time>
      </trkpt>
      <trkpt lat="45.05465" lon="4.40033">
        <ele>1091.6</ele>
        <time>2026-04-30T11:04:25Z</time>
      </trkpt>
      <trkpt lat="45.05465" lon="4.40037">
        <ele>1091.7</ele>
        <time>2026-04-30T11:04:30Z</time>
      </trkpt>
      <trkpt lat="45.05465" lon="4.40041">
        <ele>1091.7</ele>
        <time>2026-04-30T11:04:35Z</time>
      </trkpt>
      <trkpt lat="45.05466" lon="4.40045">
        <ele>1091.8</ele>
        <time>2026-04-30T11:04:40Z</time>
      </trkpt>
      <trkpt lat="45.05466" lon="4.40049">
        <ele>1091.9</ele>
        <time>2026-04-30T11:04:45Z</time>
      </trkpt>
      <trkpt lat="45.05465" lon="4.40054">
        <ele>1092</ele>
        <time>2026-04-30T11:04:50Z</time>
      </trkpt>
      <trkpt lat="45.05465" lon="4.40058">
        <ele>1092.1</ele>
        <time>2026-04-30T11:04:55Z</time>
      </trkpt>
      <trkpt lat="45.05468" lon="4.40063">
        <ele>1092.1</ele>
        <time>2026-04-30T11:05:00Z</time>
      </trkpt>
      <trkpt lat="45.05471" lon="4.40067">
        <ele>1092.1</ele>
        <time>2026-04-30T11:05:05Z</time>
      </trkpt>
      <trkpt lat="45.05473" lon="4.40068">
        <ele>1092</ele>
        <time>2026-04-30T11:05:10Z</time>
      </trkpt>
      <trkpt lat="45.05475" lon="4.40073">
        <ele>1092</ele>
        <time>2026-04-30T11:05:15Z</time>
      </trkpt>
      <trkpt lat="45.05477" lon="4.40079">
        <ele>1092</ele>
        <time>2026-04-30T11:05:20Z</time>
      </trkpt>
      <trkpt lat="45.05481" lon="4.40085">
        <ele>1092</ele>
        <time>2026-04-30T11:05:25Z</time>
      </trkpt>
      <trkpt lat="45.05486" lon="4.4009">
        <ele>1092</ele>
        <time>2026-04-30T11:05:30Z</time>
      </trkpt>
      <trkpt lat="45.0549" lon="4.40096">
        <ele>1092.2</ele>
        <time>2026-04-30T11:05:35Z</time>
      </trkpt>
      <trkpt lat="45.05497" lon="4.40102">
        <ele>1092.2</ele>
        <time>2026-04-30T11:05:40Z</time>
      </trkpt>
      <trkpt lat="45.05502" lon="4.40108">
        <ele>1092.6</ele>
        <time>2026-04-30T11:05:45Z</time>
      </trkpt>
      <trkpt lat="45.05507" lon="4.40115">
        <ele>1093.1</ele>
        <time>2026-04-30T11:05:50Z</time>
      </trkpt>
      <trkpt lat="45.05512" lon="4.40117">
        <ele>1093.4</ele>
        <time>2026-04-30T11:05:55Z</time>
      </trkpt>
      <trkpt lat="45.0551" lon="4.40114">
        <ele>1093.2</ele>
        <time>2026-04-30T11:06:00Z</time>
      </trkpt>
      <trkpt lat="45.05506" lon="4.40109">
        <ele>1092.8</ele>
        <time>2026-04-30T11:06:05Z</time>
      </trkpt>
      <trkpt lat="45.055" lon="4.40104">
        <ele>1092.2</ele>
        <time>2026-04-30T11:06:10Z</time>
      </trkpt>
      <trkpt lat="45.05495" lon="4.401">
        <ele>1092.2</ele>
        <time>2026-04-30T11:06:15Z</time>
      </trkpt>
      <trkpt lat="45.0549" lon="4.40095">
        <ele>1092.1</ele>
        <time>2026-04-30T11:06:20Z</time>
      </trkpt>
      <trkpt lat="45.05484" lon="4.4009">
        <ele>1092.1</ele>
        <time>2026-04-30T11:06:25Z</time>
      </trkpt>
      <trkpt lat="45.05482" lon="4.40086">
        <ele>1092</ele>
        <time>2026-04-30T11:06:30Z</time>
      </trkpt>
      <trkpt lat="45.05479" lon="4.40078">
        <ele>1091.9</ele>
        <time>2026-04-30T11:06:35Z</time>
      </trkpt>
      <trkpt lat="45.05477" lon="4.40071">
        <ele>1091.9</ele>
        <time>2026-04-30T11:06:40Z</time>
      </trkpt>
      <trkpt lat="45.05474" lon="4.40064">
        <ele>1091.9</ele>
        <time>2026-04-30T11:06:45Z</time>
      </trkpt>
      <trkpt lat="45.05476" lon="4.40055">
        <ele>1091.6</ele>
        <time>2026-04-30T11:06:50Z</time>
      </trkpt>
      <trkpt lat="45.05477" lon="4.40047">
        <ele>1091.4</ele>
        <time>2026-04-30T11:06:55Z</time>
      </trkpt>
      <trkpt lat="45.05478" lon="4.40041">
        <ele>1091.3</ele>
        <time>2026-04-30T11:07:00Z</time>
      </trkpt>
      <trkpt lat="45.05477" lon="4.40036">
        <ele>1091.2</ele>
        <time>2026-04-30T11:07:05Z</time>
      </trkpt>
      <trkpt lat="45.05478" lon="4.40033">
        <ele>1091.1</ele>
        <time>2026-04-30T11:07:10Z</time>
      </trkpt>
      <trkpt lat="45.05479" lon="4.40032">
        <ele>1091.1</ele>
        <time>2026-04-30T11:07:15Z</time>
      </trkpt>
      <trkpt lat="45.05485" lon="4.40039">
        <ele>1091</ele>
        <time>2026-04-30T11:07:20Z</time>
      </trkpt>
      <trkpt lat="45.0549" lon="4.40042">
        <ele>1090.9</ele>
        <time>2026-04-30T11:07:25Z</time>
      </trkpt>
      <trkpt lat="45.05496" lon="4.40042">
        <ele>1090.6</ele>
        <time>2026-04-30T11:07:30Z</time>
      </trkpt>
      <trkpt lat="45.05497" lon="4.40033">
        <ele>1090.5</ele>
        <time>2026-04-30T11:07:35Z</time>
      </trkpt>
      <trkpt lat="45.05499" lon="4.40025">
        <ele>1090.3</ele>
        <time>2026-04-30T11:07:40Z</time>
      </trkpt>
      <trkpt lat="45.055" lon="4.40015">
        <ele>1090.2</ele>
        <time>2026-04-30T11:07:45Z</time>
      </trkpt>
      <trkpt lat="45.05502" lon="4.40007">
        <ele>1090.3</ele>
        <time>2026-04-30T11:07:50Z</time>
      </trkpt>
      <trkpt lat="45.05506" lon="4.40003">
        <ele>1090.7</ele>
        <time>2026-04-30T11:07:55Z</time>
      </trkpt>
      <trkpt lat="45.0551" lon="4.39995">
        <ele>1091.4</ele>
        <time>2026-04-30T11:08:00Z</time>
      </trkpt>
      <trkpt lat="45.05515" lon="4.3999">
        <ele>1092.3</ele>
        <time>2026-04-30T11:08:05Z</time>
      </trkpt>
      <trkpt lat="45.05515" lon="4.39989">
        <ele>1092.4</ele>
        <time>2026-04-30T11:08:10Z</time>
      </trkpt>
      <trkpt lat="45.05513" lon="4.39988">
        <ele>1092.2</ele>
        <time>2026-04-30T11:08:15Z</time>
      </trkpt>
      <trkpt lat="45.05513" lon="4.39987">
        <ele>1092.3</ele>
        <time>2026-04-30T11:08:20Z</time>
      </trkpt>
      <trkpt lat="45.05513" lon="4.39987">
        <ele>1092.3</ele>
        <time>2026-04-30T11:08:25Z</time>
      </trkpt>
      <trkpt lat="45.05513" lon="4.39987">
        <ele>1092.3</ele>
        <time>2026-04-30T11:08:30Z</time>
      </trkpt>
      <trkpt lat="45.05513" lon="4.39987">
        <ele>1092.3</ele>
        <time>2026-04-30T11:08:35Z</time>
      </trkpt>
      <trkpt lat="45.05513" lon="4.39987">
        <ele>1092.3</ele>
        <time>2026-04-30T11:08:40Z</time>
      </trkpt>
      <trkpt lat="45.05513" lon="4.39987">
        <ele>1092.3</ele>
        <time>2026-04-30T11:08:45Z</time>
      </trkpt>
      <trkpt lat="45.05513" lon="4.39987">
        <ele>1092.3</ele>
        <time>2026-04-30T11:08:50Z</time>
      </trkpt>
      <trkpt lat="45.05513" lon="4.39987">
        <ele>1092.3</ele>
        <time>2026-04-30T11:08:55Z</time>
      </trkpt>
      <trkpt lat="45.05513" lon="4.39987">
        <ele>1092.3</ele>
        <time>2026-04-30T11:09:00Z</time>
      </trkpt>
      <trkpt lat="45.05513" lon="4.39987">
        <ele>1092.3</ele>
        <time>2026-04-30T11:09:05Z</time>
      </trkpt>
      <trkpt lat="45.05513" lon="4.39987">
        <ele>1092.3</ele>
        <time>2026-04-30T11:09:10Z</time>
      </trkpt>
      <trkpt lat="45.05513" lon="4.39987">
        <ele>1092.3</ele>
        <time>2026-04-30T11:09:15Z</time>
      </trkpt>
      <trkpt lat="45.05513" lon="4.39987">
        <ele>1092.3</ele>
        <time>2026-04-30T11:09:20Z</time>
      </trkpt>
      <trkpt lat="45.05513" lon="4.39987">
        <ele>1092.3</ele>
        <time>2026-04-30T11:09:25Z</time>
      </trkpt>
      <trkpt lat="45.05513" lon="4.39987">
        <ele>1092.3</ele>
        <time>2026-04-30T11:09:30Z</time>
      </trkpt>
      <trkpt lat="45.05517" lon="4.39977">
        <ele>1093.4</ele>
        <time>2026-04-30T11:09:35Z</time>
      </trkpt>
      <trkpt lat="45.05522" lon="4.39972">
        <ele>1094.2</ele>
        <time>2026-04-30T11:09:40Z</time>
      </trkpt>
      <trkpt lat="45.05526" lon="4.39966">
        <ele>1095</ele>
        <time>2026-04-30T11:09:45Z</time>
      </trkpt>
      <trkpt lat="45.05529" lon="4.3996">
        <ele>1095.7</ele>
        <time>2026-04-30T11:09:50Z</time>
      </trkpt>
      <trkpt lat="45.05534" lon="4.39956">
        <ele>1096.4</ele>
        <time>2026-04-30T11:09:55Z</time>
      </trkpt>
      <trkpt lat="45.05537" lon="4.39952">
        <ele>1096.9</ele>
        <time>2026-04-30T11:10:00Z</time>
      </trkpt>
      <trkpt lat="45.05542" lon="4.39947">
        <ele>1097.7</ele>
        <time>2026-04-30T11:10:05Z</time>
      </trkpt>
      <trkpt lat="45.05546" lon="4.39942">
        <ele>1098.4</ele>
        <time>2026-04-30T11:10:10Z</time>
      </trkpt>
      <trkpt lat="45.05549" lon="4.39937">
        <ele>1098.9</ele>
        <time>2026-04-30T11:10:15Z</time>
      </trkpt>
      <trkpt lat="45.05552" lon="4.39929">
        <ele>1099.7</ele>
        <time>2026-04-30T11:10:20Z</time>
      </trkpt>
      <trkpt lat="45.05555" lon="4.39922">
        <ele>1100.3</ele>
        <time>2026-04-30T11:10:25Z</time>
      </trkpt>
      <trkpt lat="45.05559" lon="4.39915">
        <ele>1101.1</ele>
        <time>2026-04-30T11:10:30Z</time>
      </trkpt>
      <trkpt lat="45.05563" lon="4.39909">
        <ele>1101.7</ele>
        <time>2026-04-30T11:10:35Z</time>
      </trkpt>
      <trkpt lat="45.05567" lon="4.39904">
        <ele>1102.4</ele>
        <time>2026-04-30T11:10:40Z</time>
      </trkpt>
      <trkpt lat="45.05571" lon="4.39897">
        <ele>1103</ele>
        <time>2026-04-30T11:10:45Z</time>
      </trkpt>
      <trkpt lat="45.05576" lon="4.39892">
        <ele>1103.7</ele>
        <time>2026-04-30T11:10:50Z</time>
      </trkpt>
      <trkpt lat="45.0558" lon="4.39887">
        <ele>1104.2</ele>
        <time>2026-04-30T11:10:55Z</time>
      </trkpt>
      <trkpt lat="45.05583" lon="4.39884">
        <ele>1104.5</ele>
        <time>2026-04-30T11:11:00Z</time>
      </trkpt>
      <trkpt lat="45.05587" lon="4.3988">
        <ele>1104.8</ele>
        <time>2026-04-30T11:11:05Z</time>
      </trkpt>
      <trkpt lat="45.05592" lon="4.39874">
        <ele>1105.2</ele>
        <time>2026-04-30T11:11:10Z</time>
      </trkpt>
      <trkpt lat="45.05596" lon="4.3987">
        <ele>1105.4</ele>
        <time>2026-04-30T11:11:15Z</time>
      </trkpt>
      <trkpt lat="45.05601" lon="4.39864">
        <ele>1105.7</ele>
        <time>2026-04-30T11:11:20Z</time>
      </trkpt>
      <trkpt lat="45.05607" lon="4.39856">
        <ele>1106.2</ele>
        <time>2026-04-30T11:11:25Z</time>
      </trkpt>
      <trkpt lat="45.05614" lon="4.39848">
        <ele>1106.7</ele>
        <time>2026-04-30T11:11:30Z</time>
      </trkpt>
      <trkpt lat="45.05617" lon="4.39842">
        <ele>1107</ele>
        <time>2026-04-30T11:11:35Z</time>
      </trkpt>
      <trkpt lat="45.05623" lon="4.39839">
        <ele>1107.2</ele>
        <time>2026-04-30T11:11:40Z</time>
      </trkpt>
      <trkpt lat="45.0563" lon="4.39836">
        <ele>1107.4</ele>
        <time>2026-04-30T11:11:45Z</time>
      </trkpt>
      <trkpt lat="45.05634" lon="4.39833">
        <ele>1107.6</ele>
        <time>2026-04-30T11:11:50Z</time>
      </trkpt>
      <trkpt lat="45.05639" lon="4.39828">
        <ele>1107.7</ele>
        <time>2026-04-30T11:11:55Z</time>
      </trkpt>
      <trkpt lat="45.05642" lon="4.39821">
        <ele>1107.7</ele>
        <time>2026-04-30T11:12:00Z</time>
      </trkpt>
      <trkpt lat="45.05645" lon="4.39816">
        <ele>1107.7</ele>
        <time>2026-04-30T11:12:05Z</time>
      </trkpt>
      <trkpt lat="45.0565" lon="4.39805">
        <ele>1107.8</ele>
        <time>2026-04-30T11:12:10Z</time>
      </trkpt>
      <trkpt lat="45.05655" lon="4.39796">
        <ele>1107.9</ele>
        <time>2026-04-30T11:12:15Z</time>
      </trkpt>
      <trkpt lat="45.05661" lon="4.39788">
        <ele>1107.9</ele>
        <time>2026-04-30T11:12:20Z</time>
      </trkpt>
      <trkpt lat="45.05665" lon="4.39781">
        <ele>1108</ele>
        <time>2026-04-30T11:12:25Z</time>
      </trkpt>
      <trkpt lat="45.05669" lon="4.39776">
        <ele>1108.2</ele>
        <time>2026-04-30T11:12:30Z</time>
      </trkpt>
      <trkpt lat="45.05671" lon="4.39772">
        <ele>1108.3</ele>
        <time>2026-04-30T11:12:35Z</time>
      </trkpt>
      <trkpt lat="45.05674" lon="4.39767">
        <ele>1108.5</ele>
        <time>2026-04-30T11:12:40Z</time>
      </trkpt>
      <trkpt lat="45.05678" lon="4.39759">
        <ele>1108.8</ele>
        <time>2026-04-30T11:12:45Z</time>
      </trkpt>
      <trkpt lat="45.05682" lon="4.39752">
        <ele>1109.1</ele>
        <time>2026-04-30T11:12:50Z</time>
      </trkpt>
      <trkpt lat="45.05687" lon="4.39745">
        <ele>1109.1</ele>
        <time>2026-04-30T11:12:55Z</time>
      </trkpt>
      <trkpt lat="45.05692" lon="4.39738">
        <ele>1109</ele>
        <time>2026-04-30T11:13:00Z</time>
      </trkpt>
      <trkpt lat="45.05696" lon="4.39731">
        <ele>1108.8</ele>
        <time>2026-04-30T11:13:05Z</time>
      </trkpt>
      <trkpt lat="45.057" lon="4.39726">
        <ele>1108.8</ele>
        <time>2026-04-30T11:13:10Z</time>
      </trkpt>
      <trkpt lat="45.05703" lon="4.39721">
        <ele>1108.8</ele>
        <time>2026-04-30T11:13:15Z</time>
      </trkpt>
      <trkpt lat="45.05708" lon="4.39713">
        <ele>1108.7</ele>
        <time>2026-04-30T11:13:20Z</time>
      </trkpt>
      <trkpt lat="45.05713" lon="4.39707">
        <ele>1108.9</ele>
        <time>2026-04-30T11:13:25Z</time>
      </trkpt>
      <trkpt lat="45.05718" lon="4.39701">
        <ele>1109</ele>
        <time>2026-04-30T11:13:30Z</time>
      </trkpt>
      <trkpt lat="45.05723" lon="4.39693">
        <ele>1109.1</ele>
        <time>2026-04-30T11:13:35Z</time>
      </trkpt>
      <trkpt lat="45.05726" lon="4.39686">
        <ele>1109.1</ele>
        <time>2026-04-30T11:13:40Z</time>
      </trkpt>
      <trkpt lat="45.05732" lon="4.39681">
        <ele>1109.5</ele>
        <time>2026-04-30T11:13:45Z</time>
      </trkpt>
      <trkpt lat="45.05736" lon="4.39674">
        <ele>1109.6</ele>
        <time>2026-04-30T11:13:50Z</time>
      </trkpt>
      <trkpt lat="45.05742" lon="4.39666">
        <ele>1110</ele>
        <time>2026-04-30T11:13:55Z</time>
      </trkpt>
      <trkpt lat="45.05748" lon="4.39659">
        <ele>1110.2</ele>
        <time>2026-04-30T11:14:00Z</time>
      </trkpt>
      <trkpt lat="45.05753" lon="4.39651">
        <ele>1110.1</ele>
        <time>2026-04-30T11:14:05Z</time>
      </trkpt>
      <trkpt lat="45.05758" lon="4.39646">
        <ele>1110.1</ele>
        <time>2026-04-30T11:14:10Z</time>
      </trkpt>
      <trkpt lat="45.05763" lon="4.3964">
        <ele>1110</ele>
        <time>2026-04-30T11:14:15Z</time>
      </trkpt>
      <trkpt lat="45.05769" lon="4.39633">
        <ele>1109.9</ele>
        <time>2026-04-30T11:14:20Z</time>
      </trkpt>
      <trkpt lat="45.05774" lon="4.39627">
        <ele>1109.7</ele>
        <time>2026-04-30T11:14:25Z</time>
      </trkpt>
      <trkpt lat="45.05779" lon="4.39618">
        <ele>1109.4</ele>
        <time>2026-04-30T11:14:30Z</time>
      </trkpt>
      <trkpt lat="45.05784" lon="4.3961">
        <ele>1109.1</ele>
        <time>2026-04-30T11:14:35Z</time>
      </trkpt>
      <trkpt lat="45.0579" lon="4.39602">
        <ele>1108.9</ele>
        <time>2026-04-30T11:14:40Z</time>
      </trkpt>
      <trkpt lat="45.05795" lon="4.39594">
        <ele>1108.5</ele>
        <time>2026-04-30T11:14:45Z</time>
      </trkpt>
      <trkpt lat="45.05798" lon="4.39588">
        <ele>1108.2</ele>
        <time>2026-04-30T11:14:50Z</time>
      </trkpt>
      <trkpt lat="45.05803" lon="4.39581">
        <ele>1108.1</ele>
        <time>2026-04-30T11:14:55Z</time>
      </trkpt>
      <trkpt lat="45.05809" lon="4.39572">
        <ele>1108.1</ele>
        <time>2026-04-30T11:15:00Z</time>
      </trkpt>
      <trkpt lat="45.05817" lon="4.39562">
        <ele>1108.2</ele>
        <time>2026-04-30T11:15:05Z</time>
      </trkpt>
      <trkpt lat="45.05822" lon="4.39556">
        <ele>1108.3</ele>
        <time>2026-04-30T11:15:10Z</time>
      </trkpt>
      <trkpt lat="45.05826" lon="4.39551">
        <ele>1108.4</ele>
        <time>2026-04-30T11:15:15Z</time>
      </trkpt>
      <trkpt lat="45.0583" lon="4.39547">
        <ele>1108.5</ele>
        <time>2026-04-30T11:15:20Z</time>
      </trkpt>
      <trkpt lat="45.05834" lon="4.3954">
        <ele>1108.5</ele>
        <time>2026-04-30T11:15:25Z</time>
      </trkpt>
      <trkpt lat="45.05838" lon="4.39534">
        <ele>1108.9</ele>
        <time>2026-04-30T11:15:30Z</time>
      </trkpt>
      <trkpt lat="45.05841" lon="4.39526">
        <ele>1109</ele>
        <time>2026-04-30T11:15:35Z</time>
      </trkpt>
      <trkpt lat="45.05843" lon="4.39518">
        <ele>1109</ele>
        <time>2026-04-30T11:15:40Z</time>
      </trkpt>
      <trkpt lat="45.05848" lon="4.39509">
        <ele>1109.4</ele>
        <time>2026-04-30T11:15:45Z</time>
      </trkpt>
      <trkpt lat="45.05851" lon="4.39499">
        <ele>1109.5</ele>
        <time>2026-04-30T11:15:50Z</time>
      </trkpt>
      <trkpt lat="45.05853" lon="4.39494">
        <ele>1109.6</ele>
        <time>2026-04-30T11:15:55Z</time>
      </trkpt>
      <trkpt lat="45.05858" lon="4.39488">
        <ele>1110.1</ele>
        <time>2026-04-30T11:16:00Z</time>
      </trkpt>
      <trkpt lat="45.05863" lon="4.39478">
        <ele>1110.5</ele>
        <time>2026-04-30T11:16:05Z</time>
      </trkpt>
      <trkpt lat="45.05865" lon="4.3947">
        <ele>1110.5</ele>
        <time>2026-04-30T11:16:10Z</time>
      </trkpt>
      <trkpt lat="45.05865" lon="4.39464">
        <ele>1110.3</ele>
        <time>2026-04-30T11:16:15Z</time>
      </trkpt>
      <trkpt lat="45.05868" lon="4.39459">
        <ele>1110.5</ele>
        <time>2026-04-30T11:16:20Z</time>
      </trkpt>
      <trkpt lat="45.05873" lon="4.39454">
        <ele>1111.1</ele>
        <time>2026-04-30T11:16:25Z</time>
      </trkpt>
      <trkpt lat="45.05878" lon="4.39445">
        <ele>1111.5</ele>
        <time>2026-04-30T11:16:30Z</time>
      </trkpt>
      <trkpt lat="45.05883" lon="4.39437">
        <ele>1111.9</ele>
        <time>2026-04-30T11:16:35Z</time>
      </trkpt>
      <trkpt lat="45.05886" lon="4.39431">
        <ele>1112.1</ele>
        <time>2026-04-30T11:16:40Z</time>
      </trkpt>
      <trkpt lat="45.05889" lon="4.39426">
        <ele>1112.4</ele>
        <time>2026-04-30T11:16:45Z</time>
      </trkpt>
      <trkpt lat="45.05894" lon="4.3942">
        <ele>1112.9</ele>
        <time>2026-04-30T11:16:50Z</time>
      </trkpt>
      <trkpt lat="45.05899" lon="4.39414">
        <ele>1113.2</ele>
        <time>2026-04-30T11:16:55Z</time>
      </trkpt>
      <trkpt lat="45.05904" lon="4.39409">
        <ele>1113.5</ele>
        <time>2026-04-30T11:17:00Z</time>
      </trkpt>
      <trkpt lat="45.05908" lon="4.39404">
        <ele>1113.6</ele>
        <time>2026-04-30T11:17:05Z</time>
      </trkpt>
      <trkpt lat="45.05912" lon="4.394">
        <ele>1113.8</ele>
        <time>2026-04-30T11:17:10Z</time>
      </trkpt>
      <trkpt lat="45.05916" lon="4.39395">
        <ele>1113.8</ele>
        <time>2026-04-30T11:17:15Z</time>
      </trkpt>
      <trkpt lat="45.05921" lon="4.39391">
        <ele>1114</ele>
        <time>2026-04-30T11:17:20Z</time>
      </trkpt>
      <trkpt lat="45.05926" lon="4.39386">
        <ele>1114</ele>
        <time>2026-04-30T11:17:25Z</time>
      </trkpt>
      <trkpt lat="45.05931" lon="4.39381">
        <ele>1114.1</ele>
        <time>2026-04-30T11:17:30Z</time>
      </trkpt>
      <trkpt lat="45.05936" lon="4.39376">
        <ele>1114.2</ele>
        <time>2026-04-30T11:17:35Z</time>
      </trkpt>
      <trkpt lat="45.05941" lon="4.3937">
        <ele>1114.2</ele>
        <time>2026-04-30T11:17:40Z</time>
      </trkpt>
      <trkpt lat="45.05947" lon="4.39363">
        <ele>1114.2</ele>
        <time>2026-04-30T11:17:45Z</time>
      </trkpt>
      <trkpt lat="45.05953" lon="4.39357">
        <ele>1114.4</ele>
        <time>2026-04-30T11:17:50Z</time>
      </trkpt>
      <trkpt lat="45.05957" lon="4.39355">
        <ele>1114.7</ele>
        <time>2026-04-30T11:17:55Z</time>
      </trkpt>
      <trkpt lat="45.05963" lon="4.39351">
        <ele>1115</ele>
        <time>2026-04-30T11:18:00Z</time>
      </trkpt>
      <trkpt lat="45.05968" lon="4.39346">
        <ele>1115.2</ele>
        <time>2026-04-30T11:18:05Z</time>
      </trkpt>
      <trkpt lat="45.05974" lon="4.39342">
        <ele>1115.6</ele>
        <time>2026-04-30T11:18:10Z</time>
      </trkpt>
      <trkpt lat="45.0598" lon="4.39338">
        <ele>1116</ele>
        <time>2026-04-30T11:18:15Z</time>
      </trkpt>
      <trkpt lat="45.05986" lon="4.39334">
        <ele>1116.4</ele>
        <time>2026-04-30T11:18:20Z</time>
      </trkpt>
      <trkpt lat="45.05991" lon="4.39329">
        <ele>1116.5</ele>
        <time>2026-04-30T11:18:25Z</time>
      </trkpt>
      <trkpt lat="45.05997" lon="4.39324">
        <ele>1116.7</ele>
        <time>2026-04-30T11:18:30Z</time>
      </trkpt>
      <trkpt lat="45.06002" lon="4.3932">
        <ele>1116.9</ele>
        <time>2026-04-30T11:18:35Z</time>
      </trkpt>
      <trkpt lat="45.0601" lon="4.39313">
        <ele>1116.9</ele>
        <time>2026-04-30T11:18:40Z</time>
      </trkpt>
      <trkpt lat="45.06016" lon="4.39307">
        <ele>1116.8</ele>
        <time>2026-04-30T11:18:45Z</time>
      </trkpt>
      <trkpt lat="45.06025" lon="4.39301">
        <ele>1116.9</ele>
        <time>2026-04-30T11:18:50Z</time>
      </trkpt>
      <trkpt lat="45.06031" lon="4.39296">
        <ele>1116.9</ele>
        <time>2026-04-30T11:18:55Z</time>
      </trkpt>
      <trkpt lat="45.06038" lon="4.39291">
        <ele>1116.9</ele>
        <time>2026-04-30T11:19:00Z</time>
      </trkpt>
      <trkpt lat="45.06044" lon="4.39287">
        <ele>1117</ele>
        <time>2026-04-30T11:19:05Z</time>
      </trkpt>
      <trkpt lat="45.06049" lon="4.39281">
        <ele>1116.7</ele>
        <time>2026-04-30T11:19:10Z</time>
      </trkpt>
      <trkpt lat="45.06055" lon="4.39276">
        <ele>1116.7</ele>
        <time>2026-04-30T11:19:15Z</time>
      </trkpt>
      <trkpt lat="45.06063" lon="4.39271">
        <ele>1116.7</ele>
        <time>2026-04-30T11:19:20Z</time>
      </trkpt>
      <trkpt lat="45.06071" lon="4.39267">
        <ele>1116.9</ele>
        <time>2026-04-30T11:19:25Z</time>
      </trkpt>
      <trkpt lat="45.06079" lon="4.39264">
        <ele>1117.2</ele>
        <time>2026-04-30T11:19:30Z</time>
      </trkpt>
      <trkpt lat="45.06086" lon="4.39263">
        <ele>1117.5</ele>
        <time>2026-04-30T11:19:35Z</time>
      </trkpt>
      <trkpt lat="45.06093" lon="4.39263">
        <ele>1117.9</ele>
        <time>2026-04-30T11:19:40Z</time>
      </trkpt>
      <trkpt lat="45.06101" lon="4.39263">
        <ele>1118.4</ele>
        <time>2026-04-30T11:19:45Z</time>
      </trkpt>
      <trkpt lat="45.06108" lon="4.39265">
        <ele>1118.9</ele>
        <time>2026-04-30T11:19:50Z</time>
      </trkpt>
      <trkpt lat="45.06115" lon="4.39263">
        <ele>1119.1</ele>
        <time>2026-04-30T11:19:55Z</time>
      </trkpt>
      <trkpt lat="45.06121" lon="4.39262">
        <ele>1119.4</ele>
        <time>2026-04-30T11:20:00Z</time>
      </trkpt>
      <trkpt lat="45.06123" lon="4.39261">
        <ele>1119.4</ele>
        <time>2026-04-30T11:20:05Z</time>
      </trkpt>
      <trkpt lat="45.06124" lon="4.39261">
        <ele>1119.4</ele>
        <time>2026-04-30T11:20:10Z</time>
      </trkpt>
      <trkpt lat="45.06124" lon="4.39261">
        <ele>1119.4</ele>
        <time>2026-04-30T11:20:15Z</time>
      </trkpt>
      <trkpt lat="45.06125" lon="4.39264">
        <ele>1119.8</ele>
        <time>2026-04-30T11:20:20Z</time>
      </trkpt>
      <trkpt lat="45.06128" lon="4.39264">
        <ele>1119.9</ele>
        <time>2026-04-30T11:20:25Z</time>
      </trkpt>
      <trkpt lat="45.06134" lon="4.39266">
        <ele>1120.4</ele>
        <time>2026-04-30T11:20:30Z</time>
      </trkpt>
      <trkpt lat="45.0614" lon="4.39267">
        <ele>1120.8</ele>
        <time>2026-04-30T11:20:35Z</time>
      </trkpt>
      <trkpt lat="45.06146" lon="4.3927">
        <ele>1121.4</ele>
        <time>2026-04-30T11:20:40Z</time>
      </trkpt>
      <trkpt lat="45.06152" lon="4.39272">
        <ele>1121.8</ele>
        <time>2026-04-30T11:20:45Z</time>
      </trkpt>
      <trkpt lat="45.06158" lon="4.39275">
        <ele>1122.4</ele>
        <time>2026-04-30T11:20:50Z</time>
      </trkpt>
      <trkpt lat="45.06163" lon="4.39279">
        <ele>1122.9</ele>
        <time>2026-04-30T11:20:55Z</time>
      </trkpt>
      <trkpt lat="45.0617" lon="4.39281">
        <ele>1123</ele>
        <time>2026-04-30T11:21:00Z</time>
      </trkpt>
      <trkpt lat="45.06177" lon="4.39285">
        <ele>1122.9</ele>
        <time>2026-04-30T11:21:05Z</time>
      </trkpt>
      <trkpt lat="45.06185" lon="4.39289">
        <ele>1122.7</ele>
        <time>2026-04-30T11:21:10Z</time>
      </trkpt>
      <trkpt lat="45.06193" lon="4.39291">
        <ele>1122.4</ele>
        <time>2026-04-30T11:21:15Z</time>
      </trkpt>
      <trkpt lat="45.062" lon="4.39293">
        <ele>1122.1</ele>
        <time>2026-04-30T11:21:20Z</time>
      </trkpt>
      <trkpt lat="45.06208" lon="4.39296">
        <ele>1121.8</ele>
        <time>2026-04-30T11:21:25Z</time>
      </trkpt>
      <trkpt lat="45.06215" lon="4.39295">
        <ele>1121.3</ele>
        <time>2026-04-30T11:21:30Z</time>
      </trkpt>
      <trkpt lat="45.06223" lon="4.39296">
        <ele>1120.9</ele>
        <time>2026-04-30T11:21:35Z</time>
      </trkpt>
      <trkpt lat="45.06229" lon="4.39294">
        <ele>1120.4</ele>
        <time>2026-04-30T11:21:40Z</time>
      </trkpt>
      <trkpt lat="45.06236" lon="4.39292">
        <ele>1119.9</ele>
        <time>2026-04-30T11:21:45Z</time>
      </trkpt>
      <trkpt lat="45.06243" lon="4.39289">
        <ele>1119.3</ele>
        <time>2026-04-30T11:21:50Z</time>
      </trkpt>
      <trkpt lat="45.06247" lon="4.39287">
        <ele>1119</ele>
        <time>2026-04-30T11:21:55Z</time>
      </trkpt>
      <trkpt lat="45.06254" lon="4.39283">
        <ele>1118.7</ele>
        <time>2026-04-30T11:22:00Z</time>
      </trkpt>
      <trkpt lat="45.0626" lon="4.39279">
        <ele>1118.7</ele>
        <time>2026-04-30T11:22:05Z</time>
      </trkpt>
      <trkpt lat="45.06268" lon="4.39277">
        <ele>1118.8</ele>
        <time>2026-04-30T11:22:10Z</time>
      </trkpt>
      <trkpt lat="45.06274" lon="4.39271">
        <ele>1118.7</ele>
        <time>2026-04-30T11:22:15Z</time>
      </trkpt>
      <trkpt lat="45.0628" lon="4.39265">
        <ele>1118.7</ele>
        <time>2026-04-30T11:22:20Z</time>
      </trkpt>
      <trkpt lat="45.0629" lon="4.39262">
        <ele>1118.9</ele>
        <time>2026-04-30T11:22:25Z</time>
      </trkpt>
      <trkpt lat="45.06301" lon="4.39256">
        <ele>1119</ele>
        <time>2026-04-30T11:22:30Z</time>
      </trkpt>
      <trkpt lat="45.06305" lon="4.39256">
        <ele>1119.2</ele>
        <time>2026-04-30T11:22:35Z</time>
      </trkpt>
      <trkpt lat="45.0631" lon="4.39252">
        <ele>1119.2</ele>
        <time>2026-04-30T11:22:40Z</time>
      </trkpt>
      <trkpt lat="45.06318" lon="4.39248">
        <ele>1119.3</ele>
        <time>2026-04-30T11:22:45Z</time>
      </trkpt>
      <trkpt lat="45.06325" lon="4.39244">
        <ele>1119.3</ele>
        <time>2026-04-30T11:22:50Z</time>
      </trkpt>
      <trkpt lat="45.06329" lon="4.3924">
        <ele>1119.2</ele>
        <time>2026-04-30T11:22:55Z</time>
      </trkpt>
      <trkpt lat="45.06332" lon="4.39238">
        <ele>1119.2</ele>
        <time>2026-04-30T11:23:00Z</time>
      </trkpt>
      <trkpt lat="45.06335" lon="4.39235">
        <ele>1119.2</ele>
        <time>2026-04-30T11:23:05Z</time>
      </trkpt>
      <trkpt lat="45.06341" lon="4.39231">
        <ele>1119.4</ele>
        <time>2026-04-30T11:23:10Z</time>
      </trkpt>
      <trkpt lat="45.06348" lon="4.39229">
        <ele>1119.7</ele>
        <time>2026-04-30T11:23:15Z</time>
      </trkpt>
      <trkpt lat="45.06355" lon="4.39226">
        <ele>1120</ele>
        <time>2026-04-30T11:23:20Z</time>
      </trkpt>
      <trkpt lat="45.06359" lon="4.39223">
        <ele>1120.1</ele>
        <time>2026-04-30T11:23:25Z</time>
      </trkpt>
      <trkpt lat="45.06365" lon="4.39221">
        <ele>1120.4</ele>
        <time>2026-04-30T11:23:30Z</time>
      </trkpt>
      <trkpt lat="45.0637" lon="4.39219">
        <ele>1120.7</ele>
        <time>2026-04-30T11:23:35Z</time>
      </trkpt>
      <trkpt lat="45.06374" lon="4.39215">
        <ele>1120.7</ele>
        <time>2026-04-30T11:23:40Z</time>
      </trkpt>
      <trkpt lat="45.0638" lon="4.3921">
        <ele>1120.9</ele>
        <time>2026-04-30T11:23:45Z</time>
      </trkpt>
      <trkpt lat="45.06385" lon="4.39208">
        <ele>1121.2</ele>
        <time>2026-04-30T11:23:50Z</time>
      </trkpt>
      <trkpt lat="45.0639" lon="4.39205">
        <ele>1121.4</ele>
        <time>2026-04-30T11:23:55Z</time>
      </trkpt>
      <trkpt lat="45.06394" lon="4.39206">
        <ele>1121.8</ele>
        <time>2026-04-30T11:24:00Z</time>
      </trkpt>
      <trkpt lat="45.06397" lon="4.39205">
        <ele>1121.9</ele>
        <time>2026-04-30T11:24:05Z</time>
      </trkpt>
      <trkpt lat="45.064" lon="4.39203">
        <ele>1122.1</ele>
        <time>2026-04-30T11:24:10Z</time>
      </trkpt>
      <trkpt lat="45.06405" lon="4.392">
        <ele>1122.3</ele>
        <time>2026-04-30T11:24:15Z</time>
      </trkpt>
      <trkpt lat="45.06409" lon="4.39197">
        <ele>1122.5</ele>
        <time>2026-04-30T11:24:20Z</time>
      </trkpt>
      <trkpt lat="45.06413" lon="4.39195">
        <ele>1122.7</ele>
        <time>2026-04-30T11:24:25Z</time>
      </trkpt>
      <trkpt lat="45.0642" lon="4.39191">
        <ele>1123.2</ele>
        <time>2026-04-30T11:24:30Z</time>
      </trkpt>
      <trkpt lat="45.06425" lon="4.39187">
        <ele>1123.5</ele>
        <time>2026-04-30T11:24:35Z</time>
      </trkpt>
      <trkpt lat="45.06431" lon="4.39183">
        <ele>1124</ele>
        <time>2026-04-30T11:24:40Z</time>
      </trkpt>
      <trkpt lat="45.06438" lon="4.3918">
        <ele>1124.5</ele>
        <time>2026-04-30T11:24:45Z</time>
      </trkpt>
      <trkpt lat="45.06443" lon="4.39176">
        <ele>1124.9</ele>
        <time>2026-04-30T11:24:50Z</time>
      </trkpt>
      <trkpt lat="45.0645" lon="4.39174">
        <ele>1125.5</ele>
        <time>2026-04-30T11:24:55Z</time>
      </trkpt>
      <trkpt lat="45.06456" lon="4.39171">
        <ele>1125.9</ele>
        <time>2026-04-30T11:25:00Z</time>
      </trkpt>
      <trkpt lat="45.06463" lon="4.39167">
        <ele>1126.5</ele>
        <time>2026-04-30T11:25:05Z</time>
      </trkpt>
      <trkpt lat="45.06468" lon="4.39163">
        <ele>1126.8</ele>
        <time>2026-04-30T11:25:10Z</time>
      </trkpt>
      <trkpt lat="45.06474" lon="4.39161">
        <ele>1127.3</ele>
        <time>2026-04-30T11:25:15Z</time>
      </trkpt>
      <trkpt lat="45.06481" lon="4.39157">
        <ele>1127.8</ele>
        <time>2026-04-30T11:25:20Z</time>
      </trkpt>
      <trkpt lat="45.06488" lon="4.39154">
        <ele>1128.4</ele>
        <time>2026-04-30T11:25:25Z</time>
      </trkpt>
      <trkpt lat="45.06494" lon="4.3915">
        <ele>1128.8</ele>
        <time>2026-04-30T11:25:30Z</time>
      </trkpt>
      <trkpt lat="45.065" lon="4.39147">
        <ele>1129.3</ele>
        <time>2026-04-30T11:25:35Z</time>
      </trkpt>
      <trkpt lat="45.06506" lon="4.39145">
        <ele>1130</ele>
        <time>2026-04-30T11:25:40Z</time>
      </trkpt>
      <trkpt lat="45.06512" lon="4.39141">
        <ele>1130.6</ele>
        <time>2026-04-30T11:25:45Z</time>
      </trkpt>
      <trkpt lat="45.06518" lon="4.39137">
        <ele>1131.2</ele>
        <time>2026-04-30T11:25:50Z</time>
      </trkpt>
      <trkpt lat="45.06523" lon="4.39133">
        <ele>1131.7</ele>
        <time>2026-04-30T11:25:55Z</time>
      </trkpt>
      <trkpt lat="45.06528" lon="4.39129">
        <ele>1132.1</ele>
        <time>2026-04-30T11:26:00Z</time>
      </trkpt>
      <trkpt lat="45.06535" lon="4.39126">
        <ele>1132.8</ele>
        <time>2026-04-30T11:26:05Z</time>
      </trkpt>
      <trkpt lat="45.0654" lon="4.39123">
        <ele>1133.2</ele>
        <time>2026-04-30T11:26:10Z</time>
      </trkpt>
      <trkpt lat="45.06545" lon="4.3912">
        <ele>1133.6</ele>
        <time>2026-04-30T11:26:15Z</time>
      </trkpt>
      <trkpt lat="45.0655" lon="4.39117">
        <ele>1134</ele>
        <time>2026-04-30T11:26:20Z</time>
      </trkpt>
      <trkpt lat="45.06555" lon="4.39113">
        <ele>1134.3</ele>
        <time>2026-04-30T11:26:25Z</time>
      </trkpt>
      <trkpt lat="45.06559" lon="4.39109">
        <ele>1134.5</ele>
        <time>2026-04-30T11:26:30Z</time>
      </trkpt>
      <trkpt lat="45.06564" lon="4.39106">
        <ele>1134.8</ele>
        <time>2026-04-30T11:26:35Z</time>
      </trkpt>
      <trkpt lat="45.0657" lon="4.39103">
        <ele>1135.2</ele>
        <time>2026-04-30T11:26:40Z</time>
      </trkpt>
      <trkpt lat="45.06575" lon="4.391">
        <ele>1135.5</ele>
        <time>2026-04-30T11:26:45Z</time>
      </trkpt>
      <trkpt lat="45.06581" lon="4.39096">
        <ele>1135.8</ele>
        <time>2026-04-30T11:26:50Z</time>
      </trkpt>
      <trkpt lat="45.06587" lon="4.39093">
        <ele>1136.5</ele>
        <time>2026-04-30T11:26:55Z</time>
      </trkpt>
      <trkpt lat="45.06593" lon="4.3909">
        <ele>1137.3</ele>
        <time>2026-04-30T11:27:00Z</time>
      </trkpt>
      <trkpt lat="45.06598" lon="4.39087">
        <ele>1137.9</ele>
        <time>2026-04-30T11:27:05Z</time>
      </trkpt>
      <trkpt lat="45.06603" lon="4.39082">
        <ele>1138.5</ele>
        <time>2026-04-30T11:27:10Z</time>
      </trkpt>
      <trkpt lat="45.06609" lon="4.3908">
        <ele>1139.5</ele>
        <time>2026-04-30T11:27:15Z</time>
      </trkpt>
      <trkpt lat="45.06615" lon="4.39077">
        <ele>1140.5</ele>
        <time>2026-04-30T11:27:20Z</time>
      </trkpt>
      <trkpt lat="45.06622" lon="4.39073">
        <ele>1141.5</ele>
        <time>2026-04-30T11:27:25Z</time>
      </trkpt>
      <trkpt lat="45.06627" lon="4.3907">
        <ele>1142.2</ele>
        <time>2026-04-30T11:27:30Z</time>
      </trkpt>
      <trkpt lat="45.06632" lon="4.39067">
        <ele>1142.9</ele>
        <time>2026-04-30T11:27:35Z</time>
      </trkpt>
      <trkpt lat="45.06638" lon="4.39065">
        <ele>1143.8</ele>
        <time>2026-04-30T11:27:40Z</time>
      </trkpt>
      <trkpt lat="45.06645" lon="4.39061">
        <ele>1144.6</ele>
        <time>2026-04-30T11:27:45Z</time>
      </trkpt>
      <trkpt lat="45.06652" lon="4.39057">
        <ele>1145.5</ele>
        <time>2026-04-30T11:27:50Z</time>
      </trkpt>
      <trkpt lat="45.06657" lon="4.39053">
        <ele>1146</ele>
        <time>2026-04-30T11:27:55Z</time>
      </trkpt>
      <trkpt lat="45.06663" lon="4.3905">
        <ele>1146.6</ele>
        <time>2026-04-30T11:28:00Z</time>
      </trkpt>
      <trkpt lat="45.0667" lon="4.39046">
        <ele>1147.1</ele>
        <time>2026-04-30T11:28:05Z</time>
      </trkpt>
      <trkpt lat="45.06676" lon="4.39043">
        <ele>1147.3</ele>
        <time>2026-04-30T11:28:10Z</time>
      </trkpt>
      <trkpt lat="45.0668" lon="4.39042">
        <ele>1147.6</ele>
        <time>2026-04-30T11:28:15Z</time>
      </trkpt>
      <trkpt lat="45.0668" lon="4.39042">
        <ele>1147.6</ele>
        <time>2026-04-30T11:28:20Z</time>
      </trkpt>
      <trkpt lat="45.0668" lon="4.39042">
        <ele>1147.6</ele>
        <time>2026-04-30T11:28:25Z</time>
      </trkpt>
      <trkpt lat="45.0668" lon="4.39042">
        <ele>1147.6</ele>
        <time>2026-04-30T11:28:30Z</time>
      </trkpt>
      <trkpt lat="45.0668" lon="4.39042">
        <ele>1147.6</ele>
        <time>2026-04-30T11:28:35Z</time>
      </trkpt>
      <trkpt lat="45.0668" lon="4.39042">
        <ele>1147.6</ele>
        <time>2026-04-30T11:28:40Z</time>
      </trkpt>
      <trkpt lat="45.0668" lon="4.39042">
        <ele>1147.6</ele>
        <time>2026-04-30T11:28:45Z</time>
      </trkpt>
      <trkpt lat="45.0668" lon="4.39042">
        <ele>1147.6</ele>
        <time>2026-04-30T11:28:50Z</time>
      </trkpt>
      <trkpt lat="45.0668" lon="4.39042">
        <ele>1147.6</ele>
        <time>2026-04-30T11:28:55Z</time>
      </trkpt>
      <trkpt lat="45.0668" lon="4.39042">
        <ele>1147.6</ele>
        <time>2026-04-30T11:29:00Z</time>
      </trkpt>
      <trkpt lat="45.0668" lon="4.39042">
        <ele>1147.6</ele>
        <time>2026-04-30T11:29:05Z</time>
      </trkpt>
      <trkpt lat="45.0668" lon="4.39042">
        <ele>1147.6</ele>
        <time>2026-04-30T11:29:10Z</time>
      </trkpt>
      <trkpt lat="45.06683" lon="4.39037">
        <ele>1147.4</ele>
        <time>2026-04-30T11:29:15Z</time>
      </trkpt>
      <trkpt lat="45.06688" lon="4.39033">
        <ele>1147.5</ele>
        <time>2026-04-30T11:29:20Z</time>
      </trkpt>
      <trkpt lat="45.06694" lon="4.39029">
        <ele>1147.7</ele>
        <time>2026-04-30T11:29:25Z</time>
      </trkpt>
      <trkpt lat="45.06699" lon="4.39025">
        <ele>1147.9</ele>
        <time>2026-04-30T11:29:30Z</time>
      </trkpt>
      <trkpt lat="45.06704" lon="4.39021">
        <ele>1148</ele>
        <time>2026-04-30T11:29:35Z</time>
      </trkpt>
      <trkpt lat="45.06706" lon="4.3902">
        <ele>1148.1</ele>
        <time>2026-04-30T11:29:40Z</time>
      </trkpt>
      <trkpt lat="45.06706" lon="4.39019">
        <ele>1148</ele>
        <time>2026-04-30T11:29:45Z</time>
      </trkpt>
      <trkpt lat="45.06707" lon="4.39019">
        <ele>1148.1</ele>
        <time>2026-04-30T11:29:50Z</time>
      </trkpt>
      <trkpt lat="45.06708" lon="4.39017">
        <ele>1148.1</ele>
        <time>2026-04-30T11:29:55Z</time>
      </trkpt>
      <trkpt lat="45.06712" lon="4.39017">
        <ele>1148.4</ele>
        <time>2026-04-30T11:30:00Z</time>
      </trkpt>
      <trkpt lat="45.06713" lon="4.39014">
        <ele>1148.3</ele>
        <time>2026-04-30T11:30:05Z</time>
      </trkpt>
      <trkpt lat="45.06713" lon="4.39014">
        <ele>1148.3</ele>
        <time>2026-04-30T11:30:10Z</time>
      </trkpt>
      <trkpt lat="45.06713" lon="4.39014">
        <ele>1148.3</ele>
        <time>2026-04-30T11:30:15Z</time>
      </trkpt>
      <trkpt lat="45.06713" lon="4.39014">
        <ele>1148.3</ele>
        <time>2026-04-30T11:30:20Z</time>
      </trkpt>
      <trkpt lat="45.06719" lon="4.39013">
        <ele>1148.8</ele>
        <time>2026-04-30T11:30:25Z</time>
      </trkpt>
      <trkpt lat="45.06725" lon="4.39011">
        <ele>1149.2</ele>
        <time>2026-04-30T11:30:30Z</time>
      </trkpt>
      <trkpt lat="45.06731" lon="4.3901">
        <ele>1149.7</ele>
        <time>2026-04-30T11:30:35Z</time>
      </trkpt>
      <trkpt lat="45.06737" lon="4.39007">
        <ele>1150.1</ele>
        <time>2026-04-30T11:30:40Z</time>
      </trkpt>
      <trkpt lat="45.06743" lon="4.39005">
        <ele>1150.6</ele>
        <time>2026-04-30T11:30:45Z</time>
      </trkpt>
      <trkpt lat="45.06749" lon="4.39003">
        <ele>1151</ele>
        <time>2026-04-30T11:30:50Z</time>
      </trkpt>
      <trkpt lat="45.06755" lon="4.39002">
        <ele>1151.7</ele>
        <time>2026-04-30T11:30:55Z</time>
      </trkpt>
      <trkpt lat="45.06759" lon="4.39003">
        <ele>1152.2</ele>
        <time>2026-04-30T11:31:00Z</time>
      </trkpt>
      <trkpt lat="45.06763" lon="4.39001">
        <ele>1152.6</ele>
        <time>2026-04-30T11:31:05Z</time>
      </trkpt>
      <trkpt lat="45.06769" lon="4.39001">
        <ele>1153.3</ele>
        <time>2026-04-30T11:31:10Z</time>
      </trkpt>
      <trkpt lat="45.06775" lon="4.39002">
        <ele>1154.1</ele>
        <time>2026-04-30T11:31:15Z</time>
      </trkpt>
      <trkpt lat="45.06781" lon="4.39001">
        <ele>1154.8</ele>
        <time>2026-04-30T11:31:20Z</time>
      </trkpt>
      <trkpt lat="45.06787" lon="4.39">
        <ele>1155.4</ele>
        <time>2026-04-30T11:31:25Z</time>
      </trkpt>
      <trkpt lat="45.06791" lon="4.39003">
        <ele>1156.1</ele>
        <time>2026-04-30T11:31:30Z</time>
      </trkpt>
      <trkpt lat="45.06794" lon="4.39007">
        <ele>1156.7</ele>
        <time>2026-04-30T11:31:35Z</time>
      </trkpt>
      <trkpt lat="45.06796" lon="4.39008">
        <ele>1157.1</ele>
        <time>2026-04-30T11:31:40Z</time>
      </trkpt>
      <trkpt lat="45.06797" lon="4.39009">
        <ele>1157.3</ele>
        <time>2026-04-30T11:31:45Z</time>
      </trkpt>
      <trkpt lat="45.06794" lon="4.39014">
        <ele>1157.2</ele>
        <time>2026-04-30T11:31:50Z</time>
      </trkpt>
      <trkpt lat="45.0679" lon="4.3902">
        <ele>1157.1</ele>
        <time>2026-04-30T11:31:55Z</time>
      </trkpt>
      <trkpt lat="45.06788" lon="4.39028">
        <ele>1157.4</ele>
        <time>2026-04-30T11:32:00Z</time>
      </trkpt>
      <trkpt lat="45.06787" lon="4.39037">
        <ele>1157.8</ele>
        <time>2026-04-30T11:32:05Z</time>
      </trkpt>
      <trkpt lat="45.06787" lon="4.39045">
        <ele>1158.3</ele>
        <time>2026-04-30T11:32:10Z</time>
      </trkpt>
      <trkpt lat="45.06786" lon="4.39052">
        <ele>1158.6</ele>
        <time>2026-04-30T11:32:15Z</time>
      </trkpt>
      <trkpt lat="45.06786" lon="4.39059">
        <ele>1159.1</ele>
        <time>2026-04-30T11:32:20Z</time>
      </trkpt>
      <trkpt lat="45.06785" lon="4.39067">
        <ele>1159.4</ele>
        <time>2026-04-30T11:32:25Z</time>
      </trkpt>
      <trkpt lat="45.06785" lon="4.39075">
        <ele>1159.9</ele>
        <time>2026-04-30T11:32:30Z</time>
      </trkpt>
      <trkpt lat="45.06789" lon="4.3908">
        <ele>1160.9</ele>
        <time>2026-04-30T11:32:35Z</time>
      </trkpt>
      <trkpt lat="45.06789" lon="4.39085">
        <ele>1161.2</ele>
        <time>2026-04-30T11:32:40Z</time>
      </trkpt>
      <trkpt lat="45.06788" lon="4.3909">
        <ele>1161.3</ele>
        <time>2026-04-30T11:32:45Z</time>
      </trkpt>
      <trkpt lat="45.06788" lon="4.3909">
        <ele>1161.3</ele>
        <time>2026-04-30T11:32:50Z</time>
      </trkpt>
      <trkpt lat="45.06788" lon="4.3909">
        <ele>1161.3</ele>
        <time>2026-04-30T11:32:55Z</time>
      </trkpt>
      <trkpt lat="45.06788" lon="4.3909">
        <ele>1161.3</ele>
        <time>2026-04-30T11:33:00Z</time>
      </trkpt>
      <trkpt lat="45.06788" lon="4.3909">
        <ele>1161.3</ele>
        <time>2026-04-30T11:33:05Z</time>
      </trkpt>
      <trkpt lat="45.06788" lon="4.3909">
        <ele>1161.3</ele>
        <time>2026-04-30T11:33:10Z</time>
      </trkpt>
      <trkpt lat="45.0679" lon="4.39093">
        <ele>1161.7</ele>
        <time>2026-04-30T11:33:15Z</time>
      </trkpt>
      <trkpt lat="45.06788" lon="4.39099">
        <ele>1161.7</ele>
        <time>2026-04-30T11:33:20Z</time>
      </trkpt>
      <trkpt lat="45.06786" lon="4.39104">
        <ele>1161.7</ele>
        <time>2026-04-30T11:33:25Z</time>
      </trkpt>
      <trkpt lat="45.06783" lon="4.3911">
        <ele>1161.6</ele>
        <time>2026-04-30T11:33:30Z</time>
      </trkpt>
      <trkpt lat="45.06781" lon="4.39115">
        <ele>1161.6</ele>
        <time>2026-04-30T11:33:35Z</time>
      </trkpt>
      <trkpt lat="45.06778" lon="4.39119">
        <ele>1161.4</ele>
        <time>2026-04-30T11:33:40Z</time>
      </trkpt>
      <trkpt lat="45.06775" lon="4.39123">
        <ele>1161.2</ele>
        <time>2026-04-30T11:33:45Z</time>
      </trkpt>
      <trkpt lat="45.06775" lon="4.39125">
        <ele>1161.3</ele>
        <time>2026-04-30T11:33:50Z</time>
      </trkpt>
      <trkpt lat="45.06775" lon="4.39126">
        <ele>1161.4</ele>
        <time>2026-04-30T11:33:55Z</time>
      </trkpt>
      <trkpt lat="45.06775" lon="4.39126">
        <ele>1161.4</ele>
        <time>2026-04-30T11:34:00Z</time>
      </trkpt>
      <trkpt lat="45.06775" lon="4.39126">
        <ele>1161.4</ele>
        <time>2026-04-30T11:34:05Z</time>
      </trkpt>
      <trkpt lat="45.06775" lon="4.39126">
        <ele>1161.4</ele>
        <time>2026-04-30T11:34:10Z</time>
      </trkpt>
      <trkpt lat="45.06778" lon="4.39127">
        <ele>1161.8</ele>
        <time>2026-04-30T11:34:15Z</time>
      </trkpt>
      <trkpt lat="45.06778" lon="4.39127">
        <ele>1161.8</ele>
        <time>2026-04-30T11:34:20Z</time>
      </trkpt>
      <trkpt lat="45.06778" lon="4.39127">
        <ele>1161.8</ele>
        <time>2026-04-30T11:34:25Z</time>
      </trkpt>
      <trkpt lat="45.06778" lon="4.39127">
        <ele>1161.8</ele>
        <time>2026-04-30T11:34:30Z</time>
      </trkpt>
      <trkpt lat="45.06778" lon="4.39127">
        <ele>1161.8</ele>
        <time>2026-04-30T11:34:35Z</time>
      </trkpt>
      <trkpt lat="45.06778" lon="4.39127">
        <ele>1161.8</ele>
        <time>2026-04-30T11:34:40Z</time>
      </trkpt>
      <trkpt lat="45.06778" lon="4.39127">
        <ele>1161.8</ele>
        <time>2026-04-30T11:34:45Z</time>
      </trkpt>
      <trkpt lat="45.06778" lon="4.39127">
        <ele>1161.8</ele>
        <time>2026-04-30T11:34:50Z</time>
      </trkpt>
      <trkpt lat="45.06778" lon="4.39127">
        <ele>1161.8</ele>
        <time>2026-04-30T11:34:55Z</time>
      </trkpt>
      <trkpt lat="45.06778" lon="4.39127">
        <ele>1161.8</ele>
        <time>2026-04-30T11:35:00Z</time>
      </trkpt>
      <trkpt lat="45.06778" lon="4.39127">
        <ele>1161.8</ele>
        <time>2026-04-30T11:35:05Z</time>
      </trkpt>
      <trkpt lat="45.06778" lon="4.39127">
        <ele>1161.8</ele>
        <time>2026-04-30T11:35:10Z</time>
      </trkpt>
      <trkpt lat="45.06781" lon="4.39123">
        <ele>1162</ele>
        <time>2026-04-30T11:35:15Z</time>
      </trkpt>
      <trkpt lat="45.06784" lon="4.39121">
        <ele>1162.3</ele>
        <time>2026-04-30T11:35:20Z</time>
      </trkpt>
      <trkpt lat="45.06786" lon="4.39114">
        <ele>1162.2</ele>
        <time>2026-04-30T11:35:25Z</time>
      </trkpt>
      <trkpt lat="45.06788" lon="4.39107">
        <ele>1162.1</ele>
        <time>2026-04-30T11:35:30Z</time>
      </trkpt>
      <trkpt lat="45.0679" lon="4.39092">
        <ele>1161.7</ele>
        <time>2026-04-30T11:35:35Z</time>
      </trkpt>
      <trkpt lat="45.06791" lon="4.39083">
        <ele>1161.4</ele>
        <time>2026-04-30T11:35:40Z</time>
      </trkpt>
      <trkpt lat="45.06793" lon="4.39078">
        <ele>1161.4</ele>
        <time>2026-04-30T11:35:45Z</time>
      </trkpt>
      <trkpt lat="45.06793" lon="4.39078">
        <ele>1161.4</ele>
        <time>2026-04-30T11:35:50Z</time>
      </trkpt>
      <trkpt lat="45.06793" lon="4.39078">
        <ele>1161.4</ele>
        <time>2026-04-30T11:35:55Z</time>
      </trkpt>
      <trkpt lat="45.06793" lon="4.39078">
        <ele>1161.4</ele>
        <time>2026-04-30T11:36:00Z</time>
      </trkpt>
      <trkpt lat="45.06793" lon="4.39078">
        <ele>1161.4</ele>
        <time>2026-04-30T11:36:05Z</time>
      </trkpt>
      <trkpt lat="45.06793" lon="4.39078">
        <ele>1161.4</ele>
        <time>2026-04-30T11:36:10Z</time>
      </trkpt>
      <trkpt lat="45.0679" lon="4.39076">
        <ele>1160.8</ele>
        <time>2026-04-30T11:36:15Z</time>
      </trkpt>
      <trkpt lat="45.06787" lon="4.39067">
        <ele>1159.7</ele>
        <time>2026-04-30T11:36:20Z</time>
      </trkpt>
      <trkpt lat="45.06787" lon="4.39057">
        <ele>1159.1</ele>
        <time>2026-04-30T11:36:25Z</time>
      </trkpt>
      <trkpt lat="45.06788" lon="4.39048">
        <ele>1158.7</ele>
        <time>2026-04-30T11:36:30Z</time>
      </trkpt>
      <trkpt lat="45.06789" lon="4.39038">
        <ele>1158.1</ele>
        <time>2026-04-30T11:36:35Z</time>
      </trkpt>
      <trkpt lat="45.06791" lon="4.39029">
        <ele>1157.8</ele>
        <time>2026-04-30T11:36:40Z</time>
      </trkpt>
      <trkpt lat="45.06793" lon="4.3902">
        <ele>1157.5</ele>
        <time>2026-04-30T11:36:45Z</time>
      </trkpt>
      <trkpt lat="45.06797" lon="4.39015">
        <ele>1157.7</ele>
        <time>2026-04-30T11:36:50Z</time>
      </trkpt>
      <trkpt lat="45.068" lon="4.39012">
        <ele>1157.8</ele>
        <time>2026-04-30T11:36:55Z</time>
      </trkpt>
      <trkpt lat="45.068" lon="4.39012">
        <ele>1157.8</ele>
        <time>2026-04-30T11:37:00Z</time>
      </trkpt>
      <trkpt lat="45.068" lon="4.39012">
        <ele>1157.8</ele>
        <time>2026-04-30T11:37:05Z</time>
      </trkpt>
      <trkpt lat="45.068" lon="4.39012">
        <ele>1157.8</ele>
        <time>2026-04-30T11:37:10Z</time>
      </trkpt>
      <trkpt lat="45.068" lon="4.39012">
        <ele>1157.8</ele>
        <time>2026-04-30T11:37:15Z</time>
      </trkpt>
      <trkpt lat="45.068" lon="4.39012">
        <ele>1157.8</ele>
        <time>2026-04-30T11:37:20Z</time>
      </trkpt>
      <trkpt lat="45.068" lon="4.39012">
        <ele>1157.8</ele>
        <time>2026-04-30T11:37:25Z</time>
      </trkpt>
      <trkpt lat="45.068" lon="4.39012">
        <ele>1157.8</ele>
        <time>2026-04-30T11:37:30Z</time>
      </trkpt>
      <trkpt lat="45.068" lon="4.39011">
        <ele>1157.8</ele>
        <time>2026-04-30T11:37:35Z</time>
      </trkpt>
      <trkpt lat="45.06804" lon="4.39009">
        <ele>1158.1</ele>
        <time>2026-04-30T11:37:40Z</time>
      </trkpt>
      <trkpt lat="45.06808" lon="4.39004">
        <ele>1158.3</ele>
        <time>2026-04-30T11:37:45Z</time>
      </trkpt>
      <trkpt lat="45.06815" lon="4.39005">
        <ele>1159.2</ele>
        <time>2026-04-30T11:37:50Z</time>
      </trkpt>
      <trkpt lat="45.06821" lon="4.39007">
        <ele>1160.1</ele>
        <time>2026-04-30T11:37:55Z</time>
      </trkpt>
      <trkpt lat="45.06828" lon="4.39009">
        <ele>1161.1</ele>
        <time>2026-04-30T11:38:00Z</time>
      </trkpt>
      <trkpt lat="45.06834" lon="4.39008">
        <ele>1161.7</ele>
        <time>2026-04-30T11:38:05Z</time>
      </trkpt>
      <trkpt lat="45.0684" lon="4.39009">
        <ele>1162.2</ele>
        <time>2026-04-30T11:38:10Z</time>
      </trkpt>
      <trkpt lat="45.06848" lon="4.3901">
        <ele>1162.9</ele>
        <time>2026-04-30T11:38:15Z</time>
      </trkpt>
      <trkpt lat="45.06857" lon="4.39012">
        <ele>1163.7</ele>
        <time>2026-04-30T11:38:20Z</time>
      </trkpt>
      <trkpt lat="45.06863" lon="4.39016">
        <ele>1164.5</ele>
        <time>2026-04-30T11:38:25Z</time>
      </trkpt>
      <trkpt lat="45.06869" lon="4.39017">
        <ele>1165</ele>
        <time>2026-04-30T11:38:30Z</time>
      </trkpt>
      <trkpt lat="45.06876" lon="4.39018">
        <ele>1165.6</ele>
        <time>2026-04-30T11:38:35Z</time>
      </trkpt>
      <trkpt lat="45.06882" lon="4.39021">
        <ele>1166.3</ele>
        <time>2026-04-30T11:38:40Z</time>
      </trkpt>
      <trkpt lat="45.06888" lon="4.39021">
        <ele>1166.7</ele>
        <time>2026-04-30T11:38:45Z</time>
      </trkpt>
      <trkpt lat="45.06894" lon="4.39022">
        <ele>1167.2</ele>
        <time>2026-04-30T11:38:50Z</time>
      </trkpt>
      <trkpt lat="45.06901" lon="4.39024">
        <ele>1167.9</ele>
        <time>2026-04-30T11:38:55Z</time>
      </trkpt>
      <trkpt lat="45.06908" lon="4.39025">
        <ele>1168.5</ele>
        <time>2026-04-30T11:39:00Z</time>
      </trkpt>
      <trkpt lat="45.06915" lon="4.39026">
        <ele>1169.1</ele>
        <time>2026-04-30T11:39:05Z</time>
      </trkpt>
      <trkpt lat="45.06923" lon="4.39028">
        <ele>1169.7</ele>
        <time>2026-04-30T11:39:10Z</time>
      </trkpt>
      <trkpt lat="45.06931" lon="4.39029">
        <ele>1170.2</ele>
        <time>2026-04-30T11:39:15Z</time>
      </trkpt>
      <trkpt lat="45.06937" lon="4.39032">
        <ele>1170.7</ele>
        <time>2026-04-30T11:39:20Z</time>
      </trkpt>
      <trkpt lat="45.06945" lon="4.39033">
        <ele>1171.2</ele>
        <time>2026-04-30T11:39:25Z</time>
      </trkpt>
      <trkpt lat="45.06952" lon="4.39033">
        <ele>1171.6</ele>
        <time>2026-04-30T11:39:30Z</time>
      </trkpt>
      <trkpt lat="45.06959" lon="4.39035">
        <ele>1172.1</ele>
        <time>2026-04-30T11:39:35Z</time>
      </trkpt>
      <trkpt lat="45.06964" lon="4.39036">
        <ele>1172.4</ele>
        <time>2026-04-30T11:39:40Z</time>
      </trkpt>
      <trkpt lat="45.0697" lon="4.39036">
        <ele>1172.7</ele>
        <time>2026-04-30T11:39:45Z</time>
      </trkpt>
      <trkpt lat="45.06976" lon="4.39036">
        <ele>1173</ele>
        <time>2026-04-30T11:39:50Z</time>
      </trkpt>
      <trkpt lat="45.06986" lon="4.39038">
        <ele>1173.6</ele>
        <time>2026-04-30T11:39:55Z</time>
      </trkpt>
      <trkpt lat="45.06995" lon="4.39036">
        <ele>1173.9</ele>
        <time>2026-04-30T11:40:00Z</time>
      </trkpt>
      <trkpt lat="45.07002" lon="4.39036">
        <ele>1174.2</ele>
        <time>2026-04-30T11:40:05Z</time>
      </trkpt>
      <trkpt lat="45.0701" lon="4.39037">
        <ele>1174.3</ele>
        <time>2026-04-30T11:40:10Z</time>
      </trkpt>
      <trkpt lat="45.07018" lon="4.39037">
        <ele>1174.4</ele>
        <time>2026-04-30T11:40:15Z</time>
      </trkpt>
      <trkpt lat="45.07025" lon="4.39037">
        <ele>1174.5</ele>
        <time>2026-04-30T11:40:20Z</time>
      </trkpt>
      <trkpt lat="45.07034" lon="4.39037">
        <ele>1174.6</ele>
        <time>2026-04-30T11:40:25Z</time>
      </trkpt>
      <trkpt lat="45.0704" lon="4.39034">
        <ele>1174.5</ele>
        <time>2026-04-30T11:40:30Z</time>
      </trkpt>
      <trkpt lat="45.07048" lon="4.39032">
        <ele>1174.5</ele>
        <time>2026-04-30T11:40:35Z</time>
      </trkpt>
      <trkpt lat="45.07056" lon="4.3903">
        <ele>1174.5</ele>
        <time>2026-04-30T11:40:40Z</time>
      </trkpt>
      <trkpt lat="45.07063" lon="4.39029">
        <ele>1174.5</ele>
        <time>2026-04-30T11:40:45Z</time>
      </trkpt>
      <trkpt lat="45.07071" lon="4.39027">
        <ele>1174.5</ele>
        <time>2026-04-30T11:40:50Z</time>
      </trkpt>
      <trkpt lat="45.07078" lon="4.39025">
        <ele>1174.4</ele>
        <time>2026-04-30T11:40:55Z</time>
      </trkpt>
      <trkpt lat="45.07085" lon="4.39023">
        <ele>1174.4</ele>
        <time>2026-04-30T11:41:00Z</time>
      </trkpt>
      <trkpt lat="45.07093" lon="4.39019">
        <ele>1174.3</ele>
        <time>2026-04-30T11:41:05Z</time>
      </trkpt>
      <trkpt lat="45.07101" lon="4.39017">
        <ele>1174.3</ele>
        <time>2026-04-30T11:41:10Z</time>
      </trkpt>
      <trkpt lat="45.07107" lon="4.39015">
        <ele>1174.3</ele>
        <time>2026-04-30T11:41:15Z</time>
      </trkpt>
      <trkpt lat="45.07116" lon="4.39011">
        <ele>1174.3</ele>
        <time>2026-04-30T11:41:20Z</time>
      </trkpt>
      <trkpt lat="45.07124" lon="4.39008">
        <ele>1174.3</ele>
        <time>2026-04-30T11:41:25Z</time>
      </trkpt>
      <trkpt lat="45.07131" lon="4.39006">
        <ele>1174.4</ele>
        <time>2026-04-30T11:41:30Z</time>
      </trkpt>
      <trkpt lat="45.07138" lon="4.39004">
        <ele>1174.5</ele>
        <time>2026-04-30T11:41:35Z</time>
      </trkpt>
      <trkpt lat="45.07145" lon="4.38999">
        <ele>1174.5</ele>
        <time>2026-04-30T11:41:40Z</time>
      </trkpt>
      <trkpt lat="45.07151" lon="4.38996">
        <ele>1174.6</ele>
        <time>2026-04-30T11:41:45Z</time>
      </trkpt>
      <trkpt lat="45.07157" lon="4.38991">
        <ele>1174.7</ele>
        <time>2026-04-30T11:41:50Z</time>
      </trkpt>
      <trkpt lat="45.07164" lon="4.38988">
        <ele>1174.9</ele>
        <time>2026-04-30T11:41:55Z</time>
      </trkpt>
      <trkpt lat="45.07171" lon="4.38986">
        <ele>1175.2</ele>
        <time>2026-04-30T11:42:00Z</time>
      </trkpt>
      <trkpt lat="45.07176" lon="4.38982">
        <ele>1175.5</ele>
        <time>2026-04-30T11:42:05Z</time>
      </trkpt>
      <trkpt lat="45.07182" lon="4.38979">
        <ele>1175.9</ele>
        <time>2026-04-30T11:42:10Z</time>
      </trkpt>
      <trkpt lat="45.0719" lon="4.38975">
        <ele>1176.5</ele>
        <time>2026-04-30T11:42:15Z</time>
      </trkpt>
      <trkpt lat="45.07197" lon="4.38972">
        <ele>1176.9</ele>
        <time>2026-04-30T11:42:20Z</time>
      </trkpt>
      <trkpt lat="45.07205" lon="4.38968">
        <ele>1177.5</ele>
        <time>2026-04-30T11:42:25Z</time>
      </trkpt>
      <trkpt lat="45.07212" lon="4.38965">
        <ele>1178.1</ele>
        <time>2026-04-30T11:42:30Z</time>
      </trkpt>
      <trkpt lat="45.0722" lon="4.38961">
        <ele>1178.8</ele>
        <time>2026-04-30T11:42:35Z</time>
      </trkpt>
      <trkpt lat="45.07228" lon="4.3896">
        <ele>1179.4</ele>
        <time>2026-04-30T11:42:40Z</time>
      </trkpt>
      <trkpt lat="45.07235" lon="4.38957">
        <ele>1180</ele>
        <time>2026-04-30T11:42:45Z</time>
      </trkpt>
      <trkpt lat="45.07242" lon="4.38952">
        <ele>1180.7</ele>
        <time>2026-04-30T11:42:50Z</time>
      </trkpt>
      <trkpt lat="45.07248" lon="4.38949">
        <ele>1181.3</ele>
        <time>2026-04-30T11:42:55Z</time>
      </trkpt>
      <trkpt lat="45.07255" lon="4.38946">
        <ele>1181.7</ele>
        <time>2026-04-30T11:43:00Z</time>
      </trkpt>
      <trkpt lat="45.07261" lon="4.38943">
        <ele>1181.9</ele>
        <time>2026-04-30T11:43:05Z</time>
      </trkpt>
      <trkpt lat="45.07269" lon="4.3894">
        <ele>1182.2</ele>
        <time>2026-04-30T11:43:10Z</time>
      </trkpt>
      <trkpt lat="45.07275" lon="4.38937">
        <ele>1182.4</ele>
        <time>2026-04-30T11:43:15Z</time>
      </trkpt>
      <trkpt lat="45.07282" lon="4.38934">
        <ele>1182.6</ele>
        <time>2026-04-30T11:43:20Z</time>
      </trkpt>
      <trkpt lat="45.07289" lon="4.38931">
        <ele>1182.7</ele>
        <time>2026-04-30T11:43:25Z</time>
      </trkpt>
      <trkpt lat="45.07297" lon="4.38929">
        <ele>1182.8</ele>
        <time>2026-04-30T11:43:30Z</time>
      </trkpt>
      <trkpt lat="45.07304" lon="4.38925">
        <ele>1182.9</ele>
        <time>2026-04-30T11:43:35Z</time>
      </trkpt>
      <trkpt lat="45.07311" lon="4.38921">
        <ele>1183</ele>
        <time>2026-04-30T11:43:40Z</time>
      </trkpt>
      <trkpt lat="45.07317" lon="4.38917">
        <ele>1183</ele>
        <time>2026-04-30T11:43:45Z</time>
      </trkpt>
      <trkpt lat="45.07323" lon="4.38913">
        <ele>1182.9</ele>
        <time>2026-04-30T11:43:50Z</time>
      </trkpt>
      <trkpt lat="45.07325" lon="4.38911">
        <ele>1182.8</ele>
        <time>2026-04-30T11:43:55Z</time>
      </trkpt>
      <trkpt lat="45.07328" lon="4.38909">
        <ele>1182.8</ele>
        <time>2026-04-30T11:44:00Z</time>
      </trkpt>
      <trkpt lat="45.07334" lon="4.38909">
        <ele>1182.7</ele>
        <time>2026-04-30T11:44:05Z</time>
      </trkpt>
      <trkpt lat="45.07341" lon="4.38905">
        <ele>1182.8</ele>
        <time>2026-04-30T11:44:10Z</time>
      </trkpt>
      <trkpt lat="45.07347" lon="4.38903">
        <ele>1182.8</ele>
        <time>2026-04-30T11:44:15Z</time>
      </trkpt>
      <trkpt lat="45.07353" lon="4.389">
        <ele>1182.8</ele>
        <time>2026-04-30T11:44:20Z</time>
      </trkpt>
      <trkpt lat="45.0736" lon="4.38896">
        <ele>1182.8</ele>
        <time>2026-04-30T11:44:25Z</time>
      </trkpt>
      <trkpt lat="45.07367" lon="4.38893">
        <ele>1182.8</ele>
        <time>2026-04-30T11:44:30Z</time>
      </trkpt>
      <trkpt lat="45.07373" lon="4.38894">
        <ele>1183</ele>
        <time>2026-04-30T11:44:35Z</time>
      </trkpt>
      <trkpt lat="45.07379" lon="4.38893">
        <ele>1183.1</ele>
        <time>2026-04-30T11:44:40Z</time>
      </trkpt>
      <trkpt lat="45.07385" lon="4.38889">
        <ele>1183</ele>
        <time>2026-04-30T11:44:45Z</time>
      </trkpt>
      <trkpt lat="45.0739" lon="4.38889">
        <ele>1183.1</ele>
        <time>2026-04-30T11:44:50Z</time>
      </trkpt>
      <trkpt lat="45.07394" lon="4.38886">
        <ele>1183.1</ele>
        <time>2026-04-30T11:44:55Z</time>
      </trkpt>
      <trkpt lat="45.07399" lon="4.38882">
        <ele>1183</ele>
        <time>2026-04-30T11:45:00Z</time>
      </trkpt>
      <trkpt lat="45.07405" lon="4.38878">
        <ele>1182.9</ele>
        <time>2026-04-30T11:45:05Z</time>
      </trkpt>
      <trkpt lat="45.0741" lon="4.38874">
        <ele>1182.8</ele>
        <time>2026-04-30T11:45:10Z</time>
      </trkpt>
      <trkpt lat="45.07416" lon="4.3887">
        <ele>1182.7</ele>
        <time>2026-04-30T11:45:15Z</time>
      </trkpt>
      <trkpt lat="45.07422" lon="4.38867">
        <ele>1183</ele>
        <time>2026-04-30T11:45:20Z</time>
      </trkpt>
      <trkpt lat="45.07428" lon="4.38865">
        <ele>1183.4</ele>
        <time>2026-04-30T11:45:25Z</time>
      </trkpt>
      <trkpt lat="45.07435" lon="4.38863">
        <ele>1183.9</ele>
        <time>2026-04-30T11:45:30Z</time>
      </trkpt>
      <trkpt lat="45.07441" lon="4.38859">
        <ele>1184.2</ele>
        <time>2026-04-30T11:45:35Z</time>
      </trkpt>
      <trkpt lat="45.07448" lon="4.38856">
        <ele>1184.6</ele>
        <time>2026-04-30T11:45:40Z</time>
      </trkpt>
      <trkpt lat="45.07455" lon="4.38855">
        <ele>1185.1</ele>
        <time>2026-04-30T11:45:45Z</time>
      </trkpt>
      <trkpt lat="45.07461" lon="4.38851">
        <ele>1185.5</ele>
        <time>2026-04-30T11:45:50Z</time>
      </trkpt>
      <trkpt lat="45.07466" lon="4.38848">
        <ele>1185.7</ele>
        <time>2026-04-30T11:45:55Z</time>
      </trkpt>
      <trkpt lat="45.07473" lon="4.38844">
        <ele>1186.2</ele>
        <time>2026-04-30T11:46:00Z</time>
      </trkpt>
      <trkpt lat="45.07479" lon="4.38841">
        <ele>1186.5</ele>
        <time>2026-04-30T11:46:05Z</time>
      </trkpt>
      <trkpt lat="45.07485" lon="4.38837">
        <ele>1186.9</ele>
        <time>2026-04-30T11:46:10Z</time>
      </trkpt>
      <trkpt lat="45.07493" lon="4.38835">
        <ele>1187.5</ele>
        <time>2026-04-30T11:46:15Z</time>
      </trkpt>
      <trkpt lat="45.07501" lon="4.3883">
        <ele>1187.9</ele>
        <time>2026-04-30T11:46:20Z</time>
      </trkpt>
      <trkpt lat="45.07507" lon="4.38827">
        <ele>1188.1</ele>
        <time>2026-04-30T11:46:25Z</time>
      </trkpt>
      <trkpt lat="45.07513" lon="4.38824">
        <ele>1188.3</ele>
        <time>2026-04-30T11:46:30Z</time>
      </trkpt>
      <trkpt lat="45.07519" lon="4.38821">
        <ele>1188.5</ele>
        <time>2026-04-30T11:46:35Z</time>
      </trkpt>
      <trkpt lat="45.07526" lon="4.38819">
        <ele>1188.9</ele>
        <time>2026-04-30T11:46:40Z</time>
      </trkpt>
      <trkpt lat="45.07533" lon="4.38815">
        <ele>1189.1</ele>
        <time>2026-04-30T11:46:45Z</time>
      </trkpt>
      <trkpt lat="45.0754" lon="4.38811">
        <ele>1189.3</ele>
        <time>2026-04-30T11:46:50Z</time>
      </trkpt>
      <trkpt lat="45.07548" lon="4.38807">
        <ele>1189.6</ele>
        <time>2026-04-30T11:46:55Z</time>
      </trkpt>
      <trkpt lat="45.07557" lon="4.38806">
        <ele>1190.1</ele>
        <time>2026-04-30T11:47:00Z</time>
      </trkpt>
      <trkpt lat="45.07566" lon="4.38805">
        <ele>1190.6</ele>
        <time>2026-04-30T11:47:05Z</time>
      </trkpt>
      <trkpt lat="45.07574" lon="4.38802">
        <ele>1190.9</ele>
        <time>2026-04-30T11:47:10Z</time>
      </trkpt>
      <trkpt lat="45.0758" lon="4.38798">
        <ele>1191.1</ele>
        <time>2026-04-30T11:47:15Z</time>
      </trkpt>
      <trkpt lat="45.07586" lon="4.38792">
        <ele>1191.1</ele>
        <time>2026-04-30T11:47:20Z</time>
      </trkpt>
      <trkpt lat="45.07593" lon="4.38788">
        <ele>1191.1</ele>
        <time>2026-04-30T11:47:25Z</time>
      </trkpt>
      <trkpt lat="45.076" lon="4.38786">
        <ele>1191.2</ele>
        <time>2026-04-30T11:47:30Z</time>
      </trkpt>
      <trkpt lat="45.07606" lon="4.38782">
        <ele>1191.2</ele>
        <time>2026-04-30T11:47:35Z</time>
      </trkpt>
      <trkpt lat="45.07614" lon="4.38779">
        <ele>1191.2</ele>
        <time>2026-04-30T11:47:40Z</time>
      </trkpt>
      <trkpt lat="45.0762" lon="4.38775">
        <ele>1191</ele>
        <time>2026-04-30T11:47:45Z</time>
      </trkpt>
      <trkpt lat="45.07626" lon="4.38772">
        <ele>1190.9</ele>
        <time>2026-04-30T11:47:50Z</time>
      </trkpt>
      <trkpt lat="45.07635" lon="4.38769">
        <ele>1190.8</ele>
        <time>2026-04-30T11:47:55Z</time>
      </trkpt>
      <trkpt lat="45.07642" lon="4.38764">
        <ele>1190.4</ele>
        <time>2026-04-30T11:48:00Z</time>
      </trkpt>
      <trkpt lat="45.07648" lon="4.38761">
        <ele>1190.1</ele>
        <time>2026-04-30T11:48:05Z</time>
      </trkpt>
      <trkpt lat="45.07657" lon="4.38757">
        <ele>1189.8</ele>
        <time>2026-04-30T11:48:10Z</time>
      </trkpt>
      <trkpt lat="45.07664" lon="4.38755">
        <ele>1189.6</ele>
        <time>2026-04-30T11:48:15Z</time>
      </trkpt>
      <trkpt lat="45.07672" lon="4.38752">
        <ele>1189.5</ele>
        <time>2026-04-30T11:48:20Z</time>
      </trkpt>
      <trkpt lat="45.07679" lon="4.38749">
        <ele>1189.5</ele>
        <time>2026-04-30T11:48:25Z</time>
      </trkpt>
      <trkpt lat="45.07685" lon="4.38746">
        <ele>1189.5</ele>
        <time>2026-04-30T11:48:30Z</time>
      </trkpt>
      <trkpt lat="45.07691" lon="4.38742">
        <ele>1189.4</ele>
        <time>2026-04-30T11:48:35Z</time>
      </trkpt>
      <trkpt lat="45.07698" lon="4.3874">
        <ele>1189.5</ele>
        <time>2026-04-30T11:48:40Z</time>
      </trkpt>
      <trkpt lat="45.07706" lon="4.38737">
        <ele>1189.5</ele>
        <time>2026-04-30T11:48:45Z</time>
      </trkpt>
      <trkpt lat="45.07714" lon="4.38732">
        <ele>1189.3</ele>
        <time>2026-04-30T11:48:50Z</time>
      </trkpt>
      <trkpt lat="45.0772" lon="4.38725">
        <ele>1188.7</ele>
        <time>2026-04-30T11:48:55Z</time>
      </trkpt>
      <trkpt lat="45.07722" lon="4.38718">
        <ele>1187.9</ele>
        <time>2026-04-30T11:49:00Z</time>
      </trkpt>
      <trkpt lat="45.07721" lon="4.38714">
        <ele>1187.5</ele>
        <time>2026-04-30T11:49:05Z</time>
      </trkpt>
      <trkpt lat="45.07722" lon="4.38713">
        <ele>1187.4</ele>
        <time>2026-04-30T11:49:10Z</time>
      </trkpt>
      <trkpt lat="45.07722" lon="4.38713">
        <ele>1187.4</ele>
        <time>2026-04-30T11:49:15Z</time>
      </trkpt>
      <trkpt lat="45.07722" lon="4.38713">
        <ele>1187.4</ele>
        <time>2026-04-30T11:49:20Z</time>
      </trkpt>
      <trkpt lat="45.07724" lon="4.38712">
        <ele>1187.3</ele>
        <time>2026-04-30T11:49:25Z</time>
      </trkpt>
      <trkpt lat="45.07731" lon="4.38715">
        <ele>1187.9</ele>
        <time>2026-04-30T11:49:30Z</time>
      </trkpt>
      <trkpt lat="45.0774" lon="4.38713">
        <ele>1187.8</ele>
        <time>2026-04-30T11:49:35Z</time>
      </trkpt>
      <trkpt lat="45.07746" lon="4.38712">
        <ele>1187.9</ele>
        <time>2026-04-30T11:49:40Z</time>
      </trkpt>
      <trkpt lat="45.07754" lon="4.38711">
        <ele>1188.1</ele>
        <time>2026-04-30T11:49:45Z</time>
      </trkpt>
      <trkpt lat="45.07761" lon="4.38707">
        <ele>1188.1</ele>
        <time>2026-04-30T11:49:50Z</time>
      </trkpt>
      <trkpt lat="45.07768" lon="4.38704">
        <ele>1188.2</ele>
        <time>2026-04-30T11:49:55Z</time>
      </trkpt>
      <trkpt lat="45.07774" lon="4.38702">
        <ele>1188.3</ele>
        <time>2026-04-30T11:50:00Z</time>
      </trkpt>
      <trkpt lat="45.0778" lon="4.38698">
        <ele>1188.1</ele>
        <time>2026-04-30T11:50:05Z</time>
      </trkpt>
      <trkpt lat="45.07787" lon="4.38695">
        <ele>1188.1</ele>
        <time>2026-04-30T11:50:10Z</time>
      </trkpt>
      <trkpt lat="45.07795" lon="4.38692">
        <ele>1188.2</ele>
        <time>2026-04-30T11:50:15Z</time>
      </trkpt>
      <trkpt lat="45.07801" lon="4.38688">
        <ele>1187.9</ele>
        <time>2026-04-30T11:50:20Z</time>
      </trkpt>
      <trkpt lat="45.07808" lon="4.38684">
        <ele>1187.7</ele>
        <time>2026-04-30T11:50:25Z</time>
      </trkpt>
      <trkpt lat="45.07816" lon="4.38682">
        <ele>1187.8</ele>
        <time>2026-04-30T11:50:30Z</time>
      </trkpt>
      <trkpt lat="45.07823" lon="4.38677">
        <ele>1187.3</ele>
        <time>2026-04-30T11:50:35Z</time>
      </trkpt>
      <trkpt lat="45.07829" lon="4.38674">
        <ele>1187.1</ele>
        <time>2026-04-30T11:50:40Z</time>
      </trkpt>
      <trkpt lat="45.07835" lon="4.38668">
        <ele>1186.4</ele>
        <time>2026-04-30T11:50:45Z</time>
      </trkpt>
      <trkpt lat="45.07841" lon="4.38663">
        <ele>1186.3</ele>
        <time>2026-04-30T11:50:50Z</time>
      </trkpt>
      <trkpt lat="45.07847" lon="4.38659">
        <ele>1186.4</ele>
        <time>2026-04-30T11:50:55Z</time>
      </trkpt>
      <trkpt lat="45.07853" lon="4.38656">
        <ele>1186.7</ele>
        <time>2026-04-30T11:51:00Z</time>
      </trkpt>
      <trkpt lat="45.07858" lon="4.38653">
        <ele>1186.8</ele>
        <time>2026-04-30T11:51:05Z</time>
      </trkpt>
      <trkpt lat="45.07866" lon="4.3865">
        <ele>1187.3</ele>
        <time>2026-04-30T11:51:10Z</time>
      </trkpt>
      <trkpt lat="45.07873" lon="4.38645">
        <ele>1187.5</ele>
        <time>2026-04-30T11:51:15Z</time>
      </trkpt>
      <trkpt lat="45.07879" lon="4.38638">
        <ele>1187.3</ele>
        <time>2026-04-30T11:51:20Z</time>
      </trkpt>
      <trkpt lat="45.07887" lon="4.38633">
        <ele>1187.6</ele>
        <time>2026-04-30T11:51:25Z</time>
      </trkpt>
      <trkpt lat="45.07894" lon="4.38628">
        <ele>1187.9</ele>
        <time>2026-04-30T11:51:30Z</time>
      </trkpt>
      <trkpt lat="45.07899" lon="4.38623">
        <ele>1187.9</ele>
        <time>2026-04-30T11:51:35Z</time>
      </trkpt>
      <trkpt lat="45.07902" lon="4.38618">
        <ele>1187.7</ele>
        <time>2026-04-30T11:51:40Z</time>
      </trkpt>
      <trkpt lat="45.07905" lon="4.38614">
        <ele>1187.6</ele>
        <time>2026-04-30T11:51:45Z</time>
      </trkpt>
      <trkpt lat="45.0791" lon="4.3861">
        <ele>1187.8</ele>
        <time>2026-04-30T11:51:50Z</time>
      </trkpt>
      <trkpt lat="45.07916" lon="4.38604">
        <ele>1187.9</ele>
        <time>2026-04-30T11:51:55Z</time>
      </trkpt>
      <trkpt lat="45.07923" lon="4.386">
        <ele>1188.6</ele>
        <time>2026-04-30T11:52:00Z</time>
      </trkpt>
      <trkpt lat="45.07928" lon="4.38595">
        <ele>1188.9</ele>
        <time>2026-04-30T11:52:05Z</time>
      </trkpt>
      <trkpt lat="45.07934" lon="4.3859">
        <ele>1189.4</ele>
        <time>2026-04-30T11:52:10Z</time>
      </trkpt>
      <trkpt lat="45.0794" lon="4.38583">
        <ele>1189.9</ele>
        <time>2026-04-30T11:52:15Z</time>
      </trkpt>
      <trkpt lat="45.07949" lon="4.38577">
        <ele>1191.5</ele>
        <time>2026-04-30T11:52:20Z</time>
      </trkpt>
      <trkpt lat="45.07955" lon="4.38571">
        <ele>1192.5</ele>
        <time>2026-04-30T11:52:25Z</time>
      </trkpt>
      <trkpt lat="45.07961" lon="4.38566">
        <ele>1193.6</ele>
        <time>2026-04-30T11:52:30Z</time>
      </trkpt>
      <trkpt lat="45.07967" lon="4.3856">
        <ele>1194.6</ele>
        <time>2026-04-30T11:52:35Z</time>
      </trkpt>
      <trkpt lat="45.07972" lon="4.38554">
        <ele>1195.5</ele>
        <time>2026-04-30T11:52:40Z</time>
      </trkpt>
      <trkpt lat="45.07977" lon="4.38548">
        <ele>1196.4</ele>
        <time>2026-04-30T11:52:45Z</time>
      </trkpt>
      <trkpt lat="45.07982" lon="4.38542">
        <ele>1197.4</ele>
        <time>2026-04-30T11:52:50Z</time>
      </trkpt>
      <trkpt lat="45.07987" lon="4.38537">
        <ele>1198.3</ele>
        <time>2026-04-30T11:52:55Z</time>
      </trkpt>
      <trkpt lat="45.07994" lon="4.38533">
        <ele>1199.6</ele>
        <time>2026-04-30T11:53:00Z</time>
      </trkpt>
      <trkpt lat="45.08" lon="4.38529">
        <ele>1200.7</ele>
        <time>2026-04-30T11:53:05Z</time>
      </trkpt>
      <trkpt lat="45.08002" lon="4.3853">
        <ele>1200.7</ele>
        <time>2026-04-30T11:53:10Z</time>
      </trkpt>
      <trkpt lat="45.08002" lon="4.38529">
        <ele>1200.7</ele>
        <time>2026-04-30T11:53:15Z</time>
      </trkpt>
      <trkpt lat="45.08007" lon="4.38527">
        <ele>1200.9</ele>
        <time>2026-04-30T11:53:20Z</time>
      </trkpt>
      <trkpt lat="45.08016" lon="4.38525">
        <ele>1201.2</ele>
        <time>2026-04-30T11:53:25Z</time>
      </trkpt>
      <trkpt lat="45.08026" lon="4.38523">
        <ele>1201.5</ele>
        <time>2026-04-30T11:53:30Z</time>
      </trkpt>
      <trkpt lat="45.08033" lon="4.38517">
        <ele>1202</ele>
        <time>2026-04-30T11:53:35Z</time>
      </trkpt>
      <trkpt lat="45.0804" lon="4.38516">
        <ele>1202.3</ele>
        <time>2026-04-30T11:53:40Z</time>
      </trkpt>
      <trkpt lat="45.08046" lon="4.38511">
        <ele>1202.7</ele>
        <time>2026-04-30T11:53:45Z</time>
      </trkpt>
      <trkpt lat="45.08052" lon="4.38509">
        <ele>1203.1</ele>
        <time>2026-04-30T11:53:50Z</time>
      </trkpt>
      <trkpt lat="45.08057" lon="4.38506">
        <ele>1203.4</ele>
        <time>2026-04-30T11:53:55Z</time>
      </trkpt>
      <trkpt lat="45.08062" lon="4.38499">
        <ele>1204</ele>
        <time>2026-04-30T11:54:00Z</time>
      </trkpt>
      <trkpt lat="45.08067" lon="4.3849">
        <ele>1204.3</ele>
        <time>2026-04-30T11:54:05Z</time>
      </trkpt>
      <trkpt lat="45.08072" lon="4.38487">
        <ele>1204.6</ele>
        <time>2026-04-30T11:54:10Z</time>
      </trkpt>
      <trkpt lat="45.08077" lon="4.38483">
        <ele>1204.9</ele>
        <time>2026-04-30T11:54:15Z</time>
      </trkpt>
      <trkpt lat="45.08083" lon="4.38482">
        <ele>1205.2</ele>
        <time>2026-04-30T11:54:20Z</time>
      </trkpt>
      <trkpt lat="45.08089" lon="4.3848">
        <ele>1204.9</ele>
        <time>2026-04-30T11:54:25Z</time>
      </trkpt>
      <trkpt lat="45.08094" lon="4.38479">
        <ele>1204.7</ele>
        <time>2026-04-30T11:54:30Z</time>
      </trkpt>
      <trkpt lat="45.081" lon="4.38479">
        <ele>1204.4</ele>
        <time>2026-04-30T11:54:35Z</time>
      </trkpt>
      <trkpt lat="45.08106" lon="4.38478">
        <ele>1204.1</ele>
        <time>2026-04-30T11:54:40Z</time>
      </trkpt>
      <trkpt lat="45.08111" lon="4.38476">
        <ele>1204</ele>
        <time>2026-04-30T11:54:45Z</time>
      </trkpt>
      <trkpt lat="45.08116" lon="4.38476">
        <ele>1203.7</ele>
        <time>2026-04-30T11:54:50Z</time>
      </trkpt>
      <trkpt lat="45.08122" lon="4.38476">
        <ele>1203.4</ele>
        <time>2026-04-30T11:54:55Z</time>
      </trkpt>
      <trkpt lat="45.08129" lon="4.38475">
        <ele>1203.2</ele>
        <time>2026-04-30T11:55:00Z</time>
      </trkpt>
      <trkpt lat="45.08136" lon="4.38474">
        <ele>1202.9</ele>
        <time>2026-04-30T11:55:05Z</time>
      </trkpt>
      <trkpt lat="45.08146" lon="4.38477">
        <ele>1202.2</ele>
        <time>2026-04-30T11:55:10Z</time>
      </trkpt>
      <trkpt lat="45.08152" lon="4.38476">
        <ele>1202</ele>
        <time>2026-04-30T11:55:15Z</time>
      </trkpt>
      <trkpt lat="45.08159" lon="4.38475">
        <ele>1201.8</ele>
        <time>2026-04-30T11:55:20Z</time>
      </trkpt>
      <trkpt lat="45.08166" lon="4.38474">
        <ele>1201.5</ele>
        <time>2026-04-30T11:55:25Z</time>
      </trkpt>
      <trkpt lat="45.08172" lon="4.38472">
        <ele>1201.7</ele>
        <time>2026-04-30T11:55:30Z</time>
      </trkpt>
      <trkpt lat="45.08179" lon="4.3847">
        <ele>1201.8</ele>
        <time>2026-04-30T11:55:35Z</time>
      </trkpt>
      <trkpt lat="45.08185" lon="4.3847">
        <ele>1201.8</ele>
        <time>2026-04-30T11:55:40Z</time>
      </trkpt>
      <trkpt lat="45.08192" lon="4.38471">
        <ele>1201.7</ele>
        <time>2026-04-30T11:55:45Z</time>
      </trkpt>
      <trkpt lat="45.08199" lon="4.3847">
        <ele>1201.7</ele>
        <time>2026-04-30T11:55:50Z</time>
      </trkpt>
      <trkpt lat="45.08205" lon="4.3847">
        <ele>1201.6</ele>
        <time>2026-04-30T11:55:55Z</time>
      </trkpt>
      <trkpt lat="45.08213" lon="4.38466">
        <ele>1201.8</ele>
        <time>2026-04-30T11:56:00Z</time>
      </trkpt>
      <trkpt lat="45.0822" lon="4.38466">
        <ele>1201.7</ele>
        <time>2026-04-30T11:56:05Z</time>
      </trkpt>
      <trkpt lat="45.08228" lon="4.38467">
        <ele>1201.6</ele>
        <time>2026-04-30T11:56:10Z</time>
      </trkpt>
      <trkpt lat="45.08236" lon="4.38468">
        <ele>1201.5</ele>
        <time>2026-04-30T11:56:15Z</time>
      </trkpt>
      <trkpt lat="45.08244" lon="4.3847">
        <ele>1201.4</ele>
        <time>2026-04-30T11:56:20Z</time>
      </trkpt>
      <trkpt lat="45.08251" lon="4.38469">
        <ele>1201.4</ele>
        <time>2026-04-30T11:56:25Z</time>
      </trkpt>
      <trkpt lat="45.08258" lon="4.38466">
        <ele>1201.4</ele>
        <time>2026-04-30T11:56:30Z</time>
      </trkpt>
      <trkpt lat="45.08263" lon="4.38463">
        <ele>1201.4</ele>
        <time>2026-04-30T11:56:35Z</time>
      </trkpt>
      <trkpt lat="45.0827" lon="4.3846">
        <ele>1201.4</ele>
        <time>2026-04-30T11:56:40Z</time>
      </trkpt>
      <trkpt lat="45.08276" lon="4.38459">
        <ele>1201.3</ele>
        <time>2026-04-30T11:56:45Z</time>
      </trkpt>
      <trkpt lat="45.08283" lon="4.38456">
        <ele>1201.3</ele>
        <time>2026-04-30T11:56:50Z</time>
      </trkpt>
      <trkpt lat="45.08291" lon="4.38453">
        <ele>1201.3</ele>
        <time>2026-04-30T11:56:55Z</time>
      </trkpt>
      <trkpt lat="45.08299" lon="4.38448">
        <ele>1201.3</ele>
        <time>2026-04-30T11:57:00Z</time>
      </trkpt>
      <trkpt lat="45.08306" lon="4.38444">
        <ele>1201.2</ele>
        <time>2026-04-30T11:57:05Z</time>
      </trkpt>
      <trkpt lat="45.08314" lon="4.38442">
        <ele>1201.2</ele>
        <time>2026-04-30T11:57:10Z</time>
      </trkpt>
      <trkpt lat="45.0832" lon="4.38439">
        <ele>1201.1</ele>
        <time>2026-04-30T11:57:15Z</time>
      </trkpt>
      <trkpt lat="45.08323" lon="4.38441">
        <ele>1201.1</ele>
        <time>2026-04-30T11:57:20Z</time>
      </trkpt>
      <trkpt lat="45.08327" lon="4.3844">
        <ele>1201.1</ele>
        <time>2026-04-30T11:57:25Z</time>
      </trkpt>
      <trkpt lat="45.0833" lon="4.38438">
        <ele>1201</ele>
        <time>2026-04-30T11:57:30Z</time>
      </trkpt>
      <trkpt lat="45.08332" lon="4.38436">
        <ele>1201</ele>
        <time>2026-04-30T11:57:35Z</time>
      </trkpt>
      <trkpt lat="45.08336" lon="4.38431">
        <ele>1200.9</ele>
        <time>2026-04-30T11:57:40Z</time>
      </trkpt>
      <trkpt lat="45.08342" lon="4.3843">
        <ele>1200.7</ele>
        <time>2026-04-30T11:57:45Z</time>
      </trkpt>
      <trkpt lat="45.08347" lon="4.38428">
        <ele>1200.6</ele>
        <time>2026-04-30T11:57:50Z</time>
      </trkpt>
      <trkpt lat="45.08352" lon="4.38425">
        <ele>1200.4</ele>
        <time>2026-04-30T11:57:55Z</time>
      </trkpt>
      <trkpt lat="45.08359" lon="4.38423">
        <ele>1200.1</ele>
        <time>2026-04-30T11:58:00Z</time>
      </trkpt>
      <trkpt lat="45.08367" lon="4.3842">
        <ele>1199.8</ele>
        <time>2026-04-30T11:58:05Z</time>
      </trkpt>
      <trkpt lat="45.08375" lon="4.38415">
        <ele>1199.6</ele>
        <time>2026-04-30T11:58:10Z</time>
      </trkpt>
      <trkpt lat="45.08381" lon="4.38412">
        <ele>1199.4</ele>
        <time>2026-04-30T11:58:15Z</time>
      </trkpt>
      <trkpt lat="45.08388" lon="4.38408">
        <ele>1199.2</ele>
        <time>2026-04-30T11:58:20Z</time>
      </trkpt>
      <trkpt lat="45.08394" lon="4.38405">
        <ele>1199</ele>
        <time>2026-04-30T11:58:25Z</time>
      </trkpt>
      <trkpt lat="45.08401" lon="4.38402">
        <ele>1198.7</ele>
        <time>2026-04-30T11:58:30Z</time>
      </trkpt>
      <trkpt lat="45.08407" lon="4.384">
        <ele>1198.5</ele>
        <time>2026-04-30T11:58:35Z</time>
      </trkpt>
      <trkpt lat="45.08413" lon="4.38397">
        <ele>1198.2</ele>
        <time>2026-04-30T11:58:40Z</time>
      </trkpt>
      <trkpt lat="45.08421" lon="4.38392">
        <ele>1197.8</ele>
        <time>2026-04-30T11:58:45Z</time>
      </trkpt>
      <trkpt lat="45.08429" lon="4.3839">
        <ele>1197.5</ele>
        <time>2026-04-30T11:58:50Z</time>
      </trkpt>
      <trkpt lat="45.08436" lon="4.38385">
        <ele>1197.1</ele>
        <time>2026-04-30T11:58:55Z</time>
      </trkpt>
      <trkpt lat="45.08443" lon="4.38383">
        <ele>1196.8</ele>
        <time>2026-04-30T11:59:00Z</time>
      </trkpt>
      <trkpt lat="45.0845" lon="4.3838">
        <ele>1196.4</ele>
        <time>2026-04-30T11:59:05Z</time>
      </trkpt>
      <trkpt lat="45.08457" lon="4.38376">
        <ele>1196.1</ele>
        <time>2026-04-30T11:59:10Z</time>
      </trkpt>
      <trkpt lat="45.08465" lon="4.38372">
        <ele>1195.6</ele>
        <time>2026-04-30T11:59:15Z</time>
      </trkpt>
      <trkpt lat="45.08471" lon="4.38367">
        <ele>1195.3</ele>
        <time>2026-04-30T11:59:20Z</time>
      </trkpt>
      <trkpt lat="45.08477" lon="4.38368">
        <ele>1195</ele>
        <time>2026-04-30T11:59:25Z</time>
      </trkpt>
      <trkpt lat="45.08483" lon="4.38361">
        <ele>1194.5</ele>
        <time>2026-04-30T11:59:30Z</time>
      </trkpt>
      <trkpt lat="45.08492" lon="4.38361">
        <ele>1194.1</ele>
        <time>2026-04-30T11:59:35Z</time>
      </trkpt>
      <trkpt lat="45.08498" lon="4.38362">
        <ele>1193.8</ele>
        <time>2026-04-30T11:59:40Z</time>
      </trkpt>
      <trkpt lat="45.08505" lon="4.38361">
        <ele>1193.5</ele>
        <time>2026-04-30T11:59:45Z</time>
      </trkpt>
      <trkpt lat="45.08511" lon="4.38361">
        <ele>1193.3</ele>
        <time>2026-04-30T11:59:50Z</time>
      </trkpt>
      <trkpt lat="45.08519" lon="4.38362">
        <ele>1193.1</ele>
        <time>2026-04-30T11:59:55Z</time>
      </trkpt>
      <trkpt lat="45.08526" lon="4.38365">
        <ele>1192.9</ele>
        <time>2026-04-30T12:00:00Z</time>
      </trkpt>
      <trkpt lat="45.08532" lon="4.38365">
        <ele>1192.8</ele>
        <time>2026-04-30T12:00:05Z</time>
      </trkpt>
      <trkpt lat="45.0854" lon="4.38365">
        <ele>1192.5</ele>
        <time>2026-04-30T12:00:10Z</time>
      </trkpt>
      <trkpt lat="45.08547" lon="4.38365">
        <ele>1192.3</ele>
        <time>2026-04-30T12:00:15Z</time>
      </trkpt>
      <trkpt lat="45.08552" lon="4.38365">
        <ele>1192.1</ele>
        <time>2026-04-30T12:00:20Z</time>
      </trkpt>
      <trkpt lat="45.08559" lon="4.38366">
        <ele>1191.9</ele>
        <time>2026-04-30T12:00:25Z</time>
      </trkpt>
      <trkpt lat="45.08564" lon="4.38368">
        <ele>1191.8</ele>
        <time>2026-04-30T12:00:30Z</time>
      </trkpt>
      <trkpt lat="45.08569" lon="4.38371">
        <ele>1191.8</ele>
        <time>2026-04-30T12:00:35Z</time>
      </trkpt>
      <trkpt lat="45.08574" lon="4.38373">
        <ele>1191.7</ele>
        <time>2026-04-30T12:00:40Z</time>
      </trkpt>
      <trkpt lat="45.0858" lon="4.38376">
        <ele>1191.6</ele>
        <time>2026-04-30T12:00:45Z</time>
      </trkpt>
      <trkpt lat="45.08587" lon="4.38377">
        <ele>1191.6</ele>
        <time>2026-04-30T12:00:50Z</time>
      </trkpt>
      <trkpt lat="45.08593" lon="4.38378">
        <ele>1191.8</ele>
        <time>2026-04-30T12:00:55Z</time>
      </trkpt>
      <trkpt lat="45.08597" lon="4.3838">
        <ele>1191.9</ele>
        <time>2026-04-30T12:01:00Z</time>
      </trkpt>
      <trkpt lat="45.08604" lon="4.38383">
        <ele>1192.2</ele>
        <time>2026-04-30T12:01:05Z</time>
      </trkpt>
      <trkpt lat="45.0861" lon="4.38385">
        <ele>1192.4</ele>
        <time>2026-04-30T12:01:10Z</time>
      </trkpt>
      <trkpt lat="45.08617" lon="4.38387">
        <ele>1192.6</ele>
        <time>2026-04-30T12:01:15Z</time>
      </trkpt>
      <trkpt lat="45.08624" lon="4.38388">
        <ele>1192.8</ele>
        <time>2026-04-30T12:01:20Z</time>
      </trkpt>
      <trkpt lat="45.08631" lon="4.3839">
        <ele>1193</ele>
        <time>2026-04-30T12:01:25Z</time>
      </trkpt>
      <trkpt lat="45.08638" lon="4.38393">
        <ele>1193.3</ele>
        <time>2026-04-30T12:01:30Z</time>
      </trkpt>
      <trkpt lat="45.08645" lon="4.38395">
        <ele>1193.5</ele>
        <time>2026-04-30T12:01:35Z</time>
      </trkpt>
      <trkpt lat="45.08651" lon="4.38398">
        <ele>1193.8</ele>
        <time>2026-04-30T12:01:40Z</time>
      </trkpt>
      <trkpt lat="45.08656" lon="4.38401">
        <ele>1194</ele>
        <time>2026-04-30T12:01:45Z</time>
      </trkpt>
      <trkpt lat="45.08664" lon="4.38405">
        <ele>1194.4</ele>
        <time>2026-04-30T12:01:50Z</time>
      </trkpt>
      <trkpt lat="45.0867" lon="4.3841">
        <ele>1194.7</ele>
        <time>2026-04-30T12:01:55Z</time>
      </trkpt>
      <trkpt lat="45.08679" lon="4.38413">
        <ele>1194.9</ele>
        <time>2026-04-30T12:02:00Z</time>
      </trkpt>
      <trkpt lat="45.08686" lon="4.38417">
        <ele>1195</ele>
        <time>2026-04-30T12:02:05Z</time>
      </trkpt>
      <trkpt lat="45.08695" lon="4.3842">
        <ele>1195</ele>
        <time>2026-04-30T12:02:10Z</time>
      </trkpt>
      <trkpt lat="45.08702" lon="4.3842">
        <ele>1195</ele>
        <time>2026-04-30T12:02:15Z</time>
      </trkpt>
      <trkpt lat="45.08709" lon="4.38422">
        <ele>1195.1</ele>
        <time>2026-04-30T12:02:20Z</time>
      </trkpt>
      <trkpt lat="45.08715" lon="4.38424">
        <ele>1195.1</ele>
        <time>2026-04-30T12:02:25Z</time>
      </trkpt>
      <trkpt lat="45.08721" lon="4.38427">
        <ele>1195.1</ele>
        <time>2026-04-30T12:02:30Z</time>
      </trkpt>
      <trkpt lat="45.08726" lon="4.38431">
        <ele>1195.2</ele>
        <time>2026-04-30T12:02:35Z</time>
      </trkpt>
      <trkpt lat="45.08733" lon="4.38433">
        <ele>1195.2</ele>
        <time>2026-04-30T12:02:40Z</time>
      </trkpt>
      <trkpt lat="45.0874" lon="4.38437">
        <ele>1195.2</ele>
        <time>2026-04-30T12:02:45Z</time>
      </trkpt>
      <trkpt lat="45.08746" lon="4.38441">
        <ele>1195.3</ele>
        <time>2026-04-30T12:02:50Z</time>
      </trkpt>
      <trkpt lat="45.08753" lon="4.38441">
        <ele>1195.4</ele>
        <time>2026-04-30T12:02:55Z</time>
      </trkpt>
      <trkpt lat="45.08757" lon="4.38443">
        <ele>1195.5</ele>
        <time>2026-04-30T12:03:00Z</time>
      </trkpt>
      <trkpt lat="45.08762" lon="4.38443">
        <ele>1195.6</ele>
        <time>2026-04-30T12:03:05Z</time>
      </trkpt>
      <trkpt lat="45.08765" lon="4.38442">
        <ele>1195.6</ele>
        <time>2026-04-30T12:03:10Z</time>
      </trkpt>
      <trkpt lat="45.08768" lon="4.38441">
        <ele>1195.7</ele>
        <time>2026-04-30T12:03:15Z</time>
      </trkpt>
      <trkpt lat="45.08773" lon="4.38444">
        <ele>1195.8</ele>
        <time>2026-04-30T12:03:20Z</time>
      </trkpt>
      <trkpt lat="45.08776" lon="4.38447">
        <ele>1195.9</ele>
        <time>2026-04-30T12:03:25Z</time>
      </trkpt>
      <trkpt lat="45.08779" lon="4.38448">
        <ele>1195.9</ele>
        <time>2026-04-30T12:03:30Z</time>
      </trkpt>
      <trkpt lat="45.08784" lon="4.38453">
        <ele>1196.1</ele>
        <time>2026-04-30T12:03:35Z</time>
      </trkpt>
      <trkpt lat="45.0879" lon="4.38457">
        <ele>1196.2</ele>
        <time>2026-04-30T12:03:40Z</time>
      </trkpt>
      <trkpt lat="45.08795" lon="4.38462">
        <ele>1196.3</ele>
        <time>2026-04-30T12:03:45Z</time>
      </trkpt>
      <trkpt lat="45.08802" lon="4.38474">
        <ele>1196.5</ele>
        <time>2026-04-30T12:03:50Z</time>
      </trkpt>
      <trkpt lat="45.08808" lon="4.3848">
        <ele>1196.6</ele>
        <time>2026-04-30T12:03:55Z</time>
      </trkpt>
      <trkpt lat="45.08815" lon="4.38484">
        <ele>1196.7</ele>
        <time>2026-04-30T12:04:00Z</time>
      </trkpt>
      <trkpt lat="45.08821" lon="4.38488">
        <ele>1196.8</ele>
        <time>2026-04-30T12:04:05Z</time>
      </trkpt>
      <trkpt lat="45.08826" lon="4.38492">
        <ele>1196.9</ele>
        <time>2026-04-30T12:04:10Z</time>
      </trkpt>
      <trkpt lat="45.08832" lon="4.38496">
        <ele>1197</ele>
        <time>2026-04-30T12:04:15Z</time>
      </trkpt>
      <trkpt lat="45.08839" lon="4.38498">
        <ele>1197.3</ele>
        <time>2026-04-30T12:04:20Z</time>
      </trkpt>
      <trkpt lat="45.08845" lon="4.385">
        <ele>1197.6</ele>
        <time>2026-04-30T12:04:25Z</time>
      </trkpt>
      <trkpt lat="45.08852" lon="4.38506">
        <ele>1197.6</ele>
        <time>2026-04-30T12:04:30Z</time>
      </trkpt>
      <trkpt lat="45.08857" lon="4.38511">
        <ele>1197.6</ele>
        <time>2026-04-30T12:04:35Z</time>
      </trkpt>
      <trkpt lat="45.08863" lon="4.38517">
        <ele>1197.7</ele>
        <time>2026-04-30T12:04:40Z</time>
      </trkpt>
      <trkpt lat="45.08868" lon="4.38521">
        <ele>1197.8</ele>
        <time>2026-04-30T12:04:45Z</time>
      </trkpt>
      <trkpt lat="45.08873" lon="4.38526">
        <ele>1197.8</ele>
        <time>2026-04-30T12:04:50Z</time>
      </trkpt>
      <trkpt lat="45.08878" lon="4.38531">
        <ele>1197.9</ele>
        <time>2026-04-30T12:04:55Z</time>
      </trkpt>
      <trkpt lat="45.08884" lon="4.38539">
        <ele>1197.8</ele>
        <time>2026-04-30T12:05:00Z</time>
      </trkpt>
      <trkpt lat="45.0889" lon="4.38545">
        <ele>1197.9</ele>
        <time>2026-04-30T12:05:05Z</time>
      </trkpt>
      <trkpt lat="45.08895" lon="4.38555">
        <ele>1197.8</ele>
        <time>2026-04-30T12:05:10Z</time>
      </trkpt>
      <trkpt lat="45.089" lon="4.38565">
        <ele>1197.7</ele>
        <time>2026-04-30T12:05:15Z</time>
      </trkpt>
      <trkpt lat="45.08904" lon="4.38575">
        <ele>1197.6</ele>
        <time>2026-04-30T12:05:20Z</time>
      </trkpt>
      <trkpt lat="45.08908" lon="4.38583">
        <ele>1197.5</ele>
        <time>2026-04-30T12:05:25Z</time>
      </trkpt>
      <trkpt lat="45.08911" lon="4.38589">
        <ele>1197.5</ele>
        <time>2026-04-30T12:05:30Z</time>
      </trkpt>
      <trkpt lat="45.08913" lon="4.38597">
        <ele>1197.5</ele>
        <time>2026-04-30T12:05:35Z</time>
      </trkpt>
      <trkpt lat="45.08917" lon="4.38606">
        <ele>1197.5</ele>
        <time>2026-04-30T12:05:40Z</time>
      </trkpt>
      <trkpt lat="45.08923" lon="4.38614">
        <ele>1197.4</ele>
        <time>2026-04-30T12:05:45Z</time>
      </trkpt>
      <trkpt lat="45.08925" lon="4.38622">
        <ele>1197.3</ele>
        <time>2026-04-30T12:05:50Z</time>
      </trkpt>
      <trkpt lat="45.08928" lon="4.38631">
        <ele>1197.2</ele>
        <time>2026-04-30T12:05:55Z</time>
      </trkpt>
      <trkpt lat="45.08931" lon="4.38639">
        <ele>1197.1</ele>
        <time>2026-04-30T12:06:00Z</time>
      </trkpt>
      <trkpt lat="45.08933" lon="4.38648">
        <ele>1197</ele>
        <time>2026-04-30T12:06:05Z</time>
      </trkpt>
      <trkpt lat="45.08935" lon="4.38655">
        <ele>1196.9</ele>
        <time>2026-04-30T12:06:10Z</time>
      </trkpt>
      <trkpt lat="45.08935" lon="4.38655">
        <ele>1196.9</ele>
        <time>2026-04-30T12:06:15Z</time>
      </trkpt>
      <trkpt lat="45.08937" lon="4.38657">
        <ele>1196.9</ele>
        <time>2026-04-30T12:06:20Z</time>
      </trkpt>
      <trkpt lat="45.0894" lon="4.38662">
        <ele>1196.9</ele>
        <time>2026-04-30T12:06:25Z</time>
      </trkpt>
      <trkpt lat="45.08942" lon="4.38668">
        <ele>1197</ele>
        <time>2026-04-30T12:06:30Z</time>
      </trkpt>
      <trkpt lat="45.08943" lon="4.38675">
        <ele>1197.3</ele>
        <time>2026-04-30T12:06:35Z</time>
      </trkpt>
      <trkpt lat="45.08946" lon="4.38684">
        <ele>1197.8</ele>
        <time>2026-04-30T12:06:40Z</time>
      </trkpt>
      <trkpt lat="45.08948" lon="4.38692">
        <ele>1198.2</ele>
        <time>2026-04-30T12:06:45Z</time>
      </trkpt>
      <trkpt lat="45.08951" lon="4.38703">
        <ele>1198.8</ele>
        <time>2026-04-30T12:06:50Z</time>
      </trkpt>
      <trkpt lat="45.08954" lon="4.38711">
        <ele>1199.2</ele>
        <time>2026-04-30T12:06:55Z</time>
      </trkpt>
      <trkpt lat="45.08957" lon="4.38719">
        <ele>1199.7</ele>
        <time>2026-04-30T12:07:00Z</time>
      </trkpt>
      <trkpt lat="45.08961" lon="4.38721">
        <ele>1199.9</ele>
        <time>2026-04-30T12:07:05Z</time>
      </trkpt>
      <trkpt lat="45.08961" lon="4.38721">
        <ele>1199.9</ele>
        <time>2026-04-30T12:07:05Z</time>
      </trkpt>
      <trkpt lat="45.0896" lon="4.38722">
        <ele>1199.9</ele>
        <time>2026-04-30T12:07:28Z</time>
      </trkpt>
      <trkpt lat="45.0896" lon="4.38722">
        <ele>1199.9</ele>
        <time>2026-04-30T12:07:33Z</time>
      </trkpt>
      <trkpt lat="45.0896" lon="4.38723">
        <ele>1199.9</ele>
        <time>2026-04-30T12:07:38Z</time>
      </trkpt>
      <trkpt lat="45.08963" lon="4.3873">
        <ele>1200.3</ele>
        <time>2026-04-30T12:07:43Z</time>
      </trkpt>
      <trkpt lat="45.08966" lon="4.38739">
        <ele>1200.7</ele>
        <time>2026-04-30T12:07:48Z</time>
      </trkpt>
      <trkpt lat="45.08969" lon="4.38748">
        <ele>1201.2</ele>
        <time>2026-04-30T12:07:53Z</time>
      </trkpt>
      <trkpt lat="45.08971" lon="4.38758">
        <ele>1201.9</ele>
        <time>2026-04-30T12:07:58Z</time>
      </trkpt>
      <trkpt lat="45.08973" lon="4.38768">
        <ele>1202.7</ele>
        <time>2026-04-30T12:08:03Z</time>
      </trkpt>
      <trkpt lat="45.08975" lon="4.38779">
        <ele>1203.6</ele>
        <time>2026-04-30T12:08:08Z</time>
      </trkpt>
      <trkpt lat="45.08977" lon="4.38788">
        <ele>1204.3</ele>
        <time>2026-04-30T12:08:13Z</time>
      </trkpt>
      <trkpt lat="45.08979" lon="4.38798">
        <ele>1205.1</ele>
        <time>2026-04-30T12:08:18Z</time>
      </trkpt>
      <trkpt lat="45.0898" lon="4.38807">
        <ele>1205.8</ele>
        <time>2026-04-30T12:08:23Z</time>
      </trkpt>
      <trkpt lat="45.08981" lon="4.38817">
        <ele>1206.6</ele>
        <time>2026-04-30T12:08:28Z</time>
      </trkpt>
      <trkpt lat="45.08983" lon="4.38824">
        <ele>1207.1</ele>
        <time>2026-04-30T12:08:33Z</time>
      </trkpt>
      <trkpt lat="45.08983" lon="4.38833">
        <ele>1207.8</ele>
        <time>2026-04-30T12:08:38Z</time>
      </trkpt>
      <trkpt lat="45.08985" lon="4.38842">
        <ele>1207.9</ele>
        <time>2026-04-30T12:08:43Z</time>
      </trkpt>
      <trkpt lat="45.08988" lon="4.38851">
        <ele>1208.1</ele>
        <time>2026-04-30T12:08:48Z</time>
      </trkpt>
      <trkpt lat="45.0899" lon="4.38858">
        <ele>1208.2</ele>
        <time>2026-04-30T12:08:53Z</time>
      </trkpt>
      <trkpt lat="45.08993" lon="4.38866">
        <ele>1208.3</ele>
        <time>2026-04-30T12:08:58Z</time>
      </trkpt>
      <trkpt lat="45.08995" lon="4.38877">
        <ele>1208.5</ele>
        <time>2026-04-30T12:09:03Z</time>
      </trkpt>
      <trkpt lat="45.08998" lon="4.38885">
        <ele>1208.6</ele>
        <time>2026-04-30T12:09:08Z</time>
      </trkpt>
      <trkpt lat="45.09002" lon="4.38892">
        <ele>1208.7</ele>
        <time>2026-04-30T12:09:13Z</time>
      </trkpt>
      <trkpt lat="45.09007" lon="4.38901">
        <ele>1208.6</ele>
        <time>2026-04-30T12:09:18Z</time>
      </trkpt>
      <trkpt lat="45.09007" lon="4.38909">
        <ele>1208.7</ele>
        <time>2026-04-30T12:09:23Z</time>
      </trkpt>
      <trkpt lat="45.09009" lon="4.38919">
        <ele>1208.5</ele>
        <time>2026-04-30T12:09:28Z</time>
      </trkpt>
      <trkpt lat="45.09011" lon="4.38928">
        <ele>1207.9</ele>
        <time>2026-04-30T12:09:33Z</time>
      </trkpt>
      <trkpt lat="45.09014" lon="4.38935">
        <ele>1207.4</ele>
        <time>2026-04-30T12:09:38Z</time>
      </trkpt>
      <trkpt lat="45.09017" lon="4.38946">
        <ele>1206.6</ele>
        <time>2026-04-30T12:09:43Z</time>
      </trkpt>
      <trkpt lat="45.09021" lon="4.38955">
        <ele>1205.9</ele>
        <time>2026-04-30T12:09:48Z</time>
      </trkpt>
      <trkpt lat="45.09024" lon="4.38964">
        <ele>1205.3</ele>
        <time>2026-04-30T12:09:53Z</time>
      </trkpt>
      <trkpt lat="45.09026" lon="4.38974">
        <ele>1204.6</ele>
        <time>2026-04-30T12:09:58Z</time>
      </trkpt>
      <trkpt lat="45.09029" lon="4.38982">
        <ele>1204</ele>
        <time>2026-04-30T12:10:03Z</time>
      </trkpt>
      <trkpt lat="45.09032" lon="4.3899">
        <ele>1203.4</ele>
        <time>2026-04-30T12:10:08Z</time>
      </trkpt>
      <trkpt lat="45.09035" lon="4.38999">
        <ele>1202.8</ele>
        <time>2026-04-30T12:10:13Z</time>
      </trkpt>
      <trkpt lat="45.09039" lon="4.39007">
        <ele>1202.3</ele>
        <time>2026-04-30T12:10:18Z</time>
      </trkpt>
      <trkpt lat="45.09042" lon="4.39016">
        <ele>1201.8</ele>
        <time>2026-04-30T12:10:23Z</time>
      </trkpt>
      <trkpt lat="45.09045" lon="4.39026">
        <ele>1201.3</ele>
        <time>2026-04-30T12:10:28Z</time>
      </trkpt>
      <trkpt lat="45.09049" lon="4.39033">
        <ele>1200.7</ele>
        <time>2026-04-30T12:10:33Z</time>
      </trkpt>
      <trkpt lat="45.09053" lon="4.3904">
        <ele>1200.2</ele>
        <time>2026-04-30T12:10:38Z</time>
      </trkpt>
      <trkpt lat="45.09057" lon="4.39048">
        <ele>1199.6</ele>
        <time>2026-04-30T12:10:43Z</time>
      </trkpt>
      <trkpt lat="45.0906" lon="4.39057">
        <ele>1199</ele>
        <time>2026-04-30T12:10:48Z</time>
      </trkpt>
      <trkpt lat="45.09063" lon="4.39064">
        <ele>1198.5</ele>
        <time>2026-04-30T12:10:53Z</time>
      </trkpt>
      <trkpt lat="45.09069" lon="4.39075">
        <ele>1197.5</ele>
        <time>2026-04-30T12:10:58Z</time>
      </trkpt>
      <trkpt lat="45.09073" lon="4.39085">
        <ele>1196.7</ele>
        <time>2026-04-30T12:11:03Z</time>
      </trkpt>
      <trkpt lat="45.09079" lon="4.39094">
        <ele>1195.9</ele>
        <time>2026-04-30T12:11:08Z</time>
      </trkpt>
      <trkpt lat="45.09083" lon="4.39102">
        <ele>1195.4</ele>
        <time>2026-04-30T12:11:13Z</time>
      </trkpt>
      <trkpt lat="45.09087" lon="4.39108">
        <ele>1195.1</ele>
        <time>2026-04-30T12:11:18Z</time>
      </trkpt>
      <trkpt lat="45.09092" lon="4.39117">
        <ele>1194.7</ele>
        <time>2026-04-30T12:11:23Z</time>
      </trkpt>
      <trkpt lat="45.09096" lon="4.39128">
        <ele>1194.3</ele>
        <time>2026-04-30T12:11:28Z</time>
      </trkpt>
      <trkpt lat="45.091" lon="4.39135">
        <ele>1194.1</ele>
        <time>2026-04-30T12:11:33Z</time>
      </trkpt>
      <trkpt lat="45.09104" lon="4.39142">
        <ele>1193.8</ele>
        <time>2026-04-30T12:11:38Z</time>
      </trkpt>
      <trkpt lat="45.0911" lon="4.39153">
        <ele>1193.4</ele>
        <time>2026-04-30T12:11:43Z</time>
      </trkpt>
      <trkpt lat="45.09113" lon="4.39161">
        <ele>1193.2</ele>
        <time>2026-04-30T12:11:48Z</time>
      </trkpt>
      <trkpt lat="45.09117" lon="4.39168">
        <ele>1193</ele>
        <time>2026-04-30T12:11:53Z</time>
      </trkpt>
      <trkpt lat="45.0912" lon="4.39174">
        <ele>1193</ele>
        <time>2026-04-30T12:11:58Z</time>
      </trkpt>
      <trkpt lat="45.09125" lon="4.39183">
        <ele>1193.1</ele>
        <time>2026-04-30T12:12:03Z</time>
      </trkpt>
      <trkpt lat="45.0913" lon="4.39194">
        <ele>1193.2</ele>
        <time>2026-04-30T12:12:08Z</time>
      </trkpt>
      <trkpt lat="45.09134" lon="4.39202">
        <ele>1193.3</ele>
        <time>2026-04-30T12:12:13Z</time>
      </trkpt>
      <trkpt lat="45.09139" lon="4.39208">
        <ele>1193.3</ele>
        <time>2026-04-30T12:12:18Z</time>
      </trkpt>
      <trkpt lat="45.09146" lon="4.39225">
        <ele>1193.5</ele>
        <time>2026-04-30T12:12:23Z</time>
      </trkpt>
      <trkpt lat="45.09151" lon="4.39234">
        <ele>1193.7</ele>
        <time>2026-04-30T12:12:28Z</time>
      </trkpt>
      <trkpt lat="45.09156" lon="4.39239">
        <ele>1193.8</ele>
        <time>2026-04-30T12:12:33Z</time>
      </trkpt>
      <trkpt lat="45.09158" lon="4.39246">
        <ele>1193.9</ele>
        <time>2026-04-30T12:12:38Z</time>
      </trkpt>
      <trkpt lat="45.09162" lon="4.39254">
        <ele>1194</ele>
        <time>2026-04-30T12:12:43Z</time>
      </trkpt>
      <trkpt lat="45.09165" lon="4.39261">
        <ele>1194.1</ele>
        <time>2026-04-30T12:12:48Z</time>
      </trkpt>
      <trkpt lat="45.09169" lon="4.39268">
        <ele>1194.1</ele>
        <time>2026-04-30T12:12:53Z</time>
      </trkpt>
      <trkpt lat="45.09174" lon="4.39276">
        <ele>1194.1</ele>
        <time>2026-04-30T12:12:58Z</time>
      </trkpt>
      <trkpt lat="45.09179" lon="4.39283">
        <ele>1193.9</ele>
        <time>2026-04-30T12:13:03Z</time>
      </trkpt>
      <trkpt lat="45.09184" lon="4.3929">
        <ele>1193.8</ele>
        <time>2026-04-30T12:13:08Z</time>
      </trkpt>
      <trkpt lat="45.09189" lon="4.39298">
        <ele>1193.6</ele>
        <time>2026-04-30T12:13:13Z</time>
      </trkpt>
      <trkpt lat="45.09195" lon="4.39305">
        <ele>1193.3</ele>
        <time>2026-04-30T12:13:18Z</time>
      </trkpt>
      <trkpt lat="45.09199" lon="4.39313">
        <ele>1193.1</ele>
        <time>2026-04-30T12:13:23Z</time>
      </trkpt>
      <trkpt lat="45.09202" lon="4.39321">
        <ele>1192.9</ele>
        <time>2026-04-30T12:13:28Z</time>
      </trkpt>
      <trkpt lat="45.09205" lon="4.39331">
        <ele>1192.7</ele>
        <time>2026-04-30T12:13:33Z</time>
      </trkpt>
      <trkpt lat="45.09209" lon="4.39341">
        <ele>1192.2</ele>
        <time>2026-04-30T12:13:38Z</time>
      </trkpt>
      <trkpt lat="45.09213" lon="4.39352">
        <ele>1191.6</ele>
        <time>2026-04-30T12:13:43Z</time>
      </trkpt>
      <trkpt lat="45.09217" lon="4.39361">
        <ele>1191.1</ele>
        <time>2026-04-30T12:13:48Z</time>
      </trkpt>
      <trkpt lat="45.09221" lon="4.39368">
        <ele>1190.6</ele>
        <time>2026-04-30T12:13:53Z</time>
      </trkpt>
      <trkpt lat="45.09226" lon="4.39374">
        <ele>1190.2</ele>
        <time>2026-04-30T12:13:58Z</time>
      </trkpt>
      <trkpt lat="45.09231" lon="4.39382">
        <ele>1189.7</ele>
        <time>2026-04-30T12:14:03Z</time>
      </trkpt>
      <trkpt lat="45.09236" lon="4.3939">
        <ele>1189.3</ele>
        <time>2026-04-30T12:14:08Z</time>
      </trkpt>
      <trkpt lat="45.0924" lon="4.394">
        <ele>1188.8</ele>
        <time>2026-04-30T12:14:13Z</time>
      </trkpt>
      <trkpt lat="45.09245" lon="4.39405">
        <ele>1188.5</ele>
        <time>2026-04-30T12:14:18Z</time>
      </trkpt>
      <trkpt lat="45.0925" lon="4.39413">
        <ele>1188.1</ele>
        <time>2026-04-30T12:14:23Z</time>
      </trkpt>
      <trkpt lat="45.09254" lon="4.39421">
        <ele>1187.8</ele>
        <time>2026-04-30T12:14:28Z</time>
      </trkpt>
      <trkpt lat="45.09259" lon="4.39427">
        <ele>1187.4</ele>
        <time>2026-04-30T12:14:33Z</time>
      </trkpt>
      <trkpt lat="45.09265" lon="4.39434">
        <ele>1187</ele>
        <time>2026-04-30T12:14:38Z</time>
      </trkpt>
      <trkpt lat="45.0927" lon="4.39442">
        <ele>1186.7</ele>
        <time>2026-04-30T12:14:43Z</time>
      </trkpt>
      <trkpt lat="45.09275" lon="4.39452">
        <ele>1186.3</ele>
        <time>2026-04-30T12:14:48Z</time>
      </trkpt>
      <trkpt lat="45.09278" lon="4.39462">
        <ele>1185.9</ele>
        <time>2026-04-30T12:14:53Z</time>
      </trkpt>
      <trkpt lat="45.09282" lon="4.39469">
        <ele>1185.6</ele>
        <time>2026-04-30T12:14:58Z</time>
      </trkpt>
      <trkpt lat="45.09286" lon="4.39477">
        <ele>1185.3</ele>
        <time>2026-04-30T12:15:03Z</time>
      </trkpt>
      <trkpt lat="45.09289" lon="4.39485">
        <ele>1185</ele>
        <time>2026-04-30T12:15:08Z</time>
      </trkpt>
      <trkpt lat="45.09293" lon="4.39495">
        <ele>1184.6</ele>
        <time>2026-04-30T12:15:13Z</time>
      </trkpt>
      <trkpt lat="45.09297" lon="4.3951">
        <ele>1183.9</ele>
        <time>2026-04-30T12:15:18Z</time>
      </trkpt>
      <trkpt lat="45.09299" lon="4.39518">
        <ele>1183.5</ele>
        <time>2026-04-30T12:15:23Z</time>
      </trkpt>
      <trkpt lat="45.09302" lon="4.39525">
        <ele>1183.2</ele>
        <time>2026-04-30T12:15:28Z</time>
      </trkpt>
      <trkpt lat="45.09308" lon="4.39533">
        <ele>1182.8</ele>
        <time>2026-04-30T12:15:33Z</time>
      </trkpt>
      <trkpt lat="45.09315" lon="4.39542">
        <ele>1182.3</ele>
        <time>2026-04-30T12:15:38Z</time>
      </trkpt>
      <trkpt lat="45.0932" lon="4.3955">
        <ele>1182</ele>
        <time>2026-04-30T12:15:43Z</time>
      </trkpt>
      <trkpt lat="45.09323" lon="4.39559">
        <ele>1181.7</ele>
        <time>2026-04-30T12:15:48Z</time>
      </trkpt>
      <trkpt lat="45.09327" lon="4.39565">
        <ele>1181.5</ele>
        <time>2026-04-30T12:15:53Z</time>
      </trkpt>
      <trkpt lat="45.09331" lon="4.39571">
        <ele>1181.3</ele>
        <time>2026-04-30T12:15:58Z</time>
      </trkpt>
      <trkpt lat="45.09337" lon="4.39579">
        <ele>1181</ele>
        <time>2026-04-30T12:16:03Z</time>
      </trkpt>
      <trkpt lat="45.09342" lon="4.39587">
        <ele>1180.6</ele>
        <time>2026-04-30T12:16:08Z</time>
      </trkpt>
      <trkpt lat="45.09347" lon="4.39595">
        <ele>1180.1</ele>
        <time>2026-04-30T12:16:13Z</time>
      </trkpt>
      <trkpt lat="45.09351" lon="4.39603">
        <ele>1179.7</ele>
        <time>2026-04-30T12:16:18Z</time>
      </trkpt>
      <trkpt lat="45.09353" lon="4.39611">
        <ele>1179.4</ele>
        <time>2026-04-30T12:16:23Z</time>
      </trkpt>
      <trkpt lat="45.09358" lon="4.39619">
        <ele>1179</ele>
        <time>2026-04-30T12:16:28Z</time>
      </trkpt>
      <trkpt lat="45.09362" lon="4.39626">
        <ele>1178.6</ele>
        <time>2026-04-30T12:16:33Z</time>
      </trkpt>
      <trkpt lat="45.09363" lon="4.39632">
        <ele>1178.4</ele>
        <time>2026-04-30T12:16:38Z</time>
      </trkpt>
      <trkpt lat="45.09366" lon="4.39637">
        <ele>1178.1</ele>
        <time>2026-04-30T12:16:43Z</time>
      </trkpt>
      <trkpt lat="45.0937" lon="4.39644">
        <ele>1177.8</ele>
        <time>2026-04-30T12:16:48Z</time>
      </trkpt>
      <trkpt lat="45.09377" lon="4.39652">
        <ele>1177.4</ele>
        <time>2026-04-30T12:16:53Z</time>
      </trkpt>
      <trkpt lat="45.09381" lon="4.39663">
        <ele>1177</ele>
        <time>2026-04-30T12:16:58Z</time>
      </trkpt>
      <trkpt lat="45.09386" lon="4.39672">
        <ele>1176.6</ele>
        <time>2026-04-30T12:17:03Z</time>
      </trkpt>
      <trkpt lat="45.0939" lon="4.39681">
        <ele>1176.3</ele>
        <time>2026-04-30T12:17:08Z</time>
      </trkpt>
      <trkpt lat="45.0939" lon="4.39682">
        <ele>1176.3</ele>
        <time>2026-04-30T12:17:13Z</time>
      </trkpt>
      <trkpt lat="45.09386" lon="4.39683">
        <ele>1176.4</ele>
        <time>2026-04-30T12:17:18Z</time>
      </trkpt>
      <trkpt lat="45.09382" lon="4.39689">
        <ele>1176.4</ele>
        <time>2026-04-30T12:17:23Z</time>
      </trkpt>
      <trkpt lat="45.09379" lon="4.39696">
        <ele>1176.3</ele>
        <time>2026-04-30T12:17:28Z</time>
      </trkpt>
      <trkpt lat="45.09381" lon="4.39704">
        <ele>1176.1</ele>
        <time>2026-04-30T12:17:33Z</time>
      </trkpt>
      <trkpt lat="45.09385" lon="4.39713">
        <ele>1175.7</ele>
        <time>2026-04-30T12:17:38Z</time>
      </trkpt>
      <trkpt lat="45.09391" lon="4.39718">
        <ele>1175.3</ele>
        <time>2026-04-30T12:17:43Z</time>
      </trkpt>
      <trkpt lat="45.09395" lon="4.39725">
        <ele>1175</ele>
        <time>2026-04-30T12:17:48Z</time>
      </trkpt>
      <trkpt lat="45.09401" lon="4.3973">
        <ele>1174.5</ele>
        <time>2026-04-30T12:17:53Z</time>
      </trkpt>
      <trkpt lat="45.09408" lon="4.39737">
        <ele>1173.9</ele>
        <time>2026-04-30T12:17:58Z</time>
      </trkpt>
      <trkpt lat="45.09414" lon="4.39743">
        <ele>1173.4</ele>
        <time>2026-04-30T12:18:03Z</time>
      </trkpt>
      <trkpt lat="45.0942" lon="4.39748">
        <ele>1173.2</ele>
        <time>2026-04-30T12:18:08Z</time>
      </trkpt>
      <trkpt lat="45.09427" lon="4.39753">
        <ele>1173.2</ele>
        <time>2026-04-30T12:18:13Z</time>
      </trkpt>
      <trkpt lat="45.09432" lon="4.3976">
        <ele>1173.1</ele>
        <time>2026-04-30T12:18:18Z</time>
      </trkpt>
      <trkpt lat="45.09437" lon="4.39768">
        <ele>1173</ele>
        <time>2026-04-30T12:18:23Z</time>
      </trkpt>
      <trkpt lat="45.09442" lon="4.39778">
        <ele>1172.7</ele>
        <time>2026-04-30T12:18:28Z</time>
      </trkpt>
      <trkpt lat="45.09446" lon="4.39786">
        <ele>1172.5</ele>
        <time>2026-04-30T12:18:33Z</time>
      </trkpt>
      <trkpt lat="45.09451" lon="4.39794">
        <ele>1172.3</ele>
        <time>2026-04-30T12:18:38Z</time>
      </trkpt>
      <trkpt lat="45.09456" lon="4.39801">
        <ele>1172.1</ele>
        <time>2026-04-30T12:18:43Z</time>
      </trkpt>
      <trkpt lat="45.09461" lon="4.39809">
        <ele>1171.9</ele>
        <time>2026-04-30T12:18:48Z</time>
      </trkpt>
      <trkpt lat="45.09466" lon="4.39817">
        <ele>1171.6</ele>
        <time>2026-04-30T12:18:53Z</time>
      </trkpt>
      <trkpt lat="45.0947" lon="4.39823">
        <ele>1171.4</ele>
        <time>2026-04-30T12:18:58Z</time>
      </trkpt>
      <trkpt lat="45.09473" lon="4.39828">
        <ele>1171.2</ele>
        <time>2026-04-30T12:19:03Z</time>
      </trkpt>
      <trkpt lat="45.09476" lon="4.39833">
        <ele>1171</ele>
        <time>2026-04-30T12:19:08Z</time>
      </trkpt>
      <trkpt lat="45.09482" lon="4.3984">
        <ele>1170.8</ele>
        <time>2026-04-30T12:19:13Z</time>
      </trkpt>
      <trkpt lat="45.09486" lon="4.39847">
        <ele>1170.6</ele>
        <time>2026-04-30T12:19:18Z</time>
      </trkpt>
      <trkpt lat="45.09491" lon="4.39856">
        <ele>1170.4</ele>
        <time>2026-04-30T12:19:23Z</time>
      </trkpt>
      <trkpt lat="45.09496" lon="4.39866">
        <ele>1170.2</ele>
        <time>2026-04-30T12:19:28Z</time>
      </trkpt>
      <trkpt lat="45.09499" lon="4.39874">
        <ele>1170</ele>
        <time>2026-04-30T12:19:33Z</time>
      </trkpt>
      <trkpt lat="45.09504" lon="4.39883">
        <ele>1169.8</ele>
        <time>2026-04-30T12:19:38Z</time>
      </trkpt>
      <trkpt lat="45.09509" lon="4.39891">
        <ele>1169.5</ele>
        <time>2026-04-30T12:19:43Z</time>
      </trkpt>
      <trkpt lat="45.09513" lon="4.399">
        <ele>1169.3</ele>
        <time>2026-04-30T12:19:48Z</time>
      </trkpt>
      <trkpt lat="45.09517" lon="4.39907">
        <ele>1169.1</ele>
        <time>2026-04-30T12:19:53Z</time>
      </trkpt>
      <trkpt lat="45.09519" lon="4.39915">
        <ele>1168.8</ele>
        <time>2026-04-30T12:19:58Z</time>
      </trkpt>
      <trkpt lat="45.09523" lon="4.39923">
        <ele>1168.6</ele>
        <time>2026-04-30T12:20:03Z</time>
      </trkpt>
      <trkpt lat="45.09527" lon="4.39934">
        <ele>1168.3</ele>
        <time>2026-04-30T12:20:08Z</time>
      </trkpt>
      <trkpt lat="45.09531" lon="4.39944">
        <ele>1168.1</ele>
        <time>2026-04-30T12:20:13Z</time>
      </trkpt>
      <trkpt lat="45.09541" lon="4.39956">
        <ele>1167.8</ele>
        <time>2026-04-30T12:20:18Z</time>
      </trkpt>
      <trkpt lat="45.09547" lon="4.3996">
        <ele>1167.7</ele>
        <time>2026-04-30T12:20:23Z</time>
      </trkpt>
      <trkpt lat="45.0955" lon="4.39968">
        <ele>1167.5</ele>
        <time>2026-04-30T12:20:28Z</time>
      </trkpt>
      <trkpt lat="45.09552" lon="4.39976">
        <ele>1167.4</ele>
        <time>2026-04-30T12:20:33Z</time>
      </trkpt>
      <trkpt lat="45.09554" lon="4.39983">
        <ele>1167.3</ele>
        <time>2026-04-30T12:20:38Z</time>
      </trkpt>
      <trkpt lat="45.09557" lon="4.39986">
        <ele>1167.2</ele>
        <time>2026-04-30T12:20:43Z</time>
      </trkpt>
      <trkpt lat="45.09557" lon="4.39986">
        <ele>1167.2</ele>
        <time>2026-04-30T12:20:48Z</time>
      </trkpt>
      <trkpt lat="45.09557" lon="4.39986">
        <ele>1167.2</ele>
        <time>2026-04-30T12:20:53Z</time>
      </trkpt>
      <trkpt lat="45.09557" lon="4.39986">
        <ele>1167.2</ele>
        <time>2026-04-30T12:20:58Z</time>
      </trkpt>
      <trkpt lat="45.09557" lon="4.39986">
        <ele>1167.2</ele>
        <time>2026-04-30T12:21:03Z</time>
      </trkpt>
      <trkpt lat="45.09557" lon="4.39986">
        <ele>1167.2</ele>
        <time>2026-04-30T12:21:08Z</time>
      </trkpt>
      <trkpt lat="45.09557" lon="4.39986">
        <ele>1167.2</ele>
        <time>2026-04-30T12:21:13Z</time>
      </trkpt>
      <trkpt lat="45.09557" lon="4.39986">
        <ele>1167.2</ele>
        <time>2026-04-30T12:21:18Z</time>
      </trkpt>
      <trkpt lat="45.09557" lon="4.39986">
        <ele>1167.2</ele>
        <time>2026-04-30T12:21:23Z</time>
      </trkpt>
      <trkpt lat="45.09557" lon="4.39986">
        <ele>1167.2</ele>
        <time>2026-04-30T12:21:28Z</time>
      </trkpt>
      <trkpt lat="45.09557" lon="4.39986">
        <ele>1167.2</ele>
        <time>2026-04-30T12:21:33Z</time>
      </trkpt>
      <trkpt lat="45.09557" lon="4.39986">
        <ele>1167.2</ele>
        <time>2026-04-30T12:21:38Z</time>
      </trkpt>
      <trkpt lat="45.09557" lon="4.39986">
        <ele>1167.2</ele>
        <time>2026-04-30T12:21:43Z</time>
      </trkpt>
      <trkpt lat="45.09557" lon="4.39986">
        <ele>1167.2</ele>
        <time>2026-04-30T12:21:48Z</time>
      </trkpt>
      <trkpt lat="45.09557" lon="4.39986">
        <ele>1167.2</ele>
        <time>2026-04-30T12:21:53Z</time>
      </trkpt>
      <trkpt lat="45.09557" lon="4.39986">
        <ele>1167.2</ele>
        <time>2026-04-30T12:21:58Z</time>
      </trkpt>
      <trkpt lat="45.09557" lon="4.39986">
        <ele>1167.2</ele>
        <time>2026-04-30T12:22:03Z</time>
      </trkpt>
      <trkpt lat="45.09557" lon="4.39986">
        <ele>1167.2</ele>
        <time>2026-04-30T12:22:08Z</time>
      </trkpt>
      <trkpt lat="45.09557" lon="4.39986">
        <ele>1167.2</ele>
        <time>2026-04-30T12:22:13Z</time>
      </trkpt>
      <trkpt lat="45.09557" lon="4.39986">
        <ele>1167.2</ele>
        <time>2026-04-30T12:22:18Z</time>
      </trkpt>
      <trkpt lat="45.0956" lon="4.3999">
        <ele>1167.2</ele>
        <time>2026-04-30T12:22:23Z</time>
      </trkpt>
      <trkpt lat="45.09561" lon="4.39995">
        <ele>1167.1</ele>
        <time>2026-04-30T12:22:28Z</time>
      </trkpt>
      <trkpt lat="45.09562" lon="4.39997">
        <ele>1167</ele>
        <time>2026-04-30T12:22:33Z</time>
      </trkpt>
      <trkpt lat="45.09563" lon="4.39997">
        <ele>1167</ele>
        <time>2026-04-30T12:22:38Z</time>
      </trkpt>
      <trkpt lat="45.09563" lon="4.39997">
        <ele>1167</ele>
        <time>2026-04-30T12:22:43Z</time>
      </trkpt>
      <trkpt lat="45.09563" lon="4.39997">
        <ele>1167</ele>
        <time>2026-04-30T12:22:48Z</time>
      </trkpt>
      <trkpt lat="45.09563" lon="4.39997">
        <ele>1167</ele>
        <time>2026-04-30T12:22:53Z</time>
      </trkpt>
      <trkpt lat="45.09563" lon="4.39997">
        <ele>1167</ele>
        <time>2026-04-30T12:22:58Z</time>
      </trkpt>
      <trkpt lat="45.09563" lon="4.39997">
        <ele>1167</ele>
        <time>2026-04-30T12:23:03Z</time>
      </trkpt>
      <trkpt lat="45.09563" lon="4.39997">
        <ele>1167</ele>
        <time>2026-04-30T12:23:08Z</time>
      </trkpt>
      <trkpt lat="45.09563" lon="4.39997">
        <ele>1167</ele>
        <time>2026-04-30T12:23:13Z</time>
      </trkpt>
      <trkpt lat="45.09563" lon="4.39997">
        <ele>1167</ele>
        <time>2026-04-30T12:23:18Z</time>
      </trkpt>
      <trkpt lat="45.09563" lon="4.39997">
        <ele>1167</ele>
        <time>2026-04-30T12:23:23Z</time>
      </trkpt>
      <trkpt lat="45.09563" lon="4.39997">
        <ele>1167</ele>
        <time>2026-04-30T12:23:28Z</time>
      </trkpt>
      <trkpt lat="45.09563" lon="4.39997">
        <ele>1167</ele>
        <time>2026-04-30T12:23:33Z</time>
      </trkpt>
      <trkpt lat="45.09563" lon="4.39997">
        <ele>1167</ele>
        <time>2026-04-30T12:23:38Z</time>
      </trkpt>
      <trkpt lat="45.09565" lon="4.4">
        <ele>1167</ele>
        <time>2026-04-30T12:23:43Z</time>
      </trkpt>
      <trkpt lat="45.09565" lon="4.4">
        <ele>1167</ele>
        <time>2026-04-30T12:23:48Z</time>
      </trkpt>
      <trkpt lat="45.09565" lon="4.4">
        <ele>1167</ele>
        <time>2026-04-30T12:23:53Z</time>
      </trkpt>
      <trkpt lat="45.09565" lon="4.4">
        <ele>1167</ele>
        <time>2026-04-30T12:23:58Z</time>
      </trkpt>
      <trkpt lat="45.09565" lon="4.4">
        <ele>1167</ele>
        <time>2026-04-30T12:24:03Z</time>
      </trkpt>
      <trkpt lat="45.09565" lon="4.4">
        <ele>1167</ele>
        <time>2026-04-30T12:24:08Z</time>
      </trkpt>
      <trkpt lat="45.09565" lon="4.4">
        <ele>1167</ele>
        <time>2026-04-30T12:24:13Z</time>
      </trkpt>
      <trkpt lat="45.09565" lon="4.4">
        <ele>1167</ele>
        <time>2026-04-30T12:24:18Z</time>
      </trkpt>
      <trkpt lat="45.09565" lon="4.4">
        <ele>1167</ele>
        <time>2026-04-30T12:24:23Z</time>
      </trkpt>
      <trkpt lat="45.09565" lon="4.4">
        <ele>1167</ele>
        <time>2026-04-30T12:24:28Z</time>
      </trkpt>
      <trkpt lat="45.09565" lon="4.4">
        <ele>1167</ele>
        <time>2026-04-30T12:24:33Z</time>
      </trkpt>
      <trkpt lat="45.09565" lon="4.4">
        <ele>1167</ele>
        <time>2026-04-30T12:24:38Z</time>
      </trkpt>
      <trkpt lat="45.09567" lon="4.40005">
        <ele>1166.9</ele>
        <time>2026-04-30T12:24:43Z</time>
      </trkpt>
      <trkpt lat="45.09568" lon="4.40007">
        <ele>1166.8</ele>
        <time>2026-04-30T12:24:48Z</time>
      </trkpt>
      <trkpt lat="45.0957" lon="4.40007">
        <ele>1166.8</ele>
        <time>2026-04-30T12:24:53Z</time>
      </trkpt>
      <trkpt lat="45.09574" lon="4.40012">
        <ele>1166.7</ele>
        <time>2026-04-30T12:24:58Z</time>
      </trkpt>
      <trkpt lat="45.09575" lon="4.40018">
        <ele>1166.5</ele>
        <time>2026-04-30T12:25:03Z</time>
      </trkpt>
      <trkpt lat="45.09578" lon="4.40026">
        <ele>1166.4</ele>
        <time>2026-04-30T12:25:08Z</time>
      </trkpt>
      <trkpt lat="45.09584" lon="4.40033">
        <ele>1166.2</ele>
        <time>2026-04-30T12:25:13Z</time>
      </trkpt>
      <trkpt lat="45.09587" lon="4.4004">
        <ele>1165.9</ele>
        <time>2026-04-30T12:25:18Z</time>
      </trkpt>
      <trkpt lat="45.09591" lon="4.40046">
        <ele>1165.7</ele>
        <time>2026-04-30T12:25:23Z</time>
      </trkpt>
      <trkpt lat="45.09594" lon="4.40053">
        <ele>1165.4</ele>
        <time>2026-04-30T12:25:28Z</time>
      </trkpt>
      <trkpt lat="45.09599" lon="4.40061">
        <ele>1165.1</ele>
        <time>2026-04-30T12:25:33Z</time>
      </trkpt>
      <trkpt lat="45.09605" lon="4.4007">
        <ele>1164.8</ele>
        <time>2026-04-30T12:25:38Z</time>
      </trkpt>
      <trkpt lat="45.09609" lon="4.40082">
        <ele>1164.4</ele>
        <time>2026-04-30T12:25:43Z</time>
      </trkpt>
      <trkpt lat="45.09615" lon="4.40092">
        <ele>1164.1</ele>
        <time>2026-04-30T12:25:48Z</time>
      </trkpt>
      <trkpt lat="45.09619" lon="4.401">
        <ele>1163.9</ele>
        <time>2026-04-30T12:25:53Z</time>
      </trkpt>
      <trkpt lat="45.09624" lon="4.4011">
        <ele>1163.7</ele>
        <time>2026-04-30T12:25:58Z</time>
      </trkpt>
      <trkpt lat="45.09629" lon="4.40119">
        <ele>1163.5</ele>
        <time>2026-04-30T12:26:03Z</time>
      </trkpt>
      <trkpt lat="45.09633" lon="4.40127">
        <ele>1163.4</ele>
        <time>2026-04-30T12:26:08Z</time>
      </trkpt>
      <trkpt lat="45.09637" lon="4.40134">
        <ele>1163.3</ele>
        <time>2026-04-30T12:26:13Z</time>
      </trkpt>
      <trkpt lat="45.09643" lon="4.4014">
        <ele>1163.2</ele>
        <time>2026-04-30T12:26:18Z</time>
      </trkpt>
      <trkpt lat="45.09647" lon="4.40147">
        <ele>1163.1</ele>
        <time>2026-04-30T12:26:23Z</time>
      </trkpt>
      <trkpt lat="45.09651" lon="4.40154">
        <ele>1163.1</ele>
        <time>2026-04-30T12:26:28Z</time>
      </trkpt>
      <trkpt lat="45.09656" lon="4.40161">
        <ele>1163</ele>
        <time>2026-04-30T12:26:33Z</time>
      </trkpt>
      <trkpt lat="45.0966" lon="4.40168">
        <ele>1163</ele>
        <time>2026-04-30T12:26:38Z</time>
      </trkpt>
      <trkpt lat="45.09665" lon="4.40174">
        <ele>1163.1</ele>
        <time>2026-04-30T12:26:43Z</time>
      </trkpt>
      <trkpt lat="45.09668" lon="4.4018">
        <ele>1163.1</ele>
        <time>2026-04-30T12:26:48Z</time>
      </trkpt>
      <trkpt lat="45.09671" lon="4.40186">
        <ele>1163.2</ele>
        <time>2026-04-30T12:26:53Z</time>
      </trkpt>
      <trkpt lat="45.09675" lon="4.40192">
        <ele>1163.2</ele>
        <time>2026-04-30T12:26:58Z</time>
      </trkpt>
      <trkpt lat="45.09681" lon="4.40197">
        <ele>1163.3</ele>
        <time>2026-04-30T12:27:03Z</time>
      </trkpt>
      <trkpt lat="45.09687" lon="4.40202">
        <ele>1163.3</ele>
        <time>2026-04-30T12:27:08Z</time>
      </trkpt>
      <trkpt lat="45.09695" lon="4.40208">
        <ele>1163.3</ele>
        <time>2026-04-30T12:27:13Z</time>
      </trkpt>
      <trkpt lat="45.09701" lon="4.40213">
        <ele>1163.4</ele>
        <time>2026-04-30T12:27:18Z</time>
      </trkpt>
      <trkpt lat="45.09708" lon="4.40219">
        <ele>1163.4</ele>
        <time>2026-04-30T12:27:23Z</time>
      </trkpt>
      <trkpt lat="45.09714" lon="4.40225">
        <ele>1163.5</ele>
        <time>2026-04-30T12:27:28Z</time>
      </trkpt>
      <trkpt lat="45.09721" lon="4.40231">
        <ele>1163.6</ele>
        <time>2026-04-30T12:27:33Z</time>
      </trkpt>
      <trkpt lat="45.09726" lon="4.40235">
        <ele>1163.7</ele>
        <time>2026-04-30T12:27:38Z</time>
      </trkpt>
      <trkpt lat="45.09732" lon="4.4024">
        <ele>1163.8</ele>
        <time>2026-04-30T12:27:43Z</time>
      </trkpt>
      <trkpt lat="45.09739" lon="4.40246">
        <ele>1163.9</ele>
        <time>2026-04-30T12:27:48Z</time>
      </trkpt>
      <trkpt lat="45.09745" lon="4.40252">
        <ele>1164</ele>
        <time>2026-04-30T12:27:53Z</time>
      </trkpt>
      <trkpt lat="45.09754" lon="4.40257">
        <ele>1164.2</ele>
        <time>2026-04-30T12:27:58Z</time>
      </trkpt>
      <trkpt lat="45.0976" lon="4.40262">
        <ele>1164.2</ele>
        <time>2026-04-30T12:28:03Z</time>
      </trkpt>
      <trkpt lat="45.09767" lon="4.40264">
        <ele>1164.2</ele>
        <time>2026-04-30T12:28:08Z</time>
      </trkpt>
      <trkpt lat="45.09773" lon="4.40268">
        <ele>1164.3</ele>
        <time>2026-04-30T12:28:13Z</time>
      </trkpt>
      <trkpt lat="45.09783" lon="4.40269">
        <ele>1164.2</ele>
        <time>2026-04-30T12:28:18Z</time>
      </trkpt>
      <trkpt lat="45.09785" lon="4.4027">
        <ele>1164.2</ele>
        <time>2026-04-30T12:28:23Z</time>
      </trkpt>
      <trkpt lat="45.09789" lon="4.40271">
        <ele>1164.2</ele>
        <time>2026-04-30T12:28:28Z</time>
      </trkpt>
      <trkpt lat="45.09793" lon="4.40273">
        <ele>1164.1</ele>
        <time>2026-04-30T12:28:33Z</time>
      </trkpt>
      <trkpt lat="45.09798" lon="4.40276">
        <ele>1164.1</ele>
        <time>2026-04-30T12:28:38Z</time>
      </trkpt>
      <trkpt lat="45.09803" lon="4.40279">
        <ele>1164</ele>
        <time>2026-04-30T12:28:43Z</time>
      </trkpt>
      <trkpt lat="45.09809" lon="4.40282">
        <ele>1164</ele>
        <time>2026-04-30T12:28:48Z</time>
      </trkpt>
      <trkpt lat="45.09814" lon="4.40286">
        <ele>1163.9</ele>
        <time>2026-04-30T12:28:53Z</time>
      </trkpt>
      <trkpt lat="45.09819" lon="4.4029">
        <ele>1163.8</ele>
        <time>2026-04-30T12:28:58Z</time>
      </trkpt>
      <trkpt lat="45.09826" lon="4.40292">
        <ele>1163.6</ele>
        <time>2026-04-30T12:29:03Z</time>
      </trkpt>
      <trkpt lat="45.09834" lon="4.40294">
        <ele>1163.5</ele>
        <time>2026-04-30T12:29:08Z</time>
      </trkpt>
      <trkpt lat="45.09842" lon="4.40297">
        <ele>1163.9</ele>
        <time>2026-04-30T12:29:13Z</time>
      </trkpt>
      <trkpt lat="45.09849" lon="4.403">
        <ele>1164.3</ele>
        <time>2026-04-30T12:29:18Z</time>
      </trkpt>
      <trkpt lat="45.09858" lon="4.40306">
        <ele>1164.7</ele>
        <time>2026-04-30T12:29:23Z</time>
      </trkpt>
      <trkpt lat="45.09865" lon="4.4031">
        <ele>1165.1</ele>
        <time>2026-04-30T12:29:28Z</time>
      </trkpt>
      <trkpt lat="45.09872" lon="4.40313">
        <ele>1165.5</ele>
        <time>2026-04-30T12:29:33Z</time>
      </trkpt>
      <trkpt lat="45.09879" lon="4.40319">
        <ele>1165.8</ele>
        <time>2026-04-30T12:29:38Z</time>
      </trkpt>
      <trkpt lat="45.09884" lon="4.40322">
        <ele>1166.1</ele>
        <time>2026-04-30T12:29:43Z</time>
      </trkpt>
      <trkpt lat="45.09889" lon="4.40324">
        <ele>1166.4</ele>
        <time>2026-04-30T12:29:48Z</time>
      </trkpt>
      <trkpt lat="45.09896" lon="4.40328">
        <ele>1166.8</ele>
        <time>2026-04-30T12:29:53Z</time>
      </trkpt>
      <trkpt lat="45.09903" lon="4.4033">
        <ele>1167.2</ele>
        <time>2026-04-30T12:29:58Z</time>
      </trkpt>
      <trkpt lat="45.09908" lon="4.40333">
        <ele>1167.5</ele>
        <time>2026-04-30T12:30:03Z</time>
      </trkpt>
      <trkpt lat="45.09916" lon="4.40337">
        <ele>1167.7</ele>
        <time>2026-04-30T12:30:08Z</time>
      </trkpt>
      <trkpt lat="45.09922" lon="4.40341">
        <ele>1167.3</ele>
        <time>2026-04-30T12:30:13Z</time>
      </trkpt>
      <trkpt lat="45.09928" lon="4.40346">
        <ele>1166.7</ele>
        <time>2026-04-30T12:30:18Z</time>
      </trkpt>
      <trkpt lat="45.09936" lon="4.40349">
        <ele>1166.2</ele>
        <time>2026-04-30T12:30:23Z</time>
      </trkpt>
      <trkpt lat="45.09944" lon="4.40353">
        <ele>1165.6</ele>
        <time>2026-04-30T12:30:28Z</time>
      </trkpt>
      <trkpt lat="45.09952" lon="4.40358">
        <ele>1165</ele>
        <time>2026-04-30T12:30:33Z</time>
      </trkpt>
      <trkpt lat="45.09963" lon="4.40361">
        <ele>1164.3</ele>
        <time>2026-04-30T12:30:38Z</time>
      </trkpt>
      <trkpt lat="45.09969" lon="4.40365">
        <ele>1163.8</ele>
        <time>2026-04-30T12:30:43Z</time>
      </trkpt>
      <trkpt lat="45.09976" lon="4.4037">
        <ele>1163.2</ele>
        <time>2026-04-30T12:30:48Z</time>
      </trkpt>
      <trkpt lat="45.09981" lon="4.40374">
        <ele>1162.8</ele>
        <time>2026-04-30T12:30:53Z</time>
      </trkpt>
      <trkpt lat="45.09989" lon="4.40377">
        <ele>1162.3</ele>
        <time>2026-04-30T12:30:58Z</time>
      </trkpt>
      <trkpt lat="45.09996" lon="4.40381">
        <ele>1161.7</ele>
        <time>2026-04-30T12:31:03Z</time>
      </trkpt>
      <trkpt lat="45.10003" lon="4.40385">
        <ele>1161.3</ele>
        <time>2026-04-30T12:31:08Z</time>
      </trkpt>
      <trkpt lat="45.10011" lon="4.40391">
        <ele>1160.8</ele>
        <time>2026-04-30T12:31:13Z</time>
      </trkpt>
      <trkpt lat="45.10019" lon="4.40395">
        <ele>1160.5</ele>
        <time>2026-04-30T12:31:18Z</time>
      </trkpt>
      <trkpt lat="45.10023" lon="4.40399">
        <ele>1160.2</ele>
        <time>2026-04-30T12:31:23Z</time>
      </trkpt>
      <trkpt lat="45.1003" lon="4.40401">
        <ele>1160.1</ele>
        <time>2026-04-30T12:31:28Z</time>
      </trkpt>
      <trkpt lat="45.10038" lon="4.40404">
        <ele>1159.8</ele>
        <time>2026-04-30T12:31:33Z</time>
      </trkpt>
      <trkpt lat="45.10045" lon="4.40406">
        <ele>1159.7</ele>
        <time>2026-04-30T12:31:38Z</time>
      </trkpt>
      <trkpt lat="45.10049" lon="4.40407">
        <ele>1159.6</ele>
        <time>2026-04-30T12:31:43Z</time>
      </trkpt>
      <trkpt lat="45.10057" lon="4.4041">
        <ele>1159.4</ele>
        <time>2026-04-30T12:31:48Z</time>
      </trkpt>
      <trkpt lat="45.10062" lon="4.40414">
        <ele>1159.2</ele>
        <time>2026-04-30T12:31:53Z</time>
      </trkpt>
      <trkpt lat="45.1007" lon="4.4042">
        <ele>1159</ele>
        <time>2026-04-30T12:31:58Z</time>
      </trkpt>
      <trkpt lat="45.10077" lon="4.40424">
        <ele>1158.9</ele>
        <time>2026-04-30T12:32:03Z</time>
      </trkpt>
      <trkpt lat="45.10084" lon="4.40427">
        <ele>1158.9</ele>
        <time>2026-04-30T12:32:08Z</time>
      </trkpt>
      <trkpt lat="45.1009" lon="4.4043">
        <ele>1159</ele>
        <time>2026-04-30T12:32:13Z</time>
      </trkpt>
      <trkpt lat="45.10098" lon="4.4043">
        <ele>1159.2</ele>
        <time>2026-04-30T12:32:18Z</time>
      </trkpt>
      <trkpt lat="45.10104" lon="4.40431">
        <ele>1159.4</ele>
        <time>2026-04-30T12:32:23Z</time>
      </trkpt>
      <trkpt lat="45.10109" lon="4.40436">
        <ele>1159.3</ele>
        <time>2026-04-30T12:32:28Z</time>
      </trkpt>
      <trkpt lat="45.10115" lon="4.40439">
        <ele>1159.4</ele>
        <time>2026-04-30T12:32:33Z</time>
      </trkpt>
      <trkpt lat="45.1012" lon="4.40442">
        <ele>1159.3</ele>
        <time>2026-04-30T12:32:38Z</time>
      </trkpt>
      <trkpt lat="45.10127" lon="4.40445">
        <ele>1159.3</ele>
        <time>2026-04-30T12:32:43Z</time>
      </trkpt>
      <trkpt lat="45.10133" lon="4.40446">
        <ele>1159.4</ele>
        <time>2026-04-30T12:32:48Z</time>
      </trkpt>
      <trkpt lat="45.10141" lon="4.40449">
        <ele>1159.3</ele>
        <time>2026-04-30T12:32:53Z</time>
      </trkpt>
      <trkpt lat="45.10146" lon="4.40453">
        <ele>1159.2</ele>
        <time>2026-04-30T12:32:58Z</time>
      </trkpt>
      <trkpt lat="45.10154" lon="4.40458">
        <ele>1158.9</ele>
        <time>2026-04-30T12:33:03Z</time>
      </trkpt>
      <trkpt lat="45.10163" lon="4.40461">
        <ele>1158.8</ele>
        <time>2026-04-30T12:33:08Z</time>
      </trkpt>
      <trkpt lat="45.1017" lon="4.40466">
        <ele>1158.6</ele>
        <time>2026-04-30T12:33:13Z</time>
      </trkpt>
      <trkpt lat="45.10176" lon="4.40473">
        <ele>1158.4</ele>
        <time>2026-04-30T12:33:18Z</time>
      </trkpt>
      <trkpt lat="45.1018" lon="4.40478">
        <ele>1158.1</ele>
        <time>2026-04-30T12:33:23Z</time>
      </trkpt>
      <trkpt lat="45.10185" lon="4.40482">
        <ele>1158.1</ele>
        <time>2026-04-30T12:33:28Z</time>
      </trkpt>
      <trkpt lat="45.10192" lon="4.40488">
        <ele>1157.9</ele>
        <time>2026-04-30T12:33:33Z</time>
      </trkpt>
      <trkpt lat="45.10197" lon="4.40493">
        <ele>1157.7</ele>
        <time>2026-04-30T12:33:38Z</time>
      </trkpt>
      <trkpt lat="45.10199" lon="4.40498">
        <ele>1157.3</ele>
        <time>2026-04-30T12:33:43Z</time>
      </trkpt>
      <trkpt lat="45.10205" lon="4.40501">
        <ele>1157.3</ele>
        <time>2026-04-30T12:33:48Z</time>
      </trkpt>
      <trkpt lat="45.10211" lon="4.40504">
        <ele>1157.4</ele>
        <time>2026-04-30T12:33:53Z</time>
      </trkpt>
      <trkpt lat="45.10217" lon="4.40508">
        <ele>1157.4</ele>
        <time>2026-04-30T12:33:58Z</time>
      </trkpt>
      <trkpt lat="45.10222" lon="4.40512">
        <ele>1157.3</ele>
        <time>2026-04-30T12:34:03Z</time>
      </trkpt>
      <trkpt lat="45.10228" lon="4.40516">
        <ele>1157.2</ele>
        <time>2026-04-30T12:34:08Z</time>
      </trkpt>
      <trkpt lat="45.10234" lon="4.4052">
        <ele>1157.1</ele>
        <time>2026-04-30T12:34:13Z</time>
      </trkpt>
      <trkpt lat="45.10238" lon="4.40522">
        <ele>1157.1</ele>
        <time>2026-04-30T12:34:18Z</time>
      </trkpt>
      <trkpt lat="45.10239" lon="4.40522">
        <ele>1157.1</ele>
        <time>2026-04-30T12:34:23Z</time>
      </trkpt>
      <trkpt lat="45.10239" lon="4.40522">
        <ele>1157.1</ele>
        <time>2026-04-30T12:34:28Z</time>
      </trkpt>
      <trkpt lat="45.1024" lon="4.40523">
        <ele>1157.1</ele>
        <time>2026-04-30T12:34:33Z</time>
      </trkpt>
      <trkpt lat="45.10244" lon="4.40525">
        <ele>1157</ele>
        <time>2026-04-30T12:34:38Z</time>
      </trkpt>
      <trkpt lat="45.10252" lon="4.40529">
        <ele>1156.9</ele>
        <time>2026-04-30T12:34:43Z</time>
      </trkpt>
      <trkpt lat="45.10257" lon="4.40535">
        <ele>1156.6</ele>
        <time>2026-04-30T12:34:48Z</time>
      </trkpt>
      <trkpt lat="45.10263" lon="4.40539">
        <ele>1156.3</ele>
        <time>2026-04-30T12:34:53Z</time>
      </trkpt>
      <trkpt lat="45.10271" lon="4.40542">
        <ele>1156.2</ele>
        <time>2026-04-30T12:34:58Z</time>
      </trkpt>
      <trkpt lat="45.10277" lon="4.40545">
        <ele>1156.1</ele>
        <time>2026-04-30T12:35:03Z</time>
      </trkpt>
      <trkpt lat="45.10285" lon="4.40549">
        <ele>1155.9</ele>
        <time>2026-04-30T12:35:08Z</time>
      </trkpt>
      <trkpt lat="45.10291" lon="4.40552">
        <ele>1155.7</ele>
        <time>2026-04-30T12:35:13Z</time>
      </trkpt>
      <trkpt lat="45.10297" lon="4.40555">
        <ele>1155.6</ele>
        <time>2026-04-30T12:35:18Z</time>
      </trkpt>
      <trkpt lat="45.10304" lon="4.4056">
        <ele>1155.3</ele>
        <time>2026-04-30T12:35:23Z</time>
      </trkpt>
      <trkpt lat="45.10312" lon="4.40563">
        <ele>1155.2</ele>
        <time>2026-04-30T12:35:28Z</time>
      </trkpt>
      <trkpt lat="45.1032" lon="4.40568">
        <ele>1154.9</ele>
        <time>2026-04-30T12:35:33Z</time>
      </trkpt>
      <trkpt lat="45.10328" lon="4.40572">
        <ele>1154.8</ele>
        <time>2026-04-30T12:35:38Z</time>
      </trkpt>
      <trkpt lat="45.10332" lon="4.40574">
        <ele>1154.7</ele>
        <time>2026-04-30T12:35:43Z</time>
      </trkpt>
      <trkpt lat="45.10337" lon="4.40578">
        <ele>1154.4</ele>
        <time>2026-04-30T12:35:48Z</time>
      </trkpt>
      <trkpt lat="45.10343" lon="4.40582">
        <ele>1154.2</ele>
        <time>2026-04-30T12:35:53Z</time>
      </trkpt>
      <trkpt lat="45.1035" lon="4.40584">
        <ele>1154.2</ele>
        <time>2026-04-30T12:35:58Z</time>
      </trkpt>
      <trkpt lat="45.10357" lon="4.40588">
        <ele>1154.3</ele>
        <time>2026-04-30T12:36:03Z</time>
      </trkpt>
      <trkpt lat="45.10366" lon="4.40592">
        <ele>1154.4</ele>
        <time>2026-04-30T12:36:08Z</time>
      </trkpt>
      <trkpt lat="45.10371" lon="4.40594">
        <ele>1154.5</ele>
        <time>2026-04-30T12:36:13Z</time>
      </trkpt>
      <trkpt lat="45.1038" lon="4.40601">
        <ele>1154.7</ele>
        <time>2026-04-30T12:36:18Z</time>
      </trkpt>
      <trkpt lat="45.10389" lon="4.4061">
        <ele>1154.9</ele>
        <time>2026-04-30T12:36:23Z</time>
      </trkpt>
      <trkpt lat="45.10396" lon="4.40616">
        <ele>1155</ele>
        <time>2026-04-30T12:36:28Z</time>
      </trkpt>
      <trkpt lat="45.10403" lon="4.4062">
        <ele>1155.2</ele>
        <time>2026-04-30T12:36:33Z</time>
      </trkpt>
      <trkpt lat="45.1041" lon="4.40624">
        <ele>1155.4</ele>
        <time>2026-04-30T12:36:38Z</time>
      </trkpt>
      <trkpt lat="45.10415" lon="4.40627">
        <ele>1155.5</ele>
        <time>2026-04-30T12:36:43Z</time>
      </trkpt>
      <trkpt lat="45.10417" lon="4.40629">
        <ele>1155.6</ele>
        <time>2026-04-30T12:36:48Z</time>
      </trkpt>
      <trkpt lat="45.10417" lon="4.40629">
        <ele>1155.6</ele>
        <time>2026-04-30T12:36:53Z</time>
      </trkpt>
      <trkpt lat="45.10417" lon="4.40629">
        <ele>1155.6</ele>
        <time>2026-04-30T12:36:58Z</time>
      </trkpt>
      <trkpt lat="45.10417" lon="4.40629">
        <ele>1155.6</ele>
        <time>2026-04-30T12:37:03Z</time>
      </trkpt>
      <trkpt lat="45.10417" lon="4.40629">
        <ele>1155.6</ele>
        <time>2026-04-30T12:37:08Z</time>
      </trkpt>
      <trkpt lat="45.10417" lon="4.40629">
        <ele>1155.6</ele>
        <time>2026-04-30T12:37:13Z</time>
      </trkpt>
      <trkpt lat="45.10417" lon="4.40629">
        <ele>1155.6</ele>
        <time>2026-04-30T12:37:18Z</time>
      </trkpt>
      <trkpt lat="45.10417" lon="4.40629">
        <ele>1155.6</ele>
        <time>2026-04-30T12:37:23Z</time>
      </trkpt>
      <trkpt lat="45.10417" lon="4.40629">
        <ele>1155.6</ele>
        <time>2026-04-30T12:37:28Z</time>
      </trkpt>
      <trkpt lat="45.10417" lon="4.40629">
        <ele>1155.6</ele>
        <time>2026-04-30T12:37:33Z</time>
      </trkpt>
      <trkpt lat="45.10417" lon="4.40629">
        <ele>1155.6</ele>
        <time>2026-04-30T12:37:38Z</time>
      </trkpt>
      <trkpt lat="45.10417" lon="4.40629">
        <ele>1155.6</ele>
        <time>2026-04-30T12:37:43Z</time>
      </trkpt>
      <trkpt lat="45.10417" lon="4.40629">
        <ele>1155.6</ele>
        <time>2026-04-30T12:37:48Z</time>
      </trkpt>
      <trkpt lat="45.10417" lon="4.40629">
        <ele>1155.6</ele>
        <time>2026-04-30T12:37:53Z</time>
      </trkpt>
      <trkpt lat="45.10417" lon="4.40629">
        <ele>1155.6</ele>
        <time>2026-04-30T12:37:58Z</time>
      </trkpt>
      <trkpt lat="45.10417" lon="4.40629">
        <ele>1155.6</ele>
        <time>2026-04-30T12:38:03Z</time>
      </trkpt>
      <trkpt lat="45.10417" lon="4.40629">
        <ele>1155.6</ele>
        <time>2026-04-30T12:38:08Z</time>
      </trkpt>
      <trkpt lat="45.10417" lon="4.40629">
        <ele>1155.6</ele>
        <time>2026-04-30T12:38:13Z</time>
      </trkpt>
      <trkpt lat="45.10417" lon="4.40629">
        <ele>1155.6</ele>
        <time>2026-04-30T12:38:18Z</time>
      </trkpt>
      <trkpt lat="45.10417" lon="4.40629">
        <ele>1155.6</ele>
        <time>2026-04-30T12:38:23Z</time>
      </trkpt>
      <trkpt lat="45.10417" lon="4.40629">
        <ele>1155.6</ele>
        <time>2026-04-30T12:38:28Z</time>
      </trkpt>
      <trkpt lat="45.10417" lon="4.40629">
        <ele>1155.6</ele>
        <time>2026-04-30T12:38:33Z</time>
      </trkpt>
      <trkpt lat="45.10417" lon="4.40629">
        <ele>1155.6</ele>
        <time>2026-04-30T12:38:38Z</time>
      </trkpt>
      <trkpt lat="45.10417" lon="4.40629">
        <ele>1155.6</ele>
        <time>2026-04-30T12:38:43Z</time>
      </trkpt>
      <trkpt lat="45.10417" lon="4.40629">
        <ele>1155.6</ele>
        <time>2026-04-30T12:38:48Z</time>
      </trkpt>
      <trkpt lat="45.10417" lon="4.40629">
        <ele>1155.6</ele>
        <time>2026-04-30T12:38:53Z</time>
      </trkpt>
      <trkpt lat="45.10417" lon="4.40629">
        <ele>1155.6</ele>
        <time>2026-04-30T12:38:58Z</time>
      </trkpt>
      <trkpt lat="45.10417" lon="4.40629">
        <ele>1155.6</ele>
        <time>2026-04-30T12:39:03Z</time>
      </trkpt>
      <trkpt lat="45.10417" lon="4.40629">
        <ele>1155.6</ele>
        <time>2026-04-30T12:39:08Z</time>
      </trkpt>
      <trkpt lat="45.10417" lon="4.40629">
        <ele>1155.6</ele>
        <time>2026-04-30T12:39:13Z</time>
      </trkpt>
      <trkpt lat="45.10417" lon="4.40629">
        <ele>1155.6</ele>
        <time>2026-04-30T12:39:18Z</time>
      </trkpt>
      <trkpt lat="45.10417" lon="4.40629">
        <ele>1155.6</ele>
        <time>2026-04-30T12:39:23Z</time>
      </trkpt>
      <trkpt lat="45.10417" lon="4.40629">
        <ele>1155.6</ele>
        <time>2026-04-30T12:39:28Z</time>
      </trkpt>
      <trkpt lat="45.10417" lon="4.40629">
        <ele>1155.6</ele>
        <time>2026-04-30T12:39:33Z</time>
      </trkpt>
      <trkpt lat="45.10417" lon="4.40629">
        <ele>1155.6</ele>
        <time>2026-04-30T12:39:38Z</time>
      </trkpt>
      <trkpt lat="45.10417" lon="4.40629">
        <ele>1155.6</ele>
        <time>2026-04-30T12:39:43Z</time>
      </trkpt>
      <trkpt lat="45.10417" lon="4.40629">
        <ele>1155.6</ele>
        <time>2026-04-30T12:39:48Z</time>
      </trkpt>
      <trkpt lat="45.10417" lon="4.40629">
        <ele>1155.6</ele>
        <time>2026-04-30T12:39:53Z</time>
      </trkpt>
      <trkpt lat="45.10417" lon="4.40629">
        <ele>1155.6</ele>
        <time>2026-04-30T12:39:58Z</time>
      </trkpt>
      <trkpt lat="45.10417" lon="4.40629">
        <ele>1155.6</ele>
        <time>2026-04-30T12:40:03Z</time>
      </trkpt>
      <trkpt lat="45.10417" lon="4.40629">
        <ele>1155.6</ele>
        <time>2026-04-30T12:40:08Z</time>
      </trkpt>
      <trkpt lat="45.10417" lon="4.40629">
        <ele>1155.6</ele>
        <time>2026-04-30T12:40:13Z</time>
      </trkpt>
      <trkpt lat="45.10422" lon="4.40625">
        <ele>1155.6</ele>
        <time>2026-04-30T12:40:18Z</time>
      </trkpt>
      <trkpt lat="45.10423" lon="4.40625">
        <ele>1155.6</ele>
        <time>2026-04-30T12:40:23Z</time>
      </trkpt>
      <trkpt lat="45.10435" lon="4.40629">
        <ele>1155.7</ele>
        <time>2026-04-30T12:40:28Z</time>
      </trkpt>
      <trkpt lat="45.10439" lon="4.40633">
        <ele>1155.8</ele>
        <time>2026-04-30T12:40:33Z</time>
      </trkpt>
      <trkpt lat="45.10444" lon="4.40635">
        <ele>1155.9</ele>
        <time>2026-04-30T12:40:38Z</time>
      </trkpt>
      <trkpt lat="45.10448" lon="4.40638">
        <ele>1155.9</ele>
        <time>2026-04-30T12:40:43Z</time>
      </trkpt>
      <trkpt lat="45.10454" lon="4.40643">
        <ele>1156</ele>
        <time>2026-04-30T12:40:48Z</time>
      </trkpt>
      <trkpt lat="45.10459" lon="4.40646">
        <ele>1156</ele>
        <time>2026-04-30T12:40:53Z</time>
      </trkpt>
      <trkpt lat="45.10465" lon="4.40648">
        <ele>1156</ele>
        <time>2026-04-30T12:40:58Z</time>
      </trkpt>
      <trkpt lat="45.1047" lon="4.40652">
        <ele>1156</ele>
        <time>2026-04-30T12:41:03Z</time>
      </trkpt>
      <trkpt lat="45.10477" lon="4.40655">
        <ele>1156.1</ele>
        <time>2026-04-30T12:41:08Z</time>
      </trkpt>
      <trkpt lat="45.10482" lon="4.40658">
        <ele>1156.1</ele>
        <time>2026-04-30T12:41:13Z</time>
      </trkpt>
      <trkpt lat="45.10489" lon="4.40662">
        <ele>1156</ele>
        <time>2026-04-30T12:41:18Z</time>
      </trkpt>
      <trkpt lat="45.10495" lon="4.40666">
        <ele>1156</ele>
        <time>2026-04-30T12:41:23Z</time>
      </trkpt>
      <trkpt lat="45.10502" lon="4.40669">
        <ele>1155.9</ele>
        <time>2026-04-30T12:41:28Z</time>
      </trkpt>
      <trkpt lat="45.10508" lon="4.40672">
        <ele>1155.5</ele>
        <time>2026-04-30T12:41:33Z</time>
      </trkpt>
      <trkpt lat="45.10514" lon="4.40675">
        <ele>1155.1</ele>
        <time>2026-04-30T12:41:38Z</time>
      </trkpt>
      <trkpt lat="45.10522" lon="4.40679">
        <ele>1154.5</ele>
        <time>2026-04-30T12:41:43Z</time>
      </trkpt>
      <trkpt lat="45.10528" lon="4.40683">
        <ele>1154</ele>
        <time>2026-04-30T12:41:48Z</time>
      </trkpt>
      <trkpt lat="45.10535" lon="4.40686">
        <ele>1153.5</ele>
        <time>2026-04-30T12:41:53Z</time>
      </trkpt>
      <trkpt lat="45.10539" lon="4.4069">
        <ele>1153.2</ele>
        <time>2026-04-30T12:41:58Z</time>
      </trkpt>
      <trkpt lat="45.10545" lon="4.40692">
        <ele>1152.7</ele>
        <time>2026-04-30T12:42:03Z</time>
      </trkpt>
      <trkpt lat="45.1055" lon="4.40694">
        <ele>1152.3</ele>
        <time>2026-04-30T12:42:08Z</time>
      </trkpt>
      <trkpt lat="45.10555" lon="4.40696">
        <ele>1151.9</ele>
        <time>2026-04-30T12:42:13Z</time>
      </trkpt>
      <trkpt lat="45.10562" lon="4.40698">
        <ele>1151.4</ele>
        <time>2026-04-30T12:42:18Z</time>
      </trkpt>
      <trkpt lat="45.10568" lon="4.40699">
        <ele>1150.9</ele>
        <time>2026-04-30T12:42:23Z</time>
      </trkpt>
      <trkpt lat="45.10576" lon="4.407">
        <ele>1150.2</ele>
        <time>2026-04-30T12:42:28Z</time>
      </trkpt>
      <trkpt lat="45.10583" lon="4.40703">
        <ele>1149.6</ele>
        <time>2026-04-30T12:42:33Z</time>
      </trkpt>
      <trkpt lat="45.1059" lon="4.40705">
        <ele>1149.1</ele>
        <time>2026-04-30T12:42:38Z</time>
      </trkpt>
      <trkpt lat="45.10598" lon="4.40707">
        <ele>1148.6</ele>
        <time>2026-04-30T12:42:43Z</time>
      </trkpt>
      <trkpt lat="45.10604" lon="4.40709">
        <ele>1148.2</ele>
        <time>2026-04-30T12:42:48Z</time>
      </trkpt>
      <trkpt lat="45.10612" lon="4.40712">
        <ele>1147.7</ele>
        <time>2026-04-30T12:42:53Z</time>
      </trkpt>
      <trkpt lat="45.1062" lon="4.40715">
        <ele>1147.1</ele>
        <time>2026-04-30T12:42:58Z</time>
      </trkpt>
      <trkpt lat="45.10628" lon="4.40717">
        <ele>1146.6</ele>
        <time>2026-04-30T12:43:03Z</time>
      </trkpt>
      <trkpt lat="45.10635" lon="4.40719">
        <ele>1146.1</ele>
        <time>2026-04-30T12:43:08Z</time>
      </trkpt>
      <trkpt lat="45.10642" lon="4.40721">
        <ele>1145.6</ele>
        <time>2026-04-30T12:43:13Z</time>
      </trkpt>
      <trkpt lat="45.10647" lon="4.40721">
        <ele>1145.3</ele>
        <time>2026-04-30T12:43:18Z</time>
      </trkpt>
      <trkpt lat="45.10653" lon="4.40722">
        <ele>1144.9</ele>
        <time>2026-04-30T12:43:23Z</time>
      </trkpt>
      <trkpt lat="45.10659" lon="4.40722">
        <ele>1144.5</ele>
        <time>2026-04-30T12:43:28Z</time>
      </trkpt>
      <trkpt lat="45.10665" lon="4.40721">
        <ele>1144.2</ele>
        <time>2026-04-30T12:43:33Z</time>
      </trkpt>
      <trkpt lat="45.10675" lon="4.40719">
        <ele>1143.7</ele>
        <time>2026-04-30T12:43:38Z</time>
      </trkpt>
      <trkpt lat="45.10685" lon="4.40717">
        <ele>1143.2</ele>
        <time>2026-04-30T12:43:43Z</time>
      </trkpt>
      <trkpt lat="45.10696" lon="4.40714">
        <ele>1142.7</ele>
        <time>2026-04-30T12:43:48Z</time>
      </trkpt>
      <trkpt lat="45.10702" lon="4.40715">
        <ele>1142.4</ele>
        <time>2026-04-30T12:43:53Z</time>
      </trkpt>
      <trkpt lat="45.10707" lon="4.40713">
        <ele>1142.2</ele>
        <time>2026-04-30T12:43:58Z</time>
      </trkpt>
      <trkpt lat="45.10715" lon="4.4071">
        <ele>1141.8</ele>
        <time>2026-04-30T12:44:03Z</time>
      </trkpt>
      <trkpt lat="45.10719" lon="4.40707">
        <ele>1141.7</ele>
        <time>2026-04-30T12:44:08Z</time>
      </trkpt>
      <trkpt lat="45.10725" lon="4.40706">
        <ele>1141.4</ele>
        <time>2026-04-30T12:44:13Z</time>
      </trkpt>
      <trkpt lat="45.10736" lon="4.40704">
        <ele>1140.9</ele>
        <time>2026-04-30T12:44:18Z</time>
      </trkpt>
      <trkpt lat="45.10743" lon="4.40703">
        <ele>1140.5</ele>
        <time>2026-04-30T12:44:23Z</time>
      </trkpt>
      <trkpt lat="45.1075" lon="4.40702">
        <ele>1140.2</ele>
        <time>2026-04-30T12:44:28Z</time>
      </trkpt>
      <trkpt lat="45.10757" lon="4.40701">
        <ele>1139.8</ele>
        <time>2026-04-30T12:44:33Z</time>
      </trkpt>
      <trkpt lat="45.10766" lon="4.40698">
        <ele>1139.3</ele>
        <time>2026-04-30T12:44:38Z</time>
      </trkpt>
      <trkpt lat="45.10775" lon="4.40696">
        <ele>1138.8</ele>
        <time>2026-04-30T12:44:43Z</time>
      </trkpt>
      <trkpt lat="45.10781" lon="4.40694">
        <ele>1138.5</ele>
        <time>2026-04-30T12:44:48Z</time>
      </trkpt>
      <trkpt lat="45.10788" lon="4.40693">
        <ele>1138.1</ele>
        <time>2026-04-30T12:44:53Z</time>
      </trkpt>
      <trkpt lat="45.10797" lon="4.4069">
        <ele>1137.6</ele>
        <time>2026-04-30T12:44:58Z</time>
      </trkpt>
      <trkpt lat="45.10806" lon="4.40689">
        <ele>1137.1</ele>
        <time>2026-04-30T12:45:03Z</time>
      </trkpt>
      <trkpt lat="45.10811" lon="4.40685">
        <ele>1136.9</ele>
        <time>2026-04-30T12:45:08Z</time>
      </trkpt>
      <trkpt lat="45.1082" lon="4.4068">
        <ele>1136.5</ele>
        <time>2026-04-30T12:45:13Z</time>
      </trkpt>
      <trkpt lat="45.10827" lon="4.40677">
        <ele>1136.1</ele>
        <time>2026-04-30T12:45:18Z</time>
      </trkpt>
      <trkpt lat="45.10833" lon="4.40674">
        <ele>1135.8</ele>
        <time>2026-04-30T12:45:23Z</time>
      </trkpt>
      <trkpt lat="45.1084" lon="4.40671">
        <ele>1135.5</ele>
        <time>2026-04-30T12:45:28Z</time>
      </trkpt>
      <trkpt lat="45.10848" lon="4.40668">
        <ele>1135.1</ele>
        <time>2026-04-30T12:45:33Z</time>
      </trkpt>
      <trkpt lat="45.10854" lon="4.40666">
        <ele>1134.8</ele>
        <time>2026-04-30T12:45:38Z</time>
      </trkpt>
      <trkpt lat="45.10863" lon="4.40665">
        <ele>1134.2</ele>
        <time>2026-04-30T12:45:43Z</time>
      </trkpt>
      <trkpt lat="45.1087" lon="4.40662">
        <ele>1133.8</ele>
        <time>2026-04-30T12:45:48Z</time>
      </trkpt>
      <trkpt lat="45.10876" lon="4.40659">
        <ele>1133.4</ele>
        <time>2026-04-30T12:45:53Z</time>
      </trkpt>
      <trkpt lat="45.10882" lon="4.40656">
        <ele>1133</ele>
        <time>2026-04-30T12:45:58Z</time>
      </trkpt>
      <trkpt lat="45.10889" lon="4.40653">
        <ele>1132.6</ele>
        <time>2026-04-30T12:46:03Z</time>
      </trkpt>
      <trkpt lat="45.10898" lon="4.4065">
        <ele>1132</ele>
        <time>2026-04-30T12:46:08Z</time>
      </trkpt>
      <trkpt lat="45.10907" lon="4.40646">
        <ele>1131.4</ele>
        <time>2026-04-30T12:46:13Z</time>
      </trkpt>
      <trkpt lat="45.10915" lon="4.40642">
        <ele>1130.8</ele>
        <time>2026-04-30T12:46:18Z</time>
      </trkpt>
      <trkpt lat="45.10924" lon="4.40639">
        <ele>1130.3</ele>
        <time>2026-04-30T12:46:23Z</time>
      </trkpt>
      <trkpt lat="45.10931" lon="4.40636">
        <ele>1129.9</ele>
        <time>2026-04-30T12:46:28Z</time>
      </trkpt>
      <trkpt lat="45.10938" lon="4.40633">
        <ele>1129.5</ele>
        <time>2026-04-30T12:46:33Z</time>
      </trkpt>
      <trkpt lat="45.10944" lon="4.40631">
        <ele>1129.2</ele>
        <time>2026-04-30T12:46:38Z</time>
      </trkpt>
      <trkpt lat="45.10953" lon="4.4063">
        <ele>1128.7</ele>
        <time>2026-04-30T12:46:43Z</time>
      </trkpt>
      <trkpt lat="45.10961" lon="4.40627">
        <ele>1128.2</ele>
        <time>2026-04-30T12:46:48Z</time>
      </trkpt>
      <trkpt lat="45.10971" lon="4.40622">
        <ele>1127.5</ele>
        <time>2026-04-30T12:46:53Z</time>
      </trkpt>
      <trkpt lat="45.10979" lon="4.40618">
        <ele>1126.9</ele>
        <time>2026-04-30T12:46:58Z</time>
      </trkpt>
      <trkpt lat="45.10987" lon="4.40615">
        <ele>1126.3</ele>
        <time>2026-04-30T12:47:03Z</time>
      </trkpt>
      <trkpt lat="45.10993" lon="4.40611">
        <ele>1125.7</ele>
        <time>2026-04-30T12:47:08Z</time>
      </trkpt>
      <trkpt lat="45.10999" lon="4.4061">
        <ele>1125.3</ele>
        <time>2026-04-30T12:47:13Z</time>
      </trkpt>
      <trkpt lat="45.11005" lon="4.4061">
        <ele>1125.1</ele>
        <time>2026-04-30T12:47:18Z</time>
      </trkpt>
      <trkpt lat="45.11011" lon="4.40608">
        <ele>1124.9</ele>
        <time>2026-04-30T12:47:23Z</time>
      </trkpt>
      <trkpt lat="45.11017" lon="4.40605">
        <ele>1124.5</ele>
        <time>2026-04-30T12:47:28Z</time>
      </trkpt>
      <trkpt lat="45.11024" lon="4.40603">
        <ele>1124.2</ele>
        <time>2026-04-30T12:47:33Z</time>
      </trkpt>
      <trkpt lat="45.1103" lon="4.40599">
        <ele>1123.8</ele>
        <time>2026-04-30T12:47:38Z</time>
      </trkpt>
      <trkpt lat="45.11038" lon="4.40594">
        <ele>1123.3</ele>
        <time>2026-04-30T12:47:43Z</time>
      </trkpt>
      <trkpt lat="45.11044" lon="4.40591">
        <ele>1122.9</ele>
        <time>2026-04-30T12:47:48Z</time>
      </trkpt>
      <trkpt lat="45.11053" lon="4.40587">
        <ele>1122.3</ele>
        <time>2026-04-30T12:47:53Z</time>
      </trkpt>
      <trkpt lat="45.1106" lon="4.40584">
        <ele>1121.9</ele>
        <time>2026-04-30T12:47:58Z</time>
      </trkpt>
      <trkpt lat="45.11066" lon="4.40581">
        <ele>1121.5</ele>
        <time>2026-04-30T12:48:03Z</time>
      </trkpt>
      <trkpt lat="45.11072" lon="4.40576">
        <ele>1121.1</ele>
        <time>2026-04-30T12:48:08Z</time>
      </trkpt>
      <trkpt lat="45.11079" lon="4.40574">
        <ele>1120.8</ele>
        <time>2026-04-30T12:48:13Z</time>
      </trkpt>
      <trkpt lat="45.11086" lon="4.40571">
        <ele>1120.3</ele>
        <time>2026-04-30T12:48:18Z</time>
      </trkpt>
      <trkpt lat="45.11092" lon="4.40569">
        <ele>1119.6</ele>
        <time>2026-04-30T12:48:23Z</time>
      </trkpt>
      <trkpt lat="45.11099" lon="4.40568">
        <ele>1118.9</ele>
        <time>2026-04-30T12:48:28Z</time>
      </trkpt>
      <trkpt lat="45.11107" lon="4.40568">
        <ele>1118.1</ele>
        <time>2026-04-30T12:48:33Z</time>
      </trkpt>
      <trkpt lat="45.11113" lon="4.40567">
        <ele>1117.5</ele>
        <time>2026-04-30T12:48:38Z</time>
      </trkpt>
      <trkpt lat="45.11119" lon="4.40568">
        <ele>1117</ele>
        <time>2026-04-30T12:48:43Z</time>
      </trkpt>
      <trkpt lat="45.11125" lon="4.40568">
        <ele>1116.4</ele>
        <time>2026-04-30T12:48:48Z</time>
      </trkpt>
      <trkpt lat="45.11132" lon="4.4057">
        <ele>1115.6</ele>
        <time>2026-04-30T12:48:53Z</time>
      </trkpt>
      <trkpt lat="45.11138" lon="4.40572">
        <ele>1114.9</ele>
        <time>2026-04-30T12:48:58Z</time>
      </trkpt>
      <trkpt lat="45.11146" lon="4.40576">
        <ele>1113.9</ele>
        <time>2026-04-30T12:49:03Z</time>
      </trkpt>
      <trkpt lat="45.11154" lon="4.4058">
        <ele>1112.7</ele>
        <time>2026-04-30T12:49:08Z</time>
      </trkpt>
      <trkpt lat="45.11161" lon="4.40582">
        <ele>1111.8</ele>
        <time>2026-04-30T12:49:13Z</time>
      </trkpt>
      <trkpt lat="45.11168" lon="4.40586">
        <ele>1111.2</ele>
        <time>2026-04-30T12:49:18Z</time>
      </trkpt>
      <trkpt lat="45.11174" lon="4.40587">
        <ele>1111.3</ele>
        <time>2026-04-30T12:49:23Z</time>
      </trkpt>
      <trkpt lat="45.11181" lon="4.40589">
        <ele>1111.5</ele>
        <time>2026-04-30T12:49:28Z</time>
      </trkpt>
      <trkpt lat="45.11186" lon="4.40593">
        <ele>1111.8</ele>
        <time>2026-04-30T12:49:33Z</time>
      </trkpt>
      <trkpt lat="45.11194" lon="4.40596">
        <ele>1112</ele>
        <time>2026-04-30T12:49:38Z</time>
      </trkpt>
      <trkpt lat="45.112" lon="4.406">
        <ele>1112.1</ele>
        <time>2026-04-30T12:49:43Z</time>
      </trkpt>
      <trkpt lat="45.11208" lon="4.40602">
        <ele>1112.2</ele>
        <time>2026-04-30T12:49:48Z</time>
      </trkpt>
      <trkpt lat="45.11216" lon="4.40604">
        <ele>1112.3</ele>
        <time>2026-04-30T12:49:53Z</time>
      </trkpt>
      <trkpt lat="45.11223" lon="4.40607">
        <ele>1112.3</ele>
        <time>2026-04-30T12:49:58Z</time>
      </trkpt>
      <trkpt lat="45.11229" lon="4.4061">
        <ele>1112.3</ele>
        <time>2026-04-30T12:50:03Z</time>
      </trkpt>
      <trkpt lat="45.11236" lon="4.40612">
        <ele>1112.3</ele>
        <time>2026-04-30T12:50:08Z</time>
      </trkpt>
      <trkpt lat="45.11243" lon="4.40616">
        <ele>1112.2</ele>
        <time>2026-04-30T12:50:13Z</time>
      </trkpt>
      <trkpt lat="45.11251" lon="4.40619">
        <ele>1112.1</ele>
        <time>2026-04-30T12:50:18Z</time>
      </trkpt>
      <trkpt lat="45.1126" lon="4.40622">
        <ele>1112.1</ele>
        <time>2026-04-30T12:50:23Z</time>
      </trkpt>
      <trkpt lat="45.11267" lon="4.40626">
        <ele>1112</ele>
        <time>2026-04-30T12:50:28Z</time>
      </trkpt>
      <trkpt lat="45.11277" lon="4.40627">
        <ele>1111.9</ele>
        <time>2026-04-30T12:50:33Z</time>
      </trkpt>
      <trkpt lat="45.11286" lon="4.40632">
        <ele>1111.7</ele>
        <time>2026-04-30T12:50:38Z</time>
      </trkpt>
      <trkpt lat="45.11294" lon="4.40636">
        <ele>1111.5</ele>
        <time>2026-04-30T12:50:43Z</time>
      </trkpt>
      <trkpt lat="45.113" lon="4.4064">
        <ele>1111.2</ele>
        <time>2026-04-30T12:50:48Z</time>
      </trkpt>
      <trkpt lat="45.11306" lon="4.40641">
        <ele>1111.1</ele>
        <time>2026-04-30T12:50:53Z</time>
      </trkpt>
      <trkpt lat="45.11312" lon="4.40642">
        <ele>1111</ele>
        <time>2026-04-30T12:50:58Z</time>
      </trkpt>
      <trkpt lat="45.11321" lon="4.40644">
        <ele>1110.8</ele>
        <time>2026-04-30T12:51:03Z</time>
      </trkpt>
      <trkpt lat="45.11328" lon="4.40648">
        <ele>1110.4</ele>
        <time>2026-04-30T12:51:08Z</time>
      </trkpt>
      <trkpt lat="45.11334" lon="4.40649">
        <ele>1110.3</ele>
        <time>2026-04-30T12:51:13Z</time>
      </trkpt>
      <trkpt lat="45.11341" lon="4.40653">
        <ele>1110.1</ele>
        <time>2026-04-30T12:51:18Z</time>
      </trkpt>
      <trkpt lat="45.11349" lon="4.40657">
        <ele>1110</ele>
        <time>2026-04-30T12:51:23Z</time>
      </trkpt>
      <trkpt lat="45.11357" lon="4.4066">
        <ele>1110</ele>
        <time>2026-04-30T12:51:28Z</time>
      </trkpt>
      <trkpt lat="45.11367" lon="4.40662">
        <ele>1110.1</ele>
        <time>2026-04-30T12:51:33Z</time>
      </trkpt>
      <trkpt lat="45.11374" lon="4.40664">
        <ele>1110.1</ele>
        <time>2026-04-30T12:51:38Z</time>
      </trkpt>
      <trkpt lat="45.1138" lon="4.40667">
        <ele>1110.1</ele>
        <time>2026-04-30T12:51:43Z</time>
      </trkpt>
      <trkpt lat="45.11389" lon="4.40667">
        <ele>1110.3</ele>
        <time>2026-04-30T12:51:48Z</time>
      </trkpt>
      <trkpt lat="45.11397" lon="4.40668">
        <ele>1110.5</ele>
        <time>2026-04-30T12:51:53Z</time>
      </trkpt>
      <trkpt lat="45.11405" lon="4.40671">
        <ele>1110.7</ele>
        <time>2026-04-30T12:51:58Z</time>
      </trkpt>
      <trkpt lat="45.1141" lon="4.40678">
        <ele>1110.9</ele>
        <time>2026-04-30T12:52:03Z</time>
      </trkpt>
      <trkpt lat="45.11409" lon="4.4069">
        <ele>1110.9</ele>
        <time>2026-04-30T12:52:08Z</time>
      </trkpt>
      <trkpt lat="45.11406" lon="4.40699">
        <ele>1110.7</ele>
        <time>2026-04-30T12:52:13Z</time>
      </trkpt>
      <trkpt lat="45.11403" lon="4.40709">
        <ele>1110.4</ele>
        <time>2026-04-30T12:52:18Z</time>
      </trkpt>
      <trkpt lat="45.11402" lon="4.40717">
        <ele>1110.3</ele>
        <time>2026-04-30T12:52:23Z</time>
      </trkpt>
      <trkpt lat="45.11402" lon="4.40725">
        <ele>1110.2</ele>
        <time>2026-04-30T12:52:28Z</time>
      </trkpt>
      <trkpt lat="45.11403" lon="4.40733">
        <ele>1110.3</ele>
        <time>2026-04-30T12:52:33Z</time>
      </trkpt>
      <trkpt lat="45.11408" lon="4.4074">
        <ele>1110.8</ele>
        <time>2026-04-30T12:52:38Z</time>
      </trkpt>
      <trkpt lat="45.11413" lon="4.40749">
        <ele>1111.5</ele>
        <time>2026-04-30T12:52:43Z</time>
      </trkpt>
      <trkpt lat="45.11418" lon="4.40756">
        <ele>1111.9</ele>
        <time>2026-04-30T12:52:48Z</time>
      </trkpt>
      <trkpt lat="45.11423" lon="4.40764">
        <ele>1112</ele>
        <time>2026-04-30T12:52:53Z</time>
      </trkpt>
      <trkpt lat="45.11428" lon="4.40769">
        <ele>1112.2</ele>
        <time>2026-04-30T12:52:58Z</time>
      </trkpt>
      <trkpt lat="45.11434" lon="4.40777">
        <ele>1112.4</ele>
        <time>2026-04-30T12:53:03Z</time>
      </trkpt>
      <trkpt lat="45.11438" lon="4.40784">
        <ele>1112.5</ele>
        <time>2026-04-30T12:53:08Z</time>
      </trkpt>
      <trkpt lat="45.11443" lon="4.40792">
        <ele>1112.7</ele>
        <time>2026-04-30T12:53:13Z</time>
      </trkpt>
      <trkpt lat="45.11449" lon="4.408">
        <ele>1113</ele>
        <time>2026-04-30T12:53:18Z</time>
      </trkpt>
      <trkpt lat="45.11452" lon="4.40807">
        <ele>1113.1</ele>
        <time>2026-04-30T12:53:23Z</time>
      </trkpt>
      <trkpt lat="45.11453" lon="4.40815">
        <ele>1113</ele>
        <time>2026-04-30T12:53:28Z</time>
      </trkpt>
      <trkpt lat="45.11455" lon="4.40817">
        <ele>1113.1</ele>
        <time>2026-04-30T12:53:33Z</time>
      </trkpt>
      <trkpt lat="45.11456" lon="4.40816">
        <ele>1113.2</ele>
        <time>2026-04-30T12:53:38Z</time>
      </trkpt>
      <trkpt lat="45.11456" lon="4.40816">
        <ele>1113.2</ele>
        <time>2026-04-30T12:53:43Z</time>
      </trkpt>
      <trkpt lat="45.11458" lon="4.40816">
        <ele>1113.4</ele>
        <time>2026-04-30T12:53:48Z</time>
      </trkpt>
      <trkpt lat="45.11465" lon="4.4082">
        <ele>1113.9</ele>
        <time>2026-04-30T12:53:53Z</time>
      </trkpt>
      <trkpt lat="45.11471" lon="4.40826">
        <ele>1114.4</ele>
        <time>2026-04-30T12:53:58Z</time>
      </trkpt>
      <trkpt lat="45.11477" lon="4.40833">
        <ele>1114.8</ele>
        <time>2026-04-30T12:54:03Z</time>
      </trkpt>
      <trkpt lat="45.11482" lon="4.4084">
        <ele>1115</ele>
        <time>2026-04-30T12:54:08Z</time>
      </trkpt>
      <trkpt lat="45.11489" lon="4.40848">
        <ele>1115.3</ele>
        <time>2026-04-30T12:54:13Z</time>
      </trkpt>
      <trkpt lat="45.11494" lon="4.40858">
        <ele>1115.3</ele>
        <time>2026-04-30T12:54:18Z</time>
      </trkpt>
      <trkpt lat="45.11499" lon="4.40865">
        <ele>1115.4</ele>
        <time>2026-04-30T12:54:23Z</time>
      </trkpt>
      <trkpt lat="45.11502" lon="4.40873">
        <ele>1115</ele>
        <time>2026-04-30T12:54:28Z</time>
      </trkpt>
      <trkpt lat="45.11506" lon="4.40882">
        <ele>1114.4</ele>
        <time>2026-04-30T12:54:33Z</time>
      </trkpt>
      <trkpt lat="45.1151" lon="4.40891">
        <ele>1113.8</ele>
        <time>2026-04-30T12:54:38Z</time>
      </trkpt>
      <trkpt lat="45.11514" lon="4.40899">
        <ele>1113.3</ele>
        <time>2026-04-30T12:54:43Z</time>
      </trkpt>
      <trkpt lat="45.11517" lon="4.40907">
        <ele>1112.8</ele>
        <time>2026-04-30T12:54:48Z</time>
      </trkpt>
      <trkpt lat="45.11519" lon="4.40916">
        <ele>1112.3</ele>
        <time>2026-04-30T12:54:53Z</time>
      </trkpt>
      <trkpt lat="45.1152" lon="4.40926">
        <ele>1112</ele>
        <time>2026-04-30T12:54:58Z</time>
      </trkpt>
      <trkpt lat="45.11521" lon="4.40935">
        <ele>1111.6</ele>
        <time>2026-04-30T12:55:03Z</time>
      </trkpt>
      <trkpt lat="45.11521" lon="4.40945">
        <ele>1111.3</ele>
        <time>2026-04-30T12:55:08Z</time>
      </trkpt>
      <trkpt lat="45.11523" lon="4.40954">
        <ele>1110.9</ele>
        <time>2026-04-30T12:55:13Z</time>
      </trkpt>
      <trkpt lat="45.11526" lon="4.40961">
        <ele>1110.4</ele>
        <time>2026-04-30T12:55:18Z</time>
      </trkpt>
      <trkpt lat="45.11528" lon="4.40968">
        <ele>1109.9</ele>
        <time>2026-04-30T12:55:23Z</time>
      </trkpt>
      <trkpt lat="45.11529" lon="4.40976">
        <ele>1109.5</ele>
        <time>2026-04-30T12:55:28Z</time>
      </trkpt>
      <trkpt lat="45.11529" lon="4.40983">
        <ele>1109.2</ele>
        <time>2026-04-30T12:55:33Z</time>
      </trkpt>
      <trkpt lat="45.11531" lon="4.4099">
        <ele>1108.7</ele>
        <time>2026-04-30T12:55:38Z</time>
      </trkpt>
      <trkpt lat="45.11532" lon="4.41001">
        <ele>1108.1</ele>
        <time>2026-04-30T12:55:43Z</time>
      </trkpt>
      <trkpt lat="45.11533" lon="4.41011">
        <ele>1107.8</ele>
        <time>2026-04-30T12:55:48Z</time>
      </trkpt>
      <trkpt lat="45.11536" lon="4.4102">
        <ele>1107.3</ele>
        <time>2026-04-30T12:55:53Z</time>
      </trkpt>
      <trkpt lat="45.11539" lon="4.41027">
        <ele>1106.8</ele>
        <time>2026-04-30T12:55:58Z</time>
      </trkpt>
      <trkpt lat="45.11544" lon="4.41034">
        <ele>1106.1</ele>
        <time>2026-04-30T12:56:03Z</time>
      </trkpt>
      <trkpt lat="45.11548" lon="4.41042">
        <ele>1105.5</ele>
        <time>2026-04-30T12:56:08Z</time>
      </trkpt>
      <trkpt lat="45.11551" lon="4.41049">
        <ele>1105.1</ele>
        <time>2026-04-30T12:56:13Z</time>
      </trkpt>
      <trkpt lat="45.11554" lon="4.41059">
        <ele>1104.6</ele>
        <time>2026-04-30T12:56:18Z</time>
      </trkpt>
      <trkpt lat="45.11556" lon="4.41066">
        <ele>1104.2</ele>
        <time>2026-04-30T12:56:23Z</time>
      </trkpt>
      <trkpt lat="45.11557" lon="4.41074">
        <ele>1104</ele>
        <time>2026-04-30T12:56:28Z</time>
      </trkpt>
      <trkpt lat="45.11559" lon="4.41083">
        <ele>1103.6</ele>
        <time>2026-04-30T12:56:33Z</time>
      </trkpt>
      <trkpt lat="45.11559" lon="4.4109">
        <ele>1103.7</ele>
        <time>2026-04-30T12:56:38Z</time>
      </trkpt>
      <trkpt lat="45.11561" lon="4.41101">
        <ele>1103.7</ele>
        <time>2026-04-30T12:56:43Z</time>
      </trkpt>
      <trkpt lat="45.11563" lon="4.41114">
        <ele>1103.8</ele>
        <time>2026-04-30T12:56:48Z</time>
      </trkpt>
      <trkpt lat="45.11563" lon="4.41126">
        <ele>1104</ele>
        <time>2026-04-30T12:56:53Z</time>
      </trkpt>
      <trkpt lat="45.11564" lon="4.41136">
        <ele>1104.1</ele>
        <time>2026-04-30T12:56:58Z</time>
      </trkpt>
      <trkpt lat="45.11564" lon="4.41145">
        <ele>1104.3</ele>
        <time>2026-04-30T12:57:03Z</time>
      </trkpt>
      <trkpt lat="45.11565" lon="4.41152">
        <ele>1104.4</ele>
        <time>2026-04-30T12:57:08Z</time>
      </trkpt>
      <trkpt lat="45.11566" lon="4.41157">
        <ele>1104.4</ele>
        <time>2026-04-30T12:57:13Z</time>
      </trkpt>
      <trkpt lat="45.11566" lon="4.41157">
        <ele>1104.4</ele>
        <time>2026-04-30T12:57:18Z</time>
      </trkpt>
      <trkpt lat="45.11566" lon="4.41157">
        <ele>1104.4</ele>
        <time>2026-04-30T12:57:23Z</time>
      </trkpt>
      <trkpt lat="45.11566" lon="4.41157">
        <ele>1104.4</ele>
        <time>2026-04-30T12:57:28Z</time>
      </trkpt>
      <trkpt lat="45.11566" lon="4.41157">
        <ele>1104.4</ele>
        <time>2026-04-30T12:57:33Z</time>
      </trkpt>
      <trkpt lat="45.11566" lon="4.41157">
        <ele>1104.4</ele>
        <time>2026-04-30T12:57:38Z</time>
      </trkpt>
      <trkpt lat="45.11566" lon="4.41157">
        <ele>1104.4</ele>
        <time>2026-04-30T12:57:43Z</time>
      </trkpt>
      <trkpt lat="45.11566" lon="4.41157">
        <ele>1104.4</ele>
        <time>2026-04-30T12:57:48Z</time>
      </trkpt>
      <trkpt lat="45.11568" lon="4.41159">
        <ele>1104.4</ele>
        <time>2026-04-30T12:57:53Z</time>
      </trkpt>
      <trkpt lat="45.11567" lon="4.41165">
        <ele>1104.6</ele>
        <time>2026-04-30T12:57:58Z</time>
      </trkpt>
      <trkpt lat="45.11569" lon="4.41173">
        <ele>1104.3</ele>
        <time>2026-04-30T12:58:03Z</time>
      </trkpt>
      <trkpt lat="45.11569" lon="4.41184">
        <ele>1103.8</ele>
        <time>2026-04-30T12:58:08Z</time>
      </trkpt>
      <trkpt lat="45.11569" lon="4.41194">
        <ele>1103.4</ele>
        <time>2026-04-30T12:58:13Z</time>
      </trkpt>
      <trkpt lat="45.11569" lon="4.412">
        <ele>1103.2</ele>
        <time>2026-04-30T12:58:18Z</time>
      </trkpt>
      <trkpt lat="45.11567" lon="4.41208">
        <ele>1103</ele>
        <time>2026-04-30T12:58:23Z</time>
      </trkpt>
      <trkpt lat="45.11565" lon="4.41215">
        <ele>1102.9</ele>
        <time>2026-04-30T12:58:28Z</time>
      </trkpt>
      <trkpt lat="45.11562" lon="4.41226">
        <ele>1102.6</ele>
        <time>2026-04-30T12:58:33Z</time>
      </trkpt>
      <trkpt lat="45.11561" lon="4.41237">
        <ele>1102.3</ele>
        <time>2026-04-30T12:58:38Z</time>
      </trkpt>
      <trkpt lat="45.11561" lon="4.41252">
        <ele>1101.8</ele>
        <time>2026-04-30T12:58:43Z</time>
      </trkpt>
      <trkpt lat="45.11559" lon="4.41262">
        <ele>1101.4</ele>
        <time>2026-04-30T12:58:48Z</time>
      </trkpt>
      <trkpt lat="45.11555" lon="4.41269">
        <ele>1101.5</ele>
        <time>2026-04-30T12:58:53Z</time>
      </trkpt>
      <trkpt lat="45.11552" lon="4.41278">
        <ele>1101.4</ele>
        <time>2026-04-30T12:58:58Z</time>
      </trkpt>
      <trkpt lat="45.11548" lon="4.41287">
        <ele>1101.6</ele>
        <time>2026-04-30T12:59:03Z</time>
      </trkpt>
      <trkpt lat="45.11545" lon="4.41296">
        <ele>1101.6</ele>
        <time>2026-04-30T12:59:08Z</time>
      </trkpt>
      <trkpt lat="45.11541" lon="4.41305">
        <ele>1102</ele>
        <time>2026-04-30T12:59:13Z</time>
      </trkpt>
      <trkpt lat="45.11536" lon="4.41312">
        <ele>1102.6</ele>
        <time>2026-04-30T12:59:18Z</time>
      </trkpt>
      <trkpt lat="45.11533" lon="4.41321">
        <ele>1102.9</ele>
        <time>2026-04-30T12:59:23Z</time>
      </trkpt>
      <trkpt lat="45.1153" lon="4.41334">
        <ele>1103.1</ele>
        <time>2026-04-30T12:59:28Z</time>
      </trkpt>
      <trkpt lat="45.11526" lon="4.41347">
        <ele>1102.1</ele>
        <time>2026-04-30T12:59:33Z</time>
      </trkpt>
      <trkpt lat="45.11521" lon="4.41358">
        <ele>1101.6</ele>
        <time>2026-04-30T12:59:38Z</time>
      </trkpt>
      <trkpt lat="45.11517" lon="4.41368">
        <ele>1101.2</ele>
        <time>2026-04-30T12:59:43Z</time>
      </trkpt>
      <trkpt lat="45.11514" lon="4.41376">
        <ele>1100.8</ele>
        <time>2026-04-30T12:59:48Z</time>
      </trkpt>
      <trkpt lat="45.11511" lon="4.41385">
        <ele>1100.3</ele>
        <time>2026-04-30T12:59:53Z</time>
      </trkpt>
      <trkpt lat="45.1151" lon="4.41396">
        <ele>1099.1</ele>
        <time>2026-04-30T12:59:58Z</time>
      </trkpt>
      <trkpt lat="45.11506" lon="4.41405">
        <ele>1098.9</ele>
        <time>2026-04-30T13:00:03Z</time>
      </trkpt>
      <trkpt lat="45.11504" lon="4.41415">
        <ele>1098.2</ele>
        <time>2026-04-30T13:00:08Z</time>
      </trkpt>
      <trkpt lat="45.115" lon="4.41424">
        <ele>1097.8</ele>
        <time>2026-04-30T13:00:13Z</time>
      </trkpt>
      <trkpt lat="45.11497" lon="4.41435">
        <ele>1096.3</ele>
        <time>2026-04-30T13:00:18Z</time>
      </trkpt>
      <trkpt lat="45.11493" lon="4.41445">
        <ele>1095.2</ele>
        <time>2026-04-30T13:00:23Z</time>
      </trkpt>
      <trkpt lat="45.11492" lon="4.41453">
        <ele>1094</ele>
        <time>2026-04-30T13:00:28Z</time>
      </trkpt>
      <trkpt lat="45.11492" lon="4.41454">
        <ele>1093.9</ele>
        <time>2026-04-30T13:00:33Z</time>
      </trkpt>
      <trkpt lat="45.11489" lon="4.4146">
        <ele>1093.3</ele>
        <time>2026-04-30T13:00:38Z</time>
      </trkpt>
      <trkpt lat="45.11488" lon="4.41471">
        <ele>1091.7</ele>
        <time>2026-04-30T13:00:43Z</time>
      </trkpt>
      <trkpt lat="45.11487" lon="4.41482">
        <ele>1090.1</ele>
        <time>2026-04-30T13:00:48Z</time>
      </trkpt>
      <trkpt lat="45.11488" lon="4.41492">
        <ele>1088.3</ele>
        <time>2026-04-30T13:00:53Z</time>
      </trkpt>
      <trkpt lat="45.11487" lon="4.41501">
        <ele>1087.2</ele>
        <time>2026-04-30T13:00:58Z</time>
      </trkpt>
      <trkpt lat="45.11487" lon="4.4151">
        <ele>1086.9</ele>
        <time>2026-04-30T13:01:03Z</time>
      </trkpt>
      <trkpt lat="45.11488" lon="4.41517">
        <ele>1086.5</ele>
        <time>2026-04-30T13:01:08Z</time>
      </trkpt>
      <trkpt lat="45.11487" lon="4.4152">
        <ele>1086.5</ele>
        <time>2026-04-30T13:01:13Z</time>
      </trkpt>
      <trkpt lat="45.11485" lon="4.41521">
        <ele>1086.9</ele>
        <time>2026-04-30T13:01:18Z</time>
      </trkpt>
      <trkpt lat="45.11485" lon="4.41521">
        <ele>1086.9</ele>
        <time>2026-04-30T13:01:23Z</time>
      </trkpt>
      <trkpt lat="45.11485" lon="4.41525">
        <ele>1086.7</ele>
        <time>2026-04-30T13:01:28Z</time>
      </trkpt>
      <trkpt lat="45.11484" lon="4.41532">
        <ele>1086.7</ele>
        <time>2026-04-30T13:01:33Z</time>
      </trkpt>
      <trkpt lat="45.11485" lon="4.41539">
        <ele>1086.3</ele>
        <time>2026-04-30T13:01:38Z</time>
      </trkpt>
      <trkpt lat="45.11486" lon="4.41543">
        <ele>1086</ele>
        <time>2026-04-30T13:01:43Z</time>
      </trkpt>
      <trkpt lat="45.11486" lon="4.41549">
        <ele>1085.8</ele>
        <time>2026-04-30T13:01:48Z</time>
      </trkpt>
      <trkpt lat="45.11484" lon="4.41556">
        <ele>1085.9</ele>
        <time>2026-04-30T13:01:53Z</time>
      </trkpt>
      <trkpt lat="45.11481" lon="4.41562">
        <ele>1086.3</ele>
        <time>2026-04-30T13:01:58Z</time>
      </trkpt>
      <trkpt lat="45.11481" lon="4.41566">
        <ele>1086.2</ele>
        <time>2026-04-30T13:02:03Z</time>
      </trkpt>
      <trkpt lat="45.11483" lon="4.41573">
        <ele>1085.6</ele>
        <time>2026-04-30T13:02:08Z</time>
      </trkpt>
      <trkpt lat="45.11484" lon="4.41577">
        <ele>1085.3</ele>
        <time>2026-04-30T13:02:13Z</time>
      </trkpt>
      <trkpt lat="45.11486" lon="4.41579">
        <ele>1084.8</ele>
        <time>2026-04-30T13:02:18Z</time>
      </trkpt>
      <trkpt lat="45.11487" lon="4.41585">
        <ele>1084.4</ele>
        <time>2026-04-30T13:02:23Z</time>
      </trkpt>
      <trkpt lat="45.11487" lon="4.41592">
        <ele>1083.8</ele>
        <time>2026-04-30T13:02:28Z</time>
      </trkpt>
      <trkpt lat="45.11487" lon="4.41599">
        <ele>1083.3</ele>
        <time>2026-04-30T13:02:33Z</time>
      </trkpt>
      <trkpt lat="45.11487" lon="4.41607">
        <ele>1082.6</ele>
        <time>2026-04-30T13:02:38Z</time>
      </trkpt>
      <trkpt lat="45.11486" lon="4.41616">
        <ele>1082.1</ele>
        <time>2026-04-30T13:02:43Z</time>
      </trkpt>
      <trkpt lat="45.11484" lon="4.41623">
        <ele>1082</ele>
        <time>2026-04-30T13:02:48Z</time>
      </trkpt>
      <trkpt lat="45.11483" lon="4.41631">
        <ele>1081.6</ele>
        <time>2026-04-30T13:02:53Z</time>
      </trkpt>
      <trkpt lat="45.11481" lon="4.41638">
        <ele>1081.5</ele>
        <time>2026-04-30T13:02:58Z</time>
      </trkpt>
      <trkpt lat="45.1148" lon="4.41645">
        <ele>1081.2</ele>
        <time>2026-04-30T13:03:03Z</time>
      </trkpt>
      <trkpt lat="45.11479" lon="4.41652">
        <ele>1080.9</ele>
        <time>2026-04-30T13:03:08Z</time>
      </trkpt>
      <trkpt lat="45.11479" lon="4.41657">
        <ele>1080.5</ele>
        <time>2026-04-30T13:03:13Z</time>
      </trkpt>
      <trkpt lat="45.11478" lon="4.41664">
        <ele>1080.2</ele>
        <time>2026-04-30T13:03:18Z</time>
      </trkpt>
      <trkpt lat="45.11478" lon="4.41672">
        <ele>1079.7</ele>
        <time>2026-04-30T13:03:23Z</time>
      </trkpt>
      <trkpt lat="45.11478" lon="4.41679">
        <ele>1079.3</ele>
        <time>2026-04-30T13:03:28Z</time>
      </trkpt>
      <trkpt lat="45.11478" lon="4.41685">
        <ele>1078.9</ele>
        <time>2026-04-30T13:03:33Z</time>
      </trkpt>
      <trkpt lat="45.11476" lon="4.41692">
        <ele>1078.9</ele>
        <time>2026-04-30T13:03:38Z</time>
      </trkpt>
      <trkpt lat="45.11476" lon="4.41698">
        <ele>1078.6</ele>
        <time>2026-04-30T13:03:43Z</time>
      </trkpt>
      <trkpt lat="45.11477" lon="4.41702">
        <ele>1078.2</ele>
        <time>2026-04-30T13:03:48Z</time>
      </trkpt>
      <trkpt lat="45.11478" lon="4.41706">
        <ele>1077.7</ele>
        <time>2026-04-30T13:03:53Z</time>
      </trkpt>
      <trkpt lat="45.11478" lon="4.41715">
        <ele>1077.2</ele>
        <time>2026-04-30T13:03:58Z</time>
      </trkpt>
      <trkpt lat="45.11478" lon="4.41722">
        <ele>1076.8</ele>
        <time>2026-04-30T13:04:03Z</time>
      </trkpt>
      <trkpt lat="45.11479" lon="4.4173">
        <ele>1076.2</ele>
        <time>2026-04-30T13:04:08Z</time>
      </trkpt>
      <trkpt lat="45.11479" lon="4.41738">
        <ele>1075.7</ele>
        <time>2026-04-30T13:04:13Z</time>
      </trkpt>
      <trkpt lat="45.11479" lon="4.41745">
        <ele>1075.3</ele>
        <time>2026-04-30T13:04:18Z</time>
      </trkpt>
      <trkpt lat="45.1148" lon="4.41751">
        <ele>1074.9</ele>
        <time>2026-04-30T13:04:23Z</time>
      </trkpt>
      <trkpt lat="45.1148" lon="4.41759">
        <ele>1074.7</ele>
        <time>2026-04-30T13:04:28Z</time>
      </trkpt>
      <trkpt lat="45.1148" lon="4.41769">
        <ele>1074.4</ele>
        <time>2026-04-30T13:04:33Z</time>
      </trkpt>
      <trkpt lat="45.11481" lon="4.41777">
        <ele>1074.1</ele>
        <time>2026-04-30T13:04:38Z</time>
      </trkpt>
      <trkpt lat="45.11482" lon="4.41785">
        <ele>1073.9</ele>
        <time>2026-04-30T13:04:43Z</time>
      </trkpt>
      <trkpt lat="45.11483" lon="4.41792">
        <ele>1073.6</ele>
        <time>2026-04-30T13:04:48Z</time>
      </trkpt>
      <trkpt lat="45.11484" lon="4.418">
        <ele>1073.4</ele>
        <time>2026-04-30T13:04:53Z</time>
      </trkpt>
      <trkpt lat="45.11486" lon="4.4181">
        <ele>1073</ele>
        <time>2026-04-30T13:04:58Z</time>
      </trkpt>
      <trkpt lat="45.11488" lon="4.41818">
        <ele>1072.8</ele>
        <time>2026-04-30T13:05:03Z</time>
      </trkpt>
      <trkpt lat="45.1149" lon="4.41828">
        <ele>1072.5</ele>
        <time>2026-04-30T13:05:08Z</time>
      </trkpt>
      <trkpt lat="45.11492" lon="4.41836">
        <ele>1072.1</ele>
        <time>2026-04-30T13:05:13Z</time>
      </trkpt>
      <trkpt lat="45.11494" lon="4.41844">
        <ele>1071.3</ele>
        <time>2026-04-30T13:05:18Z</time>
      </trkpt>
      <trkpt lat="45.11496" lon="4.4185">
        <ele>1070.6</ele>
        <time>2026-04-30T13:05:23Z</time>
      </trkpt>
      <trkpt lat="45.11498" lon="4.41857">
        <ele>1069.8</ele>
        <time>2026-04-30T13:05:28Z</time>
      </trkpt>
      <trkpt lat="45.115" lon="4.41865">
        <ele>1069</ele>
        <time>2026-04-30T13:05:33Z</time>
      </trkpt>
      <trkpt lat="45.11503" lon="4.41874">
        <ele>1068.6</ele>
        <time>2026-04-30T13:05:38Z</time>
      </trkpt>
      <trkpt lat="45.11505" lon="4.41882">
        <ele>1068.2</ele>
        <time>2026-04-30T13:05:43Z</time>
      </trkpt>
      <trkpt lat="45.11507" lon="4.4189">
        <ele>1067.8</ele>
        <time>2026-04-30T13:05:48Z</time>
      </trkpt>
      <trkpt lat="45.1151" lon="4.41897">
        <ele>1067.8</ele>
        <time>2026-04-30T13:05:53Z</time>
      </trkpt>
      <trkpt lat="45.11513" lon="4.41906">
        <ele>1067.6</ele>
        <time>2026-04-30T13:05:58Z</time>
      </trkpt>
      <trkpt lat="45.11519" lon="4.41914">
        <ele>1068.1</ele>
        <time>2026-04-30T13:06:03Z</time>
      </trkpt>
      <trkpt lat="45.11524" lon="4.41921">
        <ele>1068.6</ele>
        <time>2026-04-30T13:06:08Z</time>
      </trkpt>
      <trkpt lat="45.11527" lon="4.41925">
        <ele>1068.9</ele>
        <time>2026-04-30T13:06:13Z</time>
      </trkpt>
      <trkpt lat="45.11531" lon="4.41931">
        <ele>1069.4</ele>
        <time>2026-04-30T13:06:18Z</time>
      </trkpt>
      <trkpt lat="45.11535" lon="4.41938">
        <ele>1069.7</ele>
        <time>2026-04-30T13:06:23Z</time>
      </trkpt>
      <trkpt lat="45.11537" lon="4.41947">
        <ele>1069.5</ele>
        <time>2026-04-30T13:06:28Z</time>
      </trkpt>
      <trkpt lat="45.11539" lon="4.41957">
        <ele>1069.3</ele>
        <time>2026-04-30T13:06:33Z</time>
      </trkpt>
      <trkpt lat="45.11539" lon="4.41957">
        <ele>1069.3</ele>
        <time>2026-04-30T13:06:38Z</time>
      </trkpt>
      <trkpt lat="45.11538" lon="4.41949">
        <ele>1069.6</ele>
        <time>2026-04-30T13:06:43Z</time>
      </trkpt>
      <trkpt lat="45.11538" lon="4.4194">
        <ele>1070.2</ele>
        <time>2026-04-30T13:06:48Z</time>
      </trkpt>
      <trkpt lat="45.11539" lon="4.41931">
        <ele>1071</ele>
        <time>2026-04-30T13:06:53Z</time>
      </trkpt>
      <trkpt lat="45.11543" lon="4.41921">
        <ele>1072.5</ele>
        <time>2026-04-30T13:06:58Z</time>
      </trkpt>
      <trkpt lat="45.11544" lon="4.41913">
        <ele>1073.2</ele>
        <time>2026-04-30T13:07:03Z</time>
      </trkpt>
      <trkpt lat="45.11547" lon="4.41904">
        <ele>1074.3</ele>
        <time>2026-04-30T13:07:08Z</time>
      </trkpt>
      <trkpt lat="45.1155" lon="4.41895">
        <ele>1075.3</ele>
        <time>2026-04-30T13:07:13Z</time>
      </trkpt>
      <trkpt lat="45.11551" lon="4.41886">
        <ele>1076</ele>
        <time>2026-04-30T13:07:18Z</time>
      </trkpt>
      <trkpt lat="45.11554" lon="4.41877">
        <ele>1077</ele>
        <time>2026-04-30T13:07:23Z</time>
      </trkpt>
      <trkpt lat="45.11557" lon="4.41869">
        <ele>1077.9</ele>
        <time>2026-04-30T13:07:28Z</time>
      </trkpt>
      <trkpt lat="45.11562" lon="4.41861">
        <ele>1079</ele>
        <time>2026-04-30T13:07:33Z</time>
      </trkpt>
      <trkpt lat="45.11565" lon="4.41852">
        <ele>1079.8</ele>
        <time>2026-04-30T13:07:38Z</time>
      </trkpt>
      <trkpt lat="45.11568" lon="4.41844">
        <ele>1080.6</ele>
        <time>2026-04-30T13:07:43Z</time>
      </trkpt>
      <trkpt lat="45.11571" lon="4.41835">
        <ele>1081.3</ele>
        <time>2026-04-30T13:07:48Z</time>
      </trkpt>
      <trkpt lat="45.11575" lon="4.41825">
        <ele>1081.6</ele>
        <time>2026-04-30T13:07:53Z</time>
      </trkpt>
      <trkpt lat="45.11578" lon="4.41817">
        <ele>1081.7</ele>
        <time>2026-04-30T13:07:58Z</time>
      </trkpt>
      <trkpt lat="45.11581" lon="4.41808">
        <ele>1081.8</ele>
        <time>2026-04-30T13:08:03Z</time>
      </trkpt>
      <trkpt lat="45.11586" lon="4.41798">
        <ele>1082.2</ele>
        <time>2026-04-30T13:08:08Z</time>
      </trkpt>
      <trkpt lat="45.11589" lon="4.41789">
        <ele>1082.3</ele>
        <time>2026-04-30T13:08:13Z</time>
      </trkpt>
      <trkpt lat="45.11593" lon="4.41781">
        <ele>1082.6</ele>
        <time>2026-04-30T13:08:18Z</time>
      </trkpt>
      <trkpt lat="45.11597" lon="4.41774">
        <ele>1082.9</ele>
        <time>2026-04-30T13:08:23Z</time>
      </trkpt>
      <trkpt lat="45.11599" lon="4.41765">
        <ele>1082.7</ele>
        <time>2026-04-30T13:08:28Z</time>
      </trkpt>
      <trkpt lat="45.11604" lon="4.41757">
        <ele>1083.1</ele>
        <time>2026-04-30T13:08:33Z</time>
      </trkpt>
      <trkpt lat="45.11604" lon="4.41754">
        <ele>1082.9</ele>
        <time>2026-04-30T13:08:38Z</time>
      </trkpt>
      <trkpt lat="45.11604" lon="4.41754">
        <ele>1082.9</ele>
        <time>2026-04-30T13:08:43Z</time>
      </trkpt>
      <trkpt lat="45.11604" lon="4.41754">
        <ele>1082.9</ele>
        <time>2026-04-30T13:08:48Z</time>
      </trkpt>
      <trkpt lat="45.11605" lon="4.4175">
        <ele>1082.9</ele>
        <time>2026-04-30T13:08:53Z</time>
      </trkpt>
      <trkpt lat="45.11605" lon="4.4175">
        <ele>1082.9</ele>
        <time>2026-04-30T13:08:58Z</time>
      </trkpt>
      <trkpt lat="45.1161" lon="4.41747">
        <ele>1083.3</ele>
        <time>2026-04-30T13:09:03Z</time>
      </trkpt>
      <trkpt lat="45.11611" lon="4.41738">
        <ele>1082.9</ele>
        <time>2026-04-30T13:09:08Z</time>
      </trkpt>
      <trkpt lat="45.11613" lon="4.41727">
        <ele>1082.4</ele>
        <time>2026-04-30T13:09:13Z</time>
      </trkpt>
      <trkpt lat="45.11617" lon="4.41718">
        <ele>1082.4</ele>
        <time>2026-04-30T13:09:18Z</time>
      </trkpt>
      <trkpt lat="45.1162" lon="4.41708">
        <ele>1082.1</ele>
        <time>2026-04-30T13:09:23Z</time>
      </trkpt>
      <trkpt lat="45.11626" lon="4.41701">
        <ele>1082.4</ele>
        <time>2026-04-30T13:09:28Z</time>
      </trkpt>
      <trkpt lat="45.1163" lon="4.41696">
        <ele>1082.6</ele>
        <time>2026-04-30T13:09:33Z</time>
      </trkpt>
      <trkpt lat="45.11633" lon="4.41692">
        <ele>1082.7</ele>
        <time>2026-04-30T13:09:38Z</time>
      </trkpt>
      <trkpt lat="45.11636" lon="4.4169">
        <ele>1082.9</ele>
        <time>2026-04-30T13:09:43Z</time>
      </trkpt>
      <trkpt lat="45.11638" lon="4.4169">
        <ele>1083.1</ele>
        <time>2026-04-30T13:09:48Z</time>
      </trkpt>
      <trkpt lat="45.11641" lon="4.41679">
        <ele>1082.8</ele>
        <time>2026-04-30T13:09:53Z</time>
      </trkpt>
      <trkpt lat="45.11645" lon="4.41669">
        <ele>1082.6</ele>
        <time>2026-04-30T13:09:58Z</time>
      </trkpt>
      <trkpt lat="45.11648" lon="4.41659">
        <ele>1082.1</ele>
        <time>2026-04-30T13:10:03Z</time>
      </trkpt>
      <trkpt lat="45.11654" lon="4.4165">
        <ele>1082.1</ele>
        <time>2026-04-30T13:10:08Z</time>
      </trkpt>
      <trkpt lat="45.11659" lon="4.41642">
        <ele>1081.9</ele>
        <time>2026-04-30T13:10:13Z</time>
      </trkpt>
      <trkpt lat="45.11664" lon="4.41635">
        <ele>1081.7</ele>
        <time>2026-04-30T13:10:18Z</time>
      </trkpt>
      <trkpt lat="45.11669" lon="4.41628">
        <ele>1081.6</ele>
        <time>2026-04-30T13:10:23Z</time>
      </trkpt>
      <trkpt lat="45.11675" lon="4.41619">
        <ele>1081.6</ele>
        <time>2026-04-30T13:10:28Z</time>
      </trkpt>
      <trkpt lat="45.1168" lon="4.41612">
        <ele>1081.5</ele>
        <time>2026-04-30T13:10:33Z</time>
      </trkpt>
      <trkpt lat="45.11685" lon="4.41605">
        <ele>1081.5</ele>
        <time>2026-04-30T13:10:38Z</time>
      </trkpt>
      <trkpt lat="45.11692" lon="4.41599">
        <ele>1081.7</ele>
        <time>2026-04-30T13:10:43Z</time>
      </trkpt>
      <trkpt lat="45.11699" lon="4.41593">
        <ele>1081.9</ele>
        <time>2026-04-30T13:10:48Z</time>
      </trkpt>
      <trkpt lat="45.11706" lon="4.41586">
        <ele>1082</ele>
        <time>2026-04-30T13:10:53Z</time>
      </trkpt>
      <trkpt lat="45.11711" lon="4.4158">
        <ele>1082.2</ele>
        <time>2026-04-30T13:10:58Z</time>
      </trkpt>
      <trkpt lat="45.11717" lon="4.41573">
        <ele>1082.7</ele>
        <time>2026-04-30T13:11:03Z</time>
      </trkpt>
      <trkpt lat="45.11723" lon="4.41567">
        <ele>1083.1</ele>
        <time>2026-04-30T13:11:08Z</time>
      </trkpt>
      <trkpt lat="45.11731" lon="4.41561">
        <ele>1083.7</ele>
        <time>2026-04-30T13:11:13Z</time>
      </trkpt>
      <trkpt lat="45.11736" lon="4.41555">
        <ele>1083.9</ele>
        <time>2026-04-30T13:11:18Z</time>
      </trkpt>
      <trkpt lat="45.11741" lon="4.41548">
        <ele>1084</ele>
        <time>2026-04-30T13:11:23Z</time>
      </trkpt>
      <trkpt lat="45.11747" lon="4.41542">
        <ele>1084.2</ele>
        <time>2026-04-30T13:11:28Z</time>
      </trkpt>
      <trkpt lat="45.11753" lon="4.41536">
        <ele>1084.5</ele>
        <time>2026-04-30T13:11:33Z</time>
      </trkpt>
      <trkpt lat="45.1176" lon="4.41531">
        <ele>1084.9</ele>
        <time>2026-04-30T13:11:38Z</time>
      </trkpt>
      <trkpt lat="45.11766" lon="4.41523">
        <ele>1085</ele>
        <time>2026-04-30T13:11:43Z</time>
      </trkpt>
      <trkpt lat="45.11771" lon="4.41519">
        <ele>1085.2</ele>
        <time>2026-04-30T13:11:48Z</time>
      </trkpt>
      <trkpt lat="45.11776" lon="4.41513">
        <ele>1085.2</ele>
        <time>2026-04-30T13:11:53Z</time>
      </trkpt>
      <trkpt lat="45.11777" lon="4.4151">
        <ele>1085.1</ele>
        <time>2026-04-30T13:11:58Z</time>
      </trkpt>
      <trkpt lat="45.11778" lon="4.41509">
        <ele>1085.1</ele>
        <time>2026-04-30T13:12:03Z</time>
      </trkpt>
      <trkpt lat="45.11778" lon="4.41509">
        <ele>1085.1</ele>
        <time>2026-04-30T13:12:08Z</time>
      </trkpt>
      <trkpt lat="45.11778" lon="4.41509">
        <ele>1085.1</ele>
        <time>2026-04-30T13:12:13Z</time>
      </trkpt>
      <trkpt lat="45.11778" lon="4.41509">
        <ele>1085.1</ele>
        <time>2026-04-30T13:12:18Z</time>
      </trkpt>
      <trkpt lat="45.11778" lon="4.41509">
        <ele>1085.1</ele>
        <time>2026-04-30T13:12:23Z</time>
      </trkpt>
      <trkpt lat="45.11778" lon="4.41509">
        <ele>1085.1</ele>
        <time>2026-04-30T13:12:28Z</time>
      </trkpt>
      <trkpt lat="45.11786" lon="4.41508">
        <ele>1085.7</ele>
        <time>2026-04-30T13:12:33Z</time>
      </trkpt>
      <trkpt lat="45.11792" lon="4.41502">
        <ele>1085.7</ele>
        <time>2026-04-30T13:12:38Z</time>
      </trkpt>
      <trkpt lat="45.11796" lon="4.41498">
        <ele>1085.9</ele>
        <time>2026-04-30T13:12:43Z</time>
      </trkpt>
      <trkpt lat="45.118" lon="4.41495">
        <ele>1086.3</ele>
        <time>2026-04-30T13:12:48Z</time>
      </trkpt>
      <trkpt lat="45.11807" lon="4.41492">
        <ele>1086.9</ele>
        <time>2026-04-30T13:12:53Z</time>
      </trkpt>
      <trkpt lat="45.11813" lon="4.41489">
        <ele>1087.4</ele>
        <time>2026-04-30T13:12:58Z</time>
      </trkpt>
      <trkpt lat="45.11813" lon="4.41488">
        <ele>1087.4</ele>
        <time>2026-04-30T13:13:03Z</time>
      </trkpt>
      <trkpt lat="45.11813" lon="4.41487">
        <ele>1087.4</ele>
        <time>2026-04-30T13:13:08Z</time>
      </trkpt>
      <trkpt lat="45.11813" lon="4.41487">
        <ele>1087.4</ele>
        <time>2026-04-30T13:13:13Z</time>
      </trkpt>
      <trkpt lat="45.11813" lon="4.41487">
        <ele>1087.4</ele>
        <time>2026-04-30T13:13:18Z</time>
      </trkpt>
      <trkpt lat="45.11813" lon="4.41487">
        <ele>1087.4</ele>
        <time>2026-04-30T13:13:23Z</time>
      </trkpt>
      <trkpt lat="45.11813" lon="4.41485">
        <ele>1087.4</ele>
        <time>2026-04-30T13:13:28Z</time>
      </trkpt>
      <trkpt lat="45.1182" lon="4.41483">
        <ele>1088</ele>
        <time>2026-04-30T13:13:33Z</time>
      </trkpt>
      <trkpt lat="45.11827" lon="4.41483">
        <ele>1088.5</ele>
        <time>2026-04-30T13:13:38Z</time>
      </trkpt>
      <trkpt lat="45.11835" lon="4.41484">
        <ele>1089.2</ele>
        <time>2026-04-30T13:13:43Z</time>
      </trkpt>
      <trkpt lat="45.11842" lon="4.41483">
        <ele>1089.9</ele>
        <time>2026-04-30T13:13:48Z</time>
      </trkpt>
      <trkpt lat="45.11848" lon="4.41483">
        <ele>1090.5</ele>
        <time>2026-04-30T13:13:53Z</time>
      </trkpt>
      <trkpt lat="45.1185" lon="4.41482">
        <ele>1090.7</ele>
        <time>2026-04-30T13:13:58Z</time>
      </trkpt>
      <trkpt lat="45.11852" lon="4.41482">
        <ele>1090.9</ele>
        <time>2026-04-30T13:14:03Z</time>
      </trkpt>
      <trkpt lat="45.11852" lon="4.41482">
        <ele>1090.9</ele>
        <time>2026-04-30T13:14:08Z</time>
      </trkpt>
      <trkpt lat="45.11852" lon="4.41482">
        <ele>1090.9</ele>
        <time>2026-04-30T13:14:13Z</time>
      </trkpt>
      <trkpt lat="45.11852" lon="4.41482">
        <ele>1090.9</ele>
        <time>2026-04-30T13:14:18Z</time>
      </trkpt>
      <trkpt lat="45.11852" lon="4.41482">
        <ele>1090.9</ele>
        <time>2026-04-30T13:14:23Z</time>
      </trkpt>
      <trkpt lat="45.11852" lon="4.41482">
        <ele>1090.9</ele>
        <time>2026-04-30T13:14:28Z</time>
      </trkpt>
      <trkpt lat="45.11861" lon="4.41477">
        <ele>1091.7</ele>
        <time>2026-04-30T13:14:33Z</time>
      </trkpt>
      <trkpt lat="45.11862" lon="4.41479">
        <ele>1091.8</ele>
        <time>2026-04-30T13:14:38Z</time>
      </trkpt>
      <trkpt lat="45.11866" lon="4.41481">
        <ele>1092.3</ele>
        <time>2026-04-30T13:14:43Z</time>
      </trkpt>
      <trkpt lat="45.1187" lon="4.41481">
        <ele>1092.7</ele>
        <time>2026-04-30T13:14:48Z</time>
      </trkpt>
      <trkpt lat="45.11874" lon="4.41482">
        <ele>1093.1</ele>
        <time>2026-04-30T13:14:53Z</time>
      </trkpt>
      <trkpt lat="45.1188" lon="4.41482">
        <ele>1093.8</ele>
        <time>2026-04-30T13:14:58Z</time>
      </trkpt>
      <trkpt lat="45.11887" lon="4.41483">
        <ele>1094.5</ele>
        <time>2026-04-30T13:15:03Z</time>
      </trkpt>
      <trkpt lat="45.11893" lon="4.41483">
        <ele>1095.1</ele>
        <time>2026-04-30T13:15:08Z</time>
      </trkpt>
      <trkpt lat="45.11901" lon="4.41483">
        <ele>1096</ele>
        <time>2026-04-30T13:15:13Z</time>
      </trkpt>
      <trkpt lat="45.11909" lon="4.41482">
        <ele>1096.7</ele>
        <time>2026-04-30T13:15:18Z</time>
      </trkpt>
      <trkpt lat="45.11915" lon="4.41483">
        <ele>1097.4</ele>
        <time>2026-04-30T13:15:23Z</time>
      </trkpt>
      <trkpt lat="45.11921" lon="4.4148">
        <ele>1097.5</ele>
        <time>2026-04-30T13:15:28Z</time>
      </trkpt>
      <trkpt lat="45.11926" lon="4.41478">
        <ele>1097.6</ele>
        <time>2026-04-30T13:15:33Z</time>
      </trkpt>
      <trkpt lat="45.11934" lon="4.41476">
        <ele>1097.9</ele>
        <time>2026-04-30T13:15:38Z</time>
      </trkpt>
      <trkpt lat="45.11941" lon="4.41473">
        <ele>1098</ele>
        <time>2026-04-30T13:15:43Z</time>
      </trkpt>
      <trkpt lat="45.11949" lon="4.41469">
        <ele>1098.1</ele>
        <time>2026-04-30T13:15:48Z</time>
      </trkpt>
      <trkpt lat="45.11955" lon="4.41464">
        <ele>1098</ele>
        <time>2026-04-30T13:15:53Z</time>
      </trkpt>
      <trkpt lat="45.1196" lon="4.41459">
        <ele>1097.9</ele>
        <time>2026-04-30T13:15:58Z</time>
      </trkpt>
      <trkpt lat="45.11965" lon="4.41454">
        <ele>1097.8</ele>
        <time>2026-04-30T13:16:03Z</time>
      </trkpt>
      <trkpt lat="45.11973" lon="4.4145">
        <ele>1097.9</ele>
        <time>2026-04-30T13:16:08Z</time>
      </trkpt>
      <trkpt lat="45.11979" lon="4.41446">
        <ele>1097.9</ele>
        <time>2026-04-30T13:16:13Z</time>
      </trkpt>
      <trkpt lat="45.11983" lon="4.41442">
        <ele>1097.9</ele>
        <time>2026-04-30T13:16:18Z</time>
      </trkpt>
      <trkpt lat="45.1199" lon="4.41437">
        <ele>1097.9</ele>
        <time>2026-04-30T13:16:23Z</time>
      </trkpt>
      <trkpt lat="45.11995" lon="4.41431">
        <ele>1097.7</ele>
        <time>2026-04-30T13:16:28Z</time>
      </trkpt>
      <trkpt lat="45.12001" lon="4.41424">
        <ele>1097.6</ele>
        <time>2026-04-30T13:16:33Z</time>
      </trkpt>
      <trkpt lat="45.12008" lon="4.41417">
        <ele>1097.6</ele>
        <time>2026-04-30T13:16:38Z</time>
      </trkpt>
      <trkpt lat="45.12013" lon="4.4141">
        <ele>1098</ele>
        <time>2026-04-30T13:16:43Z</time>
      </trkpt>
      <trkpt lat="45.12019" lon="4.41402">
        <ele>1098.5</ele>
        <time>2026-04-30T13:16:48Z</time>
      </trkpt>
      <trkpt lat="45.12024" lon="4.41394">
        <ele>1098.9</ele>
        <time>2026-04-30T13:16:53Z</time>
      </trkpt>
      <trkpt lat="45.12027" lon="4.41386">
        <ele>1099.2</ele>
        <time>2026-04-30T13:16:58Z</time>
      </trkpt>
      <trkpt lat="45.12029" lon="4.41375">
        <ele>1099.4</ele>
        <time>2026-04-30T13:17:03Z</time>
      </trkpt>
      <trkpt lat="45.12033" lon="4.41367">
        <ele>1099.7</ele>
        <time>2026-04-30T13:17:08Z</time>
      </trkpt>
      <trkpt lat="45.12035" lon="4.41357">
        <ele>1099.9</ele>
        <time>2026-04-30T13:17:13Z</time>
      </trkpt>
      <trkpt lat="45.12034" lon="4.41349">
        <ele>1099.9</ele>
        <time>2026-04-30T13:17:18Z</time>
      </trkpt>
      <trkpt lat="45.12033" lon="4.4134">
        <ele>1099.9</ele>
        <time>2026-04-30T13:17:23Z</time>
      </trkpt>
      <trkpt lat="45.12032" lon="4.4133">
        <ele>1099.9</ele>
        <time>2026-04-30T13:17:28Z</time>
      </trkpt>
      <trkpt lat="45.12031" lon="4.4132">
        <ele>1099.9</ele>
        <time>2026-04-30T13:17:33Z</time>
      </trkpt>
      <trkpt lat="45.12032" lon="4.41311">
        <ele>1100</ele>
        <time>2026-04-30T13:17:38Z</time>
      </trkpt>
      <trkpt lat="45.12034" lon="4.41301">
        <ele>1100.2</ele>
        <time>2026-04-30T13:17:43Z</time>
      </trkpt>
      <trkpt lat="45.12037" lon="4.41294">
        <ele>1100.4</ele>
        <time>2026-04-30T13:17:48Z</time>
      </trkpt>
      <trkpt lat="45.12041" lon="4.4129">
        <ele>1100.7</ele>
        <time>2026-04-30T13:17:53Z</time>
      </trkpt>
      <trkpt lat="45.12046" lon="4.41286">
        <ele>1101.1</ele>
        <time>2026-04-30T13:17:58Z</time>
      </trkpt>
      <trkpt lat="45.12049" lon="4.41278">
        <ele>1101.3</ele>
        <time>2026-04-30T13:18:03Z</time>
      </trkpt>
      <trkpt lat="45.12057" lon="4.41271">
        <ele>1101.9</ele>
        <time>2026-04-30T13:18:08Z</time>
      </trkpt>
      <trkpt lat="45.12063" lon="4.4126">
        <ele>1102.4</ele>
        <time>2026-04-30T13:18:13Z</time>
      </trkpt>
      <trkpt lat="45.12063" lon="4.41256">
        <ele>1102.5</ele>
        <time>2026-04-30T13:18:18Z</time>
      </trkpt>
      <trkpt lat="45.12057" lon="4.41254">
        <ele>1102.1</ele>
        <time>2026-04-30T13:18:23Z</time>
      </trkpt>
      <trkpt lat="45.12049" lon="4.41252">
        <ele>1101.5</ele>
        <time>2026-04-30T13:18:28Z</time>
      </trkpt>
      <trkpt lat="45.12045" lon="4.4125">
        <ele>1101.2</ele>
        <time>2026-04-30T13:18:33Z</time>
      </trkpt>
      <trkpt lat="45.12038" lon="4.41252">
        <ele>1100.7</ele>
        <time>2026-04-30T13:18:38Z</time>
      </trkpt>
      <trkpt lat="45.12032" lon="4.41252">
        <ele>1100.3</ele>
        <time>2026-04-30T13:18:43Z</time>
      </trkpt>
      <trkpt lat="45.12027" lon="4.41246">
        <ele>1099.6</ele>
        <time>2026-04-30T13:18:48Z</time>
      </trkpt>
      <trkpt lat="45.12024" lon="4.41242">
        <ele>1099.1</ele>
        <time>2026-04-30T13:18:53Z</time>
      </trkpt>
      <trkpt lat="45.12024" lon="4.41245">
        <ele>1099.3</ele>
        <time>2026-04-30T13:18:58Z</time>
        <extensions>
          <visugpx:TrkExtension xmlns:visugpx="https://www.visugpx.com/editgpx/">
            <visugpx:node>8</visugpx:node>
            </visugpx:TrkExtension>
        </extensions>
      </trkpt>
      <trkpt lat="45.12025" lon="4.41232">
        <ele>1098.4</ele>
        <time>2026-05-01T05:46:43Z</time>
      </trkpt>
      <trkpt lat="45.12013" lon="4.41238">
        <ele>1098</ele>
        <time>2026-05-01T05:46:49Z</time>
      </trkpt>
      <trkpt lat="45.12017" lon="4.41238">
        <ele>1098.3</ele>
        <time>2026-05-01T05:46:55Z</time>
      </trkpt>
      <trkpt lat="45.12019" lon="4.41241">
        <ele>1098.7</ele>
        <time>2026-05-01T05:47:00Z</time>
      </trkpt>
      <trkpt lat="45.12023" lon="4.41245">
        <ele>1099.3</ele>
        <time>2026-05-01T05:47:05Z</time>
      </trkpt>
      <trkpt lat="45.12027" lon="4.41248">
        <ele>1099.8</ele>
        <time>2026-05-01T05:47:10Z</time>
      </trkpt>
      <trkpt lat="45.12032" lon="4.41252">
        <ele>1100.3</ele>
        <time>2026-05-01T05:47:15Z</time>
      </trkpt>
      <trkpt lat="45.12037" lon="4.41257">
        <ele>1100.6</ele>
        <time>2026-05-01T05:47:20Z</time>
      </trkpt>
      <trkpt lat="45.12043" lon="4.41261">
        <ele>1101</ele>
        <time>2026-05-01T05:47:25Z</time>
      </trkpt>
      <trkpt lat="45.12047" lon="4.41263">
        <ele>1101.3</ele>
        <time>2026-05-01T05:47:30Z</time>
      </trkpt>
      <trkpt lat="45.12048" lon="4.4127">
        <ele>1101.3</ele>
        <time>2026-05-01T05:47:35Z</time>
      </trkpt>
      <trkpt lat="45.1205" lon="4.41273">
        <ele>1101.4</ele>
        <time>2026-05-01T05:47:40Z</time>
      </trkpt>
      <trkpt lat="45.12057" lon="4.41269">
        <ele>1101.9</ele>
        <time>2026-05-01T05:47:45Z</time>
      </trkpt>
      <trkpt lat="45.12063" lon="4.41268">
        <ele>1102.4</ele>
        <time>2026-05-01T05:47:50Z</time>
      </trkpt>
      <trkpt lat="45.12068" lon="4.4127">
        <ele>1102.7</ele>
        <time>2026-05-01T05:47:55Z</time>
      </trkpt>
      <trkpt lat="45.12072" lon="4.41276">
        <ele>1102.9</ele>
        <time>2026-05-01T05:48:00Z</time>
      </trkpt>
      <trkpt lat="45.12073" lon="4.41284">
        <ele>1102.9</ele>
        <time>2026-05-01T05:48:05Z</time>
      </trkpt>
      <trkpt lat="45.12076" lon="4.41293">
        <ele>1103</ele>
        <time>2026-05-01T05:48:10Z</time>
      </trkpt>
      <trkpt lat="45.1208" lon="4.41303">
        <ele>1103.1</ele>
        <time>2026-05-01T05:48:15Z</time>
      </trkpt>
      <trkpt lat="45.12084" lon="4.41309">
        <ele>1103.3</ele>
        <time>2026-05-01T05:48:20Z</time>
      </trkpt>
      <trkpt lat="45.1209" lon="4.4131">
        <ele>1103.7</ele>
        <time>2026-05-01T05:48:25Z</time>
      </trkpt>
      <trkpt lat="45.12095" lon="4.41315">
        <ele>1104</ele>
        <time>2026-05-01T05:48:30Z</time>
      </trkpt>
      <trkpt lat="45.12101" lon="4.41322">
        <ele>1104.4</ele>
        <time>2026-05-01T05:48:35Z</time>
      </trkpt>
      <trkpt lat="45.12107" lon="4.41326">
        <ele>1104.7</ele>
        <time>2026-05-01T05:48:40Z</time>
      </trkpt>
      <trkpt lat="45.12114" lon="4.41332">
        <ele>1105.2</ele>
        <time>2026-05-01T05:48:45Z</time>
      </trkpt>
      <trkpt lat="45.12121" lon="4.41338">
        <ele>1105.7</ele>
        <time>2026-05-01T05:48:50Z</time>
      </trkpt>
      <trkpt lat="45.12126" lon="4.4134">
        <ele>1106</ele>
        <time>2026-05-01T05:48:55Z</time>
      </trkpt>
      <trkpt lat="45.1213" lon="4.41344">
        <ele>1106.2</ele>
        <time>2026-05-01T05:49:00Z</time>
      </trkpt>
      <trkpt lat="45.12136" lon="4.4135">
        <ele>1106.5</ele>
        <time>2026-05-01T05:49:05Z</time>
      </trkpt>
      <trkpt lat="45.12141" lon="4.41354">
        <ele>1106.8</ele>
        <time>2026-05-01T05:49:10Z</time>
      </trkpt>
      <trkpt lat="45.12148" lon="4.4136">
        <ele>1107.2</ele>
        <time>2026-05-01T05:49:15Z</time>
      </trkpt>
      <trkpt lat="45.12155" lon="4.41365">
        <ele>1107.5</ele>
        <time>2026-05-01T05:49:20Z</time>
      </trkpt>
      <trkpt lat="45.1216" lon="4.4137">
        <ele>1107.7</ele>
        <time>2026-05-01T05:49:25Z</time>
      </trkpt>
      <trkpt lat="45.12167" lon="4.41376">
        <ele>1108</ele>
        <time>2026-05-01T05:49:30Z</time>
      </trkpt>
      <trkpt lat="45.12172" lon="4.4138">
        <ele>1108.3</ele>
        <time>2026-05-01T05:49:35Z</time>
      </trkpt>
      <trkpt lat="45.12177" lon="4.41385">
        <ele>1108.6</ele>
        <time>2026-05-01T05:49:40Z</time>
      </trkpt>
      <trkpt lat="45.12184" lon="4.41391">
        <ele>1108.9</ele>
        <time>2026-05-01T05:49:45Z</time>
      </trkpt>
      <trkpt lat="45.12189" lon="4.41396">
        <ele>1109.2</ele>
        <time>2026-05-01T05:49:50Z</time>
      </trkpt>
      <trkpt lat="45.12194" lon="4.41402">
        <ele>1109.4</ele>
        <time>2026-05-01T05:49:55Z</time>
      </trkpt>
      <trkpt lat="45.12198" lon="4.41407">
        <ele>1109.5</ele>
        <time>2026-05-01T05:50:00Z</time>
      </trkpt>
      <trkpt lat="45.12203" lon="4.41413">
        <ele>1109.7</ele>
        <time>2026-05-01T05:50:05Z</time>
      </trkpt>
      <trkpt lat="45.12207" lon="4.41421">
        <ele>1110</ele>
        <time>2026-05-01T05:50:10Z</time>
      </trkpt>
      <trkpt lat="45.12212" lon="4.4143">
        <ele>1110.7</ele>
        <time>2026-05-01T05:50:15Z</time>
      </trkpt>
      <trkpt lat="45.12216" lon="4.41438">
        <ele>1111.2</ele>
        <time>2026-05-01T05:50:20Z</time>
      </trkpt>
      <trkpt lat="45.12218" lon="4.41446">
        <ele>1111.5</ele>
        <time>2026-05-01T05:50:25Z</time>
      </trkpt>
      <trkpt lat="45.1222" lon="4.41453">
        <ele>1111.9</ele>
        <time>2026-05-01T05:50:30Z</time>
      </trkpt>
      <trkpt lat="45.12222" lon="4.41463">
        <ele>1112.3</ele>
        <time>2026-05-01T05:50:35Z</time>
      </trkpt>
      <trkpt lat="45.12225" lon="4.41473">
        <ele>1112.8</ele>
        <time>2026-05-01T05:50:40Z</time>
      </trkpt>
      <trkpt lat="45.12228" lon="4.41484">
        <ele>1113.2</ele>
        <time>2026-05-01T05:50:45Z</time>
      </trkpt>
      <trkpt lat="45.1223" lon="4.41494">
        <ele>1113.6</ele>
        <time>2026-05-01T05:50:50Z</time>
      </trkpt>
      <trkpt lat="45.12232" lon="4.41504">
        <ele>1114.1</ele>
        <time>2026-05-01T05:50:55Z</time>
      </trkpt>
      <trkpt lat="45.12235" lon="4.41514">
        <ele>1114.8</ele>
        <time>2026-05-01T05:51:00Z</time>
      </trkpt>
      <trkpt lat="45.12237" lon="4.41525">
        <ele>1115.5</ele>
        <time>2026-05-01T05:51:05Z</time>
      </trkpt>
      <trkpt lat="45.12239" lon="4.41535">
        <ele>1116.1</ele>
        <time>2026-05-01T05:51:10Z</time>
      </trkpt>
      <trkpt lat="45.12242" lon="4.41545">
        <ele>1116.7</ele>
        <time>2026-05-01T05:51:15Z</time>
      </trkpt>
      <trkpt lat="45.12244" lon="4.41555">
        <ele>1117.3</ele>
        <time>2026-05-01T05:51:20Z</time>
      </trkpt>
      <trkpt lat="45.12246" lon="4.41565">
        <ele>1117.9</ele>
        <time>2026-05-01T05:51:25Z</time>
      </trkpt>
      <trkpt lat="45.12249" lon="4.41575">
        <ele>1118.6</ele>
        <time>2026-05-01T05:51:30Z</time>
      </trkpt>
      <trkpt lat="45.12251" lon="4.41585">
        <ele>1119.1</ele>
        <time>2026-05-01T05:51:35Z</time>
      </trkpt>
      <trkpt lat="45.12253" lon="4.41595">
        <ele>1119.7</ele>
        <time>2026-05-01T05:51:40Z</time>
      </trkpt>
      <trkpt lat="45.12256" lon="4.41605">
        <ele>1120.4</ele>
        <time>2026-05-01T05:51:45Z</time>
      </trkpt>
      <trkpt lat="45.12259" lon="4.41614">
        <ele>1120.9</ele>
        <time>2026-05-01T05:51:50Z</time>
      </trkpt>
      <trkpt lat="45.12262" lon="4.41623">
        <ele>1121.5</ele>
        <time>2026-05-01T05:51:55Z</time>
      </trkpt>
      <trkpt lat="45.12265" lon="4.41632">
        <ele>1122</ele>
        <time>2026-05-01T05:52:00Z</time>
      </trkpt>
      <trkpt lat="45.12266" lon="4.4164">
        <ele>1122.4</ele>
        <time>2026-05-01T05:52:05Z</time>
      </trkpt>
      <trkpt lat="45.12265" lon="4.41648">
        <ele>1122.7</ele>
        <time>2026-05-01T05:52:10Z</time>
      </trkpt>
      <trkpt lat="45.12263" lon="4.41651">
        <ele>1122.8</ele>
        <time>2026-05-01T05:52:15Z</time>
      </trkpt>
      <trkpt lat="45.12262" lon="4.41653">
        <ele>1122.8</ele>
        <time>2026-05-01T05:52:20Z</time>
      </trkpt>
      <trkpt lat="45.12262" lon="4.41653">
        <ele>1122.8</ele>
        <time>2026-05-01T05:52:25Z</time>
      </trkpt>
      <trkpt lat="45.12262" lon="4.41653">
        <ele>1122.8</ele>
        <time>2026-05-01T05:52:30Z</time>
      </trkpt>
      <trkpt lat="45.12267" lon="4.4165">
        <ele>1122.9</ele>
        <time>2026-05-01T05:52:35Z</time>
      </trkpt>
      <trkpt lat="45.12272" lon="4.41654">
        <ele>1123.3</ele>
        <time>2026-05-01T05:52:40Z</time>
      </trkpt>
      <trkpt lat="45.12278" lon="4.41656">
        <ele>1123.6</ele>
        <time>2026-05-01T05:52:45Z</time>
      </trkpt>
      <trkpt lat="45.12285" lon="4.41658">
        <ele>1123.9</ele>
        <time>2026-05-01T05:52:50Z</time>
      </trkpt>
      <trkpt lat="45.1229" lon="4.4166">
        <ele>1124.2</ele>
        <time>2026-05-01T05:52:55Z</time>
      </trkpt>
      <trkpt lat="45.12295" lon="4.41656">
        <ele>1124.2</ele>
        <time>2026-05-01T05:53:00Z</time>
      </trkpt>
      <trkpt lat="45.12301" lon="4.41653">
        <ele>1124.4</ele>
        <time>2026-05-01T05:53:05Z</time>
      </trkpt>
      <trkpt lat="45.12303" lon="4.41652">
        <ele>1124.4</ele>
        <time>2026-05-01T05:53:10Z</time>
      </trkpt>
      <trkpt lat="45.12304" lon="4.41651">
        <ele>1124.4</ele>
        <time>2026-05-01T05:53:15Z</time>
      </trkpt>
      <trkpt lat="45.12308" lon="4.41647">
        <ele>1124.5</ele>
        <time>2026-05-01T05:53:20Z</time>
      </trkpt>
      <trkpt lat="45.12312" lon="4.41643">
        <ele>1124.5</ele>
        <time>2026-05-01T05:53:25Z</time>
      </trkpt>
      <trkpt lat="45.1232" lon="4.41637">
        <ele>1124.7</ele>
        <time>2026-05-01T05:53:30Z</time>
      </trkpt>
      <trkpt lat="45.12326" lon="4.41632">
        <ele>1124.8</ele>
        <time>2026-05-01T05:53:35Z</time>
      </trkpt>
      <trkpt lat="45.1233" lon="4.41625">
        <ele>1124.8</ele>
        <time>2026-05-01T05:53:40Z</time>
      </trkpt>
      <trkpt lat="45.12336" lon="4.41619">
        <ele>1125.1</ele>
        <time>2026-05-01T05:53:45Z</time>
      </trkpt>
      <trkpt lat="45.12342" lon="4.41614">
        <ele>1125.4</ele>
        <time>2026-05-01T05:53:50Z</time>
      </trkpt>
      <trkpt lat="45.12347" lon="4.41607">
        <ele>1125.7</ele>
        <time>2026-05-01T05:53:55Z</time>
      </trkpt>
      <trkpt lat="45.12352" lon="4.41602">
        <ele>1126</ele>
        <time>2026-05-01T05:54:00Z</time>
      </trkpt>
      <trkpt lat="45.12358" lon="4.41596">
        <ele>1126.3</ele>
        <time>2026-05-01T05:54:05Z</time>
      </trkpt>
      <trkpt lat="45.12364" lon="4.41592">
        <ele>1126.7</ele>
        <time>2026-05-01T05:54:10Z</time>
      </trkpt>
      <trkpt lat="45.12369" lon="4.41585">
        <ele>1127</ele>
        <time>2026-05-01T05:54:15Z</time>
      </trkpt>
      <trkpt lat="45.12375" lon="4.4158">
        <ele>1127.4</ele>
        <time>2026-05-01T05:54:20Z</time>
      </trkpt>
      <trkpt lat="45.12377" lon="4.41577">
        <ele>1127.4</ele>
        <time>2026-05-01T05:54:25Z</time>
      </trkpt>
      <trkpt lat="45.12377" lon="4.41574">
        <ele>1127.3</ele>
        <time>2026-05-01T05:54:30Z</time>
      </trkpt>
      <trkpt lat="45.12377" lon="4.41574">
        <ele>1127.3</ele>
        <time>2026-05-01T05:54:35Z</time>
      </trkpt>
      <trkpt lat="45.12377" lon="4.41574">
        <ele>1127.3</ele>
        <time>2026-05-01T05:54:40Z</time>
      </trkpt>
      <trkpt lat="45.12377" lon="4.41574">
        <ele>1127.3</ele>
        <time>2026-05-01T05:54:45Z</time>
      </trkpt>
      <trkpt lat="45.12377" lon="4.41574">
        <ele>1127.3</ele>
        <time>2026-05-01T05:54:50Z</time>
      </trkpt>
      <trkpt lat="45.12377" lon="4.41574">
        <ele>1127.3</ele>
        <time>2026-05-01T05:54:55Z</time>
      </trkpt>
      <trkpt lat="45.12377" lon="4.41574">
        <ele>1127.3</ele>
        <time>2026-05-01T05:55:00Z</time>
      </trkpt>
      <trkpt lat="45.12377" lon="4.41574">
        <ele>1127.3</ele>
        <time>2026-05-01T05:55:05Z</time>
      </trkpt>
      <trkpt lat="45.12377" lon="4.41574">
        <ele>1127.3</ele>
        <time>2026-05-01T05:55:10Z</time>
      </trkpt>
      <trkpt lat="45.12377" lon="4.41574">
        <ele>1127.3</ele>
        <time>2026-05-01T05:55:15Z</time>
      </trkpt>
      <trkpt lat="45.12377" lon="4.41574">
        <ele>1127.3</ele>
        <time>2026-05-01T05:55:20Z</time>
      </trkpt>
      <trkpt lat="45.12377" lon="4.41574">
        <ele>1127.3</ele>
        <time>2026-05-01T05:55:25Z</time>
      </trkpt>
      <trkpt lat="45.12377" lon="4.41574">
        <ele>1127.3</ele>
        <time>2026-05-01T05:55:30Z</time>
      </trkpt>
      <trkpt lat="45.12377" lon="4.41574">
        <ele>1127.3</ele>
        <time>2026-05-01T05:55:35Z</time>
      </trkpt>
      <trkpt lat="45.1238" lon="4.41572">
        <ele>1127.5</ele>
        <time>2026-05-01T05:55:40Z</time>
      </trkpt>
      <trkpt lat="45.12384" lon="4.41568">
        <ele>1127.7</ele>
        <time>2026-05-01T05:55:45Z</time>
      </trkpt>
      <trkpt lat="45.12389" lon="4.41562">
        <ele>1127.9</ele>
        <time>2026-05-01T05:55:50Z</time>
      </trkpt>
      <trkpt lat="45.12394" lon="4.41557">
        <ele>1128.1</ele>
        <time>2026-05-01T05:55:55Z</time>
      </trkpt>
      <trkpt lat="45.12399" lon="4.41552">
        <ele>1128.4</ele>
        <time>2026-05-01T05:56:00Z</time>
      </trkpt>
      <trkpt lat="45.12404" lon="4.41548">
        <ele>1128.7</ele>
        <time>2026-05-01T05:56:05Z</time>
      </trkpt>
      <trkpt lat="45.12409" lon="4.41543">
        <ele>1128.9</ele>
        <time>2026-05-01T05:56:10Z</time>
      </trkpt>
      <trkpt lat="45.12414" lon="4.41539">
        <ele>1129.2</ele>
        <time>2026-05-01T05:56:15Z</time>
      </trkpt>
      <trkpt lat="45.12419" lon="4.41534">
        <ele>1129.5</ele>
        <time>2026-05-01T05:56:20Z</time>
      </trkpt>
      <trkpt lat="45.12423" lon="4.4153">
        <ele>1129.7</ele>
        <time>2026-05-01T05:56:25Z</time>
      </trkpt>
      <trkpt lat="45.12427" lon="4.41526">
        <ele>1130</ele>
        <time>2026-05-01T05:56:30Z</time>
      </trkpt>
      <trkpt lat="45.12429" lon="4.41524">
        <ele>1130.2</ele>
        <time>2026-05-01T05:56:35Z</time>
      </trkpt>
      <trkpt lat="45.12429" lon="4.41524">
        <ele>1130.2</ele>
        <time>2026-05-01T05:56:40Z</time>
      </trkpt>
      <trkpt lat="45.12429" lon="4.41524">
        <ele>1130.2</ele>
        <time>2026-05-01T05:56:45Z</time>
      </trkpt>
      <trkpt lat="45.12429" lon="4.41524">
        <ele>1130.2</ele>
        <time>2026-05-01T05:56:50Z</time>
      </trkpt>
      <trkpt lat="45.12429" lon="4.41524">
        <ele>1130.2</ele>
        <time>2026-05-01T05:56:55Z</time>
      </trkpt>
      <trkpt lat="45.12429" lon="4.41524">
        <ele>1130.2</ele>
        <time>2026-05-01T05:57:00Z</time>
      </trkpt>
      <trkpt lat="45.12429" lon="4.41524">
        <ele>1130.2</ele>
        <time>2026-05-01T05:57:05Z</time>
      </trkpt>
      <trkpt lat="45.12433" lon="4.41521">
        <ele>1130.5</ele>
        <time>2026-05-01T05:57:10Z</time>
      </trkpt>
      <trkpt lat="45.12434" lon="4.4152">
        <ele>1130.6</ele>
        <time>2026-05-01T05:57:15Z</time>
      </trkpt>
      <trkpt lat="45.12437" lon="4.41517">
        <ele>1130.9</ele>
        <time>2026-05-01T05:57:20Z</time>
      </trkpt>
      <trkpt lat="45.12439" lon="4.41514">
        <ele>1131</ele>
        <time>2026-05-01T05:57:25Z</time>
      </trkpt>
      <trkpt lat="45.12442" lon="4.41512">
        <ele>1131.3</ele>
        <time>2026-05-01T05:57:30Z</time>
      </trkpt>
      <trkpt lat="45.12445" lon="4.41508">
        <ele>1131.6</ele>
        <time>2026-05-01T05:57:35Z</time>
      </trkpt>
      <trkpt lat="45.12448" lon="4.41506">
        <ele>1131.9</ele>
        <time>2026-05-01T05:57:40Z</time>
      </trkpt>
      <trkpt lat="45.1245" lon="4.41503">
        <ele>1132.1</ele>
        <time>2026-05-01T05:57:45Z</time>
      </trkpt>
      <trkpt lat="45.1245" lon="4.41503">
        <ele>1132.1</ele>
        <time>2026-05-01T05:57:50Z</time>
      </trkpt>
      <trkpt lat="45.1245" lon="4.41503">
        <ele>1132.1</ele>
        <time>2026-05-01T05:57:55Z</time>
      </trkpt>
      <trkpt lat="45.1245" lon="4.41503">
        <ele>1132.1</ele>
        <time>2026-05-01T05:58:00Z</time>
      </trkpt>
      <trkpt lat="45.1245" lon="4.41503">
        <ele>1132.1</ele>
        <time>2026-05-01T05:58:05Z</time>
      </trkpt>
      <trkpt lat="45.1245" lon="4.41503">
        <ele>1132.1</ele>
        <time>2026-05-01T05:58:10Z</time>
      </trkpt>
      <trkpt lat="45.1245" lon="4.41503">
        <ele>1132.1</ele>
        <time>2026-05-01T05:58:15Z</time>
      </trkpt>
      <trkpt lat="45.12451" lon="4.41502">
        <ele>1132.2</ele>
        <time>2026-05-01T05:58:20Z</time>
      </trkpt>
      <trkpt lat="45.12453" lon="4.41499">
        <ele>1132.3</ele>
        <time>2026-05-01T05:58:25Z</time>
      </trkpt>
      <trkpt lat="45.12456" lon="4.41497">
        <ele>1132.6</ele>
        <time>2026-05-01T05:58:30Z</time>
      </trkpt>
      <trkpt lat="45.12458" lon="4.41494">
        <ele>1132.8</ele>
        <time>2026-05-01T05:58:35Z</time>
      </trkpt>
      <trkpt lat="45.1246" lon="4.41492">
        <ele>1133</ele>
        <time>2026-05-01T05:58:40Z</time>
      </trkpt>
      <trkpt lat="45.12462" lon="4.4149">
        <ele>1133.1</ele>
        <time>2026-05-01T05:58:45Z</time>
      </trkpt>
      <trkpt lat="45.12464" lon="4.41488">
        <ele>1133.3</ele>
        <time>2026-05-01T05:58:50Z</time>
      </trkpt>
      <trkpt lat="45.12464" lon="4.41488">
        <ele>1133.3</ele>
        <time>2026-05-01T05:58:55Z</time>
      </trkpt>
      <trkpt lat="45.12464" lon="4.41488">
        <ele>1133.3</ele>
        <time>2026-05-01T05:59:00Z</time>
      </trkpt>
      <trkpt lat="45.12464" lon="4.41488">
        <ele>1133.3</ele>
        <time>2026-05-01T05:59:05Z</time>
      </trkpt>
      <trkpt lat="45.12464" lon="4.41487">
        <ele>1133.3</ele>
        <time>2026-05-01T05:59:10Z</time>
      </trkpt>
      <trkpt lat="45.12464" lon="4.41486">
        <ele>1133.2</ele>
        <time>2026-05-01T05:59:15Z</time>
      </trkpt>
      <trkpt lat="45.12464" lon="4.41486">
        <ele>1133.2</ele>
        <time>2026-05-01T05:59:20Z</time>
      </trkpt>
      <trkpt lat="45.12464" lon="4.41486">
        <ele>1133.2</ele>
        <time>2026-05-01T05:59:25Z</time>
      </trkpt>
      <trkpt lat="45.12464" lon="4.41486">
        <ele>1133.2</ele>
        <time>2026-05-01T05:59:30Z</time>
      </trkpt>
      <trkpt lat="45.12464" lon="4.41486">
        <ele>1133.2</ele>
        <time>2026-05-01T05:59:35Z</time>
      </trkpt>
      <trkpt lat="45.12464" lon="4.41486">
        <ele>1133.2</ele>
        <time>2026-05-01T05:59:40Z</time>
      </trkpt>
      <trkpt lat="45.12464" lon="4.41486">
        <ele>1133.2</ele>
        <time>2026-05-01T05:59:45Z</time>
      </trkpt>
      <trkpt lat="45.12464" lon="4.41486">
        <ele>1133.2</ele>
        <time>2026-05-01T05:59:50Z</time>
      </trkpt>
      <trkpt lat="45.12464" lon="4.41486">
        <ele>1133.2</ele>
        <time>2026-05-01T05:59:55Z</time>
      </trkpt>
      <trkpt lat="45.12464" lon="4.41486">
        <ele>1133.2</ele>
        <time>2026-05-01T06:00:00Z</time>
      </trkpt>
      <trkpt lat="45.12464" lon="4.41486">
        <ele>1133.2</ele>
        <time>2026-05-01T06:00:05Z</time>
      </trkpt>
      <trkpt lat="45.12464" lon="4.41486">
        <ele>1133.2</ele>
        <time>2026-05-01T06:00:10Z</time>
      </trkpt>
      <trkpt lat="45.12464" lon="4.41486">
        <ele>1133.2</ele>
        <time>2026-05-01T06:00:15Z</time>
      </trkpt>
      <trkpt lat="45.12464" lon="4.41486">
        <ele>1133.2</ele>
        <time>2026-05-01T06:00:20Z</time>
      </trkpt>
      <trkpt lat="45.12468" lon="4.41482">
        <ele>1133.5</ele>
        <time>2026-05-01T06:00:25Z</time>
      </trkpt>
      <trkpt lat="45.12475" lon="4.41476">
        <ele>1134.1</ele>
        <time>2026-05-01T06:00:30Z</time>
      </trkpt>
      <trkpt lat="45.1248" lon="4.41469">
        <ele>1134.4</ele>
        <time>2026-05-01T06:00:35Z</time>
      </trkpt>
      <trkpt lat="45.12486" lon="4.41463">
        <ele>1134.8</ele>
        <time>2026-05-01T06:00:40Z</time>
      </trkpt>
      <trkpt lat="45.12486" lon="4.41463">
        <ele>1134.8</ele>
        <time>2026-05-01T06:00:40Z</time>
      </trkpt>
      <trkpt lat="45.12491" lon="4.41458">
        <ele>1135.1</ele>
        <time>2026-05-01T06:00:47Z</time>
      </trkpt>
      <trkpt lat="45.12491" lon="4.41457">
        <ele>1135</ele>
        <time>2026-05-01T06:00:52Z</time>
      </trkpt>
      <trkpt lat="45.12493" lon="4.41454">
        <ele>1135.1</ele>
        <time>2026-05-01T06:00:57Z</time>
      </trkpt>
      <trkpt lat="45.12493" lon="4.41452">
        <ele>1135</ele>
        <time>2026-05-01T06:01:02Z</time>
      </trkpt>
      <trkpt lat="45.12496" lon="4.41443">
        <ele>1134.9</ele>
        <time>2026-05-01T06:01:07Z</time>
      </trkpt>
      <trkpt lat="45.125" lon="4.41435">
        <ele>1134.9</ele>
        <time>2026-05-01T06:01:12Z</time>
      </trkpt>
      <trkpt lat="45.12505" lon="4.41427">
        <ele>1135.1</ele>
        <time>2026-05-01T06:01:17Z</time>
      </trkpt>
      <trkpt lat="45.12509" lon="4.41419">
        <ele>1135.2</ele>
        <time>2026-05-01T06:01:22Z</time>
      </trkpt>
      <trkpt lat="45.12514" lon="4.41411">
        <ele>1135.5</ele>
        <time>2026-05-01T06:01:27Z</time>
      </trkpt>
      <trkpt lat="45.12517" lon="4.41402">
        <ele>1135.5</ele>
        <time>2026-05-01T06:01:32Z</time>
      </trkpt>
      <trkpt lat="45.12522" lon="4.41391">
        <ele>1135.6</ele>
        <time>2026-05-01T06:01:37Z</time>
      </trkpt>
      <trkpt lat="45.12525" lon="4.41382">
        <ele>1135.6</ele>
        <time>2026-05-01T06:01:42Z</time>
      </trkpt>
      <trkpt lat="45.12528" lon="4.41374">
        <ele>1135.7</ele>
        <time>2026-05-01T06:01:47Z</time>
      </trkpt>
      <trkpt lat="45.12533" lon="4.41367">
        <ele>1135.9</ele>
        <time>2026-05-01T06:01:52Z</time>
      </trkpt>
      <trkpt lat="45.12542" lon="4.41362">
        <ele>1136.7</ele>
        <time>2026-05-01T06:01:57Z</time>
      </trkpt>
      <trkpt lat="45.12546" lon="4.4136">
        <ele>1137.1</ele>
        <time>2026-05-01T06:02:02Z</time>
      </trkpt>
      <trkpt lat="45.1255" lon="4.41362">
        <ele>1137.6</ele>
        <time>2026-05-01T06:02:07Z</time>
      </trkpt>
      <trkpt lat="45.12556" lon="4.41362">
        <ele>1138.3</ele>
        <time>2026-05-01T06:02:12Z</time>
      </trkpt>
      <trkpt lat="45.12563" lon="4.41363">
        <ele>1139.1</ele>
        <time>2026-05-01T06:02:17Z</time>
      </trkpt>
      <trkpt lat="45.1257" lon="4.4136">
        <ele>1139.8</ele>
        <time>2026-05-01T06:02:22Z</time>
      </trkpt>
      <trkpt lat="45.12577" lon="4.41356">
        <ele>1140.4</ele>
        <time>2026-05-01T06:02:27Z</time>
      </trkpt>
      <trkpt lat="45.12583" lon="4.41352">
        <ele>1140.9</ele>
        <time>2026-05-01T06:02:32Z</time>
      </trkpt>
      <trkpt lat="45.1259" lon="4.41349">
        <ele>1141.6</ele>
        <time>2026-05-01T06:02:37Z</time>
      </trkpt>
      <trkpt lat="45.12596" lon="4.41347">
        <ele>1142.3</ele>
        <time>2026-05-01T06:02:42Z</time>
      </trkpt>
      <trkpt lat="45.12602" lon="4.41344">
        <ele>1142.8</ele>
        <time>2026-05-01T06:02:47Z</time>
      </trkpt>
      <trkpt lat="45.1261" lon="4.41341">
        <ele>1143.7</ele>
        <time>2026-05-01T06:02:52Z</time>
      </trkpt>
      <trkpt lat="45.12618" lon="4.41339">
        <ele>1144.5</ele>
        <time>2026-05-01T06:02:57Z</time>
      </trkpt>
      <trkpt lat="45.12625" lon="4.41336">
        <ele>1145.2</ele>
        <time>2026-05-01T06:03:02Z</time>
      </trkpt>
      <trkpt lat="45.12632" lon="4.41333">
        <ele>1145.8</ele>
        <time>2026-05-01T06:03:07Z</time>
      </trkpt>
      <trkpt lat="45.12638" lon="4.41329">
        <ele>1146.1</ele>
        <time>2026-05-01T06:03:12Z</time>
      </trkpt>
      <trkpt lat="45.12646" lon="4.41327">
        <ele>1146.8</ele>
        <time>2026-05-01T06:03:17Z</time>
      </trkpt>
      <trkpt lat="45.12653" lon="4.41325">
        <ele>1147.4</ele>
        <time>2026-05-01T06:03:22Z</time>
      </trkpt>
      <trkpt lat="45.12661" lon="4.41323">
        <ele>1148.1</ele>
        <time>2026-05-01T06:03:27Z</time>
      </trkpt>
      <trkpt lat="45.12668" lon="4.41322">
        <ele>1148.8</ele>
        <time>2026-05-01T06:03:32Z</time>
      </trkpt>
      <trkpt lat="45.12675" lon="4.41319">
        <ele>1149.1</ele>
        <time>2026-05-01T06:03:37Z</time>
      </trkpt>
      <trkpt lat="45.12681" lon="4.41315">
        <ele>1149.2</ele>
        <time>2026-05-01T06:03:42Z</time>
      </trkpt>
      <trkpt lat="45.12687" lon="4.41312">
        <ele>1149.5</ele>
        <time>2026-05-01T06:03:47Z</time>
      </trkpt>
      <trkpt lat="45.12695" lon="4.41309">
        <ele>1149.9</ele>
        <time>2026-05-01T06:03:52Z</time>
      </trkpt>
      <trkpt lat="45.12702" lon="4.41307">
        <ele>1150.4</ele>
        <time>2026-05-01T06:03:57Z</time>
      </trkpt>
      <trkpt lat="45.12708" lon="4.41307">
        <ele>1151</ele>
        <time>2026-05-01T06:04:02Z</time>
      </trkpt>
      <trkpt lat="45.12713" lon="4.41304">
        <ele>1151.1</ele>
        <time>2026-05-01T06:04:07Z</time>
      </trkpt>
      <trkpt lat="45.1272" lon="4.413">
        <ele>1151.4</ele>
        <time>2026-05-01T06:04:12Z</time>
      </trkpt>
      <trkpt lat="45.12728" lon="4.41296">
        <ele>1151.7</ele>
        <time>2026-05-01T06:04:17Z</time>
      </trkpt>
      <trkpt lat="45.12735" lon="4.41292">
        <ele>1152</ele>
        <time>2026-05-01T06:04:22Z</time>
      </trkpt>
      <trkpt lat="45.12741" lon="4.41289">
        <ele>1152.3</ele>
        <time>2026-05-01T06:04:27Z</time>
      </trkpt>
      <trkpt lat="45.1275" lon="4.41283">
        <ele>1152.6</ele>
        <time>2026-05-01T06:04:32Z</time>
      </trkpt>
      <trkpt lat="45.12757" lon="4.41278">
        <ele>1152.7</ele>
        <time>2026-05-01T06:04:37Z</time>
      </trkpt>
      <trkpt lat="45.12763" lon="4.41274">
        <ele>1152.9</ele>
        <time>2026-05-01T06:04:42Z</time>
      </trkpt>
      <trkpt lat="45.12769" lon="4.41268">
        <ele>1152.9</ele>
        <time>2026-05-01T06:04:47Z</time>
      </trkpt>
      <trkpt lat="45.12775" lon="4.41265">
        <ele>1153.2</ele>
        <time>2026-05-01T06:04:52Z</time>
      </trkpt>
      <trkpt lat="45.12784" lon="4.41263">
        <ele>1153.9</ele>
        <time>2026-05-01T06:04:57Z</time>
      </trkpt>
      <trkpt lat="45.12791" lon="4.41258">
        <ele>1154.2</ele>
        <time>2026-05-01T06:05:02Z</time>
      </trkpt>
      <trkpt lat="45.12797" lon="4.41252">
        <ele>1154.3</ele>
        <time>2026-05-01T06:05:07Z</time>
      </trkpt>
      <trkpt lat="45.12803" lon="4.41245">
        <ele>1153.9</ele>
        <time>2026-05-01T06:05:12Z</time>
      </trkpt>
      <trkpt lat="45.12811" lon="4.41242">
        <ele>1154.3</ele>
        <time>2026-05-01T06:05:17Z</time>
      </trkpt>
      <trkpt lat="45.12819" lon="4.41237">
        <ele>1154.4</ele>
        <time>2026-05-01T06:05:22Z</time>
      </trkpt>
      <trkpt lat="45.12823" lon="4.41232">
        <ele>1154</ele>
        <time>2026-05-01T06:05:27Z</time>
      </trkpt>
      <trkpt lat="45.1283" lon="4.41229">
        <ele>1154.4</ele>
        <time>2026-05-01T06:05:32Z</time>
      </trkpt>
      <trkpt lat="45.12837" lon="4.41223">
        <ele>1154.2</ele>
        <time>2026-05-01T06:05:37Z</time>
      </trkpt>
      <trkpt lat="45.12844" lon="4.41219">
        <ele>1154.4</ele>
        <time>2026-05-01T06:05:42Z</time>
      </trkpt>
      <trkpt lat="45.12852" lon="4.41214">
        <ele>1154.6</ele>
        <time>2026-05-01T06:05:47Z</time>
      </trkpt>
      <trkpt lat="45.12858" lon="4.41209">
        <ele>1154.6</ele>
        <time>2026-05-01T06:05:52Z</time>
      </trkpt>
      <trkpt lat="45.12865" lon="4.41205">
        <ele>1154.8</ele>
        <time>2026-05-01T06:05:57Z</time>
      </trkpt>
      <trkpt lat="45.12871" lon="4.41202">
        <ele>1155.2</ele>
        <time>2026-05-01T06:06:02Z</time>
      </trkpt>
      <trkpt lat="45.12879" lon="4.41199">
        <ele>1155.8</ele>
        <time>2026-05-01T06:06:07Z</time>
      </trkpt>
      <trkpt lat="45.12886" lon="4.41195">
        <ele>1156.1</ele>
        <time>2026-05-01T06:06:12Z</time>
      </trkpt>
      <trkpt lat="45.12891" lon="4.4119">
        <ele>1156.2</ele>
        <time>2026-05-01T06:06:17Z</time>
      </trkpt>
      <trkpt lat="45.12896" lon="4.41188">
        <ele>1156.6</ele>
        <time>2026-05-01T06:06:22Z</time>
      </trkpt>
      <trkpt lat="45.12903" lon="4.41185">
        <ele>1157.2</ele>
        <time>2026-05-01T06:06:27Z</time>
      </trkpt>
      <trkpt lat="45.12907" lon="4.41182">
        <ele>1157.3</ele>
        <time>2026-05-01T06:06:32Z</time>
      </trkpt>
      <trkpt lat="45.12913" lon="4.41179">
        <ele>1157.8</ele>
        <time>2026-05-01T06:06:37Z</time>
      </trkpt>
      <trkpt lat="45.12919" lon="4.41176">
        <ele>1158.3</ele>
        <time>2026-05-01T06:06:42Z</time>
      </trkpt>
      <trkpt lat="45.12928" lon="4.41171">
        <ele>1159.1</ele>
        <time>2026-05-01T06:06:47Z</time>
      </trkpt>
      <trkpt lat="45.12933" lon="4.41172">
        <ele>1159.8</ele>
        <time>2026-05-01T06:06:52Z</time>
      </trkpt>
      <trkpt lat="45.12937" lon="4.41179">
        <ele>1161</ele>
        <time>2026-05-01T06:06:57Z</time>
      </trkpt>
      <trkpt lat="45.12943" lon="4.41188">
        <ele>1162.5</ele>
        <time>2026-05-01T06:07:02Z</time>
      </trkpt>
      <trkpt lat="45.12949" lon="4.41196">
        <ele>1163.9</ele>
        <time>2026-05-01T06:07:07Z</time>
      </trkpt>
      <trkpt lat="45.12954" lon="4.41199">
        <ele>1164.7</ele>
        <time>2026-05-01T06:07:12Z</time>
      </trkpt>
      <trkpt lat="45.12961" lon="4.41199">
        <ele>1165.4</ele>
        <time>2026-05-01T06:07:17Z</time>
      </trkpt>
      <trkpt lat="45.12966" lon="4.41202">
        <ele>1166.2</ele>
        <time>2026-05-01T06:07:22Z</time>
      </trkpt>
      <trkpt lat="45.12972" lon="4.41204">
        <ele>1166.9</ele>
        <time>2026-05-01T06:07:27Z</time>
      </trkpt>
      <trkpt lat="45.1298" lon="4.41206">
        <ele>1167.9</ele>
        <time>2026-05-01T06:07:32Z</time>
      </trkpt>
      <trkpt lat="45.12987" lon="4.41208">
        <ele>1168.7</ele>
        <time>2026-05-01T06:07:37Z</time>
      </trkpt>
      <trkpt lat="45.12993" lon="4.41208">
        <ele>1169.3</ele>
        <time>2026-05-01T06:07:42Z</time>
      </trkpt>
      <trkpt lat="45.13002" lon="4.41208">
        <ele>1170.1</ele>
        <time>2026-05-01T06:07:47Z</time>
      </trkpt>
      <trkpt lat="45.13007" lon="4.41208">
        <ele>1170.4</ele>
        <time>2026-05-01T06:07:52Z</time>
      </trkpt>
      <trkpt lat="45.13013" lon="4.41207">
        <ele>1170.7</ele>
        <time>2026-05-01T06:07:57Z</time>
      </trkpt>
      <trkpt lat="45.13018" lon="4.41204">
        <ele>1170.9</ele>
        <time>2026-05-01T06:08:02Z</time>
      </trkpt>
      <trkpt lat="45.13024" lon="4.41204">
        <ele>1171.3</ele>
        <time>2026-05-01T06:08:07Z</time>
      </trkpt>
      <trkpt lat="45.13033" lon="4.41207">
        <ele>1171.8</ele>
        <time>2026-05-01T06:08:12Z</time>
      </trkpt>
      <trkpt lat="45.13043" lon="4.41207">
        <ele>1172.3</ele>
        <time>2026-05-01T06:08:17Z</time>
      </trkpt>
      <trkpt lat="45.13052" lon="4.41206">
        <ele>1172.9</ele>
        <time>2026-05-01T06:08:22Z</time>
      </trkpt>
      <trkpt lat="45.1306" lon="4.41203">
        <ele>1173.4</ele>
        <time>2026-05-01T06:08:27Z</time>
      </trkpt>
      <trkpt lat="45.13066" lon="4.41201">
        <ele>1173.9</ele>
        <time>2026-05-01T06:08:32Z</time>
      </trkpt>
      <trkpt lat="45.13074" lon="4.41201">
        <ele>1174.4</ele>
        <time>2026-05-01T06:08:37Z</time>
      </trkpt>
      <trkpt lat="45.13081" lon="4.41203">
        <ele>1174.7</ele>
        <time>2026-05-01T06:08:42Z</time>
      </trkpt>
      <trkpt lat="45.13087" lon="4.41205">
        <ele>1174.7</ele>
        <time>2026-05-01T06:08:47Z</time>
      </trkpt>
      <trkpt lat="45.13095" lon="4.41205">
        <ele>1174.7</ele>
        <time>2026-05-01T06:08:52Z</time>
      </trkpt>
      <trkpt lat="45.13103" lon="4.41205">
        <ele>1174.7</ele>
        <time>2026-05-01T06:08:57Z</time>
      </trkpt>
      <trkpt lat="45.13111" lon="4.41206">
        <ele>1174.7</ele>
        <time>2026-05-01T06:09:02Z</time>
      </trkpt>
      <trkpt lat="45.13119" lon="4.41206">
        <ele>1174.7</ele>
        <time>2026-05-01T06:09:07Z</time>
      </trkpt>
      <trkpt lat="45.13126" lon="4.41205">
        <ele>1174.8</ele>
        <time>2026-05-01T06:09:12Z</time>
      </trkpt>
      <trkpt lat="45.13132" lon="4.41204">
        <ele>1174.9</ele>
        <time>2026-05-01T06:09:17Z</time>
      </trkpt>
      <trkpt lat="45.1314" lon="4.41204">
        <ele>1174.9</ele>
        <time>2026-05-01T06:09:22Z</time>
      </trkpt>
      <trkpt lat="45.13149" lon="4.41205">
        <ele>1174.8</ele>
        <time>2026-05-01T06:09:27Z</time>
      </trkpt>
      <trkpt lat="45.13159" lon="4.41205">
        <ele>1174.8</ele>
        <time>2026-05-01T06:09:32Z</time>
      </trkpt>
      <trkpt lat="45.13168" lon="4.41206">
        <ele>1174.7</ele>
        <time>2026-05-01T06:09:37Z</time>
      </trkpt>
      <trkpt lat="45.13175" lon="4.41208">
        <ele>1174.3</ele>
        <time>2026-05-01T06:09:42Z</time>
      </trkpt>
      <trkpt lat="45.13182" lon="4.41209">
        <ele>1174.1</ele>
        <time>2026-05-01T06:09:47Z</time>
      </trkpt>
      <trkpt lat="45.13191" lon="4.41212">
        <ele>1173.5</ele>
        <time>2026-05-01T06:09:52Z</time>
      </trkpt>
      <trkpt lat="45.13198" lon="4.41213">
        <ele>1173.3</ele>
        <time>2026-05-01T06:09:57Z</time>
      </trkpt>
      <trkpt lat="45.13204" lon="4.41214">
        <ele>1173.1</ele>
        <time>2026-05-01T06:10:02Z</time>
      </trkpt>
      <trkpt lat="45.13213" lon="4.41216">
        <ele>1172.7</ele>
        <time>2026-05-01T06:10:07Z</time>
      </trkpt>
      <trkpt lat="45.13221" lon="4.41218">
        <ele>1172.3</ele>
        <time>2026-05-01T06:10:12Z</time>
      </trkpt>
      <trkpt lat="45.13227" lon="4.41223">
        <ele>1171.7</ele>
        <time>2026-05-01T06:10:17Z</time>
      </trkpt>
      <trkpt lat="45.13235" lon="4.41224">
        <ele>1171.5</ele>
        <time>2026-05-01T06:10:22Z</time>
      </trkpt>
      <trkpt lat="45.13241" lon="4.41223">
        <ele>1171.4</ele>
        <time>2026-05-01T06:10:27Z</time>
      </trkpt>
      <trkpt lat="45.13249" lon="4.41224">
        <ele>1171.2</ele>
        <time>2026-05-01T06:10:32Z</time>
      </trkpt>
      <trkpt lat="45.13258" lon="4.41228">
        <ele>1170.8</ele>
        <time>2026-05-01T06:10:37Z</time>
      </trkpt>
      <trkpt lat="45.13264" lon="4.41233">
        <ele>1170.4</ele>
        <time>2026-05-01T06:10:42Z</time>
      </trkpt>
      <trkpt lat="45.13271" lon="4.41236">
        <ele>1170.1</ele>
        <time>2026-05-01T06:10:47Z</time>
      </trkpt>
      <trkpt lat="45.1328" lon="4.41242">
        <ele>1169.6</ele>
        <time>2026-05-01T06:10:52Z</time>
      </trkpt>
      <trkpt lat="45.13288" lon="4.41249">
        <ele>1169.1</ele>
        <time>2026-05-01T06:10:57Z</time>
      </trkpt>
      <trkpt lat="45.13295" lon="4.41254">
        <ele>1168.4</ele>
        <time>2026-05-01T06:11:02Z</time>
      </trkpt>
      <trkpt lat="45.13302" lon="4.41259">
        <ele>1167.6</ele>
        <time>2026-05-01T06:11:07Z</time>
      </trkpt>
      <trkpt lat="45.13311" lon="4.41262">
        <ele>1167.1</ele>
        <time>2026-05-01T06:11:12Z</time>
      </trkpt>
      <trkpt lat="45.13317" lon="4.41263">
        <ele>1167</ele>
        <time>2026-05-01T06:11:17Z</time>
      </trkpt>
      <trkpt lat="45.13324" lon="4.41265">
        <ele>1166.7</ele>
        <time>2026-05-01T06:11:22Z</time>
      </trkpt>
      <trkpt lat="45.13332" lon="4.41269">
        <ele>1166</ele>
        <time>2026-05-01T06:11:27Z</time>
      </trkpt>
      <trkpt lat="45.13341" lon="4.41274">
        <ele>1165.2</ele>
        <time>2026-05-01T06:11:32Z</time>
      </trkpt>
      <trkpt lat="45.13349" lon="4.4128">
        <ele>1164.1</ele>
        <time>2026-05-01T06:11:37Z</time>
      </trkpt>
      <trkpt lat="45.13357" lon="4.41283">
        <ele>1163.6</ele>
        <time>2026-05-01T06:11:42Z</time>
      </trkpt>
      <trkpt lat="45.13366" lon="4.41287">
        <ele>1162.8</ele>
        <time>2026-05-01T06:11:47Z</time>
      </trkpt>
      <trkpt lat="45.13372" lon="4.41296">
        <ele>1161.4</ele>
        <time>2026-05-01T06:11:52Z</time>
      </trkpt>
      <trkpt lat="45.13374" lon="4.41304">
        <ele>1160.1</ele>
        <time>2026-05-01T06:11:57Z</time>
      </trkpt>
      <trkpt lat="45.13376" lon="4.41311">
        <ele>1159</ele>
        <time>2026-05-01T06:12:02Z</time>
      </trkpt>
      <trkpt lat="45.13378" lon="4.41321">
        <ele>1157.4</ele>
        <time>2026-05-01T06:12:07Z</time>
      </trkpt>
      <trkpt lat="45.13379" lon="4.41331">
        <ele>1155.8</ele>
        <time>2026-05-01T06:12:12Z</time>
      </trkpt>
      <trkpt lat="45.13379" lon="4.41341">
        <ele>1155.1</ele>
        <time>2026-05-01T06:12:17Z</time>
      </trkpt>
      <trkpt lat="45.1338" lon="4.4135">
        <ele>1154.8</ele>
        <time>2026-05-01T06:12:22Z</time>
      </trkpt>
      <trkpt lat="45.13381" lon="4.41358">
        <ele>1154.5</ele>
        <time>2026-05-01T06:12:27Z</time>
      </trkpt>
      <trkpt lat="45.13381" lon="4.41366">
        <ele>1154.3</ele>
        <time>2026-05-01T06:12:32Z</time>
      </trkpt>
      <trkpt lat="45.13382" lon="4.41375">
        <ele>1154</ele>
        <time>2026-05-01T06:12:37Z</time>
      </trkpt>
      <trkpt lat="45.13382" lon="4.41385">
        <ele>1153.7</ele>
        <time>2026-05-01T06:12:42Z</time>
      </trkpt>
      <trkpt lat="45.1338" lon="4.41395">
        <ele>1153.1</ele>
        <time>2026-05-01T06:12:47Z</time>
      </trkpt>
      <trkpt lat="45.1338" lon="4.41404">
        <ele>1152.8</ele>
        <time>2026-05-01T06:12:52Z</time>
      </trkpt>
      <trkpt lat="45.1338" lon="4.41412">
        <ele>1152.5</ele>
        <time>2026-05-01T06:12:57Z</time>
      </trkpt>
      <trkpt lat="45.1338" lon="4.41418">
        <ele>1152.4</ele>
        <time>2026-05-01T06:13:02Z</time>
      </trkpt>
      <trkpt lat="45.13379" lon="4.41427">
        <ele>1153.4</ele>
        <time>2026-05-01T06:13:07Z</time>
      </trkpt>
      <trkpt lat="45.13376" lon="4.41437">
        <ele>1154.1</ele>
        <time>2026-05-01T06:13:12Z</time>
      </trkpt>
      <trkpt lat="45.13374" lon="4.41449">
        <ele>1155.2</ele>
        <time>2026-05-01T06:13:17Z</time>
      </trkpt>
      <trkpt lat="45.13373" lon="4.4146">
        <ele>1156.3</ele>
        <time>2026-05-01T06:13:22Z</time>
      </trkpt>
      <trkpt lat="45.13371" lon="4.4147">
        <ele>1157.1</ele>
        <time>2026-05-01T06:13:27Z</time>
      </trkpt>
      <trkpt lat="45.13368" lon="4.41478">
        <ele>1157.4</ele>
        <time>2026-05-01T06:13:32Z</time>
      </trkpt>
      <trkpt lat="45.13367" lon="4.41482">
        <ele>1157.6</ele>
        <time>2026-05-01T06:13:37Z</time>
      </trkpt>
      <trkpt lat="45.13367" lon="4.41488">
        <ele>1158.3</ele>
        <time>2026-05-01T06:13:42Z</time>
      </trkpt>
      <trkpt lat="45.13365" lon="4.41496">
        <ele>1158.8</ele>
        <time>2026-05-01T06:13:47Z</time>
      </trkpt>
      <trkpt lat="45.13362" lon="4.41505">
        <ele>1159</ele>
        <time>2026-05-01T06:13:52Z</time>
      </trkpt>
      <trkpt lat="45.13359" lon="4.41519">
        <ele>1159.5</ele>
        <time>2026-05-01T06:13:57Z</time>
      </trkpt>
      <trkpt lat="45.13355" lon="4.41531">
        <ele>1159.7</ele>
        <time>2026-05-01T06:14:02Z</time>
      </trkpt>
      <trkpt lat="45.13353" lon="4.41539">
        <ele>1160</ele>
        <time>2026-05-01T06:14:07Z</time>
      </trkpt>
      <trkpt lat="45.13354" lon="4.41547">
        <ele>1160.9</ele>
        <time>2026-05-01T06:14:12Z</time>
      </trkpt>
      <trkpt lat="45.13354" lon="4.41557">
        <ele>1161.8</ele>
        <time>2026-05-01T06:14:17Z</time>
      </trkpt>
      <trkpt lat="45.13353" lon="4.41564">
        <ele>1162.3</ele>
        <time>2026-05-01T06:14:22Z</time>
      </trkpt>
      <trkpt lat="45.1335" lon="4.41573">
        <ele>1162.5</ele>
        <time>2026-05-01T06:14:27Z</time>
      </trkpt>
      <trkpt lat="45.13347" lon="4.41581">
        <ele>1162.6</ele>
        <time>2026-05-01T06:14:32Z</time>
      </trkpt>
      <trkpt lat="45.13345" lon="4.4159">
        <ele>1162.7</ele>
        <time>2026-05-01T06:14:37Z</time>
      </trkpt>
      <trkpt lat="45.13344" lon="4.41596">
        <ele>1162.7</ele>
        <time>2026-05-01T06:14:42Z</time>
      </trkpt>
      <trkpt lat="45.13343" lon="4.41603">
        <ele>1162.9</ele>
        <time>2026-05-01T06:14:47Z</time>
      </trkpt>
      <trkpt lat="45.1334" lon="4.41616">
        <ele>1162.9</ele>
        <time>2026-05-01T06:14:52Z</time>
      </trkpt>
      <trkpt lat="45.13338" lon="4.41625">
        <ele>1162.9</ele>
        <time>2026-05-01T06:14:57Z</time>
      </trkpt>
      <trkpt lat="45.13335" lon="4.41637">
        <ele>1162.9</ele>
        <time>2026-05-01T06:15:02Z</time>
      </trkpt>
      <trkpt lat="45.13333" lon="4.41645">
        <ele>1162.9</ele>
        <time>2026-05-01T06:15:07Z</time>
      </trkpt>
      <trkpt lat="45.1333" lon="4.41653">
        <ele>1162.5</ele>
        <time>2026-05-01T06:15:12Z</time>
      </trkpt>
      <trkpt lat="45.13329" lon="4.41662">
        <ele>1162.7</ele>
        <time>2026-05-01T06:15:17Z</time>
      </trkpt>
      <trkpt lat="45.13326" lon="4.41674">
        <ele>1162.2</ele>
        <time>2026-05-01T06:15:22Z</time>
      </trkpt>
      <trkpt lat="45.13322" lon="4.41685">
        <ele>1161.3</ele>
        <time>2026-05-01T06:15:27Z</time>
      </trkpt>
      <trkpt lat="45.13319" lon="4.41695">
        <ele>1160.7</ele>
        <time>2026-05-01T06:15:32Z</time>
      </trkpt>
      <trkpt lat="45.13318" lon="4.41706">
        <ele>1160.7</ele>
        <time>2026-05-01T06:15:37Z</time>
      </trkpt>
      <trkpt lat="45.13317" lon="4.41715">
        <ele>1160.6</ele>
        <time>2026-05-01T06:15:42Z</time>
      </trkpt>
      <trkpt lat="45.13315" lon="4.41723">
        <ele>1160.3</ele>
        <time>2026-05-01T06:15:47Z</time>
      </trkpt>
      <trkpt lat="45.13313" lon="4.41733">
        <ele>1160</ele>
        <time>2026-05-01T06:15:52Z</time>
      </trkpt>
      <trkpt lat="45.13311" lon="4.41745">
        <ele>1159.9</ele>
        <time>2026-05-01T06:15:57Z</time>
      </trkpt>
      <trkpt lat="45.13309" lon="4.41755">
        <ele>1159.6</ele>
        <time>2026-05-01T06:16:02Z</time>
      </trkpt>
      <trkpt lat="45.13305" lon="4.41764">
        <ele>1158.9</ele>
        <time>2026-05-01T06:16:07Z</time>
      </trkpt>
      <trkpt lat="45.13303" lon="4.41776">
        <ele>1158.6</ele>
        <time>2026-05-01T06:16:12Z</time>
      </trkpt>
      <trkpt lat="45.13303" lon="4.41787">
        <ele>1158.6</ele>
        <time>2026-05-01T06:16:17Z</time>
      </trkpt>
      <trkpt lat="45.13302" lon="4.41799">
        <ele>1158.5</ele>
        <time>2026-05-01T06:16:22Z</time>
      </trkpt>
      <trkpt lat="45.133" lon="4.41809">
        <ele>1158.3</ele>
        <time>2026-05-01T06:16:27Z</time>
      </trkpt>
      <trkpt lat="45.13299" lon="4.41818">
        <ele>1158.2</ele>
        <time>2026-05-01T06:16:32Z</time>
      </trkpt>
      <trkpt lat="45.13298" lon="4.4183">
        <ele>1158.2</ele>
        <time>2026-05-01T06:16:37Z</time>
      </trkpt>
      <trkpt lat="45.13297" lon="4.41842">
        <ele>1158.2</ele>
        <time>2026-05-01T06:16:42Z</time>
      </trkpt>
      <trkpt lat="45.13296" lon="4.41852">
        <ele>1158.1</ele>
        <time>2026-05-01T06:16:47Z</time>
      </trkpt>
      <trkpt lat="45.13294" lon="4.41863">
        <ele>1158.1</ele>
        <time>2026-05-01T06:16:52Z</time>
      </trkpt>
      <trkpt lat="45.13292" lon="4.41875">
        <ele>1158</ele>
        <time>2026-05-01T06:16:57Z</time>
      </trkpt>
      <trkpt lat="45.1329" lon="4.41885">
        <ele>1158</ele>
        <time>2026-05-01T06:17:02Z</time>
      </trkpt>
      <trkpt lat="45.13289" lon="4.41897">
        <ele>1158.1</ele>
        <time>2026-05-01T06:17:07Z</time>
      </trkpt>
      <trkpt lat="45.13287" lon="4.41908">
        <ele>1158.1</ele>
        <time>2026-05-01T06:17:12Z</time>
      </trkpt>
      <trkpt lat="45.13286" lon="4.41918">
        <ele>1158.1</ele>
        <time>2026-05-01T06:17:17Z</time>
      </trkpt>
      <trkpt lat="45.13285" lon="4.41932">
        <ele>1157.9</ele>
        <time>2026-05-01T06:17:22Z</time>
      </trkpt>
      <trkpt lat="45.13285" lon="4.41943">
        <ele>1157.8</ele>
        <time>2026-05-01T06:17:27Z</time>
      </trkpt>
      <trkpt lat="45.13285" lon="4.41953">
        <ele>1157.7</ele>
        <time>2026-05-01T06:17:32Z</time>
      </trkpt>
      <trkpt lat="45.13284" lon="4.41963">
        <ele>1157.5</ele>
        <time>2026-05-01T06:17:37Z</time>
      </trkpt>
      <trkpt lat="45.13283" lon="4.41974">
        <ele>1157.3</ele>
        <time>2026-05-01T06:17:42Z</time>
      </trkpt>
      <trkpt lat="45.13282" lon="4.41984">
        <ele>1157.1</ele>
        <time>2026-05-01T06:17:47Z</time>
      </trkpt>
      <trkpt lat="45.13284" lon="4.41997">
        <ele>1157.1</ele>
        <time>2026-05-01T06:17:52Z</time>
      </trkpt>
      <trkpt lat="45.13285" lon="4.42008">
        <ele>1156.9</ele>
        <time>2026-05-01T06:17:57Z</time>
      </trkpt>
      <trkpt lat="45.13283" lon="4.42019">
        <ele>1156.6</ele>
        <time>2026-05-01T06:18:02Z</time>
      </trkpt>
      <trkpt lat="45.13285" lon="4.4203">
        <ele>1156.4</ele>
        <time>2026-05-01T06:18:07Z</time>
      </trkpt>
      <trkpt lat="45.13286" lon="4.4204">
        <ele>1156.3</ele>
        <time>2026-05-01T06:18:12Z</time>
      </trkpt>
      <trkpt lat="45.13288" lon="4.42048">
        <ele>1156.2</ele>
        <time>2026-05-01T06:18:17Z</time>
      </trkpt>
      <trkpt lat="45.13288" lon="4.42057">
        <ele>1156</ele>
        <time>2026-05-01T06:18:22Z</time>
      </trkpt>
      <trkpt lat="45.13287" lon="4.42067">
        <ele>1155.7</ele>
        <time>2026-05-01T06:18:27Z</time>
      </trkpt>
      <trkpt lat="45.13285" lon="4.42078">
        <ele>1155.4</ele>
        <time>2026-05-01T06:18:32Z</time>
      </trkpt>
      <trkpt lat="45.13282" lon="4.42089">
        <ele>1154.9</ele>
        <time>2026-05-01T06:18:37Z</time>
      </trkpt>
      <trkpt lat="45.13278" lon="4.421">
        <ele>1154.1</ele>
        <time>2026-05-01T06:18:42Z</time>
      </trkpt>
      <trkpt lat="45.13278" lon="4.42111">
        <ele>1153.6</ele>
        <time>2026-05-01T06:18:47Z</time>
      </trkpt>
      <trkpt lat="45.13279" lon="4.42125">
        <ele>1152.9</ele>
        <time>2026-05-01T06:18:52Z</time>
      </trkpt>
      <trkpt lat="45.1328" lon="4.42135">
        <ele>1152.4</ele>
        <time>2026-05-01T06:18:57Z</time>
      </trkpt>
      <trkpt lat="45.13282" lon="4.42141">
        <ele>1152.1</ele>
        <time>2026-05-01T06:19:02Z</time>
      </trkpt>
      <trkpt lat="45.13283" lon="4.42149">
        <ele>1151.7</ele>
        <time>2026-05-01T06:19:07Z</time>
      </trkpt>
      <trkpt lat="45.13282" lon="4.42165">
        <ele>1150.9</ele>
        <time>2026-05-01T06:19:12Z</time>
      </trkpt>
      <trkpt lat="45.13282" lon="4.42177">
        <ele>1150.3</ele>
        <time>2026-05-01T06:19:17Z</time>
      </trkpt>
      <trkpt lat="45.13282" lon="4.42188">
        <ele>1149.7</ele>
        <time>2026-05-01T06:19:22Z</time>
      </trkpt>
      <trkpt lat="45.13284" lon="4.42198">
        <ele>1149.3</ele>
        <time>2026-05-01T06:19:27Z</time>
      </trkpt>
      <trkpt lat="45.13286" lon="4.42209">
        <ele>1148.8</ele>
        <time>2026-05-01T06:19:32Z</time>
      </trkpt>
      <trkpt lat="45.13287" lon="4.4222">
        <ele>1148.3</ele>
        <time>2026-05-01T06:19:37Z</time>
      </trkpt>
      <trkpt lat="45.13287" lon="4.42231">
        <ele>1147.8</ele>
        <time>2026-05-01T06:19:42Z</time>
      </trkpt>
      <trkpt lat="45.13288" lon="4.42241">
        <ele>1147.3</ele>
        <time>2026-05-01T06:19:47Z</time>
      </trkpt>
      <trkpt lat="45.13288" lon="4.42249">
        <ele>1147</ele>
        <time>2026-05-01T06:19:52Z</time>
      </trkpt>
      <trkpt lat="45.1329" lon="4.42258">
        <ele>1146.7</ele>
        <time>2026-05-01T06:19:57Z</time>
      </trkpt>
      <trkpt lat="45.13293" lon="4.42266">
        <ele>1146.6</ele>
        <time>2026-05-01T06:20:02Z</time>
      </trkpt>
      <trkpt lat="45.13295" lon="4.42278">
        <ele>1146.3</ele>
        <time>2026-05-01T06:20:07Z</time>
      </trkpt>
      <trkpt lat="45.13298" lon="4.42288">
        <ele>1146.2</ele>
        <time>2026-05-01T06:20:12Z</time>
      </trkpt>
      <trkpt lat="45.13301" lon="4.42299">
        <ele>1146.1</ele>
        <time>2026-05-01T06:20:17Z</time>
      </trkpt>
      <trkpt lat="45.13303" lon="4.42309">
        <ele>1146</ele>
        <time>2026-05-01T06:20:22Z</time>
      </trkpt>
      <trkpt lat="45.13307" lon="4.4232">
        <ele>1146</ele>
        <time>2026-05-01T06:20:27Z</time>
      </trkpt>
      <trkpt lat="45.13312" lon="4.4233">
        <ele>1146.3</ele>
        <time>2026-05-01T06:20:32Z</time>
      </trkpt>
      <trkpt lat="45.13317" lon="4.42341">
        <ele>1146.6</ele>
        <time>2026-05-01T06:20:37Z</time>
      </trkpt>
      <trkpt lat="45.13323" lon="4.42352">
        <ele>1147.1</ele>
        <time>2026-05-01T06:20:42Z</time>
      </trkpt>
      <trkpt lat="45.13328" lon="4.42361">
        <ele>1147.6</ele>
        <time>2026-05-01T06:20:47Z</time>
      </trkpt>
      <trkpt lat="45.13334" lon="4.4237">
        <ele>1148</ele>
        <time>2026-05-01T06:20:52Z</time>
      </trkpt>
      <trkpt lat="45.13339" lon="4.42377">
        <ele>1148</ele>
        <time>2026-05-01T06:20:57Z</time>
      </trkpt>
      <trkpt lat="45.13345" lon="4.42386">
        <ele>1147.9</ele>
        <time>2026-05-01T06:21:02Z</time>
      </trkpt>
      <trkpt lat="45.13352" lon="4.42395">
        <ele>1147.8</ele>
        <time>2026-05-01T06:21:07Z</time>
      </trkpt>
      <trkpt lat="45.13358" lon="4.42402">
        <ele>1147.8</ele>
        <time>2026-05-01T06:21:12Z</time>
      </trkpt>
      <trkpt lat="45.13364" lon="4.4241">
        <ele>1147.7</ele>
        <time>2026-05-01T06:21:17Z</time>
      </trkpt>
      <trkpt lat="45.13369" lon="4.42418">
        <ele>1147.5</ele>
        <time>2026-05-01T06:21:22Z</time>
      </trkpt>
      <trkpt lat="45.13375" lon="4.42426">
        <ele>1146.8</ele>
        <time>2026-05-01T06:21:27Z</time>
      </trkpt>
      <trkpt lat="45.13381" lon="4.42434">
        <ele>1146.2</ele>
        <time>2026-05-01T06:21:32Z</time>
      </trkpt>
      <trkpt lat="45.13387" lon="4.42443">
        <ele>1145.6</ele>
        <time>2026-05-01T06:21:37Z</time>
      </trkpt>
      <trkpt lat="45.13393" lon="4.4245">
        <ele>1145.2</ele>
        <time>2026-05-01T06:21:42Z</time>
      </trkpt>
      <trkpt lat="45.13399" lon="4.42459">
        <ele>1144.7</ele>
        <time>2026-05-01T06:21:47Z</time>
      </trkpt>
      <trkpt lat="45.13404" lon="4.42467">
        <ele>1144.4</ele>
        <time>2026-05-01T06:21:52Z</time>
      </trkpt>
      <trkpt lat="45.13411" lon="4.42475">
        <ele>1144.1</ele>
        <time>2026-05-01T06:21:57Z</time>
      </trkpt>
      <trkpt lat="45.13417" lon="4.42483">
        <ele>1143.8</ele>
        <time>2026-05-01T06:22:02Z</time>
      </trkpt>
      <trkpt lat="45.13423" lon="4.4249">
        <ele>1143.4</ele>
        <time>2026-05-01T06:22:07Z</time>
      </trkpt>
      <trkpt lat="45.13428" lon="4.42499">
        <ele>1143</ele>
        <time>2026-05-01T06:22:12Z</time>
      </trkpt>
      <trkpt lat="45.13433" lon="4.42508">
        <ele>1142.6</ele>
        <time>2026-05-01T06:22:17Z</time>
      </trkpt>
      <trkpt lat="45.13437" lon="4.42518">
        <ele>1142.1</ele>
        <time>2026-05-01T06:22:22Z</time>
      </trkpt>
      <trkpt lat="45.13443" lon="4.42526">
        <ele>1141.8</ele>
        <time>2026-05-01T06:22:27Z</time>
      </trkpt>
      <trkpt lat="45.13449" lon="4.42532">
        <ele>1141.7</ele>
        <time>2026-05-01T06:22:32Z</time>
      </trkpt>
      <trkpt lat="45.13455" lon="4.42539">
        <ele>1141.7</ele>
        <time>2026-05-01T06:22:37Z</time>
      </trkpt>
      <trkpt lat="45.13459" lon="4.42547">
        <ele>1141.6</ele>
        <time>2026-05-01T06:22:42Z</time>
      </trkpt>
      <trkpt lat="45.13464" lon="4.42556">
        <ele>1141.6</ele>
        <time>2026-05-01T06:22:47Z</time>
      </trkpt>
      <trkpt lat="45.13464" lon="4.42566">
        <ele>1141.4</ele>
        <time>2026-05-01T06:22:52Z</time>
      </trkpt>
      <trkpt lat="45.13461" lon="4.42577">
        <ele>1140.9</ele>
        <time>2026-05-01T06:22:57Z</time>
      </trkpt>
      <trkpt lat="45.1346" lon="4.42586">
        <ele>1140.6</ele>
        <time>2026-05-01T06:23:02Z</time>
      </trkpt>
      <trkpt lat="45.13457" lon="4.42598">
        <ele>1140.1</ele>
        <time>2026-05-01T06:23:07Z</time>
      </trkpt>
      <trkpt lat="45.13457" lon="4.42608">
        <ele>1139.9</ele>
        <time>2026-05-01T06:23:12Z</time>
      </trkpt>
      <trkpt lat="45.13456" lon="4.42611">
        <ele>1139.8</ele>
        <time>2026-05-01T06:23:17Z</time>
      </trkpt>
      <trkpt lat="45.13455" lon="4.42612">
        <ele>1139.7</ele>
        <time>2026-05-01T06:23:22Z</time>
      </trkpt>
      <trkpt lat="45.13453" lon="4.42621">
        <ele>1139.3</ele>
        <time>2026-05-01T06:23:27Z</time>
      </trkpt>
      <trkpt lat="45.13451" lon="4.42632">
        <ele>1139</ele>
        <time>2026-05-01T06:23:32Z</time>
      </trkpt>
      <trkpt lat="45.13448" lon="4.42642">
        <ele>1138.5</ele>
        <time>2026-05-01T06:23:37Z</time>
      </trkpt>
      <trkpt lat="45.13446" lon="4.42653">
        <ele>1138.1</ele>
        <time>2026-05-01T06:23:42Z</time>
      </trkpt>
      <trkpt lat="45.13443" lon="4.42665">
        <ele>1137.6</ele>
        <time>2026-05-01T06:23:47Z</time>
      </trkpt>
      <trkpt lat="45.13441" lon="4.42675">
        <ele>1136.8</ele>
        <time>2026-05-01T06:23:52Z</time>
      </trkpt>
      <trkpt lat="45.13439" lon="4.42685">
        <ele>1135.9</ele>
        <time>2026-05-01T06:23:57Z</time>
      </trkpt>
      <trkpt lat="45.13438" lon="4.42694">
        <ele>1135.2</ele>
        <time>2026-05-01T06:24:02Z</time>
      </trkpt>
      <trkpt lat="45.13436" lon="4.42706">
        <ele>1134.3</ele>
        <time>2026-05-01T06:24:07Z</time>
      </trkpt>
      <trkpt lat="45.13434" lon="4.42715">
        <ele>1133.5</ele>
        <time>2026-05-01T06:24:12Z</time>
      </trkpt>
      <trkpt lat="45.13431" lon="4.42727">
        <ele>1132.5</ele>
        <time>2026-05-01T06:24:17Z</time>
      </trkpt>
      <trkpt lat="45.13428" lon="4.42738">
        <ele>1131.6</ele>
        <time>2026-05-01T06:24:22Z</time>
      </trkpt>
      <trkpt lat="45.13426" lon="4.42747">
        <ele>1130.9</ele>
        <time>2026-05-01T06:24:27Z</time>
      </trkpt>
      <trkpt lat="45.13428" lon="4.42757">
        <ele>1130.6</ele>
        <time>2026-05-01T06:24:32Z</time>
      </trkpt>
      <trkpt lat="45.1343" lon="4.42766">
        <ele>1130.4</ele>
        <time>2026-05-01T06:24:37Z</time>
      </trkpt>
      <trkpt lat="45.13434" lon="4.42772">
        <ele>1130.5</ele>
        <time>2026-05-01T06:24:42Z</time>
      </trkpt>
      <trkpt lat="45.13433" lon="4.42774">
        <ele>1130.4</ele>
        <time>2026-05-01T06:24:47Z</time>
      </trkpt>
      <trkpt lat="45.13433" lon="4.42777">
        <ele>1130.3</ele>
        <time>2026-05-01T06:24:52Z</time>
      </trkpt>
      <trkpt lat="45.13433" lon="4.42777">
        <ele>1130.3</ele>
        <time>2026-05-01T06:24:57Z</time>
      </trkpt>
      <trkpt lat="45.13433" lon="4.42777">
        <ele>1130.3</ele>
        <time>2026-05-01T06:25:02Z</time>
      </trkpt>
      <trkpt lat="45.13433" lon="4.42777">
        <ele>1130.3</ele>
        <time>2026-05-01T06:25:07Z</time>
      </trkpt>
      <trkpt lat="45.13433" lon="4.42777">
        <ele>1130.3</ele>
        <time>2026-05-01T06:25:12Z</time>
      </trkpt>
      <trkpt lat="45.13433" lon="4.42773">
        <ele>1130.4</ele>
        <time>2026-05-01T06:25:17Z</time>
      </trkpt>
      <trkpt lat="45.13432" lon="4.42771">
        <ele>1130.4</ele>
        <time>2026-05-01T06:25:22Z</time>
      </trkpt>
      <trkpt lat="45.13425" lon="4.42772">
        <ele>1129.8</ele>
        <time>2026-05-01T06:25:27Z</time>
      </trkpt>
      <trkpt lat="45.13421" lon="4.42779">
        <ele>1129.3</ele>
        <time>2026-05-01T06:25:32Z</time>
      </trkpt>
      <trkpt lat="45.13417" lon="4.4279">
        <ele>1128.6</ele>
        <time>2026-05-01T06:25:37Z</time>
      </trkpt>
      <trkpt lat="45.13413" lon="4.42799">
        <ele>1128</ele>
        <time>2026-05-01T06:25:42Z</time>
      </trkpt>
      <trkpt lat="45.13409" lon="4.42807">
        <ele>1127.5</ele>
        <time>2026-05-01T06:25:47Z</time>
      </trkpt>
      <trkpt lat="45.13403" lon="4.42816">
        <ele>1126.8</ele>
        <time>2026-05-01T06:25:52Z</time>
      </trkpt>
      <trkpt lat="45.13398" lon="4.42824">
        <ele>1126.2</ele>
        <time>2026-05-01T06:25:57Z</time>
      </trkpt>
      <trkpt lat="45.13394" lon="4.42833">
        <ele>1125.7</ele>
        <time>2026-05-01T06:26:02Z</time>
      </trkpt>
      <trkpt lat="45.13388" lon="4.4284">
        <ele>1125.6</ele>
        <time>2026-05-01T06:26:07Z</time>
      </trkpt>
      <trkpt lat="45.13383" lon="4.42847">
        <ele>1125.7</ele>
        <time>2026-05-01T06:26:12Z</time>
      </trkpt>
      <trkpt lat="45.13379" lon="4.42854">
        <ele>1125.8</ele>
        <time>2026-05-01T06:26:17Z</time>
      </trkpt>
      <trkpt lat="45.13374" lon="4.42861">
        <ele>1125.9</ele>
        <time>2026-05-01T06:26:22Z</time>
      </trkpt>
      <trkpt lat="45.1337" lon="4.42868">
        <ele>1126.1</ele>
        <time>2026-05-01T06:26:27Z</time>
      </trkpt>
      <trkpt lat="45.13364" lon="4.42874">
        <ele>1126.1</ele>
        <time>2026-05-01T06:26:32Z</time>
      </trkpt>
      <trkpt lat="45.1336" lon="4.42882">
        <ele>1126.3</ele>
        <time>2026-05-01T06:26:37Z</time>
      </trkpt>
      <trkpt lat="45.13355" lon="4.42889">
        <ele>1126.5</ele>
        <time>2026-05-01T06:26:42Z</time>
      </trkpt>
      <trkpt lat="45.13357" lon="4.42897">
        <ele>1127</ele>
        <time>2026-05-01T06:26:47Z</time>
      </trkpt>
      <trkpt lat="45.13358" lon="4.42905">
        <ele>1127.5</ele>
        <time>2026-05-01T06:26:52Z</time>
      </trkpt>
      <trkpt lat="45.13359" lon="4.42915">
        <ele>1128.1</ele>
        <time>2026-05-01T06:26:57Z</time>
      </trkpt>
      <trkpt lat="45.13361" lon="4.42922">
        <ele>1128.6</ele>
        <time>2026-05-01T06:27:02Z</time>
      </trkpt>
      <trkpt lat="45.13363" lon="4.4293">
        <ele>1129.2</ele>
        <time>2026-05-01T06:27:07Z</time>
      </trkpt>
      <trkpt lat="45.13364" lon="4.42938">
        <ele>1129.7</ele>
        <time>2026-05-01T06:27:12Z</time>
      </trkpt>
      <trkpt lat="45.13365" lon="4.42945">
        <ele>1130.1</ele>
        <time>2026-05-01T06:27:17Z</time>
      </trkpt>
      <trkpt lat="45.13367" lon="4.42954">
        <ele>1130.7</ele>
        <time>2026-05-01T06:27:22Z</time>
      </trkpt>
      <trkpt lat="45.13368" lon="4.42963">
        <ele>1131.2</ele>
        <time>2026-05-01T06:27:27Z</time>
      </trkpt>
      <trkpt lat="45.1337" lon="4.4297">
        <ele>1131.7</ele>
        <time>2026-05-01T06:27:32Z</time>
      </trkpt>
      <trkpt lat="45.13371" lon="4.4298">
        <ele>1132.3</ele>
        <time>2026-05-01T06:27:37Z</time>
      </trkpt>
      <trkpt lat="45.13372" lon="4.42988">
        <ele>1132.7</ele>
        <time>2026-05-01T06:27:42Z</time>
      </trkpt>
      <trkpt lat="45.13374" lon="4.42994">
        <ele>1133.1</ele>
        <time>2026-05-01T06:27:47Z</time>
      </trkpt>
      <trkpt lat="45.13375" lon="4.43002">
        <ele>1133.6</ele>
        <time>2026-05-01T06:27:52Z</time>
      </trkpt>
      <trkpt lat="45.13377" lon="4.43009">
        <ele>1134.1</ele>
        <time>2026-05-01T06:27:57Z</time>
      </trkpt>
      <trkpt lat="45.13378" lon="4.43014">
        <ele>1134.4</ele>
        <time>2026-05-01T06:28:02Z</time>
      </trkpt>
      <trkpt lat="45.13378" lon="4.43015">
        <ele>1134.4</ele>
        <time>2026-05-01T06:28:07Z</time>
      </trkpt>
      <trkpt lat="45.13377" lon="4.43016">
        <ele>1134.4</ele>
        <time>2026-05-01T06:28:12Z</time>
      </trkpt>
      <trkpt lat="45.13377" lon="4.43016">
        <ele>1134.4</ele>
        <time>2026-05-01T06:28:17Z</time>
      </trkpt>
      <trkpt lat="45.13377" lon="4.43016">
        <ele>1134.4</ele>
        <time>2026-05-01T06:28:22Z</time>
      </trkpt>
      <trkpt lat="45.13377" lon="4.43016">
        <ele>1134.4</ele>
        <time>2026-05-01T06:28:27Z</time>
      </trkpt>
      <trkpt lat="45.13377" lon="4.43016">
        <ele>1134.4</ele>
        <time>2026-05-01T06:28:32Z</time>
      </trkpt>
      <trkpt lat="45.13377" lon="4.43016">
        <ele>1134.4</ele>
        <time>2026-05-01T06:28:37Z</time>
      </trkpt>
      <trkpt lat="45.13377" lon="4.43016">
        <ele>1134.4</ele>
        <time>2026-05-01T06:28:42Z</time>
      </trkpt>
      <trkpt lat="45.13377" lon="4.43016">
        <ele>1134.4</ele>
        <time>2026-05-01T06:28:47Z</time>
      </trkpt>
      <trkpt lat="45.13377" lon="4.43016">
        <ele>1134.4</ele>
        <time>2026-05-01T06:28:52Z</time>
      </trkpt>
      <trkpt lat="45.13381" lon="4.43023">
        <ele>1135</ele>
        <time>2026-05-01T06:28:57Z</time>
      </trkpt>
      <trkpt lat="45.13383" lon="4.43031">
        <ele>1135.5</ele>
        <time>2026-05-01T06:29:02Z</time>
      </trkpt>
      <trkpt lat="45.13385" lon="4.43038">
        <ele>1136</ele>
        <time>2026-05-01T06:29:07Z</time>
      </trkpt>
      <trkpt lat="45.13387" lon="4.43044">
        <ele>1136.4</ele>
        <time>2026-05-01T06:29:12Z</time>
      </trkpt>
      <trkpt lat="45.1339" lon="4.43052">
        <ele>1137</ele>
        <time>2026-05-01T06:29:17Z</time>
      </trkpt>
      <trkpt lat="45.13392" lon="4.43061">
        <ele>1137.6</ele>
        <time>2026-05-01T06:29:22Z</time>
      </trkpt>
      <trkpt lat="45.13394" lon="4.43071">
        <ele>1138.2</ele>
        <time>2026-05-01T06:29:27Z</time>
      </trkpt>
      <trkpt lat="45.13395" lon="4.4308">
        <ele>1138.8</ele>
        <time>2026-05-01T06:29:32Z</time>
      </trkpt>
      <trkpt lat="45.13398" lon="4.43089">
        <ele>1139.6</ele>
        <time>2026-05-01T06:29:37Z</time>
      </trkpt>
      <trkpt lat="45.13401" lon="4.43097">
        <ele>1140.4</ele>
        <time>2026-05-01T06:29:42Z</time>
      </trkpt>
      <trkpt lat="45.13407" lon="4.43105">
        <ele>1141.2</ele>
        <time>2026-05-01T06:29:47Z</time>
      </trkpt>
      <trkpt lat="45.13411" lon="4.43107">
        <ele>1141.5</ele>
        <time>2026-05-01T06:29:52Z</time>
      </trkpt>
      <trkpt lat="45.13418" lon="4.43112">
        <ele>1142.1</ele>
        <time>2026-05-01T06:29:57Z</time>
      </trkpt>
      <trkpt lat="45.13426" lon="4.43116">
        <ele>1142.4</ele>
        <time>2026-05-01T06:30:02Z</time>
      </trkpt>
      <trkpt lat="45.13433" lon="4.43121">
        <ele>1142.7</ele>
        <time>2026-05-01T06:30:07Z</time>
      </trkpt>
      <trkpt lat="45.13439" lon="4.43125">
        <ele>1143</ele>
        <time>2026-05-01T06:30:12Z</time>
      </trkpt>
      <trkpt lat="45.13446" lon="4.4313">
        <ele>1143.4</ele>
        <time>2026-05-01T06:30:17Z</time>
      </trkpt>
      <trkpt lat="45.13452" lon="4.43135">
        <ele>1143.7</ele>
        <time>2026-05-01T06:30:22Z</time>
      </trkpt>
      <trkpt lat="45.13459" lon="4.43141">
        <ele>1144.2</ele>
        <time>2026-05-01T06:30:27Z</time>
      </trkpt>
      <trkpt lat="45.13466" lon="4.43146">
        <ele>1144.5</ele>
        <time>2026-05-01T06:30:32Z</time>
      </trkpt>
      <trkpt lat="45.13472" lon="4.43151">
        <ele>1144.9</ele>
        <time>2026-05-01T06:30:37Z</time>
      </trkpt>
      <trkpt lat="45.13477" lon="4.43155">
        <ele>1145.2</ele>
        <time>2026-05-01T06:30:42Z</time>
      </trkpt>
      <trkpt lat="45.13485" lon="4.4316">
        <ele>1145.5</ele>
        <time>2026-05-01T06:30:47Z</time>
      </trkpt>
      <trkpt lat="45.13491" lon="4.43164">
        <ele>1145.8</ele>
        <time>2026-05-01T06:30:52Z</time>
      </trkpt>
      <trkpt lat="45.13498" lon="4.43169">
        <ele>1146.1</ele>
        <time>2026-05-01T06:30:57Z</time>
      </trkpt>
      <trkpt lat="45.13504" lon="4.43173">
        <ele>1146.4</ele>
        <time>2026-05-01T06:31:02Z</time>
      </trkpt>
      <trkpt lat="45.1351" lon="4.43179">
        <ele>1146.7</ele>
        <time>2026-05-01T06:31:07Z</time>
      </trkpt>
      <trkpt lat="45.13515" lon="4.43185">
        <ele>1147</ele>
        <time>2026-05-01T06:31:12Z</time>
      </trkpt>
      <trkpt lat="45.13522" lon="4.43191">
        <ele>1147.3</ele>
        <time>2026-05-01T06:31:17Z</time>
      </trkpt>
      <trkpt lat="45.13529" lon="4.43197">
        <ele>1147.6</ele>
        <time>2026-05-01T06:31:22Z</time>
      </trkpt>
      <trkpt lat="45.13535" lon="4.43202">
        <ele>1147.8</ele>
        <time>2026-05-01T06:31:27Z</time>
      </trkpt>
      <trkpt lat="45.13541" lon="4.43208">
        <ele>1148</ele>
        <time>2026-05-01T06:31:32Z</time>
      </trkpt>
      <trkpt lat="45.13544" lon="4.43213">
        <ele>1148.2</ele>
        <time>2026-05-01T06:31:37Z</time>
      </trkpt>
      <trkpt lat="45.13545" lon="4.43216">
        <ele>1148.3</ele>
        <time>2026-05-01T06:31:42Z</time>
      </trkpt>
      <trkpt lat="45.13549" lon="4.43222">
        <ele>1148.5</ele>
        <time>2026-05-01T06:31:47Z</time>
      </trkpt>
      <trkpt lat="45.13554" lon="4.43228">
        <ele>1148.7</ele>
        <time>2026-05-01T06:31:52Z</time>
      </trkpt>
      <trkpt lat="45.13559" lon="4.43234">
        <ele>1148.9</ele>
        <time>2026-05-01T06:31:57Z</time>
      </trkpt>
      <trkpt lat="45.13563" lon="4.43239">
        <ele>1149</ele>
        <time>2026-05-01T06:32:02Z</time>
      </trkpt>
      <trkpt lat="45.13564" lon="4.4324">
        <ele>1149</ele>
        <time>2026-05-01T06:32:07Z</time>
      </trkpt>
      <trkpt lat="45.13564" lon="4.4324">
        <ele>1149</ele>
        <time>2026-05-01T06:32:12Z</time>
      </trkpt>
      <trkpt lat="45.13564" lon="4.4324">
        <ele>1149</ele>
        <time>2026-05-01T06:32:17Z</time>
      </trkpt>
      <trkpt lat="45.13564" lon="4.4324">
        <ele>1149</ele>
        <time>2026-05-01T06:32:22Z</time>
      </trkpt>
      <trkpt lat="45.13564" lon="4.4324">
        <ele>1149</ele>
        <time>2026-05-01T06:32:27Z</time>
      </trkpt>
      <trkpt lat="45.13564" lon="4.4324">
        <ele>1149</ele>
        <time>2026-05-01T06:32:32Z</time>
      </trkpt>
      <trkpt lat="45.13564" lon="4.4324">
        <ele>1149</ele>
        <time>2026-05-01T06:32:37Z</time>
      </trkpt>
      <trkpt lat="45.13564" lon="4.4324">
        <ele>1149</ele>
        <time>2026-05-01T06:32:42Z</time>
      </trkpt>
      <trkpt lat="45.13564" lon="4.4324">
        <ele>1149</ele>
        <time>2026-05-01T06:32:47Z</time>
      </trkpt>
      <trkpt lat="45.13564" lon="4.4324">
        <ele>1149</ele>
        <time>2026-05-01T06:32:52Z</time>
      </trkpt>
      <trkpt lat="45.13564" lon="4.4324">
        <ele>1149</ele>
        <time>2026-05-01T06:32:57Z</time>
      </trkpt>
      <trkpt lat="45.13564" lon="4.4324">
        <ele>1149</ele>
        <time>2026-05-01T06:33:02Z</time>
      </trkpt>
      <trkpt lat="45.13564" lon="4.4324">
        <ele>1149</ele>
        <time>2026-05-01T06:33:07Z</time>
      </trkpt>
      <trkpt lat="45.13564" lon="4.4324">
        <ele>1149</ele>
        <time>2026-05-01T06:33:12Z</time>
      </trkpt>
      <trkpt lat="45.13564" lon="4.4324">
        <ele>1149</ele>
        <time>2026-05-01T06:33:17Z</time>
      </trkpt>
      <trkpt lat="45.13566" lon="4.4324">
        <ele>1149</ele>
        <time>2026-05-01T06:33:22Z</time>
      </trkpt>
      <trkpt lat="45.13573" lon="4.43244">
        <ele>1149</ele>
        <time>2026-05-01T06:33:27Z</time>
      </trkpt>
      <trkpt lat="45.13579" lon="4.43245">
        <ele>1148.9</ele>
        <time>2026-05-01T06:33:32Z</time>
      </trkpt>
      <trkpt lat="45.13584" lon="4.43246">
        <ele>1148.8</ele>
        <time>2026-05-01T06:33:37Z</time>
      </trkpt>
      <trkpt lat="45.13586" lon="4.43248">
        <ele>1148.8</ele>
        <time>2026-05-01T06:33:42Z</time>
      </trkpt>
      <trkpt lat="45.13588" lon="4.4325">
        <ele>1148.8</ele>
        <time>2026-05-01T06:33:47Z</time>
      </trkpt>
      <trkpt lat="45.13588" lon="4.4325">
        <ele>1148.8</ele>
        <time>2026-05-01T06:33:52Z</time>
      </trkpt>
      <trkpt lat="45.13588" lon="4.4325">
        <ele>1148.8</ele>
        <time>2026-05-01T06:33:57Z</time>
      </trkpt>
      <trkpt lat="45.13588" lon="4.4325">
        <ele>1148.8</ele>
        <time>2026-05-01T06:34:02Z</time>
      </trkpt>
      <trkpt lat="45.13588" lon="4.4325">
        <ele>1148.8</ele>
        <time>2026-05-01T06:34:07Z</time>
      </trkpt>
      <trkpt lat="45.13588" lon="4.4325">
        <ele>1148.8</ele>
        <time>2026-05-01T06:34:12Z</time>
      </trkpt>
      <trkpt lat="45.13592" lon="4.43251">
        <ele>1148.6</ele>
        <time>2026-05-01T06:34:17Z</time>
      </trkpt>
      <trkpt lat="45.13599" lon="4.43249">
        <ele>1148.2</ele>
        <time>2026-05-01T06:34:22Z</time>
      </trkpt>
      <trkpt lat="45.13606" lon="4.43249">
        <ele>1147.9</ele>
        <time>2026-05-01T06:34:27Z</time>
      </trkpt>
      <trkpt lat="45.13614" lon="4.43251">
        <ele>1147.5</ele>
        <time>2026-05-01T06:34:32Z</time>
      </trkpt>
      <trkpt lat="45.13621" lon="4.4325">
        <ele>1147.2</ele>
        <time>2026-05-01T06:34:37Z</time>
      </trkpt>
      <trkpt lat="45.1363" lon="4.43252">
        <ele>1146.7</ele>
        <time>2026-05-01T06:34:42Z</time>
      </trkpt>
      <trkpt lat="45.13637" lon="4.43253">
        <ele>1146.3</ele>
        <time>2026-05-01T06:34:47Z</time>
      </trkpt>
      <trkpt lat="45.13643" lon="4.43258">
        <ele>1145.7</ele>
        <time>2026-05-01T06:34:52Z</time>
      </trkpt>
      <trkpt lat="45.13642" lon="4.43267">
        <ele>1145.2</ele>
        <time>2026-05-01T06:34:57Z</time>
      </trkpt>
      <trkpt lat="45.13639" lon="4.43276">
        <ele>1144.9</ele>
        <time>2026-05-01T06:35:02Z</time>
      </trkpt>
      <trkpt lat="45.13634" lon="4.43285">
        <ele>1144.8</ele>
        <time>2026-05-01T06:35:07Z</time>
      </trkpt>
      <trkpt lat="45.13631" lon="4.43292">
        <ele>1144.7</ele>
        <time>2026-05-01T06:35:12Z</time>
      </trkpt>
      <trkpt lat="45.13627" lon="4.43302">
        <ele>1144.6</ele>
        <time>2026-05-01T06:35:17Z</time>
      </trkpt>
      <trkpt lat="45.13623" lon="4.43313">
        <ele>1144.6</ele>
        <time>2026-05-01T06:35:22Z</time>
      </trkpt>
      <trkpt lat="45.13619" lon="4.43322">
        <ele>1144.7</ele>
        <time>2026-05-01T06:35:27Z</time>
      </trkpt>
      <trkpt lat="45.13616" lon="4.43331">
        <ele>1144.8</ele>
        <time>2026-05-01T06:35:32Z</time>
      </trkpt>
      <trkpt lat="45.13613" lon="4.43337">
        <ele>1145</ele>
        <time>2026-05-01T06:35:37Z</time>
      </trkpt>
      <trkpt lat="45.13613" lon="4.43339">
        <ele>1145</ele>
        <time>2026-05-01T06:35:42Z</time>
      </trkpt>
      <trkpt lat="45.13612" lon="4.43341">
        <ele>1145.1</ele>
        <time>2026-05-01T06:35:47Z</time>
      </trkpt>
      <trkpt lat="45.13608" lon="4.4335">
        <ele>1145.6</ele>
        <time>2026-05-01T06:35:52Z</time>
      </trkpt>
      <trkpt lat="45.13603" lon="4.4336">
        <ele>1146.3</ele>
        <time>2026-05-01T06:35:57Z</time>
      </trkpt>
      <trkpt lat="45.13599" lon="4.43368">
        <ele>1147</ele>
        <time>2026-05-01T06:36:02Z</time>
      </trkpt>
      <trkpt lat="45.13598" lon="4.43372">
        <ele>1147.2</ele>
        <time>2026-05-01T06:36:07Z</time>
      </trkpt>
      <trkpt lat="45.13598" lon="4.43373">
        <ele>1147.2</ele>
        <time>2026-05-01T06:36:12Z</time>
      </trkpt>
      <trkpt lat="45.13598" lon="4.43373">
        <ele>1147.2</ele>
        <time>2026-05-01T06:36:17Z</time>
      </trkpt>
      <trkpt lat="45.13598" lon="4.43373">
        <ele>1147.2</ele>
        <time>2026-05-01T06:36:22Z</time>
      </trkpt>
      <trkpt lat="45.13598" lon="4.43373">
        <ele>1147.2</ele>
        <time>2026-05-01T06:36:27Z</time>
      </trkpt>
      <trkpt lat="45.13598" lon="4.43373">
        <ele>1147.2</ele>
        <time>2026-05-01T06:36:32Z</time>
      </trkpt>
      <trkpt lat="45.13598" lon="4.43373">
        <ele>1147.2</ele>
        <time>2026-05-01T06:36:37Z</time>
      </trkpt>
      <trkpt lat="45.13598" lon="4.43373">
        <ele>1147.2</ele>
        <time>2026-05-01T06:36:42Z</time>
      </trkpt>
      <trkpt lat="45.13598" lon="4.43373">
        <ele>1147.2</ele>
        <time>2026-05-01T06:36:47Z</time>
      </trkpt>
      <trkpt lat="45.13598" lon="4.43373">
        <ele>1147.2</ele>
        <time>2026-05-01T06:36:52Z</time>
      </trkpt>
      <trkpt lat="45.13596" lon="4.43377">
        <ele>1147.6</ele>
        <time>2026-05-01T06:36:57Z</time>
      </trkpt>
      <trkpt lat="45.13591" lon="4.43386">
        <ele>1148.7</ele>
        <time>2026-05-01T06:37:02Z</time>
      </trkpt>
      <trkpt lat="45.13586" lon="4.43394">
        <ele>1149.9</ele>
        <time>2026-05-01T06:37:07Z</time>
      </trkpt>
      <trkpt lat="45.13581" lon="4.43403">
        <ele>1150.9</ele>
        <time>2026-05-01T06:37:12Z</time>
      </trkpt>
      <trkpt lat="45.13576" lon="4.43411">
        <ele>1151.6</ele>
        <time>2026-05-01T06:37:17Z</time>
      </trkpt>
      <trkpt lat="45.13571" lon="4.43421">
        <ele>1152.1</ele>
        <time>2026-05-01T06:37:22Z</time>
      </trkpt>
      <trkpt lat="45.13567" lon="4.43431">
        <ele>1152</ele>
        <time>2026-05-01T06:37:27Z</time>
      </trkpt>
      <trkpt lat="45.13563" lon="4.43441">
        <ele>1152</ele>
        <time>2026-05-01T06:37:32Z</time>
      </trkpt>
      <trkpt lat="45.13559" lon="4.43449">
        <ele>1152</ele>
        <time>2026-05-01T06:37:37Z</time>
      </trkpt>
      <trkpt lat="45.13558" lon="4.43451">
        <ele>1152</ele>
        <time>2026-05-01T06:37:42Z</time>
      </trkpt>
      <trkpt lat="45.13558" lon="4.43452">
        <ele>1151.9</ele>
        <time>2026-05-01T06:37:47Z</time>
      </trkpt>
      <trkpt lat="45.13555" lon="4.43463">
        <ele>1151.6</ele>
        <time>2026-05-01T06:37:52Z</time>
      </trkpt>
      <trkpt lat="45.13553" lon="4.43474">
        <ele>1151.3</ele>
        <time>2026-05-01T06:37:57Z</time>
      </trkpt>
      <trkpt lat="45.13552" lon="4.43482">
        <ele>1151</ele>
        <time>2026-05-01T06:38:02Z</time>
      </trkpt>
      <trkpt lat="45.13552" lon="4.43492">
        <ele>1150.4</ele>
        <time>2026-05-01T06:38:07Z</time>
      </trkpt>
      <trkpt lat="45.13553" lon="4.43503">
        <ele>1149.5</ele>
        <time>2026-05-01T06:38:12Z</time>
      </trkpt>
      <trkpt lat="45.13553" lon="4.43514">
        <ele>1148.1</ele>
        <time>2026-05-01T06:38:17Z</time>
      </trkpt>
      <trkpt lat="45.13555" lon="4.43526">
        <ele>1146.4</ele>
        <time>2026-05-01T06:38:22Z</time>
      </trkpt>
      <trkpt lat="45.13556" lon="4.43534">
        <ele>1145.3</ele>
        <time>2026-05-01T06:38:27Z</time>
      </trkpt>
      <trkpt lat="45.13556" lon="4.43534">
        <ele>1145.3</ele>
        <time>2026-05-01T06:38:32Z</time>
      </trkpt>
      <trkpt lat="45.13556" lon="4.43534">
        <ele>1145.3</ele>
        <time>2026-05-01T06:38:37Z</time>
      </trkpt>
      <trkpt lat="45.13556" lon="4.43534">
        <ele>1145.3</ele>
        <time>2026-05-01T06:38:42Z</time>
      </trkpt>
      <trkpt lat="45.13556" lon="4.43534">
        <ele>1145.3</ele>
        <time>2026-05-01T06:38:47Z</time>
      </trkpt>
      <trkpt lat="45.13556" lon="4.4354">
        <ele>1144.5</ele>
        <time>2026-05-01T06:38:52Z</time>
      </trkpt>
      <trkpt lat="45.13557" lon="4.43551">
        <ele>1143</ele>
        <time>2026-05-01T06:38:57Z</time>
      </trkpt>
      <trkpt lat="45.13558" lon="4.43561">
        <ele>1141.5</ele>
        <time>2026-05-01T06:39:02Z</time>
      </trkpt>
      <trkpt lat="45.13559" lon="4.43573">
        <ele>1139.8</ele>
        <time>2026-05-01T06:39:07Z</time>
      </trkpt>
      <trkpt lat="45.13559" lon="4.43584">
        <ele>1138.4</ele>
        <time>2026-05-01T06:39:12Z</time>
      </trkpt>
      <trkpt lat="45.13558" lon="4.43595">
        <ele>1137.1</ele>
        <time>2026-05-01T06:39:17Z</time>
      </trkpt>
      <trkpt lat="45.13559" lon="4.43607">
        <ele>1135.4</ele>
        <time>2026-05-01T06:39:22Z</time>
      </trkpt>
      <trkpt lat="45.13559" lon="4.43618">
        <ele>1134</ele>
        <time>2026-05-01T06:39:27Z</time>
      </trkpt>
      <trkpt lat="45.13558" lon="4.4363">
        <ele>1132.5</ele>
        <time>2026-05-01T06:39:32Z</time>
      </trkpt>
      <trkpt lat="45.13558" lon="4.43642">
        <ele>1131</ele>
        <time>2026-05-01T06:39:37Z</time>
      </trkpt>
      <trkpt lat="45.13558" lon="4.43651">
        <ele>1129.8</ele>
        <time>2026-05-01T06:39:42Z</time>
      </trkpt>
      <trkpt lat="45.13558" lon="4.43659">
        <ele>1128.7</ele>
        <time>2026-05-01T06:39:47Z</time>
      </trkpt>
      <trkpt lat="45.13558" lon="4.43671">
        <ele>1127.2</ele>
        <time>2026-05-01T06:39:52Z</time>
      </trkpt>
      <trkpt lat="45.13559" lon="4.43683">
        <ele>1125.6</ele>
        <time>2026-05-01T06:39:57Z</time>
      </trkpt>
      <trkpt lat="45.13558" lon="4.43695">
        <ele>1124.1</ele>
        <time>2026-05-01T06:40:02Z</time>
      </trkpt>
      <trkpt lat="45.13559" lon="4.43706">
        <ele>1122.6</ele>
        <time>2026-05-01T06:40:07Z</time>
      </trkpt>
      <trkpt lat="45.13558" lon="4.43716">
        <ele>1121.5</ele>
        <time>2026-05-01T06:40:12Z</time>
      </trkpt>
      <trkpt lat="45.13558" lon="4.43728">
        <ele>1119.9</ele>
        <time>2026-05-01T06:40:17Z</time>
      </trkpt>
      <trkpt lat="45.13557" lon="4.43739">
        <ele>1118.6</ele>
        <time>2026-05-01T06:40:22Z</time>
      </trkpt>
      <trkpt lat="45.13559" lon="4.4375">
        <ele>1117</ele>
        <time>2026-05-01T06:40:27Z</time>
      </trkpt>
      <trkpt lat="45.13561" lon="4.4376">
        <ele>1115.2</ele>
        <time>2026-05-01T06:40:32Z</time>
      </trkpt>
      <trkpt lat="45.13564" lon="4.43766">
        <ele>1113.9</ele>
        <time>2026-05-01T06:40:37Z</time>
      </trkpt>
      <trkpt lat="45.13566" lon="4.43767">
        <ele>1113.6</ele>
        <time>2026-05-01T06:40:42Z</time>
      </trkpt>
      <trkpt lat="45.13567" lon="4.43767">
        <ele>1113.6</ele>
        <time>2026-05-01T06:40:47Z</time>
      </trkpt>
      <trkpt lat="45.13567" lon="4.43767">
        <ele>1113.6</ele>
        <time>2026-05-01T06:40:52Z</time>
      </trkpt>
      <trkpt lat="45.13567" lon="4.43767">
        <ele>1113.6</ele>
        <time>2026-05-01T06:40:57Z</time>
      </trkpt>
      <trkpt lat="45.13566" lon="4.43771">
        <ele>1113</ele>
        <time>2026-05-01T06:41:02Z</time>
      </trkpt>
      <trkpt lat="45.13566" lon="4.4378">
        <ele>1111.5</ele>
        <time>2026-05-01T06:41:07Z</time>
      </trkpt>
      <trkpt lat="45.13566" lon="4.4379">
        <ele>1109.8</ele>
        <time>2026-05-01T06:41:12Z</time>
      </trkpt>
      <trkpt lat="45.13566" lon="4.43799">
        <ele>1108.3</ele>
        <time>2026-05-01T06:41:17Z</time>
      </trkpt>
      <trkpt lat="45.13567" lon="4.43811">
        <ele>1106.3</ele>
        <time>2026-05-01T06:41:22Z</time>
      </trkpt>
      <trkpt lat="45.13566" lon="4.43823">
        <ele>1104.3</ele>
        <time>2026-05-01T06:41:27Z</time>
      </trkpt>
      <trkpt lat="45.13565" lon="4.43837">
        <ele>1101.9</ele>
        <time>2026-05-01T06:41:32Z</time>
      </trkpt>
      <trkpt lat="45.13565" lon="4.43849">
        <ele>1099.2</ele>
        <time>2026-05-01T06:41:37Z</time>
      </trkpt>
      <trkpt lat="45.13564" lon="4.4386">
        <ele>1096.9</ele>
        <time>2026-05-01T06:41:42Z</time>
      </trkpt>
      <trkpt lat="45.13564" lon="4.4387">
        <ele>1094.7</ele>
        <time>2026-05-01T06:41:47Z</time>
      </trkpt>
      <trkpt lat="45.13564" lon="4.43879">
        <ele>1092.7</ele>
        <time>2026-05-01T06:41:52Z</time>
      </trkpt>
      <trkpt lat="45.13565" lon="4.43888">
        <ele>1090.7</ele>
        <time>2026-05-01T06:41:57Z</time>
      </trkpt>
      <trkpt lat="45.13568" lon="4.43898">
        <ele>1088.4</ele>
        <time>2026-05-01T06:42:02Z</time>
      </trkpt>
      <trkpt lat="45.13571" lon="4.43907">
        <ele>1086.4</ele>
        <time>2026-05-01T06:42:07Z</time>
      </trkpt>
      <trkpt lat="45.13574" lon="4.43916">
        <ele>1084.4</ele>
        <time>2026-05-01T06:42:12Z</time>
      </trkpt>
      <trkpt lat="45.13577" lon="4.43926">
        <ele>1082.5</ele>
        <time>2026-05-01T06:42:17Z</time>
      </trkpt>
      <trkpt lat="45.1358" lon="4.43936">
        <ele>1080.6</ele>
        <time>2026-05-01T06:42:22Z</time>
      </trkpt>
      <trkpt lat="45.13583" lon="4.43945">
        <ele>1078.9</ele>
        <time>2026-05-01T06:42:27Z</time>
      </trkpt>
      <trkpt lat="45.13583" lon="4.43955">
        <ele>1077.1</ele>
        <time>2026-05-01T06:42:32Z</time>
      </trkpt>
      <trkpt lat="45.13584" lon="4.43962">
        <ele>1075.9</ele>
        <time>2026-05-01T06:42:37Z</time>
      </trkpt>
      <trkpt lat="45.13586" lon="4.43967">
        <ele>1075.2</ele>
        <time>2026-05-01T06:42:42Z</time>
      </trkpt>
      <trkpt lat="45.13586" lon="4.43967">
        <ele>1075.2</ele>
        <time>2026-05-01T06:42:47Z</time>
      </trkpt>
      <trkpt lat="45.13586" lon="4.43967">
        <ele>1075.2</ele>
        <time>2026-05-01T06:42:52Z</time>
      </trkpt>
      <trkpt lat="45.13586" lon="4.43967">
        <ele>1075.2</ele>
        <time>2026-05-01T06:42:57Z</time>
      </trkpt>
      <trkpt lat="45.13586" lon="4.43967">
        <ele>1075.2</ele>
        <time>2026-05-01T06:43:02Z</time>
      </trkpt>
      <trkpt lat="45.13586" lon="4.43967">
        <ele>1075.2</ele>
        <time>2026-05-01T06:43:07Z</time>
      </trkpt>
      <trkpt lat="45.13586" lon="4.43967">
        <ele>1075.2</ele>
        <time>2026-05-01T06:43:12Z</time>
      </trkpt>
      <trkpt lat="45.13586" lon="4.43967">
        <ele>1075.2</ele>
        <time>2026-05-01T06:43:17Z</time>
      </trkpt>
      <trkpt lat="45.13586" lon="4.43967">
        <ele>1075.2</ele>
        <time>2026-05-01T06:43:22Z</time>
      </trkpt>
      <trkpt lat="45.13586" lon="4.43967">
        <ele>1075.2</ele>
        <time>2026-05-01T06:43:27Z</time>
      </trkpt>
      <trkpt lat="45.13586" lon="4.43967">
        <ele>1075.2</ele>
        <time>2026-05-01T06:43:32Z</time>
      </trkpt>
      <trkpt lat="45.13582" lon="4.43968">
        <ele>1074.8</ele>
        <time>2026-05-01T06:43:37Z</time>
      </trkpt>
      <trkpt lat="45.13582" lon="4.43971">
        <ele>1074.2</ele>
        <time>2026-05-01T06:43:42Z</time>
      </trkpt>
      <trkpt lat="45.13581" lon="4.43976">
        <ele>1073.3</ele>
        <time>2026-05-01T06:43:47Z</time>
      </trkpt>
      <trkpt lat="45.13578" lon="4.43979">
        <ele>1072.8</ele>
        <time>2026-05-01T06:43:52Z</time>
      </trkpt>
      <trkpt lat="45.13573" lon="4.43985">
        <ele>1071.7</ele>
        <time>2026-05-01T06:43:57Z</time>
      </trkpt>
      <trkpt lat="45.1357" lon="4.43994">
        <ele>1070.1</ele>
        <time>2026-05-01T06:44:02Z</time>
      </trkpt>
      <trkpt lat="45.13566" lon="4.44001">
        <ele>1068.9</ele>
        <time>2026-05-01T06:44:07Z</time>
      </trkpt>
      <trkpt lat="45.13563" lon="4.44009">
        <ele>1067.7</ele>
        <time>2026-05-01T06:44:12Z</time>
      </trkpt>
      <trkpt lat="45.1356" lon="4.44014">
        <ele>1066.9</ele>
        <time>2026-05-01T06:44:17Z</time>
      </trkpt>
      <trkpt lat="45.13557" lon="4.44021">
        <ele>1065.8</ele>
        <time>2026-05-01T06:44:22Z</time>
      </trkpt>
      <trkpt lat="45.13555" lon="4.44029">
        <ele>1064.4</ele>
        <time>2026-05-01T06:44:27Z</time>
      </trkpt>
      <trkpt lat="45.13554" lon="4.44036">
        <ele>1063.3</ele>
        <time>2026-05-01T06:44:32Z</time>
      </trkpt>
      <trkpt lat="45.13551" lon="4.44043">
        <ele>1062</ele>
        <time>2026-05-01T06:44:37Z</time>
      </trkpt>
      <trkpt lat="45.1355" lon="4.44049">
        <ele>1060.9</ele>
        <time>2026-05-01T06:44:42Z</time>
      </trkpt>
      <trkpt lat="45.13547" lon="4.44057">
        <ele>1059.3</ele>
        <time>2026-05-01T06:44:47Z</time>
      </trkpt>
      <trkpt lat="45.13545" lon="4.44066">
        <ele>1057.5</ele>
        <time>2026-05-01T06:44:52Z</time>
      </trkpt>
      <trkpt lat="45.13543" lon="4.44074">
        <ele>1055.9</ele>
        <time>2026-05-01T06:44:57Z</time>
      </trkpt>
      <trkpt lat="45.13541" lon="4.44082">
        <ele>1054.1</ele>
        <time>2026-05-01T06:45:02Z</time>
      </trkpt>
      <trkpt lat="45.13539" lon="4.4409">
        <ele>1052.9</ele>
        <time>2026-05-01T06:45:07Z</time>
      </trkpt>
      <trkpt lat="45.13535" lon="4.44099">
        <ele>1051.2</ele>
        <time>2026-05-01T06:45:12Z</time>
      </trkpt>
      <trkpt lat="45.13534" lon="4.44106">
        <ele>1050.3</ele>
        <time>2026-05-01T06:45:17Z</time>
      </trkpt>
      <trkpt lat="45.13531" lon="4.44115">
        <ele>1048.6</ele>
        <time>2026-05-01T06:45:22Z</time>
      </trkpt>
      <trkpt lat="45.13528" lon="4.44124">
        <ele>1046.8</ele>
        <time>2026-05-01T06:45:27Z</time>
      </trkpt>
      <trkpt lat="45.13524" lon="4.44133">
        <ele>1044.7</ele>
        <time>2026-05-01T06:45:32Z</time>
      </trkpt>
      <trkpt lat="45.13523" lon="4.4414">
        <ele>1043.6</ele>
        <time>2026-05-01T06:45:37Z</time>
      </trkpt>
      <trkpt lat="45.13519" lon="4.4415">
        <ele>1041.1</ele>
        <time>2026-05-01T06:45:42Z</time>
      </trkpt>
      <trkpt lat="45.13517" lon="4.44158">
        <ele>1039.4</ele>
        <time>2026-05-01T06:45:47Z</time>
      </trkpt>
      <trkpt lat="45.13512" lon="4.44166">
        <ele>1036.7</ele>
        <time>2026-05-01T06:45:52Z</time>
      </trkpt>
      <trkpt lat="45.13509" lon="4.44173">
        <ele>1035.4</ele>
        <time>2026-05-01T06:45:57Z</time>
      </trkpt>
      <trkpt lat="45.13508" lon="4.44183">
        <ele>1034.6</ele>
        <time>2026-05-01T06:46:02Z</time>
      </trkpt>
      <trkpt lat="45.13507" lon="4.44193">
        <ele>1033.8</ele>
        <time>2026-05-01T06:46:07Z</time>
      </trkpt>
      <trkpt lat="45.13505" lon="4.442">
        <ele>1032.9</ele>
        <time>2026-05-01T06:46:12Z</time>
      </trkpt>
      <trkpt lat="45.13502" lon="4.44209">
        <ele>1031.6</ele>
        <time>2026-05-01T06:46:17Z</time>
      </trkpt>
      <trkpt lat="45.13497" lon="4.44217">
        <ele>1030.1</ele>
        <time>2026-05-01T06:46:22Z</time>
      </trkpt>
      <trkpt lat="45.13495" lon="4.44223">
        <ele>1029.4</ele>
        <time>2026-05-01T06:46:27Z</time>
      </trkpt>
      <trkpt lat="45.13492" lon="4.44232">
        <ele>1028.3</ele>
        <time>2026-05-01T06:46:32Z</time>
      </trkpt>
      <trkpt lat="45.13489" lon="4.44242">
        <ele>1026.9</ele>
        <time>2026-05-01T06:46:37Z</time>
      </trkpt>
      <trkpt lat="45.13488" lon="4.4425">
        <ele>1026</ele>
        <time>2026-05-01T06:46:42Z</time>
      </trkpt>
      <trkpt lat="45.13486" lon="4.44257">
        <ele>1024.5</ele>
        <time>2026-05-01T06:46:47Z</time>
      </trkpt>
      <trkpt lat="45.13483" lon="4.44263">
        <ele>1023</ele>
        <time>2026-05-01T06:46:52Z</time>
      </trkpt>
      <trkpt lat="45.13482" lon="4.44271">
        <ele>1021.6</ele>
        <time>2026-05-01T06:46:57Z</time>
      </trkpt>
      <trkpt lat="45.13481" lon="4.4428">
        <ele>1020.1</ele>
        <time>2026-05-01T06:47:02Z</time>
      </trkpt>
      <trkpt lat="45.1348" lon="4.44289">
        <ele>1018.6</ele>
        <time>2026-05-01T06:47:07Z</time>
      </trkpt>
      <trkpt lat="45.1348" lon="4.44299">
        <ele>1017.2</ele>
        <time>2026-05-01T06:47:12Z</time>
      </trkpt>
      <trkpt lat="45.13479" lon="4.44307">
        <ele>1015.8</ele>
        <time>2026-05-01T06:47:17Z</time>
      </trkpt>
      <trkpt lat="45.13479" lon="4.44317">
        <ele>1014.5</ele>
        <time>2026-05-01T06:47:22Z</time>
      </trkpt>
      <trkpt lat="45.13478" lon="4.44326">
        <ele>1012.9</ele>
        <time>2026-05-01T06:47:27Z</time>
      </trkpt>
      <trkpt lat="45.13476" lon="4.44333">
        <ele>1011.3</ele>
        <time>2026-05-01T06:47:32Z</time>
      </trkpt>
      <trkpt lat="45.13471" lon="4.44335">
        <ele>1009.2</ele>
        <time>2026-05-01T06:47:37Z</time>
      </trkpt>
      <trkpt lat="45.13471" lon="4.44338">
        <ele>1008.4</ele>
        <time>2026-05-01T06:47:42Z</time>
      </trkpt>
      <trkpt lat="45.13472" lon="4.44338">
        <ele>1008.7</ele>
        <time>2026-05-01T06:47:47Z</time>
      </trkpt>
      <trkpt lat="45.13476" lon="4.44339">
        <ele>1009.7</ele>
        <time>2026-05-01T06:47:52Z</time>
      </trkpt>
      <trkpt lat="45.1348" lon="4.44342">
        <ele>1010.2</ele>
        <time>2026-05-01T06:47:57Z</time>
      </trkpt>
      <trkpt lat="45.13486" lon="4.44347">
        <ele>1010.9</ele>
        <time>2026-05-01T06:48:02Z</time>
      </trkpt>
      <trkpt lat="45.13493" lon="4.44352">
        <ele>1011.8</ele>
        <time>2026-05-01T06:48:07Z</time>
      </trkpt>
      <trkpt lat="45.135" lon="4.44358">
        <ele>1012.5</ele>
        <time>2026-05-01T06:48:12Z</time>
      </trkpt>
      <trkpt lat="45.13506" lon="4.44362">
        <ele>1012.6</ele>
        <time>2026-05-01T06:48:17Z</time>
      </trkpt>
      <trkpt lat="45.13512" lon="4.44365">
        <ele>1013</ele>
        <time>2026-05-01T06:48:22Z</time>
      </trkpt>
      <trkpt lat="45.13518" lon="4.44369">
        <ele>1013</ele>
        <time>2026-05-01T06:48:27Z</time>
      </trkpt>
      <trkpt lat="45.13525" lon="4.44374">
        <ele>1012.9</ele>
        <time>2026-05-01T06:48:32Z</time>
      </trkpt>
      <trkpt lat="45.13532" lon="4.44379">
        <ele>1012.8</ele>
        <time>2026-05-01T06:48:37Z</time>
      </trkpt>
      <trkpt lat="45.13539" lon="4.44382">
        <ele>1013.2</ele>
        <time>2026-05-01T06:48:42Z</time>
      </trkpt>
      <trkpt lat="45.13546" lon="4.44386">
        <ele>1013.3</ele>
        <time>2026-05-01T06:48:47Z</time>
      </trkpt>
      <trkpt lat="45.13554" lon="4.44389">
        <ele>1013.8</ele>
        <time>2026-05-01T06:48:52Z</time>
      </trkpt>
      <trkpt lat="45.13562" lon="4.44392">
        <ele>1014.3</ele>
        <time>2026-05-01T06:48:57Z</time>
      </trkpt>
      <trkpt lat="45.13568" lon="4.44395">
        <ele>1014.4</ele>
        <time>2026-05-01T06:49:02Z</time>
      </trkpt>
      <trkpt lat="45.13576" lon="4.444">
        <ele>1014.2</ele>
        <time>2026-05-01T06:49:07Z</time>
      </trkpt>
      <trkpt lat="45.13583" lon="4.44406">
        <ele>1013.4</ele>
        <time>2026-05-01T06:49:12Z</time>
      </trkpt>
      <trkpt lat="45.1359" lon="4.44414">
        <ele>1011.9</ele>
        <time>2026-05-01T06:49:17Z</time>
      </trkpt>
      <trkpt lat="45.13598" lon="4.44422">
        <ele>1010.3</ele>
        <time>2026-05-01T06:49:22Z</time>
      </trkpt>
      <trkpt lat="45.13606" lon="4.44428">
        <ele>1009.4</ele>
        <time>2026-05-01T06:49:27Z</time>
      </trkpt>
      <trkpt lat="45.13611" lon="4.44431">
        <ele>1009.1</ele>
        <time>2026-05-01T06:49:32Z</time>
      </trkpt>
      <trkpt lat="45.13612" lon="4.44435">
        <ele>1007.8</ele>
        <time>2026-05-01T06:49:37Z</time>
      </trkpt>
      <trkpt lat="45.13612" lon="4.44437">
        <ele>1007.1</ele>
        <time>2026-05-01T06:49:42Z</time>
      </trkpt>
      <trkpt lat="45.13612" lon="4.44437">
        <ele>1007.1</ele>
        <time>2026-05-01T06:49:47Z</time>
      </trkpt>
      <trkpt lat="45.13612" lon="4.44437">
        <ele>1007.1</ele>
        <time>2026-05-01T06:49:52Z</time>
      </trkpt>
      <trkpt lat="45.13622" lon="4.44448">
        <ele>1004.7</ele>
        <time>2026-05-01T06:49:57Z</time>
      </trkpt>
      <trkpt lat="45.13628" lon="4.44449">
        <ele>1005.4</ele>
        <time>2026-05-01T06:50:02Z</time>
      </trkpt>
      <trkpt lat="45.13635" lon="4.44448">
        <ele>1006.9</ele>
        <time>2026-05-01T06:50:07Z</time>
      </trkpt>
      <trkpt lat="45.13641" lon="4.44448">
        <ele>1007.9</ele>
        <time>2026-05-01T06:50:12Z</time>
      </trkpt>
      <trkpt lat="45.13648" lon="4.44445">
        <ele>1010.1</ele>
        <time>2026-05-01T06:50:17Z</time>
      </trkpt>
      <trkpt lat="45.13654" lon="4.44443">
        <ele>1011.8</ele>
        <time>2026-05-01T06:50:22Z</time>
      </trkpt>
      <trkpt lat="45.1366" lon="4.44442">
        <ele>1013.1</ele>
        <time>2026-05-01T06:50:27Z</time>
      </trkpt>
      <trkpt lat="45.13666" lon="4.44441">
        <ele>1014.4</ele>
        <time>2026-05-01T06:50:32Z</time>
      </trkpt>
      <trkpt lat="45.13676" lon="4.44439">
        <ele>1016</ele>
        <time>2026-05-01T06:50:37Z</time>
      </trkpt>
      <trkpt lat="45.13686" lon="4.44438">
        <ele>1017.1</ele>
        <time>2026-05-01T06:50:42Z</time>
      </trkpt>
      <trkpt lat="45.13694" lon="4.44435">
        <ele>1018.7</ele>
        <time>2026-05-01T06:50:47Z</time>
      </trkpt>
      <trkpt lat="45.13699" lon="4.44434">
        <ele>1019.5</ele>
        <time>2026-05-01T06:50:52Z</time>
      </trkpt>
      <trkpt lat="45.13701" lon="4.44432">
        <ele>1020.3</ele>
        <time>2026-05-01T06:50:57Z</time>
      </trkpt>
      <trkpt lat="45.13701" lon="4.44432">
        <ele>1020.3</ele>
        <time>2026-05-01T06:51:02Z</time>
      </trkpt>
      <trkpt lat="45.13701" lon="4.44432">
        <ele>1020.3</ele>
        <time>2026-05-01T06:51:07Z</time>
      </trkpt>
      <trkpt lat="45.1371" lon="4.44426">
        <ele>1023</ele>
        <time>2026-05-01T06:51:12Z</time>
      </trkpt>
      <trkpt lat="45.13717" lon="4.44422">
        <ele>1024.8</ele>
        <time>2026-05-01T06:51:17Z</time>
      </trkpt>
      <trkpt lat="45.13725" lon="4.44418">
        <ele>1026.8</ele>
        <time>2026-05-01T06:51:22Z</time>
      </trkpt>
      <trkpt lat="45.13733" lon="4.44411">
        <ele>1029.5</ele>
        <time>2026-05-01T06:51:27Z</time>
      </trkpt>
      <trkpt lat="45.13739" lon="4.44404">
        <ele>1032</ele>
        <time>2026-05-01T06:51:32Z</time>
      </trkpt>
      <trkpt lat="45.13743" lon="4.44397">
        <ele>1034.3</ele>
        <time>2026-05-01T06:51:37Z</time>
      </trkpt>
      <trkpt lat="45.13748" lon="4.44391">
        <ele>1036.3</ele>
        <time>2026-05-01T06:51:42Z</time>
      </trkpt>
      <trkpt lat="45.13754" lon="4.44387">
        <ele>1036.5</ele>
        <time>2026-05-01T06:51:47Z</time>
      </trkpt>
      <trkpt lat="45.13758" lon="4.44384">
        <ele>1036.2</ele>
        <time>2026-05-01T06:51:52Z</time>
      </trkpt>
      <trkpt lat="45.13763" lon="4.44377">
        <ele>1036.8</ele>
        <time>2026-05-01T06:51:57Z</time>
      </trkpt>
      <trkpt lat="45.13767" lon="4.4437">
        <ele>1037.7</ele>
        <time>2026-05-01T06:52:02Z</time>
      </trkpt>
      <trkpt lat="45.13773" lon="4.44365">
        <ele>1037.5</ele>
        <time>2026-05-01T06:52:07Z</time>
      </trkpt>
      <trkpt lat="45.13779" lon="4.44359">
        <ele>1037.5</ele>
        <time>2026-05-01T06:52:12Z</time>
      </trkpt>
      <trkpt lat="45.13782" lon="4.44354">
        <ele>1038</ele>
        <time>2026-05-01T06:52:17Z</time>
      </trkpt>
      <trkpt lat="45.13789" lon="4.4435">
        <ele>1037.2</ele>
        <time>2026-05-01T06:52:22Z</time>
      </trkpt>
      <trkpt lat="45.13797" lon="4.44343">
        <ele>1036.8</ele>
        <time>2026-05-01T06:52:27Z</time>
      </trkpt>
      <trkpt lat="45.13804" lon="4.44335">
        <ele>1037</ele>
        <time>2026-05-01T06:52:32Z</time>
      </trkpt>
      <trkpt lat="45.1381" lon="4.44327">
        <ele>1037.3</ele>
        <time>2026-05-01T06:52:37Z</time>
      </trkpt>
      <trkpt lat="45.13816" lon="4.44318">
        <ele>1037.7</ele>
        <time>2026-05-01T06:52:42Z</time>
      </trkpt>
      <trkpt lat="45.13819" lon="4.44311">
        <ele>1038.6</ele>
        <time>2026-05-01T06:52:47Z</time>
      </trkpt>
      <trkpt lat="45.13823" lon="4.44304">
        <ele>1039.2</ele>
        <time>2026-05-01T06:52:52Z</time>
      </trkpt>
      <trkpt lat="45.13826" lon="4.44294">
        <ele>1040.9</ele>
        <time>2026-05-01T06:52:57Z</time>
      </trkpt>
      <trkpt lat="45.13831" lon="4.44288">
        <ele>1041.1</ele>
        <time>2026-05-01T06:53:02Z</time>
      </trkpt>
      <trkpt lat="45.13836" lon="4.44282">
        <ele>1040.9</ele>
        <time>2026-05-01T06:53:07Z</time>
      </trkpt>
      <trkpt lat="45.1384" lon="4.44274">
        <ele>1041.2</ele>
        <time>2026-05-01T06:53:12Z</time>
      </trkpt>
      <trkpt lat="45.13846" lon="4.44265">
        <ele>1040.9</ele>
        <time>2026-05-01T06:53:17Z</time>
      </trkpt>
      <trkpt lat="45.13849" lon="4.44258">
        <ele>1041.2</ele>
        <time>2026-05-01T06:53:22Z</time>
      </trkpt>
      <trkpt lat="45.13852" lon="4.4425">
        <ele>1041.7</ele>
        <time>2026-05-01T06:53:27Z</time>
      </trkpt>
      <trkpt lat="45.13855" lon="4.44245">
        <ele>1041.2</ele>
        <time>2026-05-01T06:53:32Z</time>
      </trkpt>
      <trkpt lat="45.1386" lon="4.44243">
        <ele>1039.3</ele>
        <time>2026-05-01T06:53:37Z</time>
      </trkpt>
      <trkpt lat="45.13861" lon="4.44243">
        <ele>1038.8</ele>
        <time>2026-05-01T06:53:42Z</time>
      </trkpt>
      <trkpt lat="45.13861" lon="4.44243">
        <ele>1038.8</ele>
        <time>2026-05-01T06:53:47Z</time>
      </trkpt>
      <trkpt lat="45.13861" lon="4.44243">
        <ele>1038.8</ele>
        <time>2026-05-01T06:53:52Z</time>
      </trkpt>
      <trkpt lat="45.13861" lon="4.44243">
        <ele>1038.8</ele>
        <time>2026-05-01T06:53:57Z</time>
      </trkpt>
      <trkpt lat="45.13861" lon="4.44243">
        <ele>1038.8</ele>
        <time>2026-05-01T06:54:02Z</time>
      </trkpt>
      <trkpt lat="45.13861" lon="4.44243">
        <ele>1038.8</ele>
        <time>2026-05-01T06:54:07Z</time>
      </trkpt>
      <trkpt lat="45.13861" lon="4.44243">
        <ele>1038.8</ele>
        <time>2026-05-01T06:54:12Z</time>
      </trkpt>
      <trkpt lat="45.13861" lon="4.44243">
        <ele>1038.8</ele>
        <time>2026-05-01T06:54:17Z</time>
      </trkpt>
      <trkpt lat="45.13864" lon="4.44255">
        <ele>1035.4</ele>
        <time>2026-05-01T06:54:22Z</time>
      </trkpt>
      <trkpt lat="45.13867" lon="4.44263">
        <ele>1032.5</ele>
        <time>2026-05-01T06:54:27Z</time>
      </trkpt>
      <trkpt lat="45.13871" lon="4.4427">
        <ele>1029.4</ele>
        <time>2026-05-01T06:54:32Z</time>
      </trkpt>
      <trkpt lat="45.13873" lon="4.44277">
        <ele>1027.3</ele>
        <time>2026-05-01T06:54:37Z</time>
      </trkpt>
      <trkpt lat="45.13876" lon="4.44282">
        <ele>1025.2</ele>
        <time>2026-05-01T06:54:42Z</time>
      </trkpt>
      <trkpt lat="45.13877" lon="4.44288">
        <ele>1023.7</ele>
        <time>2026-05-01T06:54:47Z</time>
      </trkpt>
      <trkpt lat="45.13879" lon="4.44295">
        <ele>1021.6</ele>
        <time>2026-05-01T06:54:52Z</time>
      </trkpt>
      <trkpt lat="45.13881" lon="4.443">
        <ele>1020</ele>
        <time>2026-05-01T06:54:57Z</time>
      </trkpt>
      <trkpt lat="45.13883" lon="4.44305">
        <ele>1018.4</ele>
        <time>2026-05-01T06:55:02Z</time>
      </trkpt>
      <trkpt lat="45.13885" lon="4.4431">
        <ele>1016.9</ele>
        <time>2026-05-01T06:55:07Z</time>
      </trkpt>
      <trkpt lat="45.13886" lon="4.44315">
        <ele>1015.7</ele>
        <time>2026-05-01T06:55:12Z</time>
      </trkpt>
      <trkpt lat="45.13888" lon="4.44318">
        <ele>1014.5</ele>
        <time>2026-05-01T06:55:17Z</time>
      </trkpt>
      <trkpt lat="45.13889" lon="4.44321">
        <ele>1013.7</ele>
        <time>2026-05-01T06:55:22Z</time>
      </trkpt>
      <trkpt lat="45.13888" lon="4.44328">
        <ele>1012.8</ele>
        <time>2026-05-01T06:55:27Z</time>
      </trkpt>
      <trkpt lat="45.13888" lon="4.44333">
        <ele>1012</ele>
        <time>2026-05-01T06:55:32Z</time>
      </trkpt>
      <trkpt lat="45.1389" lon="4.44338">
        <ele>1010.5</ele>
        <time>2026-05-01T06:55:37Z</time>
      </trkpt>
      <trkpt lat="45.13893" lon="4.44343">
        <ele>1008.7</ele>
        <time>2026-05-01T06:55:42Z</time>
      </trkpt>
      <trkpt lat="45.13893" lon="4.44348">
        <ele>1007.9</ele>
        <time>2026-05-01T06:55:47Z</time>
      </trkpt>
      <trkpt lat="45.13893" lon="4.44353">
        <ele>1007.1</ele>
        <time>2026-05-01T06:55:52Z</time>
      </trkpt>
      <trkpt lat="45.13893" lon="4.44359">
        <ele>1006</ele>
        <time>2026-05-01T06:55:57Z</time>
      </trkpt>
      <trkpt lat="45.13892" lon="4.44366">
        <ele>1005.1</ele>
        <time>2026-05-01T06:56:02Z</time>
      </trkpt>
      <trkpt lat="45.13892" lon="4.44371">
        <ele>1004.3</ele>
        <time>2026-05-01T06:56:07Z</time>
      </trkpt>
      <trkpt lat="45.13895" lon="4.44377">
        <ele>1002.5</ele>
        <time>2026-05-01T06:56:12Z</time>
      </trkpt>
      <trkpt lat="45.13896" lon="4.44383">
        <ele>1001.3</ele>
        <time>2026-05-01T06:56:17Z</time>
      </trkpt>
      <trkpt lat="45.13896" lon="4.44386">
        <ele>1000.8</ele>
        <time>2026-05-01T06:56:22Z</time>
      </trkpt>
      <trkpt lat="45.13898" lon="4.44391">
        <ele>999.5</ele>
        <time>2026-05-01T06:56:27Z</time>
      </trkpt>
      <trkpt lat="45.13901" lon="4.44394">
        <ele>998.4</ele>
        <time>2026-05-01T06:56:32Z</time>
      </trkpt>
      <trkpt lat="45.13901" lon="4.44394">
        <ele>998.4</ele>
        <time>2026-05-01T06:56:37Z</time>
      </trkpt>
      <trkpt lat="45.13901" lon="4.44394">
        <ele>998.4</ele>
        <time>2026-05-01T06:56:42Z</time>
      </trkpt>
      <trkpt lat="45.13901" lon="4.44394">
        <ele>998.4</ele>
        <time>2026-05-01T06:56:47Z</time>
      </trkpt>
      <trkpt lat="45.13901" lon="4.44394">
        <ele>998.4</ele>
        <time>2026-05-01T06:56:52Z</time>
      </trkpt>
      <trkpt lat="45.13901" lon="4.44394">
        <ele>998.4</ele>
        <time>2026-05-01T06:56:57Z</time>
      </trkpt>
      <trkpt lat="45.13901" lon="4.44394">
        <ele>998.4</ele>
        <time>2026-05-01T06:57:02Z</time>
      </trkpt>
      <trkpt lat="45.13901" lon="4.44394">
        <ele>998.4</ele>
        <time>2026-05-01T06:57:07Z</time>
      </trkpt>
      <trkpt lat="45.13901" lon="4.44394">
        <ele>998.4</ele>
        <time>2026-05-01T06:57:12Z</time>
      </trkpt>
      <trkpt lat="45.13901" lon="4.44394">
        <ele>998.4</ele>
        <time>2026-05-01T06:57:17Z</time>
      </trkpt>
      <trkpt lat="45.13901" lon="4.44394">
        <ele>998.4</ele>
        <time>2026-05-01T06:57:22Z</time>
      </trkpt>
      <trkpt lat="45.13901" lon="4.44394">
        <ele>998.4</ele>
        <time>2026-05-01T06:57:27Z</time>
      </trkpt>
      <trkpt lat="45.139" lon="4.44406">
        <ele>996.7</ele>
        <time>2026-05-01T06:57:32Z</time>
      </trkpt>
      <trkpt lat="45.139" lon="4.44406">
        <ele>996.7</ele>
        <time>2026-05-01T06:57:37Z</time>
      </trkpt>
      <trkpt lat="45.139" lon="4.44406">
        <ele>996.7</ele>
        <time>2026-05-01T06:57:42Z</time>
      </trkpt>
      <trkpt lat="45.139" lon="4.44415">
        <ele>995.3</ele>
        <time>2026-05-01T06:57:47Z</time>
      </trkpt>
      <trkpt lat="45.13903" lon="4.44422">
        <ele>994.1</ele>
        <time>2026-05-01T06:57:52Z</time>
      </trkpt>
      <trkpt lat="45.13905" lon="4.44428">
        <ele>993.4</ele>
        <time>2026-05-01T06:57:57Z</time>
      </trkpt>
      <trkpt lat="45.13907" lon="4.44434">
        <ele>992.8</ele>
        <time>2026-05-01T06:58:02Z</time>
      </trkpt>
      <trkpt lat="45.1391" lon="4.44438">
        <ele>992.1</ele>
        <time>2026-05-01T06:58:07Z</time>
      </trkpt>
      <trkpt lat="45.13914" lon="4.4444">
        <ele>991.5</ele>
        <time>2026-05-01T06:58:12Z</time>
      </trkpt>
      <trkpt lat="45.13919" lon="4.44442">
        <ele>991.8</ele>
        <time>2026-05-01T06:58:17Z</time>
      </trkpt>
      <trkpt lat="45.13924" lon="4.44444">
        <ele>993.3</ele>
        <time>2026-05-01T06:58:22Z</time>
      </trkpt>
      <trkpt lat="45.13928" lon="4.44447">
        <ele>994.5</ele>
        <time>2026-05-01T06:58:27Z</time>
      </trkpt>
      <trkpt lat="45.13931" lon="4.44448">
        <ele>995.4</ele>
        <time>2026-05-01T06:58:32Z</time>
      </trkpt>
      <trkpt lat="45.13934" lon="4.44446">
        <ele>996.4</ele>
        <time>2026-05-01T06:58:37Z</time>
      </trkpt>
      <trkpt lat="45.13936" lon="4.44448">
        <ele>997</ele>
        <time>2026-05-01T06:58:42Z</time>
      </trkpt>
      <trkpt lat="45.1394" lon="4.44452">
        <ele>998.1</ele>
        <time>2026-05-01T06:58:47Z</time>
      </trkpt>
      <trkpt lat="45.13945" lon="4.44456">
        <ele>999.6</ele>
        <time>2026-05-01T06:58:52Z</time>
      </trkpt>
      <trkpt lat="45.13949" lon="4.4446">
        <ele>1000.7</ele>
        <time>2026-05-01T06:58:57Z</time>
      </trkpt>
      <trkpt lat="45.13953" lon="4.44465">
        <ele>1001.8</ele>
        <time>2026-05-01T06:59:02Z</time>
      </trkpt>
      <trkpt lat="45.13956" lon="4.44469">
        <ele>1002.7</ele>
        <time>2026-05-01T06:59:07Z</time>
      </trkpt>
      <trkpt lat="45.13958" lon="4.44474">
        <ele>1003.2</ele>
        <time>2026-05-01T06:59:12Z</time>
      </trkpt>
      <trkpt lat="45.1396" lon="4.44479">
        <ele>1003.7</ele>
        <time>2026-05-01T06:59:17Z</time>
      </trkpt>
      <trkpt lat="45.13963" lon="4.44484">
        <ele>1004.5</ele>
        <time>2026-05-01T06:59:22Z</time>
      </trkpt>
      <trkpt lat="45.1396" lon="4.44489">
        <ele>1003.4</ele>
        <time>2026-05-01T06:59:27Z</time>
      </trkpt>
      <trkpt lat="45.13955" lon="4.44492">
        <ele>1001.7</ele>
        <time>2026-05-01T06:59:32Z</time>
      </trkpt>
      <trkpt lat="45.13951" lon="4.44493">
        <ele>1000.3</ele>
        <time>2026-05-01T06:59:37Z</time>
      </trkpt>
      <trkpt lat="45.13947" lon="4.44497">
        <ele>998.9</ele>
        <time>2026-05-01T06:59:42Z</time>
      </trkpt>
      <trkpt lat="45.13943" lon="4.44502">
        <ele>997.8</ele>
        <time>2026-05-01T06:59:47Z</time>
      </trkpt>
      <trkpt lat="45.13938" lon="4.44504">
        <ele>996.5</ele>
        <time>2026-05-01T06:59:52Z</time>
      </trkpt>
      <trkpt lat="45.13934" lon="4.44506">
        <ele>995.5</ele>
        <time>2026-05-01T06:59:57Z</time>
      </trkpt>
      <trkpt lat="45.13927" lon="4.4451">
        <ele>993.8</ele>
        <time>2026-05-01T07:00:02Z</time>
      </trkpt>
      <trkpt lat="45.1392" lon="4.44516">
        <ele>992.2</ele>
        <time>2026-05-01T07:00:07Z</time>
      </trkpt>
      <trkpt lat="45.13914" lon="4.44523">
        <ele>991.8</ele>
        <time>2026-05-01T07:00:12Z</time>
      </trkpt>
      <trkpt lat="45.13911" lon="4.44529">
        <ele>992.3</ele>
        <time>2026-05-01T07:00:17Z</time>
      </trkpt>
      <trkpt lat="45.13906" lon="4.44537">
        <ele>992.5</ele>
        <time>2026-05-01T07:00:22Z</time>
      </trkpt>
      <trkpt lat="45.13902" lon="4.44545">
        <ele>992.7</ele>
        <time>2026-05-01T07:00:27Z</time>
      </trkpt>
      <trkpt lat="45.13897" lon="4.44552">
        <ele>992.3</ele>
        <time>2026-05-01T07:00:32Z</time>
      </trkpt>
      <trkpt lat="45.13894" lon="4.4456">
        <ele>992.2</ele>
        <time>2026-05-01T07:00:37Z</time>
      </trkpt>
      <trkpt lat="45.13891" lon="4.44568">
        <ele>991.9</ele>
        <time>2026-05-01T07:00:42Z</time>
      </trkpt>
      <trkpt lat="45.13887" lon="4.44575">
        <ele>991.2</ele>
        <time>2026-05-01T07:00:47Z</time>
      </trkpt>
      <trkpt lat="45.13886" lon="4.44581">
        <ele>991.1</ele>
        <time>2026-05-01T07:00:52Z</time>
      </trkpt>
      <trkpt lat="45.13885" lon="4.44588">
        <ele>991.4</ele>
        <time>2026-05-01T07:00:57Z</time>
      </trkpt>
      <trkpt lat="45.13883" lon="4.44593">
        <ele>991.4</ele>
        <time>2026-05-01T07:01:02Z</time>
      </trkpt>
      <trkpt lat="45.1388" lon="4.446">
        <ele>991.2</ele>
        <time>2026-05-01T07:01:07Z</time>
      </trkpt>
      <trkpt lat="45.13879" lon="4.44608">
        <ele>991.8</ele>
        <time>2026-05-01T07:01:12Z</time>
      </trkpt>
      <trkpt lat="45.13878" lon="4.44613">
        <ele>992</ele>
        <time>2026-05-01T07:01:17Z</time>
      </trkpt>
      <trkpt lat="45.13876" lon="4.44621">
        <ele>992.2</ele>
        <time>2026-05-01T07:01:22Z</time>
      </trkpt>
      <trkpt lat="45.13873" lon="4.44629">
        <ele>992</ele>
        <time>2026-05-01T07:01:27Z</time>
      </trkpt>
      <trkpt lat="45.13871" lon="4.44635">
        <ele>991.9</ele>
        <time>2026-05-01T07:01:32Z</time>
      </trkpt>
      <trkpt lat="45.13869" lon="4.44642">
        <ele>991.9</ele>
        <time>2026-05-01T07:01:37Z</time>
      </trkpt>
      <trkpt lat="45.13866" lon="4.44651">
        <ele>991.7</ele>
        <time>2026-05-01T07:01:42Z</time>
      </trkpt>
      <trkpt lat="45.13864" lon="4.44658">
        <ele>991.6</ele>
        <time>2026-05-01T07:01:47Z</time>
      </trkpt>
      <trkpt lat="45.13864" lon="4.44664">
        <ele>992.2</ele>
        <time>2026-05-01T07:01:52Z</time>
      </trkpt>
      <trkpt lat="45.13864" lon="4.44669">
        <ele>992.6</ele>
        <time>2026-05-01T07:01:57Z</time>
      </trkpt>
      <trkpt lat="45.13863" lon="4.44675">
        <ele>992.6</ele>
        <time>2026-05-01T07:02:02Z</time>
      </trkpt>
      <trkpt lat="45.13862" lon="4.44681">
        <ele>992.6</ele>
        <time>2026-05-01T07:02:07Z</time>
      </trkpt>
      <trkpt lat="45.13861" lon="4.44688">
        <ele>992.7</ele>
        <time>2026-05-01T07:02:12Z</time>
      </trkpt>
      <trkpt lat="45.13861" lon="4.44695">
        <ele>993.2</ele>
        <time>2026-05-01T07:02:17Z</time>
      </trkpt>
      <trkpt lat="45.13862" lon="4.447">
        <ele>993.9</ele>
        <time>2026-05-01T07:02:22Z</time>
      </trkpt>
      <trkpt lat="45.13865" lon="4.44702">
        <ele>995.2</ele>
        <time>2026-05-01T07:02:27Z</time>
      </trkpt>
      <trkpt lat="45.13865" lon="4.44702">
        <ele>995.2</ele>
        <time>2026-05-01T07:02:32Z</time>
      </trkpt>
      <trkpt lat="45.13865" lon="4.44702">
        <ele>995.2</ele>
        <time>2026-05-01T07:02:37Z</time>
      </trkpt>
      <trkpt lat="45.13865" lon="4.44702">
        <ele>995.2</ele>
        <time>2026-05-01T07:02:42Z</time>
      </trkpt>
      <trkpt lat="45.13865" lon="4.44702">
        <ele>995.2</ele>
        <time>2026-05-01T07:02:47Z</time>
      </trkpt>
      <trkpt lat="45.13863" lon="4.447">
        <ele>994.3</ele>
        <time>2026-05-01T07:02:52Z</time>
      </trkpt>
      <trkpt lat="45.1386" lon="4.44702">
        <ele>993.3</ele>
        <time>2026-05-01T07:02:57Z</time>
      </trkpt>
      <trkpt lat="45.13858" lon="4.44706">
        <ele>992.9</ele>
        <time>2026-05-01T07:03:02Z</time>
      </trkpt>
      <trkpt lat="45.13856" lon="4.44707">
        <ele>992.2</ele>
        <time>2026-05-01T07:03:07Z</time>
      </trkpt>
      <trkpt lat="45.13854" lon="4.44708">
        <ele>991.5</ele>
        <time>2026-05-01T07:03:12Z</time>
      </trkpt>
      <trkpt lat="45.13849" lon="4.44712">
        <ele>990</ele>
        <time>2026-05-01T07:03:17Z</time>
      </trkpt>
      <trkpt lat="45.13844" lon="4.44717">
        <ele>988.5</ele>
        <time>2026-05-01T07:03:22Z</time>
      </trkpt>
      <trkpt lat="45.13841" lon="4.44721">
        <ele>987.7</ele>
        <time>2026-05-01T07:03:27Z</time>
      </trkpt>
      <trkpt lat="45.13839" lon="4.44727">
        <ele>987.4</ele>
        <time>2026-05-01T07:03:32Z</time>
      </trkpt>
      <trkpt lat="45.13837" lon="4.44731">
        <ele>987</ele>
        <time>2026-05-01T07:03:37Z</time>
      </trkpt>
      <trkpt lat="45.13833" lon="4.44738">
        <ele>986</ele>
        <time>2026-05-01T07:03:42Z</time>
      </trkpt>
      <trkpt lat="45.13832" lon="4.44746">
        <ele>986.3</ele>
        <time>2026-05-01T07:03:47Z</time>
      </trkpt>
      <trkpt lat="45.13833" lon="4.44756">
        <ele>986.6</ele>
        <time>2026-05-01T07:03:52Z</time>
      </trkpt>
      <trkpt lat="45.13835" lon="4.44764">
        <ele>986.9</ele>
        <time>2026-05-01T07:03:57Z</time>
      </trkpt>
      <trkpt lat="45.13838" lon="4.44771">
        <ele>987.6</ele>
        <time>2026-05-01T07:04:02Z</time>
      </trkpt>
      <trkpt lat="45.13842" lon="4.44778">
        <ele>988.5</ele>
        <time>2026-05-01T07:04:07Z</time>
      </trkpt>
      <trkpt lat="45.13846" lon="4.44783">
        <ele>989.5</ele>
        <time>2026-05-01T07:04:12Z</time>
      </trkpt>
      <trkpt lat="45.13848" lon="4.44786">
        <ele>989.9</ele>
        <time>2026-05-01T07:04:17Z</time>
      </trkpt>
      <trkpt lat="45.1385" lon="4.44792">
        <ele>990.2</ele>
        <time>2026-05-01T07:04:22Z</time>
      </trkpt>
      <trkpt lat="45.1385" lon="4.44802">
        <ele>989.5</ele>
        <time>2026-05-01T07:04:27Z</time>
      </trkpt>
      <trkpt lat="45.13852" lon="4.44807">
        <ele>989.8</ele>
        <time>2026-05-01T07:04:32Z</time>
      </trkpt>
      <trkpt lat="45.13854" lon="4.44807">
        <ele>990.3</ele>
        <time>2026-05-01T07:04:37Z</time>
      </trkpt>
      <trkpt lat="45.13854" lon="4.44807">
        <ele>990.3</ele>
        <time>2026-05-01T07:04:42Z</time>
      </trkpt>
      <trkpt lat="45.13854" lon="4.44807">
        <ele>990.3</ele>
        <time>2026-05-01T07:04:47Z</time>
      </trkpt>
      <trkpt lat="45.13854" lon="4.44819">
        <ele>989.5</ele>
        <time>2026-05-01T07:04:52Z</time>
      </trkpt>
      <trkpt lat="45.13855" lon="4.44826">
        <ele>989.3</ele>
        <time>2026-05-01T07:04:57Z</time>
      </trkpt>
      <trkpt lat="45.13857" lon="4.4483">
        <ele>989.5</ele>
        <time>2026-05-01T07:05:02Z</time>
      </trkpt>
      <trkpt lat="45.13858" lon="4.44834">
        <ele>989.6</ele>
        <time>2026-05-01T07:05:07Z</time>
      </trkpt>
      <trkpt lat="45.13859" lon="4.44838">
        <ele>990.2</ele>
        <time>2026-05-01T07:05:12Z</time>
      </trkpt>
      <trkpt lat="45.1386" lon="4.44839">
        <ele>990.6</ele>
        <time>2026-05-01T07:05:17Z</time>
      </trkpt>
      <trkpt lat="45.1386" lon="4.44839">
        <ele>990.6</ele>
        <time>2026-05-01T07:05:22Z</time>
      </trkpt>
      <trkpt lat="45.1386" lon="4.44839">
        <ele>990.6</ele>
        <time>2026-05-01T07:05:27Z</time>
      </trkpt>
      <trkpt lat="45.1386" lon="4.44839">
        <ele>990.6</ele>
        <time>2026-05-01T07:05:32Z</time>
      </trkpt>
      <trkpt lat="45.1386" lon="4.44839">
        <ele>990.6</ele>
        <time>2026-05-01T07:05:37Z</time>
      </trkpt>
      <trkpt lat="45.1386" lon="4.44839">
        <ele>990.6</ele>
        <time>2026-05-01T07:05:42Z</time>
      </trkpt>
      <trkpt lat="45.1386" lon="4.44839">
        <ele>990.6</ele>
        <time>2026-05-01T07:05:47Z</time>
      </trkpt>
      <trkpt lat="45.1386" lon="4.44839">
        <ele>990.6</ele>
        <time>2026-05-01T07:05:52Z</time>
      </trkpt>
      <trkpt lat="45.1386" lon="4.44839">
        <ele>990.6</ele>
        <time>2026-05-01T07:05:57Z</time>
      </trkpt>
      <trkpt lat="45.1386" lon="4.44839">
        <ele>990.6</ele>
        <time>2026-05-01T07:06:02Z</time>
      </trkpt>
      <trkpt lat="45.1386" lon="4.44839">
        <ele>990.6</ele>
        <time>2026-05-01T07:06:07Z</time>
      </trkpt>
      <trkpt lat="45.1386" lon="4.44839">
        <ele>990.6</ele>
        <time>2026-05-01T07:06:12Z</time>
      </trkpt>
      <trkpt lat="45.1386" lon="4.44839">
        <ele>990.6</ele>
        <time>2026-05-01T07:06:17Z</time>
      </trkpt>
      <trkpt lat="45.1386" lon="4.44839">
        <ele>990.6</ele>
        <time>2026-05-01T07:06:22Z</time>
      </trkpt>
      <trkpt lat="45.1386" lon="4.44839">
        <ele>990.6</ele>
        <time>2026-05-01T07:06:27Z</time>
      </trkpt>
      <trkpt lat="45.1386" lon="4.44839">
        <ele>990.6</ele>
        <time>2026-05-01T07:06:32Z</time>
      </trkpt>
      <trkpt lat="45.1386" lon="4.44839">
        <ele>990.6</ele>
        <time>2026-05-01T07:06:37Z</time>
      </trkpt>
      <trkpt lat="45.1386" lon="4.44839">
        <ele>990.6</ele>
        <time>2026-05-01T07:06:42Z</time>
      </trkpt>
      <trkpt lat="45.1386" lon="4.44839">
        <ele>990.6</ele>
        <time>2026-05-01T07:06:47Z</time>
      </trkpt>
      <trkpt lat="45.1386" lon="4.44839">
        <ele>990.6</ele>
        <time>2026-05-01T07:06:52Z</time>
      </trkpt>
      <trkpt lat="45.1386" lon="4.44839">
        <ele>990.6</ele>
        <time>2026-05-01T07:06:57Z</time>
      </trkpt>
      <trkpt lat="45.1386" lon="4.44839">
        <ele>990.6</ele>
        <time>2026-05-01T07:07:02Z</time>
      </trkpt>
      <trkpt lat="45.1386" lon="4.44839">
        <ele>990.6</ele>
        <time>2026-05-01T07:07:07Z</time>
      </trkpt>
      <trkpt lat="45.1386" lon="4.44839">
        <ele>990.6</ele>
        <time>2026-05-01T07:07:12Z</time>
      </trkpt>
      <trkpt lat="45.1386" lon="4.44839">
        <ele>990.6</ele>
        <time>2026-05-01T07:07:17Z</time>
      </trkpt>
      <trkpt lat="45.1386" lon="4.44839">
        <ele>990.6</ele>
        <time>2026-05-01T07:07:22Z</time>
      </trkpt>
      <trkpt lat="45.1386" lon="4.44839">
        <ele>990.6</ele>
        <time>2026-05-01T07:07:27Z</time>
      </trkpt>
      <trkpt lat="45.1386" lon="4.44839">
        <ele>990.6</ele>
        <time>2026-05-01T07:07:32Z</time>
      </trkpt>
      <trkpt lat="45.1386" lon="4.44839">
        <ele>990.6</ele>
        <time>2026-05-01T07:07:37Z</time>
      </trkpt>
      <trkpt lat="45.1386" lon="4.44839">
        <ele>990.6</ele>
        <time>2026-05-01T07:07:42Z</time>
      </trkpt>
      <trkpt lat="45.1386" lon="4.44839">
        <ele>990.6</ele>
        <time>2026-05-01T07:07:47Z</time>
      </trkpt>
      <trkpt lat="45.1386" lon="4.44839">
        <ele>990.6</ele>
        <time>2026-05-01T07:07:52Z</time>
      </trkpt>
      <trkpt lat="45.1386" lon="4.44839">
        <ele>990.6</ele>
        <time>2026-05-01T07:07:57Z</time>
      </trkpt>
      <trkpt lat="45.1386" lon="4.44839">
        <ele>990.6</ele>
        <time>2026-05-01T07:08:02Z</time>
      </trkpt>
      <trkpt lat="45.1386" lon="4.44839">
        <ele>990.6</ele>
        <time>2026-05-01T07:08:07Z</time>
      </trkpt>
      <trkpt lat="45.1386" lon="4.44839">
        <ele>990.6</ele>
        <time>2026-05-01T07:08:12Z</time>
      </trkpt>
      <trkpt lat="45.1386" lon="4.44839">
        <ele>990.6</ele>
        <time>2026-05-01T07:08:17Z</time>
      </trkpt>
      <trkpt lat="45.1386" lon="4.44839">
        <ele>990.6</ele>
        <time>2026-05-01T07:08:22Z</time>
      </trkpt>
      <trkpt lat="45.1386" lon="4.44839">
        <ele>990.6</ele>
        <time>2026-05-01T07:08:27Z</time>
      </trkpt>
      <trkpt lat="45.13863" lon="4.44846">
        <ele>991.9</ele>
        <time>2026-05-01T07:08:32Z</time>
      </trkpt>
      <trkpt lat="45.13866" lon="4.44854">
        <ele>993.2</ele>
        <time>2026-05-01T07:08:37Z</time>
      </trkpt>
      <trkpt lat="45.13867" lon="4.44859">
        <ele>993.8</ele>
        <time>2026-05-01T07:08:42Z</time>
      </trkpt>
      <trkpt lat="45.13866" lon="4.44862">
        <ele>993.9</ele>
        <time>2026-05-01T07:08:47Z</time>
      </trkpt>
      <trkpt lat="45.13866" lon="4.44862">
        <ele>993.9</ele>
        <time>2026-05-01T07:08:52Z</time>
      </trkpt>
      <trkpt lat="45.13866" lon="4.44862">
        <ele>993.9</ele>
        <time>2026-05-01T07:08:57Z</time>
      </trkpt>
      <trkpt lat="45.13866" lon="4.44862">
        <ele>993.9</ele>
        <time>2026-05-01T07:09:02Z</time>
      </trkpt>
      <trkpt lat="45.13866" lon="4.44862">
        <ele>993.9</ele>
        <time>2026-05-01T07:09:07Z</time>
      </trkpt>
      <trkpt lat="45.13866" lon="4.44862">
        <ele>993.9</ele>
        <time>2026-05-01T07:09:12Z</time>
      </trkpt>
      <trkpt lat="45.13866" lon="4.44862">
        <ele>993.9</ele>
        <time>2026-05-01T07:09:17Z</time>
      </trkpt>
      <trkpt lat="45.13868" lon="4.44865">
        <ele>994.5</ele>
        <time>2026-05-01T07:09:22Z</time>
      </trkpt>
      <trkpt lat="45.1387" lon="4.44865">
        <ele>994.9</ele>
        <time>2026-05-01T07:09:27Z</time>
      </trkpt>
      <trkpt lat="45.13872" lon="4.44869">
        <ele>995.6</ele>
        <time>2026-05-01T07:09:32Z</time>
      </trkpt>
      <trkpt lat="45.13873" lon="4.44872">
        <ele>995.9</ele>
        <time>2026-05-01T07:09:37Z</time>
      </trkpt>
      <trkpt lat="45.13876" lon="4.44876">
        <ele>996.7</ele>
        <time>2026-05-01T07:09:42Z</time>
      </trkpt>
      <trkpt lat="45.13879" lon="4.44879">
        <ele>997.4</ele>
        <time>2026-05-01T07:09:47Z</time>
      </trkpt>
      <trkpt lat="45.1388" lon="4.44885">
        <ele>997.9</ele>
        <time>2026-05-01T07:09:52Z</time>
      </trkpt>
      <trkpt lat="45.13882" lon="4.44891">
        <ele>998.5</ele>
        <time>2026-05-01T07:09:57Z</time>
      </trkpt>
      <trkpt lat="45.13884" lon="4.44898">
        <ele>999.1</ele>
        <time>2026-05-01T07:10:02Z</time>
      </trkpt>
      <trkpt lat="45.13886" lon="4.44903">
        <ele>999.5</ele>
        <time>2026-05-01T07:10:07Z</time>
      </trkpt>
      <trkpt lat="45.13888" lon="4.44907">
        <ele>999.9</ele>
        <time>2026-05-01T07:10:12Z</time>
      </trkpt>
      <trkpt lat="45.1389" lon="4.4491">
        <ele>1000.2</ele>
        <time>2026-05-01T07:10:17Z</time>
      </trkpt>
      <trkpt lat="45.13891" lon="4.44908">
        <ele>1000.3</ele>
        <time>2026-05-01T07:10:22Z</time>
      </trkpt>
      <trkpt lat="45.13891" lon="4.44908">
        <ele>1000.3</ele>
        <time>2026-05-01T07:10:27Z</time>
      </trkpt>
      <trkpt lat="45.13896" lon="4.44916">
        <ele>1001</ele>
        <time>2026-05-01T07:10:32Z</time>
      </trkpt>
      <trkpt lat="45.13898" lon="4.44922">
        <ele>1002.3</ele>
        <time>2026-05-01T07:10:37Z</time>
      </trkpt>
      <trkpt lat="45.13901" lon="4.44925">
        <ele>1003.2</ele>
        <time>2026-05-01T07:10:42Z</time>
      </trkpt>
      <trkpt lat="45.13902" lon="4.44927">
        <ele>1003.8</ele>
        <time>2026-05-01T07:10:47Z</time>
      </trkpt>
      <trkpt lat="45.13902" lon="4.44927">
        <ele>1003.8</ele>
        <time>2026-05-01T07:10:52Z</time>
      </trkpt>
      <trkpt lat="45.13902" lon="4.44927">
        <ele>1003.8</ele>
        <time>2026-05-01T07:10:57Z</time>
      </trkpt>
      <trkpt lat="45.13902" lon="4.44927">
        <ele>1003.8</ele>
        <time>2026-05-01T07:11:02Z</time>
      </trkpt>
      <trkpt lat="45.13902" lon="4.44927">
        <ele>1003.8</ele>
        <time>2026-05-01T07:11:07Z</time>
      </trkpt>
      <trkpt lat="45.13902" lon="4.44927">
        <ele>1003.8</ele>
        <time>2026-05-01T07:11:12Z</time>
      </trkpt>
      <trkpt lat="45.13902" lon="4.44927">
        <ele>1003.8</ele>
        <time>2026-05-01T07:11:17Z</time>
      </trkpt>
      <trkpt lat="45.13902" lon="4.44927">
        <ele>1003.8</ele>
        <time>2026-05-01T07:11:22Z</time>
      </trkpt>
      <trkpt lat="45.13902" lon="4.44927">
        <ele>1003.8</ele>
        <time>2026-05-01T07:11:27Z</time>
      </trkpt>
      <trkpt lat="45.13902" lon="4.44927">
        <ele>1003.8</ele>
        <time>2026-05-01T07:11:32Z</time>
      </trkpt>
      <trkpt lat="45.13902" lon="4.44927">
        <ele>1003.8</ele>
        <time>2026-05-01T07:11:37Z</time>
      </trkpt>
      <trkpt lat="45.13902" lon="4.44927">
        <ele>1003.8</ele>
        <time>2026-05-01T07:11:42Z</time>
      </trkpt>
      <trkpt lat="45.13902" lon="4.44927">
        <ele>1003.8</ele>
        <time>2026-05-01T07:11:47Z</time>
      </trkpt>
      <trkpt lat="45.13902" lon="4.44927">
        <ele>1003.8</ele>
        <time>2026-05-01T07:11:52Z</time>
      </trkpt>
      <trkpt lat="45.13903" lon="4.44932">
        <ele>1004.9</ele>
        <time>2026-05-01T07:11:57Z</time>
      </trkpt>
      <trkpt lat="45.13905" lon="4.44937">
        <ele>1006.1</ele>
        <time>2026-05-01T07:12:02Z</time>
      </trkpt>
      <trkpt lat="45.13908" lon="4.44942">
        <ele>1007.3</ele>
        <time>2026-05-01T07:12:07Z</time>
      </trkpt>
      <trkpt lat="45.1391" lon="4.44946">
        <ele>1008.2</ele>
        <time>2026-05-01T07:12:12Z</time>
      </trkpt>
      <trkpt lat="45.1391" lon="4.44948">
        <ele>1008.6</ele>
        <time>2026-05-01T07:12:17Z</time>
      </trkpt>
      <trkpt lat="45.1391" lon="4.44948">
        <ele>1008.6</ele>
        <time>2026-05-01T07:12:22Z</time>
      </trkpt>
      <trkpt lat="45.1391" lon="4.44948">
        <ele>1008.6</ele>
        <time>2026-05-01T07:12:27Z</time>
      </trkpt>
      <trkpt lat="45.13914" lon="4.44954">
        <ele>1010</ele>
        <time>2026-05-01T07:12:32Z</time>
      </trkpt>
      <trkpt lat="45.13915" lon="4.44957">
        <ele>1010.7</ele>
        <time>2026-05-01T07:12:37Z</time>
      </trkpt>
      <trkpt lat="45.13917" lon="4.44961">
        <ele>1011.6</ele>
        <time>2026-05-01T07:12:42Z</time>
      </trkpt>
      <trkpt lat="45.13919" lon="4.44965">
        <ele>1012.9</ele>
        <time>2026-05-01T07:12:47Z</time>
      </trkpt>
      <trkpt lat="45.1392" lon="4.4497">
        <ele>1014.1</ele>
        <time>2026-05-01T07:12:52Z</time>
      </trkpt>
      <trkpt lat="45.13922" lon="4.44973">
        <ele>1015.2</ele>
        <time>2026-05-01T07:12:57Z</time>
      </trkpt>
      <trkpt lat="45.13923" lon="4.44976">
        <ele>1016</ele>
        <time>2026-05-01T07:13:02Z</time>
      </trkpt>
      <trkpt lat="45.13926" lon="4.44979">
        <ele>1017.3</ele>
        <time>2026-05-01T07:13:07Z</time>
      </trkpt>
      <trkpt lat="45.13928" lon="4.44983">
        <ele>1018.5</ele>
        <time>2026-05-01T07:13:12Z</time>
      </trkpt>
      <trkpt lat="45.1393" lon="4.44988">
        <ele>1019.9</ele>
        <time>2026-05-01T07:13:17Z</time>
      </trkpt>
      <trkpt lat="45.13932" lon="4.44989">
        <ele>1020.5</ele>
        <time>2026-05-01T07:13:22Z</time>
      </trkpt>
      <trkpt lat="45.13933" lon="4.44991">
        <ele>1021.1</ele>
        <time>2026-05-01T07:13:27Z</time>
      </trkpt>
      <trkpt lat="45.13933" lon="4.44991">
        <ele>1021.1</ele>
        <time>2026-05-01T07:13:32Z</time>
      </trkpt>
      <trkpt lat="45.13935" lon="4.44999">
        <ele>1022.8</ele>
        <time>2026-05-01T07:13:37Z</time>
      </trkpt>
      <trkpt lat="45.13937" lon="4.45002">
        <ele>1024</ele>
        <time>2026-05-01T07:13:42Z</time>
      </trkpt>
      <trkpt lat="45.13938" lon="4.45005">
        <ele>1025</ele>
        <time>2026-05-01T07:13:47Z</time>
      </trkpt>
      <trkpt lat="45.1394" lon="4.45009">
        <ele>1026.5</ele>
        <time>2026-05-01T07:13:52Z</time>
      </trkpt>
      <trkpt lat="45.13941" lon="4.45014">
        <ele>1028.1</ele>
        <time>2026-05-01T07:13:57Z</time>
      </trkpt>
      <trkpt lat="45.13943" lon="4.45017">
        <ele>1029.3</ele>
        <time>2026-05-01T07:14:02Z</time>
      </trkpt>
      <trkpt lat="45.13944" lon="4.45022">
        <ele>1030.8</ele>
        <time>2026-05-01T07:14:07Z</time>
      </trkpt>
      <trkpt lat="45.13945" lon="4.45026">
        <ele>1032.1</ele>
        <time>2026-05-01T07:14:12Z</time>
      </trkpt>
      <trkpt lat="45.13947" lon="4.4503">
        <ele>1033.4</ele>
        <time>2026-05-01T07:14:17Z</time>
      </trkpt>
      <trkpt lat="45.1395" lon="4.45035">
        <ele>1035.2</ele>
        <time>2026-05-01T07:14:22Z</time>
      </trkpt>
      <trkpt lat="45.13951" lon="4.4504">
        <ele>1036.6</ele>
        <time>2026-05-01T07:14:27Z</time>
      </trkpt>
      <trkpt lat="45.13952" lon="4.45046">
        <ele>1038.3</ele>
        <time>2026-05-01T07:14:32Z</time>
      </trkpt>
      <trkpt lat="45.13953" lon="4.45052">
        <ele>1039.9</ele>
        <time>2026-05-01T07:14:37Z</time>
      </trkpt>
      <trkpt lat="45.13955" lon="4.45057">
        <ele>1041.3</ele>
        <time>2026-05-01T07:14:42Z</time>
      </trkpt>
      <trkpt lat="45.13957" lon="4.45062">
        <ele>1042.8</ele>
        <time>2026-05-01T07:14:47Z</time>
      </trkpt>
      <trkpt lat="45.13959" lon="4.45066">
        <ele>1043.9</ele>
        <time>2026-05-01T07:14:52Z</time>
      </trkpt>
      <trkpt lat="45.1396" lon="4.45071">
        <ele>1045.2</ele>
        <time>2026-05-01T07:14:57Z</time>
      </trkpt>
      <trkpt lat="45.13962" lon="4.45075">
        <ele>1046.2</ele>
        <time>2026-05-01T07:15:02Z</time>
      </trkpt>
      <trkpt lat="45.13964" lon="4.45077">
        <ele>1046.8</ele>
        <time>2026-05-01T07:15:07Z</time>
      </trkpt>
      <trkpt lat="45.13964" lon="4.45079">
        <ele>1047.3</ele>
        <time>2026-05-01T07:15:12Z</time>
      </trkpt>
      <trkpt lat="45.13967" lon="4.45083">
        <ele>1048.3</ele>
        <time>2026-05-01T07:15:17Z</time>
      </trkpt>
      <trkpt lat="45.13969" lon="4.45088">
        <ele>1049.6</ele>
        <time>2026-05-01T07:15:22Z</time>
      </trkpt>
      <trkpt lat="45.13971" lon="4.45091">
        <ele>1050.4</ele>
        <time>2026-05-01T07:15:27Z</time>
      </trkpt>
      <trkpt lat="45.13974" lon="4.45093">
        <ele>1051</ele>
        <time>2026-05-01T07:15:32Z</time>
      </trkpt>
      <trkpt lat="45.13976" lon="4.45097">
        <ele>1052</ele>
        <time>2026-05-01T07:15:37Z</time>
      </trkpt>
      <trkpt lat="45.13978" lon="4.45102">
        <ele>1053.2</ele>
        <time>2026-05-01T07:15:42Z</time>
      </trkpt>
      <trkpt lat="45.13979" lon="4.45104">
        <ele>1053.7</ele>
        <time>2026-05-01T07:15:47Z</time>
      </trkpt>
      <trkpt lat="45.13979" lon="4.45104">
        <ele>1053.7</ele>
        <time>2026-05-01T07:15:52Z</time>
      </trkpt>
      <trkpt lat="45.13979" lon="4.45104">
        <ele>1053.7</ele>
        <time>2026-05-01T07:15:57Z</time>
      </trkpt>
      <trkpt lat="45.13977" lon="4.45109">
        <ele>1054.8</ele>
        <time>2026-05-01T07:16:02Z</time>
      </trkpt>
      <trkpt lat="45.13977" lon="4.45115">
        <ele>1056.2</ele>
        <time>2026-05-01T07:16:07Z</time>
      </trkpt>
      <trkpt lat="45.13976" lon="4.45123">
        <ele>1058</ele>
        <time>2026-05-01T07:16:12Z</time>
      </trkpt>
      <trkpt lat="45.13975" lon="4.45128">
        <ele>1059.2</ele>
        <time>2026-05-01T07:16:17Z</time>
      </trkpt>
      <trkpt lat="45.13975" lon="4.45134">
        <ele>1060.6</ele>
        <time>2026-05-01T07:16:22Z</time>
      </trkpt>
      <trkpt lat="45.13975" lon="4.4514">
        <ele>1062</ele>
        <time>2026-05-01T07:16:27Z</time>
      </trkpt>
      <trkpt lat="45.13974" lon="4.45144">
        <ele>1062.9</ele>
        <time>2026-05-01T07:16:32Z</time>
      </trkpt>
      <trkpt lat="45.13973" lon="4.45149">
        <ele>1064.1</ele>
        <time>2026-05-01T07:16:37Z</time>
      </trkpt>
      <trkpt lat="45.1397" lon="4.45149">
        <ele>1064.2</ele>
        <time>2026-05-01T07:16:42Z</time>
      </trkpt>
      <trkpt lat="45.13966" lon="4.45147">
        <ele>1063.8</ele>
        <time>2026-05-01T07:16:47Z</time>
      </trkpt>
      <trkpt lat="45.13961" lon="4.45141">
        <ele>1062.5</ele>
        <time>2026-05-01T07:16:52Z</time>
      </trkpt>
      <trkpt lat="45.13957" lon="4.45141">
        <ele>1062.6</ele>
        <time>2026-05-01T07:16:57Z</time>
      </trkpt>
      <trkpt lat="45.13957" lon="4.45141">
        <ele>1062.6</ele>
        <time>2026-05-01T07:17:02Z</time>
      </trkpt>
      <trkpt lat="45.13957" lon="4.45141">
        <ele>1062.6</ele>
        <time>2026-05-01T07:17:07Z</time>
      </trkpt>
      <trkpt lat="45.13957" lon="4.45141">
        <ele>1062.6</ele>
        <time>2026-05-01T07:17:12Z</time>
      </trkpt>
      <trkpt lat="45.13957" lon="4.45141">
        <ele>1062.6</ele>
        <time>2026-05-01T07:17:17Z</time>
      </trkpt>
      <trkpt lat="45.13957" lon="4.45141">
        <ele>1062.6</ele>
        <time>2026-05-01T07:17:22Z</time>
      </trkpt>
      <trkpt lat="45.13957" lon="4.45141">
        <ele>1062.6</ele>
        <time>2026-05-01T07:17:27Z</time>
      </trkpt>
      <trkpt lat="45.13957" lon="4.45141">
        <ele>1062.6</ele>
        <time>2026-05-01T07:17:32Z</time>
      </trkpt>
      <trkpt lat="45.13957" lon="4.45141">
        <ele>1062.6</ele>
        <time>2026-05-01T07:17:37Z</time>
      </trkpt>
      <trkpt lat="45.13957" lon="4.45141">
        <ele>1062.6</ele>
        <time>2026-05-01T07:17:42Z</time>
      </trkpt>
      <trkpt lat="45.13957" lon="4.45141">
        <ele>1062.6</ele>
        <time>2026-05-01T07:17:47Z</time>
      </trkpt>
      <trkpt lat="45.13957" lon="4.45141">
        <ele>1062.6</ele>
        <time>2026-05-01T07:17:52Z</time>
      </trkpt>
      <trkpt lat="45.13957" lon="4.45141">
        <ele>1062.6</ele>
        <time>2026-05-01T07:17:57Z</time>
      </trkpt>
      <trkpt lat="45.13957" lon="4.45141">
        <ele>1062.6</ele>
        <time>2026-05-01T07:18:02Z</time>
      </trkpt>
      <trkpt lat="45.13957" lon="4.45141">
        <ele>1062.6</ele>
        <time>2026-05-01T07:18:07Z</time>
      </trkpt>
      <trkpt lat="45.13957" lon="4.45141">
        <ele>1062.6</ele>
        <time>2026-05-01T07:18:12Z</time>
      </trkpt>
      <trkpt lat="45.13957" lon="4.45141">
        <ele>1062.6</ele>
        <time>2026-05-01T07:18:17Z</time>
      </trkpt>
      <trkpt lat="45.13957" lon="4.45141">
        <ele>1062.6</ele>
        <time>2026-05-01T07:18:22Z</time>
      </trkpt>
      <trkpt lat="45.13957" lon="4.45141">
        <ele>1062.6</ele>
        <time>2026-05-01T07:18:27Z</time>
      </trkpt>
      <trkpt lat="45.13948" lon="4.45139">
        <ele>1062.2</ele>
        <time>2026-05-01T07:18:32Z</time>
      </trkpt>
      <trkpt lat="45.13942" lon="4.45135">
        <ele>1061.2</ele>
        <time>2026-05-01T07:18:37Z</time>
      </trkpt>
      <trkpt lat="45.13936" lon="4.45133">
        <ele>1060.7</ele>
        <time>2026-05-01T07:18:42Z</time>
      </trkpt>
      <trkpt lat="45.13929" lon="4.45132">
        <ele>1060.5</ele>
        <time>2026-05-01T07:18:47Z</time>
      </trkpt>
      <trkpt lat="45.13923" lon="4.4513">
        <ele>1060</ele>
        <time>2026-05-01T07:18:52Z</time>
      </trkpt>
      <trkpt lat="45.13917" lon="4.45127">
        <ele>1059.1</ele>
        <time>2026-05-01T07:18:57Z</time>
      </trkpt>
      <trkpt lat="45.13909" lon="4.45124">
        <ele>1058.4</ele>
        <time>2026-05-01T07:19:02Z</time>
      </trkpt>
      <trkpt lat="45.13902" lon="4.45122">
        <ele>1058</ele>
        <time>2026-05-01T07:19:07Z</time>
      </trkpt>
      <trkpt lat="45.13897" lon="4.45119">
        <ele>1057.3</ele>
        <time>2026-05-01T07:19:12Z</time>
      </trkpt>
      <trkpt lat="45.1389" lon="4.45115">
        <ele>1056.3</ele>
        <time>2026-05-01T07:19:17Z</time>
      </trkpt>
      <trkpt lat="45.13881" lon="4.45112">
        <ele>1055.6</ele>
        <time>2026-05-01T07:19:22Z</time>
      </trkpt>
      <trkpt lat="45.13875" lon="4.4511">
        <ele>1055.2</ele>
        <time>2026-05-01T07:19:27Z</time>
      </trkpt>
      <trkpt lat="45.13867" lon="4.45106">
        <ele>1054.2</ele>
        <time>2026-05-01T07:19:32Z</time>
      </trkpt>
      <trkpt lat="45.13861" lon="4.45104">
        <ele>1053.7</ele>
        <time>2026-05-01T07:19:37Z</time>
      </trkpt>
      <trkpt lat="45.13856" lon="4.45106">
        <ele>1054.5</ele>
        <time>2026-05-01T07:19:42Z</time>
      </trkpt>
      <trkpt lat="45.13845" lon="4.45098">
        <ele>1052.3</ele>
        <time>2026-05-01T07:19:47Z</time>
      </trkpt>
      <trkpt lat="45.13836" lon="4.45093">
        <ele>1050.9</ele>
        <time>2026-05-01T07:19:52Z</time>
      </trkpt>
      <trkpt lat="45.13829" lon="4.4509">
        <ele>1050.2</ele>
        <time>2026-05-01T07:19:57Z</time>
      </trkpt>
      <trkpt lat="45.13823" lon="4.45088">
        <ele>1049.7</ele>
        <time>2026-05-01T07:20:02Z</time>
      </trkpt>
      <trkpt lat="45.13815" lon="4.45087">
        <ele>1049.5</ele>
        <time>2026-05-01T07:20:07Z</time>
      </trkpt>
      <trkpt lat="45.13808" lon="4.45087">
        <ele>1049.7</ele>
        <time>2026-05-01T07:20:12Z</time>
      </trkpt>
      <trkpt lat="45.138" lon="4.45086">
        <ele>1049.6</ele>
        <time>2026-05-01T07:20:17Z</time>
      </trkpt>
      <trkpt lat="45.13793" lon="4.45084">
        <ele>1049.2</ele>
        <time>2026-05-01T07:20:22Z</time>
      </trkpt>
      <trkpt lat="45.13784" lon="4.45086">
        <ele>1049.9</ele>
        <time>2026-05-01T07:20:27Z</time>
      </trkpt>
      <trkpt lat="45.13776" lon="4.45084">
        <ele>1049.6</ele>
        <time>2026-05-01T07:20:32Z</time>
      </trkpt>
      <trkpt lat="45.13767" lon="4.45084">
        <ele>1049.8</ele>
        <time>2026-05-01T07:20:37Z</time>
      </trkpt>
      <trkpt lat="45.13763" lon="4.45086">
        <ele>1050.4</ele>
        <time>2026-05-01T07:20:42Z</time>
      </trkpt>
      <trkpt lat="45.13752" lon="4.45082">
        <ele>1049.5</ele>
        <time>2026-05-01T07:20:47Z</time>
      </trkpt>
      <trkpt lat="45.13737" lon="4.45077">
        <ele>1049.1</ele>
        <time>2026-05-01T07:20:52Z</time>
      </trkpt>
      <trkpt lat="45.13728" lon="4.45073">
        <ele>1048.7</ele>
        <time>2026-05-01T07:20:57Z</time>
      </trkpt>
      <trkpt lat="45.13721" lon="4.45073">
        <ele>1049.3</ele>
        <time>2026-05-01T07:21:02Z</time>
      </trkpt>
      <trkpt lat="45.13714" lon="4.45072">
        <ele>1049.6</ele>
        <time>2026-05-01T07:21:07Z</time>
      </trkpt>
      <trkpt lat="45.13706" lon="4.45071">
        <ele>1050.1</ele>
        <time>2026-05-01T07:21:12Z</time>
      </trkpt>
      <trkpt lat="45.13697" lon="4.45069">
        <ele>1050.4</ele>
        <time>2026-05-01T07:21:17Z</time>
      </trkpt>
      <trkpt lat="45.13689" lon="4.45068">
        <ele>1050.8</ele>
        <time>2026-05-01T07:21:22Z</time>
      </trkpt>
      <trkpt lat="45.1368" lon="4.45066">
        <ele>1051.1</ele>
        <time>2026-05-01T07:21:27Z</time>
      </trkpt>
      <trkpt lat="45.13673" lon="4.45063">
        <ele>1051</ele>
        <time>2026-05-01T07:21:32Z</time>
      </trkpt>
      <trkpt lat="45.13666" lon="4.45059">
        <ele>1050.6</ele>
        <time>2026-05-01T07:21:37Z</time>
      </trkpt>
      <trkpt lat="45.13658" lon="4.45057">
        <ele>1050.3</ele>
        <time>2026-05-01T07:21:42Z</time>
      </trkpt>
      <trkpt lat="45.13651" lon="4.45052">
        <ele>1049.3</ele>
        <time>2026-05-01T07:21:47Z</time>
      </trkpt>
      <trkpt lat="45.13643" lon="4.45044">
        <ele>1047.8</ele>
        <time>2026-05-01T07:21:52Z</time>
      </trkpt>
      <trkpt lat="45.13638" lon="4.45039">
        <ele>1047</ele>
        <time>2026-05-01T07:21:57Z</time>
      </trkpt>
      <trkpt lat="45.13632" lon="4.45033">
        <ele>1046.1</ele>
        <time>2026-05-01T07:22:02Z</time>
      </trkpt>
      <trkpt lat="45.13626" lon="4.45026">
        <ele>1045.1</ele>
        <time>2026-05-01T07:22:07Z</time>
      </trkpt>
      <trkpt lat="45.1362" lon="4.45021">
        <ele>1044.6</ele>
        <time>2026-05-01T07:22:12Z</time>
      </trkpt>
      <trkpt lat="45.13611" lon="4.45014">
        <ele>1044.1</ele>
        <time>2026-05-01T07:22:17Z</time>
      </trkpt>
      <trkpt lat="45.13605" lon="4.45008">
        <ele>1043.7</ele>
        <time>2026-05-01T07:22:22Z</time>
      </trkpt>
      <trkpt lat="45.13597" lon="4.45002">
        <ele>1043.7</ele>
        <time>2026-05-01T07:22:27Z</time>
      </trkpt>
      <trkpt lat="45.1359" lon="4.44999">
        <ele>1043.9</ele>
        <time>2026-05-01T07:22:32Z</time>
      </trkpt>
      <trkpt lat="45.13583" lon="4.44997">
        <ele>1044.2</ele>
        <time>2026-05-01T07:22:37Z</time>
      </trkpt>
      <trkpt lat="45.13575" lon="4.44993">
        <ele>1043.8</ele>
        <time>2026-05-01T07:22:42Z</time>
      </trkpt>
      <trkpt lat="45.13567" lon="4.4499">
        <ele>1043.6</ele>
        <time>2026-05-01T07:22:47Z</time>
      </trkpt>
      <trkpt lat="45.13559" lon="4.44987">
        <ele>1043.4</ele>
        <time>2026-05-01T07:22:52Z</time>
      </trkpt>
      <trkpt lat="45.13551" lon="4.44985">
        <ele>1043.5</ele>
        <time>2026-05-01T07:22:57Z</time>
      </trkpt>
      <trkpt lat="45.13547" lon="4.44978">
        <ele>1042</ele>
        <time>2026-05-01T07:23:02Z</time>
      </trkpt>
      <trkpt lat="45.13547" lon="4.44978">
        <ele>1042</ele>
        <time>2026-05-01T07:23:07Z</time>
      </trkpt>
      <trkpt lat="45.13547" lon="4.44978">
        <ele>1042</ele>
        <time>2026-05-01T07:23:12Z</time>
      </trkpt>
      <trkpt lat="45.13547" lon="4.44978">
        <ele>1042</ele>
        <time>2026-05-01T07:23:17Z</time>
      </trkpt>
      <trkpt lat="45.13555" lon="4.44979">
        <ele>1041.7</ele>
        <time>2026-05-01T07:23:22Z</time>
      </trkpt>
      <trkpt lat="45.13559" lon="4.44977">
        <ele>1040.8</ele>
        <time>2026-05-01T07:23:27Z</time>
      </trkpt>
      <trkpt lat="45.13566" lon="4.44977">
        <ele>1040.3</ele>
        <time>2026-05-01T07:23:32Z</time>
      </trkpt>
      <trkpt lat="45.13573" lon="4.44976">
        <ele>1039.5</ele>
        <time>2026-05-01T07:23:37Z</time>
      </trkpt>
      <trkpt lat="45.13579" lon="4.44976">
        <ele>1039</ele>
        <time>2026-05-01T07:23:42Z</time>
      </trkpt>
      <trkpt lat="45.13587" lon="4.44976">
        <ele>1038.2</ele>
        <time>2026-05-01T07:23:47Z</time>
      </trkpt>
      <trkpt lat="45.13594" lon="4.44977">
        <ele>1037.5</ele>
        <time>2026-05-01T07:23:52Z</time>
      </trkpt>
      <trkpt lat="45.136" lon="4.44978">
        <ele>1036.9</ele>
        <time>2026-05-01T07:23:57Z</time>
      </trkpt>
      <trkpt lat="45.13606" lon="4.44979">
        <ele>1036.4</ele>
        <time>2026-05-01T07:24:02Z</time>
      </trkpt>
      <trkpt lat="45.13611" lon="4.44981">
        <ele>1036.3</ele>
        <time>2026-05-01T07:24:07Z</time>
      </trkpt>
      <trkpt lat="45.1362" lon="4.44984">
        <ele>1036</ele>
        <time>2026-05-01T07:24:12Z</time>
      </trkpt>
      <trkpt lat="45.1363" lon="4.4499">
        <ele>1036.4</ele>
        <time>2026-05-01T07:24:17Z</time>
      </trkpt>
      <trkpt lat="45.13639" lon="4.44995">
        <ele>1036.8</ele>
        <time>2026-05-01T07:24:22Z</time>
      </trkpt>
      <trkpt lat="45.13647" lon="4.45">
        <ele>1037.4</ele>
        <time>2026-05-01T07:24:27Z</time>
      </trkpt>
      <trkpt lat="45.13652" lon="4.45007">
        <ele>1038.4</ele>
        <time>2026-05-01T07:24:32Z</time>
      </trkpt>
      <trkpt lat="45.13658" lon="4.45015">
        <ele>1039.8</ele>
        <time>2026-05-01T07:24:37Z</time>
      </trkpt>
      <trkpt lat="45.13667" lon="4.45019">
        <ele>1040</ele>
        <time>2026-05-01T07:24:42Z</time>
      </trkpt>
      <trkpt lat="45.13677" lon="4.45017">
        <ele>1038.1</ele>
        <time>2026-05-01T07:24:47Z</time>
      </trkpt>
      <trkpt lat="45.13688" lon="4.45013">
        <ele>1035.6</ele>
        <time>2026-05-01T07:24:52Z</time>
      </trkpt>
      <trkpt lat="45.13698" lon="4.4501">
        <ele>1033.4</ele>
        <time>2026-05-01T07:24:57Z</time>
      </trkpt>
      <trkpt lat="45.13707" lon="4.45009">
        <ele>1031.8</ele>
        <time>2026-05-01T07:25:02Z</time>
      </trkpt>
      <trkpt lat="45.13714" lon="4.45009">
        <ele>1030.9</ele>
        <time>2026-05-01T07:25:07Z</time>
      </trkpt>
      <trkpt lat="45.13722" lon="4.45006">
        <ele>1028.9</ele>
        <time>2026-05-01T07:25:12Z</time>
      </trkpt>
      <trkpt lat="45.13733" lon="4.45005">
        <ele>1027</ele>
        <time>2026-05-01T07:25:17Z</time>
      </trkpt>
      <trkpt lat="45.13743" lon="4.45003">
        <ele>1025</ele>
        <time>2026-05-01T07:25:22Z</time>
      </trkpt>
      <trkpt lat="45.13753" lon="4.45001">
        <ele>1023.2</ele>
        <time>2026-05-01T07:25:27Z</time>
      </trkpt>
      <trkpt lat="45.13761" lon="4.44998">
        <ele>1021.9</ele>
        <time>2026-05-01T07:25:32Z</time>
      </trkpt>
      <trkpt lat="45.1377" lon="4.44994">
        <ele>1020.2</ele>
        <time>2026-05-01T07:25:37Z</time>
      </trkpt>
      <trkpt lat="45.13777" lon="4.44991">
        <ele>1019</ele>
        <time>2026-05-01T07:25:42Z</time>
      </trkpt>
      <trkpt lat="45.13787" lon="4.44988">
        <ele>1017.6</ele>
        <time>2026-05-01T07:25:47Z</time>
      </trkpt>
      <trkpt lat="45.13796" lon="4.44986">
        <ele>1016.6</ele>
        <time>2026-05-01T07:25:52Z</time>
      </trkpt>
      <trkpt lat="45.13804" lon="4.44984">
        <ele>1015.7</ele>
        <time>2026-05-01T07:25:57Z</time>
      </trkpt>
      <trkpt lat="45.13809" lon="4.44982">
        <ele>1014.9</ele>
        <time>2026-05-01T07:26:02Z</time>
      </trkpt>
      <trkpt lat="45.13816" lon="4.44983">
        <ele>1014.9</ele>
        <time>2026-05-01T07:26:07Z</time>
      </trkpt>
      <trkpt lat="45.13825" lon="4.44986">
        <ele>1015.3</ele>
        <time>2026-05-01T07:26:12Z</time>
      </trkpt>
      <trkpt lat="45.13834" lon="4.44986">
        <ele>1015</ele>
        <time>2026-05-01T07:26:17Z</time>
      </trkpt>
      <trkpt lat="45.13842" lon="4.44987">
        <ele>1015.4</ele>
        <time>2026-05-01T07:26:22Z</time>
      </trkpt>
      <trkpt lat="45.1385" lon="4.44987">
        <ele>1015.5</ele>
        <time>2026-05-01T07:26:27Z</time>
      </trkpt>
      <trkpt lat="45.13856" lon="4.44982">
        <ele>1014.3</ele>
        <time>2026-05-01T07:26:32Z</time>
      </trkpt>
      <trkpt lat="45.13861" lon="4.44975">
        <ele>1012.6</ele>
        <time>2026-05-01T07:26:37Z</time>
      </trkpt>
      <trkpt lat="45.13862" lon="4.44964">
        <ele>1009.8</ele>
        <time>2026-05-01T07:26:42Z</time>
      </trkpt>
      <trkpt lat="45.13861" lon="4.44954">
        <ele>1007.2</ele>
        <time>2026-05-01T07:26:47Z</time>
      </trkpt>
      <trkpt lat="45.1386" lon="4.44943">
        <ele>1004.3</ele>
        <time>2026-05-01T07:26:52Z</time>
      </trkpt>
      <trkpt lat="45.1386" lon="4.44932">
        <ele>1001.5</ele>
        <time>2026-05-01T07:26:57Z</time>
      </trkpt>
      <trkpt lat="45.13859" lon="4.44922">
        <ele>998.8</ele>
        <time>2026-05-01T07:27:02Z</time>
      </trkpt>
      <trkpt lat="45.13858" lon="4.4491">
        <ele>996.7</ele>
        <time>2026-05-01T07:27:07Z</time>
      </trkpt>
      <trkpt lat="45.13855" lon="4.44902">
        <ele>995.6</ele>
        <time>2026-05-01T07:27:12Z</time>
      </trkpt>
      <trkpt lat="45.13848" lon="4.44904">
        <ele>995</ele>
        <time>2026-05-01T07:27:17Z</time>
      </trkpt>
      <trkpt lat="45.13846" lon="4.44914">
        <ele>995.9</ele>
        <time>2026-05-01T07:27:22Z</time>
      </trkpt>
      <trkpt lat="45.13845" lon="4.44925">
        <ele>998.4</ele>
        <time>2026-05-01T07:27:27Z</time>
      </trkpt>
      <trkpt lat="45.13844" lon="4.44935">
        <ele>1001.1</ele>
        <time>2026-05-01T07:27:32Z</time>
      </trkpt>
      <trkpt lat="45.1384" lon="4.44946">
        <ele>1003.9</ele>
        <time>2026-05-01T07:27:37Z</time>
      </trkpt>
      <trkpt lat="45.13831" lon="4.44953">
        <ele>1005.5</ele>
        <time>2026-05-01T07:27:42Z</time>
      </trkpt>
      <trkpt lat="45.13824" lon="4.44951">
        <ele>1005.2</ele>
        <time>2026-05-01T07:27:47Z</time>
      </trkpt>
      <trkpt lat="45.13817" lon="4.44947">
        <ele>1004.3</ele>
        <time>2026-05-01T07:27:52Z</time>
      </trkpt>
      <trkpt lat="45.13811" lon="4.44943">
        <ele>1003.3</ele>
        <time>2026-05-01T07:27:57Z</time>
      </trkpt>
      <trkpt lat="45.13803" lon="4.4494">
        <ele>1002.7</ele>
        <time>2026-05-01T07:28:02Z</time>
      </trkpt>
      <trkpt lat="45.13794" lon="4.44937">
        <ele>1002</ele>
        <time>2026-05-01T07:28:07Z</time>
      </trkpt>
      <trkpt lat="45.13787" lon="4.44932">
        <ele>1000.7</ele>
        <time>2026-05-01T07:28:12Z</time>
      </trkpt>
      <trkpt lat="45.13779" lon="4.44929">
        <ele>1000</ele>
        <time>2026-05-01T07:28:17Z</time>
      </trkpt>
      <trkpt lat="45.13772" lon="4.44925">
        <ele>999</ele>
        <time>2026-05-01T07:28:22Z</time>
      </trkpt>
      <trkpt lat="45.13766" lon="4.44922">
        <ele>998.3</ele>
        <time>2026-05-01T07:28:27Z</time>
      </trkpt>
      <trkpt lat="45.13758" lon="4.44922">
        <ele>998.5</ele>
        <time>2026-05-01T07:28:32Z</time>
      </trkpt>
      <trkpt lat="45.1375" lon="4.4492">
        <ele>998</ele>
        <time>2026-05-01T07:28:37Z</time>
      </trkpt>
      <trkpt lat="45.13743" lon="4.4492">
        <ele>999</ele>
        <time>2026-05-01T07:28:42Z</time>
      </trkpt>
      <trkpt lat="45.13736" lon="4.44918">
        <ele>999.3</ele>
        <time>2026-05-01T07:28:47Z</time>
      </trkpt>
      <trkpt lat="45.13728" lon="4.44916">
        <ele>999.7</ele>
        <time>2026-05-01T07:28:52Z</time>
      </trkpt>
      <trkpt lat="45.1372" lon="4.44915">
        <ele>1000.5</ele>
        <time>2026-05-01T07:28:57Z</time>
      </trkpt>
      <trkpt lat="45.13712" lon="4.44914">
        <ele>1001.2</ele>
        <time>2026-05-01T07:29:02Z</time>
      </trkpt>
      <trkpt lat="45.13703" lon="4.44912">
        <ele>1001.8</ele>
        <time>2026-05-01T07:29:07Z</time>
      </trkpt>
      <trkpt lat="45.13695" lon="4.44911">
        <ele>1002.6</ele>
        <time>2026-05-01T07:29:12Z</time>
      </trkpt>
      <trkpt lat="45.13689" lon="4.44905">
        <ele>1001.5</ele>
        <time>2026-05-01T07:29:17Z</time>
      </trkpt>
      <trkpt lat="45.13681" lon="4.44898">
        <ele>1000.4</ele>
        <time>2026-05-01T07:29:22Z</time>
      </trkpt>
      <trkpt lat="45.13676" lon="4.44892">
        <ele>999.2</ele>
        <time>2026-05-01T07:29:27Z</time>
      </trkpt>
      <trkpt lat="45.13674" lon="4.44889">
        <ele>998.5</ele>
        <time>2026-05-01T07:29:32Z</time>
      </trkpt>
      <trkpt lat="45.13674" lon="4.44887">
        <ele>997.9</ele>
        <time>2026-05-01T07:29:37Z</time>
      </trkpt>
      <trkpt lat="45.13671" lon="4.44883">
        <ele>997</ele>
        <time>2026-05-01T07:29:42Z</time>
      </trkpt>
      <trkpt lat="45.13664" lon="4.44879">
        <ele>996.7</ele>
        <time>2026-05-01T07:29:47Z</time>
      </trkpt>
      <trkpt lat="45.13657" lon="4.44875">
        <ele>996.5</ele>
        <time>2026-05-01T07:29:52Z</time>
      </trkpt>
      <trkpt lat="45.1365" lon="4.44871">
        <ele>996.3</ele>
        <time>2026-05-01T07:29:57Z</time>
      </trkpt>
      <trkpt lat="45.13645" lon="4.44864">
        <ele>994.8</ele>
        <time>2026-05-01T07:30:02Z</time>
      </trkpt>
      <trkpt lat="45.13639" lon="4.4486">
        <ele>994.4</ele>
        <time>2026-05-01T07:30:07Z</time>
      </trkpt>
      <trkpt lat="45.13631" lon="4.44854">
        <ele>993.6</ele>
        <time>2026-05-01T07:30:12Z</time>
      </trkpt>
      <trkpt lat="45.13631" lon="4.44851">
        <ele>992.6</ele>
        <time>2026-05-01T07:30:17Z</time>
      </trkpt>
      <trkpt lat="45.1363" lon="4.44848">
        <ele>991.7</ele>
        <time>2026-05-01T07:30:22Z</time>
      </trkpt>
      <trkpt lat="45.13627" lon="4.44847">
        <ele>991.8</ele>
        <time>2026-05-01T07:30:27Z</time>
      </trkpt>
      <trkpt lat="45.1362" lon="4.44843">
        <ele>991.4</ele>
        <time>2026-05-01T07:30:32Z</time>
      </trkpt>
      <trkpt lat="45.13613" lon="4.4484">
        <ele>991.4</ele>
        <time>2026-05-01T07:30:37Z</time>
      </trkpt>
      <trkpt lat="45.13607" lon="4.44835">
        <ele>990.5</ele>
        <time>2026-05-01T07:30:42Z</time>
      </trkpt>
      <trkpt lat="45.136" lon="4.44829">
        <ele>989.1</ele>
        <time>2026-05-01T07:30:47Z</time>
      </trkpt>
      <trkpt lat="45.13593" lon="4.44824">
        <ele>988.1</ele>
        <time>2026-05-01T07:30:52Z</time>
      </trkpt>
      <trkpt lat="45.13586" lon="4.44819">
        <ele>987</ele>
        <time>2026-05-01T07:30:57Z</time>
      </trkpt>
      <trkpt lat="45.1358" lon="4.44818">
        <ele>987.1</ele>
        <time>2026-05-01T07:31:02Z</time>
      </trkpt>
      <trkpt lat="45.13574" lon="4.44817">
        <ele>987.1</ele>
        <time>2026-05-01T07:31:07Z</time>
      </trkpt>
      <trkpt lat="45.13567" lon="4.44814">
        <ele>986.3</ele>
        <time>2026-05-01T07:31:12Z</time>
      </trkpt>
      <trkpt lat="45.13561" lon="4.44811">
        <ele>985.5</ele>
        <time>2026-05-01T07:31:17Z</time>
      </trkpt>
      <trkpt lat="45.13554" lon="4.44807">
        <ele>984.2</ele>
        <time>2026-05-01T07:31:22Z</time>
      </trkpt>
      <trkpt lat="45.13548" lon="4.44804">
        <ele>983.3</ele>
        <time>2026-05-01T07:31:27Z</time>
      </trkpt>
      <trkpt lat="45.1354" lon="4.44798">
        <ele>981.2</ele>
        <time>2026-05-01T07:31:32Z</time>
      </trkpt>
      <trkpt lat="45.13532" lon="4.44796">
        <ele>980.8</ele>
        <time>2026-05-01T07:31:37Z</time>
      </trkpt>
      <trkpt lat="45.13524" lon="4.44793">
        <ele>979.9</ele>
        <time>2026-05-01T07:31:42Z</time>
      </trkpt>
      <trkpt lat="45.13517" lon="4.44786">
        <ele>977.2</ele>
        <time>2026-05-01T07:31:47Z</time>
      </trkpt>
      <trkpt lat="45.1351" lon="4.44782">
        <ele>975.8</ele>
        <time>2026-05-01T07:31:52Z</time>
      </trkpt>
      <trkpt lat="45.13503" lon="4.44779">
        <ele>974.8</ele>
        <time>2026-05-01T07:31:57Z</time>
      </trkpt>
      <trkpt lat="45.13496" lon="4.44775">
        <ele>972.7</ele>
        <time>2026-05-01T07:32:02Z</time>
      </trkpt>
      <trkpt lat="45.13488" lon="4.44769">
        <ele>969.1</ele>
        <time>2026-05-01T07:32:07Z</time>
      </trkpt>
      <trkpt lat="45.13479" lon="4.44763">
        <ele>965.5</ele>
        <time>2026-05-01T07:32:12Z</time>
      </trkpt>
      <trkpt lat="45.1347" lon="4.44756">
        <ele>961.4</ele>
        <time>2026-05-01T07:32:17Z</time>
      </trkpt>
      <trkpt lat="45.13462" lon="4.4475">
        <ele>957.9</ele>
        <time>2026-05-01T07:32:22Z</time>
      </trkpt>
      <trkpt lat="45.13455" lon="4.44751">
        <ele>957.6</ele>
        <time>2026-05-01T07:32:27Z</time>
      </trkpt>
      <trkpt lat="45.13448" lon="4.44751">
        <ele>956.8</ele>
        <time>2026-05-01T07:32:32Z</time>
      </trkpt>
      <trkpt lat="45.13443" lon="4.4475">
        <ele>955.8</ele>
        <time>2026-05-01T07:32:37Z</time>
      </trkpt>
      <trkpt lat="45.13434" lon="4.44744">
        <ele>952.7</ele>
        <time>2026-05-01T07:32:42Z</time>
      </trkpt>
      <trkpt lat="45.13425" lon="4.44737">
        <ele>949.1</ele>
        <time>2026-05-01T07:32:47Z</time>
      </trkpt>
      <trkpt lat="45.13415" lon="4.44733">
        <ele>946.3</ele>
        <time>2026-05-01T07:32:52Z</time>
      </trkpt>
      <trkpt lat="45.13408" lon="4.4473">
        <ele>943.5</ele>
        <time>2026-05-01T07:32:57Z</time>
      </trkpt>
      <trkpt lat="45.134" lon="4.44726">
        <ele>940</ele>
        <time>2026-05-01T07:33:02Z</time>
      </trkpt>
      <trkpt lat="45.13392" lon="4.44724">
        <ele>937.4</ele>
        <time>2026-05-01T07:33:07Z</time>
      </trkpt>
      <trkpt lat="45.13384" lon="4.44722">
        <ele>934.7</ele>
        <time>2026-05-01T07:33:12Z</time>
      </trkpt>
      <trkpt lat="45.13377" lon="4.4472">
        <ele>932.4</ele>
        <time>2026-05-01T07:33:17Z</time>
      </trkpt>
      <trkpt lat="45.1337" lon="4.4472">
        <ele>930.7</ele>
        <time>2026-05-01T07:33:22Z</time>
      </trkpt>
      <trkpt lat="45.13365" lon="4.44722">
        <ele>930.2</ele>
        <time>2026-05-01T07:33:27Z</time>
      </trkpt>
      <trkpt lat="45.13356" lon="4.44724">
        <ele>928.7</ele>
        <time>2026-05-01T07:33:32Z</time>
      </trkpt>
      <trkpt lat="45.13349" lon="4.44723">
        <ele>926.7</ele>
        <time>2026-05-01T07:33:37Z</time>
      </trkpt>
      <trkpt lat="45.13341" lon="4.44721">
        <ele>924.1</ele>
        <time>2026-05-01T07:33:42Z</time>
      </trkpt>
      <trkpt lat="45.13334" lon="4.44719">
        <ele>921.7</ele>
        <time>2026-05-01T07:33:47Z</time>
      </trkpt>
      <trkpt lat="45.13327" lon="4.44719">
        <ele>919.8</ele>
        <time>2026-05-01T07:33:52Z</time>
      </trkpt>
      <trkpt lat="45.1332" lon="4.44721">
        <ele>918.5</ele>
        <time>2026-05-01T07:33:57Z</time>
      </trkpt>
      <trkpt lat="45.1331" lon="4.44722">
        <ele>916</ele>
        <time>2026-05-01T07:34:02Z</time>
      </trkpt>
      <trkpt lat="45.133" lon="4.44726">
        <ele>914.4</ele>
        <time>2026-05-01T07:34:07Z</time>
      </trkpt>
      <trkpt lat="45.1329" lon="4.44728">
        <ele>912.2</ele>
        <time>2026-05-01T07:34:12Z</time>
      </trkpt>
      <trkpt lat="45.13281" lon="4.44732">
        <ele>910.8</ele>
        <time>2026-05-01T07:34:17Z</time>
      </trkpt>
      <trkpt lat="45.13273" lon="4.44736">
        <ele>909.7</ele>
        <time>2026-05-01T07:34:22Z</time>
      </trkpt>
      <trkpt lat="45.13268" lon="4.44738">
        <ele>908.8</ele>
        <time>2026-05-01T07:34:27Z</time>
      </trkpt>
      <trkpt lat="45.13257" lon="4.44739">
        <ele>905.9</ele>
        <time>2026-05-01T07:34:32Z</time>
      </trkpt>
      <trkpt lat="45.13248" lon="4.44743">
        <ele>904.3</ele>
        <time>2026-05-01T07:34:37Z</time>
      </trkpt>
      <trkpt lat="45.13241" lon="4.44747">
        <ele>903.1</ele>
        <time>2026-05-01T07:34:42Z</time>
      </trkpt>
      <trkpt lat="45.13232" lon="4.44751">
        <ele>901.1</ele>
        <time>2026-05-01T07:34:47Z</time>
      </trkpt>
      <trkpt lat="45.13224" lon="4.44755">
        <ele>899.6</ele>
        <time>2026-05-01T07:34:52Z</time>
      </trkpt>
      <trkpt lat="45.13217" lon="4.44758">
        <ele>898.2</ele>
        <time>2026-05-01T07:34:57Z</time>
      </trkpt>
      <trkpt lat="45.13208" lon="4.44764">
        <ele>897</ele>
        <time>2026-05-01T07:35:02Z</time>
      </trkpt>
      <trkpt lat="45.13199" lon="4.44768">
        <ele>895.2</ele>
        <time>2026-05-01T07:35:07Z</time>
      </trkpt>
      <trkpt lat="45.13191" lon="4.44774">
        <ele>894.3</ele>
        <time>2026-05-01T07:35:12Z</time>
      </trkpt>
      <trkpt lat="45.13183" lon="4.44778">
        <ele>892.8</ele>
        <time>2026-05-01T07:35:17Z</time>
      </trkpt>
      <trkpt lat="45.13176" lon="4.4478">
        <ele>891</ele>
        <time>2026-05-01T07:35:22Z</time>
      </trkpt>
      <trkpt lat="45.13168" lon="4.44786">
        <ele>890.1</ele>
        <time>2026-05-01T07:35:27Z</time>
      </trkpt>
      <trkpt lat="45.13162" lon="4.44792">
        <ele>889.9</ele>
        <time>2026-05-01T07:35:32Z</time>
      </trkpt>
      <trkpt lat="45.13155" lon="4.44796">
        <ele>888.4</ele>
        <time>2026-05-01T07:35:37Z</time>
      </trkpt>
      <trkpt lat="45.13149" lon="4.44803">
        <ele>888.1</ele>
        <time>2026-05-01T07:35:42Z</time>
      </trkpt>
      <trkpt lat="45.13143" lon="4.4481">
        <ele>887.6</ele>
        <time>2026-05-01T07:35:47Z</time>
      </trkpt>
      <trkpt lat="45.13135" lon="4.44813">
        <ele>885.1</ele>
        <time>2026-05-01T07:35:52Z</time>
      </trkpt>
      <trkpt lat="45.13127" lon="4.44817">
        <ele>882.6</ele>
        <time>2026-05-01T07:35:57Z</time>
      </trkpt>
      <trkpt lat="45.1312" lon="4.44824">
        <ele>881.1</ele>
        <time>2026-05-01T07:36:02Z</time>
      </trkpt>
      <trkpt lat="45.13113" lon="4.4483">
        <ele>879.2</ele>
        <time>2026-05-01T07:36:07Z</time>
      </trkpt>
      <trkpt lat="45.13104" lon="4.44837">
        <ele>876.3</ele>
        <time>2026-05-01T07:36:12Z</time>
      </trkpt>
      <trkpt lat="45.13097" lon="4.44841">
        <ele>873.7</ele>
        <time>2026-05-01T07:36:17Z</time>
      </trkpt>
      <trkpt lat="45.1309" lon="4.44847">
        <ele>871.5</ele>
        <time>2026-05-01T07:36:22Z</time>
      </trkpt>
      <trkpt lat="45.13083" lon="4.44854">
        <ele>869.4</ele>
        <time>2026-05-01T07:36:27Z</time>
      </trkpt>
      <trkpt lat="45.13076" lon="4.44859">
        <ele>868.1</ele>
        <time>2026-05-01T07:36:32Z</time>
      </trkpt>
      <trkpt lat="45.13068" lon="4.44866">
        <ele>866.6</ele>
        <time>2026-05-01T07:36:37Z</time>
      </trkpt>
      <trkpt lat="45.13061" lon="4.44874">
        <ele>865.4</ele>
        <time>2026-05-01T07:36:42Z</time>
      </trkpt>
      <trkpt lat="45.13054" lon="4.44883">
        <ele>864.1</ele>
        <time>2026-05-01T07:36:47Z</time>
      </trkpt>
      <trkpt lat="45.13047" lon="4.44893">
        <ele>862.7</ele>
        <time>2026-05-01T07:36:52Z</time>
      </trkpt>
      <trkpt lat="45.13044" lon="4.449">
        <ele>862.3</ele>
        <time>2026-05-01T07:36:57Z</time>
      </trkpt>
      <trkpt lat="45.13041" lon="4.44911">
        <ele>862.2</ele>
        <time>2026-05-01T07:37:02Z</time>
      </trkpt>
      <trkpt lat="45.13038" lon="4.44921">
        <ele>861.7</ele>
        <time>2026-05-01T07:37:07Z</time>
      </trkpt>
      <trkpt lat="45.13033" lon="4.44928">
        <ele>860</ele>
        <time>2026-05-01T07:37:12Z</time>
      </trkpt>
      <trkpt lat="45.13032" lon="4.44938">
        <ele>860</ele>
        <time>2026-05-01T07:37:17Z</time>
      </trkpt>
      <trkpt lat="45.1303" lon="4.44951">
        <ele>859.7</ele>
        <time>2026-05-01T07:37:22Z</time>
      </trkpt>
      <trkpt lat="45.13028" lon="4.44963">
        <ele>859.3</ele>
        <time>2026-05-01T07:37:27Z</time>
      </trkpt>
      <trkpt lat="45.13027" lon="4.44974">
        <ele>859.3</ele>
        <time>2026-05-01T07:37:32Z</time>
      </trkpt>
      <trkpt lat="45.13025" lon="4.44984">
        <ele>858.8</ele>
        <time>2026-05-01T07:37:37Z</time>
      </trkpt>
      <trkpt lat="45.13022" lon="4.44995">
        <ele>857.8</ele>
        <time>2026-05-01T07:37:42Z</time>
      </trkpt>
      <trkpt lat="45.13021" lon="4.45003">
        <ele>857.6</ele>
        <time>2026-05-01T07:37:47Z</time>
      </trkpt>
      <trkpt lat="45.13018" lon="4.45014">
        <ele>856.4</ele>
        <time>2026-05-01T07:37:52Z</time>
      </trkpt>
      <trkpt lat="45.13017" lon="4.45024">
        <ele>856</ele>
        <time>2026-05-01T07:37:57Z</time>
      </trkpt>
      <trkpt lat="45.13015" lon="4.45034">
        <ele>855.1</ele>
        <time>2026-05-01T07:38:02Z</time>
      </trkpt>
      <trkpt lat="45.1301" lon="4.45044">
        <ele>852.8</ele>
        <time>2026-05-01T07:38:07Z</time>
      </trkpt>
      <trkpt lat="45.13007" lon="4.45058">
        <ele>851.4</ele>
        <time>2026-05-01T07:38:12Z</time>
      </trkpt>
      <trkpt lat="45.13006" lon="4.45068">
        <ele>851</ele>
        <time>2026-05-01T07:38:17Z</time>
      </trkpt>
      <trkpt lat="45.13004" lon="4.45078">
        <ele>850</ele>
        <time>2026-05-01T07:38:22Z</time>
      </trkpt>
      <trkpt lat="45.13001" lon="4.45091">
        <ele>848.6</ele>
        <time>2026-05-01T07:38:27Z</time>
      </trkpt>
      <trkpt lat="45.13001" lon="4.45101">
        <ele>848.7</ele>
        <time>2026-05-01T07:38:32Z</time>
      </trkpt>
      <trkpt lat="45.13001" lon="4.45109">
        <ele>848.8</ele>
        <time>2026-05-01T07:38:37Z</time>
      </trkpt>
      <trkpt lat="45.13002" lon="4.45118">
        <ele>849.3</ele>
        <time>2026-05-01T07:38:42Z</time>
      </trkpt>
      <trkpt lat="45.13001" lon="4.45126">
        <ele>849</ele>
        <time>2026-05-01T07:38:47Z</time>
      </trkpt>
      <trkpt lat="45.13004" lon="4.45132">
        <ele>850.3</ele>
        <time>2026-05-01T07:38:52Z</time>
      </trkpt>
      <trkpt lat="45.13007" lon="4.45139">
        <ele>851.7</ele>
        <time>2026-05-01T07:38:57Z</time>
      </trkpt>
      <trkpt lat="45.13011" lon="4.45145">
        <ele>853.4</ele>
        <time>2026-05-01T07:39:02Z</time>
      </trkpt>
      <trkpt lat="45.13015" lon="4.45151">
        <ele>855.1</ele>
        <time>2026-05-01T07:39:07Z</time>
      </trkpt>
      <trkpt lat="45.13019" lon="4.45154">
        <ele>856.7</ele>
        <time>2026-05-01T07:39:12Z</time>
      </trkpt>
      <trkpt lat="45.13018" lon="4.45156">
        <ele>856.2</ele>
        <time>2026-05-01T07:39:17Z</time>
      </trkpt>
      <trkpt lat="45.13017" lon="4.45158">
        <ele>855.8</ele>
        <time>2026-05-01T07:39:22Z</time>
      </trkpt>
      <trkpt lat="45.13017" lon="4.45158">
        <ele>855.8</ele>
        <time>2026-05-01T07:39:27Z</time>
      </trkpt>
      <trkpt lat="45.13017" lon="4.45158">
        <ele>855.8</ele>
        <time>2026-05-01T07:39:32Z</time>
      </trkpt>
      <trkpt lat="45.13019" lon="4.45159">
        <ele>856.6</ele>
        <time>2026-05-01T07:39:37Z</time>
      </trkpt>
      <trkpt lat="45.13025" lon="4.45166">
        <ele>858.9</ele>
        <time>2026-05-01T07:39:42Z</time>
      </trkpt>
      <trkpt lat="45.1303" lon="4.45173">
        <ele>860.1</ele>
        <time>2026-05-01T07:39:47Z</time>
      </trkpt>
      <trkpt lat="45.13034" lon="4.4518">
        <ele>860.7</ele>
        <time>2026-05-01T07:39:52Z</time>
      </trkpt>
      <trkpt lat="45.13039" lon="4.45185">
        <ele>861.9</ele>
        <time>2026-05-01T07:39:57Z</time>
      </trkpt>
      <trkpt lat="45.13044" lon="4.4519">
        <ele>863</ele>
        <time>2026-05-01T07:40:02Z</time>
      </trkpt>
      <trkpt lat="45.13049" lon="4.45194">
        <ele>864.1</ele>
        <time>2026-05-01T07:40:07Z</time>
      </trkpt>
      <trkpt lat="45.13053" lon="4.452">
        <ele>864.5</ele>
        <time>2026-05-01T07:40:12Z</time>
      </trkpt>
      <trkpt lat="45.13058" lon="4.45205">
        <ele>865.4</ele>
        <time>2026-05-01T07:40:17Z</time>
      </trkpt>
      <trkpt lat="45.13066" lon="4.45208">
        <ele>867.4</ele>
        <time>2026-05-01T07:40:22Z</time>
      </trkpt>
      <trkpt lat="45.1307" lon="4.45213">
        <ele>867.8</ele>
        <time>2026-05-01T07:40:27Z</time>
      </trkpt>
      <trkpt lat="45.13076" lon="4.4522">
        <ele>868.3</ele>
        <time>2026-05-01T07:40:32Z</time>
      </trkpt>
      <trkpt lat="45.13082" lon="4.45227">
        <ele>868.6</ele>
        <time>2026-05-01T07:40:37Z</time>
      </trkpt>
      <trkpt lat="45.13089" lon="4.45236">
        <ele>868.7</ele>
        <time>2026-05-01T07:40:42Z</time>
      </trkpt>
      <trkpt lat="45.13094" lon="4.45242">
        <ele>868.8</ele>
        <time>2026-05-01T07:40:47Z</time>
      </trkpt>
      <trkpt lat="45.13098" lon="4.45248">
        <ele>868.5</ele>
        <time>2026-05-01T07:40:52Z</time>
      </trkpt>
      <trkpt lat="45.13102" lon="4.45255">
        <ele>869.1</ele>
        <time>2026-05-01T07:40:57Z</time>
      </trkpt>
      <trkpt lat="45.13106" lon="4.45265">
        <ele>870.2</ele>
        <time>2026-05-01T07:41:02Z</time>
      </trkpt>
      <trkpt lat="45.13105" lon="4.45276">
        <ele>869.9</ele>
        <time>2026-05-01T07:41:07Z</time>
      </trkpt>
      <trkpt lat="45.131" lon="4.45286">
        <ele>868.3</ele>
        <time>2026-05-01T07:41:12Z</time>
      </trkpt>
      <trkpt lat="45.13095" lon="4.45293">
        <ele>866.7</ele>
        <time>2026-05-01T07:41:17Z</time>
      </trkpt>
      <trkpt lat="45.13089" lon="4.45297">
        <ele>864.7</ele>
        <time>2026-05-01T07:41:22Z</time>
      </trkpt>
      <trkpt lat="45.13083" lon="4.45302">
        <ele>862.7</ele>
        <time>2026-05-01T07:41:27Z</time>
      </trkpt>
      <trkpt lat="45.13078" lon="4.45307">
        <ele>861.5</ele>
        <time>2026-05-01T07:41:32Z</time>
      </trkpt>
      <trkpt lat="45.13072" lon="4.45313">
        <ele>860.1</ele>
        <time>2026-05-01T07:41:37Z</time>
      </trkpt>
      <trkpt lat="45.13065" lon="4.45319">
        <ele>858.6</ele>
        <time>2026-05-01T07:41:42Z</time>
      </trkpt>
      <trkpt lat="45.13057" lon="4.45327">
        <ele>857</ele>
        <time>2026-05-01T07:41:47Z</time>
      </trkpt>
      <trkpt lat="45.1305" lon="4.45332">
        <ele>855.6</ele>
        <time>2026-05-01T07:41:52Z</time>
      </trkpt>
      <trkpt lat="45.13044" lon="4.4534">
        <ele>854.5</ele>
        <time>2026-05-01T07:41:57Z</time>
      </trkpt>
      <trkpt lat="45.13037" lon="4.45347">
        <ele>853</ele>
        <time>2026-05-01T07:42:02Z</time>
      </trkpt>
      <trkpt lat="45.13032" lon="4.45355">
        <ele>852</ele>
        <time>2026-05-01T07:42:07Z</time>
      </trkpt>
      <trkpt lat="45.13027" lon="4.45363">
        <ele>850.8</ele>
        <time>2026-05-01T07:42:12Z</time>
      </trkpt>
      <trkpt lat="45.13021" lon="4.4537">
        <ele>849.4</ele>
        <time>2026-05-01T07:42:17Z</time>
      </trkpt>
      <trkpt lat="45.13016" lon="4.45378">
        <ele>848.1</ele>
        <time>2026-05-01T07:42:22Z</time>
      </trkpt>
      <trkpt lat="45.13014" lon="4.45386">
        <ele>847.4</ele>
        <time>2026-05-01T07:42:27Z</time>
      </trkpt>
      <trkpt lat="45.1301" lon="4.45392">
        <ele>846.3</ele>
        <time>2026-05-01T07:42:32Z</time>
      </trkpt>
      <trkpt lat="45.13009" lon="4.45394">
        <ele>846</ele>
        <time>2026-05-01T07:42:37Z</time>
      </trkpt>
      <trkpt lat="45.13009" lon="4.45394">
        <ele>846</ele>
        <time>2026-05-01T07:42:42Z</time>
      </trkpt>
      <trkpt lat="45.13009" lon="4.45394">
        <ele>846</ele>
        <time>2026-05-01T07:42:47Z</time>
      </trkpt>
      <trkpt lat="45.13009" lon="4.45394">
        <ele>846</ele>
        <time>2026-05-01T07:42:52Z</time>
      </trkpt>
      <trkpt lat="45.1301" lon="4.45396">
        <ele>846.2</ele>
        <time>2026-05-01T07:42:57Z</time>
      </trkpt>
      <trkpt lat="45.13014" lon="4.45404">
        <ele>847</ele>
        <time>2026-05-01T07:43:02Z</time>
      </trkpt>
      <trkpt lat="45.13019" lon="4.45412">
        <ele>848.1</ele>
        <time>2026-05-01T07:43:07Z</time>
      </trkpt>
      <trkpt lat="45.13024" lon="4.45419">
        <ele>849</ele>
        <time>2026-05-01T07:43:12Z</time>
      </trkpt>
      <trkpt lat="45.1303" lon="4.45428">
        <ele>849</ele>
        <time>2026-05-01T07:43:17Z</time>
      </trkpt>
      <trkpt lat="45.13035" lon="4.45435">
        <ele>849.1</ele>
        <time>2026-05-01T07:43:22Z</time>
      </trkpt>
      <trkpt lat="45.1304" lon="4.45444">
        <ele>848.8</ele>
        <time>2026-05-01T07:43:27Z</time>
      </trkpt>
      <trkpt lat="45.13046" lon="4.45456">
        <ele>848.2</ele>
        <time>2026-05-01T07:43:32Z</time>
      </trkpt>
      <trkpt lat="45.1305" lon="4.45466">
        <ele>847.3</ele>
        <time>2026-05-01T07:43:37Z</time>
      </trkpt>
      <trkpt lat="45.13055" lon="4.45477">
        <ele>846.4</ele>
        <time>2026-05-01T07:43:42Z</time>
      </trkpt>
      <trkpt lat="45.1306" lon="4.45485">
        <ele>846</ele>
        <time>2026-05-01T07:43:47Z</time>
      </trkpt>
      <trkpt lat="45.13064" lon="4.45497">
        <ele>844.6</ele>
        <time>2026-05-01T07:43:52Z</time>
      </trkpt>
      <trkpt lat="45.13066" lon="4.45509">
        <ele>844.1</ele>
        <time>2026-05-01T07:43:57Z</time>
      </trkpt>
      <trkpt lat="45.13069" lon="4.45517">
        <ele>844.2</ele>
        <time>2026-05-01T07:44:02Z</time>
      </trkpt>
      <trkpt lat="45.1307" lon="4.45528">
        <ele>843.8</ele>
        <time>2026-05-01T07:44:07Z</time>
      </trkpt>
      <trkpt lat="45.13073" lon="4.45538">
        <ele>843.5</ele>
        <time>2026-05-01T07:44:12Z</time>
      </trkpt>
      <trkpt lat="45.13075" lon="4.45549">
        <ele>842.9</ele>
        <time>2026-05-01T07:44:17Z</time>
      </trkpt>
      <trkpt lat="45.13077" lon="4.45557">
        <ele>842.4</ele>
        <time>2026-05-01T07:44:22Z</time>
      </trkpt>
      <trkpt lat="45.1308" lon="4.45569">
        <ele>841.4</ele>
        <time>2026-05-01T07:44:27Z</time>
      </trkpt>
      <trkpt lat="45.13079" lon="4.45582">
        <ele>840.4</ele>
        <time>2026-05-01T07:44:32Z</time>
      </trkpt>
      <trkpt lat="45.1308" lon="4.45592">
        <ele>840.7</ele>
        <time>2026-05-01T07:44:37Z</time>
      </trkpt>
      <trkpt lat="45.13082" lon="4.45602">
        <ele>841</ele>
        <time>2026-05-01T07:44:42Z</time>
      </trkpt>
      <trkpt lat="45.13083" lon="4.45612">
        <ele>841.4</ele>
        <time>2026-05-01T07:44:47Z</time>
      </trkpt>
      <trkpt lat="45.13084" lon="4.45623">
        <ele>842.2</ele>
        <time>2026-05-01T07:44:52Z</time>
      </trkpt>
      <trkpt lat="45.13085" lon="4.45634">
        <ele>843.1</ele>
        <time>2026-05-01T07:44:57Z</time>
      </trkpt>
      <trkpt lat="45.13086" lon="4.45644">
        <ele>843.9</ele>
        <time>2026-05-01T07:45:02Z</time>
      </trkpt>
      <trkpt lat="45.13086" lon="4.45651">
        <ele>844.2</ele>
        <time>2026-05-01T07:45:07Z</time>
      </trkpt>
      <trkpt lat="45.13087" lon="4.45662">
        <ele>845</ele>
        <time>2026-05-01T07:45:12Z</time>
      </trkpt>
      <trkpt lat="45.13088" lon="4.45673">
        <ele>845.5</ele>
        <time>2026-05-01T07:45:17Z</time>
      </trkpt>
      <trkpt lat="45.1309" lon="4.45683">
        <ele>846</ele>
        <time>2026-05-01T07:45:22Z</time>
      </trkpt>
      <trkpt lat="45.13091" lon="4.45692">
        <ele>846.2</ele>
        <time>2026-05-01T07:45:27Z</time>
      </trkpt>
      <trkpt lat="45.13091" lon="4.45702">
        <ele>846</ele>
        <time>2026-05-01T07:45:32Z</time>
      </trkpt>
      <trkpt lat="45.13092" lon="4.45713">
        <ele>846.1</ele>
        <time>2026-05-01T07:45:37Z</time>
      </trkpt>
      <trkpt lat="45.13092" lon="4.45726">
        <ele>845.9</ele>
        <time>2026-05-01T07:45:42Z</time>
      </trkpt>
      <trkpt lat="45.13092" lon="4.45738">
        <ele>845.7</ele>
        <time>2026-05-01T07:45:47Z</time>
      </trkpt>
      <trkpt lat="45.13092" lon="4.45751">
        <ele>845.5</ele>
        <time>2026-05-01T07:45:52Z</time>
      </trkpt>
      <trkpt lat="45.13093" lon="4.45764">
        <ele>846.1</ele>
        <time>2026-05-01T07:45:57Z</time>
      </trkpt>
      <trkpt lat="45.13094" lon="4.45774">
        <ele>846.5</ele>
        <time>2026-05-01T07:46:02Z</time>
      </trkpt>
      <trkpt lat="45.13097" lon="4.45785">
        <ele>847.4</ele>
        <time>2026-05-01T07:46:07Z</time>
      </trkpt>
      <trkpt lat="45.131" lon="4.45797">
        <ele>848.1</ele>
        <time>2026-05-01T07:46:12Z</time>
      </trkpt>
      <trkpt lat="45.13101" lon="4.45806">
        <ele>848.4</ele>
        <time>2026-05-01T07:46:17Z</time>
      </trkpt>
      <trkpt lat="45.13103" lon="4.45817">
        <ele>848.8</ele>
        <time>2026-05-01T07:46:22Z</time>
      </trkpt>
      <trkpt lat="45.13104" lon="4.45828">
        <ele>849</ele>
        <time>2026-05-01T07:46:27Z</time>
      </trkpt>
      <trkpt lat="45.13105" lon="4.45836">
        <ele>849.2</ele>
        <time>2026-05-01T07:46:32Z</time>
      </trkpt>
      <trkpt lat="45.13105" lon="4.45847">
        <ele>849.7</ele>
        <time>2026-05-01T07:46:37Z</time>
      </trkpt>
      <trkpt lat="45.13105" lon="4.45856">
        <ele>850.1</ele>
        <time>2026-05-01T07:46:42Z</time>
      </trkpt>
      <trkpt lat="45.13108" lon="4.45865">
        <ele>850.7</ele>
        <time>2026-05-01T07:46:47Z</time>
      </trkpt>
      <trkpt lat="45.1311" lon="4.45875">
        <ele>851.3</ele>
        <time>2026-05-01T07:46:52Z</time>
      </trkpt>
      <trkpt lat="45.13112" lon="4.45884">
        <ele>851.7</ele>
        <time>2026-05-01T07:46:57Z</time>
      </trkpt>
      <trkpt lat="45.13113" lon="4.45891">
        <ele>851.9</ele>
        <time>2026-05-01T07:47:02Z</time>
      </trkpt>
      <trkpt lat="45.13115" lon="4.45901">
        <ele>852.2</ele>
        <time>2026-05-01T07:47:07Z</time>
      </trkpt>
      <trkpt lat="45.13118" lon="4.45912">
        <ele>852.5</ele>
        <time>2026-05-01T07:47:12Z</time>
      </trkpt>
      <trkpt lat="45.1312" lon="4.45921">
        <ele>853</ele>
        <time>2026-05-01T07:47:17Z</time>
      </trkpt>
      <trkpt lat="45.13123" lon="4.4593">
        <ele>853.7</ele>
        <time>2026-05-01T07:47:22Z</time>
      </trkpt>
      <trkpt lat="45.13126" lon="4.4594">
        <ele>854.4</ele>
        <time>2026-05-01T07:47:27Z</time>
      </trkpt>
      <trkpt lat="45.13129" lon="4.45951">
        <ele>855</ele>
        <time>2026-05-01T07:47:32Z</time>
      </trkpt>
      <trkpt lat="45.13131" lon="4.45965">
        <ele>855.8</ele>
        <time>2026-05-01T07:47:37Z</time>
      </trkpt>
      <trkpt lat="45.13134" lon="4.45978">
        <ele>856.3</ele>
        <time>2026-05-01T07:47:42Z</time>
      </trkpt>
      <trkpt lat="45.13135" lon="4.45982">
        <ele>856.4</ele>
        <time>2026-05-01T07:47:47Z</time>
      </trkpt>
      <trkpt lat="45.13134" lon="4.45985">
        <ele>856.7</ele>
        <time>2026-05-01T07:47:52Z</time>
      </trkpt>
      <trkpt lat="45.13134" lon="4.45985">
        <ele>856.7</ele>
        <time>2026-05-01T07:47:57Z</time>
      </trkpt>
      <trkpt lat="45.13138" lon="4.45993">
        <ele>856.5</ele>
        <time>2026-05-01T07:48:02Z</time>
      </trkpt>
      <trkpt lat="45.13141" lon="4.46002">
        <ele>856.5</ele>
        <time>2026-05-01T07:48:07Z</time>
      </trkpt>
      <trkpt lat="45.13145" lon="4.4601">
        <ele>856.9</ele>
        <time>2026-05-01T07:48:12Z</time>
      </trkpt>
      <trkpt lat="45.13147" lon="4.46019">
        <ele>857.8</ele>
        <time>2026-05-01T07:48:17Z</time>
      </trkpt>
      <trkpt lat="45.13149" lon="4.46026">
        <ele>858.4</ele>
        <time>2026-05-01T07:48:22Z</time>
      </trkpt>
      <trkpt lat="45.13151" lon="4.46037">
        <ele>859.5</ele>
        <time>2026-05-01T07:48:27Z</time>
      </trkpt>
      <trkpt lat="45.13153" lon="4.46046">
        <ele>860.2</ele>
        <time>2026-05-01T07:48:32Z</time>
      </trkpt>
      <trkpt lat="45.13155" lon="4.46055">
        <ele>860.9</ele>
        <time>2026-05-01T07:48:37Z</time>
      </trkpt>
      <trkpt lat="45.13157" lon="4.46065">
        <ele>861.7</ele>
        <time>2026-05-01T07:48:42Z</time>
      </trkpt>
      <trkpt lat="45.13158" lon="4.46072">
        <ele>862.3</ele>
        <time>2026-05-01T07:48:47Z</time>
      </trkpt>
      <trkpt lat="45.13161" lon="4.4608">
        <ele>862.4</ele>
        <time>2026-05-01T07:48:52Z</time>
      </trkpt>
      <trkpt lat="45.13164" lon="4.46093">
        <ele>863.9</ele>
        <time>2026-05-01T07:48:57Z</time>
      </trkpt>
      <trkpt lat="45.13168" lon="4.46102">
        <ele>865</ele>
        <time>2026-05-01T07:49:02Z</time>
      </trkpt>
      <trkpt lat="45.13171" lon="4.46111">
        <ele>866.7</ele>
        <time>2026-05-01T07:49:07Z</time>
      </trkpt>
      <trkpt lat="45.13174" lon="4.4612">
        <ele>868.3</ele>
        <time>2026-05-01T07:49:12Z</time>
      </trkpt>
      <trkpt lat="45.13176" lon="4.46131">
        <ele>870.2</ele>
        <time>2026-05-01T07:49:17Z</time>
      </trkpt>
      <trkpt lat="45.13179" lon="4.46144">
        <ele>872.1</ele>
        <time>2026-05-01T07:49:22Z</time>
      </trkpt>
      <trkpt lat="45.13184" lon="4.46155">
        <ele>873.1</ele>
        <time>2026-05-01T07:49:27Z</time>
      </trkpt>
      <trkpt lat="45.13186" lon="4.46167">
        <ele>874.7</ele>
        <time>2026-05-01T07:49:32Z</time>
      </trkpt>
      <trkpt lat="45.13181" lon="4.46173">
        <ele>877.9</ele>
        <time>2026-05-01T07:49:37Z</time>
      </trkpt>
      <trkpt lat="45.13174" lon="4.46178">
        <ele>881.2</ele>
        <time>2026-05-01T07:49:42Z</time>
      </trkpt>
      <trkpt lat="45.13171" lon="4.46176">
        <ele>881.2</ele>
        <time>2026-05-01T07:49:47Z</time>
      </trkpt>
      <trkpt lat="45.13165" lon="4.46177">
        <ele>883.1</ele>
        <time>2026-05-01T07:49:52Z</time>
      </trkpt>
      <trkpt lat="45.13158" lon="4.46176">
        <ele>884.9</ele>
        <time>2026-05-01T07:49:57Z</time>
      </trkpt>
      <trkpt lat="45.13154" lon="4.46172">
        <ele>884.7</ele>
        <time>2026-05-01T07:50:02Z</time>
      </trkpt>
      <trkpt lat="45.13148" lon="4.4617">
        <ele>885.9</ele>
        <time>2026-05-01T07:50:07Z</time>
      </trkpt>
      <trkpt lat="45.13143" lon="4.46164">
        <ele>885.8</ele>
        <time>2026-05-01T07:50:12Z</time>
      </trkpt>
      <trkpt lat="45.13139" lon="4.46162">
        <ele>886.6</ele>
        <time>2026-05-01T07:50:17Z</time>
      </trkpt>
      <trkpt lat="45.13136" lon="4.46159">
        <ele>886.9</ele>
        <time>2026-05-01T07:50:22Z</time>
      </trkpt>
      <trkpt lat="45.13131" lon="4.46155">
        <ele>887.7</ele>
        <time>2026-05-01T07:50:27Z</time>
      </trkpt>
      <trkpt lat="45.13125" lon="4.46149">
        <ele>888.3</ele>
        <time>2026-05-01T07:50:32Z</time>
      </trkpt>
      <trkpt lat="45.13119" lon="4.46145">
        <ele>889.3</ele>
        <time>2026-05-01T07:50:37Z</time>
      </trkpt>
      <trkpt lat="45.13113" lon="4.46142">
        <ele>890.6</ele>
        <time>2026-05-01T07:50:42Z</time>
      </trkpt>
      <trkpt lat="45.13108" lon="4.46137">
        <ele>891.1</ele>
        <time>2026-05-01T07:50:47Z</time>
      </trkpt>
      <trkpt lat="45.13103" lon="4.46134">
        <ele>892.1</ele>
        <time>2026-05-01T07:50:52Z</time>
      </trkpt>
      <trkpt lat="45.13096" lon="4.46129">
        <ele>893.3</ele>
        <time>2026-05-01T07:50:57Z</time>
      </trkpt>
      <trkpt lat="45.13091" lon="4.46123">
        <ele>893.7</ele>
        <time>2026-05-01T07:51:02Z</time>
      </trkpt>
      <trkpt lat="45.13087" lon="4.46116">
        <ele>893.5</ele>
        <time>2026-05-01T07:51:07Z</time>
      </trkpt>
      <trkpt lat="45.13083" lon="4.46109">
        <ele>893.4</ele>
        <time>2026-05-01T07:51:12Z</time>
      </trkpt>
      <trkpt lat="45.1308" lon="4.46103">
        <ele>893.2</ele>
        <time>2026-05-01T07:51:17Z</time>
      </trkpt>
      <trkpt lat="45.13077" lon="4.46099">
        <ele>893.4</ele>
        <time>2026-05-01T07:51:22Z</time>
      </trkpt>
      <trkpt lat="45.13074" lon="4.46093">
        <ele>893.2</ele>
        <time>2026-05-01T07:51:27Z</time>
      </trkpt>
      <trkpt lat="45.1307" lon="4.46088">
        <ele>893.5</ele>
        <time>2026-05-01T07:51:32Z</time>
      </trkpt>
      <trkpt lat="45.13064" lon="4.46083">
        <ele>894.4</ele>
        <time>2026-05-01T07:51:37Z</time>
      </trkpt>
      <trkpt lat="45.1306" lon="4.4608">
        <ele>895.1</ele>
        <time>2026-05-01T07:51:42Z</time>
      </trkpt>
      <trkpt lat="45.13054" lon="4.46076">
        <ele>896.3</ele>
        <time>2026-05-01T07:51:47Z</time>
      </trkpt>
      <trkpt lat="45.13048" lon="4.46072">
        <ele>897.5</ele>
        <time>2026-05-01T07:51:52Z</time>
      </trkpt>
      <trkpt lat="45.13042" lon="4.46068">
        <ele>898.8</ele>
        <time>2026-05-01T07:51:57Z</time>
      </trkpt>
      <trkpt lat="45.13039" lon="4.46063">
        <ele>898.8</ele>
        <time>2026-05-01T07:52:02Z</time>
      </trkpt>
      <trkpt lat="45.13033" lon="4.46058">
        <ele>899.9</ele>
        <time>2026-05-01T07:52:07Z</time>
      </trkpt>
      <trkpt lat="45.13029" lon="4.4605">
        <ele>899.8</ele>
        <time>2026-05-01T07:52:12Z</time>
      </trkpt>
      <trkpt lat="45.13025" lon="4.46045">
        <ele>900.3</ele>
        <time>2026-05-01T07:52:17Z</time>
      </trkpt>
      <trkpt lat="45.13019" lon="4.4604">
        <ele>901.6</ele>
        <time>2026-05-01T07:52:22Z</time>
      </trkpt>
      <trkpt lat="45.13012" lon="4.46038">
        <ele>903.9</ele>
        <time>2026-05-01T07:52:27Z</time>
      </trkpt>
      <trkpt lat="45.13007" lon="4.4604">
        <ele>906.1</ele>
        <time>2026-05-01T07:52:32Z</time>
      </trkpt>
      <trkpt lat="45.13" lon="4.46042">
        <ele>909.1</ele>
        <time>2026-05-01T07:52:37Z</time>
      </trkpt>
      <trkpt lat="45.12994" lon="4.46043">
        <ele>912</ele>
        <time>2026-05-01T07:52:42Z</time>
      </trkpt>
      <trkpt lat="45.12988" lon="4.46041">
        <ele>914.5</ele>
        <time>2026-05-01T07:52:47Z</time>
      </trkpt>
      <trkpt lat="45.12987" lon="4.46038">
        <ele>914.5</ele>
        <time>2026-05-01T07:52:52Z</time>
      </trkpt>
      <trkpt lat="45.12987" lon="4.46027">
        <ele>912.7</ele>
        <time>2026-05-01T07:52:57Z</time>
      </trkpt>
      <trkpt lat="45.12986" lon="4.46016">
        <ele>911.4</ele>
        <time>2026-05-01T07:53:02Z</time>
      </trkpt>
      <trkpt lat="45.12987" lon="4.46006">
        <ele>909.4</ele>
        <time>2026-05-01T07:53:07Z</time>
      </trkpt>
      <trkpt lat="45.12988" lon="4.45998">
        <ele>907.7</ele>
        <time>2026-05-01T07:53:12Z</time>
      </trkpt>
      <trkpt lat="45.12986" lon="4.45988">
        <ele>907.4</ele>
        <time>2026-05-01T07:53:17Z</time>
      </trkpt>
      <trkpt lat="45.12984" lon="4.4598">
        <ele>907.4</ele>
        <time>2026-05-01T07:53:22Z</time>
      </trkpt>
      <trkpt lat="45.12982" lon="4.45973">
        <ele>907.5</ele>
        <time>2026-05-01T07:53:27Z</time>
      </trkpt>
      <trkpt lat="45.12978" lon="4.45966">
        <ele>908.6</ele>
        <time>2026-05-01T07:53:32Z</time>
      </trkpt>
      <trkpt lat="45.12975" lon="4.45958">
        <ele>909.1</ele>
        <time>2026-05-01T07:53:37Z</time>
      </trkpt>
      <trkpt lat="45.12971" lon="4.45951">
        <ele>910.2</ele>
        <time>2026-05-01T07:53:42Z</time>
      </trkpt>
      <trkpt lat="45.12967" lon="4.45943">
        <ele>911.1</ele>
        <time>2026-05-01T07:53:47Z</time>
      </trkpt>
      <trkpt lat="45.12963" lon="4.45936">
        <ele>912.2</ele>
        <time>2026-05-01T07:53:52Z</time>
      </trkpt>
      <trkpt lat="45.12958" lon="4.4593">
        <ele>913.8</ele>
        <time>2026-05-01T07:53:57Z</time>
      </trkpt>
      <trkpt lat="45.12955" lon="4.45923">
        <ele>914.4</ele>
        <time>2026-05-01T07:54:02Z</time>
      </trkpt>
      <trkpt lat="45.1295" lon="4.45914">
        <ele>915.5</ele>
        <time>2026-05-01T07:54:07Z</time>
      </trkpt>
      <trkpt lat="45.12946" lon="4.45907">
        <ele>916</ele>
        <time>2026-05-01T07:54:12Z</time>
      </trkpt>
      <trkpt lat="45.12943" lon="4.45902">
        <ele>916.4</ele>
        <time>2026-05-01T07:54:17Z</time>
      </trkpt>
      <trkpt lat="45.12938" lon="4.45896">
        <ele>917.5</ele>
        <time>2026-05-01T07:54:22Z</time>
      </trkpt>
      <trkpt lat="45.12934" lon="4.45889">
        <ele>918</ele>
        <time>2026-05-01T07:54:27Z</time>
      </trkpt>
      <trkpt lat="45.12928" lon="4.45882">
        <ele>919.3</ele>
        <time>2026-05-01T07:54:32Z</time>
      </trkpt>
      <trkpt lat="45.12926" lon="4.45876">
        <ele>919</ele>
        <time>2026-05-01T07:54:37Z</time>
      </trkpt>
      <trkpt lat="45.12922" lon="4.4587">
        <ele>919.5</ele>
        <time>2026-05-01T07:54:42Z</time>
      </trkpt>
      <trkpt lat="45.12918" lon="4.45864">
        <ele>920</ele>
        <time>2026-05-01T07:54:47Z</time>
      </trkpt>
      <trkpt lat="45.12914" lon="4.45857">
        <ele>919.7</ele>
        <time>2026-05-01T07:54:52Z</time>
      </trkpt>
      <trkpt lat="45.12912" lon="4.45851">
        <ele>918.8</ele>
        <time>2026-05-01T07:54:57Z</time>
      </trkpt>
      <trkpt lat="45.1291" lon="4.45843">
        <ele>917.6</ele>
        <time>2026-05-01T07:55:02Z</time>
      </trkpt>
      <trkpt lat="45.12906" lon="4.45835">
        <ele>916.8</ele>
        <time>2026-05-01T07:55:07Z</time>
      </trkpt>
      <trkpt lat="45.12903" lon="4.45827">
        <ele>915.6</ele>
        <time>2026-05-01T07:55:12Z</time>
      </trkpt>
      <trkpt lat="45.12898" lon="4.45822">
        <ele>915.5</ele>
        <time>2026-05-01T07:55:17Z</time>
      </trkpt>
      <trkpt lat="45.12896" lon="4.45817">
        <ele>914.7</ele>
        <time>2026-05-01T07:55:22Z</time>
      </trkpt>
      <trkpt lat="45.12893" lon="4.45813">
        <ele>914.4</ele>
        <time>2026-05-01T07:55:27Z</time>
      </trkpt>
      <trkpt lat="45.1289" lon="4.45809">
        <ele>914.1</ele>
        <time>2026-05-01T07:55:32Z</time>
      </trkpt>
      <trkpt lat="45.12884" lon="4.45804">
        <ele>914.1</ele>
        <time>2026-05-01T07:55:37Z</time>
      </trkpt>
      <trkpt lat="45.12878" lon="4.458">
        <ele>914.4</ele>
        <time>2026-05-01T07:55:42Z</time>
      </trkpt>
      <trkpt lat="45.12874" lon="4.45796">
        <ele>914.3</ele>
        <time>2026-05-01T07:55:47Z</time>
      </trkpt>
      <trkpt lat="45.12868" lon="4.45794">
        <ele>915.1</ele>
        <time>2026-05-01T07:55:52Z</time>
      </trkpt>
      <trkpt lat="45.12862" lon="4.4579">
        <ele>915.4</ele>
        <time>2026-05-01T07:55:57Z</time>
      </trkpt>
      <trkpt lat="45.12856" lon="4.45788">
        <ele>916.2</ele>
        <time>2026-05-01T07:56:02Z</time>
      </trkpt>
      <trkpt lat="45.12852" lon="4.45783">
        <ele>915.7</ele>
        <time>2026-05-01T07:56:07Z</time>
      </trkpt>
      <trkpt lat="45.12847" lon="4.4578">
        <ele>916</ele>
        <time>2026-05-01T07:56:12Z</time>
      </trkpt>
      <trkpt lat="45.12842" lon="4.45773">
        <ele>915.2</ele>
        <time>2026-05-01T07:56:17Z</time>
      </trkpt>
      <trkpt lat="45.12837" lon="4.45767">
        <ele>914.7</ele>
        <time>2026-05-01T07:56:22Z</time>
      </trkpt>
      <trkpt lat="45.1283" lon="4.45763">
        <ele>913.8</ele>
        <time>2026-05-01T07:56:27Z</time>
      </trkpt>
      <trkpt lat="45.12825" lon="4.45758">
        <ele>911.6</ele>
        <time>2026-05-01T07:56:32Z</time>
      </trkpt>
      <trkpt lat="45.12822" lon="4.45752">
        <ele>909.5</ele>
        <time>2026-05-01T07:56:37Z</time>
      </trkpt>
      <trkpt lat="45.12819" lon="4.45745">
        <ele>906.7</ele>
        <time>2026-05-01T07:56:42Z</time>
      </trkpt>
      <trkpt lat="45.12815" lon="4.4574">
        <ele>904.2</ele>
        <time>2026-05-01T07:56:47Z</time>
      </trkpt>
      <trkpt lat="45.12812" lon="4.45733">
        <ele>901.2</ele>
        <time>2026-05-01T07:56:52Z</time>
      </trkpt>
      <trkpt lat="45.12807" lon="4.45729">
        <ele>899</ele>
        <time>2026-05-01T07:56:57Z</time>
      </trkpt>
      <trkpt lat="45.12802" lon="4.45725">
        <ele>896.8</ele>
        <time>2026-05-01T07:57:02Z</time>
      </trkpt>
      <trkpt lat="45.12798" lon="4.45723">
        <ele>895.5</ele>
        <time>2026-05-01T07:57:07Z</time>
      </trkpt>
      <trkpt lat="45.12793" lon="4.45723">
        <ele>894.6</ele>
        <time>2026-05-01T07:57:12Z</time>
      </trkpt>
      <trkpt lat="45.12787" lon="4.45721">
        <ele>893</ele>
        <time>2026-05-01T07:57:17Z</time>
      </trkpt>
      <trkpt lat="45.1278" lon="4.4572">
        <ele>891.5</ele>
        <time>2026-05-01T07:57:22Z</time>
      </trkpt>
      <trkpt lat="45.12773" lon="4.4572">
        <ele>890.4</ele>
        <time>2026-05-01T07:57:27Z</time>
      </trkpt>
      <trkpt lat="45.12766" lon="4.45723">
        <ele>890.2</ele>
        <time>2026-05-01T07:57:32Z</time>
      </trkpt>
      <trkpt lat="45.12759" lon="4.45725">
        <ele>889.7</ele>
        <time>2026-05-01T07:57:37Z</time>
      </trkpt>
      <trkpt lat="45.12752" lon="4.45726">
        <ele>888.8</ele>
        <time>2026-05-01T07:57:42Z</time>
      </trkpt>
      <trkpt lat="45.12745" lon="4.45727">
        <ele>887.1</ele>
        <time>2026-05-01T07:57:47Z</time>
      </trkpt>
      <trkpt lat="45.12738" lon="4.45728">
        <ele>885.1</ele>
        <time>2026-05-01T07:57:52Z</time>
      </trkpt>
      <trkpt lat="45.12733" lon="4.45729">
        <ele>883.7</ele>
        <time>2026-05-01T07:57:57Z</time>
      </trkpt>
      <trkpt lat="45.12725" lon="4.45732">
        <ele>881.9</ele>
        <time>2026-05-01T07:58:02Z</time>
      </trkpt>
      <trkpt lat="45.12717" lon="4.45735">
        <ele>880.2</ele>
        <time>2026-05-01T07:58:07Z</time>
      </trkpt>
      <trkpt lat="45.12712" lon="4.45737">
        <ele>879.1</ele>
        <time>2026-05-01T07:58:12Z</time>
      </trkpt>
      <trkpt lat="45.12705" lon="4.45743">
        <ele>878.7</ele>
        <time>2026-05-01T07:58:17Z</time>
      </trkpt>
      <trkpt lat="45.127" lon="4.45748">
        <ele>878.6</ele>
        <time>2026-05-01T07:58:22Z</time>
      </trkpt>
      <trkpt lat="45.12695" lon="4.45753">
        <ele>878.1</ele>
        <time>2026-05-01T07:58:27Z</time>
      </trkpt>
      <trkpt lat="45.1269" lon="4.4576">
        <ele>877.9</ele>
        <time>2026-05-01T07:58:32Z</time>
      </trkpt>
      <trkpt lat="45.12686" lon="4.45766">
        <ele>877.7</ele>
        <time>2026-05-01T07:58:37Z</time>
      </trkpt>
      <trkpt lat="45.12679" lon="4.45772">
        <ele>876.4</ele>
        <time>2026-05-01T07:58:42Z</time>
      </trkpt>
      <trkpt lat="45.12676" lon="4.45778">
        <ele>876.4</ele>
        <time>2026-05-01T07:58:47Z</time>
      </trkpt>
      <trkpt lat="45.12671" lon="4.45787">
        <ele>876.3</ele>
        <time>2026-05-01T07:58:52Z</time>
      </trkpt>
      <trkpt lat="45.1267" lon="4.45791">
        <ele>876.6</ele>
        <time>2026-05-01T07:58:57Z</time>
      </trkpt>
      <trkpt lat="45.1267" lon="4.45791">
        <ele>876.6</ele>
        <time>2026-05-01T07:59:02Z</time>
      </trkpt>
      <trkpt lat="45.1267" lon="4.45791">
        <ele>876.6</ele>
        <time>2026-05-01T07:59:07Z</time>
      </trkpt>
      <trkpt lat="45.1267" lon="4.45791">
        <ele>876.6</ele>
        <time>2026-05-01T07:59:12Z</time>
      </trkpt>
      <trkpt lat="45.1267" lon="4.45791">
        <ele>876.6</ele>
        <time>2026-05-01T07:59:17Z</time>
      </trkpt>
      <trkpt lat="45.1267" lon="4.45791">
        <ele>876.6</ele>
        <time>2026-05-01T07:59:22Z</time>
      </trkpt>
      <trkpt lat="45.12664" lon="4.45792">
        <ele>874.3</ele>
        <time>2026-05-01T07:59:27Z</time>
      </trkpt>
      <trkpt lat="45.12659" lon="4.45796">
        <ele>872.6</ele>
        <time>2026-05-01T07:59:32Z</time>
      </trkpt>
      <trkpt lat="45.12659" lon="4.45802">
        <ele>873.6</ele>
        <time>2026-05-01T07:59:37Z</time>
      </trkpt>
      <trkpt lat="45.12659" lon="4.45802">
        <ele>873.6</ele>
        <time>2026-05-01T07:59:42Z</time>
      </trkpt>
      <trkpt lat="45.12659" lon="4.45802">
        <ele>873.6</ele>
        <time>2026-05-01T07:59:47Z</time>
      </trkpt>
      <trkpt lat="45.12659" lon="4.45802">
        <ele>873.6</ele>
        <time>2026-05-01T07:59:52Z</time>
      </trkpt>
      <trkpt lat="45.12659" lon="4.45802">
        <ele>873.6</ele>
        <time>2026-05-01T07:59:57Z</time>
      </trkpt>
      <trkpt lat="45.12659" lon="4.45802">
        <ele>873.6</ele>
        <time>2026-05-01T08:00:02Z</time>
      </trkpt>
      <trkpt lat="45.12658" lon="4.45803">
        <ele>873.3</ele>
        <time>2026-05-01T08:00:07Z</time>
      </trkpt>
      <trkpt lat="45.12651" lon="4.45805">
        <ele>870.1</ele>
        <time>2026-05-01T08:00:12Z</time>
      </trkpt>
      <trkpt lat="45.12643" lon="4.45809">
        <ele>866.8</ele>
        <time>2026-05-01T08:00:17Z</time>
      </trkpt>
      <trkpt lat="45.12636" lon="4.45816">
        <ele>864.3</ele>
        <time>2026-05-01T08:00:22Z</time>
      </trkpt>
      <trkpt lat="45.12631" lon="4.45821">
        <ele>862.5</ele>
        <time>2026-05-01T08:00:27Z</time>
      </trkpt>
      <trkpt lat="45.12624" lon="4.45828">
        <ele>859.8</ele>
        <time>2026-05-01T08:00:32Z</time>
      </trkpt>
      <trkpt lat="45.1262" lon="4.45832">
        <ele>858.2</ele>
        <time>2026-05-01T08:00:37Z</time>
      </trkpt>
      <trkpt lat="45.12617" lon="4.45837">
        <ele>857</ele>
        <time>2026-05-01T08:00:42Z</time>
      </trkpt>
      <trkpt lat="45.12615" lon="4.45843">
        <ele>856.2</ele>
        <time>2026-05-01T08:00:47Z</time>
      </trkpt>
      <trkpt lat="45.12613" lon="4.45851">
        <ele>855.5</ele>
        <time>2026-05-01T08:00:52Z</time>
      </trkpt>
      <trkpt lat="45.12613" lon="4.4586">
        <ele>856</ele>
        <time>2026-05-01T08:00:57Z</time>
      </trkpt>
      <trkpt lat="45.12611" lon="4.45868">
        <ele>855.3</ele>
        <time>2026-05-01T08:01:02Z</time>
      </trkpt>
      <trkpt lat="45.12611" lon="4.45877">
        <ele>855.7</ele>
        <time>2026-05-01T08:01:07Z</time>
      </trkpt>
      <trkpt lat="45.12611" lon="4.45887">
        <ele>856.2</ele>
        <time>2026-05-01T08:01:12Z</time>
      </trkpt>
      <trkpt lat="45.12612" lon="4.45896">
        <ele>857.2</ele>
        <time>2026-05-01T08:01:17Z</time>
      </trkpt>
      <trkpt lat="45.12613" lon="4.45907">
        <ele>858.3</ele>
        <time>2026-05-01T08:01:22Z</time>
      </trkpt>
      <trkpt lat="45.12613" lon="4.45917">
        <ele>858.8</ele>
        <time>2026-05-01T08:01:28Z</time>
      </trkpt>
      <trkpt lat="45.12612" lon="4.45935">
        <ele>859.2</ele>
        <time>2026-05-01T08:01:33Z</time>
      </trkpt>
      <trkpt lat="45.12613" lon="4.45949">
        <ele>860.6</ele>
        <time>2026-05-01T08:01:38Z</time>
      </trkpt>
      <trkpt lat="45.12616" lon="4.4596">
        <ele>862.7</ele>
        <time>2026-05-01T08:01:43Z</time>
      </trkpt>
      <trkpt lat="45.12618" lon="4.45969">
        <ele>864.2</ele>
        <time>2026-05-01T08:01:48Z</time>
      </trkpt>
      <trkpt lat="45.1262" lon="4.45975">
        <ele>865.5</ele>
        <time>2026-05-01T08:01:53Z</time>
      </trkpt>
      <trkpt lat="45.12621" lon="4.45983">
        <ele>866.4</ele>
        <time>2026-05-01T08:01:58Z</time>
      </trkpt>
      <trkpt lat="45.12624" lon="4.45991">
        <ele>868.2</ele>
        <time>2026-05-01T08:02:03Z</time>
      </trkpt>
      <trkpt lat="45.12625" lon="4.46">
        <ele>869</ele>
        <time>2026-05-01T08:02:08Z</time>
      </trkpt>
      <trkpt lat="45.12628" lon="4.4601">
        <ele>870.8</ele>
        <time>2026-05-01T08:02:13Z</time>
      </trkpt>
      <trkpt lat="45.12632" lon="4.4602">
        <ele>872.8</ele>
        <time>2026-05-01T08:02:18Z</time>
      </trkpt>
      <trkpt lat="45.12635" lon="4.46029">
        <ele>874.3</ele>
        <time>2026-05-01T08:02:23Z</time>
      </trkpt>
      <trkpt lat="45.12636" lon="4.4604">
        <ele>874.9</ele>
        <time>2026-05-01T08:02:28Z</time>
      </trkpt>
      <trkpt lat="45.12638" lon="4.46045">
        <ele>875.7</ele>
        <time>2026-05-01T08:02:33Z</time>
      </trkpt>
      <trkpt lat="45.12643" lon="4.46043">
        <ele>877.5</ele>
        <time>2026-05-01T08:02:38Z</time>
      </trkpt>
      <trkpt lat="45.12644" lon="4.46043">
        <ele>877.8</ele>
        <time>2026-05-01T08:02:43Z</time>
      </trkpt>
      <trkpt lat="45.12644" lon="4.46043">
        <ele>877.8</ele>
        <time>2026-05-01T08:02:48Z</time>
      </trkpt>
      <trkpt lat="45.12644" lon="4.46043">
        <ele>877.8</ele>
        <time>2026-05-01T08:02:53Z</time>
      </trkpt>
      <trkpt lat="45.12644" lon="4.46043">
        <ele>877.8</ele>
        <time>2026-05-01T08:02:58Z</time>
      </trkpt>
      <trkpt lat="45.12644" lon="4.46043">
        <ele>877.8</ele>
        <time>2026-05-01T08:03:03Z</time>
      </trkpt>
      <trkpt lat="45.12644" lon="4.46043">
        <ele>877.8</ele>
        <time>2026-05-01T08:03:08Z</time>
      </trkpt>
      <trkpt lat="45.12644" lon="4.46043">
        <ele>877.8</ele>
        <time>2026-05-01T08:03:13Z</time>
      </trkpt>
      <trkpt lat="45.12644" lon="4.46043">
        <ele>877.8</ele>
        <time>2026-05-01T08:03:18Z</time>
      </trkpt>
      <trkpt lat="45.12644" lon="4.46043">
        <ele>877.8</ele>
        <time>2026-05-01T08:03:23Z</time>
      </trkpt>
      <trkpt lat="45.12644" lon="4.46043">
        <ele>877.8</ele>
        <time>2026-05-01T08:03:28Z</time>
      </trkpt>
      <trkpt lat="45.12644" lon="4.46043">
        <ele>877.8</ele>
        <time>2026-05-01T08:03:33Z</time>
      </trkpt>
      <trkpt lat="45.12644" lon="4.46043">
        <ele>877.8</ele>
        <time>2026-05-01T08:03:38Z</time>
      </trkpt>
      <trkpt lat="45.12644" lon="4.46043">
        <ele>877.8</ele>
        <time>2026-05-01T08:03:43Z</time>
      </trkpt>
      <trkpt lat="45.12644" lon="4.46043">
        <ele>877.8</ele>
        <time>2026-05-01T08:03:48Z</time>
      </trkpt>
      <trkpt lat="45.12644" lon="4.46043">
        <ele>877.8</ele>
        <time>2026-05-01T08:03:53Z</time>
      </trkpt>
      <trkpt lat="45.12644" lon="4.46043">
        <ele>877.8</ele>
        <time>2026-05-01T08:03:58Z</time>
      </trkpt>
      <trkpt lat="45.12644" lon="4.46043">
        <ele>877.8</ele>
        <time>2026-05-01T08:04:03Z</time>
      </trkpt>
      <trkpt lat="45.12644" lon="4.46043">
        <ele>877.8</ele>
        <time>2026-05-01T08:04:08Z</time>
      </trkpt>
      <trkpt lat="45.12644" lon="4.46043">
        <ele>877.8</ele>
        <time>2026-05-01T08:04:13Z</time>
      </trkpt>
      <trkpt lat="45.12644" lon="4.46043">
        <ele>877.8</ele>
        <time>2026-05-01T08:04:18Z</time>
      </trkpt>
      <trkpt lat="45.12644" lon="4.46043">
        <ele>877.8</ele>
        <time>2026-05-01T08:04:23Z</time>
      </trkpt>
      <trkpt lat="45.12644" lon="4.46043">
        <ele>877.8</ele>
        <time>2026-05-01T08:04:28Z</time>
      </trkpt>
      <trkpt lat="45.12644" lon="4.46043">
        <ele>877.8</ele>
        <time>2026-05-01T08:04:33Z</time>
      </trkpt>
      <trkpt lat="45.12644" lon="4.46043">
        <ele>877.8</ele>
        <time>2026-05-01T08:04:38Z</time>
      </trkpt>
      <trkpt lat="45.12644" lon="4.46043">
        <ele>877.8</ele>
        <time>2026-05-01T08:04:43Z</time>
      </trkpt>
      <trkpt lat="45.12644" lon="4.46043">
        <ele>877.8</ele>
        <time>2026-05-01T08:04:48Z</time>
      </trkpt>
      <trkpt lat="45.12644" lon="4.46043">
        <ele>877.8</ele>
        <time>2026-05-01T08:04:53Z</time>
      </trkpt>
      <trkpt lat="45.12644" lon="4.46043">
        <ele>877.8</ele>
        <time>2026-05-01T08:04:58Z</time>
      </trkpt>
      <trkpt lat="45.12644" lon="4.46043">
        <ele>877.8</ele>
        <time>2026-05-01T08:05:03Z</time>
      </trkpt>
      <trkpt lat="45.12644" lon="4.46043">
        <ele>877.8</ele>
        <time>2026-05-01T08:05:08Z</time>
      </trkpt>
      <trkpt lat="45.12644" lon="4.46043">
        <ele>877.8</ele>
        <time>2026-05-01T08:05:13Z</time>
      </trkpt>
      <trkpt lat="45.12644" lon="4.46043">
        <ele>877.8</ele>
        <time>2026-05-01T08:05:18Z</time>
      </trkpt>
      <trkpt lat="45.12644" lon="4.46043">
        <ele>877.8</ele>
        <time>2026-05-01T08:05:23Z</time>
      </trkpt>
      <trkpt lat="45.12644" lon="4.46043">
        <ele>877.8</ele>
        <time>2026-05-01T08:05:28Z</time>
      </trkpt>
      <trkpt lat="45.12644" lon="4.46043">
        <ele>877.8</ele>
        <time>2026-05-01T08:05:33Z</time>
      </trkpt>
      <trkpt lat="45.12644" lon="4.46043">
        <ele>877.8</ele>
        <time>2026-05-01T08:05:38Z</time>
      </trkpt>
      <trkpt lat="45.12644" lon="4.46043">
        <ele>877.8</ele>
        <time>2026-05-01T08:05:43Z</time>
      </trkpt>
      <trkpt lat="45.12644" lon="4.46043">
        <ele>877.8</ele>
        <time>2026-05-01T08:05:48Z</time>
      </trkpt>
      <trkpt lat="45.12644" lon="4.46043">
        <ele>877.8</ele>
        <time>2026-05-01T08:05:53Z</time>
      </trkpt>
      <trkpt lat="45.12644" lon="4.46043">
        <ele>877.8</ele>
        <time>2026-05-01T08:05:58Z</time>
      </trkpt>
      <trkpt lat="45.12644" lon="4.46043">
        <ele>877.8</ele>
        <time>2026-05-01T08:06:03Z</time>
      </trkpt>
      <trkpt lat="45.12644" lon="4.46043">
        <ele>877.8</ele>
        <time>2026-05-01T08:06:08Z</time>
      </trkpt>
      <trkpt lat="45.12644" lon="4.46043">
        <ele>877.8</ele>
        <time>2026-05-01T08:06:13Z</time>
      </trkpt>
      <trkpt lat="45.12644" lon="4.46043">
        <ele>877.8</ele>
        <time>2026-05-01T08:06:18Z</time>
      </trkpt>
      <trkpt lat="45.12644" lon="4.46043">
        <ele>877.8</ele>
        <time>2026-05-01T08:06:23Z</time>
      </trkpt>
      <trkpt lat="45.12644" lon="4.46043">
        <ele>877.8</ele>
        <time>2026-05-01T08:06:28Z</time>
      </trkpt>
      <trkpt lat="45.12644" lon="4.46043">
        <ele>877.8</ele>
        <time>2026-05-01T08:06:33Z</time>
      </trkpt>
      <trkpt lat="45.12644" lon="4.46043">
        <ele>877.8</ele>
        <time>2026-05-01T08:06:39Z</time>
      </trkpt>
      <trkpt lat="45.12635" lon="4.46045">
        <ele>874.7</ele>
        <time>2026-05-01T08:06:44Z</time>
      </trkpt>
      <trkpt lat="45.12634" lon="4.46046">
        <ele>874.4</ele>
        <time>2026-05-01T08:06:49Z</time>
      </trkpt>
      <trkpt lat="45.12634" lon="4.46046">
        <ele>874.4</ele>
        <time>2026-05-01T08:06:54Z</time>
      </trkpt>
      <trkpt lat="45.12634" lon="4.46046">
        <ele>874.4</ele>
        <time>2026-05-01T08:06:59Z</time>
      </trkpt>
      <trkpt lat="45.12634" lon="4.46061">
        <ele>874.8</ele>
        <time>2026-05-01T08:07:04Z</time>
      </trkpt>
      <trkpt lat="45.12635" lon="4.4607">
        <ele>875.3</ele>
        <time>2026-05-01T08:07:09Z</time>
      </trkpt>
      <trkpt lat="45.12635" lon="4.46079">
        <ele>875.5</ele>
        <time>2026-05-01T08:07:14Z</time>
      </trkpt>
      <trkpt lat="45.12632" lon="4.46088">
        <ele>875.3</ele>
        <time>2026-05-01T08:07:19Z</time>
      </trkpt>
      <trkpt lat="45.12628" lon="4.46106">
        <ele>876.4</ele>
        <time>2026-05-01T08:07:24Z</time>
      </trkpt>
      <trkpt lat="45.12627" lon="4.46122">
        <ele>878</ele>
        <time>2026-05-01T08:07:29Z</time>
      </trkpt>
      <trkpt lat="45.12628" lon="4.46135">
        <ele>879.6</ele>
        <time>2026-05-01T08:07:34Z</time>
      </trkpt>
      <trkpt lat="45.12631" lon="4.46144">
        <ele>881</ele>
        <time>2026-05-01T08:07:39Z</time>
      </trkpt>
      <trkpt lat="45.12634" lon="4.46154">
        <ele>882.4</ele>
        <time>2026-05-01T08:07:44Z</time>
      </trkpt>
      <trkpt lat="45.12636" lon="4.46167">
        <ele>883.9</ele>
        <time>2026-05-01T08:07:49Z</time>
      </trkpt>
      <trkpt lat="45.12639" lon="4.46179">
        <ele>886.6</ele>
        <time>2026-05-01T08:07:54Z</time>
      </trkpt>
      <trkpt lat="45.1264" lon="4.4619">
        <ele>888.9</ele>
        <time>2026-05-01T08:07:59Z</time>
      </trkpt>
      <trkpt lat="45.12643" lon="4.46202">
        <ele>891.4</ele>
        <time>2026-05-01T08:08:04Z</time>
      </trkpt>
      <trkpt lat="45.12645" lon="4.46211">
        <ele>893.3</ele>
        <time>2026-05-01T08:08:09Z</time>
      </trkpt>
      <trkpt lat="45.12646" lon="4.46222">
        <ele>895.5</ele>
        <time>2026-05-01T08:08:14Z</time>
      </trkpt>
      <trkpt lat="45.1264" lon="4.46234">
        <ele>898</ele>
        <time>2026-05-01T08:08:19Z</time>
      </trkpt>
      <trkpt lat="45.12634" lon="4.46241">
        <ele>899.6</ele>
        <time>2026-05-01T08:08:24Z</time>
      </trkpt>
      <trkpt lat="45.12628" lon="4.46246">
        <ele>901</ele>
        <time>2026-05-01T08:08:29Z</time>
      </trkpt>
      <trkpt lat="45.12622" lon="4.46251">
        <ele>902.4</ele>
        <time>2026-05-01T08:08:34Z</time>
      </trkpt>
      <trkpt lat="45.12614" lon="4.46255">
        <ele>904.1</ele>
        <time>2026-05-01T08:08:39Z</time>
      </trkpt>
      <trkpt lat="45.12607" lon="4.46258">
        <ele>905.3</ele>
        <time>2026-05-01T08:08:44Z</time>
      </trkpt>
      <trkpt lat="45.12601" lon="4.46265">
        <ele>907.9</ele>
        <time>2026-05-01T08:08:49Z</time>
      </trkpt>
      <trkpt lat="45.12597" lon="4.4627">
        <ele>909.7</ele>
        <time>2026-05-01T08:08:54Z</time>
      </trkpt>
      <trkpt lat="45.1259" lon="4.46276">
        <ele>912</ele>
        <time>2026-05-01T08:08:59Z</time>
      </trkpt>
      <trkpt lat="45.12583" lon="4.4628">
        <ele>913.8</ele>
        <time>2026-05-01T08:09:04Z</time>
      </trkpt>
      <trkpt lat="45.12577" lon="4.46281">
        <ele>914.7</ele>
        <time>2026-05-01T08:09:09Z</time>
      </trkpt>
      <trkpt lat="45.1257" lon="4.46276">
        <ele>913.8</ele>
        <time>2026-05-01T08:09:14Z</time>
      </trkpt>
      <trkpt lat="45.12564" lon="4.46271">
        <ele>912.9</ele>
        <time>2026-05-01T08:09:19Z</time>
      </trkpt>
      <trkpt lat="45.12558" lon="4.46268">
        <ele>912.7</ele>
        <time>2026-05-01T08:09:24Z</time>
      </trkpt>
      <trkpt lat="45.12552" lon="4.46263">
        <ele>911.9</ele>
        <time>2026-05-01T08:09:29Z</time>
      </trkpt>
      <trkpt lat="45.12546" lon="4.46258">
        <ele>911.2</ele>
        <time>2026-05-01T08:09:34Z</time>
      </trkpt>
      <trkpt lat="45.1254" lon="4.46253">
        <ele>910.6</ele>
        <time>2026-05-01T08:09:39Z</time>
      </trkpt>
      <trkpt lat="45.12531" lon="4.46249">
        <ele>910.7</ele>
        <time>2026-05-01T08:09:44Z</time>
      </trkpt>
      <trkpt lat="45.12524" lon="4.46246">
        <ele>910.9</ele>
        <time>2026-05-01T08:09:49Z</time>
      </trkpt>
      <trkpt lat="45.12515" lon="4.46242">
        <ele>911.1</ele>
        <time>2026-05-01T08:09:54Z</time>
      </trkpt>
      <trkpt lat="45.12509" lon="4.46242">
        <ele>911.9</ele>
        <time>2026-05-01T08:09:59Z</time>
      </trkpt>
      <trkpt lat="45.125" lon="4.46239">
        <ele>912.5</ele>
        <time>2026-05-01T08:10:04Z</time>
      </trkpt>
      <trkpt lat="45.12493" lon="4.46238">
        <ele>914.5</ele>
        <time>2026-05-01T08:10:09Z</time>
      </trkpt>
      <trkpt lat="45.12485" lon="4.46239">
        <ele>917.4</ele>
        <time>2026-05-01T08:10:14Z</time>
      </trkpt>
      <trkpt lat="45.12477" lon="4.46239">
        <ele>920</ele>
        <time>2026-05-01T08:10:19Z</time>
      </trkpt>
      <trkpt lat="45.1247" lon="4.46241">
        <ele>922.7</ele>
        <time>2026-05-01T08:10:24Z</time>
      </trkpt>
      <trkpt lat="45.12463" lon="4.46243">
        <ele>925.4</ele>
        <time>2026-05-01T08:10:29Z</time>
      </trkpt>
      <trkpt lat="45.12456" lon="4.46248">
        <ele>928.8</ele>
        <time>2026-05-01T08:10:34Z</time>
      </trkpt>
      <trkpt lat="45.1245" lon="4.46254">
        <ele>932.1</ele>
        <time>2026-05-01T08:10:39Z</time>
      </trkpt>
      <trkpt lat="45.1244" lon="4.46258">
        <ele>936.2</ele>
        <time>2026-05-01T08:10:44Z</time>
      </trkpt>
      <trkpt lat="45.12432" lon="4.46258">
        <ele>938.8</ele>
        <time>2026-05-01T08:10:49Z</time>
      </trkpt>
      <trkpt lat="45.12425" lon="4.46257">
        <ele>940.8</ele>
        <time>2026-05-01T08:10:54Z</time>
      </trkpt>
      <trkpt lat="45.12425" lon="4.46252">
        <ele>939.7</ele>
        <time>2026-05-01T08:10:59Z</time>
      </trkpt>
      <trkpt lat="45.12425" lon="4.46243">
        <ele>937.8</ele>
        <time>2026-05-01T08:11:04Z</time>
      </trkpt>
      <trkpt lat="45.12425" lon="4.46228">
        <ele>934.5</ele>
        <time>2026-05-01T08:11:09Z</time>
      </trkpt>
      <trkpt lat="45.12424" lon="4.46211">
        <ele>931.2</ele>
        <time>2026-05-01T08:11:14Z</time>
      </trkpt>
      <trkpt lat="45.12425" lon="4.462">
        <ele>928.4</ele>
        <time>2026-05-01T08:11:19Z</time>
      </trkpt>
      <trkpt lat="45.12422" lon="4.4619">
        <ele>927.3</ele>
        <time>2026-05-01T08:11:24Z</time>
      </trkpt>
      <trkpt lat="45.12418" lon="4.46178">
        <ele>926</ele>
        <time>2026-05-01T08:11:29Z</time>
      </trkpt>
      <trkpt lat="45.12412" lon="4.46168">
        <ele>924.7</ele>
        <time>2026-05-01T08:11:34Z</time>
      </trkpt>
      <trkpt lat="45.12407" lon="4.4616">
        <ele>923</ele>
        <time>2026-05-01T08:11:39Z</time>
      </trkpt>
      <trkpt lat="45.12402" lon="4.46156">
        <ele>922.4</ele>
        <time>2026-05-01T08:11:44Z</time>
      </trkpt>
      <trkpt lat="45.12397" lon="4.46149">
        <ele>920.9</ele>
        <time>2026-05-01T08:11:49Z</time>
      </trkpt>
      <trkpt lat="45.12394" lon="4.46142">
        <ele>919.3</ele>
        <time>2026-05-01T08:11:54Z</time>
      </trkpt>
      <trkpt lat="45.12389" lon="4.46136">
        <ele>918.1</ele>
        <time>2026-05-01T08:11:59Z</time>
      </trkpt>
      <trkpt lat="45.12385" lon="4.46132">
        <ele>917.3</ele>
        <time>2026-05-01T08:12:04Z</time>
      </trkpt>
      <trkpt lat="45.12379" lon="4.46128">
        <ele>916.7</ele>
        <time>2026-05-01T08:12:09Z</time>
      </trkpt>
      <trkpt lat="45.12375" lon="4.46125">
        <ele>916.3</ele>
        <time>2026-05-01T08:12:14Z</time>
      </trkpt>
      <trkpt lat="45.12372" lon="4.46122">
        <ele>915.7</ele>
        <time>2026-05-01T08:12:19Z</time>
      </trkpt>
      <trkpt lat="45.12368" lon="4.46117">
        <ele>914.6</ele>
        <time>2026-05-01T08:12:24Z</time>
      </trkpt>
      <trkpt lat="45.12364" lon="4.46112">
        <ele>913.6</ele>
        <time>2026-05-01T08:12:29Z</time>
      </trkpt>
      <trkpt lat="45.12361" lon="4.46109">
        <ele>913</ele>
        <time>2026-05-01T08:12:34Z</time>
      </trkpt>
      <trkpt lat="45.12356" lon="4.46105">
        <ele>912.3</ele>
        <time>2026-05-01T08:12:39Z</time>
      </trkpt>
      <trkpt lat="45.12353" lon="4.46099">
        <ele>910.9</ele>
        <time>2026-05-01T08:12:44Z</time>
      </trkpt>
      <trkpt lat="45.12347" lon="4.46095">
        <ele>910.2</ele>
        <time>2026-05-01T08:12:49Z</time>
      </trkpt>
      <trkpt lat="45.12341" lon="4.46092">
        <ele>909.8</ele>
        <time>2026-05-01T08:12:54Z</time>
      </trkpt>
      <trkpt lat="45.12335" lon="4.46089">
        <ele>909.4</ele>
        <time>2026-05-01T08:12:59Z</time>
      </trkpt>
      <trkpt lat="45.1233" lon="4.46086">
        <ele>908.1</ele>
        <time>2026-05-01T08:13:04Z</time>
      </trkpt>
      <trkpt lat="45.12323" lon="4.46083">
        <ele>905.8</ele>
        <time>2026-05-01T08:13:09Z</time>
      </trkpt>
      <trkpt lat="45.12315" lon="4.46082">
        <ele>903.8</ele>
        <time>2026-05-01T08:13:14Z</time>
      </trkpt>
      <trkpt lat="45.12309" lon="4.46084">
        <ele>903.2</ele>
        <time>2026-05-01T08:13:19Z</time>
      </trkpt>
      <trkpt lat="45.12303" lon="4.46082">
        <ele>901.3</ele>
        <time>2026-05-01T08:13:24Z</time>
      </trkpt>
      <trkpt lat="45.12297" lon="4.46082">
        <ele>900.1</ele>
        <time>2026-05-01T08:13:29Z</time>
      </trkpt>
      <trkpt lat="45.1229" lon="4.46083">
        <ele>899</ele>
        <time>2026-05-01T08:13:34Z</time>
      </trkpt>
      <trkpt lat="45.12284" lon="4.46085">
        <ele>898.4</ele>
        <time>2026-05-01T08:13:39Z</time>
      </trkpt>
      <trkpt lat="45.12277" lon="4.46088">
        <ele>897.9</ele>
        <time>2026-05-01T08:13:44Z</time>
      </trkpt>
      <trkpt lat="45.12272" lon="4.4609">
        <ele>897.6</ele>
        <time>2026-05-01T08:13:49Z</time>
      </trkpt>
      <trkpt lat="45.1227" lon="4.46086">
        <ele>895.9</ele>
        <time>2026-05-01T08:13:54Z</time>
      </trkpt>
      <trkpt lat="45.1227" lon="4.46084">
        <ele>895.3</ele>
        <time>2026-05-01T08:13:59Z</time>
      </trkpt>
      <trkpt lat="45.1227" lon="4.46084">
        <ele>895.3</ele>
        <time>2026-05-01T08:14:04Z</time>
      </trkpt>
      <trkpt lat="45.12266" lon="4.46088">
        <ele>895.7</ele>
        <time>2026-05-01T08:14:09Z</time>
      </trkpt>
      <trkpt lat="45.12262" lon="4.46091">
        <ele>895.9</ele>
        <time>2026-05-01T08:14:14Z</time>
      </trkpt>
      <trkpt lat="45.12257" lon="4.46093">
        <ele>895.5</ele>
        <time>2026-05-01T08:14:19Z</time>
      </trkpt>
      <trkpt lat="45.12252" lon="4.46096">
        <ele>895.5</ele>
        <time>2026-05-01T08:14:24Z</time>
      </trkpt>
      <trkpt lat="45.12248" lon="4.46099">
        <ele>895.9</ele>
        <time>2026-05-01T08:14:29Z</time>
      </trkpt>
      <trkpt lat="45.12244" lon="4.46104">
        <ele>897.2</ele>
        <time>2026-05-01T08:14:34Z</time>
      </trkpt>
      <trkpt lat="45.12238" lon="4.46107">
        <ele>897.6</ele>
        <time>2026-05-01T08:14:39Z</time>
      </trkpt>
      <trkpt lat="45.12236" lon="4.46111">
        <ele>898.6</ele>
        <time>2026-05-01T08:14:44Z</time>
      </trkpt>
      <trkpt lat="45.12233" lon="4.46115">
        <ele>899.6</ele>
        <time>2026-05-01T08:14:49Z</time>
      </trkpt>
      <trkpt lat="45.12228" lon="4.46121">
        <ele>900.9</ele>
        <time>2026-05-01T08:14:54Z</time>
      </trkpt>
      <trkpt lat="45.12225" lon="4.46126">
        <ele>902.1</ele>
        <time>2026-05-01T08:14:59Z</time>
      </trkpt>
      <trkpt lat="45.12221" lon="4.46133">
        <ele>903.8</ele>
        <time>2026-05-01T08:15:04Z</time>
      </trkpt>
      <trkpt lat="45.12218" lon="4.46138">
        <ele>904.9</ele>
        <time>2026-05-01T08:15:09Z</time>
      </trkpt>
      <trkpt lat="45.12214" lon="4.46144">
        <ele>906.2</ele>
        <time>2026-05-01T08:15:14Z</time>
      </trkpt>
      <trkpt lat="45.12205" lon="4.46153">
        <ele>907.6</ele>
        <time>2026-05-01T08:15:19Z</time>
      </trkpt>
      <trkpt lat="45.12197" lon="4.46161">
        <ele>908.8</ele>
        <time>2026-05-01T08:15:24Z</time>
      </trkpt>
      <trkpt lat="45.12193" lon="4.46171">
        <ele>910.9</ele>
        <time>2026-05-01T08:15:29Z</time>
      </trkpt>
      <trkpt lat="45.12189" lon="4.46178">
        <ele>912.2</ele>
        <time>2026-05-01T08:15:34Z</time>
      </trkpt>
      <trkpt lat="45.12186" lon="4.46183">
        <ele>913.1</ele>
        <time>2026-05-01T08:15:39Z</time>
      </trkpt>
      <trkpt lat="45.12182" lon="4.46188">
        <ele>913.8</ele>
        <time>2026-05-01T08:15:44Z</time>
      </trkpt>
      <trkpt lat="45.12178" lon="4.46194">
        <ele>914.8</ele>
        <time>2026-05-01T08:15:49Z</time>
      </trkpt>
      <trkpt lat="45.12174" lon="4.46201">
        <ele>916.1</ele>
        <time>2026-05-01T08:15:54Z</time>
      </trkpt>
      <trkpt lat="45.1217" lon="4.46205">
        <ele>916.6</ele>
        <time>2026-05-01T08:15:59Z</time>
      </trkpt>
      <trkpt lat="45.12167" lon="4.46209">
        <ele>917.2</ele>
        <time>2026-05-01T08:16:04Z</time>
      </trkpt>
      <trkpt lat="45.12163" lon="4.46216">
        <ele>917.8</ele>
        <time>2026-05-01T08:16:09Z</time>
      </trkpt>
      <trkpt lat="45.12157" lon="4.46221">
        <ele>917.1</ele>
        <time>2026-05-01T08:16:14Z</time>
      </trkpt>
      <trkpt lat="45.12153" lon="4.46226">
        <ele>917.1</ele>
        <time>2026-05-01T08:16:19Z</time>
      </trkpt>
      <trkpt lat="45.12149" lon="4.46232">
        <ele>917.3</ele>
        <time>2026-05-01T08:16:24Z</time>
      </trkpt>
      <trkpt lat="45.12142" lon="4.46238">
        <ele>916.5</ele>
        <time>2026-05-01T08:16:29Z</time>
      </trkpt>
      <trkpt lat="45.12137" lon="4.46242">
        <ele>915.9</ele>
        <time>2026-05-01T08:16:34Z</time>
      </trkpt>
      <trkpt lat="45.1213" lon="4.46244">
        <ele>914.1</ele>
        <time>2026-05-01T08:16:39Z</time>
      </trkpt>
      <trkpt lat="45.12124" lon="4.46244">
        <ele>912.1</ele>
        <time>2026-05-01T08:16:44Z</time>
      </trkpt>
      <trkpt lat="45.12119" lon="4.46242">
        <ele>909.9</ele>
        <time>2026-05-01T08:16:49Z</time>
      </trkpt>
      <trkpt lat="45.12114" lon="4.46238">
        <ele>907.1</ele>
        <time>2026-05-01T08:16:54Z</time>
      </trkpt>
      <trkpt lat="45.12107" lon="4.46238">
        <ele>904.8</ele>
        <time>2026-05-01T08:16:59Z</time>
      </trkpt>
      <trkpt lat="45.12101" lon="4.46237">
        <ele>902.5</ele>
        <time>2026-05-01T08:17:04Z</time>
      </trkpt>
      <trkpt lat="45.12096" lon="4.46237">
        <ele>900.8</ele>
        <time>2026-05-01T08:17:09Z</time>
      </trkpt>
      <trkpt lat="45.12095" lon="4.46237">
        <ele>900.5</ele>
        <time>2026-05-01T08:17:14Z</time>
      </trkpt>
      <trkpt lat="45.12095" lon="4.46237">
        <ele>900.5</ele>
        <time>2026-05-01T08:17:19Z</time>
      </trkpt>
      <trkpt lat="45.12095" lon="4.46237">
        <ele>900.5</ele>
        <time>2026-05-01T08:17:24Z</time>
      </trkpt>
      <trkpt lat="45.12095" lon="4.46237">
        <ele>900.5</ele>
        <time>2026-05-01T08:17:29Z</time>
      </trkpt>
      <trkpt lat="45.12095" lon="4.46237">
        <ele>900.5</ele>
        <time>2026-05-01T08:17:34Z</time>
      </trkpt>
      <trkpt lat="45.12095" lon="4.46237">
        <ele>900.5</ele>
        <time>2026-05-01T08:17:39Z</time>
      </trkpt>
      <trkpt lat="45.12095" lon="4.46237">
        <ele>900.5</ele>
        <time>2026-05-01T08:17:44Z</time>
      </trkpt>
      <trkpt lat="45.12095" lon="4.46237">
        <ele>900.5</ele>
        <time>2026-05-01T08:17:49Z</time>
      </trkpt>
      <trkpt lat="45.12095" lon="4.46237">
        <ele>900.5</ele>
        <time>2026-05-01T08:17:54Z</time>
      </trkpt>
      <trkpt lat="45.12095" lon="4.46237">
        <ele>900.5</ele>
        <time>2026-05-01T08:17:59Z</time>
      </trkpt>
      <trkpt lat="45.12098" lon="4.46237">
        <ele>901.5</ele>
        <time>2026-05-01T08:18:04Z</time>
      </trkpt>
      <trkpt lat="45.12103" lon="4.46233">
        <ele>902.1</ele>
        <time>2026-05-01T08:18:09Z</time>
      </trkpt>
      <trkpt lat="45.12104" lon="4.46234">
        <ele>902.7</ele>
        <time>2026-05-01T08:18:14Z</time>
      </trkpt>
      <trkpt lat="45.12105" lon="4.46235">
        <ele>903.3</ele>
        <time>2026-05-01T08:18:19Z</time>
      </trkpt>
      <trkpt lat="45.12108" lon="4.46234">
        <ele>904.1</ele>
        <time>2026-05-01T08:18:24Z</time>
      </trkpt>
      <trkpt lat="45.12115" lon="4.46236">
        <ele>906.9</ele>
        <time>2026-05-01T08:18:29Z</time>
      </trkpt>
      <trkpt lat="45.12122" lon="4.46238">
        <ele>909.8</ele>
        <time>2026-05-01T08:18:34Z</time>
      </trkpt>
      <trkpt lat="45.12129" lon="4.4624">
        <ele>912.7</ele>
        <time>2026-05-01T08:18:39Z</time>
      </trkpt>
      <trkpt lat="45.12137" lon="4.46238">
        <ele>914.9</ele>
        <time>2026-05-01T08:18:44Z</time>
      </trkpt>
      <trkpt lat="45.12143" lon="4.46231">
        <ele>915</ele>
        <time>2026-05-01T08:18:49Z</time>
      </trkpt>
      <trkpt lat="45.12149" lon="4.46226">
        <ele>915.7</ele>
        <time>2026-05-01T08:18:54Z</time>
      </trkpt>
      <trkpt lat="45.12155" lon="4.46222">
        <ele>916.7</ele>
        <time>2026-05-01T08:18:59Z</time>
      </trkpt>
      <trkpt lat="45.12161" lon="4.46215">
        <ele>916.9</ele>
        <time>2026-05-01T08:19:04Z</time>
      </trkpt>
      <trkpt lat="45.12167" lon="4.46209">
        <ele>917.2</ele>
        <time>2026-05-01T08:19:09Z</time>
      </trkpt>
      <trkpt lat="45.12172" lon="4.46204">
        <ele>916.6</ele>
        <time>2026-05-01T08:19:14Z</time>
      </trkpt>
      <trkpt lat="45.12176" lon="4.46197">
        <ele>915.3</ele>
        <time>2026-05-01T08:19:19Z</time>
      </trkpt>
      <trkpt lat="45.12182" lon="4.4619">
        <ele>914.3</ele>
        <time>2026-05-01T08:19:24Z</time>
      </trkpt>
      <trkpt lat="45.12188" lon="4.46182">
        <ele>913.1</ele>
        <time>2026-05-01T08:19:29Z</time>
      </trkpt>
      <trkpt lat="45.12196" lon="4.46173">
        <ele>911.9</ele>
        <time>2026-05-01T08:19:34Z</time>
      </trkpt>
      <trkpt lat="45.12201" lon="4.46162">
        <ele>909.6</ele>
        <time>2026-05-01T08:19:39Z</time>
      </trkpt>
      <trkpt lat="45.12206" lon="4.46155">
        <ele>908.3</ele>
        <time>2026-05-01T08:19:44Z</time>
      </trkpt>
      <trkpt lat="45.12212" lon="4.46148">
        <ele>907.1</ele>
        <time>2026-05-01T08:19:49Z</time>
      </trkpt>
      <trkpt lat="45.12217" lon="4.46142">
        <ele>906</ele>
        <time>2026-05-01T08:19:54Z</time>
      </trkpt>
      <trkpt lat="45.12221" lon="4.46134">
        <ele>904.1</ele>
        <time>2026-05-01T08:19:59Z</time>
      </trkpt>
      <trkpt lat="45.12226" lon="4.46126">
        <ele>902.2</ele>
        <time>2026-05-01T08:20:04Z</time>
      </trkpt>
      <trkpt lat="45.12229" lon="4.4612">
        <ele>900.7</ele>
        <time>2026-05-01T08:20:09Z</time>
      </trkpt>
      <trkpt lat="45.12234" lon="4.46117">
        <ele>900.3</ele>
        <time>2026-05-01T08:20:14Z</time>
      </trkpt>
      <trkpt lat="45.12238" lon="4.46112">
        <ele>899.1</ele>
        <time>2026-05-01T08:20:19Z</time>
      </trkpt>
      <trkpt lat="45.12242" lon="4.46107">
        <ele>897.9</ele>
        <time>2026-05-01T08:20:24Z</time>
      </trkpt>
      <trkpt lat="45.12245" lon="4.46108">
        <ele>898.5</ele>
        <time>2026-05-01T08:20:29Z</time>
      </trkpt>
      <trkpt lat="45.1224" lon="4.46116">
        <ele>900.6</ele>
        <time>2026-05-01T08:20:34Z</time>
      </trkpt>
      <trkpt lat="45.12234" lon="4.46124">
        <ele>902.5</ele>
        <time>2026-05-01T08:20:39Z</time>
      </trkpt>
      <trkpt lat="45.12227" lon="4.46129">
        <ele>903.2</ele>
        <time>2026-05-01T08:20:44Z</time>
      </trkpt>
      <trkpt lat="45.12219" lon="4.46135">
        <ele>904.1</ele>
        <time>2026-05-01T08:20:49Z</time>
      </trkpt>
      <trkpt lat="45.12215" lon="4.46141">
        <ele>905.4</ele>
        <time>2026-05-01T08:20:54Z</time>
      </trkpt>
      <trkpt lat="45.12211" lon="4.46148">
        <ele>907</ele>
        <time>2026-05-01T08:20:59Z</time>
      </trkpt>
      <trkpt lat="45.12207" lon="4.46157">
        <ele>909</ele>
        <time>2026-05-01T08:21:04Z</time>
      </trkpt>
      <trkpt lat="45.12202" lon="4.46165">
        <ele>910.6</ele>
        <time>2026-05-01T08:21:09Z</time>
      </trkpt>
      <trkpt lat="45.12198" lon="4.46173">
        <ele>912.2</ele>
        <time>2026-05-01T08:21:14Z</time>
      </trkpt>
      <trkpt lat="45.12192" lon="4.46179">
        <ele>912.9</ele>
        <time>2026-05-01T08:21:19Z</time>
      </trkpt>
      <trkpt lat="45.12188" lon="4.46183">
        <ele>913.3</ele>
        <time>2026-05-01T08:21:24Z</time>
      </trkpt>
      <trkpt lat="45.12185" lon="4.46189">
        <ele>914.5</ele>
        <time>2026-05-01T08:21:29Z</time>
      </trkpt>
      <trkpt lat="45.1218" lon="4.46195">
        <ele>915.3</ele>
        <time>2026-05-01T08:21:34Z</time>
      </trkpt>
      <trkpt lat="45.12176" lon="4.46202">
        <ele>916.6</ele>
        <time>2026-05-01T08:21:39Z</time>
      </trkpt>
      <trkpt lat="45.12172" lon="4.46206">
        <ele>917.1</ele>
        <time>2026-05-01T08:21:44Z</time>
      </trkpt>
      <trkpt lat="45.12167" lon="4.46215">
        <ele>918.8</ele>
        <time>2026-05-01T08:21:49Z</time>
      </trkpt>
      <trkpt lat="45.12163" lon="4.46221">
        <ele>919.1</ele>
        <time>2026-05-01T08:21:54Z</time>
      </trkpt>
      <trkpt lat="45.12158" lon="4.46227">
        <ele>919</ele>
        <time>2026-05-01T08:21:59Z</time>
      </trkpt>
      <trkpt lat="45.12153" lon="4.46232">
        <ele>918.7</ele>
        <time>2026-05-01T08:22:04Z</time>
      </trkpt>
      <trkpt lat="45.12147" lon="4.46237">
        <ele>918</ele>
        <time>2026-05-01T08:22:09Z</time>
      </trkpt>
      <trkpt lat="45.12142" lon="4.46242">
        <ele>917.6</ele>
        <time>2026-05-01T08:22:14Z</time>
      </trkpt>
      <trkpt lat="45.12134" lon="4.46245">
        <ele>915.7</ele>
        <time>2026-05-01T08:22:19Z</time>
      </trkpt>
      <trkpt lat="45.12127" lon="4.46246">
        <ele>913.6</ele>
        <time>2026-05-01T08:22:24Z</time>
      </trkpt>
      <trkpt lat="45.12121" lon="4.46244">
        <ele>911.1</ele>
        <time>2026-05-01T08:22:29Z</time>
      </trkpt>
      <trkpt lat="45.12116" lon="4.4624">
        <ele>908.3</ele>
        <time>2026-05-01T08:22:34Z</time>
      </trkpt>
      <trkpt lat="45.12109" lon="4.4624">
        <ele>906</ele>
        <time>2026-05-01T08:22:39Z</time>
      </trkpt>
      <trkpt lat="45.12101" lon="4.46239">
        <ele>903</ele>
        <time>2026-05-01T08:22:44Z</time>
      </trkpt>
      <trkpt lat="45.12094" lon="4.46246">
        <ele>902.5</ele>
        <time>2026-05-01T08:22:49Z</time>
      </trkpt>
      <trkpt lat="45.12089" lon="4.46251">
        <ele>902.1</ele>
        <time>2026-05-01T08:22:54Z</time>
      </trkpt>
      <trkpt lat="45.12085" lon="4.46257">
        <ele>902.3</ele>
        <time>2026-05-01T08:22:59Z</time>
      </trkpt>
      <trkpt lat="45.12081" lon="4.46265">
        <ele>903</ele>
        <time>2026-05-01T08:23:04Z</time>
      </trkpt>
      <trkpt lat="45.12076" lon="4.46274">
        <ele>903.5</ele>
        <time>2026-05-01T08:23:09Z</time>
      </trkpt>
      <trkpt lat="45.12072" lon="4.46282">
        <ele>904.1</ele>
        <time>2026-05-01T08:23:14Z</time>
      </trkpt>
      <trkpt lat="45.12068" lon="4.46291">
        <ele>905.1</ele>
        <time>2026-05-01T08:23:19Z</time>
      </trkpt>
      <trkpt lat="45.12065" lon="4.46299">
        <ele>906.1</ele>
        <time>2026-05-01T08:23:24Z</time>
      </trkpt>
      <trkpt lat="45.12061" lon="4.46309">
        <ele>907.4</ele>
        <time>2026-05-01T08:23:29Z</time>
      </trkpt>
      <trkpt lat="45.12057" lon="4.46318">
        <ele>908.4</ele>
        <time>2026-05-01T08:23:34Z</time>
      </trkpt>
      <trkpt lat="45.12053" lon="4.46325">
        <ele>909</ele>
        <time>2026-05-01T08:23:39Z</time>
      </trkpt>
      <trkpt lat="45.12048" lon="4.46334">
        <ele>909.7</ele>
        <time>2026-05-01T08:23:44Z</time>
      </trkpt>
      <trkpt lat="45.12044" lon="4.46342">
        <ele>910.2</ele>
        <time>2026-05-01T08:23:49Z</time>
      </trkpt>
      <trkpt lat="45.12039" lon="4.46349">
        <ele>910.2</ele>
        <time>2026-05-01T08:23:54Z</time>
      </trkpt>
      <trkpt lat="45.12034" lon="4.46356">
        <ele>910.3</ele>
        <time>2026-05-01T08:23:59Z</time>
      </trkpt>
      <trkpt lat="45.12029" lon="4.46359">
        <ele>909.5</ele>
        <time>2026-05-01T08:24:04Z</time>
      </trkpt>
      <trkpt lat="45.12022" lon="4.46365">
        <ele>908.9</ele>
        <time>2026-05-01T08:24:09Z</time>
      </trkpt>
      <trkpt lat="45.12014" lon="4.46371">
        <ele>908</ele>
        <time>2026-05-01T08:24:14Z</time>
      </trkpt>
      <trkpt lat="45.12006" lon="4.46375">
        <ele>906.7</ele>
        <time>2026-05-01T08:24:19Z</time>
      </trkpt>
      <trkpt lat="45.11999" lon="4.46377">
        <ele>905.4</ele>
        <time>2026-05-01T08:24:24Z</time>
      </trkpt>
      <trkpt lat="45.11991" lon="4.46382">
        <ele>906.1</ele>
        <time>2026-05-01T08:24:29Z</time>
      </trkpt>
      <trkpt lat="45.11985" lon="4.46387">
        <ele>906.9</ele>
        <time>2026-05-01T08:24:34Z</time>
      </trkpt>
      <trkpt lat="45.11979" lon="4.46392">
        <ele>907.7</ele>
        <time>2026-05-01T08:24:39Z</time>
      </trkpt>
      <trkpt lat="45.11974" lon="4.464">
        <ele>909.3</ele>
        <time>2026-05-01T08:24:44Z</time>
      </trkpt>
      <trkpt lat="45.11968" lon="4.46405">
        <ele>910</ele>
        <time>2026-05-01T08:24:49Z</time>
      </trkpt>
      <trkpt lat="45.11962" lon="4.46411">
        <ele>910.9</ele>
        <time>2026-05-01T08:24:54Z</time>
      </trkpt>
      <trkpt lat="45.11956" lon="4.46417">
        <ele>911.8</ele>
        <time>2026-05-01T08:24:59Z</time>
      </trkpt>
      <trkpt lat="45.11951" lon="4.46424">
        <ele>912.7</ele>
        <time>2026-05-01T08:25:04Z</time>
      </trkpt>
      <trkpt lat="45.11945" lon="4.4643">
        <ele>913.2</ele>
        <time>2026-05-01T08:25:09Z</time>
      </trkpt>
      <trkpt lat="45.11939" lon="4.46439">
        <ele>914.3</ele>
        <time>2026-05-01T08:25:14Z</time>
      </trkpt>
      <trkpt lat="45.11933" lon="4.4645">
        <ele>915.7</ele>
        <time>2026-05-01T08:25:19Z</time>
      </trkpt>
      <trkpt lat="45.11928" lon="4.46459">
        <ele>916.8</ele>
        <time>2026-05-01T08:25:24Z</time>
      </trkpt>
      <trkpt lat="45.11923" lon="4.46467">
        <ele>917.8</ele>
        <time>2026-05-01T08:25:29Z</time>
      </trkpt>
      <trkpt lat="45.11918" lon="4.46475">
        <ele>918.7</ele>
        <time>2026-05-01T08:25:34Z</time>
      </trkpt>
      <trkpt lat="45.11913" lon="4.46482">
        <ele>920.7</ele>
        <time>2026-05-01T08:25:39Z</time>
      </trkpt>
      <trkpt lat="45.11908" lon="4.4649">
        <ele>923.3</ele>
        <time>2026-05-01T08:25:44Z</time>
      </trkpt>
      <trkpt lat="45.11901" lon="4.46497">
        <ele>926.2</ele>
        <time>2026-05-01T08:25:49Z</time>
      </trkpt>
      <trkpt lat="45.11896" lon="4.46505">
        <ele>928.4</ele>
        <time>2026-05-01T08:25:54Z</time>
      </trkpt>
      <trkpt lat="45.11892" lon="4.46515">
        <ele>930.1</ele>
        <time>2026-05-01T08:25:59Z</time>
      </trkpt>
      <trkpt lat="45.11888" lon="4.46522">
        <ele>931.4</ele>
        <time>2026-05-01T08:26:04Z</time>
      </trkpt>
      <trkpt lat="45.11885" lon="4.46529">
        <ele>932.5</ele>
        <time>2026-05-01T08:26:09Z</time>
      </trkpt>
      <trkpt lat="45.11882" lon="4.46538">
        <ele>933.7</ele>
        <time>2026-05-01T08:26:14Z</time>
      </trkpt>
      <trkpt lat="45.11881" lon="4.46547">
        <ele>934.5</ele>
        <time>2026-05-01T08:26:19Z</time>
      </trkpt>
      <trkpt lat="45.11878" lon="4.46555">
        <ele>935.5</ele>
        <time>2026-05-01T08:26:24Z</time>
      </trkpt>
      <trkpt lat="45.11877" lon="4.46565">
        <ele>936.2</ele>
        <time>2026-05-01T08:26:29Z</time>
      </trkpt>
      <trkpt lat="45.11875" lon="4.46572">
        <ele>936.9</ele>
        <time>2026-05-01T08:26:34Z</time>
      </trkpt>
      <trkpt lat="45.11875" lon="4.46579">
        <ele>937.3</ele>
        <time>2026-05-01T08:26:39Z</time>
      </trkpt>
      <trkpt lat="45.11875" lon="4.46586">
        <ele>937.2</ele>
        <time>2026-05-01T08:26:44Z</time>
      </trkpt>
      <trkpt lat="45.11876" lon="4.46593">
        <ele>936.2</ele>
        <time>2026-05-01T08:26:49Z</time>
      </trkpt>
      <trkpt lat="45.11878" lon="4.46599">
        <ele>935.2</ele>
        <time>2026-05-01T08:26:54Z</time>
      </trkpt>
      <trkpt lat="45.11879" lon="4.466">
        <ele>935</ele>
        <time>2026-05-01T08:26:59Z</time>
      </trkpt>
      <trkpt lat="45.11879" lon="4.466">
        <ele>935</ele>
        <time>2026-05-01T08:27:04Z</time>
      </trkpt>
      <trkpt lat="45.1188" lon="4.466">
        <ele>934.8</ele>
        <time>2026-05-01T08:27:09Z</time>
      </trkpt>
      <trkpt lat="45.11885" lon="4.46594">
        <ele>935</ele>
        <time>2026-05-01T08:27:14Z</time>
      </trkpt>
      <trkpt lat="45.1189" lon="4.4659">
        <ele>934.8</ele>
        <time>2026-05-01T08:27:19Z</time>
      </trkpt>
      <trkpt lat="45.11895" lon="4.46589">
        <ele>934.3</ele>
        <time>2026-05-01T08:27:24Z</time>
      </trkpt>
      <trkpt lat="45.119" lon="4.46591">
        <ele>933.5</ele>
        <time>2026-05-01T08:27:29Z</time>
      </trkpt>
      <trkpt lat="45.11901" lon="4.46591">
        <ele>933.4</ele>
        <time>2026-05-01T08:27:34Z</time>
      </trkpt>
      <trkpt lat="45.11897" lon="4.46594">
        <ele>933.6</ele>
        <time>2026-05-01T08:27:39Z</time>
      </trkpt>
      <trkpt lat="45.11891" lon="4.46597">
        <ele>933.9</ele>
        <time>2026-05-01T08:27:44Z</time>
      </trkpt>
      <trkpt lat="45.11888" lon="4.46604">
        <ele>933.5</ele>
        <time>2026-05-01T08:27:49Z</time>
      </trkpt>
      <trkpt lat="45.11891" lon="4.46611">
        <ele>932.5</ele>
        <time>2026-05-01T08:27:54Z</time>
      </trkpt>
      <trkpt lat="45.11897" lon="4.46615">
        <ele>931.5</ele>
        <time>2026-05-01T08:27:59Z</time>
      </trkpt>
      <trkpt lat="45.11904" lon="4.4662">
        <ele>930.4</ele>
        <time>2026-05-01T08:28:04Z</time>
      </trkpt>
      <trkpt lat="45.11911" lon="4.46624">
        <ele>929.5</ele>
        <time>2026-05-01T08:28:09Z</time>
      </trkpt>
      <trkpt lat="45.11918" lon="4.46627">
        <ele>928.9</ele>
        <time>2026-05-01T08:28:14Z</time>
      </trkpt>
      <trkpt lat="45.11924" lon="4.4663">
        <ele>928.6</ele>
        <time>2026-05-01T08:28:19Z</time>
      </trkpt>
      <trkpt lat="45.11931" lon="4.46634">
        <ele>928.2</ele>
        <time>2026-05-01T08:28:24Z</time>
      </trkpt>
      <trkpt lat="45.11938" lon="4.46638">
        <ele>927.7</ele>
        <time>2026-05-01T08:28:29Z</time>
      </trkpt>
      <trkpt lat="45.11946" lon="4.4664">
        <ele>927.3</ele>
        <time>2026-05-01T08:28:34Z</time>
      </trkpt>
      <trkpt lat="45.11955" lon="4.46643">
        <ele>926.7</ele>
        <time>2026-05-01T08:28:39Z</time>
      </trkpt>
      <trkpt lat="45.11962" lon="4.46645">
        <ele>926.3</ele>
        <time>2026-05-01T08:28:44Z</time>
      </trkpt>
      <trkpt lat="45.11969" lon="4.46645">
        <ele>926.1</ele>
        <time>2026-05-01T08:28:49Z</time>
      </trkpt>
      <trkpt lat="45.11976" lon="4.46644">
        <ele>926</ele>
        <time>2026-05-01T08:28:54Z</time>
      </trkpt>
      <trkpt lat="45.11983" lon="4.46641">
        <ele>926.3</ele>
        <time>2026-05-01T08:28:59Z</time>
      </trkpt>
      <trkpt lat="45.11989" lon="4.46635">
        <ele>927.2</ele>
        <time>2026-05-01T08:29:04Z</time>
      </trkpt>
      <trkpt lat="45.11995" lon="4.46628">
        <ele>928.4</ele>
        <time>2026-05-01T08:29:09Z</time>
      </trkpt>
      <trkpt lat="45.12002" lon="4.46621">
        <ele>929.7</ele>
        <time>2026-05-01T08:29:14Z</time>
      </trkpt>
      <trkpt lat="45.12009" lon="4.46614">
        <ele>931</ele>
        <time>2026-05-01T08:29:19Z</time>
      </trkpt>
      <trkpt lat="45.12015" lon="4.46606">
        <ele>932.6</ele>
        <time>2026-05-01T08:29:24Z</time>
      </trkpt>
      <trkpt lat="45.12021" lon="4.46599">
        <ele>934.1</ele>
        <time>2026-05-01T08:29:29Z</time>
      </trkpt>
      <trkpt lat="45.12027" lon="4.46593">
        <ele>935.5</ele>
        <time>2026-05-01T08:29:34Z</time>
      </trkpt>
      <trkpt lat="45.12034" lon="4.46588">
        <ele>936.7</ele>
        <time>2026-05-01T08:29:39Z</time>
      </trkpt>
      <trkpt lat="45.1204" lon="4.46585">
        <ele>937.6</ele>
        <time>2026-05-01T08:29:44Z</time>
      </trkpt>
      <trkpt lat="45.12046" lon="4.46581">
        <ele>938.2</ele>
        <time>2026-05-01T08:29:49Z</time>
      </trkpt>
      <trkpt lat="45.12054" lon="4.46579">
        <ele>938.5</ele>
        <time>2026-05-01T08:29:54Z</time>
      </trkpt>
      <trkpt lat="45.12064" lon="4.46579">
        <ele>938.8</ele>
        <time>2026-05-01T08:29:59Z</time>
      </trkpt>
      <trkpt lat="45.12074" lon="4.46581">
        <ele>939</ele>
        <time>2026-05-01T08:30:04Z</time>
      </trkpt>
      <trkpt lat="45.12081" lon="4.46585">
        <ele>938.5</ele>
        <time>2026-05-01T08:30:09Z</time>
      </trkpt>
      <trkpt lat="45.12087" lon="4.46594">
        <ele>935.6</ele>
        <time>2026-05-01T08:30:14Z</time>
      </trkpt>
      <trkpt lat="45.12093" lon="4.46602">
        <ele>932.8</ele>
        <time>2026-05-01T08:30:19Z</time>
      </trkpt>
      <trkpt lat="45.12098" lon="4.46612">
        <ele>929.6</ele>
        <time>2026-05-01T08:30:24Z</time>
      </trkpt>
      <trkpt lat="45.12102" lon="4.46621">
        <ele>926.8</ele>
        <time>2026-05-01T08:30:29Z</time>
      </trkpt>
      <trkpt lat="45.12106" lon="4.4663">
        <ele>924</ele>
        <time>2026-05-01T08:30:34Z</time>
      </trkpt>
      <trkpt lat="45.12108" lon="4.46637">
        <ele>921.9</ele>
        <time>2026-05-01T08:30:39Z</time>
      </trkpt>
      <trkpt lat="45.12111" lon="4.46645">
        <ele>919.6</ele>
        <time>2026-05-01T08:30:44Z</time>
      </trkpt>
      <trkpt lat="45.12113" lon="4.46654">
        <ele>917</ele>
        <time>2026-05-01T08:30:49Z</time>
      </trkpt>
      <trkpt lat="45.12116" lon="4.46663">
        <ele>914.4</ele>
        <time>2026-05-01T08:30:54Z</time>
      </trkpt>
      <trkpt lat="45.12121" lon="4.46673">
        <ele>911.5</ele>
        <time>2026-05-01T08:30:59Z</time>
      </trkpt>
      <trkpt lat="45.12124" lon="4.46682">
        <ele>909.1</ele>
        <time>2026-05-01T08:31:04Z</time>
      </trkpt>
      <trkpt lat="45.12128" lon="4.46693">
        <ele>906.1</ele>
        <time>2026-05-01T08:31:09Z</time>
      </trkpt>
      <trkpt lat="45.12129" lon="4.46703">
        <ele>903.5</ele>
        <time>2026-05-01T08:31:14Z</time>
      </trkpt>
      <trkpt lat="45.1213" lon="4.46715">
        <ele>900.5</ele>
        <time>2026-05-01T08:31:19Z</time>
      </trkpt>
      <trkpt lat="45.12133" lon="4.46726">
        <ele>897.6</ele>
        <time>2026-05-01T08:31:24Z</time>
      </trkpt>
      <trkpt lat="45.12135" lon="4.46737">
        <ele>894.9</ele>
        <time>2026-05-01T08:31:29Z</time>
      </trkpt>
      <trkpt lat="45.12137" lon="4.4675">
        <ele>891.6</ele>
        <time>2026-05-01T08:31:34Z</time>
      </trkpt>
      <trkpt lat="45.12139" lon="4.46757">
        <ele>890.4</ele>
        <time>2026-05-01T08:31:39Z</time>
      </trkpt>
      <trkpt lat="45.12142" lon="4.46768">
        <ele>888.5</ele>
        <time>2026-05-01T08:31:44Z</time>
      </trkpt>
      <trkpt lat="45.12144" lon="4.46776">
        <ele>887.2</ele>
        <time>2026-05-01T08:31:49Z</time>
      </trkpt>
      <trkpt lat="45.12148" lon="4.46787">
        <ele>885.6</ele>
        <time>2026-05-01T08:31:54Z</time>
      </trkpt>
      <trkpt lat="45.12151" lon="4.46796">
        <ele>884.3</ele>
        <time>2026-05-01T08:31:59Z</time>
      </trkpt>
      <trkpt lat="45.12153" lon="4.46806">
        <ele>882.8</ele>
        <time>2026-05-01T08:32:04Z</time>
      </trkpt>
      <trkpt lat="45.12156" lon="4.46816">
        <ele>881.5</ele>
        <time>2026-05-01T08:32:09Z</time>
      </trkpt>
      <trkpt lat="45.12158" lon="4.46826">
        <ele>880.1</ele>
        <time>2026-05-01T08:32:14Z</time>
      </trkpt>
      <trkpt lat="45.1216" lon="4.46837">
        <ele>878.9</ele>
        <time>2026-05-01T08:32:19Z</time>
      </trkpt>
      <trkpt lat="45.12161" lon="4.46849">
        <ele>877.9</ele>
        <time>2026-05-01T08:32:24Z</time>
      </trkpt>
      <trkpt lat="45.12164" lon="4.4686">
        <ele>877.3</ele>
        <time>2026-05-01T08:32:29Z</time>
      </trkpt>
      <trkpt lat="45.12169" lon="4.46869">
        <ele>877.7</ele>
        <time>2026-05-01T08:32:34Z</time>
      </trkpt>
      <trkpt lat="45.12173" lon="4.46879">
        <ele>878.1</ele>
        <time>2026-05-01T08:32:39Z</time>
      </trkpt>
      <trkpt lat="45.12173" lon="4.46879">
        <ele>878.1</ele>
        <time>2026-05-01T08:32:44Z</time>
      </trkpt>
      <trkpt lat="45.12173" lon="4.46879">
        <ele>878.1</ele>
        <time>2026-05-01T08:32:49Z</time>
      </trkpt>
      <trkpt lat="45.12173" lon="4.46879">
        <ele>878.1</ele>
        <time>2026-05-01T08:32:54Z</time>
      </trkpt>
      <trkpt lat="45.12173" lon="4.46879">
        <ele>878.1</ele>
        <time>2026-05-01T08:32:59Z</time>
      </trkpt>
      <trkpt lat="45.12173" lon="4.46879">
        <ele>878.1</ele>
        <time>2026-05-01T08:33:04Z</time>
      </trkpt>
      <trkpt lat="45.12173" lon="4.46879">
        <ele>878.1</ele>
        <time>2026-05-01T08:33:09Z</time>
      </trkpt>
      <trkpt lat="45.12173" lon="4.46879">
        <ele>878.1</ele>
        <time>2026-05-01T08:33:14Z</time>
      </trkpt>
      <trkpt lat="45.12173" lon="4.46879">
        <ele>878.1</ele>
        <time>2026-05-01T08:33:19Z</time>
      </trkpt>
      <trkpt lat="45.12173" lon="4.46879">
        <ele>878.1</ele>
        <time>2026-05-01T08:33:24Z</time>
      </trkpt>
      <trkpt lat="45.12168" lon="4.46885">
        <ele>876.1</ele>
        <time>2026-05-01T08:33:29Z</time>
      </trkpt>
      <trkpt lat="45.12162" lon="4.46883">
        <ele>874.9</ele>
        <time>2026-05-01T08:33:34Z</time>
      </trkpt>
      <trkpt lat="45.12157" lon="4.4688">
        <ele>874.2</ele>
        <time>2026-05-01T08:33:39Z</time>
      </trkpt>
      <trkpt lat="45.12154" lon="4.46877">
        <ele>873.9</ele>
        <time>2026-05-01T08:33:44Z</time>
      </trkpt>
      <trkpt lat="45.12149" lon="4.46874">
        <ele>873.3</ele>
        <time>2026-05-01T08:33:49Z</time>
      </trkpt>
      <trkpt lat="45.12146" lon="4.46875">
        <ele>872.7</ele>
        <time>2026-05-01T08:33:54Z</time>
      </trkpt>
      <trkpt lat="45.12148" lon="4.46879">
        <ele>872.6</ele>
        <time>2026-05-01T08:33:59Z</time>
      </trkpt>
      <trkpt lat="45.12152" lon="4.46886">
        <ele>872.6</ele>
        <time>2026-05-01T08:34:04Z</time>
      </trkpt>
      <trkpt lat="45.12155" lon="4.46894">
        <ele>872.4</ele>
        <time>2026-05-01T08:34:09Z</time>
      </trkpt>
      <trkpt lat="45.12159" lon="4.469">
        <ele>872.7</ele>
        <time>2026-05-01T08:34:14Z</time>
      </trkpt>
      <trkpt lat="45.12165" lon="4.46903">
        <ele>873.8</ele>
        <time>2026-05-01T08:34:19Z</time>
      </trkpt>
      <trkpt lat="45.1217" lon="4.46909">
        <ele>874.6</ele>
        <time>2026-05-01T08:34:24Z</time>
      </trkpt>
      <trkpt lat="45.12174" lon="4.46918">
        <ele>874.8</ele>
        <time>2026-05-01T08:34:29Z</time>
      </trkpt>
      <trkpt lat="45.12178" lon="4.46924">
        <ele>874.9</ele>
        <time>2026-05-01T08:34:34Z</time>
      </trkpt>
      <trkpt lat="45.12182" lon="4.46929">
        <ele>875.2</ele>
        <time>2026-05-01T08:34:39Z</time>
      </trkpt>
      <trkpt lat="45.12187" lon="4.46931">
        <ele>876.1</ele>
        <time>2026-05-01T08:34:44Z</time>
      </trkpt>
      <trkpt lat="45.12192" lon="4.46932">
        <ele>877.2</ele>
        <time>2026-05-01T08:34:49Z</time>
      </trkpt>
      <trkpt lat="45.12198" lon="4.46929">
        <ele>879.3</ele>
        <time>2026-05-01T08:34:54Z</time>
      </trkpt>
      <trkpt lat="45.12203" lon="4.46928">
        <ele>880.7</ele>
        <time>2026-05-01T08:34:59Z</time>
      </trkpt>
      <trkpt lat="45.12209" lon="4.46927">
        <ele>882.5</ele>
        <time>2026-05-01T08:35:04Z</time>
      </trkpt>
      <trkpt lat="45.12215" lon="4.46924">
        <ele>884.7</ele>
        <time>2026-05-01T08:35:09Z</time>
      </trkpt>
      <trkpt lat="45.12223" lon="4.46922">
        <ele>887.3</ele>
        <time>2026-05-01T08:35:14Z</time>
      </trkpt>
      <trkpt lat="45.12231" lon="4.4692">
        <ele>889.9</ele>
        <time>2026-05-01T08:35:19Z</time>
      </trkpt>
      <trkpt lat="45.12237" lon="4.46919">
        <ele>891.8</ele>
        <time>2026-05-01T08:35:24Z</time>
      </trkpt>
      <trkpt lat="45.12244" lon="4.46918">
        <ele>894</ele>
        <time>2026-05-01T08:35:29Z</time>
      </trkpt>
      <trkpt lat="45.12251" lon="4.46915">
        <ele>896.3</ele>
        <time>2026-05-01T08:35:34Z</time>
      </trkpt>
      <trkpt lat="45.12256" lon="4.46914">
        <ele>896.5</ele>
        <time>2026-05-01T08:35:39Z</time>
      </trkpt>
      <trkpt lat="45.12262" lon="4.46914">
        <ele>896.6</ele>
        <time>2026-05-01T08:35:44Z</time>
      </trkpt>
      <trkpt lat="45.12263" lon="4.46916">
        <ele>896.3</ele>
        <time>2026-05-01T08:35:49Z</time>
      </trkpt>
      <trkpt lat="45.12263" lon="4.46916">
        <ele>896.3</ele>
        <time>2026-05-01T08:35:54Z</time>
      </trkpt>
      <trkpt lat="45.12263" lon="4.46916">
        <ele>896.3</ele>
        <time>2026-05-01T08:35:59Z</time>
      </trkpt>
      <trkpt lat="45.12263" lon="4.46916">
        <ele>896.3</ele>
        <time>2026-05-01T08:36:04Z</time>
      </trkpt>
      <trkpt lat="45.12263" lon="4.46916">
        <ele>896.3</ele>
        <time>2026-05-01T08:36:09Z</time>
      </trkpt>
      <trkpt lat="45.12263" lon="4.46916">
        <ele>896.3</ele>
        <time>2026-05-01T08:36:14Z</time>
      </trkpt>
      <trkpt lat="45.1227" lon="4.46913">
        <ele>896.9</ele>
        <time>2026-05-01T08:36:19Z</time>
      </trkpt>
      <trkpt lat="45.12275" lon="4.46911">
        <ele>897.4</ele>
        <time>2026-05-01T08:36:24Z</time>
      </trkpt>
      <trkpt lat="45.12283" lon="4.46907">
        <ele>898.4</ele>
        <time>2026-05-01T08:36:29Z</time>
      </trkpt>
      <trkpt lat="45.12289" lon="4.46902">
        <ele>899.6</ele>
        <time>2026-05-01T08:36:34Z</time>
      </trkpt>
      <trkpt lat="45.12292" lon="4.46898">
        <ele>900.5</ele>
        <time>2026-05-01T08:36:39Z</time>
      </trkpt>
      <trkpt lat="45.12298" lon="4.46893">
        <ele>901.9</ele>
        <time>2026-05-01T08:36:44Z</time>
      </trkpt>
      <trkpt lat="45.12298" lon="4.46891">
        <ele>902.4</ele>
        <time>2026-05-01T08:36:49Z</time>
      </trkpt>
      <trkpt lat="45.12299" lon="4.46891">
        <ele>902.4</ele>
        <time>2026-05-01T08:36:54Z</time>
      </trkpt>
      <trkpt lat="45.12304" lon="4.46883">
        <ele>904.5</ele>
        <time>2026-05-01T08:36:59Z</time>
      </trkpt>
      <trkpt lat="45.12309" lon="4.46876">
        <ele>906.5</ele>
        <time>2026-05-01T08:37:04Z</time>
      </trkpt>
      <trkpt lat="45.12314" lon="4.46869">
        <ele>908.6</ele>
        <time>2026-05-01T08:37:09Z</time>
      </trkpt>
      <trkpt lat="45.12317" lon="4.46861">
        <ele>910.9</ele>
        <time>2026-05-01T08:37:14Z</time>
      </trkpt>
      <trkpt lat="45.1232" lon="4.46854">
        <ele>912.9</ele>
        <time>2026-05-01T08:37:19Z</time>
      </trkpt>
      <trkpt lat="45.12323" lon="4.4685">
        <ele>914.3</ele>
        <time>2026-05-01T08:37:24Z</time>
      </trkpt>
      <trkpt lat="45.12328" lon="4.46847">
        <ele>915.6</ele>
        <time>2026-05-01T08:37:29Z</time>
      </trkpt>
      <trkpt lat="45.12333" lon="4.46841">
        <ele>917.8</ele>
        <time>2026-05-01T08:37:34Z</time>
      </trkpt>
      <trkpt lat="45.12339" lon="4.46838">
        <ele>917.6</ele>
        <time>2026-05-01T08:37:39Z</time>
      </trkpt>
      <trkpt lat="45.12344" lon="4.46839">
        <ele>916.4</ele>
        <time>2026-05-01T08:37:44Z</time>
      </trkpt>
      <trkpt lat="45.12348" lon="4.46845">
        <ele>914</ele>
        <time>2026-05-01T08:37:49Z</time>
      </trkpt>
      <trkpt lat="45.12351" lon="4.46853">
        <ele>911.2</ele>
        <time>2026-05-01T08:37:54Z</time>
      </trkpt>
      <trkpt lat="45.12357" lon="4.46861">
        <ele>907.8</ele>
        <time>2026-05-01T08:37:59Z</time>
      </trkpt>
      <trkpt lat="45.12362" lon="4.46867">
        <ele>905.2</ele>
        <time>2026-05-01T08:38:04Z</time>
      </trkpt>
      <trkpt lat="45.12366" lon="4.46871">
        <ele>903.3</ele>
        <time>2026-05-01T08:38:09Z</time>
      </trkpt>
      <trkpt lat="45.1237" lon="4.46878">
        <ele>900.6</ele>
        <time>2026-05-01T08:38:14Z</time>
      </trkpt>
      <trkpt lat="45.12374" lon="4.46882">
        <ele>898.8</ele>
        <time>2026-05-01T08:38:19Z</time>
      </trkpt>
      <trkpt lat="45.12378" lon="4.46887">
        <ele>896.6</ele>
        <time>2026-05-01T08:38:24Z</time>
      </trkpt>
      <trkpt lat="45.12383" lon="4.46893">
        <ele>894</ele>
        <time>2026-05-01T08:38:29Z</time>
      </trkpt>
      <trkpt lat="45.12386" lon="4.46899">
        <ele>891.8</ele>
        <time>2026-05-01T08:38:34Z</time>
      </trkpt>
      <trkpt lat="45.1239" lon="4.46905">
        <ele>889.3</ele>
        <time>2026-05-01T08:38:39Z</time>
      </trkpt>
      <trkpt lat="45.12392" lon="4.46911">
        <ele>887.3</ele>
        <time>2026-05-01T08:38:44Z</time>
      </trkpt>
      <trkpt lat="45.12397" lon="4.46917">
        <ele>884.7</ele>
        <time>2026-05-01T08:38:49Z</time>
      </trkpt>
      <trkpt lat="45.12401" lon="4.46923">
        <ele>882.3</ele>
        <time>2026-05-01T08:38:54Z</time>
      </trkpt>
      <trkpt lat="45.12404" lon="4.46928">
        <ele>880.4</ele>
        <time>2026-05-01T08:38:59Z</time>
      </trkpt>
      <trkpt lat="45.12411" lon="4.46932">
        <ele>878.1</ele>
        <time>2026-05-01T08:39:04Z</time>
      </trkpt>
      <trkpt lat="45.12416" lon="4.46936">
        <ele>876.2</ele>
        <time>2026-05-01T08:39:09Z</time>
      </trkpt>
      <trkpt lat="45.12421" lon="4.46938">
        <ele>876.1</ele>
        <time>2026-05-01T08:39:14Z</time>
      </trkpt>
      <trkpt lat="45.12425" lon="4.4694">
        <ele>875.9</ele>
        <time>2026-05-01T08:39:19Z</time>
      </trkpt>
      <trkpt lat="45.12429" lon="4.46943">
        <ele>875.6</ele>
        <time>2026-05-01T08:39:24Z</time>
      </trkpt>
      <trkpt lat="45.12434" lon="4.46945">
        <ele>875.5</ele>
        <time>2026-05-01T08:39:29Z</time>
      </trkpt>
      <trkpt lat="45.1244" lon="4.46947">
        <ele>875.6</ele>
        <time>2026-05-01T08:39:34Z</time>
      </trkpt>
      <trkpt lat="45.12446" lon="4.4695">
        <ele>875.3</ele>
        <time>2026-05-01T08:39:39Z</time>
      </trkpt>
      <trkpt lat="45.12451" lon="4.46951">
        <ele>875.5</ele>
        <time>2026-05-01T08:39:44Z</time>
      </trkpt>
      <trkpt lat="45.12457" lon="4.46954">
        <ele>875.3</ele>
        <time>2026-05-01T08:39:49Z</time>
      </trkpt>
      <trkpt lat="45.12463" lon="4.46957">
        <ele>875</ele>
        <time>2026-05-01T08:39:54Z</time>
      </trkpt>
      <trkpt lat="45.12472" lon="4.46958">
        <ele>875.6</ele>
        <time>2026-05-01T08:39:59Z</time>
      </trkpt>
      <trkpt lat="45.12478" lon="4.46961">
        <ele>875.3</ele>
        <time>2026-05-01T08:40:04Z</time>
      </trkpt>
      <trkpt lat="45.12483" lon="4.46963">
        <ele>875.2</ele>
        <time>2026-05-01T08:40:09Z</time>
      </trkpt>
      <trkpt lat="45.12488" lon="4.46964">
        <ele>875.3</ele>
        <time>2026-05-01T08:40:14Z</time>
      </trkpt>
      <trkpt lat="45.12496" lon="4.46964">
        <ele>876</ele>
        <time>2026-05-01T08:40:19Z</time>
      </trkpt>
      <trkpt lat="45.12503" lon="4.46965">
        <ele>876.4</ele>
        <time>2026-05-01T08:40:24Z</time>
      </trkpt>
      <trkpt lat="45.12509" lon="4.46968">
        <ele>876</ele>
        <time>2026-05-01T08:40:29Z</time>
      </trkpt>
      <trkpt lat="45.12515" lon="4.46971">
        <ele>875.7</ele>
        <time>2026-05-01T08:40:34Z</time>
      </trkpt>
      <trkpt lat="45.1252" lon="4.46975">
        <ele>874.9</ele>
        <time>2026-05-01T08:40:39Z</time>
      </trkpt>
      <trkpt lat="45.12525" lon="4.46979">
        <ele>874.2</ele>
        <time>2026-05-01T08:40:44Z</time>
      </trkpt>
      <trkpt lat="45.12531" lon="4.46983">
        <ele>873.4</ele>
        <time>2026-05-01T08:40:49Z</time>
      </trkpt>
      <trkpt lat="45.12538" lon="4.46985">
        <ele>873.4</ele>
        <time>2026-05-01T08:40:54Z</time>
      </trkpt>
      <trkpt lat="45.12543" lon="4.46989">
        <ele>872.5</ele>
        <time>2026-05-01T08:40:59Z</time>
      </trkpt>
      <trkpt lat="45.12548" lon="4.46992">
        <ele>872</ele>
        <time>2026-05-01T08:41:04Z</time>
      </trkpt>
      <trkpt lat="45.12552" lon="4.46995">
        <ele>871.3</ele>
        <time>2026-05-01T08:41:09Z</time>
      </trkpt>
      <trkpt lat="45.12558" lon="4.47">
        <ele>870.2</ele>
        <time>2026-05-01T08:41:14Z</time>
      </trkpt>
      <trkpt lat="45.12563" lon="4.47004">
        <ele>869.5</ele>
        <time>2026-05-01T08:41:19Z</time>
      </trkpt>
      <trkpt lat="45.12568" lon="4.47009">
        <ele>868.5</ele>
        <time>2026-05-01T08:41:24Z</time>
      </trkpt>
      <trkpt lat="45.12574" lon="4.47015">
        <ele>867.5</ele>
        <time>2026-05-01T08:41:29Z</time>
      </trkpt>
      <trkpt lat="45.12578" lon="4.4702">
        <ele>866.5</ele>
        <time>2026-05-01T08:41:34Z</time>
      </trkpt>
      <trkpt lat="45.12583" lon="4.47026">
        <ele>865.4</ele>
        <time>2026-05-01T08:41:39Z</time>
      </trkpt>
      <trkpt lat="45.12589" lon="4.47029">
        <ele>865.2</ele>
        <time>2026-05-01T08:41:44Z</time>
      </trkpt>
      <trkpt lat="45.12594" lon="4.47034">
        <ele>864.3</ele>
        <time>2026-05-01T08:41:49Z</time>
      </trkpt>
      <trkpt lat="45.12599" lon="4.47035">
        <ele>864.5</ele>
        <time>2026-05-01T08:41:54Z</time>
      </trkpt>
      <trkpt lat="45.12606" lon="4.47034">
        <ele>865.3</ele>
        <time>2026-05-01T08:41:59Z</time>
      </trkpt>
      <trkpt lat="45.12614" lon="4.47034">
        <ele>866</ele>
        <time>2026-05-01T08:42:04Z</time>
      </trkpt>
      <trkpt lat="45.12621" lon="4.47032">
        <ele>867.1</ele>
        <time>2026-05-01T08:42:09Z</time>
      </trkpt>
      <trkpt lat="45.12631" lon="4.47029">
        <ele>868.7</ele>
        <time>2026-05-01T08:42:14Z</time>
      </trkpt>
      <trkpt lat="45.12638" lon="4.47026">
        <ele>870</ele>
        <time>2026-05-01T08:42:19Z</time>
      </trkpt>
      <trkpt lat="45.12645" lon="4.47028">
        <ele>870.1</ele>
        <time>2026-05-01T08:42:24Z</time>
      </trkpt>
      <trkpt lat="45.12652" lon="4.4703">
        <ele>870.2</ele>
        <time>2026-05-01T08:42:29Z</time>
      </trkpt>
      <trkpt lat="45.12654" lon="4.47034">
        <ele>869.4</ele>
        <time>2026-05-01T08:42:34Z</time>
      </trkpt>
      <trkpt lat="45.12658" lon="4.4704">
        <ele>868.2</ele>
        <time>2026-05-01T08:42:39Z</time>
      </trkpt>
      <trkpt lat="45.12664" lon="4.47042">
        <ele>868.2</ele>
        <time>2026-05-01T08:42:44Z</time>
      </trkpt>
      <trkpt lat="45.12669" lon="4.47042">
        <ele>868.6</ele>
        <time>2026-05-01T08:42:49Z</time>
      </trkpt>
      <trkpt lat="45.12674" lon="4.47043">
        <ele>868.7</ele>
        <time>2026-05-01T08:42:54Z</time>
      </trkpt>
      <trkpt lat="45.1268" lon="4.47045">
        <ele>868.6</ele>
        <time>2026-05-01T08:42:59Z</time>
      </trkpt>
      <trkpt lat="45.12684" lon="4.47049">
        <ele>867.8</ele>
        <time>2026-05-01T08:43:04Z</time>
      </trkpt>
      <trkpt lat="45.12688" lon="4.47057">
        <ele>866</ele>
        <time>2026-05-01T08:43:09Z</time>
      </trkpt>
      <trkpt lat="45.1269" lon="4.47066">
        <ele>863.7</ele>
        <time>2026-05-01T08:43:14Z</time>
      </trkpt>
      <trkpt lat="45.12693" lon="4.47075">
        <ele>861.5</ele>
        <time>2026-05-01T08:43:19Z</time>
      </trkpt>
      <trkpt lat="45.12698" lon="4.4708">
        <ele>860.4</ele>
        <time>2026-05-01T08:43:24Z</time>
      </trkpt>
      <trkpt lat="45.12702" lon="4.47085">
        <ele>859.8</ele>
        <time>2026-05-01T08:43:29Z</time>
      </trkpt>
      <trkpt lat="45.12701" lon="4.47088">
        <ele>860.1</ele>
        <time>2026-05-01T08:43:34Z</time>
      </trkpt>
      <trkpt lat="45.12701" lon="4.47088">
        <ele>860.1</ele>
        <time>2026-05-01T08:43:39Z</time>
      </trkpt>
      <trkpt lat="45.12701" lon="4.47088">
        <ele>860.1</ele>
        <time>2026-05-01T08:43:44Z</time>
      </trkpt>
      <trkpt lat="45.12701" lon="4.47088">
        <ele>860.1</ele>
        <time>2026-05-01T08:43:49Z</time>
      </trkpt>
      <trkpt lat="45.12701" lon="4.47088">
        <ele>860.1</ele>
        <time>2026-05-01T08:43:54Z</time>
      </trkpt>
      <trkpt lat="45.12701" lon="4.47088">
        <ele>860.1</ele>
        <time>2026-05-01T08:43:59Z</time>
      </trkpt>
      <trkpt lat="45.12701" lon="4.47088">
        <ele>860.1</ele>
        <time>2026-05-01T08:44:04Z</time>
      </trkpt>
      <trkpt lat="45.12701" lon="4.47088">
        <ele>860.1</ele>
        <time>2026-05-01T08:44:09Z</time>
      </trkpt>
      <trkpt lat="45.12703" lon="4.47089">
        <ele>860.2</ele>
        <time>2026-05-01T08:44:14Z</time>
      </trkpt>
      <trkpt lat="45.127" lon="4.47105">
        <ele>861.6</ele>
        <time>2026-05-01T08:44:19Z</time>
      </trkpt>
      <trkpt lat="45.12699" lon="4.47114">
        <ele>862.5</ele>
        <time>2026-05-01T08:44:24Z</time>
      </trkpt>
      <trkpt lat="45.127" lon="4.47122">
        <ele>863.2</ele>
        <time>2026-05-01T08:44:29Z</time>
      </trkpt>
      <trkpt lat="45.127" lon="4.47131">
        <ele>864.1</ele>
        <time>2026-05-01T08:44:34Z</time>
      </trkpt>
      <trkpt lat="45.12699" lon="4.47138">
        <ele>864.8</ele>
        <time>2026-05-01T08:44:39Z</time>
      </trkpt>
      <trkpt lat="45.12697" lon="4.47148">
        <ele>865.9</ele>
        <time>2026-05-01T08:44:44Z</time>
      </trkpt>
      <trkpt lat="45.12695" lon="4.47157">
        <ele>866.9</ele>
        <time>2026-05-01T08:44:49Z</time>
      </trkpt>
      <trkpt lat="45.12692" lon="4.47169">
        <ele>868.9</ele>
        <time>2026-05-01T08:44:54Z</time>
      </trkpt>
      <trkpt lat="45.1269" lon="4.47178">
        <ele>871.8</ele>
        <time>2026-05-01T08:44:59Z</time>
      </trkpt>
      <trkpt lat="45.12692" lon="4.47187">
        <ele>874.2</ele>
        <time>2026-05-01T08:45:04Z</time>
      </trkpt>
      <trkpt lat="45.12694" lon="4.47194">
        <ele>875.8</ele>
        <time>2026-05-01T08:45:09Z</time>
      </trkpt>
      <trkpt lat="45.12694" lon="4.472">
        <ele>877.6</ele>
        <time>2026-05-01T08:45:14Z</time>
      </trkpt>
      <trkpt lat="45.12694" lon="4.47201">
        <ele>877.8</ele>
        <time>2026-05-01T08:45:19Z</time>
      </trkpt>
      <trkpt lat="45.12691" lon="4.47195">
        <ele>876.7</ele>
        <time>2026-05-01T08:45:24Z</time>
      </trkpt>
      <trkpt lat="45.12689" lon="4.47189">
        <ele>875.3</ele>
        <time>2026-05-01T08:45:29Z</time>
      </trkpt>
      <trkpt lat="45.12687" lon="4.47184">
        <ele>874.1</ele>
        <time>2026-05-01T08:45:34Z</time>
      </trkpt>
      <trkpt lat="45.12685" lon="4.47188">
        <ele>875.6</ele>
        <time>2026-05-01T08:45:39Z</time>
      </trkpt>
      <trkpt lat="45.12685" lon="4.47197">
        <ele>878.4</ele>
        <time>2026-05-01T08:45:44Z</time>
      </trkpt>
      <trkpt lat="45.12685" lon="4.47205">
        <ele>880.9</ele>
        <time>2026-05-01T08:45:49Z</time>
      </trkpt>
      <trkpt lat="45.12687" lon="4.47213">
        <ele>882.9</ele>
        <time>2026-05-01T08:45:54Z</time>
      </trkpt>
      <trkpt lat="45.12689" lon="4.47219">
        <ele>884.2</ele>
        <time>2026-05-01T08:45:59Z</time>
      </trkpt>
      <trkpt lat="45.12689" lon="4.47226">
        <ele>886.3</ele>
        <time>2026-05-01T08:46:04Z</time>
      </trkpt>
      <trkpt lat="45.12691" lon="4.47233">
        <ele>887.8</ele>
        <time>2026-05-01T08:46:09Z</time>
      </trkpt>
      <trkpt lat="45.12692" lon="4.47237">
        <ele>888.7</ele>
        <time>2026-05-01T08:46:14Z</time>
      </trkpt>
      <trkpt lat="45.12691" lon="4.47242">
        <ele>890.5</ele>
        <time>2026-05-01T08:46:19Z</time>
      </trkpt>
      <trkpt lat="45.12691" lon="4.47243">
        <ele>890.8</ele>
        <time>2026-05-01T08:46:24Z</time>
      </trkpt>
      <trkpt lat="45.1269" lon="4.47244">
        <ele>891.4</ele>
        <time>2026-05-01T08:46:29Z</time>
      </trkpt>
      <trkpt lat="45.12686" lon="4.47245">
        <ele>893</ele>
        <time>2026-05-01T08:46:34Z</time>
      </trkpt>
      <trkpt lat="45.12685" lon="4.47246">
        <ele>893.6</ele>
        <time>2026-05-01T08:46:39Z</time>
      </trkpt>
      <trkpt lat="45.12685" lon="4.47246">
        <ele>893.6</ele>
        <time>2026-05-01T08:46:44Z</time>
      </trkpt>
      <trkpt lat="45.12685" lon="4.47246">
        <ele>893.6</ele>
        <time>2026-05-01T08:46:49Z</time>
      </trkpt>
      <trkpt lat="45.12685" lon="4.47246">
        <ele>893.6</ele>
        <time>2026-05-01T08:46:54Z</time>
      </trkpt>
      <trkpt lat="45.12685" lon="4.47246">
        <ele>893.6</ele>
        <time>2026-05-01T08:46:59Z</time>
      </trkpt>
      <trkpt lat="45.12685" lon="4.47246">
        <ele>893.6</ele>
        <time>2026-05-01T08:47:04Z</time>
      </trkpt>
      <trkpt lat="45.12685" lon="4.47246">
        <ele>893.6</ele>
        <time>2026-05-01T08:47:09Z</time>
      </trkpt>
      <trkpt lat="45.12685" lon="4.47246">
        <ele>893.6</ele>
        <time>2026-05-01T08:47:14Z</time>
      </trkpt>
      <trkpt lat="45.12692" lon="4.47236">
        <ele>888.4</ele>
        <time>2026-05-01T08:47:19Z</time>
      </trkpt>
      <trkpt lat="45.12693" lon="4.47229">
        <ele>886.1</ele>
        <time>2026-05-01T08:47:24Z</time>
      </trkpt>
      <trkpt lat="45.12695" lon="4.47224">
        <ele>884.1</ele>
        <time>2026-05-01T08:47:29Z</time>
      </trkpt>
      <trkpt lat="45.12696" lon="4.47218">
        <ele>882.2</ele>
        <time>2026-05-01T08:47:34Z</time>
      </trkpt>
      <trkpt lat="45.12698" lon="4.47212">
        <ele>880</ele>
        <time>2026-05-01T08:47:39Z</time>
      </trkpt>
      <trkpt lat="45.127" lon="4.47208">
        <ele>878.5</ele>
        <time>2026-05-01T08:47:44Z</time>
      </trkpt>
      <trkpt lat="45.12701" lon="4.47204">
        <ele>877.2</ele>
        <time>2026-05-01T08:47:49Z</time>
      </trkpt>
      <trkpt lat="45.12705" lon="4.47203">
        <ele>876.1</ele>
        <time>2026-05-01T08:47:54Z</time>
      </trkpt>
      <trkpt lat="45.12708" lon="4.47208">
        <ele>876.7</ele>
        <time>2026-05-01T08:47:59Z</time>
      </trkpt>
      <trkpt lat="45.1271" lon="4.47214">
        <ele>877.7</ele>
        <time>2026-05-01T08:48:04Z</time>
      </trkpt>
      <trkpt lat="45.12709" lon="4.47216">
        <ele>878.5</ele>
        <time>2026-05-01T08:48:09Z</time>
      </trkpt>
      <trkpt lat="45.12711" lon="4.47219">
        <ele>878.7</ele>
        <time>2026-05-01T08:48:14Z</time>
      </trkpt>
      <trkpt lat="45.12713" lon="4.47223">
        <ele>879.1</ele>
        <time>2026-05-01T08:48:19Z</time>
      </trkpt>
      <trkpt lat="45.12715" lon="4.47227">
        <ele>879.5</ele>
        <time>2026-05-01T08:48:24Z</time>
      </trkpt>
      <trkpt lat="45.12718" lon="4.4723">
        <ele>879.4</ele>
        <time>2026-05-01T08:48:29Z</time>
      </trkpt>
      <trkpt lat="45.12721" lon="4.47234">
        <ele>879.4</ele>
        <time>2026-05-01T08:48:34Z</time>
      </trkpt>
      <trkpt lat="45.12724" lon="4.47239">
        <ele>879.5</ele>
        <time>2026-05-01T08:48:39Z</time>
      </trkpt>
      <trkpt lat="45.12728" lon="4.47243">
        <ele>879</ele>
        <time>2026-05-01T08:48:44Z</time>
      </trkpt>
      <trkpt lat="45.12731" lon="4.47247">
        <ele>878.8</ele>
        <time>2026-05-01T08:48:49Z</time>
      </trkpt>
      <trkpt lat="45.12733" lon="4.4725">
        <ele>878.7</ele>
        <time>2026-05-01T08:48:54Z</time>
      </trkpt>
      <trkpt lat="45.12736" lon="4.47252">
        <ele>878</ele>
        <time>2026-05-01T08:48:59Z</time>
      </trkpt>
      <trkpt lat="45.12739" lon="4.47255">
        <ele>877.4</ele>
        <time>2026-05-01T08:49:04Z</time>
      </trkpt>
      <trkpt lat="45.12742" lon="4.47257">
        <ele>876.7</ele>
        <time>2026-05-01T08:49:09Z</time>
      </trkpt>
      <trkpt lat="45.12746" lon="4.4726">
        <ele>875.7</ele>
        <time>2026-05-01T08:49:14Z</time>
      </trkpt>
      <trkpt lat="45.1275" lon="4.47262">
        <ele>874.6</ele>
        <time>2026-05-01T08:49:19Z</time>
      </trkpt>
      <trkpt lat="45.12754" lon="4.47265">
        <ele>874.8</ele>
        <time>2026-05-01T08:49:24Z</time>
      </trkpt>
      <trkpt lat="45.12758" lon="4.47272">
        <ele>875.5</ele>
        <time>2026-05-01T08:49:29Z</time>
      </trkpt>
      <trkpt lat="45.12761" lon="4.47279">
        <ele>876.1</ele>
        <time>2026-05-01T08:49:34Z</time>
      </trkpt>
      <trkpt lat="45.12759" lon="4.47287">
        <ele>877.2</ele>
        <time>2026-05-01T08:49:39Z</time>
      </trkpt>
      <trkpt lat="45.12752" lon="4.47292">
        <ele>878.4</ele>
        <time>2026-05-01T08:49:44Z</time>
      </trkpt>
      <trkpt lat="45.12748" lon="4.47301">
        <ele>880.5</ele>
        <time>2026-05-01T08:49:49Z</time>
      </trkpt>
      <trkpt lat="45.12747" lon="4.47315">
        <ele>882.8</ele>
        <time>2026-05-01T08:49:54Z</time>
      </trkpt>
      <trkpt lat="45.1275" lon="4.47326">
        <ele>883</ele>
        <time>2026-05-01T08:49:59Z</time>
      </trkpt>
      <trkpt lat="45.12752" lon="4.47336">
        <ele>884.1</ele>
        <time>2026-05-01T08:50:04Z</time>
      </trkpt>
      <trkpt lat="45.12754" lon="4.47344">
        <ele>885.2</ele>
        <time>2026-05-01T08:50:09Z</time>
      </trkpt>
      <trkpt lat="45.12756" lon="4.47353">
        <ele>886.4</ele>
        <time>2026-05-01T08:50:14Z</time>
      </trkpt>
      <trkpt lat="45.12757" lon="4.47361">
        <ele>887.6</ele>
        <time>2026-05-01T08:50:19Z</time>
      </trkpt>
      <trkpt lat="45.12756" lon="4.4737">
        <ele>889.3</ele>
        <time>2026-05-01T08:50:24Z</time>
      </trkpt>
      <trkpt lat="45.12756" lon="4.47383">
        <ele>891.5</ele>
        <time>2026-05-01T08:50:29Z</time>
      </trkpt>
      <trkpt lat="45.12753" lon="4.47394">
        <ele>894.2</ele>
        <time>2026-05-01T08:50:34Z</time>
      </trkpt>
      <trkpt lat="45.1275" lon="4.47404">
        <ele>896.7</ele>
        <time>2026-05-01T08:50:39Z</time>
      </trkpt>
      <trkpt lat="45.12745" lon="4.47411">
        <ele>900.2</ele>
        <time>2026-05-01T08:50:44Z</time>
      </trkpt>
      <trkpt lat="45.12742" lon="4.47408">
        <ele>901</ele>
        <time>2026-05-01T08:50:49Z</time>
      </trkpt>
      <trkpt lat="45.1274" lon="4.47406">
        <ele>901.5</ele>
        <time>2026-05-01T08:50:54Z</time>
      </trkpt>
      <trkpt lat="45.12736" lon="4.47408">
        <ele>903.6</ele>
        <time>2026-05-01T08:50:59Z</time>
      </trkpt>
      <trkpt lat="45.12736" lon="4.47408">
        <ele>903.6</ele>
        <time>2026-05-01T08:51:04Z</time>
      </trkpt>
      <trkpt lat="45.12736" lon="4.47408">
        <ele>903.6</ele>
        <time>2026-05-01T08:51:09Z</time>
      </trkpt>
      <trkpt lat="45.12736" lon="4.47408">
        <ele>903.6</ele>
        <time>2026-05-01T08:51:14Z</time>
      </trkpt>
      <trkpt lat="45.12736" lon="4.47408">
        <ele>903.6</ele>
        <time>2026-05-01T08:51:19Z</time>
      </trkpt>
      <trkpt lat="45.12724" lon="4.47414">
        <ele>910.1</ele>
        <time>2026-05-01T08:51:24Z</time>
      </trkpt>
      <trkpt lat="45.12718" lon="4.47409">
        <ele>911.8</ele>
        <time>2026-05-01T08:51:29Z</time>
      </trkpt>
      <trkpt lat="45.12714" lon="4.47402">
        <ele>912.3</ele>
        <time>2026-05-01T08:51:34Z</time>
      </trkpt>
      <trkpt lat="45.12713" lon="4.47393">
        <ele>911</ele>
        <time>2026-05-01T08:51:39Z</time>
      </trkpt>
      <trkpt lat="45.1271" lon="4.47384">
        <ele>910.7</ele>
        <time>2026-05-01T08:51:44Z</time>
      </trkpt>
      <trkpt lat="45.12706" lon="4.47376">
        <ele>911</ele>
        <time>2026-05-01T08:51:49Z</time>
      </trkpt>
      <trkpt lat="45.12703" lon="4.47368">
        <ele>910.8</ele>
        <time>2026-05-01T08:51:54Z</time>
      </trkpt>
      <trkpt lat="45.12701" lon="4.47357">
        <ele>909.6</ele>
        <time>2026-05-01T08:51:59Z</time>
      </trkpt>
      <trkpt lat="45.12697" lon="4.47349">
        <ele>909.8</ele>
        <time>2026-05-01T08:52:04Z</time>
      </trkpt>
      <trkpt lat="45.12693" lon="4.4734">
        <ele>909.9</ele>
        <time>2026-05-01T08:52:09Z</time>
      </trkpt>
      <trkpt lat="45.1269" lon="4.47331">
        <ele>909.5</ele>
        <time>2026-05-01T08:52:14Z</time>
      </trkpt>
      <trkpt lat="45.12686" lon="4.47323">
        <ele>909.5</ele>
        <time>2026-05-01T08:52:19Z</time>
      </trkpt>
      <trkpt lat="45.12682" lon="4.47314">
        <ele>909.3</ele>
        <time>2026-05-01T08:52:24Z</time>
      </trkpt>
      <trkpt lat="45.12678" lon="4.47305">
        <ele>909</ele>
        <time>2026-05-01T08:52:29Z</time>
      </trkpt>
      <trkpt lat="45.12675" lon="4.47296">
        <ele>908.2</ele>
        <time>2026-05-01T08:52:34Z</time>
      </trkpt>
      <trkpt lat="45.12672" lon="4.47286">
        <ele>907.2</ele>
        <time>2026-05-01T08:52:39Z</time>
      </trkpt>
      <trkpt lat="45.12668" lon="4.47275">
        <ele>906.2</ele>
        <time>2026-05-01T08:52:44Z</time>
      </trkpt>
      <trkpt lat="45.12663" lon="4.47264">
        <ele>904.4</ele>
        <time>2026-05-01T08:52:49Z</time>
      </trkpt>
      <trkpt lat="45.12657" lon="4.47253">
        <ele>902.1</ele>
        <time>2026-05-01T08:52:54Z</time>
      </trkpt>
      <trkpt lat="45.12653" lon="4.47247">
        <ele>900.4</ele>
        <time>2026-05-01T08:52:59Z</time>
      </trkpt>
      <trkpt lat="45.12651" lon="4.47239">
        <ele>897.5</ele>
        <time>2026-05-01T08:53:04Z</time>
      </trkpt>
      <trkpt lat="45.1265" lon="4.47228">
        <ele>893.5</ele>
        <time>2026-05-01T08:53:09Z</time>
      </trkpt>
      <trkpt lat="45.12647" lon="4.47219">
        <ele>890.2</ele>
        <time>2026-05-01T08:53:14Z</time>
      </trkpt>
      <trkpt lat="45.12644" lon="4.4721">
        <ele>886.9</ele>
        <time>2026-05-01T08:53:19Z</time>
      </trkpt>
      <trkpt lat="45.12643" lon="4.47198">
        <ele>882.4</ele>
        <time>2026-05-01T08:53:24Z</time>
      </trkpt>
      <trkpt lat="45.1264" lon="4.47187">
        <ele>878.3</ele>
        <time>2026-05-01T08:53:29Z</time>
      </trkpt>
      <trkpt lat="45.12637" lon="4.4718">
        <ele>875.7</ele>
        <time>2026-05-01T08:53:34Z</time>
      </trkpt>
      <trkpt lat="45.12634" lon="4.47172">
        <ele>872.6</ele>
        <time>2026-05-01T08:53:39Z</time>
      </trkpt>
      <trkpt lat="45.12626" lon="4.47167">
        <ele>870.6</ele>
        <time>2026-05-01T08:53:44Z</time>
      </trkpt>
      <trkpt lat="45.12618" lon="4.47166">
        <ele>870.3</ele>
        <time>2026-05-01T08:53:49Z</time>
      </trkpt>
      <trkpt lat="45.12611" lon="4.47167">
        <ele>870.5</ele>
        <time>2026-05-01T08:53:54Z</time>
      </trkpt>
      <trkpt lat="45.12603" lon="4.47169">
        <ele>871.2</ele>
        <time>2026-05-01T08:53:59Z</time>
      </trkpt>
      <trkpt lat="45.12596" lon="4.47172">
        <ele>872.3</ele>
        <time>2026-05-01T08:54:04Z</time>
      </trkpt>
      <trkpt lat="45.1259" lon="4.47171">
        <ele>871.8</ele>
        <time>2026-05-01T08:54:09Z</time>
      </trkpt>
      <trkpt lat="45.12584" lon="4.47172">
        <ele>872.2</ele>
        <time>2026-05-01T08:54:14Z</time>
      </trkpt>
      <trkpt lat="45.12576" lon="4.47173">
        <ele>871.1</ele>
        <time>2026-05-01T08:54:19Z</time>
      </trkpt>
      <trkpt lat="45.12567" lon="4.47172">
        <ele>868.8</ele>
        <time>2026-05-01T08:54:24Z</time>
      </trkpt>
      <trkpt lat="45.12561" lon="4.47171">
        <ele>867.2</ele>
        <time>2026-05-01T08:54:29Z</time>
      </trkpt>
      <trkpt lat="45.12554" lon="4.4717">
        <ele>865.3</ele>
        <time>2026-05-01T08:54:34Z</time>
      </trkpt>
      <trkpt lat="45.12547" lon="4.47171">
        <ele>864.3</ele>
        <time>2026-05-01T08:54:39Z</time>
      </trkpt>
      <trkpt lat="45.1254" lon="4.47168">
        <ele>861.7</ele>
        <time>2026-05-01T08:54:44Z</time>
      </trkpt>
      <trkpt lat="45.12534" lon="4.47165">
        <ele>859.6</ele>
        <time>2026-05-01T08:54:49Z</time>
      </trkpt>
      <trkpt lat="45.12527" lon="4.47164">
        <ele>858.1</ele>
        <time>2026-05-01T08:54:54Z</time>
      </trkpt>
      <trkpt lat="45.12526" lon="4.47162">
        <ele>857.5</ele>
        <time>2026-05-01T08:54:59Z</time>
      </trkpt>
      <trkpt lat="45.12525" lon="4.47158">
        <ele>856.6</ele>
        <time>2026-05-01T08:55:04Z</time>
      </trkpt>
      <trkpt lat="45.1252" lon="4.47154">
        <ele>855</ele>
        <time>2026-05-01T08:55:09Z</time>
      </trkpt>
      <trkpt lat="45.12519" lon="4.4715">
        <ele>854.2</ele>
        <time>2026-05-01T08:55:14Z</time>
      </trkpt>
      <trkpt lat="45.12518" lon="4.4715">
        <ele>854</ele>
        <time>2026-05-01T08:55:19Z</time>
      </trkpt>
      <trkpt lat="45.12514" lon="4.4715">
        <ele>853.2</ele>
        <time>2026-05-01T08:55:24Z</time>
      </trkpt>
      <trkpt lat="45.12509" lon="4.47155">
        <ele>853.1</ele>
        <time>2026-05-01T08:55:29Z</time>
      </trkpt>
      <trkpt lat="45.12499" lon="4.47158">
        <ele>851.5</ele>
        <time>2026-05-01T08:55:34Z</time>
      </trkpt>
      <trkpt lat="45.1249" lon="4.47164">
        <ele>850.2</ele>
        <time>2026-05-01T08:55:39Z</time>
      </trkpt>
      <trkpt lat="45.12482" lon="4.47168">
        <ele>849</ele>
        <time>2026-05-01T08:55:44Z</time>
      </trkpt>
      <trkpt lat="45.12476" lon="4.47172">
        <ele>848.9</ele>
        <time>2026-05-01T08:55:49Z</time>
      </trkpt>
      <trkpt lat="45.1247" lon="4.47172">
        <ele>847.3</ele>
        <time>2026-05-01T08:55:54Z</time>
      </trkpt>
      <trkpt lat="45.12464" lon="4.47176">
        <ele>847.2</ele>
        <time>2026-05-01T08:55:59Z</time>
      </trkpt>
      <trkpt lat="45.12456" lon="4.47182">
        <ele>847.2</ele>
        <time>2026-05-01T08:56:04Z</time>
      </trkpt>
      <trkpt lat="45.12449" lon="4.47184">
        <ele>846</ele>
        <time>2026-05-01T08:56:09Z</time>
      </trkpt>
      <trkpt lat="45.12442" lon="4.47185">
        <ele>844.5</ele>
        <time>2026-05-01T08:56:14Z</time>
      </trkpt>
      <trkpt lat="45.12435" lon="4.47187">
        <ele>843.3</ele>
        <time>2026-05-01T08:56:19Z</time>
      </trkpt>
      <trkpt lat="45.12425" lon="4.47191">
        <ele>841.9</ele>
        <time>2026-05-01T08:56:24Z</time>
      </trkpt>
      <trkpt lat="45.12417" lon="4.47194">
        <ele>840.6</ele>
        <time>2026-05-01T08:56:29Z</time>
      </trkpt>
      <trkpt lat="45.12408" lon="4.47197">
        <ele>840</ele>
        <time>2026-05-01T08:56:34Z</time>
      </trkpt>
      <trkpt lat="45.12403" lon="4.47199">
        <ele>839.7</ele>
        <time>2026-05-01T08:56:39Z</time>
      </trkpt>
      <trkpt lat="45.12394" lon="4.47201">
        <ele>838.7</ele>
        <time>2026-05-01T08:56:44Z</time>
      </trkpt>
      <trkpt lat="45.12386" lon="4.47205">
        <ele>838.2</ele>
        <time>2026-05-01T08:56:49Z</time>
      </trkpt>
      <trkpt lat="45.1238" lon="4.47208">
        <ele>837.7</ele>
        <time>2026-05-01T08:56:54Z</time>
      </trkpt>
      <trkpt lat="45.12374" lon="4.47212">
        <ele>837.3</ele>
        <time>2026-05-01T08:56:59Z</time>
      </trkpt>
      <trkpt lat="45.12368" lon="4.47217">
        <ele>836.9</ele>
        <time>2026-05-01T08:57:04Z</time>
      </trkpt>
      <trkpt lat="45.1236" lon="4.47219">
        <ele>835.5</ele>
        <time>2026-05-01T08:57:09Z</time>
      </trkpt>
      <trkpt lat="45.12352" lon="4.47225">
        <ele>834.4</ele>
        <time>2026-05-01T08:57:14Z</time>
      </trkpt>
      <trkpt lat="45.12347" lon="4.47229">
        <ele>833.7</ele>
        <time>2026-05-01T08:57:19Z</time>
      </trkpt>
      <trkpt lat="45.12341" lon="4.47231">
        <ele>832.4</ele>
        <time>2026-05-01T08:57:24Z</time>
      </trkpt>
      <trkpt lat="45.12335" lon="4.47235">
        <ele>831.2</ele>
        <time>2026-05-01T08:57:29Z</time>
      </trkpt>
      <trkpt lat="45.12326" lon="4.47239">
        <ele>830.1</ele>
        <time>2026-05-01T08:57:34Z</time>
      </trkpt>
      <trkpt lat="45.12318" lon="4.47242">
        <ele>829.3</ele>
        <time>2026-05-01T08:57:39Z</time>
      </trkpt>
      <trkpt lat="45.12311" lon="4.47245">
        <ele>828.5</ele>
        <time>2026-05-01T08:57:44Z</time>
      </trkpt>
      <trkpt lat="45.12304" lon="4.47249">
        <ele>827.7</ele>
        <time>2026-05-01T08:57:49Z</time>
      </trkpt>
      <trkpt lat="45.12297" lon="4.47253">
        <ele>827.3</ele>
        <time>2026-05-01T08:57:54Z</time>
      </trkpt>
      <trkpt lat="45.12288" lon="4.47256">
        <ele>826.5</ele>
        <time>2026-05-01T08:57:59Z</time>
      </trkpt>
      <trkpt lat="45.12281" lon="4.47259">
        <ele>825.9</ele>
        <time>2026-05-01T08:58:04Z</time>
      </trkpt>
      <trkpt lat="45.12273" lon="4.47262">
        <ele>825.2</ele>
        <time>2026-05-01T08:58:09Z</time>
      </trkpt>
      <trkpt lat="45.12265" lon="4.47267">
        <ele>824.8</ele>
        <time>2026-05-01T08:58:14Z</time>
      </trkpt>
      <trkpt lat="45.12257" lon="4.4727">
        <ele>824</ele>
        <time>2026-05-01T08:58:19Z</time>
      </trkpt>
      <trkpt lat="45.12251" lon="4.47276">
        <ele>823.9</ele>
        <time>2026-05-01T08:58:24Z</time>
      </trkpt>
      <trkpt lat="45.12248" lon="4.47284">
        <ele>824.7</ele>
        <time>2026-05-01T08:58:29Z</time>
      </trkpt>
      <trkpt lat="45.1225" lon="4.47296">
        <ele>826.6</ele>
        <time>2026-05-01T08:58:34Z</time>
      </trkpt>
      <trkpt lat="45.12253" lon="4.47308">
        <ele>828.9</ele>
        <time>2026-05-01T08:58:39Z</time>
      </trkpt>
      <trkpt lat="45.12257" lon="4.4732">
        <ele>831.4</ele>
        <time>2026-05-01T08:58:44Z</time>
      </trkpt>
      <trkpt lat="45.12258" lon="4.47331">
        <ele>833.2</ele>
        <time>2026-05-01T08:58:49Z</time>
      </trkpt>
      <trkpt lat="45.12252" lon="4.47343">
        <ele>833.9</ele>
        <time>2026-05-01T08:58:54Z</time>
      </trkpt>
      <trkpt lat="45.12244" lon="4.47353">
        <ele>834.9</ele>
        <time>2026-05-01T08:58:59Z</time>
      </trkpt>
      <trkpt lat="45.12236" lon="4.47358">
        <ele>835.6</ele>
        <time>2026-05-01T08:59:04Z</time>
      </trkpt>
      <trkpt lat="45.12229" lon="4.47354">
        <ele>834.7</ele>
        <time>2026-05-01T08:59:09Z</time>
      </trkpt>
      <trkpt lat="45.12221" lon="4.47349">
        <ele>833.4</ele>
        <time>2026-05-01T08:59:14Z</time>
      </trkpt>
      <trkpt lat="45.12216" lon="4.47346">
        <ele>832.6</ele>
        <time>2026-05-01T08:59:19Z</time>
      </trkpt>
      <trkpt lat="45.12211" lon="4.47341">
        <ele>831.3</ele>
        <time>2026-05-01T08:59:24Z</time>
      </trkpt>
      <trkpt lat="45.12203" lon="4.47338">
        <ele>830.3</ele>
        <time>2026-05-01T08:59:29Z</time>
      </trkpt>
      <trkpt lat="45.12194" lon="4.47336">
        <ele>829.3</ele>
        <time>2026-05-01T08:59:34Z</time>
      </trkpt>
      <trkpt lat="45.12188" lon="4.47335">
        <ele>828.7</ele>
        <time>2026-05-01T08:59:39Z</time>
      </trkpt>
      <trkpt lat="45.12181" lon="4.47335">
        <ele>828.3</ele>
        <time>2026-05-01T08:59:44Z</time>
      </trkpt>
      <trkpt lat="45.12173" lon="4.47338">
        <ele>828.7</ele>
        <time>2026-05-01T08:59:49Z</time>
      </trkpt>
      <trkpt lat="45.12167" lon="4.47344">
        <ele>830.1</ele>
        <time>2026-05-01T08:59:54Z</time>
      </trkpt>
      <trkpt lat="45.12161" lon="4.47351">
        <ele>832.8</ele>
        <time>2026-05-01T08:59:59Z</time>
      </trkpt>
      <trkpt lat="45.12158" lon="4.47361">
        <ele>836.2</ele>
        <time>2026-05-01T09:00:04Z</time>
      </trkpt>
      <trkpt lat="45.12155" lon="4.47373">
        <ele>840.3</ele>
        <time>2026-05-01T09:00:09Z</time>
      </trkpt>
      <trkpt lat="45.12154" lon="4.47385">
        <ele>844.1</ele>
        <time>2026-05-01T09:00:14Z</time>
      </trkpt>
      <trkpt lat="45.12153" lon="4.47395">
        <ele>847.4</ele>
        <time>2026-05-01T09:00:19Z</time>
      </trkpt>
      <trkpt lat="45.12152" lon="4.47405">
        <ele>850.7</ele>
        <time>2026-05-01T09:00:24Z</time>
      </trkpt>
      <trkpt lat="45.12149" lon="4.47417">
        <ele>855.1</ele>
        <time>2026-05-01T09:00:29Z</time>
      </trkpt>
      <trkpt lat="45.12146" lon="4.47426">
        <ele>857.7</ele>
        <time>2026-05-01T09:00:34Z</time>
      </trkpt>
      <trkpt lat="45.12142" lon="4.47433">
        <ele>860.3</ele>
        <time>2026-05-01T09:00:39Z</time>
      </trkpt>
      <trkpt lat="45.12138" lon="4.47437">
        <ele>862.2</ele>
        <time>2026-05-01T09:00:44Z</time>
      </trkpt>
      <trkpt lat="45.1214" lon="4.47439">
        <ele>862.1</ele>
        <time>2026-05-01T09:00:49Z</time>
      </trkpt>
      <trkpt lat="45.12143" lon="4.47441">
        <ele>861.8</ele>
        <time>2026-05-01T09:00:54Z</time>
      </trkpt>
      <trkpt lat="45.12146" lon="4.47445">
        <ele>861.8</ele>
        <time>2026-05-01T09:00:59Z</time>
      </trkpt>
      <trkpt lat="45.12148" lon="4.47447">
        <ele>861.7</ele>
        <time>2026-05-01T09:01:04Z</time>
      </trkpt>
      <trkpt lat="45.12149" lon="4.47451">
        <ele>862.3</ele>
        <time>2026-05-01T09:01:09Z</time>
      </trkpt>
      <trkpt lat="45.12152" lon="4.47453">
        <ele>861.8</ele>
        <time>2026-05-01T09:01:14Z</time>
      </trkpt>
      <trkpt lat="45.12156" lon="4.47453">
        <ele>860.6</ele>
        <time>2026-05-01T09:01:19Z</time>
      </trkpt>
      <trkpt lat="45.12158" lon="4.47453">
        <ele>860.1</ele>
        <time>2026-05-01T09:01:24Z</time>
      </trkpt>
      <trkpt lat="45.12161" lon="4.47452">
        <ele>859</ele>
        <time>2026-05-01T09:01:29Z</time>
      </trkpt>
      <trkpt lat="45.12164" lon="4.47451">
        <ele>857.9</ele>
        <time>2026-05-01T09:01:34Z</time>
      </trkpt>
      <trkpt lat="45.12165" lon="4.47448">
        <ele>857.1</ele>
        <time>2026-05-01T09:01:39Z</time>
      </trkpt>
      <trkpt lat="45.12167" lon="4.47446">
        <ele>856.2</ele>
        <time>2026-05-01T09:01:44Z</time>
      </trkpt>
      <trkpt lat="45.12166" lon="4.47444">
        <ele>856.1</ele>
        <time>2026-05-01T09:01:49Z</time>
      </trkpt>
      <trkpt lat="45.12166" lon="4.47444">
        <ele>856.1</ele>
        <time>2026-05-01T09:01:54Z</time>
      </trkpt>
      <trkpt lat="45.12166" lon="4.47444">
        <ele>856.1</ele>
        <time>2026-05-01T09:01:59Z</time>
      </trkpt>
      <trkpt lat="45.12166" lon="4.47444">
        <ele>856.1</ele>
        <time>2026-05-01T09:02:04Z</time>
      </trkpt>
      <trkpt lat="45.12166" lon="4.4744">
        <ele>855.4</ele>
        <time>2026-05-01T09:02:09Z</time>
      </trkpt>
      <trkpt lat="45.12168" lon="4.47435">
        <ele>854.2</ele>
        <time>2026-05-01T09:02:14Z</time>
      </trkpt>
      <trkpt lat="45.12167" lon="4.47434">
        <ele>854.1</ele>
        <time>2026-05-01T09:02:19Z</time>
      </trkpt>
      <trkpt lat="45.12167" lon="4.47434">
        <ele>854.1</ele>
        <time>2026-05-01T09:02:24Z</time>
      </trkpt>
      <trkpt lat="45.12167" lon="4.47434">
        <ele>854.1</ele>
        <time>2026-05-01T09:02:29Z</time>
      </trkpt>
      <trkpt lat="45.12169" lon="4.47425">
        <ele>852.3</ele>
        <time>2026-05-01T09:02:34Z</time>
      </trkpt>
      <trkpt lat="45.12171" lon="4.47421">
        <ele>851.4</ele>
        <time>2026-05-01T09:02:39Z</time>
      </trkpt>
      <trkpt lat="45.12171" lon="4.47421">
        <ele>851.4</ele>
        <time>2026-05-01T09:02:44Z</time>
      </trkpt>
      <trkpt lat="45.12171" lon="4.47421">
        <ele>851.4</ele>
        <time>2026-05-01T09:02:49Z</time>
      </trkpt>
      <trkpt lat="45.12171" lon="4.47421">
        <ele>851.4</ele>
        <time>2026-05-01T09:02:54Z</time>
      </trkpt>
      <trkpt lat="45.12169" lon="4.47413">
        <ele>849.8</ele>
        <time>2026-05-01T09:02:59Z</time>
      </trkpt>
      <trkpt lat="45.12171" lon="4.47406">
        <ele>847.7</ele>
        <time>2026-05-01T09:03:04Z</time>
      </trkpt>
      <trkpt lat="45.12173" lon="4.474">
        <ele>845.9</ele>
        <time>2026-05-01T09:03:09Z</time>
      </trkpt>
      <trkpt lat="45.12175" lon="4.47393">
        <ele>843.9</ele>
        <time>2026-05-01T09:03:14Z</time>
      </trkpt>
      <trkpt lat="45.12178" lon="4.47388">
        <ele>842.4</ele>
        <time>2026-05-01T09:03:19Z</time>
      </trkpt>
      <trkpt lat="45.12179" lon="4.47383">
        <ele>841.1</ele>
        <time>2026-05-01T09:03:24Z</time>
      </trkpt>
      <trkpt lat="45.12182" lon="4.47376">
        <ele>839.2</ele>
        <time>2026-05-01T09:03:29Z</time>
      </trkpt>
      <trkpt lat="45.12186" lon="4.47374">
        <ele>838.6</ele>
        <time>2026-05-01T09:03:34Z</time>
      </trkpt>
      <trkpt lat="45.1219" lon="4.47374">
        <ele>838.6</ele>
        <time>2026-05-01T09:03:39Z</time>
      </trkpt>
      <trkpt lat="45.12192" lon="4.47373">
        <ele>838.4</ele>
        <time>2026-05-01T09:03:44Z</time>
      </trkpt>
      <trkpt lat="45.12192" lon="4.47373">
        <ele>838.4</ele>
        <time>2026-05-01T09:03:49Z</time>
      </trkpt>
      <trkpt lat="45.12192" lon="4.47373">
        <ele>838.4</ele>
        <time>2026-05-01T09:03:54Z</time>
      </trkpt>
      <trkpt lat="45.12192" lon="4.47373">
        <ele>838.4</ele>
        <time>2026-05-01T09:03:59Z</time>
      </trkpt>
      <trkpt lat="45.12192" lon="4.47373">
        <ele>838.4</ele>
        <time>2026-05-01T09:04:04Z</time>
      </trkpt>
      <trkpt lat="45.12194" lon="4.47375">
        <ele>838.8</ele>
        <time>2026-05-01T09:04:09Z</time>
      </trkpt>
      <trkpt lat="45.12196" lon="4.47377">
        <ele>839.3</ele>
        <time>2026-05-01T09:04:14Z</time>
      </trkpt>
      <trkpt lat="45.122" lon="4.47377">
        <ele>839.3</ele>
        <time>2026-05-01T09:04:19Z</time>
      </trkpt>
      <trkpt lat="45.12204" lon="4.47378">
        <ele>839.5</ele>
        <time>2026-05-01T09:04:24Z</time>
      </trkpt>
      <trkpt lat="45.12208" lon="4.47379">
        <ele>839.6</ele>
        <time>2026-05-01T09:04:29Z</time>
      </trkpt>
      <trkpt lat="45.12211" lon="4.4738">
        <ele>839.8</ele>
        <time>2026-05-01T09:04:34Z</time>
      </trkpt>
      <trkpt lat="45.12216" lon="4.47382">
        <ele>840.2</ele>
        <time>2026-05-01T09:04:39Z</time>
      </trkpt>
      <trkpt lat="45.12221" lon="4.47384">
        <ele>840.5</ele>
        <time>2026-05-01T09:04:44Z</time>
      </trkpt>
      <trkpt lat="45.12224" lon="4.47387">
        <ele>841</ele>
        <time>2026-05-01T09:04:49Z</time>
      </trkpt>
      <trkpt lat="45.12229" lon="4.4739">
        <ele>841.5</ele>
        <time>2026-05-01T09:04:54Z</time>
      </trkpt>
      <trkpt lat="45.12231" lon="4.47394">
        <ele>842.1</ele>
        <time>2026-05-01T09:04:59Z</time>
      </trkpt>
      <trkpt lat="45.12233" lon="4.47396">
        <ele>842.4</ele>
        <time>2026-05-01T09:05:04Z</time>
      </trkpt>
      <trkpt lat="45.12234" lon="4.47401">
        <ele>843.3</ele>
        <time>2026-05-01T09:05:09Z</time>
      </trkpt>
      <trkpt lat="45.12234" lon="4.47407">
        <ele>844.4</ele>
        <time>2026-05-01T09:05:14Z</time>
      </trkpt>
      <trkpt lat="45.12235" lon="4.47413">
        <ele>845.4</ele>
        <time>2026-05-01T09:05:19Z</time>
      </trkpt>
      <trkpt lat="45.12234" lon="4.47421">
        <ele>846.6</ele>
        <time>2026-05-01T09:05:24Z</time>
      </trkpt>
      <trkpt lat="45.12232" lon="4.47427">
        <ele>847.4</ele>
        <time>2026-05-01T09:05:29Z</time>
      </trkpt>
      <trkpt lat="45.12232" lon="4.47434">
        <ele>848.1</ele>
        <time>2026-05-01T09:05:34Z</time>
      </trkpt>
      <trkpt lat="45.12231" lon="4.47438">
        <ele>848.6</ele>
        <time>2026-05-01T09:05:39Z</time>
      </trkpt>
      <trkpt lat="45.1223" lon="4.47443">
        <ele>849.3</ele>
        <time>2026-05-01T09:05:44Z</time>
      </trkpt>
      <trkpt lat="45.1223" lon="4.47446">
        <ele>849.6</ele>
        <time>2026-05-01T09:05:49Z</time>
      </trkpt>
      <trkpt lat="45.12229" lon="4.4745">
        <ele>850.1</ele>
        <time>2026-05-01T09:05:54Z</time>
      </trkpt>
      <trkpt lat="45.12228" lon="4.47457">
        <ele>851</ele>
        <time>2026-05-01T09:05:59Z</time>
      </trkpt>
      <trkpt lat="45.12226" lon="4.47463">
        <ele>851.9</ele>
        <time>2026-05-01T09:06:04Z</time>
      </trkpt>
      <trkpt lat="45.12225" lon="4.47469">
        <ele>852.7</ele>
        <time>2026-05-01T09:06:09Z</time>
      </trkpt>
      <trkpt lat="45.12222" lon="4.47477">
        <ele>854</ele>
        <time>2026-05-01T09:06:14Z</time>
      </trkpt>
      <trkpt lat="45.1222" lon="4.47483">
        <ele>855</ele>
        <time>2026-05-01T09:06:19Z</time>
      </trkpt>
      <trkpt lat="45.12218" lon="4.47489">
        <ele>856</ele>
        <time>2026-05-01T09:06:24Z</time>
      </trkpt>
      <trkpt lat="45.12215" lon="4.47495">
        <ele>857.3</ele>
        <time>2026-05-01T09:06:29Z</time>
      </trkpt>
      <trkpt lat="45.12212" lon="4.47502">
        <ele>858.7</ele>
        <time>2026-05-01T09:06:34Z</time>
      </trkpt>
      <trkpt lat="45.12209" lon="4.47509">
        <ele>860.1</ele>
        <time>2026-05-01T09:06:39Z</time>
      </trkpt>
      <trkpt lat="45.12208" lon="4.47516">
        <ele>861.3</ele>
        <time>2026-05-01T09:06:44Z</time>
      </trkpt>
      <trkpt lat="45.12206" lon="4.47521">
        <ele>862.3</ele>
        <time>2026-05-01T09:06:49Z</time>
      </trkpt>
      <trkpt lat="45.12206" lon="4.47521">
        <ele>862.3</ele>
        <time>2026-05-01T09:06:54Z</time>
      </trkpt>
      <trkpt lat="45.12206" lon="4.47521">
        <ele>862.3</ele>
        <time>2026-05-01T09:06:59Z</time>
      </trkpt>
      <trkpt lat="45.12206" lon="4.47521">
        <ele>862.3</ele>
        <time>2026-05-01T09:07:04Z</time>
      </trkpt>
      <trkpt lat="45.12205" lon="4.47526">
        <ele>863.2</ele>
        <time>2026-05-01T09:07:09Z</time>
      </trkpt>
      <trkpt lat="45.12204" lon="4.47534">
        <ele>864.4</ele>
        <time>2026-05-01T09:07:14Z</time>
      </trkpt>
      <trkpt lat="45.12203" lon="4.47544">
        <ele>866</ele>
        <time>2026-05-01T09:07:19Z</time>
      </trkpt>
      <trkpt lat="45.12205" lon="4.47552">
        <ele>866.8</ele>
        <time>2026-05-01T09:07:24Z</time>
      </trkpt>
      <trkpt lat="45.12211" lon="4.47557">
        <ele>866.4</ele>
        <time>2026-05-01T09:07:29Z</time>
      </trkpt>
      <trkpt lat="45.12213" lon="4.47565">
        <ele>867.1</ele>
        <time>2026-05-01T09:07:34Z</time>
      </trkpt>
      <trkpt lat="45.12216" lon="4.47573">
        <ele>867.7</ele>
        <time>2026-05-01T09:07:39Z</time>
      </trkpt>
      <trkpt lat="45.1222" lon="4.47582">
        <ele>868.2</ele>
        <time>2026-05-01T09:07:44Z</time>
      </trkpt>
      <trkpt lat="45.12224" lon="4.4759">
        <ele>868.8</ele>
        <time>2026-05-01T09:07:49Z</time>
      </trkpt>
      <trkpt lat="45.12224" lon="4.47599">
        <ele>870.2</ele>
        <time>2026-05-01T09:07:54Z</time>
      </trkpt>
      <trkpt lat="45.12225" lon="4.47609">
        <ele>871.7</ele>
        <time>2026-05-01T09:07:59Z</time>
      </trkpt>
      <trkpt lat="45.12227" lon="4.47616">
        <ele>872.4</ele>
        <time>2026-05-01T09:08:04Z</time>
      </trkpt>
      <trkpt lat="45.12229" lon="4.47624">
        <ele>873.3</ele>
        <time>2026-05-01T09:08:09Z</time>
      </trkpt>
      <trkpt lat="45.12231" lon="4.47633">
        <ele>874.3</ele>
        <time>2026-05-01T09:08:14Z</time>
      </trkpt>
      <trkpt lat="45.12231" lon="4.47641">
        <ele>875.5</ele>
        <time>2026-05-01T09:08:19Z</time>
      </trkpt>
      <trkpt lat="45.12235" lon="4.47647">
        <ele>875.6</ele>
        <time>2026-05-01T09:08:24Z</time>
      </trkpt>
      <trkpt lat="45.1224" lon="4.4765">
        <ele>874.9</ele>
        <time>2026-05-01T09:08:29Z</time>
      </trkpt>
      <trkpt lat="45.12245" lon="4.47646">
        <ele>873.1</ele>
        <time>2026-05-01T09:08:34Z</time>
      </trkpt>
      <trkpt lat="45.12248" lon="4.47641">
        <ele>871.7</ele>
        <time>2026-05-01T09:08:39Z</time>
      </trkpt>
      <trkpt lat="45.12249" lon="4.47637">
        <ele>870.9</ele>
        <time>2026-05-01T09:08:44Z</time>
      </trkpt>
      <trkpt lat="45.12249" lon="4.47633">
        <ele>870.4</ele>
        <time>2026-05-01T09:08:49Z</time>
      </trkpt>
      <trkpt lat="45.1225" lon="4.47627">
        <ele>869.3</ele>
        <time>2026-05-01T09:08:54Z</time>
      </trkpt>
      <trkpt lat="45.12252" lon="4.47623">
        <ele>869.1</ele>
        <time>2026-05-01T09:08:59Z</time>
      </trkpt>
      <trkpt lat="45.12254" lon="4.47619">
        <ele>868.9</ele>
        <time>2026-05-01T09:09:04Z</time>
      </trkpt>
      <trkpt lat="45.12256" lon="4.47615">
        <ele>868.7</ele>
        <time>2026-05-01T09:09:09Z</time>
      </trkpt>
      <trkpt lat="45.12258" lon="4.47613">
        <ele>868.8</ele>
        <time>2026-05-01T09:09:14Z</time>
      </trkpt>
      <trkpt lat="45.1226" lon="4.47608">
        <ele>868.5</ele>
        <time>2026-05-01T09:09:19Z</time>
      </trkpt>
      <trkpt lat="45.12263" lon="4.47604">
        <ele>868.6</ele>
        <time>2026-05-01T09:09:24Z</time>
      </trkpt>
      <trkpt lat="45.12266" lon="4.47599">
        <ele>868.4</ele>
        <time>2026-05-01T09:09:29Z</time>
      </trkpt>
      <trkpt lat="45.12268" lon="4.47596">
        <ele>868.4</ele>
        <time>2026-05-01T09:09:34Z</time>
      </trkpt>
      <trkpt lat="45.12269" lon="4.47594">
        <ele>868.4</ele>
        <time>2026-05-01T09:09:39Z</time>
      </trkpt>
      <trkpt lat="45.12269" lon="4.47594">
        <ele>868.4</ele>
        <time>2026-05-01T09:09:44Z</time>
      </trkpt>
      <trkpt lat="45.1227" lon="4.4759">
        <ele>868</ele>
        <time>2026-05-01T09:09:49Z</time>
      </trkpt>
      <trkpt lat="45.12273" lon="4.47583">
        <ele>867.7</ele>
        <time>2026-05-01T09:09:54Z</time>
      </trkpt>
      <trkpt lat="45.12276" lon="4.47577">
        <ele>867.5</ele>
        <time>2026-05-01T09:09:59Z</time>
      </trkpt>
      <trkpt lat="45.12278" lon="4.47572">
        <ele>867.3</ele>
        <time>2026-05-01T09:10:04Z</time>
      </trkpt>
      <trkpt lat="45.12282" lon="4.47567">
        <ele>867.5</ele>
        <time>2026-05-01T09:10:09Z</time>
      </trkpt>
      <trkpt lat="45.12287" lon="4.47562">
        <ele>868</ele>
        <time>2026-05-01T09:10:14Z</time>
      </trkpt>
      <trkpt lat="45.12291" lon="4.47558">
        <ele>868.3</ele>
        <time>2026-05-01T09:10:19Z</time>
      </trkpt>
      <trkpt lat="45.12295" lon="4.47555">
        <ele>868.8</ele>
        <time>2026-05-01T09:10:24Z</time>
      </trkpt>
      <trkpt lat="45.12299" lon="4.47549">
        <ele>868.9</ele>
        <time>2026-05-01T09:10:29Z</time>
      </trkpt>
      <trkpt lat="45.12301" lon="4.47542">
        <ele>868.6</ele>
        <time>2026-05-01T09:10:34Z</time>
      </trkpt>
      <trkpt lat="45.12302" lon="4.47536">
        <ele>868.1</ele>
        <time>2026-05-01T09:10:39Z</time>
      </trkpt>
      <trkpt lat="45.12302" lon="4.47533">
        <ele>867.7</ele>
        <time>2026-05-01T09:10:44Z</time>
      </trkpt>
      <trkpt lat="45.12303" lon="4.4753">
        <ele>867.6</ele>
        <time>2026-05-01T09:10:49Z</time>
      </trkpt>
      <trkpt lat="45.12306" lon="4.47526">
        <ele>867.8</ele>
        <time>2026-05-01T09:10:54Z</time>
      </trkpt>
      <trkpt lat="45.12308" lon="4.47522">
        <ele>867.8</ele>
        <time>2026-05-01T09:10:59Z</time>
      </trkpt>
      <trkpt lat="45.12309" lon="4.47517">
        <ele>867.4</ele>
        <time>2026-05-01T09:11:04Z</time>
      </trkpt>
      <trkpt lat="45.12312" lon="4.4751">
        <ele>867.3</ele>
        <time>2026-05-01T09:11:09Z</time>
      </trkpt>
      <trkpt lat="45.12316" lon="4.47503">
        <ele>867.4</ele>
        <time>2026-05-01T09:11:14Z</time>
      </trkpt>
      <trkpt lat="45.12319" lon="4.47498">
        <ele>867.5</ele>
        <time>2026-05-01T09:11:19Z</time>
      </trkpt>
      <trkpt lat="45.12321" lon="4.47493">
        <ele>867.4</ele>
        <time>2026-05-01T09:11:24Z</time>
      </trkpt>
      <trkpt lat="45.12324" lon="4.47488">
        <ele>867.5</ele>
        <time>2026-05-01T09:11:29Z</time>
      </trkpt>
      <trkpt lat="45.12327" lon="4.47485">
        <ele>867.8</ele>
        <time>2026-05-01T09:11:34Z</time>
      </trkpt>
      <trkpt lat="45.12329" lon="4.47482">
        <ele>867.9</ele>
        <time>2026-05-01T09:11:39Z</time>
      </trkpt>
      <trkpt lat="45.12331" lon="4.47477">
        <ele>867.7</ele>
        <time>2026-05-01T09:11:44Z</time>
      </trkpt>
      <trkpt lat="45.12333" lon="4.47472">
        <ele>867.6</ele>
        <time>2026-05-01T09:11:49Z</time>
      </trkpt>
      <trkpt lat="45.12335" lon="4.47468">
        <ele>867.8</ele>
        <time>2026-05-01T09:11:54Z</time>
      </trkpt>
      <trkpt lat="45.12338" lon="4.47465">
        <ele>868.6</ele>
        <time>2026-05-01T09:11:59Z</time>
      </trkpt>
      <trkpt lat="45.12341" lon="4.4746">
        <ele>869.1</ele>
        <time>2026-05-01T09:12:04Z</time>
      </trkpt>
      <trkpt lat="45.12343" lon="4.47458">
        <ele>869.6</ele>
        <time>2026-05-01T09:12:09Z</time>
      </trkpt>
      <trkpt lat="45.12346" lon="4.47456">
        <ele>870.4</ele>
        <time>2026-05-01T09:12:14Z</time>
      </trkpt>
      <trkpt lat="45.12348" lon="4.47451">
        <ele>870.5</ele>
        <time>2026-05-01T09:12:19Z</time>
      </trkpt>
      <trkpt lat="45.12351" lon="4.47447">
        <ele>871.1</ele>
        <time>2026-05-01T09:12:24Z</time>
      </trkpt>
      <trkpt lat="45.12353" lon="4.47444">
        <ele>871.4</ele>
        <time>2026-05-01T09:12:29Z</time>
      </trkpt>
      <trkpt lat="45.12356" lon="4.47439">
        <ele>871.9</ele>
        <time>2026-05-01T09:12:34Z</time>
      </trkpt>
      <trkpt lat="45.12359" lon="4.47433">
        <ele>872.1</ele>
        <time>2026-05-01T09:12:39Z</time>
      </trkpt>
      <trkpt lat="45.1236" lon="4.47428">
        <ele>871.8</ele>
        <time>2026-05-01T09:12:44Z</time>
      </trkpt>
      <trkpt lat="45.12361" lon="4.47422">
        <ele>871.4</ele>
        <time>2026-05-01T09:12:49Z</time>
      </trkpt>
      <trkpt lat="45.12362" lon="4.47417">
        <ele>871</ele>
        <time>2026-05-01T09:12:54Z</time>
      </trkpt>
      <trkpt lat="45.12363" lon="4.47412">
        <ele>870.7</ele>
        <time>2026-05-01T09:12:59Z</time>
      </trkpt>
      <trkpt lat="45.12364" lon="4.47407">
        <ele>870.3</ele>
        <time>2026-05-01T09:13:04Z</time>
      </trkpt>
      <trkpt lat="45.12365" lon="4.47401">
        <ele>869.8</ele>
        <time>2026-05-01T09:13:09Z</time>
      </trkpt>
      <trkpt lat="45.12365" lon="4.47393">
        <ele>868.7</ele>
        <time>2026-05-01T09:13:14Z</time>
      </trkpt>
      <trkpt lat="45.12367" lon="4.47386">
        <ele>868.4</ele>
        <time>2026-05-01T09:13:19Z</time>
      </trkpt>
      <trkpt lat="45.12369" lon="4.4738">
        <ele>868.3</ele>
        <time>2026-05-01T09:13:24Z</time>
      </trkpt>
      <trkpt lat="45.12371" lon="4.47374">
        <ele>868.1</ele>
        <time>2026-05-01T09:13:29Z</time>
      </trkpt>
      <trkpt lat="45.12373" lon="4.47369">
        <ele>868.2</ele>
        <time>2026-05-01T09:13:34Z</time>
      </trkpt>
      <trkpt lat="45.12375" lon="4.47366">
        <ele>868.5</ele>
        <time>2026-05-01T09:13:39Z</time>
      </trkpt>
      <trkpt lat="45.12378" lon="4.47365">
        <ele>869.5</ele>
        <time>2026-05-01T09:13:44Z</time>
      </trkpt>
      <trkpt lat="45.12381" lon="4.47364">
        <ele>870.5</ele>
        <time>2026-05-01T09:13:49Z</time>
      </trkpt>
      <trkpt lat="45.12382" lon="4.47363">
        <ele>870.7</ele>
        <time>2026-05-01T09:13:54Z</time>
      </trkpt>
      <trkpt lat="45.12382" lon="4.47363">
        <ele>870.7</ele>
        <time>2026-05-01T09:13:59Z</time>
      </trkpt>
      <trkpt lat="45.12382" lon="4.47363">
        <ele>870.7</ele>
        <time>2026-05-01T09:14:04Z</time>
      </trkpt>
      <trkpt lat="45.1239" lon="4.47356">
        <ele>872.7</ele>
        <time>2026-05-01T09:14:09Z</time>
      </trkpt>
      <trkpt lat="45.1239" lon="4.47356">
        <ele>872.7</ele>
        <time>2026-05-01T09:14:14Z</time>
      </trkpt>
      <trkpt lat="45.12396" lon="4.47354">
        <ele>874.7</ele>
        <time>2026-05-01T09:14:19Z</time>
      </trkpt>
      <trkpt lat="45.124" lon="4.47351">
        <ele>875.8</ele>
        <time>2026-05-01T09:14:24Z</time>
      </trkpt>
      <trkpt lat="45.12404" lon="4.47349">
        <ele>877.1</ele>
        <time>2026-05-01T09:14:29Z</time>
      </trkpt>
      <trkpt lat="45.12406" lon="4.47349">
        <ele>877.9</ele>
        <time>2026-05-01T09:14:34Z</time>
      </trkpt>
      <trkpt lat="45.12409" lon="4.4735">
        <ele>879.1</ele>
        <time>2026-05-01T09:14:39Z</time>
      </trkpt>
      <trkpt lat="45.12413" lon="4.47349">
        <ele>880.5</ele>
        <time>2026-05-01T09:14:44Z</time>
      </trkpt>
      <trkpt lat="45.12416" lon="4.47346">
        <ele>881.3</ele>
        <time>2026-05-01T09:14:49Z</time>
      </trkpt>
      <trkpt lat="45.12421" lon="4.47345">
        <ele>883.2</ele>
        <time>2026-05-01T09:14:54Z</time>
      </trkpt>
      <trkpt lat="45.12424" lon="4.47345">
        <ele>884.4</ele>
        <time>2026-05-01T09:14:59Z</time>
      </trkpt>
      <trkpt lat="45.12427" lon="4.47343">
        <ele>885.4</ele>
        <time>2026-05-01T09:15:04Z</time>
      </trkpt>
      <trkpt lat="45.1243" lon="4.47342">
        <ele>886.5</ele>
        <time>2026-05-01T09:15:09Z</time>
      </trkpt>
      <trkpt lat="45.12432" lon="4.47341">
        <ele>887.2</ele>
        <time>2026-05-01T09:15:14Z</time>
      </trkpt>
      <trkpt lat="45.12436" lon="4.47341">
        <ele>888.8</ele>
        <time>2026-05-01T09:15:19Z</time>
      </trkpt>
      <trkpt lat="45.1244" lon="4.47338">
        <ele>890</ele>
        <time>2026-05-01T09:15:24Z</time>
      </trkpt>
      <trkpt lat="45.12442" lon="4.47336">
        <ele>890.5</ele>
        <time>2026-05-01T09:15:29Z</time>
      </trkpt>
      <trkpt lat="45.12445" lon="4.47335">
        <ele>891.5</ele>
        <time>2026-05-01T09:15:34Z</time>
      </trkpt>
      <trkpt lat="45.12448" lon="4.47334">
        <ele>892.5</ele>
        <time>2026-05-01T09:15:39Z</time>
      </trkpt>
      <trkpt lat="45.12452" lon="4.47334">
        <ele>894.1</ele>
        <time>2026-05-01T09:15:44Z</time>
      </trkpt>
      <trkpt lat="45.12456" lon="4.47333">
        <ele>895.5</ele>
        <time>2026-05-01T09:15:49Z</time>
      </trkpt>
      <trkpt lat="45.12459" lon="4.47333">
        <ele>896.7</ele>
        <time>2026-05-01T09:15:54Z</time>
      </trkpt>
      <trkpt lat="45.12463" lon="4.47333">
        <ele>898.2</ele>
        <time>2026-05-01T09:15:59Z</time>
      </trkpt>
      <trkpt lat="45.12466" lon="4.47335">
        <ele>899.9</ele>
        <time>2026-05-01T09:16:04Z</time>
      </trkpt>
      <trkpt lat="45.12467" lon="4.47334">
        <ele>900.1</ele>
        <time>2026-05-01T09:16:09Z</time>
      </trkpt>
      <trkpt lat="45.12469" lon="4.47333">
        <ele>900.6</ele>
        <time>2026-05-01T09:16:14Z</time>
      </trkpt>
      <trkpt lat="45.12473" lon="4.4733">
        <ele>901.3</ele>
        <time>2026-05-01T09:16:19Z</time>
      </trkpt>
      <trkpt lat="45.12477" lon="4.47329">
        <ele>902.5</ele>
        <time>2026-05-01T09:16:24Z</time>
      </trkpt>
      <trkpt lat="45.12481" lon="4.47327">
        <ele>903.5</ele>
        <time>2026-05-01T09:16:29Z</time>
      </trkpt>
      <trkpt lat="45.12484" lon="4.47326">
        <ele>904.3</ele>
        <time>2026-05-01T09:16:34Z</time>
      </trkpt>
      <trkpt lat="45.12488" lon="4.47324">
        <ele>905.2</ele>
        <time>2026-05-01T09:16:39Z</time>
      </trkpt>
      <trkpt lat="45.12492" lon="4.47325">
        <ele>907.1</ele>
        <time>2026-05-01T09:16:44Z</time>
      </trkpt>
      <trkpt lat="45.12495" lon="4.47326">
        <ele>908.6</ele>
        <time>2026-05-01T09:16:49Z</time>
      </trkpt>
      <trkpt lat="45.12499" lon="4.47328">
        <ele>910.8</ele>
        <time>2026-05-01T09:16:54Z</time>
      </trkpt>
      <trkpt lat="45.12503" lon="4.47329">
        <ele>912.2</ele>
        <time>2026-05-01T09:16:59Z</time>
      </trkpt>
      <trkpt lat="45.12507" lon="4.47328">
        <ele>912.7</ele>
        <time>2026-05-01T09:17:04Z</time>
      </trkpt>
      <trkpt lat="45.1251" lon="4.4733">
        <ele>914</ele>
        <time>2026-05-01T09:17:09Z</time>
      </trkpt>
      <trkpt lat="45.12512" lon="4.47332">
        <ele>915.1</ele>
        <time>2026-05-01T09:17:14Z</time>
      </trkpt>
      <trkpt lat="45.12515" lon="4.47332">
        <ele>915.8</ele>
        <time>2026-05-01T09:17:19Z</time>
      </trkpt>
      <trkpt lat="45.12515" lon="4.47332">
        <ele>915.8</ele>
        <time>2026-05-01T09:17:24Z</time>
      </trkpt>
      <trkpt lat="45.12523" lon="4.47334">
        <ele>918.1</ele>
        <time>2026-05-01T09:17:29Z</time>
      </trkpt>
      <trkpt lat="45.12527" lon="4.47335">
        <ele>919.3</ele>
        <time>2026-05-01T09:17:34Z</time>
      </trkpt>
      <trkpt lat="45.12531" lon="4.47335">
        <ele>920.1</ele>
        <time>2026-05-01T09:17:39Z</time>
      </trkpt>
      <trkpt lat="45.12535" lon="4.47336">
        <ele>921.3</ele>
        <time>2026-05-01T09:17:44Z</time>
      </trkpt>
      <trkpt lat="45.12538" lon="4.47337">
        <ele>922.2</ele>
        <time>2026-05-01T09:17:49Z</time>
      </trkpt>
      <trkpt lat="45.12543" lon="4.47337">
        <ele>923.3</ele>
        <time>2026-05-01T09:17:54Z</time>
      </trkpt>
      <trkpt lat="45.12546" lon="4.47338">
        <ele>924.2</ele>
        <time>2026-05-01T09:17:59Z</time>
      </trkpt>
      <trkpt lat="45.1255" lon="4.47339">
        <ele>925.4</ele>
        <time>2026-05-01T09:18:04Z</time>
      </trkpt>
      <trkpt lat="45.12554" lon="4.47342">
        <ele>927.1</ele>
        <time>2026-05-01T09:18:09Z</time>
      </trkpt>
      <trkpt lat="45.12558" lon="4.47346">
        <ele>929.1</ele>
        <time>2026-05-01T09:18:14Z</time>
      </trkpt>
      <trkpt lat="45.1256" lon="4.4735">
        <ele>930.7</ele>
        <time>2026-05-01T09:18:19Z</time>
      </trkpt>
      <trkpt lat="45.12561" lon="4.47352">
        <ele>931.5</ele>
        <time>2026-05-01T09:18:24Z</time>
      </trkpt>
      <trkpt lat="45.12562" lon="4.47357">
        <ele>933.2</ele>
        <time>2026-05-01T09:18:29Z</time>
      </trkpt>
      <trkpt lat="45.12562" lon="4.47361">
        <ele>934.4</ele>
        <time>2026-05-01T09:18:34Z</time>
      </trkpt>
      <trkpt lat="45.12562" lon="4.47365">
        <ele>935.5</ele>
        <time>2026-05-01T09:18:39Z</time>
      </trkpt>
      <trkpt lat="45.12562" lon="4.47371">
        <ele>937.2</ele>
        <time>2026-05-01T09:18:44Z</time>
      </trkpt>
      <trkpt lat="45.12562" lon="4.47377">
        <ele>939</ele>
        <time>2026-05-01T09:18:49Z</time>
      </trkpt>
      <trkpt lat="45.12561" lon="4.47382">
        <ele>940.1</ele>
        <time>2026-05-01T09:18:54Z</time>
      </trkpt>
      <trkpt lat="45.1256" lon="4.47388">
        <ele>941.6</ele>
        <time>2026-05-01T09:18:59Z</time>
      </trkpt>
      <trkpt lat="45.12559" lon="4.47393">
        <ele>942.8</ele>
        <time>2026-05-01T09:19:04Z</time>
      </trkpt>
      <trkpt lat="45.12558" lon="4.47397">
        <ele>943.7</ele>
        <time>2026-05-01T09:19:09Z</time>
      </trkpt>
      <trkpt lat="45.12556" lon="4.47402">
        <ele>944.6</ele>
        <time>2026-05-01T09:19:14Z</time>
      </trkpt>
      <trkpt lat="45.12555" lon="4.47407">
        <ele>945.8</ele>
        <time>2026-05-01T09:19:19Z</time>
      </trkpt>
      <trkpt lat="45.12555" lon="4.47412">
        <ele>947.2</ele>
        <time>2026-05-01T09:19:24Z</time>
      </trkpt>
      <trkpt lat="45.12555" lon="4.47419">
        <ele>949</ele>
        <time>2026-05-01T09:19:29Z</time>
      </trkpt>
      <trkpt lat="45.12556" lon="4.47426">
        <ele>950.9</ele>
        <time>2026-05-01T09:19:34Z</time>
      </trkpt>
      <trkpt lat="45.12556" lon="4.47432">
        <ele>952.2</ele>
        <time>2026-05-01T09:19:39Z</time>
      </trkpt>
      <trkpt lat="45.12557" lon="4.47438">
        <ele>953.8</ele>
        <time>2026-05-01T09:19:44Z</time>
      </trkpt>
      <trkpt lat="45.12559" lon="4.47441">
        <ele>955.1</ele>
        <time>2026-05-01T09:19:49Z</time>
      </trkpt>
      <trkpt lat="45.1256" lon="4.47443">
        <ele>955.8</ele>
        <time>2026-05-01T09:19:54Z</time>
      </trkpt>
      <trkpt lat="45.1256" lon="4.47443">
        <ele>955.8</ele>
        <time>2026-05-01T09:19:59Z</time>
      </trkpt>
      <trkpt lat="45.1256" lon="4.47443">
        <ele>955.8</ele>
        <time>2026-05-01T09:20:04Z</time>
      </trkpt>
      <trkpt lat="45.1256" lon="4.47443">
        <ele>955.8</ele>
        <time>2026-05-01T09:20:09Z</time>
      </trkpt>
      <trkpt lat="45.1256" lon="4.47443">
        <ele>955.8</ele>
        <time>2026-05-01T09:20:14Z</time>
      </trkpt>
      <trkpt lat="45.1256" lon="4.47443">
        <ele>955.8</ele>
        <time>2026-05-01T09:20:19Z</time>
      </trkpt>
      <trkpt lat="45.1256" lon="4.47443">
        <ele>955.8</ele>
        <time>2026-05-01T09:20:24Z</time>
      </trkpt>
      <trkpt lat="45.1256" lon="4.47443">
        <ele>955.8</ele>
        <time>2026-05-01T09:20:29Z</time>
      </trkpt>
      <trkpt lat="45.1256" lon="4.47443">
        <ele>955.8</ele>
        <time>2026-05-01T09:20:34Z</time>
      </trkpt>
      <trkpt lat="45.1256" lon="4.47443">
        <ele>955.8</ele>
        <time>2026-05-01T09:20:39Z</time>
      </trkpt>
      <trkpt lat="45.1256" lon="4.47443">
        <ele>955.8</ele>
        <time>2026-05-01T09:20:44Z</time>
      </trkpt>
      <trkpt lat="45.1256" lon="4.47443">
        <ele>955.8</ele>
        <time>2026-05-01T09:20:49Z</time>
      </trkpt>
      <trkpt lat="45.1256" lon="4.47443">
        <ele>955.8</ele>
        <time>2026-05-01T09:20:54Z</time>
      </trkpt>
      <trkpt lat="45.1256" lon="4.47443">
        <ele>955.8</ele>
        <time>2026-05-01T09:20:59Z</time>
      </trkpt>
      <trkpt lat="45.1256" lon="4.47443">
        <ele>955.8</ele>
        <time>2026-05-01T09:21:04Z</time>
      </trkpt>
      <trkpt lat="45.12562" lon="4.47447">
        <ele>957.3</ele>
        <time>2026-05-01T09:21:09Z</time>
      </trkpt>
      <trkpt lat="45.12563" lon="4.47451">
        <ele>958.5</ele>
        <time>2026-05-01T09:21:14Z</time>
      </trkpt>
      <trkpt lat="45.12563" lon="4.47454">
        <ele>959.2</ele>
        <time>2026-05-01T09:21:19Z</time>
      </trkpt>
      <trkpt lat="45.12562" lon="4.47457">
        <ele>959.6</ele>
        <time>2026-05-01T09:21:24Z</time>
      </trkpt>
      <trkpt lat="45.12559" lon="4.47457">
        <ele>958.7</ele>
        <time>2026-05-01T09:21:29Z</time>
      </trkpt>
      <trkpt lat="45.12557" lon="4.47451">
        <ele>956.8</ele>
        <time>2026-05-01T09:21:34Z</time>
      </trkpt>
      <trkpt lat="45.12555" lon="4.47446">
        <ele>955.1</ele>
        <time>2026-05-01T09:21:39Z</time>
      </trkpt>
      <trkpt lat="45.12553" lon="4.47444">
        <ele>954.1</ele>
        <time>2026-05-01T09:21:44Z</time>
      </trkpt>
      <trkpt lat="45.12553" lon="4.47444">
        <ele>954.1</ele>
        <time>2026-05-01T09:21:49Z</time>
      </trkpt>
      <trkpt lat="45.12553" lon="4.47444">
        <ele>954.1</ele>
        <time>2026-05-01T09:21:54Z</time>
      </trkpt>
      <trkpt lat="45.12553" lon="4.47444">
        <ele>954.1</ele>
        <time>2026-05-01T09:21:59Z</time>
      </trkpt>
      <trkpt lat="45.12553" lon="4.47444">
        <ele>954.1</ele>
        <time>2026-05-01T09:22:04Z</time>
      </trkpt>
      <trkpt lat="45.12547" lon="4.47432">
        <ele>949.8</ele>
        <time>2026-05-01T09:22:09Z</time>
      </trkpt>
      <trkpt lat="45.12543" lon="4.47432">
        <ele>948.7</ele>
        <time>2026-05-01T09:22:14Z</time>
      </trkpt>
      <trkpt lat="45.1254" lon="4.47431">
        <ele>947.6</ele>
        <time>2026-05-01T09:22:19Z</time>
      </trkpt>
      <trkpt lat="45.12537" lon="4.47429">
        <ele>946.4</ele>
        <time>2026-05-01T09:22:24Z</time>
      </trkpt>
      <trkpt lat="45.12534" lon="4.47428">
        <ele>945.4</ele>
        <time>2026-05-01T09:22:29Z</time>
      </trkpt>
      <trkpt lat="45.1253" lon="4.47426">
        <ele>943.9</ele>
        <time>2026-05-01T09:22:34Z</time>
      </trkpt>
      <trkpt lat="45.12528" lon="4.47424">
        <ele>942.9</ele>
        <time>2026-05-01T09:22:39Z</time>
      </trkpt>
      <trkpt lat="45.12525" lon="4.47423">
        <ele>941.9</ele>
        <time>2026-05-01T09:22:44Z</time>
      </trkpt>
      <trkpt lat="45.12521" lon="4.47421">
        <ele>940.4</ele>
        <time>2026-05-01T09:22:49Z</time>
      </trkpt>
      <trkpt lat="45.12517" lon="4.47419">
        <ele>939</ele>
        <time>2026-05-01T09:22:54Z</time>
      </trkpt>
      <trkpt lat="45.12513" lon="4.47418">
        <ele>937.7</ele>
        <time>2026-05-01T09:22:59Z</time>
      </trkpt>
      <trkpt lat="45.12508" lon="4.4742">
        <ele>936.8</ele>
        <time>2026-05-01T09:23:04Z</time>
      </trkpt>
      <trkpt lat="45.12505" lon="4.47421">
        <ele>936.2</ele>
        <time>2026-05-01T09:23:09Z</time>
      </trkpt>
      <trkpt lat="45.12501" lon="4.47423">
        <ele>935.5</ele>
        <time>2026-05-01T09:23:14Z</time>
      </trkpt>
      <trkpt lat="45.12498" lon="4.47425">
        <ele>934.5</ele>
        <time>2026-05-01T09:23:19Z</time>
      </trkpt>
      <trkpt lat="45.12495" lon="4.47427">
        <ele>933.3</ele>
        <time>2026-05-01T09:23:24Z</time>
      </trkpt>
      <trkpt lat="45.12491" lon="4.4743">
        <ele>931.8</ele>
        <time>2026-05-01T09:23:29Z</time>
      </trkpt>
      <trkpt lat="45.12488" lon="4.47431">
        <ele>930.4</ele>
        <time>2026-05-01T09:23:34Z</time>
      </trkpt>
      <trkpt lat="45.12485" lon="4.47436">
        <ele>929.7</ele>
        <time>2026-05-01T09:23:39Z</time>
      </trkpt>
      <trkpt lat="45.12484" lon="4.47437">
        <ele>929.4</ele>
        <time>2026-05-01T09:23:44Z</time>
      </trkpt>
      <trkpt lat="45.12482" lon="4.47439">
        <ele>928.7</ele>
        <time>2026-05-01T09:23:49Z</time>
      </trkpt>
      <trkpt lat="45.12481" lon="4.47441">
        <ele>928.5</ele>
        <time>2026-05-01T09:23:54Z</time>
      </trkpt>
      <trkpt lat="45.12479" lon="4.47445">
        <ele>928.2</ele>
        <time>2026-05-01T09:23:59Z</time>
      </trkpt>
      <trkpt lat="45.12479" lon="4.47446">
        <ele>928.4</ele>
        <time>2026-05-01T09:24:04Z</time>
      </trkpt>
      <trkpt lat="45.12479" lon="4.47446">
        <ele>928.4</ele>
        <time>2026-05-01T09:24:09Z</time>
      </trkpt>
      <trkpt lat="45.12479" lon="4.47446">
        <ele>928.4</ele>
        <time>2026-05-01T09:24:14Z</time>
      </trkpt>
      <trkpt lat="45.12479" lon="4.47446">
        <ele>928.4</ele>
        <time>2026-05-01T09:24:19Z</time>
      </trkpt>
      <trkpt lat="45.12479" lon="4.47446">
        <ele>928.4</ele>
        <time>2026-05-01T09:24:24Z</time>
      </trkpt>
      <trkpt lat="45.12479" lon="4.47452">
        <ele>929.5</ele>
        <time>2026-05-01T09:24:29Z</time>
      </trkpt>
      <trkpt lat="45.12478" lon="4.47454">
        <ele>929.3</ele>
        <time>2026-05-01T09:24:34Z</time>
      </trkpt>
      <trkpt lat="45.12475" lon="4.47459">
        <ele>928.6</ele>
        <time>2026-05-01T09:24:39Z</time>
      </trkpt>
      <trkpt lat="45.12473" lon="4.47463">
        <ele>928.3</ele>
        <time>2026-05-01T09:24:44Z</time>
      </trkpt>
      <trkpt lat="45.12471" lon="4.47467">
        <ele>927.9</ele>
        <time>2026-05-01T09:24:49Z</time>
      </trkpt>
      <trkpt lat="45.12469" lon="4.47475">
        <ele>928.3</ele>
        <time>2026-05-01T09:24:54Z</time>
      </trkpt>
      <trkpt lat="45.12468" lon="4.47481">
        <ele>928.9</ele>
        <time>2026-05-01T09:24:59Z</time>
      </trkpt>
      <trkpt lat="45.12468" lon="4.47486">
        <ele>929.8</ele>
        <time>2026-05-01T09:25:04Z</time>
      </trkpt>
      <trkpt lat="45.12468" lon="4.47492">
        <ele>930.9</ele>
        <time>2026-05-01T09:25:09Z</time>
      </trkpt>
      <trkpt lat="45.12467" lon="4.47495">
        <ele>930.9</ele>
        <time>2026-05-01T09:25:14Z</time>
      </trkpt>
      <trkpt lat="45.12467" lon="4.475">
        <ele>931.8</ele>
        <time>2026-05-01T09:25:19Z</time>
      </trkpt>
      <trkpt lat="45.12467" lon="4.47504">
        <ele>932.4</ele>
        <time>2026-05-01T09:25:24Z</time>
      </trkpt>
      <trkpt lat="45.12467" lon="4.47508">
        <ele>933</ele>
        <time>2026-05-01T09:25:29Z</time>
      </trkpt>
      <trkpt lat="45.12466" lon="4.47513">
        <ele>933.2</ele>
        <time>2026-05-01T09:25:34Z</time>
      </trkpt>
      <trkpt lat="45.12466" lon="4.47518">
        <ele>934</ele>
        <time>2026-05-01T09:25:39Z</time>
      </trkpt>
      <trkpt lat="45.12466" lon="4.47522">
        <ele>934.6</ele>
        <time>2026-05-01T09:25:44Z</time>
      </trkpt>
      <trkpt lat="45.12466" lon="4.47526">
        <ele>935.2</ele>
        <time>2026-05-01T09:25:49Z</time>
      </trkpt>
      <trkpt lat="45.12465" lon="4.47531">
        <ele>935.4</ele>
        <time>2026-05-01T09:25:54Z</time>
      </trkpt>
      <trkpt lat="45.12465" lon="4.47537">
        <ele>936.3</ele>
        <time>2026-05-01T09:25:59Z</time>
      </trkpt>
      <trkpt lat="45.12464" lon="4.47543">
        <ele>936.7</ele>
        <time>2026-05-01T09:26:04Z</time>
      </trkpt>
      <trkpt lat="45.12465" lon="4.47549">
        <ele>938.1</ele>
        <time>2026-05-01T09:26:09Z</time>
      </trkpt>
      <trkpt lat="45.12465" lon="4.47555">
        <ele>939</ele>
        <time>2026-05-01T09:26:14Z</time>
      </trkpt>
      <trkpt lat="45.12465" lon="4.4756">
        <ele>939.8</ele>
        <time>2026-05-01T09:26:19Z</time>
      </trkpt>
      <trkpt lat="45.12466" lon="4.47565">
        <ele>941.1</ele>
        <time>2026-05-01T09:26:24Z</time>
      </trkpt>
      <trkpt lat="45.12466" lon="4.47571">
        <ele>942</ele>
        <time>2026-05-01T09:26:29Z</time>
      </trkpt>
      <trkpt lat="45.12464" lon="4.47576">
        <ele>941.7</ele>
        <time>2026-05-01T09:26:34Z</time>
      </trkpt>
      <trkpt lat="45.12463" lon="4.47583">
        <ele>942.3</ele>
        <time>2026-05-01T09:26:39Z</time>
      </trkpt>
      <trkpt lat="45.12462" lon="4.47588">
        <ele>942.3</ele>
        <time>2026-05-01T09:26:44Z</time>
      </trkpt>
      <trkpt lat="45.12463" lon="4.47592">
        <ele>943.3</ele>
        <time>2026-05-01T09:26:49Z</time>
      </trkpt>
      <trkpt lat="45.12463" lon="4.47597">
        <ele>943.8</ele>
        <time>2026-05-01T09:26:54Z</time>
      </trkpt>
      <trkpt lat="45.12464" lon="4.47602">
        <ele>944.8</ele>
        <time>2026-05-01T09:26:59Z</time>
      </trkpt>
      <trkpt lat="45.12465" lon="4.47608">
        <ele>945.9</ele>
        <time>2026-05-01T09:27:04Z</time>
      </trkpt>
      <trkpt lat="45.12468" lon="4.4761">
        <ele>947.7</ele>
        <time>2026-05-01T09:27:09Z</time>
      </trkpt>
      <trkpt lat="45.12471" lon="4.4761">
        <ele>949.2</ele>
        <time>2026-05-01T09:27:14Z</time>
      </trkpt>
      <trkpt lat="45.12472" lon="4.47607">
        <ele>949.4</ele>
        <time>2026-05-01T09:27:19Z</time>
      </trkpt>
      <trkpt lat="45.12475" lon="4.47603">
        <ele>950.5</ele>
        <time>2026-05-01T09:27:24Z</time>
      </trkpt>
      <trkpt lat="45.12477" lon="4.47597">
        <ele>950.9</ele>
        <time>2026-05-01T09:27:29Z</time>
      </trkpt>
      <trkpt lat="45.1248" lon="4.47592">
        <ele>951.9</ele>
        <time>2026-05-01T09:27:34Z</time>
      </trkpt>
      <trkpt lat="45.12484" lon="4.47587">
        <ele>953.4</ele>
        <time>2026-05-01T09:27:39Z</time>
      </trkpt>
      <trkpt lat="45.12487" lon="4.47582">
        <ele>954.3</ele>
        <time>2026-05-01T09:27:44Z</time>
      </trkpt>
      <trkpt lat="45.1249" lon="4.47579">
        <ele>955.4</ele>
        <time>2026-05-01T09:27:49Z</time>
      </trkpt>
      <trkpt lat="45.12494" lon="4.47577">
        <ele>957.1</ele>
        <time>2026-05-01T09:27:54Z</time>
      </trkpt>
      <trkpt lat="45.12498" lon="4.47581">
        <ele>959.7</ele>
        <time>2026-05-01T09:27:59Z</time>
      </trkpt>
      <trkpt lat="45.12501" lon="4.47583">
        <ele>961.3</ele>
        <time>2026-05-01T09:28:04Z</time>
      </trkpt>
      <trkpt lat="45.12501" lon="4.47583">
        <ele>961.3</ele>
        <time>2026-05-01T09:28:09Z</time>
      </trkpt>
      <trkpt lat="45.12501" lon="4.47583">
        <ele>961.3</ele>
        <time>2026-05-01T09:28:14Z</time>
      </trkpt>
      <trkpt lat="45.12501" lon="4.47583">
        <ele>961.3</ele>
        <time>2026-05-01T09:28:19Z</time>
      </trkpt>
      <trkpt lat="45.12501" lon="4.47583">
        <ele>961.3</ele>
        <time>2026-05-01T09:28:24Z</time>
      </trkpt>
      <trkpt lat="45.12501" lon="4.47583">
        <ele>961.3</ele>
        <time>2026-05-01T09:28:29Z</time>
      </trkpt>
      <trkpt lat="45.12501" lon="4.47583">
        <ele>961.3</ele>
        <time>2026-05-01T09:28:34Z</time>
      </trkpt>
      <trkpt lat="45.12501" lon="4.47583">
        <ele>961.3</ele>
        <time>2026-05-01T09:28:39Z</time>
      </trkpt>
      <trkpt lat="45.12501" lon="4.47583">
        <ele>961.3</ele>
        <time>2026-05-01T09:28:44Z</time>
      </trkpt>
      <trkpt lat="45.12501" lon="4.47583">
        <ele>961.3</ele>
        <time>2026-05-01T09:28:49Z</time>
      </trkpt>
      <trkpt lat="45.12501" lon="4.47583">
        <ele>961.3</ele>
        <time>2026-05-01T09:28:54Z</time>
      </trkpt>
      <trkpt lat="45.12501" lon="4.47583">
        <ele>961.3</ele>
        <time>2026-05-01T09:28:59Z</time>
      </trkpt>
      <trkpt lat="45.12501" lon="4.47583">
        <ele>961.3</ele>
        <time>2026-05-01T09:29:04Z</time>
      </trkpt>
      <trkpt lat="45.12501" lon="4.47583">
        <ele>961.3</ele>
        <time>2026-05-01T09:29:08Z</time>
      </trkpt>
      <trkpt lat="45.12501" lon="4.47583">
        <ele>961.3</ele>
        <time>2026-05-01T09:29:14Z</time>
      </trkpt>
      <trkpt lat="45.12501" lon="4.47583">
        <ele>961.3</ele>
        <time>2026-05-01T09:29:19Z</time>
      </trkpt>
      <trkpt lat="45.12501" lon="4.47583">
        <ele>961.3</ele>
        <time>2026-05-01T09:29:24Z</time>
      </trkpt>
      <trkpt lat="45.12501" lon="4.47583">
        <ele>961.3</ele>
        <time>2026-05-01T09:29:29Z</time>
      </trkpt>
      <trkpt lat="45.12501" lon="4.47583">
        <ele>961.3</ele>
        <time>2026-05-01T09:29:34Z</time>
      </trkpt>
      <trkpt lat="45.12501" lon="4.47583">
        <ele>961.3</ele>
        <time>2026-05-01T09:29:39Z</time>
      </trkpt>
      <trkpt lat="45.12501" lon="4.47583">
        <ele>961.3</ele>
        <time>2026-05-01T09:29:44Z</time>
      </trkpt>
      <trkpt lat="45.12501" lon="4.47583">
        <ele>961.3</ele>
        <time>2026-05-01T09:29:49Z</time>
      </trkpt>
      <trkpt lat="45.12501" lon="4.47583">
        <ele>961.3</ele>
        <time>2026-05-01T09:29:54Z</time>
      </trkpt>
      <trkpt lat="45.12501" lon="4.47583">
        <ele>961.3</ele>
        <time>2026-05-01T09:29:59Z</time>
      </trkpt>
      <trkpt lat="45.12501" lon="4.47583">
        <ele>961.3</ele>
        <time>2026-05-01T09:30:04Z</time>
      </trkpt>
      <trkpt lat="45.12501" lon="4.47583">
        <ele>961.3</ele>
        <time>2026-05-01T09:30:09Z</time>
      </trkpt>
      <trkpt lat="45.12501" lon="4.47583">
        <ele>961.3</ele>
        <time>2026-05-01T09:30:14Z</time>
      </trkpt>
      <trkpt lat="45.12501" lon="4.47583">
        <ele>961.3</ele>
        <time>2026-05-01T09:30:19Z</time>
      </trkpt>
      <trkpt lat="45.12501" lon="4.47583">
        <ele>961.3</ele>
        <time>2026-05-01T09:30:24Z</time>
      </trkpt>
      <trkpt lat="45.12501" lon="4.47583">
        <ele>961.3</ele>
        <time>2026-05-01T09:30:29Z</time>
      </trkpt>
      <trkpt lat="45.12501" lon="4.47583">
        <ele>961.3</ele>
        <time>2026-05-01T09:30:34Z</time>
      </trkpt>
      <trkpt lat="45.12501" lon="4.47583">
        <ele>961.3</ele>
        <time>2026-05-01T09:30:39Z</time>
      </trkpt>
      <trkpt lat="45.12501" lon="4.47583">
        <ele>961.3</ele>
        <time>2026-05-01T09:30:44Z</time>
      </trkpt>
      <trkpt lat="45.12501" lon="4.47583">
        <ele>961.3</ele>
        <time>2026-05-01T09:30:49Z</time>
      </trkpt>
      <trkpt lat="45.12501" lon="4.47583">
        <ele>961.3</ele>
        <time>2026-05-01T09:30:54Z</time>
      </trkpt>
      <trkpt lat="45.12501" lon="4.47583">
        <ele>961.3</ele>
        <time>2026-05-01T09:30:59Z</time>
      </trkpt>
      <trkpt lat="45.12501" lon="4.47583">
        <ele>961.3</ele>
        <time>2026-05-01T09:31:04Z</time>
      </trkpt>
      <trkpt lat="45.12501" lon="4.47583">
        <ele>961.3</ele>
        <time>2026-05-01T09:31:09Z</time>
      </trkpt>
      <trkpt lat="45.12501" lon="4.47583">
        <ele>961.3</ele>
        <time>2026-05-01T09:31:14Z</time>
      </trkpt>
      <trkpt lat="45.12501" lon="4.47583">
        <ele>961.3</ele>
        <time>2026-05-01T09:31:19Z</time>
      </trkpt>
      <trkpt lat="45.12501" lon="4.47583">
        <ele>961.3</ele>
        <time>2026-05-01T09:31:24Z</time>
      </trkpt>
      <trkpt lat="45.12501" lon="4.47583">
        <ele>961.3</ele>
        <time>2026-05-01T09:31:29Z</time>
      </trkpt>
      <trkpt lat="45.12501" lon="4.47583">
        <ele>961.3</ele>
        <time>2026-05-01T09:31:34Z</time>
      </trkpt>
      <trkpt lat="45.12501" lon="4.47583">
        <ele>961.3</ele>
        <time>2026-05-01T09:31:39Z</time>
      </trkpt>
      <trkpt lat="45.12501" lon="4.47583">
        <ele>961.3</ele>
        <time>2026-05-01T09:31:44Z</time>
      </trkpt>
      <trkpt lat="45.12501" lon="4.47583">
        <ele>961.3</ele>
        <time>2026-05-01T09:31:49Z</time>
      </trkpt>
      <trkpt lat="45.12501" lon="4.47583">
        <ele>961.3</ele>
        <time>2026-05-01T09:31:54Z</time>
      </trkpt>
      <trkpt lat="45.12501" lon="4.47583">
        <ele>961.3</ele>
        <time>2026-05-01T09:31:59Z</time>
      </trkpt>
      <trkpt lat="45.12501" lon="4.47583">
        <ele>961.3</ele>
        <time>2026-05-01T09:32:04Z</time>
      </trkpt>
      <trkpt lat="45.12501" lon="4.47583">
        <ele>961.3</ele>
        <time>2026-05-01T09:32:09Z</time>
      </trkpt>
      <trkpt lat="45.12501" lon="4.47583">
        <ele>961.3</ele>
        <time>2026-05-01T09:32:14Z</time>
      </trkpt>
      <trkpt lat="45.12501" lon="4.47583">
        <ele>961.3</ele>
        <time>2026-05-01T09:32:19Z</time>
      </trkpt>
      <trkpt lat="45.12501" lon="4.47583">
        <ele>961.3</ele>
        <time>2026-05-01T09:32:24Z</time>
      </trkpt>
      <trkpt lat="45.12501" lon="4.47583">
        <ele>961.3</ele>
        <time>2026-05-01T09:32:29Z</time>
      </trkpt>
      <trkpt lat="45.12501" lon="4.47583">
        <ele>961.3</ele>
        <time>2026-05-01T09:32:34Z</time>
      </trkpt>
      <trkpt lat="45.12501" lon="4.47583">
        <ele>961.3</ele>
        <time>2026-05-01T09:32:39Z</time>
      </trkpt>
      <trkpt lat="45.12501" lon="4.47583">
        <ele>961.3</ele>
        <time>2026-05-01T09:32:44Z</time>
      </trkpt>
      <trkpt lat="45.12501" lon="4.47583">
        <ele>961.3</ele>
        <time>2026-05-01T09:32:49Z</time>
      </trkpt>
      <trkpt lat="45.12501" lon="4.47583">
        <ele>961.3</ele>
        <time>2026-05-01T09:32:54Z</time>
      </trkpt>
      <trkpt lat="45.12501" lon="4.47583">
        <ele>961.3</ele>
        <time>2026-05-01T09:32:59Z</time>
      </trkpt>
      <trkpt lat="45.12501" lon="4.47583">
        <ele>961.3</ele>
        <time>2026-05-01T09:33:04Z</time>
      </trkpt>
      <trkpt lat="45.12501" lon="4.47583">
        <ele>961.3</ele>
        <time>2026-05-01T09:33:09Z</time>
      </trkpt>
      <trkpt lat="45.12501" lon="4.47583">
        <ele>961.3</ele>
        <time>2026-05-01T09:33:14Z</time>
      </trkpt>
      <trkpt lat="45.12501" lon="4.47583">
        <ele>961.3</ele>
        <time>2026-05-01T09:33:19Z</time>
      </trkpt>
      <trkpt lat="45.12501" lon="4.47583">
        <ele>961.3</ele>
        <time>2026-05-01T09:33:24Z</time>
      </trkpt>
      <trkpt lat="45.12501" lon="4.47583">
        <ele>961.3</ele>
        <time>2026-05-01T09:33:29Z</time>
      </trkpt>
      <trkpt lat="45.12501" lon="4.47583">
        <ele>961.3</ele>
        <time>2026-05-01T09:33:34Z</time>
      </trkpt>
      <trkpt lat="45.12501" lon="4.47583">
        <ele>961.3</ele>
        <time>2026-05-01T09:33:39Z</time>
      </trkpt>
      <trkpt lat="45.12501" lon="4.47583">
        <ele>961.3</ele>
        <time>2026-05-01T09:33:44Z</time>
      </trkpt>
      <trkpt lat="45.12501" lon="4.47583">
        <ele>961.3</ele>
        <time>2026-05-01T09:33:49Z</time>
      </trkpt>
      <trkpt lat="45.12501" lon="4.47583">
        <ele>961.3</ele>
        <time>2026-05-01T09:33:54Z</time>
      </trkpt>
      <trkpt lat="45.12501" lon="4.47583">
        <ele>961.3</ele>
        <time>2026-05-01T09:33:59Z</time>
      </trkpt>
      <trkpt lat="45.12501" lon="4.47583">
        <ele>961.3</ele>
        <time>2026-05-01T09:34:04Z</time>
      </trkpt>
      <trkpt lat="45.12501" lon="4.47583">
        <ele>961.3</ele>
        <time>2026-05-01T09:34:09Z</time>
      </trkpt>
      <trkpt lat="45.12501" lon="4.47583">
        <ele>961.3</ele>
        <time>2026-05-01T09:34:14Z</time>
      </trkpt>
      <trkpt lat="45.12501" lon="4.47583">
        <ele>961.3</ele>
        <time>2026-05-01T09:34:19Z</time>
      </trkpt>
      <trkpt lat="45.12501" lon="4.47583">
        <ele>961.3</ele>
        <time>2026-05-01T09:34:24Z</time>
      </trkpt>
      <trkpt lat="45.12501" lon="4.47583">
        <ele>961.3</ele>
        <time>2026-05-01T09:34:29Z</time>
      </trkpt>
      <trkpt lat="45.12501" lon="4.47583">
        <ele>961.3</ele>
        <time>2026-05-01T09:34:34Z</time>
      </trkpt>
      <trkpt lat="45.12501" lon="4.47583">
        <ele>961.3</ele>
        <time>2026-05-01T09:34:39Z</time>
      </trkpt>
      <trkpt lat="45.12501" lon="4.47583">
        <ele>961.3</ele>
        <time>2026-05-01T09:34:44Z</time>
      </trkpt>
      <trkpt lat="45.12501" lon="4.47583">
        <ele>961.3</ele>
        <time>2026-05-01T09:34:49Z</time>
      </trkpt>
      <trkpt lat="45.12501" lon="4.47583">
        <ele>961.3</ele>
        <time>2026-05-01T09:34:54Z</time>
      </trkpt>
      <trkpt lat="45.12501" lon="4.47583">
        <ele>961.3</ele>
        <time>2026-05-01T09:34:59Z</time>
      </trkpt>
      <trkpt lat="45.12501" lon="4.47583">
        <ele>961.3</ele>
        <time>2026-05-01T09:35:04Z</time>
      </trkpt>
      <trkpt lat="45.12501" lon="4.47583">
        <ele>961.3</ele>
        <time>2026-05-01T09:35:09Z</time>
      </trkpt>
      <trkpt lat="45.12501" lon="4.47583">
        <ele>961.3</ele>
        <time>2026-05-01T09:35:14Z</time>
      </trkpt>
      <trkpt lat="45.12501" lon="4.47583">
        <ele>961.3</ele>
        <time>2026-05-01T09:35:19Z</time>
      </trkpt>
      <trkpt lat="45.12501" lon="4.47583">
        <ele>961.3</ele>
        <time>2026-05-01T09:35:24Z</time>
      </trkpt>
      <trkpt lat="45.12501" lon="4.47583">
        <ele>961.3</ele>
        <time>2026-05-01T09:35:29Z</time>
      </trkpt>
      <trkpt lat="45.12501" lon="4.47583">
        <ele>961.3</ele>
        <time>2026-05-01T09:35:34Z</time>
      </trkpt>
      <trkpt lat="45.12501" lon="4.47583">
        <ele>961.3</ele>
        <time>2026-05-01T09:35:39Z</time>
      </trkpt>
      <trkpt lat="45.12501" lon="4.47583">
        <ele>961.3</ele>
        <time>2026-05-01T09:35:44Z</time>
      </trkpt>
      <trkpt lat="45.12501" lon="4.47583">
        <ele>961.3</ele>
        <time>2026-05-01T09:35:49Z</time>
      </trkpt>
      <trkpt lat="45.12501" lon="4.47583">
        <ele>961.3</ele>
        <time>2026-05-01T09:35:54Z</time>
      </trkpt>
      <trkpt lat="45.12501" lon="4.47583">
        <ele>961.3</ele>
        <time>2026-05-01T09:35:59Z</time>
      </trkpt>
      <trkpt lat="45.12501" lon="4.47583">
        <ele>961.3</ele>
        <time>2026-05-01T09:36:04Z</time>
      </trkpt>
      <trkpt lat="45.12501" lon="4.47583">
        <ele>961.3</ele>
        <time>2026-05-01T09:36:09Z</time>
      </trkpt>
      <trkpt lat="45.12501" lon="4.47583">
        <ele>961.3</ele>
        <time>2026-05-01T09:36:14Z</time>
      </trkpt>
      <trkpt lat="45.12501" lon="4.47583">
        <ele>961.3</ele>
        <time>2026-05-01T09:36:19Z</time>
      </trkpt>
      <trkpt lat="45.12501" lon="4.47583">
        <ele>961.3</ele>
        <time>2026-05-01T09:36:24Z</time>
      </trkpt>
      <trkpt lat="45.12501" lon="4.47583">
        <ele>961.3</ele>
        <time>2026-05-01T09:36:29Z</time>
      </trkpt>
      <trkpt lat="45.12501" lon="4.47583">
        <ele>961.3</ele>
        <time>2026-05-01T09:36:34Z</time>
      </trkpt>
      <trkpt lat="45.12501" lon="4.47583">
        <ele>961.3</ele>
        <time>2026-05-01T09:36:39Z</time>
      </trkpt>
      <trkpt lat="45.12501" lon="4.47583">
        <ele>961.3</ele>
        <time>2026-05-01T09:36:44Z</time>
      </trkpt>
      <trkpt lat="45.12501" lon="4.47583">
        <ele>961.3</ele>
        <time>2026-05-01T09:36:49Z</time>
      </trkpt>
      <trkpt lat="45.12501" lon="4.47583">
        <ele>961.3</ele>
        <time>2026-05-01T09:36:54Z</time>
      </trkpt>
      <trkpt lat="45.12501" lon="4.47583">
        <ele>961.3</ele>
        <time>2026-05-01T09:36:59Z</time>
      </trkpt>
      <trkpt lat="45.12501" lon="4.47583">
        <ele>961.3</ele>
        <time>2026-05-01T09:37:04Z</time>
      </trkpt>
      <trkpt lat="45.12501" lon="4.47583">
        <ele>961.3</ele>
        <time>2026-05-01T09:37:09Z</time>
      </trkpt>
      <trkpt lat="45.12501" lon="4.47583">
        <ele>961.3</ele>
        <time>2026-05-01T09:37:14Z</time>
      </trkpt>
      <trkpt lat="45.12501" lon="4.47583">
        <ele>961.3</ele>
        <time>2026-05-01T09:37:19Z</time>
      </trkpt>
      <trkpt lat="45.12501" lon="4.47583">
        <ele>961.3</ele>
        <time>2026-05-01T09:37:24Z</time>
      </trkpt>
      <trkpt lat="45.12501" lon="4.47583">
        <ele>961.3</ele>
        <time>2026-05-01T09:37:29Z</time>
      </trkpt>
      <trkpt lat="45.12501" lon="4.47583">
        <ele>961.3</ele>
        <time>2026-05-01T09:37:34Z</time>
      </trkpt>
      <trkpt lat="45.12501" lon="4.47583">
        <ele>961.3</ele>
        <time>2026-05-01T09:37:39Z</time>
      </trkpt>
      <trkpt lat="45.12501" lon="4.47583">
        <ele>961.3</ele>
        <time>2026-05-01T09:37:44Z</time>
      </trkpt>
      <trkpt lat="45.12501" lon="4.47583">
        <ele>961.3</ele>
        <time>2026-05-01T09:37:49Z</time>
      </trkpt>
      <trkpt lat="45.12501" lon="4.47583">
        <ele>961.3</ele>
        <time>2026-05-01T09:37:54Z</time>
      </trkpt>
      <trkpt lat="45.12501" lon="4.47583">
        <ele>961.3</ele>
        <time>2026-05-01T09:37:59Z</time>
      </trkpt>
      <trkpt lat="45.12501" lon="4.47583">
        <ele>961.3</ele>
        <time>2026-05-01T09:38:04Z</time>
      </trkpt>
      <trkpt lat="45.12501" lon="4.47583">
        <ele>961.3</ele>
        <time>2026-05-01T09:38:09Z</time>
      </trkpt>
      <trkpt lat="45.12501" lon="4.47583">
        <ele>961.3</ele>
        <time>2026-05-01T09:38:14Z</time>
      </trkpt>
      <trkpt lat="45.12501" lon="4.47583">
        <ele>961.3</ele>
        <time>2026-05-01T09:38:19Z</time>
      </trkpt>
      <trkpt lat="45.12501" lon="4.47583">
        <ele>961.3</ele>
        <time>2026-05-01T09:38:24Z</time>
      </trkpt>
      <trkpt lat="45.12501" lon="4.47583">
        <ele>961.3</ele>
        <time>2026-05-01T09:38:29Z</time>
      </trkpt>
      <trkpt lat="45.12501" lon="4.47583">
        <ele>961.3</ele>
        <time>2026-05-01T09:38:34Z</time>
      </trkpt>
      <trkpt lat="45.12501" lon="4.47583">
        <ele>961.3</ele>
        <time>2026-05-01T09:38:39Z</time>
      </trkpt>
      <trkpt lat="45.12501" lon="4.47583">
        <ele>961.3</ele>
        <time>2026-05-01T09:38:44Z</time>
      </trkpt>
      <trkpt lat="45.12501" lon="4.47583">
        <ele>961.3</ele>
        <time>2026-05-01T09:38:49Z</time>
      </trkpt>
      <trkpt lat="45.12501" lon="4.47583">
        <ele>961.3</ele>
        <time>2026-05-01T09:38:54Z</time>
      </trkpt>
      <trkpt lat="45.12501" lon="4.47583">
        <ele>961.3</ele>
        <time>2026-05-01T09:38:59Z</time>
      </trkpt>
      <trkpt lat="45.12501" lon="4.47583">
        <ele>961.3</ele>
        <time>2026-05-01T09:39:04Z</time>
      </trkpt>
      <trkpt lat="45.12501" lon="4.47583">
        <ele>961.3</ele>
        <time>2026-05-01T09:39:09Z</time>
      </trkpt>
      <trkpt lat="45.12501" lon="4.47583">
        <ele>961.3</ele>
        <time>2026-05-01T09:39:14Z</time>
      </trkpt>
      <trkpt lat="45.12501" lon="4.47583">
        <ele>961.3</ele>
        <time>2026-05-01T09:39:19Z</time>
      </trkpt>
      <trkpt lat="45.12501" lon="4.47583">
        <ele>961.3</ele>
        <time>2026-05-01T09:39:24Z</time>
      </trkpt>
      <trkpt lat="45.12501" lon="4.47583">
        <ele>961.3</ele>
        <time>2026-05-01T09:39:29Z</time>
      </trkpt>
      <trkpt lat="45.12501" lon="4.47583">
        <ele>961.3</ele>
        <time>2026-05-01T09:39:34Z</time>
      </trkpt>
      <trkpt lat="45.12501" lon="4.47583">
        <ele>961.3</ele>
        <time>2026-05-01T09:39:39Z</time>
      </trkpt>
      <trkpt lat="45.12501" lon="4.47583">
        <ele>961.3</ele>
        <time>2026-05-01T09:39:44Z</time>
      </trkpt>
      <trkpt lat="45.12501" lon="4.47583">
        <ele>961.3</ele>
        <time>2026-05-01T09:39:49Z</time>
      </trkpt>
      <trkpt lat="45.12501" lon="4.47583">
        <ele>961.3</ele>
        <time>2026-05-01T09:39:54Z</time>
      </trkpt>
      <trkpt lat="45.12501" lon="4.47583">
        <ele>961.3</ele>
        <time>2026-05-01T09:39:59Z</time>
      </trkpt>
      <trkpt lat="45.12501" lon="4.47583">
        <ele>961.3</ele>
        <time>2026-05-01T09:40:04Z</time>
      </trkpt>
      <trkpt lat="45.12501" lon="4.47583">
        <ele>961.3</ele>
        <time>2026-05-01T09:40:09Z</time>
      </trkpt>
      <trkpt lat="45.12501" lon="4.47583">
        <ele>961.3</ele>
        <time>2026-05-01T09:40:14Z</time>
      </trkpt>
      <trkpt lat="45.12501" lon="4.47583">
        <ele>961.3</ele>
        <time>2026-05-01T09:40:19Z</time>
      </trkpt>
      <trkpt lat="45.12501" lon="4.47583">
        <ele>961.3</ele>
        <time>2026-05-01T09:40:24Z</time>
      </trkpt>
      <trkpt lat="45.12501" lon="4.47583">
        <ele>961.3</ele>
        <time>2026-05-01T09:40:29Z</time>
      </trkpt>
      <trkpt lat="45.12501" lon="4.47583">
        <ele>961.3</ele>
        <time>2026-05-01T09:40:34Z</time>
      </trkpt>
      <trkpt lat="45.12501" lon="4.47583">
        <ele>961.3</ele>
        <time>2026-05-01T09:40:39Z</time>
      </trkpt>
      <trkpt lat="45.12501" lon="4.47583">
        <ele>961.3</ele>
        <time>2026-05-01T09:40:44Z</time>
      </trkpt>
      <trkpt lat="45.12501" lon="4.47583">
        <ele>961.3</ele>
        <time>2026-05-01T09:40:49Z</time>
      </trkpt>
      <trkpt lat="45.12501" lon="4.47583">
        <ele>961.3</ele>
        <time>2026-05-01T09:40:54Z</time>
      </trkpt>
      <trkpt lat="45.12501" lon="4.47583">
        <ele>961.3</ele>
        <time>2026-05-01T09:40:59Z</time>
      </trkpt>
      <trkpt lat="45.12501" lon="4.47583">
        <ele>961.3</ele>
        <time>2026-05-01T09:41:04Z</time>
      </trkpt>
      <trkpt lat="45.12501" lon="4.47583">
        <ele>961.3</ele>
        <time>2026-05-01T09:41:09Z</time>
      </trkpt>
      <trkpt lat="45.12501" lon="4.47583">
        <ele>961.3</ele>
        <time>2026-05-01T09:41:14Z</time>
      </trkpt>
      <trkpt lat="45.12501" lon="4.47583">
        <ele>961.3</ele>
        <time>2026-05-01T09:41:19Z</time>
      </trkpt>
      <trkpt lat="45.12501" lon="4.47583">
        <ele>961.3</ele>
        <time>2026-05-01T09:41:24Z</time>
      </trkpt>
      <trkpt lat="45.12501" lon="4.47583">
        <ele>961.3</ele>
        <time>2026-05-01T09:41:29Z</time>
      </trkpt>
      <trkpt lat="45.12501" lon="4.47583">
        <ele>961.3</ele>
        <time>2026-05-01T09:41:34Z</time>
      </trkpt>
      <trkpt lat="45.12501" lon="4.47583">
        <ele>961.3</ele>
        <time>2026-05-01T09:41:39Z</time>
      </trkpt>
      <trkpt lat="45.12501" lon="4.47583">
        <ele>961.3</ele>
        <time>2026-05-01T09:42:03Z</time>
      </trkpt>
      <trkpt lat="45.12501" lon="4.47583">
        <ele>961.3</ele>
        <time>2026-05-01T09:42:08Z</time>
      </trkpt>
      <trkpt lat="45.12501" lon="4.47583">
        <ele>961.3</ele>
        <time>2026-05-01T09:42:13Z</time>
      </trkpt>
      <trkpt lat="45.12504" lon="4.47589">
        <ele>963.1</ele>
        <time>2026-05-01T09:42:18Z</time>
      </trkpt>
      <trkpt lat="45.12505" lon="4.47594">
        <ele>964</ele>
        <time>2026-05-01T09:42:23Z</time>
      </trkpt>
      <trkpt lat="45.12506" lon="4.47601">
        <ele>965.1</ele>
        <time>2026-05-01T09:42:28Z</time>
      </trkpt>
      <trkpt lat="45.12507" lon="4.47607">
        <ele>966.2</ele>
        <time>2026-05-01T09:42:33Z</time>
      </trkpt>
      <trkpt lat="45.12508" lon="4.47614">
        <ele>967.3</ele>
        <time>2026-05-01T09:42:38Z</time>
      </trkpt>
      <trkpt lat="45.12509" lon="4.47619">
        <ele>968.2</ele>
        <time>2026-05-01T09:42:43Z</time>
      </trkpt>
      <trkpt lat="45.12509" lon="4.47624">
        <ele>968.8</ele>
        <time>2026-05-01T09:42:48Z</time>
      </trkpt>
      <trkpt lat="45.1251" lon="4.47632">
        <ele>970</ele>
        <time>2026-05-01T09:42:53Z</time>
      </trkpt>
      <trkpt lat="45.12509" lon="4.47639">
        <ele>970.5</ele>
        <time>2026-05-01T09:42:58Z</time>
      </trkpt>
      <trkpt lat="45.1251" lon="4.47647">
        <ele>971.8</ele>
        <time>2026-05-01T09:43:03Z</time>
      </trkpt>
      <trkpt lat="45.12511" lon="4.47655">
        <ele>973</ele>
        <time>2026-05-01T09:43:08Z</time>
      </trkpt>
      <trkpt lat="45.12512" lon="4.47664">
        <ele>974.3</ele>
        <time>2026-05-01T09:43:13Z</time>
      </trkpt>
      <trkpt lat="45.12515" lon="4.47673">
        <ele>975.6</ele>
        <time>2026-05-01T09:43:18Z</time>
      </trkpt>
      <trkpt lat="45.12518" lon="4.47683">
        <ele>976.7</ele>
        <time>2026-05-01T09:43:23Z</time>
      </trkpt>
      <trkpt lat="45.1252" lon="4.47691">
        <ele>977.4</ele>
        <time>2026-05-01T09:43:28Z</time>
      </trkpt>
      <trkpt lat="45.12523" lon="4.47701">
        <ele>978.5</ele>
        <time>2026-05-01T09:43:33Z</time>
      </trkpt>
      <trkpt lat="45.12524" lon="4.47711">
        <ele>979</ele>
        <time>2026-05-01T09:43:38Z</time>
      </trkpt>
      <trkpt lat="45.12526" lon="4.47722">
        <ele>979.9</ele>
        <time>2026-05-01T09:43:43Z</time>
      </trkpt>
      <trkpt lat="45.12528" lon="4.47731">
        <ele>980.7</ele>
        <time>2026-05-01T09:43:48Z</time>
      </trkpt>
      <trkpt lat="45.12531" lon="4.47739">
        <ele>981.8</ele>
        <time>2026-05-01T09:43:53Z</time>
      </trkpt>
      <trkpt lat="45.12533" lon="4.47747">
        <ele>982.6</ele>
        <time>2026-05-01T09:43:58Z</time>
      </trkpt>
      <trkpt lat="45.12535" lon="4.47756">
        <ele>983.3</ele>
        <time>2026-05-01T09:44:03Z</time>
      </trkpt>
      <trkpt lat="45.12535" lon="4.47765">
        <ele>983.4</ele>
        <time>2026-05-01T09:44:08Z</time>
      </trkpt>
      <trkpt lat="45.12535" lon="4.47772">
        <ele>983.4</ele>
        <time>2026-05-01T09:44:13Z</time>
      </trkpt>
      <trkpt lat="45.12535" lon="4.47779">
        <ele>983.4</ele>
        <time>2026-05-01T09:44:18Z</time>
      </trkpt>
      <trkpt lat="45.12536" lon="4.47785">
        <ele>983.7</ele>
        <time>2026-05-01T09:44:23Z</time>
      </trkpt>
      <trkpt lat="45.12537" lon="4.47791">
        <ele>984.1</ele>
        <time>2026-05-01T09:44:28Z</time>
      </trkpt>
      <trkpt lat="45.12538" lon="4.47796">
        <ele>984.5</ele>
        <time>2026-05-01T09:44:33Z</time>
      </trkpt>
      <trkpt lat="45.12539" lon="4.47802">
        <ele>984.8</ele>
        <time>2026-05-01T09:44:38Z</time>
      </trkpt>
      <trkpt lat="45.1254" lon="4.47806">
        <ele>985.2</ele>
        <time>2026-05-01T09:44:43Z</time>
      </trkpt>
      <trkpt lat="45.12542" lon="4.47811">
        <ele>986</ele>
        <time>2026-05-01T09:44:48Z</time>
      </trkpt>
      <trkpt lat="45.12544" lon="4.47816">
        <ele>986.8</ele>
        <time>2026-05-01T09:44:53Z</time>
      </trkpt>
      <trkpt lat="45.12546" lon="4.47821">
        <ele>987.6</ele>
        <time>2026-05-01T09:44:58Z</time>
      </trkpt>
      <trkpt lat="45.12546" lon="4.47825">
        <ele>987.6</ele>
        <time>2026-05-01T09:45:03Z</time>
      </trkpt>
      <trkpt lat="45.12547" lon="4.4783">
        <ele>988</ele>
        <time>2026-05-01T09:45:08Z</time>
      </trkpt>
      <trkpt lat="45.12547" lon="4.47836">
        <ele>988.2</ele>
        <time>2026-05-01T09:45:13Z</time>
      </trkpt>
      <trkpt lat="45.12547" lon="4.47842">
        <ele>988.6</ele>
        <time>2026-05-01T09:45:18Z</time>
      </trkpt>
      <trkpt lat="45.12548" lon="4.47848">
        <ele>989.3</ele>
        <time>2026-05-01T09:45:23Z</time>
      </trkpt>
      <trkpt lat="45.12549" lon="4.47855">
        <ele>990.1</ele>
        <time>2026-05-01T09:45:28Z</time>
      </trkpt>
      <trkpt lat="45.12548" lon="4.47861">
        <ele>990</ele>
        <time>2026-05-01T09:45:33Z</time>
      </trkpt>
      <trkpt lat="45.12548" lon="4.47868">
        <ele>990.4</ele>
        <time>2026-05-01T09:45:38Z</time>
      </trkpt>
      <trkpt lat="45.12548" lon="4.47875">
        <ele>990.9</ele>
        <time>2026-05-01T09:45:43Z</time>
      </trkpt>
      <trkpt lat="45.12547" lon="4.47882">
        <ele>990.9</ele>
        <time>2026-05-01T09:45:48Z</time>
      </trkpt>
      <trkpt lat="45.12547" lon="4.47889">
        <ele>991.3</ele>
        <time>2026-05-01T09:45:53Z</time>
      </trkpt>
      <trkpt lat="45.12546" lon="4.47896">
        <ele>991.3</ele>
        <time>2026-05-01T09:45:58Z</time>
      </trkpt>
      <trkpt lat="45.12544" lon="4.47904">
        <ele>991.1</ele>
        <time>2026-05-01T09:46:03Z</time>
      </trkpt>
      <trkpt lat="45.12543" lon="4.47913">
        <ele>991.3</ele>
        <time>2026-05-01T09:46:08Z</time>
      </trkpt>
      <trkpt lat="45.12541" lon="4.47923">
        <ele>991.3</ele>
        <time>2026-05-01T09:46:13Z</time>
      </trkpt>
      <trkpt lat="45.12537" lon="4.47933">
        <ele>990.7</ele>
        <time>2026-05-01T09:46:18Z</time>
      </trkpt>
      <trkpt lat="45.12534" lon="4.47942">
        <ele>990.4</ele>
        <time>2026-05-01T09:46:23Z</time>
      </trkpt>
      <trkpt lat="45.1253" lon="4.4795">
        <ele>989.6</ele>
        <time>2026-05-01T09:46:28Z</time>
      </trkpt>
      <trkpt lat="45.12527" lon="4.47959">
        <ele>989.3</ele>
        <time>2026-05-01T09:46:33Z</time>
      </trkpt>
      <trkpt lat="45.12524" lon="4.47968">
        <ele>989</ele>
        <time>2026-05-01T09:46:38Z</time>
      </trkpt>
      <trkpt lat="45.12523" lon="4.47978">
        <ele>989.4</ele>
        <time>2026-05-01T09:46:43Z</time>
      </trkpt>
      <trkpt lat="45.1252" lon="4.47988">
        <ele>989.2</ele>
        <time>2026-05-01T09:46:48Z</time>
      </trkpt>
      <trkpt lat="45.1252" lon="4.48">
        <ele>990.2</ele>
        <time>2026-05-01T09:46:53Z</time>
      </trkpt>
      <trkpt lat="45.12518" lon="4.4801">
        <ele>989.6</ele>
        <time>2026-05-01T09:46:58Z</time>
      </trkpt>
      <trkpt lat="45.12517" lon="4.48019">
        <ele>989.3</ele>
        <time>2026-05-01T09:47:03Z</time>
      </trkpt>
      <trkpt lat="45.12515" lon="4.48026">
        <ele>988.7</ele>
        <time>2026-05-01T09:47:08Z</time>
      </trkpt>
      <trkpt lat="45.12512" lon="4.48035">
        <ele>987.7</ele>
        <time>2026-05-01T09:47:13Z</time>
      </trkpt>
      <trkpt lat="45.1251" lon="4.48044">
        <ele>987.1</ele>
        <time>2026-05-01T09:47:18Z</time>
      </trkpt>
      <trkpt lat="45.12508" lon="4.48052">
        <ele>986.5</ele>
        <time>2026-05-01T09:47:23Z</time>
      </trkpt>
      <trkpt lat="45.12505" lon="4.48065">
        <ele>985.6</ele>
        <time>2026-05-01T09:47:28Z</time>
      </trkpt>
      <trkpt lat="45.12502" lon="4.48076">
        <ele>984.6</ele>
        <time>2026-05-01T09:47:33Z</time>
      </trkpt>
      <trkpt lat="45.12499" lon="4.48087">
        <ele>984</ele>
        <time>2026-05-01T09:47:38Z</time>
      </trkpt>
      <trkpt lat="45.12496" lon="4.48099">
        <ele>984</ele>
        <time>2026-05-01T09:47:43Z</time>
      </trkpt>
      <trkpt lat="45.12494" lon="4.4811">
        <ele>984.4</ele>
        <time>2026-05-01T09:47:48Z</time>
      </trkpt>
      <trkpt lat="45.12489" lon="4.48121">
        <ele>983.7</ele>
        <time>2026-05-01T09:47:53Z</time>
      </trkpt>
      <trkpt lat="45.12485" lon="4.48131">
        <ele>983.4</ele>
        <time>2026-05-01T09:47:58Z</time>
      </trkpt>
      <trkpt lat="45.12482" lon="4.48142">
        <ele>983.6</ele>
        <time>2026-05-01T09:48:03Z</time>
      </trkpt>
      <trkpt lat="45.12481" lon="4.48154">
        <ele>984.6</ele>
        <time>2026-05-01T09:48:08Z</time>
      </trkpt>
      <trkpt lat="45.12481" lon="4.48166">
        <ele>986</ele>
        <time>2026-05-01T09:48:13Z</time>
      </trkpt>
      <trkpt lat="45.1248" lon="4.4818">
        <ele>987.3</ele>
        <time>2026-05-01T09:48:18Z</time>
      </trkpt>
      <trkpt lat="45.12477" lon="4.48188">
        <ele>987.4</ele>
        <time>2026-05-01T09:48:23Z</time>
      </trkpt>
      <trkpt lat="45.12475" lon="4.48198">
        <ele>988.1</ele>
        <time>2026-05-01T09:48:28Z</time>
      </trkpt>
      <trkpt lat="45.12473" lon="4.48209">
        <ele>988.9</ele>
        <time>2026-05-01T09:48:33Z</time>
      </trkpt>
      <trkpt lat="45.12471" lon="4.48221">
        <ele>990</ele>
        <time>2026-05-01T09:48:38Z</time>
      </trkpt>
      <trkpt lat="45.12468" lon="4.48231">
        <ele>990.7</ele>
        <time>2026-05-01T09:48:43Z</time>
      </trkpt>
      <trkpt lat="45.12467" lon="4.48239">
        <ele>991.6</ele>
        <time>2026-05-01T09:48:48Z</time>
      </trkpt>
      <trkpt lat="45.12465" lon="4.48247">
        <ele>992.3</ele>
        <time>2026-05-01T09:48:53Z</time>
      </trkpt>
      <trkpt lat="45.12464" lon="4.48256">
        <ele>993.5</ele>
        <time>2026-05-01T09:48:58Z</time>
      </trkpt>
      <trkpt lat="45.12461" lon="4.48266">
        <ele>994.7</ele>
        <time>2026-05-01T09:49:03Z</time>
      </trkpt>
      <trkpt lat="45.12458" lon="4.48276">
        <ele>996</ele>
        <time>2026-05-01T09:49:08Z</time>
      </trkpt>
      <trkpt lat="45.12455" lon="4.48284">
        <ele>996.9</ele>
        <time>2026-05-01T09:49:13Z</time>
      </trkpt>
      <trkpt lat="45.12452" lon="4.48292">
        <ele>997.9</ele>
        <time>2026-05-01T09:49:18Z</time>
      </trkpt>
      <trkpt lat="45.12449" lon="4.48298">
        <ele>998.6</ele>
        <time>2026-05-01T09:49:23Z</time>
      </trkpt>
      <trkpt lat="45.12446" lon="4.48306">
        <ele>999.7</ele>
        <time>2026-05-01T09:49:28Z</time>
      </trkpt>
      <trkpt lat="45.12444" lon="4.48316">
        <ele>1001.4</ele>
        <time>2026-05-01T09:49:33Z</time>
      </trkpt>
      <trkpt lat="45.12442" lon="4.48325">
        <ele>1002.8</ele>
        <time>2026-05-01T09:49:38Z</time>
      </trkpt>
      <trkpt lat="45.12439" lon="4.48334">
        <ele>1004.3</ele>
        <time>2026-05-01T09:49:43Z</time>
      </trkpt>
      <trkpt lat="45.12435" lon="4.48341">
        <ele>1005.6</ele>
        <time>2026-05-01T09:49:48Z</time>
      </trkpt>
      <trkpt lat="45.12431" lon="4.48348">
        <ele>1006.9</ele>
        <time>2026-05-01T09:49:53Z</time>
      </trkpt>
      <trkpt lat="45.12428" lon="4.48357">
        <ele>1008.9</ele>
        <time>2026-05-01T09:49:58Z</time>
      </trkpt>
      <trkpt lat="45.12425" lon="4.48366">
        <ele>1011</ele>
        <time>2026-05-01T09:50:03Z</time>
      </trkpt>
      <trkpt lat="45.12422" lon="4.48374">
        <ele>1012.9</ele>
        <time>2026-05-01T09:50:08Z</time>
      </trkpt>
      <trkpt lat="45.12419" lon="4.48383">
        <ele>1015.2</ele>
        <time>2026-05-01T09:50:13Z</time>
      </trkpt>
      <trkpt lat="45.12418" lon="4.48392">
        <ele>1017.5</ele>
        <time>2026-05-01T09:50:18Z</time>
      </trkpt>
      <trkpt lat="45.12416" lon="4.484">
        <ele>1019.7</ele>
        <time>2026-05-01T09:50:23Z</time>
      </trkpt>
      <trkpt lat="45.12415" lon="4.48402">
        <ele>1020.3</ele>
        <time>2026-05-01T09:50:28Z</time>
      </trkpt>
      <trkpt lat="45.12415" lon="4.48402">
        <ele>1020.3</ele>
        <time>2026-05-01T09:50:33Z</time>
      </trkpt>
      <trkpt lat="45.12415" lon="4.48402">
        <ele>1020.3</ele>
        <time>2026-05-01T09:50:38Z</time>
      </trkpt>
      <trkpt lat="45.12415" lon="4.48402">
        <ele>1020.3</ele>
        <time>2026-05-01T09:50:43Z</time>
      </trkpt>
      <trkpt lat="45.12415" lon="4.48402">
        <ele>1020.3</ele>
        <time>2026-05-01T09:50:48Z</time>
      </trkpt>
      <trkpt lat="45.12415" lon="4.48402">
        <ele>1020.3</ele>
        <time>2026-05-01T09:50:53Z</time>
      </trkpt>
      <trkpt lat="45.12415" lon="4.48402">
        <ele>1020.3</ele>
        <time>2026-05-01T09:50:58Z</time>
      </trkpt>
      <trkpt lat="45.12415" lon="4.48402">
        <ele>1020.3</ele>
        <time>2026-05-01T09:51:03Z</time>
      </trkpt>
      <trkpt lat="45.12415" lon="4.48402">
        <ele>1020.3</ele>
        <time>2026-05-01T09:51:08Z</time>
      </trkpt>
      <trkpt lat="45.12415" lon="4.48402">
        <ele>1020.3</ele>
        <time>2026-05-01T09:51:13Z</time>
      </trkpt>
      <trkpt lat="45.12415" lon="4.48402">
        <ele>1020.3</ele>
        <time>2026-05-01T09:51:18Z</time>
      </trkpt>
      <trkpt lat="45.12415" lon="4.48402">
        <ele>1020.3</ele>
        <time>2026-05-01T09:51:23Z</time>
      </trkpt>
      <trkpt lat="45.12415" lon="4.48402">
        <ele>1020.3</ele>
        <time>2026-05-01T09:51:28Z</time>
      </trkpt>
      <trkpt lat="45.12415" lon="4.48402">
        <ele>1020.3</ele>
        <time>2026-05-01T09:51:33Z</time>
      </trkpt>
      <trkpt lat="45.12415" lon="4.48402">
        <ele>1020.3</ele>
        <time>2026-05-01T09:51:38Z</time>
      </trkpt>
      <trkpt lat="45.12415" lon="4.48402">
        <ele>1020.3</ele>
        <time>2026-05-01T09:51:43Z</time>
      </trkpt>
      <trkpt lat="45.12415" lon="4.48402">
        <ele>1020.3</ele>
        <time>2026-05-01T09:51:48Z</time>
      </trkpt>
      <trkpt lat="45.12415" lon="4.48402">
        <ele>1020.3</ele>
        <time>2026-05-01T09:51:53Z</time>
      </trkpt>
      <trkpt lat="45.12415" lon="4.48402">
        <ele>1020.3</ele>
        <time>2026-05-01T09:51:58Z</time>
      </trkpt>
      <trkpt lat="45.12415" lon="4.48402">
        <ele>1020.3</ele>
        <time>2026-05-01T09:52:03Z</time>
      </trkpt>
      <trkpt lat="45.12415" lon="4.48402">
        <ele>1020.3</ele>
        <time>2026-05-01T09:52:08Z</time>
      </trkpt>
      <trkpt lat="45.12415" lon="4.48402">
        <ele>1020.3</ele>
        <time>2026-05-01T09:52:13Z</time>
      </trkpt>
      <trkpt lat="45.12415" lon="4.48402">
        <ele>1020.3</ele>
        <time>2026-05-01T09:52:18Z</time>
      </trkpt>
      <trkpt lat="45.12415" lon="4.48402">
        <ele>1020.3</ele>
        <time>2026-05-01T09:52:23Z</time>
      </trkpt>
      <trkpt lat="45.12415" lon="4.48402">
        <ele>1020.3</ele>
        <time>2026-05-01T09:52:28Z</time>
      </trkpt>
      <trkpt lat="45.12415" lon="4.48402">
        <ele>1020.3</ele>
        <time>2026-05-01T09:52:33Z</time>
      </trkpt>
      <trkpt lat="45.12415" lon="4.48402">
        <ele>1020.3</ele>
        <time>2026-05-01T09:52:38Z</time>
      </trkpt>
      <trkpt lat="45.12415" lon="4.48402">
        <ele>1020.3</ele>
        <time>2026-05-01T09:52:43Z</time>
      </trkpt>
      <trkpt lat="45.12415" lon="4.48402">
        <ele>1020.3</ele>
        <time>2026-05-01T09:52:48Z</time>
      </trkpt>
      <trkpt lat="45.12415" lon="4.48402">
        <ele>1020.3</ele>
        <time>2026-05-01T09:52:53Z</time>
      </trkpt>
      <trkpt lat="45.12415" lon="4.48402">
        <ele>1020.3</ele>
        <time>2026-05-01T09:52:58Z</time>
      </trkpt>
      <trkpt lat="45.12415" lon="4.48402">
        <ele>1020.3</ele>
        <time>2026-05-01T09:53:03Z</time>
      </trkpt>
      <trkpt lat="45.12415" lon="4.48402">
        <ele>1020.3</ele>
        <time>2026-05-01T09:53:08Z</time>
      </trkpt>
      <trkpt lat="45.12415" lon="4.48402">
        <ele>1020.3</ele>
        <time>2026-05-01T09:53:13Z</time>
      </trkpt>
      <trkpt lat="45.12415" lon="4.48402">
        <ele>1020.3</ele>
        <time>2026-05-01T09:53:18Z</time>
      </trkpt>
      <trkpt lat="45.12415" lon="4.48402">
        <ele>1020.3</ele>
        <time>2026-05-01T09:53:23Z</time>
      </trkpt>
      <trkpt lat="45.12415" lon="4.48402">
        <ele>1020.3</ele>
        <time>2026-05-01T09:53:28Z</time>
      </trkpt>
      <trkpt lat="45.12415" lon="4.48402">
        <ele>1020.3</ele>
        <time>2026-05-01T09:53:33Z</time>
      </trkpt>
      <trkpt lat="45.12415" lon="4.48402">
        <ele>1020.3</ele>
        <time>2026-05-01T09:53:38Z</time>
      </trkpt>
      <trkpt lat="45.12416" lon="4.48415">
        <ele>1023.6</ele>
        <time>2026-05-01T09:53:43Z</time>
      </trkpt>
      <trkpt lat="45.12414" lon="4.48424">
        <ele>1025.4</ele>
        <time>2026-05-01T09:53:48Z</time>
      </trkpt>
      <trkpt lat="45.12413" lon="4.48433">
        <ele>1027</ele>
        <time>2026-05-01T09:53:53Z</time>
      </trkpt>
      <trkpt lat="45.12409" lon="4.48439">
        <ele>1028.4</ele>
        <time>2026-05-01T09:53:58Z</time>
      </trkpt>
      <trkpt lat="45.12408" lon="4.48445">
        <ele>1029.5</ele>
        <time>2026-05-01T09:54:03Z</time>
      </trkpt>
      <trkpt lat="45.12408" lon="4.48453">
        <ele>1030.9</ele>
        <time>2026-05-01T09:54:08Z</time>
      </trkpt>
      <trkpt lat="45.12408" lon="4.48464">
        <ele>1032.8</ele>
        <time>2026-05-01T09:54:13Z</time>
      </trkpt>
      <trkpt lat="45.12408" lon="4.48474">
        <ele>1034.5</ele>
        <time>2026-05-01T09:54:18Z</time>
      </trkpt>
      <trkpt lat="45.12408" lon="4.48484">
        <ele>1036.3</ele>
        <time>2026-05-01T09:54:23Z</time>
      </trkpt>
      <trkpt lat="45.12407" lon="4.48491">
        <ele>1037.6</ele>
        <time>2026-05-01T09:54:28Z</time>
      </trkpt>
      <trkpt lat="45.12405" lon="4.485">
        <ele>1039.4</ele>
        <time>2026-05-01T09:54:33Z</time>
      </trkpt>
      <trkpt lat="45.12403" lon="4.48509">
        <ele>1040.5</ele>
        <time>2026-05-01T09:54:38Z</time>
      </trkpt>
      <trkpt lat="45.124" lon="4.48518">
        <ele>1041.7</ele>
        <time>2026-05-01T09:54:43Z</time>
      </trkpt>
      <trkpt lat="45.12397" lon="4.48524">
        <ele>1042.6</ele>
        <time>2026-05-01T09:54:48Z</time>
      </trkpt>
      <trkpt lat="45.12393" lon="4.48531">
        <ele>1043.7</ele>
        <time>2026-05-01T09:54:53Z</time>
      </trkpt>
      <trkpt lat="45.12389" lon="4.48539">
        <ele>1044.9</ele>
        <time>2026-05-01T09:54:58Z</time>
      </trkpt>
      <trkpt lat="45.12385" lon="4.48547">
        <ele>1046.1</ele>
        <time>2026-05-01T09:55:03Z</time>
      </trkpt>
      <trkpt lat="45.12381" lon="4.48552">
        <ele>1047</ele>
        <time>2026-05-01T09:55:08Z</time>
      </trkpt>
      <trkpt lat="45.12377" lon="4.48563">
        <ele>1048.4</ele>
        <time>2026-05-01T09:55:13Z</time>
      </trkpt>
      <trkpt lat="45.12375" lon="4.48573">
        <ele>1049.6</ele>
        <time>2026-05-01T09:55:18Z</time>
      </trkpt>
      <trkpt lat="45.12373" lon="4.48583">
        <ele>1050.7</ele>
        <time>2026-05-01T09:55:23Z</time>
      </trkpt>
      <trkpt lat="45.12374" lon="4.48595">
        <ele>1049.5</ele>
        <time>2026-05-01T09:55:28Z</time>
      </trkpt>
      <trkpt lat="45.12375" lon="4.4861">
        <ele>1048.1</ele>
        <time>2026-05-01T09:55:33Z</time>
      </trkpt>
      <trkpt lat="45.12375" lon="4.48624">
        <ele>1046.8</ele>
        <time>2026-05-01T09:55:38Z</time>
      </trkpt>
      <trkpt lat="45.12375" lon="4.48635">
        <ele>1045.8</ele>
        <time>2026-05-01T09:55:43Z</time>
      </trkpt>
      <trkpt lat="45.12377" lon="4.48643">
        <ele>1045</ele>
        <time>2026-05-01T09:55:48Z</time>
      </trkpt>
      <trkpt lat="45.12382" lon="4.48655">
        <ele>1043.8</ele>
        <time>2026-05-01T09:55:53Z</time>
      </trkpt>
      <trkpt lat="45.12388" lon="4.48665">
        <ele>1042.8</ele>
        <time>2026-05-01T09:55:58Z</time>
      </trkpt>
      <trkpt lat="45.12393" lon="4.48672">
        <ele>1041.4</ele>
        <time>2026-05-01T09:56:03Z</time>
      </trkpt>
      <trkpt lat="45.12397" lon="4.48684">
        <ele>1038.8</ele>
        <time>2026-05-01T09:56:08Z</time>
      </trkpt>
      <trkpt lat="45.124" lon="4.48693">
        <ele>1036.9</ele>
        <time>2026-05-01T09:56:13Z</time>
      </trkpt>
      <trkpt lat="45.12404" lon="4.48703">
        <ele>1034.9</ele>
        <time>2026-05-01T09:56:18Z</time>
      </trkpt>
      <trkpt lat="45.12409" lon="4.48712">
        <ele>1033.1</ele>
        <time>2026-05-01T09:56:23Z</time>
      </trkpt>
      <trkpt lat="45.12413" lon="4.48723">
        <ele>1031.1</ele>
        <time>2026-05-01T09:56:28Z</time>
      </trkpt>
      <trkpt lat="45.12416" lon="4.48731">
        <ele>1029.6</ele>
        <time>2026-05-01T09:56:33Z</time>
      </trkpt>
      <trkpt lat="45.12418" lon="4.48743">
        <ele>1027</ele>
        <time>2026-05-01T09:56:38Z</time>
      </trkpt>
      <trkpt lat="45.12423" lon="4.48753">
        <ele>1024.2</ele>
        <time>2026-05-01T09:56:43Z</time>
      </trkpt>
      <trkpt lat="45.12427" lon="4.48763">
        <ele>1021.9</ele>
        <time>2026-05-01T09:56:48Z</time>
      </trkpt>
      <trkpt lat="45.1243" lon="4.48774">
        <ele>1019.8</ele>
        <time>2026-05-01T09:56:53Z</time>
      </trkpt>
      <trkpt lat="45.12432" lon="4.48786">
        <ele>1017.9</ele>
        <time>2026-05-01T09:56:58Z</time>
      </trkpt>
      <trkpt lat="45.12434" lon="4.48794">
        <ele>1016.5</ele>
        <time>2026-05-01T09:57:03Z</time>
      </trkpt>
      <trkpt lat="45.12438" lon="4.48804">
        <ele>1014.6</ele>
        <time>2026-05-01T09:57:08Z</time>
      </trkpt>
      <trkpt lat="45.1244" lon="4.48815">
        <ele>1013</ele>
        <time>2026-05-01T09:57:13Z</time>
      </trkpt>
      <trkpt lat="45.12444" lon="4.48825">
        <ele>1011.3</ele>
        <time>2026-05-01T09:57:18Z</time>
      </trkpt>
      <trkpt lat="45.12447" lon="4.48836">
        <ele>1009.6</ele>
        <time>2026-05-01T09:57:23Z</time>
      </trkpt>
      <trkpt lat="45.12449" lon="4.48846">
        <ele>1007.4</ele>
        <time>2026-05-01T09:57:28Z</time>
      </trkpt>
      <trkpt lat="45.12449" lon="4.48858">
        <ele>1005.1</ele>
        <time>2026-05-01T09:57:33Z</time>
      </trkpt>
      <trkpt lat="45.12447" lon="4.48866">
        <ele>1003.7</ele>
        <time>2026-05-01T09:57:38Z</time>
      </trkpt>
      <trkpt lat="45.12443" lon="4.48864">
        <ele>1004.3</ele>
        <time>2026-05-01T09:57:43Z</time>
      </trkpt>
      <trkpt lat="45.1244" lon="4.48862">
        <ele>1004.8</ele>
        <time>2026-05-01T09:57:48Z</time>
      </trkpt>
      <trkpt lat="45.1244" lon="4.48862">
        <ele>1004.8</ele>
        <time>2026-05-01T09:57:53Z</time>
      </trkpt>
      <trkpt lat="45.1244" lon="4.48865">
        <ele>1004.2</ele>
        <time>2026-05-01T09:57:58Z</time>
      </trkpt>
      <trkpt lat="45.12449" lon="4.48873">
        <ele>1002.2</ele>
        <time>2026-05-01T09:58:03Z</time>
      </trkpt>
      <trkpt lat="45.12451" lon="4.48878">
        <ele>1001.2</ele>
        <time>2026-05-01T09:58:08Z</time>
      </trkpt>
      <trkpt lat="45.12454" lon="4.48884">
        <ele>1000</ele>
        <time>2026-05-01T09:58:13Z</time>
      </trkpt>
      <trkpt lat="45.12456" lon="4.48891">
        <ele>998.7</ele>
        <time>2026-05-01T09:58:18Z</time>
      </trkpt>
      <trkpt lat="45.12458" lon="4.48898">
        <ele>997.4</ele>
        <time>2026-05-01T09:58:23Z</time>
      </trkpt>
      <trkpt lat="45.12461" lon="4.48907">
        <ele>995.8</ele>
        <time>2026-05-01T09:58:28Z</time>
      </trkpt>
      <trkpt lat="45.12462" lon="4.48915">
        <ele>994.4</ele>
        <time>2026-05-01T09:58:33Z</time>
      </trkpt>
      <trkpt lat="45.12463" lon="4.48924">
        <ele>992.7</ele>
        <time>2026-05-01T09:58:38Z</time>
      </trkpt>
      <trkpt lat="45.12464" lon="4.48931">
        <ele>991.5</ele>
        <time>2026-05-01T09:58:43Z</time>
      </trkpt>
      <trkpt lat="45.12465" lon="4.48943">
        <ele>989.3</ele>
        <time>2026-05-01T09:58:48Z</time>
      </trkpt>
      <trkpt lat="45.12467" lon="4.48955">
        <ele>987.3</ele>
        <time>2026-05-01T09:58:53Z</time>
      </trkpt>
      <trkpt lat="45.1247" lon="4.48963">
        <ele>986.3</ele>
        <time>2026-05-01T09:58:58Z</time>
      </trkpt>
      <trkpt lat="45.12472" lon="4.48973">
        <ele>984.8</ele>
        <time>2026-05-01T09:59:03Z</time>
      </trkpt>
      <trkpt lat="45.12474" lon="4.48982">
        <ele>983.7</ele>
        <time>2026-05-01T09:59:08Z</time>
      </trkpt>
      <trkpt lat="45.12476" lon="4.48988">
        <ele>983</ele>
        <time>2026-05-01T09:59:13Z</time>
      </trkpt>
      <trkpt lat="45.12478" lon="4.48993">
        <ele>982.6</ele>
        <time>2026-05-01T09:59:18Z</time>
      </trkpt>
      <trkpt lat="45.1248" lon="4.49002">
        <ele>981.7</ele>
        <time>2026-05-01T09:59:23Z</time>
      </trkpt>
      <trkpt lat="45.12482" lon="4.49011">
        <ele>981.4</ele>
        <time>2026-05-01T09:59:28Z</time>
      </trkpt>
      <trkpt lat="45.12485" lon="4.49022">
        <ele>981.1</ele>
        <time>2026-05-01T09:59:33Z</time>
      </trkpt>
      <trkpt lat="45.12487" lon="4.4903">
        <ele>980.9</ele>
        <time>2026-05-01T09:59:38Z</time>
      </trkpt>
      <trkpt lat="45.1249" lon="4.49036">
        <ele>981.2</ele>
        <time>2026-05-01T09:59:43Z</time>
      </trkpt>
      <trkpt lat="45.12493" lon="4.49046">
        <ele>981.3</ele>
        <time>2026-05-01T09:59:48Z</time>
      </trkpt>
      <trkpt lat="45.12496" lon="4.49055">
        <ele>981.5</ele>
        <time>2026-05-01T09:59:53Z</time>
      </trkpt>
      <trkpt lat="45.125" lon="4.49065">
        <ele>982.1</ele>
        <time>2026-05-01T09:59:58Z</time>
      </trkpt>
      <trkpt lat="45.12504" lon="4.49073">
        <ele>983.2</ele>
        <time>2026-05-01T10:00:03Z</time>
      </trkpt>
      <trkpt lat="45.12508" lon="4.49081">
        <ele>984.3</ele>
        <time>2026-05-01T10:00:08Z</time>
      </trkpt>
      <trkpt lat="45.12512" lon="4.49088">
        <ele>985.2</ele>
        <time>2026-05-01T10:00:13Z</time>
      </trkpt>
      <trkpt lat="45.12516" lon="4.49096">
        <ele>986</ele>
        <time>2026-05-01T10:00:18Z</time>
      </trkpt>
      <trkpt lat="45.1252" lon="4.49101">
        <ele>987</ele>
        <time>2026-05-01T10:00:23Z</time>
      </trkpt>
      <trkpt lat="45.12524" lon="4.49107">
        <ele>987.9</ele>
        <time>2026-05-01T10:00:28Z</time>
      </trkpt>
      <trkpt lat="45.12528" lon="4.49114">
        <ele>988.8</ele>
        <time>2026-05-01T10:00:33Z</time>
      </trkpt>
      <trkpt lat="45.12533" lon="4.49119">
        <ele>990.2</ele>
        <time>2026-05-01T10:00:38Z</time>
      </trkpt>
      <trkpt lat="45.12537" lon="4.49126">
        <ele>991</ele>
        <time>2026-05-01T10:00:43Z</time>
      </trkpt>
      <trkpt lat="45.12543" lon="4.49136">
        <ele>992.3</ele>
        <time>2026-05-01T10:00:48Z</time>
      </trkpt>
      <trkpt lat="45.12549" lon="4.49145">
        <ele>993.7</ele>
        <time>2026-05-01T10:00:53Z</time>
      </trkpt>
      <trkpt lat="45.12552" lon="4.49155">
        <ele>993.9</ele>
        <time>2026-05-01T10:00:58Z</time>
      </trkpt>
      <trkpt lat="45.12556" lon="4.49162">
        <ele>994.7</ele>
        <time>2026-05-01T10:01:03Z</time>
      </trkpt>
      <trkpt lat="45.12557" lon="4.49169">
        <ele>994.6</ele>
        <time>2026-05-01T10:01:08Z</time>
      </trkpt>
      <trkpt lat="45.12557" lon="4.49181">
        <ele>995</ele>
        <time>2026-05-01T10:01:13Z</time>
      </trkpt>
      <trkpt lat="45.12557" lon="4.49191">
        <ele>995.4</ele>
        <time>2026-05-01T10:01:18Z</time>
      </trkpt>
      <trkpt lat="45.12559" lon="4.49202">
        <ele>996.5</ele>
        <time>2026-05-01T10:01:23Z</time>
      </trkpt>
      <trkpt lat="45.12557" lon="4.49212">
        <ele>996</ele>
        <time>2026-05-01T10:01:28Z</time>
      </trkpt>
      <trkpt lat="45.12556" lon="4.4922">
        <ele>995.9</ele>
        <time>2026-05-01T10:01:33Z</time>
      </trkpt>
      <trkpt lat="45.12555" lon="4.49227">
        <ele>995.7</ele>
        <time>2026-05-01T10:01:38Z</time>
      </trkpt>
      <trkpt lat="45.12553" lon="4.4924">
        <ele>995.3</ele>
        <time>2026-05-01T10:01:43Z</time>
      </trkpt>
      <trkpt lat="45.12551" lon="4.49252">
        <ele>994.9</ele>
        <time>2026-05-01T10:01:48Z</time>
      </trkpt>
      <trkpt lat="45.1255" lon="4.49264">
        <ele>994.9</ele>
        <time>2026-05-01T10:01:53Z</time>
      </trkpt>
      <trkpt lat="45.1255" lon="4.49274">
        <ele>995.3</ele>
        <time>2026-05-01T10:01:58Z</time>
      </trkpt>
      <trkpt lat="45.12549" lon="4.49285">
        <ele>995.3</ele>
        <time>2026-05-01T10:02:03Z</time>
      </trkpt>
      <trkpt lat="45.12549" lon="4.49295">
        <ele>995.6</ele>
        <time>2026-05-01T10:02:08Z</time>
      </trkpt>
      <trkpt lat="45.1255" lon="4.49305">
        <ele>996.4</ele>
        <time>2026-05-01T10:02:13Z</time>
      </trkpt>
      <trkpt lat="45.12552" lon="4.49316">
        <ele>997.5</ele>
        <time>2026-05-01T10:02:18Z</time>
      </trkpt>
      <trkpt lat="45.12553" lon="4.49329">
        <ele>998.3</ele>
        <time>2026-05-01T10:02:23Z</time>
      </trkpt>
      <trkpt lat="45.12554" lon="4.49341">
        <ele>999.5</ele>
        <time>2026-05-01T10:02:28Z</time>
      </trkpt>
      <trkpt lat="45.12556" lon="4.49351">
        <ele>1001</ele>
        <time>2026-05-01T10:02:33Z</time>
      </trkpt>
      <trkpt lat="45.12558" lon="4.49362">
        <ele>1002.6</ele>
        <time>2026-05-01T10:02:38Z</time>
      </trkpt>
      <trkpt lat="45.12559" lon="4.49372">
        <ele>1003.7</ele>
        <time>2026-05-01T10:02:43Z</time>
      </trkpt>
      <trkpt lat="45.12561" lon="4.49383">
        <ele>1005.2</ele>
        <time>2026-05-01T10:02:48Z</time>
      </trkpt>
      <trkpt lat="45.12563" lon="4.49392">
        <ele>1006.5</ele>
        <time>2026-05-01T10:02:53Z</time>
      </trkpt>
      <trkpt lat="45.12565" lon="4.49402">
        <ele>1007.7</ele>
        <time>2026-05-01T10:02:58Z</time>
      </trkpt>
      <trkpt lat="45.12565" lon="4.49411">
        <ele>1008.4</ele>
        <time>2026-05-01T10:03:03Z</time>
      </trkpt>
      <trkpt lat="45.12566" lon="4.49421">
        <ele>1009.4</ele>
        <time>2026-05-01T10:03:08Z</time>
      </trkpt>
      <trkpt lat="45.12566" lon="4.49431">
        <ele>1010.2</ele>
        <time>2026-05-01T10:03:13Z</time>
      </trkpt>
      <trkpt lat="45.12564" lon="4.49443">
        <ele>1010.6</ele>
        <time>2026-05-01T10:03:18Z</time>
      </trkpt>
      <trkpt lat="45.12563" lon="4.49453">
        <ele>1011.1</ele>
        <time>2026-05-01T10:03:23Z</time>
      </trkpt>
      <trkpt lat="45.12562" lon="4.49455">
        <ele>1011</ele>
        <time>2026-05-01T10:03:28Z</time>
      </trkpt>
      <trkpt lat="45.12562" lon="4.49455">
        <ele>1011</ele>
        <time>2026-05-01T10:03:33Z</time>
      </trkpt>
      <trkpt lat="45.12562" lon="4.49457">
        <ele>1011.1</ele>
        <time>2026-05-01T10:03:38Z</time>
      </trkpt>
      <trkpt lat="45.1256" lon="4.49467">
        <ele>1011.3</ele>
        <time>2026-05-01T10:03:43Z</time>
      </trkpt>
      <trkpt lat="45.12558" lon="4.49477">
        <ele>1011.5</ele>
        <time>2026-05-01T10:03:48Z</time>
      </trkpt>
      <trkpt lat="45.12557" lon="4.49487">
        <ele>1011.9</ele>
        <time>2026-05-01T10:03:53Z</time>
      </trkpt>
      <trkpt lat="45.12558" lon="4.49495">
        <ele>1012.7</ele>
        <time>2026-05-01T10:03:58Z</time>
      </trkpt>
      <trkpt lat="45.12556" lon="4.49505">
        <ele>1012.1</ele>
        <time>2026-05-01T10:04:03Z</time>
      </trkpt>
      <trkpt lat="45.12555" lon="4.49515">
        <ele>1011.1</ele>
        <time>2026-05-01T10:04:08Z</time>
      </trkpt>
      <trkpt lat="45.12553" lon="4.49524">
        <ele>1009.8</ele>
        <time>2026-05-01T10:04:13Z</time>
      </trkpt>
      <trkpt lat="45.12553" lon="4.49535">
        <ele>1009</ele>
        <time>2026-05-01T10:04:18Z</time>
      </trkpt>
      <trkpt lat="45.12552" lon="4.49544">
        <ele>1007.9</ele>
        <time>2026-05-01T10:04:23Z</time>
      </trkpt>
      <trkpt lat="45.12551" lon="4.49555">
        <ele>1006.7</ele>
        <time>2026-05-01T10:04:28Z</time>
      </trkpt>
      <trkpt lat="45.1255" lon="4.49564">
        <ele>1005.5</ele>
        <time>2026-05-01T10:04:33Z</time>
      </trkpt>
      <trkpt lat="45.12549" lon="4.49572">
        <ele>1004.4</ele>
        <time>2026-05-01T10:04:38Z</time>
      </trkpt>
      <trkpt lat="45.12551" lon="4.49578">
        <ele>1004.9</ele>
        <time>2026-05-01T10:04:43Z</time>
      </trkpt>
      <trkpt lat="45.1255" lon="4.49588">
        <ele>1004</ele>
        <time>2026-05-01T10:04:48Z</time>
      </trkpt>
      <trkpt lat="45.12549" lon="4.49596">
        <ele>1003.5</ele>
        <time>2026-05-01T10:04:53Z</time>
      </trkpt>
      <trkpt lat="45.12549" lon="4.49605">
        <ele>1003.5</ele>
        <time>2026-05-01T10:04:58Z</time>
      </trkpt>
      <trkpt lat="45.12548" lon="4.49613">
        <ele>1003</ele>
        <time>2026-05-01T10:05:03Z</time>
      </trkpt>
      <trkpt lat="45.12548" lon="4.49622">
        <ele>1003</ele>
        <time>2026-05-01T10:05:08Z</time>
      </trkpt>
      <trkpt lat="45.12547" lon="4.49631">
        <ele>1002.6</ele>
        <time>2026-05-01T10:05:13Z</time>
      </trkpt>
      <trkpt lat="45.12549" lon="4.4964">
        <ele>1003.5</ele>
        <time>2026-05-01T10:05:18Z</time>
      </trkpt>
      <trkpt lat="45.12551" lon="4.49649">
        <ele>1004.5</ele>
        <time>2026-05-01T10:05:23Z</time>
      </trkpt>
      <trkpt lat="45.12552" lon="4.49658">
        <ele>1005</ele>
        <time>2026-05-01T10:05:28Z</time>
      </trkpt>
      <trkpt lat="45.12554" lon="4.49665">
        <ele>1005.9</ele>
        <time>2026-05-01T10:05:33Z</time>
      </trkpt>
      <trkpt lat="45.12556" lon="4.49671">
        <ele>1006.5</ele>
        <time>2026-05-01T10:05:38Z</time>
      </trkpt>
      <trkpt lat="45.12559" lon="4.49679">
        <ele>1007.3</ele>
        <time>2026-05-01T10:05:43Z</time>
      </trkpt>
      <trkpt lat="45.12564" lon="4.49689">
        <ele>1008.8</ele>
        <time>2026-05-01T10:05:48Z</time>
      </trkpt>
      <trkpt lat="45.12568" lon="4.49699">
        <ele>1009.8</ele>
        <time>2026-05-01T10:05:53Z</time>
      </trkpt>
      <trkpt lat="45.12573" lon="4.49708">
        <ele>1011.3</ele>
        <time>2026-05-01T10:05:58Z</time>
      </trkpt>
      <trkpt lat="45.12575" lon="4.49716">
        <ele>1011.5</ele>
        <time>2026-05-01T10:06:03Z</time>
      </trkpt>
      <trkpt lat="45.12578" lon="4.49725">
        <ele>1012</ele>
        <time>2026-05-01T10:06:08Z</time>
      </trkpt>
      <trkpt lat="45.12582" lon="4.49735">
        <ele>1012.9</ele>
        <time>2026-05-01T10:06:13Z</time>
      </trkpt>
      <trkpt lat="45.12586" lon="4.49744">
        <ele>1014</ele>
        <time>2026-05-01T10:06:18Z</time>
      </trkpt>
      <trkpt lat="45.12591" lon="4.49752">
        <ele>1015.6</ele>
        <time>2026-05-01T10:06:23Z</time>
      </trkpt>
      <trkpt lat="45.12595" lon="4.49761">
        <ele>1016</ele>
        <time>2026-05-01T10:06:28Z</time>
      </trkpt>
      <trkpt lat="45.12598" lon="4.49767">
        <ele>1016.4</ele>
        <time>2026-05-01T10:06:33Z</time>
      </trkpt>
      <trkpt lat="45.12602" lon="4.49775">
        <ele>1016.9</ele>
        <time>2026-05-01T10:06:38Z</time>
      </trkpt>
      <trkpt lat="45.12607" lon="4.49784">
        <ele>1017.6</ele>
        <time>2026-05-01T10:06:43Z</time>
      </trkpt>
      <trkpt lat="45.12611" lon="4.49789">
        <ele>1018.5</ele>
        <time>2026-05-01T10:06:48Z</time>
      </trkpt>
      <trkpt lat="45.12615" lon="4.49796">
        <ele>1018.9</ele>
        <time>2026-05-01T10:06:53Z</time>
      </trkpt>
      <trkpt lat="45.1262" lon="4.49804">
        <ele>1019.6</ele>
        <time>2026-05-01T10:06:58Z</time>
      </trkpt>
      <trkpt lat="45.12625" lon="4.49812">
        <ele>1020.1</ele>
        <time>2026-05-01T10:07:03Z</time>
      </trkpt>
      <trkpt lat="45.1263" lon="4.4982">
        <ele>1020.6</ele>
        <time>2026-05-01T10:07:08Z</time>
      </trkpt>
      <trkpt lat="45.12634" lon="4.49825">
        <ele>1021.2</ele>
        <time>2026-05-01T10:07:13Z</time>
      </trkpt>
      <trkpt lat="45.12639" lon="4.49829">
        <ele>1022.4</ele>
        <time>2026-05-01T10:07:18Z</time>
      </trkpt>
      <trkpt lat="45.12644" lon="4.49834">
        <ele>1023.4</ele>
        <time>2026-05-01T10:07:23Z</time>
      </trkpt>
      <trkpt lat="45.12651" lon="4.4984">
        <ele>1025.3</ele>
        <time>2026-05-01T10:07:28Z</time>
      </trkpt>
      <trkpt lat="45.12658" lon="4.49846">
        <ele>1027.2</ele>
        <time>2026-05-01T10:07:33Z</time>
      </trkpt>
      <trkpt lat="45.12664" lon="4.49849">
        <ele>1029.1</ele>
        <time>2026-05-01T10:07:38Z</time>
      </trkpt>
      <trkpt lat="45.12671" lon="4.49854">
        <ele>1030.7</ele>
        <time>2026-05-01T10:07:43Z</time>
      </trkpt>
      <trkpt lat="45.12677" lon="4.49859">
        <ele>1031.8</ele>
        <time>2026-05-01T10:07:48Z</time>
      </trkpt>
      <trkpt lat="45.12679" lon="4.49862">
        <ele>1032</ele>
        <time>2026-05-01T10:07:53Z</time>
      </trkpt>
      <trkpt lat="45.12685" lon="4.49867">
        <ele>1033.1</ele>
        <time>2026-05-01T10:07:58Z</time>
      </trkpt>
      <trkpt lat="45.12691" lon="4.49871">
        <ele>1034.5</ele>
        <time>2026-05-01T10:08:03Z</time>
      </trkpt>
      <trkpt lat="45.12697" lon="4.49877">
        <ele>1035.5</ele>
        <time>2026-05-01T10:08:08Z</time>
      </trkpt>
      <trkpt lat="45.12702" lon="4.49879">
        <ele>1036.9</ele>
        <time>2026-05-01T10:08:13Z</time>
      </trkpt>
      <trkpt lat="45.12702" lon="4.49879">
        <ele>1036.9</ele>
        <time>2026-05-01T10:08:18Z</time>
      </trkpt>
      <trkpt lat="45.12702" lon="4.49879">
        <ele>1036.9</ele>
        <time>2026-05-01T10:08:23Z</time>
      </trkpt>
      <trkpt lat="45.12701" lon="4.49881">
        <ele>1036.3</ele>
        <time>2026-05-01T10:08:28Z</time>
      </trkpt>
      <trkpt lat="45.12705" lon="4.49891">
        <ele>1036</ele>
        <time>2026-05-01T10:08:33Z</time>
      </trkpt>
      <trkpt lat="45.12709" lon="4.49903">
        <ele>1035.5</ele>
        <time>2026-05-01T10:08:38Z</time>
      </trkpt>
      <trkpt lat="45.12712" lon="4.49911">
        <ele>1035.2</ele>
        <time>2026-05-01T10:08:43Z</time>
      </trkpt>
      <trkpt lat="45.12715" lon="4.4992">
        <ele>1035.8</ele>
        <time>2026-05-01T10:08:48Z</time>
      </trkpt>
      <trkpt lat="45.12717" lon="4.49929">
        <ele>1037.6</ele>
        <time>2026-05-01T10:08:53Z</time>
      </trkpt>
      <trkpt lat="45.12721" lon="4.49938">
        <ele>1040.1</ele>
        <time>2026-05-01T10:08:58Z</time>
      </trkpt>
      <trkpt lat="45.12725" lon="4.49946">
        <ele>1042.3</ele>
        <time>2026-05-01T10:09:03Z</time>
      </trkpt>
      <trkpt lat="45.12727" lon="4.49954">
        <ele>1043.9</ele>
        <time>2026-05-01T10:09:08Z</time>
      </trkpt>
      <trkpt lat="45.1273" lon="4.49962">
        <ele>1045.8</ele>
        <time>2026-05-01T10:09:13Z</time>
      </trkpt>
      <trkpt lat="45.1273" lon="4.49971">
        <ele>1046.8</ele>
        <time>2026-05-01T10:09:18Z</time>
      </trkpt>
      <trkpt lat="45.12731" lon="4.49981">
        <ele>1048.2</ele>
        <time>2026-05-01T10:09:23Z</time>
      </trkpt>
      <trkpt lat="45.1273" lon="4.4999">
        <ele>1048.9</ele>
        <time>2026-05-01T10:09:28Z</time>
      </trkpt>
      <trkpt lat="45.12728" lon="4.5">
        <ele>1049.4</ele>
        <time>2026-05-01T10:09:33Z</time>
      </trkpt>
      <trkpt lat="45.12722" lon="4.50005">
        <ele>1048.5</ele>
        <time>2026-05-01T10:09:38Z</time>
      </trkpt>
      <trkpt lat="45.12716" lon="4.50009">
        <ele>1047.3</ele>
        <time>2026-05-01T10:09:43Z</time>
      </trkpt>
      <trkpt lat="45.1271" lon="4.50013">
        <ele>1046.1</ele>
        <time>2026-05-01T10:09:48Z</time>
      </trkpt>
      <trkpt lat="45.12704" lon="4.50016">
        <ele>1044.7</ele>
        <time>2026-05-01T10:09:53Z</time>
      </trkpt>
      <trkpt lat="45.12696" lon="4.5002">
        <ele>1042.8</ele>
        <time>2026-05-01T10:09:58Z</time>
      </trkpt>
      <trkpt lat="45.12689" lon="4.50024">
        <ele>1041.1</ele>
        <time>2026-05-01T10:10:03Z</time>
      </trkpt>
      <trkpt lat="45.12683" lon="4.50029">
        <ele>1039.9</ele>
        <time>2026-05-01T10:10:08Z</time>
      </trkpt>
      <trkpt lat="45.12677" lon="4.50034">
        <ele>1038.5</ele>
        <time>2026-05-01T10:10:13Z</time>
      </trkpt>
      <trkpt lat="45.12671" lon="4.50038">
        <ele>1037</ele>
        <time>2026-05-01T10:10:18Z</time>
      </trkpt>
      <trkpt lat="45.12665" lon="4.50045">
        <ele>1035.8</ele>
        <time>2026-05-01T10:10:23Z</time>
      </trkpt>
      <trkpt lat="45.12659" lon="4.5005">
        <ele>1034.2</ele>
        <time>2026-05-01T10:10:28Z</time>
      </trkpt>
      <trkpt lat="45.12655" lon="4.50057">
        <ele>1033.5</ele>
        <time>2026-05-01T10:10:33Z</time>
      </trkpt>
      <trkpt lat="45.12652" lon="4.50064">
        <ele>1033.2</ele>
        <time>2026-05-01T10:10:38Z</time>
      </trkpt>
      <trkpt lat="45.12648" lon="4.5007">
        <ele>1032.3</ele>
        <time>2026-05-01T10:10:43Z</time>
      </trkpt>
      <trkpt lat="45.12645" lon="4.50076">
        <ele>1031.9</ele>
        <time>2026-05-01T10:10:48Z</time>
      </trkpt>
      <trkpt lat="45.12643" lon="4.50076">
        <ele>1031.1</ele>
        <time>2026-05-01T10:10:53Z</time>
      </trkpt>
      <trkpt lat="45.12643" lon="4.50076">
        <ele>1031.1</ele>
        <time>2026-05-01T10:10:58Z</time>
      </trkpt>
      <trkpt lat="45.12643" lon="4.50076">
        <ele>1031.1</ele>
        <time>2026-05-01T10:11:03Z</time>
      </trkpt>
      <trkpt lat="45.12643" lon="4.50076">
        <ele>1031.1</ele>
        <time>2026-05-01T10:11:08Z</time>
      </trkpt>
      <trkpt lat="45.12643" lon="4.50076">
        <ele>1031.1</ele>
        <time>2026-05-01T10:11:13Z</time>
      </trkpt>
      <trkpt lat="45.12643" lon="4.50076">
        <ele>1031.1</ele>
        <time>2026-05-01T10:11:18Z</time>
      </trkpt>
      <trkpt lat="45.12645" lon="4.50084">
        <ele>1032.7</ele>
        <time>2026-05-01T10:11:23Z</time>
      </trkpt>
      <trkpt lat="45.12642" lon="4.50094">
        <ele>1031.3</ele>
        <time>2026-05-01T10:11:28Z</time>
      </trkpt>
      <trkpt lat="45.1264" lon="4.50103">
        <ele>1030.4</ele>
        <time>2026-05-01T10:11:33Z</time>
      </trkpt>
      <trkpt lat="45.1264" lon="4.50114">
        <ele>1030.2</ele>
        <time>2026-05-01T10:11:38Z</time>
      </trkpt>
      <trkpt lat="45.1264" lon="4.50124">
        <ele>1030</ele>
        <time>2026-05-01T10:11:43Z</time>
      </trkpt>
      <trkpt lat="45.1264" lon="4.50134">
        <ele>1029.8</ele>
        <time>2026-05-01T10:11:48Z</time>
      </trkpt>
      <trkpt lat="45.12641" lon="4.50143">
        <ele>1030</ele>
        <time>2026-05-01T10:11:53Z</time>
      </trkpt>
      <trkpt lat="45.12644" lon="4.50153">
        <ele>1031.2</ele>
        <time>2026-05-01T10:11:58Z</time>
      </trkpt>
      <trkpt lat="45.12646" lon="4.50163">
        <ele>1031.9</ele>
        <time>2026-05-01T10:12:03Z</time>
      </trkpt>
      <trkpt lat="45.12649" lon="4.50173">
        <ele>1032.4</ele>
        <time>2026-05-01T10:12:08Z</time>
      </trkpt>
      <trkpt lat="45.12652" lon="4.50181">
        <ele>1032.8</ele>
        <time>2026-05-01T10:12:13Z</time>
      </trkpt>
      <trkpt lat="45.12657" lon="4.50189">
        <ele>1034.1</ele>
        <time>2026-05-01T10:12:18Z</time>
      </trkpt>
      <trkpt lat="45.1266" lon="4.50194">
        <ele>1034.8</ele>
        <time>2026-05-01T10:12:23Z</time>
      </trkpt>
      <trkpt lat="45.12667" lon="4.502">
        <ele>1037.1</ele>
        <time>2026-05-01T10:12:28Z</time>
      </trkpt>
      <trkpt lat="45.12673" lon="4.50205">
        <ele>1038.8</ele>
        <time>2026-05-01T10:12:33Z</time>
      </trkpt>
      <trkpt lat="45.12676" lon="4.50208">
        <ele>1039.5</ele>
        <time>2026-05-01T10:12:38Z</time>
      </trkpt>
      <trkpt lat="45.12682" lon="4.50212">
        <ele>1041.2</ele>
        <time>2026-05-01T10:12:43Z</time>
      </trkpt>
      <trkpt lat="45.12688" lon="4.50215">
        <ele>1042.9</ele>
        <time>2026-05-01T10:12:48Z</time>
      </trkpt>
      <trkpt lat="45.12695" lon="4.50216">
        <ele>1045.3</ele>
        <time>2026-05-01T10:12:53Z</time>
      </trkpt>
      <trkpt lat="45.12701" lon="4.50219">
        <ele>1047</ele>
        <time>2026-05-01T10:12:58Z</time>
      </trkpt>
      <trkpt lat="45.12707" lon="4.50221">
        <ele>1048.7</ele>
        <time>2026-05-01T10:13:03Z</time>
      </trkpt>
      <trkpt lat="45.12714" lon="4.50223">
        <ele>1050.8</ele>
        <time>2026-05-01T10:13:08Z</time>
      </trkpt>
      <trkpt lat="45.12723" lon="4.50225">
        <ele>1053.6</ele>
        <time>2026-05-01T10:13:13Z</time>
      </trkpt>
      <trkpt lat="45.1273" lon="4.50226">
        <ele>1055.8</ele>
        <time>2026-05-01T10:13:18Z</time>
      </trkpt>
      <trkpt lat="45.12737" lon="4.5023">
        <ele>1057.4</ele>
        <time>2026-05-01T10:13:23Z</time>
      </trkpt>
      <trkpt lat="45.12744" lon="4.50234">
        <ele>1058.8</ele>
        <time>2026-05-01T10:13:28Z</time>
      </trkpt>
      <trkpt lat="45.1275" lon="4.50239">
        <ele>1059.6</ele>
        <time>2026-05-01T10:13:33Z</time>
      </trkpt>
      <trkpt lat="45.12755" lon="4.50244">
        <ele>1059.7</ele>
        <time>2026-05-01T10:13:38Z</time>
      </trkpt>
      <trkpt lat="45.12757" lon="4.5025">
        <ele>1058.8</ele>
        <time>2026-05-01T10:13:43Z</time>
      </trkpt>
      <trkpt lat="45.12759" lon="4.5026">
        <ele>1056.7</ele>
        <time>2026-05-01T10:13:48Z</time>
      </trkpt>
      <trkpt lat="45.12762" lon="4.50268">
        <ele>1055.4</ele>
        <time>2026-05-01T10:13:53Z</time>
      </trkpt>
      <trkpt lat="45.12763" lon="4.50272">
        <ele>1054.6</ele>
        <time>2026-05-01T10:13:58Z</time>
      </trkpt>
      <trkpt lat="45.12765" lon="4.50275">
        <ele>1054.4</ele>
        <time>2026-05-01T10:14:03Z</time>
      </trkpt>
      <trkpt lat="45.12766" lon="4.5028">
        <ele>1053.4</ele>
        <time>2026-05-01T10:14:08Z</time>
      </trkpt>
      <trkpt lat="45.1277" lon="4.50286">
        <ele>1053</ele>
        <time>2026-05-01T10:14:13Z</time>
      </trkpt>
      <trkpt lat="45.12775" lon="4.5029">
        <ele>1053.4</ele>
        <time>2026-05-01T10:14:18Z</time>
      </trkpt>
      <trkpt lat="45.1278" lon="4.50293">
        <ele>1054.2</ele>
        <time>2026-05-01T10:14:23Z</time>
      </trkpt>
      <trkpt lat="45.12786" lon="4.50301">
        <ele>1054</ele>
        <time>2026-05-01T10:14:28Z</time>
      </trkpt>
      <trkpt lat="45.12792" lon="4.50307">
        <ele>1054.4</ele>
        <time>2026-05-01T10:14:33Z</time>
      </trkpt>
      <trkpt lat="45.12798" lon="4.50313">
        <ele>1054.9</ele>
        <time>2026-05-01T10:14:38Z</time>
      </trkpt>
      <trkpt lat="45.12805" lon="4.50317">
        <ele>1056.2</ele>
        <time>2026-05-01T10:14:43Z</time>
      </trkpt>
      <trkpt lat="45.12812" lon="4.50319">
        <ele>1058</ele>
        <time>2026-05-01T10:14:48Z</time>
      </trkpt>
      <trkpt lat="45.12819" lon="4.50321">
        <ele>1059.9</ele>
        <time>2026-05-01T10:14:53Z</time>
      </trkpt>
      <trkpt lat="45.12828" lon="4.50323">
        <ele>1062.4</ele>
        <time>2026-05-01T10:14:58Z</time>
      </trkpt>
      <trkpt lat="45.12837" lon="4.50323">
        <ele>1065.4</ele>
        <time>2026-05-01T10:15:03Z</time>
      </trkpt>
      <trkpt lat="45.12843" lon="4.50323">
        <ele>1067.6</ele>
        <time>2026-05-01T10:15:08Z</time>
      </trkpt>
      <trkpt lat="45.12847" lon="4.50324">
        <ele>1068.8</ele>
        <time>2026-05-01T10:15:13Z</time>
      </trkpt>
      <trkpt lat="45.1285" lon="4.50325">
        <ele>1069.7</ele>
        <time>2026-05-01T10:15:18Z</time>
      </trkpt>
      <trkpt lat="45.12856" lon="4.50328">
        <ele>1071.3</ele>
        <time>2026-05-01T10:15:23Z</time>
      </trkpt>
      <trkpt lat="45.1286" lon="4.50335">
        <ele>1071.4</ele>
        <time>2026-05-01T10:15:28Z</time>
      </trkpt>
      <trkpt lat="45.12865" lon="4.50341">
        <ele>1072.3</ele>
        <time>2026-05-01T10:15:33Z</time>
      </trkpt>
      <trkpt lat="45.12864" lon="4.50352">
        <ele>1070.5</ele>
        <time>2026-05-01T10:15:38Z</time>
      </trkpt>
      <trkpt lat="45.12864" lon="4.50361">
        <ele>1069.2</ele>
        <time>2026-05-01T10:15:43Z</time>
      </trkpt>
      <trkpt lat="45.12861" lon="4.50371">
        <ele>1066.7</ele>
        <time>2026-05-01T10:15:48Z</time>
      </trkpt>
      <trkpt lat="45.12859" lon="4.50381">
        <ele>1064.5</ele>
        <time>2026-05-01T10:15:53Z</time>
      </trkpt>
      <trkpt lat="45.12857" lon="4.50389">
        <ele>1062.6</ele>
        <time>2026-05-01T10:15:58Z</time>
      </trkpt>
      <trkpt lat="45.12856" lon="4.50395">
        <ele>1061.3</ele>
        <time>2026-05-01T10:16:03Z</time>
      </trkpt>
      <trkpt lat="45.12855" lon="4.50402">
        <ele>1059.9</ele>
        <time>2026-05-01T10:16:08Z</time>
      </trkpt>
      <trkpt lat="45.12854" lon="4.50409">
        <ele>1058.5</ele>
        <time>2026-05-01T10:16:13Z</time>
      </trkpt>
      <trkpt lat="45.12854" lon="4.50417">
        <ele>1057.4</ele>
        <time>2026-05-01T10:16:18Z</time>
      </trkpt>
      <trkpt lat="45.12856" lon="4.50425">
        <ele>1058.5</ele>
        <time>2026-05-01T10:16:23Z</time>
      </trkpt>
      <trkpt lat="45.12859" lon="4.5043">
        <ele>1059.7</ele>
        <time>2026-05-01T10:16:28Z</time>
      </trkpt>
      <trkpt lat="45.12863" lon="4.50437">
        <ele>1061.4</ele>
        <time>2026-05-01T10:16:33Z</time>
      </trkpt>
      <trkpt lat="45.1287" lon="4.50444">
        <ele>1063.9</ele>
        <time>2026-05-01T10:16:38Z</time>
      </trkpt>
      <trkpt lat="45.12877" lon="4.50449">
        <ele>1066.3</ele>
        <time>2026-05-01T10:16:43Z</time>
      </trkpt>
      <trkpt lat="45.12884" lon="4.50454">
        <ele>1068.5</ele>
        <time>2026-05-01T10:16:48Z</time>
      </trkpt>
      <trkpt lat="45.12889" lon="4.50461">
        <ele>1069.9</ele>
        <time>2026-05-01T10:16:53Z</time>
      </trkpt>
      <trkpt lat="45.12895" lon="4.50466">
        <ele>1071.6</ele>
        <time>2026-05-01T10:16:58Z</time>
      </trkpt>
      <trkpt lat="45.12899" lon="4.50475">
        <ele>1072.3</ele>
        <time>2026-05-01T10:17:03Z</time>
      </trkpt>
      <trkpt lat="45.12901" lon="4.50484">
        <ele>1072.3</ele>
        <time>2026-05-01T10:17:08Z</time>
      </trkpt>
      <trkpt lat="45.12904" lon="4.50493">
        <ele>1072.5</ele>
        <time>2026-05-01T10:17:13Z</time>
      </trkpt>
      <trkpt lat="45.12906" lon="4.50504">
        <ele>1072.9</ele>
        <time>2026-05-01T10:17:18Z</time>
      </trkpt>
      <trkpt lat="45.12907" lon="4.50513">
        <ele>1074.2</ele>
        <time>2026-05-01T10:17:23Z</time>
      </trkpt>
      <trkpt lat="45.1291" lon="4.5052">
        <ele>1075.7</ele>
        <time>2026-05-01T10:17:28Z</time>
      </trkpt>
      <trkpt lat="45.12913" lon="4.50528">
        <ele>1077.3</ele>
        <time>2026-05-01T10:17:33Z</time>
      </trkpt>
      <trkpt lat="45.12918" lon="4.50535">
        <ele>1079.2</ele>
        <time>2026-05-01T10:17:38Z</time>
      </trkpt>
      <trkpt lat="45.12923" lon="4.5054">
        <ele>1081.5</ele>
        <time>2026-05-01T10:17:43Z</time>
      </trkpt>
      <trkpt lat="45.12928" lon="4.50544">
        <ele>1083.5</ele>
        <time>2026-05-01T10:17:48Z</time>
      </trkpt>
      <trkpt lat="45.12929" lon="4.50546">
        <ele>1084</ele>
        <time>2026-05-01T10:17:53Z</time>
      </trkpt>
      <trkpt lat="45.12929" lon="4.50546">
        <ele>1084</ele>
        <time>2026-05-01T10:17:58Z</time>
      </trkpt>
      <trkpt lat="45.12929" lon="4.50546">
        <ele>1084</ele>
        <time>2026-05-01T10:18:03Z</time>
      </trkpt>
      <trkpt lat="45.12929" lon="4.50546">
        <ele>1084</ele>
        <time>2026-05-01T10:18:08Z</time>
      </trkpt>
      <trkpt lat="45.12929" lon="4.50546">
        <ele>1084</ele>
        <time>2026-05-01T10:18:13Z</time>
      </trkpt>
      <trkpt lat="45.12929" lon="4.50557">
        <ele>1085</ele>
        <time>2026-05-01T10:18:18Z</time>
      </trkpt>
      <trkpt lat="45.12932" lon="4.50566">
        <ele>1086.6</ele>
        <time>2026-05-01T10:18:23Z</time>
      </trkpt>
      <trkpt lat="45.12929" lon="4.50577">
        <ele>1086.7</ele>
        <time>2026-05-01T10:18:28Z</time>
      </trkpt>
      <trkpt lat="45.12924" lon="4.50581">
        <ele>1085.7</ele>
        <time>2026-05-01T10:18:33Z</time>
      </trkpt>
      <trkpt lat="45.12918" lon="4.50582">
        <ele>1084.2</ele>
        <time>2026-05-01T10:18:38Z</time>
      </trkpt>
      <trkpt lat="45.12912" lon="4.50584">
        <ele>1083.6</ele>
        <time>2026-05-01T10:18:43Z</time>
      </trkpt>
      <trkpt lat="45.12907" lon="4.50588">
        <ele>1084.2</ele>
        <time>2026-05-01T10:18:48Z</time>
      </trkpt>
      <trkpt lat="45.129" lon="4.5059">
        <ele>1083.8</ele>
        <time>2026-05-01T10:18:53Z</time>
      </trkpt>
      <trkpt lat="45.12894" lon="4.50594">
        <ele>1084.2</ele>
        <time>2026-05-01T10:18:58Z</time>
      </trkpt>
      <trkpt lat="45.12888" lon="4.50598">
        <ele>1084.4</ele>
        <time>2026-05-01T10:19:03Z</time>
      </trkpt>
      <trkpt lat="45.12885" lon="4.506">
        <ele>1084.5</ele>
        <time>2026-05-01T10:19:08Z</time>
      </trkpt>
      <trkpt lat="45.12884" lon="4.50599">
        <ele>1084.1</ele>
        <time>2026-05-01T10:19:13Z</time>
      </trkpt>
      <trkpt lat="45.12884" lon="4.50599">
        <ele>1084.1</ele>
        <time>2026-05-01T10:19:18Z</time>
      </trkpt>
      <trkpt lat="45.12884" lon="4.50599">
        <ele>1084.1</ele>
        <time>2026-05-01T10:19:23Z</time>
      </trkpt>
      <trkpt lat="45.12879" lon="4.50607">
        <ele>1085.5</ele>
        <time>2026-05-01T10:19:28Z</time>
      </trkpt>
      <trkpt lat="45.12873" lon="4.50612">
        <ele>1085.9</ele>
        <time>2026-05-01T10:19:33Z</time>
      </trkpt>
      <trkpt lat="45.12868" lon="4.50617">
        <ele>1086.4</ele>
        <time>2026-05-01T10:19:38Z</time>
      </trkpt>
      <trkpt lat="45.12862" lon="4.50624">
        <ele>1087.1</ele>
        <time>2026-05-01T10:19:43Z</time>
      </trkpt>
      <trkpt lat="45.12857" lon="4.5063">
        <ele>1087.6</ele>
        <time>2026-05-01T10:19:48Z</time>
      </trkpt>
      <trkpt lat="45.12853" lon="4.50633">
        <ele>1087.6</ele>
        <time>2026-05-01T10:19:53Z</time>
      </trkpt>
      <trkpt lat="45.12852" lon="4.50632">
        <ele>1087.2</ele>
        <time>2026-05-01T10:19:58Z</time>
      </trkpt>
      <trkpt lat="45.12852" lon="4.50632">
        <ele>1087.2</ele>
        <time>2026-05-01T10:20:03Z</time>
      </trkpt>
      <trkpt lat="45.12852" lon="4.50632">
        <ele>1087.2</ele>
        <time>2026-05-01T10:20:08Z</time>
      </trkpt>
      <trkpt lat="45.12852" lon="4.50632">
        <ele>1087.2</ele>
        <time>2026-05-01T10:20:13Z</time>
      </trkpt>
      <trkpt lat="45.12852" lon="4.50632">
        <ele>1087.2</ele>
        <time>2026-05-01T10:20:18Z</time>
      </trkpt>
      <trkpt lat="45.12852" lon="4.50632">
        <ele>1087.2</ele>
        <time>2026-05-01T10:20:23Z</time>
      </trkpt>
      <trkpt lat="45.12852" lon="4.50632">
        <ele>1087.2</ele>
        <time>2026-05-01T10:20:28Z</time>
      </trkpt>
      <trkpt lat="45.12852" lon="4.50632">
        <ele>1087.2</ele>
        <time>2026-05-01T10:20:33Z</time>
      </trkpt>
      <trkpt lat="45.12852" lon="4.50632">
        <ele>1087.2</ele>
        <time>2026-05-01T10:20:38Z</time>
      </trkpt>
      <trkpt lat="45.12852" lon="4.50632">
        <ele>1087.2</ele>
        <time>2026-05-01T10:20:43Z</time>
      </trkpt>
      <trkpt lat="45.12852" lon="4.50632">
        <ele>1087.2</ele>
        <time>2026-05-01T10:20:48Z</time>
      </trkpt>
      <trkpt lat="45.12852" lon="4.50632">
        <ele>1087.2</ele>
        <time>2026-05-01T10:20:53Z</time>
      </trkpt>
      <trkpt lat="45.12848" lon="4.50637">
        <ele>1087.5</ele>
        <time>2026-05-01T10:20:58Z</time>
      </trkpt>
      <trkpt lat="45.12845" lon="4.50644">
        <ele>1088.6</ele>
        <time>2026-05-01T10:21:03Z</time>
      </trkpt>
      <trkpt lat="45.12841" lon="4.50651">
        <ele>1089.3</ele>
        <time>2026-05-01T10:21:08Z</time>
      </trkpt>
      <trkpt lat="45.12837" lon="4.50659">
        <ele>1090.2</ele>
        <time>2026-05-01T10:21:13Z</time>
      </trkpt>
      <trkpt lat="45.12834" lon="4.50668">
        <ele>1091.4</ele>
        <time>2026-05-01T10:21:18Z</time>
      </trkpt>
      <trkpt lat="45.12831" lon="4.50679">
        <ele>1093.3</ele>
        <time>2026-05-01T10:21:23Z</time>
      </trkpt>
      <trkpt lat="45.12828" lon="4.50687">
        <ele>1094.5</ele>
        <time>2026-05-01T10:21:28Z</time>
      </trkpt>
      <trkpt lat="45.12824" lon="4.50695">
        <ele>1095.7</ele>
        <time>2026-05-01T10:21:33Z</time>
      </trkpt>
      <trkpt lat="45.12821" lon="4.50704">
        <ele>1097</ele>
        <time>2026-05-01T10:21:38Z</time>
      </trkpt>
      <trkpt lat="45.12816" lon="4.50713">
        <ele>1098.1</ele>
        <time>2026-05-01T10:21:43Z</time>
      </trkpt>
      <trkpt lat="45.12812" lon="4.50722">
        <ele>1099.2</ele>
        <time>2026-05-01T10:21:48Z</time>
      </trkpt>
      <trkpt lat="45.12809" lon="4.5073">
        <ele>1100.3</ele>
        <time>2026-05-01T10:21:53Z</time>
      </trkpt>
      <trkpt lat="45.12807" lon="4.50736">
        <ele>1101</ele>
        <time>2026-05-01T10:21:58Z</time>
      </trkpt>
      <trkpt lat="45.12807" lon="4.5074">
        <ele>1101.8</ele>
        <time>2026-05-01T10:22:03Z</time>
      </trkpt>
      <trkpt lat="45.12807" lon="4.50746">
        <ele>1102.9</ele>
        <time>2026-05-01T10:22:08Z</time>
      </trkpt>
      <trkpt lat="45.12804" lon="4.5075">
        <ele>1103.1</ele>
        <time>2026-05-01T10:22:13Z</time>
      </trkpt>
      <trkpt lat="45.12802" lon="4.50752">
        <ele>1103.1</ele>
        <time>2026-05-01T10:22:18Z</time>
      </trkpt>
      <trkpt lat="45.12801" lon="4.50752">
        <ele>1102.9</ele>
        <time>2026-05-01T10:22:23Z</time>
      </trkpt>
      <trkpt lat="45.12801" lon="4.50752">
        <ele>1102.9</ele>
        <time>2026-05-01T10:22:28Z</time>
      </trkpt>
      <trkpt lat="45.12801" lon="4.50752">
        <ele>1102.9</ele>
        <time>2026-05-01T10:22:33Z</time>
      </trkpt>
      <trkpt lat="45.12801" lon="4.50752">
        <ele>1102.9</ele>
        <time>2026-05-01T10:22:38Z</time>
      </trkpt>
      <trkpt lat="45.12801" lon="4.50752">
        <ele>1102.9</ele>
        <time>2026-05-01T10:22:43Z</time>
      </trkpt>
      <trkpt lat="45.12801" lon="4.50752">
        <ele>1102.9</ele>
        <time>2026-05-01T10:22:48Z</time>
      </trkpt>
      <trkpt lat="45.12801" lon="4.50752">
        <ele>1102.9</ele>
        <time>2026-05-01T10:22:53Z</time>
      </trkpt>
      <trkpt lat="45.12801" lon="4.50752">
        <ele>1102.9</ele>
        <time>2026-05-01T10:22:58Z</time>
      </trkpt>
      <trkpt lat="45.12801" lon="4.50752">
        <ele>1102.9</ele>
        <time>2026-05-01T10:23:03Z</time>
      </trkpt>
      <trkpt lat="45.12801" lon="4.50752">
        <ele>1102.9</ele>
        <time>2026-05-01T10:23:08Z</time>
      </trkpt>
      <trkpt lat="45.12799" lon="4.50756">
        <ele>1103.3</ele>
        <time>2026-05-01T10:23:13Z</time>
      </trkpt>
      <trkpt lat="45.128" lon="4.50758">
        <ele>1103.8</ele>
        <time>2026-05-01T10:23:18Z</time>
      </trkpt>
      <trkpt lat="45.128" lon="4.50759">
        <ele>1103.9</ele>
        <time>2026-05-01T10:23:23Z</time>
      </trkpt>
      <trkpt lat="45.12799" lon="4.50759">
        <ele>1103.8</ele>
        <time>2026-05-01T10:23:28Z</time>
      </trkpt>
      <trkpt lat="45.12799" lon="4.50759">
        <ele>1103.8</ele>
        <time>2026-05-01T10:23:33Z</time>
      </trkpt>
      <trkpt lat="45.12799" lon="4.50759">
        <ele>1103.8</ele>
        <time>2026-05-01T10:23:38Z</time>
      </trkpt>
      <trkpt lat="45.12799" lon="4.50759">
        <ele>1103.8</ele>
        <time>2026-05-01T10:23:43Z</time>
      </trkpt>
      <trkpt lat="45.12799" lon="4.50759">
        <ele>1103.8</ele>
        <time>2026-05-01T10:23:48Z</time>
      </trkpt>
      <trkpt lat="45.12799" lon="4.50759">
        <ele>1103.8</ele>
        <time>2026-05-01T10:23:53Z</time>
      </trkpt>
      <trkpt lat="45.12799" lon="4.50759">
        <ele>1103.8</ele>
        <time>2026-05-01T10:23:58Z</time>
      </trkpt>
      <trkpt lat="45.12799" lon="4.50759">
        <ele>1103.8</ele>
        <time>2026-05-01T10:24:03Z</time>
      </trkpt>
      <trkpt lat="45.12799" lon="4.50759">
        <ele>1103.8</ele>
        <time>2026-05-01T10:24:08Z</time>
      </trkpt>
      <trkpt lat="45.12799" lon="4.50759">
        <ele>1103.8</ele>
        <time>2026-05-01T10:24:13Z</time>
      </trkpt>
      <trkpt lat="45.12799" lon="4.50759">
        <ele>1103.8</ele>
        <time>2026-05-01T10:24:18Z</time>
      </trkpt>
      <trkpt lat="45.12799" lon="4.50759">
        <ele>1103.8</ele>
        <time>2026-05-01T10:24:23Z</time>
      </trkpt>
      <trkpt lat="45.1279" lon="4.50765">
        <ele>1103.2</ele>
        <time>2026-05-01T10:24:28Z</time>
      </trkpt>
      <trkpt lat="45.12787" lon="4.50775">
        <ele>1104.4</ele>
        <time>2026-05-01T10:24:33Z</time>
      </trkpt>
      <trkpt lat="45.12783" lon="4.50782">
        <ele>1104.8</ele>
        <time>2026-05-01T10:24:38Z</time>
      </trkpt>
      <trkpt lat="45.12781" lon="4.50792">
        <ele>1106.1</ele>
        <time>2026-05-01T10:24:43Z</time>
      </trkpt>
      <trkpt lat="45.12778" lon="4.50801">
        <ele>1107.1</ele>
        <time>2026-05-01T10:24:48Z</time>
      </trkpt>
      <trkpt lat="45.12776" lon="4.50811">
        <ele>1108.3</ele>
        <time>2026-05-01T10:24:53Z</time>
      </trkpt>
      <trkpt lat="45.12773" lon="4.50819">
        <ele>1109.1</ele>
        <time>2026-05-01T10:24:58Z</time>
      </trkpt>
      <trkpt lat="45.12773" lon="4.5083">
        <ele>1110.9</ele>
        <time>2026-05-01T10:25:03Z</time>
      </trkpt>
      <trkpt lat="45.12773" lon="4.50841">
        <ele>1111.6</ele>
        <time>2026-05-01T10:25:08Z</time>
      </trkpt>
      <trkpt lat="45.12773" lon="4.50851">
        <ele>1111.8</ele>
        <time>2026-05-01T10:25:13Z</time>
      </trkpt>
      <trkpt lat="45.12772" lon="4.50863">
        <ele>1111.8</ele>
        <time>2026-05-01T10:25:18Z</time>
      </trkpt>
      <trkpt lat="45.12775" lon="4.50874">
        <ele>1112.5</ele>
        <time>2026-05-01T10:25:23Z</time>
      </trkpt>
      <trkpt lat="45.12776" lon="4.50884">
        <ele>1112.9</ele>
        <time>2026-05-01T10:25:28Z</time>
      </trkpt>
      <trkpt lat="45.12779" lon="4.50891">
        <ele>1113.4</ele>
        <time>2026-05-01T10:25:33Z</time>
      </trkpt>
      <trkpt lat="45.12781" lon="4.509">
        <ele>1113.9</ele>
        <time>2026-05-01T10:25:38Z</time>
      </trkpt>
      <trkpt lat="45.12784" lon="4.5091">
        <ele>1114.4</ele>
        <time>2026-05-01T10:25:43Z</time>
      </trkpt>
      <trkpt lat="45.12787" lon="4.5092">
        <ele>1114.3</ele>
        <time>2026-05-01T10:25:48Z</time>
      </trkpt>
      <trkpt lat="45.12791" lon="4.50929">
        <ele>1113.2</ele>
        <time>2026-05-01T10:25:53Z</time>
      </trkpt>
      <trkpt lat="45.12795" lon="4.5094">
        <ele>1111.8</ele>
        <time>2026-05-01T10:25:58Z</time>
      </trkpt>
      <trkpt lat="45.12798" lon="4.50955">
        <ele>1109.5</ele>
        <time>2026-05-01T10:26:03Z</time>
      </trkpt>
      <trkpt lat="45.12802" lon="4.50966">
        <ele>1108.1</ele>
        <time>2026-05-01T10:26:08Z</time>
      </trkpt>
      <trkpt lat="45.12805" lon="4.50976">
        <ele>1106.8</ele>
        <time>2026-05-01T10:26:13Z</time>
      </trkpt>
      <trkpt lat="45.12808" lon="4.50984">
        <ele>1105.9</ele>
        <time>2026-05-01T10:26:18Z</time>
      </trkpt>
      <trkpt lat="45.12812" lon="4.50992">
        <ele>1105.1</ele>
        <time>2026-05-01T10:26:23Z</time>
      </trkpt>
      <trkpt lat="45.12815" lon="4.51001">
        <ele>1104</ele>
        <time>2026-05-01T10:26:28Z</time>
      </trkpt>
      <trkpt lat="45.12819" lon="4.5101">
        <ele>1103.1</ele>
        <time>2026-05-01T10:26:33Z</time>
      </trkpt>
      <trkpt lat="45.12823" lon="4.51018">
        <ele>1102.4</ele>
        <time>2026-05-01T10:26:38Z</time>
      </trkpt>
      <trkpt lat="45.12828" lon="4.51027">
        <ele>1102</ele>
        <time>2026-05-01T10:26:43Z</time>
      </trkpt>
      <trkpt lat="45.12833" lon="4.51035">
        <ele>1101.9</ele>
        <time>2026-05-01T10:26:48Z</time>
      </trkpt>
      <trkpt lat="45.12838" lon="4.51042">
        <ele>1102.4</ele>
        <time>2026-05-01T10:26:53Z</time>
      </trkpt>
      <trkpt lat="45.12844" lon="4.51049">
        <ele>1103.2</ele>
        <time>2026-05-01T10:26:58Z</time>
      </trkpt>
      <trkpt lat="45.12848" lon="4.51056">
        <ele>1103.5</ele>
        <time>2026-05-01T10:27:03Z</time>
      </trkpt>
      <trkpt lat="45.12852" lon="4.51064">
        <ele>1103.6</ele>
        <time>2026-05-01T10:27:08Z</time>
      </trkpt>
      <trkpt lat="45.12858" lon="4.51071">
        <ele>1104.4</ele>
        <time>2026-05-01T10:27:13Z</time>
      </trkpt>
      <trkpt lat="45.12864" lon="4.51077">
        <ele>1105.5</ele>
        <time>2026-05-01T10:27:18Z</time>
      </trkpt>
      <trkpt lat="45.1287" lon="4.51083">
        <ele>1106.5</ele>
        <time>2026-05-01T10:27:23Z</time>
      </trkpt>
      <trkpt lat="45.12876" lon="4.51088">
        <ele>1107.5</ele>
        <time>2026-05-01T10:27:28Z</time>
      </trkpt>
      <trkpt lat="45.12884" lon="4.51091">
        <ele>1109.4</ele>
        <time>2026-05-01T10:27:33Z</time>
      </trkpt>
      <trkpt lat="45.12891" lon="4.51095">
        <ele>1110.8</ele>
        <time>2026-05-01T10:27:38Z</time>
      </trkpt>
      <trkpt lat="45.12899" lon="4.51099">
        <ele>1112.5</ele>
        <time>2026-05-01T10:27:43Z</time>
      </trkpt>
      <trkpt lat="45.12905" lon="4.51101">
        <ele>1113.9</ele>
        <time>2026-05-01T10:27:48Z</time>
      </trkpt>
      <trkpt lat="45.12913" lon="4.51104">
        <ele>1115.7</ele>
        <time>2026-05-01T10:27:53Z</time>
      </trkpt>
      <trkpt lat="45.12921" lon="4.51102">
        <ele>1117.6</ele>
        <time>2026-05-01T10:27:58Z</time>
      </trkpt>
      <trkpt lat="45.12929" lon="4.51102">
        <ele>1118.5</ele>
        <time>2026-05-01T10:28:03Z</time>
      </trkpt>
      <trkpt lat="45.12937" lon="4.51101">
        <ele>1119.5</ele>
        <time>2026-05-01T10:28:08Z</time>
      </trkpt>
      <trkpt lat="45.12945" lon="4.511">
        <ele>1120.5</ele>
        <time>2026-05-01T10:28:13Z</time>
      </trkpt>
      <trkpt lat="45.12954" lon="4.51097">
        <ele>1122</ele>
        <time>2026-05-01T10:28:18Z</time>
      </trkpt>
      <trkpt lat="45.12963" lon="4.51095">
        <ele>1123.3</ele>
        <time>2026-05-01T10:28:23Z</time>
      </trkpt>
      <trkpt lat="45.1297" lon="4.51093">
        <ele>1124.4</ele>
        <time>2026-05-01T10:28:28Z</time>
      </trkpt>
      <trkpt lat="45.12978" lon="4.51092">
        <ele>1125.3</ele>
        <time>2026-05-01T10:28:33Z</time>
      </trkpt>
      <trkpt lat="45.12983" lon="4.51091">
        <ele>1126</ele>
        <time>2026-05-01T10:28:38Z</time>
      </trkpt>
      <trkpt lat="45.12984" lon="4.51091">
        <ele>1126.1</ele>
        <time>2026-05-01T10:28:43Z</time>
      </trkpt>
      <trkpt lat="45.12984" lon="4.51091">
        <ele>1126.1</ele>
        <time>2026-05-01T10:28:48Z</time>
      </trkpt>
      <trkpt lat="45.12984" lon="4.51091">
        <ele>1126.1</ele>
        <time>2026-05-01T10:28:53Z</time>
      </trkpt>
      <trkpt lat="45.12984" lon="4.51091">
        <ele>1126.1</ele>
        <time>2026-05-01T10:28:58Z</time>
      </trkpt>
      <trkpt lat="45.12985" lon="4.51093">
        <ele>1125.9</ele>
        <time>2026-05-01T10:29:03Z</time>
      </trkpt>
      <trkpt lat="45.12988" lon="4.51092">
        <ele>1126.3</ele>
        <time>2026-05-01T10:29:08Z</time>
      </trkpt>
      <trkpt lat="45.12989" lon="4.51092">
        <ele>1126.4</ele>
        <time>2026-05-01T10:29:13Z</time>
      </trkpt>
      <trkpt lat="45.1299" lon="4.51092">
        <ele>1126.5</ele>
        <time>2026-05-01T10:29:18Z</time>
      </trkpt>
      <trkpt lat="45.12992" lon="4.51091">
        <ele>1126.9</ele>
        <time>2026-05-01T10:29:23Z</time>
      </trkpt>
      <trkpt lat="45.12998" lon="4.51088">
        <ele>1128</ele>
        <time>2026-05-01T10:29:28Z</time>
      </trkpt>
      <trkpt lat="45.13005" lon="4.51087">
        <ele>1128.5</ele>
        <time>2026-05-01T10:29:33Z</time>
      </trkpt>
      <trkpt lat="45.13009" lon="4.51086">
        <ele>1128.7</ele>
        <time>2026-05-01T10:29:38Z</time>
      </trkpt>
      <trkpt lat="45.1301" lon="4.51087">
        <ele>1128.5</ele>
        <time>2026-05-01T10:29:43Z</time>
      </trkpt>
      <trkpt lat="45.13011" lon="4.51088">
        <ele>1128.4</ele>
        <time>2026-05-01T10:29:48Z</time>
      </trkpt>
      <trkpt lat="45.13014" lon="4.51086">
        <ele>1128.8</ele>
        <time>2026-05-01T10:29:53Z</time>
      </trkpt>
      <trkpt lat="45.13019" lon="4.51081">
        <ele>1129.5</ele>
        <time>2026-05-01T10:29:58Z</time>
      </trkpt>
      <trkpt lat="45.13026" lon="4.51083">
        <ele>1129.3</ele>
        <time>2026-05-01T10:30:03Z</time>
      </trkpt>
      <trkpt lat="45.13032" lon="4.51081">
        <ele>1129.6</ele>
        <time>2026-05-01T10:30:08Z</time>
      </trkpt>
      <trkpt lat="45.13038" lon="4.51084">
        <ele>1129.4</ele>
        <time>2026-05-01T10:30:13Z</time>
      </trkpt>
      <trkpt lat="45.13044" lon="4.51088">
        <ele>1128.9</ele>
        <time>2026-05-01T10:30:18Z</time>
      </trkpt>
      <trkpt lat="45.13049" lon="4.51094">
        <ele>1128.2</ele>
        <time>2026-05-01T10:30:23Z</time>
      </trkpt>
      <trkpt lat="45.13053" lon="4.51103">
        <ele>1127.2</ele>
        <time>2026-05-01T10:30:28Z</time>
      </trkpt>
      <trkpt lat="45.13056" lon="4.51111">
        <ele>1126.4</ele>
        <time>2026-05-01T10:30:33Z</time>
      </trkpt>
      <trkpt lat="45.13059" lon="4.51121">
        <ele>1125.3</ele>
        <time>2026-05-01T10:30:38Z</time>
      </trkpt>
      <trkpt lat="45.13061" lon="4.51126">
        <ele>1124.8</ele>
        <time>2026-05-01T10:30:43Z</time>
      </trkpt>
      <trkpt lat="45.13064" lon="4.51135">
        <ele>1123.9</ele>
        <time>2026-05-01T10:30:48Z</time>
      </trkpt>
      <trkpt lat="45.13067" lon="4.51145">
        <ele>1123</ele>
        <time>2026-05-01T10:30:53Z</time>
      </trkpt>
      <trkpt lat="45.13069" lon="4.51154">
        <ele>1122.2</ele>
        <time>2026-05-01T10:30:58Z</time>
      </trkpt>
      <trkpt lat="45.13071" lon="4.51163">
        <ele>1121.4</ele>
        <time>2026-05-01T10:31:03Z</time>
      </trkpt>
      <trkpt lat="45.13075" lon="4.51172">
        <ele>1121.3</ele>
        <time>2026-05-01T10:31:08Z</time>
      </trkpt>
      <trkpt lat="45.13076" lon="4.51182">
        <ele>1121.5</ele>
        <time>2026-05-01T10:31:13Z</time>
      </trkpt>
      <trkpt lat="45.13078" lon="4.51193">
        <ele>1121.7</ele>
        <time>2026-05-01T10:31:18Z</time>
      </trkpt>
      <trkpt lat="45.1308" lon="4.51206">
        <ele>1122.1</ele>
        <time>2026-05-01T10:31:23Z</time>
      </trkpt>
      <trkpt lat="45.13082" lon="4.51216">
        <ele>1122.4</ele>
        <time>2026-05-01T10:31:28Z</time>
      </trkpt>
      <trkpt lat="45.13086" lon="4.51224">
        <ele>1122.9</ele>
        <time>2026-05-01T10:31:33Z</time>
      </trkpt>
      <trkpt lat="45.13091" lon="4.51233">
        <ele>1123.4</ele>
        <time>2026-05-01T10:31:38Z</time>
      </trkpt>
      <trkpt lat="45.13095" lon="4.5124">
        <ele>1123.8</ele>
        <time>2026-05-01T10:31:43Z</time>
      </trkpt>
      <trkpt lat="45.13095" lon="4.5124">
        <ele>1123.8</ele>
        <time>2026-05-01T10:31:48Z</time>
      </trkpt>
      <trkpt lat="45.13098" lon="4.51244">
        <ele>1124</ele>
        <time>2026-05-01T10:31:53Z</time>
      </trkpt>
      <trkpt lat="45.13105" lon="4.51251">
        <ele>1124.6</ele>
        <time>2026-05-01T10:31:58Z</time>
      </trkpt>
      <trkpt lat="45.1311" lon="4.51258">
        <ele>1125.1</ele>
        <time>2026-05-01T10:32:03Z</time>
      </trkpt>
      <trkpt lat="45.13116" lon="4.51266">
        <ele>1125.6</ele>
        <time>2026-05-01T10:32:08Z</time>
      </trkpt>
      <trkpt lat="45.13123" lon="4.51272">
        <ele>1126</ele>
        <time>2026-05-01T10:32:13Z</time>
      </trkpt>
      <trkpt lat="45.13129" lon="4.51278">
        <ele>1126.4</ele>
        <time>2026-05-01T10:32:18Z</time>
      </trkpt>
      <trkpt lat="45.13134" lon="4.51284">
        <ele>1126.6</ele>
        <time>2026-05-01T10:32:23Z</time>
      </trkpt>
      <trkpt lat="45.13141" lon="4.5129">
        <ele>1126.9</ele>
        <time>2026-05-01T10:32:28Z</time>
      </trkpt>
      <trkpt lat="45.13147" lon="4.51295">
        <ele>1127.1</ele>
        <time>2026-05-01T10:32:33Z</time>
      </trkpt>
      <trkpt lat="45.13149" lon="4.51297">
        <ele>1127.2</ele>
        <time>2026-05-01T10:32:38Z</time>
      </trkpt>
      <trkpt lat="45.13149" lon="4.51297">
        <ele>1127.2</ele>
        <time>2026-05-01T10:32:43Z</time>
      </trkpt>
      <trkpt lat="45.13149" lon="4.51297">
        <ele>1127.2</ele>
        <time>2026-05-01T10:32:48Z</time>
      </trkpt>
      <trkpt lat="45.13149" lon="4.51297">
        <ele>1127.2</ele>
        <time>2026-05-01T10:32:53Z</time>
      </trkpt>
      <trkpt lat="45.13151" lon="4.51302">
        <ele>1127.2</ele>
        <time>2026-05-01T10:32:58Z</time>
      </trkpt>
      <trkpt lat="45.13156" lon="4.51308">
        <ele>1127.3</ele>
        <time>2026-05-01T10:33:03Z</time>
      </trkpt>
      <trkpt lat="45.13162" lon="4.51313">
        <ele>1127.4</ele>
        <time>2026-05-01T10:33:08Z</time>
      </trkpt>
      <trkpt lat="45.13162" lon="4.51313">
        <ele>1127.4</ele>
        <time>2026-05-01T10:33:13Z</time>
      </trkpt>
      <trkpt lat="45.13162" lon="4.51313">
        <ele>1127.4</ele>
        <time>2026-05-01T10:33:18Z</time>
      </trkpt>
      <trkpt lat="45.13162" lon="4.51313">
        <ele>1127.4</ele>
        <time>2026-05-01T10:33:23Z</time>
      </trkpt>
      <trkpt lat="45.13162" lon="4.51313">
        <ele>1127.4</ele>
        <time>2026-05-01T10:33:28Z</time>
      </trkpt>
      <trkpt lat="45.13162" lon="4.51313">
        <ele>1127.4</ele>
        <time>2026-05-01T10:33:33Z</time>
      </trkpt>
      <trkpt lat="45.13162" lon="4.51313">
        <ele>1127.4</ele>
        <time>2026-05-01T10:33:38Z</time>
      </trkpt>
      <trkpt lat="45.13162" lon="4.51313">
        <ele>1127.4</ele>
        <time>2026-05-01T10:33:43Z</time>
      </trkpt>
      <trkpt lat="45.13162" lon="4.51313">
        <ele>1127.4</ele>
        <time>2026-05-01T10:33:48Z</time>
      </trkpt>
      <trkpt lat="45.13162" lon="4.51313">
        <ele>1127.4</ele>
        <time>2026-05-01T10:33:53Z</time>
      </trkpt>
      <trkpt lat="45.13162" lon="4.51313">
        <ele>1127.4</ele>
        <time>2026-05-01T10:33:58Z</time>
      </trkpt>
      <trkpt lat="45.13162" lon="4.51313">
        <ele>1127.4</ele>
        <time>2026-05-01T10:34:03Z</time>
      </trkpt>
      <trkpt lat="45.13162" lon="4.51313">
        <ele>1127.4</ele>
        <time>2026-05-01T10:34:08Z</time>
      </trkpt>
      <trkpt lat="45.13162" lon="4.51313">
        <ele>1127.4</ele>
        <time>2026-05-01T10:34:13Z</time>
      </trkpt>
      <trkpt lat="45.13162" lon="4.51313">
        <ele>1127.4</ele>
        <time>2026-05-01T10:34:18Z</time>
      </trkpt>
      <trkpt lat="45.13162" lon="4.51313">
        <ele>1127.4</ele>
        <time>2026-05-01T10:34:23Z</time>
      </trkpt>
      <trkpt lat="45.13162" lon="4.51313">
        <ele>1127.4</ele>
        <time>2026-05-01T10:34:28Z</time>
      </trkpt>
      <trkpt lat="45.13162" lon="4.51313">
        <ele>1127.4</ele>
        <time>2026-05-01T10:34:33Z</time>
      </trkpt>
      <trkpt lat="45.13162" lon="4.51313">
        <ele>1127.4</ele>
        <time>2026-05-01T10:34:38Z</time>
      </trkpt>
      <trkpt lat="45.13162" lon="4.51313">
        <ele>1127.4</ele>
        <time>2026-05-01T10:34:43Z</time>
      </trkpt>
      <trkpt lat="45.13162" lon="4.51313">
        <ele>1127.4</ele>
        <time>2026-05-01T10:34:48Z</time>
      </trkpt>
      <trkpt lat="45.13167" lon="4.51319">
        <ele>1127.4</ele>
        <time>2026-05-01T10:34:53Z</time>
      </trkpt>
      <trkpt lat="45.13169" lon="4.51323">
        <ele>1127.4</ele>
        <time>2026-05-01T10:34:58Z</time>
      </trkpt>
      <trkpt lat="45.13173" lon="4.51326">
        <ele>1127.6</ele>
        <time>2026-05-01T10:35:03Z</time>
      </trkpt>
      <trkpt lat="45.13179" lon="4.51329">
        <ele>1127.9</ele>
        <time>2026-05-01T10:35:08Z</time>
      </trkpt>
      <trkpt lat="45.13184" lon="4.51336">
        <ele>1127.9</ele>
        <time>2026-05-01T10:35:13Z</time>
      </trkpt>
      <trkpt lat="45.1319" lon="4.51341">
        <ele>1128.1</ele>
        <time>2026-05-01T10:35:18Z</time>
      </trkpt>
      <trkpt lat="45.13197" lon="4.51348">
        <ele>1128.1</ele>
        <time>2026-05-01T10:35:23Z</time>
      </trkpt>
      <trkpt lat="45.13202" lon="4.51353">
        <ele>1128</ele>
        <time>2026-05-01T10:35:28Z</time>
      </trkpt>
      <trkpt lat="45.13209" lon="4.5136">
        <ele>1127.9</ele>
        <time>2026-05-01T10:35:33Z</time>
      </trkpt>
      <trkpt lat="45.13214" lon="4.51365">
        <ele>1127.8</ele>
        <time>2026-05-01T10:35:38Z</time>
      </trkpt>
      <trkpt lat="45.13221" lon="4.51371">
        <ele>1127.6</ele>
        <time>2026-05-01T10:35:43Z</time>
      </trkpt>
      <trkpt lat="45.13227" lon="4.51376">
        <ele>1127.4</ele>
        <time>2026-05-01T10:35:48Z</time>
      </trkpt>
      <trkpt lat="45.13234" lon="4.51381">
        <ele>1127.1</ele>
        <time>2026-05-01T10:35:53Z</time>
      </trkpt>
      <trkpt lat="45.1324" lon="4.51387">
        <ele>1126.7</ele>
        <time>2026-05-01T10:35:58Z</time>
      </trkpt>
      <trkpt lat="45.13245" lon="4.51391">
        <ele>1126.4</ele>
        <time>2026-05-01T10:36:03Z</time>
      </trkpt>
      <trkpt lat="45.13251" lon="4.51398">
        <ele>1125.8</ele>
        <time>2026-05-01T10:36:08Z</time>
      </trkpt>
      <trkpt lat="45.13258" lon="4.51406">
        <ele>1125.4</ele>
        <time>2026-05-01T10:36:13Z</time>
      </trkpt>
      <trkpt lat="45.13264" lon="4.51414">
        <ele>1124.9</ele>
        <time>2026-05-01T10:36:18Z</time>
      </trkpt>
      <trkpt lat="45.13269" lon="4.51422">
        <ele>1124.4</ele>
        <time>2026-05-01T10:36:23Z</time>
      </trkpt>
      <trkpt lat="45.13274" lon="4.51429">
        <ele>1124</ele>
        <time>2026-05-01T10:36:28Z</time>
      </trkpt>
      <trkpt lat="45.13278" lon="4.51437">
        <ele>1123.6</ele>
        <time>2026-05-01T10:36:33Z</time>
      </trkpt>
      <trkpt lat="45.13283" lon="4.51446">
        <ele>1123.1</ele>
        <time>2026-05-01T10:36:38Z</time>
      </trkpt>
      <trkpt lat="45.13288" lon="4.51455">
        <ele>1122.7</ele>
        <time>2026-05-01T10:36:43Z</time>
      </trkpt>
      <trkpt lat="45.13292" lon="4.51462">
        <ele>1122.5</ele>
        <time>2026-05-01T10:36:48Z</time>
      </trkpt>
      <trkpt lat="45.13297" lon="4.5147">
        <ele>1122.3</ele>
        <time>2026-05-01T10:36:53Z</time>
      </trkpt>
      <trkpt lat="45.13303" lon="4.51477">
        <ele>1122.3</ele>
        <time>2026-05-01T10:36:58Z</time>
      </trkpt>
      <trkpt lat="45.13308" lon="4.51483">
        <ele>1122.4</ele>
        <time>2026-05-01T10:37:03Z</time>
      </trkpt>
      <trkpt lat="45.13313" lon="4.51491">
        <ele>1122.4</ele>
        <time>2026-05-01T10:37:08Z</time>
      </trkpt>
      <trkpt lat="45.13319" lon="4.51499">
        <ele>1122.5</ele>
        <time>2026-05-01T10:37:13Z</time>
      </trkpt>
      <trkpt lat="45.13324" lon="4.51506">
        <ele>1122.5</ele>
        <time>2026-05-01T10:37:18Z</time>
      </trkpt>
      <trkpt lat="45.1333" lon="4.51513">
        <ele>1122.5</ele>
        <time>2026-05-01T10:37:23Z</time>
      </trkpt>
      <trkpt lat="45.13336" lon="4.51518">
        <ele>1122.9</ele>
        <time>2026-05-01T10:37:28Z</time>
      </trkpt>
      <trkpt lat="45.13342" lon="4.51524">
        <ele>1123.4</ele>
        <time>2026-05-01T10:37:33Z</time>
      </trkpt>
      <trkpt lat="45.13348" lon="4.5153">
        <ele>1123.9</ele>
        <time>2026-05-01T10:37:38Z</time>
      </trkpt>
      <trkpt lat="45.13354" lon="4.51535">
        <ele>1124.5</ele>
        <time>2026-05-01T10:37:43Z</time>
      </trkpt>
      <trkpt lat="45.13359" lon="4.51539">
        <ele>1125</ele>
        <time>2026-05-01T10:37:48Z</time>
      </trkpt>
      <trkpt lat="45.13365" lon="4.51547">
        <ele>1125.4</ele>
        <time>2026-05-01T10:37:53Z</time>
      </trkpt>
      <trkpt lat="45.1337" lon="4.51553">
        <ele>1125.7</ele>
        <time>2026-05-01T10:37:58Z</time>
      </trkpt>
      <trkpt lat="45.13376" lon="4.51558">
        <ele>1126.3</ele>
        <time>2026-05-01T10:38:03Z</time>
      </trkpt>
      <trkpt lat="45.1338" lon="4.51563">
        <ele>1126.5</ele>
        <time>2026-05-01T10:38:08Z</time>
      </trkpt>
      <trkpt lat="45.13382" lon="4.51563">
        <ele>1126.9</ele>
        <time>2026-05-01T10:38:13Z</time>
      </trkpt>
      <trkpt lat="45.13384" lon="4.51568">
        <ele>1126.8</ele>
        <time>2026-05-01T10:38:18Z</time>
      </trkpt>
      <trkpt lat="45.13388" lon="4.51577">
        <ele>1126.7</ele>
        <time>2026-05-01T10:38:23Z</time>
      </trkpt>
      <trkpt lat="45.13393" lon="4.51584">
        <ele>1127</ele>
        <time>2026-05-01T10:38:28Z</time>
      </trkpt>
      <trkpt lat="45.13399" lon="4.51588">
        <ele>1127.6</ele>
        <time>2026-05-01T10:38:33Z</time>
      </trkpt>
      <trkpt lat="45.13401" lon="4.5159">
        <ele>1127.7</ele>
        <time>2026-05-01T10:38:38Z</time>
      </trkpt>
      <trkpt lat="45.13401" lon="4.5159">
        <ele>1127.7</ele>
        <time>2026-05-01T10:38:43Z</time>
      </trkpt>
      <trkpt lat="45.13401" lon="4.5159">
        <ele>1127.7</ele>
        <time>2026-05-01T10:38:48Z</time>
      </trkpt>
      <trkpt lat="45.13401" lon="4.5159">
        <ele>1127.7</ele>
        <time>2026-05-01T10:38:53Z</time>
      </trkpt>
      <trkpt lat="45.13401" lon="4.5159">
        <ele>1127.7</ele>
        <time>2026-05-01T10:38:58Z</time>
      </trkpt>
      <trkpt lat="45.13401" lon="4.5159">
        <ele>1127.7</ele>
        <time>2026-05-01T10:39:03Z</time>
      </trkpt>
      <trkpt lat="45.13401" lon="4.5159">
        <ele>1127.7</ele>
        <time>2026-05-01T10:39:08Z</time>
      </trkpt>
      <trkpt lat="45.13401" lon="4.5159">
        <ele>1127.7</ele>
        <time>2026-05-01T10:39:13Z</time>
      </trkpt>
      <trkpt lat="45.13399" lon="4.51604">
        <ele>1126</ele>
        <time>2026-05-01T10:39:18Z</time>
      </trkpt>
      <trkpt lat="45.13402" lon="4.51614">
        <ele>1125.6</ele>
        <time>2026-05-01T10:39:23Z</time>
      </trkpt>
      <trkpt lat="45.13403" lon="4.51624">
        <ele>1124.8</ele>
        <time>2026-05-01T10:39:28Z</time>
      </trkpt>
      <trkpt lat="45.13405" lon="4.51633">
        <ele>1124.3</ele>
        <time>2026-05-01T10:39:33Z</time>
      </trkpt>
      <trkpt lat="45.13409" lon="4.51642">
        <ele>1124.1</ele>
        <time>2026-05-01T10:39:38Z</time>
      </trkpt>
      <trkpt lat="45.13412" lon="4.51651">
        <ele>1123.7</ele>
        <time>2026-05-01T10:39:43Z</time>
      </trkpt>
      <trkpt lat="45.13412" lon="4.5166">
        <ele>1122.9</ele>
        <time>2026-05-01T10:39:48Z</time>
      </trkpt>
      <trkpt lat="45.13412" lon="4.51669">
        <ele>1122.1</ele>
        <time>2026-05-01T10:39:53Z</time>
      </trkpt>
      <trkpt lat="45.13415" lon="4.51678">
        <ele>1122.3</ele>
        <time>2026-05-01T10:39:58Z</time>
      </trkpt>
      <trkpt lat="45.13416" lon="4.51687">
        <ele>1122.1</ele>
        <time>2026-05-01T10:40:03Z</time>
      </trkpt>
      <trkpt lat="45.13418" lon="4.51697">
        <ele>1122.2</ele>
        <time>2026-05-01T10:40:08Z</time>
      </trkpt>
      <trkpt lat="45.13417" lon="4.51707">
        <ele>1121.6</ele>
        <time>2026-05-01T10:40:13Z</time>
      </trkpt>
      <trkpt lat="45.13419" lon="4.51719">
        <ele>1121.6</ele>
        <time>2026-05-01T10:40:18Z</time>
      </trkpt>
      <trkpt lat="45.1342" lon="4.51729">
        <ele>1121.5</ele>
        <time>2026-05-01T10:40:23Z</time>
      </trkpt>
      <trkpt lat="45.13421" lon="4.51738">
        <ele>1121.4</ele>
        <time>2026-05-01T10:40:28Z</time>
      </trkpt>
      <trkpt lat="45.13422" lon="4.51748">
        <ele>1121.3</ele>
        <time>2026-05-01T10:40:33Z</time>
      </trkpt>
      <trkpt lat="45.13423" lon="4.51757">
        <ele>1120.6</ele>
        <time>2026-05-01T10:40:38Z</time>
      </trkpt>
      <trkpt lat="45.13427" lon="4.51765">
        <ele>1120.6</ele>
        <time>2026-05-01T10:40:43Z</time>
      </trkpt>
      <trkpt lat="45.13432" lon="4.51772">
        <ele>1120.9</ele>
        <time>2026-05-01T10:40:48Z</time>
      </trkpt>
      <trkpt lat="45.13438" lon="4.51778">
        <ele>1121.5</ele>
        <time>2026-05-01T10:40:53Z</time>
      </trkpt>
      <trkpt lat="45.13444" lon="4.51782">
        <ele>1122.4</ele>
        <time>2026-05-01T10:40:58Z</time>
      </trkpt>
      <trkpt lat="45.1345" lon="4.51785">
        <ele>1123.4</ele>
        <time>2026-05-01T10:41:03Z</time>
      </trkpt>
      <trkpt lat="45.13458" lon="4.51787">
        <ele>1125</ele>
        <time>2026-05-01T10:41:08Z</time>
      </trkpt>
      <trkpt lat="45.13466" lon="4.51789">
        <ele>1126.6</ele>
        <time>2026-05-01T10:41:13Z</time>
      </trkpt>
      <trkpt lat="45.13474" lon="4.51792">
        <ele>1128</ele>
        <time>2026-05-01T10:41:18Z</time>
      </trkpt>
      <trkpt lat="45.13481" lon="4.51795">
        <ele>1129.3</ele>
        <time>2026-05-01T10:41:23Z</time>
      </trkpt>
      <trkpt lat="45.13488" lon="4.51799">
        <ele>1130.4</ele>
        <time>2026-05-01T10:41:28Z</time>
      </trkpt>
      <trkpt lat="45.13494" lon="4.51803">
        <ele>1131.3</ele>
        <time>2026-05-01T10:41:33Z</time>
      </trkpt>
      <trkpt lat="45.135" lon="4.51808">
        <ele>1132</ele>
        <time>2026-05-01T10:41:38Z</time>
      </trkpt>
      <trkpt lat="45.13506" lon="4.51812">
        <ele>1132.5</ele>
        <time>2026-05-01T10:41:43Z</time>
      </trkpt>
      <trkpt lat="45.13514" lon="4.51817">
        <ele>1133.1</ele>
        <time>2026-05-01T10:41:48Z</time>
      </trkpt>
      <trkpt lat="45.1352" lon="4.51823">
        <ele>1133.3</ele>
        <time>2026-05-01T10:41:53Z</time>
      </trkpt>
      <trkpt lat="45.13526" lon="4.5183">
        <ele>1133.4</ele>
        <time>2026-05-01T10:41:58Z</time>
      </trkpt>
      <trkpt lat="45.13531" lon="4.51837">
        <ele>1133.7</ele>
        <time>2026-05-01T10:42:03Z</time>
      </trkpt>
      <trkpt lat="45.13536" lon="4.51846">
        <ele>1134</ele>
        <time>2026-05-01T10:42:08Z</time>
      </trkpt>
      <trkpt lat="45.13539" lon="4.51854">
        <ele>1134.2</ele>
        <time>2026-05-01T10:42:13Z</time>
      </trkpt>
      <trkpt lat="45.13542" lon="4.51864">
        <ele>1134.3</ele>
        <time>2026-05-01T10:42:18Z</time>
      </trkpt>
      <trkpt lat="45.13544" lon="4.51875">
        <ele>1134.2</ele>
        <time>2026-05-01T10:42:23Z</time>
      </trkpt>
      <trkpt lat="45.13545" lon="4.51885">
        <ele>1134</ele>
        <time>2026-05-01T10:42:28Z</time>
      </trkpt>
      <trkpt lat="45.13546" lon="4.51894">
        <ele>1133.8</ele>
        <time>2026-05-01T10:42:33Z</time>
      </trkpt>
      <trkpt lat="45.13548" lon="4.51905">
        <ele>1133.8</ele>
        <time>2026-05-01T10:42:38Z</time>
      </trkpt>
      <trkpt lat="45.13548" lon="4.51915">
        <ele>1133.4</ele>
        <time>2026-05-01T10:42:43Z</time>
      </trkpt>
      <trkpt lat="45.13548" lon="4.51925">
        <ele>1134</ele>
        <time>2026-05-01T10:42:48Z</time>
      </trkpt>
      <trkpt lat="45.13546" lon="4.51934">
        <ele>1134.2</ele>
        <time>2026-05-01T10:42:53Z</time>
      </trkpt>
      <trkpt lat="45.13542" lon="4.51944">
        <ele>1134</ele>
        <time>2026-05-01T10:42:58Z</time>
      </trkpt>
      <trkpt lat="45.13538" lon="4.51954">
        <ele>1133.9</ele>
        <time>2026-05-01T10:43:03Z</time>
      </trkpt>
      <trkpt lat="45.13533" lon="4.51962">
        <ele>1133.4</ele>
        <time>2026-05-01T10:43:08Z</time>
      </trkpt>
      <trkpt lat="45.13528" lon="4.5197">
        <ele>1132.9</ele>
        <time>2026-05-01T10:43:13Z</time>
      </trkpt>
      <trkpt lat="45.13524" lon="4.51977">
        <ele>1132.5</ele>
        <time>2026-05-01T10:43:18Z</time>
      </trkpt>
      <trkpt lat="45.13518" lon="4.51986">
        <ele>1131.9</ele>
        <time>2026-05-01T10:43:23Z</time>
      </trkpt>
      <trkpt lat="45.13514" lon="4.51995">
        <ele>1131.7</ele>
        <time>2026-05-01T10:43:28Z</time>
      </trkpt>
      <trkpt lat="45.13511" lon="4.52002">
        <ele>1131.4</ele>
        <time>2026-05-01T10:43:33Z</time>
      </trkpt>
      <trkpt lat="45.13508" lon="4.5201">
        <ele>1130.8</ele>
        <time>2026-05-01T10:43:38Z</time>
      </trkpt>
      <trkpt lat="45.13505" lon="4.52019">
        <ele>1130.1</ele>
        <time>2026-05-01T10:43:43Z</time>
      </trkpt>
      <trkpt lat="45.13502" lon="4.52029">
        <ele>1129.5</ele>
        <time>2026-05-01T10:43:48Z</time>
      </trkpt>
      <trkpt lat="45.135" lon="4.52038">
        <ele>1129</ele>
        <time>2026-05-01T10:43:53Z</time>
      </trkpt>
      <trkpt lat="45.135" lon="4.52047">
        <ele>1129</ele>
        <time>2026-05-01T10:43:58Z</time>
      </trkpt>
      <trkpt lat="45.135" lon="4.52056">
        <ele>1129</ele>
        <time>2026-05-01T10:44:03Z</time>
      </trkpt>
      <trkpt lat="45.13502" lon="4.52066">
        <ele>1129.5</ele>
        <time>2026-05-01T10:44:08Z</time>
      </trkpt>
      <trkpt lat="45.13504" lon="4.52074">
        <ele>1130</ele>
        <time>2026-05-01T10:44:13Z</time>
      </trkpt>
      <trkpt lat="45.13508" lon="4.52084">
        <ele>1131.1</ele>
        <time>2026-05-01T10:44:18Z</time>
      </trkpt>
      <trkpt lat="45.13512" lon="4.52092">
        <ele>1132.2</ele>
        <time>2026-05-01T10:44:23Z</time>
      </trkpt>
      <trkpt lat="45.13515" lon="4.52101">
        <ele>1132.9</ele>
        <time>2026-05-01T10:44:28Z</time>
      </trkpt>
      <trkpt lat="45.13518" lon="4.52109">
        <ele>1133.7</ele>
        <time>2026-05-01T10:44:33Z</time>
      </trkpt>
      <trkpt lat="45.13522" lon="4.52119">
        <ele>1134.6</ele>
        <time>2026-05-01T10:44:38Z</time>
      </trkpt>
      <trkpt lat="45.13524" lon="4.5213">
        <ele>1134.9</ele>
        <time>2026-05-01T10:44:43Z</time>
      </trkpt>
      <trkpt lat="45.13527" lon="4.52139">
        <ele>1135.5</ele>
        <time>2026-05-01T10:44:48Z</time>
      </trkpt>
      <trkpt lat="45.1353" lon="4.52148">
        <ele>1136</ele>
        <time>2026-05-01T10:44:53Z</time>
      </trkpt>
      <trkpt lat="45.13532" lon="4.52158">
        <ele>1136.3</ele>
        <time>2026-05-01T10:44:58Z</time>
      </trkpt>
      <trkpt lat="45.13535" lon="4.52167">
        <ele>1136.7</ele>
        <time>2026-05-01T10:45:03Z</time>
      </trkpt>
      <trkpt lat="45.13538" lon="4.52177">
        <ele>1137.9</ele>
        <time>2026-05-01T10:45:08Z</time>
      </trkpt>
      <trkpt lat="45.13543" lon="4.52187">
        <ele>1139.2</ele>
        <time>2026-05-01T10:45:13Z</time>
      </trkpt>
      <trkpt lat="45.13548" lon="4.52197">
        <ele>1140.2</ele>
        <time>2026-05-01T10:45:18Z</time>
      </trkpt>
      <trkpt lat="45.13552" lon="4.52208">
        <ele>1141</ele>
        <time>2026-05-01T10:45:23Z</time>
      </trkpt>
      <trkpt lat="45.13556" lon="4.52218">
        <ele>1141.5</ele>
        <time>2026-05-01T10:45:28Z</time>
      </trkpt>
      <trkpt lat="45.1356" lon="4.52229">
        <ele>1141.9</ele>
        <time>2026-05-01T10:45:33Z</time>
      </trkpt>
      <trkpt lat="45.13564" lon="4.52238">
        <ele>1142</ele>
        <time>2026-05-01T10:45:38Z</time>
      </trkpt>
      <trkpt lat="45.13567" lon="4.52248">
        <ele>1142</ele>
        <time>2026-05-01T10:45:43Z</time>
      </trkpt>
      <trkpt lat="45.1357" lon="4.52257">
        <ele>1142.9</ele>
        <time>2026-05-01T10:45:48Z</time>
      </trkpt>
      <trkpt lat="45.13575" lon="4.52264">
        <ele>1143.7</ele>
        <time>2026-05-01T10:45:53Z</time>
      </trkpt>
      <trkpt lat="45.13579" lon="4.52273">
        <ele>1144.6</ele>
        <time>2026-05-01T10:45:58Z</time>
      </trkpt>
      <trkpt lat="45.13585" lon="4.52278">
        <ele>1145.3</ele>
        <time>2026-05-01T10:46:03Z</time>
      </trkpt>
      <trkpt lat="45.13589" lon="4.52285">
        <ele>1146.7</ele>
        <time>2026-05-01T10:46:08Z</time>
      </trkpt>
      <trkpt lat="45.13594" lon="4.52292">
        <ele>1148.1</ele>
        <time>2026-05-01T10:46:13Z</time>
      </trkpt>
      <trkpt lat="45.136" lon="4.52299">
        <ele>1149.5</ele>
        <time>2026-05-01T10:46:18Z</time>
      </trkpt>
      <trkpt lat="45.13606" lon="4.52304">
        <ele>1150.6</ele>
        <time>2026-05-01T10:46:23Z</time>
      </trkpt>
      <trkpt lat="45.13612" lon="4.52309">
        <ele>1151.6</ele>
        <time>2026-05-01T10:46:28Z</time>
      </trkpt>
      <trkpt lat="45.13618" lon="4.52315">
        <ele>1152.5</ele>
        <time>2026-05-01T10:46:33Z</time>
      </trkpt>
      <trkpt lat="45.13624" lon="4.5232">
        <ele>1153.2</ele>
        <time>2026-05-01T10:46:38Z</time>
      </trkpt>
      <trkpt lat="45.13629" lon="4.52326">
        <ele>1153.7</ele>
        <time>2026-05-01T10:46:43Z</time>
      </trkpt>
      <trkpt lat="45.13633" lon="4.52333">
        <ele>1154</ele>
        <time>2026-05-01T10:46:48Z</time>
      </trkpt>
      <trkpt lat="45.13636" lon="4.5234">
        <ele>1155.1</ele>
        <time>2026-05-01T10:46:53Z</time>
      </trkpt>
      <trkpt lat="45.13638" lon="4.52348">
        <ele>1156.4</ele>
        <time>2026-05-01T10:46:58Z</time>
      </trkpt>
      <trkpt lat="45.13639" lon="4.52358">
        <ele>1157.9</ele>
        <time>2026-05-01T10:47:03Z</time>
      </trkpt>
      <trkpt lat="45.1364" lon="4.52373">
        <ele>1160.1</ele>
        <time>2026-05-01T10:47:08Z</time>
      </trkpt>
      <trkpt lat="45.13641" lon="4.52382">
        <ele>1161.4</ele>
        <time>2026-05-01T10:47:13Z</time>
      </trkpt>
      <trkpt lat="45.13639" lon="4.52388">
        <ele>1162.2</ele>
        <time>2026-05-01T10:47:18Z</time>
      </trkpt>
      <trkpt lat="45.13635" lon="4.52394">
        <ele>1162.9</ele>
        <time>2026-05-01T10:47:23Z</time>
      </trkpt>
      <trkpt lat="45.13631" lon="4.52402">
        <ele>1164</ele>
        <time>2026-05-01T10:47:28Z</time>
      </trkpt>
      <trkpt lat="45.13627" lon="4.52406">
        <ele>1164.5</ele>
        <time>2026-05-01T10:47:33Z</time>
      </trkpt>
      <trkpt lat="45.13622" lon="4.52409">
        <ele>1164.8</ele>
        <time>2026-05-01T10:47:38Z</time>
      </trkpt>
      <trkpt lat="45.13616" lon="4.52412">
        <ele>1165.1</ele>
        <time>2026-05-01T10:47:43Z</time>
      </trkpt>
      <trkpt lat="45.13608" lon="4.52415">
        <ele>1165.3</ele>
        <time>2026-05-01T10:47:48Z</time>
      </trkpt>
      <trkpt lat="45.13603" lon="4.52415">
        <ele>1165.2</ele>
        <time>2026-05-01T10:47:53Z</time>
      </trkpt>
      <trkpt lat="45.13599" lon="4.52417">
        <ele>1165.4</ele>
        <time>2026-05-01T10:47:58Z</time>
      </trkpt>
      <trkpt lat="45.13589" lon="4.5242">
        <ele>1165.6</ele>
        <time>2026-05-01T10:48:03Z</time>
      </trkpt>
      <trkpt lat="45.13581" lon="4.5242">
        <ele>1165.8</ele>
        <time>2026-05-01T10:48:08Z</time>
      </trkpt>
      <trkpt lat="45.13573" lon="4.5242">
        <ele>1167.1</ele>
        <time>2026-05-01T10:48:13Z</time>
      </trkpt>
      <trkpt lat="45.13567" lon="4.52421">
        <ele>1168.1</ele>
        <time>2026-05-01T10:48:18Z</time>
      </trkpt>
      <trkpt lat="45.1356" lon="4.5242">
        <ele>1169.1</ele>
        <time>2026-05-01T10:48:23Z</time>
      </trkpt>
      <trkpt lat="45.13554" lon="4.5242">
        <ele>1170</ele>
        <time>2026-05-01T10:48:28Z</time>
      </trkpt>
      <trkpt lat="45.13548" lon="4.5242">
        <ele>1171</ele>
        <time>2026-05-01T10:48:33Z</time>
      </trkpt>
      <trkpt lat="45.13541" lon="4.52419">
        <ele>1171.9</ele>
        <time>2026-05-01T10:48:38Z</time>
      </trkpt>
      <trkpt lat="45.13536" lon="4.52418">
        <ele>1172.6</ele>
        <time>2026-05-01T10:48:43Z</time>
      </trkpt>
      <trkpt lat="45.1353" lon="4.52415">
        <ele>1173</ele>
        <time>2026-05-01T10:48:48Z</time>
      </trkpt>
      <trkpt lat="45.13525" lon="4.52415">
        <ele>1173.8</ele>
        <time>2026-05-01T10:48:53Z</time>
      </trkpt>
      <trkpt lat="45.13519" lon="4.52413">
        <ele>1174.3</ele>
        <time>2026-05-01T10:48:58Z</time>
      </trkpt>
      <trkpt lat="45.13513" lon="4.52412">
        <ele>1175</ele>
        <time>2026-05-01T10:49:03Z</time>
      </trkpt>
      <trkpt lat="45.13507" lon="4.52413">
        <ele>1176.2</ele>
        <time>2026-05-01T10:49:08Z</time>
      </trkpt>
      <trkpt lat="45.13502" lon="4.52411">
        <ele>1176.5</ele>
        <time>2026-05-01T10:49:13Z</time>
      </trkpt>
      <trkpt lat="45.13494" lon="4.52411">
        <ele>1177.5</ele>
        <time>2026-05-01T10:49:18Z</time>
      </trkpt>
      <trkpt lat="45.13486" lon="4.52405">
        <ele>1177.2</ele>
        <time>2026-05-01T10:49:23Z</time>
      </trkpt>
      <trkpt lat="45.13479" lon="4.52403">
        <ele>1177.6</ele>
        <time>2026-05-01T10:49:28Z</time>
      </trkpt>
      <trkpt lat="45.13473" lon="4.524">
        <ele>1177.7</ele>
        <time>2026-05-01T10:49:33Z</time>
      </trkpt>
      <trkpt lat="45.13466" lon="4.52397">
        <ele>1177.9</ele>
        <time>2026-05-01T10:49:38Z</time>
      </trkpt>
      <trkpt lat="45.13458" lon="4.52396">
        <ele>1178.7</ele>
        <time>2026-05-01T10:49:43Z</time>
      </trkpt>
      <trkpt lat="45.13452" lon="4.52397">
        <ele>1179.6</ele>
        <time>2026-05-01T10:49:48Z</time>
      </trkpt>
      <trkpt lat="45.13444" lon="4.52396">
        <ele>1180.3</ele>
        <time>2026-05-01T10:49:53Z</time>
      </trkpt>
      <trkpt lat="45.13438" lon="4.52396">
        <ele>1181</ele>
        <time>2026-05-01T10:49:58Z</time>
      </trkpt>
      <trkpt lat="45.13431" lon="4.52393">
        <ele>1181.3</ele>
        <time>2026-05-01T10:50:03Z</time>
      </trkpt>
      <trkpt lat="45.13423" lon="4.5239">
        <ele>1181.8</ele>
        <time>2026-05-01T10:50:08Z</time>
      </trkpt>
      <trkpt lat="45.13417" lon="4.52387">
        <ele>1182</ele>
        <time>2026-05-01T10:50:13Z</time>
      </trkpt>
      <trkpt lat="45.13412" lon="4.52381">
        <ele>1180.8</ele>
        <time>2026-05-01T10:50:18Z</time>
      </trkpt>
      <trkpt lat="45.13406" lon="4.52372">
        <ele>1179.1</ele>
        <time>2026-05-01T10:50:23Z</time>
      </trkpt>
      <trkpt lat="45.134" lon="4.52364">
        <ele>1177.5</ele>
        <time>2026-05-01T10:50:28Z</time>
      </trkpt>
      <trkpt lat="45.13395" lon="4.5236">
        <ele>1176.6</ele>
        <time>2026-05-01T10:50:33Z</time>
      </trkpt>
      <trkpt lat="45.13388" lon="4.52357">
        <ele>1175.8</ele>
        <time>2026-05-01T10:50:38Z</time>
      </trkpt>
      <trkpt lat="45.13382" lon="4.52353">
        <ele>1175</ele>
        <time>2026-05-01T10:50:43Z</time>
      </trkpt>
      <trkpt lat="45.13377" lon="4.52349">
        <ele>1174.1</ele>
        <time>2026-05-01T10:50:48Z</time>
      </trkpt>
      <trkpt lat="45.13371" lon="4.52346">
        <ele>1173.4</ele>
        <time>2026-05-01T10:50:53Z</time>
      </trkpt>
      <trkpt lat="45.13364" lon="4.52344">
        <ele>1172.8</ele>
        <time>2026-05-01T10:50:58Z</time>
      </trkpt>
      <trkpt lat="45.13357" lon="4.52341">
        <ele>1172.1</ele>
        <time>2026-05-01T10:51:03Z</time>
      </trkpt>
      <trkpt lat="45.13351" lon="4.52337">
        <ele>1171.2</ele>
        <time>2026-05-01T10:51:08Z</time>
      </trkpt>
      <trkpt lat="45.13344" lon="4.52335">
        <ele>1170.6</ele>
        <time>2026-05-01T10:51:13Z</time>
      </trkpt>
      <trkpt lat="45.13339" lon="4.52332">
        <ele>1170</ele>
        <time>2026-05-01T10:51:18Z</time>
      </trkpt>
      <trkpt lat="45.13332" lon="4.52333">
        <ele>1169.8</ele>
        <time>2026-05-01T10:51:23Z</time>
      </trkpt>
      <trkpt lat="45.13325" lon="4.5233">
        <ele>1168.8</ele>
        <time>2026-05-01T10:51:28Z</time>
      </trkpt>
      <trkpt lat="45.13319" lon="4.52329">
        <ele>1168.1</ele>
        <time>2026-05-01T10:51:33Z</time>
      </trkpt>
      <trkpt lat="45.13312" lon="4.52329">
        <ele>1167.5</ele>
        <time>2026-05-01T10:51:38Z</time>
      </trkpt>
      <trkpt lat="45.13306" lon="4.52327">
        <ele>1166.7</ele>
        <time>2026-05-01T10:51:43Z</time>
      </trkpt>
      <trkpt lat="45.13301" lon="4.52327">
        <ele>1166.3</ele>
        <time>2026-05-01T10:51:48Z</time>
      </trkpt>
      <trkpt lat="45.13294" lon="4.52328">
        <ele>1165.7</ele>
        <time>2026-05-01T10:51:53Z</time>
      </trkpt>
      <trkpt lat="45.13286" lon="4.52332">
        <ele>1165.3</ele>
        <time>2026-05-01T10:51:58Z</time>
      </trkpt>
      <trkpt lat="45.13279" lon="4.52334">
        <ele>1164.8</ele>
        <time>2026-05-01T10:52:03Z</time>
      </trkpt>
      <trkpt lat="45.13271" lon="4.52335">
        <ele>1164.1</ele>
        <time>2026-05-01T10:52:08Z</time>
      </trkpt>
      <trkpt lat="45.13266" lon="4.52336">
        <ele>1163.7</ele>
        <time>2026-05-01T10:52:13Z</time>
      </trkpt>
      <trkpt lat="45.13259" lon="4.52337">
        <ele>1163</ele>
        <time>2026-05-01T10:52:18Z</time>
      </trkpt>
      <trkpt lat="45.13253" lon="4.52339">
        <ele>1162.5</ele>
        <time>2026-05-01T10:52:23Z</time>
      </trkpt>
      <trkpt lat="45.13247" lon="4.52343">
        <ele>1161.1</ele>
        <time>2026-05-01T10:52:28Z</time>
      </trkpt>
      <trkpt lat="45.1324" lon="4.52346">
        <ele>1158.4</ele>
        <time>2026-05-01T10:52:33Z</time>
      </trkpt>
      <trkpt lat="45.13234" lon="4.5235">
        <ele>1156</ele>
        <time>2026-05-01T10:52:38Z</time>
      </trkpt>
      <trkpt lat="45.13227" lon="4.52356">
        <ele>1153.4</ele>
        <time>2026-05-01T10:52:43Z</time>
      </trkpt>
      <trkpt lat="45.13221" lon="4.52362">
        <ele>1151.1</ele>
        <time>2026-05-01T10:52:48Z</time>
      </trkpt>
      <trkpt lat="45.13215" lon="4.52366">
        <ele>1148.7</ele>
        <time>2026-05-01T10:52:53Z</time>
      </trkpt>
      <trkpt lat="45.1321" lon="4.52372">
        <ele>1146.8</ele>
        <time>2026-05-01T10:52:58Z</time>
      </trkpt>
      <trkpt lat="45.13207" lon="4.52381">
        <ele>1145.9</ele>
        <time>2026-05-01T10:53:03Z</time>
      </trkpt>
      <trkpt lat="45.13204" lon="4.52389">
        <ele>1144.9</ele>
        <time>2026-05-01T10:53:08Z</time>
      </trkpt>
      <trkpt lat="45.13201" lon="4.5239">
        <ele>1143.6</ele>
        <time>2026-05-01T10:53:13Z</time>
      </trkpt>
      <trkpt lat="45.13201" lon="4.52394">
        <ele>1143.8</ele>
        <time>2026-05-01T10:53:18Z</time>
      </trkpt>
      <trkpt lat="45.13201" lon="4.52399">
        <ele>1143.9</ele>
        <time>2026-05-01T10:53:23Z</time>
      </trkpt>
      <trkpt lat="45.13203" lon="4.52405">
        <ele>1144.9</ele>
        <time>2026-05-01T10:53:28Z</time>
      </trkpt>
      <trkpt lat="45.13205" lon="4.52409">
        <ele>1145.9</ele>
        <time>2026-05-01T10:53:33Z</time>
      </trkpt>
      <trkpt lat="45.13207" lon="4.52414">
        <ele>1146.9</ele>
        <time>2026-05-01T10:53:38Z</time>
      </trkpt>
      <trkpt lat="45.1321" lon="4.52419">
        <ele>1148.3</ele>
        <time>2026-05-01T10:53:43Z</time>
      </trkpt>
      <trkpt lat="45.13213" lon="4.52424">
        <ele>1149.8</ele>
        <time>2026-05-01T10:53:48Z</time>
      </trkpt>
      <trkpt lat="45.13215" lon="4.5243">
        <ele>1150.9</ele>
        <time>2026-05-01T10:53:53Z</time>
      </trkpt>
      <trkpt lat="45.13217" lon="4.52433">
        <ele>1151.9</ele>
        <time>2026-05-01T10:53:58Z</time>
      </trkpt>
      <trkpt lat="45.13218" lon="4.52442">
        <ele>1152.7</ele>
        <time>2026-05-01T10:54:03Z</time>
      </trkpt>
      <trkpt lat="45.1322" lon="4.5245">
        <ele>1153.9</ele>
        <time>2026-05-01T10:54:08Z</time>
      </trkpt>
      <trkpt lat="45.13221" lon="4.52455">
        <ele>1154.5</ele>
        <time>2026-05-01T10:54:13Z</time>
      </trkpt>
      <trkpt lat="45.13226" lon="4.52464">
        <ele>1157</ele>
        <time>2026-05-01T10:54:18Z</time>
      </trkpt>
      <trkpt lat="45.13229" lon="4.52472">
        <ele>1158.5</ele>
        <time>2026-05-01T10:54:23Z</time>
      </trkpt>
      <trkpt lat="45.1323" lon="4.5248">
        <ele>1159.2</ele>
        <time>2026-05-01T10:54:28Z</time>
      </trkpt>
      <trkpt lat="45.13233" lon="4.52487">
        <ele>1160.7</ele>
        <time>2026-05-01T10:54:33Z</time>
      </trkpt>
      <trkpt lat="45.13235" lon="4.52492">
        <ele>1161.7</ele>
        <time>2026-05-01T10:54:38Z</time>
      </trkpt>
      <trkpt lat="45.13238" lon="4.52499">
        <ele>1163.2</ele>
        <time>2026-05-01T10:54:43Z</time>
      </trkpt>
      <trkpt lat="45.1324" lon="4.52508">
        <ele>1164.5</ele>
        <time>2026-05-01T10:54:48Z</time>
      </trkpt>
      <trkpt lat="45.13241" lon="4.52514">
        <ele>1165.2</ele>
        <time>2026-05-01T10:54:53Z</time>
      </trkpt>
      <trkpt lat="45.13243" lon="4.52522">
        <ele>1166.4</ele>
        <time>2026-05-01T10:54:58Z</time>
      </trkpt>
      <trkpt lat="45.13244" lon="4.5253">
        <ele>1167.2</ele>
        <time>2026-05-01T10:55:03Z</time>
      </trkpt>
      <trkpt lat="45.13246" lon="4.52536">
        <ele>1168.3</ele>
        <time>2026-05-01T10:55:08Z</time>
      </trkpt>
      <trkpt lat="45.13248" lon="4.52543">
        <ele>1169.3</ele>
        <time>2026-05-01T10:55:13Z</time>
      </trkpt>
      <trkpt lat="45.13252" lon="4.52551">
        <ele>1170.8</ele>
        <time>2026-05-01T10:55:18Z</time>
      </trkpt>
      <trkpt lat="45.13255" lon="4.5256">
        <ele>1171.8</ele>
        <time>2026-05-01T10:55:23Z</time>
      </trkpt>
      <trkpt lat="45.13258" lon="4.52567">
        <ele>1172.7</ele>
        <time>2026-05-01T10:55:28Z</time>
      </trkpt>
      <trkpt lat="45.1326" lon="4.52574">
        <ele>1173.3</ele>
        <time>2026-05-01T10:55:33Z</time>
      </trkpt>
      <trkpt lat="45.13264" lon="4.52581">
        <ele>1174.3</ele>
        <time>2026-05-01T10:55:38Z</time>
      </trkpt>
      <trkpt lat="45.13267" lon="4.5259">
        <ele>1175.5</ele>
        <time>2026-05-01T10:55:43Z</time>
      </trkpt>
      <trkpt lat="45.13271" lon="4.52598">
        <ele>1176.9</ele>
        <time>2026-05-01T10:55:48Z</time>
      </trkpt>
      <trkpt lat="45.13273" lon="4.52605">
        <ele>1177.9</ele>
        <time>2026-05-01T10:55:53Z</time>
      </trkpt>
      <trkpt lat="45.13275" lon="4.52613">
        <ele>1179</ele>
        <time>2026-05-01T10:55:58Z</time>
      </trkpt>
      <trkpt lat="45.13276" lon="4.52623">
        <ele>1180.2</ele>
        <time>2026-05-01T10:56:03Z</time>
      </trkpt>
      <trkpt lat="45.13272" lon="4.5263">
        <ele>1180.2</ele>
        <time>2026-05-01T10:56:08Z</time>
      </trkpt>
      <trkpt lat="45.13267" lon="4.52637">
        <ele>1180</ele>
        <time>2026-05-01T10:56:13Z</time>
      </trkpt>
      <trkpt lat="45.13265" lon="4.52649">
        <ele>1180.8</ele>
        <time>2026-05-01T10:56:18Z</time>
      </trkpt>
      <trkpt lat="45.13263" lon="4.52656">
        <ele>1181.2</ele>
        <time>2026-05-01T10:56:23Z</time>
      </trkpt>
      <trkpt lat="45.13261" lon="4.52659">
        <ele>1181.1</ele>
        <time>2026-05-01T10:56:28Z</time>
      </trkpt>
      <trkpt lat="45.13256" lon="4.52661">
        <ele>1180.5</ele>
        <time>2026-05-01T10:56:33Z</time>
      </trkpt>
      <trkpt lat="45.13252" lon="4.52659">
        <ele>1179.6</ele>
        <time>2026-05-01T10:56:38Z</time>
      </trkpt>
      <trkpt lat="45.13246" lon="4.52659">
        <ele>1178.1</ele>
        <time>2026-05-01T10:56:43Z</time>
      </trkpt>
      <trkpt lat="45.13238" lon="4.5266">
        <ele>1175.7</ele>
        <time>2026-05-01T10:56:48Z</time>
      </trkpt>
      <trkpt lat="45.13232" lon="4.52661">
        <ele>1174</ele>
        <time>2026-05-01T10:56:53Z</time>
      </trkpt>
      <trkpt lat="45.13226" lon="4.52662">
        <ele>1172.3</ele>
        <time>2026-05-01T10:56:58Z</time>
      </trkpt>
      <trkpt lat="45.13218" lon="4.52666">
        <ele>1170.3</ele>
        <time>2026-05-01T10:57:03Z</time>
      </trkpt>
      <trkpt lat="45.1321" lon="4.52669">
        <ele>1168.3</ele>
        <time>2026-05-01T10:57:08Z</time>
      </trkpt>
      <trkpt lat="45.13203" lon="4.52674">
        <ele>1167</ele>
        <time>2026-05-01T10:57:13Z</time>
      </trkpt>
      <trkpt lat="45.13197" lon="4.52681">
        <ele>1166.4</ele>
        <time>2026-05-01T10:57:18Z</time>
      </trkpt>
      <trkpt lat="45.13192" lon="4.52687">
        <ele>1165.9</ele>
        <time>2026-05-01T10:57:23Z</time>
      </trkpt>
      <trkpt lat="45.13187" lon="4.52694">
        <ele>1165.7</ele>
        <time>2026-05-01T10:57:28Z</time>
      </trkpt>
      <trkpt lat="45.13182" lon="4.52702">
        <ele>1165.8</ele>
        <time>2026-05-01T10:57:33Z</time>
      </trkpt>
      <trkpt lat="45.13178" lon="4.52711">
        <ele>1166.3</ele>
        <time>2026-05-01T10:57:38Z</time>
      </trkpt>
      <trkpt lat="45.13175" lon="4.52719">
        <ele>1167</ele>
        <time>2026-05-01T10:57:43Z</time>
      </trkpt>
      <trkpt lat="45.13171" lon="4.52726">
        <ele>1167.4</ele>
        <time>2026-05-01T10:57:48Z</time>
      </trkpt>
      <trkpt lat="45.13167" lon="4.52736">
        <ele>1168.4</ele>
        <time>2026-05-01T10:57:53Z</time>
      </trkpt>
      <trkpt lat="45.13162" lon="4.52746">
        <ele>1170.1</ele>
        <time>2026-05-01T10:57:58Z</time>
      </trkpt>
      <trkpt lat="45.13159" lon="4.52754">
        <ele>1171.4</ele>
        <time>2026-05-01T10:58:03Z</time>
      </trkpt>
      <trkpt lat="45.13155" lon="4.52763">
        <ele>1172.8</ele>
        <time>2026-05-01T10:58:08Z</time>
      </trkpt>
      <trkpt lat="45.13152" lon="4.52772">
        <ele>1174.2</ele>
        <time>2026-05-01T10:58:13Z</time>
      </trkpt>
      <trkpt lat="45.13153" lon="4.52778">
        <ele>1175.3</ele>
        <time>2026-05-01T10:58:18Z</time>
      </trkpt>
      <trkpt lat="45.13152" lon="4.5278">
        <ele>1175.6</ele>
        <time>2026-05-01T10:58:23Z</time>
      </trkpt>
      <trkpt lat="45.13152" lon="4.5278">
        <ele>1175.6</ele>
        <time>2026-05-01T10:58:28Z</time>
      </trkpt>
      <trkpt lat="45.13152" lon="4.5278">
        <ele>1175.6</ele>
        <time>2026-05-01T10:58:33Z</time>
      </trkpt>
      <trkpt lat="45.13152" lon="4.52785">
        <ele>1176.4</ele>
        <time>2026-05-01T10:58:38Z</time>
      </trkpt>
      <trkpt lat="45.13153" lon="4.52793">
        <ele>1177.8</ele>
        <time>2026-05-01T10:58:43Z</time>
      </trkpt>
      <trkpt lat="45.13153" lon="4.528">
        <ele>1179</ele>
        <time>2026-05-01T10:58:48Z</time>
      </trkpt>
      <trkpt lat="45.13154" lon="4.52808">
        <ele>1180.3</ele>
        <time>2026-05-01T10:58:53Z</time>
      </trkpt>
      <trkpt lat="45.13152" lon="4.52815">
        <ele>1181.6</ele>
        <time>2026-05-01T10:58:58Z</time>
      </trkpt>
      <trkpt lat="45.13147" lon="4.52824">
        <ele>1183.3</ele>
        <time>2026-05-01T10:59:03Z</time>
      </trkpt>
      <trkpt lat="45.13142" lon="4.52834">
        <ele>1185.3</ele>
        <time>2026-05-01T10:59:08Z</time>
      </trkpt>
      <trkpt lat="45.13138" lon="4.52842">
        <ele>1186.7</ele>
        <time>2026-05-01T10:59:13Z</time>
      </trkpt>
      <trkpt lat="45.13134" lon="4.52849">
        <ele>1188</ele>
        <time>2026-05-01T10:59:18Z</time>
      </trkpt>
      <trkpt lat="45.13132" lon="4.52856">
        <ele>1189.2</ele>
        <time>2026-05-01T10:59:23Z</time>
      </trkpt>
      <trkpt lat="45.13133" lon="4.52861">
        <ele>1189.9</ele>
        <time>2026-05-01T10:59:28Z</time>
      </trkpt>
      <trkpt lat="45.13132" lon="4.52861">
        <ele>1190</ele>
        <time>2026-05-01T10:59:33Z</time>
      </trkpt>
      <trkpt lat="45.13132" lon="4.52861">
        <ele>1190</ele>
        <time>2026-05-01T10:59:38Z</time>
      </trkpt>
      <trkpt lat="45.1313" lon="4.52863">
        <ele>1190.4</ele>
        <time>2026-05-01T10:59:43Z</time>
      </trkpt>
      <trkpt lat="45.13129" lon="4.52867">
        <ele>1191.1</ele>
        <time>2026-05-01T10:59:48Z</time>
      </trkpt>
      <trkpt lat="45.13126" lon="4.52872">
        <ele>1192</ele>
        <time>2026-05-01T10:59:53Z</time>
      </trkpt>
      <trkpt lat="45.13125" lon="4.52882">
        <ele>1193.6</ele>
        <time>2026-05-01T10:59:58Z</time>
      </trkpt>
      <trkpt lat="45.13125" lon="4.52891">
        <ele>1195</ele>
        <time>2026-05-01T11:00:03Z</time>
      </trkpt>
      <trkpt lat="45.13122" lon="4.52898">
        <ele>1196.2</ele>
        <time>2026-05-01T11:00:08Z</time>
      </trkpt>
      <trkpt lat="45.13119" lon="4.52904">
        <ele>1197.3</ele>
        <time>2026-05-01T11:00:13Z</time>
      </trkpt>
      <trkpt lat="45.13118" lon="4.52913">
        <ele>1198.8</ele>
        <time>2026-05-01T11:00:18Z</time>
      </trkpt>
      <trkpt lat="45.13117" lon="4.52919">
        <ele>1199.5</ele>
        <time>2026-05-01T11:00:23Z</time>
      </trkpt>
      <trkpt lat="45.13116" lon="4.52925">
        <ele>1199.9</ele>
        <time>2026-05-01T11:00:28Z</time>
      </trkpt>
      <trkpt lat="45.13114" lon="4.52931">
        <ele>1200.4</ele>
        <time>2026-05-01T11:00:33Z</time>
      </trkpt>
      <trkpt lat="45.13113" lon="4.52938">
        <ele>1200.9</ele>
        <time>2026-05-01T11:00:38Z</time>
      </trkpt>
      <trkpt lat="45.13111" lon="4.52944">
        <ele>1201.3</ele>
        <time>2026-05-01T11:00:43Z</time>
      </trkpt>
      <trkpt lat="45.13109" lon="4.52948">
        <ele>1201.6</ele>
        <time>2026-05-01T11:00:48Z</time>
      </trkpt>
      <trkpt lat="45.13109" lon="4.52953">
        <ele>1201.9</ele>
        <time>2026-05-01T11:00:53Z</time>
      </trkpt>
      <trkpt lat="45.13108" lon="4.52958">
        <ele>1202.3</ele>
        <time>2026-05-01T11:00:58Z</time>
      </trkpt>
      <trkpt lat="45.13107" lon="4.52964">
        <ele>1202.7</ele>
        <time>2026-05-01T11:01:03Z</time>
      </trkpt>
      <trkpt lat="45.13105" lon="4.52969">
        <ele>1203.1</ele>
        <time>2026-05-01T11:01:08Z</time>
      </trkpt>
      <trkpt lat="45.13104" lon="4.52975">
        <ele>1203.5</ele>
        <time>2026-05-01T11:01:13Z</time>
      </trkpt>
      <trkpt lat="45.13102" lon="4.5298">
        <ele>1203.9</ele>
        <time>2026-05-01T11:01:18Z</time>
      </trkpt>
      <trkpt lat="45.13101" lon="4.52983">
        <ele>1204.1</ele>
        <time>2026-05-01T11:01:23Z</time>
      </trkpt>
      <trkpt lat="45.13099" lon="4.52989">
        <ele>1204.6</ele>
        <time>2026-05-01T11:01:28Z</time>
      </trkpt>
      <trkpt lat="45.13098" lon="4.52994">
        <ele>1204.9</ele>
        <time>2026-05-01T11:01:33Z</time>
      </trkpt>
      <trkpt lat="45.13099" lon="4.52997">
        <ele>1205.1</ele>
        <time>2026-05-01T11:01:38Z</time>
      </trkpt>
      <trkpt lat="45.13099" lon="4.52998">
        <ele>1205.1</ele>
        <time>2026-05-01T11:01:43Z</time>
      </trkpt>
      <trkpt lat="45.13099" lon="4.52998">
        <ele>1205.1</ele>
        <time>2026-05-01T11:01:48Z</time>
      </trkpt>
      <trkpt lat="45.13095" lon="4.53009">
        <ele>1205.7</ele>
        <time>2026-05-01T11:01:53Z</time>
      </trkpt>
      <trkpt lat="45.13093" lon="4.53017">
        <ele>1206.1</ele>
        <time>2026-05-01T11:01:58Z</time>
      </trkpt>
      <trkpt lat="45.13092" lon="4.53022">
        <ele>1206.3</ele>
        <time>2026-05-01T11:02:03Z</time>
      </trkpt>
      <trkpt lat="45.13092" lon="4.53026">
        <ele>1206.5</ele>
        <time>2026-05-01T11:02:08Z</time>
      </trkpt>
      <trkpt lat="45.13091" lon="4.53032">
        <ele>1206.7</ele>
        <time>2026-05-01T11:02:13Z</time>
      </trkpt>
      <trkpt lat="45.13091" lon="4.53039">
        <ele>1207</ele>
        <time>2026-05-01T11:02:18Z</time>
      </trkpt>
      <trkpt lat="45.13091" lon="4.53046">
        <ele>1207.2</ele>
        <time>2026-05-01T11:02:23Z</time>
      </trkpt>
      <trkpt lat="45.1309" lon="4.53053">
        <ele>1207.5</ele>
        <time>2026-05-01T11:02:28Z</time>
      </trkpt>
      <trkpt lat="45.13089" lon="4.53058">
        <ele>1207.8</ele>
        <time>2026-05-01T11:02:33Z</time>
      </trkpt>
      <trkpt lat="45.13089" lon="4.53066">
        <ele>1208.1</ele>
        <time>2026-05-01T11:02:38Z</time>
      </trkpt>
      <trkpt lat="45.13088" lon="4.53074">
        <ele>1208.4</ele>
        <time>2026-05-01T11:02:43Z</time>
      </trkpt>
      <trkpt lat="45.13087" lon="4.53083">
        <ele>1208.8</ele>
        <time>2026-05-01T11:02:48Z</time>
      </trkpt>
      <trkpt lat="45.13084" lon="4.53093">
        <ele>1208.3</ele>
        <time>2026-05-01T11:02:53Z</time>
      </trkpt>
      <trkpt lat="45.13083" lon="4.53104">
        <ele>1207.5</ele>
        <time>2026-05-01T11:02:58Z</time>
      </trkpt>
      <trkpt lat="45.13082" lon="4.53113">
        <ele>1206.6</ele>
        <time>2026-05-01T11:03:03Z</time>
      </trkpt>
      <trkpt lat="45.13081" lon="4.53122">
        <ele>1205.8</ele>
        <time>2026-05-01T11:03:08Z</time>
      </trkpt>
      <trkpt lat="45.1308" lon="4.53131">
        <ele>1205</ele>
        <time>2026-05-01T11:03:13Z</time>
      </trkpt>
      <trkpt lat="45.13078" lon="4.53139">
        <ele>1204</ele>
        <time>2026-05-01T11:03:18Z</time>
      </trkpt>
      <trkpt lat="45.1308" lon="4.5315">
        <ele>1203.6</ele>
        <time>2026-05-01T11:03:23Z</time>
      </trkpt>
      <trkpt lat="45.1308" lon="4.5316">
        <ele>1202.8</ele>
        <time>2026-05-01T11:03:28Z</time>
      </trkpt>
      <trkpt lat="45.13079" lon="4.53171">
        <ele>1201.7</ele>
        <time>2026-05-01T11:03:33Z</time>
      </trkpt>
      <trkpt lat="45.13078" lon="4.53182">
        <ele>1200.2</ele>
        <time>2026-05-01T11:03:38Z</time>
      </trkpt>
      <trkpt lat="45.13078" lon="4.53191">
        <ele>1199.1</ele>
        <time>2026-05-01T11:03:43Z</time>
      </trkpt>
      <trkpt lat="45.13078" lon="4.53201">
        <ele>1198</ele>
        <time>2026-05-01T11:03:48Z</time>
      </trkpt>
      <trkpt lat="45.13079" lon="4.53209">
        <ele>1197.2</ele>
        <time>2026-05-01T11:03:53Z</time>
      </trkpt>
      <trkpt lat="45.13079" lon="4.53218">
        <ele>1196.2</ele>
        <time>2026-05-01T11:03:58Z</time>
      </trkpt>
      <trkpt lat="45.13077" lon="4.53228">
        <ele>1194.7</ele>
        <time>2026-05-01T11:04:03Z</time>
      </trkpt>
      <trkpt lat="45.13079" lon="4.53238">
        <ele>1193.8</ele>
        <time>2026-05-01T11:04:08Z</time>
      </trkpt>
      <trkpt lat="45.13081" lon="4.53247">
        <ele>1193</ele>
        <time>2026-05-01T11:04:13Z</time>
      </trkpt>
      <trkpt lat="45.13082" lon="4.53257">
        <ele>1192.2</ele>
        <time>2026-05-01T11:04:18Z</time>
      </trkpt>
      <trkpt lat="45.13083" lon="4.53266">
        <ele>1191.4</ele>
        <time>2026-05-01T11:04:23Z</time>
      </trkpt>
      <trkpt lat="45.13082" lon="4.53275">
        <ele>1190.4</ele>
        <time>2026-05-01T11:04:28Z</time>
      </trkpt>
      <trkpt lat="45.13082" lon="4.53284">
        <ele>1189.6</ele>
        <time>2026-05-01T11:04:33Z</time>
      </trkpt>
      <trkpt lat="45.13082" lon="4.53292">
        <ele>1188.8</ele>
        <time>2026-05-01T11:04:38Z</time>
      </trkpt>
      <trkpt lat="45.13083" lon="4.53298">
        <ele>1188.4</ele>
        <time>2026-05-01T11:04:43Z</time>
      </trkpt>
      <trkpt lat="45.13083" lon="4.53307">
        <ele>1187.5</ele>
        <time>2026-05-01T11:04:48Z</time>
      </trkpt>
      <trkpt lat="45.13083" lon="4.53315">
        <ele>1186.7</ele>
        <time>2026-05-01T11:04:53Z</time>
      </trkpt>
      <trkpt lat="45.13083" lon="4.53325">
        <ele>1185.8</ele>
        <time>2026-05-01T11:04:58Z</time>
      </trkpt>
      <trkpt lat="45.13082" lon="4.53336">
        <ele>1184.7</ele>
        <time>2026-05-01T11:05:03Z</time>
      </trkpt>
      <trkpt lat="45.13082" lon="4.53345">
        <ele>1184.3</ele>
        <time>2026-05-01T11:05:08Z</time>
      </trkpt>
      <trkpt lat="45.13082" lon="4.53355">
        <ele>1183.8</ele>
        <time>2026-05-01T11:05:13Z</time>
      </trkpt>
      <trkpt lat="45.13081" lon="4.53366">
        <ele>1183.1</ele>
        <time>2026-05-01T11:05:18Z</time>
      </trkpt>
      <trkpt lat="45.13081" lon="4.53377">
        <ele>1182.6</ele>
        <time>2026-05-01T11:05:23Z</time>
      </trkpt>
      <trkpt lat="45.13079" lon="4.53386">
        <ele>1181.9</ele>
        <time>2026-05-01T11:05:28Z</time>
      </trkpt>
      <trkpt lat="45.13078" lon="4.53397">
        <ele>1181.2</ele>
        <time>2026-05-01T11:05:33Z</time>
      </trkpt>
      <trkpt lat="45.13074" lon="4.53406">
        <ele>1180.2</ele>
        <time>2026-05-01T11:05:38Z</time>
      </trkpt>
      <trkpt lat="45.13068" lon="4.53417">
        <ele>1178.8</ele>
        <time>2026-05-01T11:05:43Z</time>
      </trkpt>
      <trkpt lat="45.13061" lon="4.53425">
        <ele>1177.7</ele>
        <time>2026-05-01T11:05:48Z</time>
      </trkpt>
      <trkpt lat="45.13056" lon="4.53432">
        <ele>1176.9</ele>
        <time>2026-05-01T11:05:53Z</time>
      </trkpt>
      <trkpt lat="45.13049" lon="4.5344">
        <ele>1176</ele>
        <time>2026-05-01T11:05:58Z</time>
      </trkpt>
      <trkpt lat="45.13043" lon="4.53446">
        <ele>1175.2</ele>
        <time>2026-05-01T11:06:03Z</time>
      </trkpt>
      <trkpt lat="45.13037" lon="4.53453">
        <ele>1174.4</ele>
        <time>2026-05-01T11:06:08Z</time>
      </trkpt>
      <trkpt lat="45.1303" lon="4.53459">
        <ele>1173.6</ele>
        <time>2026-05-01T11:06:13Z</time>
      </trkpt>
      <trkpt lat="45.13025" lon="4.53464">
        <ele>1173.1</ele>
        <time>2026-05-01T11:06:18Z</time>
      </trkpt>
      <trkpt lat="45.13021" lon="4.53469">
        <ele>1172.6</ele>
        <time>2026-05-01T11:06:23Z</time>
      </trkpt>
      <trkpt lat="45.13018" lon="4.53474">
        <ele>1172.4</ele>
        <time>2026-05-01T11:06:28Z</time>
      </trkpt>
      <trkpt lat="45.13015" lon="4.53479">
        <ele>1172.1</ele>
        <time>2026-05-01T11:06:33Z</time>
      </trkpt>
      <trkpt lat="45.1301" lon="4.53484">
        <ele>1171.7</ele>
        <time>2026-05-01T11:06:38Z</time>
      </trkpt>
      <trkpt lat="45.13002" lon="4.5349">
        <ele>1171</ele>
        <time>2026-05-01T11:06:43Z</time>
      </trkpt>
      <trkpt lat="45.12997" lon="4.53495">
        <ele>1170.4</ele>
        <time>2026-05-01T11:06:48Z</time>
      </trkpt>
      <trkpt lat="45.12989" lon="4.53501">
        <ele>1169.5</ele>
        <time>2026-05-01T11:06:53Z</time>
      </trkpt>
      <trkpt lat="45.12983" lon="4.53507">
        <ele>1169</ele>
        <time>2026-05-01T11:06:58Z</time>
      </trkpt>
      <trkpt lat="45.12978" lon="4.53513">
        <ele>1168.6</ele>
        <time>2026-05-01T11:07:03Z</time>
      </trkpt>
      <trkpt lat="45.12973" lon="4.5352">
        <ele>1168.3</ele>
        <time>2026-05-01T11:07:08Z</time>
      </trkpt>
      <trkpt lat="45.12972" lon="4.53526">
        <ele>1168.5</ele>
        <time>2026-05-01T11:07:13Z</time>
      </trkpt>
      <trkpt lat="45.12973" lon="4.53529">
        <ele>1168.9</ele>
        <time>2026-05-01T11:07:18Z</time>
      </trkpt>
      <trkpt lat="45.12968" lon="4.5353">
        <ele>1168.2</ele>
        <time>2026-05-01T11:07:23Z</time>
      </trkpt>
      <trkpt lat="45.12961" lon="4.53533">
        <ele>1167.4</ele>
        <time>2026-05-01T11:07:28Z</time>
      </trkpt>
      <trkpt lat="45.12955" lon="4.53535">
        <ele>1166.6</ele>
        <time>2026-05-01T11:07:33Z</time>
      </trkpt>
      <trkpt lat="45.1295" lon="4.53535">
        <ele>1165.9</ele>
        <time>2026-05-01T11:07:38Z</time>
      </trkpt>
      <trkpt lat="45.12945" lon="4.53535">
        <ele>1165.2</ele>
        <time>2026-05-01T11:07:43Z</time>
      </trkpt>
      <trkpt lat="45.12939" lon="4.53537">
        <ele>1164.4</ele>
        <time>2026-05-01T11:07:48Z</time>
      </trkpt>
      <trkpt lat="45.12932" lon="4.53537">
        <ele>1163.4</ele>
        <time>2026-05-01T11:07:53Z</time>
      </trkpt>
      <trkpt lat="45.12924" lon="4.53538">
        <ele>1162.3</ele>
        <time>2026-05-01T11:07:58Z</time>
      </trkpt>
      <trkpt lat="45.12916" lon="4.53542">
        <ele>1161.4</ele>
        <time>2026-05-01T11:08:03Z</time>
      </trkpt>
      <trkpt lat="45.12909" lon="4.53543">
        <ele>1160.3</ele>
        <time>2026-05-01T11:08:08Z</time>
      </trkpt>
      <trkpt lat="45.12902" lon="4.53542">
        <ele>1159.1</ele>
        <time>2026-05-01T11:08:13Z</time>
      </trkpt>
      <trkpt lat="45.12897" lon="4.53542">
        <ele>1158.2</ele>
        <time>2026-05-01T11:08:18Z</time>
      </trkpt>
      <trkpt lat="45.12893" lon="4.53545">
        <ele>1157.7</ele>
        <time>2026-05-01T11:08:23Z</time>
      </trkpt>
      <trkpt lat="45.1289" lon="4.53543">
        <ele>1157.1</ele>
        <time>2026-05-01T11:08:28Z</time>
      </trkpt>
      <trkpt lat="45.1289" lon="4.53542">
        <ele>1157</ele>
        <time>2026-05-01T11:08:33Z</time>
      </trkpt>
      <trkpt lat="45.12889" lon="4.53545">
        <ele>1157</ele>
        <time>2026-05-01T11:08:38Z</time>
      </trkpt>
      <trkpt lat="45.12889" lon="4.53549">
        <ele>1157.2</ele>
        <time>2026-05-01T11:08:43Z</time>
      </trkpt>
      <trkpt lat="45.12887" lon="4.53553">
        <ele>1157.1</ele>
        <time>2026-05-01T11:08:48Z</time>
      </trkpt>
      <trkpt lat="45.12882" lon="4.53558">
        <ele>1156.5</ele>
        <time>2026-05-01T11:08:53Z</time>
      </trkpt>
      <trkpt lat="45.12875" lon="4.53563">
        <ele>1155.5</ele>
        <time>2026-05-01T11:08:58Z</time>
      </trkpt>
      <trkpt lat="45.12867" lon="4.53567">
        <ele>1154.3</ele>
        <time>2026-05-01T11:09:03Z</time>
      </trkpt>
      <trkpt lat="45.12864" lon="4.53569">
        <ele>1153.9</ele>
        <time>2026-05-01T11:09:08Z</time>
      </trkpt>
      <trkpt lat="45.12862" lon="4.53571">
        <ele>1153.6</ele>
        <time>2026-05-01T11:09:13Z</time>
      </trkpt>
      <trkpt lat="45.12858" lon="4.53575">
        <ele>1153.1</ele>
        <time>2026-05-01T11:09:18Z</time>
      </trkpt>
      <trkpt lat="45.12852" lon="4.53578">
        <ele>1152.1</ele>
        <time>2026-05-01T11:09:23Z</time>
      </trkpt>
      <trkpt lat="45.12847" lon="4.53583">
        <ele>1151.4</ele>
        <time>2026-05-01T11:09:28Z</time>
      </trkpt>
      <trkpt lat="45.1284" lon="4.53584">
        <ele>1150.3</ele>
        <time>2026-05-01T11:09:33Z</time>
      </trkpt>
      <trkpt lat="45.12832" lon="4.53585">
        <ele>1149</ele>
        <time>2026-05-01T11:09:38Z</time>
      </trkpt>
      <trkpt lat="45.12822" lon="4.53582">
        <ele>1147.4</ele>
        <time>2026-05-01T11:09:43Z</time>
      </trkpt>
      <trkpt lat="45.12812" lon="4.53583">
        <ele>1146.2</ele>
        <time>2026-05-01T11:09:48Z</time>
      </trkpt>
      <trkpt lat="45.12808" lon="4.53588">
        <ele>1146</ele>
        <time>2026-05-01T11:09:53Z</time>
      </trkpt>
      <trkpt lat="45.12802" lon="4.53594">
        <ele>1145.7</ele>
        <time>2026-05-01T11:09:58Z</time>
      </trkpt>
      <trkpt lat="45.12797" lon="4.53599">
        <ele>1145.4</ele>
        <time>2026-05-01T11:10:03Z</time>
      </trkpt>
      <trkpt lat="45.12791" lon="4.53602">
        <ele>1144.7</ele>
        <time>2026-05-01T11:10:08Z</time>
      </trkpt>
      <trkpt lat="45.12785" lon="4.53604">
        <ele>1144</ele>
        <time>2026-05-01T11:10:13Z</time>
      </trkpt>
      <trkpt lat="45.1278" lon="4.53604">
        <ele>1143.3</ele>
        <time>2026-05-01T11:10:18Z</time>
      </trkpt>
      <trkpt lat="45.12774" lon="4.53603">
        <ele>1142.4</ele>
        <time>2026-05-01T11:10:23Z</time>
      </trkpt>
      <trkpt lat="45.12769" lon="4.53602">
        <ele>1141.6</ele>
        <time>2026-05-01T11:10:28Z</time>
      </trkpt>
      <trkpt lat="45.12762" lon="4.53604">
        <ele>1140.7</ele>
        <time>2026-05-01T11:10:33Z</time>
      </trkpt>
      <trkpt lat="45.12756" lon="4.53608">
        <ele>1140.1</ele>
        <time>2026-05-01T11:10:38Z</time>
      </trkpt>
      <trkpt lat="45.12752" lon="4.53612">
        <ele>1139.7</ele>
        <time>2026-05-01T11:10:43Z</time>
      </trkpt>
      <trkpt lat="45.12747" lon="4.53614">
        <ele>1138.9</ele>
        <time>2026-05-01T11:10:48Z</time>
      </trkpt>
      <trkpt lat="45.12741" lon="4.53616">
        <ele>1137.8</ele>
        <time>2026-05-01T11:10:53Z</time>
      </trkpt>
      <trkpt lat="45.12735" lon="4.53618">
        <ele>1136.7</ele>
        <time>2026-05-01T11:10:58Z</time>
      </trkpt>
      <trkpt lat="45.12728" lon="4.53621">
        <ele>1135.4</ele>
        <time>2026-05-01T11:11:03Z</time>
      </trkpt>
      <trkpt lat="45.12721" lon="4.53621">
        <ele>1134</ele>
        <time>2026-05-01T11:11:08Z</time>
      </trkpt>
      <trkpt lat="45.12713" lon="4.53617">
        <ele>1132.2</ele>
        <time>2026-05-01T11:11:13Z</time>
      </trkpt>
      <trkpt lat="45.12706" lon="4.53617">
        <ele>1130.8</ele>
        <time>2026-05-01T11:11:18Z</time>
      </trkpt>
      <trkpt lat="45.12697" lon="4.53615">
        <ele>1129</ele>
        <time>2026-05-01T11:11:23Z</time>
      </trkpt>
      <trkpt lat="45.1269" lon="4.53613">
        <ele>1127.6</ele>
        <time>2026-05-01T11:11:28Z</time>
      </trkpt>
      <trkpt lat="45.12685" lon="4.53613">
        <ele>1126.6</ele>
        <time>2026-05-01T11:11:33Z</time>
      </trkpt>
      <trkpt lat="45.12681" lon="4.53612">
        <ele>1125.8</ele>
        <time>2026-05-01T11:11:38Z</time>
      </trkpt>
      <trkpt lat="45.12679" lon="4.53612">
        <ele>1125.4</ele>
        <time>2026-05-01T11:11:43Z</time>
      </trkpt>
      <trkpt lat="45.12679" lon="4.53612">
        <ele>1125.4</ele>
        <time>2026-05-01T11:11:48Z</time>
      </trkpt>
      <trkpt lat="45.12676" lon="4.53615">
        <ele>1124.9</ele>
        <time>2026-05-01T11:11:53Z</time>
      </trkpt>
      <trkpt lat="45.1267" lon="4.53617">
        <ele>1123.7</ele>
        <time>2026-05-01T11:11:58Z</time>
      </trkpt>
      <trkpt lat="45.12665" lon="4.53617">
        <ele>1122.8</ele>
        <time>2026-05-01T11:12:03Z</time>
      </trkpt>
      <trkpt lat="45.12659" lon="4.53618">
        <ele>1122</ele>
        <time>2026-05-01T11:12:08Z</time>
      </trkpt>
      <trkpt lat="45.12652" lon="4.53618">
        <ele>1121.1</ele>
        <time>2026-05-01T11:12:13Z</time>
      </trkpt>
      <trkpt lat="45.12646" lon="4.53617">
        <ele>1120.3</ele>
        <time>2026-05-01T11:12:18Z</time>
      </trkpt>
      <trkpt lat="45.12639" lon="4.53618">
        <ele>1119.3</ele>
        <time>2026-05-01T11:12:23Z</time>
      </trkpt>
      <trkpt lat="45.12631" lon="4.53618">
        <ele>1118.3</ele>
        <time>2026-05-01T11:12:28Z</time>
      </trkpt>
      <trkpt lat="45.12624" lon="4.53618">
        <ele>1117.4</ele>
        <time>2026-05-01T11:12:33Z</time>
      </trkpt>
      <trkpt lat="45.12618" lon="4.53619">
        <ele>1116.6</ele>
        <time>2026-05-01T11:12:38Z</time>
      </trkpt>
      <trkpt lat="45.1261" lon="4.53619">
        <ele>1115.5</ele>
        <time>2026-05-01T11:12:43Z</time>
      </trkpt>
      <trkpt lat="45.12601" lon="4.5362">
        <ele>1114.3</ele>
        <time>2026-05-01T11:12:48Z</time>
      </trkpt>
      <trkpt lat="45.12594" lon="4.53618">
        <ele>1113.4</ele>
        <time>2026-05-01T11:12:53Z</time>
      </trkpt>
      <trkpt lat="45.12587" lon="4.53618">
        <ele>1112.5</ele>
        <time>2026-05-01T11:12:58Z</time>
      </trkpt>
      <trkpt lat="45.12579" lon="4.5362">
        <ele>1111.6</ele>
        <time>2026-05-01T11:13:03Z</time>
      </trkpt>
      <trkpt lat="45.12571" lon="4.53621">
        <ele>1110.9</ele>
        <time>2026-05-01T11:13:08Z</time>
      </trkpt>
      <trkpt lat="45.12563" lon="4.53619">
        <ele>1110.2</ele>
        <time>2026-05-01T11:13:13Z</time>
      </trkpt>
      <trkpt lat="45.12558" lon="4.53619">
        <ele>1109.7</ele>
        <time>2026-05-01T11:13:18Z</time>
      </trkpt>
      <trkpt lat="45.12552" lon="4.53615">
        <ele>1109.1</ele>
        <time>2026-05-01T11:13:23Z</time>
      </trkpt>
      <trkpt lat="45.12542" lon="4.53611">
        <ele>1108.2</ele>
        <time>2026-05-01T11:13:28Z</time>
      </trkpt>
      <trkpt lat="45.12535" lon="4.53606">
        <ele>1107.5</ele>
        <time>2026-05-01T11:13:33Z</time>
      </trkpt>
      <trkpt lat="45.12528" lon="4.53603">
        <ele>1106.8</ele>
        <time>2026-05-01T11:13:38Z</time>
      </trkpt>
      <trkpt lat="45.1252" lon="4.536">
        <ele>1106.1</ele>
        <time>2026-05-01T11:13:43Z</time>
      </trkpt>
      <trkpt lat="45.12512" lon="4.53598">
        <ele>1105.3</ele>
        <time>2026-05-01T11:13:48Z</time>
      </trkpt>
      <trkpt lat="45.12505" lon="4.53598">
        <ele>1104.6</ele>
        <time>2026-05-01T11:13:53Z</time>
      </trkpt>
      <trkpt lat="45.12498" lon="4.53596">
        <ele>1104.2</ele>
        <time>2026-05-01T11:13:58Z</time>
      </trkpt>
      <trkpt lat="45.12491" lon="4.53596">
        <ele>1104.2</ele>
        <time>2026-05-01T11:14:03Z</time>
      </trkpt>
      <trkpt lat="45.12484" lon="4.53595">
        <ele>1104.3</ele>
        <time>2026-05-01T11:14:08Z</time>
      </trkpt>
      <trkpt lat="45.12477" lon="4.53594">
        <ele>1104.4</ele>
        <time>2026-05-01T11:14:13Z</time>
      </trkpt>
      <trkpt lat="45.12469" lon="4.53595">
        <ele>1104.5</ele>
        <time>2026-05-01T11:14:18Z</time>
      </trkpt>
      <trkpt lat="45.12466" lon="4.53597">
        <ele>1104.5</ele>
        <time>2026-05-01T11:14:23Z</time>
      </trkpt>
      <trkpt lat="45.12459" lon="4.53597">
        <ele>1104.6</ele>
        <time>2026-05-01T11:14:28Z</time>
      </trkpt>
      <trkpt lat="45.12453" lon="4.53596">
        <ele>1104.6</ele>
        <time>2026-05-01T11:14:33Z</time>
      </trkpt>
      <trkpt lat="45.12447" lon="4.53593">
        <ele>1104.7</ele>
        <time>2026-05-01T11:14:38Z</time>
      </trkpt>
      <trkpt lat="45.12441" lon="4.53591">
        <ele>1104.7</ele>
        <time>2026-05-01T11:14:43Z</time>
      </trkpt>
      <trkpt lat="45.12434" lon="4.5359">
        <ele>1104.8</ele>
        <time>2026-05-01T11:14:48Z</time>
      </trkpt>
      <trkpt lat="45.12433" lon="4.53591">
        <ele>1104.8</ele>
        <time>2026-05-01T11:14:53Z</time>
      </trkpt>
      <trkpt lat="45.12432" lon="4.53589">
        <ele>1104.8</ele>
        <time>2026-05-01T11:14:58Z</time>
      </trkpt>
      <trkpt lat="45.12431" lon="4.53589">
        <ele>1104.8</ele>
        <time>2026-05-01T11:15:03Z</time>
      </trkpt>
      <trkpt lat="45.12431" lon="4.53589">
        <ele>1104.8</ele>
        <time>2026-05-01T11:15:08Z</time>
      </trkpt>
      <trkpt lat="45.12431" lon="4.53589">
        <ele>1104.8</ele>
        <time>2026-05-01T11:15:13Z</time>
      </trkpt>
      <trkpt lat="45.12431" lon="4.53589">
        <ele>1104.8</ele>
        <time>2026-05-01T11:15:18Z</time>
      </trkpt>
      <trkpt lat="45.12431" lon="4.53589">
        <ele>1104.8</ele>
        <time>2026-05-01T11:15:23Z</time>
      </trkpt>
      <trkpt lat="45.12431" lon="4.53589">
        <ele>1104.8</ele>
        <time>2026-05-01T11:15:28Z</time>
      </trkpt>
      <trkpt lat="45.12431" lon="4.53589">
        <ele>1104.8</ele>
        <time>2026-05-01T11:15:33Z</time>
      </trkpt>
      <trkpt lat="45.12431" lon="4.53589">
        <ele>1104.8</ele>
        <time>2026-05-01T11:15:38Z</time>
      </trkpt>
      <trkpt lat="45.12431" lon="4.53589">
        <ele>1104.8</ele>
        <time>2026-05-01T11:15:43Z</time>
      </trkpt>
      <trkpt lat="45.12431" lon="4.53589">
        <ele>1104.8</ele>
        <time>2026-05-01T11:15:48Z</time>
      </trkpt>
      <trkpt lat="45.12431" lon="4.53589">
        <ele>1104.8</ele>
        <time>2026-05-01T11:15:53Z</time>
      </trkpt>
      <trkpt lat="45.12431" lon="4.53589">
        <ele>1104.8</ele>
        <time>2026-05-01T11:15:58Z</time>
      </trkpt>
      <trkpt lat="45.1242" lon="4.53583">
        <ele>1104.9</ele>
        <time>2026-05-01T11:16:03Z</time>
      </trkpt>
      <trkpt lat="45.12414" lon="4.53581">
        <ele>1104.9</ele>
        <time>2026-05-01T11:16:08Z</time>
      </trkpt>
      <trkpt lat="45.12406" lon="4.5358">
        <ele>1105</ele>
        <time>2026-05-01T11:16:13Z</time>
      </trkpt>
      <trkpt lat="45.12398" lon="4.53576">
        <ele>1104.9</ele>
        <time>2026-05-01T11:16:18Z</time>
      </trkpt>
      <trkpt lat="45.12392" lon="4.53573">
        <ele>1104.8</ele>
        <time>2026-05-01T11:16:23Z</time>
      </trkpt>
      <trkpt lat="45.12388" lon="4.53576">
        <ele>1105</ele>
        <time>2026-05-01T11:16:28Z</time>
      </trkpt>
      <trkpt lat="45.12387" lon="4.5358">
        <ele>1105.2</ele>
        <time>2026-05-01T11:16:33Z</time>
      </trkpt>
      <trkpt lat="45.12386" lon="4.53581">
        <ele>1105.3</ele>
        <time>2026-05-01T11:16:38Z</time>
      </trkpt>
      <trkpt lat="45.12386" lon="4.53584">
        <ele>1105.4</ele>
        <time>2026-05-01T11:16:43Z</time>
      </trkpt>
      <trkpt lat="45.12386" lon="4.53587">
        <ele>1105.4</ele>
        <time>2026-05-01T11:16:48Z</time>
      </trkpt>
      <trkpt lat="45.12386" lon="4.53592">
        <ele>1105.4</ele>
        <time>2026-05-01T11:16:53Z</time>
      </trkpt>
      <trkpt lat="45.12389" lon="4.53596">
        <ele>1105.3</ele>
        <time>2026-05-01T11:16:58Z</time>
      </trkpt>
      <trkpt lat="45.12391" lon="4.53598">
        <ele>1105.3</ele>
        <time>2026-05-01T11:17:03Z</time>
      </trkpt>
      <trkpt lat="45.12392" lon="4.53599">
        <ele>1105.3</ele>
        <time>2026-05-01T11:17:08Z</time>
      </trkpt>
      <trkpt lat="45.12393" lon="4.536">
        <ele>1105.3</ele>
        <time>2026-05-01T11:17:13Z</time>
      </trkpt>
      <trkpt lat="45.12393" lon="4.53601">
        <ele>1105.3</ele>
        <time>2026-05-01T11:17:18Z</time>
      </trkpt>
      <trkpt lat="45.12389" lon="4.53594">
        <ele>1105.3</ele>
        <time>2026-05-01T11:17:23Z</time>
      </trkpt>
      <trkpt lat="45.12386" lon="4.53584">
        <ele>1105.4</ele>
        <time>2026-05-01T11:17:28Z</time>
      </trkpt>
      <trkpt lat="45.12379" lon="4.53578">
        <ele>1105.2</ele>
        <time>2026-05-01T11:17:33Z</time>
      </trkpt>
      <trkpt lat="45.12372" lon="4.53577">
        <ele>1105.2</ele>
        <time>2026-05-01T11:17:38Z</time>
      </trkpt>
      <trkpt lat="45.12365" lon="4.53576">
        <ele>1105.3</ele>
        <time>2026-05-01T11:17:43Z</time>
      </trkpt>
      <trkpt lat="45.12359" lon="4.53574">
        <ele>1105.2</ele>
        <time>2026-05-01T11:17:48Z</time>
      </trkpt>
      <trkpt lat="45.12352" lon="4.53571">
        <ele>1105.2</ele>
        <time>2026-05-01T11:17:53Z</time>
      </trkpt>
      <trkpt lat="45.12345" lon="4.53571">
        <ele>1105.3</ele>
        <time>2026-05-01T11:17:58Z</time>
      </trkpt>
      <trkpt lat="45.12339" lon="4.5357">
        <ele>1105.3</ele>
        <time>2026-05-01T11:18:03Z</time>
      </trkpt>
      <trkpt lat="45.1233" lon="4.53567">
        <ele>1105.1</ele>
        <time>2026-05-01T11:18:08Z</time>
      </trkpt>
      <trkpt lat="45.12323" lon="4.53563">
        <ele>1104.7</ele>
        <time>2026-05-01T11:18:13Z</time>
      </trkpt>
      <trkpt lat="45.12318" lon="4.53563">
        <ele>1104.6</ele>
        <time>2026-05-01T11:18:18Z</time>
      </trkpt>
      <trkpt lat="45.12313" lon="4.53563">
        <ele>1104.5</ele>
        <time>2026-05-01T11:18:23Z</time>
      </trkpt>
      <trkpt lat="45.12306" lon="4.53561">
        <ele>1104.2</ele>
        <time>2026-05-01T11:18:28Z</time>
      </trkpt>
      <trkpt lat="45.12299" lon="4.53557">
        <ele>1103.8</ele>
        <time>2026-05-01T11:18:33Z</time>
      </trkpt>
      <trkpt lat="45.12291" lon="4.53554">
        <ele>1103.4</ele>
        <time>2026-05-01T11:18:38Z</time>
      </trkpt>
      <trkpt lat="45.12285" lon="4.53551">
        <ele>1103.1</ele>
        <time>2026-05-01T11:18:43Z</time>
      </trkpt>
      <trkpt lat="45.12277" lon="4.53551">
        <ele>1102.8</ele>
        <time>2026-05-01T11:18:48Z</time>
      </trkpt>
      <trkpt lat="45.1227" lon="4.53552">
        <ele>1102.7</ele>
        <time>2026-05-01T11:18:53Z</time>
      </trkpt>
      <trkpt lat="45.12265" lon="4.53554">
        <ele>1102.7</ele>
        <time>2026-05-01T11:18:58Z</time>
      </trkpt>
      <trkpt lat="45.12261" lon="4.53557">
        <ele>1102.7</ele>
        <time>2026-05-01T11:19:03Z</time>
      </trkpt>
      <trkpt lat="45.1226" lon="4.5356">
        <ele>1102.9</ele>
        <time>2026-05-01T11:19:08Z</time>
      </trkpt>
      <trkpt lat="45.1226" lon="4.53561">
        <ele>1102.9</ele>
        <time>2026-05-01T11:19:13Z</time>
      </trkpt>
      <trkpt lat="45.1226" lon="4.53561">
        <ele>1102.9</ele>
        <time>2026-05-01T11:19:18Z</time>
      </trkpt>
      <trkpt lat="45.1226" lon="4.53561">
        <ele>1102.9</ele>
        <time>2026-05-01T11:19:23Z</time>
      </trkpt>
      <trkpt lat="45.1226" lon="4.53561">
        <ele>1102.9</ele>
        <time>2026-05-01T11:19:28Z</time>
      </trkpt>
      <trkpt lat="45.12256" lon="4.5356">
        <ele>1102.8</ele>
        <time>2026-05-01T11:19:33Z</time>
      </trkpt>
      <trkpt lat="45.12249" lon="4.53559">
        <ele>1102.5</ele>
        <time>2026-05-01T11:19:38Z</time>
      </trkpt>
      <trkpt lat="45.12241" lon="4.53557">
        <ele>1101.7</ele>
        <time>2026-05-01T11:19:43Z</time>
      </trkpt>
      <trkpt lat="45.12234" lon="4.53554">
        <ele>1101</ele>
        <time>2026-05-01T11:19:48Z</time>
      </trkpt>
      <trkpt lat="45.12228" lon="4.53556">
        <ele>1100.6</ele>
        <time>2026-05-01T11:19:53Z</time>
      </trkpt>
      <trkpt lat="45.12221" lon="4.53555">
        <ele>1100</ele>
        <time>2026-05-01T11:19:58Z</time>
      </trkpt>
      <trkpt lat="45.12215" lon="4.53554">
        <ele>1099.4</ele>
        <time>2026-05-01T11:20:03Z</time>
      </trkpt>
      <trkpt lat="45.12208" lon="4.53554">
        <ele>1098.9</ele>
        <time>2026-05-01T11:20:08Z</time>
      </trkpt>
      <trkpt lat="45.12201" lon="4.53553">
        <ele>1098.2</ele>
        <time>2026-05-01T11:20:13Z</time>
      </trkpt>
      <trkpt lat="45.12197" lon="4.53554">
        <ele>1098</ele>
        <time>2026-05-01T11:20:18Z</time>
      </trkpt>
      <trkpt lat="45.12193" lon="4.53552">
        <ele>1097.5</ele>
        <time>2026-05-01T11:20:23Z</time>
      </trkpt>
      <trkpt lat="45.12186" lon="4.53554">
        <ele>1097.1</ele>
        <time>2026-05-01T11:20:28Z</time>
      </trkpt>
      <trkpt lat="45.12184" lon="4.53555">
        <ele>1097</ele>
        <time>2026-05-01T11:20:33Z</time>
      </trkpt>
      <trkpt lat="45.12184" lon="4.53555">
        <ele>1097</ele>
        <time>2026-05-01T11:20:38Z</time>
      </trkpt>
      <trkpt lat="45.12183" lon="4.53555">
        <ele>1096.9</ele>
        <time>2026-05-01T11:20:43Z</time>
      </trkpt>
      <trkpt lat="45.12183" lon="4.53555">
        <ele>1096.9</ele>
        <time>2026-05-01T11:20:48Z</time>
      </trkpt>
      <trkpt lat="45.12178" lon="4.53552">
        <ele>1096.3</ele>
        <time>2026-05-01T11:20:53Z</time>
      </trkpt>
      <trkpt lat="45.12173" lon="4.5355">
        <ele>1095.7</ele>
        <time>2026-05-01T11:20:58Z</time>
      </trkpt>
      <trkpt lat="45.12169" lon="4.5355">
        <ele>1095.4</ele>
        <time>2026-05-01T11:21:03Z</time>
      </trkpt>
      <trkpt lat="45.12169" lon="4.5355">
        <ele>1095.4</ele>
        <time>2026-05-01T11:21:08Z</time>
      </trkpt>
      <trkpt lat="45.12164" lon="4.53553">
        <ele>1095.1</ele>
        <time>2026-05-01T11:21:13Z</time>
      </trkpt>
      <trkpt lat="45.12157" lon="4.53552">
        <ele>1094.2</ele>
        <time>2026-05-01T11:21:18Z</time>
      </trkpt>
      <trkpt lat="45.12151" lon="4.53551">
        <ele>1093.4</ele>
        <time>2026-05-01T11:21:23Z</time>
      </trkpt>
      <trkpt lat="45.12144" lon="4.5355">
        <ele>1092.4</ele>
        <time>2026-05-01T11:21:28Z</time>
      </trkpt>
      <trkpt lat="45.12134" lon="4.53549">
        <ele>1091.1</ele>
        <time>2026-05-01T11:21:33Z</time>
      </trkpt>
      <trkpt lat="45.12126" lon="4.53547">
        <ele>1090</ele>
        <time>2026-05-01T11:21:38Z</time>
      </trkpt>
      <trkpt lat="45.12123" lon="4.53544">
        <ele>1089.4</ele>
        <time>2026-05-01T11:21:43Z</time>
      </trkpt>
      <trkpt lat="45.12121" lon="4.53545">
        <ele>1089.3</ele>
        <time>2026-05-01T11:21:48Z</time>
      </trkpt>
      <trkpt lat="45.12115" lon="4.53546">
        <ele>1088.6</ele>
        <time>2026-05-01T11:21:53Z</time>
      </trkpt>
      <trkpt lat="45.12109" lon="4.53543">
        <ele>1087.7</ele>
        <time>2026-05-01T11:21:58Z</time>
      </trkpt>
      <trkpt lat="45.12102" lon="4.53545">
        <ele>1087</ele>
        <time>2026-05-01T11:22:03Z</time>
      </trkpt>
      <trkpt lat="45.12095" lon="4.53547">
        <ele>1086.2</ele>
        <time>2026-05-01T11:22:08Z</time>
      </trkpt>
      <trkpt lat="45.1209" lon="4.53547">
        <ele>1085.6</ele>
        <time>2026-05-01T11:22:13Z</time>
      </trkpt>
      <trkpt lat="45.12081" lon="4.53552">
        <ele>1085.1</ele>
        <time>2026-05-01T11:22:18Z</time>
      </trkpt>
      <trkpt lat="45.12073" lon="4.53551">
        <ele>1084.8</ele>
        <time>2026-05-01T11:22:23Z</time>
      </trkpt>
      <trkpt lat="45.12065" lon="4.53552">
        <ele>1084.6</ele>
        <time>2026-05-01T11:22:28Z</time>
      </trkpt>
      <trkpt lat="45.12058" lon="4.53553">
        <ele>1084.5</ele>
        <time>2026-05-01T11:22:33Z</time>
      </trkpt>
      <trkpt lat="45.12053" lon="4.53554">
        <ele>1084.4</ele>
        <time>2026-05-01T11:22:38Z</time>
      </trkpt>
      <trkpt lat="45.12047" lon="4.53553">
        <ele>1084.2</ele>
        <time>2026-05-01T11:22:43Z</time>
      </trkpt>
      <trkpt lat="45.12041" lon="4.53553">
        <ele>1084</ele>
        <time>2026-05-01T11:22:48Z</time>
      </trkpt>
      <trkpt lat="45.12033" lon="4.53552">
        <ele>1083.8</ele>
        <time>2026-05-01T11:22:53Z</time>
      </trkpt>
      <trkpt lat="45.12025" lon="4.53554">
        <ele>1083.6</ele>
        <time>2026-05-01T11:22:58Z</time>
      </trkpt>
      <trkpt lat="45.12019" lon="4.53555">
        <ele>1083.5</ele>
        <time>2026-05-01T11:23:03Z</time>
      </trkpt>
      <trkpt lat="45.12012" lon="4.53557">
        <ele>1083.4</ele>
        <time>2026-05-01T11:23:08Z</time>
      </trkpt>
      <trkpt lat="45.12004" lon="4.53564">
        <ele>1083.4</ele>
        <time>2026-05-01T11:23:13Z</time>
      </trkpt>
      <trkpt lat="45.11998" lon="4.53571">
        <ele>1083.6</ele>
        <time>2026-05-01T11:23:18Z</time>
      </trkpt>
      <trkpt lat="45.11994" lon="4.53576">
        <ele>1083.8</ele>
        <time>2026-05-01T11:23:23Z</time>
      </trkpt>
      <trkpt lat="45.11989" lon="4.53579">
        <ele>1084</ele>
        <time>2026-05-01T11:23:28Z</time>
      </trkpt>
      <trkpt lat="45.11985" lon="4.53582">
        <ele>1084.1</ele>
        <time>2026-05-01T11:23:33Z</time>
      </trkpt>
      <trkpt lat="45.11978" lon="4.53584">
        <ele>1084.2</ele>
        <time>2026-05-01T11:23:38Z</time>
      </trkpt>
      <trkpt lat="45.11971" lon="4.53586">
        <ele>1084</ele>
        <time>2026-05-01T11:23:43Z</time>
      </trkpt>
      <trkpt lat="45.11965" lon="4.53585">
        <ele>1084.2</ele>
        <time>2026-05-01T11:23:48Z</time>
      </trkpt>
      <trkpt lat="45.11959" lon="4.53585">
        <ele>1084.3</ele>
        <time>2026-05-01T11:23:53Z</time>
      </trkpt>
      <trkpt lat="45.11953" lon="4.53584">
        <ele>1084.5</ele>
        <time>2026-05-01T11:23:58Z</time>
      </trkpt>
      <trkpt lat="45.11946" lon="4.53584">
        <ele>1084.6</ele>
        <time>2026-05-01T11:24:03Z</time>
      </trkpt>
      <trkpt lat="45.1194" lon="4.53584">
        <ele>1084.6</ele>
        <time>2026-05-01T11:24:08Z</time>
      </trkpt>
      <trkpt lat="45.11935" lon="4.53584">
        <ele>1084.7</ele>
        <time>2026-05-01T11:24:13Z</time>
      </trkpt>
      <trkpt lat="45.11932" lon="4.53579">
        <ele>1084.8</ele>
        <time>2026-05-01T11:24:18Z</time>
      </trkpt>
      <trkpt lat="45.1193" lon="4.53578">
        <ele>1084.9</ele>
        <time>2026-05-01T11:24:23Z</time>
      </trkpt>
      <trkpt lat="45.1193" lon="4.53578">
        <ele>1084.9</ele>
        <time>2026-05-01T11:24:28Z</time>
      </trkpt>
      <trkpt lat="45.1192" lon="4.53564">
        <ele>1085.2</ele>
        <time>2026-05-01T11:24:33Z</time>
      </trkpt>
      <trkpt lat="45.11921" lon="4.53557">
        <ele>1085.2</ele>
        <time>2026-05-01T11:24:38Z</time>
      </trkpt>
      <trkpt lat="45.11922" lon="4.53549">
        <ele>1085.2</ele>
        <time>2026-05-01T11:24:43Z</time>
      </trkpt>
      <trkpt lat="45.11922" lon="4.53549">
        <ele>1085.2</ele>
        <time>2026-05-01T11:24:48Z</time>
      </trkpt>
      <trkpt lat="45.11922" lon="4.5355">
        <ele>1085.2</ele>
        <time>2026-05-01T11:24:53Z</time>
      </trkpt>
      <trkpt lat="45.11922" lon="4.5355">
        <ele>1085.2</ele>
        <time>2026-05-01T11:24:58Z</time>
      </trkpt>
      <trkpt lat="45.11922" lon="4.5355">
        <ele>1085.2</ele>
        <time>2026-05-01T11:25:03Z</time>
      </trkpt>
      <trkpt lat="45.11922" lon="4.5355">
        <ele>1085.2</ele>
        <time>2026-05-01T11:25:08Z</time>
      </trkpt>
      <trkpt lat="45.11922" lon="4.5355">
        <ele>1085.2</ele>
        <time>2026-05-01T11:25:13Z</time>
      </trkpt>
      <trkpt lat="45.11923" lon="4.53558">
        <ele>1085.1</ele>
        <time>2026-05-01T11:25:18Z</time>
      </trkpt>
      <trkpt lat="45.11922" lon="4.53561">
        <ele>1085.1</ele>
        <time>2026-05-01T11:25:23Z</time>
      </trkpt>
      <trkpt lat="45.1192" lon="4.53562">
        <ele>1085.2</ele>
        <time>2026-05-01T11:25:28Z</time>
      </trkpt>
      <trkpt lat="45.1192" lon="4.53562">
        <ele>1085.2</ele>
        <time>2026-05-01T11:25:28Z</time>
      </trkpt>
      <trkpt lat="45.11921" lon="4.53571">
        <ele>1085.1</ele>
        <time>2026-05-01T11:51:20Z</time>
      </trkpt>
      <trkpt lat="45.11921" lon="4.53571">
        <ele>1085.1</ele>
        <time>2026-05-01T11:51:25Z</time>
      </trkpt>
      <trkpt lat="45.11921" lon="4.53571">
        <ele>1085.1</ele>
        <time>2026-05-01T11:51:30Z</time>
      </trkpt>
      <trkpt lat="45.1191" lon="4.5357">
        <ele>1085.9</ele>
        <time>2026-05-01T11:51:35Z</time>
      </trkpt>
      <trkpt lat="45.11907" lon="4.53572">
        <ele>1086.1</ele>
        <time>2026-05-01T11:51:40Z</time>
      </trkpt>
      <trkpt lat="45.11902" lon="4.53578">
        <ele>1086.5</ele>
        <time>2026-05-01T11:51:45Z</time>
      </trkpt>
      <trkpt lat="45.11897" lon="4.53581">
        <ele>1086.9</ele>
        <time>2026-05-01T11:51:50Z</time>
      </trkpt>
      <trkpt lat="45.11892" lon="4.53586">
        <ele>1087</ele>
        <time>2026-05-01T11:51:55Z</time>
      </trkpt>
      <trkpt lat="45.11889" lon="4.53587">
        <ele>1087.1</ele>
        <time>2026-05-01T11:52:00Z</time>
      </trkpt>
      <trkpt lat="45.11886" lon="4.53589">
        <ele>1087.1</ele>
        <time>2026-05-01T11:52:05Z</time>
      </trkpt>
      <trkpt lat="45.11884" lon="4.5359">
        <ele>1087.1</ele>
        <time>2026-05-01T11:52:10Z</time>
      </trkpt>
      <trkpt lat="45.11884" lon="4.53588">
        <ele>1087.4</ele>
        <time>2026-05-01T11:52:15Z</time>
      </trkpt>
      <trkpt lat="45.11884" lon="4.53588">
        <ele>1087.4</ele>
        <time>2026-05-01T11:52:20Z</time>
      </trkpt>
      <trkpt lat="45.11884" lon="4.53588">
        <ele>1087.4</ele>
        <time>2026-05-01T11:52:25Z</time>
      </trkpt>
      <trkpt lat="45.11884" lon="4.53588">
        <ele>1087.4</ele>
        <time>2026-05-01T11:52:30Z</time>
      </trkpt>
      <trkpt lat="45.11884" lon="4.53588">
        <ele>1087.4</ele>
        <time>2026-05-01T11:52:35Z</time>
      </trkpt>
      <trkpt lat="45.11884" lon="4.53588">
        <ele>1087.4</ele>
        <time>2026-05-01T11:52:40Z</time>
      </trkpt>
      <trkpt lat="45.11884" lon="4.53588">
        <ele>1087.4</ele>
        <time>2026-05-01T11:52:45Z</time>
      </trkpt>
      <trkpt lat="45.11873" lon="4.53581">
        <ele>1089.3</ele>
        <time>2026-05-01T11:52:50Z</time>
      </trkpt>
      <trkpt lat="45.11873" lon="4.53581">
        <ele>1089.3</ele>
        <time>2026-05-01T11:52:50Z</time>
      </trkpt>
      <trkpt lat="45.11875" lon="4.53552">
        <ele>1090.1</ele>
        <time>2026-05-01T11:54:44Z</time>
      </trkpt>
      <trkpt lat="45.11873" lon="4.5357">
        <ele>1089.7</ele>
        <time>2026-05-01T11:54:50Z</time>
      </trkpt>
      <trkpt lat="45.11867" lon="4.5357">
        <ele>1090.3</ele>
        <time>2026-05-01T11:54:55Z</time>
      </trkpt>
      <trkpt lat="45.11863" lon="4.53566">
        <ele>1090.9</ele>
        <time>2026-05-01T11:55:00Z</time>
      </trkpt>
      <trkpt lat="45.11863" lon="4.53566">
        <ele>1090.9</ele>
        <time>2026-05-01T11:55:00Z</time>
      </trkpt>
      <trkpt lat="45.11884" lon="4.53583">
        <ele>1088.1</ele>
        <time>2026-05-01T12:09:26Z</time>
      </trkpt>
      <trkpt lat="45.1188" lon="4.53567">
        <ele>1089.1</ele>
        <time>2026-05-01T12:09:29Z</time>
      </trkpt>
      <trkpt lat="45.11853" lon="4.53564">
        <ele>1092.1</ele>
        <time>2026-05-01T12:09:34Z</time>
      </trkpt>
      <trkpt lat="45.11851" lon="4.53564">
        <ele>1092.3</ele>
        <time>2026-05-01T12:09:39Z</time>
      </trkpt>
      <trkpt lat="45.1185" lon="4.53573">
        <ele>1091.9</ele>
        <time>2026-05-01T12:09:44Z</time>
      </trkpt>
      <trkpt lat="45.11851" lon="4.53581">
        <ele>1091.4</ele>
        <time>2026-05-01T12:09:49Z</time>
      </trkpt>
      <trkpt lat="45.11851" lon="4.5359">
        <ele>1090.2</ele>
        <time>2026-05-01T12:09:54Z</time>
      </trkpt>
      <trkpt lat="45.11846" lon="4.53599">
        <ele>1089.1</ele>
        <time>2026-05-01T12:09:59Z</time>
      </trkpt>
      <trkpt lat="45.11847" lon="4.53606">
        <ele>1087.8</ele>
        <time>2026-05-01T12:10:04Z</time>
      </trkpt>
      <trkpt lat="45.11844" lon="4.53608">
        <ele>1087.7</ele>
        <time>2026-05-01T12:10:09Z</time>
      </trkpt>
      <trkpt lat="45.11842" lon="4.53606">
        <ele>1088.2</ele>
        <time>2026-05-01T12:10:14Z</time>
      </trkpt>
      <trkpt lat="45.11842" lon="4.53606">
        <ele>1088.2</ele>
        <time>2026-05-01T12:10:19Z</time>
      </trkpt>
      <trkpt lat="45.11842" lon="4.53606">
        <ele>1088.2</ele>
        <time>2026-05-01T12:10:24Z</time>
      </trkpt>
      <trkpt lat="45.11842" lon="4.53606">
        <ele>1088.2</ele>
        <time>2026-05-01T12:10:29Z</time>
      </trkpt>
      <trkpt lat="45.11842" lon="4.53606">
        <ele>1088.2</ele>
        <time>2026-05-01T12:10:34Z</time>
      </trkpt>
      <trkpt lat="45.11842" lon="4.53606">
        <ele>1088.2</ele>
        <time>2026-05-01T12:10:34Z</time>
      </trkpt>
      <trkpt lat="45.11853" lon="4.53601">
        <ele>1088.1</ele>
        <time>2026-05-01T12:15:11Z</time>
      </trkpt>
      <trkpt lat="45.11844" lon="4.53596">
        <ele>1089.8</ele>
        <time>2026-05-01T12:15:17Z</time>
      </trkpt>
      <trkpt lat="45.11843" lon="4.536">
        <ele>1089.2</ele>
        <time>2026-05-01T12:15:22Z</time>
      </trkpt>
      <trkpt lat="45.11842" lon="4.53612">
        <ele>1087.2</ele>
        <time>2026-05-01T12:15:27Z</time>
      </trkpt>
      <trkpt lat="45.1184" lon="4.53623">
        <ele>1085.4</ele>
        <time>2026-05-01T12:15:32Z</time>
      </trkpt>
      <trkpt lat="45.11842" lon="4.53634">
        <ele>1083.3</ele>
        <time>2026-05-01T12:15:37Z</time>
      </trkpt>
      <trkpt lat="45.11845" lon="4.53637">
        <ele>1082.6</ele>
        <time>2026-05-01T12:15:42Z</time>
      </trkpt>
      <trkpt lat="45.11846" lon="4.53637">
        <ele>1082.5</ele>
        <time>2026-05-01T12:15:47Z</time>
      </trkpt>
      <trkpt lat="45.11846" lon="4.53637">
        <ele>1082.5</ele>
        <time>2026-05-01T12:15:52Z</time>
      </trkpt>
      <trkpt lat="45.11846" lon="4.53637">
        <ele>1082.5</ele>
        <time>2026-05-01T12:15:57Z</time>
      </trkpt>
      <trkpt lat="45.11846" lon="4.53637">
        <ele>1082.5</ele>
        <time>2026-05-01T12:16:02Z</time>
      </trkpt>
      <trkpt lat="45.11846" lon="4.53637">
        <ele>1082.5</ele>
        <time>2026-05-01T12:16:07Z</time>
      </trkpt>
      <trkpt lat="45.11846" lon="4.53637">
        <ele>1082.5</ele>
        <time>2026-05-01T12:16:12Z</time>
      </trkpt>
      <trkpt lat="45.11846" lon="4.53637">
        <ele>1082.5</ele>
        <time>2026-05-01T12:16:17Z</time>
      </trkpt>
      <trkpt lat="45.11846" lon="4.53637">
        <ele>1082.5</ele>
        <time>2026-05-01T12:16:22Z</time>
      </trkpt>
      <trkpt lat="45.11846" lon="4.53637">
        <ele>1082.5</ele>
        <time>2026-05-01T12:16:27Z</time>
      </trkpt>
      <trkpt lat="45.11846" lon="4.53637">
        <ele>1082.5</ele>
        <time>2026-05-01T12:16:32Z</time>
      </trkpt>
      <trkpt lat="45.11846" lon="4.53637">
        <ele>1082.5</ele>
        <time>2026-05-01T12:16:37Z</time>
      </trkpt>
      <trkpt lat="45.11846" lon="4.53637">
        <ele>1082.5</ele>
        <time>2026-05-01T12:16:42Z</time>
      </trkpt>
      <trkpt lat="45.11846" lon="4.53637">
        <ele>1082.5</ele>
        <time>2026-05-01T12:16:47Z</time>
      </trkpt>
      <trkpt lat="45.11846" lon="4.53637">
        <ele>1082.5</ele>
        <time>2026-05-01T12:16:52Z</time>
      </trkpt>
      <trkpt lat="45.11846" lon="4.53637">
        <ele>1082.5</ele>
        <time>2026-05-01T12:16:57Z</time>
      </trkpt>
      <trkpt lat="45.11846" lon="4.53637">
        <ele>1082.5</ele>
        <time>2026-05-01T12:17:02Z</time>
      </trkpt>
      <trkpt lat="45.11846" lon="4.53637">
        <ele>1082.5</ele>
        <time>2026-05-01T12:17:07Z</time>
      </trkpt>
      <trkpt lat="45.11846" lon="4.53637">
        <ele>1082.5</ele>
        <time>2026-05-01T12:17:12Z</time>
      </trkpt>
      <trkpt lat="45.11846" lon="4.53637">
        <ele>1082.5</ele>
        <time>2026-05-01T12:17:17Z</time>
      </trkpt>
      <trkpt lat="45.11846" lon="4.53637">
        <ele>1082.5</ele>
        <time>2026-05-01T12:17:22Z</time>
      </trkpt>
      <trkpt lat="45.11846" lon="4.53637">
        <ele>1082.5</ele>
        <time>2026-05-01T12:17:27Z</time>
      </trkpt>
      <trkpt lat="45.11846" lon="4.53637">
        <ele>1082.5</ele>
        <time>2026-05-01T12:17:32Z</time>
      </trkpt>
      <trkpt lat="45.11846" lon="4.53637">
        <ele>1082.5</ele>
        <time>2026-05-01T12:17:37Z</time>
      </trkpt>
      <trkpt lat="45.11846" lon="4.53637">
        <ele>1082.5</ele>
        <time>2026-05-01T12:17:42Z</time>
      </trkpt>
      <trkpt lat="45.11846" lon="4.53637">
        <ele>1082.5</ele>
        <time>2026-05-01T12:17:47Z</time>
      </trkpt>
      <trkpt lat="45.11846" lon="4.53637">
        <ele>1082.5</ele>
        <time>2026-05-01T12:17:52Z</time>
      </trkpt>
      <trkpt lat="45.11846" lon="4.53637">
        <ele>1082.5</ele>
        <time>2026-05-01T12:17:57Z</time>
      </trkpt>
      <trkpt lat="45.11846" lon="4.53637">
        <ele>1082.5</ele>
        <time>2026-05-01T12:18:02Z</time>
      </trkpt>
      <trkpt lat="45.11846" lon="4.53637">
        <ele>1082.5</ele>
        <time>2026-05-01T12:18:07Z</time>
      </trkpt>
      <trkpt lat="45.11843" lon="4.53628">
        <ele>1084.3</ele>
        <time>2026-05-01T12:18:12Z</time>
      </trkpt>
      <trkpt lat="45.11843" lon="4.53628">
        <ele>1084.3</ele>
        <time>2026-05-01T12:18:17Z</time>
      </trkpt>
      <trkpt lat="45.11842" lon="4.53622">
        <ele>1085.4</ele>
        <time>2026-05-01T12:18:22Z</time>
      </trkpt>
      <trkpt lat="45.11845" lon="4.53617">
        <ele>1086</ele>
        <time>2026-05-01T12:18:27Z</time>
      </trkpt>
      <trkpt lat="45.11848" lon="4.53611">
        <ele>1086.8</ele>
        <time>2026-05-01T12:18:32Z</time>
      </trkpt>
      <trkpt lat="45.1185" lon="4.53606">
        <ele>1087.5</ele>
        <time>2026-05-01T12:18:37Z</time>
      </trkpt>
      <trkpt lat="45.11852" lon="4.53602">
        <ele>1088</ele>
        <time>2026-05-01T12:18:42Z</time>
      </trkpt>
      <trkpt lat="45.11853" lon="4.53599">
        <ele>1088.5</ele>
        <time>2026-05-01T12:18:47Z</time>
      </trkpt>
      <trkpt lat="45.11854" lon="4.53595">
        <ele>1089.1</ele>
        <time>2026-05-01T12:18:52Z</time>
      </trkpt>
      <trkpt lat="45.11856" lon="4.53593">
        <ele>1089.2</ele>
        <time>2026-05-01T12:18:57Z</time>
      </trkpt>
      <trkpt lat="45.11859" lon="4.53594">
        <ele>1088.8</ele>
        <time>2026-05-01T12:19:02Z</time>
      </trkpt>
      <trkpt lat="45.11863" lon="4.53593">
        <ele>1088.6</ele>
        <time>2026-05-01T12:19:07Z</time>
      </trkpt>
      <trkpt lat="45.11873" lon="4.53593">
        <ele>1087.7</ele>
        <time>2026-05-01T12:19:12Z</time>
      </trkpt>
      <trkpt lat="45.11881" lon="4.53592">
        <ele>1087.1</ele>
        <time>2026-05-01T12:19:17Z</time>
      </trkpt>
      <trkpt lat="45.11886" lon="4.53591">
        <ele>1086.8</ele>
        <time>2026-05-01T12:19:22Z</time>
      </trkpt>
      <trkpt lat="45.11891" lon="4.53586">
        <ele>1087.1</ele>
        <time>2026-05-01T12:19:27Z</time>
      </trkpt>
      <trkpt lat="45.11899" lon="4.53582">
        <ele>1086.7</ele>
        <time>2026-05-01T12:19:32Z</time>
      </trkpt>
      <trkpt lat="45.11905" lon="4.53578">
        <ele>1086.2</ele>
        <time>2026-05-01T12:19:37Z</time>
      </trkpt>
      <trkpt lat="45.11909" lon="4.53574">
        <ele>1085.9</ele>
        <time>2026-05-01T12:19:42Z</time>
      </trkpt>
      <trkpt lat="45.11914" lon="4.53577">
        <ele>1085.3</ele>
        <time>2026-05-01T12:19:47Z</time>
      </trkpt>
      <trkpt lat="45.11916" lon="4.53576">
        <ele>1085.2</ele>
        <time>2026-05-01T12:19:52Z</time>
      </trkpt>
      <trkpt lat="45.11921" lon="4.53579">
        <ele>1085</ele>
        <time>2026-05-01T12:19:57Z</time>
      </trkpt>
      <trkpt lat="45.11927" lon="4.5358">
        <ele>1084.9</ele>
        <time>2026-05-01T12:20:02Z</time>
      </trkpt>
      <trkpt lat="45.11931" lon="4.53579">
        <ele>1084.8</ele>
        <time>2026-05-01T12:20:07Z</time>
      </trkpt>
      <trkpt lat="45.11938" lon="4.53574">
        <ele>1084.7</ele>
        <time>2026-05-01T12:20:12Z</time>
      </trkpt>
      <trkpt lat="45.11944" lon="4.53577">
        <ele>1084.6</ele>
        <time>2026-05-01T12:20:17Z</time>
      </trkpt>
      <trkpt lat="45.11952" lon="4.53579">
        <ele>1084.5</ele>
        <time>2026-05-01T12:20:22Z</time>
      </trkpt>
      <trkpt lat="45.11959" lon="4.5358">
        <ele>1084.5</ele>
        <time>2026-05-01T12:20:27Z</time>
      </trkpt>
      <trkpt lat="45.11965" lon="4.53578">
        <ele>1084.3</ele>
        <time>2026-05-01T12:20:32Z</time>
      </trkpt>
      <trkpt lat="45.1197" lon="4.53576">
        <ele>1084.2</ele>
        <time>2026-05-01T12:20:37Z</time>
      </trkpt>
      <trkpt lat="45.11976" lon="4.53577">
        <ele>1084.1</ele>
        <time>2026-05-01T12:20:42Z</time>
      </trkpt>
      <trkpt lat="45.11981" lon="4.53578">
        <ele>1084.1</ele>
        <time>2026-05-01T12:20:47Z</time>
      </trkpt>
      <trkpt lat="45.11984" lon="4.53577">
        <ele>1084</ele>
        <time>2026-05-01T12:20:52Z</time>
      </trkpt>
      <trkpt lat="45.11988" lon="4.53574">
        <ele>1083.9</ele>
        <time>2026-05-01T12:20:57Z</time>
      </trkpt>
      <trkpt lat="45.11991" lon="4.53573">
        <ele>1083.8</ele>
        <time>2026-05-01T12:21:02Z</time>
      </trkpt>
      <trkpt lat="45.11997" lon="4.53576">
        <ele>1083.8</ele>
        <time>2026-05-01T12:21:07Z</time>
      </trkpt>
      <trkpt lat="45.12003" lon="4.53574">
        <ele>1083.8</ele>
        <time>2026-05-01T12:21:12Z</time>
      </trkpt>
      <trkpt lat="45.12009" lon="4.53568">
        <ele>1083.7</ele>
        <time>2026-05-01T12:21:17Z</time>
      </trkpt>
      <trkpt lat="45.12015" lon="4.53564">
        <ele>1083.8</ele>
        <time>2026-05-01T12:21:22Z</time>
      </trkpt>
      <trkpt lat="45.1202" lon="4.53561">
        <ele>1083.8</ele>
        <time>2026-05-01T12:21:27Z</time>
      </trkpt>
      <trkpt lat="45.12028" lon="4.5356">
        <ele>1084</ele>
        <time>2026-05-01T12:21:32Z</time>
      </trkpt>
      <trkpt lat="45.12035" lon="4.5356">
        <ele>1084.2</ele>
        <time>2026-05-01T12:21:37Z</time>
      </trkpt>
      <trkpt lat="45.1204" lon="4.53561">
        <ele>1084.4</ele>
        <time>2026-05-01T12:21:42Z</time>
      </trkpt>
      <trkpt lat="45.12045" lon="4.53558">
        <ele>1084.4</ele>
        <time>2026-05-01T12:21:47Z</time>
      </trkpt>
      <trkpt lat="45.1205" lon="4.53557">
        <ele>1084.5</ele>
        <time>2026-05-01T12:21:52Z</time>
      </trkpt>
      <trkpt lat="45.12056" lon="4.53557">
        <ele>1084.6</ele>
        <time>2026-05-01T12:21:57Z</time>
      </trkpt>
      <trkpt lat="45.12061" lon="4.53555">
        <ele>1084.7</ele>
        <time>2026-05-01T12:22:02Z</time>
      </trkpt>
      <trkpt lat="45.12066" lon="4.53558">
        <ele>1085</ele>
        <time>2026-05-01T12:22:07Z</time>
      </trkpt>
      <trkpt lat="45.12074" lon="4.53553">
        <ele>1084.9</ele>
        <time>2026-05-01T12:22:12Z</time>
      </trkpt>
      <trkpt lat="45.12082" lon="4.5355">
        <ele>1085</ele>
        <time>2026-05-01T12:22:17Z</time>
      </trkpt>
      <trkpt lat="45.12087" lon="4.53549">
        <ele>1085.4</ele>
        <time>2026-05-01T12:22:22Z</time>
      </trkpt>
      <trkpt lat="45.12092" lon="4.5355">
        <ele>1086.1</ele>
        <time>2026-05-01T12:22:27Z</time>
      </trkpt>
      <trkpt lat="45.12096" lon="4.53548">
        <ele>1086.4</ele>
        <time>2026-05-01T12:22:32Z</time>
      </trkpt>
      <trkpt lat="45.12102" lon="4.53548">
        <ele>1087.2</ele>
        <time>2026-05-01T12:22:37Z</time>
      </trkpt>
      <trkpt lat="45.12107" lon="4.53546">
        <ele>1087.6</ele>
        <time>2026-05-01T12:22:42Z</time>
      </trkpt>
      <trkpt lat="45.1211" lon="4.53546">
        <ele>1088</ele>
        <time>2026-05-01T12:22:47Z</time>
      </trkpt>
      <trkpt lat="45.12115" lon="4.53546">
        <ele>1088.6</ele>
        <time>2026-05-01T12:22:52Z</time>
      </trkpt>
      <trkpt lat="45.12119" lon="4.53549">
        <ele>1089.3</ele>
        <time>2026-05-01T12:22:57Z</time>
      </trkpt>
      <trkpt lat="45.12125" lon="4.53551">
        <ele>1090.2</ele>
        <time>2026-05-01T12:23:02Z</time>
      </trkpt>
      <trkpt lat="45.1213" lon="4.53551">
        <ele>1090.8</ele>
        <time>2026-05-01T12:23:07Z</time>
      </trkpt>
      <trkpt lat="45.12134" lon="4.53551">
        <ele>1091.3</ele>
        <time>2026-05-01T12:23:12Z</time>
      </trkpt>
      <trkpt lat="45.12139" lon="4.53551">
        <ele>1091.9</ele>
        <time>2026-05-01T12:23:17Z</time>
      </trkpt>
      <trkpt lat="45.12144" lon="4.53551">
        <ele>1092.5</ele>
        <time>2026-05-01T12:23:22Z</time>
      </trkpt>
      <trkpt lat="45.12147" lon="4.53554">
        <ele>1093.1</ele>
        <time>2026-05-01T12:23:27Z</time>
      </trkpt>
      <trkpt lat="45.12154" lon="4.53555">
        <ele>1094.1</ele>
        <time>2026-05-01T12:23:32Z</time>
      </trkpt>
      <trkpt lat="45.1216" lon="4.53554">
        <ele>1094.7</ele>
        <time>2026-05-01T12:23:37Z</time>
      </trkpt>
      <trkpt lat="45.12167" lon="4.53555">
        <ele>1095.6</ele>
        <time>2026-05-01T12:23:42Z</time>
      </trkpt>
      <trkpt lat="45.12173" lon="4.53554">
        <ele>1096</ele>
        <time>2026-05-01T12:23:47Z</time>
      </trkpt>
      <trkpt lat="45.12181" lon="4.53554">
        <ele>1096.7</ele>
        <time>2026-05-01T12:23:52Z</time>
      </trkpt>
      <trkpt lat="45.12189" lon="4.53554">
        <ele>1097.3</ele>
        <time>2026-05-01T12:23:57Z</time>
      </trkpt>
      <trkpt lat="45.12197" lon="4.53555">
        <ele>1098.1</ele>
        <time>2026-05-01T12:24:02Z</time>
      </trkpt>
      <trkpt lat="45.12204" lon="4.53555">
        <ele>1098.6</ele>
        <time>2026-05-01T12:24:07Z</time>
      </trkpt>
      <trkpt lat="45.12211" lon="4.53556">
        <ele>1099.2</ele>
        <time>2026-05-01T12:24:12Z</time>
      </trkpt>
      <trkpt lat="45.12218" lon="4.53556">
        <ele>1099.8</ele>
        <time>2026-05-01T12:24:17Z</time>
      </trkpt>
      <trkpt lat="45.12226" lon="4.53557">
        <ele>1100.5</ele>
        <time>2026-05-01T12:24:22Z</time>
      </trkpt>
      <trkpt lat="45.12234" lon="4.53558">
        <ele>1101.2</ele>
        <time>2026-05-01T12:24:27Z</time>
      </trkpt>
      <trkpt lat="45.12238" lon="4.53558">
        <ele>1101.5</ele>
        <time>2026-05-01T12:24:32Z</time>
      </trkpt>
      <trkpt lat="45.12244" lon="4.53558">
        <ele>1102</ele>
        <time>2026-05-01T12:24:37Z</time>
      </trkpt>
      <trkpt lat="45.12248" lon="4.53558">
        <ele>1102.3</ele>
        <time>2026-05-01T12:24:42Z</time>
      </trkpt>
      <trkpt lat="45.12256" lon="4.5356">
        <ele>1102.8</ele>
        <time>2026-05-01T12:24:47Z</time>
      </trkpt>
      <trkpt lat="45.12261" lon="4.53561">
        <ele>1103</ele>
        <time>2026-05-01T12:24:52Z</time>
      </trkpt>
      <trkpt lat="45.12264" lon="4.53559">
        <ele>1102.9</ele>
        <time>2026-05-01T12:24:57Z</time>
      </trkpt>
      <trkpt lat="45.12271" lon="4.53557">
        <ele>1103</ele>
        <time>2026-05-01T12:25:02Z</time>
      </trkpt>
      <trkpt lat="45.12276" lon="4.53556">
        <ele>1103.1</ele>
        <time>2026-05-01T12:25:07Z</time>
      </trkpt>
      <trkpt lat="45.12281" lon="4.53556">
        <ele>1103.2</ele>
        <time>2026-05-01T12:25:12Z</time>
      </trkpt>
      <trkpt lat="45.12287" lon="4.53557">
        <ele>1103.4</ele>
        <time>2026-05-01T12:25:17Z</time>
      </trkpt>
      <trkpt lat="45.12293" lon="4.53558">
        <ele>1103.7</ele>
        <time>2026-05-01T12:25:22Z</time>
      </trkpt>
      <trkpt lat="45.12299" lon="4.5356">
        <ele>1103.9</ele>
        <time>2026-05-01T12:25:27Z</time>
      </trkpt>
      <trkpt lat="45.12305" lon="4.53563">
        <ele>1104.3</ele>
        <time>2026-05-01T12:25:32Z</time>
      </trkpt>
      <trkpt lat="45.12314" lon="4.53566">
        <ele>1104.7</ele>
        <time>2026-05-01T12:25:37Z</time>
      </trkpt>
      <trkpt lat="45.1232" lon="4.5357">
        <ele>1105</ele>
        <time>2026-05-01T12:25:42Z</time>
      </trkpt>
      <trkpt lat="45.12327" lon="4.53573">
        <ele>1105.3</ele>
        <time>2026-05-01T12:25:47Z</time>
      </trkpt>
      <trkpt lat="45.12332" lon="4.53575">
        <ele>1105.6</ele>
        <time>2026-05-01T12:25:52Z</time>
      </trkpt>
      <trkpt lat="45.12332" lon="4.53578">
        <ele>1105.7</ele>
        <time>2026-05-01T12:25:57Z</time>
      </trkpt>
      <trkpt lat="45.12332" lon="4.53579">
        <ele>1105.8</ele>
        <time>2026-05-01T12:26:02Z</time>
      </trkpt>
      <trkpt lat="45.12332" lon="4.53579">
        <ele>1105.8</ele>
        <time>2026-05-01T12:26:07Z</time>
      </trkpt>
      <trkpt lat="45.12332" lon="4.53579">
        <ele>1105.8</ele>
        <time>2026-05-01T12:26:12Z</time>
      </trkpt>
      <trkpt lat="45.12332" lon="4.53579">
        <ele>1105.8</ele>
        <time>2026-05-01T12:26:17Z</time>
      </trkpt>
      <trkpt lat="45.12332" lon="4.53579">
        <ele>1105.8</ele>
        <time>2026-05-01T12:26:22Z</time>
      </trkpt>
      <trkpt lat="45.12332" lon="4.53579">
        <ele>1105.8</ele>
        <time>2026-05-01T12:26:27Z</time>
      </trkpt>
      <trkpt lat="45.12332" lon="4.53579">
        <ele>1105.8</ele>
        <time>2026-05-01T12:26:32Z</time>
      </trkpt>
      <trkpt lat="45.12332" lon="4.53579">
        <ele>1105.8</ele>
        <time>2026-05-01T12:26:37Z</time>
      </trkpt>
      <trkpt lat="45.12332" lon="4.53579">
        <ele>1105.8</ele>
        <time>2026-05-01T12:26:42Z</time>
      </trkpt>
      <trkpt lat="45.12332" lon="4.53579">
        <ele>1105.8</ele>
        <time>2026-05-01T12:26:47Z</time>
      </trkpt>
      <trkpt lat="45.12332" lon="4.53579">
        <ele>1105.8</ele>
        <time>2026-05-01T12:26:52Z</time>
      </trkpt>
      <trkpt lat="45.1234" lon="4.53577">
        <ele>1105.6</ele>
        <time>2026-05-01T12:26:57Z</time>
      </trkpt>
      <trkpt lat="45.12346" lon="4.53578">
        <ele>1105.6</ele>
        <time>2026-05-01T12:27:02Z</time>
      </trkpt>
      <trkpt lat="45.12352" lon="4.53578">
        <ele>1105.5</ele>
        <time>2026-05-01T12:27:07Z</time>
      </trkpt>
      <trkpt lat="45.12359" lon="4.53579">
        <ele>1105.5</ele>
        <time>2026-05-01T12:27:12Z</time>
      </trkpt>
      <trkpt lat="45.12365" lon="4.53581">
        <ele>1105.5</ele>
        <time>2026-05-01T12:27:17Z</time>
      </trkpt>
      <trkpt lat="45.12369" lon="4.53583">
        <ele>1105.6</ele>
        <time>2026-05-01T12:27:22Z</time>
      </trkpt>
      <trkpt lat="45.12375" lon="4.53581">
        <ele>1105.4</ele>
        <time>2026-05-01T12:27:27Z</time>
      </trkpt>
      <trkpt lat="45.12383" lon="4.53581">
        <ele>1105.3</ele>
        <time>2026-05-01T12:27:32Z</time>
      </trkpt>
      <trkpt lat="45.1239" lon="4.5358">
        <ele>1105.2</ele>
        <time>2026-05-01T12:27:37Z</time>
      </trkpt>
      <trkpt lat="45.12398" lon="4.53581">
        <ele>1105.1</ele>
        <time>2026-05-01T12:27:42Z</time>
      </trkpt>
      <trkpt lat="45.12403" lon="4.53583">
        <ele>1105.1</ele>
        <time>2026-05-01T12:27:47Z</time>
      </trkpt>
      <trkpt lat="45.12408" lon="4.53584">
        <ele>1105.1</ele>
        <time>2026-05-01T12:27:52Z</time>
      </trkpt>
      <trkpt lat="45.12414" lon="4.53586">
        <ele>1105</ele>
        <time>2026-05-01T12:27:57Z</time>
      </trkpt>
      <trkpt lat="45.1242" lon="4.53587">
        <ele>1105</ele>
        <time>2026-05-01T12:28:02Z</time>
      </trkpt>
      <trkpt lat="45.12425" lon="4.53589">
        <ele>1104.9</ele>
        <time>2026-05-01T12:28:07Z</time>
      </trkpt>
      <trkpt lat="45.1243" lon="4.53588">
        <ele>1104.8</ele>
        <time>2026-05-01T12:28:12Z</time>
      </trkpt>
      <trkpt lat="45.12434" lon="4.53586">
        <ele>1104.8</ele>
        <time>2026-05-01T12:28:17Z</time>
      </trkpt>
      <trkpt lat="45.1244" lon="4.5359">
        <ele>1104.7</ele>
        <time>2026-05-01T12:28:22Z</time>
      </trkpt>
      <trkpt lat="45.12445" lon="4.53596">
        <ele>1104.7</ele>
        <time>2026-05-01T12:28:27Z</time>
      </trkpt>
      <trkpt lat="45.1245" lon="4.53599">
        <ele>1104.7</ele>
        <time>2026-05-01T12:28:32Z</time>
      </trkpt>
      <trkpt lat="45.12456" lon="4.53601">
        <ele>1104.6</ele>
        <time>2026-05-01T12:28:37Z</time>
      </trkpt>
      <trkpt lat="45.12462" lon="4.53603">
        <ele>1104.6</ele>
        <time>2026-05-01T12:28:42Z</time>
      </trkpt>
      <trkpt lat="45.12467" lon="4.53604">
        <ele>1104.5</ele>
        <time>2026-05-01T12:28:47Z</time>
      </trkpt>
      <trkpt lat="45.12468" lon="4.53601">
        <ele>1104.5</ele>
        <time>2026-05-01T12:28:52Z</time>
      </trkpt>
      <trkpt lat="45.1247" lon="4.53601">
        <ele>1104.5</ele>
        <time>2026-05-01T12:28:57Z</time>
      </trkpt>
      <trkpt lat="45.12473" lon="4.53607">
        <ele>1104.5</ele>
        <time>2026-05-01T12:29:02Z</time>
      </trkpt>
      <trkpt lat="45.12477" lon="4.53616">
        <ele>1104.6</ele>
        <time>2026-05-01T12:29:07Z</time>
      </trkpt>
      <trkpt lat="45.12482" lon="4.53619">
        <ele>1104.6</ele>
        <time>2026-05-01T12:29:12Z</time>
      </trkpt>
      <trkpt lat="45.12485" lon="4.53624">
        <ele>1104.6</ele>
        <time>2026-05-01T12:29:17Z</time>
      </trkpt>
      <trkpt lat="45.12488" lon="4.53629">
        <ele>1104.6</ele>
        <time>2026-05-01T12:29:22Z</time>
      </trkpt>
      <trkpt lat="45.12492" lon="4.53634">
        <ele>1104.6</ele>
        <time>2026-05-01T12:29:27Z</time>
      </trkpt>
      <trkpt lat="45.12496" lon="4.53638">
        <ele>1104.7</ele>
        <time>2026-05-01T12:29:32Z</time>
      </trkpt>
      <trkpt lat="45.12501" lon="4.53643">
        <ele>1104.8</ele>
        <time>2026-05-01T12:29:37Z</time>
      </trkpt>
      <trkpt lat="45.12507" lon="4.53648">
        <ele>1105.4</ele>
        <time>2026-05-01T12:29:42Z</time>
      </trkpt>
      <trkpt lat="45.12512" lon="4.53653">
        <ele>1105.9</ele>
        <time>2026-05-01T12:29:47Z</time>
      </trkpt>
      <trkpt lat="45.12517" lon="4.53658">
        <ele>1106.3</ele>
        <time>2026-05-01T12:29:52Z</time>
      </trkpt>
      <trkpt lat="45.1252" lon="4.53664">
        <ele>1106.7</ele>
        <time>2026-05-01T12:29:57Z</time>
      </trkpt>
      <trkpt lat="45.12523" lon="4.53669">
        <ele>1106.7</ele>
        <time>2026-05-01T12:30:02Z</time>
      </trkpt>
      <trkpt lat="45.12527" lon="4.53675">
        <ele>1106.6</ele>
        <time>2026-05-01T12:30:07Z</time>
      </trkpt>
      <trkpt lat="45.1253" lon="4.5368">
        <ele>1106.4</ele>
        <time>2026-05-01T12:30:12Z</time>
      </trkpt>
      <trkpt lat="45.12534" lon="4.53687">
        <ele>1106.2</ele>
        <time>2026-05-01T12:30:17Z</time>
      </trkpt>
      <trkpt lat="45.12537" lon="4.53694">
        <ele>1105.9</ele>
        <time>2026-05-01T12:30:22Z</time>
      </trkpt>
      <trkpt lat="45.1254" lon="4.53699">
        <ele>1105.8</ele>
        <time>2026-05-01T12:30:27Z</time>
      </trkpt>
      <trkpt lat="45.12543" lon="4.53705">
        <ele>1105.6</ele>
        <time>2026-05-01T12:30:32Z</time>
      </trkpt>
      <trkpt lat="45.12547" lon="4.53711">
        <ele>1105.6</ele>
        <time>2026-05-01T12:30:37Z</time>
      </trkpt>
      <trkpt lat="45.12552" lon="4.53716">
        <ele>1105.7</ele>
        <time>2026-05-01T12:30:42Z</time>
      </trkpt>
      <trkpt lat="45.12556" lon="4.53722">
        <ele>1105.7</ele>
        <time>2026-05-01T12:30:47Z</time>
      </trkpt>
      <trkpt lat="45.12558" lon="4.53727">
        <ele>1105.6</ele>
        <time>2026-05-01T12:30:52Z</time>
      </trkpt>
      <trkpt lat="45.12561" lon="4.53734">
        <ele>1105.4</ele>
        <time>2026-05-01T12:30:57Z</time>
      </trkpt>
      <trkpt lat="45.12564" lon="4.53739">
        <ele>1105.4</ele>
        <time>2026-05-01T12:31:02Z</time>
      </trkpt>
      <trkpt lat="45.12566" lon="4.53745">
        <ele>1105.3</ele>
        <time>2026-05-01T12:31:07Z</time>
      </trkpt>
      <trkpt lat="45.12569" lon="4.53751">
        <ele>1105.2</ele>
        <time>2026-05-01T12:31:12Z</time>
      </trkpt>
      <trkpt lat="45.12572" lon="4.53756">
        <ele>1105.1</ele>
        <time>2026-05-01T12:31:17Z</time>
      </trkpt>
      <trkpt lat="45.12575" lon="4.53762">
        <ele>1104.9</ele>
        <time>2026-05-01T12:31:22Z</time>
      </trkpt>
      <trkpt lat="45.12578" lon="4.53767">
        <ele>1105</ele>
        <time>2026-05-01T12:31:27Z</time>
      </trkpt>
      <trkpt lat="45.12579" lon="4.53773">
        <ele>1104.6</ele>
        <time>2026-05-01T12:31:32Z</time>
      </trkpt>
      <trkpt lat="45.12579" lon="4.53781">
        <ele>1104</ele>
        <time>2026-05-01T12:31:37Z</time>
      </trkpt>
      <trkpt lat="45.12581" lon="4.53784">
        <ele>1104.1</ele>
        <time>2026-05-01T12:31:42Z</time>
      </trkpt>
      <trkpt lat="45.12584" lon="4.53787">
        <ele>1104.5</ele>
        <time>2026-05-01T12:31:47Z</time>
      </trkpt>
      <trkpt lat="45.12584" lon="4.53787">
        <ele>1104.5</ele>
        <time>2026-05-01T12:31:52Z</time>
      </trkpt>
      <trkpt lat="45.12585" lon="4.53787">
        <ele>1104.7</ele>
        <time>2026-05-01T12:31:57Z</time>
      </trkpt>
      <trkpt lat="45.12585" lon="4.53787">
        <ele>1104.7</ele>
        <time>2026-05-01T12:32:02Z</time>
      </trkpt>
      <trkpt lat="45.12585" lon="4.53787">
        <ele>1104.7</ele>
        <time>2026-05-01T12:32:07Z</time>
      </trkpt>
      <trkpt lat="45.12587" lon="4.53783">
        <ele>1105.5</ele>
        <time>2026-05-01T12:32:12Z</time>
      </trkpt>
      <trkpt lat="45.12587" lon="4.53777">
        <ele>1105.9</ele>
        <time>2026-05-01T12:32:17Z</time>
      </trkpt>
      <trkpt lat="45.12591" lon="4.53779">
        <ele>1106.6</ele>
        <time>2026-05-01T12:32:22Z</time>
      </trkpt>
      <trkpt lat="45.12594" lon="4.53786">
        <ele>1106.9</ele>
        <time>2026-05-01T12:32:27Z</time>
      </trkpt>
      <trkpt lat="45.12597" lon="4.53792">
        <ele>1107.3</ele>
        <time>2026-05-01T12:32:32Z</time>
      </trkpt>
      <trkpt lat="45.12601" lon="4.53798">
        <ele>1107.9</ele>
        <time>2026-05-01T12:32:37Z</time>
      </trkpt>
      <trkpt lat="45.12604" lon="4.53804">
        <ele>1108.4</ele>
        <time>2026-05-01T12:32:42Z</time>
      </trkpt>
      <trkpt lat="45.12607" lon="4.53808">
        <ele>1108.9</ele>
        <time>2026-05-01T12:32:47Z</time>
      </trkpt>
      <trkpt lat="45.12609" lon="4.53813">
        <ele>1109.3</ele>
        <time>2026-05-01T12:32:52Z</time>
      </trkpt>
      <trkpt lat="45.12611" lon="4.53819">
        <ele>1109.5</ele>
        <time>2026-05-01T12:32:57Z</time>
      </trkpt>
      <trkpt lat="45.12613" lon="4.53825">
        <ele>1109.9</ele>
        <time>2026-05-01T12:33:02Z</time>
      </trkpt>
      <trkpt lat="45.12615" lon="4.5383">
        <ele>1110.2</ele>
        <time>2026-05-01T12:33:07Z</time>
      </trkpt>
      <trkpt lat="45.12618" lon="4.53834">
        <ele>1110.9</ele>
        <time>2026-05-01T12:33:12Z</time>
      </trkpt>
      <trkpt lat="45.12621" lon="4.53839">
        <ele>1110.8</ele>
        <time>2026-05-01T12:33:17Z</time>
      </trkpt>
      <trkpt lat="45.12623" lon="4.53846">
        <ele>1110</ele>
        <time>2026-05-01T12:33:22Z</time>
      </trkpt>
      <trkpt lat="45.12626" lon="4.53851">
        <ele>1110</ele>
        <time>2026-05-01T12:33:27Z</time>
      </trkpt>
      <trkpt lat="45.12629" lon="4.53856">
        <ele>1110</ele>
        <time>2026-05-01T12:33:32Z</time>
      </trkpt>
      <trkpt lat="45.12633" lon="4.53863">
        <ele>1110</ele>
        <time>2026-05-01T12:33:37Z</time>
      </trkpt>
      <trkpt lat="45.12637" lon="4.5387">
        <ele>1110</ele>
        <time>2026-05-01T12:33:42Z</time>
      </trkpt>
      <trkpt lat="45.12641" lon="4.53876">
        <ele>1110.2</ele>
        <time>2026-05-01T12:33:47Z</time>
      </trkpt>
      <trkpt lat="45.12643" lon="4.53882">
        <ele>1109.8</ele>
        <time>2026-05-01T12:33:52Z</time>
      </trkpt>
      <trkpt lat="45.12644" lon="4.53888">
        <ele>1109.1</ele>
        <time>2026-05-01T12:33:57Z</time>
      </trkpt>
      <trkpt lat="45.12646" lon="4.5389">
        <ele>1109.4</ele>
        <time>2026-05-01T12:34:02Z</time>
      </trkpt>
      <trkpt lat="45.12648" lon="4.53894">
        <ele>1109.3</ele>
        <time>2026-05-01T12:34:07Z</time>
      </trkpt>
      <trkpt lat="45.12653" lon="4.53899">
        <ele>1110.2</ele>
        <time>2026-05-01T12:34:12Z</time>
      </trkpt>
      <trkpt lat="45.12657" lon="4.53903">
        <ele>1110.9</ele>
        <time>2026-05-01T12:34:17Z</time>
      </trkpt>
      <trkpt lat="45.1266" lon="4.53908">
        <ele>1111.1</ele>
        <time>2026-05-01T12:34:22Z</time>
      </trkpt>
      <trkpt lat="45.12664" lon="4.53911">
        <ele>1112</ele>
        <time>2026-05-01T12:34:27Z</time>
      </trkpt>
      <trkpt lat="45.12667" lon="4.53914">
        <ele>1112.5</ele>
        <time>2026-05-01T12:34:32Z</time>
      </trkpt>
      <trkpt lat="45.1267" lon="4.53916">
        <ele>1113.3</ele>
        <time>2026-05-01T12:34:37Z</time>
      </trkpt>
      <trkpt lat="45.12673" lon="4.53921">
        <ele>1113.3</ele>
        <time>2026-05-01T12:34:42Z</time>
      </trkpt>
      <trkpt lat="45.12677" lon="4.53925">
        <ele>1113.8</ele>
        <time>2026-05-01T12:34:47Z</time>
      </trkpt>
      <trkpt lat="45.12681" lon="4.5393">
        <ele>1114.1</ele>
        <time>2026-05-01T12:34:52Z</time>
      </trkpt>
      <trkpt lat="45.12684" lon="4.53935">
        <ele>1114.1</ele>
        <time>2026-05-01T12:34:57Z</time>
      </trkpt>
      <trkpt lat="45.12686" lon="4.53939">
        <ele>1113.9</ele>
        <time>2026-05-01T12:35:02Z</time>
      </trkpt>
      <trkpt lat="45.12687" lon="4.53945">
        <ele>1112.9</ele>
        <time>2026-05-01T12:35:07Z</time>
      </trkpt>
      <trkpt lat="45.12689" lon="4.53952">
        <ele>1112.1</ele>
        <time>2026-05-01T12:35:12Z</time>
      </trkpt>
      <trkpt lat="45.12691" lon="4.53957">
        <ele>1111.7</ele>
        <time>2026-05-01T12:35:17Z</time>
      </trkpt>
      <trkpt lat="45.12693" lon="4.53961">
        <ele>1111.6</ele>
        <time>2026-05-01T12:35:22Z</time>
      </trkpt>
      <trkpt lat="45.12696" lon="4.53963">
        <ele>1112.4</ele>
        <time>2026-05-01T12:35:27Z</time>
      </trkpt>
      <trkpt lat="45.12697" lon="4.53968">
        <ele>1111.7</ele>
        <time>2026-05-01T12:35:32Z</time>
      </trkpt>
      <trkpt lat="45.12699" lon="4.53971">
        <ele>1111.9</ele>
        <time>2026-05-01T12:35:37Z</time>
      </trkpt>
      <trkpt lat="45.12701" lon="4.53976">
        <ele>1111.6</ele>
        <time>2026-05-01T12:35:42Z</time>
      </trkpt>
      <trkpt lat="45.12704" lon="4.53979">
        <ele>1112.2</ele>
        <time>2026-05-01T12:35:47Z</time>
      </trkpt>
      <trkpt lat="45.12705" lon="4.53984">
        <ele>1111.5</ele>
        <time>2026-05-01T12:35:52Z</time>
      </trkpt>
      <trkpt lat="45.12707" lon="4.5399">
        <ele>1111.1</ele>
        <time>2026-05-01T12:35:57Z</time>
      </trkpt>
      <trkpt lat="45.12708" lon="4.53993">
        <ele>1110.9</ele>
        <time>2026-05-01T12:36:02Z</time>
      </trkpt>
      <trkpt lat="45.1271" lon="4.53999">
        <ele>1110.5</ele>
        <time>2026-05-01T12:36:07Z</time>
      </trkpt>
      <trkpt lat="45.12714" lon="4.54003">
        <ele>1111.5</ele>
        <time>2026-05-01T12:36:12Z</time>
      </trkpt>
      <trkpt lat="45.12717" lon="4.54007">
        <ele>1112.1</ele>
        <time>2026-05-01T12:36:17Z</time>
      </trkpt>
      <trkpt lat="45.12722" lon="4.54012">
        <ele>1113.4</ele>
        <time>2026-05-01T12:36:22Z</time>
      </trkpt>
      <trkpt lat="45.12725" lon="4.54016">
        <ele>1113.9</ele>
        <time>2026-05-01T12:36:27Z</time>
      </trkpt>
      <trkpt lat="45.12729" lon="4.54021">
        <ele>1114.8</ele>
        <time>2026-05-01T12:36:32Z</time>
      </trkpt>
      <trkpt lat="45.12733" lon="4.54026">
        <ele>1115.6</ele>
        <time>2026-05-01T12:36:37Z</time>
      </trkpt>
      <trkpt lat="45.12737" lon="4.54033">
        <ele>1116</ele>
        <time>2026-05-01T12:36:42Z</time>
      </trkpt>
      <trkpt lat="45.12741" lon="4.54038">
        <ele>1116.8</ele>
        <time>2026-05-01T12:36:47Z</time>
      </trkpt>
      <trkpt lat="45.12745" lon="4.54044">
        <ele>1117.4</ele>
        <time>2026-05-01T12:36:52Z</time>
      </trkpt>
      <trkpt lat="45.12747" lon="4.5405">
        <ele>1117.1</ele>
        <time>2026-05-01T12:36:57Z</time>
      </trkpt>
      <trkpt lat="45.12751" lon="4.54059">
        <ele>1117.2</ele>
        <time>2026-05-01T12:37:02Z</time>
      </trkpt>
      <trkpt lat="45.12753" lon="4.54064">
        <ele>1117.2</ele>
        <time>2026-05-01T12:37:07Z</time>
      </trkpt>
      <trkpt lat="45.12756" lon="4.5407">
        <ele>1117.6</ele>
        <time>2026-05-01T12:37:12Z</time>
      </trkpt>
      <trkpt lat="45.1276" lon="4.54078">
        <ele>1118.2</ele>
        <time>2026-05-01T12:37:17Z</time>
      </trkpt>
      <trkpt lat="45.12762" lon="4.54086">
        <ele>1118.4</ele>
        <time>2026-05-01T12:37:22Z</time>
      </trkpt>
      <trkpt lat="45.12764" lon="4.54091">
        <ele>1119.5</ele>
        <time>2026-05-01T12:37:27Z</time>
      </trkpt>
      <trkpt lat="45.12766" lon="4.54099">
        <ele>1120.6</ele>
        <time>2026-05-01T12:37:32Z</time>
      </trkpt>
      <trkpt lat="45.12766" lon="4.54107">
        <ele>1120.6</ele>
        <time>2026-05-01T12:37:37Z</time>
      </trkpt>
      <trkpt lat="45.12768" lon="4.54114">
        <ele>1121.7</ele>
        <time>2026-05-01T12:37:42Z</time>
      </trkpt>
      <trkpt lat="45.12767" lon="4.5412">
        <ele>1121.2</ele>
        <time>2026-05-01T12:37:47Z</time>
      </trkpt>
      <trkpt lat="45.12767" lon="4.54121">
        <ele>1121.2</ele>
        <time>2026-05-01T12:37:52Z</time>
      </trkpt>
      <trkpt lat="45.12767" lon="4.54121">
        <ele>1121.2</ele>
        <time>2026-05-01T12:37:57Z</time>
      </trkpt>
      <trkpt lat="45.12767" lon="4.54121">
        <ele>1121.2</ele>
        <time>2026-05-01T12:38:02Z</time>
      </trkpt>
      <trkpt lat="45.12767" lon="4.54121">
        <ele>1121.2</ele>
        <time>2026-05-01T12:38:07Z</time>
      </trkpt>
      <trkpt lat="45.12767" lon="4.54121">
        <ele>1121.2</ele>
        <time>2026-05-01T12:38:12Z</time>
      </trkpt>
      <trkpt lat="45.12767" lon="4.54121">
        <ele>1121.2</ele>
        <time>2026-05-01T12:38:17Z</time>
      </trkpt>
      <trkpt lat="45.12767" lon="4.54127">
        <ele>1121.3</ele>
        <time>2026-05-01T12:38:22Z</time>
      </trkpt>
      <trkpt lat="45.12767" lon="4.54133">
        <ele>1121.3</ele>
        <time>2026-05-01T12:38:27Z</time>
      </trkpt>
      <trkpt lat="45.1277" lon="4.54138">
        <ele>1122.8</ele>
        <time>2026-05-01T12:38:32Z</time>
      </trkpt>
      <trkpt lat="45.12771" lon="4.54144">
        <ele>1123.3</ele>
        <time>2026-05-01T12:38:37Z</time>
      </trkpt>
      <trkpt lat="45.12775" lon="4.54152">
        <ele>1125.1</ele>
        <time>2026-05-01T12:38:42Z</time>
      </trkpt>
      <trkpt lat="45.1278" lon="4.5416">
        <ele>1127.4</ele>
        <time>2026-05-01T12:38:47Z</time>
      </trkpt>
      <trkpt lat="45.12782" lon="4.54169">
        <ele>1127.9</ele>
        <time>2026-05-01T12:38:52Z</time>
      </trkpt>
      <trkpt lat="45.12783" lon="4.54177">
        <ele>1127.4</ele>
        <time>2026-05-01T12:38:57Z</time>
      </trkpt>
      <trkpt lat="45.12785" lon="4.54185">
        <ele>1127.3</ele>
        <time>2026-05-01T12:39:02Z</time>
      </trkpt>
      <trkpt lat="45.1279" lon="4.54192">
        <ele>1128.6</ele>
        <time>2026-05-01T12:39:07Z</time>
      </trkpt>
      <trkpt lat="45.12793" lon="4.54199">
        <ele>1129</ele>
        <time>2026-05-01T12:39:12Z</time>
      </trkpt>
      <trkpt lat="45.12796" lon="4.54206">
        <ele>1129.3</ele>
        <time>2026-05-01T12:39:17Z</time>
      </trkpt>
      <trkpt lat="45.12801" lon="4.54214">
        <ele>1130.4</ele>
        <time>2026-05-01T12:39:22Z</time>
      </trkpt>
      <trkpt lat="45.12805" lon="4.54221">
        <ele>1131.1</ele>
        <time>2026-05-01T12:39:27Z</time>
      </trkpt>
      <trkpt lat="45.1281" lon="4.54229">
        <ele>1132</ele>
        <time>2026-05-01T12:39:32Z</time>
      </trkpt>
      <trkpt lat="45.12814" lon="4.54238">
        <ele>1132.3</ele>
        <time>2026-05-01T12:39:37Z</time>
      </trkpt>
      <trkpt lat="45.12818" lon="4.54245">
        <ele>1132.8</ele>
        <time>2026-05-01T12:39:42Z</time>
      </trkpt>
      <trkpt lat="45.12822" lon="4.54253">
        <ele>1132.8</ele>
        <time>2026-05-01T12:39:47Z</time>
      </trkpt>
      <trkpt lat="45.12825" lon="4.54263">
        <ele>1131</ele>
        <time>2026-05-01T12:39:52Z</time>
      </trkpt>
      <trkpt lat="45.12831" lon="4.54278">
        <ele>1128.7</ele>
        <time>2026-05-01T12:39:57Z</time>
      </trkpt>
      <trkpt lat="45.12838" lon="4.54285">
        <ele>1129.3</ele>
        <time>2026-05-01T12:40:02Z</time>
      </trkpt>
      <trkpt lat="45.12841" lon="4.54292">
        <ele>1128.3</ele>
        <time>2026-05-01T12:40:07Z</time>
      </trkpt>
      <trkpt lat="45.12846" lon="4.54295">
        <ele>1129.4</ele>
        <time>2026-05-01T12:40:12Z</time>
      </trkpt>
      <trkpt lat="45.1285" lon="4.543">
        <ele>1129.5</ele>
        <time>2026-05-01T12:40:17Z</time>
      </trkpt>
      <trkpt lat="45.12855" lon="4.54305">
        <ele>1130.1</ele>
        <time>2026-05-01T12:40:22Z</time>
      </trkpt>
      <trkpt lat="45.12859" lon="4.54313">
        <ele>1129.4</ele>
        <time>2026-05-01T12:40:27Z</time>
      </trkpt>
      <trkpt lat="45.12864" lon="4.54321">
        <ele>1129.3</ele>
        <time>2026-05-01T12:40:32Z</time>
      </trkpt>
      <trkpt lat="45.12868" lon="4.5433">
        <ele>1128.5</ele>
        <time>2026-05-01T12:40:37Z</time>
      </trkpt>
      <trkpt lat="45.12873" lon="4.54339">
        <ele>1128.2</ele>
        <time>2026-05-01T12:40:42Z</time>
      </trkpt>
      <trkpt lat="45.12877" lon="4.54349">
        <ele>1127.4</ele>
        <time>2026-05-01T12:40:47Z</time>
      </trkpt>
      <trkpt lat="45.1288" lon="4.54359">
        <ele>1126.2</ele>
        <time>2026-05-01T12:40:52Z</time>
      </trkpt>
      <trkpt lat="45.12883" lon="4.54366">
        <ele>1125.7</ele>
        <time>2026-05-01T12:40:57Z</time>
      </trkpt>
      <trkpt lat="45.12886" lon="4.54376">
        <ele>1124.5</ele>
        <time>2026-05-01T12:41:02Z</time>
      </trkpt>
      <trkpt lat="45.12889" lon="4.54385">
        <ele>1123.6</ele>
        <time>2026-05-01T12:41:07Z</time>
      </trkpt>
      <trkpt lat="45.12893" lon="4.54396">
        <ele>1122.6</ele>
        <time>2026-05-01T12:41:12Z</time>
      </trkpt>
      <trkpt lat="45.12896" lon="4.54402">
        <ele>1122.4</ele>
        <time>2026-05-01T12:41:17Z</time>
      </trkpt>
      <trkpt lat="45.12897" lon="4.5441">
        <ele>1120.9</ele>
        <time>2026-05-01T12:41:22Z</time>
      </trkpt>
      <trkpt lat="45.12898" lon="4.54419">
        <ele>1119.5</ele>
        <time>2026-05-01T12:41:27Z</time>
      </trkpt>
      <trkpt lat="45.12902" lon="4.54429">
        <ele>1120.3</ele>
        <time>2026-05-01T12:41:32Z</time>
      </trkpt>
      <trkpt lat="45.12904" lon="4.54439">
        <ele>1120.2</ele>
        <time>2026-05-01T12:41:37Z</time>
      </trkpt>
      <trkpt lat="45.12906" lon="4.54448">
        <ele>1120.3</ele>
        <time>2026-05-01T12:41:42Z</time>
      </trkpt>
      <trkpt lat="45.12908" lon="4.54458">
        <ele>1120.3</ele>
        <time>2026-05-01T12:41:47Z</time>
      </trkpt>
      <trkpt lat="45.1291" lon="4.54468">
        <ele>1120.4</ele>
        <time>2026-05-01T12:41:52Z</time>
      </trkpt>
      <trkpt lat="45.12911" lon="4.54478">
        <ele>1120</ele>
        <time>2026-05-01T12:41:57Z</time>
      </trkpt>
      <trkpt lat="45.12913" lon="4.5449">
        <ele>1119.9</ele>
        <time>2026-05-01T12:42:02Z</time>
      </trkpt>
      <trkpt lat="45.12915" lon="4.54498">
        <ele>1120.3</ele>
        <time>2026-05-01T12:42:07Z</time>
      </trkpt>
      <trkpt lat="45.12915" lon="4.54509">
        <ele>1119.1</ele>
        <time>2026-05-01T12:42:12Z</time>
      </trkpt>
      <trkpt lat="45.12918" lon="4.54521">
        <ele>1119.1</ele>
        <time>2026-05-01T12:42:17Z</time>
      </trkpt>
      <trkpt lat="45.12917" lon="4.54532">
        <ele>1117.3</ele>
        <time>2026-05-01T12:42:22Z</time>
      </trkpt>
      <trkpt lat="45.12918" lon="4.54543">
        <ele>1116.5</ele>
        <time>2026-05-01T12:42:27Z</time>
      </trkpt>
      <trkpt lat="45.12918" lon="4.54551">
        <ele>1115.5</ele>
        <time>2026-05-01T12:42:32Z</time>
      </trkpt>
      <trkpt lat="45.12918" lon="4.54562">
        <ele>1114.2</ele>
        <time>2026-05-01T12:42:37Z</time>
      </trkpt>
      <trkpt lat="45.12919" lon="4.54576">
        <ele>1113</ele>
        <time>2026-05-01T12:42:42Z</time>
      </trkpt>
      <trkpt lat="45.12919" lon="4.54586">
        <ele>1112</ele>
        <time>2026-05-01T12:42:47Z</time>
      </trkpt>
      <trkpt lat="45.12918" lon="4.54592">
        <ele>1111</ele>
        <time>2026-05-01T12:42:52Z</time>
      </trkpt>
      <trkpt lat="45.12915" lon="4.54594">
        <ele>1109.5</ele>
        <time>2026-05-01T12:42:57Z</time>
      </trkpt>
      <trkpt lat="45.12915" lon="4.54594">
        <ele>1109.5</ele>
        <time>2026-05-01T12:43:02Z</time>
      </trkpt>
      <trkpt lat="45.12918" lon="4.54602">
        <ele>1110.3</ele>
        <time>2026-05-01T12:43:07Z</time>
      </trkpt>
      <trkpt lat="45.12921" lon="4.54613">
        <ele>1111</ele>
        <time>2026-05-01T12:43:12Z</time>
      </trkpt>
      <trkpt lat="45.12923" lon="4.54621">
        <ele>1111.4</ele>
        <time>2026-05-01T12:43:17Z</time>
      </trkpt>
      <trkpt lat="45.12924" lon="4.5463">
        <ele>1111.2</ele>
        <time>2026-05-01T12:43:22Z</time>
      </trkpt>
      <trkpt lat="45.12925" lon="4.54637">
        <ele>1111.1</ele>
        <time>2026-05-01T12:43:27Z</time>
      </trkpt>
      <trkpt lat="45.12925" lon="4.54645">
        <ele>1110.5</ele>
        <time>2026-05-01T12:43:32Z</time>
      </trkpt>
      <trkpt lat="45.12925" lon="4.54653">
        <ele>1109.9</ele>
        <time>2026-05-01T12:43:37Z</time>
      </trkpt>
      <trkpt lat="45.12925" lon="4.54663">
        <ele>1109.2</ele>
        <time>2026-05-01T12:43:42Z</time>
      </trkpt>
      <trkpt lat="45.12925" lon="4.54668">
        <ele>1108.8</ele>
        <time>2026-05-01T12:43:47Z</time>
      </trkpt>
      <trkpt lat="45.12924" lon="4.54672">
        <ele>1107.9</ele>
        <time>2026-05-01T12:43:52Z</time>
      </trkpt>
      <trkpt lat="45.12921" lon="4.54674">
        <ele>1106.3</ele>
        <time>2026-05-01T12:43:57Z</time>
      </trkpt>
      <trkpt lat="45.12917" lon="4.54675">
        <ele>1104.4</ele>
        <time>2026-05-01T12:44:02Z</time>
      </trkpt>
      <trkpt lat="45.12916" lon="4.54677">
        <ele>1103.7</ele>
        <time>2026-05-01T12:44:07Z</time>
      </trkpt>
      <trkpt lat="45.12916" lon="4.54677">
        <ele>1103.7</ele>
        <time>2026-05-01T12:44:12Z</time>
      </trkpt>
      <trkpt lat="45.12916" lon="4.54677">
        <ele>1103.7</ele>
        <time>2026-05-01T12:44:17Z</time>
      </trkpt>
      <trkpt lat="45.12916" lon="4.54677">
        <ele>1103.7</ele>
        <time>2026-05-01T12:44:22Z</time>
      </trkpt>
      <trkpt lat="45.12916" lon="4.54677">
        <ele>1103.7</ele>
        <time>2026-05-01T12:44:27Z</time>
      </trkpt>
      <trkpt lat="45.12916" lon="4.54677">
        <ele>1103.7</ele>
        <time>2026-05-01T12:44:32Z</time>
      </trkpt>
      <trkpt lat="45.12916" lon="4.54677">
        <ele>1103.7</ele>
        <time>2026-05-01T12:44:37Z</time>
      </trkpt>
      <trkpt lat="45.12916" lon="4.54677">
        <ele>1103.7</ele>
        <time>2026-05-01T12:44:42Z</time>
      </trkpt>
      <trkpt lat="45.12916" lon="4.54677">
        <ele>1103.7</ele>
        <time>2026-05-01T12:44:47Z</time>
      </trkpt>
      <trkpt lat="45.12916" lon="4.54677">
        <ele>1103.7</ele>
        <time>2026-05-01T12:44:52Z</time>
      </trkpt>
      <trkpt lat="45.12916" lon="4.54677">
        <ele>1103.7</ele>
        <time>2026-05-01T12:44:57Z</time>
      </trkpt>
      <trkpt lat="45.12916" lon="4.54677">
        <ele>1103.7</ele>
        <time>2026-05-01T12:45:02Z</time>
      </trkpt>
      <trkpt lat="45.12916" lon="4.54677">
        <ele>1103.7</ele>
        <time>2026-05-01T12:45:07Z</time>
      </trkpt>
      <trkpt lat="45.12916" lon="4.54677">
        <ele>1103.7</ele>
        <time>2026-05-01T12:45:12Z</time>
      </trkpt>
      <trkpt lat="45.12916" lon="4.54677">
        <ele>1103.7</ele>
        <time>2026-05-01T12:45:17Z</time>
      </trkpt>
      <trkpt lat="45.12916" lon="4.54677">
        <ele>1103.7</ele>
        <time>2026-05-01T12:45:22Z</time>
      </trkpt>
      <trkpt lat="45.12916" lon="4.54677">
        <ele>1103.7</ele>
        <time>2026-05-01T12:45:27Z</time>
      </trkpt>
      <trkpt lat="45.12916" lon="4.54677">
        <ele>1103.7</ele>
        <time>2026-05-01T12:45:32Z</time>
      </trkpt>
      <trkpt lat="45.12916" lon="4.54677">
        <ele>1103.7</ele>
        <time>2026-05-01T12:45:37Z</time>
      </trkpt>
      <trkpt lat="45.12916" lon="4.54677">
        <ele>1103.7</ele>
        <time>2026-05-01T12:45:42Z</time>
      </trkpt>
      <trkpt lat="45.12916" lon="4.54677">
        <ele>1103.7</ele>
        <time>2026-05-01T12:45:47Z</time>
      </trkpt>
      <trkpt lat="45.12916" lon="4.54677">
        <ele>1103.7</ele>
        <time>2026-05-01T12:45:52Z</time>
      </trkpt>
      <trkpt lat="45.12916" lon="4.54677">
        <ele>1103.7</ele>
        <time>2026-05-01T12:45:57Z</time>
      </trkpt>
      <trkpt lat="45.12916" lon="4.54677">
        <ele>1103.7</ele>
        <time>2026-05-01T12:46:02Z</time>
      </trkpt>
      <trkpt lat="45.12916" lon="4.54677">
        <ele>1103.7</ele>
        <time>2026-05-01T12:46:07Z</time>
      </trkpt>
      <trkpt lat="45.12916" lon="4.54677">
        <ele>1103.7</ele>
        <time>2026-05-01T12:46:12Z</time>
      </trkpt>
      <trkpt lat="45.12916" lon="4.54677">
        <ele>1103.7</ele>
        <time>2026-05-01T12:46:17Z</time>
      </trkpt>
      <trkpt lat="45.12918" lon="4.54678">
        <ele>1104.5</ele>
        <time>2026-05-01T12:46:22Z</time>
      </trkpt>
      <trkpt lat="45.12918" lon="4.54678">
        <ele>1104.5</ele>
        <time>2026-05-01T12:46:27Z</time>
      </trkpt>
      <trkpt lat="45.12918" lon="4.54678">
        <ele>1104.5</ele>
        <time>2026-05-01T12:46:32Z</time>
      </trkpt>
      <trkpt lat="45.12918" lon="4.54678">
        <ele>1104.5</ele>
        <time>2026-05-01T12:46:37Z</time>
      </trkpt>
      <trkpt lat="45.12918" lon="4.54678">
        <ele>1104.5</ele>
        <time>2026-05-01T12:46:42Z</time>
      </trkpt>
      <trkpt lat="45.12918" lon="4.54678">
        <ele>1104.5</ele>
        <time>2026-05-01T12:46:47Z</time>
      </trkpt>
      <trkpt lat="45.12918" lon="4.54678">
        <ele>1104.5</ele>
        <time>2026-05-01T12:46:52Z</time>
      </trkpt>
      <trkpt lat="45.12918" lon="4.54678">
        <ele>1104.5</ele>
        <time>2026-05-01T12:46:57Z</time>
      </trkpt>
      <trkpt lat="45.12918" lon="4.54678">
        <ele>1104.5</ele>
        <time>2026-05-01T12:47:02Z</time>
      </trkpt>
      <trkpt lat="45.12924" lon="4.54671">
        <ele>1108</ele>
        <time>2026-05-01T12:47:07Z</time>
      </trkpt>
      <trkpt lat="45.12924" lon="4.54671">
        <ele>1108</ele>
        <time>2026-05-01T12:47:12Z</time>
      </trkpt>
      <trkpt lat="45.12924" lon="4.54671">
        <ele>1108</ele>
        <time>2026-05-01T12:47:17Z</time>
      </trkpt>
      <trkpt lat="45.12924" lon="4.54671">
        <ele>1108</ele>
        <time>2026-05-01T12:47:22Z</time>
      </trkpt>
      <trkpt lat="45.12924" lon="4.54671">
        <ele>1108</ele>
        <time>2026-05-01T12:47:27Z</time>
      </trkpt>
      <trkpt lat="45.12924" lon="4.54671">
        <ele>1108</ele>
        <time>2026-05-01T12:47:32Z</time>
      </trkpt>
      <trkpt lat="45.12924" lon="4.54671">
        <ele>1108</ele>
        <time>2026-05-01T12:47:37Z</time>
      </trkpt>
      <trkpt lat="45.12924" lon="4.54671">
        <ele>1108</ele>
        <time>2026-05-01T12:47:42Z</time>
      </trkpt>
      <trkpt lat="45.12927" lon="4.5467">
        <ele>1109.5</ele>
        <time>2026-05-01T12:47:47Z</time>
      </trkpt>
      <trkpt lat="45.12931" lon="4.54668">
        <ele>1111.6</ele>
        <time>2026-05-01T12:47:52Z</time>
      </trkpt>
      <trkpt lat="45.12935" lon="4.54669">
        <ele>1113.3</ele>
        <time>2026-05-01T12:47:57Z</time>
      </trkpt>
      <trkpt lat="45.12939" lon="4.5467">
        <ele>1115</ele>
        <time>2026-05-01T12:48:02Z</time>
      </trkpt>
      <trkpt lat="45.12943" lon="4.54672">
        <ele>1116.7</ele>
        <time>2026-05-01T12:48:07Z</time>
      </trkpt>
      <trkpt lat="45.12947" lon="4.54673">
        <ele>1118.4</ele>
        <time>2026-05-01T12:48:12Z</time>
      </trkpt>
      <trkpt lat="45.12951" lon="4.54675">
        <ele>1119.9</ele>
        <time>2026-05-01T12:48:17Z</time>
      </trkpt>
      <trkpt lat="45.12958" lon="4.54677">
        <ele>1122.9</ele>
        <time>2026-05-01T12:48:22Z</time>
      </trkpt>
      <trkpt lat="45.12966" lon="4.54682">
        <ele>1125.7</ele>
        <time>2026-05-01T12:48:27Z</time>
      </trkpt>
      <trkpt lat="45.12972" lon="4.54683">
        <ele>1128.3</ele>
        <time>2026-05-01T12:48:32Z</time>
      </trkpt>
      <trkpt lat="45.12978" lon="4.54683">
        <ele>1131</ele>
        <time>2026-05-01T12:48:37Z</time>
      </trkpt>
      <trkpt lat="45.12986" lon="4.5468">
        <ele>1135.1</ele>
        <time>2026-05-01T12:48:42Z</time>
      </trkpt>
      <trkpt lat="45.12991" lon="4.54678">
        <ele>1137.7</ele>
        <time>2026-05-01T12:48:47Z</time>
      </trkpt>
      <trkpt lat="45.12997" lon="4.54673">
        <ele>1141.4</ele>
        <time>2026-05-01T12:48:52Z</time>
      </trkpt>
      <trkpt lat="45.13006" lon="4.5467">
        <ele>1144.5</ele>
        <time>2026-05-01T12:48:57Z</time>
      </trkpt>
      <trkpt lat="45.13014" lon="4.54669">
        <ele>1146.2</ele>
        <time>2026-05-01T12:49:02Z</time>
      </trkpt>
      <trkpt lat="45.13021" lon="4.5467">
        <ele>1147.3</ele>
        <time>2026-05-01T12:49:07Z</time>
      </trkpt>
      <trkpt lat="45.13029" lon="4.54668">
        <ele>1149.3</ele>
        <time>2026-05-01T12:49:12Z</time>
      </trkpt>
      <trkpt lat="45.13037" lon="4.54668">
        <ele>1150.8</ele>
        <time>2026-05-01T12:49:17Z</time>
      </trkpt>
      <trkpt lat="45.13044" lon="4.54666">
        <ele>1152.6</ele>
        <time>2026-05-01T12:49:22Z</time>
      </trkpt>
      <trkpt lat="45.13051" lon="4.54663">
        <ele>1154.4</ele>
        <time>2026-05-01T12:49:27Z</time>
      </trkpt>
      <trkpt lat="45.13057" lon="4.54662">
        <ele>1155.8</ele>
        <time>2026-05-01T12:49:32Z</time>
      </trkpt>
      <trkpt lat="45.13063" lon="4.5466">
        <ele>1157.3</ele>
        <time>2026-05-01T12:49:37Z</time>
      </trkpt>
      <trkpt lat="45.13065" lon="4.54658">
        <ele>1158.1</ele>
        <time>2026-05-01T12:49:42Z</time>
      </trkpt>
      <trkpt lat="45.13069" lon="4.5466">
        <ele>1158.5</ele>
        <time>2026-05-01T12:49:47Z</time>
      </trkpt>
      <trkpt lat="45.13076" lon="4.54659">
        <ele>1160.1</ele>
        <time>2026-05-01T12:49:52Z</time>
      </trkpt>
      <trkpt lat="45.13083" lon="4.54658">
        <ele>1161.7</ele>
        <time>2026-05-01T12:49:57Z</time>
      </trkpt>
      <trkpt lat="45.13091" lon="4.54657">
        <ele>1161.3</ele>
        <time>2026-05-01T12:50:02Z</time>
      </trkpt>
      <trkpt lat="45.13097" lon="4.54656">
        <ele>1161</ele>
        <time>2026-05-01T12:50:07Z</time>
      </trkpt>
      <trkpt lat="45.13103" lon="4.54657">
        <ele>1160.3</ele>
        <time>2026-05-01T12:50:12Z</time>
      </trkpt>
      <trkpt lat="45.13109" lon="4.54658">
        <ele>1159.6</ele>
        <time>2026-05-01T12:50:17Z</time>
      </trkpt>
      <trkpt lat="45.13115" lon="4.54658">
        <ele>1159</ele>
        <time>2026-05-01T12:50:22Z</time>
      </trkpt>
      <trkpt lat="45.13121" lon="4.54659">
        <ele>1158.3</ele>
        <time>2026-05-01T12:50:27Z</time>
      </trkpt>
      <trkpt lat="45.1313" lon="4.54663">
        <ele>1156.5</ele>
        <time>2026-05-01T12:50:32Z</time>
      </trkpt>
      <trkpt lat="45.13136" lon="4.54667">
        <ele>1154.8</ele>
        <time>2026-05-01T12:50:37Z</time>
      </trkpt>
      <trkpt lat="45.13143" lon="4.54671">
        <ele>1152.9</ele>
        <time>2026-05-01T12:50:42Z</time>
      </trkpt>
      <trkpt lat="45.13148" lon="4.54673">
        <ele>1151.9</ele>
        <time>2026-05-01T12:50:47Z</time>
      </trkpt>
      <trkpt lat="45.13154" lon="4.54676">
        <ele>1150.3</ele>
        <time>2026-05-01T12:50:52Z</time>
      </trkpt>
      <trkpt lat="45.13158" lon="4.54679">
        <ele>1149</ele>
        <time>2026-05-01T12:50:57Z</time>
      </trkpt>
      <trkpt lat="45.13164" lon="4.54681">
        <ele>1147.8</ele>
        <time>2026-05-01T12:51:02Z</time>
      </trkpt>
      <trkpt lat="45.1317" lon="4.54682">
        <ele>1147.3</ele>
        <time>2026-05-01T12:51:07Z</time>
      </trkpt>
      <trkpt lat="45.13174" lon="4.54685">
        <ele>1146.6</ele>
        <time>2026-05-01T12:51:12Z</time>
      </trkpt>
      <trkpt lat="45.13178" lon="4.54688">
        <ele>1145.7</ele>
        <time>2026-05-01T12:51:17Z</time>
      </trkpt>
      <trkpt lat="45.13183" lon="4.54693">
        <ele>1144.3</ele>
        <time>2026-05-01T12:51:22Z</time>
      </trkpt>
      <trkpt lat="45.1319" lon="4.54697">
        <ele>1143.2</ele>
        <time>2026-05-01T12:51:27Z</time>
      </trkpt>
      <trkpt lat="45.13196" lon="4.547">
        <ele>1142.4</ele>
        <time>2026-05-01T12:51:32Z</time>
      </trkpt>
      <trkpt lat="45.13198" lon="4.54701">
        <ele>1142.2</ele>
        <time>2026-05-01T12:51:37Z</time>
      </trkpt>
      <trkpt lat="45.13198" lon="4.54701">
        <ele>1142.2</ele>
        <time>2026-05-01T12:51:42Z</time>
      </trkpt>
      <trkpt lat="45.13198" lon="4.54701">
        <ele>1142.2</ele>
        <time>2026-05-01T12:51:47Z</time>
      </trkpt>
      <trkpt lat="45.13203" lon="4.54704">
        <ele>1141.3</ele>
        <time>2026-05-01T12:51:52Z</time>
      </trkpt>
      <trkpt lat="45.13207" lon="4.54711">
        <ele>1139.1</ele>
        <time>2026-05-01T12:51:57Z</time>
      </trkpt>
      <trkpt lat="45.13211" lon="4.54717">
        <ele>1137.1</ele>
        <time>2026-05-01T12:52:02Z</time>
      </trkpt>
      <trkpt lat="45.13216" lon="4.5472">
        <ele>1136.2</ele>
        <time>2026-05-01T12:52:07Z</time>
      </trkpt>
      <trkpt lat="45.13221" lon="4.54724">
        <ele>1134.9</ele>
        <time>2026-05-01T12:52:12Z</time>
      </trkpt>
      <trkpt lat="45.13227" lon="4.54727">
        <ele>1134</ele>
        <time>2026-05-01T12:52:17Z</time>
      </trkpt>
      <trkpt lat="45.13232" lon="4.54732">
        <ele>1132.3</ele>
        <time>2026-05-01T12:52:22Z</time>
      </trkpt>
      <trkpt lat="45.13236" lon="4.54737">
        <ele>1130.6</ele>
        <time>2026-05-01T12:52:27Z</time>
      </trkpt>
      <trkpt lat="45.1324" lon="4.54741">
        <ele>1129.2</ele>
        <time>2026-05-01T12:52:32Z</time>
      </trkpt>
      <trkpt lat="45.13245" lon="4.54746">
        <ele>1127.4</ele>
        <time>2026-05-01T12:52:37Z</time>
      </trkpt>
      <trkpt lat="45.13251" lon="4.54749">
        <ele>1126.5</ele>
        <time>2026-05-01T12:52:42Z</time>
      </trkpt>
      <trkpt lat="45.13258" lon="4.54753">
        <ele>1126.2</ele>
        <time>2026-05-01T12:52:47Z</time>
      </trkpt>
      <trkpt lat="45.13265" lon="4.54758">
        <ele>1125.6</ele>
        <time>2026-05-01T12:52:52Z</time>
      </trkpt>
      <trkpt lat="45.13271" lon="4.54766">
        <ele>1123.9</ele>
        <time>2026-05-01T12:52:57Z</time>
      </trkpt>
      <trkpt lat="45.13276" lon="4.54771">
        <ele>1123.1</ele>
        <time>2026-05-01T12:53:02Z</time>
      </trkpt>
      <trkpt lat="45.13277" lon="4.54772">
        <ele>1122.9</ele>
        <time>2026-05-01T12:53:07Z</time>
      </trkpt>
      <trkpt lat="45.13277" lon="4.54773">
        <ele>1122.6</ele>
        <time>2026-05-01T12:53:12Z</time>
      </trkpt>
      <trkpt lat="45.13277" lon="4.54773">
        <ele>1122.6</ele>
        <time>2026-05-01T12:53:17Z</time>
      </trkpt>
      <trkpt lat="45.13282" lon="4.54779">
        <ele>1121.4</ele>
        <time>2026-05-01T12:53:22Z</time>
      </trkpt>
      <trkpt lat="45.13285" lon="4.54786">
        <ele>1119.7</ele>
        <time>2026-05-01T12:53:27Z</time>
      </trkpt>
      <trkpt lat="45.1329" lon="4.54791">
        <ele>1118.9</ele>
        <time>2026-05-01T12:53:32Z</time>
      </trkpt>
      <trkpt lat="45.13296" lon="4.54796">
        <ele>1118.4</ele>
        <time>2026-05-01T12:53:37Z</time>
      </trkpt>
      <trkpt lat="45.133" lon="4.54801">
        <ele>1117.5</ele>
        <time>2026-05-01T12:53:42Z</time>
      </trkpt>
      <trkpt lat="45.13304" lon="4.54804">
        <ele>1117.3</ele>
        <time>2026-05-01T12:53:47Z</time>
      </trkpt>
      <trkpt lat="45.13311" lon="4.54807">
        <ele>1117.7</ele>
        <time>2026-05-01T12:53:52Z</time>
      </trkpt>
      <trkpt lat="45.13314" lon="4.5481">
        <ele>1117.3</ele>
        <time>2026-05-01T12:53:57Z</time>
      </trkpt>
      <trkpt lat="45.13314" lon="4.5481">
        <ele>1117.3</ele>
        <time>2026-05-01T12:54:02Z</time>
      </trkpt>
      <trkpt lat="45.13314" lon="4.5481">
        <ele>1117.3</ele>
        <time>2026-05-01T12:54:07Z</time>
      </trkpt>
      <trkpt lat="45.13314" lon="4.5481">
        <ele>1117.3</ele>
        <time>2026-05-01T12:54:12Z</time>
      </trkpt>
      <trkpt lat="45.13314" lon="4.5481">
        <ele>1117.3</ele>
        <time>2026-05-01T12:54:17Z</time>
      </trkpt>
      <trkpt lat="45.13314" lon="4.5481">
        <ele>1117.3</ele>
        <time>2026-05-01T12:54:22Z</time>
      </trkpt>
      <trkpt lat="45.13314" lon="4.5481">
        <ele>1117.3</ele>
        <time>2026-05-01T12:54:27Z</time>
      </trkpt>
      <trkpt lat="45.13314" lon="4.5481">
        <ele>1117.3</ele>
        <time>2026-05-01T12:54:32Z</time>
      </trkpt>
      <trkpt lat="45.13314" lon="4.5481">
        <ele>1117.3</ele>
        <time>2026-05-01T12:54:37Z</time>
      </trkpt>
      <trkpt lat="45.13314" lon="4.5481">
        <ele>1117.3</ele>
        <time>2026-05-01T12:54:42Z</time>
      </trkpt>
      <trkpt lat="45.13314" lon="4.5481">
        <ele>1117.3</ele>
        <time>2026-05-01T12:54:47Z</time>
      </trkpt>
      <trkpt lat="45.13314" lon="4.5481">
        <ele>1117.3</ele>
        <time>2026-05-01T12:54:52Z</time>
      </trkpt>
      <trkpt lat="45.13314" lon="4.5481">
        <ele>1117.3</ele>
        <time>2026-05-01T12:54:57Z</time>
      </trkpt>
      <trkpt lat="45.13314" lon="4.5481">
        <ele>1117.3</ele>
        <time>2026-05-01T12:55:02Z</time>
      </trkpt>
      <trkpt lat="45.13314" lon="4.5481">
        <ele>1117.3</ele>
        <time>2026-05-01T12:55:07Z</time>
      </trkpt>
      <trkpt lat="45.13314" lon="4.5481">
        <ele>1117.3</ele>
        <time>2026-05-01T12:55:12Z</time>
      </trkpt>
      <trkpt lat="45.13314" lon="4.5481">
        <ele>1117.3</ele>
        <time>2026-05-01T12:55:17Z</time>
      </trkpt>
      <trkpt lat="45.13314" lon="4.5481">
        <ele>1117.3</ele>
        <time>2026-05-01T12:55:22Z</time>
      </trkpt>
      <trkpt lat="45.13314" lon="4.5481">
        <ele>1117.3</ele>
        <time>2026-05-01T12:55:27Z</time>
      </trkpt>
      <trkpt lat="45.13314" lon="4.5481">
        <ele>1117.3</ele>
        <time>2026-05-01T12:55:32Z</time>
      </trkpt>
      <trkpt lat="45.13314" lon="4.5481">
        <ele>1117.3</ele>
        <time>2026-05-01T12:55:37Z</time>
      </trkpt>
      <trkpt lat="45.13314" lon="4.5481">
        <ele>1117.3</ele>
        <time>2026-05-01T12:55:42Z</time>
      </trkpt>
      <trkpt lat="45.13314" lon="4.5481">
        <ele>1117.3</ele>
        <time>2026-05-01T12:55:47Z</time>
      </trkpt>
      <trkpt lat="45.13314" lon="4.5481">
        <ele>1117.3</ele>
        <time>2026-05-01T12:55:52Z</time>
      </trkpt>
      <trkpt lat="45.13314" lon="4.5481">
        <ele>1117.3</ele>
        <time>2026-05-01T12:55:57Z</time>
      </trkpt>
      <trkpt lat="45.13314" lon="4.5481">
        <ele>1117.3</ele>
        <time>2026-05-01T12:56:02Z</time>
      </trkpt>
      <trkpt lat="45.13314" lon="4.5481">
        <ele>1117.3</ele>
        <time>2026-05-01T12:56:07Z</time>
      </trkpt>
      <trkpt lat="45.13314" lon="4.5481">
        <ele>1117.3</ele>
        <time>2026-05-01T12:56:12Z</time>
      </trkpt>
      <trkpt lat="45.13314" lon="4.5481">
        <ele>1117.3</ele>
        <time>2026-05-01T12:56:17Z</time>
      </trkpt>
      <trkpt lat="45.13314" lon="4.5481">
        <ele>1117.3</ele>
        <time>2026-05-01T12:56:22Z</time>
      </trkpt>
      <trkpt lat="45.13314" lon="4.5481">
        <ele>1117.3</ele>
        <time>2026-05-01T12:56:27Z</time>
      </trkpt>
      <trkpt lat="45.13314" lon="4.5481">
        <ele>1117.3</ele>
        <time>2026-05-01T12:56:32Z</time>
      </trkpt>
      <trkpt lat="45.13314" lon="4.5481">
        <ele>1117.3</ele>
        <time>2026-05-01T12:56:37Z</time>
      </trkpt>
      <trkpt lat="45.13314" lon="4.5481">
        <ele>1117.3</ele>
        <time>2026-05-01T12:56:42Z</time>
      </trkpt>
      <trkpt lat="45.13314" lon="4.5481">
        <ele>1117.3</ele>
        <time>2026-05-01T12:56:47Z</time>
      </trkpt>
      <trkpt lat="45.13314" lon="4.5481">
        <ele>1117.3</ele>
        <time>2026-05-01T12:56:52Z</time>
      </trkpt>
      <trkpt lat="45.13321" lon="4.54813">
        <ele>1117.7</ele>
        <time>2026-05-01T12:56:57Z</time>
      </trkpt>
      <trkpt lat="45.13321" lon="4.54813">
        <ele>1117.7</ele>
        <time>2026-05-01T12:57:02Z</time>
      </trkpt>
      <trkpt lat="45.13321" lon="4.54813">
        <ele>1117.7</ele>
        <time>2026-05-01T12:57:07Z</time>
      </trkpt>
      <trkpt lat="45.13326" lon="4.54824">
        <ele>1115.3</ele>
        <time>2026-05-01T12:57:12Z</time>
      </trkpt>
      <trkpt lat="45.13329" lon="4.5483">
        <ele>1114.1</ele>
        <time>2026-05-01T12:57:17Z</time>
      </trkpt>
      <trkpt lat="45.13333" lon="4.54833">
        <ele>1114</ele>
        <time>2026-05-01T12:57:22Z</time>
      </trkpt>
      <trkpt lat="45.13335" lon="4.54835">
        <ele>1113.8</ele>
        <time>2026-05-01T12:57:27Z</time>
      </trkpt>
      <trkpt lat="45.13339" lon="4.54837">
        <ele>1114.1</ele>
        <time>2026-05-01T12:57:32Z</time>
      </trkpt>
      <trkpt lat="45.13345" lon="4.54839">
        <ele>1114.9</ele>
        <time>2026-05-01T12:57:37Z</time>
      </trkpt>
      <trkpt lat="45.13349" lon="4.54838">
        <ele>1116.1</ele>
        <time>2026-05-01T12:57:42Z</time>
      </trkpt>
      <trkpt lat="45.13355" lon="4.54838">
        <ele>1117.5</ele>
        <time>2026-05-01T12:57:47Z</time>
      </trkpt>
      <trkpt lat="45.13362" lon="4.54843">
        <ele>1117.5</ele>
        <time>2026-05-01T12:57:52Z</time>
      </trkpt>
      <trkpt lat="45.13367" lon="4.54849">
        <ele>1116.8</ele>
        <time>2026-05-01T12:57:57Z</time>
      </trkpt>
      <trkpt lat="45.1337" lon="4.5485">
        <ele>1117.2</ele>
        <time>2026-05-01T12:58:02Z</time>
      </trkpt>
      <trkpt lat="45.13376" lon="4.5485">
        <ele>1118.6</ele>
        <time>2026-05-01T12:58:07Z</time>
      </trkpt>
      <trkpt lat="45.13382" lon="4.54849">
        <ele>1120.3</ele>
        <time>2026-05-01T12:58:12Z</time>
      </trkpt>
      <trkpt lat="45.13388" lon="4.54849">
        <ele>1121.8</ele>
        <time>2026-05-01T12:58:17Z</time>
      </trkpt>
      <trkpt lat="45.13394" lon="4.54851">
        <ele>1122.6</ele>
        <time>2026-05-01T12:58:22Z</time>
      </trkpt>
      <trkpt lat="45.13398" lon="4.54854">
        <ele>1122.6</ele>
        <time>2026-05-01T12:58:27Z</time>
      </trkpt>
      <trkpt lat="45.13403" lon="4.54855">
        <ele>1123.5</ele>
        <time>2026-05-01T12:58:32Z</time>
      </trkpt>
      <trkpt lat="45.13409" lon="4.54859">
        <ele>1123.8</ele>
        <time>2026-05-01T12:58:37Z</time>
      </trkpt>
      <trkpt lat="45.13415" lon="4.54862">
        <ele>1124.3</ele>
        <time>2026-05-01T12:58:42Z</time>
      </trkpt>
      <trkpt lat="45.1342" lon="4.54865">
        <ele>1124.1</ele>
        <time>2026-05-01T12:58:47Z</time>
      </trkpt>
      <trkpt lat="45.13425" lon="4.54868">
        <ele>1123.6</ele>
        <time>2026-05-01T12:58:52Z</time>
      </trkpt>
      <trkpt lat="45.1343" lon="4.54871">
        <ele>1123.1</ele>
        <time>2026-05-01T12:58:57Z</time>
      </trkpt>
      <trkpt lat="45.13435" lon="4.54875">
        <ele>1122.3</ele>
        <time>2026-05-01T12:59:02Z</time>
      </trkpt>
      <trkpt lat="45.13441" lon="4.54881">
        <ele>1121</ele>
        <time>2026-05-01T12:59:07Z</time>
      </trkpt>
      <trkpt lat="45.13448" lon="4.54885">
        <ele>1120.4</ele>
        <time>2026-05-01T12:59:12Z</time>
      </trkpt>
      <trkpt lat="45.13452" lon="4.54888">
        <ele>1119.8</ele>
        <time>2026-05-01T12:59:17Z</time>
      </trkpt>
      <trkpt lat="45.13455" lon="4.54892">
        <ele>1118.9</ele>
        <time>2026-05-01T12:59:22Z</time>
      </trkpt>
      <trkpt lat="45.1346" lon="4.54895">
        <ele>1118.4</ele>
        <time>2026-05-01T12:59:27Z</time>
      </trkpt>
      <trkpt lat="45.13467" lon="4.54897">
        <ele>1118.3</ele>
        <time>2026-05-01T12:59:32Z</time>
      </trkpt>
      <trkpt lat="45.13473" lon="4.54902">
        <ele>1117.3</ele>
        <time>2026-05-01T12:59:37Z</time>
      </trkpt>
      <trkpt lat="45.13478" lon="4.54906">
        <ele>1116.5</ele>
        <time>2026-05-01T12:59:42Z</time>
      </trkpt>
      <trkpt lat="45.13482" lon="4.5491">
        <ele>1115.6</ele>
        <time>2026-05-01T12:59:47Z</time>
      </trkpt>
      <trkpt lat="45.13486" lon="4.54916">
        <ele>1114.2</ele>
        <time>2026-05-01T12:59:52Z</time>
      </trkpt>
      <trkpt lat="45.13491" lon="4.5492">
        <ele>1113.4</ele>
        <time>2026-05-01T12:59:57Z</time>
      </trkpt>
      <trkpt lat="45.13496" lon="4.54922">
        <ele>1113.2</ele>
        <time>2026-05-01T13:00:02Z</time>
      </trkpt>
      <trkpt lat="45.13501" lon="4.54925">
        <ele>1112.6</ele>
        <time>2026-05-01T13:00:07Z</time>
      </trkpt>
      <trkpt lat="45.13504" lon="4.54927">
        <ele>1112.2</ele>
        <time>2026-05-01T13:00:12Z</time>
      </trkpt>
      <trkpt lat="45.13508" lon="4.54931">
        <ele>1111.1</ele>
        <time>2026-05-01T13:00:17Z</time>
      </trkpt>
      <trkpt lat="45.13514" lon="4.54937">
        <ele>1109.5</ele>
        <time>2026-05-01T13:00:22Z</time>
      </trkpt>
      <trkpt lat="45.1352" lon="4.54944">
        <ele>1107.6</ele>
        <time>2026-05-01T13:00:27Z</time>
      </trkpt>
      <trkpt lat="45.13525" lon="4.54952">
        <ele>1105.3</ele>
        <time>2026-05-01T13:00:32Z</time>
      </trkpt>
      <trkpt lat="45.1353" lon="4.54957">
        <ele>1103.9</ele>
        <time>2026-05-01T13:00:37Z</time>
      </trkpt>
      <trkpt lat="45.13535" lon="4.54959">
        <ele>1103.4</ele>
        <time>2026-05-01T13:00:42Z</time>
      </trkpt>
      <trkpt lat="45.1354" lon="4.54963">
        <ele>1102.3</ele>
        <time>2026-05-01T13:00:47Z</time>
      </trkpt>
      <trkpt lat="45.13544" lon="4.54967">
        <ele>1101.1</ele>
        <time>2026-05-01T13:00:52Z</time>
      </trkpt>
      <trkpt lat="45.13549" lon="4.54971">
        <ele>1100</ele>
        <time>2026-05-01T13:00:57Z</time>
      </trkpt>
      <trkpt lat="45.13553" lon="4.54973">
        <ele>1099.4</ele>
        <time>2026-05-01T13:01:02Z</time>
      </trkpt>
      <trkpt lat="45.13556" lon="4.54977">
        <ele>1098.2</ele>
        <time>2026-05-01T13:01:07Z</time>
      </trkpt>
      <trkpt lat="45.1356" lon="4.5498">
        <ele>1097.3</ele>
        <time>2026-05-01T13:01:12Z</time>
      </trkpt>
      <trkpt lat="45.13565" lon="4.54984">
        <ele>1096.1</ele>
        <time>2026-05-01T13:01:17Z</time>
      </trkpt>
      <trkpt lat="45.1357" lon="4.54989">
        <ele>1094.5</ele>
        <time>2026-05-01T13:01:22Z</time>
      </trkpt>
      <trkpt lat="45.13571" lon="4.5499">
        <ele>1094.2</ele>
        <time>2026-05-01T13:01:27Z</time>
      </trkpt>
      <trkpt lat="45.13571" lon="4.5499">
        <ele>1094.2</ele>
        <time>2026-05-01T13:01:32Z</time>
      </trkpt>
      <trkpt lat="45.13571" lon="4.5499">
        <ele>1094.2</ele>
        <time>2026-05-01T13:01:37Z</time>
      </trkpt>
      <trkpt lat="45.13571" lon="4.5499">
        <ele>1094.2</ele>
        <time>2026-05-01T13:01:42Z</time>
      </trkpt>
      <trkpt lat="45.13571" lon="4.5499">
        <ele>1094.2</ele>
        <time>2026-05-01T13:01:47Z</time>
      </trkpt>
      <trkpt lat="45.13571" lon="4.5499">
        <ele>1094.2</ele>
        <time>2026-05-01T13:01:52Z</time>
      </trkpt>
      <trkpt lat="45.13571" lon="4.5499">
        <ele>1094.2</ele>
        <time>2026-05-01T13:01:57Z</time>
      </trkpt>
      <trkpt lat="45.13571" lon="4.5499">
        <ele>1094.2</ele>
        <time>2026-05-01T13:02:02Z</time>
      </trkpt>
      <trkpt lat="45.13571" lon="4.5499">
        <ele>1094.2</ele>
        <time>2026-05-01T13:02:07Z</time>
      </trkpt>
      <trkpt lat="45.13571" lon="4.5499">
        <ele>1094.2</ele>
        <time>2026-05-01T13:02:12Z</time>
      </trkpt>
      <trkpt lat="45.13571" lon="4.5499">
        <ele>1094.2</ele>
        <time>2026-05-01T13:02:17Z</time>
      </trkpt>
      <trkpt lat="45.13571" lon="4.5499">
        <ele>1094.2</ele>
        <time>2026-05-01T13:02:22Z</time>
      </trkpt>
      <trkpt lat="45.13571" lon="4.5499">
        <ele>1094.2</ele>
        <time>2026-05-01T13:02:27Z</time>
      </trkpt>
      <trkpt lat="45.13575" lon="4.54992">
        <ele>1093.6</ele>
        <time>2026-05-01T13:02:32Z</time>
      </trkpt>
      <trkpt lat="45.13577" lon="4.54998">
        <ele>1091.6</ele>
        <time>2026-05-01T13:02:37Z</time>
      </trkpt>
      <trkpt lat="45.13579" lon="4.55">
        <ele>1091</ele>
        <time>2026-05-01T13:02:42Z</time>
      </trkpt>
      <trkpt lat="45.13581" lon="4.55001">
        <ele>1090.7</ele>
        <time>2026-05-01T13:02:47Z</time>
      </trkpt>
      <trkpt lat="45.13581" lon="4.55001">
        <ele>1090.7</ele>
        <time>2026-05-01T13:02:52Z</time>
      </trkpt>
      <trkpt lat="45.13581" lon="4.55001">
        <ele>1090.7</ele>
        <time>2026-05-01T13:02:57Z</time>
      </trkpt>
      <trkpt lat="45.13581" lon="4.55001">
        <ele>1090.7</ele>
        <time>2026-05-01T13:03:02Z</time>
      </trkpt>
      <trkpt lat="45.13581" lon="4.55001">
        <ele>1090.7</ele>
        <time>2026-05-01T13:03:07Z</time>
      </trkpt>
      <trkpt lat="45.13585" lon="4.55011">
        <ele>1087.5</ele>
        <time>2026-05-01T13:03:12Z</time>
      </trkpt>
      <trkpt lat="45.13589" lon="4.55021">
        <ele>1084.6</ele>
        <time>2026-05-01T13:03:17Z</time>
      </trkpt>
      <trkpt lat="45.13595" lon="4.55026">
        <ele>1083.6</ele>
        <time>2026-05-01T13:03:22Z</time>
      </trkpt>
      <trkpt lat="45.13601" lon="4.55026">
        <ele>1084.3</ele>
        <time>2026-05-01T13:03:27Z</time>
      </trkpt>
      <trkpt lat="45.13605" lon="4.55028">
        <ele>1084.1</ele>
        <time>2026-05-01T13:03:32Z</time>
      </trkpt>
      <trkpt lat="45.13609" lon="4.55031">
        <ele>1083.6</ele>
        <time>2026-05-01T13:03:37Z</time>
      </trkpt>
      <trkpt lat="45.13617" lon="4.55033">
        <ele>1083.9</ele>
        <time>2026-05-01T13:03:42Z</time>
      </trkpt>
      <trkpt lat="45.13622" lon="4.55037">
        <ele>1083.2</ele>
        <time>2026-05-01T13:03:47Z</time>
      </trkpt>
      <trkpt lat="45.13627" lon="4.55043">
        <ele>1081.8</ele>
        <time>2026-05-01T13:03:52Z</time>
      </trkpt>
      <trkpt lat="45.13633" lon="4.55049">
        <ele>1080.6</ele>
        <time>2026-05-01T13:03:57Z</time>
      </trkpt>
      <trkpt lat="45.13639" lon="4.55056">
        <ele>1079.1</ele>
        <time>2026-05-01T13:04:02Z</time>
      </trkpt>
      <trkpt lat="45.13644" lon="4.55059">
        <ele>1078.8</ele>
        <time>2026-05-01T13:04:07Z</time>
      </trkpt>
      <trkpt lat="45.13648" lon="4.55064">
        <ele>1077.7</ele>
        <time>2026-05-01T13:04:12Z</time>
      </trkpt>
      <trkpt lat="45.13652" lon="4.55068">
        <ele>1076.9</ele>
        <time>2026-05-01T13:04:17Z</time>
      </trkpt>
      <trkpt lat="45.13659" lon="4.55071">
        <ele>1076.9</ele>
        <time>2026-05-01T13:04:22Z</time>
      </trkpt>
      <trkpt lat="45.13664" lon="4.55075">
        <ele>1076.3</ele>
        <time>2026-05-01T13:04:27Z</time>
      </trkpt>
      <trkpt lat="45.13669" lon="4.55079">
        <ele>1075.7</ele>
        <time>2026-05-01T13:04:32Z</time>
      </trkpt>
      <trkpt lat="45.13676" lon="4.55083">
        <ele>1075.6</ele>
        <time>2026-05-01T13:04:37Z</time>
      </trkpt>
      <trkpt lat="45.13683" lon="4.5509">
        <ele>1074.6</ele>
        <time>2026-05-01T13:04:42Z</time>
      </trkpt>
      <trkpt lat="45.13687" lon="4.55096">
        <ele>1073.5</ele>
        <time>2026-05-01T13:04:47Z</time>
      </trkpt>
      <trkpt lat="45.13694" lon="4.55103">
        <ele>1072.5</ele>
        <time>2026-05-01T13:04:52Z</time>
      </trkpt>
      <trkpt lat="45.13698" lon="4.55109">
        <ele>1071.4</ele>
        <time>2026-05-01T13:04:57Z</time>
      </trkpt>
      <trkpt lat="45.13703" lon="4.55112">
        <ele>1071.3</ele>
        <time>2026-05-01T13:05:02Z</time>
      </trkpt>
      <trkpt lat="45.1371" lon="4.55117">
        <ele>1070.9</ele>
        <time>2026-05-01T13:05:07Z</time>
      </trkpt>
      <trkpt lat="45.13714" lon="4.55125">
        <ele>1069.1</ele>
        <time>2026-05-01T13:05:12Z</time>
      </trkpt>
      <trkpt lat="45.1372" lon="4.55134">
        <ele>1067.3</ele>
        <time>2026-05-01T13:05:17Z</time>
      </trkpt>
      <trkpt lat="45.13724" lon="4.5514">
        <ele>1066.2</ele>
        <time>2026-05-01T13:05:22Z</time>
      </trkpt>
      <trkpt lat="45.13729" lon="4.55148">
        <ele>1064.5</ele>
        <time>2026-05-01T13:05:27Z</time>
      </trkpt>
      <trkpt lat="45.13734" lon="4.55154">
        <ele>1063.5</ele>
        <time>2026-05-01T13:05:32Z</time>
      </trkpt>
      <trkpt lat="45.13739" lon="4.5516">
        <ele>1062.4</ele>
        <time>2026-05-01T13:05:37Z</time>
      </trkpt>
      <trkpt lat="45.13742" lon="4.55165">
        <ele>1061.3</ele>
        <time>2026-05-01T13:05:42Z</time>
      </trkpt>
      <trkpt lat="45.13747" lon="4.55169">
        <ele>1061</ele>
        <time>2026-05-01T13:05:47Z</time>
      </trkpt>
      <trkpt lat="45.13753" lon="4.55174">
        <ele>1061.1</ele>
        <time>2026-05-01T13:05:52Z</time>
      </trkpt>
      <trkpt lat="45.13757" lon="4.5518">
        <ele>1060.8</ele>
        <time>2026-05-01T13:05:57Z</time>
      </trkpt>
      <trkpt lat="45.1376" lon="4.55185">
        <ele>1060.5</ele>
        <time>2026-05-01T13:06:02Z</time>
      </trkpt>
      <trkpt lat="45.13765" lon="4.5519">
        <ele>1060.7</ele>
        <time>2026-05-01T13:06:07Z</time>
      </trkpt>
      <trkpt lat="45.1377" lon="4.55196">
        <ele>1060.8</ele>
        <time>2026-05-01T13:06:12Z</time>
      </trkpt>
      <trkpt lat="45.13774" lon="4.55202">
        <ele>1060.5</ele>
        <time>2026-05-01T13:06:17Z</time>
      </trkpt>
      <trkpt lat="45.13779" lon="4.55207">
        <ele>1060.8</ele>
        <time>2026-05-01T13:06:22Z</time>
      </trkpt>
      <trkpt lat="45.13785" lon="4.55211">
        <ele>1061.6</ele>
        <time>2026-05-01T13:06:27Z</time>
      </trkpt>
      <trkpt lat="45.13788" lon="4.55215">
        <ele>1061.5</ele>
        <time>2026-05-01T13:06:32Z</time>
      </trkpt>
      <trkpt lat="45.13791" lon="4.55222">
        <ele>1060.9</ele>
        <time>2026-05-01T13:06:37Z</time>
      </trkpt>
      <trkpt lat="45.13796" lon="4.55227">
        <ele>1061.2</ele>
        <time>2026-05-01T13:06:42Z</time>
      </trkpt>
      <trkpt lat="45.138" lon="4.55231">
        <ele>1061.5</ele>
        <time>2026-05-01T13:06:47Z</time>
      </trkpt>
      <trkpt lat="45.13803" lon="4.55231">
        <ele>1062.3</ele>
        <time>2026-05-01T13:06:52Z</time>
      </trkpt>
      <trkpt lat="45.13808" lon="4.55232">
        <ele>1063.5</ele>
        <time>2026-05-01T13:06:57Z</time>
      </trkpt>
      <trkpt lat="45.13812" lon="4.55233">
        <ele>1064.4</ele>
        <time>2026-05-01T13:07:02Z</time>
      </trkpt>
      <trkpt lat="45.13815" lon="4.55236">
        <ele>1064.6</ele>
        <time>2026-05-01T13:07:07Z</time>
      </trkpt>
      <trkpt lat="45.13819" lon="4.55239">
        <ele>1065.2</ele>
        <time>2026-05-01T13:07:12Z</time>
      </trkpt>
      <trkpt lat="45.13819" lon="4.55239">
        <ele>1065.2</ele>
        <time>2026-05-01T13:07:17Z</time>
      </trkpt>
      <trkpt lat="45.13819" lon="4.55239">
        <ele>1065.2</ele>
        <time>2026-05-01T13:07:22Z</time>
      </trkpt>
      <trkpt lat="45.13823" lon="4.55234">
        <ele>1067.3</ele>
        <time>2026-05-01T13:07:27Z</time>
      </trkpt>
      <trkpt lat="45.13828" lon="4.55238">
        <ele>1067.9</ele>
        <time>2026-05-01T13:07:32Z</time>
      </trkpt>
      <trkpt lat="45.13834" lon="4.55241">
        <ele>1068.9</ele>
        <time>2026-05-01T13:07:37Z</time>
      </trkpt>
      <trkpt lat="45.13837" lon="4.55242">
        <ele>1069.1</ele>
        <time>2026-05-01T13:07:42Z</time>
      </trkpt>
      <trkpt lat="45.13841" lon="4.5524">
        <ele>1070</ele>
        <time>2026-05-01T13:07:47Z</time>
      </trkpt>
      <trkpt lat="45.13845" lon="4.55242">
        <ele>1070.1</ele>
        <time>2026-05-01T13:07:52Z</time>
      </trkpt>
      <trkpt lat="45.13848" lon="4.55247">
        <ele>1069.5</ele>
        <time>2026-05-01T13:07:57Z</time>
      </trkpt>
      <trkpt lat="45.1385" lon="4.55254">
        <ele>1068.6</ele>
        <time>2026-05-01T13:08:02Z</time>
      </trkpt>
      <trkpt lat="45.13852" lon="4.55259">
        <ele>1068.1</ele>
        <time>2026-05-01T13:08:07Z</time>
      </trkpt>
      <trkpt lat="45.13854" lon="4.55263">
        <ele>1067.8</ele>
        <time>2026-05-01T13:08:12Z</time>
      </trkpt>
      <trkpt lat="45.13857" lon="4.55269">
        <ele>1067.4</ele>
        <time>2026-05-01T13:08:17Z</time>
      </trkpt>
      <trkpt lat="45.13858" lon="4.55277">
        <ele>1066.3</ele>
        <time>2026-05-01T13:08:22Z</time>
      </trkpt>
      <trkpt lat="45.13859" lon="4.55284">
        <ele>1065.5</ele>
        <time>2026-05-01T13:08:27Z</time>
      </trkpt>
      <trkpt lat="45.1386" lon="4.5529">
        <ele>1064.7</ele>
        <time>2026-05-01T13:08:32Z</time>
      </trkpt>
      <trkpt lat="45.13862" lon="4.55297">
        <ele>1064</ele>
        <time>2026-05-01T13:08:37Z</time>
      </trkpt>
      <trkpt lat="45.13864" lon="4.55307">
        <ele>1062.9</ele>
        <time>2026-05-01T13:08:42Z</time>
      </trkpt>
      <trkpt lat="45.13867" lon="4.55315">
        <ele>1062.2</ele>
        <time>2026-05-01T13:08:47Z</time>
      </trkpt>
      <trkpt lat="45.1387" lon="4.55322">
        <ele>1061.7</ele>
        <time>2026-05-01T13:08:52Z</time>
      </trkpt>
      <trkpt lat="45.13873" lon="4.55331">
        <ele>1061</ele>
        <time>2026-05-01T13:08:57Z</time>
      </trkpt>
      <trkpt lat="45.13875" lon="4.55338">
        <ele>1060.9</ele>
        <time>2026-05-01T13:09:02Z</time>
      </trkpt>
      <trkpt lat="45.13878" lon="4.55346">
        <ele>1061.3</ele>
        <time>2026-05-01T13:09:07Z</time>
      </trkpt>
      <trkpt lat="45.13881" lon="4.55354">
        <ele>1061.7</ele>
        <time>2026-05-01T13:09:12Z</time>
      </trkpt>
      <trkpt lat="45.13885" lon="4.55362">
        <ele>1062.4</ele>
        <time>2026-05-01T13:09:17Z</time>
      </trkpt>
      <trkpt lat="45.1389" lon="4.55369">
        <ele>1063.3</ele>
        <time>2026-05-01T13:09:22Z</time>
      </trkpt>
      <trkpt lat="45.13894" lon="4.55376">
        <ele>1064</ele>
        <time>2026-05-01T13:09:27Z</time>
      </trkpt>
      <trkpt lat="45.13899" lon="4.55384">
        <ele>1065</ele>
        <time>2026-05-01T13:09:32Z</time>
      </trkpt>
      <trkpt lat="45.13904" lon="4.55388">
        <ele>1066</ele>
        <time>2026-05-01T13:09:37Z</time>
      </trkpt>
      <trkpt lat="45.13906" lon="4.55386">
        <ele>1066.4</ele>
        <time>2026-05-01T13:09:42Z</time>
      </trkpt>
      <trkpt lat="45.13907" lon="4.55383">
        <ele>1066.6</ele>
        <time>2026-05-01T13:09:47Z</time>
      </trkpt>
      <trkpt lat="45.13909" lon="4.55377">
        <ele>1067</ele>
        <time>2026-05-01T13:09:52Z</time>
      </trkpt>
      <trkpt lat="45.13913" lon="4.55371">
        <ele>1067.7</ele>
        <time>2026-05-01T13:09:57Z</time>
      </trkpt>
      <trkpt lat="45.13917" lon="4.55364">
        <ele>1068.3</ele>
        <time>2026-05-01T13:10:02Z</time>
      </trkpt>
      <trkpt lat="45.1392" lon="4.55357">
        <ele>1067.8</ele>
        <time>2026-05-01T13:10:07Z</time>
      </trkpt>
      <trkpt lat="45.13923" lon="4.5535">
        <ele>1067.2</ele>
        <time>2026-05-01T13:10:12Z</time>
      </trkpt>
      <trkpt lat="45.13928" lon="4.55341">
        <ele>1066.2</ele>
        <time>2026-05-01T13:10:17Z</time>
      </trkpt>
      <trkpt lat="45.13932" lon="4.55334">
        <ele>1065.4</ele>
        <time>2026-05-01T13:10:22Z</time>
      </trkpt>
      <trkpt lat="45.13935" lon="4.55327">
        <ele>1065.7</ele>
        <time>2026-05-01T13:10:27Z</time>
      </trkpt>
      <trkpt lat="45.1394" lon="4.55318">
        <ele>1065.9</ele>
        <time>2026-05-01T13:10:32Z</time>
      </trkpt>
      <trkpt lat="45.13945" lon="4.55313">
        <ele>1065.6</ele>
        <time>2026-05-01T13:10:37Z</time>
      </trkpt>
      <trkpt lat="45.13949" lon="4.55306">
        <ele>1065.7</ele>
        <time>2026-05-01T13:10:42Z</time>
      </trkpt>
      <trkpt lat="45.13951" lon="4.55298">
        <ele>1066.3</ele>
        <time>2026-05-01T13:10:47Z</time>
      </trkpt>
      <trkpt lat="45.13955" lon="4.5529">
        <ele>1066.5</ele>
        <time>2026-05-01T13:10:52Z</time>
      </trkpt>
      <trkpt lat="45.1396" lon="4.55284">
        <ele>1066.3</ele>
        <time>2026-05-01T13:10:57Z</time>
      </trkpt>
      <trkpt lat="45.13965" lon="4.5528">
        <ele>1065.9</ele>
        <time>2026-05-01T13:11:02Z</time>
      </trkpt>
      <trkpt lat="45.13971" lon="4.55276">
        <ele>1065.3</ele>
        <time>2026-05-01T13:11:07Z</time>
      </trkpt>
      <trkpt lat="45.13973" lon="4.55271">
        <ele>1065.5</ele>
        <time>2026-05-01T13:11:12Z</time>
      </trkpt>
      <trkpt lat="45.13975" lon="4.55265">
        <ele>1065.8</ele>
        <time>2026-05-01T13:11:17Z</time>
      </trkpt>
      <trkpt lat="45.13977" lon="4.55257">
        <ele>1066.4</ele>
        <time>2026-05-01T13:11:22Z</time>
      </trkpt>
      <trkpt lat="45.13979" lon="4.55249">
        <ele>1066.9</ele>
        <time>2026-05-01T13:11:27Z</time>
      </trkpt>
      <trkpt lat="45.13982" lon="4.55241">
        <ele>1067</ele>
        <time>2026-05-01T13:11:32Z</time>
      </trkpt>
      <trkpt lat="45.13985" lon="4.55233">
        <ele>1067.2</ele>
        <time>2026-05-01T13:11:37Z</time>
      </trkpt>
      <trkpt lat="45.1399" lon="4.55227">
        <ele>1066.8</ele>
        <time>2026-05-01T13:11:42Z</time>
      </trkpt>
      <trkpt lat="45.13996" lon="4.55218">
        <ele>1066.4</ele>
        <time>2026-05-01T13:11:47Z</time>
      </trkpt>
      <trkpt lat="45.14003" lon="4.55209">
        <ele>1065.6</ele>
        <time>2026-05-01T13:11:52Z</time>
      </trkpt>
      <trkpt lat="45.14008" lon="4.55201">
        <ele>1064.8</ele>
        <time>2026-05-01T13:11:57Z</time>
      </trkpt>
      <trkpt lat="45.14013" lon="4.55194">
        <ele>1063.9</ele>
        <time>2026-05-01T13:12:02Z</time>
      </trkpt>
      <trkpt lat="45.14018" lon="4.55187">
        <ele>1062.9</ele>
        <time>2026-05-01T13:12:07Z</time>
      </trkpt>
      <trkpt lat="45.14025" lon="4.55181">
        <ele>1061.3</ele>
        <time>2026-05-01T13:12:12Z</time>
      </trkpt>
      <trkpt lat="45.14031" lon="4.55174">
        <ele>1060.1</ele>
        <time>2026-05-01T13:12:17Z</time>
      </trkpt>
      <trkpt lat="45.14035" lon="4.5517">
        <ele>1059.2</ele>
        <time>2026-05-01T13:12:22Z</time>
      </trkpt>
      <trkpt lat="45.14041" lon="4.55164">
        <ele>1057.6</ele>
        <time>2026-05-01T13:12:27Z</time>
      </trkpt>
      <trkpt lat="45.14046" lon="4.55159">
        <ele>1055.8</ele>
        <time>2026-05-01T13:12:32Z</time>
      </trkpt>
      <trkpt lat="45.1405" lon="4.55152">
        <ele>1054.3</ele>
        <time>2026-05-01T13:12:37Z</time>
      </trkpt>
      <trkpt lat="45.14056" lon="4.55145">
        <ele>1052.2</ele>
        <time>2026-05-01T13:12:42Z</time>
      </trkpt>
      <trkpt lat="45.14061" lon="4.55139">
        <ele>1050.4</ele>
        <time>2026-05-01T13:12:47Z</time>
      </trkpt>
      <trkpt lat="45.14065" lon="4.55132">
        <ele>1048.8</ele>
        <time>2026-05-01T13:12:52Z</time>
      </trkpt>
      <trkpt lat="45.14069" lon="4.55126">
        <ele>1047.3</ele>
        <time>2026-05-01T13:12:57Z</time>
      </trkpt>
      <trkpt lat="45.14072" lon="4.5512">
        <ele>1046.2</ele>
        <time>2026-05-01T13:13:02Z</time>
      </trkpt>
      <trkpt lat="45.14075" lon="4.55122">
        <ele>1045.4</ele>
        <time>2026-05-01T13:13:07Z</time>
      </trkpt>
      <trkpt lat="45.1408" lon="4.55128">
        <ele>1044.1</ele>
        <time>2026-05-01T13:13:12Z</time>
      </trkpt>
      <trkpt lat="45.14084" lon="4.55131">
        <ele>1043.1</ele>
        <time>2026-05-01T13:13:17Z</time>
      </trkpt>
      <trkpt lat="45.14088" lon="4.55133">
        <ele>1042.1</ele>
        <time>2026-05-01T13:13:22Z</time>
      </trkpt>
      <trkpt lat="45.14094" lon="4.5513">
        <ele>1040.2</ele>
        <time>2026-05-01T13:13:27Z</time>
      </trkpt>
      <trkpt lat="45.14099" lon="4.55125">
        <ele>1038.6</ele>
        <time>2026-05-01T13:13:32Z</time>
      </trkpt>
      <trkpt lat="45.14104" lon="4.55118">
        <ele>1036.9</ele>
        <time>2026-05-01T13:13:37Z</time>
      </trkpt>
      <trkpt lat="45.14109" lon="4.5511">
        <ele>1035.1</ele>
        <time>2026-05-01T13:13:42Z</time>
      </trkpt>
      <trkpt lat="45.14112" lon="4.55102">
        <ele>1033.9</ele>
        <time>2026-05-01T13:13:47Z</time>
      </trkpt>
      <trkpt lat="45.14116" lon="4.551">
        <ele>1032.7</ele>
        <time>2026-05-01T13:13:52Z</time>
      </trkpt>
      <trkpt lat="45.14116" lon="4.551">
        <ele>1032.7</ele>
        <time>2026-05-01T13:13:57Z</time>
      </trkpt>
      <trkpt lat="45.14116" lon="4.551">
        <ele>1032.7</ele>
        <time>2026-05-01T13:14:02Z</time>
      </trkpt>
      <trkpt lat="45.14116" lon="4.551">
        <ele>1032.7</ele>
        <time>2026-05-01T13:14:07Z</time>
      </trkpt>
      <trkpt lat="45.14116" lon="4.551">
        <ele>1032.7</ele>
        <time>2026-05-01T13:14:12Z</time>
      </trkpt>
      <trkpt lat="45.14116" lon="4.551">
        <ele>1032.7</ele>
        <time>2026-05-01T13:14:17Z</time>
      </trkpt>
      <trkpt lat="45.14116" lon="4.551">
        <ele>1032.7</ele>
        <time>2026-05-01T13:14:22Z</time>
      </trkpt>
      <trkpt lat="45.14118" lon="4.55104">
        <ele>1032.3</ele>
        <time>2026-05-01T13:14:27Z</time>
      </trkpt>
      <trkpt lat="45.1412" lon="4.5511">
        <ele>1032</ele>
        <time>2026-05-01T13:14:32Z</time>
      </trkpt>
      <trkpt lat="45.14121" lon="4.55115">
        <ele>1032</ele>
        <time>2026-05-01T13:14:37Z</time>
      </trkpt>
      <trkpt lat="45.14122" lon="4.55119">
        <ele>1031.8</ele>
        <time>2026-05-01T13:14:42Z</time>
      </trkpt>
      <trkpt lat="45.14122" lon="4.55121">
        <ele>1031.9</ele>
        <time>2026-05-01T13:14:47Z</time>
      </trkpt>
      <trkpt lat="45.14122" lon="4.55121">
        <ele>1031.9</ele>
        <time>2026-05-01T13:14:52Z</time>
      </trkpt>
      <trkpt lat="45.14126" lon="4.55121">
        <ele>1030.8</ele>
        <time>2026-05-01T13:14:57Z</time>
      </trkpt>
      <trkpt lat="45.14129" lon="4.55125">
        <ele>1030.1</ele>
        <time>2026-05-01T13:15:02Z</time>
      </trkpt>
      <trkpt lat="45.14132" lon="4.55129">
        <ele>1029.4</ele>
        <time>2026-05-01T13:15:07Z</time>
      </trkpt>
      <trkpt lat="45.14136" lon="4.55132">
        <ele>1028.4</ele>
        <time>2026-05-01T13:15:12Z</time>
      </trkpt>
      <trkpt lat="45.14141" lon="4.55135">
        <ele>1027.1</ele>
        <time>2026-05-01T13:15:17Z</time>
      </trkpt>
      <trkpt lat="45.14144" lon="4.55137">
        <ele>1026.4</ele>
        <time>2026-05-01T13:15:22Z</time>
      </trkpt>
      <trkpt lat="45.14147" lon="4.5514">
        <ele>1025.6</ele>
        <time>2026-05-01T13:15:27Z</time>
      </trkpt>
      <trkpt lat="45.14151" lon="4.55143">
        <ele>1024.6</ele>
        <time>2026-05-01T13:15:32Z</time>
      </trkpt>
      <trkpt lat="45.14155" lon="4.55146">
        <ele>1023.6</ele>
        <time>2026-05-01T13:15:37Z</time>
      </trkpt>
      <trkpt lat="45.14158" lon="4.55149">
        <ele>1022.8</ele>
        <time>2026-05-01T13:15:42Z</time>
      </trkpt>
      <trkpt lat="45.14163" lon="4.55152">
        <ele>1021.5</ele>
        <time>2026-05-01T13:15:47Z</time>
      </trkpt>
      <trkpt lat="45.14167" lon="4.55155">
        <ele>1020.5</ele>
        <time>2026-05-01T13:15:52Z</time>
      </trkpt>
      <trkpt lat="45.14169" lon="4.5516">
        <ele>1020.3</ele>
        <time>2026-05-01T13:15:57Z</time>
      </trkpt>
      <trkpt lat="45.14172" lon="4.55164">
        <ele>1019.7</ele>
        <time>2026-05-01T13:16:02Z</time>
      </trkpt>
      <trkpt lat="45.14178" lon="4.55169">
        <ele>1018.3</ele>
        <time>2026-05-01T13:16:07Z</time>
      </trkpt>
      <trkpt lat="45.14184" lon="4.55172">
        <ele>1016.7</ele>
        <time>2026-05-01T13:16:12Z</time>
      </trkpt>
      <trkpt lat="45.1419" lon="4.55173">
        <ele>1015.1</ele>
        <time>2026-05-01T13:16:17Z</time>
      </trkpt>
      <trkpt lat="45.14197" lon="4.55175">
        <ele>1013.2</ele>
        <time>2026-05-01T13:16:22Z</time>
      </trkpt>
      <trkpt lat="45.14202" lon="4.55178">
        <ele>1011.7</ele>
        <time>2026-05-01T13:16:27Z</time>
      </trkpt>
      <trkpt lat="45.14207" lon="4.5518">
        <ele>1010.2</ele>
        <time>2026-05-01T13:16:32Z</time>
      </trkpt>
      <trkpt lat="45.14212" lon="4.55182">
        <ele>1008.6</ele>
        <time>2026-05-01T13:16:37Z</time>
      </trkpt>
      <trkpt lat="45.14218" lon="4.55188">
        <ele>1006.2</ele>
        <time>2026-05-01T13:16:42Z</time>
      </trkpt>
      <trkpt lat="45.14224" lon="4.55194">
        <ele>1003.6</ele>
        <time>2026-05-01T13:16:47Z</time>
      </trkpt>
      <trkpt lat="45.14228" lon="4.552">
        <ele>1001.4</ele>
        <time>2026-05-01T13:16:52Z</time>
      </trkpt>
      <trkpt lat="45.14234" lon="4.55206">
        <ele>998.5</ele>
        <time>2026-05-01T13:16:57Z</time>
      </trkpt>
      <trkpt lat="45.1424" lon="4.5521">
        <ele>995.9</ele>
        <time>2026-05-01T13:17:02Z</time>
      </trkpt>
      <trkpt lat="45.14245" lon="4.55211">
        <ele>994</ele>
        <time>2026-05-01T13:17:07Z</time>
      </trkpt>
      <trkpt lat="45.14253" lon="4.55216">
        <ele>991.2</ele>
        <time>2026-05-01T13:17:12Z</time>
      </trkpt>
      <trkpt lat="45.14259" lon="4.55221">
        <ele>989.9</ele>
        <time>2026-05-01T13:17:17Z</time>
      </trkpt>
      <trkpt lat="45.14266" lon="4.55227">
        <ele>988.2</ele>
        <time>2026-05-01T13:17:22Z</time>
      </trkpt>
      <trkpt lat="45.14271" lon="4.5523">
        <ele>987.3</ele>
        <time>2026-05-01T13:17:27Z</time>
      </trkpt>
      <trkpt lat="45.14276" lon="4.55232">
        <ele>986.6</ele>
        <time>2026-05-01T13:17:32Z</time>
      </trkpt>
      <trkpt lat="45.14282" lon="4.55232">
        <ele>986.3</ele>
        <time>2026-05-01T13:17:37Z</time>
      </trkpt>
      <trkpt lat="45.14289" lon="4.55238">
        <ele>984.5</ele>
        <time>2026-05-01T13:17:42Z</time>
      </trkpt>
      <trkpt lat="45.14297" lon="4.55245">
        <ele>982.4</ele>
        <time>2026-05-01T13:17:47Z</time>
      </trkpt>
      <trkpt lat="45.14302" lon="4.55251">
        <ele>980.6</ele>
        <time>2026-05-01T13:17:52Z</time>
      </trkpt>
      <trkpt lat="45.14308" lon="4.55255">
        <ele>979.2</ele>
        <time>2026-05-01T13:17:57Z</time>
      </trkpt>
      <trkpt lat="45.14312" lon="4.55258">
        <ele>978.1</ele>
        <time>2026-05-01T13:18:02Z</time>
      </trkpt>
      <trkpt lat="45.14317" lon="4.55262">
        <ele>976.7</ele>
        <time>2026-05-01T13:18:07Z</time>
      </trkpt>
      <trkpt lat="45.14322" lon="4.55267">
        <ele>974.9</ele>
        <time>2026-05-01T13:18:12Z</time>
      </trkpt>
      <trkpt lat="45.14327" lon="4.55272">
        <ele>973</ele>
        <time>2026-05-01T13:18:17Z</time>
      </trkpt>
      <trkpt lat="45.14331" lon="4.55276">
        <ele>971.4</ele>
        <time>2026-05-01T13:18:22Z</time>
      </trkpt>
      <trkpt lat="45.14336" lon="4.55283">
        <ele>969.4</ele>
        <time>2026-05-01T13:18:27Z</time>
      </trkpt>
      <trkpt lat="45.14339" lon="4.55288">
        <ele>968.1</ele>
        <time>2026-05-01T13:18:32Z</time>
      </trkpt>
      <trkpt lat="45.14342" lon="4.5529">
        <ele>967.8</ele>
        <time>2026-05-01T13:18:37Z</time>
      </trkpt>
      <trkpt lat="45.14346" lon="4.55292">
        <ele>967.6</ele>
        <time>2026-05-01T13:18:42Z</time>
      </trkpt>
      <trkpt lat="45.14349" lon="4.55295">
        <ele>967</ele>
        <time>2026-05-01T13:18:47Z</time>
      </trkpt>
      <trkpt lat="45.14352" lon="4.55302">
        <ele>965.1</ele>
        <time>2026-05-01T13:18:52Z</time>
      </trkpt>
      <trkpt lat="45.14354" lon="4.5531">
        <ele>962.9</ele>
        <time>2026-05-01T13:18:57Z</time>
      </trkpt>
      <trkpt lat="45.14356" lon="4.55316">
        <ele>961.2</ele>
        <time>2026-05-01T13:19:02Z</time>
      </trkpt>
      <trkpt lat="45.1436" lon="4.55322">
        <ele>959.7</ele>
        <time>2026-05-01T13:19:07Z</time>
      </trkpt>
      <trkpt lat="45.14363" lon="4.55328">
        <ele>958.1</ele>
        <time>2026-05-01T13:19:12Z</time>
      </trkpt>
      <trkpt lat="45.14367" lon="4.55331">
        <ele>957.6</ele>
        <time>2026-05-01T13:19:17Z</time>
      </trkpt>
      <trkpt lat="45.14372" lon="4.55334">
        <ele>957.1</ele>
        <time>2026-05-01T13:19:22Z</time>
      </trkpt>
      <trkpt lat="45.14374" lon="4.55338">
        <ele>956.4</ele>
        <time>2026-05-01T13:19:27Z</time>
      </trkpt>
      <trkpt lat="45.14377" lon="4.55341">
        <ele>956</ele>
        <time>2026-05-01T13:19:32Z</time>
      </trkpt>
      <trkpt lat="45.14382" lon="4.55343">
        <ele>955.9</ele>
        <time>2026-05-01T13:19:37Z</time>
      </trkpt>
      <trkpt lat="45.14387" lon="4.55346">
        <ele>955.5</ele>
        <time>2026-05-01T13:19:42Z</time>
      </trkpt>
      <trkpt lat="45.14391" lon="4.5535">
        <ele>954.8</ele>
        <time>2026-05-01T13:19:47Z</time>
      </trkpt>
      <trkpt lat="45.14394" lon="4.55356">
        <ele>953.5</ele>
        <time>2026-05-01T13:19:52Z</time>
      </trkpt>
      <trkpt lat="45.14398" lon="4.5536">
        <ele>952.6</ele>
        <time>2026-05-01T13:19:57Z</time>
      </trkpt>
      <trkpt lat="45.14404" lon="4.55362">
        <ele>952.3</ele>
        <time>2026-05-01T13:20:02Z</time>
      </trkpt>
      <trkpt lat="45.1441" lon="4.55364">
        <ele>952</ele>
        <time>2026-05-01T13:20:07Z</time>
      </trkpt>
      <trkpt lat="45.14416" lon="4.55368">
        <ele>951</ele>
        <time>2026-05-01T13:20:12Z</time>
      </trkpt>
      <trkpt lat="45.14424" lon="4.55369">
        <ele>951.8</ele>
        <time>2026-05-01T13:20:17Z</time>
      </trkpt>
      <trkpt lat="45.14431" lon="4.55372">
        <ele>951.9</ele>
        <time>2026-05-01T13:20:22Z</time>
      </trkpt>
      <trkpt lat="45.14438" lon="4.55374">
        <ele>952.4</ele>
        <time>2026-05-01T13:20:27Z</time>
      </trkpt>
      <trkpt lat="45.14444" lon="4.55376">
        <ele>952.6</ele>
        <time>2026-05-01T13:20:32Z</time>
      </trkpt>
      <trkpt lat="45.14451" lon="4.55376">
        <ele>953.7</ele>
        <time>2026-05-01T13:20:37Z</time>
      </trkpt>
      <trkpt lat="45.14459" lon="4.55376">
        <ele>954.8</ele>
        <time>2026-05-01T13:20:42Z</time>
      </trkpt>
      <trkpt lat="45.14469" lon="4.55376">
        <ele>956.2</ele>
        <time>2026-05-01T13:20:47Z</time>
      </trkpt>
      <trkpt lat="45.14476" lon="4.55377">
        <ele>957</ele>
        <time>2026-05-01T13:20:52Z</time>
      </trkpt>
      <trkpt lat="45.14482" lon="4.55377">
        <ele>957.8</ele>
        <time>2026-05-01T13:20:57Z</time>
      </trkpt>
      <trkpt lat="45.1449" lon="4.55378">
        <ele>958.7</ele>
        <time>2026-05-01T13:21:02Z</time>
      </trkpt>
      <trkpt lat="45.14498" lon="4.5538">
        <ele>959.3</ele>
        <time>2026-05-01T13:21:07Z</time>
      </trkpt>
      <trkpt lat="45.14505" lon="4.55379">
        <ele>959.7</ele>
        <time>2026-05-01T13:21:12Z</time>
      </trkpt>
      <trkpt lat="45.1451" lon="4.55378">
        <ele>959.9</ele>
        <time>2026-05-01T13:21:17Z</time>
      </trkpt>
      <trkpt lat="45.14516" lon="4.55377">
        <ele>960</ele>
        <time>2026-05-01T13:21:22Z</time>
      </trkpt>
      <trkpt lat="45.14523" lon="4.55377">
        <ele>959.8</ele>
        <time>2026-05-01T13:21:27Z</time>
      </trkpt>
      <trkpt lat="45.14529" lon="4.55376">
        <ele>959.9</ele>
        <time>2026-05-01T13:21:32Z</time>
      </trkpt>
      <trkpt lat="45.14535" lon="4.55377">
        <ele>959.5</ele>
        <time>2026-05-01T13:21:37Z</time>
      </trkpt>
      <trkpt lat="45.1454" lon="4.55378">
        <ele>959.1</ele>
        <time>2026-05-01T13:21:42Z</time>
      </trkpt>
      <trkpt lat="45.14545" lon="4.55379">
        <ele>958.7</ele>
        <time>2026-05-01T13:21:47Z</time>
      </trkpt>
      <trkpt lat="45.14551" lon="4.55378">
        <ele>958.8</ele>
        <time>2026-05-01T13:21:52Z</time>
      </trkpt>
      <trkpt lat="45.14555" lon="4.55376">
        <ele>959.1</ele>
        <time>2026-05-01T13:21:57Z</time>
      </trkpt>
      <trkpt lat="45.14558" lon="4.55376">
        <ele>959</ele>
        <time>2026-05-01T13:22:02Z</time>
      </trkpt>
      <trkpt lat="45.14563" lon="4.55375">
        <ele>959.1</ele>
        <time>2026-05-01T13:22:07Z</time>
      </trkpt>
      <trkpt lat="45.14569" lon="4.55373">
        <ele>959.3</ele>
        <time>2026-05-01T13:22:12Z</time>
      </trkpt>
      <trkpt lat="45.14576" lon="4.55372">
        <ele>959.3</ele>
        <time>2026-05-01T13:22:17Z</time>
      </trkpt>
      <trkpt lat="45.14581" lon="4.5537">
        <ele>959.5</ele>
        <time>2026-05-01T13:22:22Z</time>
      </trkpt>
      <trkpt lat="45.14587" lon="4.55368">
        <ele>959</ele>
        <time>2026-05-01T13:22:27Z</time>
      </trkpt>
      <trkpt lat="45.14592" lon="4.55366">
        <ele>958.4</ele>
        <time>2026-05-01T13:22:32Z</time>
      </trkpt>
      <trkpt lat="45.14597" lon="4.55363">
        <ele>958</ele>
        <time>2026-05-01T13:22:37Z</time>
      </trkpt>
      <trkpt lat="45.14603" lon="4.55361">
        <ele>957.2</ele>
        <time>2026-05-01T13:22:42Z</time>
      </trkpt>
      <trkpt lat="45.14608" lon="4.5536">
        <ele>956.4</ele>
        <time>2026-05-01T13:22:47Z</time>
      </trkpt>
      <trkpt lat="45.14614" lon="4.55357">
        <ele>955.7</ele>
        <time>2026-05-01T13:22:52Z</time>
      </trkpt>
      <trkpt lat="45.14621" lon="4.55353">
        <ele>955</ele>
        <time>2026-05-01T13:22:57Z</time>
      </trkpt>
      <trkpt lat="45.14627" lon="4.5535">
        <ele>954.3</ele>
        <time>2026-05-01T13:23:02Z</time>
      </trkpt>
      <trkpt lat="45.14635" lon="4.55351">
        <ele>952.5</ele>
        <time>2026-05-01T13:23:07Z</time>
      </trkpt>
      <trkpt lat="45.14644" lon="4.55348">
        <ele>951.2</ele>
        <time>2026-05-01T13:23:12Z</time>
      </trkpt>
      <trkpt lat="45.14649" lon="4.55347">
        <ele>950.4</ele>
        <time>2026-05-01T13:23:17Z</time>
      </trkpt>
      <trkpt lat="45.14655" lon="4.55345">
        <ele>949.5</ele>
        <time>2026-05-01T13:23:22Z</time>
      </trkpt>
      <trkpt lat="45.1466" lon="4.55343">
        <ele>948.8</ele>
        <time>2026-05-01T13:23:27Z</time>
      </trkpt>
      <trkpt lat="45.14666" lon="4.55343">
        <ele>947.6</ele>
        <time>2026-05-01T13:23:32Z</time>
      </trkpt>
      <trkpt lat="45.14675" lon="4.55345">
        <ele>945.3</ele>
        <time>2026-05-01T13:23:37Z</time>
      </trkpt>
      <trkpt lat="45.14681" lon="4.55348">
        <ele>943.4</ele>
        <time>2026-05-01T13:23:42Z</time>
      </trkpt>
      <trkpt lat="45.14687" lon="4.55353">
        <ele>941.3</ele>
        <time>2026-05-01T13:23:47Z</time>
      </trkpt>
      <trkpt lat="45.14691" lon="4.55358">
        <ele>939.7</ele>
        <time>2026-05-01T13:23:52Z</time>
      </trkpt>
      <trkpt lat="45.14696" lon="4.55364">
        <ele>937.8</ele>
        <time>2026-05-01T13:23:57Z</time>
      </trkpt>
      <trkpt lat="45.14702" lon="4.55371">
        <ele>935.6</ele>
        <time>2026-05-01T13:24:02Z</time>
      </trkpt>
      <trkpt lat="45.14706" lon="4.55378">
        <ele>933.9</ele>
        <time>2026-05-01T13:24:07Z</time>
      </trkpt>
      <trkpt lat="45.14709" lon="4.55386">
        <ele>932.2</ele>
        <time>2026-05-01T13:24:12Z</time>
      </trkpt>
      <trkpt lat="45.14711" lon="4.55397">
        <ele>930.5</ele>
        <time>2026-05-01T13:24:17Z</time>
      </trkpt>
      <trkpt lat="45.14713" lon="4.55407">
        <ele>928.8</ele>
        <time>2026-05-01T13:24:22Z</time>
      </trkpt>
      <trkpt lat="45.14716" lon="4.55415">
        <ele>927.3</ele>
        <time>2026-05-01T13:24:27Z</time>
      </trkpt>
      <trkpt lat="45.14717" lon="4.55421">
        <ele>926.1</ele>
        <time>2026-05-01T13:24:32Z</time>
      </trkpt>
      <trkpt lat="45.14721" lon="4.55425">
        <ele>924.7</ele>
        <time>2026-05-01T13:24:37Z</time>
      </trkpt>
      <trkpt lat="45.14722" lon="4.55429">
        <ele>923.8</ele>
        <time>2026-05-01T13:24:42Z</time>
      </trkpt>
      <trkpt lat="45.14723" lon="4.55429">
        <ele>923.6</ele>
        <time>2026-05-01T13:24:47Z</time>
      </trkpt>
      <trkpt lat="45.14723" lon="4.55429">
        <ele>923.6</ele>
        <time>2026-05-01T13:24:52Z</time>
      </trkpt>
      <trkpt lat="45.14727" lon="4.55433">
        <ele>922.2</ele>
        <time>2026-05-01T13:24:57Z</time>
      </trkpt>
      <trkpt lat="45.14727" lon="4.5544">
        <ele>921</ele>
        <time>2026-05-01T13:25:02Z</time>
      </trkpt>
      <trkpt lat="45.14727" lon="4.55441">
        <ele>920.8</ele>
        <time>2026-05-01T13:25:07Z</time>
      </trkpt>
      <trkpt lat="45.14727" lon="4.5544">
        <ele>921</ele>
        <time>2026-05-01T13:25:12Z</time>
      </trkpt>
      <trkpt lat="45.14727" lon="4.5544">
        <ele>921</ele>
        <time>2026-05-01T13:25:17Z</time>
      </trkpt>
      <trkpt lat="45.14727" lon="4.5544">
        <ele>921</ele>
        <time>2026-05-01T13:25:22Z</time>
      </trkpt>
      <trkpt lat="45.14726" lon="4.55437">
        <ele>921.7</ele>
        <time>2026-05-01T13:25:27Z</time>
      </trkpt>
      <trkpt lat="45.14725" lon="4.55436">
        <ele>922</ele>
        <time>2026-05-01T13:25:32Z</time>
      </trkpt>
      <trkpt lat="45.14725" lon="4.55436">
        <ele>922</ele>
        <time>2026-05-01T13:25:37Z</time>
      </trkpt>
      <trkpt lat="45.14725" lon="4.55436">
        <ele>922</ele>
        <time>2026-05-01T13:25:42Z</time>
      </trkpt>
      <trkpt lat="45.14721" lon="4.55433">
        <ele>923.2</ele>
        <time>2026-05-01T13:25:47Z</time>
      </trkpt>
      <trkpt lat="45.14715" lon="4.5543">
        <ele>924.7</ele>
        <time>2026-05-01T13:25:52Z</time>
      </trkpt>
      <trkpt lat="45.14711" lon="4.55428">
        <ele>925.8</ele>
        <time>2026-05-01T13:25:57Z</time>
      </trkpt>
      <trkpt lat="45.14706" lon="4.55425">
        <ele>927.3</ele>
        <time>2026-05-01T13:26:02Z</time>
      </trkpt>
      <trkpt lat="45.14701" lon="4.55423">
        <ele>928.5</ele>
        <time>2026-05-01T13:26:07Z</time>
      </trkpt>
      <trkpt lat="45.14698" lon="4.55422">
        <ele>929.2</ele>
        <time>2026-05-01T13:26:12Z</time>
      </trkpt>
      <trkpt lat="45.14693" lon="4.55422">
        <ele>930.1</ele>
        <time>2026-05-01T13:26:17Z</time>
      </trkpt>
      <trkpt lat="45.14687" lon="4.5542">
        <ele>931.6</ele>
        <time>2026-05-01T13:26:22Z</time>
      </trkpt>
      <trkpt lat="45.14681" lon="4.55418">
        <ele>933.1</ele>
        <time>2026-05-01T13:26:27Z</time>
      </trkpt>
      <trkpt lat="45.14676" lon="4.55417">
        <ele>934.2</ele>
        <time>2026-05-01T13:26:32Z</time>
      </trkpt>
      <trkpt lat="45.14668" lon="4.55414">
        <ele>936.2</ele>
        <time>2026-05-01T13:26:37Z</time>
      </trkpt>
      <trkpt lat="45.1466" lon="4.55415">
        <ele>937.5</ele>
        <time>2026-05-01T13:26:42Z</time>
      </trkpt>
      <trkpt lat="45.14655" lon="4.55416">
        <ele>938.2</ele>
        <time>2026-05-01T13:26:47Z</time>
      </trkpt>
      <trkpt lat="45.14647" lon="4.55418">
        <ele>939.2</ele>
        <time>2026-05-01T13:26:52Z</time>
      </trkpt>
      <trkpt lat="45.1464" lon="4.55422">
        <ele>939.3</ele>
        <time>2026-05-01T13:26:57Z</time>
      </trkpt>
      <trkpt lat="45.14636" lon="4.55427">
        <ele>938.6</ele>
        <time>2026-05-01T13:27:02Z</time>
      </trkpt>
      <trkpt lat="45.14633" lon="4.55434">
        <ele>937.1</ele>
        <time>2026-05-01T13:27:07Z</time>
      </trkpt>
      <trkpt lat="45.14632" lon="4.55445">
        <ele>934.2</ele>
        <time>2026-05-01T13:27:12Z</time>
      </trkpt>
      <trkpt lat="45.14628" lon="4.55458">
        <ele>931</ele>
        <time>2026-05-01T13:27:17Z</time>
      </trkpt>
      <trkpt lat="45.14625" lon="4.55469">
        <ele>928.1</ele>
        <time>2026-05-01T13:27:22Z</time>
      </trkpt>
      <trkpt lat="45.14621" lon="4.5548">
        <ele>925.3</ele>
        <time>2026-05-01T13:27:27Z</time>
      </trkpt>
      <trkpt lat="45.14615" lon="4.55489">
        <ele>923.1</ele>
        <time>2026-05-01T13:27:32Z</time>
      </trkpt>
      <trkpt lat="45.14612" lon="4.55502">
        <ele>919.3</ele>
        <time>2026-05-01T13:27:37Z</time>
      </trkpt>
      <trkpt lat="45.14609" lon="4.55513">
        <ele>915.9</ele>
        <time>2026-05-01T13:27:42Z</time>
      </trkpt>
      <trkpt lat="45.14609" lon="4.55522">
        <ele>913</ele>
        <time>2026-05-01T13:27:47Z</time>
      </trkpt>
      <trkpt lat="45.14609" lon="4.55528">
        <ele>911</ele>
        <time>2026-05-01T13:27:52Z</time>
      </trkpt>
      <trkpt lat="45.14606" lon="4.5553">
        <ele>910.5</ele>
        <time>2026-05-01T13:27:57Z</time>
      </trkpt>
      <trkpt lat="45.14603" lon="4.55535">
        <ele>909</ele>
        <time>2026-05-01T13:28:02Z</time>
      </trkpt>
      <trkpt lat="45.146" lon="4.55538">
        <ele>908.1</ele>
        <time>2026-05-01T13:28:07Z</time>
      </trkpt>
      <trkpt lat="45.14594" lon="4.55539">
        <ele>908</ele>
        <time>2026-05-01T13:28:12Z</time>
      </trkpt>
      <trkpt lat="45.14589" lon="4.55542">
        <ele>907.2</ele>
        <time>2026-05-01T13:28:17Z</time>
      </trkpt>
      <trkpt lat="45.14583" lon="4.55547">
        <ele>905.6</ele>
        <time>2026-05-01T13:28:22Z</time>
      </trkpt>
      <trkpt lat="45.14576" lon="4.55551">
        <ele>903.8</ele>
        <time>2026-05-01T13:28:27Z</time>
      </trkpt>
      <trkpt lat="45.14571" lon="4.55555">
        <ele>902.2</ele>
        <time>2026-05-01T13:28:32Z</time>
      </trkpt>
      <trkpt lat="45.14564" lon="4.5556">
        <ele>900.1</ele>
        <time>2026-05-01T13:28:37Z</time>
      </trkpt>
      <trkpt lat="45.14559" lon="4.55561">
        <ele>899.4</ele>
        <time>2026-05-01T13:28:42Z</time>
      </trkpt>
      <trkpt lat="45.14553" lon="4.55563">
        <ele>898.4</ele>
        <time>2026-05-01T13:28:47Z</time>
      </trkpt>
      <trkpt lat="45.14548" lon="4.55565">
        <ele>897.5</ele>
        <time>2026-05-01T13:28:52Z</time>
      </trkpt>
      <trkpt lat="45.14543" lon="4.55568">
        <ele>896.2</ele>
        <time>2026-05-01T13:28:57Z</time>
      </trkpt>
      <trkpt lat="45.14538" lon="4.55575">
        <ele>893.6</ele>
        <time>2026-05-01T13:29:02Z</time>
      </trkpt>
      <trkpt lat="45.14532" lon="4.55579">
        <ele>892</ele>
        <time>2026-05-01T13:29:07Z</time>
      </trkpt>
      <trkpt lat="45.14529" lon="4.55581">
        <ele>891.2</ele>
        <time>2026-05-01T13:29:12Z</time>
      </trkpt>
      <trkpt lat="45.14524" lon="4.55581">
        <ele>890.9</ele>
        <time>2026-05-01T13:29:17Z</time>
      </trkpt>
      <trkpt lat="45.14517" lon="4.55579">
        <ele>891.2</ele>
        <time>2026-05-01T13:29:22Z</time>
      </trkpt>
      <trkpt lat="45.14512" lon="4.55578">
        <ele>891.3</ele>
        <time>2026-05-01T13:29:27Z</time>
      </trkpt>
      <trkpt lat="45.14506" lon="4.55577">
        <ele>891.4</ele>
        <time>2026-05-01T13:29:32Z</time>
      </trkpt>
      <trkpt lat="45.14499" lon="4.55577">
        <ele>891.3</ele>
        <time>2026-05-01T13:29:37Z</time>
      </trkpt>
      <trkpt lat="45.14494" lon="4.55576">
        <ele>893</ele>
        <time>2026-05-01T13:29:42Z</time>
      </trkpt>
      <trkpt lat="45.14487" lon="4.55577">
        <ele>894.7</ele>
        <time>2026-05-01T13:29:47Z</time>
      </trkpt>
      <trkpt lat="45.1448" lon="4.55576">
        <ele>896.9</ele>
        <time>2026-05-01T13:29:52Z</time>
      </trkpt>
      <trkpt lat="45.14474" lon="4.55571">
        <ele>899.7</ele>
        <time>2026-05-01T13:29:57Z</time>
      </trkpt>
      <trkpt lat="45.14467" lon="4.55567">
        <ele>902.4</ele>
        <time>2026-05-01T13:30:02Z</time>
      </trkpt>
      <trkpt lat="45.14458" lon="4.55564">
        <ele>905.2</ele>
        <time>2026-05-01T13:30:07Z</time>
      </trkpt>
      <trkpt lat="45.14452" lon="4.55559">
        <ele>907.4</ele>
        <time>2026-05-01T13:30:12Z</time>
      </trkpt>
      <trkpt lat="45.14444" lon="4.55557">
        <ele>909.4</ele>
        <time>2026-05-01T13:30:17Z</time>
      </trkpt>
      <trkpt lat="45.14436" lon="4.55556">
        <ele>911.3</ele>
        <time>2026-05-01T13:30:22Z</time>
      </trkpt>
      <trkpt lat="45.14429" lon="4.55553">
        <ele>913</ele>
        <time>2026-05-01T13:30:27Z</time>
      </trkpt>
      <trkpt lat="45.14424" lon="4.5555">
        <ele>914.2</ele>
        <time>2026-05-01T13:30:32Z</time>
      </trkpt>
      <trkpt lat="45.14419" lon="4.55546">
        <ele>915.4</ele>
        <time>2026-05-01T13:30:37Z</time>
      </trkpt>
      <trkpt lat="45.14411" lon="4.55544">
        <ele>917.6</ele>
        <time>2026-05-01T13:30:42Z</time>
      </trkpt>
      <trkpt lat="45.14405" lon="4.55543">
        <ele>919.5</ele>
        <time>2026-05-01T13:30:47Z</time>
      </trkpt>
      <trkpt lat="45.144" lon="4.55544">
        <ele>921</ele>
        <time>2026-05-01T13:30:52Z</time>
      </trkpt>
      <trkpt lat="45.14395" lon="4.55543">
        <ele>922.6</ele>
        <time>2026-05-01T13:30:57Z</time>
      </trkpt>
      <trkpt lat="45.14391" lon="4.55542">
        <ele>923.8</ele>
        <time>2026-05-01T13:31:02Z</time>
      </trkpt>
      <trkpt lat="45.14384" lon="4.55542">
        <ele>926</ele>
        <time>2026-05-01T13:31:07Z</time>
      </trkpt>
      <trkpt lat="45.14378" lon="4.55541">
        <ele>927.9</ele>
        <time>2026-05-01T13:31:12Z</time>
      </trkpt>
      <trkpt lat="45.14375" lon="4.55541">
        <ele>928.8</ele>
        <time>2026-05-01T13:31:17Z</time>
      </trkpt>
      <trkpt lat="45.14369" lon="4.55545">
        <ele>930.5</ele>
        <time>2026-05-01T13:31:22Z</time>
      </trkpt>
      <trkpt lat="45.14369" lon="4.55553">
        <ele>930.3</ele>
        <time>2026-05-01T13:31:27Z</time>
      </trkpt>
      <trkpt lat="45.14372" lon="4.55559">
        <ele>929.2</ele>
        <time>2026-05-01T13:31:32Z</time>
      </trkpt>
      <trkpt lat="45.14374" lon="4.55561">
        <ele>928.5</ele>
        <time>2026-05-01T13:31:37Z</time>
      </trkpt>
      <trkpt lat="45.14375" lon="4.55562">
        <ele>928.1</ele>
        <time>2026-05-01T13:31:42Z</time>
      </trkpt>
      <trkpt lat="45.14375" lon="4.55562">
        <ele>928.1</ele>
        <time>2026-05-01T13:31:47Z</time>
      </trkpt>
      <trkpt lat="45.14375" lon="4.55562">
        <ele>928.1</ele>
        <time>2026-05-01T13:31:52Z</time>
      </trkpt>
      <trkpt lat="45.14384" lon="4.55558">
        <ele>925.4</ele>
        <time>2026-05-01T13:31:57Z</time>
      </trkpt>
      <trkpt lat="45.14385" lon="4.55556">
        <ele>925.2</ele>
        <time>2026-05-01T13:32:02Z</time>
      </trkpt>
      <trkpt lat="45.14387" lon="4.55562">
        <ele>924.4</ele>
        <time>2026-05-01T13:32:07Z</time>
      </trkpt>
      <trkpt lat="45.1439" lon="4.55569">
        <ele>923.2</ele>
        <time>2026-05-01T13:32:12Z</time>
      </trkpt>
      <trkpt lat="45.14392" lon="4.55576">
        <ele>922.3</ele>
        <time>2026-05-01T13:32:17Z</time>
      </trkpt>
      <trkpt lat="45.14394" lon="4.55587">
        <ele>921.3</ele>
        <time>2026-05-01T13:32:22Z</time>
      </trkpt>
      <trkpt lat="45.14395" lon="4.55596">
        <ele>920.8</ele>
        <time>2026-05-01T13:32:27Z</time>
      </trkpt>
      <trkpt lat="45.14396" lon="4.55605">
        <ele>920.3</ele>
        <time>2026-05-01T13:32:32Z</time>
      </trkpt>
      <trkpt lat="45.14397" lon="4.55614">
        <ele>919.8</ele>
        <time>2026-05-01T13:32:37Z</time>
      </trkpt>
      <trkpt lat="45.14397" lon="4.55624">
        <ele>919.6</ele>
        <time>2026-05-01T13:32:42Z</time>
      </trkpt>
      <trkpt lat="45.14398" lon="4.55632">
        <ele>919.1</ele>
        <time>2026-05-01T13:32:47Z</time>
      </trkpt>
      <trkpt lat="45.14399" lon="4.55642">
        <ele>918.6</ele>
        <time>2026-05-01T13:32:52Z</time>
      </trkpt>
      <trkpt lat="45.144" lon="4.5565">
        <ele>918.1</ele>
        <time>2026-05-01T13:32:57Z</time>
      </trkpt>
      <trkpt lat="45.14401" lon="4.55658">
        <ele>917.6</ele>
        <time>2026-05-01T13:33:02Z</time>
      </trkpt>
      <trkpt lat="45.14402" lon="4.55665">
        <ele>917.1</ele>
        <time>2026-05-01T13:33:07Z</time>
      </trkpt>
      <trkpt lat="45.14402" lon="4.55673">
        <ele>917.1</ele>
        <time>2026-05-01T13:33:12Z</time>
      </trkpt>
      <trkpt lat="45.14402" lon="4.55681">
        <ele>917</ele>
        <time>2026-05-01T13:33:17Z</time>
      </trkpt>
      <trkpt lat="45.14402" lon="4.55684">
        <ele>917</ele>
        <time>2026-05-01T13:33:22Z</time>
      </trkpt>
      <trkpt lat="45.14401" lon="4.55684">
        <ele>917.4</ele>
        <time>2026-05-01T13:33:27Z</time>
      </trkpt>
      <trkpt lat="45.14401" lon="4.55684">
        <ele>917.4</ele>
        <time>2026-05-01T13:33:32Z</time>
      </trkpt>
      <trkpt lat="45.14401" lon="4.55684">
        <ele>917.4</ele>
        <time>2026-05-01T13:33:37Z</time>
      </trkpt>
      <trkpt lat="45.14402" lon="4.55693">
        <ele>917</ele>
        <time>2026-05-01T13:33:42Z</time>
      </trkpt>
      <trkpt lat="45.14404" lon="4.55702">
        <ele>916.3</ele>
        <time>2026-05-01T13:33:47Z</time>
      </trkpt>
      <trkpt lat="45.14408" lon="4.55711">
        <ele>914.9</ele>
        <time>2026-05-01T13:33:52Z</time>
      </trkpt>
      <trkpt lat="45.14411" lon="4.55719">
        <ele>913.9</ele>
        <time>2026-05-01T13:33:57Z</time>
      </trkpt>
      <trkpt lat="45.14413" lon="4.55727">
        <ele>913.2</ele>
        <time>2026-05-01T13:34:02Z</time>
      </trkpt>
      <trkpt lat="45.14416" lon="4.55733">
        <ele>912.2</ele>
        <time>2026-05-01T13:34:07Z</time>
      </trkpt>
      <trkpt lat="45.14416" lon="4.55743">
        <ele>912.2</ele>
        <time>2026-05-01T13:34:12Z</time>
      </trkpt>
      <trkpt lat="45.14415" lon="4.5575">
        <ele>912.5</ele>
        <time>2026-05-01T13:34:17Z</time>
      </trkpt>
      <trkpt lat="45.14414" lon="4.55758">
        <ele>912.3</ele>
        <time>2026-05-01T13:34:22Z</time>
      </trkpt>
      <trkpt lat="45.14413" lon="4.55764">
        <ele>912.2</ele>
        <time>2026-05-01T13:34:27Z</time>
      </trkpt>
      <trkpt lat="45.14413" lon="4.55774">
        <ele>911.5</ele>
        <time>2026-05-01T13:34:32Z</time>
      </trkpt>
      <trkpt lat="45.14413" lon="4.55786">
        <ele>910.6</ele>
        <time>2026-05-01T13:34:37Z</time>
      </trkpt>
      <trkpt lat="45.14415" lon="4.55797">
        <ele>909.2</ele>
        <time>2026-05-01T13:34:42Z</time>
      </trkpt>
      <trkpt lat="45.14416" lon="4.55806">
        <ele>908.2</ele>
        <time>2026-05-01T13:34:47Z</time>
      </trkpt>
      <trkpt lat="45.14417" lon="4.55815">
        <ele>907.2</ele>
        <time>2026-05-01T13:34:52Z</time>
      </trkpt>
      <trkpt lat="45.14416" lon="4.55824">
        <ele>906.9</ele>
        <time>2026-05-01T13:34:57Z</time>
      </trkpt>
      <trkpt lat="45.14416" lon="4.55833">
        <ele>906.2</ele>
        <time>2026-05-01T13:35:02Z</time>
      </trkpt>
      <trkpt lat="45.14416" lon="4.55843">
        <ele>905.6</ele>
        <time>2026-05-01T13:35:07Z</time>
      </trkpt>
      <trkpt lat="45.14415" lon="4.55852">
        <ele>905.4</ele>
        <time>2026-05-01T13:35:12Z</time>
      </trkpt>
      <trkpt lat="45.14414" lon="4.55858">
        <ele>905.4</ele>
        <time>2026-05-01T13:35:17Z</time>
      </trkpt>
      <trkpt lat="45.14414" lon="4.55865">
        <ele>905</ele>
        <time>2026-05-01T13:35:22Z</time>
      </trkpt>
      <trkpt lat="45.14413" lon="4.55872">
        <ele>904.9</ele>
        <time>2026-05-01T13:35:27Z</time>
      </trkpt>
      <trkpt lat="45.14412" lon="4.55879">
        <ele>904.8</ele>
        <time>2026-05-01T13:35:32Z</time>
      </trkpt>
      <trkpt lat="45.14412" lon="4.55887">
        <ele>904.3</ele>
        <time>2026-05-01T13:35:37Z</time>
      </trkpt>
      <trkpt lat="45.14413" lon="4.55895">
        <ele>903.5</ele>
        <time>2026-05-01T13:35:42Z</time>
      </trkpt>
      <trkpt lat="45.14412" lon="4.55903">
        <ele>903.3</ele>
        <time>2026-05-01T13:35:47Z</time>
      </trkpt>
      <trkpt lat="45.14412" lon="4.55912">
        <ele>902.8</ele>
        <time>2026-05-01T13:35:52Z</time>
      </trkpt>
      <trkpt lat="45.14414" lon="4.55919">
        <ele>901.4</ele>
        <time>2026-05-01T13:35:57Z</time>
      </trkpt>
      <trkpt lat="45.14421" lon="4.55929">
        <ele>896.8</ele>
        <time>2026-05-01T13:36:02Z</time>
      </trkpt>
      <trkpt lat="45.14427" lon="4.55937">
        <ele>892.7</ele>
        <time>2026-05-01T13:36:07Z</time>
      </trkpt>
      <trkpt lat="45.14431" lon="4.55942">
        <ele>890.2</ele>
        <time>2026-05-01T13:36:12Z</time>
      </trkpt>
      <trkpt lat="45.14433" lon="4.55945">
        <ele>888.8</ele>
        <time>2026-05-01T13:36:17Z</time>
      </trkpt>
      <trkpt lat="45.1444" lon="4.55946">
        <ele>885.6</ele>
        <time>2026-05-01T13:36:22Z</time>
      </trkpt>
      <trkpt lat="45.14446" lon="4.55951">
        <ele>882.3</ele>
        <time>2026-05-01T13:36:27Z</time>
      </trkpt>
      <trkpt lat="45.14451" lon="4.55956">
        <ele>879.4</ele>
        <time>2026-05-01T13:36:32Z</time>
      </trkpt>
      <trkpt lat="45.14452" lon="4.55962">
        <ele>878.1</ele>
        <time>2026-05-01T13:36:37Z</time>
      </trkpt>
      <trkpt lat="45.14452" lon="4.55967">
        <ele>877.5</ele>
        <time>2026-05-01T13:36:42Z</time>
      </trkpt>
      <trkpt lat="45.14454" lon="4.55974">
        <ele>875.7</ele>
        <time>2026-05-01T13:36:47Z</time>
      </trkpt>
      <trkpt lat="45.14456" lon="4.5598">
        <ele>874.1</ele>
        <time>2026-05-01T13:36:52Z</time>
      </trkpt>
      <trkpt lat="45.14456" lon="4.55988">
        <ele>873</ele>
        <time>2026-05-01T13:36:57Z</time>
      </trkpt>
      <trkpt lat="45.14458" lon="4.55996">
        <ele>871.2</ele>
        <time>2026-05-01T13:37:02Z</time>
      </trkpt>
      <trkpt lat="45.1446" lon="4.56004">
        <ele>869.3</ele>
        <time>2026-05-01T13:37:07Z</time>
      </trkpt>
      <trkpt lat="45.14462" lon="4.56011">
        <ele>867.6</ele>
        <time>2026-05-01T13:37:12Z</time>
      </trkpt>
      <trkpt lat="45.14465" lon="4.56018">
        <ele>865.6</ele>
        <time>2026-05-01T13:37:17Z</time>
      </trkpt>
      <trkpt lat="45.14468" lon="4.56026">
        <ele>863.5</ele>
        <time>2026-05-01T13:37:22Z</time>
      </trkpt>
      <trkpt lat="45.14472" lon="4.56035">
        <ele>860.9</ele>
        <time>2026-05-01T13:37:27Z</time>
      </trkpt>
      <trkpt lat="45.14473" lon="4.56045">
        <ele>859.3</ele>
        <time>2026-05-01T13:37:32Z</time>
      </trkpt>
      <trkpt lat="45.14474" lon="4.56055">
        <ele>857.7</ele>
        <time>2026-05-01T13:37:37Z</time>
      </trkpt>
      <trkpt lat="45.14472" lon="4.56064">
        <ele>857.2</ele>
        <time>2026-05-01T13:37:42Z</time>
      </trkpt>
      <trkpt lat="45.1447" lon="4.56071">
        <ele>857</ele>
        <time>2026-05-01T13:37:47Z</time>
      </trkpt>
      <trkpt lat="45.14469" lon="4.56076">
        <ele>856.6</ele>
        <time>2026-05-01T13:37:52Z</time>
      </trkpt>
      <trkpt lat="45.14466" lon="4.56084">
        <ele>856.5</ele>
        <time>2026-05-01T13:37:57Z</time>
      </trkpt>
      <trkpt lat="45.14463" lon="4.56092">
        <ele>856.1</ele>
        <time>2026-05-01T13:38:02Z</time>
      </trkpt>
      <trkpt lat="45.14461" lon="4.56102">
        <ele>855.1</ele>
        <time>2026-05-01T13:38:07Z</time>
      </trkpt>
      <trkpt lat="45.1446" lon="4.56114">
        <ele>853.4</ele>
        <time>2026-05-01T13:38:12Z</time>
      </trkpt>
      <trkpt lat="45.1446" lon="4.56123">
        <ele>851.9</ele>
        <time>2026-05-01T13:38:17Z</time>
      </trkpt>
      <trkpt lat="45.14462" lon="4.56132">
        <ele>849.8</ele>
        <time>2026-05-01T13:38:22Z</time>
      </trkpt>
      <trkpt lat="45.14464" lon="4.5614">
        <ele>848</ele>
        <time>2026-05-01T13:38:27Z</time>
      </trkpt>
      <trkpt lat="45.14464" lon="4.56148">
        <ele>846.7</ele>
        <time>2026-05-01T13:38:32Z</time>
      </trkpt>
      <trkpt lat="45.14464" lon="4.56157">
        <ele>845.2</ele>
        <time>2026-05-01T13:38:37Z</time>
      </trkpt>
      <trkpt lat="45.14466" lon="4.56164">
        <ele>843.6</ele>
        <time>2026-05-01T13:38:42Z</time>
      </trkpt>
      <trkpt lat="45.14468" lon="4.56169">
        <ele>842.1</ele>
        <time>2026-05-01T13:38:47Z</time>
      </trkpt>
      <trkpt lat="45.14469" lon="4.56177">
        <ele>839.7</ele>
        <time>2026-05-01T13:38:52Z</time>
      </trkpt>
      <trkpt lat="45.14469" lon="4.56186">
        <ele>837.2</ele>
        <time>2026-05-01T13:38:57Z</time>
      </trkpt>
      <trkpt lat="45.14469" lon="4.56192">
        <ele>835.6</ele>
        <time>2026-05-01T13:39:02Z</time>
      </trkpt>
      <trkpt lat="45.1447" lon="4.56201">
        <ele>833</ele>
        <time>2026-05-01T13:39:07Z</time>
      </trkpt>
      <trkpt lat="45.14471" lon="4.56209">
        <ele>830.6</ele>
        <time>2026-05-01T13:39:12Z</time>
      </trkpt>
      <trkpt lat="45.14472" lon="4.56217">
        <ele>828.2</ele>
        <time>2026-05-01T13:39:17Z</time>
      </trkpt>
      <trkpt lat="45.14474" lon="4.56223">
        <ele>826.2</ele>
        <time>2026-05-01T13:39:22Z</time>
      </trkpt>
      <trkpt lat="45.14478" lon="4.5623">
        <ele>823.4</ele>
        <time>2026-05-01T13:39:27Z</time>
      </trkpt>
      <trkpt lat="45.14483" lon="4.56237">
        <ele>820.3</ele>
        <time>2026-05-01T13:39:32Z</time>
      </trkpt>
      <trkpt lat="45.14487" lon="4.56245">
        <ele>817.3</ele>
        <time>2026-05-01T13:39:37Z</time>
      </trkpt>
      <trkpt lat="45.14491" lon="4.56253">
        <ele>814.4</ele>
        <time>2026-05-01T13:39:42Z</time>
      </trkpt>
      <trkpt lat="45.14497" lon="4.56261">
        <ele>811.4</ele>
        <time>2026-05-01T13:39:47Z</time>
      </trkpt>
      <trkpt lat="45.14503" lon="4.56268">
        <ele>809</ele>
        <time>2026-05-01T13:39:52Z</time>
      </trkpt>
      <trkpt lat="45.14508" lon="4.56276">
        <ele>806.8</ele>
        <time>2026-05-01T13:39:57Z</time>
      </trkpt>
      <trkpt lat="45.14512" lon="4.56283">
        <ele>805.1</ele>
        <time>2026-05-01T13:40:02Z</time>
      </trkpt>
      <trkpt lat="45.14517" lon="4.56289">
        <ele>803.5</ele>
        <time>2026-05-01T13:40:07Z</time>
      </trkpt>
      <trkpt lat="45.14521" lon="4.56293">
        <ele>802.4</ele>
        <time>2026-05-01T13:40:12Z</time>
      </trkpt>
      <trkpt lat="45.14523" lon="4.56295">
        <ele>801.8</ele>
        <time>2026-05-01T13:40:17Z</time>
      </trkpt>
      <trkpt lat="45.14523" lon="4.56295">
        <ele>801.8</ele>
        <time>2026-05-01T13:40:22Z</time>
      </trkpt>
      <trkpt lat="45.14523" lon="4.56295">
        <ele>801.8</ele>
        <time>2026-05-01T13:40:27Z</time>
      </trkpt>
      <trkpt lat="45.14523" lon="4.56295">
        <ele>801.8</ele>
        <time>2026-05-01T13:40:32Z</time>
      </trkpt>
      <trkpt lat="45.14523" lon="4.56295">
        <ele>801.8</ele>
        <time>2026-05-01T13:40:37Z</time>
      </trkpt>
      <trkpt lat="45.14526" lon="4.56296">
        <ele>801.4</ele>
        <time>2026-05-01T13:40:42Z</time>
      </trkpt>
      <trkpt lat="45.1453" lon="4.563">
        <ele>800.4</ele>
        <time>2026-05-01T13:40:47Z</time>
      </trkpt>
      <trkpt lat="45.14534" lon="4.56299">
        <ele>800.2</ele>
        <time>2026-05-01T13:40:52Z</time>
      </trkpt>
      <trkpt lat="45.14538" lon="4.56301">
        <ele>799.5</ele>
        <time>2026-05-01T13:40:57Z</time>
      </trkpt>
      <trkpt lat="45.14541" lon="4.56303">
        <ele>799</ele>
        <time>2026-05-01T13:41:02Z</time>
      </trkpt>
      <trkpt lat="45.14542" lon="4.56303">
        <ele>798.9</ele>
        <time>2026-05-01T13:41:07Z</time>
      </trkpt>
      <trkpt lat="45.14542" lon="4.56303">
        <ele>798.9</ele>
        <time>2026-05-01T13:41:12Z</time>
      </trkpt>
      <trkpt lat="45.14542" lon="4.56303">
        <ele>798.9</ele>
        <time>2026-05-01T13:41:17Z</time>
      </trkpt>
      <trkpt lat="45.14542" lon="4.56303">
        <ele>798.9</ele>
        <time>2026-05-01T13:41:22Z</time>
      </trkpt>
      <trkpt lat="45.14545" lon="4.56306">
        <ele>798.2</ele>
        <time>2026-05-01T13:41:27Z</time>
      </trkpt>
      <trkpt lat="45.1455" lon="4.56309">
        <ele>797.3</ele>
        <time>2026-05-01T13:41:32Z</time>
      </trkpt>
      <trkpt lat="45.14555" lon="4.56312">
        <ele>796.5</ele>
        <time>2026-05-01T13:41:37Z</time>
      </trkpt>
      <trkpt lat="45.1456" lon="4.56316">
        <ele>795.6</ele>
        <time>2026-05-01T13:41:42Z</time>
      </trkpt>
      <trkpt lat="45.14565" lon="4.56317">
        <ele>795.1</ele>
        <time>2026-05-01T13:41:47Z</time>
      </trkpt>
      <trkpt lat="45.14569" lon="4.56321">
        <ele>794.3</ele>
        <time>2026-05-01T13:41:52Z</time>
      </trkpt>
      <trkpt lat="45.1457" lon="4.56322">
        <ele>794.2</ele>
        <time>2026-05-01T13:41:57Z</time>
      </trkpt>
      <trkpt lat="45.14571" lon="4.56322">
        <ele>794.1</ele>
        <time>2026-05-01T13:42:02Z</time>
      </trkpt>
      <trkpt lat="45.14571" lon="4.56322">
        <ele>794.1</ele>
        <time>2026-05-01T13:42:07Z</time>
      </trkpt>
      <trkpt lat="45.14571" lon="4.56322">
        <ele>794.1</ele>
        <time>2026-05-01T13:42:12Z</time>
      </trkpt>
      <trkpt lat="45.14571" lon="4.56322">
        <ele>794.1</ele>
        <time>2026-05-01T13:42:17Z</time>
      </trkpt>
      <trkpt lat="45.14575" lon="4.56324">
        <ele>793.6</ele>
        <time>2026-05-01T13:42:22Z</time>
      </trkpt>
      <trkpt lat="45.14578" lon="4.56328">
        <ele>792.9</ele>
        <time>2026-05-01T13:42:27Z</time>
      </trkpt>
      <trkpt lat="45.14583" lon="4.56334">
        <ele>791.9</ele>
        <time>2026-05-01T13:42:32Z</time>
      </trkpt>
      <trkpt lat="45.14588" lon="4.56339">
        <ele>790.2</ele>
        <time>2026-05-01T13:42:37Z</time>
      </trkpt>
      <trkpt lat="45.14592" lon="4.56344">
        <ele>788.7</ele>
        <time>2026-05-01T13:42:42Z</time>
      </trkpt>
      <trkpt lat="45.14596" lon="4.56347">
        <ele>787.6</ele>
        <time>2026-05-01T13:42:47Z</time>
      </trkpt>
      <trkpt lat="45.146" lon="4.5635">
        <ele>786.5</ele>
        <time>2026-05-01T13:42:52Z</time>
      </trkpt>
      <trkpt lat="45.146" lon="4.56353">
        <ele>786</ele>
        <time>2026-05-01T13:42:57Z</time>
      </trkpt>
      <trkpt lat="45.14605" lon="4.56359">
        <ele>784.4</ele>
        <time>2026-05-01T13:43:02Z</time>
      </trkpt>
      <trkpt lat="45.14609" lon="4.56367">
        <ele>782.8</ele>
        <time>2026-05-01T13:43:07Z</time>
      </trkpt>
      <trkpt lat="45.14612" lon="4.56374">
        <ele>781.5</ele>
        <time>2026-05-01T13:43:12Z</time>
      </trkpt>
      <trkpt lat="45.1461" lon="4.56383">
        <ele>780.5</ele>
        <time>2026-05-01T13:43:17Z</time>
      </trkpt>
      <trkpt lat="45.14607" lon="4.5639">
        <ele>779.9</ele>
        <time>2026-05-01T13:43:22Z</time>
      </trkpt>
      <trkpt lat="45.14603" lon="4.56395">
        <ele>779.5</ele>
        <time>2026-05-01T13:43:27Z</time>
      </trkpt>
      <trkpt lat="45.14599" lon="4.56401">
        <ele>778.8</ele>
        <time>2026-05-01T13:43:32Z</time>
      </trkpt>
      <trkpt lat="45.14594" lon="4.56406">
        <ele>778.3</ele>
        <time>2026-05-01T13:43:37Z</time>
      </trkpt>
      <trkpt lat="45.14587" lon="4.56409">
        <ele>778.2</ele>
        <time>2026-05-01T13:43:42Z</time>
      </trkpt>
      <trkpt lat="45.14581" lon="4.56414">
        <ele>777.6</ele>
        <time>2026-05-01T13:43:47Z</time>
      </trkpt>
      <trkpt lat="45.14574" lon="4.56417">
        <ele>777.5</ele>
        <time>2026-05-01T13:43:52Z</time>
      </trkpt>
      <trkpt lat="45.14568" lon="4.56421">
        <ele>777.4</ele>
        <time>2026-05-01T13:43:57Z</time>
      </trkpt>
      <trkpt lat="45.14561" lon="4.56428">
        <ele>776.9</ele>
        <time>2026-05-01T13:44:02Z</time>
      </trkpt>
      <trkpt lat="45.14556" lon="4.56433">
        <ele>776.6</ele>
        <time>2026-05-01T13:44:07Z</time>
      </trkpt>
      <trkpt lat="45.1455" lon="4.56437">
        <ele>776.4</ele>
        <time>2026-05-01T13:44:12Z</time>
      </trkpt>
      <trkpt lat="45.14544" lon="4.56441">
        <ele>776.2</ele>
        <time>2026-05-01T13:44:17Z</time>
      </trkpt>
      <trkpt lat="45.14537" lon="4.56445">
        <ele>776</ele>
        <time>2026-05-01T13:44:22Z</time>
      </trkpt>
      <trkpt lat="45.14532" lon="4.56449">
        <ele>775.7</ele>
        <time>2026-05-01T13:44:27Z</time>
      </trkpt>
      <trkpt lat="45.1453" lon="4.56452">
        <ele>775.4</ele>
        <time>2026-05-01T13:44:32Z</time>
      </trkpt>
      <trkpt lat="45.14529" lon="4.56453">
        <ele>775.3</ele>
        <time>2026-05-01T13:44:37Z</time>
      </trkpt>
      <trkpt lat="45.14524" lon="4.56456">
        <ele>775.2</ele>
        <time>2026-05-01T13:44:42Z</time>
      </trkpt>
      <trkpt lat="45.14519" lon="4.5646">
        <ele>774.9</ele>
        <time>2026-05-01T13:44:47Z</time>
      </trkpt>
      <trkpt lat="45.14513" lon="4.56466">
        <ele>774.3</ele>
        <time>2026-05-01T13:44:52Z</time>
      </trkpt>
      <trkpt lat="45.14508" lon="4.5647">
        <ele>774</ele>
        <time>2026-05-01T13:44:57Z</time>
      </trkpt>
      <trkpt lat="45.14501" lon="4.56476">
        <ele>773.4</ele>
        <time>2026-05-01T13:45:02Z</time>
      </trkpt>
      <trkpt lat="45.14496" lon="4.56486">
        <ele>773</ele>
        <time>2026-05-01T13:45:07Z</time>
      </trkpt>
      <trkpt lat="45.14492" lon="4.56494">
        <ele>772.8</ele>
        <time>2026-05-01T13:45:12Z</time>
      </trkpt>
      <trkpt lat="45.14491" lon="4.56503">
        <ele>771.8</ele>
        <time>2026-05-01T13:45:17Z</time>
      </trkpt>
      <trkpt lat="45.1449" lon="4.56512">
        <ele>771.1</ele>
        <time>2026-05-01T13:45:22Z</time>
      </trkpt>
      <trkpt lat="45.14489" lon="4.5652">
        <ele>770.4</ele>
        <time>2026-05-01T13:45:27Z</time>
      </trkpt>
      <trkpt lat="45.14489" lon="4.5653">
        <ele>769.3</ele>
        <time>2026-05-01T13:45:32Z</time>
      </trkpt>
      <trkpt lat="45.14487" lon="4.56539">
        <ele>768.7</ele>
        <time>2026-05-01T13:45:37Z</time>
      </trkpt>
      <trkpt lat="45.14485" lon="4.56548">
        <ele>768.1</ele>
        <time>2026-05-01T13:45:42Z</time>
      </trkpt>
      <trkpt lat="45.14484" lon="4.56557">
        <ele>767.3</ele>
        <time>2026-05-01T13:45:47Z</time>
      </trkpt>
      <trkpt lat="45.14484" lon="4.56555">
        <ele>767.5</ele>
        <time>2026-05-01T13:45:52Z</time>
      </trkpt>
      <trkpt lat="45.14485" lon="4.56551">
        <ele>767.8</ele>
        <time>2026-05-01T13:45:57Z</time>
      </trkpt>
      <trkpt lat="45.14486" lon="4.56545">
        <ele>768.2</ele>
        <time>2026-05-01T13:46:02Z</time>
      </trkpt>
      <trkpt lat="45.14489" lon="4.56538">
        <ele>768.4</ele>
        <time>2026-05-01T13:46:07Z</time>
      </trkpt>
      <trkpt lat="45.14489" lon="4.56531">
        <ele>769.1</ele>
        <time>2026-05-01T13:46:12Z</time>
      </trkpt>
      <trkpt lat="45.1449" lon="4.56526">
        <ele>769.5</ele>
        <time>2026-05-01T13:46:17Z</time>
      </trkpt>
      <trkpt lat="45.14491" lon="4.56519">
        <ele>770</ele>
        <time>2026-05-01T13:46:22Z</time>
      </trkpt>
      <trkpt lat="45.14489" lon="4.56514">
        <ele>771.1</ele>
        <time>2026-05-01T13:46:27Z</time>
      </trkpt>
      <trkpt lat="45.14489" lon="4.56507">
        <ele>771.9</ele>
        <time>2026-05-01T13:46:32Z</time>
      </trkpt>
      <trkpt lat="45.14489" lon="4.56501">
        <ele>772.5</ele>
        <time>2026-05-01T13:46:37Z</time>
      </trkpt>
      <trkpt lat="45.1449" lon="4.56497">
        <ele>772.8</ele>
        <time>2026-05-01T13:46:42Z</time>
      </trkpt>
      <trkpt lat="45.14492" lon="4.56492">
        <ele>773</ele>
        <time>2026-05-01T13:46:47Z</time>
      </trkpt>
      <trkpt lat="45.14494" lon="4.56487">
        <ele>773.3</ele>
        <time>2026-05-01T13:46:52Z</time>
      </trkpt>
      <trkpt lat="45.14497" lon="4.56481">
        <ele>773.4</ele>
        <time>2026-05-01T13:46:57Z</time>
      </trkpt>
      <trkpt lat="45.14502" lon="4.56477">
        <ele>773.2</ele>
        <time>2026-05-01T13:47:02Z</time>
      </trkpt>
      <trkpt lat="45.14506" lon="4.56473">
        <ele>773.6</ele>
        <time>2026-05-01T13:47:07Z</time>
      </trkpt>
      <trkpt lat="45.14511" lon="4.5647">
        <ele>773.8</ele>
        <time>2026-05-01T13:47:12Z</time>
      </trkpt>
      <trkpt lat="45.14516" lon="4.56467">
        <ele>774</ele>
        <time>2026-05-01T13:47:17Z</time>
      </trkpt>
      <trkpt lat="45.1452" lon="4.56464">
        <ele>774.3</ele>
        <time>2026-05-01T13:47:22Z</time>
      </trkpt>
      <trkpt lat="45.14523" lon="4.56461">
        <ele>774.5</ele>
        <time>2026-05-01T13:47:27Z</time>
      </trkpt>
      <trkpt lat="45.14528" lon="4.56457">
        <ele>774.8</ele>
        <time>2026-05-01T13:47:32Z</time>
      </trkpt>
      <trkpt lat="45.14532" lon="4.56453">
        <ele>775.2</ele>
        <time>2026-05-01T13:47:37Z</time>
      </trkpt>
      <trkpt lat="45.14536" lon="4.56449">
        <ele>775.5</ele>
        <time>2026-05-01T13:47:42Z</time>
      </trkpt>
      <trkpt lat="45.14541" lon="4.56446">
        <ele>775.7</ele>
        <time>2026-05-01T13:47:47Z</time>
      </trkpt>
      <trkpt lat="45.14545" lon="4.56442">
        <ele>776</ele>
        <time>2026-05-01T13:47:52Z</time>
      </trkpt>
      <trkpt lat="45.14549" lon="4.56439">
        <ele>776.2</ele>
        <time>2026-05-01T13:47:57Z</time>
      </trkpt>
      <trkpt lat="45.14553" lon="4.56436">
        <ele>776.3</ele>
        <time>2026-05-01T13:48:02Z</time>
      </trkpt>
      <trkpt lat="45.14559" lon="4.56431">
        <ele>776.6</ele>
        <time>2026-05-01T13:48:07Z</time>
      </trkpt>
      <trkpt lat="45.14564" lon="4.56426">
        <ele>777</ele>
        <time>2026-05-01T13:48:12Z</time>
      </trkpt>
      <trkpt lat="45.1457" lon="4.56422">
        <ele>777.1</ele>
        <time>2026-05-01T13:48:17Z</time>
      </trkpt>
      <trkpt lat="45.14575" lon="4.56419">
        <ele>777.2</ele>
        <time>2026-05-01T13:48:22Z</time>
      </trkpt>
      <trkpt lat="45.1458" lon="4.56415">
        <ele>777.5</ele>
        <time>2026-05-01T13:48:26Z</time>
      </trkpt>
      <trkpt lat="45.14586" lon="4.5641">
        <ele>778.1</ele>
        <time>2026-05-01T13:48:32Z</time>
      </trkpt>
      <trkpt lat="45.14592" lon="4.56408">
        <ele>778.1</ele>
        <time>2026-05-01T13:48:37Z</time>
      </trkpt>
      <trkpt lat="45.14597" lon="4.56405">
        <ele>778.3</ele>
        <time>2026-05-01T13:48:42Z</time>
      </trkpt>
      <trkpt lat="45.14603" lon="4.56403">
        <ele>778.3</ele>
        <time>2026-05-01T13:48:47Z</time>
      </trkpt>
      <trkpt lat="45.14609" lon="4.564">
        <ele>778.3</ele>
        <time>2026-05-01T13:48:52Z</time>
      </trkpt>
      <trkpt lat="45.14615" lon="4.56399">
        <ele>778.1</ele>
        <time>2026-05-01T13:48:57Z</time>
      </trkpt>
      <trkpt lat="45.14619" lon="4.56399">
        <ele>777.8</ele>
        <time>2026-05-01T13:49:02Z</time>
      </trkpt>
      <trkpt lat="45.14625" lon="4.56404">
        <ele>776.9</ele>
        <time>2026-05-01T13:49:07Z</time>
      </trkpt>
      <trkpt lat="45.14628" lon="4.56411">
        <ele>776</ele>
        <time>2026-05-01T13:49:12Z</time>
      </trkpt>
      <trkpt lat="45.14632" lon="4.56419">
        <ele>775.1</ele>
        <time>2026-05-01T13:49:17Z</time>
      </trkpt>
      <trkpt lat="45.14635" lon="4.56429">
        <ele>774.7</ele>
        <time>2026-05-01T13:49:22Z</time>
      </trkpt>
      <trkpt lat="45.14638" lon="4.56437">
        <ele>774.4</ele>
        <time>2026-05-01T13:49:27Z</time>
      </trkpt>
      <trkpt lat="45.14641" lon="4.56445">
        <ele>774.1</ele>
        <time>2026-05-01T13:49:32Z</time>
      </trkpt>
      <trkpt lat="45.14645" lon="4.56453">
        <ele>774</ele>
        <time>2026-05-01T13:49:37Z</time>
      </trkpt>
      <trkpt lat="45.14649" lon="4.56459">
        <ele>774</ele>
        <time>2026-05-01T13:49:42Z</time>
      </trkpt>
      <trkpt lat="45.14652" lon="4.5647">
        <ele>773.9</ele>
        <time>2026-05-01T13:49:47Z</time>
      </trkpt>
      <trkpt lat="45.14654" lon="4.56474">
        <ele>774</ele>
        <time>2026-05-01T13:49:52Z</time>
      </trkpt>
      <trkpt lat="45.14657" lon="4.56478">
        <ele>774.1</ele>
        <time>2026-05-01T13:49:57Z</time>
      </trkpt>
      <trkpt lat="45.14661" lon="4.56484">
        <ele>774.4</ele>
        <time>2026-05-01T13:50:02Z</time>
      </trkpt>
      <trkpt lat="45.14663" lon="4.56489">
        <ele>774.6</ele>
        <time>2026-05-01T13:50:07Z</time>
      </trkpt>
      <trkpt lat="45.14665" lon="4.56493">
        <ele>774.8</ele>
        <time>2026-05-01T13:50:12Z</time>
      </trkpt>
      <trkpt lat="45.14667" lon="4.56497">
        <ele>775</ele>
        <time>2026-05-01T13:50:17Z</time>
      </trkpt>
      <trkpt lat="45.14668" lon="4.56503">
        <ele>775.3</ele>
        <time>2026-05-01T13:50:22Z</time>
      </trkpt>
      <trkpt lat="45.14669" lon="4.56508">
        <ele>775.9</ele>
        <time>2026-05-01T13:50:27Z</time>
      </trkpt>
      <trkpt lat="45.14671" lon="4.56514">
        <ele>776.6</ele>
        <time>2026-05-01T13:50:32Z</time>
      </trkpt>
      <trkpt lat="45.14671" lon="4.5652">
        <ele>777.3</ele>
        <time>2026-05-01T13:50:37Z</time>
      </trkpt>
      <trkpt lat="45.14672" lon="4.56524">
        <ele>777.7</ele>
        <time>2026-05-01T13:50:42Z</time>
      </trkpt>
      <trkpt lat="45.14673" lon="4.56528">
        <ele>778.2</ele>
        <time>2026-05-01T13:50:47Z</time>
      </trkpt>
      <trkpt lat="45.14672" lon="4.56532">
        <ele>778.7</ele>
        <time>2026-05-01T13:50:52Z</time>
      </trkpt>
      <trkpt lat="45.14671" lon="4.56537">
        <ele>779.3</ele>
        <time>2026-05-01T13:50:57Z</time>
      </trkpt>
      <trkpt lat="45.14671" lon="4.56542">
        <ele>779.9</ele>
        <time>2026-05-01T13:51:02Z</time>
      </trkpt>
      <trkpt lat="45.14671" lon="4.56547">
        <ele>780.4</ele>
        <time>2026-05-01T13:51:07Z</time>
      </trkpt>
      <trkpt lat="45.1467" lon="4.56552">
        <ele>781.1</ele>
        <time>2026-05-01T13:51:12Z</time>
      </trkpt>
      <trkpt lat="45.14668" lon="4.56558">
        <ele>781.9</ele>
        <time>2026-05-01T13:51:17Z</time>
      </trkpt>
      <trkpt lat="45.14668" lon="4.56563">
        <ele>782.5</ele>
        <time>2026-05-01T13:51:22Z</time>
      </trkpt>
      <trkpt lat="45.14665" lon="4.56569">
        <ele>782.9</ele>
        <time>2026-05-01T13:51:27Z</time>
      </trkpt>
      <trkpt lat="45.14662" lon="4.56572">
        <ele>782.7</ele>
        <time>2026-05-01T13:51:32Z</time>
      </trkpt>
      <trkpt lat="45.14659" lon="4.56576">
        <ele>782.5</ele>
        <time>2026-05-01T13:51:37Z</time>
      </trkpt>
      <trkpt lat="45.14656" lon="4.56581">
        <ele>782.3</ele>
        <time>2026-05-01T13:51:42Z</time>
      </trkpt>
      <trkpt lat="45.14653" lon="4.56587">
        <ele>782.3</ele>
        <time>2026-05-01T13:51:47Z</time>
      </trkpt>
      <trkpt lat="45.14651" lon="4.56591">
        <ele>782.3</ele>
        <time>2026-05-01T13:51:52Z</time>
      </trkpt>
      <trkpt lat="45.14648" lon="4.56594">
        <ele>781.9</ele>
        <time>2026-05-01T13:51:57Z</time>
      </trkpt>
      <trkpt lat="45.14646" lon="4.56599">
        <ele>781.9</ele>
        <time>2026-05-01T13:52:02Z</time>
      </trkpt>
      <trkpt lat="45.14644" lon="4.56602">
        <ele>781.7</ele>
        <time>2026-05-01T13:52:07Z</time>
      </trkpt>
      <trkpt lat="45.14642" lon="4.56606">
        <ele>781.6</ele>
        <time>2026-05-01T13:52:12Z</time>
      </trkpt>
      <trkpt lat="45.1464" lon="4.56612">
        <ele>781.7</ele>
        <time>2026-05-01T13:52:17Z</time>
      </trkpt>
      <trkpt lat="45.14638" lon="4.56617">
        <ele>781.7</ele>
        <time>2026-05-01T13:52:22Z</time>
      </trkpt>
      <trkpt lat="45.14638" lon="4.56622">
        <ele>782.1</ele>
        <time>2026-05-01T13:52:27Z</time>
      </trkpt>
      <trkpt lat="45.14636" lon="4.56627">
        <ele>782</ele>
        <time>2026-05-01T13:52:32Z</time>
      </trkpt>
      <trkpt lat="45.14635" lon="4.56632">
        <ele>782.2</ele>
        <time>2026-05-01T13:52:37Z</time>
      </trkpt>
      <trkpt lat="45.14633" lon="4.56637">
        <ele>782.1</ele>
        <time>2026-05-01T13:52:42Z</time>
      </trkpt>
      <trkpt lat="45.14631" lon="4.56643">
        <ele>782</ele>
        <time>2026-05-01T13:52:47Z</time>
      </trkpt>
      <trkpt lat="45.14629" lon="4.56648">
        <ele>781.8</ele>
        <time>2026-05-01T13:52:52Z</time>
      </trkpt>
      <trkpt lat="45.14627" lon="4.56653">
        <ele>781.6</ele>
        <time>2026-05-01T13:52:57Z</time>
      </trkpt>
      <trkpt lat="45.14627" lon="4.56659">
        <ele>782.1</ele>
        <time>2026-05-01T13:53:02Z</time>
      </trkpt>
      <trkpt lat="45.14625" lon="4.56663">
        <ele>781.7</ele>
        <time>2026-05-01T13:53:07Z</time>
      </trkpt>
      <trkpt lat="45.14622" lon="4.56668">
        <ele>781.1</ele>
        <time>2026-05-01T13:53:12Z</time>
      </trkpt>
      <trkpt lat="45.14619" lon="4.56673">
        <ele>780.6</ele>
        <time>2026-05-01T13:53:17Z</time>
      </trkpt>
      <trkpt lat="45.14617" lon="4.56678">
        <ele>780.4</ele>
        <time>2026-05-01T13:53:22Z</time>
      </trkpt>
      <trkpt lat="45.14615" lon="4.56683">
        <ele>780.2</ele>
        <time>2026-05-01T13:53:27Z</time>
      </trkpt>
      <trkpt lat="45.14614" lon="4.56689">
        <ele>780.5</ele>
        <time>2026-05-01T13:53:32Z</time>
      </trkpt>
      <trkpt lat="45.14613" lon="4.56695">
        <ele>780.7</ele>
        <time>2026-05-01T13:53:37Z</time>
      </trkpt>
      <trkpt lat="45.14611" lon="4.567">
        <ele>780.5</ele>
        <time>2026-05-01T13:53:42Z</time>
      </trkpt>
      <trkpt lat="45.14607" lon="4.56705">
        <ele>779.6</ele>
        <time>2026-05-01T13:53:47Z</time>
      </trkpt>
      <trkpt lat="45.14605" lon="4.56712">
        <ele>779.5</ele>
        <time>2026-05-01T13:53:52Z</time>
      </trkpt>
      <trkpt lat="45.14604" lon="4.56718">
        <ele>779.7</ele>
        <time>2026-05-01T13:53:57Z</time>
      </trkpt>
      <trkpt lat="45.14602" lon="4.56724">
        <ele>779.6</ele>
        <time>2026-05-01T13:54:02Z</time>
      </trkpt>
      <trkpt lat="45.14601" lon="4.56729">
        <ele>779.6</ele>
        <time>2026-05-01T13:54:07Z</time>
      </trkpt>
      <trkpt lat="45.14599" lon="4.56735">
        <ele>779.5</ele>
        <time>2026-05-01T13:54:12Z</time>
      </trkpt>
      <trkpt lat="45.14597" lon="4.56741">
        <ele>779.3</ele>
        <time>2026-05-01T13:54:17Z</time>
      </trkpt>
      <trkpt lat="45.14594" lon="4.56746">
        <ele>778.6</ele>
        <time>2026-05-01T13:54:22Z</time>
      </trkpt>
      <trkpt lat="45.1459" lon="4.5675">
        <ele>777.5</ele>
        <time>2026-05-01T13:54:27Z</time>
      </trkpt>
      <trkpt lat="45.14586" lon="4.56756">
        <ele>776.6</ele>
        <time>2026-05-01T13:54:32Z</time>
      </trkpt>
      <trkpt lat="45.14584" lon="4.56763">
        <ele>776.5</ele>
        <time>2026-05-01T13:54:37Z</time>
      </trkpt>
      <trkpt lat="45.14584" lon="4.56771">
        <ele>777.3</ele>
        <time>2026-05-01T13:54:42Z</time>
      </trkpt>
      <trkpt lat="45.14583" lon="4.5678">
        <ele>777.8</ele>
        <time>2026-05-01T13:54:47Z</time>
      </trkpt>
      <trkpt lat="45.14583" lon="4.56783">
        <ele>778.1</ele>
        <time>2026-05-01T13:54:52Z</time>
      </trkpt>
      <trkpt lat="45.14583" lon="4.56787">
        <ele>778.4</ele>
        <time>2026-05-01T13:54:57Z</time>
      </trkpt>
      <trkpt lat="45.14583" lon="4.56794">
        <ele>779.1</ele>
        <time>2026-05-01T13:55:02Z</time>
      </trkpt>
      <trkpt lat="45.14583" lon="4.56801">
        <ele>779.8</ele>
        <time>2026-05-01T13:55:07Z</time>
      </trkpt>
      <trkpt lat="45.14584" lon="4.56806">
        <ele>780.6</ele>
        <time>2026-05-01T13:55:12Z</time>
      </trkpt>
      <trkpt lat="45.14585" lon="4.56817">
        <ele>782</ele>
        <time>2026-05-01T13:55:17Z</time>
      </trkpt>
      <trkpt lat="45.14585" lon="4.56825">
        <ele>782.7</ele>
        <time>2026-05-01T13:55:22Z</time>
      </trkpt>
      <trkpt lat="45.14584" lon="4.56831">
        <ele>783</ele>
        <time>2026-05-01T13:55:27Z</time>
      </trkpt>
      <trkpt lat="45.14583" lon="4.56838">
        <ele>783.4</ele>
        <time>2026-05-01T13:55:32Z</time>
      </trkpt>
      <trkpt lat="45.14583" lon="4.56845">
        <ele>784.1</ele>
        <time>2026-05-01T13:55:37Z</time>
      </trkpt>
      <trkpt lat="45.14583" lon="4.56852">
        <ele>784.9</ele>
        <time>2026-05-01T13:55:42Z</time>
      </trkpt>
      <trkpt lat="45.14585" lon="4.56857">
        <ele>786</ele>
        <time>2026-05-01T13:55:47Z</time>
      </trkpt>
      <trkpt lat="45.14585" lon="4.56857">
        <ele>786</ele>
        <time>2026-05-01T13:55:52Z</time>
      </trkpt>
      <trkpt lat="45.14585" lon="4.56857">
        <ele>786</ele>
        <time>2026-05-01T13:55:57Z</time>
      </trkpt>
      <trkpt lat="45.14585" lon="4.56857">
        <ele>786</ele>
        <time>2026-05-01T13:56:02Z</time>
      </trkpt>
      <trkpt lat="45.14585" lon="4.56857">
        <ele>786</ele>
        <time>2026-05-01T13:56:07Z</time>
      </trkpt>
      <trkpt lat="45.14586" lon="4.5687">
        <ele>787.7</ele>
        <time>2026-05-01T13:56:12Z</time>
      </trkpt>
      <trkpt lat="45.14586" lon="4.56872">
        <ele>787.9</ele>
        <time>2026-05-01T13:56:17Z</time>
      </trkpt>
      <trkpt lat="45.14585" lon="4.56879">
        <ele>788.4</ele>
        <time>2026-05-01T13:56:22Z</time>
      </trkpt>
      <trkpt lat="45.14586" lon="4.56885">
        <ele>789.3</ele>
        <time>2026-05-01T13:56:27Z</time>
      </trkpt>
      <trkpt lat="45.14587" lon="4.56891">
        <ele>790.1</ele>
        <time>2026-05-01T13:56:32Z</time>
      </trkpt>
      <trkpt lat="45.14588" lon="4.56896">
        <ele>790.9</ele>
        <time>2026-05-01T13:56:37Z</time>
      </trkpt>
      <trkpt lat="45.14588" lon="4.56902">
        <ele>791.5</ele>
        <time>2026-05-01T13:56:42Z</time>
      </trkpt>
      <trkpt lat="45.14588" lon="4.56907">
        <ele>792.1</ele>
        <time>2026-05-01T13:56:47Z</time>
      </trkpt>
      <trkpt lat="45.14586" lon="4.56914">
        <ele>792.3</ele>
        <time>2026-05-01T13:56:52Z</time>
      </trkpt>
      <trkpt lat="45.14585" lon="4.56922">
        <ele>793</ele>
        <time>2026-05-01T13:56:57Z</time>
      </trkpt>
      <trkpt lat="45.14586" lon="4.56928">
        <ele>793.9</ele>
        <time>2026-05-01T13:57:02Z</time>
      </trkpt>
      <trkpt lat="45.14585" lon="4.56935">
        <ele>794.6</ele>
        <time>2026-05-01T13:57:07Z</time>
      </trkpt>
      <trkpt lat="45.14585" lon="4.56941">
        <ele>795.3</ele>
        <time>2026-05-01T13:57:12Z</time>
      </trkpt>
      <trkpt lat="45.14585" lon="4.56949">
        <ele>796.2</ele>
        <time>2026-05-01T13:57:17Z</time>
      </trkpt>
      <trkpt lat="45.14586" lon="4.56957">
        <ele>797.4</ele>
        <time>2026-05-01T13:57:22Z</time>
      </trkpt>
      <trkpt lat="45.14586" lon="4.56965">
        <ele>798.3</ele>
        <time>2026-05-01T13:57:27Z</time>
      </trkpt>
      <trkpt lat="45.14586" lon="4.56974">
        <ele>799.4</ele>
        <time>2026-05-01T13:57:32Z</time>
      </trkpt>
      <trkpt lat="45.14587" lon="4.56983">
        <ele>800.6</ele>
        <time>2026-05-01T13:57:37Z</time>
      </trkpt>
      <trkpt lat="45.14588" lon="4.5699">
        <ele>801.6</ele>
        <time>2026-05-01T13:57:42Z</time>
      </trkpt>
      <trkpt lat="45.1459" lon="4.56999">
        <ele>802.9</ele>
        <time>2026-05-01T13:57:47Z</time>
      </trkpt>
      <trkpt lat="45.14594" lon="4.57007">
        <ele>804.5</ele>
        <time>2026-05-01T13:57:52Z</time>
      </trkpt>
      <trkpt lat="45.14595" lon="4.57017">
        <ele>805.9</ele>
        <time>2026-05-01T13:57:57Z</time>
      </trkpt>
      <trkpt lat="45.14595" lon="4.57028">
        <ele>807.2</ele>
        <time>2026-05-01T13:58:02Z</time>
      </trkpt>
      <trkpt lat="45.14598" lon="4.57033">
        <ele>808.2</ele>
        <time>2026-05-01T13:58:07Z</time>
      </trkpt>
      <trkpt lat="45.146" lon="4.57041">
        <ele>809.3</ele>
        <time>2026-05-01T13:58:12Z</time>
      </trkpt>
      <trkpt lat="45.14601" lon="4.57052">
        <ele>810.7</ele>
        <time>2026-05-01T13:58:17Z</time>
      </trkpt>
      <trkpt lat="45.14603" lon="4.57059">
        <ele>811.7</ele>
        <time>2026-05-01T13:58:22Z</time>
      </trkpt>
      <trkpt lat="45.14605" lon="4.57067">
        <ele>812.8</ele>
        <time>2026-05-01T13:58:27Z</time>
      </trkpt>
      <trkpt lat="45.14606" lon="4.57075">
        <ele>813.7</ele>
        <time>2026-05-01T13:58:32Z</time>
      </trkpt>
      <trkpt lat="45.14605" lon="4.57084">
        <ele>814.6</ele>
        <time>2026-05-01T13:58:37Z</time>
      </trkpt>
      <trkpt lat="45.14605" lon="4.57093">
        <ele>814.8</ele>
        <time>2026-05-01T13:58:42Z</time>
      </trkpt>
      <trkpt lat="45.14604" lon="4.57102">
        <ele>814.9</ele>
        <time>2026-05-01T13:58:47Z</time>
      </trkpt>
      <trkpt lat="45.14605" lon="4.5711">
        <ele>815.2</ele>
        <time>2026-05-01T13:58:52Z</time>
      </trkpt>
      <trkpt lat="45.14605" lon="4.57119">
        <ele>815.4</ele>
        <time>2026-05-01T13:58:57Z</time>
      </trkpt>
      <trkpt lat="45.14605" lon="4.57127">
        <ele>815.6</ele>
        <time>2026-05-01T13:59:02Z</time>
      </trkpt>
      <trkpt lat="45.14602" lon="4.57138">
        <ele>815.7</ele>
        <time>2026-05-01T13:59:07Z</time>
      </trkpt>
      <trkpt lat="45.146" lon="4.57148">
        <ele>815.9</ele>
        <time>2026-05-01T13:59:12Z</time>
      </trkpt>
      <trkpt lat="45.14598" lon="4.57156">
        <ele>816.1</ele>
        <time>2026-05-01T13:59:17Z</time>
      </trkpt>
      <trkpt lat="45.14596" lon="4.57167">
        <ele>816.3</ele>
        <time>2026-05-01T13:59:22Z</time>
      </trkpt>
      <trkpt lat="45.14592" lon="4.57176">
        <ele>815.9</ele>
        <time>2026-05-01T13:59:27Z</time>
      </trkpt>
      <trkpt lat="45.14589" lon="4.57185">
        <ele>815.7</ele>
        <time>2026-05-01T13:59:32Z</time>
      </trkpt>
      <trkpt lat="45.14587" lon="4.57196">
        <ele>815.3</ele>
        <time>2026-05-01T13:59:37Z</time>
      </trkpt>
      <trkpt lat="45.14585" lon="4.57205">
        <ele>815.1</ele>
        <time>2026-05-01T13:59:42Z</time>
      </trkpt>
      <trkpt lat="45.14583" lon="4.57216">
        <ele>814.7</ele>
        <time>2026-05-01T13:59:47Z</time>
      </trkpt>
      <trkpt lat="45.1458" lon="4.57224">
        <ele>813.6</ele>
        <time>2026-05-01T13:59:52Z</time>
      </trkpt>
      <trkpt lat="45.14578" lon="4.57232">
        <ele>812.8</ele>
        <time>2026-05-01T13:59:57Z</time>
      </trkpt>
      <trkpt lat="45.14575" lon="4.57243">
        <ele>811.6</ele>
        <time>2026-05-01T14:00:02Z</time>
      </trkpt>
      <trkpt lat="45.14573" lon="4.57251">
        <ele>811</ele>
        <time>2026-05-01T14:00:07Z</time>
      </trkpt>
      <trkpt lat="45.14572" lon="4.5726">
        <ele>811.3</ele>
        <time>2026-05-01T14:00:12Z</time>
      </trkpt>
      <trkpt lat="45.14573" lon="4.57266">
        <ele>812.1</ele>
        <time>2026-05-01T14:00:17Z</time>
      </trkpt>
      <trkpt lat="45.14574" lon="4.57271">
        <ele>812.7</ele>
        <time>2026-05-01T14:00:22Z</time>
      </trkpt>
      <trkpt lat="45.14574" lon="4.57273">
        <ele>812.8</ele>
        <time>2026-05-01T14:00:27Z</time>
      </trkpt>
      <trkpt lat="45.14573" lon="4.57274">
        <ele>812.6</ele>
        <time>2026-05-01T14:00:32Z</time>
      </trkpt>
      <trkpt lat="45.14573" lon="4.57274">
        <ele>812.6</ele>
        <time>2026-05-01T14:00:37Z</time>
      </trkpt>
      <trkpt lat="45.14573" lon="4.57274">
        <ele>812.6</ele>
        <time>2026-05-01T14:00:42Z</time>
      </trkpt>
      <trkpt lat="45.14573" lon="4.57274">
        <ele>812.6</ele>
        <time>2026-05-01T14:00:47Z</time>
      </trkpt>
      <trkpt lat="45.14573" lon="4.57274">
        <ele>812.6</ele>
        <time>2026-05-01T14:00:52Z</time>
      </trkpt>
      <trkpt lat="45.14573" lon="4.57274">
        <ele>812.6</ele>
        <time>2026-05-01T14:00:57Z</time>
      </trkpt>
      <trkpt lat="45.14573" lon="4.57274">
        <ele>812.6</ele>
        <time>2026-05-01T14:01:02Z</time>
      </trkpt>
      <trkpt lat="45.14573" lon="4.57274">
        <ele>812.6</ele>
        <time>2026-05-01T14:01:07Z</time>
      </trkpt>
      <trkpt lat="45.14573" lon="4.57274">
        <ele>812.6</ele>
        <time>2026-05-01T14:01:12Z</time>
      </trkpt>
      <trkpt lat="45.14573" lon="4.57274">
        <ele>812.6</ele>
        <time>2026-05-01T14:01:17Z</time>
      </trkpt>
      <trkpt lat="45.14573" lon="4.57274">
        <ele>812.6</ele>
        <time>2026-05-01T14:01:22Z</time>
      </trkpt>
      <trkpt lat="45.14573" lon="4.57274">
        <ele>812.6</ele>
        <time>2026-05-01T14:01:27Z</time>
      </trkpt>
      <trkpt lat="45.1457" lon="4.57287">
        <ele>812.8</ele>
        <time>2026-05-01T14:01:32Z</time>
      </trkpt>
      <trkpt lat="45.14569" lon="4.57292">
        <ele>812.9</ele>
        <time>2026-05-01T14:01:37Z</time>
      </trkpt>
      <trkpt lat="45.14567" lon="4.57301">
        <ele>813.1</ele>
        <time>2026-05-01T14:01:42Z</time>
      </trkpt>
      <trkpt lat="45.14565" lon="4.57309">
        <ele>813.3</ele>
        <time>2026-05-01T14:01:47Z</time>
      </trkpt>
      <trkpt lat="45.14565" lon="4.5732">
        <ele>814.2</ele>
        <time>2026-05-01T14:01:52Z</time>
      </trkpt>
      <trkpt lat="45.14566" lon="4.57332">
        <ele>815.4</ele>
        <time>2026-05-01T14:01:57Z</time>
      </trkpt>
      <trkpt lat="45.14566" lon="4.57343">
        <ele>816</ele>
        <time>2026-05-01T14:02:02Z</time>
      </trkpt>
      <trkpt lat="45.14566" lon="4.57353">
        <ele>816.5</ele>
        <time>2026-05-01T14:02:07Z</time>
      </trkpt>
      <trkpt lat="45.14565" lon="4.57363">
        <ele>816.8</ele>
        <time>2026-05-01T14:02:12Z</time>
      </trkpt>
      <trkpt lat="45.14565" lon="4.57373">
        <ele>817.4</ele>
        <time>2026-05-01T14:02:17Z</time>
      </trkpt>
      <trkpt lat="45.14566" lon="4.57383">
        <ele>818</ele>
        <time>2026-05-01T14:02:22Z</time>
      </trkpt>
      <trkpt lat="45.14565" lon="4.57393">
        <ele>818.4</ele>
        <time>2026-05-01T14:02:27Z</time>
      </trkpt>
      <trkpt lat="45.14564" lon="4.57403">
        <ele>818.9</ele>
        <time>2026-05-01T14:02:32Z</time>
      </trkpt>
      <trkpt lat="45.14563" lon="4.57414">
        <ele>819.4</ele>
        <time>2026-05-01T14:02:37Z</time>
      </trkpt>
      <trkpt lat="45.14563" lon="4.57424">
        <ele>819.9</ele>
        <time>2026-05-01T14:02:42Z</time>
      </trkpt>
      <trkpt lat="45.14564" lon="4.57435">
        <ele>820.5</ele>
        <time>2026-05-01T14:02:47Z</time>
      </trkpt>
      <trkpt lat="45.14564" lon="4.57443">
        <ele>820.8</ele>
        <time>2026-05-01T14:02:52Z</time>
      </trkpt>
      <trkpt lat="45.14565" lon="4.5745">
        <ele>821.2</ele>
        <time>2026-05-01T14:02:57Z</time>
      </trkpt>
      <trkpt lat="45.14565" lon="4.57459">
        <ele>821.7</ele>
        <time>2026-05-01T14:03:02Z</time>
      </trkpt>
      <trkpt lat="45.14565" lon="4.5747">
        <ele>822.2</ele>
        <time>2026-05-01T14:03:07Z</time>
      </trkpt>
      <trkpt lat="45.14563" lon="4.57478">
        <ele>822.5</ele>
        <time>2026-05-01T14:03:12Z</time>
      </trkpt>
      <trkpt lat="45.14562" lon="4.57488">
        <ele>822.9</ele>
        <time>2026-05-01T14:03:17Z</time>
      </trkpt>
      <trkpt lat="45.14561" lon="4.57499">
        <ele>823.4</ele>
        <time>2026-05-01T14:03:22Z</time>
      </trkpt>
      <trkpt lat="45.14561" lon="4.57509">
        <ele>822.7</ele>
        <time>2026-05-01T14:03:27Z</time>
      </trkpt>
      <trkpt lat="45.14562" lon="4.57522">
        <ele>821.6</ele>
        <time>2026-05-01T14:03:32Z</time>
      </trkpt>
      <trkpt lat="45.14562" lon="4.57533">
        <ele>820.6</ele>
        <time>2026-05-01T14:03:37Z</time>
      </trkpt>
      <trkpt lat="45.14561" lon="4.57542">
        <ele>819.8</ele>
        <time>2026-05-01T14:03:42Z</time>
      </trkpt>
      <trkpt lat="45.14562" lon="4.57552">
        <ele>818.9</ele>
        <time>2026-05-01T14:03:47Z</time>
      </trkpt>
      <trkpt lat="45.14562" lon="4.57562">
        <ele>818.1</ele>
        <time>2026-05-01T14:03:52Z</time>
      </trkpt>
      <trkpt lat="45.14564" lon="4.5757">
        <ele>817.5</ele>
        <time>2026-05-01T14:03:57Z</time>
      </trkpt>
      <trkpt lat="45.14566" lon="4.57578">
        <ele>817</ele>
        <time>2026-05-01T14:04:02Z</time>
      </trkpt>
      <trkpt lat="45.14565" lon="4.57587">
        <ele>815.8</ele>
        <time>2026-05-01T14:04:07Z</time>
      </trkpt>
      <trkpt lat="45.14565" lon="4.57596">
        <ele>814.1</ele>
        <time>2026-05-01T14:04:12Z</time>
      </trkpt>
      <trkpt lat="45.14565" lon="4.57608">
        <ele>811.9</ele>
        <time>2026-05-01T14:04:17Z</time>
      </trkpt>
      <trkpt lat="45.14564" lon="4.57618">
        <ele>809.9</ele>
        <time>2026-05-01T14:04:22Z</time>
      </trkpt>
      <trkpt lat="45.14565" lon="4.57625">
        <ele>808.7</ele>
        <time>2026-05-01T14:04:27Z</time>
      </trkpt>
      <trkpt lat="45.14566" lon="4.57634">
        <ele>807.2</ele>
        <time>2026-05-01T14:04:32Z</time>
      </trkpt>
      <trkpt lat="45.14567" lon="4.57644">
        <ele>805.4</ele>
        <time>2026-05-01T14:04:37Z</time>
      </trkpt>
      <trkpt lat="45.14569" lon="4.57653">
        <ele>804</ele>
        <time>2026-05-01T14:04:42Z</time>
      </trkpt>
      <trkpt lat="45.14568" lon="4.57661">
        <ele>802.4</ele>
        <time>2026-05-01T14:04:47Z</time>
      </trkpt>
      <trkpt lat="45.1457" lon="4.5767">
        <ele>801</ele>
        <time>2026-05-01T14:04:52Z</time>
      </trkpt>
      <trkpt lat="45.14572" lon="4.57678">
        <ele>800</ele>
        <time>2026-05-01T14:04:57Z</time>
      </trkpt>
      <trkpt lat="45.14573" lon="4.57686">
        <ele>798.8</ele>
        <time>2026-05-01T14:05:02Z</time>
      </trkpt>
      <trkpt lat="45.14574" lon="4.57694">
        <ele>797.7</ele>
        <time>2026-05-01T14:05:07Z</time>
      </trkpt>
      <trkpt lat="45.14574" lon="4.57702">
        <ele>796.4</ele>
        <time>2026-05-01T14:05:12Z</time>
      </trkpt>
      <trkpt lat="45.14576" lon="4.5771">
        <ele>795.5</ele>
        <time>2026-05-01T14:05:17Z</time>
      </trkpt>
      <trkpt lat="45.14575" lon="4.57721">
        <ele>793.6</ele>
        <time>2026-05-01T14:05:22Z</time>
      </trkpt>
      <trkpt lat="45.14576" lon="4.57731">
        <ele>792.3</ele>
        <time>2026-05-01T14:05:27Z</time>
      </trkpt>
      <trkpt lat="45.14576" lon="4.57741">
        <ele>790.7</ele>
        <time>2026-05-01T14:05:32Z</time>
      </trkpt>
      <trkpt lat="45.14574" lon="4.57751">
        <ele>788.7</ele>
        <time>2026-05-01T14:05:37Z</time>
      </trkpt>
      <trkpt lat="45.14573" lon="4.57758">
        <ele>787.4</ele>
        <time>2026-05-01T14:05:42Z</time>
      </trkpt>
      <trkpt lat="45.14573" lon="4.57765">
        <ele>786.3</ele>
        <time>2026-05-01T14:05:47Z</time>
      </trkpt>
      <trkpt lat="45.14573" lon="4.57772">
        <ele>785.2</ele>
        <time>2026-05-01T14:05:52Z</time>
      </trkpt>
      <trkpt lat="45.14573" lon="4.57779">
        <ele>784.2</ele>
        <time>2026-05-01T14:05:57Z</time>
      </trkpt>
      <trkpt lat="45.14573" lon="4.57786">
        <ele>783.1</ele>
        <time>2026-05-01T14:06:02Z</time>
      </trkpt>
      <trkpt lat="45.14572" lon="4.57793">
        <ele>781.7</ele>
        <time>2026-05-01T14:06:07Z</time>
      </trkpt>
      <trkpt lat="45.14573" lon="4.57802">
        <ele>780.6</ele>
        <time>2026-05-01T14:06:12Z</time>
      </trkpt>
      <trkpt lat="45.14573" lon="4.57811">
        <ele>779.2</ele>
        <time>2026-05-01T14:06:17Z</time>
      </trkpt>
      <trkpt lat="45.14573" lon="4.57818">
        <ele>778.1</ele>
        <time>2026-05-01T14:06:22Z</time>
      </trkpt>
      <trkpt lat="45.14574" lon="4.57824">
        <ele>777.5</ele>
        <time>2026-05-01T14:06:27Z</time>
      </trkpt>
      <trkpt lat="45.14575" lon="4.57832">
        <ele>776.6</ele>
        <time>2026-05-01T14:06:32Z</time>
      </trkpt>
      <trkpt lat="45.14574" lon="4.57842">
        <ele>775.2</ele>
        <time>2026-05-01T14:06:37Z</time>
      </trkpt>
      <trkpt lat="45.14576" lon="4.57853">
        <ele>774.7</ele>
        <time>2026-05-01T14:06:42Z</time>
      </trkpt>
      <trkpt lat="45.14578" lon="4.57861">
        <ele>774.5</ele>
        <time>2026-05-01T14:06:47Z</time>
      </trkpt>
      <trkpt lat="45.14581" lon="4.57867">
        <ele>775</ele>
        <time>2026-05-01T14:06:52Z</time>
      </trkpt>
      <trkpt lat="45.14584" lon="4.57874">
        <ele>775.3</ele>
        <time>2026-05-01T14:06:57Z</time>
      </trkpt>
      <trkpt lat="45.14584" lon="4.57883">
        <ele>774.5</ele>
        <time>2026-05-01T14:07:02Z</time>
      </trkpt>
      <trkpt lat="45.14581" lon="4.57893">
        <ele>772.4</ele>
        <time>2026-05-01T14:07:07Z</time>
      </trkpt>
      <trkpt lat="45.14578" lon="4.57903">
        <ele>770.3</ele>
        <time>2026-05-01T14:07:12Z</time>
      </trkpt>
      <trkpt lat="45.14577" lon="4.57911">
        <ele>769.1</ele>
        <time>2026-05-01T14:07:17Z</time>
      </trkpt>
      <trkpt lat="45.14575" lon="4.57921">
        <ele>767.5</ele>
        <time>2026-05-01T14:07:22Z</time>
      </trkpt>
      <trkpt lat="45.14574" lon="4.57933">
        <ele>766.4</ele>
        <time>2026-05-01T14:07:27Z</time>
      </trkpt>
      <trkpt lat="45.14574" lon="4.57942">
        <ele>765.9</ele>
        <time>2026-05-01T14:07:32Z</time>
      </trkpt>
      <trkpt lat="45.14574" lon="4.57948">
        <ele>765.6</ele>
        <time>2026-05-01T14:07:37Z</time>
      </trkpt>
      <trkpt lat="45.14575" lon="4.57955">
        <ele>765.6</ele>
        <time>2026-05-01T14:07:42Z</time>
      </trkpt>
      <trkpt lat="45.14576" lon="4.57964">
        <ele>765.5</ele>
        <time>2026-05-01T14:07:47Z</time>
      </trkpt>
      <trkpt lat="45.14577" lon="4.57972">
        <ele>765.4</ele>
        <time>2026-05-01T14:07:52Z</time>
      </trkpt>
      <trkpt lat="45.14578" lon="4.57981">
        <ele>765.2</ele>
        <time>2026-05-01T14:07:57Z</time>
      </trkpt>
      <trkpt lat="45.14578" lon="4.5799">
        <ele>764.7</ele>
        <time>2026-05-01T14:08:02Z</time>
      </trkpt>
      <trkpt lat="45.14577" lon="4.58003">
        <ele>763.8</ele>
        <time>2026-05-01T14:08:07Z</time>
      </trkpt>
      <trkpt lat="45.14574" lon="4.58014">
        <ele>762.8</ele>
        <time>2026-05-01T14:08:12Z</time>
      </trkpt>
      <trkpt lat="45.14572" lon="4.58023">
        <ele>762.2</ele>
        <time>2026-05-01T14:08:17Z</time>
      </trkpt>
      <trkpt lat="45.14572" lon="4.58032">
        <ele>762.3</ele>
        <time>2026-05-01T14:08:22Z</time>
      </trkpt>
      <trkpt lat="45.14572" lon="4.58041">
        <ele>762.4</ele>
        <time>2026-05-01T14:08:27Z</time>
      </trkpt>
      <trkpt lat="45.14572" lon="4.58049">
        <ele>762.5</ele>
        <time>2026-05-01T14:08:32Z</time>
      </trkpt>
      <trkpt lat="45.14573" lon="4.58057">
        <ele>762.8</ele>
        <time>2026-05-01T14:08:37Z</time>
      </trkpt>
      <trkpt lat="45.14572" lon="4.58066">
        <ele>762.6</ele>
        <time>2026-05-01T14:08:42Z</time>
      </trkpt>
      <trkpt lat="45.14572" lon="4.58076">
        <ele>762.7</ele>
        <time>2026-05-01T14:08:47Z</time>
      </trkpt>
      <trkpt lat="45.14572" lon="4.58085">
        <ele>762.7</ele>
        <time>2026-05-01T14:08:52Z</time>
      </trkpt>
      <trkpt lat="45.14574" lon="4.58093">
        <ele>763</ele>
        <time>2026-05-01T14:08:57Z</time>
      </trkpt>
      <trkpt lat="45.14577" lon="4.58103">
        <ele>763.6</ele>
        <time>2026-05-01T14:09:02Z</time>
      </trkpt>
      <trkpt lat="45.1458" lon="4.58112">
        <ele>764.1</ele>
        <time>2026-05-01T14:09:07Z</time>
      </trkpt>
      <trkpt lat="45.14583" lon="4.58118">
        <ele>764.7</ele>
        <time>2026-05-01T14:09:12Z</time>
      </trkpt>
      <trkpt lat="45.14587" lon="4.58124">
        <ele>765.3</ele>
        <time>2026-05-01T14:09:17Z</time>
      </trkpt>
      <trkpt lat="45.14591" lon="4.58131">
        <ele>765.8</ele>
        <time>2026-05-01T14:09:22Z</time>
      </trkpt>
      <trkpt lat="45.14589" lon="4.58143">
        <ele>764.9</ele>
        <time>2026-05-01T14:09:27Z</time>
      </trkpt>
      <trkpt lat="45.14589" lon="4.58143">
        <ele>764.9</ele>
        <time>2026-05-01T14:09:32Z</time>
      </trkpt>
      <trkpt lat="45.14589" lon="4.58143">
        <ele>764.9</ele>
        <time>2026-05-01T14:09:37Z</time>
      </trkpt>
      <trkpt lat="45.14589" lon="4.58143">
        <ele>764.9</ele>
        <time>2026-05-01T14:09:42Z</time>
      </trkpt>
      <trkpt lat="45.14589" lon="4.58143">
        <ele>764.9</ele>
        <time>2026-05-01T14:09:47Z</time>
      </trkpt>
      <trkpt lat="45.14582" lon="4.58151">
        <ele>763.3</ele>
        <time>2026-05-01T14:09:52Z</time>
      </trkpt>
      <trkpt lat="45.14576" lon="4.58147">
        <ele>762</ele>
        <time>2026-05-01T14:09:57Z</time>
      </trkpt>
      <trkpt lat="45.14571" lon="4.58146">
        <ele>760.9</ele>
        <time>2026-05-01T14:10:02Z</time>
      </trkpt>
      <trkpt lat="45.14565" lon="4.58143">
        <ele>759.5</ele>
        <time>2026-05-01T14:10:07Z</time>
      </trkpt>
      <trkpt lat="45.14557" lon="4.5814">
        <ele>757.7</ele>
        <time>2026-05-01T14:10:12Z</time>
      </trkpt>
      <trkpt lat="45.14551" lon="4.58137">
        <ele>756.3</ele>
        <time>2026-05-01T14:10:17Z</time>
      </trkpt>
      <trkpt lat="45.14546" lon="4.58134">
        <ele>755.1</ele>
        <time>2026-05-01T14:10:22Z</time>
      </trkpt>
      <trkpt lat="45.1454" lon="4.58132">
        <ele>753.6</ele>
        <time>2026-05-01T14:10:27Z</time>
      </trkpt>
      <trkpt lat="45.14534" lon="4.5813">
        <ele>752.1</ele>
        <time>2026-05-01T14:10:32Z</time>
      </trkpt>
      <trkpt lat="45.14526" lon="4.58127">
        <ele>750.1</ele>
        <time>2026-05-01T14:10:37Z</time>
      </trkpt>
      <trkpt lat="45.1452" lon="4.58124">
        <ele>748.5</ele>
        <time>2026-05-01T14:10:42Z</time>
      </trkpt>
      <trkpt lat="45.14515" lon="4.58119">
        <ele>747.1</ele>
        <time>2026-05-01T14:10:47Z</time>
      </trkpt>
      <trkpt lat="45.14508" lon="4.58113">
        <ele>745.2</ele>
        <time>2026-05-01T14:10:52Z</time>
      </trkpt>
      <trkpt lat="45.14505" lon="4.58109">
        <ele>744.3</ele>
        <time>2026-05-01T14:10:57Z</time>
      </trkpt>
      <trkpt lat="45.145" lon="4.58108">
        <ele>742.9</ele>
        <time>2026-05-01T14:11:02Z</time>
      </trkpt>
      <trkpt lat="45.14495" lon="4.58112">
        <ele>740.8</ele>
        <time>2026-05-01T14:11:07Z</time>
      </trkpt>
      <trkpt lat="45.14491" lon="4.58115">
        <ele>739.2</ele>
        <time>2026-05-01T14:11:12Z</time>
      </trkpt>
      <trkpt lat="45.14487" lon="4.5812">
        <ele>737.6</ele>
        <time>2026-05-01T14:11:17Z</time>
      </trkpt>
      <trkpt lat="45.14484" lon="4.58125">
        <ele>736.4</ele>
        <time>2026-05-01T14:11:22Z</time>
      </trkpt>
      <trkpt lat="45.1448" lon="4.58134">
        <ele>734.9</ele>
        <time>2026-05-01T14:11:27Z</time>
      </trkpt>
      <trkpt lat="45.14474" lon="4.58141">
        <ele>732.4</ele>
        <time>2026-05-01T14:11:32Z</time>
      </trkpt>
      <trkpt lat="45.14472" lon="4.58147">
        <ele>731.7</ele>
        <time>2026-05-01T14:11:37Z</time>
      </trkpt>
      <trkpt lat="45.1447" lon="4.58154">
        <ele>731</ele>
        <time>2026-05-01T14:11:42Z</time>
      </trkpt>
      <trkpt lat="45.14471" lon="4.58164">
        <ele>731.7</ele>
        <time>2026-05-01T14:11:47Z</time>
      </trkpt>
      <trkpt lat="45.14473" lon="4.58173">
        <ele>732.4</ele>
        <time>2026-05-01T14:11:52Z</time>
      </trkpt>
      <trkpt lat="45.14474" lon="4.58181">
        <ele>732.4</ele>
        <time>2026-05-01T14:11:57Z</time>
      </trkpt>
      <trkpt lat="45.14476" lon="4.58188">
        <ele>733</ele>
        <time>2026-05-01T14:12:02Z</time>
      </trkpt>
      <trkpt lat="45.14479" lon="4.5819">
        <ele>734.2</ele>
        <time>2026-05-01T14:12:07Z</time>
      </trkpt>
      <trkpt lat="45.14481" lon="4.58191">
        <ele>735.1</ele>
        <time>2026-05-01T14:12:12Z</time>
      </trkpt>
      <trkpt lat="45.14481" lon="4.58191">
        <ele>735.1</ele>
        <time>2026-05-01T14:12:17Z</time>
      </trkpt>
      <trkpt lat="45.14482" lon="4.58193">
        <ele>735.4</ele>
        <time>2026-05-01T14:12:22Z</time>
      </trkpt>
      <trkpt lat="45.14483" lon="4.58196">
        <ele>735.7</ele>
        <time>2026-05-01T14:12:27Z</time>
      </trkpt>
      <trkpt lat="45.14486" lon="4.58196">
        <ele>737</ele>
        <time>2026-05-01T14:12:32Z</time>
      </trkpt>
      <trkpt lat="45.14487" lon="4.58196">
        <ele>737.5</ele>
        <time>2026-05-01T14:12:37Z</time>
      </trkpt>
      <trkpt lat="45.14487" lon="4.58196">
        <ele>737.5</ele>
        <time>2026-05-01T14:12:42Z</time>
      </trkpt>
      <trkpt lat="45.14487" lon="4.58196">
        <ele>737.5</ele>
        <time>2026-05-01T14:12:47Z</time>
      </trkpt>
      <trkpt lat="45.14487" lon="4.58202">
        <ele>737.2</ele>
        <time>2026-05-01T14:12:52Z</time>
      </trkpt>
      <trkpt lat="45.14493" lon="4.58206">
        <ele>739.6</ele>
        <time>2026-05-01T14:12:57Z</time>
      </trkpt>
      <trkpt lat="45.145" lon="4.5821">
        <ele>742.4</ele>
        <time>2026-05-01T14:13:02Z</time>
      </trkpt>
      <trkpt lat="45.14504" lon="4.58214">
        <ele>742.9</ele>
        <time>2026-05-01T14:13:07Z</time>
      </trkpt>
      <trkpt lat="45.14511" lon="4.58214">
        <ele>744.1</ele>
        <time>2026-05-01T14:13:12Z</time>
      </trkpt>
      <trkpt lat="45.14516" lon="4.58215">
        <ele>744.9</ele>
        <time>2026-05-01T14:13:17Z</time>
      </trkpt>
      <trkpt lat="45.14522" lon="4.58215">
        <ele>745.9</ele>
        <time>2026-05-01T14:13:22Z</time>
      </trkpt>
      <trkpt lat="45.14523" lon="4.58217">
        <ele>745.9</ele>
        <time>2026-05-01T14:13:27Z</time>
      </trkpt>
      <trkpt lat="45.14524" lon="4.58216">
        <ele>746.2</ele>
        <time>2026-05-01T14:13:32Z</time>
      </trkpt>
      <trkpt lat="45.14524" lon="4.58216">
        <ele>746.2</ele>
        <time>2026-05-01T14:13:37Z</time>
      </trkpt>
      <trkpt lat="45.14535" lon="4.58214">
        <ele>748.3</ele>
        <time>2026-05-01T14:13:42Z</time>
      </trkpt>
      <trkpt lat="45.14542" lon="4.58215">
        <ele>749.4</ele>
        <time>2026-05-01T14:13:47Z</time>
      </trkpt>
      <trkpt lat="45.14548" lon="4.58217">
        <ele>750.3</ele>
        <time>2026-05-01T14:13:52Z</time>
      </trkpt>
      <trkpt lat="45.14553" lon="4.58217">
        <ele>751.1</ele>
        <time>2026-05-01T14:13:57Z</time>
      </trkpt>
      <trkpt lat="45.14558" lon="4.58223">
        <ele>751.3</ele>
        <time>2026-05-01T14:14:02Z</time>
      </trkpt>
      <trkpt lat="45.14563" lon="4.58229">
        <ele>751.5</ele>
        <time>2026-05-01T14:14:07Z</time>
      </trkpt>
      <trkpt lat="45.14569" lon="4.58234">
        <ele>751.8</ele>
        <time>2026-05-01T14:14:12Z</time>
      </trkpt>
      <trkpt lat="45.14576" lon="4.5824">
        <ele>752.2</ele>
        <time>2026-05-01T14:14:17Z</time>
      </trkpt>
      <trkpt lat="45.14577" lon="4.5824">
        <ele>752.4</ele>
        <time>2026-05-01T14:14:22Z</time>
      </trkpt>
      <trkpt lat="45.14577" lon="4.5824">
        <ele>752.4</ele>
        <time>2026-05-01T14:14:27Z</time>
      </trkpt>
      <trkpt lat="45.14585" lon="4.58247">
        <ele>752.4</ele>
        <time>2026-05-01T14:14:32Z</time>
      </trkpt>
      <trkpt lat="45.14593" lon="4.58256">
        <ele>751.4</ele>
        <time>2026-05-01T14:14:37Z</time>
      </trkpt>
      <trkpt lat="45.14598" lon="4.58262">
        <ele>750.6</ele>
        <time>2026-05-01T14:14:42Z</time>
      </trkpt>
      <trkpt lat="45.14602" lon="4.58271">
        <ele>749.3</ele>
        <time>2026-05-01T14:14:47Z</time>
      </trkpt>
      <trkpt lat="45.14606" lon="4.58278">
        <ele>748.2</ele>
        <time>2026-05-01T14:14:52Z</time>
      </trkpt>
      <trkpt lat="45.1461" lon="4.58286">
        <ele>746.8</ele>
        <time>2026-05-01T14:14:57Z</time>
      </trkpt>
      <trkpt lat="45.14614" lon="4.58294">
        <ele>745.3</ele>
        <time>2026-05-01T14:15:02Z</time>
      </trkpt>
      <trkpt lat="45.14618" lon="4.58302">
        <ele>743.7</ele>
        <time>2026-05-01T14:15:07Z</time>
      </trkpt>
      <trkpt lat="45.14624" lon="4.58308">
        <ele>742.3</ele>
        <time>2026-05-01T14:15:12Z</time>
      </trkpt>
      <trkpt lat="45.14628" lon="4.58315">
        <ele>740.7</ele>
        <time>2026-05-01T14:15:17Z</time>
      </trkpt>
      <trkpt lat="45.14632" lon="4.58321">
        <ele>739.2</ele>
        <time>2026-05-01T14:15:22Z</time>
      </trkpt>
      <trkpt lat="45.14638" lon="4.58327">
        <ele>737.4</ele>
        <time>2026-05-01T14:15:27Z</time>
      </trkpt>
      <trkpt lat="45.14643" lon="4.58333">
        <ele>735.6</ele>
        <time>2026-05-01T14:15:32Z</time>
      </trkpt>
      <trkpt lat="45.14649" lon="4.58338">
        <ele>734</ele>
        <time>2026-05-01T14:15:37Z</time>
      </trkpt>
      <trkpt lat="45.14656" lon="4.58342">
        <ele>732.5</ele>
        <time>2026-05-01T14:15:42Z</time>
      </trkpt>
      <trkpt lat="45.14661" lon="4.58346">
        <ele>731.2</ele>
        <time>2026-05-01T14:15:47Z</time>
      </trkpt>
      <trkpt lat="45.14668" lon="4.58352">
        <ele>729.6</ele>
        <time>2026-05-01T14:15:52Z</time>
      </trkpt>
      <trkpt lat="45.14673" lon="4.58359">
        <ele>729.1</ele>
        <time>2026-05-01T14:15:57Z</time>
      </trkpt>
      <trkpt lat="45.1468" lon="4.58365">
        <ele>729</ele>
        <time>2026-05-01T14:16:02Z</time>
      </trkpt>
      <trkpt lat="45.14686" lon="4.58373">
        <ele>728.3</ele>
        <time>2026-05-01T14:16:07Z</time>
      </trkpt>
      <trkpt lat="45.14691" lon="4.58378">
        <ele>728</ele>
        <time>2026-05-01T14:16:12Z</time>
      </trkpt>
      <trkpt lat="45.147" lon="4.58382">
        <ele>728.5</ele>
        <time>2026-05-01T14:16:17Z</time>
      </trkpt>
      <trkpt lat="45.14708" lon="4.58389">
        <ele>728.1</ele>
        <time>2026-05-01T14:16:22Z</time>
      </trkpt>
      <trkpt lat="45.14712" lon="4.58397">
        <ele>726.9</ele>
        <time>2026-05-01T14:16:27Z</time>
      </trkpt>
      <trkpt lat="45.14715" lon="4.58395">
        <ele>727.7</ele>
        <time>2026-05-01T14:16:32Z</time>
      </trkpt>
      <trkpt lat="45.14716" lon="4.58393">
        <ele>728.3</ele>
        <time>2026-05-01T14:16:37Z</time>
      </trkpt>
      <trkpt lat="45.14716" lon="4.58393">
        <ele>728.3</ele>
        <time>2026-05-01T14:16:42Z</time>
      </trkpt>
      <trkpt lat="45.14716" lon="4.58393">
        <ele>728.3</ele>
        <time>2026-05-01T14:16:47Z</time>
      </trkpt>
      <trkpt lat="45.14716" lon="4.58393">
        <ele>728.3</ele>
        <time>2026-05-01T14:16:52Z</time>
      </trkpt>
      <trkpt lat="45.1473" lon="4.58399">
        <ele>728.8</ele>
        <time>2026-05-01T14:16:57Z</time>
      </trkpt>
      <trkpt lat="45.14734" lon="4.58404">
        <ele>728.1</ele>
        <time>2026-05-01T14:17:02Z</time>
      </trkpt>
      <trkpt lat="45.1474" lon="4.58409">
        <ele>727.7</ele>
        <time>2026-05-01T14:17:07Z</time>
      </trkpt>
      <trkpt lat="45.14745" lon="4.58414">
        <ele>727.1</ele>
        <time>2026-05-01T14:17:12Z</time>
      </trkpt>
      <trkpt lat="45.14751" lon="4.58422">
        <ele>726.2</ele>
        <time>2026-05-01T14:17:17Z</time>
      </trkpt>
      <trkpt lat="45.14756" lon="4.58429">
        <ele>725.9</ele>
        <time>2026-05-01T14:17:22Z</time>
      </trkpt>
      <trkpt lat="45.14758" lon="4.58437">
        <ele>724.9</ele>
        <time>2026-05-01T14:17:27Z</time>
      </trkpt>
      <trkpt lat="45.14761" lon="4.58445">
        <ele>724.1</ele>
        <time>2026-05-01T14:17:32Z</time>
      </trkpt>
      <trkpt lat="45.14762" lon="4.58452">
        <ele>723</ele>
        <time>2026-05-01T14:17:37Z</time>
      </trkpt>
      <trkpt lat="45.14761" lon="4.58462">
        <ele>721.1</ele>
        <time>2026-05-01T14:17:42Z</time>
      </trkpt>
      <trkpt lat="45.14762" lon="4.58473">
        <ele>719.4</ele>
        <time>2026-05-01T14:17:47Z</time>
      </trkpt>
      <trkpt lat="45.1476" lon="4.58482">
        <ele>717.4</ele>
        <time>2026-05-01T14:17:52Z</time>
      </trkpt>
      <trkpt lat="45.14758" lon="4.58493">
        <ele>715.1</ele>
        <time>2026-05-01T14:17:57Z</time>
      </trkpt>
      <trkpt lat="45.14758" lon="4.58503">
        <ele>713.3</ele>
        <time>2026-05-01T14:18:02Z</time>
      </trkpt>
      <trkpt lat="45.14757" lon="4.58514">
        <ele>711</ele>
        <time>2026-05-01T14:18:07Z</time>
      </trkpt>
      <trkpt lat="45.14755" lon="4.58525">
        <ele>708.5</ele>
        <time>2026-05-01T14:18:12Z</time>
      </trkpt>
      <trkpt lat="45.14757" lon="4.58534">
        <ele>707.4</ele>
        <time>2026-05-01T14:18:17Z</time>
      </trkpt>
      <trkpt lat="45.14757" lon="4.58534">
        <ele>707.4</ele>
        <time>2026-05-01T14:18:22Z</time>
      </trkpt>
      <trkpt lat="45.14757" lon="4.58534">
        <ele>707.4</ele>
        <time>2026-05-01T14:18:27Z</time>
      </trkpt>
      <trkpt lat="45.14752" lon="4.58543">
        <ele>704.3</ele>
        <time>2026-05-01T14:18:32Z</time>
      </trkpt>
      <trkpt lat="45.14755" lon="4.58553">
        <ele>703.3</ele>
        <time>2026-05-01T14:18:37Z</time>
      </trkpt>
      <trkpt lat="45.14757" lon="4.58564">
        <ele>702</ele>
        <time>2026-05-01T14:18:42Z</time>
      </trkpt>
      <trkpt lat="45.1476" lon="4.58573">
        <ele>701.3</ele>
        <time>2026-05-01T14:18:47Z</time>
      </trkpt>
      <trkpt lat="45.14763" lon="4.58582">
        <ele>700.8</ele>
        <time>2026-05-01T14:18:52Z</time>
      </trkpt>
      <trkpt lat="45.14766" lon="4.5859">
        <ele>700.1</ele>
        <time>2026-05-01T14:18:57Z</time>
      </trkpt>
      <trkpt lat="45.14769" lon="4.58601">
        <ele>698.9</ele>
        <time>2026-05-01T14:19:02Z</time>
      </trkpt>
      <trkpt lat="45.14773" lon="4.5861">
        <ele>698.5</ele>
        <time>2026-05-01T14:19:07Z</time>
      </trkpt>
      <trkpt lat="45.14777" lon="4.58621">
        <ele>697.7</ele>
        <time>2026-05-01T14:19:12Z</time>
      </trkpt>
      <trkpt lat="45.1478" lon="4.58629">
        <ele>697.2</ele>
        <time>2026-05-01T14:19:17Z</time>
      </trkpt>
      <trkpt lat="45.14784" lon="4.58636">
        <ele>697.4</ele>
        <time>2026-05-01T14:19:22Z</time>
      </trkpt>
      <trkpt lat="45.14787" lon="4.58642">
        <ele>697.4</ele>
        <time>2026-05-01T14:19:27Z</time>
      </trkpt>
      <trkpt lat="45.1479" lon="4.58651">
        <ele>696.8</ele>
        <time>2026-05-01T14:19:32Z</time>
      </trkpt>
      <trkpt lat="45.14793" lon="4.58662">
        <ele>696</ele>
        <time>2026-05-01T14:19:37Z</time>
      </trkpt>
      <trkpt lat="45.14795" lon="4.58668">
        <ele>695.8</ele>
        <time>2026-05-01T14:19:42Z</time>
      </trkpt>
      <trkpt lat="45.14797" lon="4.58678">
        <ele>695.5</ele>
        <time>2026-05-01T14:19:47Z</time>
      </trkpt>
      <trkpt lat="45.14798" lon="4.58691">
        <ele>694.6</ele>
        <time>2026-05-01T14:19:52Z</time>
      </trkpt>
      <trkpt lat="45.148" lon="4.58704">
        <ele>694</ele>
        <time>2026-05-01T14:19:57Z</time>
      </trkpt>
      <trkpt lat="45.14798" lon="4.58714">
        <ele>692.1</ele>
        <time>2026-05-01T14:20:02Z</time>
      </trkpt>
      <trkpt lat="45.14798" lon="4.58722">
        <ele>691.3</ele>
        <time>2026-05-01T14:20:07Z</time>
      </trkpt>
      <trkpt lat="45.14799" lon="4.58732">
        <ele>690.6</ele>
        <time>2026-05-01T14:20:12Z</time>
      </trkpt>
      <trkpt lat="45.148" lon="4.58742">
        <ele>689.9</ele>
        <time>2026-05-01T14:20:17Z</time>
      </trkpt>
      <trkpt lat="45.14801" lon="4.58751">
        <ele>689.3</ele>
        <time>2026-05-01T14:20:22Z</time>
      </trkpt>
      <trkpt lat="45.14804" lon="4.58761">
        <ele>689.3</ele>
        <time>2026-05-01T14:20:27Z</time>
      </trkpt>
      <trkpt lat="45.14808" lon="4.58769">
        <ele>690</ele>
        <time>2026-05-01T14:20:32Z</time>
      </trkpt>
      <trkpt lat="45.14812" lon="4.58778">
        <ele>690.5</ele>
        <time>2026-05-01T14:20:37Z</time>
      </trkpt>
      <trkpt lat="45.14814" lon="4.5879">
        <ele>690.1</ele>
        <time>2026-05-01T14:20:42Z</time>
      </trkpt>
      <trkpt lat="45.14815" lon="4.58803">
        <ele>689.2</ele>
        <time>2026-05-01T14:20:47Z</time>
      </trkpt>
      <trkpt lat="45.14817" lon="4.58816">
        <ele>688.6</ele>
        <time>2026-05-01T14:20:52Z</time>
      </trkpt>
      <trkpt lat="45.14819" lon="4.58821">
        <ele>688.9</ele>
        <time>2026-05-01T14:20:57Z</time>
      </trkpt>
      <trkpt lat="45.14821" lon="4.58821">
        <ele>689.6</ele>
        <time>2026-05-01T14:21:02Z</time>
      </trkpt>
      <trkpt lat="45.14822" lon="4.58822">
        <ele>689.9</ele>
        <time>2026-05-01T14:21:07Z</time>
      </trkpt>
      <trkpt lat="45.14824" lon="4.58827">
        <ele>690.1</ele>
        <time>2026-05-01T14:21:12Z</time>
      </trkpt>
      <trkpt lat="45.14824" lon="4.58837">
        <ele>689.2</ele>
        <time>2026-05-01T14:21:17Z</time>
      </trkpt>
      <trkpt lat="45.14822" lon="4.58847">
        <ele>687.7</ele>
        <time>2026-05-01T14:21:22Z</time>
      </trkpt>
      <trkpt lat="45.14822" lon="4.58857">
        <ele>686.9</ele>
        <time>2026-05-01T14:21:27Z</time>
      </trkpt>
      <trkpt lat="45.1482" lon="4.58868">
        <ele>685.3</ele>
        <time>2026-05-01T14:21:32Z</time>
      </trkpt>
      <trkpt lat="45.14819" lon="4.58882">
        <ele>683.8</ele>
        <time>2026-05-01T14:21:37Z</time>
      </trkpt>
      <trkpt lat="45.14815" lon="4.58895">
        <ele>681.1</ele>
        <time>2026-05-01T14:21:42Z</time>
      </trkpt>
      <trkpt lat="45.14816" lon="4.58908">
        <ele>680.4</ele>
        <time>2026-05-01T14:21:47Z</time>
      </trkpt>
      <trkpt lat="45.14817" lon="4.58917">
        <ele>680.1</ele>
        <time>2026-05-01T14:21:52Z</time>
      </trkpt>
      <trkpt lat="45.14818" lon="4.58925">
        <ele>680</ele>
        <time>2026-05-01T14:21:57Z</time>
      </trkpt>
      <trkpt lat="45.1482" lon="4.58933">
        <ele>680.3</ele>
        <time>2026-05-01T14:22:02Z</time>
      </trkpt>
      <trkpt lat="45.14822" lon="4.58941">
        <ele>680.7</ele>
        <time>2026-05-01T14:22:07Z</time>
      </trkpt>
      <trkpt lat="45.14822" lon="4.58949">
        <ele>680.1</ele>
        <time>2026-05-01T14:22:12Z</time>
      </trkpt>
      <trkpt lat="45.14822" lon="4.58956">
        <ele>679.7</ele>
        <time>2026-05-01T14:22:17Z</time>
      </trkpt>
      <trkpt lat="45.14822" lon="4.58967">
        <ele>679</ele>
        <time>2026-05-01T14:22:22Z</time>
      </trkpt>
      <trkpt lat="45.14824" lon="4.58978">
        <ele>679.2</ele>
        <time>2026-05-01T14:22:27Z</time>
      </trkpt>
      <trkpt lat="45.14823" lon="4.58987">
        <ele>678.1</ele>
        <time>2026-05-01T14:22:32Z</time>
      </trkpt>
      <trkpt lat="45.14823" lon="4.58998">
        <ele>677.4</ele>
        <time>2026-05-01T14:22:37Z</time>
      </trkpt>
      <trkpt lat="45.14824" lon="4.59007">
        <ele>677.6</ele>
        <time>2026-05-01T14:22:42Z</time>
      </trkpt>
      <trkpt lat="45.14824" lon="4.59016">
        <ele>677.4</ele>
        <time>2026-05-01T14:22:47Z</time>
      </trkpt>
      <trkpt lat="45.14824" lon="4.59026">
        <ele>677.2</ele>
        <time>2026-05-01T14:22:52Z</time>
      </trkpt>
      <trkpt lat="45.14824" lon="4.59036">
        <ele>676.9</ele>
        <time>2026-05-01T14:22:57Z</time>
      </trkpt>
      <trkpt lat="45.14822" lon="4.59046">
        <ele>675.8</ele>
        <time>2026-05-01T14:23:02Z</time>
      </trkpt>
      <trkpt lat="45.1482" lon="4.59058">
        <ele>674.6</ele>
        <time>2026-05-01T14:23:07Z</time>
      </trkpt>
      <trkpt lat="45.14823" lon="4.59068">
        <ele>675.8</ele>
        <time>2026-05-01T14:23:12Z</time>
      </trkpt>
      <trkpt lat="45.14823" lon="4.5908">
        <ele>675.5</ele>
        <time>2026-05-01T14:23:17Z</time>
      </trkpt>
      <trkpt lat="45.14823" lon="4.59089">
        <ele>675.3</ele>
        <time>2026-05-01T14:23:22Z</time>
      </trkpt>
      <trkpt lat="45.14823" lon="4.591">
        <ele>675.1</ele>
        <time>2026-05-01T14:23:27Z</time>
      </trkpt>
      <trkpt lat="45.14822" lon="4.59108">
        <ele>674.5</ele>
        <time>2026-05-01T14:23:32Z</time>
      </trkpt>
      <trkpt lat="45.14822" lon="4.59117">
        <ele>674.3</ele>
        <time>2026-05-01T14:23:37Z</time>
      </trkpt>
      <trkpt lat="45.14821" lon="4.59129">
        <ele>673.6</ele>
        <time>2026-05-01T14:23:42Z</time>
      </trkpt>
      <trkpt lat="45.14818" lon="4.59141">
        <ele>672.1</ele>
        <time>2026-05-01T14:23:47Z</time>
      </trkpt>
      <trkpt lat="45.14816" lon="4.59153">
        <ele>671</ele>
        <time>2026-05-01T14:23:52Z</time>
      </trkpt>
      <trkpt lat="45.14815" lon="4.59163">
        <ele>670.4</ele>
        <time>2026-05-01T14:23:57Z</time>
      </trkpt>
      <trkpt lat="45.14813" lon="4.59174">
        <ele>669.3</ele>
        <time>2026-05-01T14:24:02Z</time>
      </trkpt>
      <trkpt lat="45.14811" lon="4.59185">
        <ele>668.4</ele>
        <time>2026-05-01T14:24:07Z</time>
      </trkpt>
      <trkpt lat="45.14812" lon="4.59195">
        <ele>668.6</ele>
        <time>2026-05-01T14:24:12Z</time>
      </trkpt>
      <trkpt lat="45.14811" lon="4.59206">
        <ele>668.1</ele>
        <time>2026-05-01T14:24:17Z</time>
      </trkpt>
      <trkpt lat="45.14811" lon="4.59218">
        <ele>667.9</ele>
        <time>2026-05-01T14:24:22Z</time>
      </trkpt>
      <trkpt lat="45.14808" lon="4.59227">
        <ele>666.7</ele>
        <time>2026-05-01T14:24:27Z</time>
      </trkpt>
      <trkpt lat="45.14808" lon="4.5924">
        <ele>666.6</ele>
        <time>2026-05-01T14:24:32Z</time>
      </trkpt>
      <trkpt lat="45.14808" lon="4.5925">
        <ele>666.5</ele>
        <time>2026-05-01T14:24:37Z</time>
      </trkpt>
      <trkpt lat="45.14809" lon="4.59257">
        <ele>666.9</ele>
        <time>2026-05-01T14:24:42Z</time>
      </trkpt>
      <trkpt lat="45.1481" lon="4.59267">
        <ele>667.4</ele>
        <time>2026-05-01T14:24:47Z</time>
      </trkpt>
      <trkpt lat="45.14809" lon="4.5928">
        <ele>667.2</ele>
        <time>2026-05-01T14:24:52Z</time>
      </trkpt>
      <trkpt lat="45.14809" lon="4.59291">
        <ele>667.3</ele>
        <time>2026-05-01T14:24:57Z</time>
      </trkpt>
      <trkpt lat="45.14809" lon="4.59301">
        <ele>667.5</ele>
        <time>2026-05-01T14:25:02Z</time>
      </trkpt>
      <trkpt lat="45.14809" lon="4.59312">
        <ele>667.6</ele>
        <time>2026-05-01T14:25:07Z</time>
      </trkpt>
      <trkpt lat="45.14805" lon="4.59322">
        <ele>666.7</ele>
        <time>2026-05-01T14:25:12Z</time>
      </trkpt>
      <trkpt lat="45.14806" lon="4.59335">
        <ele>667.1</ele>
        <time>2026-05-01T14:25:17Z</time>
      </trkpt>
      <trkpt lat="45.14807" lon="4.59338">
        <ele>667.4</ele>
        <time>2026-05-01T14:25:22Z</time>
      </trkpt>
      <trkpt lat="45.14806" lon="4.59343">
        <ele>667.2</ele>
        <time>2026-05-01T14:25:27Z</time>
      </trkpt>
      <trkpt lat="45.14805" lon="4.59353">
        <ele>667</ele>
        <time>2026-05-01T14:25:32Z</time>
      </trkpt>
      <trkpt lat="45.14803" lon="4.59363">
        <ele>666.6</ele>
        <time>2026-05-01T14:25:37Z</time>
      </trkpt>
      <trkpt lat="45.14802" lon="4.59373">
        <ele>666.5</ele>
        <time>2026-05-01T14:25:42Z</time>
      </trkpt>
      <trkpt lat="45.14803" lon="4.59377">
        <ele>666.8</ele>
        <time>2026-05-01T14:25:47Z</time>
      </trkpt>
      <trkpt lat="45.14804" lon="4.59379">
        <ele>667</ele>
        <time>2026-05-01T14:25:52Z</time>
      </trkpt>
      <trkpt lat="45.14804" lon="4.59379">
        <ele>667</ele>
        <time>2026-05-01T14:25:57Z</time>
      </trkpt>
      <trkpt lat="45.14804" lon="4.59379">
        <ele>667</ele>
        <time>2026-05-01T14:26:02Z</time>
      </trkpt>
      <trkpt lat="45.14804" lon="4.59379">
        <ele>667</ele>
        <time>2026-05-01T14:26:07Z</time>
      </trkpt>
      <trkpt lat="45.14803" lon="4.59389">
        <ele>666.9</ele>
        <time>2026-05-01T14:26:12Z</time>
      </trkpt>
      <trkpt lat="45.14802" lon="4.59395">
        <ele>666.8</ele>
        <time>2026-05-01T14:26:17Z</time>
      </trkpt>
      <trkpt lat="45.14802" lon="4.59402">
        <ele>666.8</ele>
        <time>2026-05-01T14:26:22Z</time>
      </trkpt>
      <trkpt lat="45.148" lon="4.59408">
        <ele>666.5</ele>
        <time>2026-05-01T14:26:27Z</time>
      </trkpt>
      <trkpt lat="45.148" lon="4.59416">
        <ele>666.6</ele>
        <time>2026-05-01T14:26:32Z</time>
      </trkpt>
      <trkpt lat="45.14797" lon="4.59425">
        <ele>666.5</ele>
        <time>2026-05-01T14:26:37Z</time>
      </trkpt>
      <trkpt lat="45.14799" lon="4.59433">
        <ele>667.2</ele>
        <time>2026-05-01T14:26:42Z</time>
      </trkpt>
      <trkpt lat="45.14798" lon="4.5944">
        <ele>667.4</ele>
        <time>2026-05-01T14:26:47Z</time>
      </trkpt>
      <trkpt lat="45.14794" lon="4.59439">
        <ele>666.7</ele>
        <time>2026-05-01T14:26:52Z</time>
      </trkpt>
      <trkpt lat="45.14792" lon="4.59439">
        <ele>666.4</ele>
        <time>2026-05-01T14:26:57Z</time>
      </trkpt>
      <trkpt lat="45.14792" lon="4.59439">
        <ele>666.4</ele>
        <time>2026-05-01T14:27:02Z</time>
      </trkpt>
      <trkpt lat="45.14792" lon="4.59439">
        <ele>666.4</ele>
        <time>2026-05-01T14:27:07Z</time>
      </trkpt>
      <trkpt lat="45.14792" lon="4.59439">
        <ele>666.4</ele>
        <time>2026-05-01T14:27:12Z</time>
      </trkpt>
      <trkpt lat="45.14792" lon="4.59439">
        <ele>666.4</ele>
        <time>2026-05-01T14:27:17Z</time>
      </trkpt>
      <trkpt lat="45.14792" lon="4.59439">
        <ele>666.4</ele>
        <time>2026-05-01T14:27:22Z</time>
      </trkpt>
      <trkpt lat="45.14799" lon="4.59448">
        <ele>668</ele>
        <time>2026-05-01T14:27:27Z</time>
      </trkpt>
      <trkpt lat="45.14796" lon="4.59457">
        <ele>668</ele>
        <time>2026-05-01T14:27:32Z</time>
      </trkpt>
      <trkpt lat="45.14796" lon="4.59468">
        <ele>668.6</ele>
        <time>2026-05-01T14:27:37Z</time>
      </trkpt>
      <trkpt lat="45.14797" lon="4.59477">
        <ele>669.2</ele>
        <time>2026-05-01T14:27:42Z</time>
      </trkpt>
      <trkpt lat="45.14797" lon="4.59487">
        <ele>669.7</ele>
        <time>2026-05-01T14:27:47Z</time>
      </trkpt>
      <trkpt lat="45.14797" lon="4.59497">
        <ele>670.2</ele>
        <time>2026-05-01T14:27:52Z</time>
      </trkpt>
      <trkpt lat="45.14797" lon="4.59506">
        <ele>670.7</ele>
        <time>2026-05-01T14:27:57Z</time>
      </trkpt>
      <trkpt lat="45.14798" lon="4.59516">
        <ele>671.3</ele>
        <time>2026-05-01T14:28:02Z</time>
      </trkpt>
      <trkpt lat="45.14798" lon="4.59527">
        <ele>671.9</ele>
        <time>2026-05-01T14:28:07Z</time>
      </trkpt>
      <trkpt lat="45.14799" lon="4.59535">
        <ele>672.4</ele>
        <time>2026-05-01T14:28:12Z</time>
      </trkpt>
      <trkpt lat="45.14802" lon="4.59536">
        <ele>672.6</ele>
        <time>2026-05-01T14:28:17Z</time>
      </trkpt>
      <trkpt lat="45.14802" lon="4.59536">
        <ele>672.6</ele>
        <time>2026-05-01T14:28:22Z</time>
      </trkpt>
      <trkpt lat="45.14802" lon="4.59536">
        <ele>672.6</ele>
        <time>2026-05-01T14:28:27Z</time>
      </trkpt>
      <trkpt lat="45.14801" lon="4.59544">
        <ele>673</ele>
        <time>2026-05-01T14:28:32Z</time>
      </trkpt>
      <trkpt lat="45.148" lon="4.59555">
        <ele>673.5</ele>
        <time>2026-05-01T14:28:37Z</time>
      </trkpt>
      <trkpt lat="45.14801" lon="4.59564">
        <ele>674</ele>
        <time>2026-05-01T14:28:42Z</time>
      </trkpt>
      <trkpt lat="45.14801" lon="4.59575">
        <ele>674.6</ele>
        <time>2026-05-01T14:28:47Z</time>
      </trkpt>
      <trkpt lat="45.14801" lon="4.59587">
        <ele>674.8</ele>
        <time>2026-05-01T14:28:52Z</time>
      </trkpt>
      <trkpt lat="45.14802" lon="4.59597">
        <ele>674.3</ele>
        <time>2026-05-01T14:28:57Z</time>
      </trkpt>
      <trkpt lat="45.14802" lon="4.59606">
        <ele>673.8</ele>
        <time>2026-05-01T14:29:02Z</time>
      </trkpt>
      <trkpt lat="45.14802" lon="4.59616">
        <ele>673.3</ele>
        <time>2026-05-01T14:29:07Z</time>
      </trkpt>
      <trkpt lat="45.14802" lon="4.59625">
        <ele>672.8</ele>
        <time>2026-05-01T14:29:12Z</time>
      </trkpt>
      <trkpt lat="45.14803" lon="4.59634">
        <ele>672.3</ele>
        <time>2026-05-01T14:29:17Z</time>
      </trkpt>
      <trkpt lat="45.14802" lon="4.59636">
        <ele>672.2</ele>
        <time>2026-05-01T14:29:22Z</time>
      </trkpt>
      <trkpt lat="45.14802" lon="4.59638">
        <ele>672.1</ele>
        <time>2026-05-01T14:29:27Z</time>
      </trkpt>
      <trkpt lat="45.14803" lon="4.59642">
        <ele>671.9</ele>
        <time>2026-05-01T14:29:32Z</time>
      </trkpt>
      <trkpt lat="45.14806" lon="4.59645">
        <ele>671.5</ele>
        <time>2026-05-01T14:29:37Z</time>
      </trkpt>
      <trkpt lat="45.14806" lon="4.59645">
        <ele>671.5</ele>
        <time>2026-05-01T14:29:42Z</time>
      </trkpt>
      <trkpt lat="45.14806" lon="4.59649">
        <ele>671.3</ele>
        <time>2026-05-01T14:29:47Z</time>
      </trkpt>
      <trkpt lat="45.14803" lon="4.59659">
        <ele>671</ele>
        <time>2026-05-01T14:29:52Z</time>
      </trkpt>
      <trkpt lat="45.14802" lon="4.59668">
        <ele>670.6</ele>
        <time>2026-05-01T14:29:57Z</time>
      </trkpt>
      <trkpt lat="45.14803" lon="4.59678">
        <ele>670.1</ele>
        <time>2026-05-01T14:30:02Z</time>
      </trkpt>
      <trkpt lat="45.14805" lon="4.59682">
        <ele>669.8</ele>
        <time>2026-05-01T14:30:07Z</time>
      </trkpt>
      <trkpt lat="45.14805" lon="4.59682">
        <ele>669.8</ele>
        <time>2026-05-01T14:30:12Z</time>
      </trkpt>
      <trkpt lat="45.14805" lon="4.59681">
        <ele>669.8</ele>
        <time>2026-05-01T14:30:17Z</time>
      </trkpt>
      <trkpt lat="45.14805" lon="4.59681">
        <ele>669.8</ele>
        <time>2026-05-01T14:30:22Z</time>
      </trkpt>
      <trkpt lat="45.14804" lon="4.59685">
        <ele>669.8</ele>
        <time>2026-05-01T14:30:27Z</time>
      </trkpt>
      <trkpt lat="45.14804" lon="4.59696">
        <ele>669.3</ele>
        <time>2026-05-01T14:30:32Z</time>
      </trkpt>
      <trkpt lat="45.14805" lon="4.59704">
        <ele>668.9</ele>
        <time>2026-05-01T14:30:37Z</time>
      </trkpt>
      <trkpt lat="45.14805" lon="4.59714">
        <ele>668.5</ele>
        <time>2026-05-01T14:30:42Z</time>
      </trkpt>
      <trkpt lat="45.14804" lon="4.59723">
        <ele>668.3</ele>
        <time>2026-05-01T14:30:47Z</time>
      </trkpt>
      <trkpt lat="45.14803" lon="4.59733">
        <ele>668.1</ele>
        <time>2026-05-01T14:30:52Z</time>
      </trkpt>
      <trkpt lat="45.14803" lon="4.59743">
        <ele>667.7</ele>
        <time>2026-05-01T14:30:57Z</time>
      </trkpt>
      <trkpt lat="45.14804" lon="4.59754">
        <ele>667.3</ele>
        <time>2026-05-01T14:31:02Z</time>
      </trkpt>
      <trkpt lat="45.14805" lon="4.59764">
        <ele>667.2</ele>
        <time>2026-05-01T14:31:07Z</time>
      </trkpt>
      <trkpt lat="45.14806" lon="4.59774">
        <ele>667.1</ele>
        <time>2026-05-01T14:31:12Z</time>
      </trkpt>
      <trkpt lat="45.14807" lon="4.59783">
        <ele>667</ele>
        <time>2026-05-01T14:31:17Z</time>
      </trkpt>
      <trkpt lat="45.14808" lon="4.59793">
        <ele>666.9</ele>
        <time>2026-05-01T14:31:22Z</time>
      </trkpt>
      <trkpt lat="45.14811" lon="4.59804">
        <ele>666.4</ele>
        <time>2026-05-01T14:31:27Z</time>
      </trkpt>
      <trkpt lat="45.14814" lon="4.59813">
        <ele>665.8</ele>
        <time>2026-05-01T14:31:32Z</time>
      </trkpt>
      <trkpt lat="45.14817" lon="4.59822">
        <ele>665.3</ele>
        <time>2026-05-01T14:31:37Z</time>
      </trkpt>
      <trkpt lat="45.14818" lon="4.59832">
        <ele>665.1</ele>
        <time>2026-05-01T14:31:42Z</time>
      </trkpt>
      <trkpt lat="45.14819" lon="4.59842">
        <ele>664.6</ele>
        <time>2026-05-01T14:31:47Z</time>
      </trkpt>
      <trkpt lat="45.1482" lon="4.59852">
        <ele>664.1</ele>
        <time>2026-05-01T14:31:52Z</time>
      </trkpt>
      <trkpt lat="45.14821" lon="4.5986">
        <ele>663.7</ele>
        <time>2026-05-01T14:31:57Z</time>
      </trkpt>
      <trkpt lat="45.14822" lon="4.5986">
        <ele>663.5</ele>
        <time>2026-05-01T14:32:02Z</time>
      </trkpt>
      <trkpt lat="45.14823" lon="4.59861">
        <ele>663.3</ele>
        <time>2026-05-01T14:32:07Z</time>
      </trkpt>
      <trkpt lat="45.14823" lon="4.59861">
        <ele>663.3</ele>
        <time>2026-05-01T14:32:12Z</time>
      </trkpt>
      <trkpt lat="45.14823" lon="4.59861">
        <ele>663.3</ele>
        <time>2026-05-01T14:32:17Z</time>
      </trkpt>
      <trkpt lat="45.14823" lon="4.59867">
        <ele>663.1</ele>
        <time>2026-05-01T14:32:22Z</time>
      </trkpt>
      <trkpt lat="45.14823" lon="4.59874">
        <ele>662.9</ele>
        <time>2026-05-01T14:32:27Z</time>
      </trkpt>
      <trkpt lat="45.14825" lon="4.59883">
        <ele>662.3</ele>
        <time>2026-05-01T14:32:32Z</time>
      </trkpt>
      <trkpt lat="45.14826" lon="4.59893">
        <ele>661.8</ele>
        <time>2026-05-01T14:32:37Z</time>
      </trkpt>
      <trkpt lat="45.14826" lon="4.59904">
        <ele>661.5</ele>
        <time>2026-05-01T14:32:42Z</time>
      </trkpt>
      <trkpt lat="45.14826" lon="4.5991">
        <ele>661.3</ele>
        <time>2026-05-01T14:32:47Z</time>
      </trkpt>
      <trkpt lat="45.14828" lon="4.59913">
        <ele>660.9</ele>
        <time>2026-05-01T14:32:52Z</time>
      </trkpt>
      <trkpt lat="45.14829" lon="4.59922">
        <ele>660.3</ele>
        <time>2026-05-01T14:32:57Z</time>
      </trkpt>
      <trkpt lat="45.14829" lon="4.59932">
        <ele>659.6</ele>
        <time>2026-05-01T14:33:02Z</time>
      </trkpt>
      <trkpt lat="45.14829" lon="4.59943">
        <ele>658.8</ele>
        <time>2026-05-01T14:33:07Z</time>
      </trkpt>
      <trkpt lat="45.1483" lon="4.59953">
        <ele>657.9</ele>
        <time>2026-05-01T14:33:12Z</time>
      </trkpt>
      <trkpt lat="45.14832" lon="4.59963">
        <ele>656.9</ele>
        <time>2026-05-01T14:33:17Z</time>
      </trkpt>
      <trkpt lat="45.14832" lon="4.59972">
        <ele>656.2</ele>
        <time>2026-05-01T14:33:22Z</time>
      </trkpt>
      <trkpt lat="45.14834" lon="4.59983">
        <ele>655.1</ele>
        <time>2026-05-01T14:33:27Z</time>
      </trkpt>
      <trkpt lat="45.14836" lon="4.59993">
        <ele>653.8</ele>
        <time>2026-05-01T14:33:32Z</time>
      </trkpt>
      <trkpt lat="45.14837" lon="4.60003">
        <ele>652.8</ele>
        <time>2026-05-01T14:33:37Z</time>
      </trkpt>
      <trkpt lat="45.14838" lon="4.60014">
        <ele>651.5</ele>
        <time>2026-05-01T14:33:42Z</time>
      </trkpt>
      <trkpt lat="45.14841" lon="4.60025">
        <ele>649.8</ele>
        <time>2026-05-01T14:33:47Z</time>
      </trkpt>
      <trkpt lat="45.14842" lon="4.60036">
        <ele>648.5</ele>
        <time>2026-05-01T14:33:52Z</time>
      </trkpt>
      <trkpt lat="45.14843" lon="4.60046">
        <ele>647.3</ele>
        <time>2026-05-01T14:33:57Z</time>
      </trkpt>
      <trkpt lat="45.14845" lon="4.60055">
        <ele>646.1</ele>
        <time>2026-05-01T14:34:02Z</time>
      </trkpt>
      <trkpt lat="45.14846" lon="4.60064">
        <ele>645</ele>
        <time>2026-05-01T14:34:07Z</time>
      </trkpt>
      <trkpt lat="45.14846" lon="4.60074">
        <ele>644.1</ele>
        <time>2026-05-01T14:34:12Z</time>
      </trkpt>
      <trkpt lat="45.14845" lon="4.60085">
        <ele>643.2</ele>
        <time>2026-05-01T14:34:17Z</time>
      </trkpt>
      <trkpt lat="45.14846" lon="4.60095">
        <ele>641.4</ele>
        <time>2026-05-01T14:34:22Z</time>
      </trkpt>
      <trkpt lat="45.14845" lon="4.60104">
        <ele>640.2</ele>
        <time>2026-05-01T14:34:27Z</time>
      </trkpt>
      <trkpt lat="45.14842" lon="4.60113">
        <ele>639.4</ele>
        <time>2026-05-01T14:34:32Z</time>
      </trkpt>
      <trkpt lat="45.1484" lon="4.6012">
        <ele>638.7</ele>
        <time>2026-05-01T14:34:37Z</time>
      </trkpt>
      <trkpt lat="45.14838" lon="4.60128">
        <ele>637.9</ele>
        <time>2026-05-01T14:34:42Z</time>
      </trkpt>
      <trkpt lat="45.14835" lon="4.60136">
        <ele>637.4</ele>
        <time>2026-05-01T14:34:47Z</time>
      </trkpt>
      <trkpt lat="45.1483" lon="4.60143">
        <ele>636.8</ele>
        <time>2026-05-01T14:34:52Z</time>
      </trkpt>
      <trkpt lat="45.14825" lon="4.60152">
        <ele>635.5</ele>
        <time>2026-05-01T14:34:57Z</time>
      </trkpt>
      <trkpt lat="45.14823" lon="4.60159">
        <ele>634.4</ele>
        <time>2026-05-01T14:35:02Z</time>
      </trkpt>
      <trkpt lat="45.14821" lon="4.60168">
        <ele>632.9</ele>
        <time>2026-05-01T14:35:07Z</time>
      </trkpt>
      <trkpt lat="45.14819" lon="4.60178">
        <ele>631.1</ele>
        <time>2026-05-01T14:35:12Z</time>
      </trkpt>
      <trkpt lat="45.14816" lon="4.60189">
        <ele>629</ele>
        <time>2026-05-01T14:35:17Z</time>
      </trkpt>
      <trkpt lat="45.14815" lon="4.60198">
        <ele>627.3</ele>
        <time>2026-05-01T14:35:22Z</time>
      </trkpt>
      <trkpt lat="45.14813" lon="4.60209">
        <ele>625.1</ele>
        <time>2026-05-01T14:35:27Z</time>
      </trkpt>
      <trkpt lat="45.14811" lon="4.60219">
        <ele>623.1</ele>
        <time>2026-05-01T14:35:32Z</time>
      </trkpt>
      <trkpt lat="45.14811" lon="4.60228">
        <ele>621.4</ele>
        <time>2026-05-01T14:35:37Z</time>
      </trkpt>
      <trkpt lat="45.14811" lon="4.6024">
        <ele>619.1</ele>
        <time>2026-05-01T14:35:42Z</time>
      </trkpt>
      <trkpt lat="45.1481" lon="4.60249">
        <ele>617.2</ele>
        <time>2026-05-01T14:35:47Z</time>
      </trkpt>
      <trkpt lat="45.14809" lon="4.60259">
        <ele>614.7</ele>
        <time>2026-05-01T14:35:52Z</time>
      </trkpt>
      <trkpt lat="45.14806" lon="4.60269">
        <ele>612</ele>
        <time>2026-05-01T14:35:57Z</time>
      </trkpt>
      <trkpt lat="45.14804" lon="4.60278">
        <ele>609.6</ele>
        <time>2026-05-01T14:36:02Z</time>
      </trkpt>
      <trkpt lat="45.14801" lon="4.60288">
        <ele>606.7</ele>
        <time>2026-05-01T14:36:07Z</time>
      </trkpt>
      <trkpt lat="45.14798" lon="4.60295">
        <ele>604.6</ele>
        <time>2026-05-01T14:36:12Z</time>
      </trkpt>
      <trkpt lat="45.14795" lon="4.603">
        <ele>603</ele>
        <time>2026-05-01T14:36:17Z</time>
      </trkpt>
      <trkpt lat="45.14792" lon="4.60308">
        <ele>600.6</ele>
        <time>2026-05-01T14:36:22Z</time>
      </trkpt>
      <trkpt lat="45.14788" lon="4.60314">
        <ele>598.5</ele>
        <time>2026-05-01T14:36:27Z</time>
      </trkpt>
      <trkpt lat="45.14783" lon="4.60321">
        <ele>596</ele>
        <time>2026-05-01T14:36:32Z</time>
      </trkpt>
      <trkpt lat="45.14778" lon="4.60329">
        <ele>593.2</ele>
        <time>2026-05-01T14:36:37Z</time>
      </trkpt>
      <trkpt lat="45.14773" lon="4.60335">
        <ele>590.9</ele>
        <time>2026-05-01T14:36:42Z</time>
      </trkpt>
      <trkpt lat="45.14768" lon="4.6034">
        <ele>589.1</ele>
        <time>2026-05-01T14:36:47Z</time>
      </trkpt>
      <trkpt lat="45.14763" lon="4.60343">
        <ele>587.8</ele>
        <time>2026-05-01T14:36:52Z</time>
      </trkpt>
      <trkpt lat="45.1476" lon="4.60348">
        <ele>586.4</ele>
        <time>2026-05-01T14:36:57Z</time>
      </trkpt>
      <trkpt lat="45.14759" lon="4.60351">
        <ele>585.7</ele>
        <time>2026-05-01T14:37:02Z</time>
      </trkpt>
      <trkpt lat="45.14758" lon="4.60352">
        <ele>585.4</ele>
        <time>2026-05-01T14:37:07Z</time>
      </trkpt>
      <trkpt lat="45.14758" lon="4.60352">
        <ele>585.4</ele>
        <time>2026-05-01T14:37:12Z</time>
      </trkpt>
      <trkpt lat="45.14755" lon="4.60355">
        <ele>584.4</ele>
        <time>2026-05-01T14:37:17Z</time>
      </trkpt>
      <trkpt lat="45.14751" lon="4.60359">
        <ele>583.2</ele>
        <time>2026-05-01T14:37:22Z</time>
      </trkpt>
      <trkpt lat="45.14744" lon="4.60363">
        <ele>580.9</ele>
        <time>2026-05-01T14:37:27Z</time>
      </trkpt>
      <trkpt lat="45.14739" lon="4.60367">
        <ele>578.9</ele>
        <time>2026-05-01T14:37:32Z</time>
      </trkpt>
      <trkpt lat="45.14736" lon="4.60369">
        <ele>577.9</ele>
        <time>2026-05-01T14:37:37Z</time>
      </trkpt>
      <trkpt lat="45.14729" lon="4.60374">
        <ele>575.3</ele>
        <time>2026-05-01T14:37:42Z</time>
      </trkpt>
      <trkpt lat="45.14723" lon="4.60377">
        <ele>573.3</ele>
        <time>2026-05-01T14:37:47Z</time>
      </trkpt>
      <trkpt lat="45.14716" lon="4.6038">
        <ele>571.1</ele>
        <time>2026-05-01T14:37:52Z</time>
      </trkpt>
      <trkpt lat="45.14709" lon="4.60384">
        <ele>568.7</ele>
        <time>2026-05-01T14:37:57Z</time>
      </trkpt>
      <trkpt lat="45.14703" lon="4.60389">
        <ele>566.4</ele>
        <time>2026-05-01T14:38:02Z</time>
      </trkpt>
      <trkpt lat="45.14697" lon="4.60394">
        <ele>564.1</ele>
        <time>2026-05-01T14:38:07Z</time>
      </trkpt>
      <trkpt lat="45.1469" lon="4.604">
        <ele>561.4</ele>
        <time>2026-05-01T14:38:12Z</time>
      </trkpt>
      <trkpt lat="45.14684" lon="4.60409">
        <ele>558.4</ele>
        <time>2026-05-01T14:38:17Z</time>
      </trkpt>
      <trkpt lat="45.14681" lon="4.60417">
        <ele>556.2</ele>
        <time>2026-05-01T14:38:22Z</time>
      </trkpt>
      <trkpt lat="45.14681" lon="4.60427">
        <ele>554.2</ele>
        <time>2026-05-01T14:38:27Z</time>
      </trkpt>
      <trkpt lat="45.14682" lon="4.60434">
        <ele>553.1</ele>
        <time>2026-05-01T14:38:32Z</time>
      </trkpt>
      <trkpt lat="45.14687" lon="4.6044">
        <ele>553.1</ele>
        <time>2026-05-01T14:38:37Z</time>
      </trkpt>
      <trkpt lat="45.14689" lon="4.60448">
        <ele>552.1</ele>
        <time>2026-05-01T14:38:42Z</time>
      </trkpt>
      <trkpt lat="45.14693" lon="4.60456">
        <ele>551.6</ele>
        <time>2026-05-01T14:38:47Z</time>
      </trkpt>
      <trkpt lat="45.14696" lon="4.60465">
        <ele>550.6</ele>
        <time>2026-05-01T14:38:52Z</time>
      </trkpt>
      <trkpt lat="45.147" lon="4.60473">
        <ele>550.2</ele>
        <time>2026-05-01T14:38:57Z</time>
      </trkpt>
      <trkpt lat="45.14704" lon="4.60481">
        <ele>549.8</ele>
        <time>2026-05-01T14:39:02Z</time>
      </trkpt>
      <trkpt lat="45.14708" lon="4.6049">
        <ele>549.2</ele>
        <time>2026-05-01T14:39:07Z</time>
      </trkpt>
      <trkpt lat="45.14712" lon="4.60498">
        <ele>548.9</ele>
        <time>2026-05-01T14:39:12Z</time>
      </trkpt>
      <trkpt lat="45.14716" lon="4.60506">
        <ele>548.3</ele>
        <time>2026-05-01T14:39:17Z</time>
      </trkpt>
      <trkpt lat="45.14719" lon="4.60514">
        <ele>547.5</ele>
        <time>2026-05-01T14:39:22Z</time>
      </trkpt>
      <trkpt lat="45.14723" lon="4.60521">
        <ele>547.1</ele>
        <time>2026-05-01T14:39:27Z</time>
      </trkpt>
      <trkpt lat="45.14726" lon="4.6053">
        <ele>546</ele>
        <time>2026-05-01T14:39:32Z</time>
      </trkpt>
      <trkpt lat="45.14732" lon="4.60538">
        <ele>546.1</ele>
        <time>2026-05-01T14:39:37Z</time>
      </trkpt>
      <trkpt lat="45.14736" lon="4.60548">
        <ele>545.2</ele>
        <time>2026-05-01T14:39:42Z</time>
      </trkpt>
      <trkpt lat="45.1474" lon="4.60556">
        <ele>544.7</ele>
        <time>2026-05-01T14:39:47Z</time>
      </trkpt>
      <trkpt lat="45.14744" lon="4.60565">
        <ele>544</ele>
        <time>2026-05-01T14:39:52Z</time>
      </trkpt>
      <trkpt lat="45.14746" lon="4.60573">
        <ele>542.9</ele>
        <time>2026-05-01T14:39:57Z</time>
      </trkpt>
      <trkpt lat="45.1475" lon="4.60583">
        <ele>542.1</ele>
        <time>2026-05-01T14:40:02Z</time>
      </trkpt>
      <trkpt lat="45.14754" lon="4.60591">
        <ele>540.7</ele>
        <time>2026-05-01T14:40:07Z</time>
      </trkpt>
      <trkpt lat="45.14757" lon="4.606">
        <ele>539</ele>
        <time>2026-05-01T14:40:12Z</time>
      </trkpt>
      <trkpt lat="45.14762" lon="4.60608">
        <ele>538</ele>
        <time>2026-05-01T14:40:17Z</time>
      </trkpt>
      <trkpt lat="45.14766" lon="4.60617">
        <ele>536.7</ele>
        <time>2026-05-01T14:40:22Z</time>
      </trkpt>
      <trkpt lat="45.1477" lon="4.60625">
        <ele>535.8</ele>
        <time>2026-05-01T14:40:27Z</time>
      </trkpt>
      <trkpt lat="45.14772" lon="4.60634">
        <ele>534.2</ele>
        <time>2026-05-01T14:40:32Z</time>
      </trkpt>
      <trkpt lat="45.14775" lon="4.60643">
        <ele>533</ele>
        <time>2026-05-01T14:40:37Z</time>
      </trkpt>
      <trkpt lat="45.14778" lon="4.60653">
        <ele>531.7</ele>
        <time>2026-05-01T14:40:42Z</time>
      </trkpt>
      <trkpt lat="45.1478" lon="4.60656">
        <ele>531.6</ele>
        <time>2026-05-01T14:40:47Z</time>
      </trkpt>
      <trkpt lat="45.14781" lon="4.60656">
        <ele>531.9</ele>
        <time>2026-05-01T14:40:52Z</time>
      </trkpt>
      <trkpt lat="45.14781" lon="4.60656">
        <ele>531.9</ele>
        <time>2026-05-01T14:40:57Z</time>
      </trkpt>
      <trkpt lat="45.14781" lon="4.60656">
        <ele>531.9</ele>
        <time>2026-05-01T14:41:02Z</time>
      </trkpt>
      <trkpt lat="45.14781" lon="4.60656">
        <ele>531.9</ele>
        <time>2026-05-01T14:41:07Z</time>
      </trkpt>
      <trkpt lat="45.14781" lon="4.60656">
        <ele>531.9</ele>
        <time>2026-05-01T14:41:12Z</time>
      </trkpt>
      <trkpt lat="45.14781" lon="4.60656">
        <ele>531.9</ele>
        <time>2026-05-01T14:41:17Z</time>
      </trkpt>
      <trkpt lat="45.14781" lon="4.60656">
        <ele>531.9</ele>
        <time>2026-05-01T14:41:22Z</time>
      </trkpt>
      <trkpt lat="45.14781" lon="4.60656">
        <ele>531.9</ele>
        <time>2026-05-01T14:41:27Z</time>
      </trkpt>
      <trkpt lat="45.14781" lon="4.60656">
        <ele>531.9</ele>
        <time>2026-05-01T14:41:32Z</time>
      </trkpt>
      <trkpt lat="45.14781" lon="4.60656">
        <ele>531.9</ele>
        <time>2026-05-01T14:41:37Z</time>
      </trkpt>
      <trkpt lat="45.14781" lon="4.60656">
        <ele>531.9</ele>
        <time>2026-05-01T14:41:42Z</time>
      </trkpt>
      <trkpt lat="45.14781" lon="4.60656">
        <ele>531.9</ele>
        <time>2026-05-01T14:41:47Z</time>
      </trkpt>
      <trkpt lat="45.14781" lon="4.60656">
        <ele>531.9</ele>
        <time>2026-05-01T14:41:52Z</time>
      </trkpt>
      <trkpt lat="45.14781" lon="4.60656">
        <ele>531.9</ele>
        <time>2026-05-01T14:41:57Z</time>
      </trkpt>
      <trkpt lat="45.14781" lon="4.60656">
        <ele>531.9</ele>
        <time>2026-05-01T14:42:02Z</time>
      </trkpt>
      <trkpt lat="45.14781" lon="4.60656">
        <ele>531.9</ele>
        <time>2026-05-01T14:42:07Z</time>
      </trkpt>
      <trkpt lat="45.14783" lon="4.60658">
        <ele>532.1</ele>
        <time>2026-05-01T14:42:12Z</time>
      </trkpt>
      <trkpt lat="45.14785" lon="4.60666">
        <ele>531.1</ele>
        <time>2026-05-01T14:42:17Z</time>
      </trkpt>
      <trkpt lat="45.14788" lon="4.60675">
        <ele>530.2</ele>
        <time>2026-05-01T14:42:22Z</time>
      </trkpt>
      <trkpt lat="45.14791" lon="4.60682">
        <ele>529.7</ele>
        <time>2026-05-01T14:42:27Z</time>
      </trkpt>
      <trkpt lat="45.14794" lon="4.60689">
        <ele>529.1</ele>
        <time>2026-05-01T14:42:32Z</time>
      </trkpt>
      <trkpt lat="45.14796" lon="4.60698">
        <ele>527.9</ele>
        <time>2026-05-01T14:42:37Z</time>
      </trkpt>
      <trkpt lat="45.148" lon="4.60708">
        <ele>527</ele>
        <time>2026-05-01T14:42:42Z</time>
      </trkpt>
      <trkpt lat="45.148" lon="4.60715">
        <ele>525.5</ele>
        <time>2026-05-01T14:42:47Z</time>
      </trkpt>
      <trkpt lat="45.14799" lon="4.60716">
        <ele>525</ele>
        <time>2026-05-01T14:42:52Z</time>
      </trkpt>
      <trkpt lat="45.14799" lon="4.60716">
        <ele>525</ele>
        <time>2026-05-01T14:42:57Z</time>
      </trkpt>
      <trkpt lat="45.14799" lon="4.60716">
        <ele>525</ele>
        <time>2026-05-01T14:43:02Z</time>
      </trkpt>
      <trkpt lat="45.14799" lon="4.60716">
        <ele>525</ele>
        <time>2026-05-01T14:43:07Z</time>
      </trkpt>
      <trkpt lat="45.14799" lon="4.60716">
        <ele>525</ele>
        <time>2026-05-01T14:43:12Z</time>
      </trkpt>
      <trkpt lat="45.14803" lon="4.60719">
        <ele>525.5</ele>
        <time>2026-05-01T14:43:17Z</time>
      </trkpt>
      <trkpt lat="45.14807" lon="4.60724">
        <ele>525.6</ele>
        <time>2026-05-01T14:43:22Z</time>
      </trkpt>
      <trkpt lat="45.1481" lon="4.60733">
        <ele>524.5</ele>
        <time>2026-05-01T14:43:27Z</time>
      </trkpt>
      <trkpt lat="45.14812" lon="4.60742">
        <ele>523.1</ele>
        <time>2026-05-01T14:43:32Z</time>
      </trkpt>
      <trkpt lat="45.14816" lon="4.60752">
        <ele>522.1</ele>
        <time>2026-05-01T14:43:37Z</time>
      </trkpt>
      <trkpt lat="45.14819" lon="4.60761">
        <ele>521.1</ele>
        <time>2026-05-01T14:43:42Z</time>
      </trkpt>
      <trkpt lat="45.14822" lon="4.60769">
        <ele>520.3</ele>
        <time>2026-05-01T14:43:47Z</time>
      </trkpt>
      <trkpt lat="45.14824" lon="4.6078">
        <ele>518.7</ele>
        <time>2026-05-01T14:43:52Z</time>
      </trkpt>
      <trkpt lat="45.14827" lon="4.60789">
        <ele>517.6</ele>
        <time>2026-05-01T14:43:57Z</time>
      </trkpt>
      <trkpt lat="45.14831" lon="4.60797">
        <ele>516.9</ele>
        <time>2026-05-01T14:44:02Z</time>
      </trkpt>
      <trkpt lat="45.14834" lon="4.60801">
        <ele>516.8</ele>
        <time>2026-05-01T14:44:07Z</time>
      </trkpt>
      <trkpt lat="45.14838" lon="4.60809">
        <ele>516.1</ele>
        <time>2026-05-01T14:44:12Z</time>
      </trkpt>
      <trkpt lat="45.14841" lon="4.60819">
        <ele>514.8</ele>
        <time>2026-05-01T14:44:17Z</time>
      </trkpt>
      <trkpt lat="45.14844" lon="4.60827">
        <ele>513.9</ele>
        <time>2026-05-01T14:44:22Z</time>
      </trkpt>
      <trkpt lat="45.14846" lon="4.60837">
        <ele>512.7</ele>
        <time>2026-05-01T14:44:27Z</time>
      </trkpt>
      <trkpt lat="45.1485" lon="4.60846">
        <ele>512.5</ele>
        <time>2026-05-01T14:44:32Z</time>
      </trkpt>
      <trkpt lat="45.14853" lon="4.60856">
        <ele>512</ele>
        <time>2026-05-01T14:44:37Z</time>
      </trkpt>
      <trkpt lat="45.14857" lon="4.60864">
        <ele>511.9</ele>
        <time>2026-05-01T14:44:42Z</time>
      </trkpt>
      <trkpt lat="45.1486" lon="4.60871">
        <ele>511.7</ele>
        <time>2026-05-01T14:44:47Z</time>
      </trkpt>
      <trkpt lat="45.14863" lon="4.60881">
        <ele>511.2</ele>
        <time>2026-05-01T14:44:52Z</time>
      </trkpt>
      <trkpt lat="45.14865" lon="4.60892">
        <ele>510.2</ele>
        <time>2026-05-01T14:44:57Z</time>
      </trkpt>
      <trkpt lat="45.14869" lon="4.609">
        <ele>510.2</ele>
        <time>2026-05-01T14:45:02Z</time>
      </trkpt>
      <trkpt lat="45.14873" lon="4.60905">
        <ele>510.5</ele>
        <time>2026-05-01T14:45:07Z</time>
      </trkpt>
      <trkpt lat="45.14877" lon="4.60913">
        <ele>510.5</ele>
        <time>2026-05-01T14:45:12Z</time>
      </trkpt>
      <trkpt lat="45.1488" lon="4.60924">
        <ele>509.7</ele>
        <time>2026-05-01T14:45:17Z</time>
      </trkpt>
      <trkpt lat="45.14881" lon="4.60935">
        <ele>508.3</ele>
        <time>2026-05-01T14:45:22Z</time>
      </trkpt>
      <trkpt lat="45.14883" lon="4.60943">
        <ele>507.6</ele>
        <time>2026-05-01T14:45:27Z</time>
      </trkpt>
      <trkpt lat="45.14887" lon="4.60949">
        <ele>507.6</ele>
        <time>2026-05-01T14:45:32Z</time>
      </trkpt>
      <trkpt lat="45.1489" lon="4.60956">
        <ele>507.1</ele>
        <time>2026-05-01T14:45:37Z</time>
      </trkpt>
      <trkpt lat="45.14894" lon="4.60964">
        <ele>506.6</ele>
        <time>2026-05-01T14:45:42Z</time>
      </trkpt>
      <trkpt lat="45.14897" lon="4.60977">
        <ele>505</ele>
        <time>2026-05-01T14:45:47Z</time>
      </trkpt>
      <trkpt lat="45.14901" lon="4.60988">
        <ele>503.8</ele>
        <time>2026-05-01T14:45:52Z</time>
      </trkpt>
      <trkpt lat="45.14904" lon="4.60996">
        <ele>502.9</ele>
        <time>2026-05-01T14:45:57Z</time>
      </trkpt>
      <trkpt lat="45.14908" lon="4.61003">
        <ele>502.5</ele>
        <time>2026-05-01T14:46:02Z</time>
      </trkpt>
      <trkpt lat="45.14914" lon="4.61011">
        <ele>502.7</ele>
        <time>2026-05-01T14:46:07Z</time>
      </trkpt>
      <trkpt lat="45.14919" lon="4.6102">
        <ele>502.6</ele>
        <time>2026-05-01T14:46:12Z</time>
      </trkpt>
      <trkpt lat="45.14921" lon="4.61029">
        <ele>502.1</ele>
        <time>2026-05-01T14:46:17Z</time>
      </trkpt>
      <trkpt lat="45.14925" lon="4.61037">
        <ele>501.9</ele>
        <time>2026-05-01T14:46:22Z</time>
      </trkpt>
      <trkpt lat="45.14929" lon="4.61048">
        <ele>501.4</ele>
        <time>2026-05-01T14:46:27Z</time>
      </trkpt>
      <trkpt lat="45.1493" lon="4.61059">
        <ele>500.6</ele>
        <time>2026-05-01T14:46:32Z</time>
      </trkpt>
      <trkpt lat="45.14933" lon="4.6107">
        <ele>499.9</ele>
        <time>2026-05-01T14:46:37Z</time>
      </trkpt>
      <trkpt lat="45.14936" lon="4.61078">
        <ele>499.6</ele>
        <time>2026-05-01T14:46:42Z</time>
      </trkpt>
      <trkpt lat="45.14933" lon="4.61083">
        <ele>498.8</ele>
        <time>2026-05-01T14:46:47Z</time>
      </trkpt>
      <trkpt lat="45.14933" lon="4.61084">
        <ele>498.7</ele>
        <time>2026-05-01T14:46:52Z</time>
      </trkpt>
      <trkpt lat="45.14934" lon="4.61086">
        <ele>498.6</ele>
        <time>2026-05-01T14:46:57Z</time>
      </trkpt>
      <trkpt lat="45.14939" lon="4.61088">
        <ele>498.9</ele>
        <time>2026-05-01T14:47:02Z</time>
      </trkpt>
      <trkpt lat="45.14943" lon="4.61098">
        <ele>498.2</ele>
        <time>2026-05-01T14:47:07Z</time>
      </trkpt>
      <trkpt lat="45.14946" lon="4.61107">
        <ele>497.5</ele>
        <time>2026-05-01T14:47:12Z</time>
      </trkpt>
      <trkpt lat="45.14947" lon="4.61117">
        <ele>496.5</ele>
        <time>2026-05-01T14:47:17Z</time>
      </trkpt>
      <trkpt lat="45.1495" lon="4.61125">
        <ele>495.8</ele>
        <time>2026-05-01T14:47:22Z</time>
      </trkpt>
      <trkpt lat="45.14953" lon="4.61134">
        <ele>495</ele>
        <time>2026-05-01T14:47:27Z</time>
      </trkpt>
      <trkpt lat="45.14955" lon="4.61141">
        <ele>494.3</ele>
        <time>2026-05-01T14:47:32Z</time>
      </trkpt>
      <trkpt lat="45.14955" lon="4.61141">
        <ele>494.3</ele>
        <time>2026-05-01T14:47:37Z</time>
      </trkpt>
      <trkpt lat="45.14955" lon="4.61141">
        <ele>494.3</ele>
        <time>2026-05-01T14:47:42Z</time>
      </trkpt>
      <trkpt lat="45.14955" lon="4.61141">
        <ele>494.3</ele>
        <time>2026-05-01T14:47:47Z</time>
      </trkpt>
      <trkpt lat="45.14962" lon="4.61149">
        <ele>493.9</ele>
        <time>2026-05-01T14:47:52Z</time>
      </trkpt>
      <trkpt lat="45.14966" lon="4.61157">
        <ele>493.2</ele>
        <time>2026-05-01T14:47:57Z</time>
      </trkpt>
      <trkpt lat="45.1497" lon="4.61165">
        <ele>492.4</ele>
        <time>2026-05-01T14:48:02Z</time>
      </trkpt>
      <trkpt lat="45.14972" lon="4.61174">
        <ele>491.8</ele>
        <time>2026-05-01T14:48:07Z</time>
      </trkpt>
      <trkpt lat="45.14973" lon="4.61183">
        <ele>491.2</ele>
        <time>2026-05-01T14:48:12Z</time>
      </trkpt>
      <trkpt lat="45.14975" lon="4.6119">
        <ele>490.7</ele>
        <time>2026-05-01T14:48:17Z</time>
      </trkpt>
      <trkpt lat="45.14977" lon="4.61199">
        <ele>490.1</ele>
        <time>2026-05-01T14:48:22Z</time>
      </trkpt>
      <trkpt lat="45.1498" lon="4.61207">
        <ele>489.5</ele>
        <time>2026-05-01T14:48:27Z</time>
      </trkpt>
      <trkpt lat="45.14985" lon="4.61215">
        <ele>488.8</ele>
        <time>2026-05-01T14:48:32Z</time>
      </trkpt>
      <trkpt lat="45.14987" lon="4.61221">
        <ele>488.3</ele>
        <time>2026-05-01T14:48:37Z</time>
      </trkpt>
      <trkpt lat="45.14989" lon="4.61232">
        <ele>487.2</ele>
        <time>2026-05-01T14:48:42Z</time>
      </trkpt>
      <trkpt lat="45.14992" lon="4.6124">
        <ele>486.4</ele>
        <time>2026-05-01T14:48:47Z</time>
      </trkpt>
      <trkpt lat="45.14995" lon="4.61248">
        <ele>485.4</ele>
        <time>2026-05-01T14:48:52Z</time>
      </trkpt>
      <trkpt lat="45.14998" lon="4.61257">
        <ele>484.9</ele>
        <time>2026-05-01T14:48:57Z</time>
      </trkpt>
      <trkpt lat="45.15002" lon="4.61266">
        <ele>484.9</ele>
        <time>2026-05-01T14:49:02Z</time>
      </trkpt>
      <trkpt lat="45.15006" lon="4.61276">
        <ele>485</ele>
        <time>2026-05-01T14:49:07Z</time>
      </trkpt>
      <trkpt lat="45.15008" lon="4.6128">
        <ele>485.1</ele>
        <time>2026-05-01T14:49:12Z</time>
      </trkpt>
      <trkpt lat="45.15009" lon="4.6128">
        <ele>485.2</ele>
        <time>2026-05-01T14:49:17Z</time>
      </trkpt>
      <trkpt lat="45.1501" lon="4.61283">
        <ele>485.2</ele>
        <time>2026-05-01T14:49:22Z</time>
      </trkpt>
      <trkpt lat="45.15013" lon="4.61289">
        <ele>485.3</ele>
        <time>2026-05-01T14:49:27Z</time>
      </trkpt>
      <trkpt lat="45.15015" lon="4.61295">
        <ele>485.3</ele>
        <time>2026-05-01T14:49:32Z</time>
      </trkpt>
      <trkpt lat="45.15018" lon="4.61304">
        <ele>485.2</ele>
        <time>2026-05-01T14:49:37Z</time>
      </trkpt>
      <trkpt lat="45.1502" lon="4.61311">
        <ele>485.1</ele>
        <time>2026-05-01T14:49:42Z</time>
      </trkpt>
      <trkpt lat="45.15023" lon="4.61319">
        <ele>485</ele>
        <time>2026-05-01T14:49:47Z</time>
      </trkpt>
      <trkpt lat="45.15024" lon="4.61322">
        <ele>484.9</ele>
        <time>2026-05-01T14:49:52Z</time>
      </trkpt>
      <trkpt lat="45.15025" lon="4.61327">
        <ele>484.8</ele>
        <time>2026-05-01T14:49:57Z</time>
      </trkpt>
      <trkpt lat="45.15027" lon="4.61334">
        <ele>484.6</ele>
        <time>2026-05-01T14:50:02Z</time>
      </trkpt>
      <trkpt lat="45.1503" lon="4.61341">
        <ele>484.7</ele>
        <time>2026-05-01T14:50:07Z</time>
      </trkpt>
      <trkpt lat="45.1503" lon="4.6135">
        <ele>484.6</ele>
        <time>2026-05-01T14:50:12Z</time>
      </trkpt>
      <trkpt lat="45.15033" lon="4.61356">
        <ele>484.6</ele>
        <time>2026-05-01T14:50:17Z</time>
      </trkpt>
      <trkpt lat="45.15033" lon="4.6136">
        <ele>484.5</ele>
        <time>2026-05-01T14:50:22Z</time>
      </trkpt>
      <trkpt lat="45.15033" lon="4.61367">
        <ele>484.4</ele>
        <time>2026-05-01T14:50:27Z</time>
      </trkpt>
      <trkpt lat="45.15033" lon="4.61375">
        <ele>484.3</ele>
        <time>2026-05-01T14:50:32Z</time>
      </trkpt>
      <trkpt lat="45.15034" lon="4.61383">
        <ele>484.2</ele>
        <time>2026-05-01T14:50:37Z</time>
      </trkpt>
      <trkpt lat="45.15038" lon="4.61391">
        <ele>484.1</ele>
        <time>2026-05-01T14:50:42Z</time>
      </trkpt>
      <trkpt lat="45.15039" lon="4.61397">
        <ele>484</ele>
        <time>2026-05-01T14:50:47Z</time>
      </trkpt>
      <trkpt lat="45.1504" lon="4.61399">
        <ele>483.9</ele>
        <time>2026-05-01T14:50:52Z</time>
      </trkpt>
      <trkpt lat="45.15041" lon="4.61403">
        <ele>483.8</ele>
        <time>2026-05-01T14:50:57Z</time>
      </trkpt>
      <trkpt lat="45.15041" lon="4.61407">
        <ele>483.7</ele>
        <time>2026-05-01T14:51:02Z</time>
      </trkpt>
      <trkpt lat="45.15042" lon="4.61412">
        <ele>483.6</ele>
        <time>2026-05-01T14:51:07Z</time>
      </trkpt>
      <trkpt lat="45.15047" lon="4.61422">
        <ele>483.4</ele>
        <time>2026-05-01T14:51:12Z</time>
      </trkpt>
      <trkpt lat="45.15048" lon="4.61429">
        <ele>483.4</ele>
        <time>2026-05-01T14:51:17Z</time>
      </trkpt>
      <trkpt lat="45.1505" lon="4.61433">
        <ele>483.4</ele>
        <time>2026-05-01T14:51:22Z</time>
      </trkpt>
      <trkpt lat="45.15053" lon="4.61443">
        <ele>483.2</ele>
        <time>2026-05-01T14:51:27Z</time>
      </trkpt>
      <trkpt lat="45.15056" lon="4.61461">
        <ele>483</ele>
        <time>2026-05-01T14:51:32Z</time>
      </trkpt>
      <trkpt lat="45.15058" lon="4.61472">
        <ele>482.7</ele>
        <time>2026-05-01T14:51:37Z</time>
      </trkpt>
      <trkpt lat="45.1506" lon="4.6148">
        <ele>482.5</ele>
        <time>2026-05-01T14:51:42Z</time>
      </trkpt>
      <trkpt lat="45.15063" lon="4.61488">
        <ele>482.1</ele>
        <time>2026-05-01T14:51:47Z</time>
      </trkpt>
      <trkpt lat="45.1507" lon="4.61492">
        <ele>481.5</ele>
        <time>2026-05-01T14:51:52Z</time>
      </trkpt>
      <trkpt lat="45.15072" lon="4.61497">
        <ele>481.2</ele>
        <time>2026-05-01T14:51:57Z</time>
      </trkpt>
      <trkpt lat="45.15073" lon="4.61502">
        <ele>481</ele>
        <time>2026-05-01T14:52:02Z</time>
      </trkpt>
      <trkpt lat="45.15075" lon="4.61504">
        <ele>480.8</ele>
        <time>2026-05-01T14:52:07Z</time>
      </trkpt>
      <trkpt lat="45.15075" lon="4.61504">
        <ele>480.8</ele>
        <time>2026-05-01T14:52:12Z</time>
      </trkpt>
      <trkpt lat="45.15075" lon="4.61504">
        <ele>480.8</ele>
        <time>2026-05-01T14:52:17Z</time>
      </trkpt>
      <trkpt lat="45.15075" lon="4.61504">
        <ele>480.8</ele>
        <time>2026-05-01T14:52:22Z</time>
      </trkpt>
      <trkpt lat="45.15075" lon="4.61517">
        <ele>480.7</ele>
        <time>2026-05-01T14:52:27Z</time>
      </trkpt>
      <trkpt lat="45.15081" lon="4.61522">
        <ele>480</ele>
        <time>2026-05-01T14:52:32Z</time>
      </trkpt>
      <trkpt lat="45.15084" lon="4.61524">
        <ele>479.7</ele>
        <time>2026-05-01T14:52:37Z</time>
      </trkpt>
      <trkpt lat="45.15088" lon="4.61532">
        <ele>479.6</ele>
        <time>2026-05-01T14:52:42Z</time>
      </trkpt>
      <trkpt lat="45.15089" lon="4.61539">
        <ele>479.4</ele>
        <time>2026-05-01T14:52:47Z</time>
      </trkpt>
      <trkpt lat="45.15092" lon="4.61542">
        <ele>479.3</ele>
        <time>2026-05-01T14:52:52Z</time>
      </trkpt>
      <trkpt lat="45.15096" lon="4.61541">
        <ele>479.3</ele>
        <time>2026-05-01T14:52:57Z</time>
      </trkpt>
      <trkpt lat="45.15097" lon="4.61543">
        <ele>479.2</ele>
        <time>2026-05-01T14:53:02Z</time>
      </trkpt>
      <trkpt lat="45.15096" lon="4.61543">
        <ele>479.2</ele>
        <time>2026-05-01T14:53:07Z</time>
      </trkpt>
      <trkpt lat="45.15093" lon="4.61541">
        <ele>479.3</ele>
        <time>2026-05-01T14:53:12Z</time>
        <extensions>
          <visugpx:TrkExtension xmlns:visugpx="https://www.visugpx.com/editgpx/">
            <visugpx:node>9</visugpx:node>
            </visugpx:TrkExtension>
        </extensions>
      </trkpt>
      <trkpt lat="45.15096" lon="4.61554">
        <ele>479.1</ele>
        <time>2026-05-02T06:04:59Z</time>
      </trkpt>
      <trkpt lat="45.15098" lon="4.61542">
        <ele>479.2</ele>
        <time>2026-05-02T06:05:05Z</time>
      </trkpt>
      <trkpt lat="45.15098" lon="4.61542">
        <ele>479.2</ele>
        <time>2026-05-02T06:05:10Z</time>
      </trkpt>
      <trkpt lat="45.15098" lon="4.61542">
        <ele>479.2</ele>
        <time>2026-05-02T06:05:14Z</time>
      </trkpt>
      <trkpt lat="45.15098" lon="4.61542">
        <ele>479.2</ele>
        <time>2026-05-02T06:05:20Z</time>
      </trkpt>
      <trkpt lat="45.15098" lon="4.61542">
        <ele>479.2</ele>
        <time>2026-05-02T06:05:25Z</time>
      </trkpt>
      <trkpt lat="45.15096" lon="4.61545">
        <ele>479.2</ele>
        <time>2026-05-02T06:05:30Z</time>
      </trkpt>
      <trkpt lat="45.15099" lon="4.61548">
        <ele>479.1</ele>
        <time>2026-05-02T06:05:35Z</time>
      </trkpt>
      <trkpt lat="45.15098" lon="4.61553">
        <ele>479</ele>
        <time>2026-05-02T06:05:40Z</time>
      </trkpt>
      <trkpt lat="45.15098" lon="4.61561">
        <ele>478.9</ele>
        <time>2026-05-02T06:05:45Z</time>
      </trkpt>
      <trkpt lat="45.15101" lon="4.61568">
        <ele>478.7</ele>
        <time>2026-05-02T06:05:50Z</time>
      </trkpt>
      <trkpt lat="45.15103" lon="4.61576">
        <ele>478.4</ele>
        <time>2026-05-02T06:05:55Z</time>
      </trkpt>
      <trkpt lat="45.15103" lon="4.61579">
        <ele>478.4</ele>
        <time>2026-05-02T06:06:00Z</time>
      </trkpt>
      <trkpt lat="45.15103" lon="4.6158">
        <ele>478.4</ele>
        <time>2026-05-02T06:06:05Z</time>
      </trkpt>
      <trkpt lat="45.15103" lon="4.6158">
        <ele>478.4</ele>
        <time>2026-05-02T06:06:10Z</time>
      </trkpt>
      <trkpt lat="45.15103" lon="4.6158">
        <ele>478.4</ele>
        <time>2026-05-02T06:06:15Z</time>
      </trkpt>
      <trkpt lat="45.15103" lon="4.6158">
        <ele>478.4</ele>
        <time>2026-05-02T06:06:20Z</time>
      </trkpt>
      <trkpt lat="45.15109" lon="4.61579">
        <ele>478.2</ele>
        <time>2026-05-02T06:06:25Z</time>
      </trkpt>
      <trkpt lat="45.15114" lon="4.61577">
        <ele>478.1</ele>
        <time>2026-05-02T06:06:30Z</time>
      </trkpt>
      <trkpt lat="45.15117" lon="4.6158">
        <ele>477.9</ele>
        <time>2026-05-02T06:06:35Z</time>
      </trkpt>
      <trkpt lat="45.15118" lon="4.61583">
        <ele>477.8</ele>
        <time>2026-05-02T06:06:40Z</time>
      </trkpt>
      <trkpt lat="45.15118" lon="4.61582">
        <ele>477.8</ele>
        <time>2026-05-02T06:06:45Z</time>
      </trkpt>
      <trkpt lat="45.15118" lon="4.61582">
        <ele>477.8</ele>
        <time>2026-05-02T06:06:45Z</time>
      </trkpt>
      <trkpt lat="45.15114" lon="4.61565">
        <ele>478.4</ele>
        <time>2026-05-02T06:15:17Z</time>
      </trkpt>
      <trkpt lat="45.15114" lon="4.61565">
        <ele>478.4</ele>
        <time>2026-05-02T06:15:23Z</time>
      </trkpt>
      <trkpt lat="45.15114" lon="4.61565">
        <ele>478.4</ele>
        <time>2026-05-02T06:15:28Z</time>
      </trkpt>
      <trkpt lat="45.15114" lon="4.61565">
        <ele>478.4</ele>
        <time>2026-05-02T06:15:33Z</time>
      </trkpt>
      <trkpt lat="45.15114" lon="4.61565">
        <ele>478.4</ele>
        <time>2026-05-02T06:15:38Z</time>
      </trkpt>
      <trkpt lat="45.15114" lon="4.61565">
        <ele>478.4</ele>
        <time>2026-05-02T06:15:43Z</time>
      </trkpt>
      <trkpt lat="45.15114" lon="4.61565">
        <ele>478.4</ele>
        <time>2026-05-02T06:15:48Z</time>
      </trkpt>
      <trkpt lat="45.15114" lon="4.61565">
        <ele>478.4</ele>
        <time>2026-05-02T06:15:53Z</time>
      </trkpt>
      <trkpt lat="45.15107" lon="4.61564">
        <ele>478.6</ele>
        <time>2026-05-02T06:15:58Z</time>
      </trkpt>
      <trkpt lat="45.15104" lon="4.61564">
        <ele>478.7</ele>
        <time>2026-05-02T06:16:03Z</time>
      </trkpt>
      <trkpt lat="45.15098" lon="4.61561">
        <ele>478.9</ele>
        <time>2026-05-02T06:16:08Z</time>
      </trkpt>
      <trkpt lat="45.15096" lon="4.61553">
        <ele>479.1</ele>
        <time>2026-05-02T06:16:13Z</time>
      </trkpt>
      <trkpt lat="45.15094" lon="4.61548">
        <ele>479.2</ele>
        <time>2026-05-02T06:16:18Z</time>
      </trkpt>
      <trkpt lat="45.15092" lon="4.61546">
        <ele>479.3</ele>
        <time>2026-05-02T06:16:23Z</time>
      </trkpt>
      <trkpt lat="45.15092" lon="4.61546">
        <ele>479.3</ele>
        <time>2026-05-02T06:16:28Z</time>
      </trkpt>
      <trkpt lat="45.15092" lon="4.61546">
        <ele>479.3</ele>
        <time>2026-05-02T06:16:33Z</time>
      </trkpt>
      <trkpt lat="45.15092" lon="4.61546">
        <ele>479.3</ele>
        <time>2026-05-02T06:16:38Z</time>
      </trkpt>
      <trkpt lat="45.15092" lon="4.61546">
        <ele>479.3</ele>
        <time>2026-05-02T06:16:43Z</time>
      </trkpt>
      <trkpt lat="45.15092" lon="4.61546">
        <ele>479.3</ele>
        <time>2026-05-02T06:16:48Z</time>
      </trkpt>
      <trkpt lat="45.15092" lon="4.61546">
        <ele>479.3</ele>
        <time>2026-05-02T06:16:53Z</time>
      </trkpt>
      <trkpt lat="45.15092" lon="4.61546">
        <ele>479.3</ele>
        <time>2026-05-02T06:16:58Z</time>
      </trkpt>
      <trkpt lat="45.15092" lon="4.61546">
        <ele>479.3</ele>
        <time>2026-05-02T06:17:03Z</time>
      </trkpt>
      <trkpt lat="45.15092" lon="4.61546">
        <ele>479.3</ele>
        <time>2026-05-02T06:17:08Z</time>
      </trkpt>
      <trkpt lat="45.15092" lon="4.61546">
        <ele>479.3</ele>
        <time>2026-05-02T06:17:13Z</time>
      </trkpt>
      <trkpt lat="45.15092" lon="4.61546">
        <ele>479.3</ele>
        <time>2026-05-02T06:17:18Z</time>
      </trkpt>
      <trkpt lat="45.15092" lon="4.61546">
        <ele>479.3</ele>
        <time>2026-05-02T06:17:23Z</time>
      </trkpt>
      <trkpt lat="45.15092" lon="4.61546">
        <ele>479.3</ele>
        <time>2026-05-02T06:17:28Z</time>
      </trkpt>
      <trkpt lat="45.15092" lon="4.61546">
        <ele>479.3</ele>
        <time>2026-05-02T06:17:33Z</time>
      </trkpt>
      <trkpt lat="45.15092" lon="4.61546">
        <ele>479.3</ele>
        <time>2026-05-02T06:17:38Z</time>
      </trkpt>
      <trkpt lat="45.15092" lon="4.61546">
        <ele>479.3</ele>
        <time>2026-05-02T06:17:43Z</time>
      </trkpt>
      <trkpt lat="45.15092" lon="4.61546">
        <ele>479.3</ele>
        <time>2026-05-02T06:17:48Z</time>
      </trkpt>
      <trkpt lat="45.15092" lon="4.61546">
        <ele>479.3</ele>
        <time>2026-05-02T06:17:53Z</time>
      </trkpt>
      <trkpt lat="45.15092" lon="4.61546">
        <ele>479.3</ele>
        <time>2026-05-02T06:17:58Z</time>
      </trkpt>
      <trkpt lat="45.15092" lon="4.61546">
        <ele>479.3</ele>
        <time>2026-05-02T06:18:03Z</time>
      </trkpt>
      <trkpt lat="45.15092" lon="4.61546">
        <ele>479.3</ele>
        <time>2026-05-02T06:18:08Z</time>
      </trkpt>
      <trkpt lat="45.15092" lon="4.61546">
        <ele>479.3</ele>
        <time>2026-05-02T06:18:13Z</time>
      </trkpt>
      <trkpt lat="45.15092" lon="4.61546">
        <ele>479.3</ele>
        <time>2026-05-02T06:18:18Z</time>
      </trkpt>
      <trkpt lat="45.15092" lon="4.61546">
        <ele>479.3</ele>
        <time>2026-05-02T06:18:23Z</time>
      </trkpt>
      <trkpt lat="45.15092" lon="4.61546">
        <ele>479.3</ele>
        <time>2026-05-02T06:18:28Z</time>
      </trkpt>
      <trkpt lat="45.15092" lon="4.61546">
        <ele>479.3</ele>
        <time>2026-05-02T06:18:33Z</time>
      </trkpt>
      <trkpt lat="45.15088" lon="4.61544">
        <ele>479.4</ele>
        <time>2026-05-02T06:18:38Z</time>
      </trkpt>
      <trkpt lat="45.15088" lon="4.61538">
        <ele>479.5</ele>
        <time>2026-05-02T06:18:43Z</time>
      </trkpt>
      <trkpt lat="45.15086" lon="4.61532">
        <ele>479.6</ele>
        <time>2026-05-02T06:18:48Z</time>
      </trkpt>
      <trkpt lat="45.15084" lon="4.61525">
        <ele>479.7</ele>
        <time>2026-05-02T06:18:53Z</time>
      </trkpt>
      <trkpt lat="45.15083" lon="4.61518">
        <ele>479.8</ele>
        <time>2026-05-02T06:18:58Z</time>
      </trkpt>
      <trkpt lat="45.15082" lon="4.61513">
        <ele>480</ele>
        <time>2026-05-02T06:19:03Z</time>
      </trkpt>
      <trkpt lat="45.15078" lon="4.61508">
        <ele>480.4</ele>
        <time>2026-05-02T06:19:08Z</time>
      </trkpt>
      <trkpt lat="45.15076" lon="4.61506">
        <ele>480.7</ele>
        <time>2026-05-02T06:19:13Z</time>
      </trkpt>
      <trkpt lat="45.15075" lon="4.61507">
        <ele>480.8</ele>
        <time>2026-05-02T06:19:18Z</time>
      </trkpt>
      <trkpt lat="45.15075" lon="4.61507">
        <ele>480.8</ele>
        <time>2026-05-02T06:19:23Z</time>
      </trkpt>
      <trkpt lat="45.15075" lon="4.61507">
        <ele>480.8</ele>
        <time>2026-05-02T06:19:28Z</time>
      </trkpt>
      <trkpt lat="45.15075" lon="4.61507">
        <ele>480.8</ele>
        <time>2026-05-02T06:19:33Z</time>
      </trkpt>
      <trkpt lat="45.15075" lon="4.61507">
        <ele>480.8</ele>
        <time>2026-05-02T06:19:38Z</time>
      </trkpt>
      <trkpt lat="45.15065" lon="4.61512">
        <ele>481.8</ele>
        <time>2026-05-02T06:19:43Z</time>
      </trkpt>
      <trkpt lat="45.15063" lon="4.61509">
        <ele>482</ele>
        <time>2026-05-02T06:19:48Z</time>
      </trkpt>
      <trkpt lat="45.15059" lon="4.61511">
        <ele>482.4</ele>
        <time>2026-05-02T06:19:53Z</time>
      </trkpt>
      <trkpt lat="45.15053" lon="4.61513">
        <ele>483</ele>
        <time>2026-05-02T06:19:58Z</time>
      </trkpt>
      <trkpt lat="45.15047" lon="4.6152">
        <ele>483.8</ele>
        <time>2026-05-02T06:20:03Z</time>
      </trkpt>
      <trkpt lat="45.15042" lon="4.61524">
        <ele>484.4</ele>
        <time>2026-05-02T06:20:08Z</time>
      </trkpt>
      <trkpt lat="45.15035" lon="4.61526">
        <ele>485.2</ele>
        <time>2026-05-02T06:20:13Z</time>
      </trkpt>
      <trkpt lat="45.15035" lon="4.61528">
        <ele>485.3</ele>
        <time>2026-05-02T06:20:18Z</time>
      </trkpt>
      <trkpt lat="45.15036" lon="4.61529">
        <ele>485.2</ele>
        <time>2026-05-02T06:20:23Z</time>
      </trkpt>
      <trkpt lat="45.15036" lon="4.61529">
        <ele>485.2</ele>
        <time>2026-05-02T06:20:28Z</time>
      </trkpt>
      <trkpt lat="45.15036" lon="4.61529">
        <ele>485.2</ele>
        <time>2026-05-02T06:20:33Z</time>
      </trkpt>
      <trkpt lat="45.15035" lon="4.61528">
        <ele>485.3</ele>
        <time>2026-05-02T06:20:38Z</time>
      </trkpt>
      <trkpt lat="45.15033" lon="4.61525">
        <ele>485.4</ele>
        <time>2026-05-02T06:20:43Z</time>
      </trkpt>
      <trkpt lat="45.15031" lon="4.61526">
        <ele>485.7</ele>
        <time>2026-05-02T06:20:48Z</time>
      </trkpt>
      <trkpt lat="45.15026" lon="4.61529">
        <ele>486.4</ele>
        <time>2026-05-02T06:20:53Z</time>
      </trkpt>
      <trkpt lat="45.15022" lon="4.61531">
        <ele>486.9</ele>
        <time>2026-05-02T06:20:58Z</time>
      </trkpt>
      <trkpt lat="45.15016" lon="4.61533">
        <ele>487.7</ele>
        <time>2026-05-02T06:21:03Z</time>
      </trkpt>
      <trkpt lat="45.15013" lon="4.61534">
        <ele>488.1</ele>
        <time>2026-05-02T06:21:08Z</time>
      </trkpt>
      <trkpt lat="45.15013" lon="4.61535">
        <ele>488.1</ele>
        <time>2026-05-02T06:21:13Z</time>
      </trkpt>
      <trkpt lat="45.15013" lon="4.61535">
        <ele>488.1</ele>
        <time>2026-05-02T06:21:18Z</time>
      </trkpt>
      <trkpt lat="45.15013" lon="4.61535">
        <ele>488.1</ele>
        <time>2026-05-02T06:21:23Z</time>
      </trkpt>
      <trkpt lat="45.15012" lon="4.61537">
        <ele>488.3</ele>
        <time>2026-05-02T06:21:28Z</time>
      </trkpt>
      <trkpt lat="45.15011" lon="4.61537">
        <ele>488.4</ele>
        <time>2026-05-02T06:21:33Z</time>
      </trkpt>
      <trkpt lat="45.15011" lon="4.61537">
        <ele>488.4</ele>
        <time>2026-05-02T06:21:38Z</time>
      </trkpt>
      <trkpt lat="45.15011" lon="4.61537">
        <ele>488.4</ele>
        <time>2026-05-02T06:21:43Z</time>
      </trkpt>
      <trkpt lat="45.15008" lon="4.61538">
        <ele>488.8</ele>
        <time>2026-05-02T06:21:48Z</time>
      </trkpt>
      <trkpt lat="45.15004" lon="4.61542">
        <ele>489.5</ele>
        <time>2026-05-02T06:21:53Z</time>
      </trkpt>
      <trkpt lat="45.14998" lon="4.61548">
        <ele>490.7</ele>
        <time>2026-05-02T06:21:58Z</time>
      </trkpt>
      <trkpt lat="45.14994" lon="4.61555">
        <ele>491.7</ele>
        <time>2026-05-02T06:22:03Z</time>
      </trkpt>
      <trkpt lat="45.14989" lon="4.6156">
        <ele>492.9</ele>
        <time>2026-05-02T06:22:08Z</time>
      </trkpt>
      <trkpt lat="45.14984" lon="4.61566">
        <ele>494.1</ele>
        <time>2026-05-02T06:22:13Z</time>
      </trkpt>
      <trkpt lat="45.14982" lon="4.61573">
        <ele>494.8</ele>
        <time>2026-05-02T06:22:18Z</time>
      </trkpt>
      <trkpt lat="45.14982" lon="4.61577">
        <ele>495</ele>
        <time>2026-05-02T06:22:23Z</time>
      </trkpt>
      <trkpt lat="45.14982" lon="4.61577">
        <ele>495</ele>
        <time>2026-05-02T06:22:28Z</time>
      </trkpt>
      <trkpt lat="45.14982" lon="4.61577">
        <ele>495</ele>
        <time>2026-05-02T06:22:33Z</time>
      </trkpt>
      <trkpt lat="45.14982" lon="4.61577">
        <ele>495</ele>
        <time>2026-05-02T06:22:38Z</time>
      </trkpt>
      <trkpt lat="45.14982" lon="4.61577">
        <ele>495</ele>
        <time>2026-05-02T06:22:43Z</time>
      </trkpt>
      <trkpt lat="45.14982" lon="4.61577">
        <ele>495</ele>
        <time>2026-05-02T06:22:48Z</time>
      </trkpt>
      <trkpt lat="45.14982" lon="4.61577">
        <ele>495</ele>
        <time>2026-05-02T06:22:53Z</time>
      </trkpt>
      <trkpt lat="45.14978" lon="4.61576">
        <ele>495.6</ele>
        <time>2026-05-02T06:22:58Z</time>
      </trkpt>
      <trkpt lat="45.14978" lon="4.61576">
        <ele>495.6</ele>
        <time>2026-05-02T06:23:03Z</time>
      </trkpt>
      <trkpt lat="45.14978" lon="4.61576">
        <ele>495.6</ele>
        <time>2026-05-02T06:23:08Z</time>
      </trkpt>
      <trkpt lat="45.14978" lon="4.61576">
        <ele>495.6</ele>
        <time>2026-05-02T06:23:13Z</time>
      </trkpt>
      <trkpt lat="45.14978" lon="4.61576">
        <ele>495.6</ele>
        <time>2026-05-02T06:23:18Z</time>
      </trkpt>
      <trkpt lat="45.14978" lon="4.61576">
        <ele>495.6</ele>
        <time>2026-05-02T06:23:23Z</time>
      </trkpt>
      <trkpt lat="45.14978" lon="4.61576">
        <ele>495.6</ele>
        <time>2026-05-02T06:23:28Z</time>
      </trkpt>
      <trkpt lat="45.14978" lon="4.61576">
        <ele>495.6</ele>
        <time>2026-05-02T06:23:33Z</time>
      </trkpt>
      <trkpt lat="45.14978" lon="4.61576">
        <ele>495.6</ele>
        <time>2026-05-02T06:23:38Z</time>
      </trkpt>
      <trkpt lat="45.14978" lon="4.61576">
        <ele>495.6</ele>
        <time>2026-05-02T06:23:43Z</time>
      </trkpt>
      <trkpt lat="45.14978" lon="4.61576">
        <ele>495.6</ele>
        <time>2026-05-02T06:23:48Z</time>
      </trkpt>
      <trkpt lat="45.14978" lon="4.61576">
        <ele>495.6</ele>
        <time>2026-05-02T06:23:53Z</time>
      </trkpt>
      <trkpt lat="45.14978" lon="4.61576">
        <ele>495.6</ele>
        <time>2026-05-02T06:23:58Z</time>
      </trkpt>
      <trkpt lat="45.14978" lon="4.61576">
        <ele>495.6</ele>
        <time>2026-05-02T06:24:03Z</time>
      </trkpt>
      <trkpt lat="45.14978" lon="4.61576">
        <ele>495.6</ele>
        <time>2026-05-02T06:24:08Z</time>
      </trkpt>
      <trkpt lat="45.14978" lon="4.61576">
        <ele>495.6</ele>
        <time>2026-05-02T06:24:13Z</time>
      </trkpt>
      <trkpt lat="45.14978" lon="4.61576">
        <ele>495.6</ele>
        <time>2026-05-02T06:24:18Z</time>
      </trkpt>
      <trkpt lat="45.14978" lon="4.61576">
        <ele>495.6</ele>
        <time>2026-05-02T06:24:18Z</time>
      </trkpt>
      <trkpt lat="45.14979" lon="4.61575">
        <ele>495.4</ele>
        <time>2026-05-02T06:24:24Z</time>
      </trkpt>
      <trkpt lat="45.14979" lon="4.61575">
        <ele>495.4</ele>
        <time>2026-05-02T06:24:29Z</time>
      </trkpt>
      <trkpt lat="45.14977" lon="4.61575">
        <ele>495.8</ele>
        <time>2026-05-02T06:24:34Z</time>
      </trkpt>
      <trkpt lat="45.14971" lon="4.61576">
        <ele>496.9</ele>
        <time>2026-05-02T06:24:39Z</time>
      </trkpt>
      <trkpt lat="45.14967" lon="4.61575">
        <ele>497.6</ele>
        <time>2026-05-02T06:24:44Z</time>
      </trkpt>
      <trkpt lat="45.14963" lon="4.61574">
        <ele>498.3</ele>
        <time>2026-05-02T06:24:49Z</time>
      </trkpt>
      <trkpt lat="45.14959" lon="4.61575">
        <ele>499</ele>
        <time>2026-05-02T06:24:54Z</time>
      </trkpt>
      <trkpt lat="45.14954" lon="4.61571">
        <ele>499.8</ele>
        <time>2026-05-02T06:24:59Z</time>
      </trkpt>
      <trkpt lat="45.14949" lon="4.61562">
        <ele>500.3</ele>
        <time>2026-05-02T06:25:04Z</time>
      </trkpt>
      <trkpt lat="45.14945" lon="4.61556">
        <ele>500.8</ele>
        <time>2026-05-02T06:25:09Z</time>
      </trkpt>
      <trkpt lat="45.14941" lon="4.61552">
        <ele>501.4</ele>
        <time>2026-05-02T06:25:14Z</time>
      </trkpt>
      <trkpt lat="45.14941" lon="4.61547">
        <ele>501.2</ele>
        <time>2026-05-02T06:25:19Z</time>
      </trkpt>
      <trkpt lat="45.14939" lon="4.61547">
        <ele>501.6</ele>
        <time>2026-05-02T06:25:24Z</time>
      </trkpt>
      <trkpt lat="45.14938" lon="4.61548">
        <ele>501.8</ele>
        <time>2026-05-02T06:25:29Z</time>
      </trkpt>
      <trkpt lat="45.14938" lon="4.61548">
        <ele>501.8</ele>
        <time>2026-05-02T06:25:34Z</time>
      </trkpt>
      <trkpt lat="45.14938" lon="4.61548">
        <ele>501.8</ele>
        <time>2026-05-02T06:25:39Z</time>
      </trkpt>
      <trkpt lat="45.14938" lon="4.61548">
        <ele>501.8</ele>
        <time>2026-05-02T06:25:44Z</time>
      </trkpt>
      <trkpt lat="45.14938" lon="4.61548">
        <ele>501.8</ele>
        <time>2026-05-02T06:25:49Z</time>
      </trkpt>
      <trkpt lat="45.14938" lon="4.61548">
        <ele>501.8</ele>
        <time>2026-05-02T06:25:54Z</time>
      </trkpt>
      <trkpt lat="45.14938" lon="4.61548">
        <ele>501.8</ele>
        <time>2026-05-02T06:25:59Z</time>
      </trkpt>
      <trkpt lat="45.14938" lon="4.61548">
        <ele>501.8</ele>
        <time>2026-05-02T06:26:04Z</time>
      </trkpt>
      <trkpt lat="45.14938" lon="4.61548">
        <ele>501.8</ele>
        <time>2026-05-02T06:26:09Z</time>
      </trkpt>
      <trkpt lat="45.14938" lon="4.61548">
        <ele>501.8</ele>
        <time>2026-05-02T06:26:14Z</time>
      </trkpt>
      <trkpt lat="45.14938" lon="4.61548">
        <ele>501.8</ele>
        <time>2026-05-02T06:26:19Z</time>
      </trkpt>
      <trkpt lat="45.14938" lon="4.61548">
        <ele>501.8</ele>
        <time>2026-05-02T06:26:24Z</time>
      </trkpt>
      <trkpt lat="45.14938" lon="4.61548">
        <ele>501.8</ele>
        <time>2026-05-02T06:26:29Z</time>
      </trkpt>
      <trkpt lat="45.14934" lon="4.6155">
        <ele>502.6</ele>
        <time>2026-05-02T06:26:34Z</time>
      </trkpt>
      <trkpt lat="45.14928" lon="4.61542">
        <ele>503.4</ele>
        <time>2026-05-02T06:26:39Z</time>
      </trkpt>
      <trkpt lat="45.14925" lon="4.61533">
        <ele>503.6</ele>
        <time>2026-05-02T06:26:44Z</time>
      </trkpt>
      <trkpt lat="45.14924" lon="4.61526">
        <ele>503.6</ele>
        <time>2026-05-02T06:26:49Z</time>
      </trkpt>
      <trkpt lat="45.14921" lon="4.61517">
        <ele>503.8</ele>
        <time>2026-05-02T06:26:54Z</time>
      </trkpt>
      <trkpt lat="45.14917" lon="4.61509">
        <ele>504.3</ele>
        <time>2026-05-02T06:26:59Z</time>
      </trkpt>
      <trkpt lat="45.14914" lon="4.61501">
        <ele>504.4</ele>
        <time>2026-05-02T06:27:04Z</time>
      </trkpt>
      <trkpt lat="45.1491" lon="4.61492">
        <ele>504.5</ele>
        <time>2026-05-02T06:27:09Z</time>
      </trkpt>
      <trkpt lat="45.14907" lon="4.61485">
        <ele>504.7</ele>
        <time>2026-05-02T06:27:14Z</time>
      </trkpt>
      <trkpt lat="45.14902" lon="4.6148">
        <ele>505.2</ele>
        <time>2026-05-02T06:27:19Z</time>
      </trkpt>
      <trkpt lat="45.14898" lon="4.61472">
        <ele>505.5</ele>
        <time>2026-05-02T06:27:24Z</time>
      </trkpt>
      <trkpt lat="45.14894" lon="4.61464">
        <ele>505.8</ele>
        <time>2026-05-02T06:27:29Z</time>
      </trkpt>
      <trkpt lat="45.14892" lon="4.61456">
        <ele>505.8</ele>
        <time>2026-05-02T06:27:34Z</time>
      </trkpt>
      <trkpt lat="45.14888" lon="4.61449">
        <ele>506.2</ele>
        <time>2026-05-02T06:27:39Z</time>
      </trkpt>
      <trkpt lat="45.14884" lon="4.6144">
        <ele>506.6</ele>
        <time>2026-05-02T06:27:44Z</time>
      </trkpt>
      <trkpt lat="45.14879" lon="4.61435">
        <ele>507.2</ele>
        <time>2026-05-02T06:27:49Z</time>
      </trkpt>
      <trkpt lat="45.14875" lon="4.61429">
        <ele>507.7</ele>
        <time>2026-05-02T06:27:54Z</time>
      </trkpt>
      <trkpt lat="45.14871" lon="4.61424">
        <ele>508.2</ele>
        <time>2026-05-02T06:27:59Z</time>
      </trkpt>
      <trkpt lat="45.14866" lon="4.61418">
        <ele>508.9</ele>
        <time>2026-05-02T06:28:04Z</time>
      </trkpt>
      <trkpt lat="45.14867" lon="4.61417">
        <ele>508.8</ele>
        <time>2026-05-02T06:28:09Z</time>
      </trkpt>
      <trkpt lat="45.14867" lon="4.61417">
        <ele>508.8</ele>
        <time>2026-05-02T06:28:14Z</time>
      </trkpt>
      <trkpt lat="45.14867" lon="4.61417">
        <ele>508.8</ele>
        <time>2026-05-02T06:28:19Z</time>
      </trkpt>
      <trkpt lat="45.14863" lon="4.61423">
        <ele>509.5</ele>
        <time>2026-05-02T06:28:24Z</time>
      </trkpt>
      <trkpt lat="45.14862" lon="4.61429">
        <ele>509.7</ele>
        <time>2026-05-02T06:28:29Z</time>
      </trkpt>
      <trkpt lat="45.14862" lon="4.61436">
        <ele>509.8</ele>
        <time>2026-05-02T06:28:34Z</time>
      </trkpt>
      <trkpt lat="45.14862" lon="4.61444">
        <ele>509.9</ele>
        <time>2026-05-02T06:28:39Z</time>
      </trkpt>
      <trkpt lat="45.14861" lon="4.61451">
        <ele>510.1</ele>
        <time>2026-05-02T06:28:44Z</time>
      </trkpt>
      <trkpt lat="45.1486" lon="4.61457">
        <ele>510.3</ele>
        <time>2026-05-02T06:28:49Z</time>
      </trkpt>
      <trkpt lat="45.14858" lon="4.61463">
        <ele>510.6</ele>
        <time>2026-05-02T06:28:54Z</time>
      </trkpt>
      <trkpt lat="45.14855" lon="4.61468">
        <ele>511.1</ele>
        <time>2026-05-02T06:28:59Z</time>
      </trkpt>
      <trkpt lat="45.1485" lon="4.61475">
        <ele>511.8</ele>
        <time>2026-05-02T06:29:04Z</time>
      </trkpt>
      <trkpt lat="45.14845" lon="4.61479">
        <ele>512.5</ele>
        <time>2026-05-02T06:29:09Z</time>
      </trkpt>
      <trkpt lat="45.14842" lon="4.61482">
        <ele>512.9</ele>
        <time>2026-05-02T06:29:14Z</time>
      </trkpt>
      <trkpt lat="45.14838" lon="4.61484">
        <ele>513.4</ele>
        <time>2026-05-02T06:29:19Z</time>
      </trkpt>
      <trkpt lat="45.14831" lon="4.61488">
        <ele>514.3</ele>
        <time>2026-05-02T06:29:24Z</time>
      </trkpt>
      <trkpt lat="45.14827" lon="4.61487">
        <ele>514.9</ele>
        <time>2026-05-02T06:29:29Z</time>
      </trkpt>
      <trkpt lat="45.14823" lon="4.61481">
        <ele>515.5</ele>
        <time>2026-05-02T06:29:34Z</time>
      </trkpt>
      <trkpt lat="45.1482" lon="4.61476">
        <ele>515.8</ele>
        <time>2026-05-02T06:29:39Z</time>
      </trkpt>
      <trkpt lat="45.14816" lon="4.61472">
        <ele>516.4</ele>
        <time>2026-05-02T06:29:44Z</time>
      </trkpt>
      <trkpt lat="45.14813" lon="4.61468">
        <ele>516.7</ele>
        <time>2026-05-02T06:29:49Z</time>
      </trkpt>
      <trkpt lat="45.14808" lon="4.61467">
        <ele>517.4</ele>
        <time>2026-05-02T06:29:54Z</time>
      </trkpt>
      <trkpt lat="45.14802" lon="4.61468">
        <ele>518.2</ele>
        <time>2026-05-02T06:29:59Z</time>
      </trkpt>
      <trkpt lat="45.14797" lon="4.6147">
        <ele>518.9</ele>
        <time>2026-05-02T06:30:04Z</time>
      </trkpt>
      <trkpt lat="45.14792" lon="4.61472">
        <ele>519.6</ele>
        <time>2026-05-02T06:30:09Z</time>
      </trkpt>
      <trkpt lat="45.14788" lon="4.61473">
        <ele>520.2</ele>
        <time>2026-05-02T06:30:14Z</time>
      </trkpt>
      <trkpt lat="45.14783" lon="4.61474">
        <ele>520.9</ele>
        <time>2026-05-02T06:30:19Z</time>
      </trkpt>
      <trkpt lat="45.14777" lon="4.61477">
        <ele>521.9</ele>
        <time>2026-05-02T06:30:24Z</time>
      </trkpt>
      <trkpt lat="45.14773" lon="4.61478">
        <ele>522.5</ele>
        <time>2026-05-02T06:30:29Z</time>
      </trkpt>
      <trkpt lat="45.14772" lon="4.6148">
        <ele>522.7</ele>
        <time>2026-05-02T06:30:34Z</time>
      </trkpt>
      <trkpt lat="45.14769" lon="4.61481">
        <ele>523.2</ele>
        <time>2026-05-02T06:30:39Z</time>
      </trkpt>
      <trkpt lat="45.14765" lon="4.61481">
        <ele>523.7</ele>
        <time>2026-05-02T06:30:44Z</time>
      </trkpt>
      <trkpt lat="45.1476" lon="4.61482">
        <ele>524.5</ele>
        <time>2026-05-02T06:30:49Z</time>
      </trkpt>
      <trkpt lat="45.14755" lon="4.61482">
        <ele>525.2</ele>
        <time>2026-05-02T06:30:54Z</time>
      </trkpt>
      <trkpt lat="45.1475" lon="4.61484">
        <ele>526</ele>
        <time>2026-05-02T06:30:59Z</time>
      </trkpt>
      <trkpt lat="45.14745" lon="4.61486">
        <ele>527.2</ele>
        <time>2026-05-02T06:31:04Z</time>
      </trkpt>
      <trkpt lat="45.14741" lon="4.61489">
        <ele>528.2</ele>
        <time>2026-05-02T06:31:09Z</time>
      </trkpt>
      <trkpt lat="45.14736" lon="4.61491">
        <ele>529.3</ele>
        <time>2026-05-02T06:31:14Z</time>
      </trkpt>
      <trkpt lat="45.14732" lon="4.61494">
        <ele>530.3</ele>
        <time>2026-05-02T06:31:19Z</time>
      </trkpt>
      <trkpt lat="45.14728" lon="4.61496">
        <ele>531.2</ele>
        <time>2026-05-02T06:31:24Z</time>
      </trkpt>
      <trkpt lat="45.14723" lon="4.61499">
        <ele>532.4</ele>
        <time>2026-05-02T06:31:29Z</time>
      </trkpt>
      <trkpt lat="45.14718" lon="4.61502">
        <ele>533.8</ele>
        <time>2026-05-02T06:31:34Z</time>
      </trkpt>
      <trkpt lat="45.14715" lon="4.61506">
        <ele>535</ele>
        <time>2026-05-02T06:31:39Z</time>
      </trkpt>
      <trkpt lat="45.14711" lon="4.6151">
        <ele>536.3</ele>
        <time>2026-05-02T06:31:44Z</time>
      </trkpt>
      <trkpt lat="45.14707" lon="4.61512">
        <ele>537.4</ele>
        <time>2026-05-02T06:31:49Z</time>
      </trkpt>
      <trkpt lat="45.14702" lon="4.61515">
        <ele>538.9</ele>
        <time>2026-05-02T06:31:54Z</time>
      </trkpt>
      <trkpt lat="45.14698" lon="4.61518">
        <ele>540.1</ele>
        <time>2026-05-02T06:31:59Z</time>
      </trkpt>
      <trkpt lat="45.14693" lon="4.61522">
        <ele>541.7</ele>
        <time>2026-05-02T06:32:04Z</time>
      </trkpt>
      <trkpt lat="45.14689" lon="4.61525">
        <ele>543</ele>
        <time>2026-05-02T06:32:09Z</time>
      </trkpt>
      <trkpt lat="45.14684" lon="4.61528">
        <ele>544.4</ele>
        <time>2026-05-02T06:32:14Z</time>
      </trkpt>
      <trkpt lat="45.14679" lon="4.61531">
        <ele>545.9</ele>
        <time>2026-05-02T06:32:19Z</time>
      </trkpt>
      <trkpt lat="45.14674" lon="4.61534">
        <ele>547.4</ele>
        <time>2026-05-02T06:32:24Z</time>
      </trkpt>
      <trkpt lat="45.1467" lon="4.61536">
        <ele>548.5</ele>
        <time>2026-05-02T06:32:29Z</time>
      </trkpt>
      <trkpt lat="45.14668" lon="4.61539">
        <ele>549.3</ele>
        <time>2026-05-02T06:32:34Z</time>
      </trkpt>
      <trkpt lat="45.14665" lon="4.6154">
        <ele>550.2</ele>
        <time>2026-05-02T06:32:39Z</time>
      </trkpt>
      <trkpt lat="45.1466" lon="4.61543">
        <ele>551.8</ele>
        <time>2026-05-02T06:32:44Z</time>
      </trkpt>
      <trkpt lat="45.14655" lon="4.61545">
        <ele>553.3</ele>
        <time>2026-05-02T06:32:49Z</time>
      </trkpt>
      <trkpt lat="45.14651" lon="4.61545">
        <ele>554.3</ele>
        <time>2026-05-02T06:32:54Z</time>
      </trkpt>
      <trkpt lat="45.14647" lon="4.61546">
        <ele>555.4</ele>
        <time>2026-05-02T06:32:59Z</time>
      </trkpt>
      <trkpt lat="45.14642" lon="4.61547">
        <ele>556.7</ele>
        <time>2026-05-02T06:33:04Z</time>
      </trkpt>
      <trkpt lat="45.14638" lon="4.61548">
        <ele>557.7</ele>
        <time>2026-05-02T06:33:09Z</time>
      </trkpt>
      <trkpt lat="45.14633" lon="4.61548">
        <ele>558.9</ele>
        <time>2026-05-02T06:33:14Z</time>
      </trkpt>
      <trkpt lat="45.14629" lon="4.61547">
        <ele>559.8</ele>
        <time>2026-05-02T06:33:19Z</time>
      </trkpt>
      <trkpt lat="45.14624" lon="4.61546">
        <ele>560.9</ele>
        <time>2026-05-02T06:33:24Z</time>
      </trkpt>
      <trkpt lat="45.14619" lon="4.61545">
        <ele>562</ele>
        <time>2026-05-02T06:33:29Z</time>
      </trkpt>
      <trkpt lat="45.14614" lon="4.61544">
        <ele>563.1</ele>
        <time>2026-05-02T06:33:34Z</time>
      </trkpt>
      <trkpt lat="45.1461" lon="4.61541">
        <ele>563.9</ele>
        <time>2026-05-02T06:33:39Z</time>
      </trkpt>
      <trkpt lat="45.14605" lon="4.6154">
        <ele>565.1</ele>
        <time>2026-05-02T06:33:44Z</time>
      </trkpt>
      <trkpt lat="45.14601" lon="4.61538">
        <ele>565.9</ele>
        <time>2026-05-02T06:33:49Z</time>
      </trkpt>
      <trkpt lat="45.14595" lon="4.61538">
        <ele>567.4</ele>
        <time>2026-05-02T06:33:54Z</time>
      </trkpt>
      <trkpt lat="45.1459" lon="4.61538">
        <ele>568.7</ele>
        <time>2026-05-02T06:33:59Z</time>
      </trkpt>
      <trkpt lat="45.14585" lon="4.61538">
        <ele>570</ele>
        <time>2026-05-02T06:34:04Z</time>
      </trkpt>
      <trkpt lat="45.1458" lon="4.61539">
        <ele>571.7</ele>
        <time>2026-05-02T06:34:09Z</time>
      </trkpt>
      <trkpt lat="45.14574" lon="4.61538">
        <ele>574.1</ele>
        <time>2026-05-02T06:34:14Z</time>
      </trkpt>
      <trkpt lat="45.14568" lon="4.61537">
        <ele>576.5</ele>
        <time>2026-05-02T06:34:19Z</time>
      </trkpt>
      <trkpt lat="45.14563" lon="4.61537">
        <ele>578.5</ele>
        <time>2026-05-02T06:34:24Z</time>
      </trkpt>
      <trkpt lat="45.14558" lon="4.61538">
        <ele>580.5</ele>
        <time>2026-05-02T06:34:29Z</time>
      </trkpt>
      <trkpt lat="45.14553" lon="4.61539">
        <ele>582.5</ele>
        <time>2026-05-02T06:34:34Z</time>
      </trkpt>
      <trkpt lat="45.1455" lon="4.61543">
        <ele>583.7</ele>
        <time>2026-05-02T06:34:39Z</time>
      </trkpt>
      <trkpt lat="45.14549" lon="4.61551">
        <ele>584.2</ele>
        <time>2026-05-02T06:34:44Z</time>
      </trkpt>
      <trkpt lat="45.14551" lon="4.61558">
        <ele>583.4</ele>
        <time>2026-05-02T06:34:49Z</time>
      </trkpt>
      <trkpt lat="45.14553" lon="4.61561">
        <ele>582.7</ele>
        <time>2026-05-02T06:34:54Z</time>
      </trkpt>
      <trkpt lat="45.14556" lon="4.61564">
        <ele>581.6</ele>
        <time>2026-05-02T06:34:59Z</time>
      </trkpt>
      <trkpt lat="45.14559" lon="4.61569">
        <ele>580.5</ele>
        <time>2026-05-02T06:35:04Z</time>
      </trkpt>
      <trkpt lat="45.14562" lon="4.61574">
        <ele>579.5</ele>
        <time>2026-05-02T06:35:09Z</time>
      </trkpt>
      <trkpt lat="45.14564" lon="4.61579">
        <ele>578.9</ele>
        <time>2026-05-02T06:35:14Z</time>
      </trkpt>
      <trkpt lat="45.14565" lon="4.6158">
        <ele>578.5</ele>
        <time>2026-05-02T06:35:19Z</time>
      </trkpt>
      <trkpt lat="45.14568" lon="4.61584">
        <ele>577.6</ele>
        <time>2026-05-02T06:35:24Z</time>
      </trkpt>
      <trkpt lat="45.14569" lon="4.6159">
        <ele>578.2</ele>
        <time>2026-05-02T06:35:29Z</time>
      </trkpt>
      <trkpt lat="45.14571" lon="4.61595">
        <ele>578.3</ele>
        <time>2026-05-02T06:35:34Z</time>
      </trkpt>
      <trkpt lat="45.14574" lon="4.61601">
        <ele>578.3</ele>
        <time>2026-05-02T06:35:39Z</time>
      </trkpt>
      <trkpt lat="45.14576" lon="4.61607">
        <ele>578.6</ele>
        <time>2026-05-02T06:35:44Z</time>
      </trkpt>
      <trkpt lat="45.14578" lon="4.61613">
        <ele>579</ele>
        <time>2026-05-02T06:35:49Z</time>
      </trkpt>
      <trkpt lat="45.1458" lon="4.61619">
        <ele>579.4</ele>
        <time>2026-05-02T06:35:54Z</time>
      </trkpt>
      <trkpt lat="45.14581" lon="4.61624">
        <ele>580</ele>
        <time>2026-05-02T06:35:59Z</time>
      </trkpt>
      <trkpt lat="45.14583" lon="4.61629">
        <ele>580.3</ele>
        <time>2026-05-02T06:36:04Z</time>
      </trkpt>
      <trkpt lat="45.14584" lon="4.61635">
        <ele>581.2</ele>
        <time>2026-05-02T06:36:09Z</time>
      </trkpt>
      <trkpt lat="45.14583" lon="4.61641">
        <ele>582.5</ele>
        <time>2026-05-02T06:36:14Z</time>
      </trkpt>
      <trkpt lat="45.1458" lon="4.61645">
        <ele>584</ele>
        <time>2026-05-02T06:36:19Z</time>
      </trkpt>
      <trkpt lat="45.14575" lon="4.61643">
        <ele>585</ele>
        <time>2026-05-02T06:36:24Z</time>
      </trkpt>
      <trkpt lat="45.14571" lon="4.61641">
        <ele>585.7</ele>
        <time>2026-05-02T06:36:29Z</time>
      </trkpt>
      <trkpt lat="45.14567" lon="4.6164">
        <ele>586.6</ele>
        <time>2026-05-02T06:36:34Z</time>
      </trkpt>
      <trkpt lat="45.14564" lon="4.61638">
        <ele>587.1</ele>
        <time>2026-05-02T06:36:39Z</time>
      </trkpt>
      <trkpt lat="45.1456" lon="4.61637">
        <ele>588.1</ele>
        <time>2026-05-02T06:36:44Z</time>
      </trkpt>
      <trkpt lat="45.14557" lon="4.61635">
        <ele>588.6</ele>
        <time>2026-05-02T06:36:49Z</time>
      </trkpt>
      <trkpt lat="45.14552" lon="4.61633">
        <ele>589.8</ele>
        <time>2026-05-02T06:36:54Z</time>
      </trkpt>
      <trkpt lat="45.14547" lon="4.61632">
        <ele>591</ele>
        <time>2026-05-02T06:36:59Z</time>
      </trkpt>
      <trkpt lat="45.14544" lon="4.6163">
        <ele>591.7</ele>
        <time>2026-05-02T06:37:04Z</time>
      </trkpt>
      <trkpt lat="45.14543" lon="4.61625">
        <ele>591.4</ele>
        <time>2026-05-02T06:37:09Z</time>
      </trkpt>
      <trkpt lat="45.14543" lon="4.61625">
        <ele>591.4</ele>
        <time>2026-05-02T06:37:14Z</time>
      </trkpt>
      <trkpt lat="45.14543" lon="4.61625">
        <ele>591.4</ele>
        <time>2026-05-02T06:37:19Z</time>
      </trkpt>
      <trkpt lat="45.14543" lon="4.61625">
        <ele>591.4</ele>
        <time>2026-05-02T06:37:24Z</time>
      </trkpt>
      <trkpt lat="45.14543" lon="4.61625">
        <ele>591.4</ele>
        <time>2026-05-02T06:37:29Z</time>
      </trkpt>
      <trkpt lat="45.14543" lon="4.61625">
        <ele>591.4</ele>
        <time>2026-05-02T06:37:34Z</time>
      </trkpt>
      <trkpt lat="45.14543" lon="4.61625">
        <ele>591.4</ele>
        <time>2026-05-02T06:37:39Z</time>
      </trkpt>
      <trkpt lat="45.14543" lon="4.61625">
        <ele>591.4</ele>
        <time>2026-05-02T06:37:44Z</time>
      </trkpt>
      <trkpt lat="45.14543" lon="4.61625">
        <ele>591.4</ele>
        <time>2026-05-02T06:37:49Z</time>
      </trkpt>
      <trkpt lat="45.14543" lon="4.61625">
        <ele>591.4</ele>
        <time>2026-05-02T06:37:54Z</time>
      </trkpt>
      <trkpt lat="45.14543" lon="4.61625">
        <ele>591.4</ele>
        <time>2026-05-02T06:37:59Z</time>
      </trkpt>
      <trkpt lat="45.14537" lon="4.61631">
        <ele>593.8</ele>
        <time>2026-05-02T06:38:04Z</time>
      </trkpt>
      <trkpt lat="45.14531" lon="4.61636">
        <ele>596</ele>
        <time>2026-05-02T06:38:09Z</time>
      </trkpt>
      <trkpt lat="45.14526" lon="4.61639">
        <ele>597.6</ele>
        <time>2026-05-02T06:38:14Z</time>
      </trkpt>
      <trkpt lat="45.14521" lon="4.61643">
        <ele>599.3</ele>
        <time>2026-05-02T06:38:19Z</time>
      </trkpt>
      <trkpt lat="45.14517" lon="4.61647">
        <ele>600.7</ele>
        <time>2026-05-02T06:38:24Z</time>
      </trkpt>
      <trkpt lat="45.14514" lon="4.61651">
        <ele>601.7</ele>
        <time>2026-05-02T06:38:29Z</time>
      </trkpt>
      <trkpt lat="45.14511" lon="4.61654">
        <ele>602.7</ele>
        <time>2026-05-02T06:38:34Z</time>
      </trkpt>
      <trkpt lat="45.14506" lon="4.61656">
        <ele>604</ele>
        <time>2026-05-02T06:38:39Z</time>
      </trkpt>
      <trkpt lat="45.14502" lon="4.61658">
        <ele>605.1</ele>
        <time>2026-05-02T06:38:44Z</time>
      </trkpt>
      <trkpt lat="45.14498" lon="4.6166">
        <ele>606.3</ele>
        <time>2026-05-02T06:38:49Z</time>
      </trkpt>
      <trkpt lat="45.14494" lon="4.61662">
        <ele>607.6</ele>
        <time>2026-05-02T06:38:54Z</time>
      </trkpt>
      <trkpt lat="45.1449" lon="4.61663">
        <ele>608.9</ele>
        <time>2026-05-02T06:38:59Z</time>
      </trkpt>
      <trkpt lat="45.14484" lon="4.61664">
        <ele>610.7</ele>
        <time>2026-05-02T06:39:04Z</time>
      </trkpt>
      <trkpt lat="45.1448" lon="4.61665">
        <ele>612</ele>
        <time>2026-05-02T06:39:09Z</time>
      </trkpt>
      <trkpt lat="45.14476" lon="4.61666">
        <ele>613.2</ele>
        <time>2026-05-02T06:39:14Z</time>
      </trkpt>
      <trkpt lat="45.1447" lon="4.61666">
        <ele>615</ele>
        <time>2026-05-02T06:39:19Z</time>
      </trkpt>
      <trkpt lat="45.14465" lon="4.61666">
        <ele>616.5</ele>
        <time>2026-05-02T06:39:24Z</time>
      </trkpt>
      <trkpt lat="45.14461" lon="4.61667">
        <ele>617.8</ele>
        <time>2026-05-02T06:39:29Z</time>
      </trkpt>
      <trkpt lat="45.14457" lon="4.61668">
        <ele>619.2</ele>
        <time>2026-05-02T06:39:34Z</time>
      </trkpt>
      <trkpt lat="45.14452" lon="4.61667">
        <ele>620.5</ele>
        <time>2026-05-02T06:39:39Z</time>
      </trkpt>
      <trkpt lat="45.14447" lon="4.61664">
        <ele>622</ele>
        <time>2026-05-02T06:39:44Z</time>
      </trkpt>
      <trkpt lat="45.14441" lon="4.61665">
        <ele>623.8</ele>
        <time>2026-05-02T06:39:49Z</time>
      </trkpt>
      <trkpt lat="45.14435" lon="4.61665">
        <ele>625.6</ele>
        <time>2026-05-02T06:39:54Z</time>
      </trkpt>
      <trkpt lat="45.14431" lon="4.61666">
        <ele>626.7</ele>
        <time>2026-05-02T06:39:59Z</time>
      </trkpt>
      <trkpt lat="45.14425" lon="4.61666">
        <ele>628.6</ele>
        <time>2026-05-02T06:40:04Z</time>
      </trkpt>
      <trkpt lat="45.14419" lon="4.61668">
        <ele>630.5</ele>
        <time>2026-05-02T06:40:09Z</time>
      </trkpt>
      <trkpt lat="45.14414" lon="4.6167">
        <ele>632.6</ele>
        <time>2026-05-02T06:40:14Z</time>
      </trkpt>
      <trkpt lat="45.14409" lon="4.61673">
        <ele>635.2</ele>
        <time>2026-05-02T06:40:19Z</time>
      </trkpt>
      <trkpt lat="45.14403" lon="4.61673">
        <ele>637.7</ele>
        <time>2026-05-02T06:40:24Z</time>
      </trkpt>
      <trkpt lat="45.144" lon="4.61676">
        <ele>639.3</ele>
        <time>2026-05-02T06:40:29Z</time>
      </trkpt>
      <trkpt lat="45.14396" lon="4.61677">
        <ele>641.1</ele>
        <time>2026-05-02T06:40:34Z</time>
      </trkpt>
      <trkpt lat="45.14392" lon="4.61679">
        <ele>643</ele>
        <time>2026-05-02T06:40:39Z</time>
      </trkpt>
      <trkpt lat="45.14387" lon="4.61681">
        <ele>645.3</ele>
        <time>2026-05-02T06:40:44Z</time>
      </trkpt>
      <trkpt lat="45.14382" lon="4.6168">
        <ele>647.2</ele>
        <time>2026-05-02T06:40:49Z</time>
      </trkpt>
      <trkpt lat="45.14379" lon="4.61677">
        <ele>648.2</ele>
        <time>2026-05-02T06:40:54Z</time>
      </trkpt>
      <trkpt lat="45.14377" lon="4.6167">
        <ele>648.4</ele>
        <time>2026-05-02T06:40:59Z</time>
      </trkpt>
      <trkpt lat="45.14377" lon="4.61661">
        <ele>648.5</ele>
        <time>2026-05-02T06:41:04Z</time>
      </trkpt>
      <trkpt lat="45.14377" lon="4.61651">
        <ele>649</ele>
        <time>2026-05-02T06:41:09Z</time>
      </trkpt>
      <trkpt lat="45.14378" lon="4.61644">
        <ele>649</ele>
        <time>2026-05-02T06:41:14Z</time>
      </trkpt>
      <trkpt lat="45.14381" lon="4.61639">
        <ele>648.1</ele>
        <time>2026-05-02T06:41:19Z</time>
      </trkpt>
      <trkpt lat="45.14383" lon="4.61633">
        <ele>647.6</ele>
        <time>2026-05-02T06:41:24Z</time>
      </trkpt>
      <trkpt lat="45.14385" lon="4.61627">
        <ele>647.2</ele>
        <time>2026-05-02T06:41:29Z</time>
      </trkpt>
      <trkpt lat="45.14385" lon="4.61622">
        <ele>647.5</ele>
        <time>2026-05-02T06:41:34Z</time>
      </trkpt>
      <trkpt lat="45.14383" lon="4.61619">
        <ele>648.5</ele>
        <time>2026-05-02T06:41:39Z</time>
      </trkpt>
      <trkpt lat="45.14383" lon="4.61619">
        <ele>648.5</ele>
        <time>2026-05-02T06:41:44Z</time>
      </trkpt>
      <trkpt lat="45.14383" lon="4.61619">
        <ele>648.5</ele>
        <time>2026-05-02T06:41:49Z</time>
      </trkpt>
      <trkpt lat="45.14381" lon="4.61612">
        <ele>649.7</ele>
        <time>2026-05-02T06:41:54Z</time>
      </trkpt>
      <trkpt lat="45.14382" lon="4.61607">
        <ele>649.6</ele>
        <time>2026-05-02T06:41:59Z</time>
      </trkpt>
      <trkpt lat="45.14382" lon="4.61602">
        <ele>649.9</ele>
        <time>2026-05-02T06:42:04Z</time>
      </trkpt>
      <trkpt lat="45.14382" lon="4.61596">
        <ele>650.3</ele>
        <time>2026-05-02T06:42:09Z</time>
      </trkpt>
      <trkpt lat="45.14383" lon="4.6159">
        <ele>650.3</ele>
        <time>2026-05-02T06:42:14Z</time>
      </trkpt>
      <trkpt lat="45.14385" lon="4.61584">
        <ele>650</ele>
        <time>2026-05-02T06:42:19Z</time>
      </trkpt>
      <trkpt lat="45.14386" lon="4.61579">
        <ele>649.4</ele>
        <time>2026-05-02T06:42:24Z</time>
      </trkpt>
      <trkpt lat="45.14387" lon="4.61574">
        <ele>648.8</ele>
        <time>2026-05-02T06:42:29Z</time>
      </trkpt>
      <trkpt lat="45.14389" lon="4.61569">
        <ele>647.8</ele>
        <time>2026-05-02T06:42:34Z</time>
      </trkpt>
      <trkpt lat="45.14389" lon="4.61562">
        <ele>647.4</ele>
        <time>2026-05-02T06:42:39Z</time>
      </trkpt>
      <trkpt lat="45.1439" lon="4.61557">
        <ele>646.9</ele>
        <time>2026-05-02T06:42:44Z</time>
      </trkpt>
      <trkpt lat="45.14391" lon="4.61552">
        <ele>646.3</ele>
        <time>2026-05-02T06:42:49Z</time>
      </trkpt>
      <trkpt lat="45.14391" lon="4.61547">
        <ele>646</ele>
        <time>2026-05-02T06:42:54Z</time>
      </trkpt>
      <trkpt lat="45.14389" lon="4.6154">
        <ele>646.2</ele>
        <time>2026-05-02T06:42:59Z</time>
      </trkpt>
      <trkpt lat="45.14387" lon="4.61533">
        <ele>646.4</ele>
        <time>2026-05-02T06:43:04Z</time>
      </trkpt>
      <trkpt lat="45.14384" lon="4.61532">
        <ele>647.1</ele>
        <time>2026-05-02T06:43:09Z</time>
      </trkpt>
      <trkpt lat="45.14379" lon="4.61539">
        <ele>648.9</ele>
        <time>2026-05-02T06:43:14Z</time>
      </trkpt>
      <trkpt lat="45.14377" lon="4.61543">
        <ele>649.8</ele>
        <time>2026-05-02T06:43:19Z</time>
      </trkpt>
      <trkpt lat="45.14377" lon="4.61549">
        <ele>650.2</ele>
        <time>2026-05-02T06:43:24Z</time>
      </trkpt>
      <trkpt lat="45.14376" lon="4.61556">
        <ele>651.1</ele>
        <time>2026-05-02T06:43:29Z</time>
      </trkpt>
      <trkpt lat="45.14373" lon="4.61561">
        <ele>652.4</ele>
        <time>2026-05-02T06:43:34Z</time>
      </trkpt>
      <trkpt lat="45.1437" lon="4.61565">
        <ele>653.7</ele>
        <time>2026-05-02T06:43:39Z</time>
      </trkpt>
      <trkpt lat="45.14366" lon="4.6157">
        <ele>655.4</ele>
        <time>2026-05-02T06:43:44Z</time>
      </trkpt>
      <trkpt lat="45.14361" lon="4.61575">
        <ele>657.5</ele>
        <time>2026-05-02T06:43:49Z</time>
      </trkpt>
      <trkpt lat="45.14358" lon="4.61579">
        <ele>659</ele>
        <time>2026-05-02T06:43:54Z</time>
      </trkpt>
      <trkpt lat="45.14354" lon="4.61583">
        <ele>660.8</ele>
        <time>2026-05-02T06:43:59Z</time>
      </trkpt>
      <trkpt lat="45.14351" lon="4.61588">
        <ele>661.7</ele>
        <time>2026-05-02T06:44:04Z</time>
      </trkpt>
      <trkpt lat="45.14348" lon="4.61591">
        <ele>662.7</ele>
        <time>2026-05-02T06:44:09Z</time>
      </trkpt>
      <trkpt lat="45.14343" lon="4.61598">
        <ele>664.3</ele>
        <time>2026-05-02T06:44:14Z</time>
      </trkpt>
      <trkpt lat="45.1434" lon="4.61604">
        <ele>665.3</ele>
        <time>2026-05-02T06:44:19Z</time>
      </trkpt>
      <trkpt lat="45.14336" lon="4.61609">
        <ele>666.7</ele>
        <time>2026-05-02T06:44:24Z</time>
      </trkpt>
      <trkpt lat="45.14334" lon="4.61614">
        <ele>667.4</ele>
        <time>2026-05-02T06:44:29Z</time>
      </trkpt>
      <trkpt lat="45.14329" lon="4.61618">
        <ele>668.6</ele>
        <time>2026-05-02T06:44:34Z</time>
      </trkpt>
      <trkpt lat="45.14326" lon="4.61624">
        <ele>669.3</ele>
        <time>2026-05-02T06:44:39Z</time>
      </trkpt>
      <trkpt lat="45.14323" lon="4.6163">
        <ele>670.1</ele>
        <time>2026-05-02T06:44:44Z</time>
      </trkpt>
      <trkpt lat="45.1432" lon="4.61636">
        <ele>671</ele>
        <time>2026-05-02T06:44:49Z</time>
      </trkpt>
      <trkpt lat="45.14318" lon="4.61642">
        <ele>671.7</ele>
        <time>2026-05-02T06:44:54Z</time>
      </trkpt>
      <trkpt lat="45.14317" lon="4.61647">
        <ele>672.1</ele>
        <time>2026-05-02T06:44:59Z</time>
      </trkpt>
      <trkpt lat="45.14315" lon="4.61653">
        <ele>672.8</ele>
        <time>2026-05-02T06:45:04Z</time>
      </trkpt>
      <trkpt lat="45.14311" lon="4.61657">
        <ele>674.2</ele>
        <time>2026-05-02T06:45:09Z</time>
      </trkpt>
      <trkpt lat="45.14307" lon="4.61657">
        <ele>675.5</ele>
        <time>2026-05-02T06:45:14Z</time>
      </trkpt>
      <trkpt lat="45.14304" lon="4.61651">
        <ele>676.1</ele>
        <time>2026-05-02T06:45:19Z</time>
      </trkpt>
      <trkpt lat="45.14303" lon="4.61641">
        <ele>675.9</ele>
        <time>2026-05-02T06:45:24Z</time>
      </trkpt>
      <trkpt lat="45.14306" lon="4.61632">
        <ele>674.7</ele>
        <time>2026-05-02T06:45:29Z</time>
      </trkpt>
      <trkpt lat="45.1431" lon="4.61625">
        <ele>673.4</ele>
        <time>2026-05-02T06:45:34Z</time>
      </trkpt>
      <trkpt lat="45.14314" lon="4.61618">
        <ele>672.2</ele>
        <time>2026-05-02T06:45:39Z</time>
      </trkpt>
      <trkpt lat="45.14318" lon="4.6161">
        <ele>671.1</ele>
        <time>2026-05-02T06:45:44Z</time>
      </trkpt>
      <trkpt lat="45.1432" lon="4.61602">
        <ele>670.5</ele>
        <time>2026-05-02T06:45:49Z</time>
      </trkpt>
      <trkpt lat="45.14322" lon="4.61596">
        <ele>670</ele>
        <time>2026-05-02T06:45:54Z</time>
      </trkpt>
      <trkpt lat="45.14326" lon="4.61588">
        <ele>669.2</ele>
        <time>2026-05-02T06:45:59Z</time>
      </trkpt>
      <trkpt lat="45.14329" lon="4.61581">
        <ele>668.4</ele>
        <time>2026-05-02T06:46:04Z</time>
      </trkpt>
      <trkpt lat="45.14331" lon="4.61573">
        <ele>666.9</ele>
        <time>2026-05-02T06:46:09Z</time>
      </trkpt>
      <trkpt lat="45.14333" lon="4.61564">
        <ele>665.3</ele>
        <time>2026-05-02T06:46:14Z</time>
      </trkpt>
      <trkpt lat="45.14334" lon="4.61556">
        <ele>663.9</ele>
        <time>2026-05-02T06:46:19Z</time>
      </trkpt>
      <trkpt lat="45.14336" lon="4.6155">
        <ele>662.4</ele>
        <time>2026-05-02T06:46:24Z</time>
      </trkpt>
      <trkpt lat="45.14337" lon="4.61541">
        <ele>660.9</ele>
        <time>2026-05-02T06:46:29Z</time>
      </trkpt>
      <trkpt lat="45.1434" lon="4.61534">
        <ele>659.1</ele>
        <time>2026-05-02T06:46:34Z</time>
      </trkpt>
      <trkpt lat="45.1434" lon="4.61526">
        <ele>658</ele>
        <time>2026-05-02T06:46:39Z</time>
      </trkpt>
      <trkpt lat="45.14338" lon="4.61514">
        <ele>656.9</ele>
        <time>2026-05-02T06:46:44Z</time>
      </trkpt>
      <trkpt lat="45.14334" lon="4.61505">
        <ele>656.6</ele>
        <time>2026-05-02T06:46:49Z</time>
      </trkpt>
      <trkpt lat="45.14332" lon="4.61497">
        <ele>655.7</ele>
        <time>2026-05-02T06:46:54Z</time>
      </trkpt>
      <trkpt lat="45.14328" lon="4.61491">
        <ele>655.2</ele>
        <time>2026-05-02T06:46:59Z</time>
      </trkpt>
      <trkpt lat="45.14324" lon="4.61488">
        <ele>655.4</ele>
        <time>2026-05-02T06:47:04Z</time>
      </trkpt>
      <trkpt lat="45.14318" lon="4.61483">
        <ele>655.6</ele>
        <time>2026-05-02T06:47:09Z</time>
      </trkpt>
      <trkpt lat="45.14313" lon="4.61478">
        <ele>655.7</ele>
        <time>2026-05-02T06:47:14Z</time>
      </trkpt>
      <trkpt lat="45.14307" lon="4.61474">
        <ele>656.2</ele>
        <time>2026-05-02T06:47:19Z</time>
      </trkpt>
      <trkpt lat="45.14301" lon="4.61469">
        <ele>656.6</ele>
        <time>2026-05-02T06:47:24Z</time>
      </trkpt>
      <trkpt lat="45.14295" lon="4.61465">
        <ele>657.3</ele>
        <time>2026-05-02T06:47:29Z</time>
      </trkpt>
      <trkpt lat="45.14291" lon="4.61461">
        <ele>657.5</ele>
        <time>2026-05-02T06:47:34Z</time>
      </trkpt>
      <trkpt lat="45.14284" lon="4.61455">
        <ele>658.2</ele>
        <time>2026-05-02T06:47:39Z</time>
      </trkpt>
      <trkpt lat="45.14279" lon="4.61454">
        <ele>659.2</ele>
        <time>2026-05-02T06:47:44Z</time>
      </trkpt>
      <trkpt lat="45.14272" lon="4.61452">
        <ele>660.5</ele>
        <time>2026-05-02T06:47:49Z</time>
      </trkpt>
      <trkpt lat="45.14266" lon="4.6145">
        <ele>661.6</ele>
        <time>2026-05-02T06:47:54Z</time>
      </trkpt>
      <trkpt lat="45.14258" lon="4.61449">
        <ele>663.3</ele>
        <time>2026-05-02T06:47:59Z</time>
      </trkpt>
      <trkpt lat="45.14251" lon="4.61449">
        <ele>664.9</ele>
        <time>2026-05-02T06:48:04Z</time>
      </trkpt>
      <trkpt lat="45.14244" lon="4.61449">
        <ele>666.8</ele>
        <time>2026-05-02T06:48:09Z</time>
      </trkpt>
      <trkpt lat="45.14238" lon="4.61449">
        <ele>668.4</ele>
        <time>2026-05-02T06:48:14Z</time>
      </trkpt>
      <trkpt lat="45.14232" lon="4.61449">
        <ele>670.1</ele>
        <time>2026-05-02T06:48:19Z</time>
      </trkpt>
      <trkpt lat="45.14226" lon="4.6145">
        <ele>671.9</ele>
        <time>2026-05-02T06:48:24Z</time>
      </trkpt>
      <trkpt lat="45.1422" lon="4.61451">
        <ele>673.7</ele>
        <time>2026-05-02T06:48:29Z</time>
      </trkpt>
      <trkpt lat="45.14215" lon="4.61449">
        <ele>674.8</ele>
        <time>2026-05-02T06:48:34Z</time>
      </trkpt>
      <trkpt lat="45.14209" lon="4.61446">
        <ele>676.2</ele>
        <time>2026-05-02T06:48:39Z</time>
      </trkpt>
      <trkpt lat="45.14205" lon="4.61442">
        <ele>676.8</ele>
        <time>2026-05-02T06:48:44Z</time>
      </trkpt>
      <trkpt lat="45.142" lon="4.61437">
        <ele>677.6</ele>
        <time>2026-05-02T06:48:49Z</time>
      </trkpt>
      <trkpt lat="45.14197" lon="4.61431">
        <ele>677.7</ele>
        <time>2026-05-02T06:48:54Z</time>
      </trkpt>
      <trkpt lat="45.14195" lon="4.61425">
        <ele>677.5</ele>
        <time>2026-05-02T06:48:59Z</time>
      </trkpt>
      <trkpt lat="45.14192" lon="4.61417">
        <ele>677.4</ele>
        <time>2026-05-02T06:49:04Z</time>
      </trkpt>
      <trkpt lat="45.1419" lon="4.6141">
        <ele>677</ele>
        <time>2026-05-02T06:49:09Z</time>
      </trkpt>
      <trkpt lat="45.14187" lon="4.61403">
        <ele>676.9</ele>
        <time>2026-05-02T06:49:14Z</time>
      </trkpt>
      <trkpt lat="45.14184" lon="4.61396">
        <ele>676.7</ele>
        <time>2026-05-02T06:49:19Z</time>
      </trkpt>
      <trkpt lat="45.14182" lon="4.6139">
        <ele>676.4</ele>
        <time>2026-05-02T06:49:24Z</time>
      </trkpt>
      <trkpt lat="45.14178" lon="4.61383">
        <ele>676.4</ele>
        <time>2026-05-02T06:49:29Z</time>
      </trkpt>
      <trkpt lat="45.14174" lon="4.61377">
        <ele>676.6</ele>
        <time>2026-05-02T06:49:34Z</time>
      </trkpt>
      <trkpt lat="45.1417" lon="4.6137">
        <ele>676.5</ele>
        <time>2026-05-02T06:49:39Z</time>
      </trkpt>
      <trkpt lat="45.14168" lon="4.61363">
        <ele>676</ele>
        <time>2026-05-02T06:49:44Z</time>
      </trkpt>
      <trkpt lat="45.14165" lon="4.61355">
        <ele>675.4</ele>
        <time>2026-05-02T06:49:49Z</time>
      </trkpt>
      <trkpt lat="45.14163" lon="4.6135">
        <ele>675.1</ele>
        <time>2026-05-02T06:49:54Z</time>
      </trkpt>
      <trkpt lat="45.14159" lon="4.61343">
        <ele>674.8</ele>
        <time>2026-05-02T06:49:59Z</time>
      </trkpt>
      <trkpt lat="45.14156" lon="4.61334">
        <ele>674</ele>
        <time>2026-05-02T06:50:04Z</time>
      </trkpt>
      <trkpt lat="45.14153" lon="4.61327">
        <ele>673.8</ele>
        <time>2026-05-02T06:50:09Z</time>
      </trkpt>
      <trkpt lat="45.14149" lon="4.6132">
        <ele>673.7</ele>
        <time>2026-05-02T06:50:14Z</time>
      </trkpt>
      <trkpt lat="45.14145" lon="4.61311">
        <ele>673.4</ele>
        <time>2026-05-02T06:50:19Z</time>
      </trkpt>
      <trkpt lat="45.14142" lon="4.61305">
        <ele>673.3</ele>
        <time>2026-05-02T06:50:24Z</time>
      </trkpt>
      <trkpt lat="45.14137" lon="4.61298">
        <ele>673.4</ele>
        <time>2026-05-02T06:50:29Z</time>
      </trkpt>
      <trkpt lat="45.14131" lon="4.61291">
        <ele>673.6</ele>
        <time>2026-05-02T06:50:34Z</time>
      </trkpt>
      <trkpt lat="45.14126" lon="4.61282">
        <ele>673.5</ele>
        <time>2026-05-02T06:50:39Z</time>
      </trkpt>
      <trkpt lat="45.14121" lon="4.61273">
        <ele>673.3</ele>
        <time>2026-05-02T06:50:44Z</time>
      </trkpt>
      <trkpt lat="45.14116" lon="4.61266">
        <ele>673.4</ele>
        <time>2026-05-02T06:50:49Z</time>
      </trkpt>
      <trkpt lat="45.14111" lon="4.6126">
        <ele>673.5</ele>
        <time>2026-05-02T06:50:54Z</time>
      </trkpt>
      <trkpt lat="45.14105" lon="4.61254">
        <ele>673.8</ele>
        <time>2026-05-02T06:50:59Z</time>
      </trkpt>
      <trkpt lat="45.141" lon="4.61248">
        <ele>674</ele>
        <time>2026-05-02T06:51:04Z</time>
      </trkpt>
      <trkpt lat="45.14098" lon="4.61245">
        <ele>674.1</ele>
        <time>2026-05-02T06:51:09Z</time>
      </trkpt>
      <trkpt lat="45.14094" lon="4.61243">
        <ele>674.6</ele>
        <time>2026-05-02T06:51:14Z</time>
      </trkpt>
      <trkpt lat="45.14091" lon="4.61244">
        <ele>675.2</ele>
        <time>2026-05-02T06:51:19Z</time>
      </trkpt>
      <trkpt lat="45.14086" lon="4.61243">
        <ele>676</ele>
        <time>2026-05-02T06:51:24Z</time>
      </trkpt>
      <trkpt lat="45.1408" lon="4.61243">
        <ele>676.7</ele>
        <time>2026-05-02T06:51:29Z</time>
      </trkpt>
      <trkpt lat="45.14075" lon="4.61245">
        <ele>677.3</ele>
        <time>2026-05-02T06:51:34Z</time>
      </trkpt>
      <trkpt lat="45.14069" lon="4.61247">
        <ele>677.9</ele>
        <time>2026-05-02T06:51:39Z</time>
      </trkpt>
      <trkpt lat="45.14064" lon="4.61248">
        <ele>678.4</ele>
        <time>2026-05-02T06:51:44Z</time>
      </trkpt>
      <trkpt lat="45.14058" lon="4.61249">
        <ele>679</ele>
        <time>2026-05-02T06:51:49Z</time>
      </trkpt>
      <trkpt lat="45.14053" lon="4.61248">
        <ele>679.4</ele>
        <time>2026-05-02T06:51:54Z</time>
      </trkpt>
      <trkpt lat="45.14047" lon="4.61248">
        <ele>679.9</ele>
        <time>2026-05-02T06:51:59Z</time>
      </trkpt>
      <trkpt lat="45.14042" lon="4.61244">
        <ele>679.9</ele>
        <time>2026-05-02T06:52:04Z</time>
      </trkpt>
      <trkpt lat="45.14037" lon="4.61239">
        <ele>679.8</ele>
        <time>2026-05-02T06:52:09Z</time>
      </trkpt>
      <trkpt lat="45.14032" lon="4.61235">
        <ele>679.8</ele>
        <time>2026-05-02T06:52:14Z</time>
      </trkpt>
      <trkpt lat="45.14027" lon="4.61229">
        <ele>679.6</ele>
        <time>2026-05-02T06:52:19Z</time>
      </trkpt>
      <trkpt lat="45.14022" lon="4.61221">
        <ele>679.2</ele>
        <time>2026-05-02T06:52:24Z</time>
      </trkpt>
      <trkpt lat="45.14018" lon="4.61214">
        <ele>678.8</ele>
        <time>2026-05-02T06:52:29Z</time>
      </trkpt>
      <trkpt lat="45.14015" lon="4.61206">
        <ele>678.2</ele>
        <time>2026-05-02T06:52:34Z</time>
      </trkpt>
      <trkpt lat="45.14011" lon="4.612">
        <ele>677.8</ele>
        <time>2026-05-02T06:52:39Z</time>
      </trkpt>
      <trkpt lat="45.1401" lon="4.61196">
        <ele>677.5</ele>
        <time>2026-05-02T06:52:44Z</time>
      </trkpt>
      <trkpt lat="45.1401" lon="4.61196">
        <ele>677.5</ele>
        <time>2026-05-02T06:52:49Z</time>
      </trkpt>
      <trkpt lat="45.1401" lon="4.61196">
        <ele>677.5</ele>
        <time>2026-05-02T06:52:54Z</time>
      </trkpt>
      <trkpt lat="45.1401" lon="4.61196">
        <ele>677.5</ele>
        <time>2026-05-02T06:52:59Z</time>
      </trkpt>
      <trkpt lat="45.14005" lon="4.61191">
        <ele>677.3</ele>
        <time>2026-05-02T06:53:04Z</time>
      </trkpt>
      <trkpt lat="45.14" lon="4.61184">
        <ele>676.9</ele>
        <time>2026-05-02T06:53:09Z</time>
      </trkpt>
      <trkpt lat="45.13996" lon="4.61177">
        <ele>675.8</ele>
        <time>2026-05-02T06:53:14Z</time>
      </trkpt>
      <trkpt lat="45.13991" lon="4.61171">
        <ele>674.7</ele>
        <time>2026-05-02T06:53:19Z</time>
      </trkpt>
      <trkpt lat="45.13986" lon="4.61166">
        <ele>673.7</ele>
        <time>2026-05-02T06:53:24Z</time>
      </trkpt>
      <trkpt lat="45.13981" lon="4.61163">
        <ele>672.7</ele>
        <time>2026-05-02T06:53:29Z</time>
      </trkpt>
      <trkpt lat="45.13974" lon="4.61161">
        <ele>671.7</ele>
        <time>2026-05-02T06:53:34Z</time>
      </trkpt>
      <trkpt lat="45.13967" lon="4.61162">
        <ele>671.3</ele>
        <time>2026-05-02T06:53:39Z</time>
      </trkpt>
      <trkpt lat="45.13961" lon="4.61164">
        <ele>671.2</ele>
        <time>2026-05-02T06:53:44Z</time>
      </trkpt>
      <trkpt lat="45.13954" lon="4.61167">
        <ele>671.2</ele>
        <time>2026-05-02T06:53:49Z</time>
      </trkpt>
      <trkpt lat="45.13948" lon="4.61169">
        <ele>670.9</ele>
        <time>2026-05-02T06:53:54Z</time>
      </trkpt>
      <trkpt lat="45.13943" lon="4.61173">
        <ele>671.1</ele>
        <time>2026-05-02T06:53:59Z</time>
      </trkpt>
      <trkpt lat="45.13942" lon="4.61173">
        <ele>671</ele>
        <time>2026-05-02T06:54:04Z</time>
      </trkpt>
      <trkpt lat="45.13942" lon="4.61173">
        <ele>671</ele>
        <time>2026-05-02T06:54:09Z</time>
      </trkpt>
      <trkpt lat="45.13942" lon="4.61173">
        <ele>671</ele>
        <time>2026-05-02T06:54:14Z</time>
      </trkpt>
      <trkpt lat="45.13942" lon="4.61173">
        <ele>671</ele>
        <time>2026-05-02T06:54:19Z</time>
      </trkpt>
      <trkpt lat="45.13942" lon="4.61173">
        <ele>671</ele>
        <time>2026-05-02T06:54:24Z</time>
      </trkpt>
      <trkpt lat="45.13938" lon="4.61175">
        <ele>670.9</ele>
        <time>2026-05-02T06:54:29Z</time>
      </trkpt>
      <trkpt lat="45.13933" lon="4.61178">
        <ele>670.9</ele>
        <time>2026-05-02T06:54:34Z</time>
      </trkpt>
      <trkpt lat="45.13929" lon="4.61182">
        <ele>671.2</ele>
        <time>2026-05-02T06:54:39Z</time>
      </trkpt>
      <trkpt lat="45.13923" lon="4.61183">
        <ele>670.8</ele>
        <time>2026-05-02T06:54:44Z</time>
      </trkpt>
      <trkpt lat="45.13916" lon="4.61185">
        <ele>670.6</ele>
        <time>2026-05-02T06:54:49Z</time>
      </trkpt>
      <trkpt lat="45.1391" lon="4.61186">
        <ele>670.3</ele>
        <time>2026-05-02T06:54:54Z</time>
      </trkpt>
      <trkpt lat="45.13903" lon="4.61187">
        <ele>669.9</ele>
        <time>2026-05-02T06:54:59Z</time>
      </trkpt>
      <trkpt lat="45.13897" lon="4.61189">
        <ele>669.7</ele>
        <time>2026-05-02T06:55:04Z</time>
      </trkpt>
      <trkpt lat="45.13891" lon="4.61191">
        <ele>669.5</ele>
        <time>2026-05-02T06:55:09Z</time>
      </trkpt>
      <trkpt lat="45.13884" lon="4.61192">
        <ele>669.1</ele>
        <time>2026-05-02T06:55:14Z</time>
      </trkpt>
      <trkpt lat="45.13876" lon="4.61192">
        <ele>668.5</ele>
        <time>2026-05-02T06:55:19Z</time>
      </trkpt>
      <trkpt lat="45.13869" lon="4.61195">
        <ele>668.5</ele>
        <time>2026-05-02T06:55:24Z</time>
      </trkpt>
      <trkpt lat="45.13862" lon="4.61199">
        <ele>668.6</ele>
        <time>2026-05-02T06:55:29Z</time>
      </trkpt>
      <trkpt lat="45.13856" lon="4.61204">
        <ele>668.9</ele>
        <time>2026-05-02T06:55:34Z</time>
      </trkpt>
      <trkpt lat="45.13852" lon="4.61211">
        <ele>669.8</ele>
        <time>2026-05-02T06:55:39Z</time>
      </trkpt>
      <trkpt lat="45.13847" lon="4.61218">
        <ele>670.6</ele>
        <time>2026-05-02T06:55:44Z</time>
      </trkpt>
      <trkpt lat="45.13841" lon="4.61226">
        <ele>671.5</ele>
        <time>2026-05-02T06:55:49Z</time>
      </trkpt>
      <trkpt lat="45.13836" lon="4.61232">
        <ele>672.1</ele>
        <time>2026-05-02T06:55:54Z</time>
      </trkpt>
      <trkpt lat="45.13832" lon="4.61237">
        <ele>672.8</ele>
        <time>2026-05-02T06:55:59Z</time>
      </trkpt>
      <trkpt lat="45.13827" lon="4.61245">
        <ele>674.1</ele>
        <time>2026-05-02T06:56:04Z</time>
      </trkpt>
      <trkpt lat="45.13822" lon="4.61251">
        <ele>675.1</ele>
        <time>2026-05-02T06:56:09Z</time>
      </trkpt>
      <trkpt lat="45.13816" lon="4.61258">
        <ele>676.3</ele>
        <time>2026-05-02T06:56:14Z</time>
      </trkpt>
      <trkpt lat="45.13813" lon="4.61265">
        <ele>677.6</ele>
        <time>2026-05-02T06:56:19Z</time>
      </trkpt>
      <trkpt lat="45.1381" lon="4.61271">
        <ele>678.7</ele>
        <time>2026-05-02T06:56:24Z</time>
      </trkpt>
      <trkpt lat="45.13806" lon="4.61275">
        <ele>679.3</ele>
        <time>2026-05-02T06:56:29Z</time>
      </trkpt>
      <trkpt lat="45.13803" lon="4.61281">
        <ele>680.3</ele>
        <time>2026-05-02T06:56:34Z</time>
      </trkpt>
      <trkpt lat="45.13799" lon="4.61285">
        <ele>680.9</ele>
        <time>2026-05-02T06:56:39Z</time>
      </trkpt>
      <trkpt lat="45.13793" lon="4.61289">
        <ele>681.3</ele>
        <time>2026-05-02T06:56:44Z</time>
      </trkpt>
      <trkpt lat="45.13788" lon="4.61291">
        <ele>681.5</ele>
        <time>2026-05-02T06:56:49Z</time>
      </trkpt>
      <trkpt lat="45.13783" lon="4.61293">
        <ele>681.6</ele>
        <time>2026-05-02T06:56:54Z</time>
      </trkpt>
      <trkpt lat="45.13778" lon="4.61295">
        <ele>681.7</ele>
        <time>2026-05-02T06:56:59Z</time>
      </trkpt>
      <trkpt lat="45.13773" lon="4.61299">
        <ele>682.1</ele>
        <time>2026-05-02T06:57:04Z</time>
      </trkpt>
      <trkpt lat="45.13768" lon="4.61303">
        <ele>682.5</ele>
        <time>2026-05-02T06:57:09Z</time>
      </trkpt>
      <trkpt lat="45.13762" lon="4.61305">
        <ele>682.5</ele>
        <time>2026-05-02T06:57:14Z</time>
      </trkpt>
      <trkpt lat="45.13756" lon="4.61309">
        <ele>682.8</ele>
        <time>2026-05-02T06:57:19Z</time>
      </trkpt>
      <trkpt lat="45.13751" lon="4.61313">
        <ele>683.1</ele>
        <time>2026-05-02T06:57:24Z</time>
      </trkpt>
      <trkpt lat="45.13744" lon="4.61317">
        <ele>684</ele>
        <time>2026-05-02T06:57:29Z</time>
      </trkpt>
      <trkpt lat="45.13739" lon="4.61321">
        <ele>684.8</ele>
        <time>2026-05-02T06:57:34Z</time>
      </trkpt>
      <trkpt lat="45.13732" lon="4.61323">
        <ele>685.5</ele>
        <time>2026-05-02T06:57:39Z</time>
      </trkpt>
      <trkpt lat="45.13726" lon="4.61327">
        <ele>686.3</ele>
        <time>2026-05-02T06:57:44Z</time>
      </trkpt>
      <trkpt lat="45.13718" lon="4.61328">
        <ele>686.9</ele>
        <time>2026-05-02T06:57:49Z</time>
      </trkpt>
      <trkpt lat="45.13711" lon="4.6133">
        <ele>687.5</ele>
        <time>2026-05-02T06:57:54Z</time>
      </trkpt>
      <trkpt lat="45.13704" lon="4.61331">
        <ele>687.9</ele>
        <time>2026-05-02T06:57:59Z</time>
      </trkpt>
      <trkpt lat="45.13697" lon="4.61333">
        <ele>688.5</ele>
        <time>2026-05-02T06:58:04Z</time>
      </trkpt>
      <trkpt lat="45.13691" lon="4.61336">
        <ele>689.5</ele>
        <time>2026-05-02T06:58:09Z</time>
      </trkpt>
      <trkpt lat="45.13684" lon="4.61339">
        <ele>690.7</ele>
        <time>2026-05-02T06:58:14Z</time>
      </trkpt>
      <trkpt lat="45.13677" lon="4.61343">
        <ele>692.2</ele>
        <time>2026-05-02T06:58:19Z</time>
      </trkpt>
      <trkpt lat="45.13671" lon="4.61347">
        <ele>693.7</ele>
        <time>2026-05-02T06:58:24Z</time>
      </trkpt>
      <trkpt lat="45.13665" lon="4.6135">
        <ele>695.1</ele>
        <time>2026-05-02T06:58:29Z</time>
      </trkpt>
      <trkpt lat="45.13659" lon="4.61354">
        <ele>697.4</ele>
        <time>2026-05-02T06:58:34Z</time>
      </trkpt>
      <trkpt lat="45.13654" lon="4.61358">
        <ele>699.6</ele>
        <time>2026-05-02T06:58:39Z</time>
      </trkpt>
      <trkpt lat="45.13648" lon="4.61362">
        <ele>701.9</ele>
        <time>2026-05-02T06:58:44Z</time>
      </trkpt>
      <trkpt lat="45.13642" lon="4.61366">
        <ele>704.3</ele>
        <time>2026-05-02T06:58:49Z</time>
      </trkpt>
      <trkpt lat="45.13636" lon="4.6137">
        <ele>706.6</ele>
        <time>2026-05-02T06:58:54Z</time>
      </trkpt>
      <trkpt lat="45.13631" lon="4.61372">
        <ele>708.2</ele>
        <time>2026-05-02T06:58:59Z</time>
      </trkpt>
      <trkpt lat="45.13626" lon="4.61373">
        <ele>709.5</ele>
        <time>2026-05-02T06:59:04Z</time>
      </trkpt>
      <trkpt lat="45.1362" lon="4.61374">
        <ele>710.9</ele>
        <time>2026-05-02T06:59:09Z</time>
      </trkpt>
      <trkpt lat="45.13618" lon="4.61375">
        <ele>711.6</ele>
        <time>2026-05-02T06:59:14Z</time>
      </trkpt>
      <trkpt lat="45.13617" lon="4.61375">
        <ele>711.8</ele>
        <time>2026-05-02T06:59:19Z</time>
      </trkpt>
      <trkpt lat="45.13616" lon="4.61376">
        <ele>712.3</ele>
        <time>2026-05-02T06:59:24Z</time>
      </trkpt>
      <trkpt lat="45.13613" lon="4.61375">
        <ele>712.6</ele>
        <time>2026-05-02T06:59:29Z</time>
      </trkpt>
      <trkpt lat="45.13607" lon="4.61371">
        <ele>712.6</ele>
        <time>2026-05-02T06:59:34Z</time>
      </trkpt>
      <trkpt lat="45.136" lon="4.61368">
        <ele>713.1</ele>
        <time>2026-05-02T06:59:39Z</time>
      </trkpt>
      <trkpt lat="45.13593" lon="4.61364">
        <ele>713.3</ele>
        <time>2026-05-02T06:59:44Z</time>
      </trkpt>
      <trkpt lat="45.13587" lon="4.61362">
        <ele>713.9</ele>
        <time>2026-05-02T06:59:49Z</time>
      </trkpt>
      <trkpt lat="45.1358" lon="4.6136">
        <ele>714.8</ele>
        <time>2026-05-02T06:59:54Z</time>
      </trkpt>
      <trkpt lat="45.13574" lon="4.61357">
        <ele>715.5</ele>
        <time>2026-05-02T06:59:59Z</time>
      </trkpt>
      <trkpt lat="45.13568" lon="4.61353">
        <ele>715.9</ele>
        <time>2026-05-02T07:00:04Z</time>
      </trkpt>
      <trkpt lat="45.13563" lon="4.6135">
        <ele>716.5</ele>
        <time>2026-05-02T07:00:09Z</time>
      </trkpt>
      <trkpt lat="45.13558" lon="4.61346">
        <ele>716.8</ele>
        <time>2026-05-02T07:00:14Z</time>
      </trkpt>
      <trkpt lat="45.13552" lon="4.61343">
        <ele>717.7</ele>
        <time>2026-05-02T07:00:19Z</time>
      </trkpt>
      <trkpt lat="45.13546" lon="4.61339">
        <ele>718.5</ele>
        <time>2026-05-02T07:00:24Z</time>
      </trkpt>
      <trkpt lat="45.1354" lon="4.61336">
        <ele>719.6</ele>
        <time>2026-05-02T07:00:29Z</time>
      </trkpt>
      <trkpt lat="45.13534" lon="4.61333">
        <ele>720.8</ele>
        <time>2026-05-02T07:00:34Z</time>
      </trkpt>
      <trkpt lat="45.13527" lon="4.61329">
        <ele>723</ele>
        <time>2026-05-02T07:00:39Z</time>
      </trkpt>
      <trkpt lat="45.13522" lon="4.61326">
        <ele>724.6</ele>
        <time>2026-05-02T07:00:44Z</time>
      </trkpt>
      <trkpt lat="45.13516" lon="4.61322">
        <ele>726.5</ele>
        <time>2026-05-02T07:00:49Z</time>
      </trkpt>
      <trkpt lat="45.1351" lon="4.61321">
        <ele>728.4</ele>
        <time>2026-05-02T07:00:54Z</time>
      </trkpt>
      <trkpt lat="45.13504" lon="4.61318">
        <ele>730.3</ele>
        <time>2026-05-02T07:00:59Z</time>
      </trkpt>
      <trkpt lat="45.135" lon="4.61314">
        <ele>731.7</ele>
        <time>2026-05-02T07:01:04Z</time>
      </trkpt>
      <trkpt lat="45.13498" lon="4.61307">
        <ele>732.6</ele>
        <time>2026-05-02T07:01:09Z</time>
      </trkpt>
      <trkpt lat="45.13498" lon="4.61301">
        <ele>732.8</ele>
        <time>2026-05-02T07:01:14Z</time>
      </trkpt>
      <trkpt lat="45.13499" lon="4.61294">
        <ele>732.7</ele>
        <time>2026-05-02T07:01:19Z</time>
      </trkpt>
      <trkpt lat="45.13501" lon="4.61285">
        <ele>732.4</ele>
        <time>2026-05-02T07:01:24Z</time>
      </trkpt>
      <trkpt lat="45.13502" lon="4.61277">
        <ele>732.4</ele>
        <time>2026-05-02T07:01:29Z</time>
      </trkpt>
      <trkpt lat="45.13503" lon="4.6127">
        <ele>732.3</ele>
        <time>2026-05-02T07:01:34Z</time>
      </trkpt>
      <trkpt lat="45.13503" lon="4.61264">
        <ele>732.5</ele>
        <time>2026-05-02T07:01:39Z</time>
      </trkpt>
      <trkpt lat="45.13503" lon="4.61258">
        <ele>732.7</ele>
        <time>2026-05-02T07:01:44Z</time>
      </trkpt>
      <trkpt lat="45.13503" lon="4.61252">
        <ele>732.9</ele>
        <time>2026-05-02T07:01:49Z</time>
      </trkpt>
      <trkpt lat="45.13504" lon="4.61243">
        <ele>732.8</ele>
        <time>2026-05-02T07:01:54Z</time>
      </trkpt>
      <trkpt lat="45.13505" lon="4.61237">
        <ele>732.7</ele>
        <time>2026-05-02T07:01:59Z</time>
      </trkpt>
      <trkpt lat="45.13505" lon="4.61231">
        <ele>732.8</ele>
        <time>2026-05-02T07:02:04Z</time>
      </trkpt>
      <trkpt lat="45.13504" lon="4.61226">
        <ele>733.3</ele>
        <time>2026-05-02T07:02:09Z</time>
      </trkpt>
      <trkpt lat="45.13503" lon="4.6122">
        <ele>733.7</ele>
        <time>2026-05-02T07:02:14Z</time>
      </trkpt>
      <trkpt lat="45.13502" lon="4.61214">
        <ele>734.2</ele>
        <time>2026-05-02T07:02:19Z</time>
      </trkpt>
      <trkpt lat="45.13501" lon="4.61207">
        <ele>734.7</ele>
        <time>2026-05-02T07:02:24Z</time>
      </trkpt>
      <trkpt lat="45.135" lon="4.61199">
        <ele>735.2</ele>
        <time>2026-05-02T07:02:29Z</time>
      </trkpt>
      <trkpt lat="45.13498" lon="4.61193">
        <ele>736.3</ele>
        <time>2026-05-02T07:02:34Z</time>
      </trkpt>
      <trkpt lat="45.13496" lon="4.61186">
        <ele>737.4</ele>
        <time>2026-05-02T07:02:39Z</time>
      </trkpt>
      <trkpt lat="45.13494" lon="4.61179">
        <ele>738.6</ele>
        <time>2026-05-02T07:02:44Z</time>
      </trkpt>
      <trkpt lat="45.13493" lon="4.61173">
        <ele>739.2</ele>
        <time>2026-05-02T07:02:49Z</time>
      </trkpt>
      <trkpt lat="45.1349" lon="4.61167">
        <ele>740.9</ele>
        <time>2026-05-02T07:02:54Z</time>
      </trkpt>
      <trkpt lat="45.13487" lon="4.61161">
        <ele>742.8</ele>
        <time>2026-05-02T07:02:59Z</time>
      </trkpt>
      <trkpt lat="45.13484" lon="4.61155">
        <ele>744.8</ele>
        <time>2026-05-02T07:03:04Z</time>
      </trkpt>
      <trkpt lat="45.13481" lon="4.61149">
        <ele>746.8</ele>
        <time>2026-05-02T07:03:09Z</time>
      </trkpt>
      <trkpt lat="45.1348" lon="4.61146">
        <ele>747.6</ele>
        <time>2026-05-02T07:03:14Z</time>
      </trkpt>
      <trkpt lat="45.13477" lon="4.6115">
        <ele>748.8</ele>
        <time>2026-05-02T07:03:19Z</time>
      </trkpt>
      <trkpt lat="45.13474" lon="4.61157">
        <ele>749.7</ele>
        <time>2026-05-02T07:03:24Z</time>
      </trkpt>
      <trkpt lat="45.13472" lon="4.61159">
        <ele>750.5</ele>
        <time>2026-05-02T07:03:29Z</time>
      </trkpt>
      <trkpt lat="45.13469" lon="4.61165">
        <ele>751.4</ele>
        <time>2026-05-02T07:03:34Z</time>
      </trkpt>
      <trkpt lat="45.13468" lon="4.61168">
        <ele>751.7</ele>
        <time>2026-05-02T07:03:39Z</time>
      </trkpt>
      <trkpt lat="45.13465" lon="4.61172">
        <ele>752.9</ele>
        <time>2026-05-02T07:03:44Z</time>
      </trkpt>
      <trkpt lat="45.13462" lon="4.61177">
        <ele>753.9</ele>
        <time>2026-05-02T07:03:49Z</time>
      </trkpt>
      <trkpt lat="45.1346" lon="4.61182">
        <ele>754.5</ele>
        <time>2026-05-02T07:03:54Z</time>
      </trkpt>
      <trkpt lat="45.13457" lon="4.61187">
        <ele>755.5</ele>
        <time>2026-05-02T07:03:59Z</time>
      </trkpt>
      <trkpt lat="45.13455" lon="4.61191">
        <ele>756.1</ele>
        <time>2026-05-02T07:04:04Z</time>
      </trkpt>
      <trkpt lat="45.13453" lon="4.61194">
        <ele>756.8</ele>
        <time>2026-05-02T07:04:09Z</time>
      </trkpt>
      <trkpt lat="45.13451" lon="4.61198">
        <ele>757.4</ele>
        <time>2026-05-02T07:04:14Z</time>
      </trkpt>
      <trkpt lat="45.13449" lon="4.61201">
        <ele>758</ele>
        <time>2026-05-02T07:04:19Z</time>
      </trkpt>
      <trkpt lat="45.13447" lon="4.61205">
        <ele>758.5</ele>
        <time>2026-05-02T07:04:24Z</time>
      </trkpt>
      <trkpt lat="45.13446" lon="4.61209">
        <ele>758.6</ele>
        <time>2026-05-02T07:04:29Z</time>
      </trkpt>
      <trkpt lat="45.13443" lon="4.61213">
        <ele>759.5</ele>
        <time>2026-05-02T07:04:34Z</time>
      </trkpt>
      <trkpt lat="45.13442" lon="4.61218">
        <ele>759.4</ele>
        <time>2026-05-02T07:04:39Z</time>
      </trkpt>
      <trkpt lat="45.13441" lon="4.61222">
        <ele>759.5</ele>
        <time>2026-05-02T07:04:44Z</time>
      </trkpt>
      <trkpt lat="45.13439" lon="4.61226">
        <ele>759.9</ele>
        <time>2026-05-02T07:04:49Z</time>
      </trkpt>
      <trkpt lat="45.13436" lon="4.61231">
        <ele>760.6</ele>
        <time>2026-05-02T07:04:54Z</time>
      </trkpt>
      <trkpt lat="45.13435" lon="4.61235">
        <ele>760.6</ele>
        <time>2026-05-02T07:04:59Z</time>
      </trkpt>
      <trkpt lat="45.13435" lon="4.61235">
        <ele>760.6</ele>
        <time>2026-05-02T07:05:04Z</time>
      </trkpt>
      <trkpt lat="45.13435" lon="4.61235">
        <ele>760.6</ele>
        <time>2026-05-02T07:05:09Z</time>
      </trkpt>
      <trkpt lat="45.13435" lon="4.61235">
        <ele>760.6</ele>
        <time>2026-05-02T07:05:14Z</time>
      </trkpt>
      <trkpt lat="45.13435" lon="4.61235">
        <ele>760.6</ele>
        <time>2026-05-02T07:05:19Z</time>
      </trkpt>
      <trkpt lat="45.13435" lon="4.61235">
        <ele>760.6</ele>
        <time>2026-05-02T07:05:24Z</time>
      </trkpt>
      <trkpt lat="45.13435" lon="4.61235">
        <ele>760.6</ele>
        <time>2026-05-02T07:05:29Z</time>
      </trkpt>
      <trkpt lat="45.13436" lon="4.61239">
        <ele>759.8</ele>
        <time>2026-05-02T07:05:34Z</time>
      </trkpt>
      <trkpt lat="45.13433" lon="4.61244">
        <ele>760.4</ele>
        <time>2026-05-02T07:05:39Z</time>
      </trkpt>
      <trkpt lat="45.13431" lon="4.61249">
        <ele>760.6</ele>
        <time>2026-05-02T07:05:44Z</time>
      </trkpt>
      <trkpt lat="45.13429" lon="4.61255">
        <ele>760.7</ele>
        <time>2026-05-02T07:05:49Z</time>
      </trkpt>
      <trkpt lat="45.13426" lon="4.61259">
        <ele>761.3</ele>
        <time>2026-05-02T07:05:54Z</time>
      </trkpt>
      <trkpt lat="45.13425" lon="4.61263">
        <ele>761.2</ele>
        <time>2026-05-02T07:05:59Z</time>
      </trkpt>
      <trkpt lat="45.13422" lon="4.61268">
        <ele>761.7</ele>
        <time>2026-05-02T07:06:04Z</time>
      </trkpt>
      <trkpt lat="45.13419" lon="4.61273">
        <ele>762.1</ele>
        <time>2026-05-02T07:06:09Z</time>
      </trkpt>
      <trkpt lat="45.13415" lon="4.61276">
        <ele>763.2</ele>
        <time>2026-05-02T07:06:14Z</time>
      </trkpt>
      <trkpt lat="45.13412" lon="4.61278">
        <ele>763.9</ele>
        <time>2026-05-02T07:06:19Z</time>
      </trkpt>
      <trkpt lat="45.13408" lon="4.61283">
        <ele>764.7</ele>
        <time>2026-05-02T07:06:24Z</time>
      </trkpt>
      <trkpt lat="45.13404" lon="4.61289">
        <ele>765.2</ele>
        <time>2026-05-02T07:06:29Z</time>
      </trkpt>
      <trkpt lat="45.13401" lon="4.61292">
        <ele>765.8</ele>
        <time>2026-05-02T07:06:34Z</time>
      </trkpt>
      <trkpt lat="45.13398" lon="4.61294">
        <ele>766.5</ele>
        <time>2026-05-02T07:06:39Z</time>
      </trkpt>
      <trkpt lat="45.13395" lon="4.61297">
        <ele>767.1</ele>
        <time>2026-05-02T07:06:44Z</time>
      </trkpt>
      <trkpt lat="45.13392" lon="4.61299">
        <ele>767.8</ele>
        <time>2026-05-02T07:06:49Z</time>
      </trkpt>
      <trkpt lat="45.13389" lon="4.61301">
        <ele>768.5</ele>
        <time>2026-05-02T07:06:54Z</time>
      </trkpt>
      <trkpt lat="45.13386" lon="4.61304">
        <ele>769.1</ele>
        <time>2026-05-02T07:06:59Z</time>
      </trkpt>
      <trkpt lat="45.13381" lon="4.61305">
        <ele>770.6</ele>
        <time>2026-05-02T07:07:04Z</time>
      </trkpt>
      <trkpt lat="45.13379" lon="4.61305">
        <ele>771.3</ele>
        <time>2026-05-02T07:07:09Z</time>
      </trkpt>
      <trkpt lat="45.13375" lon="4.61307">
        <ele>772.3</ele>
        <time>2026-05-02T07:07:14Z</time>
      </trkpt>
      <trkpt lat="45.13372" lon="4.6131">
        <ele>772.8</ele>
        <time>2026-05-02T07:07:19Z</time>
      </trkpt>
      <trkpt lat="45.13368" lon="4.61312">
        <ele>773.7</ele>
        <time>2026-05-02T07:07:24Z</time>
      </trkpt>
      <trkpt lat="45.13363" lon="4.61313">
        <ele>775.2</ele>
        <time>2026-05-02T07:07:29Z</time>
      </trkpt>
      <trkpt lat="45.1336" lon="4.61313">
        <ele>776.2</ele>
        <time>2026-05-02T07:07:34Z</time>
      </trkpt>
      <trkpt lat="45.13355" lon="4.61315">
        <ele>777.5</ele>
        <time>2026-05-02T07:07:39Z</time>
      </trkpt>
      <trkpt lat="45.13351" lon="4.61319">
        <ele>778.1</ele>
        <time>2026-05-02T07:07:44Z</time>
      </trkpt>
      <trkpt lat="45.13347" lon="4.61321">
        <ele>779</ele>
        <time>2026-05-02T07:07:49Z</time>
      </trkpt>
      <trkpt lat="45.13342" lon="4.61323">
        <ele>780.2</ele>
        <time>2026-05-02T07:07:54Z</time>
      </trkpt>
      <trkpt lat="45.13339" lon="4.61326">
        <ele>780.6</ele>
        <time>2026-05-02T07:07:59Z</time>
      </trkpt>
      <trkpt lat="45.13335" lon="4.61327">
        <ele>781.7</ele>
        <time>2026-05-02T07:08:04Z</time>
      </trkpt>
      <trkpt lat="45.1333" lon="4.61328">
        <ele>783.3</ele>
        <time>2026-05-02T07:08:09Z</time>
      </trkpt>
      <trkpt lat="45.13326" lon="4.61329">
        <ele>784.7</ele>
        <time>2026-05-02T07:08:14Z</time>
      </trkpt>
      <trkpt lat="45.13323" lon="4.61332">
        <ele>785.3</ele>
        <time>2026-05-02T07:08:19Z</time>
      </trkpt>
      <trkpt lat="45.1332" lon="4.61332">
        <ele>786.5</ele>
        <time>2026-05-02T07:08:24Z</time>
      </trkpt>
      <trkpt lat="45.13318" lon="4.61332">
        <ele>787.3</ele>
        <time>2026-05-02T07:08:29Z</time>
      </trkpt>
      <trkpt lat="45.13314" lon="4.61332">
        <ele>788.9</ele>
        <time>2026-05-02T07:08:34Z</time>
      </trkpt>
      <trkpt lat="45.13311" lon="4.61332">
        <ele>790.1</ele>
        <time>2026-05-02T07:08:39Z</time>
      </trkpt>
      <trkpt lat="45.13307" lon="4.6133">
        <ele>792</ele>
        <time>2026-05-02T07:08:44Z</time>
      </trkpt>
      <trkpt lat="45.13303" lon="4.61329">
        <ele>793.8</ele>
        <time>2026-05-02T07:08:49Z</time>
      </trkpt>
      <trkpt lat="45.13298" lon="4.6133">
        <ele>795.6</ele>
        <time>2026-05-02T07:08:54Z</time>
      </trkpt>
      <trkpt lat="45.13295" lon="4.61332">
        <ele>796.4</ele>
        <time>2026-05-02T07:08:59Z</time>
      </trkpt>
      <trkpt lat="45.13291" lon="4.61334">
        <ele>797.7</ele>
        <time>2026-05-02T07:09:04Z</time>
      </trkpt>
      <trkpt lat="45.13288" lon="4.61337">
        <ele>798.8</ele>
        <time>2026-05-02T07:09:09Z</time>
      </trkpt>
      <trkpt lat="45.13286" lon="4.61342">
        <ele>799.4</ele>
        <time>2026-05-02T07:09:14Z</time>
      </trkpt>
      <trkpt lat="45.13284" lon="4.61347">
        <ele>799.9</ele>
        <time>2026-05-02T07:09:19Z</time>
      </trkpt>
      <trkpt lat="45.13282" lon="4.6135">
        <ele>800.6</ele>
        <time>2026-05-02T07:09:24Z</time>
      </trkpt>
      <trkpt lat="45.13281" lon="4.61353">
        <ele>800.9</ele>
        <time>2026-05-02T07:09:29Z</time>
      </trkpt>
      <trkpt lat="45.13279" lon="4.61356">
        <ele>801.5</ele>
        <time>2026-05-02T07:09:34Z</time>
      </trkpt>
      <trkpt lat="45.13278" lon="4.61359">
        <ele>801.8</ele>
        <time>2026-05-02T07:09:39Z</time>
      </trkpt>
      <trkpt lat="45.13277" lon="4.61359">
        <ele>802.2</ele>
        <time>2026-05-02T07:09:44Z</time>
      </trkpt>
      <trkpt lat="45.13274" lon="4.61366">
        <ele>803</ele>
        <time>2026-05-02T07:09:49Z</time>
      </trkpt>
      <trkpt lat="45.13271" lon="4.6137">
        <ele>804</ele>
        <time>2026-05-02T07:09:54Z</time>
      </trkpt>
      <trkpt lat="45.13268" lon="4.61373">
        <ele>805.1</ele>
        <time>2026-05-02T07:09:59Z</time>
      </trkpt>
      <trkpt lat="45.13266" lon="4.61377">
        <ele>805.7</ele>
        <time>2026-05-02T07:10:04Z</time>
      </trkpt>
      <trkpt lat="45.13265" lon="4.61378">
        <ele>806</ele>
        <time>2026-05-02T07:10:09Z</time>
      </trkpt>
      <trkpt lat="45.13264" lon="4.61381">
        <ele>806.3</ele>
        <time>2026-05-02T07:10:14Z</time>
      </trkpt>
      <trkpt lat="45.13262" lon="4.61388">
        <ele>806.7</ele>
        <time>2026-05-02T07:10:19Z</time>
      </trkpt>
      <trkpt lat="45.13261" lon="4.61393">
        <ele>806.9</ele>
        <time>2026-05-02T07:10:24Z</time>
      </trkpt>
      <trkpt lat="45.1326" lon="4.61397">
        <ele>807.1</ele>
        <time>2026-05-02T07:10:29Z</time>
      </trkpt>
      <trkpt lat="45.13258" lon="4.61401">
        <ele>807.7</ele>
        <time>2026-05-02T07:10:34Z</time>
      </trkpt>
      <trkpt lat="45.13257" lon="4.61406">
        <ele>807.8</ele>
        <time>2026-05-02T07:10:39Z</time>
      </trkpt>
      <trkpt lat="45.13256" lon="4.61412">
        <ele>807.9</ele>
        <time>2026-05-02T07:10:44Z</time>
      </trkpt>
      <trkpt lat="45.13257" lon="4.61417">
        <ele>807.3</ele>
        <time>2026-05-02T07:10:49Z</time>
      </trkpt>
      <trkpt lat="45.13257" lon="4.61423">
        <ele>806.9</ele>
        <time>2026-05-02T07:10:54Z</time>
      </trkpt>
      <trkpt lat="45.13256" lon="4.61429">
        <ele>806.9</ele>
        <time>2026-05-02T07:10:59Z</time>
      </trkpt>
      <trkpt lat="45.13255" lon="4.61433">
        <ele>806.9</ele>
        <time>2026-05-02T07:11:04Z</time>
      </trkpt>
      <trkpt lat="45.13255" lon="4.61437">
        <ele>806.7</ele>
        <time>2026-05-02T07:11:09Z</time>
      </trkpt>
      <trkpt lat="45.13256" lon="4.61441">
        <ele>806.1</ele>
        <time>2026-05-02T07:11:14Z</time>
      </trkpt>
      <trkpt lat="45.13255" lon="4.61446">
        <ele>806</ele>
        <time>2026-05-02T07:11:19Z</time>
      </trkpt>
      <trkpt lat="45.13253" lon="4.61451">
        <ele>806.3</ele>
        <time>2026-05-02T07:11:24Z</time>
      </trkpt>
      <trkpt lat="45.13252" lon="4.61454">
        <ele>806.3</ele>
        <time>2026-05-02T07:11:29Z</time>
      </trkpt>
      <trkpt lat="45.1325" lon="4.61457">
        <ele>806.6</ele>
        <time>2026-05-02T07:11:34Z</time>
      </trkpt>
      <trkpt lat="45.13249" lon="4.6146">
        <ele>806.3</ele>
        <time>2026-05-02T07:11:39Z</time>
      </trkpt>
      <trkpt lat="45.13247" lon="4.61466">
        <ele>805.6</ele>
        <time>2026-05-02T07:11:44Z</time>
      </trkpt>
      <trkpt lat="45.13245" lon="4.61469">
        <ele>805.2</ele>
        <time>2026-05-02T07:11:49Z</time>
      </trkpt>
      <trkpt lat="45.13243" lon="4.61473">
        <ele>804.7</ele>
        <time>2026-05-02T07:11:54Z</time>
      </trkpt>
      <trkpt lat="45.13241" lon="4.61477">
        <ele>804.2</ele>
        <time>2026-05-02T07:11:59Z</time>
      </trkpt>
      <trkpt lat="45.13238" lon="4.61479">
        <ele>803.8</ele>
        <time>2026-05-02T07:12:04Z</time>
      </trkpt>
      <trkpt lat="45.13236" lon="4.61481">
        <ele>803.4</ele>
        <time>2026-05-02T07:12:09Z</time>
      </trkpt>
      <trkpt lat="45.13235" lon="4.61483">
        <ele>803.1</ele>
        <time>2026-05-02T07:12:14Z</time>
      </trkpt>
      <trkpt lat="45.13234" lon="4.61485">
        <ele>802.8</ele>
        <time>2026-05-02T07:12:19Z</time>
      </trkpt>
      <trkpt lat="45.13232" lon="4.6149">
        <ele>802.1</ele>
        <time>2026-05-02T07:12:24Z</time>
      </trkpt>
      <trkpt lat="45.1323" lon="4.61494">
        <ele>801.5</ele>
        <time>2026-05-02T07:12:29Z</time>
      </trkpt>
      <trkpt lat="45.13229" lon="4.61498">
        <ele>800.9</ele>
        <time>2026-05-02T07:12:34Z</time>
      </trkpt>
      <trkpt lat="45.13226" lon="4.61502">
        <ele>800.1</ele>
        <time>2026-05-02T07:12:39Z</time>
      </trkpt>
      <trkpt lat="45.13225" lon="4.61505">
        <ele>799.5</ele>
        <time>2026-05-02T07:12:44Z</time>
      </trkpt>
      <trkpt lat="45.13223" lon="4.61508">
        <ele>798.8</ele>
        <time>2026-05-02T07:12:49Z</time>
      </trkpt>
      <trkpt lat="45.13221" lon="4.61512">
        <ele>797.9</ele>
        <time>2026-05-02T07:12:54Z</time>
      </trkpt>
      <trkpt lat="45.13219" lon="4.61518">
        <ele>796.6</ele>
        <time>2026-05-02T07:12:59Z</time>
      </trkpt>
      <trkpt lat="45.13217" lon="4.6152">
        <ele>796</ele>
        <time>2026-05-02T07:13:04Z</time>
      </trkpt>
      <trkpt lat="45.13215" lon="4.61524">
        <ele>795</ele>
        <time>2026-05-02T07:13:09Z</time>
      </trkpt>
      <trkpt lat="45.13213" lon="4.61528">
        <ele>794</ele>
        <time>2026-05-02T07:13:14Z</time>
      </trkpt>
      <trkpt lat="45.1321" lon="4.61532">
        <ele>792.8</ele>
        <time>2026-05-02T07:13:19Z</time>
      </trkpt>
      <trkpt lat="45.13208" lon="4.61536">
        <ele>791.7</ele>
        <time>2026-05-02T07:13:24Z</time>
      </trkpt>
      <trkpt lat="45.13207" lon="4.61541">
        <ele>790.6</ele>
        <time>2026-05-02T07:13:29Z</time>
      </trkpt>
      <trkpt lat="45.13206" lon="4.61543">
        <ele>790.1</ele>
        <time>2026-05-02T07:13:34Z</time>
      </trkpt>
      <trkpt lat="45.13204" lon="4.61546">
        <ele>789.2</ele>
        <time>2026-05-02T07:13:39Z</time>
      </trkpt>
      <trkpt lat="45.13201" lon="4.61551">
        <ele>787.6</ele>
        <time>2026-05-02T07:13:44Z</time>
      </trkpt>
      <trkpt lat="45.13198" lon="4.61555">
        <ele>786.3</ele>
        <time>2026-05-02T07:13:49Z</time>
      </trkpt>
      <trkpt lat="45.13195" lon="4.61561">
        <ele>784.4</ele>
        <time>2026-05-02T07:13:54Z</time>
      </trkpt>
      <trkpt lat="45.13191" lon="4.61567">
        <ele>782.3</ele>
        <time>2026-05-02T07:13:59Z</time>
      </trkpt>
      <trkpt lat="45.13189" lon="4.61566">
        <ele>782.1</ele>
        <time>2026-05-02T07:14:04Z</time>
      </trkpt>
      <trkpt lat="45.13189" lon="4.61567">
        <ele>781.9</ele>
        <time>2026-05-02T07:14:09Z</time>
      </trkpt>
      <trkpt lat="45.13189" lon="4.61573">
        <ele>780.6</ele>
        <time>2026-05-02T07:14:14Z</time>
      </trkpt>
      <trkpt lat="45.13187" lon="4.61577">
        <ele>779.3</ele>
        <time>2026-05-02T07:14:19Z</time>
      </trkpt>
      <trkpt lat="45.13183" lon="4.61578">
        <ele>778.1</ele>
        <time>2026-05-02T07:14:24Z</time>
      </trkpt>
      <trkpt lat="45.13183" lon="4.61578">
        <ele>778.1</ele>
        <time>2026-05-02T07:14:29Z</time>
      </trkpt>
      <trkpt lat="45.13183" lon="4.61578">
        <ele>778.1</ele>
        <time>2026-05-02T07:14:34Z</time>
      </trkpt>
      <trkpt lat="45.13183" lon="4.61578">
        <ele>778.1</ele>
        <time>2026-05-02T07:14:39Z</time>
      </trkpt>
      <trkpt lat="45.13183" lon="4.61578">
        <ele>778.1</ele>
        <time>2026-05-02T07:14:44Z</time>
      </trkpt>
      <trkpt lat="45.13183" lon="4.61578">
        <ele>778.1</ele>
        <time>2026-05-02T07:14:49Z</time>
      </trkpt>
      <trkpt lat="45.13183" lon="4.61578">
        <ele>778.1</ele>
        <time>2026-05-02T07:14:54Z</time>
      </trkpt>
      <trkpt lat="45.13183" lon="4.61578">
        <ele>778.1</ele>
        <time>2026-05-02T07:14:59Z</time>
      </trkpt>
      <trkpt lat="45.13183" lon="4.61578">
        <ele>778.1</ele>
        <time>2026-05-02T07:15:04Z</time>
      </trkpt>
      <trkpt lat="45.13183" lon="4.61578">
        <ele>778.1</ele>
        <time>2026-05-02T07:15:09Z</time>
      </trkpt>
      <trkpt lat="45.13183" lon="4.61578">
        <ele>778.1</ele>
        <time>2026-05-02T07:15:14Z</time>
      </trkpt>
      <trkpt lat="45.13183" lon="4.61578">
        <ele>778.1</ele>
        <time>2026-05-02T07:15:19Z</time>
      </trkpt>
      <trkpt lat="45.13183" lon="4.61578">
        <ele>778.1</ele>
        <time>2026-05-02T07:15:24Z</time>
      </trkpt>
      <trkpt lat="45.13183" lon="4.61578">
        <ele>778.1</ele>
        <time>2026-05-02T07:15:29Z</time>
      </trkpt>
      <trkpt lat="45.13183" lon="4.61578">
        <ele>778.1</ele>
        <time>2026-05-02T07:15:34Z</time>
      </trkpt>
      <trkpt lat="45.13183" lon="4.61578">
        <ele>778.1</ele>
        <time>2026-05-02T07:15:39Z</time>
      </trkpt>
      <trkpt lat="45.13183" lon="4.61578">
        <ele>778.1</ele>
        <time>2026-05-02T07:15:44Z</time>
      </trkpt>
      <trkpt lat="45.13183" lon="4.61578">
        <ele>778.1</ele>
        <time>2026-05-02T07:15:49Z</time>
      </trkpt>
      <trkpt lat="45.13183" lon="4.61578">
        <ele>778.1</ele>
        <time>2026-05-02T07:15:54Z</time>
      </trkpt>
      <trkpt lat="45.13183" lon="4.61578">
        <ele>778.1</ele>
        <time>2026-05-02T07:15:59Z</time>
      </trkpt>
      <trkpt lat="45.13183" lon="4.61578">
        <ele>778.1</ele>
        <time>2026-05-02T07:16:04Z</time>
      </trkpt>
      <trkpt lat="45.13183" lon="4.61578">
        <ele>778.1</ele>
        <time>2026-05-02T07:16:09Z</time>
      </trkpt>
      <trkpt lat="45.13183" lon="4.61578">
        <ele>778.1</ele>
        <time>2026-05-02T07:16:14Z</time>
      </trkpt>
      <trkpt lat="45.13183" lon="4.61578">
        <ele>778.1</ele>
        <time>2026-05-02T07:16:19Z</time>
      </trkpt>
      <trkpt lat="45.13183" lon="4.61578">
        <ele>778.1</ele>
        <time>2026-05-02T07:16:24Z</time>
      </trkpt>
      <trkpt lat="45.13183" lon="4.61578">
        <ele>778.1</ele>
        <time>2026-05-02T07:16:29Z</time>
      </trkpt>
      <trkpt lat="45.13183" lon="4.61578">
        <ele>778.1</ele>
        <time>2026-05-02T07:16:34Z</time>
      </trkpt>
      <trkpt lat="45.13183" lon="4.61578">
        <ele>778.1</ele>
        <time>2026-05-02T07:16:39Z</time>
      </trkpt>
      <trkpt lat="45.13183" lon="4.61578">
        <ele>778.1</ele>
        <time>2026-05-02T07:16:44Z</time>
      </trkpt>
      <trkpt lat="45.13183" lon="4.61578">
        <ele>778.1</ele>
        <time>2026-05-02T07:16:49Z</time>
      </trkpt>
      <trkpt lat="45.13183" lon="4.61578">
        <ele>778.1</ele>
        <time>2026-05-02T07:16:54Z</time>
      </trkpt>
      <trkpt lat="45.13183" lon="4.61578">
        <ele>778.1</ele>
        <time>2026-05-02T07:16:59Z</time>
      </trkpt>
      <trkpt lat="45.13183" lon="4.61578">
        <ele>778.1</ele>
        <time>2026-05-02T07:17:04Z</time>
      </trkpt>
      <trkpt lat="45.13183" lon="4.61578">
        <ele>778.1</ele>
        <time>2026-05-02T07:17:09Z</time>
      </trkpt>
      <trkpt lat="45.13183" lon="4.61578">
        <ele>778.1</ele>
        <time>2026-05-02T07:17:14Z</time>
      </trkpt>
      <trkpt lat="45.13183" lon="4.61578">
        <ele>778.1</ele>
        <time>2026-05-02T07:17:19Z</time>
      </trkpt>
      <trkpt lat="45.13183" lon="4.61578">
        <ele>778.1</ele>
        <time>2026-05-02T07:17:24Z</time>
      </trkpt>
      <trkpt lat="45.13183" lon="4.61578">
        <ele>778.1</ele>
        <time>2026-05-02T07:17:29Z</time>
      </trkpt>
      <trkpt lat="45.13183" lon="4.61578">
        <ele>778.1</ele>
        <time>2026-05-02T07:17:34Z</time>
      </trkpt>
      <trkpt lat="45.13183" lon="4.61578">
        <ele>778.1</ele>
        <time>2026-05-02T07:17:39Z</time>
      </trkpt>
      <trkpt lat="45.13183" lon="4.61578">
        <ele>778.1</ele>
        <time>2026-05-02T07:17:44Z</time>
      </trkpt>
      <trkpt lat="45.13183" lon="4.61578">
        <ele>778.1</ele>
        <time>2026-05-02T07:17:49Z</time>
      </trkpt>
      <trkpt lat="45.13183" lon="4.61578">
        <ele>778.1</ele>
        <time>2026-05-02T07:17:54Z</time>
      </trkpt>
      <trkpt lat="45.13183" lon="4.61578">
        <ele>778.1</ele>
        <time>2026-05-02T07:17:59Z</time>
      </trkpt>
      <trkpt lat="45.13183" lon="4.61578">
        <ele>778.1</ele>
        <time>2026-05-02T07:18:04Z</time>
      </trkpt>
      <trkpt lat="45.13183" lon="4.61578">
        <ele>778.1</ele>
        <time>2026-05-02T07:18:09Z</time>
      </trkpt>
      <trkpt lat="45.13183" lon="4.61578">
        <ele>778.1</ele>
        <time>2026-05-02T07:18:14Z</time>
      </trkpt>
      <trkpt lat="45.13183" lon="4.61578">
        <ele>778.1</ele>
        <time>2026-05-02T07:18:19Z</time>
      </trkpt>
      <trkpt lat="45.13183" lon="4.61578">
        <ele>778.1</ele>
        <time>2026-05-02T07:18:24Z</time>
      </trkpt>
      <trkpt lat="45.13183" lon="4.61578">
        <ele>778.1</ele>
        <time>2026-05-02T07:18:29Z</time>
      </trkpt>
      <trkpt lat="45.13183" lon="4.61578">
        <ele>778.1</ele>
        <time>2026-05-02T07:18:34Z</time>
      </trkpt>
      <trkpt lat="45.13183" lon="4.61578">
        <ele>778.1</ele>
        <time>2026-05-02T07:18:39Z</time>
      </trkpt>
      <trkpt lat="45.13183" lon="4.61578">
        <ele>778.1</ele>
        <time>2026-05-02T07:18:44Z</time>
      </trkpt>
      <trkpt lat="45.13172" lon="4.61584">
        <ele>774.1</ele>
        <time>2026-05-02T07:18:49Z</time>
      </trkpt>
      <trkpt lat="45.13165" lon="4.61577">
        <ele>774.2</ele>
        <time>2026-05-02T07:18:54Z</time>
      </trkpt>
      <trkpt lat="45.13161" lon="4.61572">
        <ele>774.6</ele>
        <time>2026-05-02T07:18:59Z</time>
      </trkpt>
      <trkpt lat="45.13159" lon="4.61568">
        <ele>775.2</ele>
        <time>2026-05-02T07:19:04Z</time>
      </trkpt>
      <trkpt lat="45.13158" lon="4.61568">
        <ele>775</ele>
        <time>2026-05-02T07:19:09Z</time>
      </trkpt>
      <trkpt lat="45.13157" lon="4.61568">
        <ele>774.8</ele>
        <time>2026-05-02T07:19:14Z</time>
      </trkpt>
      <trkpt lat="45.13157" lon="4.61568">
        <ele>774.8</ele>
        <time>2026-05-02T07:19:19Z</time>
      </trkpt>
      <trkpt lat="45.13157" lon="4.61568">
        <ele>774.8</ele>
        <time>2026-05-02T07:19:24Z</time>
      </trkpt>
      <trkpt lat="45.13149" lon="4.61561">
        <ele>774.7</ele>
        <time>2026-05-02T07:19:29Z</time>
      </trkpt>
      <trkpt lat="45.13141" lon="4.61553">
        <ele>774.7</ele>
        <time>2026-05-02T07:19:34Z</time>
      </trkpt>
      <trkpt lat="45.13132" lon="4.6155">
        <ele>773.3</ele>
        <time>2026-05-02T07:19:39Z</time>
      </trkpt>
      <trkpt lat="45.13124" lon="4.61544">
        <ele>772.8</ele>
        <time>2026-05-02T07:19:44Z</time>
      </trkpt>
      <trkpt lat="45.13114" lon="4.61539">
        <ele>771.4</ele>
        <time>2026-05-02T07:19:49Z</time>
      </trkpt>
      <trkpt lat="45.13105" lon="4.61536">
        <ele>769.8</ele>
        <time>2026-05-02T07:19:54Z</time>
      </trkpt>
      <trkpt lat="45.13097" lon="4.61528">
        <ele>769.4</ele>
        <time>2026-05-02T07:19:59Z</time>
      </trkpt>
      <trkpt lat="45.13089" lon="4.61523">
        <ele>768.3</ele>
        <time>2026-05-02T07:20:04Z</time>
      </trkpt>
      <trkpt lat="45.13083" lon="4.61518">
        <ele>767.8</ele>
        <time>2026-05-02T07:20:09Z</time>
      </trkpt>
      <trkpt lat="45.13077" lon="4.61512">
        <ele>769.9</ele>
        <time>2026-05-02T07:20:14Z</time>
      </trkpt>
      <trkpt lat="45.13076" lon="4.61506">
        <ele>771.1</ele>
        <time>2026-05-02T07:20:19Z</time>
      </trkpt>
      <trkpt lat="45.13076" lon="4.61503">
        <ele>771.6</ele>
        <time>2026-05-02T07:20:24Z</time>
      </trkpt>
      <trkpt lat="45.13076" lon="4.61503">
        <ele>771.6</ele>
        <time>2026-05-02T07:20:29Z</time>
      </trkpt>
      <trkpt lat="45.13071" lon="4.61493">
        <ele>773.7</ele>
        <time>2026-05-02T07:20:34Z</time>
      </trkpt>
      <trkpt lat="45.13065" lon="4.61486">
        <ele>775.4</ele>
        <time>2026-05-02T07:20:39Z</time>
      </trkpt>
      <trkpt lat="45.13063" lon="4.61478">
        <ele>776.5</ele>
        <time>2026-05-02T07:20:44Z</time>
      </trkpt>
      <trkpt lat="45.1306" lon="4.61471">
        <ele>777.6</ele>
        <time>2026-05-02T07:20:49Z</time>
      </trkpt>
      <trkpt lat="45.13056" lon="4.61463">
        <ele>779</ele>
        <time>2026-05-02T07:20:54Z</time>
      </trkpt>
      <trkpt lat="45.13052" lon="4.61454">
        <ele>780.4</ele>
        <time>2026-05-02T07:20:59Z</time>
      </trkpt>
      <trkpt lat="45.13047" lon="4.61445">
        <ele>781.8</ele>
        <time>2026-05-02T07:21:04Z</time>
      </trkpt>
      <trkpt lat="45.13043" lon="4.61435">
        <ele>783.2</ele>
        <time>2026-05-02T07:21:09Z</time>
      </trkpt>
      <trkpt lat="45.1304" lon="4.61424">
        <ele>784.5</ele>
        <time>2026-05-02T07:21:14Z</time>
      </trkpt>
      <trkpt lat="45.13034" lon="4.61414">
        <ele>786</ele>
        <time>2026-05-02T07:21:19Z</time>
      </trkpt>
      <trkpt lat="45.13029" lon="4.61405">
        <ele>787.3</ele>
        <time>2026-05-02T07:21:24Z</time>
      </trkpt>
      <trkpt lat="45.13024" lon="4.61395">
        <ele>788.5</ele>
        <time>2026-05-02T07:21:29Z</time>
      </trkpt>
      <trkpt lat="45.13019" lon="4.61385">
        <ele>789.7</ele>
        <time>2026-05-02T07:21:34Z</time>
      </trkpt>
      <trkpt lat="45.13015" lon="4.61377">
        <ele>790.5</ele>
        <time>2026-05-02T07:21:39Z</time>
      </trkpt>
      <trkpt lat="45.1301" lon="4.61368">
        <ele>791.5</ele>
        <time>2026-05-02T07:21:44Z</time>
      </trkpt>
      <trkpt lat="45.13005" lon="4.61359">
        <ele>792.3</ele>
        <time>2026-05-02T07:21:49Z</time>
      </trkpt>
      <trkpt lat="45.13" lon="4.61349">
        <ele>793.1</ele>
        <time>2026-05-02T07:21:54Z</time>
      </trkpt>
      <trkpt lat="45.12994" lon="4.61339">
        <ele>795.7</ele>
        <time>2026-05-02T07:21:59Z</time>
      </trkpt>
      <trkpt lat="45.12988" lon="4.6133">
        <ele>798.1</ele>
        <time>2026-05-02T07:22:04Z</time>
      </trkpt>
      <trkpt lat="45.12984" lon="4.61321">
        <ele>799.6</ele>
        <time>2026-05-02T07:22:09Z</time>
      </trkpt>
      <trkpt lat="45.1298" lon="4.61313">
        <ele>801.1</ele>
        <time>2026-05-02T07:22:14Z</time>
      </trkpt>
      <trkpt lat="45.12977" lon="4.61308">
        <ele>802.2</ele>
        <time>2026-05-02T07:22:19Z</time>
      </trkpt>
      <trkpt lat="45.12975" lon="4.613">
        <ele>803</ele>
        <time>2026-05-02T07:22:24Z</time>
      </trkpt>
      <trkpt lat="45.12969" lon="4.61293">
        <ele>805</ele>
        <time>2026-05-02T07:22:29Z</time>
      </trkpt>
      <trkpt lat="45.12962" lon="4.61291">
        <ele>807.3</ele>
        <time>2026-05-02T07:22:34Z</time>
      </trkpt>
      <trkpt lat="45.12956" lon="4.61298">
        <ele>809.2</ele>
        <time>2026-05-02T07:22:39Z</time>
      </trkpt>
      <trkpt lat="45.12953" lon="4.61309">
        <ele>810</ele>
        <time>2026-05-02T07:22:44Z</time>
      </trkpt>
      <trkpt lat="45.1295" lon="4.61319">
        <ele>810.9</ele>
        <time>2026-05-02T07:22:49Z</time>
      </trkpt>
      <trkpt lat="45.12948" lon="4.6133">
        <ele>811.5</ele>
        <time>2026-05-02T07:22:54Z</time>
      </trkpt>
      <trkpt lat="45.12948" lon="4.61341">
        <ele>811.3</ele>
        <time>2026-05-02T07:22:59Z</time>
      </trkpt>
      <trkpt lat="45.12947" lon="4.61351">
        <ele>811.4</ele>
        <time>2026-05-02T07:23:04Z</time>
      </trkpt>
      <trkpt lat="45.12944" lon="4.61363">
        <ele>812.2</ele>
        <time>2026-05-02T07:23:09Z</time>
      </trkpt>
      <trkpt lat="45.12942" lon="4.61372">
        <ele>812.8</ele>
        <time>2026-05-02T07:23:14Z</time>
      </trkpt>
      <trkpt lat="45.1294" lon="4.61382">
        <ele>813.3</ele>
        <time>2026-05-02T07:23:19Z</time>
      </trkpt>
      <trkpt lat="45.12939" lon="4.61391">
        <ele>813.6</ele>
        <time>2026-05-02T07:23:24Z</time>
      </trkpt>
      <trkpt lat="45.12935" lon="4.614">
        <ele>815</ele>
        <time>2026-05-02T07:23:29Z</time>
      </trkpt>
      <trkpt lat="45.12934" lon="4.61411">
        <ele>815.2</ele>
        <time>2026-05-02T07:23:34Z</time>
      </trkpt>
      <trkpt lat="45.12931" lon="4.61422">
        <ele>816</ele>
        <time>2026-05-02T07:23:39Z</time>
      </trkpt>
      <trkpt lat="45.12929" lon="4.61434">
        <ele>815.9</ele>
        <time>2026-05-02T07:23:44Z</time>
      </trkpt>
      <trkpt lat="45.12928" lon="4.61445">
        <ele>815.5</ele>
        <time>2026-05-02T07:23:49Z</time>
      </trkpt>
      <trkpt lat="45.12926" lon="4.61458">
        <ele>815.4</ele>
        <time>2026-05-02T07:23:54Z</time>
      </trkpt>
      <trkpt lat="45.12925" lon="4.61467">
        <ele>815.1</ele>
        <time>2026-05-02T07:23:59Z</time>
      </trkpt>
      <trkpt lat="45.12923" lon="4.61476">
        <ele>815.3</ele>
        <time>2026-05-02T07:24:04Z</time>
      </trkpt>
      <trkpt lat="45.12923" lon="4.61488">
        <ele>814.4</ele>
        <time>2026-05-02T07:24:09Z</time>
      </trkpt>
      <trkpt lat="45.12922" lon="4.615">
        <ele>814</ele>
        <time>2026-05-02T07:24:14Z</time>
      </trkpt>
      <trkpt lat="45.12923" lon="4.61512">
        <ele>812.3</ele>
        <time>2026-05-02T07:24:19Z</time>
      </trkpt>
      <trkpt lat="45.12922" lon="4.6152">
        <ele>811.8</ele>
        <time>2026-05-02T07:24:24Z</time>
      </trkpt>
      <trkpt lat="45.1292" lon="4.61527">
        <ele>811.8</ele>
        <time>2026-05-02T07:24:29Z</time>
      </trkpt>
      <trkpt lat="45.1292" lon="4.61531">
        <ele>811.4</ele>
        <time>2026-05-02T07:24:34Z</time>
      </trkpt>
      <trkpt lat="45.1292" lon="4.61532">
        <ele>811.3</ele>
        <time>2026-05-02T07:24:39Z</time>
      </trkpt>
      <trkpt lat="45.1292" lon="4.61532">
        <ele>811.3</ele>
        <time>2026-05-02T07:24:44Z</time>
      </trkpt>
      <trkpt lat="45.12918" lon="4.61544">
        <ele>810.8</ele>
        <time>2026-05-02T07:24:49Z</time>
      </trkpt>
      <trkpt lat="45.12917" lon="4.61555">
        <ele>809.9</ele>
        <time>2026-05-02T07:24:54Z</time>
      </trkpt>
      <trkpt lat="45.12917" lon="4.61564">
        <ele>809</ele>
        <time>2026-05-02T07:24:59Z</time>
      </trkpt>
      <trkpt lat="45.12916" lon="4.61573">
        <ele>808.4</ele>
        <time>2026-05-02T07:25:04Z</time>
      </trkpt>
      <trkpt lat="45.12913" lon="4.61584">
        <ele>808.7</ele>
        <time>2026-05-02T07:25:09Z</time>
      </trkpt>
      <trkpt lat="45.12911" lon="4.61596">
        <ele>808.5</ele>
        <time>2026-05-02T07:25:14Z</time>
      </trkpt>
      <trkpt lat="45.12912" lon="4.61605">
        <ele>807.2</ele>
        <time>2026-05-02T07:25:19Z</time>
      </trkpt>
      <trkpt lat="45.12912" lon="4.61617">
        <ele>806.2</ele>
        <time>2026-05-02T07:25:24Z</time>
      </trkpt>
      <trkpt lat="45.12911" lon="4.6163">
        <ele>805.4</ele>
        <time>2026-05-02T07:25:29Z</time>
      </trkpt>
      <trkpt lat="45.12912" lon="4.61641">
        <ele>804</ele>
        <time>2026-05-02T07:25:34Z</time>
      </trkpt>
      <trkpt lat="45.12913" lon="4.61652">
        <ele>802.6</ele>
        <time>2026-05-02T07:25:39Z</time>
      </trkpt>
      <trkpt lat="45.12913" lon="4.61658">
        <ele>802.1</ele>
        <time>2026-05-02T07:25:44Z</time>
      </trkpt>
      <trkpt lat="45.12913" lon="4.61663">
        <ele>801.6</ele>
        <time>2026-05-02T07:25:49Z</time>
      </trkpt>
      <trkpt lat="45.12916" lon="4.61674">
        <ele>799.1</ele>
        <time>2026-05-02T07:25:54Z</time>
      </trkpt>
      <trkpt lat="45.12918" lon="4.61685">
        <ele>796.8</ele>
        <time>2026-05-02T07:25:59Z</time>
      </trkpt>
      <trkpt lat="45.1292" lon="4.61695">
        <ele>794.8</ele>
        <time>2026-05-02T07:26:04Z</time>
      </trkpt>
      <trkpt lat="45.12922" lon="4.61707">
        <ele>792.5</ele>
        <time>2026-05-02T07:26:09Z</time>
      </trkpt>
      <trkpt lat="45.12925" lon="4.61717">
        <ele>790.3</ele>
        <time>2026-05-02T07:26:14Z</time>
      </trkpt>
      <trkpt lat="45.12928" lon="4.61727">
        <ele>788.2</ele>
        <time>2026-05-02T07:26:19Z</time>
      </trkpt>
      <trkpt lat="45.12931" lon="4.61738">
        <ele>786</ele>
        <time>2026-05-02T07:26:24Z</time>
      </trkpt>
      <trkpt lat="45.12934" lon="4.61746">
        <ele>784.2</ele>
        <time>2026-05-02T07:26:29Z</time>
      </trkpt>
      <trkpt lat="45.12938" lon="4.61756">
        <ele>782.7</ele>
        <time>2026-05-02T07:26:34Z</time>
      </trkpt>
      <trkpt lat="45.12941" lon="4.61765">
        <ele>781.8</ele>
        <time>2026-05-02T07:26:39Z</time>
      </trkpt>
      <trkpt lat="45.12945" lon="4.61773">
        <ele>780.7</ele>
        <time>2026-05-02T07:26:44Z</time>
      </trkpt>
      <trkpt lat="45.12948" lon="4.61782">
        <ele>779.8</ele>
        <time>2026-05-02T07:26:49Z</time>
      </trkpt>
      <trkpt lat="45.12951" lon="4.61793">
        <ele>778.9</ele>
        <time>2026-05-02T07:26:54Z</time>
      </trkpt>
      <trkpt lat="45.12955" lon="4.61803">
        <ele>777.7</ele>
        <time>2026-05-02T07:26:59Z</time>
      </trkpt>
      <trkpt lat="45.1296" lon="4.61813">
        <ele>776.4</ele>
        <time>2026-05-02T07:27:04Z</time>
      </trkpt>
      <trkpt lat="45.12963" lon="4.61821">
        <ele>775.5</ele>
        <time>2026-05-02T07:27:09Z</time>
      </trkpt>
      <trkpt lat="45.12965" lon="4.61831">
        <ele>774.8</ele>
        <time>2026-05-02T07:27:14Z</time>
      </trkpt>
      <trkpt lat="45.12967" lon="4.61837">
        <ele>774</ele>
        <time>2026-05-02T07:27:19Z</time>
      </trkpt>
      <trkpt lat="45.12967" lon="4.61837">
        <ele>774</ele>
        <time>2026-05-02T07:27:24Z</time>
      </trkpt>
      <trkpt lat="45.12967" lon="4.61839">
        <ele>773.8</ele>
        <time>2026-05-02T07:27:29Z</time>
      </trkpt>
      <trkpt lat="45.1297" lon="4.61847">
        <ele>772.6</ele>
        <time>2026-05-02T07:27:34Z</time>
      </trkpt>
      <trkpt lat="45.12971" lon="4.61852">
        <ele>771.9</ele>
        <time>2026-05-02T07:27:39Z</time>
      </trkpt>
      <trkpt lat="45.12971" lon="4.61857">
        <ele>771.5</ele>
        <time>2026-05-02T07:27:44Z</time>
      </trkpt>
      <trkpt lat="45.12972" lon="4.61864">
        <ele>770.7</ele>
        <time>2026-05-02T07:27:49Z</time>
      </trkpt>
      <trkpt lat="45.1297" lon="4.61868">
        <ele>770.7</ele>
        <time>2026-05-02T07:27:54Z</time>
      </trkpt>
      <trkpt lat="45.12964" lon="4.61867">
        <ele>771.9</ele>
        <time>2026-05-02T07:27:59Z</time>
      </trkpt>
      <trkpt lat="45.12961" lon="4.61862">
        <ele>772.9</ele>
        <time>2026-05-02T07:28:04Z</time>
      </trkpt>
      <trkpt lat="45.12955" lon="4.6186">
        <ele>774.2</ele>
        <time>2026-05-02T07:28:09Z</time>
      </trkpt>
      <trkpt lat="45.12949" lon="4.61857">
        <ele>775.6</ele>
        <time>2026-05-02T07:28:14Z</time>
      </trkpt>
      <trkpt lat="45.12943" lon="4.61856">
        <ele>776.9</ele>
        <time>2026-05-02T07:28:19Z</time>
      </trkpt>
      <trkpt lat="45.12937" lon="4.61856">
        <ele>778</ele>
        <time>2026-05-02T07:28:24Z</time>
      </trkpt>
      <trkpt lat="45.12931" lon="4.61857">
        <ele>779</ele>
        <time>2026-05-02T07:28:29Z</time>
      </trkpt>
      <trkpt lat="45.12925" lon="4.61863">
        <ele>779.6</ele>
        <time>2026-05-02T07:28:34Z</time>
      </trkpt>
      <trkpt lat="45.12919" lon="4.6187">
        <ele>780</ele>
        <time>2026-05-02T07:28:39Z</time>
      </trkpt>
      <trkpt lat="45.12913" lon="4.61877">
        <ele>781.1</ele>
        <time>2026-05-02T07:28:44Z</time>
      </trkpt>
      <trkpt lat="45.12909" lon="4.61885">
        <ele>781.9</ele>
        <time>2026-05-02T07:28:49Z</time>
      </trkpt>
      <trkpt lat="45.12904" lon="4.61892">
        <ele>783.2</ele>
        <time>2026-05-02T07:28:54Z</time>
      </trkpt>
      <trkpt lat="45.12899" lon="4.61899">
        <ele>784.5</ele>
        <time>2026-05-02T07:28:59Z</time>
      </trkpt>
      <trkpt lat="45.12898" lon="4.61903">
        <ele>784.6</ele>
        <time>2026-05-02T07:29:04Z</time>
      </trkpt>
      <trkpt lat="45.12893" lon="4.61911">
        <ele>786</ele>
        <time>2026-05-02T07:29:09Z</time>
      </trkpt>
      <trkpt lat="45.12887" lon="4.61921">
        <ele>787.7</ele>
        <time>2026-05-02T07:29:14Z</time>
      </trkpt>
      <trkpt lat="45.12882" lon="4.61928">
        <ele>789</ele>
        <time>2026-05-02T07:29:19Z</time>
      </trkpt>
      <trkpt lat="45.12878" lon="4.61934">
        <ele>790.1</ele>
        <time>2026-05-02T07:29:24Z</time>
      </trkpt>
      <trkpt lat="45.12872" lon="4.61942">
        <ele>791.8</ele>
        <time>2026-05-02T07:29:29Z</time>
      </trkpt>
      <trkpt lat="45.12868" lon="4.61949">
        <ele>792.8</ele>
        <time>2026-05-02T07:29:34Z</time>
      </trkpt>
      <trkpt lat="45.12863" lon="4.61955">
        <ele>794.3</ele>
        <time>2026-05-02T07:29:39Z</time>
      </trkpt>
      <trkpt lat="45.12859" lon="4.61962">
        <ele>795.4</ele>
        <time>2026-05-02T07:29:44Z</time>
      </trkpt>
      <trkpt lat="45.12854" lon="4.6197">
        <ele>796.8</ele>
        <time>2026-05-02T07:29:49Z</time>
      </trkpt>
      <trkpt lat="45.1285" lon="4.61979">
        <ele>797.7</ele>
        <time>2026-05-02T07:29:54Z</time>
      </trkpt>
      <trkpt lat="45.12848" lon="4.61986">
        <ele>797.9</ele>
        <time>2026-05-02T07:29:59Z</time>
      </trkpt>
      <trkpt lat="45.12845" lon="4.61989">
        <ele>798.9</ele>
        <time>2026-05-02T07:30:04Z</time>
      </trkpt>
      <trkpt lat="45.12846" lon="4.61991">
        <ele>798.3</ele>
        <time>2026-05-02T07:30:09Z</time>
      </trkpt>
      <trkpt lat="45.12843" lon="4.61998">
        <ele>799</ele>
        <time>2026-05-02T07:30:14Z</time>
      </trkpt>
      <trkpt lat="45.1284" lon="4.62003">
        <ele>799.8</ele>
        <time>2026-05-02T07:30:19Z</time>
      </trkpt>
      <trkpt lat="45.12837" lon="4.62012">
        <ele>800.3</ele>
        <time>2026-05-02T07:30:24Z</time>
      </trkpt>
      <trkpt lat="45.12835" lon="4.62022">
        <ele>800.2</ele>
        <time>2026-05-02T07:30:29Z</time>
      </trkpt>
      <trkpt lat="45.12832" lon="4.62031">
        <ele>800.6</ele>
        <time>2026-05-02T07:30:34Z</time>
      </trkpt>
      <trkpt lat="45.1283" lon="4.62039">
        <ele>800.7</ele>
        <time>2026-05-02T07:30:39Z</time>
      </trkpt>
      <trkpt lat="45.12827" lon="4.62048">
        <ele>801.1</ele>
        <time>2026-05-02T07:30:44Z</time>
      </trkpt>
      <trkpt lat="45.12827" lon="4.62059">
        <ele>800</ele>
        <time>2026-05-02T07:30:49Z</time>
      </trkpt>
      <trkpt lat="45.12825" lon="4.62069">
        <ele>799.9</ele>
        <time>2026-05-02T07:30:54Z</time>
      </trkpt>
      <trkpt lat="45.12824" lon="4.62076">
        <ele>799.6</ele>
        <time>2026-05-02T07:30:59Z</time>
      </trkpt>
      <trkpt lat="45.12822" lon="4.62082">
        <ele>799.8</ele>
        <time>2026-05-02T07:31:04Z</time>
      </trkpt>
      <trkpt lat="45.1282" lon="4.62091">
        <ele>799.7</ele>
        <time>2026-05-02T07:31:09Z</time>
      </trkpt>
      <trkpt lat="45.12815" lon="4.62099">
        <ele>800.9</ele>
        <time>2026-05-02T07:31:14Z</time>
      </trkpt>
      <trkpt lat="45.12811" lon="4.62105">
        <ele>801.8</ele>
        <time>2026-05-02T07:31:19Z</time>
      </trkpt>
      <trkpt lat="45.12808" lon="4.62108">
        <ele>802.7</ele>
        <time>2026-05-02T07:31:24Z</time>
      </trkpt>
      <trkpt lat="45.12805" lon="4.62112">
        <ele>803.5</ele>
        <time>2026-05-02T07:31:29Z</time>
      </trkpt>
      <trkpt lat="45.12803" lon="4.62115">
        <ele>803.9</ele>
        <time>2026-05-02T07:31:34Z</time>
      </trkpt>
      <trkpt lat="45.128" lon="4.62119">
        <ele>804.7</ele>
        <time>2026-05-02T07:31:39Z</time>
      </trkpt>
      <trkpt lat="45.12798" lon="4.62124">
        <ele>804.9</ele>
        <time>2026-05-02T07:31:44Z</time>
      </trkpt>
      <trkpt lat="45.12795" lon="4.62128">
        <ele>805.6</ele>
        <time>2026-05-02T07:31:49Z</time>
      </trkpt>
      <trkpt lat="45.12793" lon="4.62132">
        <ele>805.9</ele>
        <time>2026-05-02T07:31:54Z</time>
      </trkpt>
      <trkpt lat="45.1279" lon="4.62136">
        <ele>806.6</ele>
        <time>2026-05-02T07:31:59Z</time>
      </trkpt>
      <trkpt lat="45.12788" lon="4.6214">
        <ele>806.9</ele>
        <time>2026-05-02T07:32:04Z</time>
      </trkpt>
      <trkpt lat="45.12786" lon="4.62141">
        <ele>807.6</ele>
        <time>2026-05-02T07:32:09Z</time>
      </trkpt>
      <trkpt lat="45.1278" lon="4.62145">
        <ele>809.4</ele>
        <time>2026-05-02T07:32:14Z</time>
      </trkpt>
      <trkpt lat="45.12777" lon="4.62147">
        <ele>810.3</ele>
        <time>2026-05-02T07:32:19Z</time>
      </trkpt>
      <trkpt lat="45.12774" lon="4.6215">
        <ele>811.1</ele>
        <time>2026-05-02T07:32:24Z</time>
      </trkpt>
      <trkpt lat="45.12772" lon="4.62154">
        <ele>811.4</ele>
        <time>2026-05-02T07:32:29Z</time>
      </trkpt>
      <trkpt lat="45.12771" lon="4.62158">
        <ele>811.3</ele>
        <time>2026-05-02T07:32:34Z</time>
      </trkpt>
      <trkpt lat="45.12768" lon="4.62161">
        <ele>812</ele>
        <time>2026-05-02T07:32:39Z</time>
      </trkpt>
      <trkpt lat="45.12765" lon="4.62166">
        <ele>812.5</ele>
        <time>2026-05-02T07:32:44Z</time>
      </trkpt>
      <trkpt lat="45.12763" lon="4.62171">
        <ele>812.5</ele>
        <time>2026-05-02T07:32:49Z</time>
      </trkpt>
      <trkpt lat="45.12761" lon="4.62175">
        <ele>812.5</ele>
        <time>2026-05-02T07:32:54Z</time>
      </trkpt>
      <trkpt lat="45.1276" lon="4.62181">
        <ele>811.9</ele>
        <time>2026-05-02T07:32:59Z</time>
      </trkpt>
      <trkpt lat="45.12757" lon="4.62187">
        <ele>812</ele>
        <time>2026-05-02T07:33:04Z</time>
      </trkpt>
      <trkpt lat="45.12754" lon="4.62193">
        <ele>812.1</ele>
        <time>2026-05-02T07:33:09Z</time>
      </trkpt>
      <trkpt lat="45.12751" lon="4.62199">
        <ele>812.2</ele>
        <time>2026-05-02T07:33:14Z</time>
      </trkpt>
      <trkpt lat="45.12748" lon="4.62205">
        <ele>812.3</ele>
        <time>2026-05-02T07:33:19Z</time>
      </trkpt>
      <trkpt lat="45.12747" lon="4.6221">
        <ele>811.9</ele>
        <time>2026-05-02T07:33:24Z</time>
      </trkpt>
      <trkpt lat="45.12747" lon="4.6221">
        <ele>811.9</ele>
        <time>2026-05-02T07:33:29Z</time>
      </trkpt>
      <trkpt lat="45.12745" lon="4.62214">
        <ele>812</ele>
        <time>2026-05-02T07:33:34Z</time>
      </trkpt>
      <trkpt lat="45.1274" lon="4.62221">
        <ele>812.6</ele>
        <time>2026-05-02T07:33:39Z</time>
      </trkpt>
      <trkpt lat="45.12733" lon="4.62227">
        <ele>814.2</ele>
        <time>2026-05-02T07:33:44Z</time>
      </trkpt>
      <trkpt lat="45.12732" lon="4.62233">
        <ele>813.4</ele>
        <time>2026-05-02T07:33:49Z</time>
      </trkpt>
      <trkpt lat="45.12731" lon="4.62235">
        <ele>813.4</ele>
        <time>2026-05-02T07:33:54Z</time>
      </trkpt>
      <trkpt lat="45.12725" lon="4.62239">
        <ele>814.8</ele>
        <time>2026-05-02T07:33:59Z</time>
      </trkpt>
      <trkpt lat="45.12721" lon="4.62244">
        <ele>815.3</ele>
        <time>2026-05-02T07:34:04Z</time>
      </trkpt>
      <trkpt lat="45.12716" lon="4.6225">
        <ele>815.8</ele>
        <time>2026-05-02T07:34:09Z</time>
      </trkpt>
      <trkpt lat="45.1271" lon="4.62257">
        <ele>815.9</ele>
        <time>2026-05-02T07:34:14Z</time>
      </trkpt>
      <trkpt lat="45.12706" lon="4.62264">
        <ele>815.3</ele>
        <time>2026-05-02T07:34:19Z</time>
      </trkpt>
      <trkpt lat="45.127" lon="4.62271">
        <ele>815.3</ele>
        <time>2026-05-02T07:34:24Z</time>
      </trkpt>
      <trkpt lat="45.12696" lon="4.62279">
        <ele>814.2</ele>
        <time>2026-05-02T07:34:29Z</time>
      </trkpt>
      <trkpt lat="45.12691" lon="4.62286">
        <ele>813.8</ele>
        <time>2026-05-02T07:34:34Z</time>
      </trkpt>
      <trkpt lat="45.12686" lon="4.62294">
        <ele>813</ele>
        <time>2026-05-02T07:34:39Z</time>
      </trkpt>
      <trkpt lat="45.12682" lon="4.62303">
        <ele>811.6</ele>
        <time>2026-05-02T07:34:44Z</time>
      </trkpt>
      <trkpt lat="45.12679" lon="4.62312">
        <ele>809.8</ele>
        <time>2026-05-02T07:34:49Z</time>
      </trkpt>
      <trkpt lat="45.12676" lon="4.62321">
        <ele>808</ele>
        <time>2026-05-02T07:34:54Z</time>
      </trkpt>
      <trkpt lat="45.12673" lon="4.6233">
        <ele>806.1</ele>
        <time>2026-05-02T07:34:59Z</time>
      </trkpt>
      <trkpt lat="45.1267" lon="4.62339">
        <ele>805</ele>
        <time>2026-05-02T07:35:04Z</time>
      </trkpt>
      <trkpt lat="45.12665" lon="4.62347">
        <ele>805.3</ele>
        <time>2026-05-02T07:35:09Z</time>
      </trkpt>
      <trkpt lat="45.12662" lon="4.62354">
        <ele>805.1</ele>
        <time>2026-05-02T07:35:14Z</time>
      </trkpt>
      <trkpt lat="45.12658" lon="4.62361">
        <ele>805.2</ele>
        <time>2026-05-02T07:35:19Z</time>
      </trkpt>
      <trkpt lat="45.12652" lon="4.62368">
        <ele>805.9</ele>
        <time>2026-05-02T07:35:24Z</time>
      </trkpt>
      <trkpt lat="45.12646" lon="4.62375">
        <ele>806.6</ele>
        <time>2026-05-02T07:35:29Z</time>
      </trkpt>
      <trkpt lat="45.12641" lon="4.62384">
        <ele>806.4</ele>
        <time>2026-05-02T07:35:34Z</time>
      </trkpt>
      <trkpt lat="45.12637" lon="4.62391">
        <ele>806.3</ele>
        <time>2026-05-02T07:35:39Z</time>
      </trkpt>
      <trkpt lat="45.12634" lon="4.62398">
        <ele>805.8</ele>
        <time>2026-05-02T07:35:44Z</time>
      </trkpt>
      <trkpt lat="45.1263" lon="4.62404">
        <ele>805.7</ele>
        <time>2026-05-02T07:35:49Z</time>
      </trkpt>
      <trkpt lat="45.12625" lon="4.6241">
        <ele>805.9</ele>
        <time>2026-05-02T07:35:54Z</time>
      </trkpt>
      <trkpt lat="45.12621" lon="4.62414">
        <ele>806.2</ele>
        <time>2026-05-02T07:35:59Z</time>
      </trkpt>
      <trkpt lat="45.12618" lon="4.62421">
        <ele>805.6</ele>
        <time>2026-05-02T07:36:04Z</time>
      </trkpt>
      <trkpt lat="45.12617" lon="4.62428">
        <ele>804.5</ele>
        <time>2026-05-02T07:36:09Z</time>
      </trkpt>
      <trkpt lat="45.12616" lon="4.62435">
        <ele>803.5</ele>
        <time>2026-05-02T07:36:14Z</time>
      </trkpt>
      <trkpt lat="45.12615" lon="4.62444">
        <ele>802</ele>
        <time>2026-05-02T07:36:19Z</time>
      </trkpt>
      <trkpt lat="45.12612" lon="4.62453">
        <ele>801</ele>
        <time>2026-05-02T07:36:24Z</time>
      </trkpt>
      <trkpt lat="45.12609" lon="4.6246">
        <ele>800.4</ele>
        <time>2026-05-02T07:36:29Z</time>
      </trkpt>
      <trkpt lat="45.12605" lon="4.62468">
        <ele>799.7</ele>
        <time>2026-05-02T07:36:34Z</time>
      </trkpt>
      <trkpt lat="45.12602" lon="4.62477">
        <ele>798.6</ele>
        <time>2026-05-02T07:36:39Z</time>
      </trkpt>
      <trkpt lat="45.12598" lon="4.62485">
        <ele>797.9</ele>
        <time>2026-05-02T07:36:44Z</time>
      </trkpt>
      <trkpt lat="45.12593" lon="4.62494">
        <ele>797.2</ele>
        <time>2026-05-02T07:36:49Z</time>
      </trkpt>
      <trkpt lat="45.1259" lon="4.62501">
        <ele>796.3</ele>
        <time>2026-05-02T07:36:54Z</time>
      </trkpt>
      <trkpt lat="45.12585" lon="4.62508">
        <ele>795.4</ele>
        <time>2026-05-02T07:36:59Z</time>
      </trkpt>
      <trkpt lat="45.12582" lon="4.62516">
        <ele>793.2</ele>
        <time>2026-05-02T07:37:04Z</time>
      </trkpt>
      <trkpt lat="45.12579" lon="4.62525">
        <ele>790.2</ele>
        <time>2026-05-02T07:37:09Z</time>
      </trkpt>
      <trkpt lat="45.12576" lon="4.62535">
        <ele>787</ele>
        <time>2026-05-02T07:37:14Z</time>
      </trkpt>
      <trkpt lat="45.12574" lon="4.62544">
        <ele>784.2</ele>
        <time>2026-05-02T07:37:19Z</time>
      </trkpt>
      <trkpt lat="45.12571" lon="4.62553">
        <ele>781.2</ele>
        <time>2026-05-02T07:37:24Z</time>
      </trkpt>
      <trkpt lat="45.12569" lon="4.62561">
        <ele>778.7</ele>
        <time>2026-05-02T07:37:29Z</time>
      </trkpt>
      <trkpt lat="45.12564" lon="4.62571">
        <ele>775.2</ele>
        <time>2026-05-02T07:37:34Z</time>
      </trkpt>
      <trkpt lat="45.1256" lon="4.62581">
        <ele>771.9</ele>
        <time>2026-05-02T07:37:39Z</time>
      </trkpt>
      <trkpt lat="45.12556" lon="4.62588">
        <ele>769.2</ele>
        <time>2026-05-02T07:37:44Z</time>
      </trkpt>
      <trkpt lat="45.12552" lon="4.62595">
        <ele>766.4</ele>
        <time>2026-05-02T07:37:49Z</time>
      </trkpt>
      <trkpt lat="45.12547" lon="4.62602">
        <ele>763.4</ele>
        <time>2026-05-02T07:37:54Z</time>
      </trkpt>
      <trkpt lat="45.12543" lon="4.62608">
        <ele>760.9</ele>
        <time>2026-05-02T07:37:59Z</time>
      </trkpt>
      <trkpt lat="45.12538" lon="4.62613">
        <ele>758.6</ele>
        <time>2026-05-02T07:38:04Z</time>
      </trkpt>
      <trkpt lat="45.12534" lon="4.62617">
        <ele>756.7</ele>
        <time>2026-05-02T07:38:09Z</time>
      </trkpt>
      <trkpt lat="45.12529" lon="4.62619">
        <ele>755.4</ele>
        <time>2026-05-02T07:38:14Z</time>
      </trkpt>
      <trkpt lat="45.12523" lon="4.62622">
        <ele>753.6</ele>
        <time>2026-05-02T07:38:19Z</time>
      </trkpt>
      <trkpt lat="45.12518" lon="4.62624">
        <ele>752.2</ele>
        <time>2026-05-02T07:38:24Z</time>
      </trkpt>
      <trkpt lat="45.12516" lon="4.62627">
        <ele>750.9</ele>
        <time>2026-05-02T07:38:29Z</time>
      </trkpt>
      <trkpt lat="45.12515" lon="4.62628">
        <ele>750.4</ele>
        <time>2026-05-02T07:38:34Z</time>
      </trkpt>
      <trkpt lat="45.12515" lon="4.62628">
        <ele>750.4</ele>
        <time>2026-05-02T07:38:39Z</time>
      </trkpt>
      <trkpt lat="45.12515" lon="4.62628">
        <ele>750.4</ele>
        <time>2026-05-02T07:38:44Z</time>
      </trkpt>
      <trkpt lat="45.12507" lon="4.62635">
        <ele>747</ele>
        <time>2026-05-02T07:38:49Z</time>
      </trkpt>
      <trkpt lat="45.12504" lon="4.62636">
        <ele>746.2</ele>
        <time>2026-05-02T07:38:54Z</time>
      </trkpt>
      <trkpt lat="45.12502" lon="4.62637">
        <ele>745.6</ele>
        <time>2026-05-02T07:38:59Z</time>
      </trkpt>
      <trkpt lat="45.12499" lon="4.62638">
        <ele>744.9</ele>
        <time>2026-05-02T07:39:04Z</time>
      </trkpt>
      <trkpt lat="45.12495" lon="4.62638">
        <ele>744.5</ele>
        <time>2026-05-02T07:39:09Z</time>
      </trkpt>
      <trkpt lat="45.12492" lon="4.62639">
        <ele>743.9</ele>
        <time>2026-05-02T07:39:14Z</time>
      </trkpt>
      <trkpt lat="45.12489" lon="4.62638">
        <ele>743.9</ele>
        <time>2026-05-02T07:39:19Z</time>
      </trkpt>
      <trkpt lat="45.12486" lon="4.62638">
        <ele>743.6</ele>
        <time>2026-05-02T07:39:24Z</time>
      </trkpt>
      <trkpt lat="45.12485" lon="4.62637">
        <ele>743.8</ele>
        <time>2026-05-02T07:39:29Z</time>
      </trkpt>
      <trkpt lat="45.1248" lon="4.62639">
        <ele>742.7</ele>
        <time>2026-05-02T07:39:34Z</time>
      </trkpt>
      <trkpt lat="45.12478" lon="4.62643">
        <ele>741.3</ele>
        <time>2026-05-02T07:39:39Z</time>
      </trkpt>
      <trkpt lat="45.12477" lon="4.62644">
        <ele>740.9</ele>
        <time>2026-05-02T07:39:44Z</time>
      </trkpt>
      <trkpt lat="45.12473" lon="4.62644">
        <ele>740.5</ele>
        <time>2026-05-02T07:39:49Z</time>
      </trkpt>
      <trkpt lat="45.12471" lon="4.62644">
        <ele>740.4</ele>
        <time>2026-05-02T07:39:54Z</time>
      </trkpt>
      <trkpt lat="45.12471" lon="4.62644">
        <ele>740.4</ele>
        <time>2026-05-02T07:39:59Z</time>
      </trkpt>
      <trkpt lat="45.12471" lon="4.62644">
        <ele>740.4</ele>
        <time>2026-05-02T07:40:04Z</time>
      </trkpt>
      <trkpt lat="45.12461" lon="4.62643">
        <ele>739.8</ele>
        <time>2026-05-02T07:40:09Z</time>
      </trkpt>
      <trkpt lat="45.12458" lon="4.62644">
        <ele>739.2</ele>
        <time>2026-05-02T07:40:14Z</time>
      </trkpt>
      <trkpt lat="45.12456" lon="4.62648">
        <ele>738</ele>
        <time>2026-05-02T07:40:19Z</time>
      </trkpt>
      <trkpt lat="45.12456" lon="4.62648">
        <ele>738</ele>
        <time>2026-05-02T07:40:24Z</time>
      </trkpt>
      <trkpt lat="45.1245" lon="4.62648">
        <ele>737.5</ele>
        <time>2026-05-02T07:40:29Z</time>
      </trkpt>
      <trkpt lat="45.12447" lon="4.62648">
        <ele>737.2</ele>
        <time>2026-05-02T07:40:34Z</time>
      </trkpt>
      <trkpt lat="45.12443" lon="4.6265">
        <ele>736.4</ele>
        <time>2026-05-02T07:40:39Z</time>
      </trkpt>
      <trkpt lat="45.1244" lon="4.62653">
        <ele>735.5</ele>
        <time>2026-05-02T07:40:44Z</time>
      </trkpt>
      <trkpt lat="45.12436" lon="4.62655">
        <ele>734.7</ele>
        <time>2026-05-02T07:40:49Z</time>
      </trkpt>
      <trkpt lat="45.12432" lon="4.62656">
        <ele>734.2</ele>
        <time>2026-05-02T07:40:54Z</time>
      </trkpt>
      <trkpt lat="45.12428" lon="4.62656">
        <ele>733.9</ele>
        <time>2026-05-02T07:40:59Z</time>
      </trkpt>
      <trkpt lat="45.12424" lon="4.62655">
        <ele>733.9</ele>
        <time>2026-05-02T07:41:04Z</time>
      </trkpt>
      <trkpt lat="45.1242" lon="4.62653">
        <ele>734</ele>
        <time>2026-05-02T07:41:09Z</time>
      </trkpt>
      <trkpt lat="45.12417" lon="4.62653">
        <ele>733.8</ele>
        <time>2026-05-02T07:41:14Z</time>
      </trkpt>
      <trkpt lat="45.12412" lon="4.62653">
        <ele>735.6</ele>
        <time>2026-05-02T07:41:19Z</time>
      </trkpt>
      <trkpt lat="45.12407" lon="4.62653">
        <ele>737.4</ele>
        <time>2026-05-02T07:41:24Z</time>
      </trkpt>
      <trkpt lat="45.12403" lon="4.62654">
        <ele>738.8</ele>
        <time>2026-05-02T07:41:29Z</time>
      </trkpt>
      <trkpt lat="45.12398" lon="4.62657">
        <ele>740.1</ele>
        <time>2026-05-02T07:41:34Z</time>
      </trkpt>
      <trkpt lat="45.12393" lon="4.62657">
        <ele>742</ele>
        <time>2026-05-02T07:41:39Z</time>
      </trkpt>
      <trkpt lat="45.12387" lon="4.62656">
        <ele>744.5</ele>
        <time>2026-05-02T07:41:44Z</time>
      </trkpt>
      <trkpt lat="45.1238" lon="4.62656">
        <ele>747.2</ele>
        <time>2026-05-02T07:41:49Z</time>
      </trkpt>
      <trkpt lat="45.12374" lon="4.62655">
        <ele>749.6</ele>
        <time>2026-05-02T07:41:54Z</time>
      </trkpt>
      <trkpt lat="45.12367" lon="4.62655">
        <ele>752.3</ele>
        <time>2026-05-02T07:41:59Z</time>
      </trkpt>
      <trkpt lat="45.12361" lon="4.62656">
        <ele>754.5</ele>
        <time>2026-05-02T07:42:04Z</time>
      </trkpt>
      <trkpt lat="45.12355" lon="4.62656">
        <ele>756.7</ele>
        <time>2026-05-02T07:42:09Z</time>
      </trkpt>
      <trkpt lat="45.12349" lon="4.62656">
        <ele>759</ele>
        <time>2026-05-02T07:42:14Z</time>
      </trkpt>
      <trkpt lat="45.12342" lon="4.62659">
        <ele>761.4</ele>
        <time>2026-05-02T07:42:19Z</time>
      </trkpt>
      <trkpt lat="45.12338" lon="4.62668">
        <ele>762</ele>
        <time>2026-05-02T07:42:24Z</time>
      </trkpt>
      <trkpt lat="45.12337" lon="4.62677">
        <ele>761.1</ele>
        <time>2026-05-02T07:42:29Z</time>
      </trkpt>
      <trkpt lat="45.12336" lon="4.62687">
        <ele>760</ele>
        <time>2026-05-02T07:42:34Z</time>
      </trkpt>
      <trkpt lat="45.12338" lon="4.62697">
        <ele>757.8</ele>
        <time>2026-05-02T07:42:39Z</time>
      </trkpt>
      <trkpt lat="45.12339" lon="4.62706">
        <ele>756.1</ele>
        <time>2026-05-02T07:42:44Z</time>
      </trkpt>
      <trkpt lat="45.12342" lon="4.62715">
        <ele>753.7</ele>
        <time>2026-05-02T07:42:49Z</time>
      </trkpt>
      <trkpt lat="45.12344" lon="4.62725">
        <ele>751.5</ele>
        <time>2026-05-02T07:42:54Z</time>
      </trkpt>
      <trkpt lat="45.12346" lon="4.62734">
        <ele>749.4</ele>
        <time>2026-05-02T07:42:59Z</time>
      </trkpt>
      <trkpt lat="45.12348" lon="4.62744">
        <ele>747.2</ele>
        <time>2026-05-02T07:43:04Z</time>
      </trkpt>
      <trkpt lat="45.1235" lon="4.62753">
        <ele>744.9</ele>
        <time>2026-05-02T07:43:09Z</time>
      </trkpt>
      <trkpt lat="45.12353" lon="4.62758">
        <ele>742.5</ele>
        <time>2026-05-02T07:43:14Z</time>
      </trkpt>
      <trkpt lat="45.12357" lon="4.62764">
        <ele>739.6</ele>
        <time>2026-05-02T07:43:19Z</time>
      </trkpt>
      <trkpt lat="45.12362" lon="4.62773">
        <ele>735.9</ele>
        <time>2026-05-02T07:43:24Z</time>
      </trkpt>
      <trkpt lat="45.12366" lon="4.62782">
        <ele>732.6</ele>
        <time>2026-05-02T07:43:29Z</time>
      </trkpt>
      <trkpt lat="45.12367" lon="4.62785">
        <ele>731.7</ele>
        <time>2026-05-02T07:43:34Z</time>
      </trkpt>
      <trkpt lat="45.12366" lon="4.62787">
        <ele>731.6</ele>
        <time>2026-05-02T07:43:39Z</time>
      </trkpt>
      <trkpt lat="45.12366" lon="4.62787">
        <ele>731.6</ele>
        <time>2026-05-02T07:43:44Z</time>
      </trkpt>
      <trkpt lat="45.12366" lon="4.62792">
        <ele>730.5</ele>
        <time>2026-05-02T07:43:49Z</time>
      </trkpt>
      <trkpt lat="45.12363" lon="4.62799">
        <ele>729.8</ele>
        <time>2026-05-02T07:43:54Z</time>
      </trkpt>
      <trkpt lat="45.12359" lon="4.62804">
        <ele>729.8</ele>
        <time>2026-05-02T07:43:59Z</time>
      </trkpt>
      <trkpt lat="45.12354" lon="4.62806">
        <ele>730.6</ele>
        <time>2026-05-02T07:44:04Z</time>
      </trkpt>
      <trkpt lat="45.12347" lon="4.62808">
        <ele>731.9</ele>
        <time>2026-05-02T07:44:09Z</time>
      </trkpt>
      <trkpt lat="45.12341" lon="4.62811">
        <ele>732.6</ele>
        <time>2026-05-02T07:44:14Z</time>
      </trkpt>
      <trkpt lat="45.12335" lon="4.62816">
        <ele>732.6</ele>
        <time>2026-05-02T07:44:19Z</time>
      </trkpt>
      <trkpt lat="45.12333" lon="4.62821">
        <ele>731.6</ele>
        <time>2026-05-02T07:44:24Z</time>
      </trkpt>
      <trkpt lat="45.1233" lon="4.62827">
        <ele>730</ele>
        <time>2026-05-02T07:44:29Z</time>
      </trkpt>
      <trkpt lat="45.12327" lon="4.62835">
        <ele>727.9</ele>
        <time>2026-05-02T07:44:34Z</time>
      </trkpt>
      <trkpt lat="45.12322" lon="4.62843">
        <ele>725.8</ele>
        <time>2026-05-02T07:44:39Z</time>
      </trkpt>
      <trkpt lat="45.12317" lon="4.6285">
        <ele>724.1</ele>
        <time>2026-05-02T07:44:44Z</time>
      </trkpt>
      <trkpt lat="45.12317" lon="4.62854">
        <ele>722.9</ele>
        <time>2026-05-02T07:44:49Z</time>
      </trkpt>
      <trkpt lat="45.12316" lon="4.62858">
        <ele>721.8</ele>
        <time>2026-05-02T07:44:54Z</time>
      </trkpt>
      <trkpt lat="45.12314" lon="4.62861">
        <ele>721.2</ele>
        <time>2026-05-02T07:44:59Z</time>
      </trkpt>
      <trkpt lat="45.12313" lon="4.62861">
        <ele>721.3</ele>
        <time>2026-05-02T07:45:04Z</time>
      </trkpt>
      <trkpt lat="45.12309" lon="4.62862">
        <ele>721.5</ele>
        <time>2026-05-02T07:45:09Z</time>
      </trkpt>
      <trkpt lat="45.12304" lon="4.62864">
        <ele>721.5</ele>
        <time>2026-05-02T07:45:14Z</time>
      </trkpt>
      <trkpt lat="45.12297" lon="4.62867">
        <ele>721.6</ele>
        <time>2026-05-02T07:45:19Z</time>
      </trkpt>
      <trkpt lat="45.12292" lon="4.62868">
        <ele>721.9</ele>
        <time>2026-05-02T07:45:24Z</time>
      </trkpt>
      <trkpt lat="45.12286" lon="4.62867">
        <ele>722.9</ele>
        <time>2026-05-02T07:45:29Z</time>
      </trkpt>
      <trkpt lat="45.12281" lon="4.62866">
        <ele>723.8</ele>
        <time>2026-05-02T07:45:34Z</time>
      </trkpt>
      <trkpt lat="45.12274" lon="4.62866">
        <ele>724.6</ele>
        <time>2026-05-02T07:45:39Z</time>
      </trkpt>
      <trkpt lat="45.12268" lon="4.62867">
        <ele>725.1</ele>
        <time>2026-05-02T07:45:44Z</time>
      </trkpt>
      <trkpt lat="45.1226" lon="4.62866">
        <ele>726.3</ele>
        <time>2026-05-02T07:45:49Z</time>
      </trkpt>
      <trkpt lat="45.12254" lon="4.62866">
        <ele>727</ele>
        <time>2026-05-02T07:45:54Z</time>
      </trkpt>
      <trkpt lat="45.12247" lon="4.62866">
        <ele>728.2</ele>
        <time>2026-05-02T07:45:59Z</time>
      </trkpt>
      <trkpt lat="45.1224" lon="4.62864">
        <ele>730.3</ele>
        <time>2026-05-02T07:46:04Z</time>
      </trkpt>
      <trkpt lat="45.12234" lon="4.62861">
        <ele>732.1</ele>
        <time>2026-05-02T07:46:09Z</time>
      </trkpt>
      <trkpt lat="45.12227" lon="4.62859">
        <ele>734</ele>
        <time>2026-05-02T07:46:14Z</time>
      </trkpt>
      <trkpt lat="45.12221" lon="4.62857">
        <ele>735.7</ele>
        <time>2026-05-02T07:46:19Z</time>
      </trkpt>
      <trkpt lat="45.12215" lon="4.62853">
        <ele>737.5</ele>
        <time>2026-05-02T07:46:24Z</time>
      </trkpt>
      <trkpt lat="45.12211" lon="4.62851">
        <ele>738.6</ele>
        <time>2026-05-02T07:46:29Z</time>
      </trkpt>
      <trkpt lat="45.12204" lon="4.62851">
        <ele>740.2</ele>
        <time>2026-05-02T07:46:34Z</time>
      </trkpt>
      <trkpt lat="45.12199" lon="4.62852">
        <ele>741.2</ele>
        <time>2026-05-02T07:46:39Z</time>
      </trkpt>
      <trkpt lat="45.12195" lon="4.62851">
        <ele>742.1</ele>
        <time>2026-05-02T07:46:44Z</time>
      </trkpt>
      <trkpt lat="45.1219" lon="4.62849">
        <ele>743.4</ele>
        <time>2026-05-02T07:46:49Z</time>
      </trkpt>
      <trkpt lat="45.12186" lon="4.62847">
        <ele>744.4</ele>
        <time>2026-05-02T07:46:54Z</time>
      </trkpt>
      <trkpt lat="45.12181" lon="4.62846">
        <ele>745.5</ele>
        <time>2026-05-02T07:46:59Z</time>
      </trkpt>
      <trkpt lat="45.12175" lon="4.62843">
        <ele>746.9</ele>
        <time>2026-05-02T07:47:04Z</time>
      </trkpt>
      <trkpt lat="45.12171" lon="4.62842">
        <ele>747.8</ele>
        <time>2026-05-02T07:47:09Z</time>
      </trkpt>
      <trkpt lat="45.12165" lon="4.62841">
        <ele>749.3</ele>
        <time>2026-05-02T07:47:14Z</time>
      </trkpt>
      <trkpt lat="45.12159" lon="4.6284">
        <ele>751.5</ele>
        <time>2026-05-02T07:47:19Z</time>
      </trkpt>
      <trkpt lat="45.12155" lon="4.6284">
        <ele>752.9</ele>
        <time>2026-05-02T07:47:24Z</time>
      </trkpt>
      <trkpt lat="45.12151" lon="4.62839">
        <ele>754.4</ele>
        <time>2026-05-02T07:47:29Z</time>
      </trkpt>
      <trkpt lat="45.12147" lon="4.62838">
        <ele>755.9</ele>
        <time>2026-05-02T07:47:34Z</time>
      </trkpt>
      <trkpt lat="45.12143" lon="4.62836">
        <ele>757.4</ele>
        <time>2026-05-02T07:47:39Z</time>
      </trkpt>
      <trkpt lat="45.12139" lon="4.62832">
        <ele>759.2</ele>
        <time>2026-05-02T07:47:44Z</time>
      </trkpt>
      <trkpt lat="45.12135" lon="4.62831">
        <ele>760.9</ele>
        <time>2026-05-02T07:47:49Z</time>
      </trkpt>
      <trkpt lat="45.12131" lon="4.6283">
        <ele>762.5</ele>
        <time>2026-05-02T07:47:54Z</time>
      </trkpt>
      <trkpt lat="45.12127" lon="4.62829">
        <ele>764.1</ele>
        <time>2026-05-02T07:47:59Z</time>
      </trkpt>
      <trkpt lat="45.12124" lon="4.62827">
        <ele>765.6</ele>
        <time>2026-05-02T07:48:04Z</time>
      </trkpt>
      <trkpt lat="45.1212" lon="4.62824">
        <ele>767.6</ele>
        <time>2026-05-02T07:48:09Z</time>
      </trkpt>
      <trkpt lat="45.12116" lon="4.62823">
        <ele>769.2</ele>
        <time>2026-05-02T07:48:14Z</time>
      </trkpt>
      <trkpt lat="45.12111" lon="4.62825">
        <ele>770.6</ele>
        <time>2026-05-02T07:48:19Z</time>
      </trkpt>
      <trkpt lat="45.12106" lon="4.62831">
        <ele>771.3</ele>
        <time>2026-05-02T07:48:24Z</time>
      </trkpt>
      <trkpt lat="45.12101" lon="4.62839">
        <ele>772.2</ele>
        <time>2026-05-02T07:48:29Z</time>
      </trkpt>
      <trkpt lat="45.121" lon="4.62848">
        <ele>771.9</ele>
        <time>2026-05-02T07:48:34Z</time>
      </trkpt>
      <trkpt lat="45.121" lon="4.62858">
        <ele>771.2</ele>
        <time>2026-05-02T07:48:39Z</time>
      </trkpt>
      <trkpt lat="45.12104" lon="4.62869">
        <ele>769</ele>
        <time>2026-05-02T07:48:44Z</time>
      </trkpt>
      <trkpt lat="45.12105" lon="4.6288">
        <ele>767.9</ele>
        <time>2026-05-02T07:48:49Z</time>
      </trkpt>
      <trkpt lat="45.12106" lon="4.62888">
        <ele>767</ele>
        <time>2026-05-02T07:48:54Z</time>
      </trkpt>
      <trkpt lat="45.12108" lon="4.62898">
        <ele>765.6</ele>
        <time>2026-05-02T07:48:59Z</time>
      </trkpt>
      <trkpt lat="45.12112" lon="4.62907">
        <ele>763.7</ele>
        <time>2026-05-02T07:49:04Z</time>
      </trkpt>
      <trkpt lat="45.12114" lon="4.62917">
        <ele>762.4</ele>
        <time>2026-05-02T07:49:09Z</time>
      </trkpt>
      <trkpt lat="45.12116" lon="4.62926">
        <ele>761.3</ele>
        <time>2026-05-02T07:49:14Z</time>
      </trkpt>
      <trkpt lat="45.12119" lon="4.62935">
        <ele>759.9</ele>
        <time>2026-05-02T07:49:19Z</time>
      </trkpt>
      <trkpt lat="45.1212" lon="4.62944">
        <ele>759.1</ele>
        <time>2026-05-02T07:49:24Z</time>
      </trkpt>
      <trkpt lat="45.12121" lon="4.62953">
        <ele>758.3</ele>
        <time>2026-05-02T07:49:29Z</time>
      </trkpt>
      <trkpt lat="45.12124" lon="4.62963">
        <ele>757</ele>
        <time>2026-05-02T07:49:34Z</time>
      </trkpt>
      <trkpt lat="45.12126" lon="4.62972">
        <ele>756.1</ele>
        <time>2026-05-02T07:49:39Z</time>
      </trkpt>
      <trkpt lat="45.12126" lon="4.62983">
        <ele>755.6</ele>
        <time>2026-05-02T07:49:44Z</time>
      </trkpt>
      <trkpt lat="45.12124" lon="4.62991">
        <ele>755.7</ele>
        <time>2026-05-02T07:49:49Z</time>
      </trkpt>
      <trkpt lat="45.12123" lon="4.63001">
        <ele>755.4</ele>
        <time>2026-05-02T07:49:54Z</time>
      </trkpt>
      <trkpt lat="45.12121" lon="4.6301">
        <ele>755.2</ele>
        <time>2026-05-02T07:49:59Z</time>
      </trkpt>
      <trkpt lat="45.1212" lon="4.6302">
        <ele>754.7</ele>
        <time>2026-05-02T07:50:04Z</time>
      </trkpt>
      <trkpt lat="45.12118" lon="4.63031">
        <ele>754.3</ele>
        <time>2026-05-02T07:50:09Z</time>
      </trkpt>
      <trkpt lat="45.12116" lon="4.63041">
        <ele>754</ele>
        <time>2026-05-02T07:50:14Z</time>
      </trkpt>
      <trkpt lat="45.12114" lon="4.6305">
        <ele>753.7</ele>
        <time>2026-05-02T07:50:19Z</time>
      </trkpt>
      <trkpt lat="45.12112" lon="4.63057">
        <ele>753.5</ele>
        <time>2026-05-02T07:50:24Z</time>
      </trkpt>
      <trkpt lat="45.12109" lon="4.63066">
        <ele>753.3</ele>
        <time>2026-05-02T07:50:29Z</time>
      </trkpt>
      <trkpt lat="45.12105" lon="4.63075">
        <ele>753.3</ele>
        <time>2026-05-02T07:50:34Z</time>
      </trkpt>
      <trkpt lat="45.12103" lon="4.63083">
        <ele>753</ele>
        <time>2026-05-02T07:50:39Z</time>
      </trkpt>
      <trkpt lat="45.12099" lon="4.63089">
        <ele>752.8</ele>
        <time>2026-05-02T07:50:44Z</time>
      </trkpt>
      <trkpt lat="45.12094" lon="4.63098">
        <ele>752.2</ele>
        <time>2026-05-02T07:50:49Z</time>
      </trkpt>
      <trkpt lat="45.1209" lon="4.63106">
        <ele>751.7</ele>
        <time>2026-05-02T07:50:54Z</time>
      </trkpt>
      <trkpt lat="45.12086" lon="4.63111">
        <ele>751.6</ele>
        <time>2026-05-02T07:50:59Z</time>
      </trkpt>
      <trkpt lat="45.12082" lon="4.63114">
        <ele>751.8</ele>
        <time>2026-05-02T07:51:04Z</time>
      </trkpt>
      <trkpt lat="45.12079" lon="4.6312">
        <ele>751.3</ele>
        <time>2026-05-02T07:51:09Z</time>
      </trkpt>
      <trkpt lat="45.12077" lon="4.63128">
        <ele>750.5</ele>
        <time>2026-05-02T07:51:14Z</time>
      </trkpt>
      <trkpt lat="45.12076" lon="4.63139">
        <ele>749</ele>
        <time>2026-05-02T07:51:19Z</time>
      </trkpt>
      <trkpt lat="45.12075" lon="4.63151">
        <ele>747.5</ele>
        <time>2026-05-02T07:51:24Z</time>
      </trkpt>
      <trkpt lat="45.12072" lon="4.63164">
        <ele>746</ele>
        <time>2026-05-02T07:51:29Z</time>
      </trkpt>
      <trkpt lat="45.12069" lon="4.63172">
        <ele>745.2</ele>
        <time>2026-05-02T07:51:34Z</time>
      </trkpt>
      <trkpt lat="45.12065" lon="4.63181">
        <ele>744.3</ele>
        <time>2026-05-02T07:51:39Z</time>
      </trkpt>
      <trkpt lat="45.12063" lon="4.6319">
        <ele>743.2</ele>
        <time>2026-05-02T07:51:44Z</time>
      </trkpt>
      <trkpt lat="45.1206" lon="4.632">
        <ele>741.9</ele>
        <time>2026-05-02T07:51:49Z</time>
      </trkpt>
      <trkpt lat="45.12057" lon="4.63209">
        <ele>740.7</ele>
        <time>2026-05-02T07:51:54Z</time>
      </trkpt>
      <trkpt lat="45.12054" lon="4.63217">
        <ele>739.7</ele>
        <time>2026-05-02T07:51:59Z</time>
      </trkpt>
      <trkpt lat="45.1205" lon="4.63227">
        <ele>738.4</ele>
        <time>2026-05-02T07:52:04Z</time>
      </trkpt>
      <trkpt lat="45.12047" lon="4.63236">
        <ele>737.1</ele>
        <time>2026-05-02T07:52:09Z</time>
      </trkpt>
      <trkpt lat="45.12043" lon="4.63245">
        <ele>735.8</ele>
        <time>2026-05-02T07:52:14Z</time>
      </trkpt>
      <trkpt lat="45.12039" lon="4.63255">
        <ele>734.6</ele>
        <time>2026-05-02T07:52:19Z</time>
      </trkpt>
      <trkpt lat="45.12035" lon="4.63264">
        <ele>733.9</ele>
        <time>2026-05-02T07:52:24Z</time>
      </trkpt>
      <trkpt lat="45.12031" lon="4.63273">
        <ele>733.1</ele>
        <time>2026-05-02T07:52:29Z</time>
      </trkpt>
      <trkpt lat="45.12026" lon="4.63281">
        <ele>732.5</ele>
        <time>2026-05-02T07:52:34Z</time>
      </trkpt>
      <trkpt lat="45.12023" lon="4.63288">
        <ele>731.9</ele>
        <time>2026-05-02T07:52:39Z</time>
      </trkpt>
      <trkpt lat="45.12019" lon="4.63295">
        <ele>731.4</ele>
        <time>2026-05-02T07:52:44Z</time>
      </trkpt>
      <trkpt lat="45.12015" lon="4.63302">
        <ele>730.8</ele>
        <time>2026-05-02T07:52:49Z</time>
      </trkpt>
      <trkpt lat="45.12012" lon="4.63311">
        <ele>729.9</ele>
        <time>2026-05-02T07:52:54Z</time>
      </trkpt>
      <trkpt lat="45.12007" lon="4.63319">
        <ele>729.3</ele>
        <time>2026-05-02T07:52:59Z</time>
      </trkpt>
      <trkpt lat="45.12001" lon="4.63326">
        <ele>728.8</ele>
        <time>2026-05-02T07:53:04Z</time>
      </trkpt>
      <trkpt lat="45.11994" lon="4.63335">
        <ele>727.4</ele>
        <time>2026-05-02T07:53:09Z</time>
      </trkpt>
      <trkpt lat="45.11988" lon="4.63344">
        <ele>725.4</ele>
        <time>2026-05-02T07:53:14Z</time>
      </trkpt>
      <trkpt lat="45.11986" lon="4.63349">
        <ele>724.4</ele>
        <time>2026-05-02T07:53:19Z</time>
      </trkpt>
      <trkpt lat="45.11983" lon="4.63356">
        <ele>722.9</ele>
        <time>2026-05-02T07:53:24Z</time>
      </trkpt>
      <trkpt lat="45.11979" lon="4.63363">
        <ele>721.5</ele>
        <time>2026-05-02T07:53:29Z</time>
      </trkpt>
      <trkpt lat="45.11972" lon="4.63371">
        <ele>719.7</ele>
        <time>2026-05-02T07:53:34Z</time>
      </trkpt>
      <trkpt lat="45.11968" lon="4.63377">
        <ele>718.5</ele>
        <time>2026-05-02T07:53:39Z</time>
      </trkpt>
      <trkpt lat="45.11962" lon="4.63382">
        <ele>717.4</ele>
        <time>2026-05-02T07:53:44Z</time>
      </trkpt>
      <trkpt lat="45.11961" lon="4.63384">
        <ele>717</ele>
        <time>2026-05-02T07:53:49Z</time>
      </trkpt>
      <trkpt lat="45.11961" lon="4.63384">
        <ele>717</ele>
        <time>2026-05-02T07:53:54Z</time>
      </trkpt>
      <trkpt lat="45.11961" lon="4.63384">
        <ele>717</ele>
        <time>2026-05-02T07:53:59Z</time>
      </trkpt>
      <trkpt lat="45.11961" lon="4.63384">
        <ele>717</ele>
        <time>2026-05-02T07:54:04Z</time>
      </trkpt>
      <trkpt lat="45.11961" lon="4.63384">
        <ele>717</ele>
        <time>2026-05-02T07:54:09Z</time>
      </trkpt>
      <trkpt lat="45.11955" lon="4.63387">
        <ele>716.2</ele>
        <time>2026-05-02T07:54:14Z</time>
      </trkpt>
      <trkpt lat="45.11947" lon="4.63387">
        <ele>716</ele>
        <time>2026-05-02T07:54:19Z</time>
      </trkpt>
      <trkpt lat="45.11941" lon="4.63387">
        <ele>715.8</ele>
        <time>2026-05-02T07:54:24Z</time>
      </trkpt>
      <trkpt lat="45.11935" lon="4.63386">
        <ele>715.8</ele>
        <time>2026-05-02T07:54:29Z</time>
      </trkpt>
      <trkpt lat="45.11927" lon="4.63386">
        <ele>715.5</ele>
        <time>2026-05-02T07:54:34Z</time>
      </trkpt>
      <trkpt lat="45.11921" lon="4.63388">
        <ele>715</ele>
        <time>2026-05-02T07:54:39Z</time>
      </trkpt>
      <trkpt lat="45.11916" lon="4.63393">
        <ele>713.9</ele>
        <time>2026-05-02T07:54:44Z</time>
      </trkpt>
      <trkpt lat="45.11911" lon="4.63398">
        <ele>712.7</ele>
        <time>2026-05-02T07:54:49Z</time>
      </trkpt>
      <trkpt lat="45.11906" lon="4.63403">
        <ele>711.5</ele>
        <time>2026-05-02T07:54:54Z</time>
      </trkpt>
      <trkpt lat="45.119" lon="4.63411">
        <ele>709.9</ele>
        <time>2026-05-02T07:54:59Z</time>
      </trkpt>
      <trkpt lat="45.11896" lon="4.63415">
        <ele>709</ele>
        <time>2026-05-02T07:55:04Z</time>
      </trkpt>
      <trkpt lat="45.11891" lon="4.63422">
        <ele>707.6</ele>
        <time>2026-05-02T07:55:09Z</time>
      </trkpt>
      <trkpt lat="45.11885" lon="4.63428">
        <ele>706.3</ele>
        <time>2026-05-02T07:55:14Z</time>
      </trkpt>
      <trkpt lat="45.11878" lon="4.63434">
        <ele>705</ele>
        <time>2026-05-02T07:55:19Z</time>
      </trkpt>
      <trkpt lat="45.11872" lon="4.63439">
        <ele>703.9</ele>
        <time>2026-05-02T07:55:24Z</time>
      </trkpt>
      <trkpt lat="45.11865" lon="4.63445">
        <ele>702.6</ele>
        <time>2026-05-02T07:55:29Z</time>
      </trkpt>
      <trkpt lat="45.11857" lon="4.63451">
        <ele>701.2</ele>
        <time>2026-05-02T07:55:34Z</time>
      </trkpt>
      <trkpt lat="45.11851" lon="4.63454">
        <ele>700.5</ele>
        <time>2026-05-02T07:55:39Z</time>
      </trkpt>
      <trkpt lat="45.11844" lon="4.6346">
        <ele>699.3</ele>
        <time>2026-05-02T07:55:44Z</time>
      </trkpt>
      <trkpt lat="45.11837" lon="4.63463">
        <ele>698.5</ele>
        <time>2026-05-02T07:55:49Z</time>
      </trkpt>
      <trkpt lat="45.1183" lon="4.63468">
        <ele>696.8</ele>
        <time>2026-05-02T07:55:54Z</time>
      </trkpt>
      <trkpt lat="45.11823" lon="4.63473">
        <ele>694.3</ele>
        <time>2026-05-02T07:55:59Z</time>
      </trkpt>
      <trkpt lat="45.11818" lon="4.6348">
        <ele>692</ele>
        <time>2026-05-02T07:56:04Z</time>
      </trkpt>
      <trkpt lat="45.11811" lon="4.63483">
        <ele>689.7</ele>
        <time>2026-05-02T07:56:09Z</time>
      </trkpt>
      <trkpt lat="45.11804" lon="4.63488">
        <ele>687.1</ele>
        <time>2026-05-02T07:56:14Z</time>
      </trkpt>
      <trkpt lat="45.118" lon="4.63492">
        <ele>685.5</ele>
        <time>2026-05-02T07:56:19Z</time>
      </trkpt>
      <trkpt lat="45.11794" lon="4.63497">
        <ele>683.1</ele>
        <time>2026-05-02T07:56:24Z</time>
      </trkpt>
      <trkpt lat="45.11788" lon="4.63501">
        <ele>680.8</ele>
        <time>2026-05-02T07:56:29Z</time>
      </trkpt>
      <trkpt lat="45.11781" lon="4.63505">
        <ele>678</ele>
        <time>2026-05-02T07:56:34Z</time>
      </trkpt>
      <trkpt lat="45.11774" lon="4.63506">
        <ele>675.9</ele>
        <time>2026-05-02T07:56:39Z</time>
      </trkpt>
      <trkpt lat="45.11767" lon="4.63511">
        <ele>673</ele>
        <time>2026-05-02T07:56:44Z</time>
      </trkpt>
      <trkpt lat="45.1176" lon="4.63513">
        <ele>670.7</ele>
        <time>2026-05-02T07:56:49Z</time>
      </trkpt>
      <trkpt lat="45.11751" lon="4.63514">
        <ele>668.2</ele>
        <time>2026-05-02T07:56:54Z</time>
      </trkpt>
      <trkpt lat="45.11745" lon="4.63514">
        <ele>667.5</ele>
        <time>2026-05-02T07:56:59Z</time>
      </trkpt>
      <trkpt lat="45.11739" lon="4.63508">
        <ele>668.1</ele>
        <time>2026-05-02T07:57:04Z</time>
      </trkpt>
      <trkpt lat="45.11734" lon="4.63506">
        <ele>667.9</ele>
        <time>2026-05-02T07:57:09Z</time>
      </trkpt>
      <trkpt lat="45.11727" lon="4.63501">
        <ele>668.1</ele>
        <time>2026-05-02T07:57:14Z</time>
      </trkpt>
      <trkpt lat="45.11719" lon="4.63497">
        <ele>667.8</ele>
        <time>2026-05-02T07:57:19Z</time>
      </trkpt>
      <trkpt lat="45.11713" lon="4.63492">
        <ele>668</ele>
        <time>2026-05-02T07:57:24Z</time>
      </trkpt>
      <trkpt lat="45.11706" lon="4.63486">
        <ele>668.2</ele>
        <time>2026-05-02T07:57:29Z</time>
      </trkpt>
      <trkpt lat="45.11701" lon="4.63478">
        <ele>669.1</ele>
        <time>2026-05-02T07:57:34Z</time>
      </trkpt>
      <trkpt lat="45.11697" lon="4.63471">
        <ele>669.9</ele>
        <time>2026-05-02T07:57:39Z</time>
      </trkpt>
      <trkpt lat="45.11695" lon="4.63465">
        <ele>670.7</ele>
        <time>2026-05-02T07:57:44Z</time>
      </trkpt>
      <trkpt lat="45.11695" lon="4.63453">
        <ele>672.9</ele>
        <time>2026-05-02T07:57:49Z</time>
      </trkpt>
      <trkpt lat="45.11692" lon="4.63441">
        <ele>674.7</ele>
        <time>2026-05-02T07:57:54Z</time>
      </trkpt>
      <trkpt lat="45.11691" lon="4.63433">
        <ele>676</ele>
        <time>2026-05-02T07:57:59Z</time>
      </trkpt>
      <trkpt lat="45.11689" lon="4.63421">
        <ele>677.9</ele>
        <time>2026-05-02T07:58:04Z</time>
      </trkpt>
      <trkpt lat="45.11687" lon="4.63412">
        <ele>679</ele>
        <time>2026-05-02T07:58:09Z</time>
      </trkpt>
      <trkpt lat="45.11685" lon="4.63402">
        <ele>680</ele>
        <time>2026-05-02T07:58:14Z</time>
      </trkpt>
      <trkpt lat="45.11681" lon="4.63394">
        <ele>680.4</ele>
        <time>2026-05-02T07:58:19Z</time>
      </trkpt>
      <trkpt lat="45.11676" lon="4.63389">
        <ele>680.3</ele>
        <time>2026-05-02T07:58:24Z</time>
      </trkpt>
      <trkpt lat="45.11668" lon="4.63386">
        <ele>679.5</ele>
        <time>2026-05-02T07:58:29Z</time>
      </trkpt>
      <trkpt lat="45.11661" lon="4.63387">
        <ele>679.3</ele>
        <time>2026-05-02T07:58:34Z</time>
      </trkpt>
      <trkpt lat="45.11656" lon="4.63384">
        <ele>679.6</ele>
        <time>2026-05-02T07:58:39Z</time>
      </trkpt>
      <trkpt lat="45.11648" lon="4.63384">
        <ele>679.7</ele>
        <time>2026-05-02T07:58:44Z</time>
      </trkpt>
      <trkpt lat="45.1164" lon="4.63387">
        <ele>679.6</ele>
        <time>2026-05-02T07:58:49Z</time>
      </trkpt>
      <trkpt lat="45.11631" lon="4.63389">
        <ele>679.6</ele>
        <time>2026-05-02T07:58:54Z</time>
      </trkpt>
      <trkpt lat="45.11624" lon="4.6339">
        <ele>679.6</ele>
        <time>2026-05-02T07:58:59Z</time>
      </trkpt>
      <trkpt lat="45.11615" lon="4.63392">
        <ele>679.7</ele>
        <time>2026-05-02T07:59:04Z</time>
      </trkpt>
      <trkpt lat="45.11608" lon="4.63393">
        <ele>679.9</ele>
        <time>2026-05-02T07:59:09Z</time>
      </trkpt>
      <trkpt lat="45.116" lon="4.63393">
        <ele>680.1</ele>
        <time>2026-05-02T07:59:14Z</time>
      </trkpt>
      <trkpt lat="45.11591" lon="4.63395">
        <ele>680.3</ele>
        <time>2026-05-02T07:59:19Z</time>
      </trkpt>
      <trkpt lat="45.11582" lon="4.63397">
        <ele>680.8</ele>
        <time>2026-05-02T07:59:24Z</time>
      </trkpt>
      <trkpt lat="45.11575" lon="4.63397">
        <ele>682.1</ele>
        <time>2026-05-02T07:59:29Z</time>
      </trkpt>
      <trkpt lat="45.11569" lon="4.63396">
        <ele>683.2</ele>
        <time>2026-05-02T07:59:34Z</time>
      </trkpt>
      <trkpt lat="45.11562" lon="4.63396">
        <ele>684.5</ele>
        <time>2026-05-02T07:59:39Z</time>
      </trkpt>
      <trkpt lat="45.11559" lon="4.63401">
        <ele>685.5</ele>
        <time>2026-05-02T07:59:44Z</time>
      </trkpt>
      <trkpt lat="45.11558" lon="4.63403">
        <ele>685.8</ele>
        <time>2026-05-02T07:59:49Z</time>
      </trkpt>
      <trkpt lat="45.11555" lon="4.63403">
        <ele>686.4</ele>
        <time>2026-05-02T07:59:54Z</time>
      </trkpt>
      <trkpt lat="45.11553" lon="4.63405">
        <ele>687</ele>
        <time>2026-05-02T07:59:59Z</time>
      </trkpt>
      <trkpt lat="45.11553" lon="4.63405">
        <ele>687</ele>
        <time>2026-05-02T08:00:04Z</time>
      </trkpt>
      <trkpt lat="45.11553" lon="4.63405">
        <ele>687</ele>
        <time>2026-05-02T08:00:09Z</time>
      </trkpt>
      <trkpt lat="45.11553" lon="4.63405">
        <ele>687</ele>
        <time>2026-05-02T08:00:14Z</time>
      </trkpt>
      <trkpt lat="45.11553" lon="4.63405">
        <ele>687</ele>
        <time>2026-05-02T08:00:19Z</time>
      </trkpt>
      <trkpt lat="45.11552" lon="4.63406">
        <ele>687.3</ele>
        <time>2026-05-02T08:00:24Z</time>
      </trkpt>
      <trkpt lat="45.11546" lon="4.63404">
        <ele>688.3</ele>
        <time>2026-05-02T08:00:29Z</time>
      </trkpt>
      <trkpt lat="45.1154" lon="4.63402">
        <ele>689.3</ele>
        <time>2026-05-02T08:00:34Z</time>
      </trkpt>
      <trkpt lat="45.11535" lon="4.63401">
        <ele>690.2</ele>
        <time>2026-05-02T08:00:39Z</time>
      </trkpt>
      <trkpt lat="45.11531" lon="4.63401">
        <ele>691</ele>
        <time>2026-05-02T08:00:44Z</time>
      </trkpt>
      <trkpt lat="45.11531" lon="4.634">
        <ele>690.9</ele>
        <time>2026-05-02T08:00:49Z</time>
      </trkpt>
      <trkpt lat="45.11528" lon="4.63399">
        <ele>691.4</ele>
        <time>2026-05-02T08:00:54Z</time>
      </trkpt>
      <trkpt lat="45.11523" lon="4.634">
        <ele>692.5</ele>
        <time>2026-05-02T08:00:59Z</time>
      </trkpt>
      <trkpt lat="45.11516" lon="4.634">
        <ele>693.9</ele>
        <time>2026-05-02T08:01:04Z</time>
      </trkpt>
      <trkpt lat="45.1151" lon="4.63403">
        <ele>695.5</ele>
        <time>2026-05-02T08:01:09Z</time>
      </trkpt>
      <trkpt lat="45.11504" lon="4.63404">
        <ele>696.9</ele>
        <time>2026-05-02T08:01:14Z</time>
      </trkpt>
      <trkpt lat="45.11499" lon="4.63407">
        <ele>698.5</ele>
        <time>2026-05-02T08:01:19Z</time>
      </trkpt>
      <trkpt lat="45.11493" lon="4.63411">
        <ele>700.6</ele>
        <time>2026-05-02T08:01:24Z</time>
      </trkpt>
      <trkpt lat="45.11487" lon="4.63412">
        <ele>702.2</ele>
        <time>2026-05-02T08:01:29Z</time>
      </trkpt>
      <trkpt lat="45.11483" lon="4.63413">
        <ele>703.3</ele>
        <time>2026-05-02T08:01:34Z</time>
      </trkpt>
      <trkpt lat="45.11479" lon="4.63413">
        <ele>704.2</ele>
        <time>2026-05-02T08:01:39Z</time>
      </trkpt>
      <trkpt lat="45.11474" lon="4.63413">
        <ele>705.3</ele>
        <time>2026-05-02T08:01:44Z</time>
      </trkpt>
      <trkpt lat="45.1147" lon="4.63412">
        <ele>706.1</ele>
        <time>2026-05-02T08:01:49Z</time>
      </trkpt>
      <trkpt lat="45.11465" lon="4.63412">
        <ele>707.3</ele>
        <time>2026-05-02T08:01:54Z</time>
      </trkpt>
      <trkpt lat="45.1146" lon="4.63411">
        <ele>708.3</ele>
        <time>2026-05-02T08:01:59Z</time>
      </trkpt>
      <trkpt lat="45.11456" lon="4.63409">
        <ele>708.9</ele>
        <time>2026-05-02T08:02:04Z</time>
      </trkpt>
      <trkpt lat="45.11452" lon="4.63408">
        <ele>709.7</ele>
        <time>2026-05-02T08:02:09Z</time>
      </trkpt>
      <trkpt lat="45.11448" lon="4.63405">
        <ele>710.2</ele>
        <time>2026-05-02T08:02:14Z</time>
      </trkpt>
      <trkpt lat="45.11444" lon="4.63404">
        <ele>711</ele>
        <time>2026-05-02T08:02:19Z</time>
      </trkpt>
      <trkpt lat="45.11441" lon="4.63403">
        <ele>711.6</ele>
        <time>2026-05-02T08:02:24Z</time>
      </trkpt>
      <trkpt lat="45.11437" lon="4.63401">
        <ele>712.3</ele>
        <time>2026-05-02T08:02:29Z</time>
      </trkpt>
      <trkpt lat="45.11433" lon="4.63399">
        <ele>712.9</ele>
        <time>2026-05-02T08:02:34Z</time>
      </trkpt>
      <trkpt lat="45.11428" lon="4.63397">
        <ele>713.9</ele>
        <time>2026-05-02T08:02:39Z</time>
      </trkpt>
      <trkpt lat="45.11424" lon="4.63395">
        <ele>714.6</ele>
        <time>2026-05-02T08:02:44Z</time>
      </trkpt>
      <trkpt lat="45.11418" lon="4.63397">
        <ele>716.3</ele>
        <time>2026-05-02T08:02:49Z</time>
      </trkpt>
      <trkpt lat="45.11414" lon="4.63401">
        <ele>717.4</ele>
        <time>2026-05-02T08:02:54Z</time>
      </trkpt>
      <trkpt lat="45.1141" lon="4.63405">
        <ele>718.3</ele>
        <time>2026-05-02T08:02:59Z</time>
      </trkpt>
      <trkpt lat="45.11407" lon="4.63407">
        <ele>718.9</ele>
        <time>2026-05-02T08:03:04Z</time>
      </trkpt>
      <trkpt lat="45.11402" lon="4.63408">
        <ele>719.5</ele>
        <time>2026-05-02T08:03:09Z</time>
      </trkpt>
      <trkpt lat="45.11397" lon="4.63409">
        <ele>720.2</ele>
        <time>2026-05-02T08:03:14Z</time>
      </trkpt>
      <trkpt lat="45.11392" lon="4.6341">
        <ele>720.8</ele>
        <time>2026-05-02T08:03:19Z</time>
      </trkpt>
      <trkpt lat="45.11388" lon="4.6341">
        <ele>721.2</ele>
        <time>2026-05-02T08:03:24Z</time>
      </trkpt>
      <trkpt lat="45.11383" lon="4.6341">
        <ele>721.8</ele>
        <time>2026-05-02T08:03:29Z</time>
      </trkpt>
      <trkpt lat="45.11379" lon="4.6341">
        <ele>722.2</ele>
        <time>2026-05-02T08:03:34Z</time>
      </trkpt>
      <trkpt lat="45.11376" lon="4.63407">
        <ele>722.1</ele>
        <time>2026-05-02T08:03:39Z</time>
      </trkpt>
      <trkpt lat="45.11372" lon="4.63405">
        <ele>722.3</ele>
        <time>2026-05-02T08:03:44Z</time>
      </trkpt>
      <trkpt lat="45.11369" lon="4.634">
        <ele>721.9</ele>
        <time>2026-05-02T08:03:49Z</time>
      </trkpt>
      <trkpt lat="45.11366" lon="4.63397">
        <ele>721.8</ele>
        <time>2026-05-02T08:03:54Z</time>
      </trkpt>
      <trkpt lat="45.11362" lon="4.63393">
        <ele>721.7</ele>
        <time>2026-05-02T08:03:59Z</time>
      </trkpt>
      <trkpt lat="45.11359" lon="4.63388">
        <ele>721.3</ele>
        <time>2026-05-02T08:04:04Z</time>
      </trkpt>
      <trkpt lat="45.11355" lon="4.63384">
        <ele>721.2</ele>
        <time>2026-05-02T08:04:09Z</time>
      </trkpt>
      <trkpt lat="45.11354" lon="4.6338">
        <ele>720.7</ele>
        <time>2026-05-02T08:04:14Z</time>
      </trkpt>
      <trkpt lat="45.1135" lon="4.63376">
        <ele>720.5</ele>
        <time>2026-05-02T08:04:19Z</time>
      </trkpt>
      <trkpt lat="45.11347" lon="4.63373">
        <ele>720.4</ele>
        <time>2026-05-02T08:04:24Z</time>
      </trkpt>
      <trkpt lat="45.11344" lon="4.63368">
        <ele>720</ele>
        <time>2026-05-02T08:04:29Z</time>
      </trkpt>
      <trkpt lat="45.1134" lon="4.63364">
        <ele>719.8</ele>
        <time>2026-05-02T08:04:34Z</time>
      </trkpt>
      <trkpt lat="45.11336" lon="4.63361">
        <ele>719.7</ele>
        <time>2026-05-02T08:04:39Z</time>
      </trkpt>
      <trkpt lat="45.11331" lon="4.6336">
        <ele>719.9</ele>
        <time>2026-05-02T08:04:44Z</time>
      </trkpt>
      <trkpt lat="45.11326" lon="4.63356">
        <ele>719.6</ele>
        <time>2026-05-02T08:04:49Z</time>
      </trkpt>
      <trkpt lat="45.11321" lon="4.63352">
        <ele>719.2</ele>
        <time>2026-05-02T08:04:54Z</time>
      </trkpt>
      <trkpt lat="45.11316" lon="4.63348">
        <ele>718.7</ele>
        <time>2026-05-02T08:04:59Z</time>
      </trkpt>
      <trkpt lat="45.11312" lon="4.63343">
        <ele>718.1</ele>
        <time>2026-05-02T08:05:04Z</time>
      </trkpt>
      <trkpt lat="45.11308" lon="4.63337">
        <ele>717.2</ele>
        <time>2026-05-02T08:05:09Z</time>
      </trkpt>
      <trkpt lat="45.11304" lon="4.63333">
        <ele>716.6</ele>
        <time>2026-05-02T08:05:14Z</time>
      </trkpt>
      <trkpt lat="45.11298" lon="4.63329">
        <ele>716.1</ele>
        <time>2026-05-02T08:05:19Z</time>
      </trkpt>
      <trkpt lat="45.11293" lon="4.63325">
        <ele>715.5</ele>
        <time>2026-05-02T08:05:24Z</time>
      </trkpt>
      <trkpt lat="45.11289" lon="4.63324">
        <ele>715.4</ele>
        <time>2026-05-02T08:05:29Z</time>
      </trkpt>
      <trkpt lat="45.11283" lon="4.63322">
        <ele>715.2</ele>
        <time>2026-05-02T08:05:34Z</time>
      </trkpt>
      <trkpt lat="45.11278" lon="4.6332">
        <ele>715</ele>
        <time>2026-05-02T08:05:39Z</time>
      </trkpt>
      <trkpt lat="45.11272" lon="4.63318">
        <ele>714.9</ele>
        <time>2026-05-02T08:05:44Z</time>
      </trkpt>
      <trkpt lat="45.11266" lon="4.63318">
        <ele>715.1</ele>
        <time>2026-05-02T08:05:49Z</time>
      </trkpt>
      <trkpt lat="45.11261" lon="4.63319">
        <ele>715.4</ele>
        <time>2026-05-02T08:05:54Z</time>
      </trkpt>
      <trkpt lat="45.11258" lon="4.63322">
        <ele>716</ele>
        <time>2026-05-02T08:05:59Z</time>
      </trkpt>
      <trkpt lat="45.11253" lon="4.63327">
        <ele>716.9</ele>
        <time>2026-05-02T08:06:04Z</time>
      </trkpt>
      <trkpt lat="45.11249" lon="4.63333">
        <ele>718.2</ele>
        <time>2026-05-02T08:06:09Z</time>
      </trkpt>
      <trkpt lat="45.11247" lon="4.63339">
        <ele>719.9</ele>
        <time>2026-05-02T08:06:14Z</time>
      </trkpt>
      <trkpt lat="45.11244" lon="4.63345">
        <ele>721.8</ele>
        <time>2026-05-02T08:06:19Z</time>
      </trkpt>
      <trkpt lat="45.11244" lon="4.6335">
        <ele>722.9</ele>
        <time>2026-05-02T08:06:24Z</time>
      </trkpt>
      <trkpt lat="45.11247" lon="4.63356">
        <ele>723.5</ele>
        <time>2026-05-02T08:06:29Z</time>
      </trkpt>
      <trkpt lat="45.11251" lon="4.63358">
        <ele>723.3</ele>
        <time>2026-05-02T08:06:34Z</time>
      </trkpt>
      <trkpt lat="45.11254" lon="4.6336">
        <ele>723.6</ele>
        <time>2026-05-02T08:06:39Z</time>
      </trkpt>
      <trkpt lat="45.11258" lon="4.63362">
        <ele>723.8</ele>
        <time>2026-05-02T08:06:44Z</time>
      </trkpt>
      <trkpt lat="45.1126" lon="4.63365">
        <ele>724.3</ele>
        <time>2026-05-02T08:06:49Z</time>
      </trkpt>
      <trkpt lat="45.11263" lon="4.6337">
        <ele>725.2</ele>
        <time>2026-05-02T08:06:54Z</time>
      </trkpt>
      <trkpt lat="45.11265" lon="4.63376">
        <ele>726.3</ele>
        <time>2026-05-02T08:06:59Z</time>
      </trkpt>
      <trkpt lat="45.11268" lon="4.63383">
        <ele>727.5</ele>
        <time>2026-05-02T08:07:04Z</time>
      </trkpt>
      <trkpt lat="45.11271" lon="4.63389">
        <ele>728.5</ele>
        <time>2026-05-02T08:07:09Z</time>
      </trkpt>
      <trkpt lat="45.11274" lon="4.63394">
        <ele>729.3</ele>
        <time>2026-05-02T08:07:14Z</time>
      </trkpt>
      <trkpt lat="45.11275" lon="4.63399">
        <ele>730.2</ele>
        <time>2026-05-02T08:07:19Z</time>
      </trkpt>
      <trkpt lat="45.11278" lon="4.63403">
        <ele>730.7</ele>
        <time>2026-05-02T08:07:24Z</time>
      </trkpt>
      <trkpt lat="45.1128" lon="4.6341">
        <ele>731.9</ele>
        <time>2026-05-02T08:07:29Z</time>
      </trkpt>
      <trkpt lat="45.11282" lon="4.63419">
        <ele>733.5</ele>
        <time>2026-05-02T08:07:34Z</time>
      </trkpt>
      <trkpt lat="45.11285" lon="4.63427">
        <ele>735.2</ele>
        <time>2026-05-02T08:07:39Z</time>
      </trkpt>
      <trkpt lat="45.11287" lon="4.63434">
        <ele>736.8</ele>
        <time>2026-05-02T08:07:44Z</time>
      </trkpt>
      <trkpt lat="45.1129" lon="4.6344">
        <ele>737.9</ele>
        <time>2026-05-02T08:07:49Z</time>
      </trkpt>
      <trkpt lat="45.11294" lon="4.63445">
        <ele>738.7</ele>
        <time>2026-05-02T08:07:54Z</time>
      </trkpt>
      <trkpt lat="45.11296" lon="4.6345">
        <ele>739.7</ele>
        <time>2026-05-02T08:07:59Z</time>
      </trkpt>
      <trkpt lat="45.11299" lon="4.63455">
        <ele>740.5</ele>
        <time>2026-05-02T08:08:04Z</time>
      </trkpt>
      <trkpt lat="45.11301" lon="4.63461">
        <ele>741.7</ele>
        <time>2026-05-02T08:08:09Z</time>
      </trkpt>
      <trkpt lat="45.11303" lon="4.63467">
        <ele>742.9</ele>
        <time>2026-05-02T08:08:14Z</time>
      </trkpt>
      <trkpt lat="45.11304" lon="4.63473">
        <ele>744.2</ele>
        <time>2026-05-02T08:08:19Z</time>
      </trkpt>
      <trkpt lat="45.11305" lon="4.6348">
        <ele>745.7</ele>
        <time>2026-05-02T08:08:24Z</time>
      </trkpt>
      <trkpt lat="45.11306" lon="4.63486">
        <ele>747</ele>
        <time>2026-05-02T08:08:29Z</time>
      </trkpt>
      <trkpt lat="45.11309" lon="4.63491">
        <ele>747.7</ele>
        <time>2026-05-02T08:08:34Z</time>
      </trkpt>
      <trkpt lat="45.11309" lon="4.63496">
        <ele>748.9</ele>
        <time>2026-05-02T08:08:39Z</time>
      </trkpt>
      <trkpt lat="45.1131" lon="4.635">
        <ele>749.6</ele>
        <time>2026-05-02T08:08:44Z</time>
      </trkpt>
      <trkpt lat="45.11312" lon="4.63504">
        <ele>750.3</ele>
        <time>2026-05-02T08:08:49Z</time>
      </trkpt>
      <trkpt lat="45.11315" lon="4.63508">
        <ele>750.7</ele>
        <time>2026-05-02T08:08:54Z</time>
      </trkpt>
      <trkpt lat="45.11315" lon="4.63513">
        <ele>751.9</ele>
        <time>2026-05-02T08:08:59Z</time>
      </trkpt>
      <trkpt lat="45.11317" lon="4.63518">
        <ele>752.7</ele>
        <time>2026-05-02T08:09:04Z</time>
      </trkpt>
      <trkpt lat="45.11319" lon="4.63523">
        <ele>753.6</ele>
        <time>2026-05-02T08:09:09Z</time>
      </trkpt>
      <trkpt lat="45.11321" lon="4.63528">
        <ele>754.4</ele>
        <time>2026-05-02T08:09:14Z</time>
      </trkpt>
      <trkpt lat="45.11323" lon="4.63533">
        <ele>755.2</ele>
        <time>2026-05-02T08:09:19Z</time>
      </trkpt>
      <trkpt lat="45.11326" lon="4.63538">
        <ele>755.9</ele>
        <time>2026-05-02T08:09:24Z</time>
      </trkpt>
      <trkpt lat="45.11329" lon="4.63542">
        <ele>756.3</ele>
        <time>2026-05-02T08:09:29Z</time>
      </trkpt>
      <trkpt lat="45.11332" lon="4.63547">
        <ele>756.9</ele>
        <time>2026-05-02T08:09:34Z</time>
      </trkpt>
      <trkpt lat="45.11333" lon="4.63553">
        <ele>758.1</ele>
        <time>2026-05-02T08:09:39Z</time>
      </trkpt>
      <trkpt lat="45.11334" lon="4.63558">
        <ele>759.1</ele>
        <time>2026-05-02T08:09:44Z</time>
      </trkpt>
      <trkpt lat="45.11334" lon="4.63564">
        <ele>760.5</ele>
        <time>2026-05-02T08:09:49Z</time>
      </trkpt>
      <trkpt lat="45.11336" lon="4.63568">
        <ele>761</ele>
        <time>2026-05-02T08:09:54Z</time>
      </trkpt>
      <trkpt lat="45.11337" lon="4.63574">
        <ele>762.1</ele>
        <time>2026-05-02T08:09:59Z</time>
      </trkpt>
      <trkpt lat="45.11338" lon="4.6358">
        <ele>763.2</ele>
        <time>2026-05-02T08:10:04Z</time>
      </trkpt>
      <trkpt lat="45.11339" lon="4.63587">
        <ele>764.3</ele>
        <time>2026-05-02T08:10:09Z</time>
      </trkpt>
      <trkpt lat="45.11339" lon="4.63594">
        <ele>765.4</ele>
        <time>2026-05-02T08:10:14Z</time>
      </trkpt>
      <trkpt lat="45.1134" lon="4.63602">
        <ele>766.4</ele>
        <time>2026-05-02T08:10:19Z</time>
      </trkpt>
      <trkpt lat="45.11339" lon="4.63609">
        <ele>767.7</ele>
        <time>2026-05-02T08:10:24Z</time>
      </trkpt>
      <trkpt lat="45.11338" lon="4.63617">
        <ele>769.2</ele>
        <time>2026-05-02T08:10:29Z</time>
      </trkpt>
      <trkpt lat="45.11338" lon="4.63623">
        <ele>770.1</ele>
        <time>2026-05-02T08:10:34Z</time>
      </trkpt>
      <trkpt lat="45.11337" lon="4.63628">
        <ele>771.1</ele>
        <time>2026-05-02T08:10:39Z</time>
      </trkpt>
      <trkpt lat="45.11335" lon="4.63634">
        <ele>772.5</ele>
        <time>2026-05-02T08:10:44Z</time>
      </trkpt>
      <trkpt lat="45.11334" lon="4.63638">
        <ele>773.4</ele>
        <time>2026-05-02T08:10:49Z</time>
      </trkpt>
      <trkpt lat="45.11334" lon="4.63642">
        <ele>774</ele>
        <time>2026-05-02T08:10:54Z</time>
      </trkpt>
      <trkpt lat="45.11335" lon="4.63649">
        <ele>774.8</ele>
        <time>2026-05-02T08:10:59Z</time>
      </trkpt>
      <trkpt lat="45.11335" lon="4.63655">
        <ele>775.8</ele>
        <time>2026-05-02T08:11:04Z</time>
      </trkpt>
      <trkpt lat="45.11334" lon="4.63661">
        <ele>776.9</ele>
        <time>2026-05-02T08:11:09Z</time>
      </trkpt>
      <trkpt lat="45.11334" lon="4.63668">
        <ele>778</ele>
        <time>2026-05-02T08:11:14Z</time>
      </trkpt>
      <trkpt lat="45.11334" lon="4.63674">
        <ele>779</ele>
        <time>2026-05-02T08:11:19Z</time>
      </trkpt>
      <trkpt lat="45.11334" lon="4.63678">
        <ele>779.6</ele>
        <time>2026-05-02T08:11:24Z</time>
      </trkpt>
      <trkpt lat="45.11335" lon="4.63684">
        <ele>780.3</ele>
        <time>2026-05-02T08:11:29Z</time>
      </trkpt>
      <trkpt lat="45.11334" lon="4.63689">
        <ele>781.3</ele>
        <time>2026-05-02T08:11:34Z</time>
      </trkpt>
      <trkpt lat="45.11334" lon="4.63694">
        <ele>782.1</ele>
        <time>2026-05-02T08:11:39Z</time>
      </trkpt>
      <trkpt lat="45.11334" lon="4.63701">
        <ele>783.2</ele>
        <time>2026-05-02T08:11:44Z</time>
      </trkpt>
      <trkpt lat="45.11335" lon="4.63708">
        <ele>784</ele>
        <time>2026-05-02T08:11:49Z</time>
      </trkpt>
      <trkpt lat="45.11335" lon="4.63715">
        <ele>785.1</ele>
        <time>2026-05-02T08:11:54Z</time>
      </trkpt>
      <trkpt lat="45.11336" lon="4.63722">
        <ele>785.9</ele>
        <time>2026-05-02T08:11:59Z</time>
      </trkpt>
      <trkpt lat="45.11337" lon="4.63729">
        <ele>786.7</ele>
        <time>2026-05-02T08:12:04Z</time>
      </trkpt>
      <trkpt lat="45.11338" lon="4.63736">
        <ele>787.5</ele>
        <time>2026-05-02T08:12:09Z</time>
      </trkpt>
      <trkpt lat="45.11339" lon="4.63743">
        <ele>788.2</ele>
        <time>2026-05-02T08:12:14Z</time>
      </trkpt>
      <trkpt lat="45.1134" lon="4.6375">
        <ele>789</ele>
        <time>2026-05-02T08:12:19Z</time>
      </trkpt>
      <trkpt lat="45.11341" lon="4.63756">
        <ele>789.5</ele>
        <time>2026-05-02T08:12:24Z</time>
      </trkpt>
      <trkpt lat="45.11342" lon="4.63764">
        <ele>790.2</ele>
        <time>2026-05-02T08:12:29Z</time>
      </trkpt>
      <trkpt lat="45.11344" lon="4.63771">
        <ele>790.6</ele>
        <time>2026-05-02T08:12:34Z</time>
      </trkpt>
      <trkpt lat="45.11347" lon="4.63778">
        <ele>790.6</ele>
        <time>2026-05-02T08:12:39Z</time>
      </trkpt>
      <trkpt lat="45.1135" lon="4.63785">
        <ele>790.6</ele>
        <time>2026-05-02T08:12:44Z</time>
      </trkpt>
      <trkpt lat="45.11353" lon="4.63794">
        <ele>790.9</ele>
        <time>2026-05-02T08:12:49Z</time>
      </trkpt>
      <trkpt lat="45.11356" lon="4.63805">
        <ele>791.5</ele>
        <time>2026-05-02T08:12:54Z</time>
      </trkpt>
      <trkpt lat="45.1136" lon="4.63812">
        <ele>791.2</ele>
        <time>2026-05-02T08:12:59Z</time>
      </trkpt>
      <trkpt lat="45.11364" lon="4.63819">
        <ele>790.9</ele>
        <time>2026-05-02T08:13:04Z</time>
      </trkpt>
      <trkpt lat="45.11366" lon="4.63829">
        <ele>791.6</ele>
        <time>2026-05-02T08:13:09Z</time>
      </trkpt>
      <trkpt lat="45.11368" lon="4.63836">
        <ele>791.7</ele>
        <time>2026-05-02T08:13:14Z</time>
      </trkpt>
      <trkpt lat="45.11372" lon="4.63843">
        <ele>790.8</ele>
        <time>2026-05-02T08:13:19Z</time>
      </trkpt>
      <trkpt lat="45.11375" lon="4.6385">
        <ele>790.2</ele>
        <time>2026-05-02T08:13:24Z</time>
      </trkpt>
      <trkpt lat="45.11379" lon="4.63857">
        <ele>789.3</ele>
        <time>2026-05-02T08:13:29Z</time>
      </trkpt>
      <trkpt lat="45.11381" lon="4.63865">
        <ele>789.1</ele>
        <time>2026-05-02T08:13:34Z</time>
      </trkpt>
      <trkpt lat="45.11383" lon="4.63871">
        <ele>788.7</ele>
        <time>2026-05-02T08:13:39Z</time>
      </trkpt>
      <trkpt lat="45.11385" lon="4.63877">
        <ele>788.4</ele>
        <time>2026-05-02T08:13:44Z</time>
      </trkpt>
      <trkpt lat="45.11387" lon="4.63882">
        <ele>788</ele>
        <time>2026-05-02T08:13:49Z</time>
      </trkpt>
      <trkpt lat="45.11388" lon="4.63888">
        <ele>788</ele>
        <time>2026-05-02T08:13:54Z</time>
      </trkpt>
      <trkpt lat="45.1139" lon="4.63896">
        <ele>787.8</ele>
        <time>2026-05-02T08:13:59Z</time>
      </trkpt>
      <trkpt lat="45.11393" lon="4.63904">
        <ele>787.3</ele>
        <time>2026-05-02T08:14:04Z</time>
      </trkpt>
      <trkpt lat="45.11394" lon="4.63906">
        <ele>787.1</ele>
        <time>2026-05-02T08:14:09Z</time>
      </trkpt>
      <trkpt lat="45.11395" lon="4.63907">
        <ele>786.8</ele>
        <time>2026-05-02T08:14:14Z</time>
      </trkpt>
      <trkpt lat="45.11395" lon="4.63907">
        <ele>786.8</ele>
        <time>2026-05-02T08:14:19Z</time>
      </trkpt>
      <trkpt lat="45.11395" lon="4.63907">
        <ele>786.8</ele>
        <time>2026-05-02T08:14:24Z</time>
      </trkpt>
      <trkpt lat="45.11398" lon="4.63914">
        <ele>786.3</ele>
        <time>2026-05-02T08:14:29Z</time>
      </trkpt>
      <trkpt lat="45.11397" lon="4.63922">
        <ele>786.2</ele>
        <time>2026-05-02T08:14:34Z</time>
      </trkpt>
      <trkpt lat="45.11396" lon="4.63932">
        <ele>785.6</ele>
        <time>2026-05-02T08:14:39Z</time>
      </trkpt>
      <trkpt lat="45.11394" lon="4.63941">
        <ele>785.4</ele>
        <time>2026-05-02T08:14:44Z</time>
      </trkpt>
      <trkpt lat="45.11391" lon="4.63949">
        <ele>785.6</ele>
        <time>2026-05-02T08:14:49Z</time>
      </trkpt>
      <trkpt lat="45.11387" lon="4.63956">
        <ele>786.3</ele>
        <time>2026-05-02T08:14:54Z</time>
      </trkpt>
      <trkpt lat="45.11384" lon="4.63963">
        <ele>786.6</ele>
        <time>2026-05-02T08:14:59Z</time>
      </trkpt>
      <trkpt lat="45.11381" lon="4.63968">
        <ele>787.1</ele>
        <time>2026-05-02T08:15:04Z</time>
      </trkpt>
      <trkpt lat="45.11377" lon="4.63976">
        <ele>787.7</ele>
        <time>2026-05-02T08:15:09Z</time>
      </trkpt>
      <trkpt lat="45.11372" lon="4.63984">
        <ele>788.7</ele>
        <time>2026-05-02T08:15:14Z</time>
      </trkpt>
      <trkpt lat="45.11367" lon="4.63991">
        <ele>789.8</ele>
        <time>2026-05-02T08:15:19Z</time>
      </trkpt>
      <trkpt lat="45.11363" lon="4.63997">
        <ele>790.6</ele>
        <time>2026-05-02T08:15:24Z</time>
      </trkpt>
      <trkpt lat="45.11357" lon="4.64004">
        <ele>791.9</ele>
        <time>2026-05-02T08:15:29Z</time>
      </trkpt>
      <trkpt lat="45.11352" lon="4.64009">
        <ele>793.1</ele>
        <time>2026-05-02T08:15:34Z</time>
      </trkpt>
      <trkpt lat="45.11348" lon="4.64016">
        <ele>793.7</ele>
        <time>2026-05-02T08:15:39Z</time>
      </trkpt>
      <trkpt lat="45.1134" lon="4.64026">
        <ele>795.5</ele>
        <time>2026-05-02T08:15:44Z</time>
      </trkpt>
      <trkpt lat="45.11336" lon="4.64035">
        <ele>796.1</ele>
        <time>2026-05-02T08:15:49Z</time>
      </trkpt>
      <trkpt lat="45.11331" lon="4.64044">
        <ele>797.3</ele>
        <time>2026-05-02T08:15:54Z</time>
      </trkpt>
      <trkpt lat="45.11327" lon="4.64054">
        <ele>798.2</ele>
        <time>2026-05-02T08:15:59Z</time>
      </trkpt>
      <trkpt lat="45.11322" lon="4.64064">
        <ele>799.6</ele>
        <time>2026-05-02T08:16:04Z</time>
      </trkpt>
      <trkpt lat="45.11316" lon="4.64073">
        <ele>801.5</ele>
        <time>2026-05-02T08:16:09Z</time>
      </trkpt>
      <trkpt lat="45.11313" lon="4.64082">
        <ele>802.1</ele>
        <time>2026-05-02T08:16:14Z</time>
      </trkpt>
      <trkpt lat="45.11309" lon="4.64088">
        <ele>803.5</ele>
        <time>2026-05-02T08:16:19Z</time>
      </trkpt>
      <trkpt lat="45.11305" lon="4.64097">
        <ele>804.8</ele>
        <time>2026-05-02T08:16:24Z</time>
      </trkpt>
      <trkpt lat="45.11302" lon="4.64106">
        <ele>805.7</ele>
        <time>2026-05-02T08:16:29Z</time>
      </trkpt>
      <trkpt lat="45.11299" lon="4.64115">
        <ele>806.5</ele>
        <time>2026-05-02T08:16:34Z</time>
      </trkpt>
      <trkpt lat="45.11297" lon="4.64123">
        <ele>807</ele>
        <time>2026-05-02T08:16:39Z</time>
      </trkpt>
      <trkpt lat="45.11293" lon="4.64134">
        <ele>808.2</ele>
        <time>2026-05-02T08:16:44Z</time>
      </trkpt>
      <trkpt lat="45.11293" lon="4.64144">
        <ele>807.6</ele>
        <time>2026-05-02T08:16:49Z</time>
      </trkpt>
      <trkpt lat="45.11294" lon="4.64153">
        <ele>806.7</ele>
        <time>2026-05-02T08:16:54Z</time>
      </trkpt>
      <trkpt lat="45.11294" lon="4.64159">
        <ele>806.4</ele>
        <time>2026-05-02T08:16:59Z</time>
      </trkpt>
      <trkpt lat="45.11294" lon="4.64167">
        <ele>805.9</ele>
        <time>2026-05-02T08:17:04Z</time>
      </trkpt>
      <trkpt lat="45.11294" lon="4.64175">
        <ele>806</ele>
        <time>2026-05-02T08:17:09Z</time>
      </trkpt>
      <trkpt lat="45.11293" lon="4.64184">
        <ele>806.5</ele>
        <time>2026-05-02T08:17:14Z</time>
      </trkpt>
      <trkpt lat="45.11294" lon="4.64191">
        <ele>806.1</ele>
        <time>2026-05-02T08:17:19Z</time>
      </trkpt>
      <trkpt lat="45.11294" lon="4.64201">
        <ele>806.2</ele>
        <time>2026-05-02T08:17:24Z</time>
      </trkpt>
      <trkpt lat="45.11295" lon="4.6421">
        <ele>805.8</ele>
        <time>2026-05-02T08:17:29Z</time>
      </trkpt>
      <trkpt lat="45.11298" lon="4.64219">
        <ele>804.7</ele>
        <time>2026-05-02T08:17:34Z</time>
      </trkpt>
      <trkpt lat="45.113" lon="4.64227">
        <ele>803.9</ele>
        <time>2026-05-02T08:17:39Z</time>
      </trkpt>
      <trkpt lat="45.11303" lon="4.64233">
        <ele>802.8</ele>
        <time>2026-05-02T08:17:44Z</time>
      </trkpt>
      <trkpt lat="45.11308" lon="4.6424">
        <ele>800.9</ele>
        <time>2026-05-02T08:17:49Z</time>
      </trkpt>
      <trkpt lat="45.11313" lon="4.64247">
        <ele>799</ele>
        <time>2026-05-02T08:17:54Z</time>
      </trkpt>
      <trkpt lat="45.11316" lon="4.64256">
        <ele>797.9</ele>
        <time>2026-05-02T08:17:59Z</time>
      </trkpt>
      <trkpt lat="45.11323" lon="4.64263">
        <ele>795.3</ele>
        <time>2026-05-02T08:18:04Z</time>
      </trkpt>
      <trkpt lat="45.1133" lon="4.6427">
        <ele>792.8</ele>
        <time>2026-05-02T08:18:09Z</time>
      </trkpt>
      <trkpt lat="45.11337" lon="4.64276">
        <ele>790.8</ele>
        <time>2026-05-02T08:18:14Z</time>
      </trkpt>
      <trkpt lat="45.11343" lon="4.64282">
        <ele>789.6</ele>
        <time>2026-05-02T08:18:19Z</time>
      </trkpt>
      <trkpt lat="45.11351" lon="4.64286">
        <ele>787.9</ele>
        <time>2026-05-02T08:18:24Z</time>
      </trkpt>
      <trkpt lat="45.11356" lon="4.6429">
        <ele>787</ele>
        <time>2026-05-02T08:18:29Z</time>
      </trkpt>
      <trkpt lat="45.11361" lon="4.64293">
        <ele>786.1</ele>
        <time>2026-05-02T08:18:34Z</time>
      </trkpt>
      <trkpt lat="45.11367" lon="4.64296">
        <ele>785</ele>
        <time>2026-05-02T08:18:39Z</time>
      </trkpt>
      <trkpt lat="45.11372" lon="4.643">
        <ele>784.2</ele>
        <time>2026-05-02T08:18:44Z</time>
      </trkpt>
      <trkpt lat="45.11377" lon="4.64302">
        <ele>783.3</ele>
        <time>2026-05-02T08:18:49Z</time>
      </trkpt>
      <trkpt lat="45.1138" lon="4.64306">
        <ele>783</ele>
        <time>2026-05-02T08:18:54Z</time>
      </trkpt>
      <trkpt lat="45.11382" lon="4.6431">
        <ele>783</ele>
        <time>2026-05-02T08:18:59Z</time>
      </trkpt>
      <trkpt lat="45.11385" lon="4.64312">
        <ele>782.5</ele>
        <time>2026-05-02T08:19:04Z</time>
      </trkpt>
      <trkpt lat="45.11387" lon="4.64316">
        <ele>782.5</ele>
        <time>2026-05-02T08:19:09Z</time>
      </trkpt>
      <trkpt lat="45.11389" lon="4.6432">
        <ele>782.5</ele>
        <time>2026-05-02T08:19:14Z</time>
      </trkpt>
      <trkpt lat="45.11391" lon="4.64325">
        <ele>782.6</ele>
        <time>2026-05-02T08:19:19Z</time>
      </trkpt>
      <trkpt lat="45.11393" lon="4.64331">
        <ele>782.8</ele>
        <time>2026-05-02T08:19:24Z</time>
      </trkpt>
      <trkpt lat="45.11396" lon="4.64335">
        <ele>782.6</ele>
        <time>2026-05-02T08:19:29Z</time>
      </trkpt>
      <trkpt lat="45.11397" lon="4.64341">
        <ele>782.8</ele>
        <time>2026-05-02T08:19:34Z</time>
      </trkpt>
      <trkpt lat="45.11398" lon="4.64346">
        <ele>783</ele>
        <time>2026-05-02T08:19:39Z</time>
      </trkpt>
      <trkpt lat="45.11398" lon="4.64351">
        <ele>783.3</ele>
        <time>2026-05-02T08:19:44Z</time>
      </trkpt>
      <trkpt lat="45.11397" lon="4.64356">
        <ele>783.8</ele>
        <time>2026-05-02T08:19:49Z</time>
      </trkpt>
      <trkpt lat="45.11399" lon="4.64363">
        <ele>784</ele>
        <time>2026-05-02T08:19:54Z</time>
      </trkpt>
      <trkpt lat="45.11398" lon="4.64369">
        <ele>784.6</ele>
        <time>2026-05-02T08:19:59Z</time>
      </trkpt>
      <trkpt lat="45.11399" lon="4.64376">
        <ele>784.9</ele>
        <time>2026-05-02T08:20:04Z</time>
      </trkpt>
      <trkpt lat="45.114" lon="4.64382">
        <ele>785.2</ele>
        <time>2026-05-02T08:20:09Z</time>
      </trkpt>
      <trkpt lat="45.11401" lon="4.6439">
        <ele>785.6</ele>
        <time>2026-05-02T08:20:14Z</time>
      </trkpt>
      <trkpt lat="45.11402" lon="4.64396">
        <ele>785.9</ele>
        <time>2026-05-02T08:20:19Z</time>
      </trkpt>
      <trkpt lat="45.11403" lon="4.64402">
        <ele>786.3</ele>
        <time>2026-05-02T08:20:24Z</time>
      </trkpt>
      <trkpt lat="45.11405" lon="4.64406">
        <ele>786.3</ele>
        <time>2026-05-02T08:20:29Z</time>
      </trkpt>
      <trkpt lat="45.11409" lon="4.6441">
        <ele>786.2</ele>
        <time>2026-05-02T08:20:34Z</time>
      </trkpt>
      <trkpt lat="45.11413" lon="4.64411">
        <ele>785.9</ele>
        <time>2026-05-02T08:20:39Z</time>
      </trkpt>
      <trkpt lat="45.11418" lon="4.64411">
        <ele>785.4</ele>
        <time>2026-05-02T08:20:44Z</time>
      </trkpt>
      <trkpt lat="45.11422" lon="4.6441">
        <ele>785.1</ele>
        <time>2026-05-02T08:20:49Z</time>
      </trkpt>
      <trkpt lat="45.11427" lon="4.6441">
        <ele>784.7</ele>
        <time>2026-05-02T08:20:54Z</time>
      </trkpt>
      <trkpt lat="45.11431" lon="4.64411">
        <ele>784.5</ele>
        <time>2026-05-02T08:20:59Z</time>
      </trkpt>
      <trkpt lat="45.11436" lon="4.64412">
        <ele>784.3</ele>
        <time>2026-05-02T08:21:04Z</time>
      </trkpt>
      <trkpt lat="45.11441" lon="4.64415">
        <ele>784.3</ele>
        <time>2026-05-02T08:21:09Z</time>
      </trkpt>
      <trkpt lat="45.11445" lon="4.64419">
        <ele>784.4</ele>
        <time>2026-05-02T08:21:14Z</time>
      </trkpt>
      <trkpt lat="45.11449" lon="4.64426">
        <ele>784.5</ele>
        <time>2026-05-02T08:21:19Z</time>
      </trkpt>
      <trkpt lat="45.11451" lon="4.64434">
        <ele>784.8</ele>
        <time>2026-05-02T08:21:24Z</time>
      </trkpt>
      <trkpt lat="45.11454" lon="4.64441">
        <ele>785</ele>
        <time>2026-05-02T08:21:29Z</time>
      </trkpt>
      <trkpt lat="45.11454" lon="4.64448">
        <ele>785.4</ele>
        <time>2026-05-02T08:21:34Z</time>
      </trkpt>
      <trkpt lat="45.11453" lon="4.64454">
        <ele>785.7</ele>
        <time>2026-05-02T08:21:39Z</time>
      </trkpt>
      <trkpt lat="45.11453" lon="4.64458">
        <ele>786</ele>
        <time>2026-05-02T08:21:44Z</time>
      </trkpt>
      <trkpt lat="45.11452" lon="4.64464">
        <ele>786.3</ele>
        <time>2026-05-02T08:21:49Z</time>
      </trkpt>
      <trkpt lat="45.11451" lon="4.64472">
        <ele>786.8</ele>
        <time>2026-05-02T08:21:54Z</time>
      </trkpt>
      <trkpt lat="45.11449" lon="4.6448">
        <ele>787.2</ele>
        <time>2026-05-02T08:21:59Z</time>
      </trkpt>
      <trkpt lat="45.11446" lon="4.64487">
        <ele>787.7</ele>
        <time>2026-05-02T08:22:04Z</time>
      </trkpt>
      <trkpt lat="45.11445" lon="4.64494">
        <ele>788</ele>
        <time>2026-05-02T08:22:09Z</time>
      </trkpt>
      <trkpt lat="45.11441" lon="4.64499">
        <ele>788.4</ele>
        <time>2026-05-02T08:22:14Z</time>
      </trkpt>
      <trkpt lat="45.11437" lon="4.64504">
        <ele>788.4</ele>
        <time>2026-05-02T08:22:19Z</time>
      </trkpt>
      <trkpt lat="45.11432" lon="4.64512">
        <ele>788.4</ele>
        <time>2026-05-02T08:22:24Z</time>
      </trkpt>
      <trkpt lat="45.11428" lon="4.64517">
        <ele>788.5</ele>
        <time>2026-05-02T08:22:29Z</time>
      </trkpt>
      <trkpt lat="45.11424" lon="4.64522">
        <ele>788.5</ele>
        <time>2026-05-02T08:22:34Z</time>
      </trkpt>
      <trkpt lat="45.11419" lon="4.64527">
        <ele>788.6</ele>
        <time>2026-05-02T08:22:39Z</time>
      </trkpt>
      <trkpt lat="45.11413" lon="4.64532">
        <ele>789</ele>
        <time>2026-05-02T08:22:44Z</time>
      </trkpt>
      <trkpt lat="45.11408" lon="4.64539">
        <ele>789.4</ele>
        <time>2026-05-02T08:22:49Z</time>
      </trkpt>
      <trkpt lat="45.11403" lon="4.64543">
        <ele>789.9</ele>
        <time>2026-05-02T08:22:54Z</time>
      </trkpt>
      <trkpt lat="45.11397" lon="4.64545">
        <ele>790.5</ele>
        <time>2026-05-02T08:22:59Z</time>
      </trkpt>
      <trkpt lat="45.11393" lon="4.64547">
        <ele>790.9</ele>
        <time>2026-05-02T08:23:04Z</time>
      </trkpt>
      <trkpt lat="45.11386" lon="4.64553">
        <ele>791.7</ele>
        <time>2026-05-02T08:23:09Z</time>
      </trkpt>
      <trkpt lat="45.11381" lon="4.64559">
        <ele>792.4</ele>
        <time>2026-05-02T08:23:14Z</time>
      </trkpt>
      <trkpt lat="45.11376" lon="4.64564">
        <ele>793</ele>
        <time>2026-05-02T08:23:19Z</time>
      </trkpt>
      <trkpt lat="45.11372" lon="4.6457">
        <ele>793.6</ele>
        <time>2026-05-02T08:23:24Z</time>
      </trkpt>
      <trkpt lat="45.11368" lon="4.64578">
        <ele>794.3</ele>
        <time>2026-05-02T08:23:29Z</time>
      </trkpt>
      <trkpt lat="45.11367" lon="4.64586">
        <ele>794.6</ele>
        <time>2026-05-02T08:23:34Z</time>
      </trkpt>
      <trkpt lat="45.11367" lon="4.64592">
        <ele>794.6</ele>
        <time>2026-05-02T08:23:39Z</time>
      </trkpt>
      <trkpt lat="45.11366" lon="4.64595">
        <ele>794.7</ele>
        <time>2026-05-02T08:23:44Z</time>
      </trkpt>
      <trkpt lat="45.11366" lon="4.64596">
        <ele>794.7</ele>
        <time>2026-05-02T08:23:49Z</time>
      </trkpt>
      <trkpt lat="45.11366" lon="4.64596">
        <ele>794.7</ele>
        <time>2026-05-02T08:23:54Z</time>
      </trkpt>
      <trkpt lat="45.11366" lon="4.64596">
        <ele>794.7</ele>
        <time>2026-05-02T08:23:59Z</time>
      </trkpt>
      <trkpt lat="45.11366" lon="4.64596">
        <ele>794.7</ele>
        <time>2026-05-02T08:24:04Z</time>
      </trkpt>
      <trkpt lat="45.11366" lon="4.64596">
        <ele>794.7</ele>
        <time>2026-05-02T08:24:09Z</time>
      </trkpt>
      <trkpt lat="45.11366" lon="4.64596">
        <ele>794.7</ele>
        <time>2026-05-02T08:24:14Z</time>
      </trkpt>
      <trkpt lat="45.11354" lon="4.64588">
        <ele>796.3</ele>
        <time>2026-05-02T08:24:19Z</time>
      </trkpt>
      <trkpt lat="45.11351" lon="4.64596">
        <ele>796.7</ele>
        <time>2026-05-02T08:24:24Z</time>
      </trkpt>
      <trkpt lat="45.11347" lon="4.64603">
        <ele>797.2</ele>
        <time>2026-05-02T08:24:29Z</time>
      </trkpt>
      <trkpt lat="45.11345" lon="4.64612">
        <ele>797.5</ele>
        <time>2026-05-02T08:24:34Z</time>
      </trkpt>
      <trkpt lat="45.11342" lon="4.64619">
        <ele>797.9</ele>
        <time>2026-05-02T08:24:39Z</time>
      </trkpt>
      <trkpt lat="45.11338" lon="4.64629">
        <ele>798.4</ele>
        <time>2026-05-02T08:24:44Z</time>
      </trkpt>
      <trkpt lat="45.11336" lon="4.64637">
        <ele>798.6</ele>
        <time>2026-05-02T08:24:49Z</time>
      </trkpt>
      <trkpt lat="45.11332" lon="4.64648">
        <ele>799.2</ele>
        <time>2026-05-02T08:24:54Z</time>
      </trkpt>
      <trkpt lat="45.11332" lon="4.64657">
        <ele>799.1</ele>
        <time>2026-05-02T08:24:59Z</time>
      </trkpt>
      <trkpt lat="45.11334" lon="4.64658">
        <ele>798.9</ele>
        <time>2026-05-02T08:25:04Z</time>
      </trkpt>
      <trkpt lat="45.11335" lon="4.64658">
        <ele>798.8</ele>
        <time>2026-05-02T08:25:09Z</time>
      </trkpt>
      <trkpt lat="45.11335" lon="4.64658">
        <ele>798.8</ele>
        <time>2026-05-02T08:25:14Z</time>
      </trkpt>
      <trkpt lat="45.11335" lon="4.64658">
        <ele>798.8</ele>
        <time>2026-05-02T08:25:19Z</time>
      </trkpt>
      <trkpt lat="45.11335" lon="4.64658">
        <ele>798.8</ele>
        <time>2026-05-02T08:25:24Z</time>
      </trkpt>
      <trkpt lat="45.11332" lon="4.6466">
        <ele>799.1</ele>
        <time>2026-05-02T08:25:29Z</time>
      </trkpt>
      <trkpt lat="45.11331" lon="4.64669">
        <ele>799.4</ele>
        <time>2026-05-02T08:25:34Z</time>
      </trkpt>
      <trkpt lat="45.1133" lon="4.64675">
        <ele>799.8</ele>
        <time>2026-05-02T08:25:39Z</time>
      </trkpt>
      <trkpt lat="45.11332" lon="4.64685">
        <ele>800</ele>
        <time>2026-05-02T08:25:44Z</time>
      </trkpt>
      <trkpt lat="45.11334" lon="4.64693">
        <ele>800.2</ele>
        <time>2026-05-02T08:25:49Z</time>
      </trkpt>
      <trkpt lat="45.11336" lon="4.64702">
        <ele>800.3</ele>
        <time>2026-05-02T08:25:54Z</time>
      </trkpt>
      <trkpt lat="45.11337" lon="4.64711">
        <ele>800.6</ele>
        <time>2026-05-02T08:25:59Z</time>
      </trkpt>
      <trkpt lat="45.11339" lon="4.6472">
        <ele>800.7</ele>
        <time>2026-05-02T08:26:04Z</time>
      </trkpt>
      <trkpt lat="45.11341" lon="4.64728">
        <ele>800.8</ele>
        <time>2026-05-02T08:26:09Z</time>
      </trkpt>
      <trkpt lat="45.11343" lon="4.64735">
        <ele>800.8</ele>
        <time>2026-05-02T08:26:14Z</time>
      </trkpt>
      <trkpt lat="45.11346" lon="4.64742">
        <ele>800.7</ele>
        <time>2026-05-02T08:26:19Z</time>
      </trkpt>
      <trkpt lat="45.11348" lon="4.6475">
        <ele>800.7</ele>
        <time>2026-05-02T08:26:24Z</time>
      </trkpt>
      <trkpt lat="45.11352" lon="4.64759">
        <ele>801</ele>
        <time>2026-05-02T08:26:29Z</time>
      </trkpt>
      <trkpt lat="45.11352" lon="4.64762">
        <ele>801.3</ele>
        <time>2026-05-02T08:26:34Z</time>
      </trkpt>
      <trkpt lat="45.11354" lon="4.64763">
        <ele>801</ele>
        <time>2026-05-02T08:26:39Z</time>
      </trkpt>
      <trkpt lat="45.11358" lon="4.64767">
        <ele>800.7</ele>
        <time>2026-05-02T08:26:44Z</time>
      </trkpt>
      <trkpt lat="45.1136" lon="4.64774">
        <ele>801.1</ele>
        <time>2026-05-02T08:26:49Z</time>
      </trkpt>
      <trkpt lat="45.11361" lon="4.64781">
        <ele>801.5</ele>
        <time>2026-05-02T08:26:54Z</time>
      </trkpt>
      <trkpt lat="45.11363" lon="4.64787">
        <ele>801.7</ele>
        <time>2026-05-02T08:26:59Z</time>
      </trkpt>
      <trkpt lat="45.11366" lon="4.64795">
        <ele>801.9</ele>
        <time>2026-05-02T08:27:04Z</time>
      </trkpt>
      <trkpt lat="45.11368" lon="4.64802">
        <ele>802.2</ele>
        <time>2026-05-02T08:27:09Z</time>
      </trkpt>
      <trkpt lat="45.11372" lon="4.6481">
        <ele>802.1</ele>
        <time>2026-05-02T08:27:14Z</time>
      </trkpt>
      <trkpt lat="45.11374" lon="4.64818">
        <ele>802.4</ele>
        <time>2026-05-02T08:27:19Z</time>
      </trkpt>
      <trkpt lat="45.11376" lon="4.64826">
        <ele>802.7</ele>
        <time>2026-05-02T08:27:24Z</time>
      </trkpt>
      <trkpt lat="45.11379" lon="4.64828">
        <ele>802.2</ele>
        <time>2026-05-02T08:27:29Z</time>
      </trkpt>
      <trkpt lat="45.11383" lon="4.64834">
        <ele>801.9</ele>
        <time>2026-05-02T08:27:34Z</time>
      </trkpt>
      <trkpt lat="45.11384" lon="4.64842">
        <ele>802.1</ele>
        <time>2026-05-02T08:27:39Z</time>
      </trkpt>
      <trkpt lat="45.11386" lon="4.64849">
        <ele>802.1</ele>
        <time>2026-05-02T08:27:44Z</time>
      </trkpt>
      <trkpt lat="45.11387" lon="4.64858">
        <ele>802.4</ele>
        <time>2026-05-02T08:27:49Z</time>
      </trkpt>
      <trkpt lat="45.11389" lon="4.64867">
        <ele>802.4</ele>
        <time>2026-05-02T08:27:54Z</time>
      </trkpt>
      <trkpt lat="45.11391" lon="4.6487">
        <ele>802.1</ele>
        <time>2026-05-02T08:27:59Z</time>
      </trkpt>
      <trkpt lat="45.11393" lon="4.64871">
        <ele>801.7</ele>
        <time>2026-05-02T08:28:04Z</time>
      </trkpt>
      <trkpt lat="45.11393" lon="4.64871">
        <ele>801.7</ele>
        <time>2026-05-02T08:28:09Z</time>
      </trkpt>
      <trkpt lat="45.11396" lon="4.64882">
        <ele>801.5</ele>
        <time>2026-05-02T08:28:14Z</time>
      </trkpt>
      <trkpt lat="45.11397" lon="4.64889">
        <ele>801.6</ele>
        <time>2026-05-02T08:28:19Z</time>
      </trkpt>
      <trkpt lat="45.11399" lon="4.64897">
        <ele>801.5</ele>
        <time>2026-05-02T08:28:24Z</time>
      </trkpt>
      <trkpt lat="45.11402" lon="4.64906">
        <ele>801.2</ele>
        <time>2026-05-02T08:28:29Z</time>
      </trkpt>
      <trkpt lat="45.11401" lon="4.64914">
        <ele>801.8</ele>
        <time>2026-05-02T08:28:34Z</time>
      </trkpt>
      <trkpt lat="45.11402" lon="4.64921">
        <ele>801.7</ele>
        <time>2026-05-02T08:28:39Z</time>
      </trkpt>
      <trkpt lat="45.11401" lon="4.64928">
        <ele>802</ele>
        <time>2026-05-02T08:28:44Z</time>
      </trkpt>
      <trkpt lat="45.11401" lon="4.64936">
        <ele>802</ele>
        <time>2026-05-02T08:28:49Z</time>
      </trkpt>
      <trkpt lat="45.11399" lon="4.64945">
        <ele>802.4</ele>
        <time>2026-05-02T08:28:54Z</time>
      </trkpt>
      <trkpt lat="45.11398" lon="4.64953">
        <ele>802.7</ele>
        <time>2026-05-02T08:28:59Z</time>
      </trkpt>
      <trkpt lat="45.11398" lon="4.64962">
        <ele>802.6</ele>
        <time>2026-05-02T08:29:04Z</time>
      </trkpt>
      <trkpt lat="45.11396" lon="4.64972">
        <ele>803</ele>
        <time>2026-05-02T08:29:09Z</time>
      </trkpt>
      <trkpt lat="45.11395" lon="4.64981">
        <ele>803.2</ele>
        <time>2026-05-02T08:29:14Z</time>
      </trkpt>
      <trkpt lat="45.11394" lon="4.64991">
        <ele>803.4</ele>
        <time>2026-05-02T08:29:19Z</time>
      </trkpt>
      <trkpt lat="45.11395" lon="4.65002">
        <ele>803</ele>
        <time>2026-05-02T08:29:24Z</time>
      </trkpt>
      <trkpt lat="45.11393" lon="4.65012">
        <ele>802.6</ele>
        <time>2026-05-02T08:29:29Z</time>
      </trkpt>
      <trkpt lat="45.1139" lon="4.65021">
        <ele>802.4</ele>
        <time>2026-05-02T08:29:34Z</time>
      </trkpt>
      <trkpt lat="45.11387" lon="4.65032">
        <ele>802.1</ele>
        <time>2026-05-02T08:29:39Z</time>
      </trkpt>
      <trkpt lat="45.11385" lon="4.65042">
        <ele>801.7</ele>
        <time>2026-05-02T08:29:44Z</time>
      </trkpt>
      <trkpt lat="45.11383" lon="4.65052">
        <ele>801.2</ele>
        <time>2026-05-02T08:29:49Z</time>
      </trkpt>
      <trkpt lat="45.11379" lon="4.65061">
        <ele>801.2</ele>
        <time>2026-05-02T08:29:54Z</time>
      </trkpt>
      <trkpt lat="45.11375" lon="4.6507">
        <ele>801.1</ele>
        <time>2026-05-02T08:29:59Z</time>
      </trkpt>
      <trkpt lat="45.11372" lon="4.6508">
        <ele>800.8</ele>
        <time>2026-05-02T08:30:04Z</time>
      </trkpt>
      <trkpt lat="45.11369" lon="4.6509">
        <ele>800.3</ele>
        <time>2026-05-02T08:30:09Z</time>
      </trkpt>
      <trkpt lat="45.11366" lon="4.651">
        <ele>799.7</ele>
        <time>2026-05-02T08:30:14Z</time>
      </trkpt>
      <trkpt lat="45.11363" lon="4.65108">
        <ele>799.4</ele>
        <time>2026-05-02T08:30:19Z</time>
      </trkpt>
      <trkpt lat="45.11359" lon="4.65117">
        <ele>799</ele>
        <time>2026-05-02T08:30:24Z</time>
      </trkpt>
      <trkpt lat="45.11355" lon="4.65128">
        <ele>798.4</ele>
        <time>2026-05-02T08:30:29Z</time>
      </trkpt>
      <trkpt lat="45.11353" lon="4.65135">
        <ele>797.9</ele>
        <time>2026-05-02T08:30:34Z</time>
      </trkpt>
      <trkpt lat="45.1135" lon="4.65146">
        <ele>797.1</ele>
        <time>2026-05-02T08:30:39Z</time>
      </trkpt>
      <trkpt lat="45.11347" lon="4.65154">
        <ele>796.6</ele>
        <time>2026-05-02T08:30:44Z</time>
      </trkpt>
      <trkpt lat="45.11342" lon="4.65162">
        <ele>796.4</ele>
        <time>2026-05-02T08:30:49Z</time>
      </trkpt>
      <trkpt lat="45.11337" lon="4.65169">
        <ele>796.2</ele>
        <time>2026-05-02T08:30:54Z</time>
      </trkpt>
      <trkpt lat="45.11332" lon="4.65178">
        <ele>795.6</ele>
        <time>2026-05-02T08:30:59Z</time>
      </trkpt>
      <trkpt lat="45.11328" lon="4.65185">
        <ele>794.4</ele>
        <time>2026-05-02T08:31:04Z</time>
      </trkpt>
      <trkpt lat="45.11324" lon="4.65192">
        <ele>793.2</ele>
        <time>2026-05-02T08:31:09Z</time>
      </trkpt>
      <trkpt lat="45.1132" lon="4.65203">
        <ele>791.4</ele>
        <time>2026-05-02T08:31:14Z</time>
      </trkpt>
      <trkpt lat="45.11316" lon="4.65212">
        <ele>789.8</ele>
        <time>2026-05-02T08:31:19Z</time>
      </trkpt>
      <trkpt lat="45.1131" lon="4.6522">
        <ele>788</ele>
        <time>2026-05-02T08:31:24Z</time>
      </trkpt>
      <trkpt lat="45.11306" lon="4.65228">
        <ele>786.4</ele>
        <time>2026-05-02T08:31:29Z</time>
      </trkpt>
      <trkpt lat="45.11301" lon="4.65236">
        <ele>784.5</ele>
        <time>2026-05-02T08:31:34Z</time>
      </trkpt>
      <trkpt lat="45.11295" lon="4.65243">
        <ele>782.6</ele>
        <time>2026-05-02T08:31:39Z</time>
      </trkpt>
      <trkpt lat="45.11289" lon="4.65249">
        <ele>780.8</ele>
        <time>2026-05-02T08:31:44Z</time>
      </trkpt>
      <trkpt lat="45.11283" lon="4.65255">
        <ele>779.5</ele>
        <time>2026-05-02T08:31:49Z</time>
      </trkpt>
      <trkpt lat="45.11275" lon="4.6526">
        <ele>777.9</ele>
        <time>2026-05-02T08:31:54Z</time>
      </trkpt>
      <trkpt lat="45.1127" lon="4.65263">
        <ele>777</ele>
        <time>2026-05-02T08:31:59Z</time>
      </trkpt>
      <trkpt lat="45.11264" lon="4.65268">
        <ele>775.7</ele>
        <time>2026-05-02T08:32:04Z</time>
      </trkpt>
      <trkpt lat="45.1126" lon="4.65271">
        <ele>774.8</ele>
        <time>2026-05-02T08:32:09Z</time>
      </trkpt>
      <trkpt lat="45.11259" lon="4.65268">
        <ele>774.9</ele>
        <time>2026-05-02T08:32:14Z</time>
      </trkpt>
      <trkpt lat="45.11257" lon="4.65267">
        <ele>774.7</ele>
        <time>2026-05-02T08:32:19Z</time>
      </trkpt>
      <trkpt lat="45.11257" lon="4.65267">
        <ele>774.7</ele>
        <time>2026-05-02T08:32:24Z</time>
      </trkpt>
      <trkpt lat="45.11257" lon="4.65267">
        <ele>774.7</ele>
        <time>2026-05-02T08:32:29Z</time>
      </trkpt>
      <trkpt lat="45.11257" lon="4.65267">
        <ele>774.7</ele>
        <time>2026-05-02T08:32:34Z</time>
      </trkpt>
      <trkpt lat="45.11257" lon="4.65267">
        <ele>774.7</ele>
        <time>2026-05-02T08:32:39Z</time>
      </trkpt>
      <trkpt lat="45.11257" lon="4.65267">
        <ele>774.7</ele>
        <time>2026-05-02T08:32:44Z</time>
      </trkpt>
      <trkpt lat="45.11257" lon="4.65267">
        <ele>774.7</ele>
        <time>2026-05-02T08:32:49Z</time>
      </trkpt>
      <trkpt lat="45.11257" lon="4.65267">
        <ele>774.7</ele>
        <time>2026-05-02T08:32:54Z</time>
      </trkpt>
      <trkpt lat="45.11257" lon="4.65267">
        <ele>774.7</ele>
        <time>2026-05-02T08:32:59Z</time>
      </trkpt>
      <trkpt lat="45.11257" lon="4.65267">
        <ele>774.7</ele>
        <time>2026-05-02T08:33:04Z</time>
      </trkpt>
      <trkpt lat="45.11257" lon="4.65267">
        <ele>774.7</ele>
        <time>2026-05-02T08:33:09Z</time>
      </trkpt>
      <trkpt lat="45.11257" lon="4.65267">
        <ele>774.7</ele>
        <time>2026-05-02T08:33:14Z</time>
      </trkpt>
      <trkpt lat="45.11257" lon="4.65267">
        <ele>774.7</ele>
        <time>2026-05-02T08:33:19Z</time>
      </trkpt>
      <trkpt lat="45.11257" lon="4.65267">
        <ele>774.7</ele>
        <time>2026-05-02T08:33:24Z</time>
      </trkpt>
      <trkpt lat="45.11257" lon="4.65267">
        <ele>774.7</ele>
        <time>2026-05-02T08:33:29Z</time>
      </trkpt>
      <trkpt lat="45.11257" lon="4.65267">
        <ele>774.7</ele>
        <time>2026-05-02T08:33:34Z</time>
      </trkpt>
      <trkpt lat="45.11257" lon="4.65267">
        <ele>774.7</ele>
        <time>2026-05-02T08:33:39Z</time>
      </trkpt>
      <trkpt lat="45.11257" lon="4.65267">
        <ele>774.7</ele>
        <time>2026-05-02T08:33:44Z</time>
      </trkpt>
      <trkpt lat="45.11257" lon="4.65267">
        <ele>774.7</ele>
        <time>2026-05-02T08:33:49Z</time>
      </trkpt>
      <trkpt lat="45.11257" lon="4.65267">
        <ele>774.7</ele>
        <time>2026-05-02T08:33:54Z</time>
      </trkpt>
      <trkpt lat="45.11257" lon="4.65267">
        <ele>774.7</ele>
        <time>2026-05-02T08:33:59Z</time>
      </trkpt>
      <trkpt lat="45.11257" lon="4.65267">
        <ele>774.7</ele>
        <time>2026-05-02T08:34:04Z</time>
      </trkpt>
      <trkpt lat="45.11257" lon="4.65267">
        <ele>774.7</ele>
        <time>2026-05-02T08:34:09Z</time>
      </trkpt>
      <trkpt lat="45.11257" lon="4.65267">
        <ele>774.7</ele>
        <time>2026-05-02T08:34:14Z</time>
      </trkpt>
      <trkpt lat="45.11257" lon="4.65267">
        <ele>774.7</ele>
        <time>2026-05-02T08:34:19Z</time>
      </trkpt>
      <trkpt lat="45.11257" lon="4.65267">
        <ele>774.7</ele>
        <time>2026-05-02T08:34:24Z</time>
      </trkpt>
      <trkpt lat="45.11257" lon="4.65267">
        <ele>774.7</ele>
        <time>2026-05-02T08:34:29Z</time>
      </trkpt>
      <trkpt lat="45.11257" lon="4.65267">
        <ele>774.7</ele>
        <time>2026-05-02T08:34:34Z</time>
      </trkpt>
      <trkpt lat="45.11257" lon="4.65267">
        <ele>774.7</ele>
        <time>2026-05-02T08:34:39Z</time>
      </trkpt>
      <trkpt lat="45.11257" lon="4.65267">
        <ele>774.7</ele>
        <time>2026-05-02T08:34:44Z</time>
      </trkpt>
      <trkpt lat="45.11257" lon="4.65267">
        <ele>774.7</ele>
        <time>2026-05-02T08:34:49Z</time>
      </trkpt>
      <trkpt lat="45.11257" lon="4.65267">
        <ele>774.7</ele>
        <time>2026-05-02T08:34:54Z</time>
      </trkpt>
      <trkpt lat="45.11257" lon="4.65267">
        <ele>774.7</ele>
        <time>2026-05-02T08:34:59Z</time>
      </trkpt>
      <trkpt lat="45.11257" lon="4.65267">
        <ele>774.7</ele>
        <time>2026-05-02T08:35:04Z</time>
      </trkpt>
      <trkpt lat="45.11257" lon="4.65267">
        <ele>774.7</ele>
        <time>2026-05-02T08:35:09Z</time>
      </trkpt>
      <trkpt lat="45.11257" lon="4.65267">
        <ele>774.7</ele>
        <time>2026-05-02T08:35:14Z</time>
      </trkpt>
      <trkpt lat="45.11257" lon="4.65267">
        <ele>774.7</ele>
        <time>2026-05-02T08:35:19Z</time>
      </trkpt>
      <trkpt lat="45.11257" lon="4.65267">
        <ele>774.7</ele>
        <time>2026-05-02T08:35:24Z</time>
      </trkpt>
      <trkpt lat="45.11257" lon="4.65267">
        <ele>774.7</ele>
        <time>2026-05-02T08:35:29Z</time>
      </trkpt>
      <trkpt lat="45.11257" lon="4.65267">
        <ele>774.7</ele>
        <time>2026-05-02T08:35:34Z</time>
      </trkpt>
      <trkpt lat="45.11257" lon="4.65267">
        <ele>774.7</ele>
        <time>2026-05-02T08:35:39Z</time>
      </trkpt>
      <trkpt lat="45.11257" lon="4.65267">
        <ele>774.7</ele>
        <time>2026-05-02T08:35:44Z</time>
      </trkpt>
      <trkpt lat="45.11257" lon="4.65267">
        <ele>774.7</ele>
        <time>2026-05-02T08:35:49Z</time>
      </trkpt>
      <trkpt lat="45.11257" lon="4.65267">
        <ele>774.7</ele>
        <time>2026-05-02T08:35:54Z</time>
      </trkpt>
      <trkpt lat="45.11257" lon="4.65267">
        <ele>774.7</ele>
        <time>2026-05-02T08:35:59Z</time>
      </trkpt>
      <trkpt lat="45.11257" lon="4.65267">
        <ele>774.7</ele>
        <time>2026-05-02T08:36:04Z</time>
      </trkpt>
      <trkpt lat="45.11257" lon="4.65267">
        <ele>774.7</ele>
        <time>2026-05-02T08:36:09Z</time>
      </trkpt>
      <trkpt lat="45.11257" lon="4.65267">
        <ele>774.7</ele>
        <time>2026-05-02T08:36:14Z</time>
      </trkpt>
      <trkpt lat="45.11257" lon="4.65267">
        <ele>774.7</ele>
        <time>2026-05-02T08:36:19Z</time>
      </trkpt>
      <trkpt lat="45.11257" lon="4.65267">
        <ele>774.7</ele>
        <time>2026-05-02T08:36:24Z</time>
      </trkpt>
      <trkpt lat="45.11257" lon="4.65267">
        <ele>774.7</ele>
        <time>2026-05-02T08:36:29Z</time>
      </trkpt>
      <trkpt lat="45.11257" lon="4.65267">
        <ele>774.7</ele>
        <time>2026-05-02T08:36:34Z</time>
      </trkpt>
      <trkpt lat="45.11257" lon="4.65267">
        <ele>774.7</ele>
        <time>2026-05-02T08:36:39Z</time>
      </trkpt>
      <trkpt lat="45.11257" lon="4.65267">
        <ele>774.7</ele>
        <time>2026-05-02T08:36:44Z</time>
      </trkpt>
      <trkpt lat="45.11257" lon="4.65267">
        <ele>774.7</ele>
        <time>2026-05-02T08:36:49Z</time>
      </trkpt>
      <trkpt lat="45.11257" lon="4.65267">
        <ele>774.7</ele>
        <time>2026-05-02T08:36:54Z</time>
      </trkpt>
      <trkpt lat="45.11257" lon="4.65267">
        <ele>774.7</ele>
        <time>2026-05-02T08:36:59Z</time>
      </trkpt>
      <trkpt lat="45.11257" lon="4.65267">
        <ele>774.7</ele>
        <time>2026-05-02T08:37:04Z</time>
      </trkpt>
      <trkpt lat="45.11257" lon="4.65267">
        <ele>774.7</ele>
        <time>2026-05-02T08:37:09Z</time>
      </trkpt>
      <trkpt lat="45.11257" lon="4.65267">
        <ele>774.7</ele>
        <time>2026-05-02T08:37:14Z</time>
      </trkpt>
      <trkpt lat="45.11257" lon="4.65267">
        <ele>774.7</ele>
        <time>2026-05-02T08:37:19Z</time>
      </trkpt>
      <trkpt lat="45.11257" lon="4.65267">
        <ele>774.7</ele>
        <time>2026-05-02T08:37:24Z</time>
      </trkpt>
      <trkpt lat="45.11257" lon="4.65267">
        <ele>774.7</ele>
        <time>2026-05-02T08:37:29Z</time>
      </trkpt>
      <trkpt lat="45.11257" lon="4.65267">
        <ele>774.7</ele>
        <time>2026-05-02T08:37:34Z</time>
      </trkpt>
      <trkpt lat="45.11257" lon="4.65267">
        <ele>774.7</ele>
        <time>2026-05-02T08:37:39Z</time>
      </trkpt>
      <trkpt lat="45.11257" lon="4.65267">
        <ele>774.7</ele>
        <time>2026-05-02T08:37:44Z</time>
      </trkpt>
      <trkpt lat="45.11257" lon="4.65267">
        <ele>774.7</ele>
        <time>2026-05-02T08:37:49Z</time>
      </trkpt>
      <trkpt lat="45.11257" lon="4.65267">
        <ele>774.7</ele>
        <time>2026-05-02T08:37:54Z</time>
      </trkpt>
      <trkpt lat="45.11257" lon="4.65267">
        <ele>774.7</ele>
        <time>2026-05-02T08:37:59Z</time>
      </trkpt>
      <trkpt lat="45.11257" lon="4.65267">
        <ele>774.7</ele>
        <time>2026-05-02T08:38:04Z</time>
      </trkpt>
      <trkpt lat="45.1126" lon="4.65274">
        <ele>774.6</ele>
        <time>2026-05-02T08:38:09Z</time>
      </trkpt>
      <trkpt lat="45.11262" lon="4.65282">
        <ele>774.3</ele>
        <time>2026-05-02T08:38:14Z</time>
      </trkpt>
      <trkpt lat="45.11264" lon="4.6529">
        <ele>774.1</ele>
        <time>2026-05-02T08:38:19Z</time>
      </trkpt>
      <trkpt lat="45.11269" lon="4.65296">
        <ele>774.5</ele>
        <time>2026-05-02T08:38:24Z</time>
      </trkpt>
      <trkpt lat="45.1127" lon="4.65302">
        <ele>774.3</ele>
        <time>2026-05-02T08:38:29Z</time>
      </trkpt>
      <trkpt lat="45.11271" lon="4.6531">
        <ele>773.9</ele>
        <time>2026-05-02T08:38:34Z</time>
      </trkpt>
      <trkpt lat="45.11268" lon="4.65317">
        <ele>772.8</ele>
        <time>2026-05-02T08:38:39Z</time>
      </trkpt>
      <trkpt lat="45.11265" lon="4.65324">
        <ele>771.7</ele>
        <time>2026-05-02T08:38:44Z</time>
      </trkpt>
      <trkpt lat="45.11261" lon="4.65332">
        <ele>770.3</ele>
        <time>2026-05-02T08:38:49Z</time>
      </trkpt>
      <trkpt lat="45.11257" lon="4.65338">
        <ele>769.9</ele>
        <time>2026-05-02T08:38:54Z</time>
      </trkpt>
      <trkpt lat="45.11253" lon="4.65346">
        <ele>770</ele>
        <time>2026-05-02T08:38:59Z</time>
      </trkpt>
      <trkpt lat="45.1125" lon="4.65353">
        <ele>770.1</ele>
        <time>2026-05-02T08:39:04Z</time>
      </trkpt>
      <trkpt lat="45.11246" lon="4.65361">
        <ele>769.8</ele>
        <time>2026-05-02T08:39:09Z</time>
      </trkpt>
      <trkpt lat="45.11241" lon="4.65368">
        <ele>769.1</ele>
        <time>2026-05-02T08:39:14Z</time>
      </trkpt>
      <trkpt lat="45.11236" lon="4.65376">
        <ele>768.4</ele>
        <time>2026-05-02T08:39:19Z</time>
      </trkpt>
      <trkpt lat="45.1123" lon="4.65383">
        <ele>767.3</ele>
        <time>2026-05-02T08:39:24Z</time>
      </trkpt>
      <trkpt lat="45.11224" lon="4.65389">
        <ele>766.1</ele>
        <time>2026-05-02T08:39:29Z</time>
      </trkpt>
      <trkpt lat="45.11218" lon="4.65394">
        <ele>764.8</ele>
        <time>2026-05-02T08:39:34Z</time>
      </trkpt>
      <trkpt lat="45.11212" lon="4.65401">
        <ele>763.6</ele>
        <time>2026-05-02T08:39:39Z</time>
      </trkpt>
      <trkpt lat="45.11206" lon="4.65407">
        <ele>762.4</ele>
        <time>2026-05-02T08:39:44Z</time>
      </trkpt>
      <trkpt lat="45.112" lon="4.65413">
        <ele>761.1</ele>
        <time>2026-05-02T08:39:49Z</time>
      </trkpt>
      <trkpt lat="45.11194" lon="4.65419">
        <ele>759.9</ele>
        <time>2026-05-02T08:39:54Z</time>
      </trkpt>
      <trkpt lat="45.11187" lon="4.65429">
        <ele>759.5</ele>
        <time>2026-05-02T08:39:59Z</time>
      </trkpt>
      <trkpt lat="45.11183" lon="4.65439">
        <ele>759.9</ele>
        <time>2026-05-02T08:40:04Z</time>
      </trkpt>
      <trkpt lat="45.1118" lon="4.65444">
        <ele>759.8</ele>
        <time>2026-05-02T08:40:09Z</time>
      </trkpt>
      <trkpt lat="45.11175" lon="4.65451">
        <ele>759.4</ele>
        <time>2026-05-02T08:40:14Z</time>
      </trkpt>
      <trkpt lat="45.1117" lon="4.6546">
        <ele>759.3</ele>
        <time>2026-05-02T08:40:19Z</time>
      </trkpt>
      <trkpt lat="45.11165" lon="4.65467">
        <ele>758.9</ele>
        <time>2026-05-02T08:40:24Z</time>
      </trkpt>
      <trkpt lat="45.1116" lon="4.65475">
        <ele>758.8</ele>
        <time>2026-05-02T08:40:29Z</time>
      </trkpt>
      <trkpt lat="45.11154" lon="4.65484">
        <ele>758.5</ele>
        <time>2026-05-02T08:40:34Z</time>
      </trkpt>
      <trkpt lat="45.11148" lon="4.65493">
        <ele>758.2</ele>
        <time>2026-05-02T08:40:39Z</time>
      </trkpt>
      <trkpt lat="45.11144" lon="4.65503">
        <ele>758.8</ele>
        <time>2026-05-02T08:40:44Z</time>
      </trkpt>
      <trkpt lat="45.1114" lon="4.65512">
        <ele>759.4</ele>
        <time>2026-05-02T08:40:49Z</time>
      </trkpt>
      <trkpt lat="45.11136" lon="4.65521">
        <ele>760</ele>
        <time>2026-05-02T08:40:54Z</time>
      </trkpt>
      <trkpt lat="45.11132" lon="4.65529">
        <ele>760.5</ele>
        <time>2026-05-02T08:40:59Z</time>
      </trkpt>
      <trkpt lat="45.11127" lon="4.65538">
        <ele>760.8</ele>
        <time>2026-05-02T08:41:04Z</time>
      </trkpt>
      <trkpt lat="45.11124" lon="4.65546">
        <ele>761.6</ele>
        <time>2026-05-02T08:41:09Z</time>
      </trkpt>
      <trkpt lat="45.1112" lon="4.65556">
        <ele>762.5</ele>
        <time>2026-05-02T08:41:14Z</time>
      </trkpt>
      <trkpt lat="45.11115" lon="4.65565">
        <ele>762.9</ele>
        <time>2026-05-02T08:41:19Z</time>
      </trkpt>
      <trkpt lat="45.11109" lon="4.65573">
        <ele>762.9</ele>
        <time>2026-05-02T08:41:24Z</time>
      </trkpt>
      <trkpt lat="45.11104" lon="4.65582">
        <ele>763.4</ele>
        <time>2026-05-02T08:41:29Z</time>
      </trkpt>
      <trkpt lat="45.111" lon="4.65587">
        <ele>763.1</ele>
        <time>2026-05-02T08:41:34Z</time>
      </trkpt>
      <trkpt lat="45.11094" lon="4.65594">
        <ele>762.3</ele>
        <time>2026-05-02T08:41:39Z</time>
      </trkpt>
      <trkpt lat="45.1109" lon="4.65601">
        <ele>762.2</ele>
        <time>2026-05-02T08:41:44Z</time>
      </trkpt>
      <trkpt lat="45.11085" lon="4.65609">
        <ele>761.8</ele>
        <time>2026-05-02T08:41:49Z</time>
      </trkpt>
      <trkpt lat="45.11081" lon="4.65616">
        <ele>761.5</ele>
        <time>2026-05-02T08:41:54Z</time>
      </trkpt>
      <trkpt lat="45.11078" lon="4.65624">
        <ele>761.6</ele>
        <time>2026-05-02T08:41:59Z</time>
      </trkpt>
      <trkpt lat="45.11075" lon="4.65632">
        <ele>761.6</ele>
        <time>2026-05-02T08:42:04Z</time>
      </trkpt>
      <trkpt lat="45.11072" lon="4.65641">
        <ele>761.7</ele>
        <time>2026-05-02T08:42:09Z</time>
      </trkpt>
      <trkpt lat="45.1107" lon="4.65647">
        <ele>761.8</ele>
        <time>2026-05-02T08:42:14Z</time>
      </trkpt>
      <trkpt lat="45.11068" lon="4.65657">
        <ele>762.3</ele>
        <time>2026-05-02T08:42:19Z</time>
      </trkpt>
      <trkpt lat="45.11065" lon="4.65666">
        <ele>762.3</ele>
        <time>2026-05-02T08:42:24Z</time>
      </trkpt>
      <trkpt lat="45.11063" lon="4.65675">
        <ele>762.4</ele>
        <time>2026-05-02T08:42:29Z</time>
      </trkpt>
      <trkpt lat="45.1106" lon="4.65684">
        <ele>762.1</ele>
        <time>2026-05-02T08:42:34Z</time>
      </trkpt>
      <trkpt lat="45.11058" lon="4.65692">
        <ele>762.1</ele>
        <time>2026-05-02T08:42:39Z</time>
      </trkpt>
      <trkpt lat="45.11056" lon="4.65702">
        <ele>762.3</ele>
        <time>2026-05-02T08:42:44Z</time>
      </trkpt>
      <trkpt lat="45.11056" lon="4.65712">
        <ele>763.1</ele>
        <time>2026-05-02T08:42:49Z</time>
      </trkpt>
      <trkpt lat="45.11055" lon="4.65724">
        <ele>763.9</ele>
        <time>2026-05-02T08:42:54Z</time>
      </trkpt>
      <trkpt lat="45.11052" lon="4.65735">
        <ele>763.9</ele>
        <time>2026-05-02T08:42:59Z</time>
      </trkpt>
      <trkpt lat="45.1105" lon="4.65744">
        <ele>764.1</ele>
        <time>2026-05-02T08:43:04Z</time>
      </trkpt>
      <trkpt lat="45.11049" lon="4.65752">
        <ele>764.4</ele>
        <time>2026-05-02T08:43:09Z</time>
      </trkpt>
      <trkpt lat="45.11048" lon="4.65761">
        <ele>764.7</ele>
        <time>2026-05-02T08:43:14Z</time>
      </trkpt>
      <trkpt lat="45.11045" lon="4.6577">
        <ele>764.4</ele>
        <time>2026-05-02T08:43:19Z</time>
      </trkpt>
      <trkpt lat="45.11042" lon="4.6578">
        <ele>764.3</ele>
        <time>2026-05-02T08:43:24Z</time>
      </trkpt>
      <trkpt lat="45.11039" lon="4.65791">
        <ele>764.2</ele>
        <time>2026-05-02T08:43:29Z</time>
      </trkpt>
      <trkpt lat="45.11037" lon="4.658">
        <ele>764.4</ele>
        <time>2026-05-02T08:43:34Z</time>
      </trkpt>
      <trkpt lat="45.11035" lon="4.6581">
        <ele>764.7</ele>
        <time>2026-05-02T08:43:39Z</time>
      </trkpt>
      <trkpt lat="45.1103" lon="4.65822">
        <ele>764.5</ele>
        <time>2026-05-02T08:43:44Z</time>
      </trkpt>
      <trkpt lat="45.11026" lon="4.65835">
        <ele>764.8</ele>
        <time>2026-05-02T08:43:49Z</time>
      </trkpt>
      <trkpt lat="45.11023" lon="4.65844">
        <ele>764.9</ele>
        <time>2026-05-02T08:43:54Z</time>
      </trkpt>
      <trkpt lat="45.1102" lon="4.65853">
        <ele>765.1</ele>
        <time>2026-05-02T08:43:59Z</time>
      </trkpt>
      <trkpt lat="45.11016" lon="4.65863">
        <ele>765.2</ele>
        <time>2026-05-02T08:44:04Z</time>
      </trkpt>
      <trkpt lat="45.11013" lon="4.65872">
        <ele>765.5</ele>
        <time>2026-05-02T08:44:09Z</time>
      </trkpt>
      <trkpt lat="45.1101" lon="4.65881">
        <ele>765.9</ele>
        <time>2026-05-02T08:44:14Z</time>
      </trkpt>
      <trkpt lat="45.11007" lon="4.65891">
        <ele>766.4</ele>
        <time>2026-05-02T08:44:19Z</time>
      </trkpt>
      <trkpt lat="45.11004" lon="4.65902">
        <ele>767</ele>
        <time>2026-05-02T08:44:24Z</time>
      </trkpt>
      <trkpt lat="45.11002" lon="4.65913">
        <ele>767.9</ele>
        <time>2026-05-02T08:44:29Z</time>
      </trkpt>
      <trkpt lat="45.11001" lon="4.65924">
        <ele>769.1</ele>
        <time>2026-05-02T08:44:34Z</time>
      </trkpt>
      <trkpt lat="45.10999" lon="4.65933">
        <ele>770</ele>
        <time>2026-05-02T08:44:39Z</time>
      </trkpt>
      <trkpt lat="45.10996" lon="4.65942">
        <ele>770.8</ele>
        <time>2026-05-02T08:44:44Z</time>
      </trkpt>
      <trkpt lat="45.10993" lon="4.65953">
        <ele>771.8</ele>
        <time>2026-05-02T08:44:49Z</time>
      </trkpt>
      <trkpt lat="45.10991" lon="4.65963">
        <ele>773</ele>
        <time>2026-05-02T08:44:54Z</time>
      </trkpt>
      <trkpt lat="45.10988" lon="4.65973">
        <ele>774</ele>
        <time>2026-05-02T08:44:59Z</time>
      </trkpt>
      <trkpt lat="45.10984" lon="4.65982">
        <ele>774.8</ele>
        <time>2026-05-02T08:45:04Z</time>
      </trkpt>
      <trkpt lat="45.1098" lon="4.65991">
        <ele>775.7</ele>
        <time>2026-05-02T08:45:09Z</time>
      </trkpt>
      <trkpt lat="45.10977" lon="4.66001">
        <ele>776.9</ele>
        <time>2026-05-02T08:45:14Z</time>
      </trkpt>
      <trkpt lat="45.10972" lon="4.66014">
        <ele>777.8</ele>
        <time>2026-05-02T08:45:19Z</time>
      </trkpt>
      <trkpt lat="45.10967" lon="4.66022">
        <ele>778.2</ele>
        <time>2026-05-02T08:45:24Z</time>
      </trkpt>
      <trkpt lat="45.1096" lon="4.6603">
        <ele>778.5</ele>
        <time>2026-05-02T08:45:29Z</time>
      </trkpt>
      <trkpt lat="45.10955" lon="4.66035">
        <ele>778.8</ele>
        <time>2026-05-02T08:45:34Z</time>
      </trkpt>
      <trkpt lat="45.10948" lon="4.66038">
        <ele>778.6</ele>
        <time>2026-05-02T08:45:39Z</time>
      </trkpt>
      <trkpt lat="45.1094" lon="4.66039">
        <ele>778.2</ele>
        <time>2026-05-02T08:45:44Z</time>
      </trkpt>
      <trkpt lat="45.10933" lon="4.66039">
        <ele>777.7</ele>
        <time>2026-05-02T08:45:49Z</time>
      </trkpt>
      <trkpt lat="45.10927" lon="4.66041">
        <ele>777.6</ele>
        <time>2026-05-02T08:45:54Z</time>
      </trkpt>
      <trkpt lat="45.1092" lon="4.66044">
        <ele>777.6</ele>
        <time>2026-05-02T08:45:59Z</time>
      </trkpt>
      <trkpt lat="45.10912" lon="4.66048">
        <ele>777.7</ele>
        <time>2026-05-02T08:46:04Z</time>
      </trkpt>
      <trkpt lat="45.10903" lon="4.6605">
        <ele>777.5</ele>
        <time>2026-05-02T08:46:09Z</time>
      </trkpt>
      <trkpt lat="45.10897" lon="4.66053">
        <ele>777.6</ele>
        <time>2026-05-02T08:46:14Z</time>
      </trkpt>
      <trkpt lat="45.1089" lon="4.66054">
        <ele>777.4</ele>
        <time>2026-05-02T08:46:19Z</time>
      </trkpt>
      <trkpt lat="45.10883" lon="4.66058">
        <ele>777.6</ele>
        <time>2026-05-02T08:46:24Z</time>
      </trkpt>
      <trkpt lat="45.10876" lon="4.66058">
        <ele>777.3</ele>
        <time>2026-05-02T08:46:29Z</time>
      </trkpt>
      <trkpt lat="45.10867" lon="4.6606">
        <ele>777.1</ele>
        <time>2026-05-02T08:46:34Z</time>
      </trkpt>
      <trkpt lat="45.10858" lon="4.66061">
        <ele>776.8</ele>
        <time>2026-05-02T08:46:39Z</time>
      </trkpt>
      <trkpt lat="45.10848" lon="4.66064">
        <ele>776.7</ele>
        <time>2026-05-02T08:46:44Z</time>
      </trkpt>
      <trkpt lat="45.10842" lon="4.66064">
        <ele>776.4</ele>
        <time>2026-05-02T08:46:49Z</time>
      </trkpt>
      <trkpt lat="45.10834" lon="4.66062">
        <ele>775.7</ele>
        <time>2026-05-02T08:46:54Z</time>
      </trkpt>
      <trkpt lat="45.10824" lon="4.66057">
        <ele>774</ele>
        <time>2026-05-02T08:46:59Z</time>
      </trkpt>
      <trkpt lat="45.10815" lon="4.66058">
        <ele>773.3</ele>
        <time>2026-05-02T08:47:04Z</time>
      </trkpt>
      <trkpt lat="45.10806" lon="4.66058">
        <ele>772.5</ele>
        <time>2026-05-02T08:47:09Z</time>
      </trkpt>
      <trkpt lat="45.10797" lon="4.66057">
        <ele>771.4</ele>
        <time>2026-05-02T08:47:14Z</time>
      </trkpt>
      <trkpt lat="45.10791" lon="4.66055">
        <ele>770.5</ele>
        <time>2026-05-02T08:47:19Z</time>
      </trkpt>
      <trkpt lat="45.10783" lon="4.66055">
        <ele>769.7</ele>
        <time>2026-05-02T08:47:24Z</time>
      </trkpt>
      <trkpt lat="45.10774" lon="4.66051">
        <ele>768.1</ele>
        <time>2026-05-02T08:47:29Z</time>
      </trkpt>
      <trkpt lat="45.10764" lon="4.66048">
        <ele>766.6</ele>
        <time>2026-05-02T08:47:34Z</time>
      </trkpt>
      <trkpt lat="45.10756" lon="4.66046">
        <ele>765.4</ele>
        <time>2026-05-02T08:47:39Z</time>
      </trkpt>
      <trkpt lat="45.10747" lon="4.66046">
        <ele>764</ele>
        <time>2026-05-02T08:47:44Z</time>
      </trkpt>
      <trkpt lat="45.10741" lon="4.66045">
        <ele>762.3</ele>
        <time>2026-05-02T08:47:49Z</time>
      </trkpt>
      <trkpt lat="45.10734" lon="4.66045">
        <ele>760.4</ele>
        <time>2026-05-02T08:47:54Z</time>
      </trkpt>
      <trkpt lat="45.10727" lon="4.66047">
        <ele>759</ele>
        <time>2026-05-02T08:47:59Z</time>
      </trkpt>
      <trkpt lat="45.10717" lon="4.6605">
        <ele>757</ele>
        <time>2026-05-02T08:48:04Z</time>
      </trkpt>
      <trkpt lat="45.1071" lon="4.66052">
        <ele>755.5</ele>
        <time>2026-05-02T08:48:09Z</time>
      </trkpt>
      <trkpt lat="45.10701" lon="4.66055">
        <ele>753.8</ele>
        <time>2026-05-02T08:48:14Z</time>
      </trkpt>
      <trkpt lat="45.10694" lon="4.6606">
        <ele>753</ele>
        <time>2026-05-02T08:48:19Z</time>
      </trkpt>
      <trkpt lat="45.10688" lon="4.66063">
        <ele>752.1</ele>
        <time>2026-05-02T08:48:24Z</time>
      </trkpt>
      <trkpt lat="45.10681" lon="4.66068">
        <ele>751.4</ele>
        <time>2026-05-02T08:48:29Z</time>
      </trkpt>
      <trkpt lat="45.10674" lon="4.66073">
        <ele>750.6</ele>
        <time>2026-05-02T08:48:34Z</time>
      </trkpt>
      <trkpt lat="45.10664" lon="4.66078">
        <ele>748.9</ele>
        <time>2026-05-02T08:48:39Z</time>
      </trkpt>
      <trkpt lat="45.10657" lon="4.66083">
        <ele>747.7</ele>
        <time>2026-05-02T08:48:44Z</time>
      </trkpt>
      <trkpt lat="45.10649" lon="4.66091">
        <ele>746.1</ele>
        <time>2026-05-02T08:48:49Z</time>
      </trkpt>
      <trkpt lat="45.10642" lon="4.66099">
        <ele>744.9</ele>
        <time>2026-05-02T08:48:54Z</time>
      </trkpt>
      <trkpt lat="45.10635" lon="4.66104">
        <ele>743.1</ele>
        <time>2026-05-02T08:48:59Z</time>
      </trkpt>
      <trkpt lat="45.10628" lon="4.66109">
        <ele>741.4</ele>
        <time>2026-05-02T08:49:04Z</time>
      </trkpt>
      <trkpt lat="45.1062" lon="4.66117">
        <ele>739.7</ele>
        <time>2026-05-02T08:49:09Z</time>
      </trkpt>
      <trkpt lat="45.10615" lon="4.66124">
        <ele>738.9</ele>
        <time>2026-05-02T08:49:14Z</time>
      </trkpt>
      <trkpt lat="45.1061" lon="4.66131">
        <ele>738</ele>
        <time>2026-05-02T08:49:19Z</time>
      </trkpt>
      <trkpt lat="45.10606" lon="4.66139">
        <ele>737.7</ele>
        <time>2026-05-02T08:49:24Z</time>
      </trkpt>
      <trkpt lat="45.10601" lon="4.66146">
        <ele>736.8</ele>
        <time>2026-05-02T08:49:29Z</time>
      </trkpt>
      <trkpt lat="45.10594" lon="4.66155">
        <ele>735.4</ele>
        <time>2026-05-02T08:49:34Z</time>
      </trkpt>
      <trkpt lat="45.10588" lon="4.66163">
        <ele>734.2</ele>
        <time>2026-05-02T08:49:39Z</time>
      </trkpt>
      <trkpt lat="45.10581" lon="4.66172">
        <ele>732.9</ele>
        <time>2026-05-02T08:49:44Z</time>
      </trkpt>
      <trkpt lat="45.10577" lon="4.66178">
        <ele>732.3</ele>
        <time>2026-05-02T08:49:49Z</time>
      </trkpt>
      <trkpt lat="45.10571" lon="4.66185">
        <ele>731.1</ele>
        <time>2026-05-02T08:49:54Z</time>
      </trkpt>
      <trkpt lat="45.10563" lon="4.66194">
        <ele>729.5</ele>
        <time>2026-05-02T08:49:59Z</time>
      </trkpt>
      <trkpt lat="45.10556" lon="4.662">
        <ele>727.7</ele>
        <time>2026-05-02T08:50:04Z</time>
      </trkpt>
      <trkpt lat="45.10551" lon="4.66204">
        <ele>726.5</ele>
        <time>2026-05-02T08:50:09Z</time>
      </trkpt>
      <trkpt lat="45.10546" lon="4.66211">
        <ele>725.4</ele>
        <time>2026-05-02T08:50:14Z</time>
      </trkpt>
      <trkpt lat="45.10543" lon="4.66218">
        <ele>725</ele>
        <time>2026-05-02T08:50:19Z</time>
      </trkpt>
      <trkpt lat="45.10537" lon="4.66226">
        <ele>723.5</ele>
        <time>2026-05-02T08:50:24Z</time>
      </trkpt>
      <trkpt lat="45.10534" lon="4.66233">
        <ele>723</ele>
        <time>2026-05-02T08:50:29Z</time>
      </trkpt>
      <trkpt lat="45.10528" lon="4.66242">
        <ele>721.5</ele>
        <time>2026-05-02T08:50:34Z</time>
      </trkpt>
      <trkpt lat="45.10523" lon="4.66251">
        <ele>720.4</ele>
        <time>2026-05-02T08:50:39Z</time>
      </trkpt>
      <trkpt lat="45.10519" lon="4.66261">
        <ele>719.6</ele>
        <time>2026-05-02T08:50:44Z</time>
      </trkpt>
      <trkpt lat="45.10515" lon="4.66269">
        <ele>718.8</ele>
        <time>2026-05-02T08:50:49Z</time>
      </trkpt>
      <trkpt lat="45.10514" lon="4.66277">
        <ele>719</ele>
        <time>2026-05-02T08:50:54Z</time>
      </trkpt>
      <trkpt lat="45.1051" lon="4.66285">
        <ele>718.1</ele>
        <time>2026-05-02T08:50:59Z</time>
      </trkpt>
      <trkpt lat="45.10508" lon="4.66296">
        <ele>718.2</ele>
        <time>2026-05-02T08:51:04Z</time>
      </trkpt>
      <trkpt lat="45.10505" lon="4.66307">
        <ele>717.9</ele>
        <time>2026-05-02T08:51:09Z</time>
      </trkpt>
      <trkpt lat="45.10501" lon="4.66316">
        <ele>717.1</ele>
        <time>2026-05-02T08:51:14Z</time>
      </trkpt>
      <trkpt lat="45.10498" lon="4.66328">
        <ele>717.1</ele>
        <time>2026-05-02T08:51:19Z</time>
      </trkpt>
      <trkpt lat="45.10493" lon="4.66339">
        <ele>716.5</ele>
        <time>2026-05-02T08:51:24Z</time>
      </trkpt>
      <trkpt lat="45.1049" lon="4.66348">
        <ele>716.3</ele>
        <time>2026-05-02T08:51:29Z</time>
      </trkpt>
      <trkpt lat="45.10486" lon="4.66358">
        <ele>715.9</ele>
        <time>2026-05-02T08:51:34Z</time>
      </trkpt>
      <trkpt lat="45.10478" lon="4.66367">
        <ele>714.4</ele>
        <time>2026-05-02T08:51:39Z</time>
      </trkpt>
      <trkpt lat="45.10475" lon="4.66381">
        <ele>714.5</ele>
        <time>2026-05-02T08:51:44Z</time>
      </trkpt>
      <trkpt lat="45.10474" lon="4.6639">
        <ele>714.9</ele>
        <time>2026-05-02T08:51:49Z</time>
      </trkpt>
      <trkpt lat="45.10469" lon="4.66398">
        <ele>714.1</ele>
        <time>2026-05-02T08:51:54Z</time>
      </trkpt>
      <trkpt lat="45.10466" lon="4.66399">
        <ele>713.3</ele>
        <time>2026-05-02T08:51:59Z</time>
      </trkpt>
      <trkpt lat="45.10465" lon="4.66398">
        <ele>713</ele>
        <time>2026-05-02T08:52:04Z</time>
      </trkpt>
      <trkpt lat="45.10465" lon="4.66398">
        <ele>713</ele>
        <time>2026-05-02T08:52:09Z</time>
      </trkpt>
      <trkpt lat="45.10465" lon="4.66398">
        <ele>713</ele>
        <time>2026-05-02T08:52:14Z</time>
      </trkpt>
      <trkpt lat="45.10465" lon="4.66403">
        <ele>713.4</ele>
        <time>2026-05-02T08:52:19Z</time>
      </trkpt>
      <trkpt lat="45.10463" lon="4.66413">
        <ele>713.5</ele>
        <time>2026-05-02T08:52:24Z</time>
      </trkpt>
      <trkpt lat="45.10458" lon="4.66419">
        <ele>712.7</ele>
        <time>2026-05-02T08:52:29Z</time>
      </trkpt>
      <trkpt lat="45.10453" lon="4.66428">
        <ele>712.2</ele>
        <time>2026-05-02T08:52:34Z</time>
      </trkpt>
      <trkpt lat="45.10448" lon="4.66435">
        <ele>711.6</ele>
        <time>2026-05-02T08:52:39Z</time>
      </trkpt>
      <trkpt lat="45.10443" lon="4.66443">
        <ele>711</ele>
        <time>2026-05-02T08:52:44Z</time>
      </trkpt>
      <trkpt lat="45.10437" lon="4.66451">
        <ele>710.1</ele>
        <time>2026-05-02T08:52:49Z</time>
      </trkpt>
      <trkpt lat="45.10431" lon="4.6646">
        <ele>709.3</ele>
        <time>2026-05-02T08:52:54Z</time>
      </trkpt>
      <trkpt lat="45.10426" lon="4.66467">
        <ele>708.5</ele>
        <time>2026-05-02T08:52:59Z</time>
      </trkpt>
      <trkpt lat="45.10421" lon="4.66475">
        <ele>707.9</ele>
        <time>2026-05-02T08:53:04Z</time>
      </trkpt>
      <trkpt lat="45.10415" lon="4.66481">
        <ele>706.5</ele>
        <time>2026-05-02T08:53:09Z</time>
      </trkpt>
      <trkpt lat="45.10409" lon="4.66486">
        <ele>704.7</ele>
        <time>2026-05-02T08:53:14Z</time>
      </trkpt>
      <trkpt lat="45.10402" lon="4.6649">
        <ele>702.4</ele>
        <time>2026-05-02T08:53:19Z</time>
      </trkpt>
      <trkpt lat="45.10395" lon="4.6649">
        <ele>699.6</ele>
        <time>2026-05-02T08:53:24Z</time>
      </trkpt>
      <trkpt lat="45.10389" lon="4.66493">
        <ele>697.5</ele>
        <time>2026-05-02T08:53:29Z</time>
      </trkpt>
      <trkpt lat="45.10382" lon="4.66495">
        <ele>694.9</ele>
        <time>2026-05-02T08:53:34Z</time>
      </trkpt>
      <trkpt lat="45.10377" lon="4.66498">
        <ele>693.2</ele>
        <time>2026-05-02T08:53:39Z</time>
      </trkpt>
      <trkpt lat="45.10372" lon="4.66493">
        <ele>690.9</ele>
        <time>2026-05-02T08:53:44Z</time>
      </trkpt>
      <trkpt lat="45.10369" lon="4.66485">
        <ele>689.3</ele>
        <time>2026-05-02T08:53:49Z</time>
      </trkpt>
      <trkpt lat="45.10366" lon="4.66477">
        <ele>687.7</ele>
        <time>2026-05-02T08:53:54Z</time>
      </trkpt>
      <trkpt lat="45.10364" lon="4.66465">
        <ele>686.4</ele>
        <time>2026-05-02T08:53:59Z</time>
      </trkpt>
      <trkpt lat="45.10363" lon="4.66455">
        <ele>685.5</ele>
        <time>2026-05-02T08:54:04Z</time>
      </trkpt>
      <trkpt lat="45.10365" lon="4.66446">
        <ele>685.8</ele>
        <time>2026-05-02T08:54:09Z</time>
      </trkpt>
      <trkpt lat="45.10367" lon="4.66439">
        <ele>686.1</ele>
        <time>2026-05-02T08:54:14Z</time>
      </trkpt>
      <trkpt lat="45.1037" lon="4.66432">
        <ele>686.7</ele>
        <time>2026-05-02T08:54:19Z</time>
      </trkpt>
      <trkpt lat="45.10373" lon="4.66422">
        <ele>687.2</ele>
        <time>2026-05-02T08:54:24Z</time>
      </trkpt>
      <trkpt lat="45.10374" lon="4.66412">
        <ele>686.8</ele>
        <time>2026-05-02T08:54:29Z</time>
      </trkpt>
      <trkpt lat="45.10376" lon="4.66398">
        <ele>686.2</ele>
        <time>2026-05-02T08:54:34Z</time>
      </trkpt>
      <trkpt lat="45.10376" lon="4.66386">
        <ele>685.1</ele>
        <time>2026-05-02T08:54:39Z</time>
      </trkpt>
      <trkpt lat="45.10376" lon="4.66374">
        <ele>684</ele>
        <time>2026-05-02T08:54:44Z</time>
      </trkpt>
      <trkpt lat="45.10376" lon="4.66364">
        <ele>683.1</ele>
        <time>2026-05-02T08:54:49Z</time>
      </trkpt>
      <trkpt lat="45.10372" lon="4.66354">
        <ele>680.8</ele>
        <time>2026-05-02T08:54:54Z</time>
      </trkpt>
      <trkpt lat="45.10369" lon="4.66342">
        <ele>678.6</ele>
        <time>2026-05-02T08:54:59Z</time>
      </trkpt>
      <trkpt lat="45.10366" lon="4.66331">
        <ele>676.7</ele>
        <time>2026-05-02T08:55:04Z</time>
      </trkpt>
      <trkpt lat="45.10364" lon="4.6632">
        <ele>675.7</ele>
        <time>2026-05-02T08:55:09Z</time>
      </trkpt>
      <trkpt lat="45.10361" lon="4.66309">
        <ele>674.4</ele>
        <time>2026-05-02T08:55:14Z</time>
      </trkpt>
      <trkpt lat="45.10359" lon="4.66299">
        <ele>673.4</ele>
        <time>2026-05-02T08:55:19Z</time>
      </trkpt>
      <trkpt lat="45.10356" lon="4.66289">
        <ele>672.1</ele>
        <time>2026-05-02T08:55:24Z</time>
      </trkpt>
      <trkpt lat="45.10354" lon="4.6628">
        <ele>671.2</ele>
        <time>2026-05-02T08:55:29Z</time>
      </trkpt>
      <trkpt lat="45.10352" lon="4.66271">
        <ele>670.2</ele>
        <time>2026-05-02T08:55:34Z</time>
      </trkpt>
      <trkpt lat="45.10347" lon="4.66272">
        <ele>668.4</ele>
        <time>2026-05-02T08:55:39Z</time>
      </trkpt>
      <trkpt lat="45.10346" lon="4.66277">
        <ele>668.2</ele>
        <time>2026-05-02T08:55:44Z</time>
      </trkpt>
      <trkpt lat="45.10346" lon="4.66282">
        <ele>668.3</ele>
        <time>2026-05-02T08:55:49Z</time>
      </trkpt>
      <trkpt lat="45.10346" lon="4.66289">
        <ele>668.5</ele>
        <time>2026-05-02T08:55:54Z</time>
      </trkpt>
      <trkpt lat="45.10347" lon="4.66297">
        <ele>669</ele>
        <time>2026-05-02T08:55:59Z</time>
      </trkpt>
      <trkpt lat="45.10348" lon="4.66309">
        <ele>669.7</ele>
        <time>2026-05-02T08:56:04Z</time>
      </trkpt>
      <trkpt lat="45.10348" lon="4.66318">
        <ele>669.9</ele>
        <time>2026-05-02T08:56:09Z</time>
      </trkpt>
      <trkpt lat="45.10346" lon="4.66327">
        <ele>669.4</ele>
        <time>2026-05-02T08:56:14Z</time>
      </trkpt>
      <trkpt lat="45.10344" lon="4.66335">
        <ele>669</ele>
        <time>2026-05-02T08:56:19Z</time>
      </trkpt>
      <trkpt lat="45.10342" lon="4.66341">
        <ele>668.9</ele>
        <time>2026-05-02T08:56:24Z</time>
      </trkpt>
      <trkpt lat="45.1034" lon="4.66348">
        <ele>668.9</ele>
        <time>2026-05-02T08:56:29Z</time>
      </trkpt>
      <trkpt lat="45.10337" lon="4.66355">
        <ele>668.6</ele>
        <time>2026-05-02T08:56:34Z</time>
      </trkpt>
      <trkpt lat="45.10333" lon="4.66362">
        <ele>668</ele>
        <time>2026-05-02T08:56:39Z</time>
      </trkpt>
      <trkpt lat="45.1033" lon="4.66369">
        <ele>668</ele>
        <time>2026-05-02T08:56:44Z</time>
      </trkpt>
      <trkpt lat="45.10327" lon="4.66376">
        <ele>667.9</ele>
        <time>2026-05-02T08:56:49Z</time>
      </trkpt>
      <trkpt lat="45.10323" lon="4.66383">
        <ele>667.6</ele>
        <time>2026-05-02T08:56:54Z</time>
      </trkpt>
      <trkpt lat="45.10317" lon="4.66391">
        <ele>666.8</ele>
        <time>2026-05-02T08:56:59Z</time>
      </trkpt>
      <trkpt lat="45.10313" lon="4.66397">
        <ele>666.3</ele>
        <time>2026-05-02T08:57:04Z</time>
      </trkpt>
      <trkpt lat="45.10307" lon="4.66405">
        <ele>665.3</ele>
        <time>2026-05-02T08:57:09Z</time>
      </trkpt>
      <trkpt lat="45.10302" lon="4.66412">
        <ele>664.6</ele>
        <time>2026-05-02T08:57:14Z</time>
      </trkpt>
      <trkpt lat="45.10297" lon="4.66419">
        <ele>663.5</ele>
        <time>2026-05-02T08:57:19Z</time>
      </trkpt>
      <trkpt lat="45.10294" lon="4.66427">
        <ele>662.6</ele>
        <time>2026-05-02T08:57:24Z</time>
      </trkpt>
      <trkpt lat="45.10292" lon="4.66435">
        <ele>662</ele>
        <time>2026-05-02T08:57:29Z</time>
      </trkpt>
      <trkpt lat="45.1029" lon="4.66444">
        <ele>661.3</ele>
        <time>2026-05-02T08:57:34Z</time>
      </trkpt>
      <trkpt lat="45.10291" lon="4.66449">
        <ele>661.6</ele>
        <time>2026-05-02T08:57:39Z</time>
      </trkpt>
      <trkpt lat="45.10291" lon="4.6645">
        <ele>661.6</ele>
        <time>2026-05-02T08:57:44Z</time>
      </trkpt>
      <trkpt lat="45.10291" lon="4.6645">
        <ele>661.6</ele>
        <time>2026-05-02T08:57:49Z</time>
      </trkpt>
      <trkpt lat="45.10291" lon="4.6645">
        <ele>661.6</ele>
        <time>2026-05-02T08:57:54Z</time>
      </trkpt>
      <trkpt lat="45.10291" lon="4.6645">
        <ele>661.6</ele>
        <time>2026-05-02T08:57:59Z</time>
      </trkpt>
      <trkpt lat="45.10291" lon="4.6645">
        <ele>661.6</ele>
        <time>2026-05-02T08:58:04Z</time>
      </trkpt>
      <trkpt lat="45.10291" lon="4.6645">
        <ele>661.6</ele>
        <time>2026-05-02T08:58:09Z</time>
      </trkpt>
      <trkpt lat="45.10291" lon="4.6645">
        <ele>661.6</ele>
        <time>2026-05-02T08:58:14Z</time>
      </trkpt>
      <trkpt lat="45.10291" lon="4.6645">
        <ele>661.6</ele>
        <time>2026-05-02T08:58:19Z</time>
      </trkpt>
      <trkpt lat="45.10291" lon="4.6645">
        <ele>661.6</ele>
        <time>2026-05-02T08:58:24Z</time>
      </trkpt>
      <trkpt lat="45.10291" lon="4.6645">
        <ele>661.6</ele>
        <time>2026-05-02T08:58:29Z</time>
      </trkpt>
      <trkpt lat="45.10291" lon="4.6645">
        <ele>661.6</ele>
        <time>2026-05-02T08:58:34Z</time>
      </trkpt>
      <trkpt lat="45.10291" lon="4.6645">
        <ele>661.6</ele>
        <time>2026-05-02T08:58:39Z</time>
      </trkpt>
      <trkpt lat="45.10291" lon="4.6645">
        <ele>661.6</ele>
        <time>2026-05-02T08:58:44Z</time>
      </trkpt>
      <trkpt lat="45.10291" lon="4.6645">
        <ele>661.6</ele>
        <time>2026-05-02T08:58:49Z</time>
      </trkpt>
      <trkpt lat="45.10291" lon="4.6645">
        <ele>661.6</ele>
        <time>2026-05-02T08:58:54Z</time>
      </trkpt>
      <trkpt lat="45.10291" lon="4.6645">
        <ele>661.6</ele>
        <time>2026-05-02T08:58:59Z</time>
      </trkpt>
      <trkpt lat="45.10287" lon="4.66455">
        <ele>660.3</ele>
        <time>2026-05-02T08:59:04Z</time>
      </trkpt>
      <trkpt lat="45.10284" lon="4.66465">
        <ele>659.2</ele>
        <time>2026-05-02T08:59:09Z</time>
      </trkpt>
      <trkpt lat="45.10282" lon="4.66473">
        <ele>658.5</ele>
        <time>2026-05-02T08:59:14Z</time>
      </trkpt>
      <trkpt lat="45.10279" lon="4.66479">
        <ele>657.4</ele>
        <time>2026-05-02T08:59:19Z</time>
      </trkpt>
      <trkpt lat="45.10277" lon="4.66486">
        <ele>656.6</ele>
        <time>2026-05-02T08:59:24Z</time>
      </trkpt>
      <trkpt lat="45.10275" lon="4.66493">
        <ele>655.8</ele>
        <time>2026-05-02T08:59:29Z</time>
      </trkpt>
      <trkpt lat="45.10273" lon="4.66498">
        <ele>655</ele>
        <time>2026-05-02T08:59:34Z</time>
      </trkpt>
      <trkpt lat="45.10273" lon="4.66501">
        <ele>655</ele>
        <time>2026-05-02T08:59:39Z</time>
      </trkpt>
      <trkpt lat="45.10271" lon="4.66508">
        <ele>654.2</ele>
        <time>2026-05-02T08:59:44Z</time>
      </trkpt>
      <trkpt lat="45.10269" lon="4.66515">
        <ele>653.4</ele>
        <time>2026-05-02T08:59:49Z</time>
      </trkpt>
      <trkpt lat="45.10266" lon="4.66525">
        <ele>652.1</ele>
        <time>2026-05-02T08:59:54Z</time>
      </trkpt>
      <trkpt lat="45.10265" lon="4.66532">
        <ele>651.6</ele>
        <time>2026-05-02T08:59:59Z</time>
      </trkpt>
      <trkpt lat="45.10263" lon="4.66539">
        <ele>650.7</ele>
        <time>2026-05-02T09:00:04Z</time>
      </trkpt>
      <trkpt lat="45.10262" lon="4.66548">
        <ele>650.1</ele>
        <time>2026-05-02T09:00:09Z</time>
      </trkpt>
      <trkpt lat="45.10259" lon="4.66557">
        <ele>648.7</ele>
        <time>2026-05-02T09:00:14Z</time>
      </trkpt>
      <trkpt lat="45.10256" lon="4.66565">
        <ele>647.2</ele>
        <time>2026-05-02T09:00:19Z</time>
      </trkpt>
      <trkpt lat="45.10253" lon="4.6657">
        <ele>645.8</ele>
        <time>2026-05-02T09:00:24Z</time>
      </trkpt>
      <trkpt lat="45.10249" lon="4.66574">
        <ele>644.1</ele>
        <time>2026-05-02T09:00:29Z</time>
      </trkpt>
      <trkpt lat="45.10247" lon="4.66581">
        <ele>643.2</ele>
        <time>2026-05-02T09:00:34Z</time>
      </trkpt>
      <trkpt lat="45.10245" lon="4.66588">
        <ele>642.6</ele>
        <time>2026-05-02T09:00:39Z</time>
      </trkpt>
      <trkpt lat="45.10243" lon="4.66595">
        <ele>642.1</ele>
        <time>2026-05-02T09:00:44Z</time>
      </trkpt>
      <trkpt lat="45.1024" lon="4.66602">
        <ele>641.2</ele>
        <time>2026-05-02T09:00:49Z</time>
      </trkpt>
      <trkpt lat="45.10236" lon="4.6661">
        <ele>640</ele>
        <time>2026-05-02T09:00:54Z</time>
      </trkpt>
      <trkpt lat="45.10234" lon="4.66619">
        <ele>639.3</ele>
        <time>2026-05-02T09:00:59Z</time>
      </trkpt>
      <trkpt lat="45.10231" lon="4.66626">
        <ele>638.3</ele>
        <time>2026-05-02T09:01:04Z</time>
      </trkpt>
      <trkpt lat="45.1023" lon="4.66632">
        <ele>638</ele>
        <time>2026-05-02T09:01:09Z</time>
      </trkpt>
      <trkpt lat="45.10228" lon="4.66639">
        <ele>637.3</ele>
        <time>2026-05-02T09:01:14Z</time>
      </trkpt>
      <trkpt lat="45.10225" lon="4.66648">
        <ele>636.2</ele>
        <time>2026-05-02T09:01:19Z</time>
      </trkpt>
      <trkpt lat="45.10222" lon="4.66658">
        <ele>635</ele>
        <time>2026-05-02T09:01:24Z</time>
      </trkpt>
      <trkpt lat="45.1022" lon="4.66668">
        <ele>634.2</ele>
        <time>2026-05-02T09:01:29Z</time>
      </trkpt>
      <trkpt lat="45.10217" lon="4.66677">
        <ele>633.4</ele>
        <time>2026-05-02T09:01:34Z</time>
      </trkpt>
      <trkpt lat="45.10213" lon="4.66686">
        <ele>632.1</ele>
        <time>2026-05-02T09:01:39Z</time>
      </trkpt>
      <trkpt lat="45.10212" lon="4.66696">
        <ele>631.9</ele>
        <time>2026-05-02T09:01:44Z</time>
      </trkpt>
      <trkpt lat="45.10208" lon="4.66706">
        <ele>630.6</ele>
        <time>2026-05-02T09:01:49Z</time>
      </trkpt>
      <trkpt lat="45.10207" lon="4.66714">
        <ele>630.3</ele>
        <time>2026-05-02T09:01:54Z</time>
      </trkpt>
      <trkpt lat="45.10205" lon="4.66721">
        <ele>629.6</ele>
        <time>2026-05-02T09:01:59Z</time>
      </trkpt>
      <trkpt lat="45.10205" lon="4.66723">
        <ele>629.7</ele>
        <time>2026-05-02T09:02:04Z</time>
      </trkpt>
      <trkpt lat="45.10205" lon="4.66724">
        <ele>629.7</ele>
        <time>2026-05-02T09:02:09Z</time>
      </trkpt>
      <trkpt lat="45.10205" lon="4.66724">
        <ele>629.7</ele>
        <time>2026-05-02T09:02:14Z</time>
      </trkpt>
      <trkpt lat="45.10205" lon="4.66724">
        <ele>629.7</ele>
        <time>2026-05-02T09:02:19Z</time>
      </trkpt>
      <trkpt lat="45.10205" lon="4.66724">
        <ele>629.7</ele>
        <time>2026-05-02T09:02:24Z</time>
      </trkpt>
      <trkpt lat="45.10205" lon="4.66724">
        <ele>629.7</ele>
        <time>2026-05-02T09:02:29Z</time>
      </trkpt>
      <trkpt lat="45.10205" lon="4.66724">
        <ele>629.7</ele>
        <time>2026-05-02T09:02:34Z</time>
      </trkpt>
      <trkpt lat="45.10205" lon="4.66724">
        <ele>629.7</ele>
        <time>2026-05-02T09:02:39Z</time>
      </trkpt>
      <trkpt lat="45.10205" lon="4.66724">
        <ele>629.7</ele>
        <time>2026-05-02T09:02:44Z</time>
      </trkpt>
      <trkpt lat="45.10205" lon="4.66724">
        <ele>629.7</ele>
        <time>2026-05-02T09:02:49Z</time>
      </trkpt>
      <trkpt lat="45.10205" lon="4.66724">
        <ele>629.7</ele>
        <time>2026-05-02T09:02:54Z</time>
      </trkpt>
      <trkpt lat="45.10205" lon="4.66724">
        <ele>629.7</ele>
        <time>2026-05-02T09:02:59Z</time>
      </trkpt>
      <trkpt lat="45.10204" lon="4.66726">
        <ele>629.3</ele>
        <time>2026-05-02T09:03:04Z</time>
      </trkpt>
      <trkpt lat="45.10201" lon="4.66732">
        <ele>628.2</ele>
        <time>2026-05-02T09:03:09Z</time>
      </trkpt>
      <trkpt lat="45.10197" lon="4.66739">
        <ele>626.6</ele>
        <time>2026-05-02T09:03:14Z</time>
      </trkpt>
      <trkpt lat="45.10195" lon="4.66747">
        <ele>625.9</ele>
        <time>2026-05-02T09:03:19Z</time>
      </trkpt>
      <trkpt lat="45.10193" lon="4.66751">
        <ele>625</ele>
        <time>2026-05-02T09:03:24Z</time>
      </trkpt>
      <trkpt lat="45.10191" lon="4.66758">
        <ele>623.9</ele>
        <time>2026-05-02T09:03:29Z</time>
      </trkpt>
      <trkpt lat="45.10191" lon="4.66768">
        <ele>623.6</ele>
        <time>2026-05-02T09:03:34Z</time>
      </trkpt>
      <trkpt lat="45.1019" lon="4.66779">
        <ele>622.8</ele>
        <time>2026-05-02T09:03:39Z</time>
      </trkpt>
      <trkpt lat="45.1019" lon="4.6679">
        <ele>622.4</ele>
        <time>2026-05-02T09:03:44Z</time>
      </trkpt>
      <trkpt lat="45.10193" lon="4.66799">
        <ele>623.2</ele>
        <time>2026-05-02T09:03:49Z</time>
      </trkpt>
      <trkpt lat="45.10194" lon="4.66808">
        <ele>623.2</ele>
        <time>2026-05-02T09:03:54Z</time>
      </trkpt>
      <trkpt lat="45.10193" lon="4.66816">
        <ele>622.5</ele>
        <time>2026-05-02T09:03:59Z</time>
      </trkpt>
      <trkpt lat="45.10193" lon="4.66824">
        <ele>622.2</ele>
        <time>2026-05-02T09:04:04Z</time>
      </trkpt>
      <trkpt lat="45.10196" lon="4.66831">
        <ele>623</ele>
        <time>2026-05-02T09:04:09Z</time>
      </trkpt>
      <trkpt lat="45.10196" lon="4.66838">
        <ele>622.5</ele>
        <time>2026-05-02T09:04:14Z</time>
      </trkpt>
      <trkpt lat="45.10197" lon="4.66846">
        <ele>622.2</ele>
        <time>2026-05-02T09:04:19Z</time>
      </trkpt>
      <trkpt lat="45.10197" lon="4.66854">
        <ele>621.5</ele>
        <time>2026-05-02T09:04:24Z</time>
      </trkpt>
      <trkpt lat="45.10197" lon="4.66861">
        <ele>621</ele>
        <time>2026-05-02T09:04:29Z</time>
      </trkpt>
      <trkpt lat="45.10199" lon="4.66868">
        <ele>621</ele>
        <time>2026-05-02T09:04:34Z</time>
      </trkpt>
      <trkpt lat="45.10201" lon="4.66876">
        <ele>620.9</ele>
        <time>2026-05-02T09:04:39Z</time>
      </trkpt>
      <trkpt lat="45.10202" lon="4.66883">
        <ele>620.6</ele>
        <time>2026-05-02T09:04:44Z</time>
      </trkpt>
      <trkpt lat="45.10205" lon="4.6689">
        <ele>620.7</ele>
        <time>2026-05-02T09:04:49Z</time>
      </trkpt>
      <trkpt lat="45.10208" lon="4.66898">
        <ele>620.7</ele>
        <time>2026-05-02T09:04:54Z</time>
      </trkpt>
      <trkpt lat="45.10211" lon="4.66906">
        <ele>620.6</ele>
        <time>2026-05-02T09:04:59Z</time>
      </trkpt>
      <trkpt lat="45.10213" lon="4.66914">
        <ele>620.3</ele>
        <time>2026-05-02T09:05:04Z</time>
      </trkpt>
      <trkpt lat="45.10215" lon="4.66917">
        <ele>620.4</ele>
        <time>2026-05-02T09:05:09Z</time>
      </trkpt>
      <trkpt lat="45.10217" lon="4.66922">
        <ele>620</ele>
        <time>2026-05-02T09:05:14Z</time>
      </trkpt>
      <trkpt lat="45.1022" lon="4.66929">
        <ele>619.6</ele>
        <time>2026-05-02T09:05:19Z</time>
      </trkpt>
      <trkpt lat="45.10223" lon="4.66935">
        <ele>619.2</ele>
        <time>2026-05-02T09:05:24Z</time>
      </trkpt>
      <trkpt lat="45.10222" lon="4.6694">
        <ele>618.2</ele>
        <time>2026-05-02T09:05:29Z</time>
      </trkpt>
      <trkpt lat="45.10222" lon="4.66948">
        <ele>616.9</ele>
        <time>2026-05-02T09:05:34Z</time>
      </trkpt>
      <trkpt lat="45.10226" lon="4.6696">
        <ele>615.8</ele>
        <time>2026-05-02T09:05:39Z</time>
      </trkpt>
      <trkpt lat="45.10229" lon="4.66969">
        <ele>614.8</ele>
        <time>2026-05-02T09:05:44Z</time>
      </trkpt>
      <trkpt lat="45.10227" lon="4.66971">
        <ele>614.2</ele>
        <time>2026-05-02T09:05:49Z</time>
      </trkpt>
      <trkpt lat="45.10227" lon="4.66972">
        <ele>614</ele>
        <time>2026-05-02T09:05:54Z</time>
      </trkpt>
      <trkpt lat="45.10228" lon="4.66972">
        <ele>614.2</ele>
        <time>2026-05-02T09:05:59Z</time>
      </trkpt>
      <trkpt lat="45.10234" lon="4.66979">
        <ele>614</ele>
        <time>2026-05-02T09:06:04Z</time>
      </trkpt>
      <trkpt lat="45.10239" lon="4.66987">
        <ele>613.5</ele>
        <time>2026-05-02T09:06:09Z</time>
      </trkpt>
      <trkpt lat="45.10241" lon="4.66997">
        <ele>612.1</ele>
        <time>2026-05-02T09:06:14Z</time>
      </trkpt>
      <trkpt lat="45.10243" lon="4.67006">
        <ele>611.7</ele>
        <time>2026-05-02T09:06:19Z</time>
      </trkpt>
      <trkpt lat="45.10243" lon="4.67016">
        <ele>611.5</ele>
        <time>2026-05-02T09:06:24Z</time>
      </trkpt>
      <trkpt lat="45.10242" lon="4.67025">
        <ele>611.1</ele>
        <time>2026-05-02T09:06:29Z</time>
      </trkpt>
      <trkpt lat="45.10241" lon="4.67034">
        <ele>610.6</ele>
        <time>2026-05-02T09:06:34Z</time>
      </trkpt>
      <trkpt lat="45.1024" lon="4.67042">
        <ele>610.3</ele>
        <time>2026-05-02T09:06:39Z</time>
      </trkpt>
      <trkpt lat="45.10238" lon="4.67052">
        <ele>609.6</ele>
        <time>2026-05-02T09:06:44Z</time>
      </trkpt>
      <trkpt lat="45.10237" lon="4.67062">
        <ele>609.1</ele>
        <time>2026-05-02T09:06:49Z</time>
      </trkpt>
      <trkpt lat="45.10235" lon="4.67073">
        <ele>608.4</ele>
        <time>2026-05-02T09:06:54Z</time>
      </trkpt>
      <trkpt lat="45.10235" lon="4.67081">
        <ele>608.2</ele>
        <time>2026-05-02T09:06:59Z</time>
      </trkpt>
      <trkpt lat="45.10235" lon="4.6709">
        <ele>608.4</ele>
        <time>2026-05-02T09:07:04Z</time>
      </trkpt>
      <trkpt lat="45.10231" lon="4.671">
        <ele>608</ele>
        <time>2026-05-02T09:07:09Z</time>
      </trkpt>
      <trkpt lat="45.10229" lon="4.67109">
        <ele>608</ele>
        <time>2026-05-02T09:07:14Z</time>
      </trkpt>
      <trkpt lat="45.10229" lon="4.67119">
        <ele>608.4</ele>
        <time>2026-05-02T09:07:19Z</time>
      </trkpt>
      <trkpt lat="45.10228" lon="4.67127">
        <ele>608.5</ele>
        <time>2026-05-02T09:07:24Z</time>
      </trkpt>
      <trkpt lat="45.10226" lon="4.67136">
        <ele>608.5</ele>
        <time>2026-05-02T09:07:29Z</time>
      </trkpt>
      <trkpt lat="45.10224" lon="4.67148">
        <ele>608.6</ele>
        <time>2026-05-02T09:07:34Z</time>
      </trkpt>
      <trkpt lat="45.1022" lon="4.67158">
        <ele>608.3</ele>
        <time>2026-05-02T09:07:39Z</time>
      </trkpt>
      <trkpt lat="45.10215" lon="4.67166">
        <ele>607.7</ele>
        <time>2026-05-02T09:07:44Z</time>
      </trkpt>
      <trkpt lat="45.1021" lon="4.67175">
        <ele>607.5</ele>
        <time>2026-05-02T09:07:49Z</time>
      </trkpt>
      <trkpt lat="45.10206" lon="4.67182">
        <ele>607.4</ele>
        <time>2026-05-02T09:07:54Z</time>
      </trkpt>
      <trkpt lat="45.10201" lon="4.67189">
        <ele>607.1</ele>
        <time>2026-05-02T09:07:59Z</time>
      </trkpt>
      <trkpt lat="45.10195" lon="4.67196">
        <ele>606.7</ele>
        <time>2026-05-02T09:08:04Z</time>
      </trkpt>
      <trkpt lat="45.10188" lon="4.672">
        <ele>605.8</ele>
        <time>2026-05-02T09:08:09Z</time>
      </trkpt>
      <trkpt lat="45.10182" lon="4.67204">
        <ele>605.2</ele>
        <time>2026-05-02T09:08:14Z</time>
      </trkpt>
      <trkpt lat="45.10173" lon="4.67207">
        <ele>603.9</ele>
        <time>2026-05-02T09:08:19Z</time>
      </trkpt>
      <trkpt lat="45.10165" lon="4.67209">
        <ele>602.8</ele>
        <time>2026-05-02T09:08:24Z</time>
      </trkpt>
      <trkpt lat="45.10158" lon="4.6721">
        <ele>601.5</ele>
        <time>2026-05-02T09:08:29Z</time>
      </trkpt>
      <trkpt lat="45.1015" lon="4.67213">
        <ele>600.3</ele>
        <time>2026-05-02T09:08:34Z</time>
      </trkpt>
      <trkpt lat="45.10144" lon="4.67218">
        <ele>599.6</ele>
        <time>2026-05-02T09:08:39Z</time>
      </trkpt>
      <trkpt lat="45.10138" lon="4.67227">
        <ele>599.1</ele>
        <time>2026-05-02T09:08:44Z</time>
      </trkpt>
      <trkpt lat="45.10133" lon="4.67236">
        <ele>598.7</ele>
        <time>2026-05-02T09:08:49Z</time>
      </trkpt>
      <trkpt lat="45.1013" lon="4.67245">
        <ele>598.7</ele>
        <time>2026-05-02T09:08:54Z</time>
      </trkpt>
      <trkpt lat="45.10126" lon="4.67255">
        <ele>598.5</ele>
        <time>2026-05-02T09:08:59Z</time>
      </trkpt>
      <trkpt lat="45.10121" lon="4.67265">
        <ele>598</ele>
        <time>2026-05-02T09:09:04Z</time>
      </trkpt>
      <trkpt lat="45.10115" lon="4.67272">
        <ele>597.2</ele>
        <time>2026-05-02T09:09:09Z</time>
      </trkpt>
      <trkpt lat="45.10112" lon="4.67278">
        <ele>596.9</ele>
        <time>2026-05-02T09:09:14Z</time>
      </trkpt>
      <trkpt lat="45.10109" lon="4.67286">
        <ele>596.7</ele>
        <time>2026-05-02T09:09:19Z</time>
      </trkpt>
      <trkpt lat="45.10109" lon="4.67293">
        <ele>597.1</ele>
        <time>2026-05-02T09:09:24Z</time>
      </trkpt>
      <trkpt lat="45.10109" lon="4.67298">
        <ele>597.4</ele>
        <time>2026-05-02T09:09:29Z</time>
      </trkpt>
      <trkpt lat="45.10105" lon="4.67295">
        <ele>596.4</ele>
        <time>2026-05-02T09:09:34Z</time>
      </trkpt>
      <trkpt lat="45.10098" lon="4.67293">
        <ele>594.7</ele>
        <time>2026-05-02T09:09:39Z</time>
      </trkpt>
      <trkpt lat="45.10095" lon="4.67297">
        <ele>594.3</ele>
        <time>2026-05-02T09:09:44Z</time>
      </trkpt>
      <trkpt lat="45.10093" lon="4.67307">
        <ele>594.5</ele>
        <time>2026-05-02T09:09:49Z</time>
      </trkpt>
      <trkpt lat="45.10092" lon="4.67315">
        <ele>594.8</ele>
        <time>2026-05-02T09:09:54Z</time>
      </trkpt>
      <trkpt lat="45.10091" lon="4.67322">
        <ele>595</ele>
        <time>2026-05-02T09:09:59Z</time>
      </trkpt>
      <trkpt lat="45.10091" lon="4.67327">
        <ele>595.3</ele>
        <time>2026-05-02T09:10:04Z</time>
      </trkpt>
      <trkpt lat="45.1009" lon="4.6733">
        <ele>595.2</ele>
        <time>2026-05-02T09:10:09Z</time>
      </trkpt>
      <trkpt lat="45.1009" lon="4.6733">
        <ele>595.2</ele>
        <time>2026-05-02T09:10:14Z</time>
      </trkpt>
      <trkpt lat="45.10089" lon="4.67337">
        <ele>595.4</ele>
        <time>2026-05-02T09:10:19Z</time>
      </trkpt>
      <trkpt lat="45.10086" lon="4.67345">
        <ele>595.3</ele>
        <time>2026-05-02T09:10:24Z</time>
      </trkpt>
      <trkpt lat="45.10082" lon="4.67354">
        <ele>594.9</ele>
        <time>2026-05-02T09:10:29Z</time>
      </trkpt>
      <trkpt lat="45.1008" lon="4.67358">
        <ele>594.7</ele>
        <time>2026-05-02T09:10:34Z</time>
      </trkpt>
      <trkpt lat="45.10078" lon="4.67365">
        <ele>594.6</ele>
        <time>2026-05-02T09:10:39Z</time>
      </trkpt>
      <trkpt lat="45.1008" lon="4.67373">
        <ele>595.6</ele>
        <time>2026-05-02T09:10:44Z</time>
      </trkpt>
      <trkpt lat="45.10081" lon="4.67377">
        <ele>596</ele>
        <time>2026-05-02T09:10:49Z</time>
      </trkpt>
      <trkpt lat="45.10081" lon="4.67377">
        <ele>596</ele>
        <time>2026-05-02T09:10:54Z</time>
      </trkpt>
      <trkpt lat="45.10081" lon="4.67377">
        <ele>596</ele>
        <time>2026-05-02T09:10:54Z</time>
      </trkpt>
      <trkpt lat="45.10094" lon="4.67377">
        <ele>598.6</ele>
        <time>2026-05-02T09:11:37Z</time>
      </trkpt>
      <trkpt lat="45.10085" lon="4.67373">
        <ele>596.7</ele>
        <time>2026-05-02T09:11:42Z</time>
      </trkpt>
      <trkpt lat="45.10085" lon="4.67373">
        <ele>596.7</ele>
        <time>2026-05-02T09:11:47Z</time>
      </trkpt>
      <trkpt lat="45.10076" lon="4.67374">
        <ele>594.6</ele>
        <time>2026-05-02T09:11:52Z</time>
      </trkpt>
      <trkpt lat="45.10076" lon="4.67377">
        <ele>594.8</ele>
        <time>2026-05-02T09:11:57Z</time>
      </trkpt>
      <trkpt lat="45.10079" lon="4.67384">
        <ele>596</ele>
        <time>2026-05-02T09:12:02Z</time>
      </trkpt>
      <trkpt lat="45.10075" lon="4.67384">
        <ele>595</ele>
        <time>2026-05-02T09:12:07Z</time>
      </trkpt>
      <trkpt lat="45.10074" lon="4.67381">
        <ele>594.6</ele>
        <time>2026-05-02T09:12:12Z</time>
      </trkpt>
      <trkpt lat="45.10074" lon="4.6738">
        <ele>594.5</ele>
        <time>2026-05-02T09:12:17Z</time>
      </trkpt>
      <trkpt lat="45.10077" lon="4.67379">
        <ele>595.2</ele>
        <time>2026-05-02T09:12:22Z</time>
      </trkpt>
      <trkpt lat="45.1008" lon="4.67383">
        <ele>596.2</ele>
        <time>2026-05-02T09:12:27Z</time>
      </trkpt>
      <trkpt lat="45.10084" lon="4.67388">
        <ele>597.4</ele>
        <time>2026-05-02T09:12:32Z</time>
      </trkpt>
      <trkpt lat="45.10086" lon="4.67391">
        <ele>597.9</ele>
        <time>2026-05-02T09:12:37Z</time>
      </trkpt>
      <trkpt lat="45.1009" lon="4.67392">
        <ele>598.7</ele>
        <time>2026-05-02T09:12:42Z</time>
      </trkpt>
      <trkpt lat="45.10091" lon="4.67396">
        <ele>599.1</ele>
        <time>2026-05-02T09:12:47Z</time>
      </trkpt>
      <trkpt lat="45.10093" lon="4.67396">
        <ele>599.4</ele>
        <time>2026-05-02T09:12:52Z</time>
      </trkpt>
      <trkpt lat="45.10093" lon="4.67396">
        <ele>599.4</ele>
        <time>2026-05-02T09:12:57Z</time>
      </trkpt>
      <trkpt lat="45.10093" lon="4.67396">
        <ele>599.4</ele>
        <time>2026-05-02T09:13:02Z</time>
      </trkpt>
      <trkpt lat="45.10093" lon="4.67396">
        <ele>599.4</ele>
        <time>2026-05-02T09:13:07Z</time>
      </trkpt>
      <trkpt lat="45.10093" lon="4.67396">
        <ele>599.4</ele>
        <time>2026-05-02T09:13:12Z</time>
      </trkpt>
      <trkpt lat="45.10096" lon="4.67395">
        <ele>599.9</ele>
        <time>2026-05-02T09:13:17Z</time>
      </trkpt>
      <trkpt lat="45.101" lon="4.67397">
        <ele>600.7</ele>
        <time>2026-05-02T09:13:22Z</time>
      </trkpt>
      <trkpt lat="45.10101" lon="4.67404">
        <ele>601.2</ele>
        <time>2026-05-02T09:13:27Z</time>
      </trkpt>
      <trkpt lat="45.10102" lon="4.67412">
        <ele>601.7</ele>
        <time>2026-05-02T09:13:32Z</time>
      </trkpt>
      <trkpt lat="45.10101" lon="4.6742">
        <ele>601.8</ele>
        <time>2026-05-02T09:13:37Z</time>
      </trkpt>
      <trkpt lat="45.10098" lon="4.67427">
        <ele>601.3</ele>
        <time>2026-05-02T09:13:42Z</time>
      </trkpt>
      <trkpt lat="45.10094" lon="4.67431">
        <ele>600.7</ele>
        <time>2026-05-02T09:13:47Z</time>
      </trkpt>
      <trkpt lat="45.10088" lon="4.67432">
        <ele>599.9</ele>
        <time>2026-05-02T09:13:52Z</time>
      </trkpt>
      <trkpt lat="45.1008" lon="4.6743">
        <ele>598.4</ele>
        <time>2026-05-02T09:13:57Z</time>
      </trkpt>
      <trkpt lat="45.10072" lon="4.67429">
        <ele>596.5</ele>
        <time>2026-05-02T09:14:02Z</time>
      </trkpt>
      <trkpt lat="45.10066" lon="4.67427">
        <ele>595.1</ele>
        <time>2026-05-02T09:14:07Z</time>
      </trkpt>
      <trkpt lat="45.10061" lon="4.6743">
        <ele>594</ele>
        <time>2026-05-02T09:14:12Z</time>
      </trkpt>
      <trkpt lat="45.10057" lon="4.67439">
        <ele>593.3</ele>
        <time>2026-05-02T09:14:17Z</time>
      </trkpt>
      <trkpt lat="45.10054" lon="4.67448">
        <ele>592.9</ele>
        <time>2026-05-02T09:14:22Z</time>
      </trkpt>
      <trkpt lat="45.1005" lon="4.67459">
        <ele>592.3</ele>
        <time>2026-05-02T09:14:27Z</time>
      </trkpt>
      <trkpt lat="45.10048" lon="4.67467">
        <ele>592.1</ele>
        <time>2026-05-02T09:14:32Z</time>
      </trkpt>
      <trkpt lat="45.10045" lon="4.67478">
        <ele>591.9</ele>
        <time>2026-05-02T09:14:37Z</time>
      </trkpt>
      <trkpt lat="45.10042" lon="4.67484">
        <ele>591.5</ele>
        <time>2026-05-02T09:14:42Z</time>
      </trkpt>
      <trkpt lat="45.10041" lon="4.67485">
        <ele>591.3</ele>
        <time>2026-05-02T09:14:47Z</time>
      </trkpt>
      <trkpt lat="45.10041" lon="4.67485">
        <ele>591.3</ele>
        <time>2026-05-02T09:14:52Z</time>
      </trkpt>
      <trkpt lat="45.10042" lon="4.67487">
        <ele>591.6</ele>
        <time>2026-05-02T09:14:57Z</time>
      </trkpt>
      <trkpt lat="45.10044" lon="4.67498">
        <ele>592.4</ele>
        <time>2026-05-02T09:15:02Z</time>
      </trkpt>
      <trkpt lat="45.10047" lon="4.67507">
        <ele>593</ele>
        <time>2026-05-02T09:15:07Z</time>
      </trkpt>
      <trkpt lat="45.1005" lon="4.67514">
        <ele>593.4</ele>
        <time>2026-05-02T09:15:12Z</time>
      </trkpt>
      <trkpt lat="45.10052" lon="4.67524">
        <ele>593.7</ele>
        <time>2026-05-02T09:15:17Z</time>
      </trkpt>
      <trkpt lat="45.10054" lon="4.67534">
        <ele>593.9</ele>
        <time>2026-05-02T09:15:22Z</time>
      </trkpt>
      <trkpt lat="45.10056" lon="4.6754">
        <ele>594.1</ele>
        <time>2026-05-02T09:15:27Z</time>
      </trkpt>
      <trkpt lat="45.10056" lon="4.6755">
        <ele>593.9</ele>
        <time>2026-05-02T09:15:32Z</time>
      </trkpt>
      <trkpt lat="45.10054" lon="4.67561">
        <ele>593.5</ele>
        <time>2026-05-02T09:15:37Z</time>
      </trkpt>
      <trkpt lat="45.10054" lon="4.67571">
        <ele>593.3</ele>
        <time>2026-05-02T09:15:42Z</time>
      </trkpt>
      <trkpt lat="45.10054" lon="4.67582">
        <ele>593.1</ele>
        <time>2026-05-02T09:15:47Z</time>
      </trkpt>
      <trkpt lat="45.10053" lon="4.67593">
        <ele>592.8</ele>
        <time>2026-05-02T09:15:52Z</time>
      </trkpt>
      <trkpt lat="45.10053" lon="4.67604">
        <ele>592.7</ele>
        <time>2026-05-02T09:15:57Z</time>
      </trkpt>
      <trkpt lat="45.10052" lon="4.67615">
        <ele>592.4</ele>
        <time>2026-05-02T09:16:02Z</time>
      </trkpt>
      <trkpt lat="45.10051" lon="4.67625">
        <ele>592.1</ele>
        <time>2026-05-02T09:16:07Z</time>
      </trkpt>
      <trkpt lat="45.1005" lon="4.67636">
        <ele>591.8</ele>
        <time>2026-05-02T09:16:12Z</time>
      </trkpt>
      <trkpt lat="45.1005" lon="4.67647">
        <ele>591.7</ele>
        <time>2026-05-02T09:16:17Z</time>
      </trkpt>
      <trkpt lat="45.10048" lon="4.67656">
        <ele>591.3</ele>
        <time>2026-05-02T09:16:22Z</time>
      </trkpt>
      <trkpt lat="45.10047" lon="4.67668">
        <ele>591.1</ele>
        <time>2026-05-02T09:16:27Z</time>
      </trkpt>
      <trkpt lat="45.10046" lon="4.67679">
        <ele>590.8</ele>
        <time>2026-05-02T09:16:32Z</time>
      </trkpt>
      <trkpt lat="45.10046" lon="4.67689">
        <ele>590.6</ele>
        <time>2026-05-02T09:16:37Z</time>
      </trkpt>
      <trkpt lat="45.10045" lon="4.677">
        <ele>590.3</ele>
        <time>2026-05-02T09:16:42Z</time>
      </trkpt>
      <trkpt lat="45.10046" lon="4.67708">
        <ele>590.3</ele>
        <time>2026-05-02T09:16:47Z</time>
      </trkpt>
      <trkpt lat="45.10045" lon="4.67715">
        <ele>590.1</ele>
        <time>2026-05-02T09:16:52Z</time>
      </trkpt>
      <trkpt lat="45.10044" lon="4.67724">
        <ele>589.8</ele>
        <time>2026-05-02T09:16:57Z</time>
      </trkpt>
      <trkpt lat="45.10044" lon="4.67734">
        <ele>589.6</ele>
        <time>2026-05-02T09:17:02Z</time>
      </trkpt>
      <trkpt lat="45.10041" lon="4.67745">
        <ele>589</ele>
        <time>2026-05-02T09:17:07Z</time>
      </trkpt>
      <trkpt lat="45.1004" lon="4.67755">
        <ele>588.9</ele>
        <time>2026-05-02T09:17:12Z</time>
      </trkpt>
      <trkpt lat="45.1004" lon="4.67765">
        <ele>589.1</ele>
        <time>2026-05-02T09:17:17Z</time>
      </trkpt>
      <trkpt lat="45.1004" lon="4.67776">
        <ele>589.4</ele>
        <time>2026-05-02T09:17:22Z</time>
      </trkpt>
      <trkpt lat="45.10039" lon="4.67787">
        <ele>589.6</ele>
        <time>2026-05-02T09:17:27Z</time>
      </trkpt>
      <trkpt lat="45.1004" lon="4.67797">
        <ele>589.9</ele>
        <time>2026-05-02T09:17:32Z</time>
      </trkpt>
      <trkpt lat="45.1004" lon="4.678">
        <ele>590</ele>
        <time>2026-05-02T09:17:37Z</time>
      </trkpt>
      <trkpt lat="45.10041" lon="4.67801">
        <ele>590.1</ele>
        <time>2026-05-02T09:17:42Z</time>
      </trkpt>
      <trkpt lat="45.10041" lon="4.67801">
        <ele>590.1</ele>
        <time>2026-05-02T09:17:47Z</time>
      </trkpt>
      <trkpt lat="45.10041" lon="4.67801">
        <ele>590.1</ele>
        <time>2026-05-02T09:17:52Z</time>
      </trkpt>
      <trkpt lat="45.10041" lon="4.67801">
        <ele>590.1</ele>
        <time>2026-05-02T09:17:57Z</time>
      </trkpt>
      <trkpt lat="45.10041" lon="4.67801">
        <ele>590.1</ele>
        <time>2026-05-02T09:18:02Z</time>
      </trkpt>
      <trkpt lat="45.10041" lon="4.67801">
        <ele>590.1</ele>
        <time>2026-05-02T09:18:07Z</time>
      </trkpt>
      <trkpt lat="45.10041" lon="4.67813">
        <ele>590.4</ele>
        <time>2026-05-02T09:18:12Z</time>
      </trkpt>
      <trkpt lat="45.1004" lon="4.67823">
        <ele>590.6</ele>
        <time>2026-05-02T09:18:17Z</time>
      </trkpt>
      <trkpt lat="45.10039" lon="4.67833">
        <ele>590.7</ele>
        <time>2026-05-02T09:18:22Z</time>
      </trkpt>
      <trkpt lat="45.10039" lon="4.67844">
        <ele>591.2</ele>
        <time>2026-05-02T09:18:27Z</time>
      </trkpt>
      <trkpt lat="45.1004" lon="4.67851">
        <ele>591.6</ele>
        <time>2026-05-02T09:18:32Z</time>
      </trkpt>
      <trkpt lat="45.1004" lon="4.67861">
        <ele>592</ele>
        <time>2026-05-02T09:18:37Z</time>
      </trkpt>
      <trkpt lat="45.10038" lon="4.67872">
        <ele>592.4</ele>
        <time>2026-05-02T09:18:42Z</time>
      </trkpt>
      <trkpt lat="45.10037" lon="4.67883">
        <ele>592.8</ele>
        <time>2026-05-02T09:18:47Z</time>
      </trkpt>
      <trkpt lat="45.10037" lon="4.67895">
        <ele>593.3</ele>
        <time>2026-05-02T09:18:52Z</time>
      </trkpt>
      <trkpt lat="45.10035" lon="4.67906">
        <ele>593.8</ele>
        <time>2026-05-02T09:18:57Z</time>
      </trkpt>
      <trkpt lat="45.10034" lon="4.67916">
        <ele>594.2</ele>
        <time>2026-05-02T09:19:02Z</time>
      </trkpt>
      <trkpt lat="45.10033" lon="4.67927">
        <ele>594.9</ele>
        <time>2026-05-02T09:19:07Z</time>
      </trkpt>
      <trkpt lat="45.10031" lon="4.67937">
        <ele>595.5</ele>
        <time>2026-05-02T09:19:12Z</time>
      </trkpt>
      <trkpt lat="45.10028" lon="4.67942">
        <ele>595.7</ele>
        <time>2026-05-02T09:19:17Z</time>
      </trkpt>
      <trkpt lat="45.10027" lon="4.67941">
        <ele>595.6</ele>
        <time>2026-05-02T09:19:22Z</time>
      </trkpt>
      <trkpt lat="45.10027" lon="4.67942">
        <ele>595.7</ele>
        <time>2026-05-02T09:19:27Z</time>
      </trkpt>
      <trkpt lat="45.10028" lon="4.67946">
        <ele>596</ele>
        <time>2026-05-02T09:19:32Z</time>
      </trkpt>
      <trkpt lat="45.10031" lon="4.67956">
        <ele>596.7</ele>
        <time>2026-05-02T09:19:37Z</time>
      </trkpt>
      <trkpt lat="45.10032" lon="4.67964">
        <ele>597.3</ele>
        <time>2026-05-02T09:19:42Z</time>
      </trkpt>
      <trkpt lat="45.10035" lon="4.6797">
        <ele>597.7</ele>
        <time>2026-05-02T09:19:47Z</time>
      </trkpt>
      <trkpt lat="45.1004" lon="4.67974">
        <ele>597.9</ele>
        <time>2026-05-02T09:19:52Z</time>
      </trkpt>
      <trkpt lat="45.10045" lon="4.67977">
        <ele>598.1</ele>
        <time>2026-05-02T09:19:57Z</time>
      </trkpt>
      <trkpt lat="45.10052" lon="4.6798">
        <ele>598.3</ele>
        <time>2026-05-02T09:20:02Z</time>
      </trkpt>
      <trkpt lat="45.10059" lon="4.67984">
        <ele>598.5</ele>
        <time>2026-05-02T09:20:07Z</time>
      </trkpt>
      <trkpt lat="45.10064" lon="4.6799">
        <ele>598.8</ele>
        <time>2026-05-02T09:20:12Z</time>
      </trkpt>
      <trkpt lat="45.10071" lon="4.67997">
        <ele>599</ele>
        <time>2026-05-02T09:20:17Z</time>
      </trkpt>
      <trkpt lat="45.10077" lon="4.68004">
        <ele>599.1</ele>
        <time>2026-05-02T09:20:22Z</time>
      </trkpt>
      <trkpt lat="45.10082" lon="4.68011">
        <ele>599.2</ele>
        <time>2026-05-02T09:20:27Z</time>
      </trkpt>
      <trkpt lat="45.10088" lon="4.68018">
        <ele>598.8</ele>
        <time>2026-05-02T09:20:32Z</time>
      </trkpt>
      <trkpt lat="45.10094" lon="4.68025">
        <ele>598.2</ele>
        <time>2026-05-02T09:20:37Z</time>
      </trkpt>
      <trkpt lat="45.10098" lon="4.68031">
        <ele>597.8</ele>
        <time>2026-05-02T09:20:42Z</time>
      </trkpt>
      <trkpt lat="45.10102" lon="4.68037">
        <ele>597.4</ele>
        <time>2026-05-02T09:20:47Z</time>
      </trkpt>
      <trkpt lat="45.10104" lon="4.68045">
        <ele>597.1</ele>
        <time>2026-05-02T09:20:52Z</time>
      </trkpt>
      <trkpt lat="45.10105" lon="4.68054">
        <ele>597</ele>
        <time>2026-05-02T09:20:57Z</time>
      </trkpt>
      <trkpt lat="45.10106" lon="4.68062">
        <ele>596.8</ele>
        <time>2026-05-02T09:21:02Z</time>
      </trkpt>
      <trkpt lat="45.10106" lon="4.68067">
        <ele>596.8</ele>
        <time>2026-05-02T09:21:07Z</time>
      </trkpt>
      <trkpt lat="45.10109" lon="4.68074">
        <ele>596.4</ele>
        <time>2026-05-02T09:21:12Z</time>
      </trkpt>
      <trkpt lat="45.10113" lon="4.68078">
        <ele>595.8</ele>
        <time>2026-05-02T09:21:17Z</time>
      </trkpt>
      <trkpt lat="45.10116" lon="4.68082">
        <ele>595.3</ele>
        <time>2026-05-02T09:21:22Z</time>
      </trkpt>
      <trkpt lat="45.10118" lon="4.68087">
        <ele>594.8</ele>
        <time>2026-05-02T09:21:27Z</time>
      </trkpt>
      <trkpt lat="45.10121" lon="4.68092">
        <ele>594.2</ele>
        <time>2026-05-02T09:21:32Z</time>
      </trkpt>
      <trkpt lat="45.10123" lon="4.68096">
        <ele>593.6</ele>
        <time>2026-05-02T09:21:37Z</time>
      </trkpt>
      <trkpt lat="45.10125" lon="4.681">
        <ele>593.1</ele>
        <time>2026-05-02T09:21:42Z</time>
      </trkpt>
      <trkpt lat="45.10127" lon="4.68107">
        <ele>592.4</ele>
        <time>2026-05-02T09:21:47Z</time>
      </trkpt>
      <trkpt lat="45.10125" lon="4.68114">
        <ele>592.3</ele>
        <time>2026-05-02T09:21:52Z</time>
      </trkpt>
      <trkpt lat="45.10123" lon="4.68122">
        <ele>592.3</ele>
        <time>2026-05-02T09:21:57Z</time>
      </trkpt>
      <trkpt lat="45.10121" lon="4.68132">
        <ele>592.2</ele>
        <time>2026-05-02T09:22:02Z</time>
      </trkpt>
      <trkpt lat="45.10114" lon="4.68137">
        <ele>593.5</ele>
        <time>2026-05-02T09:22:07Z</time>
      </trkpt>
      <trkpt lat="45.10108" lon="4.6814">
        <ele>594.6</ele>
        <time>2026-05-02T09:22:12Z</time>
      </trkpt>
      <trkpt lat="45.10102" lon="4.68146">
        <ele>595.8</ele>
        <time>2026-05-02T09:22:17Z</time>
      </trkpt>
      <trkpt lat="45.10096" lon="4.68154">
        <ele>597</ele>
        <time>2026-05-02T09:22:22Z</time>
      </trkpt>
      <trkpt lat="45.10092" lon="4.68165">
        <ele>597.8</ele>
        <time>2026-05-02T09:22:27Z</time>
      </trkpt>
      <trkpt lat="45.10089" lon="4.68176">
        <ele>598.3</ele>
        <time>2026-05-02T09:22:32Z</time>
      </trkpt>
      <trkpt lat="45.10086" lon="4.68185">
        <ele>598.9</ele>
        <time>2026-05-02T09:22:37Z</time>
      </trkpt>
      <trkpt lat="45.10086" lon="4.68194">
        <ele>598.7</ele>
        <time>2026-05-02T09:22:42Z</time>
      </trkpt>
      <trkpt lat="45.10087" lon="4.68204">
        <ele>598.1</ele>
        <time>2026-05-02T09:22:47Z</time>
      </trkpt>
      <trkpt lat="45.10087" lon="4.68213">
        <ele>597.9</ele>
        <time>2026-05-02T09:22:52Z</time>
      </trkpt>
      <trkpt lat="45.10086" lon="4.68221">
        <ele>598</ele>
        <time>2026-05-02T09:22:57Z</time>
      </trkpt>
      <trkpt lat="45.10083" lon="4.68229">
        <ele>598.6</ele>
        <time>2026-05-02T09:23:02Z</time>
      </trkpt>
      <trkpt lat="45.1008" lon="4.68234">
        <ele>599.1</ele>
        <time>2026-05-02T09:23:07Z</time>
      </trkpt>
      <trkpt lat="45.10079" lon="4.6824">
        <ele>599.2</ele>
        <time>2026-05-02T09:23:12Z</time>
      </trkpt>
      <trkpt lat="45.10076" lon="4.68245">
        <ele>599.7</ele>
        <time>2026-05-02T09:23:17Z</time>
      </trkpt>
      <trkpt lat="45.10072" lon="4.68252">
        <ele>600.6</ele>
        <time>2026-05-02T09:23:22Z</time>
      </trkpt>
      <trkpt lat="45.10068" lon="4.68258">
        <ele>601.6</ele>
        <time>2026-05-02T09:23:27Z</time>
      </trkpt>
      <trkpt lat="45.10063" lon="4.68266">
        <ele>602.9</ele>
        <time>2026-05-02T09:23:32Z</time>
      </trkpt>
      <trkpt lat="45.1006" lon="4.68273">
        <ele>603.8</ele>
        <time>2026-05-02T09:23:37Z</time>
      </trkpt>
      <trkpt lat="45.10057" lon="4.6828">
        <ele>604.7</ele>
        <time>2026-05-02T09:23:42Z</time>
      </trkpt>
      <trkpt lat="45.10056" lon="4.68286">
        <ele>605.1</ele>
        <time>2026-05-02T09:23:47Z</time>
      </trkpt>
      <trkpt lat="45.10056" lon="4.68293">
        <ele>605.2</ele>
        <time>2026-05-02T09:23:52Z</time>
      </trkpt>
      <trkpt lat="45.10057" lon="4.68298">
        <ele>605.1</ele>
        <time>2026-05-02T09:23:57Z</time>
      </trkpt>
      <trkpt lat="45.10056" lon="4.68306">
        <ele>605.6</ele>
        <time>2026-05-02T09:24:02Z</time>
      </trkpt>
      <trkpt lat="45.10059" lon="4.68314">
        <ele>604.9</ele>
        <time>2026-05-02T09:24:07Z</time>
      </trkpt>
      <trkpt lat="45.10059" lon="4.68321">
        <ele>605</ele>
        <time>2026-05-02T09:24:12Z</time>
      </trkpt>
      <trkpt lat="45.10062" lon="4.68324">
        <ele>604.2</ele>
        <time>2026-05-02T09:24:17Z</time>
      </trkpt>
      <trkpt lat="45.10064" lon="4.68329">
        <ele>603.7</ele>
        <time>2026-05-02T09:24:22Z</time>
      </trkpt>
      <trkpt lat="45.10065" lon="4.68336">
        <ele>603.5</ele>
        <time>2026-05-02T09:24:27Z</time>
      </trkpt>
      <trkpt lat="45.10065" lon="4.68344">
        <ele>603.7</ele>
        <time>2026-05-02T09:24:32Z</time>
      </trkpt>
      <trkpt lat="45.10067" lon="4.68351">
        <ele>603.2</ele>
        <time>2026-05-02T09:24:37Z</time>
      </trkpt>
      <trkpt lat="45.10069" lon="4.68359">
        <ele>602.7</ele>
        <time>2026-05-02T09:24:42Z</time>
      </trkpt>
      <trkpt lat="45.10071" lon="4.68369">
        <ele>602.2</ele>
        <time>2026-05-02T09:24:47Z</time>
      </trkpt>
      <trkpt lat="45.10074" lon="4.68377">
        <ele>601.4</ele>
        <time>2026-05-02T09:24:52Z</time>
      </trkpt>
      <trkpt lat="45.10077" lon="4.68389">
        <ele>600.6</ele>
        <time>2026-05-02T09:24:57Z</time>
      </trkpt>
      <trkpt lat="45.10079" lon="4.68399">
        <ele>600.1</ele>
        <time>2026-05-02T09:25:02Z</time>
      </trkpt>
      <trkpt lat="45.10083" lon="4.68413">
        <ele>599.1</ele>
        <time>2026-05-02T09:25:07Z</time>
      </trkpt>
      <trkpt lat="45.10085" lon="4.68425">
        <ele>597.8</ele>
        <time>2026-05-02T09:25:12Z</time>
      </trkpt>
      <trkpt lat="45.10088" lon="4.68435">
        <ele>596.2</ele>
        <time>2026-05-02T09:25:17Z</time>
      </trkpt>
      <trkpt lat="45.10089" lon="4.68444">
        <ele>595.1</ele>
        <time>2026-05-02T09:25:22Z</time>
      </trkpt>
      <trkpt lat="45.1009" lon="4.68453">
        <ele>594.1</ele>
        <time>2026-05-02T09:25:27Z</time>
      </trkpt>
      <trkpt lat="45.10092" lon="4.68461">
        <ele>592.9</ele>
        <time>2026-05-02T09:25:32Z</time>
      </trkpt>
      <trkpt lat="45.10093" lon="4.68465">
        <ele>592.4</ele>
        <time>2026-05-02T09:25:37Z</time>
      </trkpt>
      <trkpt lat="45.10095" lon="4.68468">
        <ele>591.7</ele>
        <time>2026-05-02T09:25:42Z</time>
      </trkpt>
      <trkpt lat="45.10096" lon="4.68471">
        <ele>591.2</ele>
        <time>2026-05-02T09:25:47Z</time>
      </trkpt>
      <trkpt lat="45.101" lon="4.68476">
        <ele>590</ele>
        <time>2026-05-02T09:25:52Z</time>
      </trkpt>
      <trkpt lat="45.10103" lon="4.68485">
        <ele>588.7</ele>
        <time>2026-05-02T09:25:57Z</time>
      </trkpt>
      <trkpt lat="45.10109" lon="4.68495">
        <ele>586.8</ele>
        <time>2026-05-02T09:26:02Z</time>
      </trkpt>
      <trkpt lat="45.10113" lon="4.68503">
        <ele>585.3</ele>
        <time>2026-05-02T09:26:07Z</time>
      </trkpt>
      <trkpt lat="45.10117" lon="4.68511">
        <ele>583.8</ele>
        <time>2026-05-02T09:26:12Z</time>
      </trkpt>
      <trkpt lat="45.1012" lon="4.68513">
        <ele>583</ele>
        <time>2026-05-02T09:26:17Z</time>
      </trkpt>
      <trkpt lat="45.1012" lon="4.68513">
        <ele>583</ele>
        <time>2026-05-02T09:26:22Z</time>
      </trkpt>
      <trkpt lat="45.10124" lon="4.68518">
        <ele>581.8</ele>
        <time>2026-05-02T09:26:27Z</time>
      </trkpt>
      <trkpt lat="45.10128" lon="4.68527">
        <ele>580.3</ele>
        <time>2026-05-02T09:26:32Z</time>
      </trkpt>
      <trkpt lat="45.10131" lon="4.68535">
        <ele>579</ele>
        <time>2026-05-02T09:26:37Z</time>
      </trkpt>
      <trkpt lat="45.10133" lon="4.68542">
        <ele>578</ele>
        <time>2026-05-02T09:26:42Z</time>
      </trkpt>
      <trkpt lat="45.10135" lon="4.68546">
        <ele>577.3</ele>
        <time>2026-05-02T09:26:47Z</time>
      </trkpt>
      <trkpt lat="45.10138" lon="4.68547">
        <ele>576.8</ele>
        <time>2026-05-02T09:26:52Z</time>
      </trkpt>
      <trkpt lat="45.10138" lon="4.68547">
        <ele>576.8</ele>
        <time>2026-05-02T09:26:57Z</time>
      </trkpt>
      <trkpt lat="45.10138" lon="4.68547">
        <ele>576.8</ele>
        <time>2026-05-02T09:27:02Z</time>
      </trkpt>
      <trkpt lat="45.10138" lon="4.68547">
        <ele>576.8</ele>
        <time>2026-05-02T09:27:07Z</time>
      </trkpt>
      <trkpt lat="45.10138" lon="4.68547">
        <ele>576.8</ele>
        <time>2026-05-02T09:27:12Z</time>
      </trkpt>
      <trkpt lat="45.10138" lon="4.68547">
        <ele>576.8</ele>
        <time>2026-05-02T09:27:17Z</time>
      </trkpt>
      <trkpt lat="45.10138" lon="4.68547">
        <ele>576.8</ele>
        <time>2026-05-02T09:27:22Z</time>
      </trkpt>
      <trkpt lat="45.10138" lon="4.68547">
        <ele>576.8</ele>
        <time>2026-05-02T09:27:27Z</time>
      </trkpt>
      <trkpt lat="45.10138" lon="4.68547">
        <ele>576.8</ele>
        <time>2026-05-02T09:27:32Z</time>
      </trkpt>
      <trkpt lat="45.10138" lon="4.68547">
        <ele>576.8</ele>
        <time>2026-05-02T09:27:37Z</time>
      </trkpt>
      <trkpt lat="45.10138" lon="4.68547">
        <ele>576.8</ele>
        <time>2026-05-02T09:27:42Z</time>
      </trkpt>
      <trkpt lat="45.10138" lon="4.68547">
        <ele>576.8</ele>
        <time>2026-05-02T09:27:47Z</time>
      </trkpt>
      <trkpt lat="45.10138" lon="4.68547">
        <ele>576.8</ele>
        <time>2026-05-02T09:27:52Z</time>
      </trkpt>
      <trkpt lat="45.10138" lon="4.68547">
        <ele>576.8</ele>
        <time>2026-05-02T09:27:57Z</time>
      </trkpt>
      <trkpt lat="45.10138" lon="4.68547">
        <ele>576.8</ele>
        <time>2026-05-02T09:28:02Z</time>
      </trkpt>
      <trkpt lat="45.10138" lon="4.68547">
        <ele>576.8</ele>
        <time>2026-05-02T09:28:07Z</time>
      </trkpt>
      <trkpt lat="45.10138" lon="4.68547">
        <ele>576.8</ele>
        <time>2026-05-02T09:28:12Z</time>
      </trkpt>
      <trkpt lat="45.10138" lon="4.68547">
        <ele>576.8</ele>
        <time>2026-05-02T09:28:17Z</time>
      </trkpt>
      <trkpt lat="45.10138" lon="4.68547">
        <ele>576.8</ele>
        <time>2026-05-02T09:28:22Z</time>
      </trkpt>
      <trkpt lat="45.10146" lon="4.6855">
        <ele>575.4</ele>
        <time>2026-05-02T09:28:27Z</time>
      </trkpt>
      <trkpt lat="45.10149" lon="4.68555">
        <ele>574.5</ele>
        <time>2026-05-02T09:28:32Z</time>
      </trkpt>
      <trkpt lat="45.10152" lon="4.68559">
        <ele>573.8</ele>
        <time>2026-05-02T09:28:37Z</time>
      </trkpt>
      <trkpt lat="45.10152" lon="4.68559">
        <ele>573.8</ele>
        <time>2026-05-02T09:28:42Z</time>
      </trkpt>
      <trkpt lat="45.10152" lon="4.68559">
        <ele>573.8</ele>
        <time>2026-05-02T09:28:47Z</time>
      </trkpt>
      <trkpt lat="45.10152" lon="4.68559">
        <ele>573.8</ele>
        <time>2026-05-02T09:28:52Z</time>
      </trkpt>
      <trkpt lat="45.10152" lon="4.68559">
        <ele>573.8</ele>
        <time>2026-05-02T09:28:57Z</time>
      </trkpt>
      <trkpt lat="45.10152" lon="4.68559">
        <ele>573.8</ele>
        <time>2026-05-02T09:29:02Z</time>
      </trkpt>
      <trkpt lat="45.10152" lon="4.68559">
        <ele>573.8</ele>
        <time>2026-05-02T09:29:07Z</time>
      </trkpt>
      <trkpt lat="45.10152" lon="4.68559">
        <ele>573.8</ele>
        <time>2026-05-02T09:29:12Z</time>
      </trkpt>
      <trkpt lat="45.10152" lon="4.68559">
        <ele>573.8</ele>
        <time>2026-05-02T09:29:17Z</time>
      </trkpt>
      <trkpt lat="45.10152" lon="4.68559">
        <ele>573.8</ele>
        <time>2026-05-02T09:29:22Z</time>
      </trkpt>
      <trkpt lat="45.10152" lon="4.68559">
        <ele>573.8</ele>
        <time>2026-05-02T09:29:27Z</time>
      </trkpt>
      <trkpt lat="45.10152" lon="4.68559">
        <ele>573.8</ele>
        <time>2026-05-02T09:29:32Z</time>
      </trkpt>
      <trkpt lat="45.10152" lon="4.68559">
        <ele>573.8</ele>
        <time>2026-05-02T09:29:37Z</time>
      </trkpt>
      <trkpt lat="45.10152" lon="4.68559">
        <ele>573.8</ele>
        <time>2026-05-02T09:29:42Z</time>
      </trkpt>
      <trkpt lat="45.10152" lon="4.68559">
        <ele>573.8</ele>
        <time>2026-05-02T09:29:47Z</time>
      </trkpt>
      <trkpt lat="45.10158" lon="4.68565">
        <ele>572.5</ele>
        <time>2026-05-02T09:29:52Z</time>
      </trkpt>
      <trkpt lat="45.10162" lon="4.68571">
        <ele>571.5</ele>
        <time>2026-05-02T09:29:57Z</time>
      </trkpt>
      <trkpt lat="45.10165" lon="4.68578">
        <ele>570.6</ele>
        <time>2026-05-02T09:30:02Z</time>
      </trkpt>
      <trkpt lat="45.10168" lon="4.68586">
        <ele>569.5</ele>
        <time>2026-05-02T09:30:07Z</time>
      </trkpt>
      <trkpt lat="45.1017" lon="4.68592">
        <ele>568.4</ele>
        <time>2026-05-02T09:30:12Z</time>
      </trkpt>
      <trkpt lat="45.10172" lon="4.68602">
        <ele>566.8</ele>
        <time>2026-05-02T09:30:17Z</time>
      </trkpt>
      <trkpt lat="45.10176" lon="4.68611">
        <ele>565.2</ele>
        <time>2026-05-02T09:30:22Z</time>
      </trkpt>
      <trkpt lat="45.10178" lon="4.6862">
        <ele>563.9</ele>
        <time>2026-05-02T09:30:27Z</time>
      </trkpt>
      <trkpt lat="45.10182" lon="4.68628">
        <ele>562.5</ele>
        <time>2026-05-02T09:30:32Z</time>
      </trkpt>
      <trkpt lat="45.10184" lon="4.68638">
        <ele>561.1</ele>
        <time>2026-05-02T09:30:37Z</time>
      </trkpt>
      <trkpt lat="45.10187" lon="4.68647">
        <ele>559.8</ele>
        <time>2026-05-02T09:30:42Z</time>
      </trkpt>
      <trkpt lat="45.10188" lon="4.68659">
        <ele>558.2</ele>
        <time>2026-05-02T09:30:47Z</time>
      </trkpt>
      <trkpt lat="45.10188" lon="4.68663">
        <ele>557.7</ele>
        <time>2026-05-02T09:30:52Z</time>
      </trkpt>
      <trkpt lat="45.10188" lon="4.68663">
        <ele>557.7</ele>
        <time>2026-05-02T09:30:57Z</time>
      </trkpt>
      <trkpt lat="45.10188" lon="4.68663">
        <ele>557.7</ele>
        <time>2026-05-02T09:31:02Z</time>
      </trkpt>
      <trkpt lat="45.10189" lon="4.68665">
        <ele>557.4</ele>
        <time>2026-05-02T09:31:07Z</time>
      </trkpt>
      <trkpt lat="45.1019" lon="4.68674">
        <ele>556.5</ele>
        <time>2026-05-02T09:31:12Z</time>
      </trkpt>
      <trkpt lat="45.10191" lon="4.68685">
        <ele>555.5</ele>
        <time>2026-05-02T09:31:17Z</time>
      </trkpt>
      <trkpt lat="45.10193" lon="4.68696">
        <ele>554.4</ele>
        <time>2026-05-02T09:31:22Z</time>
      </trkpt>
      <trkpt lat="45.10194" lon="4.68703">
        <ele>553.7</ele>
        <time>2026-05-02T09:31:27Z</time>
      </trkpt>
      <trkpt lat="45.10193" lon="4.68705">
        <ele>553.5</ele>
        <time>2026-05-02T09:31:32Z</time>
      </trkpt>
      <trkpt lat="45.10193" lon="4.68706">
        <ele>553.4</ele>
        <time>2026-05-02T09:31:37Z</time>
      </trkpt>
      <trkpt lat="45.10193" lon="4.68706">
        <ele>553.4</ele>
        <time>2026-05-02T09:31:42Z</time>
      </trkpt>
      <trkpt lat="45.10193" lon="4.68706">
        <ele>553.4</ele>
        <time>2026-05-02T09:31:47Z</time>
      </trkpt>
      <trkpt lat="45.10193" lon="4.68706">
        <ele>553.4</ele>
        <time>2026-05-02T09:31:52Z</time>
      </trkpt>
      <trkpt lat="45.10193" lon="4.6871">
        <ele>553.1</ele>
        <time>2026-05-02T09:31:57Z</time>
      </trkpt>
      <trkpt lat="45.10195" lon="4.68717">
        <ele>552.3</ele>
        <time>2026-05-02T09:32:02Z</time>
      </trkpt>
      <trkpt lat="45.10196" lon="4.68727">
        <ele>551.4</ele>
        <time>2026-05-02T09:32:07Z</time>
      </trkpt>
      <trkpt lat="45.10197" lon="4.68736">
        <ele>550.5</ele>
        <time>2026-05-02T09:32:12Z</time>
      </trkpt>
      <trkpt lat="45.10198" lon="4.68747">
        <ele>549.4</ele>
        <time>2026-05-02T09:32:17Z</time>
      </trkpt>
      <trkpt lat="45.102" lon="4.68757">
        <ele>548.8</ele>
        <time>2026-05-02T09:32:22Z</time>
      </trkpt>
      <trkpt lat="45.10201" lon="4.68767">
        <ele>548.5</ele>
        <time>2026-05-02T09:32:27Z</time>
      </trkpt>
      <trkpt lat="45.10202" lon="4.68778">
        <ele>548.2</ele>
        <time>2026-05-02T09:32:32Z</time>
      </trkpt>
      <trkpt lat="45.10204" lon="4.68789">
        <ele>547.6</ele>
        <time>2026-05-02T09:32:37Z</time>
      </trkpt>
      <trkpt lat="45.10206" lon="4.68799">
        <ele>547.1</ele>
        <time>2026-05-02T09:32:42Z</time>
      </trkpt>
      <trkpt lat="45.10206" lon="4.68809">
        <ele>546.8</ele>
        <time>2026-05-02T09:32:47Z</time>
      </trkpt>
      <trkpt lat="45.10207" lon="4.68819">
        <ele>546.3</ele>
        <time>2026-05-02T09:32:52Z</time>
      </trkpt>
      <trkpt lat="45.10208" lon="4.6883">
        <ele>545.7</ele>
        <time>2026-05-02T09:32:57Z</time>
      </trkpt>
      <trkpt lat="45.1021" lon="4.6884">
        <ele>545</ele>
        <time>2026-05-02T09:33:02Z</time>
      </trkpt>
      <trkpt lat="45.1021" lon="4.6885">
        <ele>544.7</ele>
        <time>2026-05-02T09:33:07Z</time>
      </trkpt>
      <trkpt lat="45.10211" lon="4.6886">
        <ele>544.2</ele>
        <time>2026-05-02T09:33:12Z</time>
      </trkpt>
      <trkpt lat="45.10211" lon="4.68871">
        <ele>543.9</ele>
        <time>2026-05-02T09:33:17Z</time>
      </trkpt>
      <trkpt lat="45.10211" lon="4.6888">
        <ele>543.7</ele>
        <time>2026-05-02T09:33:22Z</time>
      </trkpt>
      <trkpt lat="45.1021" lon="4.68892">
        <ele>543.6</ele>
        <time>2026-05-02T09:33:27Z</time>
      </trkpt>
      <trkpt lat="45.1021" lon="4.68904">
        <ele>543.3</ele>
        <time>2026-05-02T09:33:32Z</time>
      </trkpt>
      <trkpt lat="45.1021" lon="4.68914">
        <ele>543</ele>
        <time>2026-05-02T09:33:37Z</time>
      </trkpt>
      <trkpt lat="45.10211" lon="4.68926">
        <ele>542.3</ele>
        <time>2026-05-02T09:33:42Z</time>
      </trkpt>
      <trkpt lat="45.10211" lon="4.68937">
        <ele>541.9</ele>
        <time>2026-05-02T09:33:47Z</time>
      </trkpt>
      <trkpt lat="45.10212" lon="4.68947">
        <ele>541.2</ele>
        <time>2026-05-02T09:33:52Z</time>
      </trkpt>
      <trkpt lat="45.10213" lon="4.68957">
        <ele>540.5</ele>
        <time>2026-05-02T09:33:57Z</time>
      </trkpt>
      <trkpt lat="45.10213" lon="4.68969">
        <ele>540.1</ele>
        <time>2026-05-02T09:34:02Z</time>
      </trkpt>
      <trkpt lat="45.10214" lon="4.6898">
        <ele>539.4</ele>
        <time>2026-05-02T09:34:07Z</time>
      </trkpt>
      <trkpt lat="45.10214" lon="4.6899">
        <ele>539</ele>
        <time>2026-05-02T09:34:12Z</time>
      </trkpt>
      <trkpt lat="45.10214" lon="4.69001">
        <ele>538.6</ele>
        <time>2026-05-02T09:34:17Z</time>
      </trkpt>
      <trkpt lat="45.10214" lon="4.69001">
        <ele>538.6</ele>
        <time>2026-05-02T09:34:22Z</time>
      </trkpt>
      <trkpt lat="45.10213" lon="4.69006">
        <ele>538.7</ele>
        <time>2026-05-02T09:34:27Z</time>
      </trkpt>
      <trkpt lat="45.10213" lon="4.69014">
        <ele>538.2</ele>
        <time>2026-05-02T09:34:32Z</time>
      </trkpt>
      <trkpt lat="45.10213" lon="4.69024">
        <ele>537.6</ele>
        <time>2026-05-02T09:34:37Z</time>
      </trkpt>
      <trkpt lat="45.10212" lon="4.69034">
        <ele>537.4</ele>
        <time>2026-05-02T09:34:42Z</time>
      </trkpt>
      <trkpt lat="45.10211" lon="4.69043">
        <ele>537.2</ele>
        <time>2026-05-02T09:34:47Z</time>
      </trkpt>
      <trkpt lat="45.10209" lon="4.69053">
        <ele>537.1</ele>
        <time>2026-05-02T09:34:52Z</time>
      </trkpt>
      <trkpt lat="45.10207" lon="4.69063">
        <ele>537.1</ele>
        <time>2026-05-02T09:34:57Z</time>
      </trkpt>
      <trkpt lat="45.10205" lon="4.69072">
        <ele>537.1</ele>
        <time>2026-05-02T09:35:02Z</time>
      </trkpt>
      <trkpt lat="45.10202" lon="4.69082">
        <ele>537.2</ele>
        <time>2026-05-02T09:35:07Z</time>
      </trkpt>
      <trkpt lat="45.102" lon="4.69091">
        <ele>536.8</ele>
        <time>2026-05-02T09:35:12Z</time>
      </trkpt>
      <trkpt lat="45.10198" lon="4.691">
        <ele>536.4</ele>
        <time>2026-05-02T09:35:17Z</time>
      </trkpt>
      <trkpt lat="45.10195" lon="4.6911">
        <ele>536</ele>
        <time>2026-05-02T09:35:22Z</time>
      </trkpt>
      <trkpt lat="45.10191" lon="4.69118">
        <ele>536</ele>
        <time>2026-05-02T09:35:27Z</time>
      </trkpt>
      <trkpt lat="45.10189" lon="4.69127">
        <ele>535.5</ele>
        <time>2026-05-02T09:35:32Z</time>
      </trkpt>
      <trkpt lat="45.10191" lon="4.69134">
        <ele>534.2</ele>
        <time>2026-05-02T09:35:37Z</time>
      </trkpt>
      <trkpt lat="45.10191" lon="4.69135">
        <ele>534.1</ele>
        <time>2026-05-02T09:35:42Z</time>
      </trkpt>
      <trkpt lat="45.10191" lon="4.69135">
        <ele>534.1</ele>
        <time>2026-05-02T09:35:47Z</time>
      </trkpt>
      <trkpt lat="45.10191" lon="4.69135">
        <ele>534.1</ele>
        <time>2026-05-02T09:35:52Z</time>
      </trkpt>
      <trkpt lat="45.10191" lon="4.69135">
        <ele>534.1</ele>
        <time>2026-05-02T09:35:57Z</time>
      </trkpt>
      <trkpt lat="45.10191" lon="4.69135">
        <ele>534.1</ele>
        <time>2026-05-02T09:36:02Z</time>
      </trkpt>
      <trkpt lat="45.10191" lon="4.69135">
        <ele>534.1</ele>
        <time>2026-05-02T09:36:07Z</time>
      </trkpt>
      <trkpt lat="45.10196" lon="4.69143">
        <ele>532.2</ele>
        <time>2026-05-02T09:36:12Z</time>
      </trkpt>
      <trkpt lat="45.10202" lon="4.69144">
        <ele>530.9</ele>
        <time>2026-05-02T09:36:17Z</time>
      </trkpt>
      <trkpt lat="45.10208" lon="4.69149">
        <ele>529.3</ele>
        <time>2026-05-02T09:36:22Z</time>
      </trkpt>
      <trkpt lat="45.1021" lon="4.69149">
        <ele>528.9</ele>
        <time>2026-05-02T09:36:27Z</time>
      </trkpt>
      <trkpt lat="45.10211" lon="4.69149">
        <ele>528.7</ele>
        <time>2026-05-02T09:36:32Z</time>
      </trkpt>
      <trkpt lat="45.10211" lon="4.69149">
        <ele>528.7</ele>
        <time>2026-05-02T09:36:37Z</time>
      </trkpt>
      <trkpt lat="45.10211" lon="4.69149">
        <ele>528.7</ele>
        <time>2026-05-02T09:36:42Z</time>
      </trkpt>
      <trkpt lat="45.10211" lon="4.69149">
        <ele>528.7</ele>
        <time>2026-05-02T09:36:47Z</time>
      </trkpt>
      <trkpt lat="45.10212" lon="4.6915">
        <ele>528.4</ele>
        <time>2026-05-02T09:36:52Z</time>
      </trkpt>
      <trkpt lat="45.10211" lon="4.69149">
        <ele>528.7</ele>
        <time>2026-05-02T09:36:57Z</time>
      </trkpt>
      <trkpt lat="45.10206" lon="4.69146">
        <ele>529.9</ele>
        <time>2026-05-02T09:37:02Z</time>
      </trkpt>
      <trkpt lat="45.10201" lon="4.69143">
        <ele>531.2</ele>
        <time>2026-05-02T09:37:07Z</time>
      </trkpt>
      <trkpt lat="45.10196" lon="4.69137">
        <ele>532.9</ele>
        <time>2026-05-02T09:37:12Z</time>
      </trkpt>
      <trkpt lat="45.10192" lon="4.69132">
        <ele>534.3</ele>
        <time>2026-05-02T09:37:17Z</time>
      </trkpt>
      <trkpt lat="45.10191" lon="4.69124">
        <ele>535.4</ele>
        <time>2026-05-02T09:37:22Z</time>
      </trkpt>
      <trkpt lat="45.1019" lon="4.69118">
        <ele>536.2</ele>
        <time>2026-05-02T09:37:27Z</time>
      </trkpt>
      <trkpt lat="45.10191" lon="4.69115">
        <ele>536.4</ele>
        <time>2026-05-02T09:37:32Z</time>
      </trkpt>
      <trkpt lat="45.10192" lon="4.69113">
        <ele>536.3</ele>
        <time>2026-05-02T09:37:37Z</time>
      </trkpt>
      <trkpt lat="45.10194" lon="4.69106">
        <ele>536.7</ele>
        <time>2026-05-02T09:37:42Z</time>
      </trkpt>
      <trkpt lat="45.10197" lon="4.69098">
        <ele>536.8</ele>
        <time>2026-05-02T09:37:47Z</time>
      </trkpt>
      <trkpt lat="45.102" lon="4.69089">
        <ele>537</ele>
        <time>2026-05-02T09:37:52Z</time>
      </trkpt>
      <trkpt lat="45.10202" lon="4.6908">
        <ele>537.3</ele>
        <time>2026-05-02T09:37:57Z</time>
      </trkpt>
      <trkpt lat="45.10204" lon="4.6907">
        <ele>537.4</ele>
        <time>2026-05-02T09:38:02Z</time>
      </trkpt>
      <trkpt lat="45.10206" lon="4.6906">
        <ele>537.5</ele>
        <time>2026-05-02T09:38:07Z</time>
      </trkpt>
      <trkpt lat="45.10208" lon="4.69052">
        <ele>537.5</ele>
        <time>2026-05-02T09:38:12Z</time>
      </trkpt>
      <trkpt lat="45.10209" lon="4.69042">
        <ele>537.8</ele>
        <time>2026-05-02T09:38:17Z</time>
      </trkpt>
      <trkpt lat="45.10209" lon="4.6904">
        <ele>537.9</ele>
        <time>2026-05-02T09:38:22Z</time>
      </trkpt>
      <trkpt lat="45.10206" lon="4.69041">
        <ele>538.7</ele>
        <time>2026-05-02T09:38:27Z</time>
      </trkpt>
      <trkpt lat="45.102" lon="4.69038">
        <ele>540.6</ele>
        <time>2026-05-02T09:38:32Z</time>
      </trkpt>
      <trkpt lat="45.10195" lon="4.69035">
        <ele>542.3</ele>
        <time>2026-05-02T09:38:37Z</time>
      </trkpt>
      <trkpt lat="45.1019" lon="4.69032">
        <ele>544</ele>
        <time>2026-05-02T09:38:42Z</time>
      </trkpt>
      <trkpt lat="45.10186" lon="4.69029">
        <ele>545.4</ele>
        <time>2026-05-02T09:38:47Z</time>
      </trkpt>
      <trkpt lat="45.10182" lon="4.69027">
        <ele>546.8</ele>
        <time>2026-05-02T09:38:52Z</time>
      </trkpt>
      <trkpt lat="45.10181" lon="4.69028">
        <ele>547</ele>
        <time>2026-05-02T09:38:57Z</time>
      </trkpt>
      <trkpt lat="45.10181" lon="4.69029">
        <ele>546.9</ele>
        <time>2026-05-02T09:39:02Z</time>
      </trkpt>
      <trkpt lat="45.10181" lon="4.69029">
        <ele>546.9</ele>
        <time>2026-05-02T09:39:07Z</time>
      </trkpt>
      <trkpt lat="45.10181" lon="4.69029">
        <ele>546.9</ele>
        <time>2026-05-02T09:39:12Z</time>
      </trkpt>
      <trkpt lat="45.10181" lon="4.69029">
        <ele>546.9</ele>
        <time>2026-05-02T09:39:17Z</time>
      </trkpt>
      <trkpt lat="45.10181" lon="4.69029">
        <ele>546.9</ele>
        <time>2026-05-02T09:39:22Z</time>
      </trkpt>
      <trkpt lat="45.10177" lon="4.69026">
        <ele>548.4</ele>
        <time>2026-05-02T09:39:27Z</time>
      </trkpt>
      <trkpt lat="45.10172" lon="4.6902">
        <ele>550.4</ele>
        <time>2026-05-02T09:39:32Z</time>
      </trkpt>
      <trkpt lat="45.10167" lon="4.69017">
        <ele>552.3</ele>
        <time>2026-05-02T09:39:37Z</time>
      </trkpt>
      <trkpt lat="45.10163" lon="4.69013">
        <ele>553.8</ele>
        <time>2026-05-02T09:39:42Z</time>
      </trkpt>
      <trkpt lat="45.10159" lon="4.69011">
        <ele>555.2</ele>
        <time>2026-05-02T09:39:47Z</time>
      </trkpt>
      <trkpt lat="45.10154" lon="4.69007">
        <ele>557.1</ele>
        <time>2026-05-02T09:39:52Z</time>
      </trkpt>
      <trkpt lat="45.10151" lon="4.69004">
        <ele>558.3</ele>
        <time>2026-05-02T09:39:57Z</time>
      </trkpt>
      <trkpt lat="45.10149" lon="4.69003">
        <ele>559</ele>
        <time>2026-05-02T09:40:02Z</time>
      </trkpt>
      <trkpt lat="45.10149" lon="4.69003">
        <ele>559</ele>
        <time>2026-05-02T09:40:07Z</time>
      </trkpt>
      <trkpt lat="45.10149" lon="4.69003">
        <ele>559</ele>
        <time>2026-05-02T09:40:12Z</time>
      </trkpt>
      <trkpt lat="45.10149" lon="4.69003">
        <ele>559</ele>
        <time>2026-05-02T09:40:17Z</time>
      </trkpt>
      <trkpt lat="45.10149" lon="4.69003">
        <ele>559</ele>
        <time>2026-05-02T09:40:22Z</time>
      </trkpt>
      <trkpt lat="45.10149" lon="4.69003">
        <ele>559</ele>
        <time>2026-05-02T09:40:27Z</time>
      </trkpt>
      <trkpt lat="45.10144" lon="4.69">
        <ele>560.8</ele>
        <time>2026-05-02T09:40:32Z</time>
      </trkpt>
      <trkpt lat="45.10142" lon="4.68998">
        <ele>561.5</ele>
        <time>2026-05-02T09:40:37Z</time>
      </trkpt>
      <trkpt lat="45.10138" lon="4.68995">
        <ele>562.8</ele>
        <time>2026-05-02T09:40:42Z</time>
      </trkpt>
      <trkpt lat="45.10135" lon="4.68992">
        <ele>563.8</ele>
        <time>2026-05-02T09:40:47Z</time>
      </trkpt>
      <trkpt lat="45.10131" lon="4.68991">
        <ele>565</ele>
        <time>2026-05-02T09:40:52Z</time>
      </trkpt>
      <trkpt lat="45.10127" lon="4.68993">
        <ele>566.1</ele>
        <time>2026-05-02T09:40:57Z</time>
      </trkpt>
      <trkpt lat="45.10125" lon="4.68997">
        <ele>566.6</ele>
        <time>2026-05-02T09:41:02Z</time>
      </trkpt>
      <trkpt lat="45.10123" lon="4.69004">
        <ele>566.7</ele>
        <time>2026-05-02T09:41:07Z</time>
      </trkpt>
      <trkpt lat="45.1012" lon="4.69011">
        <ele>566.9</ele>
        <time>2026-05-02T09:41:12Z</time>
      </trkpt>
      <trkpt lat="45.10117" lon="4.6902">
        <ele>566.8</ele>
        <time>2026-05-02T09:41:17Z</time>
      </trkpt>
      <trkpt lat="45.10114" lon="4.69028">
        <ele>566.9</ele>
        <time>2026-05-02T09:41:22Z</time>
      </trkpt>
      <trkpt lat="45.10112" lon="4.69036">
        <ele>566.7</ele>
        <time>2026-05-02T09:41:27Z</time>
      </trkpt>
      <trkpt lat="45.10109" lon="4.69044">
        <ele>566.7</ele>
        <time>2026-05-02T09:41:32Z</time>
      </trkpt>
      <trkpt lat="45.10106" lon="4.69053">
        <ele>566.6</ele>
        <time>2026-05-02T09:41:37Z</time>
      </trkpt>
      <trkpt lat="45.10105" lon="4.69061">
        <ele>566.1</ele>
        <time>2026-05-02T09:41:42Z</time>
      </trkpt>
      <trkpt lat="45.10102" lon="4.6907">
        <ele>566</ele>
        <time>2026-05-02T09:41:47Z</time>
      </trkpt>
      <trkpt lat="45.10099" lon="4.69079">
        <ele>565.9</ele>
        <time>2026-05-02T09:41:52Z</time>
      </trkpt>
      <trkpt lat="45.10097" lon="4.69087">
        <ele>565.5</ele>
        <time>2026-05-02T09:41:57Z</time>
      </trkpt>
      <trkpt lat="45.10094" lon="4.69095">
        <ele>565</ele>
        <time>2026-05-02T09:42:02Z</time>
      </trkpt>
      <trkpt lat="45.1009" lon="4.69103">
        <ele>564.8</ele>
        <time>2026-05-02T09:42:07Z</time>
      </trkpt>
      <trkpt lat="45.10085" lon="4.69108">
        <ele>565.4</ele>
        <time>2026-05-02T09:42:12Z</time>
      </trkpt>
      <trkpt lat="45.1008" lon="4.69112">
        <ele>565.7</ele>
        <time>2026-05-02T09:42:17Z</time>
      </trkpt>
      <trkpt lat="45.10074" lon="4.69118">
        <ele>565.6</ele>
        <time>2026-05-02T09:42:22Z</time>
      </trkpt>
      <trkpt lat="45.10069" lon="4.69122">
        <ele>565.7</ele>
        <time>2026-05-02T09:42:27Z</time>
      </trkpt>
      <trkpt lat="45.10064" lon="4.69128">
        <ele>565.5</ele>
        <time>2026-05-02T09:42:32Z</time>
      </trkpt>
      <trkpt lat="45.10061" lon="4.69134">
        <ele>565</ele>
        <time>2026-05-02T09:42:37Z</time>
      </trkpt>
      <trkpt lat="45.10057" lon="4.6914">
        <ele>564.6</ele>
        <time>2026-05-02T09:42:42Z</time>
      </trkpt>
      <trkpt lat="45.10053" lon="4.69148">
        <ele>563.9</ele>
        <time>2026-05-02T09:42:47Z</time>
      </trkpt>
      <trkpt lat="45.10048" lon="4.69155">
        <ele>563.5</ele>
        <time>2026-05-02T09:42:52Z</time>
      </trkpt>
      <trkpt lat="45.10044" lon="4.69161">
        <ele>563.1</ele>
        <time>2026-05-02T09:42:57Z</time>
      </trkpt>
      <trkpt lat="45.1004" lon="4.69166">
        <ele>562.9</ele>
        <time>2026-05-02T09:43:02Z</time>
      </trkpt>
      <trkpt lat="45.10035" lon="4.69171">
        <ele>562.6</ele>
        <time>2026-05-02T09:43:07Z</time>
      </trkpt>
      <trkpt lat="45.10032" lon="4.69177">
        <ele>561.7</ele>
        <time>2026-05-02T09:43:12Z</time>
      </trkpt>
      <trkpt lat="45.10026" lon="4.69185">
        <ele>560.8</ele>
        <time>2026-05-02T09:43:17Z</time>
      </trkpt>
      <trkpt lat="45.10021" lon="4.69193">
        <ele>559.7</ele>
        <time>2026-05-02T09:43:22Z</time>
      </trkpt>
      <trkpt lat="45.10016" lon="4.69206">
        <ele>557.4</ele>
        <time>2026-05-02T09:43:27Z</time>
      </trkpt>
      <trkpt lat="45.10011" lon="4.69219">
        <ele>555.1</ele>
        <time>2026-05-02T09:43:32Z</time>
      </trkpt>
      <trkpt lat="45.10007" lon="4.69229">
        <ele>553.2</ele>
        <time>2026-05-02T09:43:37Z</time>
      </trkpt>
      <trkpt lat="45.10005" lon="4.69238">
        <ele>551.3</ele>
        <time>2026-05-02T09:43:42Z</time>
      </trkpt>
      <trkpt lat="45.10005" lon="4.69245">
        <ele>549.6</ele>
        <time>2026-05-02T09:43:47Z</time>
      </trkpt>
      <trkpt lat="45.10006" lon="4.69249">
        <ele>548.6</ele>
        <time>2026-05-02T09:43:52Z</time>
      </trkpt>
      <trkpt lat="45.10003" lon="4.69257">
        <ele>547.3</ele>
        <time>2026-05-02T09:43:57Z</time>
      </trkpt>
      <trkpt lat="45.1" lon="4.69267">
        <ele>545.7</ele>
        <time>2026-05-02T09:44:02Z</time>
      </trkpt>
      <trkpt lat="45.09996" lon="4.69276">
        <ele>544</ele>
        <time>2026-05-02T09:44:07Z</time>
      </trkpt>
      <trkpt lat="45.09992" lon="4.69285">
        <ele>542.2</ele>
        <time>2026-05-02T09:44:12Z</time>
      </trkpt>
      <trkpt lat="45.09988" lon="4.69293">
        <ele>540.7</ele>
        <time>2026-05-02T09:44:17Z</time>
      </trkpt>
      <trkpt lat="45.09983" lon="4.69299">
        <ele>539.5</ele>
        <time>2026-05-02T09:44:22Z</time>
      </trkpt>
      <trkpt lat="45.09981" lon="4.69309">
        <ele>537.7</ele>
        <time>2026-05-02T09:44:27Z</time>
      </trkpt>
      <trkpt lat="45.09981" lon="4.69321">
        <ele>535.5</ele>
        <time>2026-05-02T09:44:32Z</time>
      </trkpt>
      <trkpt lat="45.09983" lon="4.69331">
        <ele>533.6</ele>
        <time>2026-05-02T09:44:37Z</time>
      </trkpt>
      <trkpt lat="45.09986" lon="4.69342">
        <ele>532.2</ele>
        <time>2026-05-02T09:44:42Z</time>
      </trkpt>
      <trkpt lat="45.0999" lon="4.69351">
        <ele>531.2</ele>
        <time>2026-05-02T09:44:47Z</time>
      </trkpt>
      <trkpt lat="45.09994" lon="4.69361">
        <ele>530.1</ele>
        <time>2026-05-02T09:44:52Z</time>
      </trkpt>
      <trkpt lat="45.09998" lon="4.69368">
        <ele>529.3</ele>
        <time>2026-05-02T09:44:57Z</time>
      </trkpt>
      <trkpt lat="45.10002" lon="4.69378">
        <ele>528.1</ele>
        <time>2026-05-02T09:45:02Z</time>
      </trkpt>
      <trkpt lat="45.10005" lon="4.69388">
        <ele>527.1</ele>
        <time>2026-05-02T09:45:07Z</time>
      </trkpt>
      <trkpt lat="45.10007" lon="4.69398">
        <ele>526</ele>
        <time>2026-05-02T09:45:12Z</time>
      </trkpt>
      <trkpt lat="45.1001" lon="4.69408">
        <ele>525</ele>
        <time>2026-05-02T09:45:17Z</time>
      </trkpt>
      <trkpt lat="45.10011" lon="4.69417">
        <ele>524.1</ele>
        <time>2026-05-02T09:45:22Z</time>
      </trkpt>
      <trkpt lat="45.10008" lon="4.69426">
        <ele>523.7</ele>
        <time>2026-05-02T09:45:27Z</time>
      </trkpt>
      <trkpt lat="45.10002" lon="4.69434">
        <ele>523.2</ele>
        <time>2026-05-02T09:45:32Z</time>
      </trkpt>
      <trkpt lat="45.09996" lon="4.69442">
        <ele>522.9</ele>
        <time>2026-05-02T09:45:37Z</time>
      </trkpt>
      <trkpt lat="45.09991" lon="4.69448">
        <ele>522.7</ele>
        <time>2026-05-02T09:45:42Z</time>
      </trkpt>
      <trkpt lat="45.09985" lon="4.69455">
        <ele>522.5</ele>
        <time>2026-05-02T09:45:47Z</time>
      </trkpt>
      <trkpt lat="45.0998" lon="4.69461">
        <ele>522.4</ele>
        <time>2026-05-02T09:45:52Z</time>
      </trkpt>
      <trkpt lat="45.09978" lon="4.69462">
        <ele>522.4</ele>
        <time>2026-05-02T09:45:57Z</time>
      </trkpt>
      <trkpt lat="45.09977" lon="4.69463">
        <ele>522.3</ele>
        <time>2026-05-02T09:46:02Z</time>
      </trkpt>
      <trkpt lat="45.09971" lon="4.69469">
        <ele>522.2</ele>
        <time>2026-05-02T09:46:07Z</time>
      </trkpt>
      <trkpt lat="45.09965" lon="4.69474">
        <ele>522.1</ele>
        <time>2026-05-02T09:46:12Z</time>
      </trkpt>
      <trkpt lat="45.09959" lon="4.69478">
        <ele>522</ele>
        <time>2026-05-02T09:46:17Z</time>
      </trkpt>
      <trkpt lat="45.09953" lon="4.69484">
        <ele>521.9</ele>
        <time>2026-05-02T09:46:22Z</time>
      </trkpt>
      <trkpt lat="45.09947" lon="4.6949">
        <ele>521.8</ele>
        <time>2026-05-02T09:46:27Z</time>
      </trkpt>
      <trkpt lat="45.09941" lon="4.69495">
        <ele>521.7</ele>
        <time>2026-05-02T09:46:32Z</time>
      </trkpt>
      <trkpt lat="45.09935" lon="4.69502">
        <ele>521.5</ele>
        <time>2026-05-02T09:46:37Z</time>
      </trkpt>
      <trkpt lat="45.09928" lon="4.69508">
        <ele>521.5</ele>
        <time>2026-05-02T09:46:42Z</time>
      </trkpt>
      <trkpt lat="45.09923" lon="4.69514">
        <ele>521.4</ele>
        <time>2026-05-02T09:46:47Z</time>
      </trkpt>
      <trkpt lat="45.09915" lon="4.69521">
        <ele>521.5</ele>
        <time>2026-05-02T09:46:52Z</time>
      </trkpt>
      <trkpt lat="45.09909" lon="4.69527">
        <ele>522.1</ele>
        <time>2026-05-02T09:46:57Z</time>
      </trkpt>
      <trkpt lat="45.09903" lon="4.69534">
        <ele>522.6</ele>
        <time>2026-05-02T09:47:02Z</time>
      </trkpt>
      <trkpt lat="45.09896" lon="4.69539">
        <ele>523.3</ele>
        <time>2026-05-02T09:47:07Z</time>
      </trkpt>
      <trkpt lat="45.0989" lon="4.69546">
        <ele>523.8</ele>
        <time>2026-05-02T09:47:12Z</time>
      </trkpt>
      <trkpt lat="45.09885" lon="4.69552">
        <ele>524.2</ele>
        <time>2026-05-02T09:47:17Z</time>
      </trkpt>
      <trkpt lat="45.09879" lon="4.69559">
        <ele>524.7</ele>
        <time>2026-05-02T09:47:22Z</time>
      </trkpt>
      <trkpt lat="45.09874" lon="4.69564">
        <ele>525.1</ele>
        <time>2026-05-02T09:47:27Z</time>
      </trkpt>
      <trkpt lat="45.09867" lon="4.6957">
        <ele>525.6</ele>
        <time>2026-05-02T09:47:32Z</time>
      </trkpt>
      <trkpt lat="45.09862" lon="4.69577">
        <ele>525.9</ele>
        <time>2026-05-02T09:47:37Z</time>
      </trkpt>
      <trkpt lat="45.09856" lon="4.69582">
        <ele>526.4</ele>
        <time>2026-05-02T09:47:42Z</time>
      </trkpt>
      <trkpt lat="45.09851" lon="4.69587">
        <ele>526.6</ele>
        <time>2026-05-02T09:47:47Z</time>
      </trkpt>
      <trkpt lat="45.09843" lon="4.69595">
        <ele>526.9</ele>
        <time>2026-05-02T09:47:52Z</time>
      </trkpt>
      <trkpt lat="45.09836" lon="4.69601">
        <ele>527.2</ele>
        <time>2026-05-02T09:47:57Z</time>
      </trkpt>
      <trkpt lat="45.09829" lon="4.69604">
        <ele>527.4</ele>
        <time>2026-05-02T09:48:02Z</time>
      </trkpt>
      <trkpt lat="45.09823" lon="4.69607">
        <ele>527.3</ele>
        <time>2026-05-02T09:48:07Z</time>
      </trkpt>
      <trkpt lat="45.09816" lon="4.6961">
        <ele>527.3</ele>
        <time>2026-05-02T09:48:12Z</time>
      </trkpt>
      <trkpt lat="45.09809" lon="4.69613">
        <ele>527.2</ele>
        <time>2026-05-02T09:48:17Z</time>
      </trkpt>
      <trkpt lat="45.09802" lon="4.69617">
        <ele>526.9</ele>
        <time>2026-05-02T09:48:22Z</time>
      </trkpt>
      <trkpt lat="45.09795" lon="4.69623">
        <ele>526.4</ele>
        <time>2026-05-02T09:48:27Z</time>
      </trkpt>
      <trkpt lat="45.09788" lon="4.6963">
        <ele>525.7</ele>
        <time>2026-05-02T09:48:32Z</time>
      </trkpt>
      <trkpt lat="45.09782" lon="4.69637">
        <ele>525</ele>
        <time>2026-05-02T09:48:37Z</time>
      </trkpt>
      <trkpt lat="45.09778" lon="4.69643">
        <ele>524.3</ele>
        <time>2026-05-02T09:48:42Z</time>
      </trkpt>
      <trkpt lat="45.09773" lon="4.69648">
        <ele>523.7</ele>
        <time>2026-05-02T09:48:47Z</time>
      </trkpt>
      <trkpt lat="45.09768" lon="4.69657">
        <ele>522.5</ele>
        <time>2026-05-02T09:48:52Z</time>
      </trkpt>
      <trkpt lat="45.09763" lon="4.69665">
        <ele>521.4</ele>
        <time>2026-05-02T09:48:57Z</time>
      </trkpt>
      <trkpt lat="45.09759" lon="4.69673">
        <ele>520.7</ele>
        <time>2026-05-02T09:49:02Z</time>
      </trkpt>
      <trkpt lat="45.09754" lon="4.69681">
        <ele>520.2</ele>
        <time>2026-05-02T09:49:07Z</time>
      </trkpt>
      <trkpt lat="45.09747" lon="4.69687">
        <ele>519.8</ele>
        <time>2026-05-02T09:49:12Z</time>
      </trkpt>
      <trkpt lat="45.0974" lon="4.69691">
        <ele>519.6</ele>
        <time>2026-05-02T09:49:17Z</time>
      </trkpt>
      <trkpt lat="45.09735" lon="4.69693">
        <ele>519.5</ele>
        <time>2026-05-02T09:49:22Z</time>
      </trkpt>
      <trkpt lat="45.0973" lon="4.69693">
        <ele>519.6</ele>
        <time>2026-05-02T09:49:27Z</time>
      </trkpt>
      <trkpt lat="45.09724" lon="4.69696">
        <ele>519.4</ele>
        <time>2026-05-02T09:49:32Z</time>
      </trkpt>
      <trkpt lat="45.09718" lon="4.69699">
        <ele>519.3</ele>
        <time>2026-05-02T09:49:37Z</time>
      </trkpt>
      <trkpt lat="45.09714" lon="4.69702">
        <ele>519.1</ele>
        <time>2026-05-02T09:49:42Z</time>
      </trkpt>
      <trkpt lat="45.09713" lon="4.69705">
        <ele>518.9</ele>
        <time>2026-05-02T09:49:47Z</time>
      </trkpt>
      <trkpt lat="45.09715" lon="4.69707">
        <ele>518.8</ele>
        <time>2026-05-02T09:49:52Z</time>
      </trkpt>
      <trkpt lat="45.09718" lon="4.69709">
        <ele>518.6</ele>
        <time>2026-05-02T09:49:57Z</time>
      </trkpt>
      <trkpt lat="45.09722" lon="4.69715">
        <ele>518.2</ele>
        <time>2026-05-02T09:50:02Z</time>
      </trkpt>
      <trkpt lat="45.09725" lon="4.69727">
        <ele>517.5</ele>
        <time>2026-05-02T09:50:07Z</time>
      </trkpt>
      <trkpt lat="45.09727" lon="4.69735">
        <ele>516.9</ele>
        <time>2026-05-02T09:50:12Z</time>
      </trkpt>
      <trkpt lat="45.09732" lon="4.6974">
        <ele>516.6</ele>
        <time>2026-05-02T09:50:17Z</time>
      </trkpt>
      <trkpt lat="45.09736" lon="4.69744">
        <ele>516.4</ele>
        <time>2026-05-02T09:50:22Z</time>
      </trkpt>
      <trkpt lat="45.09742" lon="4.69747">
        <ele>516.2</ele>
        <time>2026-05-02T09:50:27Z</time>
      </trkpt>
      <trkpt lat="45.09749" lon="4.69748">
        <ele>516.1</ele>
        <time>2026-05-02T09:50:32Z</time>
      </trkpt>
      <trkpt lat="45.09758" lon="4.6975">
        <ele>516.3</ele>
        <time>2026-05-02T09:50:37Z</time>
      </trkpt>
      <trkpt lat="45.09764" lon="4.69751">
        <ele>516.5</ele>
        <time>2026-05-02T09:50:42Z</time>
      </trkpt>
      <trkpt lat="45.09764" lon="4.69751">
        <ele>516.5</ele>
        <time>2026-05-02T09:50:47Z</time>
      </trkpt>
      <trkpt lat="45.09767" lon="4.69749">
        <ele>516.7</ele>
        <time>2026-05-02T09:50:52Z</time>
      </trkpt>
      <trkpt lat="45.09774" lon="4.69751">
        <ele>516.8</ele>
        <time>2026-05-02T09:50:57Z</time>
      </trkpt>
      <trkpt lat="45.09778" lon="4.69753">
        <ele>516.9</ele>
        <time>2026-05-02T09:51:02Z</time>
      </trkpt>
      <trkpt lat="45.09785" lon="4.69756">
        <ele>517</ele>
        <time>2026-05-02T09:51:07Z</time>
      </trkpt>
      <trkpt lat="45.0979" lon="4.69761">
        <ele>516.9</ele>
        <time>2026-05-02T09:51:12Z</time>
      </trkpt>
      <trkpt lat="45.09795" lon="4.69769">
        <ele>516.7</ele>
        <time>2026-05-02T09:51:17Z</time>
      </trkpt>
      <trkpt lat="45.09796" lon="4.69777">
        <ele>516.3</ele>
        <time>2026-05-02T09:51:22Z</time>
      </trkpt>
      <trkpt lat="45.09795" lon="4.69786">
        <ele>515.9</ele>
        <time>2026-05-02T09:51:27Z</time>
      </trkpt>
      <trkpt lat="45.09793" lon="4.69797">
        <ele>515.3</ele>
        <time>2026-05-02T09:51:32Z</time>
      </trkpt>
      <trkpt lat="45.09793" lon="4.69808">
        <ele>514.7</ele>
        <time>2026-05-02T09:51:37Z</time>
      </trkpt>
      <trkpt lat="45.09792" lon="4.69819">
        <ele>514.2</ele>
        <time>2026-05-02T09:51:42Z</time>
      </trkpt>
      <trkpt lat="45.0979" lon="4.69828">
        <ele>513.7</ele>
        <time>2026-05-02T09:51:47Z</time>
      </trkpt>
      <trkpt lat="45.09791" lon="4.69839">
        <ele>513</ele>
        <time>2026-05-02T09:51:52Z</time>
      </trkpt>
      <trkpt lat="45.0979" lon="4.69849">
        <ele>512.1</ele>
        <time>2026-05-02T09:51:57Z</time>
      </trkpt>
      <trkpt lat="45.09789" lon="4.69859">
        <ele>511.2</ele>
        <time>2026-05-02T09:52:02Z</time>
      </trkpt>
      <trkpt lat="45.0979" lon="4.6987">
        <ele>510.2</ele>
        <time>2026-05-02T09:52:07Z</time>
      </trkpt>
      <trkpt lat="45.09789" lon="4.69879">
        <ele>509.4</ele>
        <time>2026-05-02T09:52:12Z</time>
      </trkpt>
      <trkpt lat="45.09789" lon="4.6989">
        <ele>508.4</ele>
        <time>2026-05-02T09:52:17Z</time>
      </trkpt>
      <trkpt lat="45.09788" lon="4.69901">
        <ele>507.5</ele>
        <time>2026-05-02T09:52:22Z</time>
      </trkpt>
      <trkpt lat="45.09789" lon="4.69912">
        <ele>506.5</ele>
        <time>2026-05-02T09:52:27Z</time>
      </trkpt>
      <trkpt lat="45.09789" lon="4.69918">
        <ele>505.9</ele>
        <time>2026-05-02T09:52:32Z</time>
      </trkpt>
      <trkpt lat="45.09789" lon="4.69921">
        <ele>505.5</ele>
        <time>2026-05-02T09:52:37Z</time>
      </trkpt>
      <trkpt lat="45.09789" lon="4.69922">
        <ele>505.4</ele>
        <time>2026-05-02T09:52:42Z</time>
      </trkpt>
      <trkpt lat="45.09789" lon="4.69922">
        <ele>505.4</ele>
        <time>2026-05-02T09:52:47Z</time>
      </trkpt>
      <trkpt lat="45.09789" lon="4.69922">
        <ele>505.4</ele>
        <time>2026-05-02T09:52:52Z</time>
      </trkpt>
      <trkpt lat="45.09789" lon="4.69922">
        <ele>505.4</ele>
        <time>2026-05-02T09:52:57Z</time>
      </trkpt>
      <trkpt lat="45.09789" lon="4.69922">
        <ele>505.4</ele>
        <time>2026-05-02T09:53:02Z</time>
      </trkpt>
      <trkpt lat="45.09789" lon="4.69922">
        <ele>505.4</ele>
        <time>2026-05-02T09:53:07Z</time>
      </trkpt>
      <trkpt lat="45.09789" lon="4.69922">
        <ele>505.4</ele>
        <time>2026-05-02T09:53:12Z</time>
      </trkpt>
      <trkpt lat="45.09788" lon="4.69936">
        <ele>503.7</ele>
        <time>2026-05-02T09:53:17Z</time>
      </trkpt>
      <trkpt lat="45.09789" lon="4.69945">
        <ele>502.6</ele>
        <time>2026-05-02T09:53:22Z</time>
      </trkpt>
      <trkpt lat="45.0979" lon="4.69956">
        <ele>501.3</ele>
        <time>2026-05-02T09:53:27Z</time>
      </trkpt>
      <trkpt lat="45.09791" lon="4.69964">
        <ele>500.3</ele>
        <time>2026-05-02T09:53:32Z</time>
      </trkpt>
      <trkpt lat="45.09792" lon="4.69976">
        <ele>498.9</ele>
        <time>2026-05-02T09:53:37Z</time>
      </trkpt>
      <trkpt lat="45.09793" lon="4.69986">
        <ele>497.7</ele>
        <time>2026-05-02T09:53:42Z</time>
      </trkpt>
      <trkpt lat="45.09794" lon="4.69996">
        <ele>496.5</ele>
        <time>2026-05-02T09:53:47Z</time>
      </trkpt>
      <trkpt lat="45.09793" lon="4.69998">
        <ele>496.3</ele>
        <time>2026-05-02T09:53:52Z</time>
      </trkpt>
      <trkpt lat="45.09794" lon="4.69998">
        <ele>496.3</ele>
        <time>2026-05-02T09:53:57Z</time>
      </trkpt>
      <trkpt lat="45.09794" lon="4.69999">
        <ele>496.2</ele>
        <time>2026-05-02T09:54:02Z</time>
      </trkpt>
      <trkpt lat="45.09794" lon="4.69999">
        <ele>496.2</ele>
        <time>2026-05-02T09:54:07Z</time>
      </trkpt>
      <trkpt lat="45.09794" lon="4.69999">
        <ele>496.2</ele>
        <time>2026-05-02T09:54:12Z</time>
      </trkpt>
      <trkpt lat="45.09794" lon="4.69999">
        <ele>496.2</ele>
        <time>2026-05-02T09:54:17Z</time>
      </trkpt>
      <trkpt lat="45.09794" lon="4.69999">
        <ele>496.2</ele>
        <time>2026-05-02T09:54:22Z</time>
      </trkpt>
      <trkpt lat="45.09794" lon="4.69999">
        <ele>496.2</ele>
        <time>2026-05-02T09:54:27Z</time>
      </trkpt>
      <trkpt lat="45.09794" lon="4.69999">
        <ele>496.2</ele>
        <time>2026-05-02T09:54:32Z</time>
      </trkpt>
      <trkpt lat="45.09794" lon="4.69999">
        <ele>496.2</ele>
        <time>2026-05-02T09:54:37Z</time>
      </trkpt>
      <trkpt lat="45.09794" lon="4.69999">
        <ele>496.2</ele>
        <time>2026-05-02T09:54:42Z</time>
      </trkpt>
      <trkpt lat="45.09794" lon="4.69999">
        <ele>496.2</ele>
        <time>2026-05-02T09:54:47Z</time>
      </trkpt>
      <trkpt lat="45.09793" lon="4.70006">
        <ele>495.6</ele>
        <time>2026-05-02T09:54:52Z</time>
      </trkpt>
      <trkpt lat="45.09795" lon="4.70016">
        <ele>494.9</ele>
        <time>2026-05-02T09:54:57Z</time>
      </trkpt>
      <trkpt lat="45.09796" lon="4.70028">
        <ele>494.1</ele>
        <time>2026-05-02T09:55:02Z</time>
      </trkpt>
      <trkpt lat="45.09798" lon="4.70037">
        <ele>493.5</ele>
        <time>2026-05-02T09:55:07Z</time>
      </trkpt>
      <trkpt lat="45.09798" lon="4.70049">
        <ele>492.6</ele>
        <time>2026-05-02T09:55:12Z</time>
      </trkpt>
      <trkpt lat="45.09799" lon="4.70059">
        <ele>491.9</ele>
        <time>2026-05-02T09:55:17Z</time>
      </trkpt>
      <trkpt lat="45.098" lon="4.70071">
        <ele>491.1</ele>
        <time>2026-05-02T09:55:22Z</time>
      </trkpt>
      <trkpt lat="45.09801" lon="4.70082">
        <ele>490.3</ele>
        <time>2026-05-02T09:55:27Z</time>
      </trkpt>
      <trkpt lat="45.09801" lon="4.70094">
        <ele>489.6</ele>
        <time>2026-05-02T09:55:32Z</time>
      </trkpt>
      <trkpt lat="45.09803" lon="4.70106">
        <ele>488.8</ele>
        <time>2026-05-02T09:55:37Z</time>
      </trkpt>
      <trkpt lat="45.09804" lon="4.70115">
        <ele>488.3</ele>
        <time>2026-05-02T09:55:42Z</time>
      </trkpt>
      <trkpt lat="45.09805" lon="4.70125">
        <ele>487.7</ele>
        <time>2026-05-02T09:55:47Z</time>
      </trkpt>
      <trkpt lat="45.09806" lon="4.70134">
        <ele>487.1</ele>
        <time>2026-05-02T09:55:52Z</time>
      </trkpt>
      <trkpt lat="45.09808" lon="4.70143">
        <ele>486.5</ele>
        <time>2026-05-02T09:55:57Z</time>
      </trkpt>
      <trkpt lat="45.09808" lon="4.70144">
        <ele>486.5</ele>
        <time>2026-05-02T09:56:02Z</time>
      </trkpt>
      <trkpt lat="45.09808" lon="4.70144">
        <ele>486.5</ele>
        <time>2026-05-02T09:56:07Z</time>
      </trkpt>
      <trkpt lat="45.09809" lon="4.70148">
        <ele>486.2</ele>
        <time>2026-05-02T09:56:12Z</time>
      </trkpt>
      <trkpt lat="45.09811" lon="4.70157">
        <ele>485.6</ele>
        <time>2026-05-02T09:56:17Z</time>
      </trkpt>
      <trkpt lat="45.09813" lon="4.70167">
        <ele>485</ele>
        <time>2026-05-02T09:56:22Z</time>
      </trkpt>
      <trkpt lat="45.09814" lon="4.70177">
        <ele>484.5</ele>
        <time>2026-05-02T09:56:27Z</time>
      </trkpt>
      <trkpt lat="45.09816" lon="4.70185">
        <ele>484.2</ele>
        <time>2026-05-02T09:56:32Z</time>
      </trkpt>
      <trkpt lat="45.09817" lon="4.70197">
        <ele>483.6</ele>
        <time>2026-05-02T09:56:37Z</time>
      </trkpt>
      <trkpt lat="45.09819" lon="4.70206">
        <ele>483.2</ele>
        <time>2026-05-02T09:56:42Z</time>
      </trkpt>
      <trkpt lat="45.0982" lon="4.70215">
        <ele>482.8</ele>
        <time>2026-05-02T09:56:47Z</time>
      </trkpt>
      <trkpt lat="45.09822" lon="4.70224">
        <ele>482.3</ele>
        <time>2026-05-02T09:56:52Z</time>
      </trkpt>
      <trkpt lat="45.09823" lon="4.70234">
        <ele>481.9</ele>
        <time>2026-05-02T09:56:57Z</time>
      </trkpt>
      <trkpt lat="45.09825" lon="4.70243">
        <ele>481.4</ele>
        <time>2026-05-02T09:57:02Z</time>
      </trkpt>
      <trkpt lat="45.09825" lon="4.70253">
        <ele>480.9</ele>
        <time>2026-05-02T09:57:07Z</time>
      </trkpt>
      <trkpt lat="45.09826" lon="4.7026">
        <ele>480.6</ele>
        <time>2026-05-02T09:57:12Z</time>
      </trkpt>
      <trkpt lat="45.09826" lon="4.7026">
        <ele>480.6</ele>
        <time>2026-05-02T09:57:17Z</time>
      </trkpt>
      <trkpt lat="45.09826" lon="4.70262">
        <ele>480.5</ele>
        <time>2026-05-02T09:57:22Z</time>
      </trkpt>
      <trkpt lat="45.09827" lon="4.70264">
        <ele>480.4</ele>
        <time>2026-05-02T09:57:27Z</time>
      </trkpt>
      <trkpt lat="45.09827" lon="4.70269">
        <ele>480.1</ele>
        <time>2026-05-02T09:57:32Z</time>
      </trkpt>
      <trkpt lat="45.09827" lon="4.70271">
        <ele>480</ele>
        <time>2026-05-02T09:57:37Z</time>
      </trkpt>
      <trkpt lat="45.09827" lon="4.70271">
        <ele>480</ele>
        <time>2026-05-02T09:57:42Z</time>
      </trkpt>
      <trkpt lat="45.09827" lon="4.70271">
        <ele>480</ele>
        <time>2026-05-02T09:57:47Z</time>
      </trkpt>
      <trkpt lat="45.09827" lon="4.70271">
        <ele>480</ele>
        <time>2026-05-02T09:57:52Z</time>
      </trkpt>
      <trkpt lat="45.09828" lon="4.70277">
        <ele>479.7</ele>
        <time>2026-05-02T09:57:57Z</time>
      </trkpt>
      <trkpt lat="45.09828" lon="4.70282">
        <ele>479.5</ele>
        <time>2026-05-02T09:58:02Z</time>
      </trkpt>
      <trkpt lat="45.09828" lon="4.70287">
        <ele>479.2</ele>
        <time>2026-05-02T09:58:07Z</time>
      </trkpt>
      <trkpt lat="45.09829" lon="4.70291">
        <ele>479</ele>
        <time>2026-05-02T09:58:12Z</time>
      </trkpt>
      <trkpt lat="45.09829" lon="4.70294">
        <ele>478.9</ele>
        <time>2026-05-02T09:58:17Z</time>
      </trkpt>
      <trkpt lat="45.09829" lon="4.70298">
        <ele>478.7</ele>
        <time>2026-05-02T09:58:22Z</time>
      </trkpt>
      <trkpt lat="45.0983" lon="4.70302">
        <ele>478.5</ele>
        <time>2026-05-02T09:58:27Z</time>
      </trkpt>
      <trkpt lat="45.0983" lon="4.70307">
        <ele>478.2</ele>
        <time>2026-05-02T09:58:32Z</time>
      </trkpt>
      <trkpt lat="45.0983" lon="4.70309">
        <ele>478.2</ele>
        <time>2026-05-02T09:58:37Z</time>
      </trkpt>
      <trkpt lat="45.0983" lon="4.70309">
        <ele>478.2</ele>
        <time>2026-05-02T09:58:42Z</time>
      </trkpt>
      <trkpt lat="45.0983" lon="4.70312">
        <ele>478</ele>
        <time>2026-05-02T09:58:47Z</time>
      </trkpt>
      <trkpt lat="45.09831" lon="4.70318">
        <ele>477.7</ele>
        <time>2026-05-02T09:58:52Z</time>
      </trkpt>
      <trkpt lat="45.09832" lon="4.70324">
        <ele>477.4</ele>
        <time>2026-05-02T09:58:57Z</time>
      </trkpt>
      <trkpt lat="45.09833" lon="4.70327">
        <ele>477.3</ele>
        <time>2026-05-02T09:59:02Z</time>
      </trkpt>
      <trkpt lat="45.09833" lon="4.70328">
        <ele>477.3</ele>
        <time>2026-05-02T09:59:07Z</time>
      </trkpt>
      <trkpt lat="45.09833" lon="4.70328">
        <ele>477.3</ele>
        <time>2026-05-02T09:59:12Z</time>
      </trkpt>
      <trkpt lat="45.09833" lon="4.70337">
        <ele>476.8</ele>
        <time>2026-05-02T09:59:17Z</time>
      </trkpt>
      <trkpt lat="45.09834" lon="4.70344">
        <ele>476.4</ele>
        <time>2026-05-02T09:59:22Z</time>
      </trkpt>
      <trkpt lat="45.09834" lon="4.70351">
        <ele>475.9</ele>
        <time>2026-05-02T09:59:27Z</time>
      </trkpt>
      <trkpt lat="45.09833" lon="4.70357">
        <ele>475.6</ele>
        <time>2026-05-02T09:59:32Z</time>
      </trkpt>
      <trkpt lat="45.09833" lon="4.70357">
        <ele>475.6</ele>
        <time>2026-05-02T09:59:37Z</time>
      </trkpt>
      <trkpt lat="45.09833" lon="4.70357">
        <ele>475.6</ele>
        <time>2026-05-02T09:59:42Z</time>
      </trkpt>
      <trkpt lat="45.09836" lon="4.70356">
        <ele>475.6</ele>
        <time>2026-05-02T09:59:47Z</time>
      </trkpt>
      <trkpt lat="45.09836" lon="4.70356">
        <ele>475.6</ele>
        <time>2026-05-02T09:59:52Z</time>
      </trkpt>
      <trkpt lat="45.09836" lon="4.70356">
        <ele>475.6</ele>
        <time>2026-05-02T09:59:57Z</time>
      </trkpt>
      <trkpt lat="45.09836" lon="4.70356">
        <ele>475.6</ele>
        <time>2026-05-02T10:00:02Z</time>
      </trkpt>
      <trkpt lat="45.09836" lon="4.70356">
        <ele>475.6</ele>
        <time>2026-05-02T10:00:07Z</time>
      </trkpt>
      <trkpt lat="45.09836" lon="4.70356">
        <ele>475.6</ele>
        <time>2026-05-02T10:00:12Z</time>
      </trkpt>
      <trkpt lat="45.09836" lon="4.70356">
        <ele>475.6</ele>
        <time>2026-05-02T10:00:17Z</time>
      </trkpt>
      <trkpt lat="45.09836" lon="4.70356">
        <ele>475.6</ele>
        <time>2026-05-02T10:00:22Z</time>
      </trkpt>
      <trkpt lat="45.09836" lon="4.70356">
        <ele>475.6</ele>
        <time>2026-05-02T10:00:27Z</time>
      </trkpt>
      <trkpt lat="45.09836" lon="4.70356">
        <ele>475.6</ele>
        <time>2026-05-02T10:00:32Z</time>
      </trkpt>
      <trkpt lat="45.09836" lon="4.70356">
        <ele>475.6</ele>
        <time>2026-05-02T10:00:37Z</time>
      </trkpt>
      <trkpt lat="45.09836" lon="4.70356">
        <ele>475.6</ele>
        <time>2026-05-02T10:00:42Z</time>
      </trkpt>
      <trkpt lat="45.09836" lon="4.70356">
        <ele>475.6</ele>
        <time>2026-05-02T10:00:47Z</time>
      </trkpt>
      <trkpt lat="45.09836" lon="4.70356">
        <ele>475.6</ele>
        <time>2026-05-02T10:00:52Z</time>
      </trkpt>
      <trkpt lat="45.09836" lon="4.70356">
        <ele>475.6</ele>
        <time>2026-05-02T10:00:57Z</time>
      </trkpt>
      <trkpt lat="45.09836" lon="4.70356">
        <ele>475.6</ele>
        <time>2026-05-02T10:01:02Z</time>
      </trkpt>
      <trkpt lat="45.09836" lon="4.70356">
        <ele>475.6</ele>
        <time>2026-05-02T10:01:07Z</time>
      </trkpt>
      <trkpt lat="45.09836" lon="4.70356">
        <ele>475.6</ele>
        <time>2026-05-02T10:01:12Z</time>
      </trkpt>
      <trkpt lat="45.09837" lon="4.70358">
        <ele>475.5</ele>
        <time>2026-05-02T10:01:17Z</time>
      </trkpt>
      <trkpt lat="45.09837" lon="4.70369">
        <ele>474.9</ele>
        <time>2026-05-02T10:01:22Z</time>
      </trkpt>
      <trkpt lat="45.09836" lon="4.7037">
        <ele>474.8</ele>
        <time>2026-05-02T10:01:27Z</time>
      </trkpt>
      <trkpt lat="45.09836" lon="4.70372">
        <ele>474.7</ele>
        <time>2026-05-02T10:01:32Z</time>
      </trkpt>
      <trkpt lat="45.0984" lon="4.70379">
        <ele>474.3</ele>
        <time>2026-05-02T10:01:37Z</time>
      </trkpt>
      <trkpt lat="45.09841" lon="4.70388">
        <ele>473.7</ele>
        <time>2026-05-02T10:01:42Z</time>
      </trkpt>
      <trkpt lat="45.09842" lon="4.70398">
        <ele>473.1</ele>
        <time>2026-05-02T10:01:47Z</time>
      </trkpt>
      <trkpt lat="45.09844" lon="4.70409">
        <ele>472.5</ele>
        <time>2026-05-02T10:01:52Z</time>
      </trkpt>
      <trkpt lat="45.09846" lon="4.70418">
        <ele>471.9</ele>
        <time>2026-05-02T10:01:57Z</time>
      </trkpt>
      <trkpt lat="45.09848" lon="4.70428">
        <ele>471.4</ele>
        <time>2026-05-02T10:02:02Z</time>
      </trkpt>
      <trkpt lat="45.09849" lon="4.7044">
        <ele>470.8</ele>
        <time>2026-05-02T10:02:07Z</time>
      </trkpt>
      <trkpt lat="45.09852" lon="4.7045">
        <ele>470.3</ele>
        <time>2026-05-02T10:02:12Z</time>
      </trkpt>
      <trkpt lat="45.09853" lon="4.7046">
        <ele>469.8</ele>
        <time>2026-05-02T10:02:17Z</time>
      </trkpt>
      <trkpt lat="45.09854" lon="4.70462">
        <ele>469.7</ele>
        <time>2026-05-02T10:02:22Z</time>
      </trkpt>
      <trkpt lat="45.09855" lon="4.70472">
        <ele>469.2</ele>
        <time>2026-05-02T10:02:27Z</time>
      </trkpt>
      <trkpt lat="45.09857" lon="4.70482">
        <ele>468.6</ele>
        <time>2026-05-02T10:02:32Z</time>
      </trkpt>
      <trkpt lat="45.09859" lon="4.70492">
        <ele>468.1</ele>
        <time>2026-05-02T10:02:37Z</time>
      </trkpt>
      <trkpt lat="45.09861" lon="4.70501">
        <ele>467.7</ele>
        <time>2026-05-02T10:02:42Z</time>
      </trkpt>
      <trkpt lat="45.09862" lon="4.70512">
        <ele>467.7</ele>
        <time>2026-05-02T10:02:47Z</time>
      </trkpt>
      <trkpt lat="45.09864" lon="4.70524">
        <ele>467.6</ele>
        <time>2026-05-02T10:02:52Z</time>
      </trkpt>
      <trkpt lat="45.09866" lon="4.70534">
        <ele>467.6</ele>
        <time>2026-05-02T10:02:57Z</time>
      </trkpt>
      <trkpt lat="45.09869" lon="4.70545">
        <ele>467.6</ele>
        <time>2026-05-02T10:03:02Z</time>
      </trkpt>
      <trkpt lat="45.09873" lon="4.70555">
        <ele>467.5</ele>
        <time>2026-05-02T10:03:07Z</time>
      </trkpt>
      <trkpt lat="45.09877" lon="4.70565">
        <ele>467.5</ele>
        <time>2026-05-02T10:03:12Z</time>
      </trkpt>
      <trkpt lat="45.09881" lon="4.70575">
        <ele>467.4</ele>
        <time>2026-05-02T10:03:17Z</time>
      </trkpt>
      <trkpt lat="45.09885" lon="4.70585">
        <ele>467.4</ele>
        <time>2026-05-02T10:03:22Z</time>
      </trkpt>
      <trkpt lat="45.09889" lon="4.70593">
        <ele>467.6</ele>
        <time>2026-05-02T10:03:27Z</time>
      </trkpt>
      <trkpt lat="45.09894" lon="4.70603">
        <ele>467.8</ele>
        <time>2026-05-02T10:03:32Z</time>
      </trkpt>
      <trkpt lat="45.09899" lon="4.70612">
        <ele>468</ele>
        <time>2026-05-02T10:03:37Z</time>
      </trkpt>
      <trkpt lat="45.09903" lon="4.70621">
        <ele>468.1</ele>
        <time>2026-05-02T10:03:42Z</time>
      </trkpt>
      <trkpt lat="45.09907" lon="4.70629">
        <ele>468.3</ele>
        <time>2026-05-02T10:03:47Z</time>
      </trkpt>
      <trkpt lat="45.0991" lon="4.70636">
        <ele>468.4</ele>
        <time>2026-05-02T10:03:52Z</time>
      </trkpt>
      <trkpt lat="45.09914" lon="4.70646">
        <ele>468.6</ele>
        <time>2026-05-02T10:03:57Z</time>
      </trkpt>
      <trkpt lat="45.09916" lon="4.70656">
        <ele>468.8</ele>
        <time>2026-05-02T10:04:02Z</time>
      </trkpt>
      <trkpt lat="45.09918" lon="4.70665">
        <ele>468.9</ele>
        <time>2026-05-02T10:04:07Z</time>
      </trkpt>
      <trkpt lat="45.09919" lon="4.70674">
        <ele>468.9</ele>
        <time>2026-05-02T10:04:12Z</time>
      </trkpt>
      <trkpt lat="45.09919" lon="4.70682">
        <ele>468.9</ele>
        <time>2026-05-02T10:04:17Z</time>
      </trkpt>
      <trkpt lat="45.09918" lon="4.70693">
        <ele>468.9</ele>
        <time>2026-05-02T10:04:22Z</time>
      </trkpt>
      <trkpt lat="45.09918" lon="4.70701">
        <ele>468.9</ele>
        <time>2026-05-02T10:04:27Z</time>
      </trkpt>
      <trkpt lat="45.09916" lon="4.70711">
        <ele>469</ele>
        <time>2026-05-02T10:04:32Z</time>
      </trkpt>
      <trkpt lat="45.09914" lon="4.7072">
        <ele>469.1</ele>
        <time>2026-05-02T10:04:37Z</time>
      </trkpt>
      <trkpt lat="45.09912" lon="4.70732">
        <ele>469.2</ele>
        <time>2026-05-02T10:04:42Z</time>
      </trkpt>
      <trkpt lat="45.0991" lon="4.70743">
        <ele>469.2</ele>
        <time>2026-05-02T10:04:47Z</time>
      </trkpt>
      <trkpt lat="45.09908" lon="4.70755">
        <ele>469.5</ele>
        <time>2026-05-02T10:04:52Z</time>
      </trkpt>
      <trkpt lat="45.09908" lon="4.70762">
        <ele>469.8</ele>
        <time>2026-05-02T10:04:57Z</time>
      </trkpt>
      <trkpt lat="45.09907" lon="4.70766">
        <ele>470</ele>
        <time>2026-05-02T10:05:02Z</time>
      </trkpt>
      <trkpt lat="45.09907" lon="4.70775">
        <ele>470.4</ele>
        <time>2026-05-02T10:05:07Z</time>
      </trkpt>
      <trkpt lat="45.09906" lon="4.70785">
        <ele>470.9</ele>
        <time>2026-05-02T10:05:12Z</time>
      </trkpt>
      <trkpt lat="45.09906" lon="4.70792">
        <ele>471.2</ele>
        <time>2026-05-02T10:05:17Z</time>
      </trkpt>
      <trkpt lat="45.09905" lon="4.70801">
        <ele>471.6</ele>
        <time>2026-05-02T10:05:22Z</time>
      </trkpt>
      <trkpt lat="45.09902" lon="4.70811">
        <ele>472.2</ele>
        <time>2026-05-02T10:05:27Z</time>
      </trkpt>
      <trkpt lat="45.09899" lon="4.70821">
        <ele>472.9</ele>
        <time>2026-05-02T10:05:32Z</time>
      </trkpt>
      <trkpt lat="45.09896" lon="4.7083">
        <ele>473.6</ele>
        <time>2026-05-02T10:05:37Z</time>
      </trkpt>
      <trkpt lat="45.09894" lon="4.70841">
        <ele>473.4</ele>
        <time>2026-05-02T10:05:42Z</time>
      </trkpt>
      <trkpt lat="45.09892" lon="4.7085">
        <ele>473</ele>
        <time>2026-05-02T10:05:47Z</time>
      </trkpt>
      <trkpt lat="45.0989" lon="4.70861">
        <ele>472.6</ele>
        <time>2026-05-02T10:05:52Z</time>
      </trkpt>
      <trkpt lat="45.09889" lon="4.70869">
        <ele>472.2</ele>
        <time>2026-05-02T10:05:57Z</time>
      </trkpt>
      <trkpt lat="45.09888" lon="4.70875">
        <ele>471.9</ele>
        <time>2026-05-02T10:06:02Z</time>
      </trkpt>
      <trkpt lat="45.09889" lon="4.70877">
        <ele>471.7</ele>
        <time>2026-05-02T10:06:07Z</time>
      </trkpt>
      <trkpt lat="45.0989" lon="4.70877">
        <ele>471.6</ele>
        <time>2026-05-02T10:06:12Z</time>
      </trkpt>
      <trkpt lat="45.0989" lon="4.70877">
        <ele>471.6</ele>
        <time>2026-05-02T10:06:17Z</time>
      </trkpt>
      <trkpt lat="45.09891" lon="4.70882">
        <ele>471.1</ele>
        <time>2026-05-02T10:06:22Z</time>
      </trkpt>
      <trkpt lat="45.0989" lon="4.70885">
        <ele>471.1</ele>
        <time>2026-05-02T10:06:27Z</time>
      </trkpt>
      <trkpt lat="45.0989" lon="4.70885">
        <ele>471.1</ele>
        <time>2026-05-02T10:06:32Z</time>
      </trkpt>
      <trkpt lat="45.0989" lon="4.70885">
        <ele>471.1</ele>
        <time>2026-05-02T10:06:37Z</time>
      </trkpt>
      <trkpt lat="45.0989" lon="4.70885">
        <ele>471.1</ele>
        <time>2026-05-02T10:06:42Z</time>
      </trkpt>
      <trkpt lat="45.0989" lon="4.70885">
        <ele>471.1</ele>
        <time>2026-05-02T10:06:47Z</time>
      </trkpt>
      <trkpt lat="45.0989" lon="4.70885">
        <ele>471.1</ele>
        <time>2026-05-02T10:06:52Z</time>
      </trkpt>
      <trkpt lat="45.0989" lon="4.70885">
        <ele>471.1</ele>
        <time>2026-05-02T10:06:57Z</time>
      </trkpt>
      <trkpt lat="45.0989" lon="4.70885">
        <ele>471.1</ele>
        <time>2026-05-02T10:07:02Z</time>
      </trkpt>
      <trkpt lat="45.0989" lon="4.70885">
        <ele>471.1</ele>
        <time>2026-05-02T10:07:07Z</time>
      </trkpt>
      <trkpt lat="45.0989" lon="4.70891">
        <ele>470.7</ele>
        <time>2026-05-02T10:07:12Z</time>
      </trkpt>
      <trkpt lat="45.09889" lon="4.70898">
        <ele>470.4</ele>
        <time>2026-05-02T10:07:17Z</time>
      </trkpt>
      <trkpt lat="45.0989" lon="4.70912">
        <ele>469.4</ele>
        <time>2026-05-02T10:07:22Z</time>
      </trkpt>
      <trkpt lat="45.09889" lon="4.70926">
        <ele>468.3</ele>
        <time>2026-05-02T10:07:27Z</time>
      </trkpt>
      <trkpt lat="45.09887" lon="4.70939">
        <ele>467.3</ele>
        <time>2026-05-02T10:07:32Z</time>
      </trkpt>
      <trkpt lat="45.0989" lon="4.70944">
        <ele>466.3</ele>
        <time>2026-05-02T10:07:37Z</time>
      </trkpt>
      <trkpt lat="45.0989" lon="4.70949">
        <ele>465.8</ele>
        <time>2026-05-02T10:07:42Z</time>
      </trkpt>
      <trkpt lat="45.09891" lon="4.70954">
        <ele>465.1</ele>
        <time>2026-05-02T10:07:47Z</time>
      </trkpt>
      <trkpt lat="45.09892" lon="4.7096">
        <ele>464.4</ele>
        <time>2026-05-02T10:07:52Z</time>
      </trkpt>
      <trkpt lat="45.09891" lon="4.70962">
        <ele>464.3</ele>
        <time>2026-05-02T10:07:57Z</time>
      </trkpt>
      <trkpt lat="45.09891" lon="4.70962">
        <ele>464.3</ele>
        <time>2026-05-02T10:08:02Z</time>
      </trkpt>
      <trkpt lat="45.09891" lon="4.70962">
        <ele>464.3</ele>
        <time>2026-05-02T10:08:07Z</time>
      </trkpt>
      <trkpt lat="45.09886" lon="4.70968">
        <ele>464.4</ele>
        <time>2026-05-02T10:08:12Z</time>
      </trkpt>
      <trkpt lat="45.09885" lon="4.70977">
        <ele>463.6</ele>
        <time>2026-05-02T10:08:17Z</time>
      </trkpt>
      <trkpt lat="45.09885" lon="4.70985">
        <ele>462.8</ele>
        <time>2026-05-02T10:08:22Z</time>
      </trkpt>
      <trkpt lat="45.09887" lon="4.70992">
        <ele>461.8</ele>
        <time>2026-05-02T10:08:27Z</time>
      </trkpt>
      <trkpt lat="45.0989" lon="4.70998">
        <ele>460.7</ele>
        <time>2026-05-02T10:08:32Z</time>
      </trkpt>
      <trkpt lat="45.09892" lon="4.71003">
        <ele>459.9</ele>
        <time>2026-05-02T10:08:37Z</time>
      </trkpt>
      <trkpt lat="45.09895" lon="4.71009">
        <ele>458.9</ele>
        <time>2026-05-02T10:08:42Z</time>
      </trkpt>
      <trkpt lat="45.09898" lon="4.71015">
        <ele>457.9</ele>
        <time>2026-05-02T10:08:47Z</time>
      </trkpt>
      <trkpt lat="45.099" lon="4.71022">
        <ele>457</ele>
        <time>2026-05-02T10:08:52Z</time>
      </trkpt>
      <trkpt lat="45.09903" lon="4.71029">
        <ele>455.9</ele>
        <time>2026-05-02T10:08:57Z</time>
      </trkpt>
      <trkpt lat="45.09905" lon="4.71037">
        <ele>454.9</ele>
        <time>2026-05-02T10:09:02Z</time>
      </trkpt>
      <trkpt lat="45.09908" lon="4.71044">
        <ele>453.8</ele>
        <time>2026-05-02T10:09:07Z</time>
      </trkpt>
      <trkpt lat="45.09912" lon="4.71049">
        <ele>452.8</ele>
        <time>2026-05-02T10:09:12Z</time>
      </trkpt>
      <trkpt lat="45.09917" lon="4.71055">
        <ele>451.7</ele>
        <time>2026-05-02T10:09:17Z</time>
      </trkpt>
      <trkpt lat="45.09921" lon="4.71058">
        <ele>451.6</ele>
        <time>2026-05-02T10:09:22Z</time>
      </trkpt>
      <trkpt lat="45.09926" lon="4.71056">
        <ele>451.9</ele>
        <time>2026-05-02T10:09:27Z</time>
      </trkpt>
      <trkpt lat="45.09929" lon="4.71052">
        <ele>452.3</ele>
        <time>2026-05-02T10:09:32Z</time>
      </trkpt>
      <trkpt lat="45.09934" lon="4.71048">
        <ele>452.7</ele>
        <time>2026-05-02T10:09:37Z</time>
      </trkpt>
      <trkpt lat="45.09938" lon="4.71044">
        <ele>453</ele>
        <time>2026-05-02T10:09:42Z</time>
      </trkpt>
      <trkpt lat="45.09942" lon="4.71039">
        <ele>453.3</ele>
        <time>2026-05-02T10:09:47Z</time>
      </trkpt>
      <trkpt lat="45.09947" lon="4.71034">
        <ele>453.5</ele>
        <time>2026-05-02T10:09:52Z</time>
      </trkpt>
      <trkpt lat="45.09952" lon="4.71032">
        <ele>453.6</ele>
        <time>2026-05-02T10:09:57Z</time>
      </trkpt>
      <trkpt lat="45.09957" lon="4.71031">
        <ele>453.6</ele>
        <time>2026-05-02T10:10:02Z</time>
      </trkpt>
      <trkpt lat="45.09961" lon="4.71033">
        <ele>453.5</ele>
        <time>2026-05-02T10:10:07Z</time>
      </trkpt>
      <trkpt lat="45.09965" lon="4.71036">
        <ele>453.4</ele>
        <time>2026-05-02T10:10:12Z</time>
      </trkpt>
      <trkpt lat="45.0997" lon="4.7104">
        <ele>453.3</ele>
        <time>2026-05-02T10:10:17Z</time>
      </trkpt>
      <trkpt lat="45.09975" lon="4.71045">
        <ele>453.3</ele>
        <time>2026-05-02T10:10:22Z</time>
      </trkpt>
      <trkpt lat="45.0998" lon="4.71048">
        <ele>453.4</ele>
        <time>2026-05-02T10:10:27Z</time>
      </trkpt>
      <trkpt lat="45.09986" lon="4.7105">
        <ele>453.5</ele>
        <time>2026-05-02T10:10:32Z</time>
      </trkpt>
      <trkpt lat="45.09992" lon="4.71051">
        <ele>453.7</ele>
        <time>2026-05-02T10:10:37Z</time>
      </trkpt>
      <trkpt lat="45.09997" lon="4.71052">
        <ele>453.8</ele>
        <time>2026-05-02T10:10:42Z</time>
      </trkpt>
      <trkpt lat="45.10003" lon="4.71051">
        <ele>454.1</ele>
        <time>2026-05-02T10:10:47Z</time>
      </trkpt>
      <trkpt lat="45.10005" lon="4.7105">
        <ele>454.2</ele>
        <time>2026-05-02T10:10:52Z</time>
      </trkpt>
      <trkpt lat="45.10005" lon="4.71051">
        <ele>454.2</ele>
        <time>2026-05-02T10:10:57Z</time>
      </trkpt>
      <trkpt lat="45.10005" lon="4.71051">
        <ele>454.2</ele>
        <time>2026-05-02T10:11:02Z</time>
      </trkpt>
      <trkpt lat="45.10005" lon="4.71051">
        <ele>454.2</ele>
        <time>2026-05-02T10:11:07Z</time>
      </trkpt>
      <trkpt lat="45.10005" lon="4.71051">
        <ele>454.2</ele>
        <time>2026-05-02T10:11:12Z</time>
      </trkpt>
      <trkpt lat="45.10005" lon="4.71051">
        <ele>454.2</ele>
        <time>2026-05-02T10:11:17Z</time>
      </trkpt>
      <trkpt lat="45.10005" lon="4.71051">
        <ele>454.2</ele>
        <time>2026-05-02T10:11:22Z</time>
      </trkpt>
      <trkpt lat="45.10005" lon="4.71051">
        <ele>454.2</ele>
        <time>2026-05-02T10:11:27Z</time>
      </trkpt>
      <trkpt lat="45.10005" lon="4.71051">
        <ele>454.2</ele>
        <time>2026-05-02T10:11:32Z</time>
      </trkpt>
      <trkpt lat="45.10008" lon="4.71057">
        <ele>454.7</ele>
        <time>2026-05-02T10:11:37Z</time>
      </trkpt>
      <trkpt lat="45.10009" lon="4.71065">
        <ele>455.1</ele>
        <time>2026-05-02T10:11:42Z</time>
      </trkpt>
      <trkpt lat="45.10012" lon="4.71071">
        <ele>455.6</ele>
        <time>2026-05-02T10:11:47Z</time>
      </trkpt>
      <trkpt lat="45.10017" lon="4.71076">
        <ele>456.3</ele>
        <time>2026-05-02T10:11:52Z</time>
      </trkpt>
      <trkpt lat="45.10021" lon="4.71082">
        <ele>457</ele>
        <time>2026-05-02T10:11:57Z</time>
      </trkpt>
      <trkpt lat="45.10024" lon="4.71087">
        <ele>457.8</ele>
        <time>2026-05-02T10:12:02Z</time>
      </trkpt>
      <trkpt lat="45.10028" lon="4.71094">
        <ele>459.2</ele>
        <time>2026-05-02T10:12:07Z</time>
      </trkpt>
      <trkpt lat="45.10032" lon="4.71103">
        <ele>461</ele>
        <time>2026-05-02T10:12:12Z</time>
      </trkpt>
      <trkpt lat="45.10034" lon="4.71109">
        <ele>462.1</ele>
        <time>2026-05-02T10:12:17Z</time>
      </trkpt>
      <trkpt lat="45.10036" lon="4.71117">
        <ele>463.5</ele>
        <time>2026-05-02T10:12:22Z</time>
      </trkpt>
      <trkpt lat="45.10037" lon="4.71125">
        <ele>464.9</ele>
        <time>2026-05-02T10:12:27Z</time>
      </trkpt>
      <trkpt lat="45.10038" lon="4.71133">
        <ele>466.2</ele>
        <time>2026-05-02T10:12:32Z</time>
      </trkpt>
      <trkpt lat="45.10037" lon="4.71142">
        <ele>467.5</ele>
        <time>2026-05-02T10:12:37Z</time>
      </trkpt>
      <trkpt lat="45.10035" lon="4.71149">
        <ele>468.2</ele>
        <time>2026-05-02T10:12:42Z</time>
      </trkpt>
      <trkpt lat="45.10032" lon="4.71156">
        <ele>468.8</ele>
        <time>2026-05-02T10:12:47Z</time>
      </trkpt>
      <trkpt lat="45.10029" lon="4.71161">
        <ele>469.1</ele>
        <time>2026-05-02T10:12:52Z</time>
      </trkpt>
      <trkpt lat="45.10025" lon="4.71166">
        <ele>469.1</ele>
        <time>2026-05-02T10:12:57Z</time>
      </trkpt>
      <trkpt lat="45.10022" lon="4.71171">
        <ele>469.4</ele>
        <time>2026-05-02T10:13:02Z</time>
      </trkpt>
      <trkpt lat="45.10018" lon="4.71177">
        <ele>469.7</ele>
        <time>2026-05-02T10:13:07Z</time>
      </trkpt>
      <trkpt lat="45.10015" lon="4.71183">
        <ele>470.1</ele>
        <time>2026-05-02T10:13:12Z</time>
      </trkpt>
      <trkpt lat="45.10013" lon="4.71186">
        <ele>470.3</ele>
        <time>2026-05-02T10:13:17Z</time>
      </trkpt>
      <trkpt lat="45.10009" lon="4.7119">
        <ele>470.2</ele>
        <time>2026-05-02T10:13:22Z</time>
      </trkpt>
      <trkpt lat="45.10003" lon="4.71194">
        <ele>469.8</ele>
        <time>2026-05-02T10:13:27Z</time>
      </trkpt>
      <trkpt lat="45.09998" lon="4.71196">
        <ele>469.1</ele>
        <time>2026-05-02T10:13:32Z</time>
      </trkpt>
      <trkpt lat="45.09993" lon="4.71203">
        <ele>469.1</ele>
        <time>2026-05-02T10:13:37Z</time>
      </trkpt>
      <trkpt lat="45.09989" lon="4.71207">
        <ele>468.7</ele>
        <time>2026-05-02T10:13:42Z</time>
      </trkpt>
      <trkpt lat="45.09985" lon="4.71212">
        <ele>468.5</ele>
        <time>2026-05-02T10:13:47Z</time>
      </trkpt>
      <trkpt lat="45.09981" lon="4.71214">
        <ele>467.8</ele>
        <time>2026-05-02T10:13:52Z</time>
      </trkpt>
      <trkpt lat="45.09978" lon="4.71217">
        <ele>467.5</ele>
        <time>2026-05-02T10:13:57Z</time>
      </trkpt>
      <trkpt lat="45.09974" lon="4.71221">
        <ele>467</ele>
        <time>2026-05-02T10:14:02Z</time>
      </trkpt>
      <trkpt lat="45.0997" lon="4.71227">
        <ele>466.7</ele>
        <time>2026-05-02T10:14:07Z</time>
      </trkpt>
      <trkpt lat="45.09967" lon="4.71233">
        <ele>466.6</ele>
        <time>2026-05-02T10:14:12Z</time>
      </trkpt>
      <trkpt lat="45.09964" lon="4.71237">
        <ele>466.2</ele>
        <time>2026-05-02T10:14:17Z</time>
      </trkpt>
      <trkpt lat="45.0996" lon="4.71243">
        <ele>465.8</ele>
        <time>2026-05-02T10:14:22Z</time>
      </trkpt>
      <trkpt lat="45.09958" lon="4.71248">
        <ele>465.7</ele>
        <time>2026-05-02T10:14:27Z</time>
      </trkpt>
      <trkpt lat="45.09955" lon="4.71254">
        <ele>465.2</ele>
        <time>2026-05-02T10:14:32Z</time>
      </trkpt>
      <trkpt lat="45.09952" lon="4.71261">
        <ele>464.7</ele>
        <time>2026-05-02T10:14:37Z</time>
      </trkpt>
      <trkpt lat="45.09951" lon="4.71266">
        <ele>464.6</ele>
        <time>2026-05-02T10:14:42Z</time>
      </trkpt>
      <trkpt lat="45.0995" lon="4.71272">
        <ele>464.6</ele>
        <time>2026-05-02T10:14:47Z</time>
      </trkpt>
      <trkpt lat="45.0995" lon="4.71281">
        <ele>464.9</ele>
        <time>2026-05-02T10:14:52Z</time>
      </trkpt>
      <trkpt lat="45.0995" lon="4.71289">
        <ele>465.3</ele>
        <time>2026-05-02T10:14:57Z</time>
      </trkpt>
      <trkpt lat="45.09949" lon="4.71296">
        <ele>465.3</ele>
        <time>2026-05-02T10:15:02Z</time>
      </trkpt>
      <trkpt lat="45.09948" lon="4.71304">
        <ele>465.3</ele>
        <time>2026-05-02T10:15:07Z</time>
      </trkpt>
      <trkpt lat="45.09946" lon="4.7131">
        <ele>464.9</ele>
        <time>2026-05-02T10:15:12Z</time>
      </trkpt>
      <trkpt lat="45.09943" lon="4.71317">
        <ele>464.2</ele>
        <time>2026-05-02T10:15:17Z</time>
      </trkpt>
      <trkpt lat="45.09941" lon="4.71325">
        <ele>463.9</ele>
        <time>2026-05-02T10:15:22Z</time>
      </trkpt>
      <trkpt lat="45.09939" lon="4.71333">
        <ele>463.5</ele>
        <time>2026-05-02T10:15:27Z</time>
      </trkpt>
      <trkpt lat="45.09937" lon="4.71339">
        <ele>463</ele>
        <time>2026-05-02T10:15:32Z</time>
      </trkpt>
      <trkpt lat="45.09934" lon="4.71346">
        <ele>462.2</ele>
        <time>2026-05-02T10:15:37Z</time>
      </trkpt>
      <trkpt lat="45.09932" lon="4.71356">
        <ele>461.9</ele>
        <time>2026-05-02T10:15:42Z</time>
      </trkpt>
      <trkpt lat="45.09931" lon="4.71365">
        <ele>461.8</ele>
        <time>2026-05-02T10:15:47Z</time>
      </trkpt>
      <trkpt lat="45.09931" lon="4.71367">
        <ele>461.9</ele>
        <time>2026-05-02T10:15:52Z</time>
      </trkpt>
      <trkpt lat="45.09931" lon="4.71367">
        <ele>461.9</ele>
        <time>2026-05-02T10:15:57Z</time>
      </trkpt>
      <trkpt lat="45.09931" lon="4.71367">
        <ele>461.9</ele>
        <time>2026-05-02T10:16:02Z</time>
      </trkpt>
      <trkpt lat="45.09931" lon="4.71367">
        <ele>461.9</ele>
        <time>2026-05-02T10:16:07Z</time>
      </trkpt>
      <trkpt lat="45.09931" lon="4.71367">
        <ele>461.9</ele>
        <time>2026-05-02T10:16:12Z</time>
      </trkpt>
      <trkpt lat="45.09931" lon="4.71367">
        <ele>461.9</ele>
        <time>2026-05-02T10:16:17Z</time>
      </trkpt>
      <trkpt lat="45.09931" lon="4.71367">
        <ele>461.9</ele>
        <time>2026-05-02T10:16:22Z</time>
      </trkpt>
      <trkpt lat="45.09931" lon="4.71367">
        <ele>461.9</ele>
        <time>2026-05-02T10:16:27Z</time>
      </trkpt>
      <trkpt lat="45.09931" lon="4.71367">
        <ele>461.9</ele>
        <time>2026-05-02T10:16:32Z</time>
      </trkpt>
      <trkpt lat="45.09931" lon="4.71367">
        <ele>461.9</ele>
        <time>2026-05-02T10:16:37Z</time>
      </trkpt>
      <trkpt lat="45.09928" lon="4.71378">
        <ele>461.3</ele>
        <time>2026-05-02T10:16:42Z</time>
      </trkpt>
      <trkpt lat="45.09927" lon="4.71384">
        <ele>461.1</ele>
        <time>2026-05-02T10:16:47Z</time>
      </trkpt>
      <trkpt lat="45.09926" lon="4.71386">
        <ele>460.9</ele>
        <time>2026-05-02T10:16:52Z</time>
      </trkpt>
      <trkpt lat="45.09926" lon="4.71386">
        <ele>460.9</ele>
        <time>2026-05-02T10:16:57Z</time>
      </trkpt>
      <trkpt lat="45.09926" lon="4.71386">
        <ele>460.9</ele>
        <time>2026-05-02T10:17:02Z</time>
      </trkpt>
      <trkpt lat="45.09925" lon="4.71391">
        <ele>460.7</ele>
        <time>2026-05-02T10:17:07Z</time>
      </trkpt>
      <trkpt lat="45.09925" lon="4.71391">
        <ele>460.7</ele>
        <time>2026-05-02T10:17:12Z</time>
      </trkpt>
      <trkpt lat="45.09925" lon="4.71391">
        <ele>460.7</ele>
        <time>2026-05-02T10:17:17Z</time>
      </trkpt>
      <trkpt lat="45.09925" lon="4.71391">
        <ele>460.7</ele>
        <time>2026-05-02T10:17:22Z</time>
      </trkpt>
      <trkpt lat="45.09925" lon="4.71395">
        <ele>460.9</ele>
        <time>2026-05-02T10:17:27Z</time>
      </trkpt>
      <trkpt lat="45.09925" lon="4.71395">
        <ele>460.9</ele>
        <time>2026-05-02T10:17:27Z</time>
      </trkpt>
      <trkpt lat="45.09925" lon="4.71397">
        <ele>460.9</ele>
        <time>2026-05-02T10:17:32Z</time>
      </trkpt>
      <trkpt lat="45.09922" lon="4.71397">
        <ele>460</ele>
        <time>2026-05-02T10:17:38Z</time>
      </trkpt>
      <trkpt lat="45.09922" lon="4.71398">
        <ele>460</ele>
        <time>2026-05-02T10:17:43Z</time>
      </trkpt>
      <trkpt lat="45.09921" lon="4.71401">
        <ele>459.8</ele>
        <time>2026-05-02T10:17:48Z</time>
      </trkpt>
      <trkpt lat="45.0992" lon="4.71408">
        <ele>459.7</ele>
        <time>2026-05-02T10:17:53Z</time>
      </trkpt>
      <trkpt lat="45.09919" lon="4.71418">
        <ele>459.7</ele>
        <time>2026-05-02T10:17:58Z</time>
      </trkpt>
      <trkpt lat="45.09916" lon="4.7143">
        <ele>458.4</ele>
        <time>2026-05-02T10:18:03Z</time>
      </trkpt>
      <trkpt lat="45.09916" lon="4.71442">
        <ele>458</ele>
        <time>2026-05-02T10:18:08Z</time>
      </trkpt>
      <trkpt lat="45.09918" lon="4.71451">
        <ele>458.2</ele>
        <time>2026-05-02T10:18:13Z</time>
      </trkpt>
      <trkpt lat="45.09923" lon="4.71459">
        <ele>459.5</ele>
        <time>2026-05-02T10:18:18Z</time>
      </trkpt>
      <trkpt lat="45.09926" lon="4.71467">
        <ele>460.1</ele>
        <time>2026-05-02T10:18:23Z</time>
      </trkpt>
      <trkpt lat="45.0993" lon="4.71476">
        <ele>461</ele>
        <time>2026-05-02T10:18:28Z</time>
      </trkpt>
      <trkpt lat="45.09934" lon="4.71484">
        <ele>462</ele>
        <time>2026-05-02T10:18:33Z</time>
      </trkpt>
      <trkpt lat="45.09937" lon="4.71492">
        <ele>462.6</ele>
        <time>2026-05-02T10:18:38Z</time>
      </trkpt>
      <trkpt lat="45.09938" lon="4.71502">
        <ele>462.6</ele>
        <time>2026-05-02T10:18:43Z</time>
      </trkpt>
      <trkpt lat="45.0994" lon="4.71512">
        <ele>463.2</ele>
        <time>2026-05-02T10:18:48Z</time>
      </trkpt>
      <trkpt lat="45.09941" lon="4.71522">
        <ele>463.4</ele>
        <time>2026-05-02T10:18:53Z</time>
      </trkpt>
      <trkpt lat="45.09942" lon="4.7153">
        <ele>463.7</ele>
        <time>2026-05-02T10:18:58Z</time>
      </trkpt>
      <trkpt lat="45.09943" lon="4.71539">
        <ele>463.9</ele>
        <time>2026-05-02T10:19:03Z</time>
      </trkpt>
      <trkpt lat="45.09944" lon="4.71547">
        <ele>464.1</ele>
        <time>2026-05-02T10:19:08Z</time>
      </trkpt>
      <trkpt lat="45.09944" lon="4.71555">
        <ele>464.1</ele>
        <time>2026-05-02T10:19:13Z</time>
      </trkpt>
      <trkpt lat="45.09944" lon="4.71562">
        <ele>464</ele>
        <time>2026-05-02T10:19:18Z</time>
      </trkpt>
      <trkpt lat="45.09944" lon="4.71571">
        <ele>464</ele>
        <time>2026-05-02T10:19:23Z</time>
      </trkpt>
      <trkpt lat="45.09943" lon="4.71579">
        <ele>463.6</ele>
        <time>2026-05-02T10:19:28Z</time>
      </trkpt>
      <trkpt lat="45.09944" lon="4.71587">
        <ele>464.2</ele>
        <time>2026-05-02T10:19:33Z</time>
      </trkpt>
      <trkpt lat="45.09944" lon="4.71594">
        <ele>464.8</ele>
        <time>2026-05-02T10:19:38Z</time>
      </trkpt>
      <trkpt lat="45.09946" lon="4.71602">
        <ele>466.1</ele>
        <time>2026-05-02T10:19:43Z</time>
      </trkpt>
      <trkpt lat="45.09948" lon="4.71611">
        <ele>467.5</ele>
        <time>2026-05-02T10:19:48Z</time>
      </trkpt>
      <trkpt lat="45.09949" lon="4.71619">
        <ele>468.5</ele>
        <time>2026-05-02T10:19:53Z</time>
      </trkpt>
      <trkpt lat="45.09952" lon="4.71627">
        <ele>470.1</ele>
        <time>2026-05-02T10:19:58Z</time>
      </trkpt>
      <trkpt lat="45.09954" lon="4.71634">
        <ele>471.2</ele>
        <time>2026-05-02T10:20:03Z</time>
      </trkpt>
      <trkpt lat="45.09956" lon="4.71641">
        <ele>472.3</ele>
        <time>2026-05-02T10:20:08Z</time>
      </trkpt>
      <trkpt lat="45.09957" lon="4.71648">
        <ele>473.2</ele>
        <time>2026-05-02T10:20:13Z</time>
      </trkpt>
      <trkpt lat="45.09959" lon="4.71656">
        <ele>474.3</ele>
        <time>2026-05-02T10:20:18Z</time>
      </trkpt>
      <trkpt lat="45.09961" lon="4.71664">
        <ele>475.5</ele>
        <time>2026-05-02T10:20:23Z</time>
      </trkpt>
      <trkpt lat="45.09963" lon="4.71673">
        <ele>477.1</ele>
        <time>2026-05-02T10:20:28Z</time>
      </trkpt>
      <trkpt lat="45.09965" lon="4.71681">
        <ele>478.8</ele>
        <time>2026-05-02T10:20:33Z</time>
      </trkpt>
      <trkpt lat="45.09965" lon="4.7169">
        <ele>480</ele>
        <time>2026-05-02T10:20:38Z</time>
      </trkpt>
      <trkpt lat="45.09967" lon="4.71698">
        <ele>481.6</ele>
        <time>2026-05-02T10:20:43Z</time>
      </trkpt>
      <trkpt lat="45.09967" lon="4.71708">
        <ele>483</ele>
        <time>2026-05-02T10:20:48Z</time>
      </trkpt>
      <trkpt lat="45.09969" lon="4.71718">
        <ele>484.9</ele>
        <time>2026-05-02T10:20:53Z</time>
      </trkpt>
      <trkpt lat="45.09971" lon="4.71726">
        <ele>486.5</ele>
        <time>2026-05-02T10:20:58Z</time>
      </trkpt>
      <trkpt lat="45.09973" lon="4.71736">
        <ele>488.3</ele>
        <time>2026-05-02T10:21:03Z</time>
      </trkpt>
      <trkpt lat="45.09975" lon="4.71743">
        <ele>489.7</ele>
        <time>2026-05-02T10:21:08Z</time>
      </trkpt>
      <trkpt lat="45.09977" lon="4.71751">
        <ele>491.1</ele>
        <time>2026-05-02T10:21:13Z</time>
      </trkpt>
      <trkpt lat="45.09978" lon="4.71759">
        <ele>492.1</ele>
        <time>2026-05-02T10:21:18Z</time>
      </trkpt>
      <trkpt lat="45.09981" lon="4.71767">
        <ele>493.6</ele>
        <time>2026-05-02T10:21:23Z</time>
      </trkpt>
      <trkpt lat="45.09982" lon="4.71775">
        <ele>494.6</ele>
        <time>2026-05-02T10:21:28Z</time>
      </trkpt>
      <trkpt lat="45.09983" lon="4.71784">
        <ele>495.7</ele>
        <time>2026-05-02T10:21:33Z</time>
      </trkpt>
      <trkpt lat="45.09985" lon="4.71791">
        <ele>496.8</ele>
        <time>2026-05-02T10:21:38Z</time>
      </trkpt>
      <trkpt lat="45.09986" lon="4.71799">
        <ele>497.8</ele>
        <time>2026-05-02T10:21:43Z</time>
      </trkpt>
      <trkpt lat="45.09987" lon="4.71806">
        <ele>498.7</ele>
        <time>2026-05-02T10:21:48Z</time>
      </trkpt>
      <trkpt lat="45.09987" lon="4.71814">
        <ele>499.5</ele>
        <time>2026-05-02T10:21:53Z</time>
      </trkpt>
      <trkpt lat="45.09988" lon="4.71822">
        <ele>500.4</ele>
        <time>2026-05-02T10:21:58Z</time>
      </trkpt>
      <trkpt lat="45.0999" lon="4.71829">
        <ele>501.5</ele>
        <time>2026-05-02T10:22:03Z</time>
      </trkpt>
      <trkpt lat="45.09991" lon="4.71836">
        <ele>502.2</ele>
        <time>2026-05-02T10:22:08Z</time>
      </trkpt>
      <trkpt lat="45.09991" lon="4.71843">
        <ele>502.5</ele>
        <time>2026-05-02T10:22:13Z</time>
      </trkpt>
      <trkpt lat="45.09993" lon="4.71849">
        <ele>503</ele>
        <time>2026-05-02T10:22:18Z</time>
      </trkpt>
      <trkpt lat="45.09996" lon="4.71856">
        <ele>503.8</ele>
        <time>2026-05-02T10:22:23Z</time>
      </trkpt>
      <trkpt lat="45.09999" lon="4.71861">
        <ele>504.5</ele>
        <time>2026-05-02T10:22:28Z</time>
      </trkpt>
      <trkpt lat="45.10001" lon="4.71868">
        <ele>504.9</ele>
        <time>2026-05-02T10:22:33Z</time>
      </trkpt>
      <trkpt lat="45.10003" lon="4.71875">
        <ele>505.2</ele>
        <time>2026-05-02T10:22:38Z</time>
      </trkpt>
      <trkpt lat="45.10004" lon="4.71879">
        <ele>505.3</ele>
        <time>2026-05-02T10:22:43Z</time>
      </trkpt>
      <trkpt lat="45.10004" lon="4.71886">
        <ele>505.5</ele>
        <time>2026-05-02T10:22:48Z</time>
      </trkpt>
      <trkpt lat="45.10005" lon="4.71895">
        <ele>505.8</ele>
        <time>2026-05-02T10:22:53Z</time>
      </trkpt>
      <trkpt lat="45.10006" lon="4.719">
        <ele>505.9</ele>
        <time>2026-05-02T10:22:58Z</time>
      </trkpt>
      <trkpt lat="45.10007" lon="4.71908">
        <ele>506.2</ele>
        <time>2026-05-02T10:23:03Z</time>
      </trkpt>
      <trkpt lat="45.10008" lon="4.71917">
        <ele>506.5</ele>
        <time>2026-05-02T10:23:08Z</time>
      </trkpt>
      <trkpt lat="45.10008" lon="4.71925">
        <ele>506.4</ele>
        <time>2026-05-02T10:23:13Z</time>
      </trkpt>
      <trkpt lat="45.10009" lon="4.71933">
        <ele>506.3</ele>
        <time>2026-05-02T10:23:18Z</time>
      </trkpt>
      <trkpt lat="45.10009" lon="4.7194">
        <ele>506.2</ele>
        <time>2026-05-02T10:23:23Z</time>
      </trkpt>
      <trkpt lat="45.10008" lon="4.71945">
        <ele>506.1</ele>
        <time>2026-05-02T10:23:28Z</time>
      </trkpt>
      <trkpt lat="45.10008" lon="4.71948">
        <ele>506.1</ele>
        <time>2026-05-02T10:23:33Z</time>
      </trkpt>
      <trkpt lat="45.10008" lon="4.71948">
        <ele>506.1</ele>
        <time>2026-05-02T10:23:38Z</time>
      </trkpt>
      <trkpt lat="45.10008" lon="4.71948">
        <ele>506.1</ele>
        <time>2026-05-02T10:23:43Z</time>
      </trkpt>
      <trkpt lat="45.10008" lon="4.71948">
        <ele>506.1</ele>
        <time>2026-05-02T10:23:48Z</time>
      </trkpt>
      <trkpt lat="45.10008" lon="4.71948">
        <ele>506.1</ele>
        <time>2026-05-02T10:23:53Z</time>
      </trkpt>
      <trkpt lat="45.10008" lon="4.71948">
        <ele>506.1</ele>
        <time>2026-05-02T10:23:58Z</time>
      </trkpt>
      <trkpt lat="45.10008" lon="4.71948">
        <ele>506.1</ele>
        <time>2026-05-02T10:24:03Z</time>
      </trkpt>
      <trkpt lat="45.10011" lon="4.71953">
        <ele>506.2</ele>
        <time>2026-05-02T10:24:08Z</time>
      </trkpt>
      <trkpt lat="45.10012" lon="4.71962">
        <ele>506.1</ele>
        <time>2026-05-02T10:24:13Z</time>
      </trkpt>
      <trkpt lat="45.10012" lon="4.71963">
        <ele>506.1</ele>
        <time>2026-05-02T10:24:18Z</time>
      </trkpt>
      <trkpt lat="45.10012" lon="4.71967">
        <ele>506</ele>
        <time>2026-05-02T10:24:23Z</time>
      </trkpt>
      <trkpt lat="45.10013" lon="4.71975">
        <ele>506</ele>
        <time>2026-05-02T10:24:28Z</time>
      </trkpt>
      <trkpt lat="45.10014" lon="4.71976">
        <ele>506</ele>
        <time>2026-05-02T10:24:33Z</time>
      </trkpt>
      <trkpt lat="45.10014" lon="4.71976">
        <ele>506</ele>
        <time>2026-05-02T10:24:38Z</time>
      </trkpt>
      <trkpt lat="45.10014" lon="4.71976">
        <ele>506</ele>
        <time>2026-05-02T10:24:43Z</time>
      </trkpt>
      <trkpt lat="45.10015" lon="4.71986">
        <ele>505.9</ele>
        <time>2026-05-02T10:24:48Z</time>
      </trkpt>
      <trkpt lat="45.10015" lon="4.71995">
        <ele>505.8</ele>
        <time>2026-05-02T10:24:53Z</time>
      </trkpt>
      <trkpt lat="45.10017" lon="4.72006">
        <ele>505.5</ele>
        <time>2026-05-02T10:24:58Z</time>
      </trkpt>
      <trkpt lat="45.1002" lon="4.72017">
        <ele>505.2</ele>
        <time>2026-05-02T10:25:03Z</time>
      </trkpt>
      <trkpt lat="45.10021" lon="4.72027">
        <ele>504.8</ele>
        <time>2026-05-02T10:25:08Z</time>
      </trkpt>
      <trkpt lat="45.10023" lon="4.72036">
        <ele>504.5</ele>
        <time>2026-05-02T10:25:13Z</time>
      </trkpt>
      <trkpt lat="45.10023" lon="4.72038">
        <ele>504.4</ele>
        <time>2026-05-02T10:25:18Z</time>
      </trkpt>
      <trkpt lat="45.10023" lon="4.72038">
        <ele>504.4</ele>
        <time>2026-05-02T10:25:23Z</time>
      </trkpt>
      <trkpt lat="45.10023" lon="4.72038">
        <ele>504.4</ele>
        <time>2026-05-02T10:25:28Z</time>
      </trkpt>
      <trkpt lat="45.10023" lon="4.72038">
        <ele>504.4</ele>
        <time>2026-05-02T10:25:33Z</time>
      </trkpt>
      <trkpt lat="45.10023" lon="4.72038">
        <ele>504.4</ele>
        <time>2026-05-02T10:25:38Z</time>
      </trkpt>
      <trkpt lat="45.10026" lon="4.72047">
        <ele>504.2</ele>
        <time>2026-05-02T10:25:43Z</time>
      </trkpt>
      <trkpt lat="45.10027" lon="4.72056">
        <ele>503.8</ele>
        <time>2026-05-02T10:25:48Z</time>
      </trkpt>
      <trkpt lat="45.1003" lon="4.72066">
        <ele>503.6</ele>
        <time>2026-05-02T10:25:53Z</time>
      </trkpt>
      <trkpt lat="45.10032" lon="4.72076">
        <ele>503.2</ele>
        <time>2026-05-02T10:25:58Z</time>
      </trkpt>
      <trkpt lat="45.10034" lon="4.72086">
        <ele>502.9</ele>
        <time>2026-05-02T10:26:03Z</time>
      </trkpt>
      <trkpt lat="45.10036" lon="4.72096">
        <ele>502.6</ele>
        <time>2026-05-02T10:26:08Z</time>
      </trkpt>
      <trkpt lat="45.10038" lon="4.72107">
        <ele>502.2</ele>
        <time>2026-05-02T10:26:13Z</time>
      </trkpt>
      <trkpt lat="45.10039" lon="4.72118">
        <ele>501.7</ele>
        <time>2026-05-02T10:26:18Z</time>
      </trkpt>
      <trkpt lat="45.10041" lon="4.72128">
        <ele>501.3</ele>
        <time>2026-05-02T10:26:23Z</time>
      </trkpt>
      <trkpt lat="45.10044" lon="4.72139">
        <ele>500.9</ele>
        <time>2026-05-02T10:26:28Z</time>
      </trkpt>
      <trkpt lat="45.10045" lon="4.72149">
        <ele>500.4</ele>
        <time>2026-05-02T10:26:33Z</time>
      </trkpt>
      <trkpt lat="45.10046" lon="4.72161">
        <ele>499.8</ele>
        <time>2026-05-02T10:26:38Z</time>
      </trkpt>
      <trkpt lat="45.10047" lon="4.72172">
        <ele>499.6</ele>
        <time>2026-05-02T10:26:43Z</time>
      </trkpt>
      <trkpt lat="45.10048" lon="4.72181">
        <ele>499.5</ele>
        <time>2026-05-02T10:26:48Z</time>
      </trkpt>
      <trkpt lat="45.10049" lon="4.7219">
        <ele>499.5</ele>
        <time>2026-05-02T10:26:53Z</time>
      </trkpt>
      <trkpt lat="45.10051" lon="4.722">
        <ele>499.5</ele>
        <time>2026-05-02T10:26:58Z</time>
      </trkpt>
      <trkpt lat="45.10052" lon="4.72208">
        <ele>499.5</ele>
        <time>2026-05-02T10:27:03Z</time>
      </trkpt>
      <trkpt lat="45.10052" lon="4.72208">
        <ele>499.5</ele>
        <time>2026-05-02T10:27:08Z</time>
      </trkpt>
      <trkpt lat="45.10052" lon="4.72208">
        <ele>499.5</ele>
        <time>2026-05-02T10:27:13Z</time>
      </trkpt>
      <trkpt lat="45.10052" lon="4.72208">
        <ele>499.5</ele>
        <time>2026-05-02T10:27:18Z</time>
      </trkpt>
      <trkpt lat="45.10052" lon="4.72208">
        <ele>499.5</ele>
        <time>2026-05-02T10:27:23Z</time>
      </trkpt>
      <trkpt lat="45.10053" lon="4.72214">
        <ele>499.5</ele>
        <time>2026-05-02T10:27:28Z</time>
      </trkpt>
      <trkpt lat="45.10055" lon="4.72225">
        <ele>499.4</ele>
        <time>2026-05-02T10:27:33Z</time>
      </trkpt>
      <trkpt lat="45.10055" lon="4.72237">
        <ele>499.4</ele>
        <time>2026-05-02T10:27:38Z</time>
      </trkpt>
      <trkpt lat="45.10056" lon="4.72247">
        <ele>499.3</ele>
        <time>2026-05-02T10:27:43Z</time>
      </trkpt>
      <trkpt lat="45.10056" lon="4.72257">
        <ele>499.1</ele>
        <time>2026-05-02T10:27:48Z</time>
      </trkpt>
      <trkpt lat="45.10056" lon="4.72268">
        <ele>498.7</ele>
        <time>2026-05-02T10:27:53Z</time>
      </trkpt>
      <trkpt lat="45.10055" lon="4.72279">
        <ele>498.3</ele>
        <time>2026-05-02T10:27:58Z</time>
      </trkpt>
      <trkpt lat="45.10055" lon="4.7229">
        <ele>497.9</ele>
        <time>2026-05-02T10:28:03Z</time>
      </trkpt>
      <trkpt lat="45.10054" lon="4.72299">
        <ele>497.6</ele>
        <time>2026-05-02T10:28:08Z</time>
      </trkpt>
      <trkpt lat="45.10055" lon="4.72309">
        <ele>497.2</ele>
        <time>2026-05-02T10:28:13Z</time>
      </trkpt>
      <trkpt lat="45.10056" lon="4.72321">
        <ele>496.8</ele>
        <time>2026-05-02T10:28:18Z</time>
      </trkpt>
      <trkpt lat="45.10058" lon="4.72332">
        <ele>496.4</ele>
        <time>2026-05-02T10:28:23Z</time>
      </trkpt>
      <trkpt lat="45.1006" lon="4.72341">
        <ele>496</ele>
        <time>2026-05-02T10:28:28Z</time>
      </trkpt>
      <trkpt lat="45.10063" lon="4.72349">
        <ele>495.8</ele>
        <time>2026-05-02T10:28:33Z</time>
      </trkpt>
      <trkpt lat="45.10067" lon="4.72356">
        <ele>495.5</ele>
        <time>2026-05-02T10:28:38Z</time>
      </trkpt>
      <trkpt lat="45.1007" lon="4.72365">
        <ele>495.3</ele>
        <time>2026-05-02T10:28:43Z</time>
      </trkpt>
      <trkpt lat="45.10073" lon="4.72374">
        <ele>495</ele>
        <time>2026-05-02T10:28:48Z</time>
      </trkpt>
      <trkpt lat="45.10077" lon="4.72385">
        <ele>494.7</ele>
        <time>2026-05-02T10:28:53Z</time>
      </trkpt>
      <trkpt lat="45.10079" lon="4.72396">
        <ele>494.5</ele>
        <time>2026-05-02T10:28:58Z</time>
      </trkpt>
      <trkpt lat="45.10081" lon="4.72405">
        <ele>494.3</ele>
        <time>2026-05-02T10:29:03Z</time>
      </trkpt>
      <trkpt lat="45.10083" lon="4.72414">
        <ele>494.1</ele>
        <time>2026-05-02T10:29:08Z</time>
      </trkpt>
      <trkpt lat="45.10086" lon="4.72421">
        <ele>493.7</ele>
        <time>2026-05-02T10:29:13Z</time>
      </trkpt>
      <trkpt lat="45.10088" lon="4.72429">
        <ele>493.1</ele>
        <time>2026-05-02T10:29:18Z</time>
      </trkpt>
      <trkpt lat="45.10091" lon="4.72435">
        <ele>492.7</ele>
        <time>2026-05-02T10:29:23Z</time>
      </trkpt>
      <trkpt lat="45.10095" lon="4.72445">
        <ele>492.1</ele>
        <time>2026-05-02T10:29:28Z</time>
      </trkpt>
      <trkpt lat="45.10097" lon="4.72455">
        <ele>491.5</ele>
        <time>2026-05-02T10:29:33Z</time>
      </trkpt>
      <trkpt lat="45.10099" lon="4.72465">
        <ele>491</ele>
        <time>2026-05-02T10:29:38Z</time>
      </trkpt>
      <trkpt lat="45.10101" lon="4.72472">
        <ele>490.6</ele>
        <time>2026-05-02T10:29:43Z</time>
      </trkpt>
      <trkpt lat="45.10103" lon="4.72481">
        <ele>490.2</ele>
        <time>2026-05-02T10:29:48Z</time>
      </trkpt>
      <trkpt lat="45.10105" lon="4.7249">
        <ele>489.7</ele>
        <time>2026-05-02T10:29:53Z</time>
      </trkpt>
      <trkpt lat="45.10108" lon="4.72505">
        <ele>488.9</ele>
        <time>2026-05-02T10:29:58Z</time>
      </trkpt>
      <trkpt lat="45.10111" lon="4.72513">
        <ele>488.3</ele>
        <time>2026-05-02T10:30:03Z</time>
      </trkpt>
      <trkpt lat="45.10111" lon="4.72517">
        <ele>488</ele>
        <time>2026-05-02T10:30:08Z</time>
      </trkpt>
      <trkpt lat="45.10107" lon="4.72517">
        <ele>487.9</ele>
        <time>2026-05-02T10:30:13Z</time>
      </trkpt>
      <trkpt lat="45.10102" lon="4.72515">
        <ele>487.9</ele>
        <time>2026-05-02T10:30:18Z</time>
      </trkpt>
      <trkpt lat="45.10096" lon="4.72517">
        <ele>487.6</ele>
        <time>2026-05-02T10:30:23Z</time>
      </trkpt>
      <trkpt lat="45.1009" lon="4.72513">
        <ele>487.9</ele>
        <time>2026-05-02T10:30:28Z</time>
      </trkpt>
      <trkpt lat="45.10086" lon="4.72511">
        <ele>488</ele>
        <time>2026-05-02T10:30:33Z</time>
      </trkpt>
      <trkpt lat="45.10084" lon="4.72512">
        <ele>487.9</ele>
        <time>2026-05-02T10:30:38Z</time>
      </trkpt>
      <trkpt lat="45.10084" lon="4.72512">
        <ele>487.9</ele>
        <time>2026-05-02T10:30:43Z</time>
      </trkpt>
      <trkpt lat="45.10087" lon="4.72512">
        <ele>487.9</ele>
        <time>2026-05-02T10:30:48Z</time>
      </trkpt>
      <trkpt lat="45.10091" lon="4.72511">
        <ele>488.1</ele>
        <time>2026-05-02T10:30:53Z</time>
      </trkpt>
      <trkpt lat="45.10096" lon="4.72515">
        <ele>487.8</ele>
        <time>2026-05-02T10:30:58Z</time>
      </trkpt>
      <trkpt lat="45.10103" lon="4.72518">
        <ele>487.7</ele>
        <time>2026-05-02T10:31:03Z</time>
      </trkpt>
      <trkpt lat="45.10107" lon="4.72522">
        <ele>487.5</ele>
        <time>2026-05-02T10:31:08Z</time>
      </trkpt>
      <trkpt lat="45.10113" lon="4.72526">
        <ele>487.3</ele>
        <time>2026-05-02T10:31:13Z</time>
      </trkpt>
      <trkpt lat="45.1012" lon="4.72531">
        <ele>487.1</ele>
        <time>2026-05-02T10:31:18Z</time>
      </trkpt>
      <trkpt lat="45.10124" lon="4.72538">
        <ele>486.7</ele>
        <time>2026-05-02T10:31:23Z</time>
      </trkpt>
      <trkpt lat="45.10127" lon="4.72547">
        <ele>486.2</ele>
        <time>2026-05-02T10:31:28Z</time>
      </trkpt>
      <trkpt lat="45.10129" lon="4.72556">
        <ele>485.6</ele>
        <time>2026-05-02T10:31:33Z</time>
      </trkpt>
      <trkpt lat="45.10132" lon="4.72564">
        <ele>485.2</ele>
        <time>2026-05-02T10:31:38Z</time>
      </trkpt>
      <trkpt lat="45.10132" lon="4.72572">
        <ele>484.7</ele>
        <time>2026-05-02T10:31:43Z</time>
      </trkpt>
      <trkpt lat="45.10129" lon="4.72572">
        <ele>484.5</ele>
        <time>2026-05-02T10:31:48Z</time>
      </trkpt>
      <trkpt lat="45.10129" lon="4.72579">
        <ele>484</ele>
        <time>2026-05-02T10:31:53Z</time>
      </trkpt>
      <trkpt lat="45.1013" lon="4.72588">
        <ele>483.4</ele>
        <time>2026-05-02T10:31:58Z</time>
      </trkpt>
      <trkpt lat="45.10129" lon="4.72598">
        <ele>482.5</ele>
        <time>2026-05-02T10:32:03Z</time>
      </trkpt>
      <trkpt lat="45.10132" lon="4.72605">
        <ele>482.1</ele>
        <time>2026-05-02T10:32:08Z</time>
      </trkpt>
      <trkpt lat="45.10136" lon="4.72615">
        <ele>481.6</ele>
        <time>2026-05-02T10:32:13Z</time>
      </trkpt>
      <trkpt lat="45.10137" lon="4.72625">
        <ele>480.8</ele>
        <time>2026-05-02T10:32:18Z</time>
      </trkpt>
      <trkpt lat="45.1014" lon="4.72636">
        <ele>480.2</ele>
        <time>2026-05-02T10:32:23Z</time>
      </trkpt>
      <trkpt lat="45.10144" lon="4.72645">
        <ele>479.9</ele>
        <time>2026-05-02T10:32:28Z</time>
      </trkpt>
      <trkpt lat="45.10148" lon="4.72654">
        <ele>479.7</ele>
        <time>2026-05-02T10:32:33Z</time>
      </trkpt>
      <trkpt lat="45.10153" lon="4.72661">
        <ele>479.8</ele>
        <time>2026-05-02T10:32:38Z</time>
      </trkpt>
      <trkpt lat="45.10156" lon="4.72665">
        <ele>479.8</ele>
        <time>2026-05-02T10:32:43Z</time>
      </trkpt>
      <trkpt lat="45.10156" lon="4.72664">
        <ele>479.9</ele>
        <time>2026-05-02T10:32:48Z</time>
      </trkpt>
      <trkpt lat="45.10156" lon="4.72665">
        <ele>479.8</ele>
        <time>2026-05-02T10:32:53Z</time>
      </trkpt>
      <trkpt lat="45.10156" lon="4.72665">
        <ele>479.8</ele>
        <time>2026-05-02T10:32:58Z</time>
      </trkpt>
      <trkpt lat="45.10156" lon="4.72665">
        <ele>479.8</ele>
        <time>2026-05-02T10:33:03Z</time>
      </trkpt>
      <trkpt lat="45.10159" lon="4.72674">
        <ele>479.8</ele>
        <time>2026-05-02T10:33:08Z</time>
      </trkpt>
      <trkpt lat="45.10163" lon="4.72683">
        <ele>479.9</ele>
        <time>2026-05-02T10:33:13Z</time>
      </trkpt>
      <trkpt lat="45.10167" lon="4.7269">
        <ele>480.2</ele>
        <time>2026-05-02T10:33:18Z</time>
      </trkpt>
      <trkpt lat="45.10169" lon="4.72696">
        <ele>480</ele>
        <time>2026-05-02T10:33:23Z</time>
      </trkpt>
      <trkpt lat="45.10172" lon="4.72705">
        <ele>479.7</ele>
        <time>2026-05-02T10:33:28Z</time>
      </trkpt>
      <trkpt lat="45.10177" lon="4.72713">
        <ele>479.4</ele>
        <time>2026-05-02T10:33:33Z</time>
      </trkpt>
      <trkpt lat="45.10182" lon="4.7272">
        <ele>479.1</ele>
        <time>2026-05-02T10:33:38Z</time>
      </trkpt>
      <trkpt lat="45.10187" lon="4.72728">
        <ele>478.9</ele>
        <time>2026-05-02T10:33:43Z</time>
      </trkpt>
      <trkpt lat="45.10187" lon="4.72732">
        <ele>478.7</ele>
        <time>2026-05-02T10:33:48Z</time>
      </trkpt>
      <trkpt lat="45.10188" lon="4.72732">
        <ele>478.7</ele>
        <time>2026-05-02T10:33:53Z</time>
      </trkpt>
      <trkpt lat="45.10188" lon="4.72731">
        <ele>478.7</ele>
        <time>2026-05-02T10:33:58Z</time>
      </trkpt>
      <trkpt lat="45.10192" lon="4.72731">
        <ele>478.8</ele>
        <time>2026-05-02T10:34:03Z</time>
      </trkpt>
      <trkpt lat="45.10195" lon="4.72739">
        <ele>478.4</ele>
        <time>2026-05-02T10:34:08Z</time>
      </trkpt>
      <trkpt lat="45.10202" lon="4.72747">
        <ele>478.1</ele>
        <time>2026-05-02T10:34:13Z</time>
      </trkpt>
      <trkpt lat="45.10207" lon="4.72754">
        <ele>477.6</ele>
        <time>2026-05-02T10:34:18Z</time>
      </trkpt>
      <trkpt lat="45.10213" lon="4.72762">
        <ele>476.7</ele>
        <time>2026-05-02T10:34:23Z</time>
      </trkpt>
      <trkpt lat="45.10218" lon="4.72769">
        <ele>476</ele>
        <time>2026-05-02T10:34:28Z</time>
      </trkpt>
      <trkpt lat="45.10224" lon="4.72776">
        <ele>475.3</ele>
        <time>2026-05-02T10:34:33Z</time>
      </trkpt>
      <trkpt lat="45.10229" lon="4.72783">
        <ele>474.6</ele>
        <time>2026-05-02T10:34:38Z</time>
      </trkpt>
      <trkpt lat="45.10234" lon="4.72791">
        <ele>473.9</ele>
        <time>2026-05-02T10:34:43Z</time>
      </trkpt>
      <trkpt lat="45.1024" lon="4.72797">
        <ele>473.4</ele>
        <time>2026-05-02T10:34:48Z</time>
      </trkpt>
      <trkpt lat="45.10245" lon="4.72805">
        <ele>472.6</ele>
        <time>2026-05-02T10:34:53Z</time>
      </trkpt>
      <trkpt lat="45.10248" lon="4.72809">
        <ele>472.3</ele>
        <time>2026-05-02T10:34:58Z</time>
      </trkpt>
      <trkpt lat="45.10252" lon="4.72814">
        <ele>471.9</ele>
        <time>2026-05-02T10:35:03Z</time>
      </trkpt>
      <trkpt lat="45.10257" lon="4.72821">
        <ele>471.3</ele>
        <time>2026-05-02T10:35:08Z</time>
      </trkpt>
      <trkpt lat="45.10263" lon="4.72827">
        <ele>470.9</ele>
        <time>2026-05-02T10:35:13Z</time>
      </trkpt>
      <trkpt lat="45.10269" lon="4.72834">
        <ele>470.4</ele>
        <time>2026-05-02T10:35:18Z</time>
      </trkpt>
      <trkpt lat="45.10275" lon="4.7284">
        <ele>469.7</ele>
        <time>2026-05-02T10:35:23Z</time>
      </trkpt>
      <trkpt lat="45.10281" lon="4.72847">
        <ele>468.9</ele>
        <time>2026-05-02T10:35:28Z</time>
      </trkpt>
      <trkpt lat="45.10286" lon="4.72853">
        <ele>468.3</ele>
        <time>2026-05-02T10:35:33Z</time>
      </trkpt>
      <trkpt lat="45.10291" lon="4.72859">
        <ele>467.7</ele>
        <time>2026-05-02T10:35:38Z</time>
      </trkpt>
      <trkpt lat="45.10297" lon="4.72865">
        <ele>467.3</ele>
        <time>2026-05-02T10:35:43Z</time>
      </trkpt>
      <trkpt lat="45.10302" lon="4.72875">
        <ele>466.3</ele>
        <time>2026-05-02T10:35:48Z</time>
      </trkpt>
      <trkpt lat="45.10307" lon="4.72885">
        <ele>465.4</ele>
        <time>2026-05-02T10:35:53Z</time>
      </trkpt>
      <trkpt lat="45.10313" lon="4.72893">
        <ele>464.9</ele>
        <time>2026-05-02T10:35:58Z</time>
      </trkpt>
      <trkpt lat="45.10318" lon="4.72901">
        <ele>464.4</ele>
        <time>2026-05-02T10:36:03Z</time>
      </trkpt>
      <trkpt lat="45.10323" lon="4.72908">
        <ele>464</ele>
        <time>2026-05-02T10:36:08Z</time>
      </trkpt>
      <trkpt lat="45.10327" lon="4.72915">
        <ele>463.6</ele>
        <time>2026-05-02T10:36:13Z</time>
      </trkpt>
      <trkpt lat="45.10331" lon="4.72925">
        <ele>462.8</ele>
        <time>2026-05-02T10:36:18Z</time>
      </trkpt>
      <trkpt lat="45.10335" lon="4.72933">
        <ele>462.1</ele>
        <time>2026-05-02T10:36:23Z</time>
      </trkpt>
      <trkpt lat="45.10339" lon="4.72942">
        <ele>461.2</ele>
        <time>2026-05-02T10:36:28Z</time>
      </trkpt>
      <trkpt lat="45.10344" lon="4.72946">
        <ele>460.9</ele>
        <time>2026-05-02T10:36:33Z</time>
      </trkpt>
      <trkpt lat="45.10347" lon="4.72949">
        <ele>460.6</ele>
        <time>2026-05-02T10:36:38Z</time>
      </trkpt>
      <trkpt lat="45.10348" lon="4.72949">
        <ele>460.7</ele>
        <time>2026-05-02T10:36:43Z</time>
      </trkpt>
      <trkpt lat="45.10349" lon="4.72949">
        <ele>460.7</ele>
        <time>2026-05-02T10:36:48Z</time>
      </trkpt>
      <trkpt lat="45.10349" lon="4.72949">
        <ele>460.7</ele>
        <time>2026-05-02T10:36:53Z</time>
      </trkpt>
      <trkpt lat="45.10351" lon="4.72948">
        <ele>460.9</ele>
        <time>2026-05-02T10:36:58Z</time>
      </trkpt>
      <trkpt lat="45.10353" lon="4.72946">
        <ele>461.2</ele>
        <time>2026-05-02T10:37:03Z</time>
      </trkpt>
      <trkpt lat="45.10353" lon="4.72945">
        <ele>461.3</ele>
        <time>2026-05-02T10:37:08Z</time>
      </trkpt>
      <trkpt lat="45.10353" lon="4.72945">
        <ele>461.3</ele>
        <time>2026-05-02T10:37:13Z</time>
      </trkpt>
      <trkpt lat="45.10353" lon="4.72945">
        <ele>461.3</ele>
        <time>2026-05-02T10:37:18Z</time>
      </trkpt>
      <trkpt lat="45.1035" lon="4.72949">
        <ele>460.8</ele>
        <time>2026-05-02T10:37:23Z</time>
      </trkpt>
      <trkpt lat="45.10351" lon="4.72958">
        <ele>459.8</ele>
        <time>2026-05-02T10:37:28Z</time>
      </trkpt>
      <trkpt lat="45.10349" lon="4.72967">
        <ele>458.7</ele>
        <time>2026-05-02T10:37:33Z</time>
      </trkpt>
      <trkpt lat="45.10351" lon="4.72975">
        <ele>457.9</ele>
        <time>2026-05-02T10:37:38Z</time>
      </trkpt>
      <trkpt lat="45.10353" lon="4.72984">
        <ele>457</ele>
        <time>2026-05-02T10:37:43Z</time>
      </trkpt>
      <trkpt lat="45.10357" lon="4.72993">
        <ele>456.2</ele>
        <time>2026-05-02T10:37:48Z</time>
      </trkpt>
      <trkpt lat="45.1036" lon="4.73003">
        <ele>455.5</ele>
        <time>2026-05-02T10:37:53Z</time>
      </trkpt>
      <trkpt lat="45.10364" lon="4.73013">
        <ele>455.2</ele>
        <time>2026-05-02T10:37:58Z</time>
      </trkpt>
      <trkpt lat="45.10368" lon="4.73021">
        <ele>455.1</ele>
        <time>2026-05-02T10:38:03Z</time>
      </trkpt>
      <trkpt lat="45.10371" lon="4.73031">
        <ele>454.9</ele>
        <time>2026-05-02T10:38:08Z</time>
      </trkpt>
      <trkpt lat="45.10374" lon="4.73041">
        <ele>454.7</ele>
        <time>2026-05-02T10:38:13Z</time>
      </trkpt>
      <trkpt lat="45.10377" lon="4.7305">
        <ele>454.6</ele>
        <time>2026-05-02T10:38:18Z</time>
      </trkpt>
      <trkpt lat="45.10381" lon="4.73059">
        <ele>454.5</ele>
        <time>2026-05-02T10:38:23Z</time>
      </trkpt>
      <trkpt lat="45.10384" lon="4.73068">
        <ele>454.4</ele>
        <time>2026-05-02T10:38:28Z</time>
      </trkpt>
      <trkpt lat="45.10388" lon="4.73075">
        <ele>454.6</ele>
        <time>2026-05-02T10:38:33Z</time>
      </trkpt>
      <trkpt lat="45.10387" lon="4.73085">
        <ele>454.2</ele>
        <time>2026-05-02T10:38:38Z</time>
      </trkpt>
      <trkpt lat="45.10388" lon="4.73093">
        <ele>454.4</ele>
        <time>2026-05-02T10:38:43Z</time>
      </trkpt>
      <trkpt lat="45.10389" lon="4.73104">
        <ele>454.8</ele>
        <time>2026-05-02T10:38:48Z</time>
      </trkpt>
      <trkpt lat="45.1039" lon="4.73112">
        <ele>455</ele>
        <time>2026-05-02T10:38:53Z</time>
      </trkpt>
      <trkpt lat="45.10391" lon="4.73122">
        <ele>455.3</ele>
        <time>2026-05-02T10:38:58Z</time>
      </trkpt>
      <trkpt lat="45.10392" lon="4.73131">
        <ele>455.5</ele>
        <time>2026-05-02T10:39:03Z</time>
      </trkpt>
      <trkpt lat="45.1039" lon="4.73141">
        <ele>455.5</ele>
        <time>2026-05-02T10:39:08Z</time>
      </trkpt>
      <trkpt lat="45.1039" lon="4.73148">
        <ele>455.7</ele>
        <time>2026-05-02T10:39:13Z</time>
      </trkpt>
      <trkpt lat="45.10389" lon="4.73155">
        <ele>455.8</ele>
        <time>2026-05-02T10:39:18Z</time>
      </trkpt>
      <trkpt lat="45.10387" lon="4.73164">
        <ele>455.9</ele>
        <time>2026-05-02T10:39:23Z</time>
      </trkpt>
      <trkpt lat="45.10382" lon="4.7317">
        <ele>456</ele>
        <time>2026-05-02T10:39:28Z</time>
      </trkpt>
      <trkpt lat="45.10376" lon="4.73174">
        <ele>456.2</ele>
        <time>2026-05-02T10:39:33Z</time>
      </trkpt>
      <trkpt lat="45.1037" lon="4.73181">
        <ele>456.7</ele>
        <time>2026-05-02T10:39:38Z</time>
      </trkpt>
      <trkpt lat="45.10365" lon="4.73188">
        <ele>457.3</ele>
        <time>2026-05-02T10:39:43Z</time>
      </trkpt>
      <trkpt lat="45.1036" lon="4.73194">
        <ele>457.8</ele>
        <time>2026-05-02T10:39:48Z</time>
      </trkpt>
      <trkpt lat="45.10356" lon="4.732">
        <ele>458.5</ele>
        <time>2026-05-02T10:39:53Z</time>
      </trkpt>
      <trkpt lat="45.1035" lon="4.73207">
        <ele>459.2</ele>
        <time>2026-05-02T10:39:58Z</time>
      </trkpt>
      <trkpt lat="45.10345" lon="4.73213">
        <ele>460</ele>
        <time>2026-05-02T10:40:03Z</time>
      </trkpt>
      <trkpt lat="45.1034" lon="4.73218">
        <ele>460.7</ele>
        <time>2026-05-02T10:40:08Z</time>
      </trkpt>
      <trkpt lat="45.10335" lon="4.73225">
        <ele>461.7</ele>
        <time>2026-05-02T10:40:13Z</time>
      </trkpt>
      <trkpt lat="45.10329" lon="4.73231">
        <ele>462.4</ele>
        <time>2026-05-02T10:40:18Z</time>
      </trkpt>
      <trkpt lat="45.10323" lon="4.73237">
        <ele>463.1</ele>
        <time>2026-05-02T10:40:23Z</time>
      </trkpt>
      <trkpt lat="45.10318" lon="4.73243">
        <ele>463.8</ele>
        <time>2026-05-02T10:40:28Z</time>
      </trkpt>
      <trkpt lat="45.10313" lon="4.73248">
        <ele>464.5</ele>
        <time>2026-05-02T10:40:33Z</time>
      </trkpt>
      <trkpt lat="45.10308" lon="4.73253">
        <ele>464.8</ele>
        <time>2026-05-02T10:40:38Z</time>
      </trkpt>
      <trkpt lat="45.10304" lon="4.73259">
        <ele>464.8</ele>
        <time>2026-05-02T10:40:43Z</time>
      </trkpt>
      <trkpt lat="45.10298" lon="4.73265">
        <ele>464.9</ele>
        <time>2026-05-02T10:40:48Z</time>
      </trkpt>
      <trkpt lat="45.10293" lon="4.73272">
        <ele>464.9</ele>
        <time>2026-05-02T10:40:53Z</time>
      </trkpt>
      <trkpt lat="45.10288" lon="4.73277">
        <ele>464.9</ele>
        <time>2026-05-02T10:40:58Z</time>
      </trkpt>
      <trkpt lat="45.10282" lon="4.73284">
        <ele>464.9</ele>
        <time>2026-05-02T10:41:03Z</time>
      </trkpt>
      <trkpt lat="45.10278" lon="4.73289">
        <ele>465</ele>
        <time>2026-05-02T10:41:08Z</time>
      </trkpt>
      <trkpt lat="45.10273" lon="4.73295">
        <ele>465</ele>
        <time>2026-05-02T10:41:13Z</time>
      </trkpt>
      <trkpt lat="45.10268" lon="4.733">
        <ele>464.9</ele>
        <time>2026-05-02T10:41:18Z</time>
      </trkpt>
      <trkpt lat="45.10264" lon="4.73307">
        <ele>465</ele>
        <time>2026-05-02T10:41:23Z</time>
      </trkpt>
      <trkpt lat="45.10258" lon="4.73311">
        <ele>464.9</ele>
        <time>2026-05-02T10:41:28Z</time>
      </trkpt>
      <trkpt lat="45.10253" lon="4.73316">
        <ele>464.9</ele>
        <time>2026-05-02T10:41:33Z</time>
      </trkpt>
      <trkpt lat="45.10247" lon="4.73321">
        <ele>464.6</ele>
        <time>2026-05-02T10:41:38Z</time>
      </trkpt>
      <trkpt lat="45.10242" lon="4.73327">
        <ele>464.4</ele>
        <time>2026-05-02T10:41:43Z</time>
      </trkpt>
      <trkpt lat="45.10237" lon="4.73332">
        <ele>464.2</ele>
        <time>2026-05-02T10:41:48Z</time>
      </trkpt>
      <trkpt lat="45.1023" lon="4.73336">
        <ele>463.8</ele>
        <time>2026-05-02T10:41:53Z</time>
      </trkpt>
      <trkpt lat="45.10225" lon="4.73341">
        <ele>463.4</ele>
        <time>2026-05-02T10:41:58Z</time>
      </trkpt>
      <trkpt lat="45.10219" lon="4.73344">
        <ele>463.1</ele>
        <time>2026-05-02T10:42:03Z</time>
      </trkpt>
      <trkpt lat="45.10212" lon="4.73348">
        <ele>462.7</ele>
        <time>2026-05-02T10:42:08Z</time>
      </trkpt>
      <trkpt lat="45.10206" lon="4.73352">
        <ele>462.4</ele>
        <time>2026-05-02T10:42:13Z</time>
      </trkpt>
      <trkpt lat="45.102" lon="4.73356">
        <ele>462.1</ele>
        <time>2026-05-02T10:42:18Z</time>
      </trkpt>
      <trkpt lat="45.10193" lon="4.7336">
        <ele>461.8</ele>
        <time>2026-05-02T10:42:23Z</time>
      </trkpt>
      <trkpt lat="45.10186" lon="4.73363">
        <ele>461.5</ele>
        <time>2026-05-02T10:42:28Z</time>
      </trkpt>
      <trkpt lat="45.10182" lon="4.73366">
        <ele>461.4</ele>
        <time>2026-05-02T10:42:33Z</time>
      </trkpt>
      <trkpt lat="45.10182" lon="4.73366">
        <ele>461.4</ele>
        <time>2026-05-02T10:42:38Z</time>
      </trkpt>
      <trkpt lat="45.1018" lon="4.73365">
        <ele>461.3</ele>
        <time>2026-05-02T10:42:43Z</time>
      </trkpt>
      <trkpt lat="45.10172" lon="4.7337">
        <ele>461.1</ele>
        <time>2026-05-02T10:42:48Z</time>
      </trkpt>
      <trkpt lat="45.10166" lon="4.73374">
        <ele>461</ele>
        <time>2026-05-02T10:42:53Z</time>
      </trkpt>
      <trkpt lat="45.10159" lon="4.73377">
        <ele>461</ele>
        <time>2026-05-02T10:42:58Z</time>
      </trkpt>
      <trkpt lat="45.10152" lon="4.7338">
        <ele>461</ele>
        <time>2026-05-02T10:43:03Z</time>
      </trkpt>
      <trkpt lat="45.10145" lon="4.73383">
        <ele>461</ele>
        <time>2026-05-02T10:43:08Z</time>
      </trkpt>
      <trkpt lat="45.10139" lon="4.73387">
        <ele>461.1</ele>
        <time>2026-05-02T10:43:13Z</time>
      </trkpt>
      <trkpt lat="45.10132" lon="4.73391">
        <ele>461.3</ele>
        <time>2026-05-02T10:43:18Z</time>
      </trkpt>
      <trkpt lat="45.10125" lon="4.73395">
        <ele>461.5</ele>
        <time>2026-05-02T10:43:23Z</time>
      </trkpt>
      <trkpt lat="45.10118" lon="4.73399">
        <ele>461.7</ele>
        <time>2026-05-02T10:43:28Z</time>
      </trkpt>
      <trkpt lat="45.1011" lon="4.73404">
        <ele>462</ele>
        <time>2026-05-02T10:43:33Z</time>
      </trkpt>
      <trkpt lat="45.10104" lon="4.73409">
        <ele>462.3</ele>
        <time>2026-05-02T10:43:38Z</time>
      </trkpt>
      <trkpt lat="45.10098" lon="4.73411">
        <ele>462.5</ele>
        <time>2026-05-02T10:43:43Z</time>
      </trkpt>
      <trkpt lat="45.10092" lon="4.73415">
        <ele>462.8</ele>
        <time>2026-05-02T10:43:48Z</time>
      </trkpt>
      <trkpt lat="45.10086" lon="4.73418">
        <ele>463</ele>
        <time>2026-05-02T10:43:53Z</time>
      </trkpt>
      <trkpt lat="45.10079" lon="4.73422">
        <ele>462.8</ele>
        <time>2026-05-02T10:43:58Z</time>
      </trkpt>
      <trkpt lat="45.10071" lon="4.73426">
        <ele>462.5</ele>
        <time>2026-05-02T10:44:03Z</time>
      </trkpt>
      <trkpt lat="45.10064" lon="4.73428">
        <ele>462.2</ele>
        <time>2026-05-02T10:44:08Z</time>
      </trkpt>
      <trkpt lat="45.10058" lon="4.73432">
        <ele>462</ele>
        <time>2026-05-02T10:44:13Z</time>
      </trkpt>
      <trkpt lat="45.10052" lon="4.73435">
        <ele>461.7</ele>
        <time>2026-05-02T10:44:18Z</time>
      </trkpt>
      <trkpt lat="45.10047" lon="4.73439">
        <ele>461.6</ele>
        <time>2026-05-02T10:44:23Z</time>
      </trkpt>
      <trkpt lat="45.10041" lon="4.73443">
        <ele>461.4</ele>
        <time>2026-05-02T10:44:28Z</time>
      </trkpt>
      <trkpt lat="45.10034" lon="4.73446">
        <ele>461.3</ele>
        <time>2026-05-02T10:44:33Z</time>
      </trkpt>
      <trkpt lat="45.10027" lon="4.73452">
        <ele>461.2</ele>
        <time>2026-05-02T10:44:38Z</time>
      </trkpt>
      <trkpt lat="45.1002" lon="4.73457">
        <ele>461.1</ele>
        <time>2026-05-02T10:44:43Z</time>
      </trkpt>
      <trkpt lat="45.10012" lon="4.73463">
        <ele>461</ele>
        <time>2026-05-02T10:44:48Z</time>
      </trkpt>
      <trkpt lat="45.10005" lon="4.73468">
        <ele>461</ele>
        <time>2026-05-02T10:44:53Z</time>
      </trkpt>
      <trkpt lat="45.1" lon="4.73472">
        <ele>461</ele>
        <time>2026-05-02T10:44:58Z</time>
      </trkpt>
      <trkpt lat="45.09999" lon="4.73475">
        <ele>461.1</ele>
        <time>2026-05-02T10:45:03Z</time>
      </trkpt>
      <trkpt lat="45.09999" lon="4.73476">
        <ele>461.2</ele>
        <time>2026-05-02T10:45:08Z</time>
      </trkpt>
      <trkpt lat="45.09999" lon="4.73476">
        <ele>461.2</ele>
        <time>2026-05-02T10:45:13Z</time>
      </trkpt>
      <trkpt lat="45.09999" lon="4.73476">
        <ele>461.2</ele>
        <time>2026-05-02T10:45:18Z</time>
      </trkpt>
      <trkpt lat="45.09997" lon="4.73477">
        <ele>461.2</ele>
        <time>2026-05-02T10:45:23Z</time>
      </trkpt>
      <trkpt lat="45.0999" lon="4.7348">
        <ele>461.5</ele>
        <time>2026-05-02T10:45:28Z</time>
      </trkpt>
      <trkpt lat="45.09983" lon="4.73484">
        <ele>461.8</ele>
        <time>2026-05-02T10:45:33Z</time>
      </trkpt>
      <trkpt lat="45.09976" lon="4.73488">
        <ele>462.1</ele>
        <time>2026-05-02T10:45:38Z</time>
      </trkpt>
      <trkpt lat="45.09969" lon="4.73491">
        <ele>462.3</ele>
        <time>2026-05-02T10:45:43Z</time>
      </trkpt>
      <trkpt lat="45.09962" lon="4.73494">
        <ele>462.6</ele>
        <time>2026-05-02T10:45:48Z</time>
      </trkpt>
      <trkpt lat="45.09955" lon="4.73499">
        <ele>463</ele>
        <time>2026-05-02T10:45:53Z</time>
      </trkpt>
      <trkpt lat="45.09947" lon="4.73504">
        <ele>463.2</ele>
        <time>2026-05-02T10:45:58Z</time>
      </trkpt>
      <trkpt lat="45.0994" lon="4.73508">
        <ele>463.3</ele>
        <time>2026-05-02T10:46:03Z</time>
      </trkpt>
      <trkpt lat="45.09934" lon="4.73513">
        <ele>463.4</ele>
        <time>2026-05-02T10:46:08Z</time>
      </trkpt>
      <trkpt lat="45.09929" lon="4.73518">
        <ele>463.5</ele>
        <time>2026-05-02T10:46:13Z</time>
      </trkpt>
      <trkpt lat="45.09922" lon="4.73522">
        <ele>463.6</ele>
        <time>2026-05-02T10:46:18Z</time>
      </trkpt>
      <trkpt lat="45.09916" lon="4.73528">
        <ele>463.7</ele>
        <time>2026-05-02T10:46:23Z</time>
      </trkpt>
      <trkpt lat="45.09911" lon="4.73535">
        <ele>463.6</ele>
        <time>2026-05-02T10:46:28Z</time>
      </trkpt>
      <trkpt lat="45.09905" lon="4.73543">
        <ele>463.5</ele>
        <time>2026-05-02T10:46:33Z</time>
      </trkpt>
      <trkpt lat="45.09899" lon="4.73549">
        <ele>463.4</ele>
        <time>2026-05-02T10:46:38Z</time>
      </trkpt>
      <trkpt lat="45.09893" lon="4.73556">
        <ele>463.3</ele>
        <time>2026-05-02T10:46:43Z</time>
      </trkpt>
      <trkpt lat="45.09887" lon="4.73562">
        <ele>463.3</ele>
        <time>2026-05-02T10:46:48Z</time>
      </trkpt>
      <trkpt lat="45.09881" lon="4.73567">
        <ele>463.2</ele>
        <time>2026-05-02T10:46:53Z</time>
      </trkpt>
      <trkpt lat="45.09877" lon="4.73573">
        <ele>463.1</ele>
        <time>2026-05-02T10:46:58Z</time>
      </trkpt>
      <trkpt lat="45.09872" lon="4.73581">
        <ele>463</ele>
        <time>2026-05-02T10:47:03Z</time>
      </trkpt>
      <trkpt lat="45.09867" lon="4.73588">
        <ele>462.9</ele>
        <time>2026-05-02T10:47:08Z</time>
      </trkpt>
      <trkpt lat="45.09862" lon="4.73592">
        <ele>462.9</ele>
        <time>2026-05-02T10:47:13Z</time>
      </trkpt>
      <trkpt lat="45.09855" lon="4.73599">
        <ele>462.7</ele>
        <time>2026-05-02T10:47:18Z</time>
      </trkpt>
      <trkpt lat="45.09851" lon="4.73606">
        <ele>462.6</ele>
        <time>2026-05-02T10:47:23Z</time>
      </trkpt>
      <trkpt lat="45.09846" lon="4.73613">
        <ele>462.4</ele>
        <time>2026-05-02T10:47:28Z</time>
      </trkpt>
      <trkpt lat="45.0984" lon="4.7362">
        <ele>462.2</ele>
        <time>2026-05-02T10:47:33Z</time>
      </trkpt>
      <trkpt lat="45.09835" lon="4.73623">
        <ele>462.1</ele>
        <time>2026-05-02T10:47:38Z</time>
      </trkpt>
      <trkpt lat="45.09833" lon="4.73623">
        <ele>462</ele>
        <time>2026-05-02T10:47:43Z</time>
      </trkpt>
      <trkpt lat="45.0983" lon="4.73624">
        <ele>461.8</ele>
        <time>2026-05-02T10:47:48Z</time>
      </trkpt>
      <trkpt lat="45.09825" lon="4.73631">
        <ele>461.4</ele>
        <time>2026-05-02T10:47:53Z</time>
      </trkpt>
      <trkpt lat="45.09819" lon="4.73637">
        <ele>461.1</ele>
        <time>2026-05-02T10:47:58Z</time>
      </trkpt>
      <trkpt lat="45.09813" lon="4.73643">
        <ele>460.7</ele>
        <time>2026-05-02T10:48:03Z</time>
      </trkpt>
      <trkpt lat="45.09806" lon="4.73649">
        <ele>460.4</ele>
        <time>2026-05-02T10:48:08Z</time>
      </trkpt>
      <trkpt lat="45.09799" lon="4.73655">
        <ele>460.2</ele>
        <time>2026-05-02T10:48:13Z</time>
      </trkpt>
      <trkpt lat="45.09792" lon="4.7366">
        <ele>460</ele>
        <time>2026-05-02T10:48:18Z</time>
      </trkpt>
      <trkpt lat="45.09785" lon="4.73665">
        <ele>459.8</ele>
        <time>2026-05-02T10:48:23Z</time>
      </trkpt>
      <trkpt lat="45.09778" lon="4.7367">
        <ele>459.7</ele>
        <time>2026-05-02T10:48:28Z</time>
      </trkpt>
      <trkpt lat="45.09772" lon="4.73675">
        <ele>459.6</ele>
        <time>2026-05-02T10:48:33Z</time>
      </trkpt>
      <trkpt lat="45.09765" lon="4.7368">
        <ele>459.6</ele>
        <time>2026-05-02T10:48:38Z</time>
      </trkpt>
      <trkpt lat="45.09758" lon="4.73686">
        <ele>459.6</ele>
        <time>2026-05-02T10:48:43Z</time>
      </trkpt>
      <trkpt lat="45.09751" lon="4.73691">
        <ele>459.6</ele>
        <time>2026-05-02T10:48:48Z</time>
      </trkpt>
      <trkpt lat="45.09745" lon="4.73695">
        <ele>459.6</ele>
        <time>2026-05-02T10:48:53Z</time>
      </trkpt>
      <trkpt lat="45.09737" lon="4.73698">
        <ele>459.6</ele>
        <time>2026-05-02T10:48:58Z</time>
      </trkpt>
      <trkpt lat="45.0973" lon="4.73702">
        <ele>459.6</ele>
        <time>2026-05-02T10:49:03Z</time>
      </trkpt>
      <trkpt lat="45.09722" lon="4.73705">
        <ele>459.6</ele>
        <time>2026-05-02T10:49:08Z</time>
      </trkpt>
      <trkpt lat="45.09715" lon="4.73708">
        <ele>459.6</ele>
        <time>2026-05-02T10:49:13Z</time>
      </trkpt>
      <trkpt lat="45.09707" lon="4.7371">
        <ele>459.5</ele>
        <time>2026-05-02T10:49:18Z</time>
      </trkpt>
      <trkpt lat="45.097" lon="4.73713">
        <ele>459.6</ele>
        <time>2026-05-02T10:49:23Z</time>
      </trkpt>
      <trkpt lat="45.09693" lon="4.73715">
        <ele>459.6</ele>
        <time>2026-05-02T10:49:28Z</time>
      </trkpt>
      <trkpt lat="45.09686" lon="4.73718">
        <ele>459.6</ele>
        <time>2026-05-02T10:49:33Z</time>
      </trkpt>
      <trkpt lat="45.09679" lon="4.73721">
        <ele>459.7</ele>
        <time>2026-05-02T10:49:38Z</time>
      </trkpt>
      <trkpt lat="45.09672" lon="4.73723">
        <ele>459.7</ele>
        <time>2026-05-02T10:49:43Z</time>
      </trkpt>
      <trkpt lat="45.09666" lon="4.73726">
        <ele>459.8</ele>
        <time>2026-05-02T10:49:48Z</time>
      </trkpt>
      <trkpt lat="45.09659" lon="4.73727">
        <ele>459.8</ele>
        <time>2026-05-02T10:49:53Z</time>
      </trkpt>
      <trkpt lat="45.09652" lon="4.73729">
        <ele>459.8</ele>
        <time>2026-05-02T10:49:58Z</time>
      </trkpt>
      <trkpt lat="45.09645" lon="4.73731">
        <ele>459.7</ele>
        <time>2026-05-02T10:50:03Z</time>
      </trkpt>
      <trkpt lat="45.09638" lon="4.73734">
        <ele>459.7</ele>
        <time>2026-05-02T10:50:08Z</time>
      </trkpt>
      <trkpt lat="45.09631" lon="4.73735">
        <ele>459.7</ele>
        <time>2026-05-02T10:50:13Z</time>
      </trkpt>
      <trkpt lat="45.09624" lon="4.73734">
        <ele>459.5</ele>
        <time>2026-05-02T10:50:18Z</time>
      </trkpt>
      <trkpt lat="45.09617" lon="4.73733">
        <ele>459.4</ele>
        <time>2026-05-02T10:50:23Z</time>
      </trkpt>
      <trkpt lat="45.09611" lon="4.73734">
        <ele>459.3</ele>
        <time>2026-05-02T10:50:28Z</time>
      </trkpt>
      <trkpt lat="45.09605" lon="4.73731">
        <ele>459.1</ele>
        <time>2026-05-02T10:50:33Z</time>
      </trkpt>
      <trkpt lat="45.09599" lon="4.73729">
        <ele>459</ele>
        <time>2026-05-02T10:50:38Z</time>
      </trkpt>
      <trkpt lat="45.09594" lon="4.7373">
        <ele>458.9</ele>
        <time>2026-05-02T10:50:43Z</time>
      </trkpt>
      <trkpt lat="45.09593" lon="4.73729">
        <ele>458.9</ele>
        <time>2026-05-02T10:50:48Z</time>
      </trkpt>
      <trkpt lat="45.09592" lon="4.7373">
        <ele>458.9</ele>
        <time>2026-05-02T10:50:53Z</time>
      </trkpt>
      <trkpt lat="45.09593" lon="4.7373">
        <ele>458.9</ele>
        <time>2026-05-02T10:50:58Z</time>
      </trkpt>
      <trkpt lat="45.09595" lon="4.73736">
        <ele>459</ele>
        <time>2026-05-02T10:51:03Z</time>
      </trkpt>
      <trkpt lat="45.0959" lon="4.73743">
        <ele>459.1</ele>
        <time>2026-05-02T10:51:08Z</time>
      </trkpt>
      <trkpt lat="45.09587" lon="4.73751">
        <ele>459.1</ele>
        <time>2026-05-02T10:51:13Z</time>
      </trkpt>
      <trkpt lat="45.09582" lon="4.73758">
        <ele>458.9</ele>
        <time>2026-05-02T10:51:18Z</time>
      </trkpt>
      <trkpt lat="45.09576" lon="4.73766">
        <ele>458.8</ele>
        <time>2026-05-02T10:51:23Z</time>
      </trkpt>
      <trkpt lat="45.09571" lon="4.73775">
        <ele>458.7</ele>
        <time>2026-05-02T10:51:28Z</time>
      </trkpt>
      <trkpt lat="45.09565" lon="4.73782">
        <ele>458.6</ele>
        <time>2026-05-02T10:51:33Z</time>
      </trkpt>
      <trkpt lat="45.0956" lon="4.73788">
        <ele>458.5</ele>
        <time>2026-05-02T10:51:38Z</time>
      </trkpt>
      <trkpt lat="45.09554" lon="4.73794">
        <ele>458.5</ele>
        <time>2026-05-02T10:51:43Z</time>
      </trkpt>
      <trkpt lat="45.09549" lon="4.73801">
        <ele>458.4</ele>
        <time>2026-05-02T10:51:48Z</time>
      </trkpt>
      <trkpt lat="45.09545" lon="4.73806">
        <ele>458.3</ele>
        <time>2026-05-02T10:51:53Z</time>
      </trkpt>
      <trkpt lat="45.09545" lon="4.73806">
        <ele>458.3</ele>
        <time>2026-05-02T10:51:58Z</time>
      </trkpt>
      <trkpt lat="45.09545" lon="4.73807">
        <ele>458.3</ele>
        <time>2026-05-02T10:52:03Z</time>
      </trkpt>
      <trkpt lat="45.09545" lon="4.73807">
        <ele>458.3</ele>
        <time>2026-05-02T10:52:08Z</time>
      </trkpt>
      <trkpt lat="45.09542" lon="4.73812">
        <ele>458.3</ele>
        <time>2026-05-02T10:52:13Z</time>
      </trkpt>
      <trkpt lat="45.09538" lon="4.73818">
        <ele>458.2</ele>
        <time>2026-05-02T10:52:18Z</time>
      </trkpt>
      <trkpt lat="45.09538" lon="4.7382">
        <ele>458.2</ele>
        <time>2026-05-02T10:52:23Z</time>
      </trkpt>
      <trkpt lat="45.09535" lon="4.73823">
        <ele>458.1</ele>
        <time>2026-05-02T10:52:28Z</time>
      </trkpt>
      <trkpt lat="45.0953" lon="4.73829">
        <ele>458.1</ele>
        <time>2026-05-02T10:52:33Z</time>
      </trkpt>
      <trkpt lat="45.09524" lon="4.73835">
        <ele>458</ele>
        <time>2026-05-02T10:52:38Z</time>
      </trkpt>
      <trkpt lat="45.09519" lon="4.73841">
        <ele>457.8</ele>
        <time>2026-05-02T10:52:43Z</time>
      </trkpt>
      <trkpt lat="45.09513" lon="4.73849">
        <ele>457.6</ele>
        <time>2026-05-02T10:52:48Z</time>
      </trkpt>
      <trkpt lat="45.09511" lon="4.73859">
        <ele>457.3</ele>
        <time>2026-05-02T10:52:53Z</time>
      </trkpt>
      <trkpt lat="45.0951" lon="4.73869">
        <ele>457.1</ele>
        <time>2026-05-02T10:52:58Z</time>
      </trkpt>
      <trkpt lat="45.09511" lon="4.73879">
        <ele>456.8</ele>
        <time>2026-05-02T10:53:03Z</time>
      </trkpt>
      <trkpt lat="45.09512" lon="4.73889">
        <ele>456.6</ele>
        <time>2026-05-02T10:53:08Z</time>
      </trkpt>
      <trkpt lat="45.09513" lon="4.73899">
        <ele>456.3</ele>
        <time>2026-05-02T10:53:13Z</time>
      </trkpt>
      <trkpt lat="45.09515" lon="4.7391">
        <ele>456</ele>
        <time>2026-05-02T10:53:18Z</time>
      </trkpt>
      <trkpt lat="45.09516" lon="4.7392">
        <ele>455.7</ele>
        <time>2026-05-02T10:53:23Z</time>
      </trkpt>
      <trkpt lat="45.09518" lon="4.7393">
        <ele>455.5</ele>
        <time>2026-05-02T10:53:28Z</time>
      </trkpt>
      <trkpt lat="45.09519" lon="4.73938">
        <ele>455.3</ele>
        <time>2026-05-02T10:53:33Z</time>
      </trkpt>
      <trkpt lat="45.09521" lon="4.7395">
        <ele>455</ele>
        <time>2026-05-02T10:53:38Z</time>
      </trkpt>
      <trkpt lat="45.09522" lon="4.73959">
        <ele>454.9</ele>
        <time>2026-05-02T10:53:43Z</time>
      </trkpt>
      <trkpt lat="45.09523" lon="4.73969">
        <ele>454.6</ele>
        <time>2026-05-02T10:53:48Z</time>
      </trkpt>
      <trkpt lat="45.09523" lon="4.7398">
        <ele>454.4</ele>
        <time>2026-05-02T10:53:53Z</time>
      </trkpt>
      <trkpt lat="45.09524" lon="4.7399">
        <ele>454.2</ele>
        <time>2026-05-02T10:53:58Z</time>
      </trkpt>
      <trkpt lat="45.09524" lon="4.74001">
        <ele>454</ele>
        <time>2026-05-02T10:54:03Z</time>
      </trkpt>
      <trkpt lat="45.09526" lon="4.74011">
        <ele>453.7</ele>
        <time>2026-05-02T10:54:08Z</time>
      </trkpt>
      <trkpt lat="45.09526" lon="4.74022">
        <ele>453.4</ele>
        <time>2026-05-02T10:54:13Z</time>
      </trkpt>
      <trkpt lat="45.09527" lon="4.74034">
        <ele>453</ele>
        <time>2026-05-02T10:54:18Z</time>
      </trkpt>
      <trkpt lat="45.09528" lon="4.74044">
        <ele>452.8</ele>
        <time>2026-05-02T10:54:23Z</time>
      </trkpt>
      <trkpt lat="45.09529" lon="4.74055">
        <ele>452.5</ele>
        <time>2026-05-02T10:54:28Z</time>
      </trkpt>
      <trkpt lat="45.09531" lon="4.74066">
        <ele>452.2</ele>
        <time>2026-05-02T10:54:33Z</time>
      </trkpt>
      <trkpt lat="45.09532" lon="4.74077">
        <ele>451.9</ele>
        <time>2026-05-02T10:54:38Z</time>
      </trkpt>
      <trkpt lat="45.09533" lon="4.74088">
        <ele>451.7</ele>
        <time>2026-05-02T10:54:43Z</time>
      </trkpt>
      <trkpt lat="45.09533" lon="4.741">
        <ele>451.4</ele>
        <time>2026-05-02T10:54:48Z</time>
      </trkpt>
      <trkpt lat="45.09534" lon="4.7411">
        <ele>451.2</ele>
        <time>2026-05-02T10:54:53Z</time>
      </trkpt>
      <trkpt lat="45.09535" lon="4.7412">
        <ele>451</ele>
        <time>2026-05-02T10:54:58Z</time>
      </trkpt>
      <trkpt lat="45.09536" lon="4.74131">
        <ele>450.7</ele>
        <time>2026-05-02T10:55:03Z</time>
      </trkpt>
      <trkpt lat="45.09537" lon="4.7414">
        <ele>450.5</ele>
        <time>2026-05-02T10:55:08Z</time>
      </trkpt>
      <trkpt lat="45.09539" lon="4.74151">
        <ele>450.3</ele>
        <time>2026-05-02T10:55:13Z</time>
      </trkpt>
      <trkpt lat="45.09539" lon="4.74163">
        <ele>450</ele>
        <time>2026-05-02T10:55:18Z</time>
      </trkpt>
      <trkpt lat="45.09539" lon="4.74174">
        <ele>449.9</ele>
        <time>2026-05-02T10:55:23Z</time>
      </trkpt>
      <trkpt lat="45.09539" lon="4.74185">
        <ele>449.8</ele>
        <time>2026-05-02T10:55:28Z</time>
      </trkpt>
      <trkpt lat="45.0954" lon="4.74195">
        <ele>449.8</ele>
        <time>2026-05-02T10:55:33Z</time>
      </trkpt>
      <trkpt lat="45.09541" lon="4.74206">
        <ele>449.8</ele>
        <time>2026-05-02T10:55:38Z</time>
      </trkpt>
      <trkpt lat="45.09541" lon="4.74217">
        <ele>449.7</ele>
        <time>2026-05-02T10:55:43Z</time>
      </trkpt>
      <trkpt lat="45.09542" lon="4.74228">
        <ele>449.6</ele>
        <time>2026-05-02T10:55:48Z</time>
      </trkpt>
      <trkpt lat="45.09543" lon="4.74237">
        <ele>449.6</ele>
        <time>2026-05-02T10:55:53Z</time>
      </trkpt>
      <trkpt lat="45.09543" lon="4.74249">
        <ele>449.5</ele>
        <time>2026-05-02T10:55:58Z</time>
      </trkpt>
      <trkpt lat="45.09544" lon="4.7426">
        <ele>449.1</ele>
        <time>2026-05-02T10:56:03Z</time>
      </trkpt>
      <trkpt lat="45.09545" lon="4.74271">
        <ele>448.7</ele>
        <time>2026-05-02T10:56:08Z</time>
      </trkpt>
      <trkpt lat="45.09546" lon="4.74282">
        <ele>448.4</ele>
        <time>2026-05-02T10:56:13Z</time>
      </trkpt>
      <trkpt lat="45.09546" lon="4.74292">
        <ele>448</ele>
        <time>2026-05-02T10:56:18Z</time>
      </trkpt>
      <trkpt lat="45.09547" lon="4.74302">
        <ele>447.7</ele>
        <time>2026-05-02T10:56:23Z</time>
      </trkpt>
      <trkpt lat="45.09548" lon="4.74313">
        <ele>447.4</ele>
        <time>2026-05-02T10:56:28Z</time>
      </trkpt>
      <trkpt lat="45.09548" lon="4.74324">
        <ele>447</ele>
        <time>2026-05-02T10:56:33Z</time>
      </trkpt>
      <trkpt lat="45.09548" lon="4.74334">
        <ele>446.7</ele>
        <time>2026-05-02T10:56:38Z</time>
      </trkpt>
      <trkpt lat="45.09547" lon="4.74345">
        <ele>446.4</ele>
        <time>2026-05-02T10:56:43Z</time>
      </trkpt>
      <trkpt lat="45.09547" lon="4.74355">
        <ele>446.2</ele>
        <time>2026-05-02T10:56:48Z</time>
      </trkpt>
      <trkpt lat="45.09546" lon="4.74365">
        <ele>445.9</ele>
        <time>2026-05-02T10:56:53Z</time>
      </trkpt>
      <trkpt lat="45.09544" lon="4.74375">
        <ele>445.6</ele>
        <time>2026-05-02T10:56:58Z</time>
      </trkpt>
      <trkpt lat="45.09541" lon="4.74385">
        <ele>445.2</ele>
        <time>2026-05-02T10:57:03Z</time>
      </trkpt>
      <trkpt lat="45.0954" lon="4.74396">
        <ele>444.9</ele>
        <time>2026-05-02T10:57:08Z</time>
      </trkpt>
      <trkpt lat="45.09539" lon="4.74406">
        <ele>444.7</ele>
        <time>2026-05-02T10:57:13Z</time>
      </trkpt>
      <trkpt lat="45.09538" lon="4.7441">
        <ele>444.5</ele>
        <time>2026-05-02T10:57:18Z</time>
      </trkpt>
      <trkpt lat="45.09537" lon="4.74413">
        <ele>444.4</ele>
        <time>2026-05-02T10:57:23Z</time>
      </trkpt>
      <trkpt lat="45.09535" lon="4.74422">
        <ele>444.3</ele>
        <time>2026-05-02T10:57:28Z</time>
      </trkpt>
      <trkpt lat="45.09533" lon="4.74432">
        <ele>444.2</ele>
        <time>2026-05-02T10:57:33Z</time>
      </trkpt>
      <trkpt lat="45.09531" lon="4.74442">
        <ele>444.2</ele>
        <time>2026-05-02T10:57:38Z</time>
      </trkpt>
      <trkpt lat="45.09529" lon="4.74451">
        <ele>444.2</ele>
        <time>2026-05-02T10:57:43Z</time>
      </trkpt>
      <trkpt lat="45.09527" lon="4.7446">
        <ele>444.2</ele>
        <time>2026-05-02T10:57:48Z</time>
      </trkpt>
      <trkpt lat="45.09523" lon="4.74471">
        <ele>444.1</ele>
        <time>2026-05-02T10:57:53Z</time>
      </trkpt>
      <trkpt lat="45.09519" lon="4.74482">
        <ele>444.1</ele>
        <time>2026-05-02T10:57:58Z</time>
      </trkpt>
      <trkpt lat="45.09516" lon="4.74493">
        <ele>444.1</ele>
        <time>2026-05-02T10:58:03Z</time>
      </trkpt>
      <trkpt lat="45.09512" lon="4.74501">
        <ele>444.2</ele>
        <time>2026-05-02T10:58:08Z</time>
      </trkpt>
      <trkpt lat="45.09509" lon="4.7451">
        <ele>444.2</ele>
        <time>2026-05-02T10:58:13Z</time>
      </trkpt>
      <trkpt lat="45.09506" lon="4.74518">
        <ele>444.3</ele>
        <time>2026-05-02T10:58:18Z</time>
      </trkpt>
      <trkpt lat="45.09502" lon="4.74527">
        <ele>444.3</ele>
        <time>2026-05-02T10:58:23Z</time>
      </trkpt>
      <trkpt lat="45.09499" lon="4.74537">
        <ele>444.4</ele>
        <time>2026-05-02T10:58:28Z</time>
      </trkpt>
      <trkpt lat="45.09495" lon="4.74547">
        <ele>444.5</ele>
        <time>2026-05-02T10:58:33Z</time>
      </trkpt>
      <trkpt lat="45.09492" lon="4.74556">
        <ele>444.5</ele>
        <time>2026-05-02T10:58:38Z</time>
      </trkpt>
      <trkpt lat="45.09488" lon="4.74566">
        <ele>444.5</ele>
        <time>2026-05-02T10:58:43Z</time>
      </trkpt>
      <trkpt lat="45.09484" lon="4.74574">
        <ele>444.5</ele>
        <time>2026-05-02T10:58:48Z</time>
      </trkpt>
      <trkpt lat="45.09482" lon="4.74581">
        <ele>444.5</ele>
        <time>2026-05-02T10:58:53Z</time>
      </trkpt>
      <trkpt lat="45.09478" lon="4.74591">
        <ele>444.3</ele>
        <time>2026-05-02T10:58:58Z</time>
      </trkpt>
      <trkpt lat="45.09475" lon="4.74601">
        <ele>443.9</ele>
        <time>2026-05-02T10:59:03Z</time>
      </trkpt>
      <trkpt lat="45.09472" lon="4.7461">
        <ele>443.5</ele>
        <time>2026-05-02T10:59:08Z</time>
      </trkpt>
      <trkpt lat="45.09468" lon="4.74618">
        <ele>443</ele>
        <time>2026-05-02T10:59:13Z</time>
      </trkpt>
      <trkpt lat="45.09465" lon="4.74626">
        <ele>442.6</ele>
        <time>2026-05-02T10:59:18Z</time>
      </trkpt>
      <trkpt lat="45.09462" lon="4.74635">
        <ele>442.1</ele>
        <time>2026-05-02T10:59:23Z</time>
      </trkpt>
      <trkpt lat="45.09458" lon="4.74643">
        <ele>441.5</ele>
        <time>2026-05-02T10:59:28Z</time>
      </trkpt>
      <trkpt lat="45.09454" lon="4.74651">
        <ele>440.8</ele>
        <time>2026-05-02T10:59:33Z</time>
      </trkpt>
      <trkpt lat="45.0945" lon="4.74658">
        <ele>440.2</ele>
        <time>2026-05-02T10:59:38Z</time>
      </trkpt>
      <trkpt lat="45.09446" lon="4.74666">
        <ele>439.5</ele>
        <time>2026-05-02T10:59:43Z</time>
      </trkpt>
      <trkpt lat="45.09444" lon="4.74675">
        <ele>438.9</ele>
        <time>2026-05-02T10:59:48Z</time>
      </trkpt>
      <trkpt lat="45.0944" lon="4.74681">
        <ele>438.2</ele>
        <time>2026-05-02T10:59:53Z</time>
      </trkpt>
      <trkpt lat="45.09436" lon="4.74691">
        <ele>437.3</ele>
        <time>2026-05-02T10:59:58Z</time>
      </trkpt>
      <trkpt lat="45.09431" lon="4.74699">
        <ele>436.4</ele>
        <time>2026-05-02T11:00:03Z</time>
      </trkpt>
      <trkpt lat="45.09428" lon="4.74706">
        <ele>435.7</ele>
        <time>2026-05-02T11:00:08Z</time>
      </trkpt>
      <trkpt lat="45.09425" lon="4.74714">
        <ele>435</ele>
        <time>2026-05-02T11:00:13Z</time>
      </trkpt>
      <trkpt lat="45.09422" lon="4.74722">
        <ele>434.2</ele>
        <time>2026-05-02T11:00:18Z</time>
      </trkpt>
      <trkpt lat="45.09419" lon="4.74731">
        <ele>433.4</ele>
        <time>2026-05-02T11:00:23Z</time>
      </trkpt>
      <trkpt lat="45.09417" lon="4.74739">
        <ele>432.7</ele>
        <time>2026-05-02T11:00:28Z</time>
      </trkpt>
      <trkpt lat="45.09417" lon="4.74747">
        <ele>432.2</ele>
        <time>2026-05-02T11:00:33Z</time>
      </trkpt>
      <trkpt lat="45.09417" lon="4.74756">
        <ele>431.5</ele>
        <time>2026-05-02T11:00:38Z</time>
      </trkpt>
      <trkpt lat="45.09417" lon="4.74766">
        <ele>430.5</ele>
        <time>2026-05-02T11:00:43Z</time>
      </trkpt>
      <trkpt lat="45.09418" lon="4.74773">
        <ele>430</ele>
        <time>2026-05-02T11:00:48Z</time>
      </trkpt>
      <trkpt lat="45.09419" lon="4.74774">
        <ele>430</ele>
        <time>2026-05-02T11:00:53Z</time>
      </trkpt>
      <trkpt lat="45.09419" lon="4.74774">
        <ele>430</ele>
        <time>2026-05-02T11:00:58Z</time>
      </trkpt>
      <trkpt lat="45.09419" lon="4.74774">
        <ele>430</ele>
        <time>2026-05-02T11:01:03Z</time>
      </trkpt>
      <trkpt lat="45.09419" lon="4.74774">
        <ele>430</ele>
        <time>2026-05-02T11:01:08Z</time>
      </trkpt>
      <trkpt lat="45.09419" lon="4.74774">
        <ele>430</ele>
        <time>2026-05-02T11:01:13Z</time>
      </trkpt>
      <trkpt lat="45.09419" lon="4.74774">
        <ele>430</ele>
        <time>2026-05-02T11:01:18Z</time>
      </trkpt>
      <trkpt lat="45.09419" lon="4.74774">
        <ele>430</ele>
        <time>2026-05-02T11:01:23Z</time>
      </trkpt>
      <trkpt lat="45.09419" lon="4.74774">
        <ele>430</ele>
        <time>2026-05-02T11:01:28Z</time>
      </trkpt>
      <trkpt lat="45.09419" lon="4.74774">
        <ele>430</ele>
        <time>2026-05-02T11:01:33Z</time>
      </trkpt>
      <trkpt lat="45.09419" lon="4.74774">
        <ele>430</ele>
        <time>2026-05-02T11:01:38Z</time>
      </trkpt>
      <trkpt lat="45.09419" lon="4.74774">
        <ele>430</ele>
        <time>2026-05-02T11:01:43Z</time>
      </trkpt>
      <trkpt lat="45.09419" lon="4.74774">
        <ele>430</ele>
        <time>2026-05-02T11:01:48Z</time>
      </trkpt>
      <trkpt lat="45.09419" lon="4.74774">
        <ele>430</ele>
        <time>2026-05-02T11:01:53Z</time>
      </trkpt>
      <trkpt lat="45.09419" lon="4.74774">
        <ele>430</ele>
        <time>2026-05-02T11:01:58Z</time>
      </trkpt>
      <trkpt lat="45.09419" lon="4.74774">
        <ele>430</ele>
        <time>2026-05-02T11:02:03Z</time>
      </trkpt>
      <trkpt lat="45.09419" lon="4.74774">
        <ele>430</ele>
        <time>2026-05-02T11:02:08Z</time>
      </trkpt>
      <trkpt lat="45.09419" lon="4.74774">
        <ele>430</ele>
        <time>2026-05-02T11:02:13Z</time>
      </trkpt>
      <trkpt lat="45.09419" lon="4.74774">
        <ele>430</ele>
        <time>2026-05-02T11:02:18Z</time>
      </trkpt>
      <trkpt lat="45.09419" lon="4.74774">
        <ele>430</ele>
        <time>2026-05-02T11:02:23Z</time>
      </trkpt>
      <trkpt lat="45.09419" lon="4.74774">
        <ele>430</ele>
        <time>2026-05-02T11:02:28Z</time>
      </trkpt>
      <trkpt lat="45.09419" lon="4.74774">
        <ele>430</ele>
        <time>2026-05-02T11:02:33Z</time>
      </trkpt>
      <trkpt lat="45.09419" lon="4.74774">
        <ele>430</ele>
        <time>2026-05-02T11:02:38Z</time>
      </trkpt>
      <trkpt lat="45.09419" lon="4.74774">
        <ele>430</ele>
        <time>2026-05-02T11:02:43Z</time>
      </trkpt>
      <trkpt lat="45.09419" lon="4.74774">
        <ele>430</ele>
        <time>2026-05-02T11:02:48Z</time>
      </trkpt>
      <trkpt lat="45.09419" lon="4.74774">
        <ele>430</ele>
        <time>2026-05-02T11:02:53Z</time>
      </trkpt>
      <trkpt lat="45.09419" lon="4.74774">
        <ele>430</ele>
        <time>2026-05-02T11:02:58Z</time>
      </trkpt>
      <trkpt lat="45.09419" lon="4.74774">
        <ele>430</ele>
        <time>2026-05-02T11:03:03Z</time>
      </trkpt>
      <trkpt lat="45.09419" lon="4.74774">
        <ele>430</ele>
        <time>2026-05-02T11:03:08Z</time>
      </trkpt>
      <trkpt lat="45.09419" lon="4.74774">
        <ele>430</ele>
        <time>2026-05-02T11:03:13Z</time>
      </trkpt>
      <trkpt lat="45.09419" lon="4.74774">
        <ele>430</ele>
        <time>2026-05-02T11:03:18Z</time>
      </trkpt>
      <trkpt lat="45.09419" lon="4.74774">
        <ele>430</ele>
        <time>2026-05-02T11:03:23Z</time>
      </trkpt>
      <trkpt lat="45.09419" lon="4.74774">
        <ele>430</ele>
        <time>2026-05-02T11:03:28Z</time>
      </trkpt>
      <trkpt lat="45.09419" lon="4.74774">
        <ele>430</ele>
        <time>2026-05-02T11:03:33Z</time>
      </trkpt>
      <trkpt lat="45.09419" lon="4.74774">
        <ele>430</ele>
        <time>2026-05-02T11:03:38Z</time>
      </trkpt>
      <trkpt lat="45.09419" lon="4.74774">
        <ele>430</ele>
        <time>2026-05-02T11:03:43Z</time>
      </trkpt>
      <trkpt lat="45.09419" lon="4.74774">
        <ele>430</ele>
        <time>2026-05-02T11:03:48Z</time>
      </trkpt>
      <trkpt lat="45.09419" lon="4.74774">
        <ele>430</ele>
        <time>2026-05-02T11:03:53Z</time>
      </trkpt>
      <trkpt lat="45.09419" lon="4.74774">
        <ele>430</ele>
        <time>2026-05-02T11:03:58Z</time>
      </trkpt>
      <trkpt lat="45.09419" lon="4.74774">
        <ele>430</ele>
        <time>2026-05-02T11:04:03Z</time>
      </trkpt>
      <trkpt lat="45.09419" lon="4.74774">
        <ele>430</ele>
        <time>2026-05-02T11:04:08Z</time>
      </trkpt>
      <trkpt lat="45.09419" lon="4.74774">
        <ele>430</ele>
        <time>2026-05-02T11:04:13Z</time>
      </trkpt>
      <trkpt lat="45.09419" lon="4.74774">
        <ele>430</ele>
        <time>2026-05-02T11:04:18Z</time>
      </trkpt>
      <trkpt lat="45.09419" lon="4.74774">
        <ele>430</ele>
        <time>2026-05-02T11:04:23Z</time>
      </trkpt>
      <trkpt lat="45.09419" lon="4.74774">
        <ele>430</ele>
        <time>2026-05-02T11:04:28Z</time>
      </trkpt>
      <trkpt lat="45.09419" lon="4.74774">
        <ele>430</ele>
        <time>2026-05-02T11:04:33Z</time>
      </trkpt>
      <trkpt lat="45.09419" lon="4.74774">
        <ele>430</ele>
        <time>2026-05-02T11:04:38Z</time>
      </trkpt>
      <trkpt lat="45.09419" lon="4.74774">
        <ele>430</ele>
        <time>2026-05-02T11:04:43Z</time>
      </trkpt>
      <trkpt lat="45.09419" lon="4.74774">
        <ele>430</ele>
        <time>2026-05-02T11:04:48Z</time>
      </trkpt>
      <trkpt lat="45.09419" lon="4.74774">
        <ele>430</ele>
        <time>2026-05-02T11:04:53Z</time>
      </trkpt>
      <trkpt lat="45.09419" lon="4.74774">
        <ele>430</ele>
        <time>2026-05-02T11:04:58Z</time>
      </trkpt>
      <trkpt lat="45.09419" lon="4.74774">
        <ele>430</ele>
        <time>2026-05-02T11:05:03Z</time>
      </trkpt>
      <trkpt lat="45.09419" lon="4.74781">
        <ele>429.3</ele>
        <time>2026-05-02T11:05:08Z</time>
      </trkpt>
      <trkpt lat="45.09418" lon="4.74788">
        <ele>428.5</ele>
        <time>2026-05-02T11:05:13Z</time>
      </trkpt>
      <trkpt lat="45.09418" lon="4.74789">
        <ele>428.4</ele>
        <time>2026-05-02T11:05:18Z</time>
      </trkpt>
      <trkpt lat="45.09418" lon="4.74789">
        <ele>428.4</ele>
        <time>2026-05-02T11:05:23Z</time>
      </trkpt>
      <trkpt lat="45.09418" lon="4.74799">
        <ele>427.5</ele>
        <time>2026-05-02T11:05:28Z</time>
      </trkpt>
      <trkpt lat="45.09417" lon="4.74805">
        <ele>426.8</ele>
        <time>2026-05-02T11:05:33Z</time>
      </trkpt>
      <trkpt lat="45.09417" lon="4.74808">
        <ele>426.5</ele>
        <time>2026-05-02T11:05:38Z</time>
      </trkpt>
      <trkpt lat="45.09417" lon="4.74812">
        <ele>426.1</ele>
        <time>2026-05-02T11:05:43Z</time>
      </trkpt>
      <trkpt lat="45.09416" lon="4.74821">
        <ele>425.1</ele>
        <time>2026-05-02T11:05:48Z</time>
      </trkpt>
      <trkpt lat="45.09417" lon="4.74828">
        <ele>424.6</ele>
        <time>2026-05-02T11:05:53Z</time>
      </trkpt>
      <trkpt lat="45.09418" lon="4.74833">
        <ele>424.2</ele>
        <time>2026-05-02T11:05:58Z</time>
      </trkpt>
      <trkpt lat="45.09418" lon="4.74839">
        <ele>423.7</ele>
        <time>2026-05-02T11:06:03Z</time>
      </trkpt>
      <trkpt lat="45.09418" lon="4.74847">
        <ele>423.1</ele>
        <time>2026-05-02T11:06:08Z</time>
      </trkpt>
      <trkpt lat="45.0942" lon="4.74853">
        <ele>422.9</ele>
        <time>2026-05-02T11:06:13Z</time>
      </trkpt>
      <trkpt lat="45.09419" lon="4.74859">
        <ele>422.2</ele>
        <time>2026-05-02T11:06:18Z</time>
      </trkpt>
      <trkpt lat="45.0942" lon="4.74866">
        <ele>421.8</ele>
        <time>2026-05-02T11:06:23Z</time>
      </trkpt>
      <trkpt lat="45.09418" lon="4.74877">
        <ele>420.5</ele>
        <time>2026-05-02T11:06:28Z</time>
      </trkpt>
      <trkpt lat="45.09417" lon="4.7489">
        <ele>419.3</ele>
        <time>2026-05-02T11:06:33Z</time>
      </trkpt>
      <trkpt lat="45.09417" lon="4.74899">
        <ele>418.5</ele>
        <time>2026-05-02T11:06:38Z</time>
      </trkpt>
      <trkpt lat="45.09417" lon="4.74909">
        <ele>417.7</ele>
        <time>2026-05-02T11:06:43Z</time>
      </trkpt>
      <trkpt lat="45.09417" lon="4.74917">
        <ele>417</ele>
        <time>2026-05-02T11:06:48Z</time>
      </trkpt>
      <trkpt lat="45.09415" lon="4.74927">
        <ele>416.7</ele>
        <time>2026-05-02T11:06:53Z</time>
      </trkpt>
      <trkpt lat="45.09415" lon="4.74936">
        <ele>416.7</ele>
        <time>2026-05-02T11:06:58Z</time>
      </trkpt>
      <trkpt lat="45.09415" lon="4.74947">
        <ele>416.7</ele>
        <time>2026-05-02T11:07:03Z</time>
      </trkpt>
      <trkpt lat="45.09415" lon="4.74959">
        <ele>416.7</ele>
        <time>2026-05-02T11:07:08Z</time>
      </trkpt>
      <trkpt lat="45.09415" lon="4.74971">
        <ele>416.7</ele>
        <time>2026-05-02T11:07:13Z</time>
      </trkpt>
      <trkpt lat="45.09415" lon="4.7498">
        <ele>416.7</ele>
        <time>2026-05-02T11:07:18Z</time>
      </trkpt>
      <trkpt lat="45.09416" lon="4.74991">
        <ele>416.9</ele>
        <time>2026-05-02T11:07:23Z</time>
      </trkpt>
      <trkpt lat="45.09416" lon="4.75003">
        <ele>416.9</ele>
        <time>2026-05-02T11:07:28Z</time>
      </trkpt>
      <trkpt lat="45.09416" lon="4.75013">
        <ele>416.8</ele>
        <time>2026-05-02T11:07:33Z</time>
      </trkpt>
      <trkpt lat="45.09416" lon="4.75023">
        <ele>416.6</ele>
        <time>2026-05-02T11:07:38Z</time>
      </trkpt>
      <trkpt lat="45.09417" lon="4.75032">
        <ele>416.6</ele>
        <time>2026-05-02T11:07:43Z</time>
      </trkpt>
      <trkpt lat="45.09417" lon="4.7504">
        <ele>416.5</ele>
        <time>2026-05-02T11:07:48Z</time>
      </trkpt>
      <trkpt lat="45.09418" lon="4.75049">
        <ele>416.5</ele>
        <time>2026-05-02T11:07:53Z</time>
      </trkpt>
      <trkpt lat="45.09418" lon="4.75059">
        <ele>416.4</ele>
        <time>2026-05-02T11:07:58Z</time>
      </trkpt>
      <trkpt lat="45.09419" lon="4.75068">
        <ele>416.4</ele>
        <time>2026-05-02T11:08:03Z</time>
      </trkpt>
      <trkpt lat="45.09418" lon="4.75079">
        <ele>416.1</ele>
        <time>2026-05-02T11:08:08Z</time>
      </trkpt>
      <trkpt lat="45.09418" lon="4.75092">
        <ele>415.8</ele>
        <time>2026-05-02T11:08:13Z</time>
      </trkpt>
      <trkpt lat="45.09419" lon="4.75103">
        <ele>415.5</ele>
        <time>2026-05-02T11:08:18Z</time>
      </trkpt>
      <trkpt lat="45.0942" lon="4.75112">
        <ele>415.2</ele>
        <time>2026-05-02T11:08:23Z</time>
      </trkpt>
      <trkpt lat="45.09421" lon="4.75123">
        <ele>414.9</ele>
        <time>2026-05-02T11:08:28Z</time>
      </trkpt>
      <trkpt lat="45.09422" lon="4.75134">
        <ele>414.5</ele>
        <time>2026-05-02T11:08:33Z</time>
      </trkpt>
      <trkpt lat="45.09422" lon="4.75144">
        <ele>414.2</ele>
        <time>2026-05-02T11:08:38Z</time>
      </trkpt>
      <trkpt lat="45.09424" lon="4.75155">
        <ele>413.9</ele>
        <time>2026-05-02T11:08:43Z</time>
      </trkpt>
      <trkpt lat="45.09426" lon="4.75164">
        <ele>413.7</ele>
        <time>2026-05-02T11:08:48Z</time>
      </trkpt>
      <trkpt lat="45.09427" lon="4.75173">
        <ele>413.2</ele>
        <time>2026-05-02T11:08:53Z</time>
      </trkpt>
      <trkpt lat="45.09429" lon="4.75182">
        <ele>412.8</ele>
        <time>2026-05-02T11:08:58Z</time>
      </trkpt>
      <trkpt lat="45.0943" lon="4.7519">
        <ele>412.4</ele>
        <time>2026-05-02T11:09:03Z</time>
      </trkpt>
      <trkpt lat="45.09433" lon="4.75196">
        <ele>412.2</ele>
        <time>2026-05-02T11:09:08Z</time>
      </trkpt>
      <trkpt lat="45.09434" lon="4.75206">
        <ele>411.7</ele>
        <time>2026-05-02T11:09:13Z</time>
      </trkpt>
      <trkpt lat="45.09436" lon="4.75216">
        <ele>411.2</ele>
        <time>2026-05-02T11:09:18Z</time>
      </trkpt>
      <trkpt lat="45.09439" lon="4.75224">
        <ele>410.9</ele>
        <time>2026-05-02T11:09:23Z</time>
      </trkpt>
      <trkpt lat="45.09441" lon="4.75232">
        <ele>410.5</ele>
        <time>2026-05-02T11:09:28Z</time>
      </trkpt>
      <trkpt lat="45.09444" lon="4.7524">
        <ele>410.2</ele>
        <time>2026-05-02T11:09:33Z</time>
      </trkpt>
      <trkpt lat="45.09447" lon="4.75249">
        <ele>409.9</ele>
        <time>2026-05-02T11:09:38Z</time>
      </trkpt>
      <trkpt lat="45.09451" lon="4.75255">
        <ele>409.4</ele>
        <time>2026-05-02T11:09:43Z</time>
      </trkpt>
      <trkpt lat="45.09456" lon="4.7526">
        <ele>409</ele>
        <time>2026-05-02T11:09:48Z</time>
      </trkpt>
      <trkpt lat="45.09462" lon="4.75265">
        <ele>408.7</ele>
        <time>2026-05-02T11:09:53Z</time>
      </trkpt>
      <trkpt lat="45.09468" lon="4.7527">
        <ele>408.4</ele>
        <time>2026-05-02T11:09:58Z</time>
      </trkpt>
      <trkpt lat="45.09475" lon="4.75273">
        <ele>408.5</ele>
        <time>2026-05-02T11:10:03Z</time>
      </trkpt>
      <trkpt lat="45.09481" lon="4.75275">
        <ele>408.6</ele>
        <time>2026-05-02T11:10:08Z</time>
      </trkpt>
      <trkpt lat="45.09488" lon="4.75277">
        <ele>408.7</ele>
        <time>2026-05-02T11:10:13Z</time>
      </trkpt>
      <trkpt lat="45.09494" lon="4.75282">
        <ele>408.4</ele>
        <time>2026-05-02T11:10:18Z</time>
      </trkpt>
      <trkpt lat="45.09499" lon="4.7529">
        <ele>407.7</ele>
        <time>2026-05-02T11:10:23Z</time>
      </trkpt>
      <trkpt lat="45.09502" lon="4.75296">
        <ele>406.9</ele>
        <time>2026-05-02T11:10:28Z</time>
      </trkpt>
      <trkpt lat="45.09504" lon="4.75303">
        <ele>405.9</ele>
        <time>2026-05-02T11:10:33Z</time>
      </trkpt>
      <trkpt lat="45.09502" lon="4.7531">
        <ele>405</ele>
        <time>2026-05-02T11:10:38Z</time>
      </trkpt>
      <trkpt lat="45.09498" lon="4.75318">
        <ele>403.9</ele>
        <time>2026-05-02T11:10:43Z</time>
      </trkpt>
      <trkpt lat="45.09493" lon="4.75324">
        <ele>402.8</ele>
        <time>2026-05-02T11:10:48Z</time>
      </trkpt>
      <trkpt lat="45.09487" lon="4.75329">
        <ele>401.8</ele>
        <time>2026-05-02T11:10:53Z</time>
      </trkpt>
      <trkpt lat="45.0948" lon="4.75334">
        <ele>400.7</ele>
        <time>2026-05-02T11:10:58Z</time>
      </trkpt>
      <trkpt lat="45.09476" lon="4.75339">
        <ele>399.4</ele>
        <time>2026-05-02T11:11:03Z</time>
      </trkpt>
      <trkpt lat="45.09472" lon="4.75344">
        <ele>398.2</ele>
        <time>2026-05-02T11:11:08Z</time>
      </trkpt>
      <trkpt lat="45.09468" lon="4.75348">
        <ele>397.1</ele>
        <time>2026-05-02T11:11:13Z</time>
      </trkpt>
      <trkpt lat="45.09463" lon="4.75353">
        <ele>395.8</ele>
        <time>2026-05-02T11:11:18Z</time>
      </trkpt>
      <trkpt lat="45.09458" lon="4.75357">
        <ele>394.6</ele>
        <time>2026-05-02T11:11:23Z</time>
      </trkpt>
      <trkpt lat="45.09453" lon="4.75361">
        <ele>393.5</ele>
        <time>2026-05-02T11:11:28Z</time>
      </trkpt>
      <trkpt lat="45.09448" lon="4.75364">
        <ele>392.5</ele>
        <time>2026-05-02T11:11:33Z</time>
      </trkpt>
      <trkpt lat="45.09443" lon="4.75364">
        <ele>392.2</ele>
        <time>2026-05-02T11:11:38Z</time>
      </trkpt>
      <trkpt lat="45.09438" lon="4.75367">
        <ele>391.2</ele>
        <time>2026-05-02T11:11:43Z</time>
      </trkpt>
      <trkpt lat="45.09432" lon="4.75371">
        <ele>390</ele>
        <time>2026-05-02T11:11:48Z</time>
      </trkpt>
      <trkpt lat="45.09427" lon="4.75373">
        <ele>389.2</ele>
        <time>2026-05-02T11:11:53Z</time>
      </trkpt>
      <trkpt lat="45.09421" lon="4.75377">
        <ele>387.9</ele>
        <time>2026-05-02T11:11:58Z</time>
      </trkpt>
      <trkpt lat="45.09416" lon="4.75379">
        <ele>387.2</ele>
        <time>2026-05-02T11:12:03Z</time>
      </trkpt>
      <trkpt lat="45.09411" lon="4.75381">
        <ele>387</ele>
        <time>2026-05-02T11:12:08Z</time>
      </trkpt>
      <trkpt lat="45.09409" lon="4.75386">
        <ele>386</ele>
        <time>2026-05-02T11:12:13Z</time>
      </trkpt>
      <trkpt lat="45.09411" lon="4.75393">
        <ele>384.4</ele>
        <time>2026-05-02T11:12:18Z</time>
      </trkpt>
      <trkpt lat="45.09412" lon="4.75404">
        <ele>381.9</ele>
        <time>2026-05-02T11:12:23Z</time>
      </trkpt>
      <trkpt lat="45.09413" lon="4.75413">
        <ele>379.9</ele>
        <time>2026-05-02T11:12:28Z</time>
      </trkpt>
      <trkpt lat="45.09416" lon="4.7542">
        <ele>378.5</ele>
        <time>2026-05-02T11:12:33Z</time>
      </trkpt>
      <trkpt lat="45.09418" lon="4.75427">
        <ele>377.4</ele>
        <time>2026-05-02T11:12:38Z</time>
      </trkpt>
      <trkpt lat="45.09421" lon="4.75434">
        <ele>376.5</ele>
        <time>2026-05-02T11:12:43Z</time>
      </trkpt>
      <trkpt lat="45.09421" lon="4.75444">
        <ele>374.8</ele>
        <time>2026-05-02T11:12:48Z</time>
      </trkpt>
      <trkpt lat="45.0942" lon="4.75452">
        <ele>373.4</ele>
        <time>2026-05-02T11:12:53Z</time>
      </trkpt>
      <trkpt lat="45.09418" lon="4.75458">
        <ele>372.2</ele>
        <time>2026-05-02T11:12:58Z</time>
      </trkpt>
      <trkpt lat="45.09414" lon="4.75465">
        <ele>370.8</ele>
        <time>2026-05-02T11:13:03Z</time>
      </trkpt>
      <trkpt lat="45.0941" lon="4.75471">
        <ele>369.6</ele>
        <time>2026-05-02T11:13:08Z</time>
      </trkpt>
      <trkpt lat="45.09405" lon="4.75477">
        <ele>368.3</ele>
        <time>2026-05-02T11:13:13Z</time>
      </trkpt>
      <trkpt lat="45.09401" lon="4.75483">
        <ele>366.9</ele>
        <time>2026-05-02T11:13:18Z</time>
      </trkpt>
      <trkpt lat="45.09397" lon="4.75489">
        <ele>365.5</ele>
        <time>2026-05-02T11:13:23Z</time>
      </trkpt>
      <trkpt lat="45.09397" lon="4.75492">
        <ele>364.9</ele>
        <time>2026-05-02T11:13:28Z</time>
      </trkpt>
      <trkpt lat="45.09398" lon="4.75492">
        <ele>365</ele>
        <time>2026-05-02T11:13:33Z</time>
      </trkpt>
      <trkpt lat="45.09395" lon="4.75495">
        <ele>364.2</ele>
        <time>2026-05-02T11:13:38Z</time>
      </trkpt>
      <trkpt lat="45.0939" lon="4.75499">
        <ele>363</ele>
        <time>2026-05-02T11:13:43Z</time>
      </trkpt>
      <trkpt lat="45.09384" lon="4.75507">
        <ele>362.2</ele>
        <time>2026-05-02T11:13:48Z</time>
      </trkpt>
      <trkpt lat="45.09379" lon="4.75511">
        <ele>361.8</ele>
        <time>2026-05-02T11:13:53Z</time>
      </trkpt>
      <trkpt lat="45.09372" lon="4.75513">
        <ele>361.3</ele>
        <time>2026-05-02T11:13:58Z</time>
      </trkpt>
      <trkpt lat="45.09367" lon="4.75513">
        <ele>360.9</ele>
        <time>2026-05-02T11:14:03Z</time>
      </trkpt>
      <trkpt lat="45.09364" lon="4.75513">
        <ele>360.7</ele>
        <time>2026-05-02T11:14:08Z</time>
      </trkpt>
      <trkpt lat="45.09359" lon="4.75513">
        <ele>360.3</ele>
        <time>2026-05-02T11:14:13Z</time>
      </trkpt>
      <trkpt lat="45.09354" lon="4.75512">
        <ele>359.9</ele>
        <time>2026-05-02T11:14:18Z</time>
      </trkpt>
      <trkpt lat="45.0935" lon="4.75509">
        <ele>359.5</ele>
        <time>2026-05-02T11:14:23Z</time>
      </trkpt>
      <trkpt lat="45.09346" lon="4.75504">
        <ele>359.1</ele>
        <time>2026-05-02T11:14:28Z</time>
      </trkpt>
      <trkpt lat="45.09342" lon="4.75499">
        <ele>359</ele>
        <time>2026-05-02T11:14:33Z</time>
      </trkpt>
      <trkpt lat="45.09336" lon="4.75498">
        <ele>358.8</ele>
        <time>2026-05-02T11:14:38Z</time>
      </trkpt>
      <trkpt lat="45.09329" lon="4.75501">
        <ele>358.8</ele>
        <time>2026-05-02T11:14:43Z</time>
      </trkpt>
      <trkpt lat="45.09326" lon="4.75504">
        <ele>359.4</ele>
        <time>2026-05-02T11:14:48Z</time>
      </trkpt>
      <trkpt lat="45.09325" lon="4.7551">
        <ele>359.6</ele>
        <time>2026-05-02T11:14:53Z</time>
      </trkpt>
      <trkpt lat="45.09325" lon="4.75514">
        <ele>359.6</ele>
        <time>2026-05-02T11:14:58Z</time>
      </trkpt>
      <trkpt lat="45.09327" lon="4.75523">
        <ele>359.3</ele>
        <time>2026-05-02T11:15:03Z</time>
      </trkpt>
      <trkpt lat="45.09329" lon="4.75531">
        <ele>359.2</ele>
        <time>2026-05-02T11:15:08Z</time>
      </trkpt>
      <trkpt lat="45.09333" lon="4.75538">
        <ele>358.9</ele>
        <time>2026-05-02T11:15:13Z</time>
      </trkpt>
      <trkpt lat="45.09337" lon="4.75542">
        <ele>359.2</ele>
        <time>2026-05-02T11:15:18Z</time>
      </trkpt>
      <trkpt lat="45.09339" lon="4.75546">
        <ele>359.4</ele>
        <time>2026-05-02T11:15:23Z</time>
      </trkpt>
      <trkpt lat="45.09346" lon="4.75553">
        <ele>359.9</ele>
        <time>2026-05-02T11:15:28Z</time>
      </trkpt>
      <trkpt lat="45.09351" lon="4.7556">
        <ele>360.3</ele>
        <time>2026-05-02T11:15:33Z</time>
      </trkpt>
      <trkpt lat="45.09356" lon="4.75563">
        <ele>360.6</ele>
        <time>2026-05-02T11:15:38Z</time>
      </trkpt>
      <trkpt lat="45.09361" lon="4.75566">
        <ele>360.9</ele>
        <time>2026-05-02T11:15:43Z</time>
      </trkpt>
      <trkpt lat="45.09365" lon="4.75569">
        <ele>361.1</ele>
        <time>2026-05-02T11:15:48Z</time>
      </trkpt>
      <trkpt lat="45.09371" lon="4.75569">
        <ele>361.3</ele>
        <time>2026-05-02T11:15:53Z</time>
      </trkpt>
      <trkpt lat="45.09377" lon="4.75571">
        <ele>361.6</ele>
        <time>2026-05-02T11:15:58Z</time>
      </trkpt>
      <trkpt lat="45.0938" lon="4.75572">
        <ele>361.7</ele>
        <time>2026-05-02T11:16:03Z</time>
      </trkpt>
      <trkpt lat="45.09381" lon="4.75572">
        <ele>361.8</ele>
        <time>2026-05-02T11:16:08Z</time>
      </trkpt>
      <trkpt lat="45.09381" lon="4.75572">
        <ele>361.8</ele>
        <time>2026-05-02T11:16:13Z</time>
      </trkpt>
      <trkpt lat="45.09381" lon="4.75572">
        <ele>361.8</ele>
        <time>2026-05-02T11:16:18Z</time>
      </trkpt>
      <trkpt lat="45.09381" lon="4.75572">
        <ele>361.8</ele>
        <time>2026-05-02T11:16:23Z</time>
      </trkpt>
      <trkpt lat="45.09381" lon="4.75572">
        <ele>361.8</ele>
        <time>2026-05-02T11:16:28Z</time>
      </trkpt>
      <trkpt lat="45.09381" lon="4.75572">
        <ele>361.8</ele>
        <time>2026-05-02T11:16:33Z</time>
      </trkpt>
      <trkpt lat="45.09381" lon="4.75572">
        <ele>361.8</ele>
        <time>2026-05-02T11:16:38Z</time>
      </trkpt>
      <trkpt lat="45.09381" lon="4.75572">
        <ele>361.8</ele>
        <time>2026-05-02T11:16:43Z</time>
      </trkpt>
      <trkpt lat="45.09384" lon="4.75576">
        <ele>361.9</ele>
        <time>2026-05-02T11:16:48Z</time>
      </trkpt>
      <trkpt lat="45.0939" lon="4.75573">
        <ele>362.1</ele>
        <time>2026-05-02T11:16:53Z</time>
      </trkpt>
      <trkpt lat="45.09396" lon="4.75569">
        <ele>362.4</ele>
        <time>2026-05-02T11:16:58Z</time>
      </trkpt>
      <trkpt lat="45.09399" lon="4.75567">
        <ele>362.6</ele>
        <time>2026-05-02T11:17:03Z</time>
      </trkpt>
      <trkpt lat="45.09402" lon="4.75567">
        <ele>362.7</ele>
        <time>2026-05-02T11:17:08Z</time>
      </trkpt>
      <trkpt lat="45.09404" lon="4.75567">
        <ele>362.8</ele>
        <time>2026-05-02T11:17:13Z</time>
      </trkpt>
      <trkpt lat="45.09405" lon="4.75569">
        <ele>362.8</ele>
        <time>2026-05-02T11:17:18Z</time>
      </trkpt>
      <trkpt lat="45.09408" lon="4.75575">
        <ele>362.8</ele>
        <time>2026-05-02T11:17:23Z</time>
      </trkpt>
      <trkpt lat="45.0941" lon="4.75579">
        <ele>362.8</ele>
        <time>2026-05-02T11:17:28Z</time>
      </trkpt>
      <trkpt lat="45.0941" lon="4.75579">
        <ele>362.8</ele>
        <time>2026-05-02T11:17:33Z</time>
      </trkpt>
      <trkpt lat="45.0941" lon="4.75579">
        <ele>362.8</ele>
        <time>2026-05-02T11:17:38Z</time>
      </trkpt>
      <trkpt lat="45.0941" lon="4.75579">
        <ele>362.8</ele>
        <time>2026-05-02T11:17:43Z</time>
      </trkpt>
      <trkpt lat="45.0941" lon="4.75579">
        <ele>362.8</ele>
        <time>2026-05-02T11:17:48Z</time>
      </trkpt>
      <trkpt lat="45.0941" lon="4.75579">
        <ele>362.8</ele>
        <time>2026-05-02T11:17:53Z</time>
      </trkpt>
      <trkpt lat="45.0941" lon="4.75579">
        <ele>362.8</ele>
        <time>2026-05-02T11:17:58Z</time>
      </trkpt>
      <trkpt lat="45.0941" lon="4.75579">
        <ele>362.8</ele>
        <time>2026-05-02T11:18:03Z</time>
      </trkpt>
      <trkpt lat="45.09413" lon="4.75571">
        <ele>363.1</ele>
        <time>2026-05-02T11:18:08Z</time>
      </trkpt>
      <trkpt lat="45.09421" lon="4.75572">
        <ele>363.5</ele>
        <time>2026-05-02T11:18:13Z</time>
      </trkpt>
      <trkpt lat="45.09425" lon="4.75572">
        <ele>363.7</ele>
        <time>2026-05-02T11:18:18Z</time>
      </trkpt>
      <trkpt lat="45.0943" lon="4.75572">
        <ele>364</ele>
        <time>2026-05-02T11:18:23Z</time>
      </trkpt>
      <trkpt lat="45.09433" lon="4.75573">
        <ele>364.1</ele>
        <time>2026-05-02T11:18:28Z</time>
      </trkpt>
      <trkpt lat="45.09437" lon="4.75574">
        <ele>364.3</ele>
        <time>2026-05-02T11:18:33Z</time>
      </trkpt>
      <trkpt lat="45.09441" lon="4.75576">
        <ele>364.4</ele>
        <time>2026-05-02T11:18:38Z</time>
      </trkpt>
      <trkpt lat="45.09443" lon="4.75577">
        <ele>364.5</ele>
        <time>2026-05-02T11:18:43Z</time>
      </trkpt>
      <trkpt lat="45.09447" lon="4.75581">
        <ele>364.6</ele>
        <time>2026-05-02T11:18:48Z</time>
      </trkpt>
      <trkpt lat="45.0945" lon="4.75585">
        <ele>365</ele>
        <time>2026-05-02T11:18:53Z</time>
      </trkpt>
      <trkpt lat="45.0945" lon="4.75589">
        <ele>366</ele>
        <time>2026-05-02T11:18:58Z</time>
      </trkpt>
      <trkpt lat="45.09448" lon="4.75591">
        <ele>366.4</ele>
        <time>2026-05-02T11:19:03Z</time>
      </trkpt>
      <trkpt lat="45.09446" lon="4.75591">
        <ele>366.3</ele>
        <time>2026-05-02T11:19:08Z</time>
      </trkpt>
      <trkpt lat="45.09446" lon="4.75591">
        <ele>366.3</ele>
        <time>2026-05-02T11:19:13Z</time>
      </trkpt>
      <trkpt lat="45.09437" lon="4.75589">
        <ele>365.4</ele>
        <time>2026-05-02T11:19:18Z</time>
      </trkpt>
      <trkpt lat="45.09437" lon="4.75589">
        <ele>365.4</ele>
        <time>2026-05-02T11:19:23Z</time>
      </trkpt>
      <trkpt lat="45.09432" lon="4.75596">
        <ele>367</ele>
        <time>2026-05-02T11:19:28Z</time>
      </trkpt>
      <trkpt lat="45.09429" lon="4.75598">
        <ele>367.4</ele>
        <time>2026-05-02T11:19:33Z</time>
      </trkpt>
      <trkpt lat="45.09427" lon="4.75601">
        <ele>368.1</ele>
        <time>2026-05-02T11:19:38Z</time>
      </trkpt>
      <trkpt lat="45.09425" lon="4.75604">
        <ele>368.8</ele>
        <time>2026-05-02T11:19:43Z</time>
      </trkpt>
      <trkpt lat="45.09423" lon="4.75606">
        <ele>369.2</ele>
        <time>2026-05-02T11:19:48Z</time>
      </trkpt>
      <trkpt lat="45.09422" lon="4.75606">
        <ele>369.2</ele>
        <time>2026-05-02T11:19:53Z</time>
      </trkpt>
      <trkpt lat="45.09422" lon="4.75606">
        <ele>369.2</ele>
        <time>2026-05-02T11:19:58Z</time>
      </trkpt>
      <trkpt lat="45.09416" lon="4.75612">
        <ele>370.5</ele>
        <time>2026-05-02T11:20:03Z</time>
      </trkpt>
      <trkpt lat="45.09413" lon="4.75614">
        <ele>370.9</ele>
        <time>2026-05-02T11:20:08Z</time>
      </trkpt>
      <trkpt lat="45.09411" lon="4.75619">
        <ele>372.2</ele>
        <time>2026-05-02T11:20:13Z</time>
      </trkpt>
      <trkpt lat="45.09409" lon="4.75623">
        <ele>373.2</ele>
        <time>2026-05-02T11:20:18Z</time>
      </trkpt>
      <trkpt lat="45.09406" lon="4.75626">
        <ele>373.8</ele>
        <time>2026-05-02T11:20:23Z</time>
      </trkpt>
      <trkpt lat="45.09404" lon="4.7563">
        <ele>374.8</ele>
        <time>2026-05-02T11:20:28Z</time>
      </trkpt>
      <trkpt lat="45.09402" lon="4.75634">
        <ele>375.7</ele>
        <time>2026-05-02T11:20:33Z</time>
      </trkpt>
      <trkpt lat="45.094" lon="4.75636">
        <ele>376.2</ele>
        <time>2026-05-02T11:20:38Z</time>
      </trkpt>
      <trkpt lat="45.09397" lon="4.75641">
        <ele>377.4</ele>
        <time>2026-05-02T11:20:43Z</time>
      </trkpt>
      <trkpt lat="45.09395" lon="4.75642">
        <ele>377.5</ele>
        <time>2026-05-02T11:20:48Z</time>
      </trkpt>
      <trkpt lat="45.09395" lon="4.75642">
        <ele>377.5</ele>
        <time>2026-05-02T11:20:53Z</time>
      </trkpt>
      <trkpt lat="45.09395" lon="4.75642">
        <ele>377.5</ele>
        <time>2026-05-02T11:20:58Z</time>
      </trkpt>
      <trkpt lat="45.0939" lon="4.75647">
        <ele>378.6</ele>
        <time>2026-05-02T11:21:03Z</time>
      </trkpt>
      <trkpt lat="45.09386" lon="4.75649">
        <ele>378.9</ele>
        <time>2026-05-02T11:21:08Z</time>
      </trkpt>
      <trkpt lat="45.09383" lon="4.75651">
        <ele>379.3</ele>
        <time>2026-05-02T11:21:13Z</time>
      </trkpt>
      <trkpt lat="45.0938" lon="4.75652">
        <ele>379.4</ele>
        <time>2026-05-02T11:21:18Z</time>
      </trkpt>
      <trkpt lat="45.09377" lon="4.75654">
        <ele>379.8</ele>
        <time>2026-05-02T11:21:23Z</time>
      </trkpt>
      <trkpt lat="45.09374" lon="4.75656">
        <ele>380.2</ele>
        <time>2026-05-02T11:21:28Z</time>
      </trkpt>
      <trkpt lat="45.09371" lon="4.75658">
        <ele>380.6</ele>
        <time>2026-05-02T11:21:33Z</time>
      </trkpt>
      <trkpt lat="45.09367" lon="4.7566">
        <ele>380.9</ele>
        <time>2026-05-02T11:21:38Z</time>
      </trkpt>
      <trkpt lat="45.09363" lon="4.75663">
        <ele>381.5</ele>
        <time>2026-05-02T11:21:43Z</time>
      </trkpt>
      <trkpt lat="45.0936" lon="4.75665">
        <ele>381.9</ele>
        <time>2026-05-02T11:21:48Z</time>
      </trkpt>
      <trkpt lat="45.09357" lon="4.75666">
        <ele>382</ele>
        <time>2026-05-02T11:21:53Z</time>
      </trkpt>
      <trkpt lat="45.09354" lon="4.75667">
        <ele>382.1</ele>
        <time>2026-05-02T11:21:58Z</time>
      </trkpt>
      <trkpt lat="45.0935" lon="4.7567">
        <ele>382.8</ele>
        <time>2026-05-02T11:22:03Z</time>
      </trkpt>
      <trkpt lat="45.09347" lon="4.75673">
        <ele>383.5</ele>
        <time>2026-05-02T11:22:08Z</time>
      </trkpt>
      <trkpt lat="45.09343" lon="4.75674">
        <ele>383.6</ele>
        <time>2026-05-02T11:22:13Z</time>
      </trkpt>
      <trkpt lat="45.0934" lon="4.75675">
        <ele>383.7</ele>
        <time>2026-05-02T11:22:18Z</time>
      </trkpt>
      <trkpt lat="45.09336" lon="4.75677">
        <ele>384.1</ele>
        <time>2026-05-02T11:22:23Z</time>
      </trkpt>
      <trkpt lat="45.09333" lon="4.75677">
        <ele>383.9</ele>
        <time>2026-05-02T11:22:28Z</time>
      </trkpt>
      <trkpt lat="45.0933" lon="4.7568">
        <ele>384.5</ele>
        <time>2026-05-02T11:22:33Z</time>
      </trkpt>
      <trkpt lat="45.0933" lon="4.7568">
        <ele>384.5</ele>
        <time>2026-05-02T11:22:38Z</time>
      </trkpt>
      <trkpt lat="45.09324" lon="4.75682">
        <ele>384.6</ele>
        <time>2026-05-02T11:22:43Z</time>
      </trkpt>
      <trkpt lat="45.09321" lon="4.75683">
        <ele>384.6</ele>
        <time>2026-05-02T11:22:48Z</time>
      </trkpt>
      <trkpt lat="45.09317" lon="4.75683">
        <ele>384.3</ele>
        <time>2026-05-02T11:22:53Z</time>
      </trkpt>
      <trkpt lat="45.09314" lon="4.75683">
        <ele>384</ele>
        <time>2026-05-02T11:22:58Z</time>
      </trkpt>
      <trkpt lat="45.09311" lon="4.75684">
        <ele>384.1</ele>
        <time>2026-05-02T11:23:03Z</time>
      </trkpt>
      <trkpt lat="45.09308" lon="4.75687">
        <ele>384.8</ele>
        <time>2026-05-02T11:23:08Z</time>
      </trkpt>
      <trkpt lat="45.09306" lon="4.75687">
        <ele>384.6</ele>
        <time>2026-05-02T11:23:13Z</time>
      </trkpt>
      <trkpt lat="45.09306" lon="4.75687">
        <ele>384.6</ele>
        <time>2026-05-02T11:23:18Z</time>
      </trkpt>
      <trkpt lat="45.09306" lon="4.75687">
        <ele>384.6</ele>
        <time>2026-05-02T11:23:23Z</time>
      </trkpt>
      <trkpt lat="45.09306" lon="4.75687">
        <ele>384.6</ele>
        <time>2026-05-02T11:23:28Z</time>
      </trkpt>
      <trkpt lat="45.09297" lon="4.75694">
        <ele>386.2</ele>
        <time>2026-05-02T11:23:33Z</time>
      </trkpt>
      <trkpt lat="45.09297" lon="4.75695">
        <ele>386.6</ele>
        <time>2026-05-02T11:23:38Z</time>
      </trkpt>
      <trkpt lat="45.09297" lon="4.75695">
        <ele>386.6</ele>
        <time>2026-05-02T11:23:43Z</time>
      </trkpt>
      <trkpt lat="45.09297" lon="4.75695">
        <ele>386.6</ele>
        <time>2026-05-02T11:23:48Z</time>
      </trkpt>
      <trkpt lat="45.0929" lon="4.75705">
        <ele>389.5</ele>
        <time>2026-05-02T11:23:53Z</time>
      </trkpt>
      <trkpt lat="45.0929" lon="4.75706">
        <ele>389.9</ele>
        <time>2026-05-02T11:23:58Z</time>
      </trkpt>
      <trkpt lat="45.09287" lon="4.75711">
        <ele>391.4</ele>
        <time>2026-05-02T11:24:03Z</time>
      </trkpt>
      <trkpt lat="45.09287" lon="4.75713">
        <ele>392.1</ele>
        <time>2026-05-02T11:24:08Z</time>
      </trkpt>
      <trkpt lat="45.09284" lon="4.75719">
        <ele>394.1</ele>
        <time>2026-05-02T11:24:13Z</time>
      </trkpt>
      <trkpt lat="45.09282" lon="4.75721">
        <ele>394.7</ele>
        <time>2026-05-02T11:24:18Z</time>
      </trkpt>
      <trkpt lat="45.09281" lon="4.75725">
        <ele>396.1</ele>
        <time>2026-05-02T11:24:23Z</time>
      </trkpt>
      <trkpt lat="45.09279" lon="4.75729">
        <ele>397.5</ele>
        <time>2026-05-02T11:24:28Z</time>
      </trkpt>
      <trkpt lat="45.09277" lon="4.75732">
        <ele>398.5</ele>
        <time>2026-05-02T11:24:33Z</time>
      </trkpt>
      <trkpt lat="45.09275" lon="4.75736">
        <ele>399.9</ele>
        <time>2026-05-02T11:24:38Z</time>
      </trkpt>
      <trkpt lat="45.09274" lon="4.7574">
        <ele>401.4</ele>
        <time>2026-05-02T11:24:43Z</time>
      </trkpt>
      <trkpt lat="45.09273" lon="4.75745">
        <ele>403.2</ele>
        <time>2026-05-02T11:24:48Z</time>
      </trkpt>
      <trkpt lat="45.09272" lon="4.75749">
        <ele>404.6</ele>
        <time>2026-05-02T11:24:53Z</time>
      </trkpt>
      <trkpt lat="45.09271" lon="4.75752">
        <ele>405.4</ele>
        <time>2026-05-02T11:24:58Z</time>
      </trkpt>
      <trkpt lat="45.09271" lon="4.75752">
        <ele>405.4</ele>
        <time>2026-05-02T11:25:03Z</time>
      </trkpt>
      <trkpt lat="45.09267" lon="4.75761">
        <ele>407.4</ele>
        <time>2026-05-02T11:25:08Z</time>
      </trkpt>
      <trkpt lat="45.09264" lon="4.75764">
        <ele>408</ele>
        <time>2026-05-02T11:25:13Z</time>
      </trkpt>
      <trkpt lat="45.0926" lon="4.75766">
        <ele>408.5</ele>
        <time>2026-05-02T11:25:18Z</time>
      </trkpt>
      <trkpt lat="45.09257" lon="4.75765">
        <ele>408.2</ele>
        <time>2026-05-02T11:25:23Z</time>
      </trkpt>
      <trkpt lat="45.09256" lon="4.75765">
        <ele>408.2</ele>
        <time>2026-05-02T11:25:28Z</time>
      </trkpt>
      <trkpt lat="45.09252" lon="4.75769">
        <ele>409.1</ele>
        <time>2026-05-02T11:25:33Z</time>
      </trkpt>
      <trkpt lat="45.09248" lon="4.75772">
        <ele>409.7</ele>
        <time>2026-05-02T11:25:38Z</time>
      </trkpt>
      <trkpt lat="45.09244" lon="4.75774">
        <ele>409.9</ele>
        <time>2026-05-02T11:25:43Z</time>
      </trkpt>
      <trkpt lat="45.0924" lon="4.75774">
        <ele>409.8</ele>
        <time>2026-05-02T11:25:48Z</time>
      </trkpt>
      <trkpt lat="45.09239" lon="4.75773">
        <ele>409.5</ele>
        <time>2026-05-02T11:25:53Z</time>
      </trkpt>
      <trkpt lat="45.09239" lon="4.75773">
        <ele>409.5</ele>
        <time>2026-05-02T11:25:58Z</time>
      </trkpt>
      <trkpt lat="45.09239" lon="4.75773">
        <ele>409.5</ele>
        <time>2026-05-02T11:26:03Z</time>
      </trkpt>
      <trkpt lat="45.09235" lon="4.75775">
        <ele>409.8</ele>
        <time>2026-05-02T11:26:08Z</time>
      </trkpt>
      <trkpt lat="45.09233" lon="4.75779">
        <ele>410.7</ele>
        <time>2026-05-02T11:26:13Z</time>
      </trkpt>
      <trkpt lat="45.09228" lon="4.75782">
        <ele>411.2</ele>
        <time>2026-05-02T11:26:18Z</time>
      </trkpt>
      <trkpt lat="45.09224" lon="4.75786">
        <ele>412</ele>
        <time>2026-05-02T11:26:23Z</time>
      </trkpt>
      <trkpt lat="45.0922" lon="4.75789">
        <ele>412.6</ele>
        <time>2026-05-02T11:26:28Z</time>
      </trkpt>
      <trkpt lat="45.09216" lon="4.75791">
        <ele>413</ele>
        <time>2026-05-02T11:26:33Z</time>
      </trkpt>
      <trkpt lat="45.09212" lon="4.75793">
        <ele>413.4</ele>
        <time>2026-05-02T11:26:38Z</time>
      </trkpt>
      <trkpt lat="45.0921" lon="4.75796">
        <ele>414.1</ele>
        <time>2026-05-02T11:26:43Z</time>
      </trkpt>
      <trkpt lat="45.09206" lon="4.75799">
        <ele>414.8</ele>
        <time>2026-05-02T11:26:48Z</time>
      </trkpt>
      <trkpt lat="45.09204" lon="4.75803">
        <ele>415.8</ele>
        <time>2026-05-02T11:26:53Z</time>
      </trkpt>
      <trkpt lat="45.09203" lon="4.75808">
        <ele>417.1</ele>
        <time>2026-05-02T11:26:58Z</time>
      </trkpt>
      <trkpt lat="45.092" lon="4.75812">
        <ele>418.1</ele>
        <time>2026-05-02T11:27:03Z</time>
      </trkpt>
      <trkpt lat="45.09197" lon="4.75815">
        <ele>418.8</ele>
        <time>2026-05-02T11:27:08Z</time>
      </trkpt>
      <trkpt lat="45.09194" lon="4.75817">
        <ele>419.4</ele>
        <time>2026-05-02T11:27:13Z</time>
      </trkpt>
      <trkpt lat="45.09189" lon="4.75819">
        <ele>419.9</ele>
        <time>2026-05-02T11:27:18Z</time>
      </trkpt>
      <trkpt lat="45.09186" lon="4.75821">
        <ele>420.4</ele>
        <time>2026-05-02T11:27:23Z</time>
      </trkpt>
      <trkpt lat="45.09183" lon="4.75823">
        <ele>421</ele>
        <time>2026-05-02T11:27:28Z</time>
      </trkpt>
      <trkpt lat="45.09179" lon="4.75824">
        <ele>421.3</ele>
        <time>2026-05-02T11:27:33Z</time>
      </trkpt>
      <trkpt lat="45.09176" lon="4.75826">
        <ele>421.8</ele>
        <time>2026-05-02T11:27:38Z</time>
      </trkpt>
      <trkpt lat="45.09173" lon="4.75827">
        <ele>422.1</ele>
        <time>2026-05-02T11:27:43Z</time>
      </trkpt>
      <trkpt lat="45.09169" lon="4.7583">
        <ele>423</ele>
        <time>2026-05-02T11:27:48Z</time>
      </trkpt>
      <trkpt lat="45.09166" lon="4.75832">
        <ele>423.6</ele>
        <time>2026-05-02T11:27:53Z</time>
      </trkpt>
      <trkpt lat="45.09162" lon="4.75836">
        <ele>424</ele>
        <time>2026-05-02T11:27:58Z</time>
      </trkpt>
      <trkpt lat="45.0916" lon="4.75839">
        <ele>424.1</ele>
        <time>2026-05-02T11:28:03Z</time>
      </trkpt>
      <trkpt lat="45.09157" lon="4.75842">
        <ele>424.1</ele>
        <time>2026-05-02T11:28:08Z</time>
      </trkpt>
      <trkpt lat="45.09153" lon="4.75844">
        <ele>424.1</ele>
        <time>2026-05-02T11:28:13Z</time>
      </trkpt>
      <trkpt lat="45.0915" lon="4.75846">
        <ele>424.2</ele>
        <time>2026-05-02T11:28:18Z</time>
      </trkpt>
      <trkpt lat="45.09145" lon="4.75849">
        <ele>424.2</ele>
        <time>2026-05-02T11:28:23Z</time>
      </trkpt>
      <trkpt lat="45.09142" lon="4.75851">
        <ele>424.3</ele>
        <time>2026-05-02T11:28:28Z</time>
      </trkpt>
      <trkpt lat="45.09141" lon="4.75856">
        <ele>424.4</ele>
        <time>2026-05-02T11:28:33Z</time>
      </trkpt>
      <trkpt lat="45.0914" lon="4.75863">
        <ele>424.5</ele>
        <time>2026-05-02T11:28:38Z</time>
      </trkpt>
      <trkpt lat="45.09141" lon="4.75867">
        <ele>424.5</ele>
        <time>2026-05-02T11:28:43Z</time>
      </trkpt>
      <trkpt lat="45.09143" lon="4.75869">
        <ele>424.5</ele>
        <time>2026-05-02T11:28:48Z</time>
      </trkpt>
      <trkpt lat="45.09144" lon="4.75871">
        <ele>424.6</ele>
        <time>2026-05-02T11:28:53Z</time>
      </trkpt>
      <trkpt lat="45.09144" lon="4.75871">
        <ele>424.6</ele>
        <time>2026-05-02T11:28:58Z</time>
      </trkpt>
      <trkpt lat="45.09144" lon="4.75871">
        <ele>424.6</ele>
        <time>2026-05-02T11:29:03Z</time>
      </trkpt>
      <trkpt lat="45.09144" lon="4.75871">
        <ele>424.6</ele>
        <time>2026-05-02T11:29:08Z</time>
      </trkpt>
      <trkpt lat="45.09144" lon="4.75871">
        <ele>424.6</ele>
        <time>2026-05-02T11:29:13Z</time>
      </trkpt>
      <trkpt lat="45.09144" lon="4.75871">
        <ele>424.6</ele>
        <time>2026-05-02T11:29:18Z</time>
      </trkpt>
      <trkpt lat="45.09144" lon="4.75871">
        <ele>424.6</ele>
        <time>2026-05-02T11:29:23Z</time>
      </trkpt>
      <trkpt lat="45.09144" lon="4.75871">
        <ele>424.6</ele>
        <time>2026-05-02T11:29:28Z</time>
      </trkpt>
      <trkpt lat="45.09144" lon="4.75871">
        <ele>424.6</ele>
        <time>2026-05-02T11:29:33Z</time>
      </trkpt>
      <trkpt lat="45.09144" lon="4.75871">
        <ele>424.6</ele>
        <time>2026-05-02T11:29:38Z</time>
      </trkpt>
      <trkpt lat="45.09144" lon="4.75871">
        <ele>424.6</ele>
        <time>2026-05-02T11:29:43Z</time>
      </trkpt>
      <trkpt lat="45.09144" lon="4.75871">
        <ele>424.6</ele>
        <time>2026-05-02T11:29:48Z</time>
      </trkpt>
      <trkpt lat="45.09144" lon="4.75871">
        <ele>424.6</ele>
        <time>2026-05-02T11:29:53Z</time>
      </trkpt>
      <trkpt lat="45.09144" lon="4.75871">
        <ele>424.6</ele>
        <time>2026-05-02T11:29:58Z</time>
      </trkpt>
      <trkpt lat="45.09144" lon="4.75871">
        <ele>424.6</ele>
        <time>2026-05-02T11:30:03Z</time>
      </trkpt>
      <trkpt lat="45.09144" lon="4.75871">
        <ele>424.6</ele>
        <time>2026-05-02T11:30:08Z</time>
      </trkpt>
      <trkpt lat="45.09144" lon="4.75871">
        <ele>424.6</ele>
        <time>2026-05-02T11:30:13Z</time>
      </trkpt>
      <trkpt lat="45.09144" lon="4.75871">
        <ele>424.6</ele>
        <time>2026-05-02T11:30:18Z</time>
      </trkpt>
      <trkpt lat="45.09144" lon="4.75871">
        <ele>424.6</ele>
        <time>2026-05-02T11:30:23Z</time>
      </trkpt>
      <trkpt lat="45.09144" lon="4.75871">
        <ele>424.6</ele>
        <time>2026-05-02T11:30:28Z</time>
      </trkpt>
      <trkpt lat="45.09144" lon="4.75871">
        <ele>424.6</ele>
        <time>2026-05-02T11:30:33Z</time>
      </trkpt>
      <trkpt lat="45.09144" lon="4.75871">
        <ele>424.6</ele>
        <time>2026-05-02T11:30:38Z</time>
      </trkpt>
      <trkpt lat="45.09144" lon="4.75871">
        <ele>424.6</ele>
        <time>2026-05-02T11:30:43Z</time>
      </trkpt>
      <trkpt lat="45.09151" lon="4.75873">
        <ele>424.6</ele>
        <time>2026-05-02T11:30:48Z</time>
      </trkpt>
      <trkpt lat="45.09157" lon="4.75873">
        <ele>424.5</ele>
        <time>2026-05-02T11:30:53Z</time>
      </trkpt>
      <trkpt lat="45.09163" lon="4.75876">
        <ele>424.5</ele>
        <time>2026-05-02T11:30:58Z</time>
      </trkpt>
      <trkpt lat="45.09169" lon="4.75882">
        <ele>424.6</ele>
        <time>2026-05-02T11:31:03Z</time>
      </trkpt>
      <trkpt lat="45.09174" lon="4.75887">
        <ele>424.6</ele>
        <time>2026-05-02T11:31:08Z</time>
      </trkpt>
      <trkpt lat="45.0918" lon="4.75893">
        <ele>424.6</ele>
        <time>2026-05-02T11:31:13Z</time>
      </trkpt>
      <trkpt lat="45.09184" lon="4.759">
        <ele>424.6</ele>
        <time>2026-05-02T11:31:18Z</time>
      </trkpt>
      <trkpt lat="45.09189" lon="4.75907">
        <ele>424.6</ele>
        <time>2026-05-02T11:31:23Z</time>
      </trkpt>
      <trkpt lat="45.09194" lon="4.75917">
        <ele>424.6</ele>
        <time>2026-05-02T11:31:28Z</time>
      </trkpt>
      <trkpt lat="45.09199" lon="4.75924">
        <ele>423.7</ele>
        <time>2026-05-02T11:31:33Z</time>
      </trkpt>
      <trkpt lat="45.09203" lon="4.75931">
        <ele>422.9</ele>
        <time>2026-05-02T11:31:38Z</time>
      </trkpt>
      <trkpt lat="45.09206" lon="4.75938">
        <ele>422.1</ele>
        <time>2026-05-02T11:31:43Z</time>
      </trkpt>
      <trkpt lat="45.0921" lon="4.75947">
        <ele>421.1</ele>
        <time>2026-05-02T11:31:48Z</time>
      </trkpt>
      <trkpt lat="45.09214" lon="4.75956">
        <ele>420.1</ele>
        <time>2026-05-02T11:31:53Z</time>
      </trkpt>
      <trkpt lat="45.09216" lon="4.75965">
        <ele>419.2</ele>
        <time>2026-05-02T11:31:58Z</time>
      </trkpt>
      <trkpt lat="45.09215" lon="4.75973">
        <ele>418.3</ele>
        <time>2026-05-02T11:32:03Z</time>
      </trkpt>
      <trkpt lat="45.09214" lon="4.7598">
        <ele>417.5</ele>
        <time>2026-05-02T11:32:08Z</time>
      </trkpt>
      <trkpt lat="45.09211" lon="4.75989">
        <ele>416.4</ele>
        <time>2026-05-02T11:32:13Z</time>
      </trkpt>
      <trkpt lat="45.09208" lon="4.75996">
        <ele>415.4</ele>
        <time>2026-05-02T11:32:18Z</time>
      </trkpt>
      <trkpt lat="45.09205" lon="4.76005">
        <ele>415</ele>
        <time>2026-05-02T11:32:23Z</time>
      </trkpt>
      <trkpt lat="45.09204" lon="4.76012">
        <ele>415.1</ele>
        <time>2026-05-02T11:32:28Z</time>
      </trkpt>
      <trkpt lat="45.09201" lon="4.76019">
        <ele>415.1</ele>
        <time>2026-05-02T11:32:33Z</time>
      </trkpt>
      <trkpt lat="45.09199" lon="4.76027">
        <ele>415.2</ele>
        <time>2026-05-02T11:32:38Z</time>
      </trkpt>
      <trkpt lat="45.09196" lon="4.76035">
        <ele>415.1</ele>
        <time>2026-05-02T11:32:43Z</time>
      </trkpt>
      <trkpt lat="45.09195" lon="4.76043">
        <ele>415.2</ele>
        <time>2026-05-02T11:32:48Z</time>
      </trkpt>
      <trkpt lat="45.09192" lon="4.76052">
        <ele>415.2</ele>
        <time>2026-05-02T11:32:53Z</time>
      </trkpt>
      <trkpt lat="45.09191" lon="4.7606">
        <ele>415.2</ele>
        <time>2026-05-02T11:32:58Z</time>
      </trkpt>
      <trkpt lat="45.0919" lon="4.7607">
        <ele>415.3</ele>
        <time>2026-05-02T11:33:03Z</time>
      </trkpt>
      <trkpt lat="45.09188" lon="4.76079">
        <ele>415.2</ele>
        <time>2026-05-02T11:33:08Z</time>
      </trkpt>
      <trkpt lat="45.09187" lon="4.7609">
        <ele>415.7</ele>
        <time>2026-05-02T11:33:13Z</time>
      </trkpt>
      <trkpt lat="45.09185" lon="4.76099">
        <ele>416.2</ele>
        <time>2026-05-02T11:33:18Z</time>
      </trkpt>
      <trkpt lat="45.09182" lon="4.76108">
        <ele>416.6</ele>
        <time>2026-05-02T11:33:23Z</time>
      </trkpt>
      <trkpt lat="45.0918" lon="4.76116">
        <ele>417</ele>
        <time>2026-05-02T11:33:28Z</time>
      </trkpt>
      <trkpt lat="45.09176" lon="4.76125">
        <ele>417.3</ele>
        <time>2026-05-02T11:33:33Z</time>
      </trkpt>
      <trkpt lat="45.09173" lon="4.76134">
        <ele>417.8</ele>
        <time>2026-05-02T11:33:38Z</time>
      </trkpt>
      <trkpt lat="45.09169" lon="4.76142">
        <ele>418.1</ele>
        <time>2026-05-02T11:33:43Z</time>
      </trkpt>
      <trkpt lat="45.09166" lon="4.76148">
        <ele>418.4</ele>
        <time>2026-05-02T11:33:48Z</time>
      </trkpt>
      <trkpt lat="45.09163" lon="4.76157">
        <ele>418.8</ele>
        <time>2026-05-02T11:33:53Z</time>
      </trkpt>
      <trkpt lat="45.09161" lon="4.76164">
        <ele>419.1</ele>
        <time>2026-05-02T11:33:58Z</time>
      </trkpt>
      <trkpt lat="45.09158" lon="4.76172">
        <ele>419.2</ele>
        <time>2026-05-02T11:34:03Z</time>
      </trkpt>
      <trkpt lat="45.09156" lon="4.76179">
        <ele>419.3</ele>
        <time>2026-05-02T11:34:08Z</time>
      </trkpt>
      <trkpt lat="45.09154" lon="4.76181">
        <ele>419.2</ele>
        <time>2026-05-02T11:34:13Z</time>
      </trkpt>
      <trkpt lat="45.09153" lon="4.76182">
        <ele>419.1</ele>
        <time>2026-05-02T11:34:18Z</time>
      </trkpt>
      <trkpt lat="45.09153" lon="4.76182">
        <ele>419.1</ele>
        <time>2026-05-02T11:34:23Z</time>
      </trkpt>
      <trkpt lat="45.09153" lon="4.76182">
        <ele>419.1</ele>
        <time>2026-05-02T11:34:28Z</time>
      </trkpt>
      <trkpt lat="45.09154" lon="4.76187">
        <ele>419.5</ele>
        <time>2026-05-02T11:34:33Z</time>
      </trkpt>
      <trkpt lat="45.09152" lon="4.76196">
        <ele>419.7</ele>
        <time>2026-05-02T11:34:38Z</time>
      </trkpt>
      <trkpt lat="45.0915" lon="4.76205">
        <ele>419.9</ele>
        <time>2026-05-02T11:34:43Z</time>
      </trkpt>
      <trkpt lat="45.09148" lon="4.76214">
        <ele>420.2</ele>
        <time>2026-05-02T11:34:48Z</time>
      </trkpt>
      <trkpt lat="45.09146" lon="4.76224">
        <ele>420.4</ele>
        <time>2026-05-02T11:34:53Z</time>
      </trkpt>
      <trkpt lat="45.09145" lon="4.76233">
        <ele>420.8</ele>
        <time>2026-05-02T11:34:58Z</time>
      </trkpt>
      <trkpt lat="45.09143" lon="4.76244">
        <ele>421.1</ele>
        <time>2026-05-02T11:35:03Z</time>
      </trkpt>
      <trkpt lat="45.0914" lon="4.76253">
        <ele>421.2</ele>
        <time>2026-05-02T11:35:08Z</time>
      </trkpt>
      <trkpt lat="45.09139" lon="4.76262">
        <ele>421.2</ele>
        <time>2026-05-02T11:35:13Z</time>
      </trkpt>
      <trkpt lat="45.09137" lon="4.7627">
        <ele>421.1</ele>
        <time>2026-05-02T11:35:18Z</time>
      </trkpt>
      <trkpt lat="45.09135" lon="4.76279">
        <ele>421</ele>
        <time>2026-05-02T11:35:23Z</time>
      </trkpt>
      <trkpt lat="45.09132" lon="4.76288">
        <ele>420.9</ele>
        <time>2026-05-02T11:35:28Z</time>
      </trkpt>
      <trkpt lat="45.0913" lon="4.76297">
        <ele>421</ele>
        <time>2026-05-02T11:35:33Z</time>
      </trkpt>
      <trkpt lat="45.09127" lon="4.76306">
        <ele>421</ele>
        <time>2026-05-02T11:35:38Z</time>
      </trkpt>
      <trkpt lat="45.09124" lon="4.76317">
        <ele>421.1</ele>
        <time>2026-05-02T11:35:43Z</time>
      </trkpt>
      <trkpt lat="45.0912" lon="4.76326">
        <ele>421.1</ele>
        <time>2026-05-02T11:35:48Z</time>
      </trkpt>
      <trkpt lat="45.09119" lon="4.76335">
        <ele>421.3</ele>
        <time>2026-05-02T11:35:53Z</time>
      </trkpt>
      <trkpt lat="45.09117" lon="4.76343">
        <ele>421.3</ele>
        <time>2026-05-02T11:35:58Z</time>
      </trkpt>
      <trkpt lat="45.09113" lon="4.76353">
        <ele>421.3</ele>
        <time>2026-05-02T11:36:03Z</time>
      </trkpt>
      <trkpt lat="45.09108" lon="4.76361">
        <ele>421.3</ele>
        <time>2026-05-02T11:36:08Z</time>
      </trkpt>
      <trkpt lat="45.09104" lon="4.7637">
        <ele>421.4</ele>
        <time>2026-05-02T11:36:13Z</time>
      </trkpt>
      <trkpt lat="45.09099" lon="4.76379">
        <ele>421.6</ele>
        <time>2026-05-02T11:36:18Z</time>
      </trkpt>
      <trkpt lat="45.09095" lon="4.76386">
        <ele>421.8</ele>
        <time>2026-05-02T11:36:23Z</time>
      </trkpt>
      <trkpt lat="45.0909" lon="4.76395">
        <ele>422.1</ele>
        <time>2026-05-02T11:36:28Z</time>
      </trkpt>
      <trkpt lat="45.09085" lon="4.76403">
        <ele>422.5</ele>
        <time>2026-05-02T11:36:33Z</time>
      </trkpt>
      <trkpt lat="45.09082" lon="4.76412">
        <ele>422.8</ele>
        <time>2026-05-02T11:36:38Z</time>
      </trkpt>
      <trkpt lat="45.09078" lon="4.7642">
        <ele>423</ele>
        <time>2026-05-02T11:36:43Z</time>
      </trkpt>
      <trkpt lat="45.09075" lon="4.76428">
        <ele>423.1</ele>
        <time>2026-05-02T11:36:48Z</time>
      </trkpt>
      <trkpt lat="45.09072" lon="4.76439">
        <ele>423.3</ele>
        <time>2026-05-02T11:36:53Z</time>
      </trkpt>
      <trkpt lat="45.09069" lon="4.76447">
        <ele>423.4</ele>
        <time>2026-05-02T11:36:58Z</time>
      </trkpt>
      <trkpt lat="45.09067" lon="4.76457">
        <ele>423.7</ele>
        <time>2026-05-02T11:37:03Z</time>
      </trkpt>
      <trkpt lat="45.09066" lon="4.76468">
        <ele>423.9</ele>
        <time>2026-05-02T11:37:08Z</time>
      </trkpt>
      <trkpt lat="45.09067" lon="4.7648">
        <ele>424.3</ele>
        <time>2026-05-02T11:37:13Z</time>
      </trkpt>
      <trkpt lat="45.09068" lon="4.76489">
        <ele>424.5</ele>
        <time>2026-05-02T11:37:18Z</time>
      </trkpt>
      <trkpt lat="45.09069" lon="4.76498">
        <ele>424.8</ele>
        <time>2026-05-02T11:37:23Z</time>
      </trkpt>
      <trkpt lat="45.09071" lon="4.76508">
        <ele>424.3</ele>
        <time>2026-05-02T11:37:28Z</time>
      </trkpt>
      <trkpt lat="45.09073" lon="4.76518">
        <ele>423.6</ele>
        <time>2026-05-02T11:37:33Z</time>
      </trkpt>
      <trkpt lat="45.09075" lon="4.76529">
        <ele>422.9</ele>
        <time>2026-05-02T11:37:38Z</time>
      </trkpt>
      <trkpt lat="45.09075" lon="4.76539">
        <ele>422.2</ele>
        <time>2026-05-02T11:37:43Z</time>
      </trkpt>
      <trkpt lat="45.09074" lon="4.76548">
        <ele>421.6</ele>
        <time>2026-05-02T11:37:48Z</time>
      </trkpt>
      <trkpt lat="45.09074" lon="4.76558">
        <ele>420.9</ele>
        <time>2026-05-02T11:37:53Z</time>
      </trkpt>
      <trkpt lat="45.09073" lon="4.76569">
        <ele>420</ele>
        <time>2026-05-02T11:37:58Z</time>
      </trkpt>
      <trkpt lat="45.09073" lon="4.76579">
        <ele>419.3</ele>
        <time>2026-05-02T11:38:03Z</time>
      </trkpt>
      <trkpt lat="45.09072" lon="4.76589">
        <ele>418.2</ele>
        <time>2026-05-02T11:38:08Z</time>
      </trkpt>
      <trkpt lat="45.0907" lon="4.766">
        <ele>416.6</ele>
        <time>2026-05-02T11:38:13Z</time>
      </trkpt>
      <trkpt lat="45.09069" lon="4.7661">
        <ele>415.2</ele>
        <time>2026-05-02T11:38:18Z</time>
      </trkpt>
      <trkpt lat="45.09067" lon="4.76619">
        <ele>413.8</ele>
        <time>2026-05-02T11:38:23Z</time>
      </trkpt>
      <trkpt lat="45.09066" lon="4.76629">
        <ele>412.4</ele>
        <time>2026-05-02T11:38:28Z</time>
      </trkpt>
      <trkpt lat="45.09065" lon="4.7664">
        <ele>410.8</ele>
        <time>2026-05-02T11:38:33Z</time>
      </trkpt>
      <trkpt lat="45.09065" lon="4.7665">
        <ele>409.5</ele>
        <time>2026-05-02T11:38:38Z</time>
      </trkpt>
      <trkpt lat="45.09066" lon="4.7666">
        <ele>408.4</ele>
        <time>2026-05-02T11:38:43Z</time>
      </trkpt>
      <trkpt lat="45.09067" lon="4.76671">
        <ele>407.1</ele>
        <time>2026-05-02T11:38:48Z</time>
      </trkpt>
      <trkpt lat="45.09068" lon="4.7668">
        <ele>406.3</ele>
        <time>2026-05-02T11:38:53Z</time>
      </trkpt>
      <trkpt lat="45.09069" lon="4.76691">
        <ele>405.2</ele>
        <time>2026-05-02T11:38:58Z</time>
      </trkpt>
      <trkpt lat="45.09069" lon="4.76702">
        <ele>403.9</ele>
        <time>2026-05-02T11:39:03Z</time>
      </trkpt>
      <trkpt lat="45.0907" lon="4.7671">
        <ele>403.2</ele>
        <time>2026-05-02T11:39:08Z</time>
      </trkpt>
      <trkpt lat="45.0907" lon="4.7671">
        <ele>403.2</ele>
        <time>2026-05-02T11:39:13Z</time>
      </trkpt>
      <trkpt lat="45.09069" lon="4.7671">
        <ele>403</ele>
        <time>2026-05-02T11:39:18Z</time>
      </trkpt>
      <trkpt lat="45.09069" lon="4.7671">
        <ele>403</ele>
        <time>2026-05-02T11:39:23Z</time>
      </trkpt>
      <trkpt lat="45.09069" lon="4.7671">
        <ele>403</ele>
        <time>2026-05-02T11:39:28Z</time>
      </trkpt>
      <trkpt lat="45.09069" lon="4.7671">
        <ele>403</ele>
        <time>2026-05-02T11:39:33Z</time>
      </trkpt>
      <trkpt lat="45.09069" lon="4.7671">
        <ele>403</ele>
        <time>2026-05-02T11:39:38Z</time>
      </trkpt>
      <trkpt lat="45.09069" lon="4.7671">
        <ele>403</ele>
        <time>2026-05-02T11:39:43Z</time>
      </trkpt>
      <trkpt lat="45.09069" lon="4.7671">
        <ele>403</ele>
        <time>2026-05-02T11:39:48Z</time>
      </trkpt>
      <trkpt lat="45.09069" lon="4.7671">
        <ele>403</ele>
        <time>2026-05-02T11:39:53Z</time>
      </trkpt>
      <trkpt lat="45.09071" lon="4.76721">
        <ele>402.1</ele>
        <time>2026-05-02T11:39:58Z</time>
      </trkpt>
      <trkpt lat="45.09071" lon="4.76731">
        <ele>400.9</ele>
        <time>2026-05-02T11:40:03Z</time>
      </trkpt>
      <trkpt lat="45.09071" lon="4.7674">
        <ele>399.9</ele>
        <time>2026-05-02T11:40:08Z</time>
      </trkpt>
      <trkpt lat="45.09071" lon="4.76749">
        <ele>398.9</ele>
        <time>2026-05-02T11:40:13Z</time>
      </trkpt>
      <trkpt lat="45.09071" lon="4.7676">
        <ele>397.9</ele>
        <time>2026-05-02T11:40:18Z</time>
      </trkpt>
      <trkpt lat="45.09072" lon="4.76771">
        <ele>397.1</ele>
        <time>2026-05-02T11:40:23Z</time>
      </trkpt>
      <trkpt lat="45.09071" lon="4.76781">
        <ele>396</ele>
        <time>2026-05-02T11:40:28Z</time>
      </trkpt>
      <trkpt lat="45.09072" lon="4.76791">
        <ele>395.3</ele>
        <time>2026-05-02T11:40:33Z</time>
      </trkpt>
      <trkpt lat="45.09072" lon="4.768">
        <ele>394.5</ele>
        <time>2026-05-02T11:40:38Z</time>
      </trkpt>
      <trkpt lat="45.09072" lon="4.76814">
        <ele>393.3</ele>
        <time>2026-05-02T11:40:43Z</time>
      </trkpt>
      <trkpt lat="45.09073" lon="4.76826">
        <ele>392.4</ele>
        <time>2026-05-02T11:40:48Z</time>
      </trkpt>
      <trkpt lat="45.09074" lon="4.76833">
        <ele>392</ele>
        <time>2026-05-02T11:40:53Z</time>
      </trkpt>
      <trkpt lat="45.09074" lon="4.76844">
        <ele>391.4</ele>
        <time>2026-05-02T11:40:58Z</time>
      </trkpt>
      <trkpt lat="45.09075" lon="4.76855">
        <ele>391</ele>
        <time>2026-05-02T11:41:03Z</time>
      </trkpt>
      <trkpt lat="45.09076" lon="4.76865">
        <ele>390.7</ele>
        <time>2026-05-02T11:41:08Z</time>
      </trkpt>
      <trkpt lat="45.09076" lon="4.76876">
        <ele>390.1</ele>
        <time>2026-05-02T11:41:13Z</time>
      </trkpt>
      <trkpt lat="45.09078" lon="4.76886">
        <ele>390.1</ele>
        <time>2026-05-02T11:41:18Z</time>
      </trkpt>
      <trkpt lat="45.09079" lon="4.76896">
        <ele>389.8</ele>
        <time>2026-05-02T11:41:23Z</time>
      </trkpt>
      <trkpt lat="45.0908" lon="4.76907">
        <ele>389.5</ele>
        <time>2026-05-02T11:41:28Z</time>
      </trkpt>
      <trkpt lat="45.0908" lon="4.76919">
        <ele>389</ele>
        <time>2026-05-02T11:41:33Z</time>
      </trkpt>
      <trkpt lat="45.09082" lon="4.7693">
        <ele>389.2</ele>
        <time>2026-05-02T11:41:38Z</time>
      </trkpt>
      <trkpt lat="45.09083" lon="4.76939">
        <ele>389.1</ele>
        <time>2026-05-02T11:41:43Z</time>
      </trkpt>
      <trkpt lat="45.09085" lon="4.76947">
        <ele>389.2</ele>
        <time>2026-05-02T11:41:48Z</time>
      </trkpt>
      <trkpt lat="45.09086" lon="4.76957">
        <ele>388.9</ele>
        <time>2026-05-02T11:41:53Z</time>
      </trkpt>
      <trkpt lat="45.09084" lon="4.76966">
        <ele>388.3</ele>
        <time>2026-05-02T11:41:58Z</time>
      </trkpt>
      <trkpt lat="45.09082" lon="4.76974">
        <ele>387.6</ele>
        <time>2026-05-02T11:42:03Z</time>
      </trkpt>
      <trkpt lat="45.0908" lon="4.76985">
        <ele>386.8</ele>
        <time>2026-05-02T11:42:08Z</time>
      </trkpt>
      <trkpt lat="45.09078" lon="4.76995">
        <ele>386.1</ele>
        <time>2026-05-02T11:42:13Z</time>
      </trkpt>
      <trkpt lat="45.09074" lon="4.77004">
        <ele>385.1</ele>
        <time>2026-05-02T11:42:18Z</time>
      </trkpt>
      <trkpt lat="45.0907" lon="4.77012">
        <ele>384.1</ele>
        <time>2026-05-02T11:42:23Z</time>
      </trkpt>
      <trkpt lat="45.09067" lon="4.77019">
        <ele>383.4</ele>
        <time>2026-05-02T11:42:28Z</time>
      </trkpt>
      <trkpt lat="45.09063" lon="4.7703">
        <ele>382.5</ele>
        <time>2026-05-02T11:42:33Z</time>
      </trkpt>
      <trkpt lat="45.09061" lon="4.7704">
        <ele>382.1</ele>
        <time>2026-05-02T11:42:38Z</time>
      </trkpt>
      <trkpt lat="45.09058" lon="4.7705">
        <ele>381.6</ele>
        <time>2026-05-02T11:42:43Z</time>
      </trkpt>
      <trkpt lat="45.09053" lon="4.7706">
        <ele>380.9</ele>
        <time>2026-05-02T11:42:48Z</time>
      </trkpt>
      <trkpt lat="45.09049" lon="4.7707">
        <ele>380.5</ele>
        <time>2026-05-02T11:42:53Z</time>
      </trkpt>
      <trkpt lat="45.09046" lon="4.77077">
        <ele>380.3</ele>
        <time>2026-05-02T11:42:58Z</time>
      </trkpt>
      <trkpt lat="45.09041" lon="4.77086">
        <ele>380</ele>
        <time>2026-05-02T11:43:03Z</time>
      </trkpt>
      <trkpt lat="45.09038" lon="4.77095">
        <ele>380.1</ele>
        <time>2026-05-02T11:43:08Z</time>
      </trkpt>
      <trkpt lat="45.09035" lon="4.77101">
        <ele>380.1</ele>
        <time>2026-05-02T11:43:13Z</time>
      </trkpt>
      <trkpt lat="45.09032" lon="4.77108">
        <ele>380.1</ele>
        <time>2026-05-02T11:43:18Z</time>
      </trkpt>
      <trkpt lat="45.09033" lon="4.77119">
        <ele>380.6</ele>
        <time>2026-05-02T11:43:23Z</time>
      </trkpt>
      <trkpt lat="45.09034" lon="4.77128">
        <ele>380.9</ele>
        <time>2026-05-02T11:43:28Z</time>
      </trkpt>
      <trkpt lat="45.09033" lon="4.77137">
        <ele>381.2</ele>
        <time>2026-05-02T11:43:33Z</time>
      </trkpt>
      <trkpt lat="45.09033" lon="4.77147">
        <ele>381.5</ele>
        <time>2026-05-02T11:43:38Z</time>
      </trkpt>
      <trkpt lat="45.09033" lon="4.77154">
        <ele>381.8</ele>
        <time>2026-05-02T11:43:43Z</time>
      </trkpt>
      <trkpt lat="45.09032" lon="4.77163">
        <ele>382</ele>
        <time>2026-05-02T11:43:48Z</time>
      </trkpt>
      <trkpt lat="45.0903" lon="4.77172">
        <ele>382.2</ele>
        <time>2026-05-02T11:43:53Z</time>
      </trkpt>
      <trkpt lat="45.09027" lon="4.77181">
        <ele>382.2</ele>
        <time>2026-05-02T11:43:58Z</time>
      </trkpt>
      <trkpt lat="45.09021" lon="4.77191">
        <ele>382.1</ele>
        <time>2026-05-02T11:44:03Z</time>
      </trkpt>
      <trkpt lat="45.09017" lon="4.772">
        <ele>382.1</ele>
        <time>2026-05-02T11:44:08Z</time>
      </trkpt>
      <trkpt lat="45.09011" lon="4.77208">
        <ele>382</ele>
        <time>2026-05-02T11:44:13Z</time>
      </trkpt>
      <trkpt lat="45.09005" lon="4.77213">
        <ele>381.8</ele>
        <time>2026-05-02T11:44:18Z</time>
      </trkpt>
      <trkpt lat="45.08999" lon="4.77217">
        <ele>381.6</ele>
        <time>2026-05-02T11:44:23Z</time>
      </trkpt>
      <trkpt lat="45.08992" lon="4.7722">
        <ele>381.6</ele>
        <time>2026-05-02T11:44:28Z</time>
      </trkpt>
      <trkpt lat="45.08985" lon="4.77223">
        <ele>381.6</ele>
        <time>2026-05-02T11:44:33Z</time>
      </trkpt>
      <trkpt lat="45.08977" lon="4.77223">
        <ele>381.6</ele>
        <time>2026-05-02T11:44:38Z</time>
      </trkpt>
      <trkpt lat="45.0897" lon="4.77222">
        <ele>381.5</ele>
        <time>2026-05-02T11:44:43Z</time>
      </trkpt>
      <trkpt lat="45.08962" lon="4.7722">
        <ele>381.5</ele>
        <time>2026-05-02T11:44:48Z</time>
      </trkpt>
      <trkpt lat="45.08954" lon="4.77219">
        <ele>381.6</ele>
        <time>2026-05-02T11:44:53Z</time>
      </trkpt>
      <trkpt lat="45.08947" lon="4.77216">
        <ele>381.6</ele>
        <time>2026-05-02T11:44:58Z</time>
      </trkpt>
      <trkpt lat="45.08939" lon="4.77214">
        <ele>381.7</ele>
        <time>2026-05-02T11:45:03Z</time>
      </trkpt>
      <trkpt lat="45.08933" lon="4.77211">
        <ele>381.8</ele>
        <time>2026-05-02T11:45:08Z</time>
      </trkpt>
      <trkpt lat="45.08927" lon="4.77209">
        <ele>381.9</ele>
        <time>2026-05-02T11:45:13Z</time>
      </trkpt>
      <trkpt lat="45.0892" lon="4.77205">
        <ele>382.1</ele>
        <time>2026-05-02T11:45:18Z</time>
      </trkpt>
      <trkpt lat="45.08913" lon="4.77202">
        <ele>382.6</ele>
        <time>2026-05-02T11:45:23Z</time>
      </trkpt>
      <trkpt lat="45.08906" lon="4.77199">
        <ele>383.3</ele>
        <time>2026-05-02T11:45:28Z</time>
      </trkpt>
      <trkpt lat="45.08899" lon="4.77195">
        <ele>384.1</ele>
        <time>2026-05-02T11:45:33Z</time>
      </trkpt>
      <trkpt lat="45.08891" lon="4.77193">
        <ele>384.8</ele>
        <time>2026-05-02T11:45:38Z</time>
      </trkpt>
      <trkpt lat="45.08884" lon="4.7719">
        <ele>385.5</ele>
        <time>2026-05-02T11:45:43Z</time>
      </trkpt>
      <trkpt lat="45.08877" lon="4.77187">
        <ele>386.1</ele>
        <time>2026-05-02T11:45:48Z</time>
      </trkpt>
      <trkpt lat="45.08869" lon="4.77184">
        <ele>386.8</ele>
        <time>2026-05-02T11:45:53Z</time>
      </trkpt>
      <trkpt lat="45.08863" lon="4.77181">
        <ele>387.4</ele>
        <time>2026-05-02T11:45:58Z</time>
      </trkpt>
      <trkpt lat="45.08857" lon="4.77178">
        <ele>387.9</ele>
        <time>2026-05-02T11:46:03Z</time>
      </trkpt>
      <trkpt lat="45.0885" lon="4.77175">
        <ele>388.6</ele>
        <time>2026-05-02T11:46:08Z</time>
      </trkpt>
      <trkpt lat="45.08843" lon="4.77171">
        <ele>389.2</ele>
        <time>2026-05-02T11:46:13Z</time>
      </trkpt>
      <trkpt lat="45.08836" lon="4.77168">
        <ele>389.8</ele>
        <time>2026-05-02T11:46:18Z</time>
      </trkpt>
      <trkpt lat="45.08829" lon="4.77166">
        <ele>390.3</ele>
        <time>2026-05-02T11:46:23Z</time>
      </trkpt>
      <trkpt lat="45.08823" lon="4.77163">
        <ele>390.7</ele>
        <time>2026-05-02T11:46:28Z</time>
      </trkpt>
      <trkpt lat="45.08816" lon="4.77159">
        <ele>391.1</ele>
        <time>2026-05-02T11:46:33Z</time>
      </trkpt>
      <trkpt lat="45.08809" lon="4.77156">
        <ele>391.5</ele>
        <time>2026-05-02T11:46:38Z</time>
      </trkpt>
      <trkpt lat="45.08802" lon="4.77153">
        <ele>391.8</ele>
        <time>2026-05-02T11:46:43Z</time>
      </trkpt>
      <trkpt lat="45.08796" lon="4.77151">
        <ele>392</ele>
        <time>2026-05-02T11:46:48Z</time>
      </trkpt>
      <trkpt lat="45.08789" lon="4.77148">
        <ele>392.2</ele>
        <time>2026-05-02T11:46:53Z</time>
      </trkpt>
      <trkpt lat="45.08782" lon="4.77145">
        <ele>392.4</ele>
        <time>2026-05-02T11:46:58Z</time>
      </trkpt>
      <trkpt lat="45.08776" lon="4.77142">
        <ele>392.5</ele>
        <time>2026-05-02T11:47:03Z</time>
      </trkpt>
      <trkpt lat="45.08768" lon="4.7714">
        <ele>392.7</ele>
        <time>2026-05-02T11:47:08Z</time>
      </trkpt>
      <trkpt lat="45.0876" lon="4.77138">
        <ele>392.9</ele>
        <time>2026-05-02T11:47:13Z</time>
      </trkpt>
      <trkpt lat="45.08754" lon="4.77137">
        <ele>393</ele>
        <time>2026-05-02T11:47:18Z</time>
      </trkpt>
      <trkpt lat="45.08748" lon="4.77134">
        <ele>392.9</ele>
        <time>2026-05-02T11:47:23Z</time>
      </trkpt>
      <trkpt lat="45.08742" lon="4.7713">
        <ele>392.6</ele>
        <time>2026-05-02T11:47:28Z</time>
      </trkpt>
      <trkpt lat="45.08736" lon="4.77127">
        <ele>392.4</ele>
        <time>2026-05-02T11:47:33Z</time>
      </trkpt>
      <trkpt lat="45.0873" lon="4.77125">
        <ele>392.4</ele>
        <time>2026-05-02T11:47:38Z</time>
      </trkpt>
      <trkpt lat="45.08728" lon="4.77125">
        <ele>392.4</ele>
        <time>2026-05-02T11:47:43Z</time>
      </trkpt>
      <trkpt lat="45.08721" lon="4.77123">
        <ele>392.3</ele>
        <time>2026-05-02T11:47:48Z</time>
      </trkpt>
      <trkpt lat="45.08716" lon="4.77122">
        <ele>392.3</ele>
        <time>2026-05-02T11:47:53Z</time>
      </trkpt>
      <trkpt lat="45.0871" lon="4.7712">
        <ele>392.2</ele>
        <time>2026-05-02T11:47:58Z</time>
      </trkpt>
      <trkpt lat="45.08705" lon="4.77121">
        <ele>392.4</ele>
        <time>2026-05-02T11:48:03Z</time>
      </trkpt>
      <trkpt lat="45.08697" lon="4.77122">
        <ele>392.6</ele>
        <time>2026-05-02T11:48:08Z</time>
      </trkpt>
      <trkpt lat="45.08691" lon="4.77123">
        <ele>392.9</ele>
        <time>2026-05-02T11:48:13Z</time>
      </trkpt>
      <trkpt lat="45.08683" lon="4.77126">
        <ele>393.3</ele>
        <time>2026-05-02T11:48:18Z</time>
      </trkpt>
      <trkpt lat="45.08677" lon="4.77128">
        <ele>393.6</ele>
        <time>2026-05-02T11:48:23Z</time>
      </trkpt>
      <trkpt lat="45.08671" lon="4.77132">
        <ele>394.2</ele>
        <time>2026-05-02T11:48:28Z</time>
      </trkpt>
      <trkpt lat="45.08664" lon="4.77137">
        <ele>394.7</ele>
        <time>2026-05-02T11:48:33Z</time>
      </trkpt>
      <trkpt lat="45.08658" lon="4.7714">
        <ele>394.8</ele>
        <time>2026-05-02T11:48:38Z</time>
      </trkpt>
      <trkpt lat="45.08653" lon="4.77144">
        <ele>395.1</ele>
        <time>2026-05-02T11:48:43Z</time>
      </trkpt>
      <trkpt lat="45.08647" lon="4.77147">
        <ele>395.2</ele>
        <time>2026-05-02T11:48:48Z</time>
      </trkpt>
      <trkpt lat="45.08641" lon="4.77151">
        <ele>395.4</ele>
        <time>2026-05-02T11:48:53Z</time>
      </trkpt>
      <trkpt lat="45.08636" lon="4.77156">
        <ele>395.7</ele>
        <time>2026-05-02T11:48:58Z</time>
      </trkpt>
      <trkpt lat="45.0863" lon="4.7716">
        <ele>396</ele>
        <time>2026-05-02T11:49:03Z</time>
      </trkpt>
      <trkpt lat="45.08624" lon="4.77164">
        <ele>396.2</ele>
        <time>2026-05-02T11:49:08Z</time>
      </trkpt>
      <trkpt lat="45.08618" lon="4.77167">
        <ele>396.3</ele>
        <time>2026-05-02T11:49:13Z</time>
      </trkpt>
      <trkpt lat="45.08612" lon="4.7717">
        <ele>396.3</ele>
        <time>2026-05-02T11:49:18Z</time>
      </trkpt>
      <trkpt lat="45.08607" lon="4.77174">
        <ele>396.5</ele>
        <time>2026-05-02T11:49:23Z</time>
      </trkpt>
      <trkpt lat="45.08602" lon="4.77179">
        <ele>396.9</ele>
        <time>2026-05-02T11:49:28Z</time>
      </trkpt>
      <trkpt lat="45.08597" lon="4.77183">
        <ele>397.1</ele>
        <time>2026-05-02T11:49:33Z</time>
      </trkpt>
      <trkpt lat="45.08594" lon="4.77184">
        <ele>397.1</ele>
        <time>2026-05-02T11:49:38Z</time>
      </trkpt>
      <trkpt lat="45.08594" lon="4.77184">
        <ele>397.1</ele>
        <time>2026-05-02T11:49:43Z</time>
      </trkpt>
      <trkpt lat="45.08594" lon="4.77184">
        <ele>397.1</ele>
        <time>2026-05-02T11:49:48Z</time>
      </trkpt>
      <trkpt lat="45.08594" lon="4.77184">
        <ele>397.1</ele>
        <time>2026-05-02T11:49:53Z</time>
      </trkpt>
      <trkpt lat="45.08594" lon="4.77184">
        <ele>397.1</ele>
        <time>2026-05-02T11:49:58Z</time>
      </trkpt>
      <trkpt lat="45.0859" lon="4.77187">
        <ele>397.4</ele>
        <time>2026-05-02T11:50:03Z</time>
      </trkpt>
      <trkpt lat="45.08585" lon="4.77192">
        <ele>397.8</ele>
        <time>2026-05-02T11:50:08Z</time>
      </trkpt>
      <trkpt lat="45.08579" lon="4.77197">
        <ele>398.4</ele>
        <time>2026-05-02T11:50:13Z</time>
      </trkpt>
      <trkpt lat="45.08574" lon="4.77201">
        <ele>398.9</ele>
        <time>2026-05-02T11:50:18Z</time>
      </trkpt>
      <trkpt lat="45.08568" lon="4.77206">
        <ele>399.5</ele>
        <time>2026-05-02T11:50:23Z</time>
      </trkpt>
      <trkpt lat="45.08562" lon="4.7721">
        <ele>400.1</ele>
        <time>2026-05-02T11:50:28Z</time>
      </trkpt>
      <trkpt lat="45.08556" lon="4.77215">
        <ele>400.7</ele>
        <time>2026-05-02T11:50:33Z</time>
      </trkpt>
      <trkpt lat="45.0855" lon="4.77218">
        <ele>401.1</ele>
        <time>2026-05-02T11:50:38Z</time>
      </trkpt>
      <trkpt lat="45.08544" lon="4.77223">
        <ele>401.7</ele>
        <time>2026-05-02T11:50:43Z</time>
      </trkpt>
      <trkpt lat="45.08537" lon="4.77226">
        <ele>402.1</ele>
        <time>2026-05-02T11:50:48Z</time>
      </trkpt>
      <trkpt lat="45.08531" lon="4.77229">
        <ele>402.5</ele>
        <time>2026-05-02T11:50:53Z</time>
      </trkpt>
      <trkpt lat="45.08524" lon="4.77234">
        <ele>403.1</ele>
        <time>2026-05-02T11:50:58Z</time>
      </trkpt>
      <trkpt lat="45.08518" lon="4.77236">
        <ele>403.4</ele>
        <time>2026-05-02T11:51:03Z</time>
      </trkpt>
      <trkpt lat="45.08513" lon="4.77241">
        <ele>404</ele>
        <time>2026-05-02T11:51:08Z</time>
      </trkpt>
      <trkpt lat="45.08507" lon="4.77245">
        <ele>404.4</ele>
        <time>2026-05-02T11:51:13Z</time>
      </trkpt>
      <trkpt lat="45.08501" lon="4.77248">
        <ele>404.8</ele>
        <time>2026-05-02T11:51:18Z</time>
      </trkpt>
      <trkpt lat="45.08494" lon="4.7725">
        <ele>405.2</ele>
        <time>2026-05-02T11:51:23Z</time>
      </trkpt>
      <trkpt lat="45.08488" lon="4.77252">
        <ele>405.5</ele>
        <time>2026-05-02T11:51:28Z</time>
      </trkpt>
      <trkpt lat="45.08481" lon="4.77253">
        <ele>405.8</ele>
        <time>2026-05-02T11:51:33Z</time>
      </trkpt>
      <trkpt lat="45.08474" lon="4.77253">
        <ele>406</ele>
        <time>2026-05-02T11:51:38Z</time>
      </trkpt>
      <trkpt lat="45.08467" lon="4.77254">
        <ele>406.3</ele>
        <time>2026-05-02T11:51:43Z</time>
      </trkpt>
      <trkpt lat="45.08464" lon="4.77254">
        <ele>406.4</ele>
        <time>2026-05-02T11:51:48Z</time>
      </trkpt>
      <trkpt lat="45.08459" lon="4.77255">
        <ele>406.6</ele>
        <time>2026-05-02T11:51:53Z</time>
      </trkpt>
      <trkpt lat="45.08453" lon="4.77254">
        <ele>406.7</ele>
        <time>2026-05-02T11:51:58Z</time>
      </trkpt>
      <trkpt lat="45.08447" lon="4.77254">
        <ele>406.9</ele>
        <time>2026-05-02T11:52:03Z</time>
      </trkpt>
      <trkpt lat="45.0844" lon="4.77254">
        <ele>407.2</ele>
        <time>2026-05-02T11:52:08Z</time>
      </trkpt>
      <trkpt lat="45.08434" lon="4.77253">
        <ele>407.4</ele>
        <time>2026-05-02T11:52:13Z</time>
      </trkpt>
      <trkpt lat="45.08428" lon="4.77252">
        <ele>407.6</ele>
        <time>2026-05-02T11:52:18Z</time>
      </trkpt>
      <trkpt lat="45.08422" lon="4.7725">
        <ele>407.8</ele>
        <time>2026-05-02T11:52:23Z</time>
      </trkpt>
      <trkpt lat="45.08416" lon="4.77249">
        <ele>407.9</ele>
        <time>2026-05-02T11:52:28Z</time>
      </trkpt>
      <trkpt lat="45.08408" lon="4.77247">
        <ele>407.5</ele>
        <time>2026-05-02T11:52:33Z</time>
      </trkpt>
      <trkpt lat="45.08401" lon="4.77244">
        <ele>407</ele>
        <time>2026-05-02T11:52:38Z</time>
      </trkpt>
      <trkpt lat="45.08394" lon="4.77243">
        <ele>406.7</ele>
        <time>2026-05-02T11:52:43Z</time>
      </trkpt>
      <trkpt lat="45.08387" lon="4.77241">
        <ele>406.3</ele>
        <time>2026-05-02T11:52:48Z</time>
      </trkpt>
      <trkpt lat="45.08381" lon="4.7724">
        <ele>406.1</ele>
        <time>2026-05-02T11:52:53Z</time>
      </trkpt>
      <trkpt lat="45.08373" lon="4.77239">
        <ele>405.7</ele>
        <time>2026-05-02T11:52:58Z</time>
      </trkpt>
      <trkpt lat="45.08367" lon="4.77236">
        <ele>405.4</ele>
        <time>2026-05-02T11:53:03Z</time>
      </trkpt>
      <trkpt lat="45.0836" lon="4.77235">
        <ele>405.2</ele>
        <time>2026-05-02T11:53:08Z</time>
      </trkpt>
      <trkpt lat="45.08353" lon="4.77233">
        <ele>404.9</ele>
        <time>2026-05-02T11:53:13Z</time>
      </trkpt>
      <trkpt lat="45.08346" lon="4.77233">
        <ele>404.7</ele>
        <time>2026-05-02T11:53:18Z</time>
      </trkpt>
      <trkpt lat="45.08339" lon="4.77229">
        <ele>404.4</ele>
        <time>2026-05-02T11:53:23Z</time>
      </trkpt>
      <trkpt lat="45.08333" lon="4.77226">
        <ele>404.3</ele>
        <time>2026-05-02T11:53:28Z</time>
      </trkpt>
      <trkpt lat="45.08325" lon="4.77225">
        <ele>404.2</ele>
        <time>2026-05-02T11:53:33Z</time>
      </trkpt>
      <trkpt lat="45.08318" lon="4.77223">
        <ele>404.1</ele>
        <time>2026-05-02T11:53:38Z</time>
      </trkpt>
      <trkpt lat="45.08311" lon="4.77222">
        <ele>404.1</ele>
        <time>2026-05-02T11:53:43Z</time>
      </trkpt>
      <trkpt lat="45.08305" lon="4.77221">
        <ele>404</ele>
        <time>2026-05-02T11:53:48Z</time>
      </trkpt>
      <trkpt lat="45.08299" lon="4.77219">
        <ele>403.9</ele>
        <time>2026-05-02T11:53:53Z</time>
      </trkpt>
      <trkpt lat="45.08292" lon="4.77218">
        <ele>403.8</ele>
        <time>2026-05-02T11:53:58Z</time>
      </trkpt>
      <trkpt lat="45.08285" lon="4.77215">
        <ele>403.7</ele>
        <time>2026-05-02T11:54:03Z</time>
      </trkpt>
      <trkpt lat="45.08278" lon="4.77214">
        <ele>403.6</ele>
        <time>2026-05-02T11:54:08Z</time>
      </trkpt>
      <trkpt lat="45.0827" lon="4.77213">
        <ele>403.4</ele>
        <time>2026-05-02T11:54:13Z</time>
      </trkpt>
      <trkpt lat="45.08263" lon="4.77212">
        <ele>403.3</ele>
        <time>2026-05-02T11:54:18Z</time>
      </trkpt>
      <trkpt lat="45.08255" lon="4.77212">
        <ele>403.2</ele>
        <time>2026-05-02T11:54:23Z</time>
      </trkpt>
      <trkpt lat="45.08248" lon="4.77211">
        <ele>403.1</ele>
        <time>2026-05-02T11:54:28Z</time>
      </trkpt>
      <trkpt lat="45.0824" lon="4.77211">
        <ele>403.4</ele>
        <time>2026-05-02T11:54:33Z</time>
      </trkpt>
      <trkpt lat="45.08234" lon="4.77209">
        <ele>403.6</ele>
        <time>2026-05-02T11:54:38Z</time>
      </trkpt>
      <trkpt lat="45.08227" lon="4.77207">
        <ele>403.8</ele>
        <time>2026-05-02T11:54:43Z</time>
      </trkpt>
      <trkpt lat="45.0822" lon="4.77206">
        <ele>404</ele>
        <time>2026-05-02T11:54:48Z</time>
      </trkpt>
      <trkpt lat="45.08213" lon="4.77207">
        <ele>404.3</ele>
        <time>2026-05-02T11:54:53Z</time>
      </trkpt>
      <trkpt lat="45.08207" lon="4.77212">
        <ele>404.6</ele>
        <time>2026-05-02T11:54:58Z</time>
      </trkpt>
      <trkpt lat="45.08204" lon="4.77221">
        <ele>404.8</ele>
        <time>2026-05-02T11:55:03Z</time>
      </trkpt>
      <trkpt lat="45.08201" lon="4.7723">
        <ele>405</ele>
        <time>2026-05-02T11:55:08Z</time>
      </trkpt>
      <trkpt lat="45.08197" lon="4.77236">
        <ele>405.1</ele>
        <time>2026-05-02T11:55:13Z</time>
      </trkpt>
      <trkpt lat="45.08199" lon="4.77233">
        <ele>405.1</ele>
        <time>2026-05-02T11:55:18Z</time>
      </trkpt>
      <trkpt lat="45.08202" lon="4.77228">
        <ele>404.9</ele>
        <time>2026-05-02T11:55:23Z</time>
      </trkpt>
      <trkpt lat="45.08203" lon="4.77219">
        <ele>404.8</ele>
        <time>2026-05-02T11:55:28Z</time>
      </trkpt>
      <trkpt lat="45.082" lon="4.7721">
        <ele>404.8</ele>
        <time>2026-05-02T11:55:33Z</time>
      </trkpt>
      <trkpt lat="45.08195" lon="4.77206">
        <ele>405</ele>
        <time>2026-05-02T11:55:38Z</time>
      </trkpt>
      <trkpt lat="45.08188" lon="4.77205">
        <ele>405.2</ele>
        <time>2026-05-02T11:55:43Z</time>
      </trkpt>
      <trkpt lat="45.08182" lon="4.77205">
        <ele>405.4</ele>
        <time>2026-05-02T11:55:48Z</time>
      </trkpt>
      <trkpt lat="45.08175" lon="4.77204">
        <ele>405.7</ele>
        <time>2026-05-02T11:55:53Z</time>
      </trkpt>
      <trkpt lat="45.08168" lon="4.77203">
        <ele>405.9</ele>
        <time>2026-05-02T11:55:58Z</time>
      </trkpt>
      <trkpt lat="45.08162" lon="4.77204">
        <ele>406.3</ele>
        <time>2026-05-02T11:56:03Z</time>
      </trkpt>
      <trkpt lat="45.08154" lon="4.77202">
        <ele>406.9</ele>
        <time>2026-05-02T11:56:08Z</time>
      </trkpt>
      <trkpt lat="45.08147" lon="4.77201">
        <ele>407.4</ele>
        <time>2026-05-02T11:56:13Z</time>
      </trkpt>
      <trkpt lat="45.0814" lon="4.77203">
        <ele>407.8</ele>
        <time>2026-05-02T11:56:18Z</time>
      </trkpt>
      <trkpt lat="45.08133" lon="4.77204">
        <ele>408.3</ele>
        <time>2026-05-02T11:56:23Z</time>
      </trkpt>
      <trkpt lat="45.08127" lon="4.77202">
        <ele>408.7</ele>
        <time>2026-05-02T11:56:28Z</time>
      </trkpt>
      <trkpt lat="45.08121" lon="4.77204">
        <ele>409.1</ele>
        <time>2026-05-02T11:56:33Z</time>
      </trkpt>
      <trkpt lat="45.08115" lon="4.77203">
        <ele>409.5</ele>
        <time>2026-05-02T11:56:38Z</time>
      </trkpt>
      <trkpt lat="45.08108" lon="4.77205">
        <ele>410</ele>
        <time>2026-05-02T11:56:43Z</time>
      </trkpt>
      <trkpt lat="45.08101" lon="4.77202">
        <ele>410.5</ele>
        <time>2026-05-02T11:56:48Z</time>
      </trkpt>
      <trkpt lat="45.08095" lon="4.772">
        <ele>411</ele>
        <time>2026-05-02T11:56:53Z</time>
      </trkpt>
      <trkpt lat="45.08088" lon="4.772">
        <ele>411.5</ele>
        <time>2026-05-02T11:56:58Z</time>
      </trkpt>
      <trkpt lat="45.08081" lon="4.77198">
        <ele>412</ele>
        <time>2026-05-02T11:57:03Z</time>
      </trkpt>
      <trkpt lat="45.08078" lon="4.77196">
        <ele>412.1</ele>
        <time>2026-05-02T11:57:08Z</time>
      </trkpt>
      <trkpt lat="45.08072" lon="4.77191">
        <ele>412.5</ele>
        <time>2026-05-02T11:57:13Z</time>
      </trkpt>
      <trkpt lat="45.08066" lon="4.77188">
        <ele>412.8</ele>
        <time>2026-05-02T11:57:18Z</time>
      </trkpt>
      <trkpt lat="45.0806" lon="4.77183">
        <ele>413.1</ele>
        <time>2026-05-02T11:57:23Z</time>
      </trkpt>
      <trkpt lat="45.08053" lon="4.77179">
        <ele>413.4</ele>
        <time>2026-05-02T11:57:28Z</time>
      </trkpt>
      <trkpt lat="45.08047" lon="4.77174">
        <ele>413.7</ele>
        <time>2026-05-02T11:57:33Z</time>
      </trkpt>
      <trkpt lat="45.08043" lon="4.77168">
        <ele>413.9</ele>
        <time>2026-05-02T11:57:38Z</time>
      </trkpt>
      <trkpt lat="45.08038" lon="4.77162">
        <ele>413.8</ele>
        <time>2026-05-02T11:57:43Z</time>
      </trkpt>
      <trkpt lat="45.08033" lon="4.77156">
        <ele>413.6</ele>
        <time>2026-05-02T11:57:48Z</time>
      </trkpt>
      <trkpt lat="45.08028" lon="4.77151">
        <ele>413.4</ele>
        <time>2026-05-02T11:57:53Z</time>
      </trkpt>
      <trkpt lat="45.08021" lon="4.77145">
        <ele>413.3</ele>
        <time>2026-05-02T11:57:58Z</time>
      </trkpt>
      <trkpt lat="45.08016" lon="4.7714">
        <ele>413.2</ele>
        <time>2026-05-02T11:58:03Z</time>
      </trkpt>
      <trkpt lat="45.0801" lon="4.77136">
        <ele>413.2</ele>
        <time>2026-05-02T11:58:08Z</time>
      </trkpt>
      <trkpt lat="45.08005" lon="4.77131">
        <ele>413.1</ele>
        <time>2026-05-02T11:58:13Z</time>
      </trkpt>
      <trkpt lat="45.08002" lon="4.77128">
        <ele>413.1</ele>
        <time>2026-05-02T11:58:18Z</time>
      </trkpt>
      <trkpt lat="45.08002" lon="4.77128">
        <ele>413.1</ele>
        <time>2026-05-02T11:58:23Z</time>
      </trkpt>
      <trkpt lat="45.08002" lon="4.77128">
        <ele>413.1</ele>
        <time>2026-05-02T11:58:28Z</time>
      </trkpt>
      <trkpt lat="45.08002" lon="4.77128">
        <ele>413.1</ele>
        <time>2026-05-02T11:58:33Z</time>
      </trkpt>
      <trkpt lat="45.08002" lon="4.77128">
        <ele>413.1</ele>
        <time>2026-05-02T11:58:38Z</time>
      </trkpt>
      <trkpt lat="45.08002" lon="4.77128">
        <ele>413.1</ele>
        <time>2026-05-02T11:58:43Z</time>
      </trkpt>
      <trkpt lat="45.08002" lon="4.77128">
        <ele>413.1</ele>
        <time>2026-05-02T11:58:48Z</time>
      </trkpt>
      <trkpt lat="45.08" lon="4.77128">
        <ele>413.1</ele>
        <time>2026-05-02T11:58:53Z</time>
      </trkpt>
      <trkpt lat="45.07997" lon="4.77125">
        <ele>412.8</ele>
        <time>2026-05-02T11:58:58Z</time>
      </trkpt>
      <trkpt lat="45.07996" lon="4.77125">
        <ele>412.8</ele>
        <time>2026-05-02T11:59:03Z</time>
      </trkpt>
      <trkpt lat="45.07994" lon="4.77123">
        <ele>412.5</ele>
        <time>2026-05-02T11:59:08Z</time>
      </trkpt>
      <trkpt lat="45.07994" lon="4.77123">
        <ele>412.5</ele>
        <time>2026-05-02T11:59:13Z</time>
      </trkpt>
      <trkpt lat="45.07988" lon="4.77122">
        <ele>412.1</ele>
        <time>2026-05-02T11:59:18Z</time>
      </trkpt>
      <trkpt lat="45.07982" lon="4.77118">
        <ele>411.6</ele>
        <time>2026-05-02T11:59:23Z</time>
      </trkpt>
      <trkpt lat="45.07975" lon="4.77114">
        <ele>411</ele>
        <time>2026-05-02T11:59:28Z</time>
      </trkpt>
      <trkpt lat="45.07968" lon="4.77111">
        <ele>410.4</ele>
        <time>2026-05-02T11:59:33Z</time>
      </trkpt>
      <trkpt lat="45.07961" lon="4.77108">
        <ele>409.8</ele>
        <time>2026-05-02T11:59:38Z</time>
      </trkpt>
      <trkpt lat="45.07954" lon="4.77104">
        <ele>409.2</ele>
        <time>2026-05-02T11:59:43Z</time>
      </trkpt>
      <trkpt lat="45.07948" lon="4.771">
        <ele>408.7</ele>
        <time>2026-05-02T11:59:48Z</time>
      </trkpt>
      <trkpt lat="45.07941" lon="4.77094">
        <ele>408</ele>
        <time>2026-05-02T11:59:53Z</time>
      </trkpt>
      <trkpt lat="45.07934" lon="4.77087">
        <ele>407.2</ele>
        <time>2026-05-02T11:59:58Z</time>
      </trkpt>
      <trkpt lat="45.07928" lon="4.77081">
        <ele>406.7</ele>
        <time>2026-05-02T12:00:03Z</time>
      </trkpt>
      <trkpt lat="45.07923" lon="4.77075">
        <ele>406.3</ele>
        <time>2026-05-02T12:00:08Z</time>
      </trkpt>
      <trkpt lat="45.07919" lon="4.77068">
        <ele>406.1</ele>
        <time>2026-05-02T12:00:13Z</time>
      </trkpt>
      <trkpt lat="45.07913" lon="4.77065">
        <ele>405.8</ele>
        <time>2026-05-02T12:00:18Z</time>
      </trkpt>
      <trkpt lat="45.07907" lon="4.77065">
        <ele>405.6</ele>
        <time>2026-05-02T12:00:23Z</time>
      </trkpt>
      <trkpt lat="45.079" lon="4.77064">
        <ele>405.3</ele>
        <time>2026-05-02T12:00:28Z</time>
      </trkpt>
      <trkpt lat="45.07892" lon="4.77064">
        <ele>405</ele>
        <time>2026-05-02T12:00:33Z</time>
      </trkpt>
      <trkpt lat="45.07884" lon="4.77063">
        <ele>404.6</ele>
        <time>2026-05-02T12:00:38Z</time>
      </trkpt>
      <trkpt lat="45.07877" lon="4.77064">
        <ele>404.4</ele>
        <time>2026-05-02T12:00:43Z</time>
      </trkpt>
      <trkpt lat="45.0787" lon="4.77065">
        <ele>404.1</ele>
        <time>2026-05-02T12:00:48Z</time>
      </trkpt>
      <trkpt lat="45.07863" lon="4.77064">
        <ele>403.8</ele>
        <time>2026-05-02T12:00:53Z</time>
      </trkpt>
      <trkpt lat="45.07856" lon="4.77064">
        <ele>403.5</ele>
        <time>2026-05-02T12:00:58Z</time>
      </trkpt>
      <trkpt lat="45.07849" lon="4.77064">
        <ele>403.2</ele>
        <time>2026-05-02T12:01:03Z</time>
      </trkpt>
      <trkpt lat="45.07842" lon="4.77064">
        <ele>402.9</ele>
        <time>2026-05-02T12:01:08Z</time>
      </trkpt>
      <trkpt lat="45.07835" lon="4.77063">
        <ele>402.6</ele>
        <time>2026-05-02T12:01:13Z</time>
      </trkpt>
      <trkpt lat="45.07827" lon="4.77064">
        <ele>402.2</ele>
        <time>2026-05-02T12:01:18Z</time>
      </trkpt>
      <trkpt lat="45.07819" lon="4.77065">
        <ele>401.8</ele>
        <time>2026-05-02T12:01:23Z</time>
      </trkpt>
      <trkpt lat="45.0781" lon="4.77066">
        <ele>401.3</ele>
        <time>2026-05-02T12:01:28Z</time>
      </trkpt>
      <trkpt lat="45.07802" lon="4.77066">
        <ele>400.9</ele>
        <time>2026-05-02T12:01:33Z</time>
      </trkpt>
      <trkpt lat="45.07795" lon="4.77066">
        <ele>400.5</ele>
        <time>2026-05-02T12:01:38Z</time>
      </trkpt>
      <trkpt lat="45.07788" lon="4.77066">
        <ele>400.1</ele>
        <time>2026-05-02T12:01:43Z</time>
      </trkpt>
      <trkpt lat="45.07785" lon="4.77067">
        <ele>399.9</ele>
        <time>2026-05-02T12:01:48Z</time>
      </trkpt>
      <trkpt lat="45.07785" lon="4.77067">
        <ele>399.9</ele>
        <time>2026-05-02T12:01:53Z</time>
      </trkpt>
      <trkpt lat="45.07785" lon="4.77067">
        <ele>399.9</ele>
        <time>2026-05-02T12:01:58Z</time>
      </trkpt>
      <trkpt lat="45.07785" lon="4.77067">
        <ele>399.9</ele>
        <time>2026-05-02T12:02:03Z</time>
      </trkpt>
      <trkpt lat="45.07778" lon="4.77066">
        <ele>399.5</ele>
        <time>2026-05-02T12:02:08Z</time>
      </trkpt>
      <trkpt lat="45.07771" lon="4.77065">
        <ele>399.1</ele>
        <time>2026-05-02T12:02:13Z</time>
      </trkpt>
      <trkpt lat="45.07763" lon="4.77065">
        <ele>398.7</ele>
        <time>2026-05-02T12:02:18Z</time>
      </trkpt>
      <trkpt lat="45.07755" lon="4.77066">
        <ele>398.3</ele>
        <time>2026-05-02T12:02:23Z</time>
      </trkpt>
      <trkpt lat="45.07746" lon="4.77068">
        <ele>397.6</ele>
        <time>2026-05-02T12:02:28Z</time>
      </trkpt>
      <trkpt lat="45.07739" lon="4.77068">
        <ele>397</ele>
        <time>2026-05-02T12:02:33Z</time>
      </trkpt>
      <trkpt lat="45.07732" lon="4.77067">
        <ele>396.4</ele>
        <time>2026-05-02T12:02:38Z</time>
      </trkpt>
      <trkpt lat="45.07725" lon="4.77066">
        <ele>395.7</ele>
        <time>2026-05-02T12:02:43Z</time>
      </trkpt>
      <trkpt lat="45.07717" lon="4.77066">
        <ele>395</ele>
        <time>2026-05-02T12:02:48Z</time>
      </trkpt>
      <trkpt lat="45.0771" lon="4.77066">
        <ele>394.3</ele>
        <time>2026-05-02T12:02:53Z</time>
      </trkpt>
      <trkpt lat="45.07704" lon="4.77066">
        <ele>393.8</ele>
        <time>2026-05-02T12:02:58Z</time>
      </trkpt>
      <trkpt lat="45.07696" lon="4.77067">
        <ele>393.1</ele>
        <time>2026-05-02T12:03:03Z</time>
      </trkpt>
      <trkpt lat="45.0769" lon="4.77069">
        <ele>392.7</ele>
        <time>2026-05-02T12:03:08Z</time>
      </trkpt>
      <trkpt lat="45.07683" lon="4.77069">
        <ele>392.1</ele>
        <time>2026-05-02T12:03:13Z</time>
      </trkpt>
      <trkpt lat="45.07676" lon="4.77071">
        <ele>391.6</ele>
        <time>2026-05-02T12:03:18Z</time>
      </trkpt>
      <trkpt lat="45.07669" lon="4.77074">
        <ele>391.3</ele>
        <time>2026-05-02T12:03:23Z</time>
      </trkpt>
      <trkpt lat="45.07662" lon="4.77074">
        <ele>390.4</ele>
        <time>2026-05-02T12:03:28Z</time>
      </trkpt>
      <trkpt lat="45.07655" lon="4.77075">
        <ele>389.3</ele>
        <time>2026-05-02T12:03:33Z</time>
      </trkpt>
      <trkpt lat="45.07648" lon="4.77077">
        <ele>388.5</ele>
        <time>2026-05-02T12:03:38Z</time>
      </trkpt>
      <trkpt lat="45.07641" lon="4.77078">
        <ele>387.5</ele>
        <time>2026-05-02T12:03:43Z</time>
      </trkpt>
      <trkpt lat="45.07635" lon="4.77083">
        <ele>387.4</ele>
        <time>2026-05-02T12:03:48Z</time>
      </trkpt>
      <trkpt lat="45.07628" lon="4.77085">
        <ele>386.4</ele>
        <time>2026-05-02T12:03:53Z</time>
      </trkpt>
      <trkpt lat="45.07621" lon="4.77088">
        <ele>385.3</ele>
        <time>2026-05-02T12:03:58Z</time>
      </trkpt>
      <trkpt lat="45.07614" lon="4.77091">
        <ele>384.4</ele>
        <time>2026-05-02T12:04:03Z</time>
      </trkpt>
      <trkpt lat="45.07608" lon="4.77094">
        <ele>383.6</ele>
        <time>2026-05-02T12:04:08Z</time>
      </trkpt>
      <trkpt lat="45.07601" lon="4.77095">
        <ele>382.7</ele>
        <time>2026-05-02T12:04:13Z</time>
      </trkpt>
      <trkpt lat="45.07594" lon="4.77097">
        <ele>381.9</ele>
        <time>2026-05-02T12:04:18Z</time>
      </trkpt>
      <trkpt lat="45.07587" lon="4.771">
        <ele>381.2</ele>
        <time>2026-05-02T12:04:23Z</time>
      </trkpt>
      <trkpt lat="45.0758" lon="4.77103">
        <ele>380.2</ele>
        <time>2026-05-02T12:04:28Z</time>
      </trkpt>
      <trkpt lat="45.07572" lon="4.77104">
        <ele>378.6</ele>
        <time>2026-05-02T12:04:33Z</time>
      </trkpt>
      <trkpt lat="45.07567" lon="4.77109">
        <ele>378</ele>
        <time>2026-05-02T12:04:38Z</time>
      </trkpt>
      <trkpt lat="45.07564" lon="4.77109">
        <ele>377.4</ele>
        <time>2026-05-02T12:04:43Z</time>
      </trkpt>
      <trkpt lat="45.07564" lon="4.77108">
        <ele>377.3</ele>
        <time>2026-05-02T12:04:48Z</time>
      </trkpt>
      <trkpt lat="45.07564" lon="4.77108">
        <ele>377.3</ele>
        <time>2026-05-02T12:04:53Z</time>
      </trkpt>
      <trkpt lat="45.07564" lon="4.77108">
        <ele>377.3</ele>
        <time>2026-05-02T12:04:58Z</time>
      </trkpt>
      <trkpt lat="45.07562" lon="4.77111">
        <ele>377.1</ele>
        <time>2026-05-02T12:05:03Z</time>
      </trkpt>
      <trkpt lat="45.07556" lon="4.77114">
        <ele>376.3</ele>
        <time>2026-05-02T12:05:08Z</time>
      </trkpt>
      <trkpt lat="45.07547" lon="4.77114">
        <ele>374.6</ele>
        <time>2026-05-02T12:05:13Z</time>
      </trkpt>
      <trkpt lat="45.0754" lon="4.77115">
        <ele>373.4</ele>
        <time>2026-05-02T12:05:18Z</time>
      </trkpt>
      <trkpt lat="45.07534" lon="4.77115">
        <ele>372.2</ele>
        <time>2026-05-02T12:05:23Z</time>
      </trkpt>
      <trkpt lat="45.07526" lon="4.77115">
        <ele>370.7</ele>
        <time>2026-05-02T12:05:28Z</time>
      </trkpt>
      <trkpt lat="45.0752" lon="4.77115">
        <ele>369.6</ele>
        <time>2026-05-02T12:05:33Z</time>
      </trkpt>
      <trkpt lat="45.07514" lon="4.77116">
        <ele>368.7</ele>
        <time>2026-05-02T12:05:38Z</time>
      </trkpt>
      <trkpt lat="45.07513" lon="4.77115">
        <ele>368.3</ele>
        <time>2026-05-02T12:05:43Z</time>
      </trkpt>
      <trkpt lat="45.07505" lon="4.77117">
        <ele>367.2</ele>
        <time>2026-05-02T12:05:48Z</time>
      </trkpt>
      <trkpt lat="45.07498" lon="4.77119">
        <ele>366.3</ele>
        <time>2026-05-02T12:05:53Z</time>
      </trkpt>
      <trkpt lat="45.07494" lon="4.77121">
        <ele>365.8</ele>
        <time>2026-05-02T12:05:58Z</time>
      </trkpt>
      <trkpt lat="45.07494" lon="4.77121">
        <ele>365.8</ele>
        <time>2026-05-02T12:06:03Z</time>
      </trkpt>
      <trkpt lat="45.07492" lon="4.77123">
        <ele>365.9</ele>
        <time>2026-05-02T12:06:08Z</time>
      </trkpt>
      <trkpt lat="45.07486" lon="4.77126">
        <ele>365.3</ele>
        <time>2026-05-02T12:06:13Z</time>
      </trkpt>
      <trkpt lat="45.07478" lon="4.77127">
        <ele>363.9</ele>
        <time>2026-05-02T12:06:18Z</time>
      </trkpt>
      <trkpt lat="45.07473" lon="4.77132">
        <ele>364.1</ele>
        <time>2026-05-02T12:06:23Z</time>
      </trkpt>
      <trkpt lat="45.07464" lon="4.77136">
        <ele>363.4</ele>
        <time>2026-05-02T12:06:28Z</time>
      </trkpt>
      <trkpt lat="45.07458" lon="4.77139">
        <ele>363.1</ele>
        <time>2026-05-02T12:06:33Z</time>
      </trkpt>
      <trkpt lat="45.07451" lon="4.77143">
        <ele>363</ele>
        <time>2026-05-02T12:06:38Z</time>
      </trkpt>
      <trkpt lat="45.07444" lon="4.77149">
        <ele>363.6</ele>
        <time>2026-05-02T12:06:43Z</time>
      </trkpt>
      <trkpt lat="45.07441" lon="4.77156">
        <ele>365.2</ele>
        <time>2026-05-02T12:06:48Z</time>
      </trkpt>
      <trkpt lat="45.07436" lon="4.77165">
        <ele>367.3</ele>
        <time>2026-05-02T12:06:53Z</time>
      </trkpt>
      <trkpt lat="45.07431" lon="4.77172">
        <ele>367.7</ele>
        <time>2026-05-02T12:06:58Z</time>
      </trkpt>
      <trkpt lat="45.07425" lon="4.77179">
        <ele>367.8</ele>
        <time>2026-05-02T12:07:03Z</time>
      </trkpt>
      <trkpt lat="45.07419" lon="4.77184">
        <ele>367.9</ele>
        <time>2026-05-02T12:07:08Z</time>
      </trkpt>
      <trkpt lat="45.07413" lon="4.77191">
        <ele>368.4</ele>
        <time>2026-05-02T12:07:13Z</time>
      </trkpt>
      <trkpt lat="45.07406" lon="4.77198">
        <ele>368.9</ele>
        <time>2026-05-02T12:07:18Z</time>
      </trkpt>
      <trkpt lat="45.07399" lon="4.77202">
        <ele>369</ele>
        <time>2026-05-02T12:07:23Z</time>
      </trkpt>
      <trkpt lat="45.07392" lon="4.77205">
        <ele>368.9</ele>
        <time>2026-05-02T12:07:28Z</time>
      </trkpt>
      <trkpt lat="45.07387" lon="4.77206">
        <ele>368.7</ele>
        <time>2026-05-02T12:07:33Z</time>
      </trkpt>
      <trkpt lat="45.07386" lon="4.77206">
        <ele>368.6</ele>
        <time>2026-05-02T12:07:38Z</time>
      </trkpt>
      <trkpt lat="45.07386" lon="4.77206">
        <ele>368.6</ele>
        <time>2026-05-02T12:07:43Z</time>
      </trkpt>
      <trkpt lat="45.07386" lon="4.77206">
        <ele>368.6</ele>
        <time>2026-05-02T12:07:48Z</time>
      </trkpt>
      <trkpt lat="45.07386" lon="4.77206">
        <ele>368.6</ele>
        <time>2026-05-02T12:07:53Z</time>
      </trkpt>
      <trkpt lat="45.07383" lon="4.77212">
        <ele>369.6</ele>
        <time>2026-05-02T12:07:58Z</time>
      </trkpt>
      <trkpt lat="45.07377" lon="4.77216">
        <ele>370.1</ele>
        <time>2026-05-02T12:08:03Z</time>
      </trkpt>
      <trkpt lat="45.07371" lon="4.7722">
        <ele>370.6</ele>
        <time>2026-05-02T12:08:08Z</time>
      </trkpt>
      <trkpt lat="45.07364" lon="4.77222">
        <ele>370.7</ele>
        <time>2026-05-02T12:08:13Z</time>
      </trkpt>
      <trkpt lat="45.07358" lon="4.77224">
        <ele>370.8</ele>
        <time>2026-05-02T12:08:18Z</time>
      </trkpt>
      <trkpt lat="45.07351" lon="4.77226">
        <ele>371</ele>
        <time>2026-05-02T12:08:23Z</time>
      </trkpt>
      <trkpt lat="45.07345" lon="4.77225">
        <ele>370.4</ele>
        <time>2026-05-02T12:08:28Z</time>
      </trkpt>
      <trkpt lat="45.07339" lon="4.77227">
        <ele>370.7</ele>
        <time>2026-05-02T12:08:33Z</time>
      </trkpt>
      <trkpt lat="45.07332" lon="4.77227">
        <ele>370.3</ele>
        <time>2026-05-02T12:08:38Z</time>
      </trkpt>
      <trkpt lat="45.07326" lon="4.77227">
        <ele>369.8</ele>
        <time>2026-05-02T12:08:43Z</time>
      </trkpt>
      <trkpt lat="45.0732" lon="4.77227">
        <ele>369.4</ele>
        <time>2026-05-02T12:08:48Z</time>
      </trkpt>
      <trkpt lat="45.07314" lon="4.77228">
        <ele>369.2</ele>
        <time>2026-05-02T12:08:53Z</time>
      </trkpt>
      <trkpt lat="45.07307" lon="4.77228">
        <ele>368.7</ele>
        <time>2026-05-02T12:08:58Z</time>
      </trkpt>
      <trkpt lat="45.07301" lon="4.7723">
        <ele>368.8</ele>
        <time>2026-05-02T12:09:03Z</time>
      </trkpt>
      <trkpt lat="45.07294" lon="4.7723">
        <ele>368.3</ele>
        <time>2026-05-02T12:09:08Z</time>
      </trkpt>
      <trkpt lat="45.07289" lon="4.77234">
        <ele>369.2</ele>
        <time>2026-05-02T12:09:13Z</time>
      </trkpt>
      <trkpt lat="45.07282" lon="4.77235">
        <ele>369</ele>
        <time>2026-05-02T12:09:18Z</time>
      </trkpt>
      <trkpt lat="45.07275" lon="4.77239">
        <ele>369.9</ele>
        <time>2026-05-02T12:09:23Z</time>
      </trkpt>
      <trkpt lat="45.07268" lon="4.77242">
        <ele>370.4</ele>
        <time>2026-05-02T12:09:28Z</time>
      </trkpt>
      <trkpt lat="45.07261" lon="4.77246">
        <ele>371.3</ele>
        <time>2026-05-02T12:09:33Z</time>
      </trkpt>
      <trkpt lat="45.07253" lon="4.77251">
        <ele>372.2</ele>
        <time>2026-05-02T12:09:38Z</time>
      </trkpt>
      <trkpt lat="45.07245" lon="4.77257">
        <ele>371.8</ele>
        <time>2026-05-02T12:09:43Z</time>
      </trkpt>
      <trkpt lat="45.07237" lon="4.7726">
        <ele>371.6</ele>
        <time>2026-05-02T12:09:48Z</time>
      </trkpt>
      <trkpt lat="45.0723" lon="4.77262">
        <ele>371.5</ele>
        <time>2026-05-02T12:09:53Z</time>
      </trkpt>
      <trkpt lat="45.07223" lon="4.77266">
        <ele>371.2</ele>
        <time>2026-05-02T12:09:58Z</time>
      </trkpt>
      <trkpt lat="45.07214" lon="4.77268">
        <ele>371</ele>
        <time>2026-05-02T12:10:03Z</time>
      </trkpt>
      <trkpt lat="45.07207" lon="4.77269">
        <ele>370.8</ele>
        <time>2026-05-02T12:10:08Z</time>
      </trkpt>
      <trkpt lat="45.072" lon="4.77269">
        <ele>370.6</ele>
        <time>2026-05-02T12:10:13Z</time>
      </trkpt>
      <trkpt lat="45.07192" lon="4.7727">
        <ele>370.4</ele>
        <time>2026-05-02T12:10:18Z</time>
      </trkpt>
      <trkpt lat="45.07186" lon="4.77271">
        <ele>370.2</ele>
        <time>2026-05-02T12:10:23Z</time>
      </trkpt>
      <trkpt lat="45.07179" lon="4.7727">
        <ele>370.1</ele>
        <time>2026-05-02T12:10:28Z</time>
      </trkpt>
      <trkpt lat="45.07172" lon="4.7727">
        <ele>369.9</ele>
        <time>2026-05-02T12:10:33Z</time>
      </trkpt>
      <trkpt lat="45.07165" lon="4.77269">
        <ele>369.9</ele>
        <time>2026-05-02T12:10:38Z</time>
      </trkpt>
      <trkpt lat="45.07158" lon="4.77271">
        <ele>370.1</ele>
        <time>2026-05-02T12:10:43Z</time>
      </trkpt>
      <trkpt lat="45.0715" lon="4.77272">
        <ele>370.3</ele>
        <time>2026-05-02T12:10:48Z</time>
      </trkpt>
      <trkpt lat="45.07142" lon="4.77271">
        <ele>370.6</ele>
        <time>2026-05-02T12:10:53Z</time>
      </trkpt>
      <trkpt lat="45.07134" lon="4.77269">
        <ele>371</ele>
        <time>2026-05-02T12:10:58Z</time>
      </trkpt>
      <trkpt lat="45.07127" lon="4.77267">
        <ele>371.4</ele>
        <time>2026-05-02T12:11:03Z</time>
      </trkpt>
      <trkpt lat="45.0712" lon="4.77267">
        <ele>371.7</ele>
        <time>2026-05-02T12:11:08Z</time>
      </trkpt>
      <trkpt lat="45.07113" lon="4.77267">
        <ele>371.9</ele>
        <time>2026-05-02T12:11:13Z</time>
      </trkpt>
      <trkpt lat="45.07106" lon="4.77266">
        <ele>372.2</ele>
        <time>2026-05-02T12:11:18Z</time>
      </trkpt>
      <trkpt lat="45.07098" lon="4.77264">
        <ele>372.6</ele>
        <time>2026-05-02T12:11:23Z</time>
      </trkpt>
      <trkpt lat="45.0709" lon="4.77262">
        <ele>373</ele>
        <time>2026-05-02T12:11:28Z</time>
      </trkpt>
      <trkpt lat="45.07083" lon="4.7726">
        <ele>373.4</ele>
        <time>2026-05-02T12:11:33Z</time>
      </trkpt>
      <trkpt lat="45.07076" lon="4.77258">
        <ele>373.9</ele>
        <time>2026-05-02T12:11:38Z</time>
      </trkpt>
      <trkpt lat="45.07068" lon="4.77257">
        <ele>374.3</ele>
        <time>2026-05-02T12:11:43Z</time>
      </trkpt>
      <trkpt lat="45.07066" lon="4.77255">
        <ele>374.5</ele>
        <time>2026-05-02T12:11:48Z</time>
      </trkpt>
      <trkpt lat="45.07059" lon="4.77254">
        <ele>374.9</ele>
        <time>2026-05-02T12:11:53Z</time>
      </trkpt>
      <trkpt lat="45.07053" lon="4.77253">
        <ele>375.3</ele>
        <time>2026-05-02T12:11:58Z</time>
      </trkpt>
      <trkpt lat="45.07045" lon="4.77253">
        <ele>375.7</ele>
        <time>2026-05-02T12:12:03Z</time>
      </trkpt>
      <trkpt lat="45.07038" lon="4.77254">
        <ele>375.9</ele>
        <time>2026-05-02T12:12:08Z</time>
      </trkpt>
      <trkpt lat="45.07032" lon="4.77253">
        <ele>376.3</ele>
        <time>2026-05-02T12:12:13Z</time>
      </trkpt>
      <trkpt lat="45.07027" lon="4.77254">
        <ele>376.5</ele>
        <time>2026-05-02T12:12:18Z</time>
      </trkpt>
      <trkpt lat="45.07021" lon="4.77254">
        <ele>376.8</ele>
        <time>2026-05-02T12:12:23Z</time>
      </trkpt>
      <trkpt lat="45.07016" lon="4.77253">
        <ele>377.1</ele>
        <time>2026-05-02T12:12:28Z</time>
      </trkpt>
      <trkpt lat="45.0701" lon="4.77254">
        <ele>377.3</ele>
        <time>2026-05-02T12:12:33Z</time>
      </trkpt>
      <trkpt lat="45.07004" lon="4.77252">
        <ele>377.7</ele>
        <time>2026-05-02T12:12:38Z</time>
      </trkpt>
      <trkpt lat="45.06998" lon="4.7725">
        <ele>377.8</ele>
        <time>2026-05-02T12:12:43Z</time>
      </trkpt>
      <trkpt lat="45.06992" lon="4.77247">
        <ele>376.9</ele>
        <time>2026-05-02T12:12:48Z</time>
      </trkpt>
      <trkpt lat="45.06986" lon="4.77245">
        <ele>376.2</ele>
        <time>2026-05-02T12:12:53Z</time>
      </trkpt>
      <trkpt lat="45.0698" lon="4.77242">
        <ele>375.3</ele>
        <time>2026-05-02T12:12:58Z</time>
      </trkpt>
      <trkpt lat="45.06974" lon="4.77236">
        <ele>374.3</ele>
        <time>2026-05-02T12:13:03Z</time>
      </trkpt>
      <trkpt lat="45.06966" lon="4.77233">
        <ele>373.5</ele>
        <time>2026-05-02T12:13:08Z</time>
      </trkpt>
      <trkpt lat="45.06959" lon="4.77229">
        <ele>372.8</ele>
        <time>2026-05-02T12:13:13Z</time>
      </trkpt>
      <trkpt lat="45.06952" lon="4.77226">
        <ele>372.2</ele>
        <time>2026-05-02T12:13:18Z</time>
      </trkpt>
      <trkpt lat="45.06946" lon="4.77224">
        <ele>371.8</ele>
        <time>2026-05-02T12:13:23Z</time>
      </trkpt>
      <trkpt lat="45.06937" lon="4.77217">
        <ele>371.2</ele>
        <time>2026-05-02T12:13:28Z</time>
      </trkpt>
      <trkpt lat="45.0693" lon="4.77214">
        <ele>370.9</ele>
        <time>2026-05-02T12:13:33Z</time>
      </trkpt>
      <trkpt lat="45.06923" lon="4.77212">
        <ele>370.7</ele>
        <time>2026-05-02T12:13:38Z</time>
      </trkpt>
      <trkpt lat="45.06916" lon="4.7721">
        <ele>370.5</ele>
        <time>2026-05-02T12:13:43Z</time>
      </trkpt>
      <trkpt lat="45.06908" lon="4.7721">
        <ele>369.9</ele>
        <time>2026-05-02T12:13:48Z</time>
      </trkpt>
      <trkpt lat="45.06902" lon="4.77207">
        <ele>369.4</ele>
        <time>2026-05-02T12:13:53Z</time>
      </trkpt>
      <trkpt lat="45.06895" lon="4.77204">
        <ele>368.8</ele>
        <time>2026-05-02T12:13:58Z</time>
      </trkpt>
      <trkpt lat="45.06887" lon="4.77203">
        <ele>368.1</ele>
        <time>2026-05-02T12:14:03Z</time>
      </trkpt>
      <trkpt lat="45.0688" lon="4.77202">
        <ele>367.5</ele>
        <time>2026-05-02T12:14:08Z</time>
      </trkpt>
      <trkpt lat="45.06874" lon="4.772">
        <ele>366.9</ele>
        <time>2026-05-02T12:14:13Z</time>
      </trkpt>
      <trkpt lat="45.06867" lon="4.77199">
        <ele>366.3</ele>
        <time>2026-05-02T12:14:18Z</time>
      </trkpt>
      <trkpt lat="45.0686" lon="4.77198">
        <ele>365.6</ele>
        <time>2026-05-02T12:14:23Z</time>
      </trkpt>
      <trkpt lat="45.06853" lon="4.77199">
        <ele>365.1</ele>
        <time>2026-05-02T12:14:28Z</time>
      </trkpt>
      <trkpt lat="45.06847" lon="4.772">
        <ele>364.7</ele>
        <time>2026-05-02T12:14:33Z</time>
      </trkpt>
      <trkpt lat="45.0684" lon="4.77201">
        <ele>364.2</ele>
        <time>2026-05-02T12:14:38Z</time>
      </trkpt>
      <trkpt lat="45.06833" lon="4.77202">
        <ele>363.8</ele>
        <time>2026-05-02T12:14:43Z</time>
      </trkpt>
      <trkpt lat="45.06826" lon="4.77203">
        <ele>364.1</ele>
        <time>2026-05-02T12:14:48Z</time>
      </trkpt>
      <trkpt lat="45.0682" lon="4.77204">
        <ele>364.3</ele>
        <time>2026-05-02T12:14:53Z</time>
      </trkpt>
      <trkpt lat="45.06815" lon="4.77205">
        <ele>364.5</ele>
        <time>2026-05-02T12:14:58Z</time>
      </trkpt>
      <trkpt lat="45.06813" lon="4.77207">
        <ele>364.7</ele>
        <time>2026-05-02T12:15:03Z</time>
      </trkpt>
      <trkpt lat="45.06811" lon="4.77209">
        <ele>365</ele>
        <time>2026-05-02T12:15:08Z</time>
      </trkpt>
      <trkpt lat="45.06804" lon="4.77209">
        <ele>365.1</ele>
        <time>2026-05-02T12:15:13Z</time>
      </trkpt>
      <trkpt lat="45.06802" lon="4.77211">
        <ele>365.4</ele>
        <time>2026-05-02T12:15:18Z</time>
      </trkpt>
      <trkpt lat="45.068" lon="4.77211">
        <ele>365.4</ele>
        <time>2026-05-02T12:15:23Z</time>
      </trkpt>
      <trkpt lat="45.06793" lon="4.77213">
        <ele>365.8</ele>
        <time>2026-05-02T12:15:28Z</time>
      </trkpt>
      <trkpt lat="45.06787" lon="4.77215">
        <ele>366.1</ele>
        <time>2026-05-02T12:15:33Z</time>
      </trkpt>
      <trkpt lat="45.06781" lon="4.77218">
        <ele>366.6</ele>
        <time>2026-05-02T12:15:38Z</time>
      </trkpt>
      <trkpt lat="45.06774" lon="4.7722">
        <ele>366.9</ele>
        <time>2026-05-02T12:15:43Z</time>
      </trkpt>
      <trkpt lat="45.06767" lon="4.77222">
        <ele>367.3</ele>
        <time>2026-05-02T12:15:48Z</time>
      </trkpt>
      <trkpt lat="45.06762" lon="4.77223">
        <ele>367.5</ele>
        <time>2026-05-02T12:15:53Z</time>
      </trkpt>
      <trkpt lat="45.06754" lon="4.77224">
        <ele>367.8</ele>
        <time>2026-05-02T12:15:58Z</time>
      </trkpt>
      <trkpt lat="45.06746" lon="4.77225">
        <ele>368.2</ele>
        <time>2026-05-02T12:16:03Z</time>
      </trkpt>
      <trkpt lat="45.0674" lon="4.77226">
        <ele>368.6</ele>
        <time>2026-05-02T12:16:08Z</time>
      </trkpt>
      <trkpt lat="45.06733" lon="4.77226">
        <ele>368.9</ele>
        <time>2026-05-02T12:16:13Z</time>
      </trkpt>
      <trkpt lat="45.06725" lon="4.77226">
        <ele>369.2</ele>
        <time>2026-05-02T12:16:18Z</time>
      </trkpt>
      <trkpt lat="45.06717" lon="4.77226">
        <ele>369.5</ele>
        <time>2026-05-02T12:16:23Z</time>
      </trkpt>
      <trkpt lat="45.0671" lon="4.77226">
        <ele>369.8</ele>
        <time>2026-05-02T12:16:28Z</time>
      </trkpt>
      <trkpt lat="45.06703" lon="4.77226">
        <ele>370.1</ele>
        <time>2026-05-02T12:16:33Z</time>
      </trkpt>
      <trkpt lat="45.06697" lon="4.77225">
        <ele>370.4</ele>
        <time>2026-05-02T12:16:38Z</time>
      </trkpt>
      <trkpt lat="45.06689" lon="4.77225">
        <ele>370.7</ele>
        <time>2026-05-02T12:16:43Z</time>
      </trkpt>
      <trkpt lat="45.06682" lon="4.77224">
        <ele>371</ele>
        <time>2026-05-02T12:16:48Z</time>
      </trkpt>
      <trkpt lat="45.06673" lon="4.77225">
        <ele>371.4</ele>
        <time>2026-05-02T12:16:53Z</time>
      </trkpt>
      <trkpt lat="45.06665" lon="4.77226">
        <ele>371.6</ele>
        <time>2026-05-02T12:16:58Z</time>
      </trkpt>
      <trkpt lat="45.06658" lon="4.77226">
        <ele>371.3</ele>
        <time>2026-05-02T12:17:03Z</time>
      </trkpt>
      <trkpt lat="45.0665" lon="4.77226">
        <ele>371</ele>
        <time>2026-05-02T12:17:08Z</time>
      </trkpt>
      <trkpt lat="45.06643" lon="4.77227">
        <ele>370.7</ele>
        <time>2026-05-02T12:17:13Z</time>
      </trkpt>
      <trkpt lat="45.06635" lon="4.77226">
        <ele>370.4</ele>
        <time>2026-05-02T12:17:18Z</time>
      </trkpt>
      <trkpt lat="45.06629" lon="4.77225">
        <ele>370.1</ele>
        <time>2026-05-02T12:17:23Z</time>
      </trkpt>
      <trkpt lat="45.06621" lon="4.77226">
        <ele>369.8</ele>
        <time>2026-05-02T12:17:28Z</time>
      </trkpt>
      <trkpt lat="45.06613" lon="4.77227">
        <ele>369.4</ele>
        <time>2026-05-02T12:17:33Z</time>
      </trkpt>
      <trkpt lat="45.06607" lon="4.77225">
        <ele>369.1</ele>
        <time>2026-05-02T12:17:38Z</time>
      </trkpt>
      <trkpt lat="45.066" lon="4.77226">
        <ele>368.9</ele>
        <time>2026-05-02T12:17:43Z</time>
      </trkpt>
      <trkpt lat="45.06593" lon="4.77227">
        <ele>368.6</ele>
        <time>2026-05-02T12:17:48Z</time>
      </trkpt>
      <trkpt lat="45.06586" lon="4.77228">
        <ele>368.3</ele>
        <time>2026-05-02T12:17:53Z</time>
      </trkpt>
      <trkpt lat="45.06578" lon="4.77228">
        <ele>367.6</ele>
        <time>2026-05-02T12:17:58Z</time>
      </trkpt>
      <trkpt lat="45.06571" lon="4.77229">
        <ele>366.8</ele>
        <time>2026-05-02T12:18:03Z</time>
      </trkpt>
      <trkpt lat="45.06564" lon="4.7723">
        <ele>366</ele>
        <time>2026-05-02T12:18:08Z</time>
      </trkpt>
      <trkpt lat="45.06557" lon="4.7723">
        <ele>365.2</ele>
        <time>2026-05-02T12:18:13Z</time>
      </trkpt>
      <trkpt lat="45.0655" lon="4.77232">
        <ele>364.5</ele>
        <time>2026-05-02T12:18:18Z</time>
      </trkpt>
      <trkpt lat="45.06543" lon="4.77233">
        <ele>363.7</ele>
        <time>2026-05-02T12:18:23Z</time>
      </trkpt>
      <trkpt lat="45.06535" lon="4.77233">
        <ele>362.8</ele>
        <time>2026-05-02T12:18:28Z</time>
      </trkpt>
      <trkpt lat="45.06528" lon="4.77232">
        <ele>361.9</ele>
        <time>2026-05-02T12:18:33Z</time>
      </trkpt>
      <trkpt lat="45.06521" lon="4.77234">
        <ele>361.3</ele>
        <time>2026-05-02T12:18:38Z</time>
      </trkpt>
      <trkpt lat="45.06513" lon="4.77235">
        <ele>360.4</ele>
        <time>2026-05-02T12:18:43Z</time>
      </trkpt>
      <trkpt lat="45.06506" lon="4.77235">
        <ele>359.6</ele>
        <time>2026-05-02T12:18:48Z</time>
      </trkpt>
      <trkpt lat="45.06499" lon="4.77236">
        <ele>358.8</ele>
        <time>2026-05-02T12:18:53Z</time>
      </trkpt>
      <trkpt lat="45.06493" lon="4.77237">
        <ele>357.6</ele>
        <time>2026-05-02T12:18:58Z</time>
      </trkpt>
      <trkpt lat="45.06484" lon="4.77237">
        <ele>355.8</ele>
        <time>2026-05-02T12:19:03Z</time>
      </trkpt>
      <trkpt lat="45.06477" lon="4.77238">
        <ele>354.4</ele>
        <time>2026-05-02T12:19:08Z</time>
      </trkpt>
      <trkpt lat="45.0647" lon="4.77239">
        <ele>353</ele>
        <time>2026-05-02T12:19:13Z</time>
      </trkpt>
      <trkpt lat="45.06462" lon="4.7724">
        <ele>351.5</ele>
        <time>2026-05-02T12:19:18Z</time>
      </trkpt>
      <trkpt lat="45.06454" lon="4.77241">
        <ele>349.9</ele>
        <time>2026-05-02T12:19:23Z</time>
      </trkpt>
      <trkpt lat="45.06449" lon="4.77242">
        <ele>349</ele>
        <time>2026-05-02T12:19:28Z</time>
      </trkpt>
      <trkpt lat="45.06446" lon="4.77247">
        <ele>348.7</ele>
        <time>2026-05-02T12:19:33Z</time>
      </trkpt>
      <trkpt lat="45.06444" lon="4.77255">
        <ele>347.7</ele>
        <time>2026-05-02T12:19:38Z</time>
      </trkpt>
      <trkpt lat="45.06446" lon="4.77264">
        <ele>346.6</ele>
        <time>2026-05-02T12:19:43Z</time>
      </trkpt>
      <trkpt lat="45.06447" lon="4.77273">
        <ele>345.2</ele>
        <time>2026-05-02T12:19:48Z</time>
      </trkpt>
      <trkpt lat="45.06447" lon="4.77282">
        <ele>343.7</ele>
        <time>2026-05-02T12:19:53Z</time>
      </trkpt>
      <trkpt lat="45.06449" lon="4.77291">
        <ele>342.6</ele>
        <time>2026-05-02T12:19:58Z</time>
      </trkpt>
      <trkpt lat="45.06451" lon="4.77298">
        <ele>341.8</ele>
        <time>2026-05-02T12:20:03Z</time>
      </trkpt>
      <trkpt lat="45.06453" lon="4.77304">
        <ele>341.3</ele>
        <time>2026-05-02T12:20:08Z</time>
      </trkpt>
      <trkpt lat="45.06455" lon="4.7731">
        <ele>340.7</ele>
        <time>2026-05-02T12:20:13Z</time>
      </trkpt>
      <trkpt lat="45.06457" lon="4.77318">
        <ele>339.8</ele>
        <time>2026-05-02T12:20:18Z</time>
      </trkpt>
      <trkpt lat="45.0646" lon="4.77328">
        <ele>338.8</ele>
        <time>2026-05-02T12:20:23Z</time>
      </trkpt>
      <trkpt lat="45.0646" lon="4.77336">
        <ele>337.6</ele>
        <time>2026-05-02T12:20:28Z</time>
      </trkpt>
      <trkpt lat="45.06463" lon="4.77344">
        <ele>337.3</ele>
        <time>2026-05-02T12:20:33Z</time>
      </trkpt>
      <trkpt lat="45.06465" lon="4.77354">
        <ele>336.6</ele>
        <time>2026-05-02T12:20:38Z</time>
      </trkpt>
      <trkpt lat="45.06465" lon="4.77365">
        <ele>335.3</ele>
        <time>2026-05-02T12:20:43Z</time>
      </trkpt>
      <trkpt lat="45.06467" lon="4.77376">
        <ele>334.6</ele>
        <time>2026-05-02T12:20:48Z</time>
      </trkpt>
      <trkpt lat="45.06467" lon="4.77385">
        <ele>333.5</ele>
        <time>2026-05-02T12:20:53Z</time>
      </trkpt>
      <trkpt lat="45.06468" lon="4.77395">
        <ele>332.6</ele>
        <time>2026-05-02T12:20:58Z</time>
      </trkpt>
      <trkpt lat="45.06468" lon="4.77405">
        <ele>331.5</ele>
        <time>2026-05-02T12:21:03Z</time>
      </trkpt>
      <trkpt lat="45.06468" lon="4.77412">
        <ele>330.7</ele>
        <time>2026-05-02T12:21:08Z</time>
      </trkpt>
      <trkpt lat="45.06469" lon="4.77418">
        <ele>330.4</ele>
        <time>2026-05-02T12:21:13Z</time>
      </trkpt>
      <trkpt lat="45.0647" lon="4.77426">
        <ele>330.4</ele>
        <time>2026-05-02T12:21:18Z</time>
      </trkpt>
      <trkpt lat="45.06472" lon="4.77431">
        <ele>330.8</ele>
        <time>2026-05-02T12:21:23Z</time>
      </trkpt>
      <trkpt lat="45.06475" lon="4.77435">
        <ele>331.4</ele>
        <time>2026-05-02T12:21:28Z</time>
      </trkpt>
      <trkpt lat="45.06479" lon="4.77438">
        <ele>332.3</ele>
        <time>2026-05-02T12:21:33Z</time>
      </trkpt>
      <trkpt lat="45.06482" lon="4.77443">
        <ele>332.9</ele>
        <time>2026-05-02T12:21:38Z</time>
      </trkpt>
      <trkpt lat="45.0648" lon="4.7745">
        <ele>332.1</ele>
        <time>2026-05-02T12:21:43Z</time>
      </trkpt>
      <trkpt lat="45.06476" lon="4.77454">
        <ele>330.9</ele>
        <time>2026-05-02T12:21:48Z</time>
      </trkpt>
      <trkpt lat="45.06472" lon="4.77457">
        <ele>329.8</ele>
        <time>2026-05-02T12:21:53Z</time>
      </trkpt>
      <trkpt lat="45.06469" lon="4.77461">
        <ele>329</ele>
        <time>2026-05-02T12:21:58Z</time>
      </trkpt>
      <trkpt lat="45.06466" lon="4.77468">
        <ele>328</ele>
        <time>2026-05-02T12:22:03Z</time>
      </trkpt>
      <trkpt lat="45.06463" lon="4.77473">
        <ele>327.2</ele>
        <time>2026-05-02T12:22:08Z</time>
      </trkpt>
      <trkpt lat="45.06458" lon="4.77477">
        <ele>326</ele>
        <time>2026-05-02T12:22:13Z</time>
      </trkpt>
      <trkpt lat="45.06453" lon="4.77481">
        <ele>324.8</ele>
        <time>2026-05-02T12:22:18Z</time>
      </trkpt>
      <trkpt lat="45.06452" lon="4.77484">
        <ele>324.5</ele>
        <time>2026-05-02T12:22:23Z</time>
      </trkpt>
      <trkpt lat="45.06452" lon="4.77484">
        <ele>324.5</ele>
        <time>2026-05-02T12:22:28Z</time>
      </trkpt>
      <trkpt lat="45.06452" lon="4.77484">
        <ele>324.5</ele>
        <time>2026-05-02T12:22:33Z</time>
      </trkpt>
      <trkpt lat="45.06452" lon="4.77484">
        <ele>324.5</ele>
        <time>2026-05-02T12:22:38Z</time>
      </trkpt>
      <trkpt lat="45.06452" lon="4.77484">
        <ele>324.5</ele>
        <time>2026-05-02T12:22:43Z</time>
      </trkpt>
      <trkpt lat="45.0645" lon="4.7749">
        <ele>324</ele>
        <time>2026-05-02T12:22:48Z</time>
      </trkpt>
      <trkpt lat="45.06449" lon="4.77496">
        <ele>323.7</ele>
        <time>2026-05-02T12:22:53Z</time>
      </trkpt>
      <trkpt lat="45.06446" lon="4.77502">
        <ele>323.1</ele>
        <time>2026-05-02T12:22:58Z</time>
      </trkpt>
      <trkpt lat="45.06444" lon="4.7751">
        <ele>323.3</ele>
        <time>2026-05-02T12:23:03Z</time>
      </trkpt>
      <trkpt lat="45.06443" lon="4.77515">
        <ele>323.5</ele>
        <time>2026-05-02T12:23:08Z</time>
      </trkpt>
      <trkpt lat="45.06444" lon="4.77519">
        <ele>324</ele>
        <time>2026-05-02T12:23:13Z</time>
      </trkpt>
      <trkpt lat="45.06446" lon="4.77527">
        <ele>324.8</ele>
        <time>2026-05-02T12:23:18Z</time>
      </trkpt>
      <trkpt lat="45.06448" lon="4.77536">
        <ele>325.7</ele>
        <time>2026-05-02T12:23:23Z</time>
      </trkpt>
      <trkpt lat="45.06451" lon="4.77542">
        <ele>326.4</ele>
        <time>2026-05-02T12:23:28Z</time>
      </trkpt>
      <trkpt lat="45.06454" lon="4.77548">
        <ele>327.1</ele>
        <time>2026-05-02T12:23:33Z</time>
      </trkpt>
      <trkpt lat="45.06458" lon="4.77556">
        <ele>327.8</ele>
        <time>2026-05-02T12:23:38Z</time>
      </trkpt>
      <trkpt lat="45.06463" lon="4.77563">
        <ele>328.5</ele>
        <time>2026-05-02T12:23:43Z</time>
      </trkpt>
      <trkpt lat="45.06468" lon="4.77568">
        <ele>328.9</ele>
        <time>2026-05-02T12:23:48Z</time>
      </trkpt>
      <trkpt lat="45.06471" lon="4.77573">
        <ele>329.2</ele>
        <time>2026-05-02T12:23:53Z</time>
      </trkpt>
      <trkpt lat="45.06476" lon="4.77579">
        <ele>329.4</ele>
        <time>2026-05-02T12:23:58Z</time>
      </trkpt>
      <trkpt lat="45.06479" lon="4.77587">
        <ele>328.9</ele>
        <time>2026-05-02T12:24:03Z</time>
      </trkpt>
      <trkpt lat="45.06479" lon="4.77594">
        <ele>327.8</ele>
        <time>2026-05-02T12:24:08Z</time>
      </trkpt>
      <trkpt lat="45.0648" lon="4.77602">
        <ele>326.6</ele>
        <time>2026-05-02T12:24:13Z</time>
      </trkpt>
      <trkpt lat="45.06483" lon="4.7761">
        <ele>325.3</ele>
        <time>2026-05-02T12:24:18Z</time>
      </trkpt>
      <trkpt lat="45.06486" lon="4.77615">
        <ele>324.5</ele>
        <time>2026-05-02T12:24:23Z</time>
      </trkpt>
      <trkpt lat="45.06491" lon="4.77617">
        <ele>324.1</ele>
        <time>2026-05-02T12:24:28Z</time>
      </trkpt>
      <trkpt lat="45.06494" lon="4.77616">
        <ele>324.2</ele>
        <time>2026-05-02T12:24:33Z</time>
      </trkpt>
      <trkpt lat="45.06498" lon="4.77615">
        <ele>324.3</ele>
        <time>2026-05-02T12:24:38Z</time>
      </trkpt>
      <trkpt lat="45.06502" lon="4.7761">
        <ele>324.9</ele>
        <time>2026-05-02T12:24:43Z</time>
      </trkpt>
      <trkpt lat="45.06506" lon="4.77606">
        <ele>325.1</ele>
        <time>2026-05-02T12:24:48Z</time>
      </trkpt>
      <trkpt lat="45.06512" lon="4.77607">
        <ele>324.2</ele>
        <time>2026-05-02T12:24:53Z</time>
      </trkpt>
      <trkpt lat="45.06515" lon="4.77613">
        <ele>322.8</ele>
        <time>2026-05-02T12:24:58Z</time>
      </trkpt>
      <trkpt lat="45.06517" lon="4.77618">
        <ele>321.7</ele>
        <time>2026-05-02T12:25:03Z</time>
      </trkpt>
      <trkpt lat="45.0652" lon="4.77623">
        <ele>320.4</ele>
        <time>2026-05-02T12:25:08Z</time>
      </trkpt>
      <trkpt lat="45.06525" lon="4.7763">
        <ele>318.7</ele>
        <time>2026-05-02T12:25:13Z</time>
      </trkpt>
      <trkpt lat="45.06528" lon="4.77636">
        <ele>317.3</ele>
        <time>2026-05-02T12:25:18Z</time>
      </trkpt>
      <trkpt lat="45.06532" lon="4.77643">
        <ele>315.8</ele>
        <time>2026-05-02T12:25:23Z</time>
      </trkpt>
      <trkpt lat="45.06534" lon="4.77649">
        <ele>314.6</ele>
        <time>2026-05-02T12:25:28Z</time>
      </trkpt>
      <trkpt lat="45.06534" lon="4.77657">
        <ele>313.3</ele>
        <time>2026-05-02T12:25:33Z</time>
      </trkpt>
      <trkpt lat="45.06532" lon="4.77662">
        <ele>312.7</ele>
        <time>2026-05-02T12:25:38Z</time>
      </trkpt>
      <trkpt lat="45.0653" lon="4.77666">
        <ele>312.2</ele>
        <time>2026-05-02T12:25:43Z</time>
      </trkpt>
      <trkpt lat="45.06524" lon="4.77671">
        <ele>311.3</ele>
        <time>2026-05-02T12:25:48Z</time>
      </trkpt>
      <trkpt lat="45.06518" lon="4.77677">
        <ele>309.9</ele>
        <time>2026-05-02T12:25:53Z</time>
      </trkpt>
      <trkpt lat="45.06512" lon="4.77679">
        <ele>309.8</ele>
        <time>2026-05-02T12:25:58Z</time>
      </trkpt>
      <trkpt lat="45.06507" lon="4.77682">
        <ele>309.3</ele>
        <time>2026-05-02T12:26:03Z</time>
      </trkpt>
      <trkpt lat="45.06501" lon="4.77685">
        <ele>309</ele>
        <time>2026-05-02T12:26:08Z</time>
      </trkpt>
      <trkpt lat="45.06497" lon="4.77688">
        <ele>308.3</ele>
        <time>2026-05-02T12:26:13Z</time>
      </trkpt>
      <trkpt lat="45.06492" lon="4.77693">
        <ele>307.1</ele>
        <time>2026-05-02T12:26:18Z</time>
      </trkpt>
      <trkpt lat="45.06487" lon="4.777">
        <ele>305.3</ele>
        <time>2026-05-02T12:26:23Z</time>
      </trkpt>
      <trkpt lat="45.06483" lon="4.77709">
        <ele>302.7</ele>
        <time>2026-05-02T12:26:28Z</time>
      </trkpt>
      <trkpt lat="45.0648" lon="4.77714">
        <ele>301.4</ele>
        <time>2026-05-02T12:26:33Z</time>
      </trkpt>
      <trkpt lat="45.06475" lon="4.77714">
        <ele>301.8</ele>
        <time>2026-05-02T12:26:38Z</time>
      </trkpt>
      <trkpt lat="45.06469" lon="4.77711">
        <ele>303.3</ele>
        <time>2026-05-02T12:26:43Z</time>
      </trkpt>
      <trkpt lat="45.06464" lon="4.77711">
        <ele>303.7</ele>
        <time>2026-05-02T12:26:48Z</time>
      </trkpt>
      <trkpt lat="45.06458" lon="4.7771">
        <ele>304.5</ele>
        <time>2026-05-02T12:26:53Z</time>
      </trkpt>
      <trkpt lat="45.06452" lon="4.7771">
        <ele>305</ele>
        <time>2026-05-02T12:26:58Z</time>
      </trkpt>
      <trkpt lat="45.06448" lon="4.7771">
        <ele>305.4</ele>
        <time>2026-05-02T12:27:03Z</time>
      </trkpt>
      <trkpt lat="45.06443" lon="4.77713">
        <ele>304.9</ele>
        <time>2026-05-02T12:27:08Z</time>
      </trkpt>
      <trkpt lat="45.06436" lon="4.77716">
        <ele>304.5</ele>
        <time>2026-05-02T12:27:13Z</time>
      </trkpt>
      <trkpt lat="45.0643" lon="4.7772">
        <ele>303.8</ele>
        <time>2026-05-02T12:27:18Z</time>
      </trkpt>
      <trkpt lat="45.06425" lon="4.77723">
        <ele>303.4</ele>
        <time>2026-05-02T12:27:23Z</time>
      </trkpt>
      <trkpt lat="45.0642" lon="4.77726">
        <ele>302.9</ele>
        <time>2026-05-02T12:27:28Z</time>
      </trkpt>
      <trkpt lat="45.06412" lon="4.77728">
        <ele>302.2</ele>
        <time>2026-05-02T12:27:33Z</time>
      </trkpt>
      <trkpt lat="45.06405" lon="4.77732">
        <ele>300.4</ele>
        <time>2026-05-02T12:27:38Z</time>
      </trkpt>
      <trkpt lat="45.064" lon="4.77735">
        <ele>299.2</ele>
        <time>2026-05-02T12:27:43Z</time>
      </trkpt>
      <trkpt lat="45.06393" lon="4.7774">
        <ele>297.3</ele>
        <time>2026-05-02T12:27:48Z</time>
      </trkpt>
      <trkpt lat="45.06386" lon="4.77745">
        <ele>295.5</ele>
        <time>2026-05-02T12:27:53Z</time>
      </trkpt>
      <trkpt lat="45.0638" lon="4.7775">
        <ele>293.8</ele>
        <time>2026-05-02T12:27:58Z</time>
      </trkpt>
      <trkpt lat="45.06374" lon="4.77753">
        <ele>292.3</ele>
        <time>2026-05-02T12:28:03Z</time>
      </trkpt>
      <trkpt lat="45.0637" lon="4.77759">
        <ele>289.9</ele>
        <time>2026-05-02T12:28:08Z</time>
      </trkpt>
      <trkpt lat="45.06365" lon="4.77762">
        <ele>288.5</ele>
        <time>2026-05-02T12:28:13Z</time>
      </trkpt>
      <trkpt lat="45.06359" lon="4.77768">
        <ele>286.1</ele>
        <time>2026-05-02T12:28:18Z</time>
      </trkpt>
      <trkpt lat="45.06355" lon="4.77772">
        <ele>284.6</ele>
        <time>2026-05-02T12:28:23Z</time>
      </trkpt>
      <trkpt lat="45.0635" lon="4.77776">
        <ele>283</ele>
        <time>2026-05-02T12:28:28Z</time>
      </trkpt>
      <trkpt lat="45.06345" lon="4.77781">
        <ele>281.2</ele>
        <time>2026-05-02T12:28:33Z</time>
      </trkpt>
      <trkpt lat="45.06339" lon="4.77785">
        <ele>279.7</ele>
        <time>2026-05-02T12:28:38Z</time>
      </trkpt>
      <trkpt lat="45.06337" lon="4.7779">
        <ele>278.1</ele>
        <time>2026-05-02T12:28:43Z</time>
      </trkpt>
      <trkpt lat="45.06332" lon="4.77793">
        <ele>276.5</ele>
        <time>2026-05-02T12:28:48Z</time>
      </trkpt>
      <trkpt lat="45.06327" lon="4.77794">
        <ele>274</ele>
        <time>2026-05-02T12:28:53Z</time>
      </trkpt>
      <trkpt lat="45.06323" lon="4.77796">
        <ele>271.6</ele>
        <time>2026-05-02T12:28:58Z</time>
      </trkpt>
      <trkpt lat="45.06319" lon="4.77798">
        <ele>269.3</ele>
        <time>2026-05-02T12:29:03Z</time>
      </trkpt>
      <trkpt lat="45.06314" lon="4.77801">
        <ele>266.4</ele>
        <time>2026-05-02T12:29:08Z</time>
      </trkpt>
      <trkpt lat="45.06309" lon="4.77807">
        <ele>262.7</ele>
        <time>2026-05-02T12:29:13Z</time>
      </trkpt>
      <trkpt lat="45.06307" lon="4.77809">
        <ele>261.4</ele>
        <time>2026-05-02T12:29:18Z</time>
      </trkpt>
      <trkpt lat="45.06306" lon="4.7781">
        <ele>260.7</ele>
        <time>2026-05-02T12:29:23Z</time>
      </trkpt>
      <trkpt lat="45.06306" lon="4.7781">
        <ele>260.7</ele>
        <time>2026-05-02T12:29:28Z</time>
      </trkpt>
      <trkpt lat="45.06306" lon="4.7781">
        <ele>260.7</ele>
        <time>2026-05-02T12:29:33Z</time>
      </trkpt>
      <trkpt lat="45.06306" lon="4.7781">
        <ele>260.7</ele>
        <time>2026-05-02T12:29:38Z</time>
      </trkpt>
      <trkpt lat="45.06306" lon="4.7781">
        <ele>260.7</ele>
        <time>2026-05-02T12:29:43Z</time>
      </trkpt>
      <trkpt lat="45.06306" lon="4.7781">
        <ele>260.7</ele>
        <time>2026-05-02T12:29:48Z</time>
      </trkpt>
      <trkpt lat="45.06308" lon="4.77822">
        <ele>258.4</ele>
        <time>2026-05-02T12:29:53Z</time>
      </trkpt>
      <trkpt lat="45.06308" lon="4.77823">
        <ele>258.2</ele>
        <time>2026-05-02T12:29:58Z</time>
      </trkpt>
      <trkpt lat="45.06308" lon="4.77823">
        <ele>258.2</ele>
        <time>2026-05-02T12:30:03Z</time>
      </trkpt>
      <trkpt lat="45.06308" lon="4.77823">
        <ele>258.2</ele>
        <time>2026-05-02T12:30:08Z</time>
      </trkpt>
      <trkpt lat="45.06308" lon="4.77823">
        <ele>258.2</ele>
        <time>2026-05-02T12:30:13Z</time>
      </trkpt>
      <trkpt lat="45.063" lon="4.77828">
        <ele>254.1</ele>
        <time>2026-05-02T12:30:18Z</time>
      </trkpt>
      <trkpt lat="45.06296" lon="4.77831">
        <ele>252</ele>
        <time>2026-05-02T12:30:23Z</time>
      </trkpt>
      <trkpt lat="45.06291" lon="4.77834">
        <ele>249.6</ele>
        <time>2026-05-02T12:30:28Z</time>
      </trkpt>
      <trkpt lat="45.06288" lon="4.77837">
        <ele>247.9</ele>
        <time>2026-05-02T12:30:33Z</time>
      </trkpt>
      <trkpt lat="45.06285" lon="4.77843">
        <ele>245.6</ele>
        <time>2026-05-02T12:30:38Z</time>
      </trkpt>
      <trkpt lat="45.06282" lon="4.77849">
        <ele>243.3</ele>
        <time>2026-05-02T12:30:43Z</time>
      </trkpt>
      <trkpt lat="45.06277" lon="4.77856">
        <ele>240.4</ele>
        <time>2026-05-02T12:30:48Z</time>
      </trkpt>
      <trkpt lat="45.06271" lon="4.77861">
        <ele>237.7</ele>
        <time>2026-05-02T12:30:53Z</time>
      </trkpt>
      <trkpt lat="45.06265" lon="4.77864">
        <ele>235.6</ele>
        <time>2026-05-02T12:30:58Z</time>
      </trkpt>
      <trkpt lat="45.0626" lon="4.77868">
        <ele>233.6</ele>
        <time>2026-05-02T12:31:03Z</time>
      </trkpt>
      <trkpt lat="45.06257" lon="4.77871">
        <ele>232.3</ele>
        <time>2026-05-02T12:31:08Z</time>
      </trkpt>
      <trkpt lat="45.06252" lon="4.77872">
        <ele>230.9</ele>
        <time>2026-05-02T12:31:13Z</time>
      </trkpt>
      <trkpt lat="45.06249" lon="4.77874">
        <ele>229.7</ele>
        <time>2026-05-02T12:31:18Z</time>
      </trkpt>
      <trkpt lat="45.06243" lon="4.77879">
        <ele>226.3</ele>
        <time>2026-05-02T12:31:23Z</time>
      </trkpt>
      <trkpt lat="45.0624" lon="4.77881">
        <ele>224.6</ele>
        <time>2026-05-02T12:31:28Z</time>
      </trkpt>
      <trkpt lat="45.06236" lon="4.77883">
        <ele>222.6</ele>
        <time>2026-05-02T12:31:33Z</time>
      </trkpt>
      <trkpt lat="45.06232" lon="4.77885">
        <ele>220.6</ele>
        <time>2026-05-02T12:31:38Z</time>
      </trkpt>
      <trkpt lat="45.0623" lon="4.77888">
        <ele>219.4</ele>
        <time>2026-05-02T12:31:43Z</time>
      </trkpt>
      <trkpt lat="45.06226" lon="4.77891">
        <ele>217.4</ele>
        <time>2026-05-02T12:31:48Z</time>
      </trkpt>
      <trkpt lat="45.0622" lon="4.77893">
        <ele>214.7</ele>
        <time>2026-05-02T12:31:53Z</time>
      </trkpt>
      <trkpt lat="45.06214" lon="4.77893">
        <ele>212.2</ele>
        <time>2026-05-02T12:31:58Z</time>
      </trkpt>
      <trkpt lat="45.06208" lon="4.77894">
        <ele>209.6</ele>
        <time>2026-05-02T12:32:03Z</time>
      </trkpt>
      <trkpt lat="45.06202" lon="4.77893">
        <ele>207.1</ele>
        <time>2026-05-02T12:32:08Z</time>
      </trkpt>
      <trkpt lat="45.06197" lon="4.77888">
        <ele>205.1</ele>
        <time>2026-05-02T12:32:13Z</time>
      </trkpt>
      <trkpt lat="45.06194" lon="4.77884">
        <ele>203.9</ele>
        <time>2026-05-02T12:32:18Z</time>
      </trkpt>
      <trkpt lat="45.06188" lon="4.77879">
        <ele>201.3</ele>
        <time>2026-05-02T12:32:23Z</time>
      </trkpt>
      <trkpt lat="45.06184" lon="4.77875">
        <ele>199.5</ele>
        <time>2026-05-02T12:32:28Z</time>
      </trkpt>
      <trkpt lat="45.0618" lon="4.77872">
        <ele>197.6</ele>
        <time>2026-05-02T12:32:33Z</time>
      </trkpt>
      <trkpt lat="45.06177" lon="4.77875">
        <ele>196.3</ele>
        <time>2026-05-02T12:32:38Z</time>
      </trkpt>
      <trkpt lat="45.06176" lon="4.77878">
        <ele>195.9</ele>
        <time>2026-05-02T12:32:43Z</time>
      </trkpt>
      <trkpt lat="45.06176" lon="4.7788">
        <ele>195.9</ele>
        <time>2026-05-02T12:32:48Z</time>
      </trkpt>
      <trkpt lat="45.06176" lon="4.7788">
        <ele>195.9</ele>
        <time>2026-05-02T12:32:53Z</time>
      </trkpt>
      <trkpt lat="45.06176" lon="4.7788">
        <ele>195.9</ele>
        <time>2026-05-02T12:32:58Z</time>
      </trkpt>
      <trkpt lat="45.06176" lon="4.7788">
        <ele>195.9</ele>
        <time>2026-05-02T12:33:03Z</time>
      </trkpt>
      <trkpt lat="45.06178" lon="4.77884">
        <ele>196.8</ele>
        <time>2026-05-02T12:33:08Z</time>
      </trkpt>
      <trkpt lat="45.06178" lon="4.77884">
        <ele>196.8</ele>
        <time>2026-05-02T12:33:13Z</time>
      </trkpt>
      <trkpt lat="45.06178" lon="4.77884">
        <ele>196.8</ele>
        <time>2026-05-02T12:33:18Z</time>
      </trkpt>
      <trkpt lat="45.06179" lon="4.77889">
        <ele>197.3</ele>
        <time>2026-05-02T12:33:23Z</time>
      </trkpt>
      <trkpt lat="45.06178" lon="4.77894">
        <ele>197</ele>
        <time>2026-05-02T12:33:28Z</time>
      </trkpt>
      <trkpt lat="45.06177" lon="4.77899">
        <ele>196.6</ele>
        <time>2026-05-02T12:33:33Z</time>
      </trkpt>
      <trkpt lat="45.06178" lon="4.77908">
        <ele>197.1</ele>
        <time>2026-05-02T12:33:38Z</time>
      </trkpt>
      <trkpt lat="45.0618" lon="4.77917">
        <ele>198</ele>
        <time>2026-05-02T12:33:43Z</time>
      </trkpt>
      <trkpt lat="45.06184" lon="4.77923">
        <ele>199.8</ele>
        <time>2026-05-02T12:33:48Z</time>
      </trkpt>
      <trkpt lat="45.06189" lon="4.77929">
        <ele>201.9</ele>
        <time>2026-05-02T12:33:53Z</time>
      </trkpt>
      <trkpt lat="45.06194" lon="4.77935">
        <ele>203.8</ele>
        <time>2026-05-02T12:33:58Z</time>
      </trkpt>
      <trkpt lat="45.06199" lon="4.77938">
        <ele>205.4</ele>
        <time>2026-05-02T12:34:03Z</time>
      </trkpt>
      <trkpt lat="45.06203" lon="4.77941">
        <ele>206.7</ele>
        <time>2026-05-02T12:34:08Z</time>
      </trkpt>
      <trkpt lat="45.06209" lon="4.77942">
        <ele>208.5</ele>
        <time>2026-05-02T12:34:13Z</time>
      </trkpt>
      <trkpt lat="45.06209" lon="4.77942">
        <ele>208.5</ele>
        <time>2026-05-02T12:34:13Z</time>
      </trkpt>
      <trkpt lat="45.06214" lon="4.77945">
        <ele>210</ele>
        <time>2026-05-02T12:34:30Z</time>
      </trkpt>
      <trkpt lat="45.06214" lon="4.77945">
        <ele>210</ele>
        <time>2026-05-02T12:34:35Z</time>
      </trkpt>
      <trkpt lat="45.06219" lon="4.77953">
        <ele>211.2</ele>
        <time>2026-05-02T12:34:40Z</time>
      </trkpt>
      <trkpt lat="45.06219" lon="4.77953">
        <ele>211.2</ele>
        <time>2026-05-02T12:34:45Z</time>
      </trkpt>
      <trkpt lat="45.06219" lon="4.77953">
        <ele>211.2</ele>
        <time>2026-05-02T12:34:50Z</time>
      </trkpt>
      <trkpt lat="45.06223" lon="4.77952">
        <ele>212.3</ele>
        <time>2026-05-02T12:34:55Z</time>
      </trkpt>
      <trkpt lat="45.06229" lon="4.77953">
        <ele>213.9</ele>
        <time>2026-05-02T12:35:00Z</time>
      </trkpt>
      <trkpt lat="45.06236" lon="4.77951">
        <ele>216</ele>
        <time>2026-05-02T12:35:05Z</time>
      </trkpt>
      <trkpt lat="45.06242" lon="4.77952">
        <ele>217.6</ele>
        <time>2026-05-02T12:35:10Z</time>
      </trkpt>
      <trkpt lat="45.06251" lon="4.77953">
        <ele>219.7</ele>
        <time>2026-05-02T12:35:15Z</time>
      </trkpt>
      <trkpt lat="45.06258" lon="4.77951">
        <ele>220.2</ele>
        <time>2026-05-02T12:35:20Z</time>
      </trkpt>
      <trkpt lat="45.06264" lon="4.77948">
        <ele>220.9</ele>
        <time>2026-05-02T12:35:25Z</time>
      </trkpt>
      <trkpt lat="45.0627" lon="4.77944">
        <ele>221.9</ele>
        <time>2026-05-02T12:35:30Z</time>
      </trkpt>
      <trkpt lat="45.06278" lon="4.77938">
        <ele>223.7</ele>
        <time>2026-05-02T12:35:35Z</time>
      </trkpt>
      <trkpt lat="45.06283" lon="4.77932">
        <ele>225.4</ele>
        <time>2026-05-02T12:35:40Z</time>
      </trkpt>
      <trkpt lat="45.06289" lon="4.77929">
        <ele>226.7</ele>
        <time>2026-05-02T12:35:45Z</time>
      </trkpt>
      <trkpt lat="45.06295" lon="4.77924">
        <ele>228.6</ele>
        <time>2026-05-02T12:35:50Z</time>
      </trkpt>
      <trkpt lat="45.06302" lon="4.77919">
        <ele>230.8</ele>
        <time>2026-05-02T12:35:55Z</time>
      </trkpt>
      <trkpt lat="45.06308" lon="4.77916">
        <ele>232.5</ele>
        <time>2026-05-02T12:36:00Z</time>
      </trkpt>
      <trkpt lat="45.06315" lon="4.77913">
        <ele>234.4</ele>
        <time>2026-05-02T12:36:05Z</time>
      </trkpt>
      <trkpt lat="45.06324" lon="4.77907">
        <ele>237.7</ele>
        <time>2026-05-02T12:36:10Z</time>
      </trkpt>
      <trkpt lat="45.06331" lon="4.77899">
        <ele>241.5</ele>
        <time>2026-05-02T12:36:15Z</time>
      </trkpt>
      <trkpt lat="45.06337" lon="4.77895">
        <ele>242.7</ele>
        <time>2026-05-02T12:36:20Z</time>
      </trkpt>
      <trkpt lat="45.06346" lon="4.77895">
        <ele>241.2</ele>
        <time>2026-05-02T12:36:25Z</time>
      </trkpt>
      <trkpt lat="45.06354" lon="4.779">
        <ele>238</ele>
        <time>2026-05-02T12:36:30Z</time>
      </trkpt>
      <trkpt lat="45.06361" lon="4.77903">
        <ele>235.7</ele>
        <time>2026-05-02T12:36:35Z</time>
      </trkpt>
      <trkpt lat="45.0637" lon="4.77902">
        <ele>234.5</ele>
        <time>2026-05-02T12:36:40Z</time>
      </trkpt>
      <trkpt lat="45.06373" lon="4.77902">
        <ele>233.9</ele>
        <time>2026-05-02T12:36:45Z</time>
      </trkpt>
      <trkpt lat="45.06374" lon="4.77904">
        <ele>232.9</ele>
        <time>2026-05-02T12:36:50Z</time>
      </trkpt>
      <trkpt lat="45.06374" lon="4.77904">
        <ele>232.9</ele>
        <time>2026-05-02T12:36:55Z</time>
      </trkpt>
      <trkpt lat="45.06378" lon="4.77904">
        <ele>232.2</ele>
        <time>2026-05-02T12:37:00Z</time>
      </trkpt>
      <trkpt lat="45.06383" lon="4.779">
        <ele>233</ele>
        <time>2026-05-02T12:37:05Z</time>
      </trkpt>
      <trkpt lat="45.06387" lon="4.77897">
        <ele>233.6</ele>
        <time>2026-05-02T12:37:10Z</time>
      </trkpt>
      <trkpt lat="45.06391" lon="4.77895">
        <ele>233.9</ele>
        <time>2026-05-02T12:37:15Z</time>
      </trkpt>
      <trkpt lat="45.06394" lon="4.77893">
        <ele>234.3</ele>
        <time>2026-05-02T12:37:20Z</time>
      </trkpt>
      <trkpt lat="45.06397" lon="4.77894">
        <ele>233.3</ele>
        <time>2026-05-02T12:37:25Z</time>
      </trkpt>
      <trkpt lat="45.06398" lon="4.77894">
        <ele>233.2</ele>
        <time>2026-05-02T12:37:30Z</time>
      </trkpt>
      <trkpt lat="45.06404" lon="4.77886">
        <ele>235.9</ele>
        <time>2026-05-02T12:37:35Z</time>
      </trkpt>
      <trkpt lat="45.06411" lon="4.77882">
        <ele>236.8</ele>
        <time>2026-05-02T12:37:40Z</time>
      </trkpt>
      <trkpt lat="45.06418" lon="4.7788">
        <ele>236.8</ele>
        <time>2026-05-02T12:37:45Z</time>
      </trkpt>
      <trkpt lat="45.06424" lon="4.77879">
        <ele>236.1</ele>
        <time>2026-05-02T12:37:50Z</time>
      </trkpt>
      <trkpt lat="45.0643" lon="4.77878">
        <ele>235.5</ele>
        <time>2026-05-02T12:37:55Z</time>
      </trkpt>
      <trkpt lat="45.06438" lon="4.77877">
        <ele>234.5</ele>
        <time>2026-05-02T12:38:00Z</time>
      </trkpt>
      <trkpt lat="45.06446" lon="4.77878">
        <ele>232.5</ele>
        <time>2026-05-02T12:38:05Z</time>
      </trkpt>
      <trkpt lat="45.06453" lon="4.77881">
        <ele>229.5</ele>
        <time>2026-05-02T12:38:10Z</time>
      </trkpt>
      <trkpt lat="45.0646" lon="4.77882">
        <ele>227.6</ele>
        <time>2026-05-02T12:38:15Z</time>
      </trkpt>
      <trkpt lat="45.06467" lon="4.77882">
        <ele>226.2</ele>
        <time>2026-05-02T12:38:20Z</time>
      </trkpt>
      <trkpt lat="45.06473" lon="4.7788">
        <ele>226.2</ele>
        <time>2026-05-02T12:38:25Z</time>
      </trkpt>
      <trkpt lat="45.06482" lon="4.77881">
        <ele>223.9</ele>
        <time>2026-05-02T12:38:30Z</time>
      </trkpt>
      <trkpt lat="45.06486" lon="4.77882">
        <ele>222.5</ele>
        <time>2026-05-02T12:38:35Z</time>
      </trkpt>
      <trkpt lat="45.06486" lon="4.77885">
        <ele>220.8</ele>
        <time>2026-05-02T12:38:40Z</time>
      </trkpt>
      <trkpt lat="45.06485" lon="4.77887">
        <ele>219.8</ele>
        <time>2026-05-02T12:38:45Z</time>
      </trkpt>
      <trkpt lat="45.06492" lon="4.77886">
        <ele>219</ele>
        <time>2026-05-02T12:38:50Z</time>
      </trkpt>
      <trkpt lat="45.06499" lon="4.77886">
        <ele>217.6</ele>
        <time>2026-05-02T12:38:55Z</time>
      </trkpt>
      <trkpt lat="45.06505" lon="4.77886">
        <ele>216.6</ele>
        <time>2026-05-02T12:39:00Z</time>
      </trkpt>
      <trkpt lat="45.06511" lon="4.77888">
        <ele>214.4</ele>
        <time>2026-05-02T12:39:05Z</time>
      </trkpt>
      <trkpt lat="45.06517" lon="4.77891">
        <ele>211.7</ele>
        <time>2026-05-02T12:39:10Z</time>
      </trkpt>
      <trkpt lat="45.06525" lon="4.77893">
        <ele>209.2</ele>
        <time>2026-05-02T12:39:15Z</time>
      </trkpt>
      <trkpt lat="45.06532" lon="4.77893">
        <ele>208.1</ele>
        <time>2026-05-02T12:39:20Z</time>
      </trkpt>
      <trkpt lat="45.06539" lon="4.77896">
        <ele>205.2</ele>
        <time>2026-05-02T12:39:25Z</time>
      </trkpt>
      <trkpt lat="45.06547" lon="4.779">
        <ele>201.6</ele>
        <time>2026-05-02T12:39:30Z</time>
      </trkpt>
      <trkpt lat="45.06553" lon="4.77901">
        <ele>200</ele>
        <time>2026-05-02T12:39:35Z</time>
      </trkpt>
      <trkpt lat="45.06558" lon="4.77902">
        <ele>198.6</ele>
        <time>2026-05-02T12:39:40Z</time>
      </trkpt>
      <trkpt lat="45.06563" lon="4.77904">
        <ele>196.7</ele>
        <time>2026-05-02T12:39:45Z</time>
      </trkpt>
      <trkpt lat="45.06568" lon="4.779">
        <ele>198.2</ele>
        <time>2026-05-02T12:39:50Z</time>
      </trkpt>
      <trkpt lat="45.06572" lon="4.77896">
        <ele>200</ele>
        <time>2026-05-02T12:39:55Z</time>
      </trkpt>
      <trkpt lat="45.06581" lon="4.77892">
        <ele>200.9</ele>
        <time>2026-05-02T12:40:00Z</time>
      </trkpt>
      <trkpt lat="45.0659" lon="4.77889">
        <ele>201.7</ele>
        <time>2026-05-02T12:40:05Z</time>
      </trkpt>
      <trkpt lat="45.06593" lon="4.77893">
        <ele>199.2</ele>
        <time>2026-05-02T12:40:10Z</time>
      </trkpt>
      <trkpt lat="45.066" lon="4.77896">
        <ele>196.9</ele>
        <time>2026-05-02T12:40:15Z</time>
      </trkpt>
      <trkpt lat="45.06606" lon="4.77898">
        <ele>195.3</ele>
        <time>2026-05-02T12:40:20Z</time>
      </trkpt>
      <trkpt lat="45.06613" lon="4.77902">
        <ele>192.6</ele>
        <time>2026-05-02T12:40:25Z</time>
      </trkpt>
      <trkpt lat="45.0662" lon="4.77908">
        <ele>188.9</ele>
        <time>2026-05-02T12:40:30Z</time>
      </trkpt>
      <trkpt lat="45.06626" lon="4.77912">
        <ele>186.4</ele>
        <time>2026-05-02T12:40:35Z</time>
      </trkpt>
      <trkpt lat="45.0663" lon="4.77914">
        <ele>185.2</ele>
        <time>2026-05-02T12:40:40Z</time>
      </trkpt>
      <trkpt lat="45.06634" lon="4.77913">
        <ele>185.5</ele>
        <time>2026-05-02T12:40:45Z</time>
      </trkpt>
      <trkpt lat="45.06639" lon="4.7791">
        <ele>186.8</ele>
        <time>2026-05-02T12:40:50Z</time>
      </trkpt>
      <trkpt lat="45.06647" lon="4.77904">
        <ele>189.3</ele>
        <time>2026-05-02T12:40:55Z</time>
      </trkpt>
      <trkpt lat="45.06654" lon="4.77896">
        <ele>192.9</ele>
        <time>2026-05-02T12:41:00Z</time>
      </trkpt>
      <trkpt lat="45.06659" lon="4.77887">
        <ele>196.9</ele>
        <time>2026-05-02T12:41:05Z</time>
      </trkpt>
      <trkpt lat="45.06665" lon="4.77882">
        <ele>198.8</ele>
        <time>2026-05-02T12:41:10Z</time>
      </trkpt>
      <trkpt lat="45.06673" lon="4.77883">
        <ele>197.4</ele>
        <time>2026-05-02T12:41:15Z</time>
      </trkpt>
      <trkpt lat="45.06678" lon="4.77892">
        <ele>192.7</ele>
        <time>2026-05-02T12:41:20Z</time>
      </trkpt>
      <trkpt lat="45.06679" lon="4.77901">
        <ele>188.4</ele>
        <time>2026-05-02T12:41:25Z</time>
      </trkpt>
      <trkpt lat="45.06681" lon="4.77911">
        <ele>183.7</ele>
        <time>2026-05-02T12:41:30Z</time>
      </trkpt>
      <trkpt lat="45.06682" lon="4.7792">
        <ele>179.7</ele>
        <time>2026-05-02T12:41:35Z</time>
      </trkpt>
      <trkpt lat="45.06682" lon="4.77928">
        <ele>176.5</ele>
        <time>2026-05-02T12:41:40Z</time>
      </trkpt>
      <trkpt lat="45.06683" lon="4.77938">
        <ele>172.4</ele>
        <time>2026-05-02T12:41:45Z</time>
      </trkpt>
      <trkpt lat="45.06683" lon="4.77948">
        <ele>168.4</ele>
        <time>2026-05-02T12:41:50Z</time>
      </trkpt>
      <trkpt lat="45.06685" lon="4.77957">
        <ele>164.8</ele>
        <time>2026-05-02T12:41:55Z</time>
      </trkpt>
      <trkpt lat="45.06687" lon="4.77964">
        <ele>162</ele>
        <time>2026-05-02T12:42:00Z</time>
      </trkpt>
      <trkpt lat="45.06691" lon="4.77969">
        <ele>160.1</ele>
        <time>2026-05-02T12:42:05Z</time>
      </trkpt>
      <trkpt lat="45.06695" lon="4.77977">
        <ele>157.2</ele>
        <time>2026-05-02T12:42:10Z</time>
      </trkpt>
      <trkpt lat="45.06697" lon="4.77986">
        <ele>153.9</ele>
        <time>2026-05-02T12:42:15Z</time>
      </trkpt>
      <trkpt lat="45.067" lon="4.77992">
        <ele>151.8</ele>
        <time>2026-05-02T12:42:20Z</time>
      </trkpt>
      <trkpt lat="45.06702" lon="4.77999">
        <ele>149.3</ele>
        <time>2026-05-02T12:42:25Z</time>
      </trkpt>
      <trkpt lat="45.06703" lon="4.78007">
        <ele>148.1</ele>
        <time>2026-05-02T12:42:30Z</time>
      </trkpt>
      <trkpt lat="45.06706" lon="4.78012">
        <ele>147.6</ele>
        <time>2026-05-02T12:42:35Z</time>
      </trkpt>
      <trkpt lat="45.06708" lon="4.78013">
        <ele>147.6</ele>
        <time>2026-05-02T12:42:40Z</time>
      </trkpt>
      <trkpt lat="45.06708" lon="4.78018">
        <ele>146.9</ele>
        <time>2026-05-02T12:42:45Z</time>
      </trkpt>
      <trkpt lat="45.06708" lon="4.78019">
        <ele>146.7</ele>
        <time>2026-05-02T12:42:50Z</time>
      </trkpt>
      <trkpt lat="45.06708" lon="4.78019">
        <ele>146.7</ele>
        <time>2026-05-02T12:42:55Z</time>
      </trkpt>
      <trkpt lat="45.06708" lon="4.78019">
        <ele>146.7</ele>
        <time>2026-05-02T12:43:00Z</time>
      </trkpt>
      <trkpt lat="45.06708" lon="4.78019">
        <ele>146.7</ele>
        <time>2026-05-02T12:43:05Z</time>
      </trkpt>
      <trkpt lat="45.06708" lon="4.78019">
        <ele>146.7</ele>
        <time>2026-05-02T12:43:10Z</time>
      </trkpt>
      <trkpt lat="45.06712" lon="4.78024">
        <ele>146.2</ele>
        <time>2026-05-02T12:43:15Z</time>
      </trkpt>
      <trkpt lat="45.06718" lon="4.78028">
        <ele>145.8</ele>
        <time>2026-05-02T12:43:20Z</time>
      </trkpt>
      <trkpt lat="45.06725" lon="4.78032">
        <ele>145.4</ele>
        <time>2026-05-02T12:43:25Z</time>
      </trkpt>
      <trkpt lat="45.0673" lon="4.7804">
        <ele>144.1</ele>
        <time>2026-05-02T12:43:30Z</time>
      </trkpt>
      <trkpt lat="45.06735" lon="4.78045">
        <ele>143.2</ele>
        <time>2026-05-02T12:43:35Z</time>
      </trkpt>
      <trkpt lat="45.0674" lon="4.78051">
        <ele>142</ele>
        <time>2026-05-02T12:43:40Z</time>
      </trkpt>
      <trkpt lat="45.06744" lon="4.7806">
        <ele>140.2</ele>
        <time>2026-05-02T12:43:45Z</time>
      </trkpt>
      <trkpt lat="45.06746" lon="4.78068">
        <ele>138.4</ele>
        <time>2026-05-02T12:43:50Z</time>
      </trkpt>
      <trkpt lat="45.06744" lon="4.78075">
        <ele>137.1</ele>
        <time>2026-05-02T12:43:55Z</time>
      </trkpt>
      <trkpt lat="45.06738" lon="4.78078">
        <ele>136.8</ele>
        <time>2026-05-02T12:44:00Z</time>
      </trkpt>
      <trkpt lat="45.06731" lon="4.78083">
        <ele>136.2</ele>
        <time>2026-05-02T12:44:05Z</time>
      </trkpt>
      <trkpt lat="45.06727" lon="4.78087">
        <ele>136.7</ele>
        <time>2026-05-02T12:44:10Z</time>
      </trkpt>
      <trkpt lat="45.06723" lon="4.7809">
        <ele>137.2</ele>
        <time>2026-05-02T12:44:15Z</time>
      </trkpt>
      <trkpt lat="45.06724" lon="4.78094">
        <ele>137.4</ele>
        <time>2026-05-02T12:44:20Z</time>
      </trkpt>
      <trkpt lat="45.06725" lon="4.78098">
        <ele>137.6</ele>
        <time>2026-05-02T12:44:25Z</time>
      </trkpt>
      <trkpt lat="45.06721" lon="4.78094">
        <ele>137.7</ele>
        <time>2026-05-02T12:44:30Z</time>
      </trkpt>
      <trkpt lat="45.06717" lon="4.7809">
        <ele>137.6</ele>
        <time>2026-05-02T12:44:35Z</time>
      </trkpt>
      <trkpt lat="45.06712" lon="4.78086">
        <ele>137.6</ele>
        <time>2026-05-02T12:44:40Z</time>
      </trkpt>
      <trkpt lat="45.06707" lon="4.78084">
        <ele>137.7</ele>
        <time>2026-05-02T12:44:45Z</time>
      </trkpt>
      <trkpt lat="45.06706" lon="4.78084">
        <ele>137.7</ele>
        <time>2026-05-02T12:44:50Z</time>
      </trkpt>
      <trkpt lat="45.06705" lon="4.78084">
        <ele>137.8</ele>
        <time>2026-05-02T12:44:55Z</time>
      </trkpt>
      <trkpt lat="45.06705" lon="4.78084">
        <ele>137.8</ele>
        <time>2026-05-02T12:45:00Z</time>
      </trkpt>
      <trkpt lat="45.06705" lon="4.78084">
        <ele>137.8</ele>
        <time>2026-05-02T12:45:05Z</time>
      </trkpt>
      <trkpt lat="45.06704" lon="4.78086">
        <ele>138.1</ele>
        <time>2026-05-02T12:45:10Z</time>
      </trkpt>
      <trkpt lat="45.06702" lon="4.78086">
        <ele>138.2</ele>
        <time>2026-05-02T12:45:15Z</time>
      </trkpt>
      <trkpt lat="45.06696" lon="4.7809">
        <ele>139.2</ele>
        <time>2026-05-02T12:45:20Z</time>
      </trkpt>
      <trkpt lat="45.06694" lon="4.78097">
        <ele>140.3</ele>
        <time>2026-05-02T12:45:25Z</time>
      </trkpt>
      <trkpt lat="45.06692" lon="4.781">
        <ele>141</ele>
        <time>2026-05-02T12:45:30Z</time>
      </trkpt>
      <trkpt lat="45.06692" lon="4.781">
        <ele>141</ele>
        <time>2026-05-02T12:45:35Z</time>
      </trkpt>
      <trkpt lat="45.06692" lon="4.781">
        <ele>141</ele>
        <time>2026-05-02T12:45:40Z</time>
      </trkpt>
      <trkpt lat="45.06692" lon="4.781">
        <ele>141</ele>
        <time>2026-05-02T12:45:45Z</time>
      </trkpt>
      <trkpt lat="45.06692" lon="4.781">
        <ele>141</ele>
        <time>2026-05-02T12:45:50Z</time>
      </trkpt>
      <trkpt lat="45.06691" lon="4.78098">
        <ele>140.8</ele>
        <time>2026-05-02T12:45:55Z</time>
      </trkpt>
      <trkpt lat="45.06686" lon="4.781">
        <ele>141.5</ele>
        <time>2026-05-02T12:46:00Z</time>
      </trkpt>
      <trkpt lat="45.06681" lon="4.78103">
        <ele>142.5</ele>
        <time>2026-05-02T12:46:05Z</time>
      </trkpt>
      <trkpt lat="45.06675" lon="4.78106">
        <ele>143.7</ele>
        <time>2026-05-02T12:46:10Z</time>
      </trkpt>
      <trkpt lat="45.06669" lon="4.78109">
        <ele>145</ele>
        <time>2026-05-02T12:46:15Z</time>
      </trkpt>
      <trkpt lat="45.06663" lon="4.7811">
        <ele>145.4</ele>
        <time>2026-05-02T12:46:20Z</time>
      </trkpt>
      <trkpt lat="45.06657" lon="4.78114">
        <ele>146.3</ele>
        <time>2026-05-02T12:46:25Z</time>
      </trkpt>
      <trkpt lat="45.0665" lon="4.78117">
        <ele>147</ele>
        <time>2026-05-02T12:46:30Z</time>
      </trkpt>
      <trkpt lat="45.06644" lon="4.78119">
        <ele>147.4</ele>
        <time>2026-05-02T12:46:35Z</time>
      </trkpt>
      <trkpt lat="45.06637" lon="4.78121">
        <ele>147.9</ele>
        <time>2026-05-02T12:46:40Z</time>
      </trkpt>
      <trkpt lat="45.06631" lon="4.78129">
        <ele>149.9</ele>
        <time>2026-05-02T12:46:45Z</time>
      </trkpt>
      <trkpt lat="45.06625" lon="4.78136">
        <ele>151.6</ele>
        <time>2026-05-02T12:46:50Z</time>
      </trkpt>
      <trkpt lat="45.0662" lon="4.78142">
        <ele>153.2</ele>
        <time>2026-05-02T12:46:55Z</time>
      </trkpt>
      <trkpt lat="45.06615" lon="4.78147">
        <ele>154.6</ele>
        <time>2026-05-02T12:47:00Z</time>
      </trkpt>
      <trkpt lat="45.06612" lon="4.78153">
        <ele>156.2</ele>
        <time>2026-05-02T12:47:05Z</time>
      </trkpt>
      <trkpt lat="45.06608" lon="4.78166">
        <ele>159.6</ele>
        <time>2026-05-02T12:47:10Z</time>
      </trkpt>
      <trkpt lat="45.0661" lon="4.78177">
        <ele>162.6</ele>
        <time>2026-05-02T12:47:15Z</time>
      </trkpt>
      <trkpt lat="45.06616" lon="4.78182">
        <ele>163.6</ele>
        <time>2026-05-02T12:47:20Z</time>
      </trkpt>
      <trkpt lat="45.06619" lon="4.78189">
        <ele>165.3</ele>
        <time>2026-05-02T12:47:25Z</time>
      </trkpt>
      <trkpt lat="45.06624" lon="4.78198">
        <ele>167.4</ele>
        <time>2026-05-02T12:47:30Z</time>
      </trkpt>
      <trkpt lat="45.06627" lon="4.78207">
        <ele>169.5</ele>
        <time>2026-05-02T12:47:35Z</time>
      </trkpt>
      <trkpt lat="45.06629" lon="4.78212">
        <ele>170.6</ele>
        <time>2026-05-02T12:47:40Z</time>
      </trkpt>
      <trkpt lat="45.06629" lon="4.78213">
        <ele>170.8</ele>
        <time>2026-05-02T12:47:45Z</time>
      </trkpt>
      <trkpt lat="45.06629" lon="4.78213">
        <ele>170.8</ele>
        <time>2026-05-02T12:47:50Z</time>
      </trkpt>
      <trkpt lat="45.06629" lon="4.78219">
        <ele>172.4</ele>
        <time>2026-05-02T12:47:55Z</time>
      </trkpt>
      <trkpt lat="45.0663" lon="4.7823">
        <ele>175.1</ele>
        <time>2026-05-02T12:48:00Z</time>
      </trkpt>
      <trkpt lat="45.0663" lon="4.78241">
        <ele>178</ele>
        <time>2026-05-02T12:48:05Z</time>
      </trkpt>
      <trkpt lat="45.0663" lon="4.78251">
        <ele>180.4</ele>
        <time>2026-05-02T12:48:10Z</time>
      </trkpt>
      <trkpt lat="45.0663" lon="4.7826">
        <ele>181.7</ele>
        <time>2026-05-02T12:48:15Z</time>
      </trkpt>
      <trkpt lat="45.0663" lon="4.7827">
        <ele>183.1</ele>
        <time>2026-05-02T12:48:20Z</time>
      </trkpt>
      <trkpt lat="45.0663" lon="4.78278">
        <ele>184.3</ele>
        <time>2026-05-02T12:48:25Z</time>
      </trkpt>
      <trkpt lat="45.0663" lon="4.78285">
        <ele>185.3</ele>
        <time>2026-05-02T12:48:30Z</time>
      </trkpt>
      <trkpt lat="45.06629" lon="4.78298">
        <ele>187.4</ele>
        <time>2026-05-02T12:48:35Z</time>
      </trkpt>
      <trkpt lat="45.06629" lon="4.78309">
        <ele>189</ele>
        <time>2026-05-02T12:48:40Z</time>
      </trkpt>
      <trkpt lat="45.06629" lon="4.78318">
        <ele>190.3</ele>
        <time>2026-05-02T12:48:45Z</time>
      </trkpt>
      <trkpt lat="45.06629" lon="4.78328">
        <ele>191.8</ele>
        <time>2026-05-02T12:48:50Z</time>
      </trkpt>
      <trkpt lat="45.06628" lon="4.78339">
        <ele>193.5</ele>
        <time>2026-05-02T12:48:55Z</time>
      </trkpt>
      <trkpt lat="45.06627" lon="4.7835">
        <ele>194.9</ele>
        <time>2026-05-02T12:49:00Z</time>
      </trkpt>
      <trkpt lat="45.06626" lon="4.7836">
        <ele>196.3</ele>
        <time>2026-05-02T12:49:05Z</time>
      </trkpt>
      <trkpt lat="45.06627" lon="4.78371">
        <ele>197</ele>
        <time>2026-05-02T12:49:10Z</time>
      </trkpt>
      <trkpt lat="45.06629" lon="4.78381">
        <ele>197.1</ele>
        <time>2026-05-02T12:49:15Z</time>
      </trkpt>
      <trkpt lat="45.0663" lon="4.78389">
        <ele>197.4</ele>
        <time>2026-05-02T12:49:20Z</time>
      </trkpt>
      <trkpt lat="45.0663" lon="4.78401">
        <ele>198.5</ele>
        <time>2026-05-02T12:49:25Z</time>
      </trkpt>
      <trkpt lat="45.06631" lon="4.78413">
        <ele>199.1</ele>
        <time>2026-05-02T12:49:30Z</time>
      </trkpt>
      <trkpt lat="45.06633" lon="4.78424">
        <ele>198.9</ele>
        <time>2026-05-02T12:49:35Z</time>
      </trkpt>
      <trkpt lat="45.06634" lon="4.7843">
        <ele>198.7</ele>
        <time>2026-05-02T12:49:40Z</time>
      </trkpt>
      <trkpt lat="45.06636" lon="4.78439">
        <ele>198.3</ele>
        <time>2026-05-02T12:49:45Z</time>
      </trkpt>
      <trkpt lat="45.06637" lon="4.7845">
        <ele>198.5</ele>
        <time>2026-05-02T12:49:50Z</time>
      </trkpt>
      <trkpt lat="45.06638" lon="4.7846">
        <ele>198.6</ele>
        <time>2026-05-02T12:49:55Z</time>
      </trkpt>
      <trkpt lat="45.06638" lon="4.7847">
        <ele>199.2</ele>
        <time>2026-05-02T12:50:00Z</time>
      </trkpt>
      <trkpt lat="45.06638" lon="4.78479">
        <ele>199.8</ele>
        <time>2026-05-02T12:50:05Z</time>
      </trkpt>
      <trkpt lat="45.06638" lon="4.78488">
        <ele>200.4</ele>
        <time>2026-05-02T12:50:10Z</time>
      </trkpt>
      <trkpt lat="45.06638" lon="4.78497">
        <ele>201</ele>
        <time>2026-05-02T12:50:15Z</time>
      </trkpt>
      <trkpt lat="45.06636" lon="4.78507">
        <ele>201.1</ele>
        <time>2026-05-02T12:50:20Z</time>
      </trkpt>
      <trkpt lat="45.06634" lon="4.78516">
        <ele>200.6</ele>
        <time>2026-05-02T12:50:25Z</time>
      </trkpt>
      <trkpt lat="45.06631" lon="4.78526">
        <ele>200.6</ele>
        <time>2026-05-02T12:50:30Z</time>
      </trkpt>
      <trkpt lat="45.06628" lon="4.78536">
        <ele>200.7</ele>
        <time>2026-05-02T12:50:35Z</time>
      </trkpt>
      <trkpt lat="45.06626" lon="4.78545">
        <ele>200.3</ele>
        <time>2026-05-02T12:50:40Z</time>
      </trkpt>
      <trkpt lat="45.06624" lon="4.78555">
        <ele>199.9</ele>
        <time>2026-05-02T12:50:45Z</time>
      </trkpt>
      <trkpt lat="45.06621" lon="4.78564">
        <ele>200.2</ele>
        <time>2026-05-02T12:50:50Z</time>
      </trkpt>
      <trkpt lat="45.0662" lon="4.78574">
        <ele>199.2</ele>
        <time>2026-05-02T12:50:55Z</time>
      </trkpt>
      <trkpt lat="45.06617" lon="4.78583">
        <ele>199.6</ele>
        <time>2026-05-02T12:51:00Z</time>
      </trkpt>
      <trkpt lat="45.06614" lon="4.78593">
        <ele>198.6</ele>
        <time>2026-05-02T12:51:05Z</time>
      </trkpt>
      <trkpt lat="45.0661" lon="4.78603">
        <ele>198</ele>
        <time>2026-05-02T12:51:10Z</time>
      </trkpt>
      <trkpt lat="45.06607" lon="4.78613">
        <ele>196.8</ele>
        <time>2026-05-02T12:51:15Z</time>
      </trkpt>
      <trkpt lat="45.06604" lon="4.78621">
        <ele>196.2</ele>
        <time>2026-05-02T12:51:20Z</time>
      </trkpt>
      <trkpt lat="45.06601" lon="4.7863">
        <ele>195.2</ele>
        <time>2026-05-02T12:51:25Z</time>
      </trkpt>
      <trkpt lat="45.06597" lon="4.78639">
        <ele>194.8</ele>
        <time>2026-05-02T12:51:30Z</time>
      </trkpt>
      <trkpt lat="45.06593" lon="4.78649">
        <ele>194</ele>
        <time>2026-05-02T12:51:35Z</time>
      </trkpt>
      <trkpt lat="45.06589" lon="4.78658">
        <ele>193.5</ele>
        <time>2026-05-02T12:51:40Z</time>
      </trkpt>
      <trkpt lat="45.06586" lon="4.78666">
        <ele>192.7</ele>
        <time>2026-05-02T12:51:45Z</time>
      </trkpt>
      <trkpt lat="45.06581" lon="4.78673">
        <ele>193.5</ele>
        <time>2026-05-02T12:51:50Z</time>
      </trkpt>
      <trkpt lat="45.06577" lon="4.78683">
        <ele>193</ele>
        <time>2026-05-02T12:51:55Z</time>
      </trkpt>
      <trkpt lat="45.06572" lon="4.78693">
        <ele>193.1</ele>
        <time>2026-05-02T12:52:00Z</time>
      </trkpt>
      <trkpt lat="45.06569" lon="4.78701">
        <ele>192.7</ele>
        <time>2026-05-02T12:52:05Z</time>
      </trkpt>
      <trkpt lat="45.06564" lon="4.7871">
        <ele>193.3</ele>
        <time>2026-05-02T12:52:10Z</time>
      </trkpt>
      <trkpt lat="45.06558" lon="4.78717">
        <ele>195</ele>
        <time>2026-05-02T12:52:15Z</time>
      </trkpt>
      <trkpt lat="45.06554" lon="4.78724">
        <ele>195.7</ele>
        <time>2026-05-02T12:52:20Z</time>
      </trkpt>
      <trkpt lat="45.0655" lon="4.78732">
        <ele>196.3</ele>
        <time>2026-05-02T12:52:25Z</time>
      </trkpt>
      <trkpt lat="45.06545" lon="4.78738">
        <ele>198</ele>
        <time>2026-05-02T12:52:30Z</time>
      </trkpt>
      <trkpt lat="45.06541" lon="4.78746">
        <ele>198.7</ele>
        <time>2026-05-02T12:52:35Z</time>
      </trkpt>
      <trkpt lat="45.06536" lon="4.78754">
        <ele>200.2</ele>
        <time>2026-05-02T12:52:40Z</time>
      </trkpt>
      <trkpt lat="45.06531" lon="4.78764">
        <ele>201.5</ele>
        <time>2026-05-02T12:52:45Z</time>
      </trkpt>
      <trkpt lat="45.06527" lon="4.78774">
        <ele>202.2</ele>
        <time>2026-05-02T12:52:50Z</time>
      </trkpt>
      <trkpt lat="45.06526" lon="4.78786">
        <ele>200.6</ele>
        <time>2026-05-02T12:52:55Z</time>
      </trkpt>
      <trkpt lat="45.06524" lon="4.78795">
        <ele>200.2</ele>
        <time>2026-05-02T12:53:00Z</time>
      </trkpt>
      <trkpt lat="45.06522" lon="4.78804">
        <ele>199.8</ele>
        <time>2026-05-02T12:53:05Z</time>
      </trkpt>
      <trkpt lat="45.06519" lon="4.78813">
        <ele>200</ele>
        <time>2026-05-02T12:53:10Z</time>
      </trkpt>
      <trkpt lat="45.06517" lon="4.78825">
        <ele>199.1</ele>
        <time>2026-05-02T12:53:15Z</time>
      </trkpt>
      <trkpt lat="45.06514" lon="4.78834">
        <ele>199.3</ele>
        <time>2026-05-02T12:53:20Z</time>
      </trkpt>
      <trkpt lat="45.06513" lon="4.78843">
        <ele>197.9</ele>
        <time>2026-05-02T12:53:25Z</time>
      </trkpt>
      <trkpt lat="45.0651" lon="4.78852">
        <ele>197.7</ele>
        <time>2026-05-02T12:53:30Z</time>
      </trkpt>
      <trkpt lat="45.06504" lon="4.7886">
        <ele>199.3</ele>
        <time>2026-05-02T12:53:35Z</time>
      </trkpt>
      <trkpt lat="45.065" lon="4.7887">
        <ele>199.2</ele>
        <time>2026-05-02T12:53:40Z</time>
      </trkpt>
      <trkpt lat="45.06499" lon="4.7888">
        <ele>197.3</ele>
        <time>2026-05-02T12:53:45Z</time>
      </trkpt>
      <trkpt lat="45.06499" lon="4.78889">
        <ele>195.1</ele>
        <time>2026-05-02T12:53:50Z</time>
      </trkpt>
      <trkpt lat="45.06498" lon="4.78898">
        <ele>193.4</ele>
        <time>2026-05-02T12:53:55Z</time>
      </trkpt>
      <trkpt lat="45.06494" lon="4.78907">
        <ele>193.2</ele>
        <time>2026-05-02T12:54:00Z</time>
      </trkpt>
      <trkpt lat="45.06491" lon="4.78915">
        <ele>192.7</ele>
        <time>2026-05-02T12:54:05Z</time>
      </trkpt>
      <trkpt lat="45.06486" lon="4.78926">
        <ele>192.6</ele>
        <time>2026-05-02T12:54:10Z</time>
      </trkpt>
      <trkpt lat="45.06481" lon="4.78935">
        <ele>193</ele>
        <time>2026-05-02T12:54:15Z</time>
      </trkpt>
      <trkpt lat="45.0648" lon="4.78944">
        <ele>191.4</ele>
        <time>2026-05-02T12:54:20Z</time>
      </trkpt>
      <trkpt lat="45.0648" lon="4.78947">
        <ele>190.8</ele>
        <time>2026-05-02T12:54:25Z</time>
      </trkpt>
      <trkpt lat="45.06482" lon="4.78947">
        <ele>189.8</ele>
        <time>2026-05-02T12:54:30Z</time>
      </trkpt>
      <trkpt lat="45.06482" lon="4.78947">
        <ele>189.8</ele>
        <time>2026-05-02T12:54:35Z</time>
      </trkpt>
      <trkpt lat="45.06482" lon="4.78947">
        <ele>189.8</ele>
        <time>2026-05-02T12:54:40Z</time>
      </trkpt>
      <trkpt lat="45.06482" lon="4.78947">
        <ele>189.8</ele>
        <time>2026-05-02T12:54:45Z</time>
      </trkpt>
      <trkpt lat="45.06482" lon="4.78947">
        <ele>189.8</ele>
        <time>2026-05-02T12:54:50Z</time>
      </trkpt>
      <trkpt lat="45.06482" lon="4.78947">
        <ele>189.8</ele>
        <time>2026-05-02T12:54:55Z</time>
      </trkpt>
      <trkpt lat="45.06482" lon="4.78947">
        <ele>189.8</ele>
        <time>2026-05-02T12:55:00Z</time>
      </trkpt>
      <trkpt lat="45.06482" lon="4.78947">
        <ele>189.8</ele>
        <time>2026-05-02T12:55:05Z</time>
      </trkpt>
      <trkpt lat="45.06482" lon="4.78947">
        <ele>189.8</ele>
        <time>2026-05-02T12:55:10Z</time>
      </trkpt>
      <trkpt lat="45.06482" lon="4.78947">
        <ele>189.8</ele>
        <time>2026-05-02T12:55:15Z</time>
      </trkpt>
      <trkpt lat="45.06482" lon="4.78947">
        <ele>189.8</ele>
        <time>2026-05-02T12:55:20Z</time>
      </trkpt>
      <trkpt lat="45.06482" lon="4.78947">
        <ele>189.8</ele>
        <time>2026-05-02T12:55:25Z</time>
      </trkpt>
      <trkpt lat="45.06482" lon="4.78947">
        <ele>189.8</ele>
        <time>2026-05-02T12:55:30Z</time>
      </trkpt>
      <trkpt lat="45.06481" lon="4.78959">
        <ele>187.6</ele>
        <time>2026-05-02T12:55:35Z</time>
      </trkpt>
      <trkpt lat="45.06478" lon="4.78967">
        <ele>187.2</ele>
        <time>2026-05-02T12:55:40Z</time>
      </trkpt>
      <trkpt lat="45.06473" lon="4.78975">
        <ele>187.9</ele>
        <time>2026-05-02T12:55:45Z</time>
      </trkpt>
      <trkpt lat="45.06472" lon="4.78987">
        <ele>185.7</ele>
        <time>2026-05-02T12:55:50Z</time>
      </trkpt>
      <trkpt lat="45.06474" lon="4.78998">
        <ele>182.2</ele>
        <time>2026-05-02T12:55:55Z</time>
      </trkpt>
      <trkpt lat="45.06473" lon="4.79009">
        <ele>181.4</ele>
        <time>2026-05-02T12:56:00Z</time>
      </trkpt>
      <trkpt lat="45.06472" lon="4.79017">
        <ele>181.1</ele>
        <time>2026-05-02T12:56:05Z</time>
      </trkpt>
      <trkpt lat="45.06471" lon="4.79027">
        <ele>180.6</ele>
        <time>2026-05-02T12:56:10Z</time>
      </trkpt>
      <trkpt lat="45.06468" lon="4.79037">
        <ele>181.1</ele>
        <time>2026-05-02T12:56:15Z</time>
      </trkpt>
      <trkpt lat="45.06464" lon="4.79048">
        <ele>182</ele>
        <time>2026-05-02T12:56:20Z</time>
      </trkpt>
      <trkpt lat="45.06462" lon="4.79057">
        <ele>182.2</ele>
        <time>2026-05-02T12:56:25Z</time>
      </trkpt>
      <trkpt lat="45.06457" lon="4.79064">
        <ele>184</ele>
        <time>2026-05-02T12:56:30Z</time>
      </trkpt>
      <trkpt lat="45.06452" lon="4.79072">
        <ele>185.8</ele>
        <time>2026-05-02T12:56:35Z</time>
      </trkpt>
      <trkpt lat="45.06449" lon="4.79083">
        <ele>186.3</ele>
        <time>2026-05-02T12:56:40Z</time>
      </trkpt>
      <trkpt lat="45.06446" lon="4.79091">
        <ele>188</ele>
        <time>2026-05-02T12:56:45Z</time>
      </trkpt>
      <trkpt lat="45.06441" lon="4.79099">
        <ele>190.9</ele>
        <time>2026-05-02T12:56:50Z</time>
      </trkpt>
      <trkpt lat="45.06437" lon="4.79107">
        <ele>193.2</ele>
        <time>2026-05-02T12:56:55Z</time>
      </trkpt>
      <trkpt lat="45.06434" lon="4.79118">
        <ele>195.2</ele>
        <time>2026-05-02T12:57:00Z</time>
      </trkpt>
      <trkpt lat="45.06432" lon="4.79126">
        <ele>196.6</ele>
        <time>2026-05-02T12:57:05Z</time>
      </trkpt>
      <trkpt lat="45.06432" lon="4.79136">
        <ele>196.9</ele>
        <time>2026-05-02T12:57:10Z</time>
      </trkpt>
      <trkpt lat="45.06432" lon="4.79147">
        <ele>197.3</ele>
        <time>2026-05-02T12:57:15Z</time>
      </trkpt>
      <trkpt lat="45.06431" lon="4.79158">
        <ele>198.3</ele>
        <time>2026-05-02T12:57:20Z</time>
      </trkpt>
      <trkpt lat="45.06431" lon="4.79167">
        <ele>198.6</ele>
        <time>2026-05-02T12:57:25Z</time>
      </trkpt>
      <trkpt lat="45.06431" lon="4.7918">
        <ele>199.8</ele>
        <time>2026-05-02T12:57:30Z</time>
      </trkpt>
      <trkpt lat="45.06432" lon="4.7919">
        <ele>200.1</ele>
        <time>2026-05-02T12:57:35Z</time>
      </trkpt>
      <trkpt lat="45.06433" lon="4.79201">
        <ele>200.5</ele>
        <time>2026-05-02T12:57:40Z</time>
      </trkpt>
      <trkpt lat="45.06435" lon="4.7921">
        <ele>200.2</ele>
        <time>2026-05-02T12:57:45Z</time>
      </trkpt>
      <trkpt lat="45.06439" lon="4.79221">
        <ele>198.7</ele>
        <time>2026-05-02T12:57:50Z</time>
      </trkpt>
      <trkpt lat="45.06443" lon="4.7923">
        <ele>197.1</ele>
        <time>2026-05-02T12:57:55Z</time>
      </trkpt>
      <trkpt lat="45.06447" lon="4.79239">
        <ele>195.5</ele>
        <time>2026-05-02T12:58:00Z</time>
      </trkpt>
      <trkpt lat="45.0645" lon="4.79249">
        <ele>194.5</ele>
        <time>2026-05-02T12:58:05Z</time>
      </trkpt>
      <trkpt lat="45.06452" lon="4.79252">
        <ele>193.5</ele>
        <time>2026-05-02T12:58:10Z</time>
      </trkpt>
      <trkpt lat="45.06455" lon="4.79246">
        <ele>191.2</ele>
        <time>2026-05-02T12:58:15Z</time>
      </trkpt>
      <trkpt lat="45.06455" lon="4.79238">
        <ele>190.5</ele>
        <time>2026-05-02T12:58:20Z</time>
      </trkpt>
      <trkpt lat="45.0645" lon="4.79228">
        <ele>192.7</ele>
        <time>2026-05-02T12:58:25Z</time>
      </trkpt>
      <trkpt lat="45.06449" lon="4.79218">
        <ele>192.4</ele>
        <time>2026-05-02T12:58:30Z</time>
      </trkpt>
      <trkpt lat="45.06449" lon="4.7921">
        <ele>191.7</ele>
        <time>2026-05-02T12:58:35Z</time>
      </trkpt>
      <trkpt lat="45.0645" lon="4.79202">
        <ele>190.5</ele>
        <time>2026-05-02T12:58:40Z</time>
      </trkpt>
      <trkpt lat="45.0645" lon="4.79193">
        <ele>189.7</ele>
        <time>2026-05-02T12:58:45Z</time>
      </trkpt>
      <trkpt lat="45.06451" lon="4.79185">
        <ele>188.4</ele>
        <time>2026-05-02T12:58:50Z</time>
      </trkpt>
      <trkpt lat="45.06453" lon="4.79179">
        <ele>186.7</ele>
        <time>2026-05-02T12:58:55Z</time>
      </trkpt>
      <trkpt lat="45.06458" lon="4.79178">
        <ele>183.6</ele>
        <time>2026-05-02T12:59:00Z</time>
      </trkpt>
      <trkpt lat="45.06466" lon="4.79176">
        <ele>178.8</ele>
        <time>2026-05-02T12:59:05Z</time>
      </trkpt>
      <trkpt lat="45.06472" lon="4.79178">
        <ele>175.4</ele>
        <time>2026-05-02T12:59:10Z</time>
      </trkpt>
      <trkpt lat="45.06475" lon="4.79185">
        <ele>174.2</ele>
        <time>2026-05-02T12:59:15Z</time>
      </trkpt>
      <trkpt lat="45.06478" lon="4.7919">
        <ele>172.8</ele>
        <time>2026-05-02T12:59:20Z</time>
      </trkpt>
      <trkpt lat="45.06479" lon="4.79198">
        <ele>172.8</ele>
        <time>2026-05-02T12:59:25Z</time>
      </trkpt>
      <trkpt lat="45.06479" lon="4.792">
        <ele>172.9</ele>
        <time>2026-05-02T12:59:30Z</time>
        <extensions>
          <visugpx:TrkExtension xmlns:visugpx="https://www.visugpx.com/editgpx/">
            <visugpx:node>10</visugpx:node>
            </visugpx:TrkExtension>
        </extensions>
      </trkpt>
      <trkpt lat="45.06441" lon="4.79193">
        <ele>195</ele>
        <time>2026-05-03T05:36:31Z</time>
      </trkpt>
      <trkpt lat="45.06442" lon="4.79202">
        <ele>195.2</ele>
        <time>2026-05-03T05:36:36Z</time>
      </trkpt>
      <trkpt lat="45.06442" lon="4.7921">
        <ele>195.9</ele>
        <time>2026-05-03T05:36:42Z</time>
      </trkpt>
      <trkpt lat="45.06445" lon="4.79215">
        <ele>194.6</ele>
        <time>2026-05-03T05:36:47Z</time>
      </trkpt>
      <trkpt lat="45.06448" lon="4.7922">
        <ele>193.2</ele>
        <time>2026-05-03T05:36:52Z</time>
      </trkpt>
      <trkpt lat="45.0645" lon="4.79226">
        <ele>192.5</ele>
        <time>2026-05-03T05:36:57Z</time>
      </trkpt>
      <trkpt lat="45.06452" lon="4.79231">
        <ele>191.7</ele>
        <time>2026-05-03T05:37:02Z</time>
      </trkpt>
      <trkpt lat="45.0645" lon="4.79233">
        <ele>193.1</ele>
        <time>2026-05-03T05:37:07Z</time>
      </trkpt>
      <trkpt lat="45.0645" lon="4.79239">
        <ele>193.6</ele>
        <time>2026-05-03T05:37:12Z</time>
      </trkpt>
      <trkpt lat="45.06453" lon="4.79244">
        <ele>192.3</ele>
        <time>2026-05-03T05:37:17Z</time>
      </trkpt>
      <trkpt lat="45.06453" lon="4.79248">
        <ele>192.6</ele>
        <time>2026-05-03T05:37:22Z</time>
      </trkpt>
      <trkpt lat="45.06453" lon="4.79248">
        <ele>192.6</ele>
        <time>2026-05-03T05:37:27Z</time>
      </trkpt>
      <trkpt lat="45.06453" lon="4.79248">
        <ele>192.6</ele>
        <time>2026-05-03T05:37:32Z</time>
      </trkpt>
      <trkpt lat="45.06453" lon="4.79248">
        <ele>192.6</ele>
        <time>2026-05-03T05:37:37Z</time>
      </trkpt>
      <trkpt lat="45.06446" lon="4.79235">
        <ele>195.7</ele>
        <time>2026-05-03T05:37:42Z</time>
      </trkpt>
      <trkpt lat="45.06446" lon="4.79234">
        <ele>195.6</ele>
        <time>2026-05-03T05:37:47Z</time>
      </trkpt>
      <trkpt lat="45.06444" lon="4.79232">
        <ele>196.7</ele>
        <time>2026-05-03T05:37:52Z</time>
      </trkpt>
      <trkpt lat="45.06441" lon="4.79228">
        <ele>198.2</ele>
        <time>2026-05-03T05:37:57Z</time>
      </trkpt>
      <trkpt lat="45.06438" lon="4.79222">
        <ele>199.4</ele>
        <time>2026-05-03T05:38:02Z</time>
      </trkpt>
      <trkpt lat="45.06437" lon="4.79214">
        <ele>199.3</ele>
        <time>2026-05-03T05:38:07Z</time>
      </trkpt>
      <trkpt lat="45.06435" lon="4.79207">
        <ele>199.9</ele>
        <time>2026-05-03T05:38:12Z</time>
      </trkpt>
      <trkpt lat="45.06434" lon="4.79201">
        <ele>199.9</ele>
        <time>2026-05-03T05:38:17Z</time>
      </trkpt>
      <trkpt lat="45.06434" lon="4.79193">
        <ele>199.2</ele>
        <time>2026-05-03T05:38:22Z</time>
      </trkpt>
      <trkpt lat="45.06434" lon="4.79184">
        <ele>198.4</ele>
        <time>2026-05-03T05:38:27Z</time>
      </trkpt>
      <trkpt lat="45.06434" lon="4.79175">
        <ele>197.6</ele>
        <time>2026-05-03T05:38:32Z</time>
      </trkpt>
      <trkpt lat="45.06434" lon="4.79166">
        <ele>196.8</ele>
        <time>2026-05-03T05:38:37Z</time>
      </trkpt>
      <trkpt lat="45.06434" lon="4.79157">
        <ele>196.5</ele>
        <time>2026-05-03T05:38:42Z</time>
      </trkpt>
      <trkpt lat="45.06435" lon="4.79149">
        <ele>195.7</ele>
        <time>2026-05-03T05:38:47Z</time>
      </trkpt>
      <trkpt lat="45.06438" lon="4.79141">
        <ele>193.7</ele>
        <time>2026-05-03T05:38:52Z</time>
      </trkpt>
      <trkpt lat="45.06439" lon="4.79134">
        <ele>192.9</ele>
        <time>2026-05-03T05:38:57Z</time>
      </trkpt>
      <trkpt lat="45.0644" lon="4.79128">
        <ele>192.2</ele>
        <time>2026-05-03T05:39:02Z</time>
      </trkpt>
      <trkpt lat="45.06444" lon="4.79119">
        <ele>189.8</ele>
        <time>2026-05-03T05:39:07Z</time>
      </trkpt>
      <trkpt lat="45.06446" lon="4.79111">
        <ele>188.5</ele>
        <time>2026-05-03T05:39:12Z</time>
      </trkpt>
      <trkpt lat="45.06449" lon="4.79104">
        <ele>186.7</ele>
        <time>2026-05-03T05:39:17Z</time>
      </trkpt>
      <trkpt lat="45.06451" lon="4.79096">
        <ele>185.5</ele>
        <time>2026-05-03T05:39:22Z</time>
      </trkpt>
      <trkpt lat="45.06454" lon="4.7909">
        <ele>183.8</ele>
        <time>2026-05-03T05:39:27Z</time>
      </trkpt>
      <trkpt lat="45.06457" lon="4.79081">
        <ele>182.4</ele>
        <time>2026-05-03T05:39:32Z</time>
      </trkpt>
      <trkpt lat="45.0646" lon="4.79074">
        <ele>181.5</ele>
        <time>2026-05-03T05:39:37Z</time>
      </trkpt>
      <trkpt lat="45.06462" lon="4.79067">
        <ele>181.2</ele>
        <time>2026-05-03T05:39:42Z</time>
      </trkpt>
      <trkpt lat="45.06463" lon="4.79063">
        <ele>181.1</ele>
        <time>2026-05-03T05:39:47Z</time>
      </trkpt>
      <trkpt lat="45.06466" lon="4.79055">
        <ele>180.3</ele>
        <time>2026-05-03T05:39:52Z</time>
      </trkpt>
      <trkpt lat="45.0647" lon="4.79047">
        <ele>179.1</ele>
        <time>2026-05-03T05:39:57Z</time>
      </trkpt>
      <trkpt lat="45.06472" lon="4.79039">
        <ele>178.9</ele>
        <time>2026-05-03T05:40:02Z</time>
      </trkpt>
      <trkpt lat="45.06474" lon="4.79031">
        <ele>178.7</ele>
        <time>2026-05-03T05:40:07Z</time>
      </trkpt>
      <trkpt lat="45.06477" lon="4.79023">
        <ele>178</ele>
        <time>2026-05-03T05:40:12Z</time>
      </trkpt>
      <trkpt lat="45.06479" lon="4.79015">
        <ele>177.8</ele>
        <time>2026-05-03T05:40:17Z</time>
      </trkpt>
      <trkpt lat="45.06482" lon="4.79007">
        <ele>177.1</ele>
        <time>2026-05-03T05:40:22Z</time>
      </trkpt>
      <trkpt lat="45.06484" lon="4.78997">
        <ele>177.5</ele>
        <time>2026-05-03T05:40:27Z</time>
      </trkpt>
      <trkpt lat="45.06486" lon="4.78988">
        <ele>178.6</ele>
        <time>2026-05-03T05:40:32Z</time>
      </trkpt>
      <trkpt lat="45.06487" lon="4.78979">
        <ele>180.1</ele>
        <time>2026-05-03T05:40:37Z</time>
      </trkpt>
      <trkpt lat="45.06488" lon="4.7897">
        <ele>181.7</ele>
        <time>2026-05-03T05:40:42Z</time>
      </trkpt>
      <trkpt lat="45.0649" lon="4.78962">
        <ele>182.5</ele>
        <time>2026-05-03T05:40:47Z</time>
      </trkpt>
      <trkpt lat="45.06492" lon="4.78955">
        <ele>183.1</ele>
        <time>2026-05-03T05:40:52Z</time>
      </trkpt>
      <trkpt lat="45.06493" lon="4.78944">
        <ele>185.2</ele>
        <time>2026-05-03T05:40:57Z</time>
      </trkpt>
      <trkpt lat="45.06495" lon="4.78936">
        <ele>186</ele>
        <time>2026-05-03T05:41:02Z</time>
      </trkpt>
      <trkpt lat="45.06496" lon="4.78925">
        <ele>188</ele>
        <time>2026-05-03T05:41:07Z</time>
      </trkpt>
      <trkpt lat="45.06499" lon="4.78917">
        <ele>188.4</ele>
        <time>2026-05-03T05:41:12Z</time>
      </trkpt>
      <trkpt lat="45.06498" lon="4.78911">
        <ele>190.3</ele>
        <time>2026-05-03T05:41:17Z</time>
      </trkpt>
      <trkpt lat="45.06497" lon="4.78903">
        <ele>192.7</ele>
        <time>2026-05-03T05:41:22Z</time>
      </trkpt>
      <trkpt lat="45.06501" lon="4.78894">
        <ele>192.9</ele>
        <time>2026-05-03T05:41:27Z</time>
      </trkpt>
      <trkpt lat="45.06503" lon="4.78887">
        <ele>193.5</ele>
        <time>2026-05-03T05:41:32Z</time>
      </trkpt>
      <trkpt lat="45.06507" lon="4.7888">
        <ele>193</ele>
        <time>2026-05-03T05:41:37Z</time>
      </trkpt>
      <trkpt lat="45.06509" lon="4.78873">
        <ele>193.5</ele>
        <time>2026-05-03T05:41:42Z</time>
      </trkpt>
      <trkpt lat="45.0651" lon="4.7887">
        <ele>193.6</ele>
        <time>2026-05-03T05:41:47Z</time>
      </trkpt>
      <trkpt lat="45.0651" lon="4.78864">
        <ele>195</ele>
        <time>2026-05-03T05:41:52Z</time>
      </trkpt>
      <trkpt lat="45.0651" lon="4.78856">
        <ele>196.8</ele>
        <time>2026-05-03T05:41:57Z</time>
      </trkpt>
      <trkpt lat="45.06511" lon="4.78849">
        <ele>197.8</ele>
        <time>2026-05-03T05:42:02Z</time>
      </trkpt>
      <trkpt lat="45.06514" lon="4.78846">
        <ele>196.6</ele>
        <time>2026-05-03T05:42:07Z</time>
      </trkpt>
      <trkpt lat="45.06514" lon="4.78846">
        <ele>196.6</ele>
        <time>2026-05-03T05:42:12Z</time>
      </trkpt>
      <trkpt lat="45.06514" lon="4.78846">
        <ele>196.6</ele>
        <time>2026-05-03T05:42:17Z</time>
      </trkpt>
      <trkpt lat="45.06514" lon="4.78846">
        <ele>196.6</ele>
        <time>2026-05-03T05:42:22Z</time>
      </trkpt>
      <trkpt lat="45.06514" lon="4.78846">
        <ele>196.6</ele>
        <time>2026-05-03T05:42:27Z</time>
      </trkpt>
      <trkpt lat="45.06514" lon="4.78846">
        <ele>196.6</ele>
        <time>2026-05-03T05:42:32Z</time>
      </trkpt>
      <trkpt lat="45.06514" lon="4.78846">
        <ele>196.6</ele>
        <time>2026-05-03T05:42:37Z</time>
      </trkpt>
      <trkpt lat="45.06514" lon="4.78846">
        <ele>196.6</ele>
        <time>2026-05-03T05:42:42Z</time>
      </trkpt>
      <trkpt lat="45.06514" lon="4.78846">
        <ele>196.6</ele>
        <time>2026-05-03T05:42:47Z</time>
      </trkpt>
      <trkpt lat="45.06514" lon="4.78846">
        <ele>196.6</ele>
        <time>2026-05-03T05:42:52Z</time>
      </trkpt>
      <trkpt lat="45.06514" lon="4.78846">
        <ele>196.6</ele>
        <time>2026-05-03T05:42:57Z</time>
      </trkpt>
      <trkpt lat="45.06514" lon="4.78846">
        <ele>196.6</ele>
        <time>2026-05-03T05:43:02Z</time>
      </trkpt>
      <trkpt lat="45.06514" lon="4.78846">
        <ele>196.6</ele>
        <time>2026-05-03T05:43:07Z</time>
      </trkpt>
      <trkpt lat="45.06514" lon="4.78846">
        <ele>196.6</ele>
        <time>2026-05-03T05:43:12Z</time>
      </trkpt>
      <trkpt lat="45.06514" lon="4.78846">
        <ele>196.6</ele>
        <time>2026-05-03T05:43:17Z</time>
      </trkpt>
      <trkpt lat="45.06514" lon="4.78846">
        <ele>196.6</ele>
        <time>2026-05-03T05:43:22Z</time>
      </trkpt>
      <trkpt lat="45.06514" lon="4.78846">
        <ele>196.6</ele>
        <time>2026-05-03T05:43:27Z</time>
      </trkpt>
      <trkpt lat="45.06514" lon="4.78846">
        <ele>196.6</ele>
        <time>2026-05-03T05:43:32Z</time>
      </trkpt>
      <trkpt lat="45.06514" lon="4.78846">
        <ele>196.6</ele>
        <time>2026-05-03T05:43:37Z</time>
      </trkpt>
      <trkpt lat="45.06517" lon="4.78841">
        <ele>195.9</ele>
        <time>2026-05-03T05:43:42Z</time>
      </trkpt>
      <trkpt lat="45.06517" lon="4.78831">
        <ele>198</ele>
        <time>2026-05-03T05:43:47Z</time>
      </trkpt>
      <trkpt lat="45.06519" lon="4.78823">
        <ele>198.2</ele>
        <time>2026-05-03T05:43:52Z</time>
      </trkpt>
      <trkpt lat="45.06523" lon="4.78814">
        <ele>197.4</ele>
        <time>2026-05-03T05:43:57Z</time>
      </trkpt>
      <trkpt lat="45.06524" lon="4.78805">
        <ele>198.4</ele>
        <time>2026-05-03T05:44:02Z</time>
      </trkpt>
      <trkpt lat="45.06526" lon="4.78795">
        <ele>199</ele>
        <time>2026-05-03T05:44:07Z</time>
      </trkpt>
      <trkpt lat="45.06528" lon="4.78785">
        <ele>199.6</ele>
        <time>2026-05-03T05:44:12Z</time>
      </trkpt>
      <trkpt lat="45.06533" lon="4.78777">
        <ele>197.9</ele>
        <time>2026-05-03T05:44:17Z</time>
      </trkpt>
      <trkpt lat="45.06537" lon="4.78768">
        <ele>197.1</ele>
        <time>2026-05-03T05:44:22Z</time>
      </trkpt>
      <trkpt lat="45.06541" lon="4.7876">
        <ele>196.1</ele>
        <time>2026-05-03T05:44:27Z</time>
      </trkpt>
      <trkpt lat="45.06545" lon="4.78753">
        <ele>194.9</ele>
        <time>2026-05-03T05:44:32Z</time>
      </trkpt>
      <trkpt lat="45.0655" lon="4.78746">
        <ele>193.3</ele>
        <time>2026-05-03T05:44:37Z</time>
      </trkpt>
      <trkpt lat="45.06551" lon="4.78744">
        <ele>193.1</ele>
        <time>2026-05-03T05:44:42Z</time>
      </trkpt>
      <trkpt lat="45.06551" lon="4.78744">
        <ele>193.1</ele>
        <time>2026-05-03T05:44:47Z</time>
      </trkpt>
      <trkpt lat="45.06551" lon="4.78744">
        <ele>193.1</ele>
        <time>2026-05-03T05:44:52Z</time>
      </trkpt>
      <trkpt lat="45.06551" lon="4.78744">
        <ele>193.1</ele>
        <time>2026-05-03T05:44:57Z</time>
      </trkpt>
      <trkpt lat="45.06551" lon="4.78744">
        <ele>193.1</ele>
        <time>2026-05-03T05:45:02Z</time>
      </trkpt>
      <trkpt lat="45.06551" lon="4.78744">
        <ele>193.1</ele>
        <time>2026-05-03T05:45:07Z</time>
      </trkpt>
      <trkpt lat="45.06551" lon="4.78744">
        <ele>193.1</ele>
        <time>2026-05-03T05:45:12Z</time>
      </trkpt>
      <trkpt lat="45.06551" lon="4.78744">
        <ele>193.1</ele>
        <time>2026-05-03T05:45:17Z</time>
      </trkpt>
      <trkpt lat="45.06551" lon="4.78744">
        <ele>193.1</ele>
        <time>2026-05-03T05:45:22Z</time>
      </trkpt>
      <trkpt lat="45.06551" lon="4.78744">
        <ele>193.1</ele>
        <time>2026-05-03T05:45:27Z</time>
      </trkpt>
      <trkpt lat="45.06551" lon="4.78744">
        <ele>193.1</ele>
        <time>2026-05-03T05:45:32Z</time>
      </trkpt>
      <trkpt lat="45.0656" lon="4.78734">
        <ele>190</ele>
        <time>2026-05-03T05:45:37Z</time>
      </trkpt>
      <trkpt lat="45.06565" lon="4.78727">
        <ele>188.7</ele>
        <time>2026-05-03T05:45:42Z</time>
      </trkpt>
      <trkpt lat="45.06569" lon="4.78722">
        <ele>187.6</ele>
        <time>2026-05-03T05:45:47Z</time>
      </trkpt>
      <trkpt lat="45.06569" lon="4.78722">
        <ele>187.6</ele>
        <time>2026-05-03T05:45:47Z</time>
      </trkpt>
      <trkpt lat="45.06567" lon="4.78723">
        <ele>188.5</ele>
        <time>2026-05-03T05:45:55Z</time>
      </trkpt>
      <trkpt lat="45.06566" lon="4.78721">
        <ele>189.5</ele>
        <time>2026-05-03T05:46:00Z</time>
      </trkpt>
      <trkpt lat="45.06567" lon="4.78719">
        <ele>189.5</ele>
        <time>2026-05-03T05:46:05Z</time>
      </trkpt>
      <trkpt lat="45.0657" lon="4.78714">
        <ele>189</ele>
        <time>2026-05-03T05:46:10Z</time>
      </trkpt>
      <trkpt lat="45.06574" lon="4.78706">
        <ele>188.7</ele>
        <time>2026-05-03T05:46:15Z</time>
      </trkpt>
      <trkpt lat="45.06577" lon="4.78699">
        <ele>188.9</ele>
        <time>2026-05-03T05:46:20Z</time>
      </trkpt>
      <trkpt lat="45.06581" lon="4.78689">
        <ele>189.3</ele>
        <time>2026-05-03T05:46:25Z</time>
      </trkpt>
      <trkpt lat="45.06586" lon="4.78683">
        <ele>188.2</ele>
        <time>2026-05-03T05:46:30Z</time>
      </trkpt>
      <trkpt lat="45.06591" lon="4.78674">
        <ele>187.8</ele>
        <time>2026-05-03T05:46:35Z</time>
      </trkpt>
      <trkpt lat="45.06594" lon="4.78667">
        <ele>187.8</ele>
        <time>2026-05-03T05:46:40Z</time>
      </trkpt>
      <trkpt lat="45.06597" lon="4.78658">
        <ele>188.9</ele>
        <time>2026-05-03T05:46:45Z</time>
      </trkpt>
      <trkpt lat="45.06602" lon="4.78649">
        <ele>188.7</ele>
        <time>2026-05-03T05:46:50Z</time>
      </trkpt>
      <trkpt lat="45.06605" lon="4.7864">
        <ele>189.7</ele>
        <time>2026-05-03T05:46:55Z</time>
      </trkpt>
      <trkpt lat="45.06606" lon="4.78632">
        <ele>191.6</ele>
        <time>2026-05-03T05:47:00Z</time>
      </trkpt>
      <trkpt lat="45.0661" lon="4.78623">
        <ele>191.9</ele>
        <time>2026-05-03T05:47:05Z</time>
      </trkpt>
      <trkpt lat="45.06613" lon="4.78615">
        <ele>192.5</ele>
        <time>2026-05-03T05:47:10Z</time>
      </trkpt>
      <trkpt lat="45.06611" lon="4.78612">
        <ele>194.7</ele>
        <time>2026-05-03T05:47:15Z</time>
      </trkpt>
      <trkpt lat="45.06611" lon="4.78612">
        <ele>194.7</ele>
        <time>2026-05-03T05:47:20Z</time>
      </trkpt>
      <trkpt lat="45.06612" lon="4.78609">
        <ele>195</ele>
        <time>2026-05-03T05:47:25Z</time>
      </trkpt>
      <trkpt lat="45.06611" lon="4.78607">
        <ele>196.2</ele>
        <time>2026-05-03T05:47:30Z</time>
      </trkpt>
      <trkpt lat="45.06611" lon="4.78607">
        <ele>196.2</ele>
        <time>2026-05-03T05:47:35Z</time>
      </trkpt>
      <trkpt lat="45.06611" lon="4.78607">
        <ele>196.2</ele>
        <time>2026-05-03T05:47:40Z</time>
      </trkpt>
      <trkpt lat="45.06611" lon="4.78607">
        <ele>196.2</ele>
        <time>2026-05-03T05:47:45Z</time>
      </trkpt>
      <trkpt lat="45.06611" lon="4.78607">
        <ele>196.2</ele>
        <time>2026-05-03T05:47:50Z</time>
      </trkpt>
      <trkpt lat="45.06611" lon="4.78607">
        <ele>196.2</ele>
        <time>2026-05-03T05:47:55Z</time>
      </trkpt>
      <trkpt lat="45.06611" lon="4.78607">
        <ele>196.2</ele>
        <time>2026-05-03T05:48:00Z</time>
      </trkpt>
      <trkpt lat="45.06611" lon="4.78603">
        <ele>197.4</ele>
        <time>2026-05-03T05:48:05Z</time>
      </trkpt>
      <trkpt lat="45.06614" lon="4.78596">
        <ele>197.7</ele>
        <time>2026-05-03T05:48:10Z</time>
      </trkpt>
      <trkpt lat="45.06618" lon="4.78587">
        <ele>197.9</ele>
        <time>2026-05-03T05:48:15Z</time>
      </trkpt>
      <trkpt lat="45.06621" lon="4.78578">
        <ele>197.9</ele>
        <time>2026-05-03T05:48:20Z</time>
      </trkpt>
      <trkpt lat="45.06624" lon="4.78568">
        <ele>197.7</ele>
        <time>2026-05-03T05:48:25Z</time>
      </trkpt>
      <trkpt lat="45.06626" lon="4.78559">
        <ele>198</ele>
        <time>2026-05-03T05:48:30Z</time>
      </trkpt>
      <trkpt lat="45.06628" lon="4.78549">
        <ele>198.4</ele>
        <time>2026-05-03T05:48:35Z</time>
      </trkpt>
      <trkpt lat="45.0663" lon="4.7854">
        <ele>198.8</ele>
        <time>2026-05-03T05:48:40Z</time>
      </trkpt>
      <trkpt lat="45.06632" lon="4.7853">
        <ele>199.3</ele>
        <time>2026-05-03T05:48:45Z</time>
      </trkpt>
      <trkpt lat="45.06633" lon="4.7852">
        <ele>200.5</ele>
        <time>2026-05-03T05:48:50Z</time>
      </trkpt>
      <trkpt lat="45.06634" lon="4.78511">
        <ele>201.5</ele>
        <time>2026-05-03T05:48:55Z</time>
      </trkpt>
      <trkpt lat="45.06634" lon="4.78501">
        <ele>203.2</ele>
        <time>2026-05-03T05:49:00Z</time>
      </trkpt>
      <trkpt lat="45.06635" lon="4.7849">
        <ele>202.2</ele>
        <time>2026-05-03T05:49:05Z</time>
      </trkpt>
      <trkpt lat="45.06636" lon="4.7848">
        <ele>201</ele>
        <time>2026-05-03T05:49:10Z</time>
      </trkpt>
      <trkpt lat="45.06635" lon="4.78471">
        <ele>200.9</ele>
        <time>2026-05-03T05:49:15Z</time>
      </trkpt>
      <trkpt lat="45.06634" lon="4.7846">
        <ele>200.8</ele>
        <time>2026-05-03T05:49:20Z</time>
      </trkpt>
      <trkpt lat="45.06636" lon="4.7845">
        <ele>199</ele>
        <time>2026-05-03T05:49:25Z</time>
      </trkpt>
      <trkpt lat="45.06635" lon="4.7844">
        <ele>198.9</ele>
        <time>2026-05-03T05:49:30Z</time>
      </trkpt>
      <trkpt lat="45.06632" lon="4.7843">
        <ele>199.8</ele>
        <time>2026-05-03T05:49:35Z</time>
      </trkpt>
      <trkpt lat="45.0663" lon="4.7842">
        <ele>200.2</ele>
        <time>2026-05-03T05:49:40Z</time>
      </trkpt>
      <trkpt lat="45.06628" lon="4.78409">
        <ele>200.2</ele>
        <time>2026-05-03T05:49:45Z</time>
      </trkpt>
      <trkpt lat="45.06628" lon="4.78398">
        <ele>199.2</ele>
        <time>2026-05-03T05:49:50Z</time>
      </trkpt>
      <trkpt lat="45.06628" lon="4.78388">
        <ele>198.2</ele>
        <time>2026-05-03T05:49:55Z</time>
      </trkpt>
      <trkpt lat="45.06629" lon="4.78378">
        <ele>196.8</ele>
        <time>2026-05-03T05:50:00Z</time>
      </trkpt>
      <trkpt lat="45.06629" lon="4.78368">
        <ele>195.8</ele>
        <time>2026-05-03T05:50:05Z</time>
      </trkpt>
      <trkpt lat="45.0663" lon="4.78357">
        <ele>194.4</ele>
        <time>2026-05-03T05:50:10Z</time>
      </trkpt>
      <trkpt lat="45.0663" lon="4.78346">
        <ele>193.4</ele>
        <time>2026-05-03T05:50:15Z</time>
      </trkpt>
      <trkpt lat="45.0663" lon="4.78336">
        <ele>192.4</ele>
        <time>2026-05-03T05:50:20Z</time>
      </trkpt>
      <trkpt lat="45.06629" lon="4.78326">
        <ele>191.5</ele>
        <time>2026-05-03T05:50:25Z</time>
      </trkpt>
      <trkpt lat="45.06629" lon="4.78316">
        <ele>190</ele>
        <time>2026-05-03T05:50:30Z</time>
      </trkpt>
      <trkpt lat="45.0663" lon="4.78306">
        <ele>188.3</ele>
        <time>2026-05-03T05:50:35Z</time>
      </trkpt>
      <trkpt lat="45.06631" lon="4.78296">
        <ele>186.6</ele>
        <time>2026-05-03T05:50:40Z</time>
      </trkpt>
      <trkpt lat="45.06633" lon="4.78286">
        <ele>184.7</ele>
        <time>2026-05-03T05:50:45Z</time>
      </trkpt>
      <trkpt lat="45.06632" lon="4.78278">
        <ele>183.9</ele>
        <time>2026-05-03T05:50:50Z</time>
      </trkpt>
      <trkpt lat="45.06631" lon="4.78268">
        <ele>182.7</ele>
        <time>2026-05-03T05:50:55Z</time>
      </trkpt>
      <trkpt lat="45.06632" lon="4.78257">
        <ele>181</ele>
        <time>2026-05-03T05:51:00Z</time>
      </trkpt>
      <trkpt lat="45.06632" lon="4.78248">
        <ele>179.5</ele>
        <time>2026-05-03T05:51:05Z</time>
      </trkpt>
      <trkpt lat="45.06632" lon="4.78238">
        <ele>176.9</ele>
        <time>2026-05-03T05:51:10Z</time>
      </trkpt>
      <trkpt lat="45.06628" lon="4.78226">
        <ele>174.3</ele>
        <time>2026-05-03T05:51:15Z</time>
      </trkpt>
      <trkpt lat="45.06628" lon="4.78216">
        <ele>171.7</ele>
        <time>2026-05-03T05:51:20Z</time>
      </trkpt>
      <trkpt lat="45.06629" lon="4.78208">
        <ele>169.5</ele>
        <time>2026-05-03T05:51:25Z</time>
      </trkpt>
      <trkpt lat="45.06627" lon="4.78199">
        <ele>167.4</ele>
        <time>2026-05-03T05:51:30Z</time>
      </trkpt>
      <trkpt lat="45.06622" lon="4.78188">
        <ele>164.8</ele>
        <time>2026-05-03T05:51:35Z</time>
      </trkpt>
      <trkpt lat="45.06617" lon="4.78179">
        <ele>162.8</ele>
        <time>2026-05-03T05:51:40Z</time>
      </trkpt>
      <trkpt lat="45.06612" lon="4.78173">
        <ele>161.4</ele>
        <time>2026-05-03T05:51:45Z</time>
      </trkpt>
      <trkpt lat="45.06609" lon="4.78167">
        <ele>159.9</ele>
        <time>2026-05-03T05:51:50Z</time>
      </trkpt>
      <trkpt lat="45.06605" lon="4.78161">
        <ele>158.5</ele>
        <time>2026-05-03T05:51:55Z</time>
      </trkpt>
      <trkpt lat="45.06597" lon="4.78159">
        <ele>158.3</ele>
        <time>2026-05-03T05:52:00Z</time>
      </trkpt>
      <trkpt lat="45.0659" lon="4.78156">
        <ele>157.8</ele>
        <time>2026-05-03T05:52:05Z</time>
      </trkpt>
      <trkpt lat="45.0659" lon="4.78152">
        <ele>156.7</ele>
        <time>2026-05-03T05:52:10Z</time>
      </trkpt>
      <trkpt lat="45.06586" lon="4.78151">
        <ele>156.6</ele>
        <time>2026-05-03T05:52:15Z</time>
      </trkpt>
      <trkpt lat="45.06579" lon="4.78147">
        <ele>155</ele>
        <time>2026-05-03T05:52:20Z</time>
      </trkpt>
      <trkpt lat="45.06573" lon="4.78144">
        <ele>153.4</ele>
        <time>2026-05-03T05:52:25Z</time>
      </trkpt>
      <trkpt lat="45.06567" lon="4.78145">
        <ele>152.9</ele>
        <time>2026-05-03T05:52:30Z</time>
      </trkpt>
      <trkpt lat="45.0656" lon="4.78146">
        <ele>152.3</ele>
        <time>2026-05-03T05:52:35Z</time>
      </trkpt>
      <trkpt lat="45.06554" lon="4.78144">
        <ele>151.1</ele>
        <time>2026-05-03T05:52:40Z</time>
      </trkpt>
      <trkpt lat="45.06548" lon="4.78143">
        <ele>150.1</ele>
        <time>2026-05-03T05:52:45Z</time>
      </trkpt>
      <trkpt lat="45.0654" lon="4.78144">
        <ele>149.3</ele>
        <time>2026-05-03T05:52:50Z</time>
      </trkpt>
      <trkpt lat="45.06534" lon="4.78147">
        <ele>149.1</ele>
        <time>2026-05-03T05:52:55Z</time>
      </trkpt>
      <trkpt lat="45.06529" lon="4.78149">
        <ele>148.8</ele>
        <time>2026-05-03T05:53:00Z</time>
      </trkpt>
      <trkpt lat="45.06524" lon="4.78149">
        <ele>148.1</ele>
        <time>2026-05-03T05:53:05Z</time>
      </trkpt>
      <trkpt lat="45.0652" lon="4.78149">
        <ele>147.6</ele>
        <time>2026-05-03T05:53:10Z</time>
      </trkpt>
      <trkpt lat="45.06515" lon="4.78151">
        <ele>147.2</ele>
        <time>2026-05-03T05:53:15Z</time>
      </trkpt>
      <trkpt lat="45.0651" lon="4.78153">
        <ele>146.8</ele>
        <time>2026-05-03T05:53:20Z</time>
      </trkpt>
      <trkpt lat="45.06504" lon="4.78154">
        <ele>146.1</ele>
        <time>2026-05-03T05:53:25Z</time>
      </trkpt>
      <trkpt lat="45.065" lon="4.78152">
        <ele>145.2</ele>
        <time>2026-05-03T05:53:30Z</time>
      </trkpt>
      <trkpt lat="45.06498" lon="4.78152">
        <ele>145.4</ele>
        <time>2026-05-03T05:53:35Z</time>
      </trkpt>
      <trkpt lat="45.06495" lon="4.78151">
        <ele>145.4</ele>
        <time>2026-05-03T05:53:40Z</time>
      </trkpt>
      <trkpt lat="45.0649" lon="4.7815">
        <ele>145.7</ele>
        <time>2026-05-03T05:53:45Z</time>
      </trkpt>
      <trkpt lat="45.06487" lon="4.78153">
        <ele>146.1</ele>
        <time>2026-05-03T05:53:50Z</time>
      </trkpt>
      <trkpt lat="45.06484" lon="4.78153">
        <ele>146.3</ele>
        <time>2026-05-03T05:53:55Z</time>
      </trkpt>
      <trkpt lat="45.06481" lon="4.78155">
        <ele>146.6</ele>
        <time>2026-05-03T05:54:00Z</time>
      </trkpt>
      <trkpt lat="45.06479" lon="4.78158">
        <ele>146.9</ele>
        <time>2026-05-03T05:54:05Z</time>
      </trkpt>
      <trkpt lat="45.06476" lon="4.7816">
        <ele>147.2</ele>
        <time>2026-05-03T05:54:10Z</time>
      </trkpt>
      <trkpt lat="45.06472" lon="4.78164">
        <ele>147.5</ele>
        <time>2026-05-03T05:54:15Z</time>
      </trkpt>
      <trkpt lat="45.06469" lon="4.78165">
        <ele>147.7</ele>
        <time>2026-05-03T05:54:20Z</time>
      </trkpt>
      <trkpt lat="45.06466" lon="4.78166">
        <ele>147.8</ele>
        <time>2026-05-03T05:54:25Z</time>
      </trkpt>
      <trkpt lat="45.06463" lon="4.78168">
        <ele>148</ele>
        <time>2026-05-03T05:54:30Z</time>
      </trkpt>
      <trkpt lat="45.0646" lon="4.78171">
        <ele>148.2</ele>
        <time>2026-05-03T05:54:35Z</time>
      </trkpt>
      <trkpt lat="45.06456" lon="4.78176">
        <ele>148.5</ele>
        <time>2026-05-03T05:54:40Z</time>
      </trkpt>
      <trkpt lat="45.06456" lon="4.78176">
        <ele>148.5</ele>
        <time>2026-05-03T05:54:45Z</time>
      </trkpt>
      <trkpt lat="45.06456" lon="4.78176">
        <ele>148.5</ele>
        <time>2026-05-03T05:54:50Z</time>
      </trkpt>
      <trkpt lat="45.06455" lon="4.78176">
        <ele>148.5</ele>
        <time>2026-05-03T05:54:55Z</time>
      </trkpt>
      <trkpt lat="45.06454" lon="4.78175">
        <ele>148.4</ele>
        <time>2026-05-03T05:55:00Z</time>
      </trkpt>
      <trkpt lat="45.06454" lon="4.78175">
        <ele>148.4</ele>
        <time>2026-05-03T05:55:05Z</time>
      </trkpt>
      <trkpt lat="45.06454" lon="4.78175">
        <ele>148.4</ele>
        <time>2026-05-03T05:55:10Z</time>
      </trkpt>
      <trkpt lat="45.06454" lon="4.78175">
        <ele>148.4</ele>
        <time>2026-05-03T05:55:15Z</time>
      </trkpt>
      <trkpt lat="45.06454" lon="4.78175">
        <ele>148.4</ele>
        <time>2026-05-03T05:55:20Z</time>
      </trkpt>
      <trkpt lat="45.06454" lon="4.78175">
        <ele>148.4</ele>
        <time>2026-05-03T05:55:25Z</time>
      </trkpt>
      <trkpt lat="45.06454" lon="4.78175">
        <ele>148.4</ele>
        <time>2026-05-03T05:55:30Z</time>
      </trkpt>
      <trkpt lat="45.06454" lon="4.78175">
        <ele>148.4</ele>
        <time>2026-05-03T05:55:35Z</time>
      </trkpt>
      <trkpt lat="45.06454" lon="4.78175">
        <ele>148.4</ele>
        <time>2026-05-03T05:55:40Z</time>
      </trkpt>
      <trkpt lat="45.06454" lon="4.78175">
        <ele>148.4</ele>
        <time>2026-05-03T05:55:45Z</time>
      </trkpt>
      <trkpt lat="45.06454" lon="4.78175">
        <ele>148.4</ele>
        <time>2026-05-03T05:55:50Z</time>
      </trkpt>
      <trkpt lat="45.06454" lon="4.78175">
        <ele>148.4</ele>
        <time>2026-05-03T05:55:55Z</time>
      </trkpt>
      <trkpt lat="45.06454" lon="4.78175">
        <ele>148.4</ele>
        <time>2026-05-03T05:56:00Z</time>
      </trkpt>
      <trkpt lat="45.06454" lon="4.78175">
        <ele>148.4</ele>
        <time>2026-05-03T05:56:05Z</time>
      </trkpt>
      <trkpt lat="45.06454" lon="4.78175">
        <ele>148.4</ele>
        <time>2026-05-03T05:56:10Z</time>
      </trkpt>
      <trkpt lat="45.06454" lon="4.78175">
        <ele>148.4</ele>
        <time>2026-05-03T05:56:15Z</time>
      </trkpt>
      <trkpt lat="45.06454" lon="4.78175">
        <ele>148.4</ele>
        <time>2026-05-03T05:56:20Z</time>
      </trkpt>
      <trkpt lat="45.06454" lon="4.78175">
        <ele>148.4</ele>
        <time>2026-05-03T05:56:25Z</time>
      </trkpt>
      <trkpt lat="45.06454" lon="4.78175">
        <ele>148.4</ele>
        <time>2026-05-03T05:56:30Z</time>
      </trkpt>
      <trkpt lat="45.06454" lon="4.78175">
        <ele>148.4</ele>
        <time>2026-05-03T05:56:35Z</time>
      </trkpt>
      <trkpt lat="45.06454" lon="4.78175">
        <ele>148.4</ele>
        <time>2026-05-03T05:56:40Z</time>
      </trkpt>
      <trkpt lat="45.06454" lon="4.78175">
        <ele>148.4</ele>
        <time>2026-05-03T05:56:45Z</time>
      </trkpt>
      <trkpt lat="45.06454" lon="4.78175">
        <ele>148.4</ele>
        <time>2026-05-03T05:56:50Z</time>
      </trkpt>
      <trkpt lat="45.06454" lon="4.78175">
        <ele>148.4</ele>
        <time>2026-05-03T05:56:55Z</time>
      </trkpt>
      <trkpt lat="45.06454" lon="4.78175">
        <ele>148.4</ele>
        <time>2026-05-03T05:57:00Z</time>
      </trkpt>
      <trkpt lat="45.06454" lon="4.78175">
        <ele>148.4</ele>
        <time>2026-05-03T05:57:05Z</time>
      </trkpt>
      <trkpt lat="45.06454" lon="4.78175">
        <ele>148.4</ele>
        <time>2026-05-03T05:57:10Z</time>
      </trkpt>
      <trkpt lat="45.06454" lon="4.78175">
        <ele>148.4</ele>
        <time>2026-05-03T05:57:15Z</time>
      </trkpt>
      <trkpt lat="45.06454" lon="4.78175">
        <ele>148.4</ele>
        <time>2026-05-03T05:57:20Z</time>
      </trkpt>
      <trkpt lat="45.06454" lon="4.78175">
        <ele>148.4</ele>
        <time>2026-05-03T05:57:25Z</time>
      </trkpt>
      <trkpt lat="45.06454" lon="4.78175">
        <ele>148.4</ele>
        <time>2026-05-03T05:57:30Z</time>
      </trkpt>
      <trkpt lat="45.06454" lon="4.78175">
        <ele>148.4</ele>
        <time>2026-05-03T05:57:35Z</time>
      </trkpt>
      <trkpt lat="45.06454" lon="4.78175">
        <ele>148.4</ele>
        <time>2026-05-03T05:57:40Z</time>
      </trkpt>
      <trkpt lat="45.06454" lon="4.78175">
        <ele>148.4</ele>
        <time>2026-05-03T05:57:45Z</time>
      </trkpt>
      <trkpt lat="45.06454" lon="4.78175">
        <ele>148.4</ele>
        <time>2026-05-03T05:57:50Z</time>
      </trkpt>
      <trkpt lat="45.06454" lon="4.78175">
        <ele>148.4</ele>
        <time>2026-05-03T05:57:55Z</time>
      </trkpt>
      <trkpt lat="45.06454" lon="4.78175">
        <ele>148.4</ele>
        <time>2026-05-03T05:58:00Z</time>
      </trkpt>
      <trkpt lat="45.06454" lon="4.78175">
        <ele>148.4</ele>
        <time>2026-05-03T05:58:05Z</time>
      </trkpt>
      <trkpt lat="45.06454" lon="4.78175">
        <ele>148.4</ele>
        <time>2026-05-03T05:58:10Z</time>
      </trkpt>
      <trkpt lat="45.06454" lon="4.78175">
        <ele>148.4</ele>
        <time>2026-05-03T05:58:15Z</time>
      </trkpt>
      <trkpt lat="45.06454" lon="4.78175">
        <ele>148.4</ele>
        <time>2026-05-03T05:58:20Z</time>
      </trkpt>
      <trkpt lat="45.06454" lon="4.78175">
        <ele>148.4</ele>
        <time>2026-05-03T05:58:25Z</time>
      </trkpt>
      <trkpt lat="45.06454" lon="4.78175">
        <ele>148.4</ele>
        <time>2026-05-03T05:58:30Z</time>
      </trkpt>
      <trkpt lat="45.06454" lon="4.78175">
        <ele>148.4</ele>
        <time>2026-05-03T05:58:35Z</time>
      </trkpt>
      <trkpt lat="45.06454" lon="4.78175">
        <ele>148.4</ele>
        <time>2026-05-03T05:58:40Z</time>
      </trkpt>
      <trkpt lat="45.06454" lon="4.78175">
        <ele>148.4</ele>
        <time>2026-05-03T05:58:45Z</time>
      </trkpt>
      <trkpt lat="45.06454" lon="4.78175">
        <ele>148.4</ele>
        <time>2026-05-03T05:58:50Z</time>
      </trkpt>
      <trkpt lat="45.06454" lon="4.78175">
        <ele>148.4</ele>
        <time>2026-05-03T05:58:55Z</time>
      </trkpt>
      <trkpt lat="45.06454" lon="4.78175">
        <ele>148.4</ele>
        <time>2026-05-03T05:59:00Z</time>
      </trkpt>
      <trkpt lat="45.06454" lon="4.78175">
        <ele>148.4</ele>
        <time>2026-05-03T05:59:05Z</time>
      </trkpt>
      <trkpt lat="45.06454" lon="4.78175">
        <ele>148.4</ele>
        <time>2026-05-03T05:59:10Z</time>
      </trkpt>
      <trkpt lat="45.06454" lon="4.78175">
        <ele>148.4</ele>
        <time>2026-05-03T05:59:15Z</time>
      </trkpt>
      <trkpt lat="45.06454" lon="4.78175">
        <ele>148.4</ele>
        <time>2026-05-03T05:59:20Z</time>
      </trkpt>
      <trkpt lat="45.06454" lon="4.78175">
        <ele>148.4</ele>
        <time>2026-05-03T05:59:25Z</time>
      </trkpt>
      <trkpt lat="45.06454" lon="4.78175">
        <ele>148.4</ele>
        <time>2026-05-03T05:59:30Z</time>
      </trkpt>
      <trkpt lat="45.06454" lon="4.78175">
        <ele>148.4</ele>
        <time>2026-05-03T05:59:35Z</time>
      </trkpt>
      <trkpt lat="45.06454" lon="4.78175">
        <ele>148.4</ele>
        <time>2026-05-03T05:59:40Z</time>
      </trkpt>
      <trkpt lat="45.06454" lon="4.78175">
        <ele>148.4</ele>
        <time>2026-05-03T05:59:45Z</time>
      </trkpt>
      <trkpt lat="45.06454" lon="4.78175">
        <ele>148.4</ele>
        <time>2026-05-03T05:59:50Z</time>
      </trkpt>
      <trkpt lat="45.06454" lon="4.78175">
        <ele>148.4</ele>
        <time>2026-05-03T05:59:55Z</time>
      </trkpt>
      <trkpt lat="45.06454" lon="4.78175">
        <ele>148.4</ele>
        <time>2026-05-03T06:00:00Z</time>
      </trkpt>
      <trkpt lat="45.06454" lon="4.78175">
        <ele>148.4</ele>
        <time>2026-05-03T06:00:05Z</time>
      </trkpt>
      <trkpt lat="45.06454" lon="4.78175">
        <ele>148.4</ele>
        <time>2026-05-03T06:00:10Z</time>
      </trkpt>
      <trkpt lat="45.06454" lon="4.78175">
        <ele>148.4</ele>
        <time>2026-05-03T06:00:15Z</time>
      </trkpt>
      <trkpt lat="45.06454" lon="4.78175">
        <ele>148.4</ele>
        <time>2026-05-03T06:00:20Z</time>
      </trkpt>
      <trkpt lat="45.06454" lon="4.78175">
        <ele>148.4</ele>
        <time>2026-05-03T06:00:25Z</time>
      </trkpt>
      <trkpt lat="45.06454" lon="4.78175">
        <ele>148.4</ele>
        <time>2026-05-03T06:00:25Z</time>
      </trkpt>
      <trkpt lat="45.06473" lon="4.78221">
        <ele>153.5</ele>
        <time>2026-05-03T06:00:28Z</time>
      </trkpt>
      <trkpt lat="45.06457" lon="4.78189">
        <ele>149.1</ele>
        <time>2026-05-03T06:00:34Z</time>
      </trkpt>
      <trkpt lat="45.06457" lon="4.78181">
        <ele>148.7</ele>
        <time>2026-05-03T06:00:39Z</time>
      </trkpt>
      <trkpt lat="45.06457" lon="4.78182">
        <ele>148.8</ele>
        <time>2026-05-03T06:00:44Z</time>
      </trkpt>
      <trkpt lat="45.06457" lon="4.78185">
        <ele>148.9</ele>
        <time>2026-05-03T06:00:49Z</time>
      </trkpt>
      <trkpt lat="45.06458" lon="4.78189">
        <ele>149.2</ele>
        <time>2026-05-03T06:00:54Z</time>
      </trkpt>
      <trkpt lat="45.06459" lon="4.78195">
        <ele>149.6</ele>
        <time>2026-05-03T06:00:59Z</time>
      </trkpt>
      <trkpt lat="45.06459" lon="4.782">
        <ele>149.9</ele>
        <time>2026-05-03T06:01:04Z</time>
      </trkpt>
      <trkpt lat="45.06456" lon="4.78204">
        <ele>149.8</ele>
        <time>2026-05-03T06:01:09Z</time>
      </trkpt>
      <trkpt lat="45.06454" lon="4.7821">
        <ele>149.8</ele>
        <time>2026-05-03T06:01:14Z</time>
      </trkpt>
      <trkpt lat="45.06453" lon="4.78216">
        <ele>149.8</ele>
        <time>2026-05-03T06:01:19Z</time>
      </trkpt>
      <trkpt lat="45.06451" lon="4.78222">
        <ele>149.7</ele>
        <time>2026-05-03T06:01:24Z</time>
      </trkpt>
      <trkpt lat="45.06451" lon="4.78226">
        <ele>149.8</ele>
        <time>2026-05-03T06:01:29Z</time>
      </trkpt>
      <trkpt lat="45.06451" lon="4.78232">
        <ele>150</ele>
        <time>2026-05-03T06:01:34Z</time>
      </trkpt>
      <trkpt lat="45.06449" lon="4.78235">
        <ele>149.6</ele>
        <time>2026-05-03T06:01:39Z</time>
      </trkpt>
      <trkpt lat="45.06446" lon="4.78238">
        <ele>149</ele>
        <time>2026-05-03T06:01:44Z</time>
      </trkpt>
      <trkpt lat="45.06442" lon="4.7824">
        <ele>148</ele>
        <time>2026-05-03T06:01:49Z</time>
      </trkpt>
      <trkpt lat="45.0644" lon="4.78245">
        <ele>147.5</ele>
        <time>2026-05-03T06:01:54Z</time>
      </trkpt>
      <trkpt lat="45.0644" lon="4.78248">
        <ele>147.5</ele>
        <time>2026-05-03T06:01:59Z</time>
      </trkpt>
      <trkpt lat="45.06446" lon="4.78246">
        <ele>149.1</ele>
        <time>2026-05-03T06:02:04Z</time>
      </trkpt>
      <trkpt lat="45.06451" lon="4.78244">
        <ele>150.3</ele>
        <time>2026-05-03T06:02:09Z</time>
      </trkpt>
      <trkpt lat="45.06456" lon="4.78244">
        <ele>151.6</ele>
        <time>2026-05-03T06:02:14Z</time>
      </trkpt>
      <trkpt lat="45.06461" lon="4.78243">
        <ele>152.8</ele>
        <time>2026-05-03T06:02:19Z</time>
      </trkpt>
      <trkpt lat="45.06464" lon="4.78242">
        <ele>153.5</ele>
        <time>2026-05-03T06:02:24Z</time>
      </trkpt>
      <trkpt lat="45.06469" lon="4.78242">
        <ele>154.7</ele>
        <time>2026-05-03T06:02:29Z</time>
      </trkpt>
      <trkpt lat="45.06471" lon="4.7824">
        <ele>155</ele>
        <time>2026-05-03T06:02:34Z</time>
      </trkpt>
      <trkpt lat="45.06473" lon="4.7824">
        <ele>155.5</ele>
        <time>2026-05-03T06:02:39Z</time>
      </trkpt>
      <trkpt lat="45.06479" lon="4.78242">
        <ele>157.2</ele>
        <time>2026-05-03T06:02:44Z</time>
      </trkpt>
      <trkpt lat="45.06483" lon="4.78245">
        <ele>158.6</ele>
        <time>2026-05-03T06:02:49Z</time>
      </trkpt>
      <trkpt lat="45.06487" lon="4.78245">
        <ele>159.6</ele>
        <time>2026-05-03T06:02:54Z</time>
      </trkpt>
      <trkpt lat="45.06492" lon="4.78246">
        <ele>161.1</ele>
        <time>2026-05-03T06:02:59Z</time>
      </trkpt>
      <trkpt lat="45.06497" lon="4.78247">
        <ele>162.6</ele>
        <time>2026-05-03T06:03:04Z</time>
      </trkpt>
      <trkpt lat="45.06501" lon="4.78249">
        <ele>164.1</ele>
        <time>2026-05-03T06:03:09Z</time>
      </trkpt>
      <trkpt lat="45.06505" lon="4.7825">
        <ele>165.4</ele>
        <time>2026-05-03T06:03:14Z</time>
      </trkpt>
      <trkpt lat="45.0651" lon="4.7825">
        <ele>166.8</ele>
        <time>2026-05-03T06:03:19Z</time>
      </trkpt>
      <trkpt lat="45.06514" lon="4.78252">
        <ele>168.5</ele>
        <time>2026-05-03T06:03:24Z</time>
      </trkpt>
      <trkpt lat="45.06516" lon="4.78253">
        <ele>169.3</ele>
        <time>2026-05-03T06:03:29Z</time>
      </trkpt>
      <trkpt lat="45.06519" lon="4.78255">
        <ele>170.7</ele>
        <time>2026-05-03T06:03:34Z</time>
      </trkpt>
      <trkpt lat="45.06522" lon="4.78258">
        <ele>172.4</ele>
        <time>2026-05-03T06:03:39Z</time>
      </trkpt>
      <trkpt lat="45.06524" lon="4.78262">
        <ele>174.1</ele>
        <time>2026-05-03T06:03:44Z</time>
      </trkpt>
      <trkpt lat="45.06527" lon="4.78265">
        <ele>175.8</ele>
        <time>2026-05-03T06:03:49Z</time>
      </trkpt>
      <trkpt lat="45.0653" lon="4.78266">
        <ele>176.9</ele>
        <time>2026-05-03T06:03:54Z</time>
      </trkpt>
      <trkpt lat="45.06534" lon="4.78269">
        <ele>178.8</ele>
        <time>2026-05-03T06:03:59Z</time>
      </trkpt>
      <trkpt lat="45.06537" lon="4.78274">
        <ele>181</ele>
        <time>2026-05-03T06:04:04Z</time>
      </trkpt>
      <trkpt lat="45.0654" lon="4.78278">
        <ele>183</ele>
        <time>2026-05-03T06:04:09Z</time>
      </trkpt>
      <trkpt lat="45.06543" lon="4.78281">
        <ele>184.6</ele>
        <time>2026-05-03T06:04:14Z</time>
      </trkpt>
      <trkpt lat="45.06545" lon="4.78285">
        <ele>186.2</ele>
        <time>2026-05-03T06:04:19Z</time>
      </trkpt>
      <trkpt lat="45.06547" lon="4.78291">
        <ele>188.4</ele>
        <time>2026-05-03T06:04:24Z</time>
      </trkpt>
      <trkpt lat="45.06549" lon="4.78295">
        <ele>190.1</ele>
        <time>2026-05-03T06:04:29Z</time>
      </trkpt>
      <trkpt lat="45.06549" lon="4.78302">
        <ele>192</ele>
        <time>2026-05-03T06:04:34Z</time>
      </trkpt>
      <trkpt lat="45.0655" lon="4.78307">
        <ele>193.7</ele>
        <time>2026-05-03T06:04:39Z</time>
      </trkpt>
      <trkpt lat="45.06549" lon="4.78313">
        <ele>195.1</ele>
        <time>2026-05-03T06:04:44Z</time>
      </trkpt>
      <trkpt lat="45.06547" lon="4.78317">
        <ele>195.7</ele>
        <time>2026-05-03T06:04:49Z</time>
      </trkpt>
      <trkpt lat="45.06545" lon="4.78321">
        <ele>196.3</ele>
        <time>2026-05-03T06:04:54Z</time>
      </trkpt>
      <trkpt lat="45.06542" lon="4.78325">
        <ele>196.7</ele>
        <time>2026-05-03T06:04:59Z</time>
      </trkpt>
      <trkpt lat="45.0654" lon="4.78329">
        <ele>197.4</ele>
        <time>2026-05-03T06:05:04Z</time>
      </trkpt>
      <trkpt lat="45.0654" lon="4.78331">
        <ele>197.9</ele>
        <time>2026-05-03T06:05:09Z</time>
      </trkpt>
      <trkpt lat="45.0654" lon="4.78331">
        <ele>197.9</ele>
        <time>2026-05-03T06:05:14Z</time>
      </trkpt>
      <trkpt lat="45.0654" lon="4.78331">
        <ele>197.9</ele>
        <time>2026-05-03T06:05:19Z</time>
      </trkpt>
      <trkpt lat="45.0654" lon="4.78331">
        <ele>197.9</ele>
        <time>2026-05-03T06:05:24Z</time>
      </trkpt>
      <trkpt lat="45.0654" lon="4.78331">
        <ele>197.9</ele>
        <time>2026-05-03T06:05:29Z</time>
      </trkpt>
      <trkpt lat="45.0654" lon="4.78331">
        <ele>197.9</ele>
        <time>2026-05-03T06:05:34Z</time>
      </trkpt>
      <trkpt lat="45.0654" lon="4.78331">
        <ele>197.9</ele>
        <time>2026-05-03T06:05:39Z</time>
      </trkpt>
      <trkpt lat="45.0654" lon="4.78331">
        <ele>197.9</ele>
        <time>2026-05-03T06:05:44Z</time>
      </trkpt>
      <trkpt lat="45.0654" lon="4.78331">
        <ele>197.9</ele>
        <time>2026-05-03T06:05:49Z</time>
      </trkpt>
      <trkpt lat="45.0654" lon="4.78331">
        <ele>197.9</ele>
        <time>2026-05-03T06:05:54Z</time>
      </trkpt>
      <trkpt lat="45.0654" lon="4.78331">
        <ele>197.9</ele>
        <time>2026-05-03T06:05:59Z</time>
      </trkpt>
      <trkpt lat="45.0654" lon="4.78331">
        <ele>197.9</ele>
        <time>2026-05-03T06:06:04Z</time>
      </trkpt>
      <trkpt lat="45.0654" lon="4.78331">
        <ele>197.9</ele>
        <time>2026-05-03T06:06:09Z</time>
      </trkpt>
      <trkpt lat="45.0654" lon="4.78331">
        <ele>197.9</ele>
        <time>2026-05-03T06:06:14Z</time>
      </trkpt>
      <trkpt lat="45.0654" lon="4.78331">
        <ele>197.9</ele>
        <time>2026-05-03T06:06:19Z</time>
      </trkpt>
      <trkpt lat="45.0654" lon="4.78331">
        <ele>197.9</ele>
        <time>2026-05-03T06:06:24Z</time>
      </trkpt>
      <trkpt lat="45.0654" lon="4.78331">
        <ele>197.9</ele>
        <time>2026-05-03T06:06:29Z</time>
      </trkpt>
      <trkpt lat="45.0654" lon="4.78331">
        <ele>197.9</ele>
        <time>2026-05-03T06:06:34Z</time>
      </trkpt>
      <trkpt lat="45.0654" lon="4.78331">
        <ele>197.9</ele>
        <time>2026-05-03T06:06:39Z</time>
      </trkpt>
      <trkpt lat="45.0654" lon="4.78331">
        <ele>197.9</ele>
        <time>2026-05-03T06:06:44Z</time>
      </trkpt>
      <trkpt lat="45.0654" lon="4.78331">
        <ele>197.9</ele>
        <time>2026-05-03T06:06:49Z</time>
      </trkpt>
      <trkpt lat="45.0654" lon="4.78331">
        <ele>197.9</ele>
        <time>2026-05-03T06:06:54Z</time>
      </trkpt>
      <trkpt lat="45.0654" lon="4.78331">
        <ele>197.9</ele>
        <time>2026-05-03T06:06:59Z</time>
      </trkpt>
      <trkpt lat="45.0654" lon="4.78331">
        <ele>197.9</ele>
        <time>2026-05-03T06:07:04Z</time>
      </trkpt>
      <trkpt lat="45.0654" lon="4.78331">
        <ele>197.9</ele>
        <time>2026-05-03T06:07:09Z</time>
      </trkpt>
      <trkpt lat="45.0654" lon="4.78331">
        <ele>197.9</ele>
        <time>2026-05-03T06:07:14Z</time>
      </trkpt>
      <trkpt lat="45.0654" lon="4.78331">
        <ele>197.9</ele>
        <time>2026-05-03T06:07:19Z</time>
      </trkpt>
      <trkpt lat="45.0654" lon="4.78331">
        <ele>197.9</ele>
        <time>2026-05-03T06:07:24Z</time>
      </trkpt>
      <trkpt lat="45.0654" lon="4.78331">
        <ele>197.9</ele>
        <time>2026-05-03T06:07:29Z</time>
      </trkpt>
      <trkpt lat="45.0654" lon="4.78331">
        <ele>197.9</ele>
        <time>2026-05-03T06:07:34Z</time>
      </trkpt>
      <trkpt lat="45.0654" lon="4.78331">
        <ele>197.9</ele>
        <time>2026-05-03T06:07:39Z</time>
      </trkpt>
      <trkpt lat="45.0654" lon="4.78331">
        <ele>197.9</ele>
        <time>2026-05-03T06:07:44Z</time>
      </trkpt>
      <trkpt lat="45.0654" lon="4.78331">
        <ele>197.9</ele>
        <time>2026-05-03T06:07:49Z</time>
      </trkpt>
      <trkpt lat="45.0654" lon="4.78331">
        <ele>197.9</ele>
        <time>2026-05-03T06:07:54Z</time>
      </trkpt>
      <trkpt lat="45.0654" lon="4.78331">
        <ele>197.9</ele>
        <time>2026-05-03T06:07:59Z</time>
      </trkpt>
      <trkpt lat="45.06533" lon="4.78341">
        <ele>198.6</ele>
        <time>2026-05-03T06:08:04Z</time>
      </trkpt>
      <trkpt lat="45.06531" lon="4.78346">
        <ele>199.3</ele>
        <time>2026-05-03T06:08:09Z</time>
      </trkpt>
      <trkpt lat="45.06528" lon="4.78351">
        <ele>199.7</ele>
        <time>2026-05-03T06:08:14Z</time>
      </trkpt>
      <trkpt lat="45.06526" lon="4.78356">
        <ele>200.4</ele>
        <time>2026-05-03T06:08:19Z</time>
      </trkpt>
      <trkpt lat="45.06524" lon="4.78359">
        <ele>200.7</ele>
        <time>2026-05-03T06:08:24Z</time>
      </trkpt>
      <trkpt lat="45.06522" lon="4.78359">
        <ele>200.3</ele>
        <time>2026-05-03T06:08:29Z</time>
      </trkpt>
      <trkpt lat="45.0652" lon="4.78354">
        <ele>198.7</ele>
        <time>2026-05-03T06:08:34Z</time>
      </trkpt>
      <trkpt lat="45.06521" lon="4.78349">
        <ele>197.7</ele>
        <time>2026-05-03T06:08:39Z</time>
      </trkpt>
      <trkpt lat="45.06519" lon="4.78344">
        <ele>196.1</ele>
        <time>2026-05-03T06:08:44Z</time>
      </trkpt>
      <trkpt lat="45.06516" lon="4.7834">
        <ele>194.4</ele>
        <time>2026-05-03T06:08:49Z</time>
      </trkpt>
      <trkpt lat="45.06513" lon="4.7834">
        <ele>193.7</ele>
        <time>2026-05-03T06:08:54Z</time>
      </trkpt>
      <trkpt lat="45.0651" lon="4.78342">
        <ele>193.5</ele>
        <time>2026-05-03T06:08:59Z</time>
      </trkpt>
      <trkpt lat="45.06506" lon="4.78344">
        <ele>193.1</ele>
        <time>2026-05-03T06:09:04Z</time>
      </trkpt>
      <trkpt lat="45.06502" lon="4.78345">
        <ele>192.4</ele>
        <time>2026-05-03T06:09:09Z</time>
      </trkpt>
      <trkpt lat="45.06499" lon="4.78349">
        <ele>192.4</ele>
        <time>2026-05-03T06:09:14Z</time>
      </trkpt>
      <trkpt lat="45.06497" lon="4.78352">
        <ele>192.1</ele>
        <time>2026-05-03T06:09:19Z</time>
      </trkpt>
      <trkpt lat="45.06494" lon="4.78354">
        <ele>190.9</ele>
        <time>2026-05-03T06:09:24Z</time>
      </trkpt>
      <trkpt lat="45.06491" lon="4.78358">
        <ele>190.2</ele>
        <time>2026-05-03T06:09:29Z</time>
      </trkpt>
      <trkpt lat="45.06489" lon="4.78361">
        <ele>189.8</ele>
        <time>2026-05-03T06:09:34Z</time>
      </trkpt>
      <trkpt lat="45.06485" lon="4.78364">
        <ele>188.3</ele>
        <time>2026-05-03T06:09:39Z</time>
      </trkpt>
      <trkpt lat="45.06483" lon="4.78369">
        <ele>188.3</ele>
        <time>2026-05-03T06:09:44Z</time>
      </trkpt>
      <trkpt lat="45.06483" lon="4.78373">
        <ele>189.2</ele>
        <time>2026-05-03T06:09:49Z</time>
      </trkpt>
      <trkpt lat="45.06485" lon="4.78377">
        <ele>191.2</ele>
        <time>2026-05-03T06:09:54Z</time>
      </trkpt>
      <trkpt lat="45.06484" lon="4.78381">
        <ele>191.5</ele>
        <time>2026-05-03T06:09:59Z</time>
      </trkpt>
      <trkpt lat="45.06484" lon="4.78382">
        <ele>191.8</ele>
        <time>2026-05-03T06:10:04Z</time>
      </trkpt>
      <trkpt lat="45.06483" lon="4.7839">
        <ele>193</ele>
        <time>2026-05-03T06:10:09Z</time>
      </trkpt>
      <trkpt lat="45.06483" lon="4.78395">
        <ele>194.1</ele>
        <time>2026-05-03T06:10:14Z</time>
      </trkpt>
      <trkpt lat="45.06486" lon="4.78399">
        <ele>196.9</ele>
        <time>2026-05-03T06:10:19Z</time>
      </trkpt>
      <trkpt lat="45.06487" lon="4.78405">
        <ele>198.9</ele>
        <time>2026-05-03T06:10:24Z</time>
      </trkpt>
      <trkpt lat="45.06488" lon="4.78411">
        <ele>200.9</ele>
        <time>2026-05-03T06:10:29Z</time>
      </trkpt>
      <trkpt lat="45.0649" lon="4.78419">
        <ele>203.9</ele>
        <time>2026-05-03T06:10:34Z</time>
      </trkpt>
      <trkpt lat="45.0649" lon="4.78427">
        <ele>205.2</ele>
        <time>2026-05-03T06:10:39Z</time>
      </trkpt>
      <trkpt lat="45.06492" lon="4.78434">
        <ele>207.7</ele>
        <time>2026-05-03T06:10:44Z</time>
      </trkpt>
      <trkpt lat="45.06493" lon="4.78438">
        <ele>209</ele>
        <time>2026-05-03T06:10:49Z</time>
      </trkpt>
      <trkpt lat="45.06494" lon="4.78443">
        <ele>210.5</ele>
        <time>2026-05-03T06:10:54Z</time>
      </trkpt>
      <trkpt lat="45.06496" lon="4.78449">
        <ele>212.8</ele>
        <time>2026-05-03T06:10:59Z</time>
      </trkpt>
      <trkpt lat="45.06497" lon="4.78455">
        <ele>214.5</ele>
        <time>2026-05-03T06:11:04Z</time>
      </trkpt>
      <trkpt lat="45.06497" lon="4.7846">
        <ele>215.3</ele>
        <time>2026-05-03T06:11:09Z</time>
      </trkpt>
      <trkpt lat="45.06494" lon="4.7846">
        <ele>213.4</ele>
        <time>2026-05-03T06:11:14Z</time>
      </trkpt>
      <trkpt lat="45.06492" lon="4.78455">
        <ele>211.2</ele>
        <time>2026-05-03T06:11:19Z</time>
      </trkpt>
      <trkpt lat="45.06489" lon="4.7845">
        <ele>208.4</ele>
        <time>2026-05-03T06:11:24Z</time>
      </trkpt>
      <trkpt lat="45.06485" lon="4.78448">
        <ele>205.5</ele>
        <time>2026-05-03T06:11:29Z</time>
      </trkpt>
      <trkpt lat="45.06483" lon="4.78444">
        <ele>203.5</ele>
        <time>2026-05-03T06:11:34Z</time>
      </trkpt>
      <trkpt lat="45.06479" lon="4.78441">
        <ele>200.4</ele>
        <time>2026-05-03T06:11:39Z</time>
      </trkpt>
      <trkpt lat="45.06474" lon="4.78439">
        <ele>196.8</ele>
        <time>2026-05-03T06:11:44Z</time>
      </trkpt>
      <trkpt lat="45.0647" lon="4.78439">
        <ele>194.2</ele>
        <time>2026-05-03T06:11:49Z</time>
      </trkpt>
      <trkpt lat="45.06466" lon="4.78439">
        <ele>191.6</ele>
        <time>2026-05-03T06:11:54Z</time>
      </trkpt>
      <trkpt lat="45.06461" lon="4.7844">
        <ele>188.5</ele>
        <time>2026-05-03T06:11:59Z</time>
      </trkpt>
      <trkpt lat="45.06457" lon="4.78442">
        <ele>186.2</ele>
        <time>2026-05-03T06:12:04Z</time>
      </trkpt>
      <trkpt lat="45.06454" lon="4.78445">
        <ele>184.8</ele>
        <time>2026-05-03T06:12:09Z</time>
      </trkpt>
      <trkpt lat="45.0645" lon="4.78449">
        <ele>182.8</ele>
        <time>2026-05-03T06:12:14Z</time>
      </trkpt>
      <trkpt lat="45.06448" lon="4.78454">
        <ele>182.3</ele>
        <time>2026-05-03T06:12:19Z</time>
      </trkpt>
      <trkpt lat="45.06447" lon="4.7846">
        <ele>182.6</ele>
        <time>2026-05-03T06:12:24Z</time>
      </trkpt>
      <trkpt lat="45.06447" lon="4.78468">
        <ele>183.9</ele>
        <time>2026-05-03T06:12:29Z</time>
      </trkpt>
      <trkpt lat="45.06446" lon="4.78471">
        <ele>183.7</ele>
        <time>2026-05-03T06:12:34Z</time>
      </trkpt>
      <trkpt lat="45.06446" lon="4.78471">
        <ele>183.7</ele>
        <time>2026-05-03T06:12:39Z</time>
      </trkpt>
      <trkpt lat="45.06446" lon="4.78471">
        <ele>183.7</ele>
        <time>2026-05-03T06:12:44Z</time>
      </trkpt>
      <trkpt lat="45.06446" lon="4.78471">
        <ele>183.7</ele>
        <time>2026-05-03T06:12:49Z</time>
      </trkpt>
      <trkpt lat="45.06449" lon="4.78473">
        <ele>186</ele>
        <time>2026-05-03T06:12:54Z</time>
      </trkpt>
      <trkpt lat="45.06449" lon="4.78478">
        <ele>186.8</ele>
        <time>2026-05-03T06:12:59Z</time>
      </trkpt>
      <trkpt lat="45.06449" lon="4.78484">
        <ele>187.8</ele>
        <time>2026-05-03T06:13:04Z</time>
      </trkpt>
      <trkpt lat="45.06449" lon="4.7849">
        <ele>188.7</ele>
        <time>2026-05-03T06:13:09Z</time>
      </trkpt>
      <trkpt lat="45.06449" lon="4.78494">
        <ele>189.4</ele>
        <time>2026-05-03T06:13:14Z</time>
      </trkpt>
      <trkpt lat="45.0645" lon="4.785">
        <ele>191</ele>
        <time>2026-05-03T06:13:19Z</time>
      </trkpt>
      <trkpt lat="45.0645" lon="4.78505">
        <ele>192.2</ele>
        <time>2026-05-03T06:13:24Z</time>
      </trkpt>
      <trkpt lat="45.06452" lon="4.78511">
        <ele>195</ele>
        <time>2026-05-03T06:13:29Z</time>
      </trkpt>
      <trkpt lat="45.06451" lon="4.78517">
        <ele>195.8</ele>
        <time>2026-05-03T06:13:34Z</time>
      </trkpt>
      <trkpt lat="45.06451" lon="4.78521">
        <ele>196.8</ele>
        <time>2026-05-03T06:13:39Z</time>
      </trkpt>
      <trkpt lat="45.0645" lon="4.78526">
        <ele>197.4</ele>
        <time>2026-05-03T06:13:44Z</time>
      </trkpt>
      <trkpt lat="45.06448" lon="4.78534">
        <ele>198.2</ele>
        <time>2026-05-03T06:13:49Z</time>
      </trkpt>
      <trkpt lat="45.06445" lon="4.78543">
        <ele>198.8</ele>
        <time>2026-05-03T06:13:54Z</time>
      </trkpt>
      <trkpt lat="45.06443" lon="4.78548">
        <ele>199</ele>
        <time>2026-05-03T06:13:59Z</time>
      </trkpt>
      <trkpt lat="45.06438" lon="4.78557">
        <ele>198.7</ele>
        <time>2026-05-03T06:14:04Z</time>
      </trkpt>
      <trkpt lat="45.06434" lon="4.78565">
        <ele>198.9</ele>
        <time>2026-05-03T06:14:09Z</time>
      </trkpt>
      <trkpt lat="45.0643" lon="4.78571">
        <ele>198.6</ele>
        <time>2026-05-03T06:14:14Z</time>
      </trkpt>
      <trkpt lat="45.06427" lon="4.78578">
        <ele>199.2</ele>
        <time>2026-05-03T06:14:19Z</time>
      </trkpt>
      <trkpt lat="45.06424" lon="4.78586">
        <ele>200.4</ele>
        <time>2026-05-03T06:14:24Z</time>
      </trkpt>
      <trkpt lat="45.06421" lon="4.78594">
        <ele>202</ele>
        <time>2026-05-03T06:14:29Z</time>
      </trkpt>
      <trkpt lat="45.06419" lon="4.78602">
        <ele>204.3</ele>
        <time>2026-05-03T06:14:34Z</time>
      </trkpt>
      <trkpt lat="45.06415" lon="4.78611">
        <ele>206.2</ele>
        <time>2026-05-03T06:14:39Z</time>
      </trkpt>
      <trkpt lat="45.06412" lon="4.78619">
        <ele>207.9</ele>
        <time>2026-05-03T06:14:44Z</time>
      </trkpt>
      <trkpt lat="45.06408" lon="4.78623">
        <ele>207.6</ele>
        <time>2026-05-03T06:14:49Z</time>
      </trkpt>
      <trkpt lat="45.06404" lon="4.78628">
        <ele>207.7</ele>
        <time>2026-05-03T06:14:54Z</time>
      </trkpt>
      <trkpt lat="45.06399" lon="4.78637">
        <ele>208.8</ele>
        <time>2026-05-03T06:14:59Z</time>
      </trkpt>
      <trkpt lat="45.06394" lon="4.78643">
        <ele>208.8</ele>
        <time>2026-05-03T06:15:04Z</time>
      </trkpt>
      <trkpt lat="45.06391" lon="4.78648">
        <ele>209.4</ele>
        <time>2026-05-03T06:15:09Z</time>
      </trkpt>
      <trkpt lat="45.06387" lon="4.78654">
        <ele>209.8</ele>
        <time>2026-05-03T06:15:14Z</time>
      </trkpt>
      <trkpt lat="45.06385" lon="4.7866">
        <ele>211.2</ele>
        <time>2026-05-03T06:15:19Z</time>
      </trkpt>
      <trkpt lat="45.06382" lon="4.78667">
        <ele>212.5</ele>
        <time>2026-05-03T06:15:24Z</time>
      </trkpt>
      <trkpt lat="45.06379" lon="4.78672">
        <ele>213.1</ele>
        <time>2026-05-03T06:15:29Z</time>
      </trkpt>
      <trkpt lat="45.06376" lon="4.78677">
        <ele>213.7</ele>
        <time>2026-05-03T06:15:34Z</time>
      </trkpt>
      <trkpt lat="45.06374" lon="4.78683">
        <ele>215.3</ele>
        <time>2026-05-03T06:15:39Z</time>
      </trkpt>
      <trkpt lat="45.06371" lon="4.78688">
        <ele>216.2</ele>
        <time>2026-05-03T06:15:44Z</time>
      </trkpt>
      <trkpt lat="45.06367" lon="4.78695">
        <ele>217.7</ele>
        <time>2026-05-03T06:15:49Z</time>
      </trkpt>
      <trkpt lat="45.06365" lon="4.78703">
        <ele>220.6</ele>
        <time>2026-05-03T06:15:54Z</time>
      </trkpt>
      <trkpt lat="45.06362" lon="4.78712">
        <ele>223.6</ele>
        <time>2026-05-03T06:15:59Z</time>
      </trkpt>
      <trkpt lat="45.06359" lon="4.78718">
        <ele>225.5</ele>
        <time>2026-05-03T06:16:04Z</time>
      </trkpt>
      <trkpt lat="45.06356" lon="4.78726">
        <ele>228.5</ele>
        <time>2026-05-03T06:16:09Z</time>
      </trkpt>
      <trkpt lat="45.06352" lon="4.78734">
        <ele>231.4</ele>
        <time>2026-05-03T06:16:14Z</time>
      </trkpt>
      <trkpt lat="45.0635" lon="4.78739">
        <ele>233.5</ele>
        <time>2026-05-03T06:16:19Z</time>
      </trkpt>
      <trkpt lat="45.06348" lon="4.78745">
        <ele>236.1</ele>
        <time>2026-05-03T06:16:24Z</time>
      </trkpt>
      <trkpt lat="45.06345" lon="4.78747">
        <ele>236.5</ele>
        <time>2026-05-03T06:16:29Z</time>
      </trkpt>
      <trkpt lat="45.06343" lon="4.78749">
        <ele>237.2</ele>
        <time>2026-05-03T06:16:34Z</time>
      </trkpt>
      <trkpt lat="45.06341" lon="4.78753">
        <ele>238.3</ele>
        <time>2026-05-03T06:16:39Z</time>
      </trkpt>
      <trkpt lat="45.06339" lon="4.78757">
        <ele>239.3</ele>
        <time>2026-05-03T06:16:44Z</time>
      </trkpt>
      <trkpt lat="45.06336" lon="4.7876">
        <ele>239.8</ele>
        <time>2026-05-03T06:16:49Z</time>
      </trkpt>
      <trkpt lat="45.06334" lon="4.78762">
        <ele>240.3</ele>
        <time>2026-05-03T06:16:54Z</time>
      </trkpt>
      <trkpt lat="45.06331" lon="4.78762">
        <ele>239.6</ele>
        <time>2026-05-03T06:16:59Z</time>
      </trkpt>
      <trkpt lat="45.06328" lon="4.78763">
        <ele>239.3</ele>
        <time>2026-05-03T06:17:04Z</time>
      </trkpt>
      <trkpt lat="45.06325" lon="4.78766">
        <ele>239.6</ele>
        <time>2026-05-03T06:17:09Z</time>
      </trkpt>
      <trkpt lat="45.06322" lon="4.7877">
        <ele>240.4</ele>
        <time>2026-05-03T06:17:14Z</time>
      </trkpt>
      <trkpt lat="45.06319" lon="4.78773">
        <ele>240.9</ele>
        <time>2026-05-03T06:17:19Z</time>
      </trkpt>
      <trkpt lat="45.06318" lon="4.78778">
        <ele>242.6</ele>
        <time>2026-05-03T06:17:24Z</time>
      </trkpt>
      <trkpt lat="45.06315" lon="4.78781">
        <ele>243.1</ele>
        <time>2026-05-03T06:17:29Z</time>
      </trkpt>
      <trkpt lat="45.06313" lon="4.78786">
        <ele>244.6</ele>
        <time>2026-05-03T06:17:34Z</time>
      </trkpt>
      <trkpt lat="45.0631" lon="4.78788">
        <ele>244.9</ele>
        <time>2026-05-03T06:17:39Z</time>
      </trkpt>
      <trkpt lat="45.06307" lon="4.78789">
        <ele>244.7</ele>
        <time>2026-05-03T06:17:44Z</time>
      </trkpt>
      <trkpt lat="45.06303" lon="4.78793">
        <ele>245.6</ele>
        <time>2026-05-03T06:17:49Z</time>
      </trkpt>
      <trkpt lat="45.063" lon="4.78797">
        <ele>246.7</ele>
        <time>2026-05-03T06:17:54Z</time>
      </trkpt>
      <trkpt lat="45.06296" lon="4.78801">
        <ele>247.7</ele>
        <time>2026-05-03T06:17:59Z</time>
      </trkpt>
      <trkpt lat="45.06292" lon="4.78804">
        <ele>248.4</ele>
        <time>2026-05-03T06:18:04Z</time>
      </trkpt>
      <trkpt lat="45.06288" lon="4.78806">
        <ele>248.6</ele>
        <time>2026-05-03T06:18:09Z</time>
      </trkpt>
      <trkpt lat="45.06284" lon="4.78808">
        <ele>248.9</ele>
        <time>2026-05-03T06:18:14Z</time>
      </trkpt>
      <trkpt lat="45.06281" lon="4.78813">
        <ele>250.8</ele>
        <time>2026-05-03T06:18:19Z</time>
      </trkpt>
      <trkpt lat="45.0628" lon="4.7882">
        <ele>253.8</ele>
        <time>2026-05-03T06:18:24Z</time>
      </trkpt>
      <trkpt lat="45.06275" lon="4.78823">
        <ele>254.6</ele>
        <time>2026-05-03T06:18:29Z</time>
      </trkpt>
      <trkpt lat="45.0627" lon="4.78824">
        <ele>254.5</ele>
        <time>2026-05-03T06:18:34Z</time>
      </trkpt>
      <trkpt lat="45.06267" lon="4.78829">
        <ele>256.5</ele>
        <time>2026-05-03T06:18:39Z</time>
      </trkpt>
      <trkpt lat="45.06263" lon="4.78835">
        <ele>258.5</ele>
        <time>2026-05-03T06:18:44Z</time>
      </trkpt>
      <trkpt lat="45.06259" lon="4.78839">
        <ele>258.9</ele>
        <time>2026-05-03T06:18:49Z</time>
      </trkpt>
      <trkpt lat="45.06254" lon="4.78842">
        <ele>259</ele>
        <time>2026-05-03T06:18:54Z</time>
      </trkpt>
      <trkpt lat="45.0625" lon="4.78844">
        <ele>259.2</ele>
        <time>2026-05-03T06:18:59Z</time>
      </trkpt>
      <trkpt lat="45.06244" lon="4.78847">
        <ele>259.7</ele>
        <time>2026-05-03T06:19:04Z</time>
      </trkpt>
      <trkpt lat="45.06239" lon="4.78848">
        <ele>259.9</ele>
        <time>2026-05-03T06:19:09Z</time>
      </trkpt>
      <trkpt lat="45.06233" lon="4.78851">
        <ele>260.4</ele>
        <time>2026-05-03T06:19:14Z</time>
      </trkpt>
      <trkpt lat="45.06229" lon="4.78855">
        <ele>261.2</ele>
        <time>2026-05-03T06:19:19Z</time>
      </trkpt>
      <trkpt lat="45.06226" lon="4.7886">
        <ele>262.2</ele>
        <time>2026-05-03T06:19:24Z</time>
      </trkpt>
      <trkpt lat="45.06223" lon="4.78863">
        <ele>262.7</ele>
        <time>2026-05-03T06:19:29Z</time>
      </trkpt>
      <trkpt lat="45.06219" lon="4.78866">
        <ele>263.3</ele>
        <time>2026-05-03T06:19:34Z</time>
      </trkpt>
      <trkpt lat="45.06218" lon="4.78866">
        <ele>263.3</ele>
        <time>2026-05-03T06:19:39Z</time>
      </trkpt>
      <trkpt lat="45.06215" lon="4.78868">
        <ele>263.7</ele>
        <time>2026-05-03T06:19:44Z</time>
      </trkpt>
      <trkpt lat="45.06211" lon="4.78872">
        <ele>264.4</ele>
        <time>2026-05-03T06:19:49Z</time>
      </trkpt>
      <trkpt lat="45.06209" lon="4.78876">
        <ele>265.2</ele>
        <time>2026-05-03T06:19:54Z</time>
      </trkpt>
      <trkpt lat="45.06205" lon="4.7888">
        <ele>266</ele>
        <time>2026-05-03T06:19:59Z</time>
      </trkpt>
      <trkpt lat="45.06203" lon="4.78881">
        <ele>266.2</ele>
        <time>2026-05-03T06:20:04Z</time>
      </trkpt>
      <trkpt lat="45.062" lon="4.78882">
        <ele>266.3</ele>
        <time>2026-05-03T06:20:09Z</time>
      </trkpt>
      <trkpt lat="45.06198" lon="4.78886">
        <ele>267.1</ele>
        <time>2026-05-03T06:20:14Z</time>
      </trkpt>
      <trkpt lat="45.06195" lon="4.7889">
        <ele>267.9</ele>
        <time>2026-05-03T06:20:19Z</time>
      </trkpt>
      <trkpt lat="45.06191" lon="4.78894">
        <ele>268.7</ele>
        <time>2026-05-03T06:20:24Z</time>
      </trkpt>
      <trkpt lat="45.06188" lon="4.78898">
        <ele>269.4</ele>
        <time>2026-05-03T06:20:29Z</time>
      </trkpt>
      <trkpt lat="45.06185" lon="4.78902">
        <ele>270.2</ele>
        <time>2026-05-03T06:20:34Z</time>
      </trkpt>
      <trkpt lat="45.0618" lon="4.78905">
        <ele>270.8</ele>
        <time>2026-05-03T06:20:39Z</time>
      </trkpt>
      <trkpt lat="45.06175" lon="4.78907">
        <ele>271.1</ele>
        <time>2026-05-03T06:20:44Z</time>
      </trkpt>
      <trkpt lat="45.06168" lon="4.78911">
        <ele>271.9</ele>
        <time>2026-05-03T06:20:49Z</time>
      </trkpt>
      <trkpt lat="45.06163" lon="4.78914">
        <ele>272.6</ele>
        <time>2026-05-03T06:20:54Z</time>
      </trkpt>
      <trkpt lat="45.06157" lon="4.78914">
        <ele>272.8</ele>
        <time>2026-05-03T06:20:59Z</time>
      </trkpt>
      <trkpt lat="45.0615" lon="4.78914">
        <ele>273.1</ele>
        <time>2026-05-03T06:21:04Z</time>
      </trkpt>
      <trkpt lat="45.06144" lon="4.78913">
        <ele>273.2</ele>
        <time>2026-05-03T06:21:09Z</time>
      </trkpt>
      <trkpt lat="45.06138" lon="4.78912">
        <ele>273.2</ele>
        <time>2026-05-03T06:21:14Z</time>
      </trkpt>
      <trkpt lat="45.06133" lon="4.78909">
        <ele>272.9</ele>
        <time>2026-05-03T06:21:19Z</time>
      </trkpt>
      <trkpt lat="45.06128" lon="4.78906">
        <ele>272.7</ele>
        <time>2026-05-03T06:21:24Z</time>
      </trkpt>
      <trkpt lat="45.06124" lon="4.78901">
        <ele>272.1</ele>
        <time>2026-05-03T06:21:29Z</time>
      </trkpt>
      <trkpt lat="45.06118" lon="4.78898">
        <ele>272</ele>
        <time>2026-05-03T06:21:34Z</time>
      </trkpt>
      <trkpt lat="45.06112" lon="4.78896">
        <ele>272.1</ele>
        <time>2026-05-03T06:21:39Z</time>
      </trkpt>
      <trkpt lat="45.06108" lon="4.78895">
        <ele>272.2</ele>
        <time>2026-05-03T06:21:44Z</time>
      </trkpt>
      <trkpt lat="45.06107" lon="4.78893">
        <ele>271.9</ele>
        <time>2026-05-03T06:21:49Z</time>
      </trkpt>
      <trkpt lat="45.06102" lon="4.7889">
        <ele>271.9</ele>
        <time>2026-05-03T06:21:54Z</time>
      </trkpt>
      <trkpt lat="45.06101" lon="4.78889">
        <ele>271.8</ele>
        <time>2026-05-03T06:21:59Z</time>
      </trkpt>
      <trkpt lat="45.06101" lon="4.78888">
        <ele>271.7</ele>
        <time>2026-05-03T06:22:04Z</time>
      </trkpt>
      <trkpt lat="45.06101" lon="4.78888">
        <ele>271.7</ele>
        <time>2026-05-03T06:22:09Z</time>
      </trkpt>
      <trkpt lat="45.06101" lon="4.78888">
        <ele>271.7</ele>
        <time>2026-05-03T06:22:14Z</time>
      </trkpt>
      <trkpt lat="45.06095" lon="4.78894">
        <ele>272.8</ele>
        <time>2026-05-03T06:22:19Z</time>
      </trkpt>
      <trkpt lat="45.0609" lon="4.789">
        <ele>273.8</ele>
        <time>2026-05-03T06:22:24Z</time>
      </trkpt>
      <trkpt lat="45.06085" lon="4.78902">
        <ele>274.3</ele>
        <time>2026-05-03T06:22:29Z</time>
      </trkpt>
      <trkpt lat="45.06078" lon="4.78903">
        <ele>275.9</ele>
        <time>2026-05-03T06:22:34Z</time>
      </trkpt>
      <trkpt lat="45.06071" lon="4.78904">
        <ele>277.9</ele>
        <time>2026-05-03T06:22:39Z</time>
      </trkpt>
      <trkpt lat="45.06063" lon="4.78902">
        <ele>279.7</ele>
        <time>2026-05-03T06:22:44Z</time>
      </trkpt>
      <trkpt lat="45.06055" lon="4.789">
        <ele>281.5</ele>
        <time>2026-05-03T06:22:49Z</time>
      </trkpt>
      <trkpt lat="45.06048" lon="4.78898">
        <ele>283.1</ele>
        <time>2026-05-03T06:22:54Z</time>
      </trkpt>
      <trkpt lat="45.06042" lon="4.78897">
        <ele>284.5</ele>
        <time>2026-05-03T06:22:59Z</time>
      </trkpt>
      <trkpt lat="45.06036" lon="4.78897">
        <ele>286</ele>
        <time>2026-05-03T06:23:04Z</time>
      </trkpt>
      <trkpt lat="45.0603" lon="4.78896">
        <ele>287.4</ele>
        <time>2026-05-03T06:23:09Z</time>
      </trkpt>
      <trkpt lat="45.06024" lon="4.78894">
        <ele>288.6</ele>
        <time>2026-05-03T06:23:14Z</time>
      </trkpt>
      <trkpt lat="45.06018" lon="4.78893">
        <ele>289.9</ele>
        <time>2026-05-03T06:23:19Z</time>
      </trkpt>
      <trkpt lat="45.06013" lon="4.78891">
        <ele>290.8</ele>
        <time>2026-05-03T06:23:24Z</time>
      </trkpt>
      <trkpt lat="45.06009" lon="4.7889">
        <ele>291.6</ele>
        <time>2026-05-03T06:23:29Z</time>
      </trkpt>
      <trkpt lat="45.06004" lon="4.7889">
        <ele>292.9</ele>
        <time>2026-05-03T06:23:34Z</time>
      </trkpt>
      <trkpt lat="45.06001" lon="4.7889">
        <ele>293.6</ele>
        <time>2026-05-03T06:23:39Z</time>
      </trkpt>
      <trkpt lat="45.06001" lon="4.7889">
        <ele>293.6</ele>
        <time>2026-05-03T06:23:44Z</time>
      </trkpt>
      <trkpt lat="45.06001" lon="4.7889">
        <ele>293.6</ele>
        <time>2026-05-03T06:23:49Z</time>
      </trkpt>
      <trkpt lat="45.06001" lon="4.7889">
        <ele>293.6</ele>
        <time>2026-05-03T06:23:54Z</time>
      </trkpt>
      <trkpt lat="45.05995" lon="4.78892">
        <ele>294.6</ele>
        <time>2026-05-03T06:23:59Z</time>
      </trkpt>
      <trkpt lat="45.05991" lon="4.78893">
        <ele>295</ele>
        <time>2026-05-03T06:24:04Z</time>
      </trkpt>
      <trkpt lat="45.05987" lon="4.78894">
        <ele>295.5</ele>
        <time>2026-05-03T06:24:09Z</time>
      </trkpt>
      <trkpt lat="45.05981" lon="4.78898">
        <ele>296.8</ele>
        <time>2026-05-03T06:24:14Z</time>
      </trkpt>
      <trkpt lat="45.05976" lon="4.78899">
        <ele>297.4</ele>
        <time>2026-05-03T06:24:19Z</time>
      </trkpt>
      <trkpt lat="45.05973" lon="4.78899">
        <ele>297.6</ele>
        <time>2026-05-03T06:24:24Z</time>
      </trkpt>
      <trkpt lat="45.05968" lon="4.78901">
        <ele>298.4</ele>
        <time>2026-05-03T06:24:29Z</time>
      </trkpt>
      <trkpt lat="45.05964" lon="4.78902">
        <ele>299</ele>
        <time>2026-05-03T06:24:34Z</time>
      </trkpt>
      <trkpt lat="45.0596" lon="4.78903">
        <ele>299.5</ele>
        <time>2026-05-03T06:24:39Z</time>
      </trkpt>
      <trkpt lat="45.05956" lon="4.78902">
        <ele>299.6</ele>
        <time>2026-05-03T06:24:44Z</time>
      </trkpt>
      <trkpt lat="45.0595" lon="4.78903">
        <ele>300.3</ele>
        <time>2026-05-03T06:24:49Z</time>
      </trkpt>
      <trkpt lat="45.05945" lon="4.78903">
        <ele>300.7</ele>
        <time>2026-05-03T06:24:54Z</time>
      </trkpt>
      <trkpt lat="45.0594" lon="4.78904">
        <ele>301.3</ele>
        <time>2026-05-03T06:24:59Z</time>
      </trkpt>
      <trkpt lat="45.05933" lon="4.78905">
        <ele>302.2</ele>
        <time>2026-05-03T06:25:04Z</time>
      </trkpt>
      <trkpt lat="45.05929" lon="4.78905">
        <ele>302.5</ele>
        <time>2026-05-03T06:25:09Z</time>
      </trkpt>
      <trkpt lat="45.05923" lon="4.78906">
        <ele>303.3</ele>
        <time>2026-05-03T06:25:14Z</time>
      </trkpt>
      <trkpt lat="45.05918" lon="4.78906">
        <ele>303.7</ele>
        <time>2026-05-03T06:25:19Z</time>
      </trkpt>
      <trkpt lat="45.05913" lon="4.78907">
        <ele>304.4</ele>
        <time>2026-05-03T06:25:24Z</time>
      </trkpt>
      <trkpt lat="45.05906" lon="4.78908">
        <ele>305.3</ele>
        <time>2026-05-03T06:25:29Z</time>
      </trkpt>
      <trkpt lat="45.05901" lon="4.78903">
        <ele>304.1</ele>
        <time>2026-05-03T06:25:34Z</time>
      </trkpt>
      <trkpt lat="45.059" lon="4.789">
        <ele>303.3</ele>
        <time>2026-05-03T06:25:39Z</time>
      </trkpt>
      <trkpt lat="45.05899" lon="4.78901">
        <ele>303.7</ele>
        <time>2026-05-03T06:25:44Z</time>
      </trkpt>
      <trkpt lat="45.05892" lon="4.78907">
        <ele>306.1</ele>
        <time>2026-05-03T06:25:49Z</time>
      </trkpt>
      <trkpt lat="45.05885" lon="4.78909">
        <ele>307.3</ele>
        <time>2026-05-03T06:25:54Z</time>
      </trkpt>
      <trkpt lat="45.05879" lon="4.78909">
        <ele>307.7</ele>
        <time>2026-05-03T06:25:59Z</time>
      </trkpt>
      <trkpt lat="45.05873" lon="4.78908">
        <ele>307.9</ele>
        <time>2026-05-03T06:26:04Z</time>
      </trkpt>
      <trkpt lat="45.05867" lon="4.78909">
        <ele>308.7</ele>
        <time>2026-05-03T06:26:09Z</time>
      </trkpt>
      <trkpt lat="45.0586" lon="4.78907">
        <ele>308.6</ele>
        <time>2026-05-03T06:26:14Z</time>
      </trkpt>
      <trkpt lat="45.05853" lon="4.78905">
        <ele>308.5</ele>
        <time>2026-05-03T06:26:19Z</time>
      </trkpt>
      <trkpt lat="45.05845" lon="4.78901">
        <ele>307.8</ele>
        <time>2026-05-03T06:26:24Z</time>
      </trkpt>
      <trkpt lat="45.0584" lon="4.78896">
        <ele>306.6</ele>
        <time>2026-05-03T06:26:29Z</time>
      </trkpt>
      <trkpt lat="45.05834" lon="4.78894">
        <ele>306.3</ele>
        <time>2026-05-03T06:26:34Z</time>
      </trkpt>
      <trkpt lat="45.05829" lon="4.78889">
        <ele>305.4</ele>
        <time>2026-05-03T06:26:39Z</time>
      </trkpt>
      <trkpt lat="45.05826" lon="4.78888">
        <ele>305.6</ele>
        <time>2026-05-03T06:26:44Z</time>
      </trkpt>
      <trkpt lat="45.05825" lon="4.78885">
        <ele>304.8</ele>
        <time>2026-05-03T06:26:49Z</time>
      </trkpt>
      <trkpt lat="45.05822" lon="4.78884">
        <ele>305</ele>
        <time>2026-05-03T06:26:54Z</time>
      </trkpt>
      <trkpt lat="45.05816" lon="4.78887">
        <ele>307</ele>
        <time>2026-05-03T06:26:59Z</time>
      </trkpt>
      <trkpt lat="45.0581" lon="4.78894">
        <ele>310.3</ele>
        <time>2026-05-03T06:27:04Z</time>
      </trkpt>
      <trkpt lat="45.05804" lon="4.78903">
        <ele>314.2</ele>
        <time>2026-05-03T06:27:09Z</time>
      </trkpt>
      <trkpt lat="45.05798" lon="4.7891">
        <ele>317.4</ele>
        <time>2026-05-03T06:27:14Z</time>
      </trkpt>
      <trkpt lat="45.05791" lon="4.78913">
        <ele>319.5</ele>
        <time>2026-05-03T06:27:19Z</time>
      </trkpt>
      <trkpt lat="45.05784" lon="4.78913">
        <ele>320.6</ele>
        <time>2026-05-03T06:27:24Z</time>
      </trkpt>
      <trkpt lat="45.05776" lon="4.7891">
        <ele>320.9</ele>
        <time>2026-05-03T06:27:29Z</time>
      </trkpt>
      <trkpt lat="45.05768" lon="4.78909">
        <ele>321.9</ele>
        <time>2026-05-03T06:27:34Z</time>
      </trkpt>
      <trkpt lat="45.0576" lon="4.78909">
        <ele>323.2</ele>
        <time>2026-05-03T06:27:39Z</time>
      </trkpt>
      <trkpt lat="45.05754" lon="4.78903">
        <ele>322.4</ele>
        <time>2026-05-03T06:27:44Z</time>
      </trkpt>
      <trkpt lat="45.05748" lon="4.78896">
        <ele>321.1</ele>
        <time>2026-05-03T06:27:49Z</time>
      </trkpt>
      <trkpt lat="45.05745" lon="4.78887">
        <ele>318.6</ele>
        <time>2026-05-03T06:27:54Z</time>
      </trkpt>
      <trkpt lat="45.05742" lon="4.78881">
        <ele>316.9</ele>
        <time>2026-05-03T06:27:59Z</time>
      </trkpt>
      <trkpt lat="45.05738" lon="4.78874">
        <ele>314.9</ele>
        <time>2026-05-03T06:28:04Z</time>
      </trkpt>
      <trkpt lat="45.05734" lon="4.78868">
        <ele>313.2</ele>
        <time>2026-05-03T06:28:09Z</time>
      </trkpt>
      <trkpt lat="45.0573" lon="4.78861">
        <ele>311.2</ele>
        <time>2026-05-03T06:28:14Z</time>
      </trkpt>
      <trkpt lat="45.05724" lon="4.78857">
        <ele>310.1</ele>
        <time>2026-05-03T06:28:19Z</time>
      </trkpt>
      <trkpt lat="45.05719" lon="4.78853">
        <ele>308.9</ele>
        <time>2026-05-03T06:28:24Z</time>
      </trkpt>
      <trkpt lat="45.05714" lon="4.78851">
        <ele>308.4</ele>
        <time>2026-05-03T06:28:29Z</time>
      </trkpt>
      <trkpt lat="45.05709" lon="4.78852">
        <ele>308.7</ele>
        <time>2026-05-03T06:28:34Z</time>
      </trkpt>
      <trkpt lat="45.05702" lon="4.78854">
        <ele>309.4</ele>
        <time>2026-05-03T06:28:39Z</time>
      </trkpt>
      <trkpt lat="45.05697" lon="4.78856">
        <ele>310</ele>
        <time>2026-05-03T06:28:44Z</time>
      </trkpt>
      <trkpt lat="45.05692" lon="4.78859">
        <ele>311</ele>
        <time>2026-05-03T06:28:49Z</time>
      </trkpt>
      <trkpt lat="45.05687" lon="4.78861">
        <ele>311.7</ele>
        <time>2026-05-03T06:28:54Z</time>
      </trkpt>
      <trkpt lat="45.05681" lon="4.78861">
        <ele>311.8</ele>
        <time>2026-05-03T06:28:59Z</time>
      </trkpt>
      <trkpt lat="45.05676" lon="4.7886">
        <ele>311.5</ele>
        <time>2026-05-03T06:29:04Z</time>
      </trkpt>
      <trkpt lat="45.05672" lon="4.78859">
        <ele>311.3</ele>
        <time>2026-05-03T06:29:09Z</time>
      </trkpt>
      <trkpt lat="45.05666" lon="4.78857">
        <ele>310.8</ele>
        <time>2026-05-03T06:29:14Z</time>
      </trkpt>
      <trkpt lat="45.0566" lon="4.78856">
        <ele>311.3</ele>
        <time>2026-05-03T06:29:19Z</time>
      </trkpt>
      <trkpt lat="45.05656" lon="4.78858">
        <ele>312.5</ele>
        <time>2026-05-03T06:29:24Z</time>
      </trkpt>
      <trkpt lat="45.05651" lon="4.78863">
        <ele>314.8</ele>
        <time>2026-05-03T06:29:29Z</time>
      </trkpt>
      <trkpt lat="45.05649" lon="4.78869">
        <ele>316.9</ele>
        <time>2026-05-03T06:29:34Z</time>
      </trkpt>
      <trkpt lat="45.05649" lon="4.78876">
        <ele>319.1</ele>
        <time>2026-05-03T06:29:39Z</time>
      </trkpt>
      <trkpt lat="45.05651" lon="4.78883">
        <ele>321.1</ele>
        <time>2026-05-03T06:29:44Z</time>
      </trkpt>
      <trkpt lat="45.05653" lon="4.78887">
        <ele>322.1</ele>
        <time>2026-05-03T06:29:49Z</time>
      </trkpt>
      <trkpt lat="45.05654" lon="4.7889">
        <ele>322.9</ele>
        <time>2026-05-03T06:29:54Z</time>
      </trkpt>
      <trkpt lat="45.05652" lon="4.78894">
        <ele>324.4</ele>
        <time>2026-05-03T06:29:59Z</time>
      </trkpt>
      <trkpt lat="45.05646" lon="4.78895">
        <ele>325.5</ele>
        <time>2026-05-03T06:30:04Z</time>
      </trkpt>
      <trkpt lat="45.0564" lon="4.78896">
        <ele>326.5</ele>
        <time>2026-05-03T06:30:09Z</time>
      </trkpt>
      <trkpt lat="45.05634" lon="4.78893">
        <ele>326.3</ele>
        <time>2026-05-03T06:30:14Z</time>
      </trkpt>
      <trkpt lat="45.05628" lon="4.78891">
        <ele>326.4</ele>
        <time>2026-05-03T06:30:19Z</time>
      </trkpt>
      <trkpt lat="45.05623" lon="4.7889">
        <ele>326.7</ele>
        <time>2026-05-03T06:30:24Z</time>
      </trkpt>
      <trkpt lat="45.05615" lon="4.78886">
        <ele>326.6</ele>
        <time>2026-05-03T06:30:29Z</time>
      </trkpt>
      <trkpt lat="45.05609" lon="4.78886">
        <ele>327.3</ele>
        <time>2026-05-03T06:30:34Z</time>
      </trkpt>
      <trkpt lat="45.05602" lon="4.78885">
        <ele>327.9</ele>
        <time>2026-05-03T06:30:39Z</time>
      </trkpt>
      <trkpt lat="45.05596" lon="4.78885">
        <ele>328.7</ele>
        <time>2026-05-03T06:30:44Z</time>
      </trkpt>
      <trkpt lat="45.05592" lon="4.7888">
        <ele>327.8</ele>
        <time>2026-05-03T06:30:49Z</time>
      </trkpt>
      <trkpt lat="45.05589" lon="4.78878">
        <ele>327.6</ele>
        <time>2026-05-03T06:30:54Z</time>
      </trkpt>
      <trkpt lat="45.05589" lon="4.78878">
        <ele>327.6</ele>
        <time>2026-05-03T06:30:59Z</time>
      </trkpt>
      <trkpt lat="45.05589" lon="4.78876">
        <ele>327</ele>
        <time>2026-05-03T06:31:04Z</time>
      </trkpt>
      <trkpt lat="45.05584" lon="4.78876">
        <ele>327.7</ele>
        <time>2026-05-03T06:31:09Z</time>
      </trkpt>
      <trkpt lat="45.05576" lon="4.78879">
        <ele>330.8</ele>
        <time>2026-05-03T06:31:14Z</time>
      </trkpt>
      <trkpt lat="45.05571" lon="4.78874">
        <ele>331</ele>
        <time>2026-05-03T06:31:19Z</time>
      </trkpt>
      <trkpt lat="45.05566" lon="4.78867">
        <ele>331</ele>
        <time>2026-05-03T06:31:24Z</time>
      </trkpt>
      <trkpt lat="45.05561" lon="4.78865">
        <ele>332.2</ele>
        <time>2026-05-03T06:31:29Z</time>
      </trkpt>
      <trkpt lat="45.05553" lon="4.78864">
        <ele>334.8</ele>
        <time>2026-05-03T06:31:34Z</time>
      </trkpt>
      <trkpt lat="45.05545" lon="4.78866">
        <ele>337.8</ele>
        <time>2026-05-03T06:31:39Z</time>
      </trkpt>
      <trkpt lat="45.05537" lon="4.78868">
        <ele>340.7</ele>
        <time>2026-05-03T06:31:44Z</time>
      </trkpt>
      <trkpt lat="45.0553" lon="4.78867">
        <ele>342.9</ele>
        <time>2026-05-03T06:31:49Z</time>
      </trkpt>
      <trkpt lat="45.05524" lon="4.78862">
        <ele>344.4</ele>
        <time>2026-05-03T06:31:54Z</time>
      </trkpt>
      <trkpt lat="45.05519" lon="4.78857">
        <ele>345.7</ele>
        <time>2026-05-03T06:31:59Z</time>
      </trkpt>
      <trkpt lat="45.05515" lon="4.78848">
        <ele>346.5</ele>
        <time>2026-05-03T06:32:04Z</time>
      </trkpt>
      <trkpt lat="45.05513" lon="4.78837">
        <ele>346.6</ele>
        <time>2026-05-03T06:32:09Z</time>
      </trkpt>
      <trkpt lat="45.05509" lon="4.78827">
        <ele>346.6</ele>
        <time>2026-05-03T06:32:14Z</time>
      </trkpt>
      <trkpt lat="45.05506" lon="4.78821">
        <ele>346.4</ele>
        <time>2026-05-03T06:32:19Z</time>
      </trkpt>
      <trkpt lat="45.05503" lon="4.78814">
        <ele>346</ele>
        <time>2026-05-03T06:32:24Z</time>
      </trkpt>
      <trkpt lat="45.05499" lon="4.78807">
        <ele>345.9</ele>
        <time>2026-05-03T06:32:29Z</time>
      </trkpt>
      <trkpt lat="45.05494" lon="4.78799">
        <ele>345.4</ele>
        <time>2026-05-03T06:32:34Z</time>
      </trkpt>
      <trkpt lat="45.05489" lon="4.7879">
        <ele>344.7</ele>
        <time>2026-05-03T06:32:39Z</time>
      </trkpt>
      <trkpt lat="45.05485" lon="4.78784">
        <ele>344.5</ele>
        <time>2026-05-03T06:32:44Z</time>
      </trkpt>
      <trkpt lat="45.05485" lon="4.78778">
        <ele>343.2</ele>
        <time>2026-05-03T06:32:49Z</time>
      </trkpt>
      <trkpt lat="45.05484" lon="4.78778">
        <ele>343.5</ele>
        <time>2026-05-03T06:32:54Z</time>
      </trkpt>
      <trkpt lat="45.05484" lon="4.78778">
        <ele>343.5</ele>
        <time>2026-05-03T06:32:59Z</time>
      </trkpt>
      <trkpt lat="45.05476" lon="4.78764">
        <ele>343</ele>
        <time>2026-05-03T06:33:04Z</time>
      </trkpt>
      <trkpt lat="45.05475" lon="4.78757">
        <ele>341.9</ele>
        <time>2026-05-03T06:33:09Z</time>
      </trkpt>
      <trkpt lat="45.05474" lon="4.78743">
        <ele>338.3</ele>
        <time>2026-05-03T06:33:14Z</time>
      </trkpt>
      <trkpt lat="45.05474" lon="4.78735">
        <ele>335.6</ele>
        <time>2026-05-03T06:33:19Z</time>
      </trkpt>
      <trkpt lat="45.05467" lon="4.78731">
        <ele>336.6</ele>
        <time>2026-05-03T06:33:24Z</time>
      </trkpt>
      <trkpt lat="45.05461" lon="4.7873">
        <ele>338.4</ele>
        <time>2026-05-03T06:33:29Z</time>
      </trkpt>
      <trkpt lat="45.05454" lon="4.78728">
        <ele>340.1</ele>
        <time>2026-05-03T06:33:34Z</time>
      </trkpt>
      <trkpt lat="45.05449" lon="4.78721">
        <ele>339.5</ele>
        <time>2026-05-03T06:33:39Z</time>
      </trkpt>
      <trkpt lat="45.0545" lon="4.78719">
        <ele>338.5</ele>
        <time>2026-05-03T06:33:44Z</time>
      </trkpt>
      <trkpt lat="45.05451" lon="4.78719">
        <ele>338.2</ele>
        <time>2026-05-03T06:33:49Z</time>
      </trkpt>
      <trkpt lat="45.05451" lon="4.78719">
        <ele>338.2</ele>
        <time>2026-05-03T06:33:54Z</time>
      </trkpt>
      <trkpt lat="45.05451" lon="4.78719">
        <ele>338.2</ele>
        <time>2026-05-03T06:33:59Z</time>
      </trkpt>
      <trkpt lat="45.05451" lon="4.78719">
        <ele>338.2</ele>
        <time>2026-05-03T06:34:04Z</time>
      </trkpt>
      <trkpt lat="45.05449" lon="4.78716">
        <ele>337.9</ele>
        <time>2026-05-03T06:34:09Z</time>
      </trkpt>
      <trkpt lat="45.05442" lon="4.78707">
        <ele>337.4</ele>
        <time>2026-05-03T06:34:14Z</time>
      </trkpt>
      <trkpt lat="45.05438" lon="4.78699">
        <ele>336.3</ele>
        <time>2026-05-03T06:34:19Z</time>
      </trkpt>
      <trkpt lat="45.05435" lon="4.78689">
        <ele>334.2</ele>
        <time>2026-05-03T06:34:24Z</time>
      </trkpt>
      <trkpt lat="45.05433" lon="4.78681">
        <ele>332.3</ele>
        <time>2026-05-03T06:34:29Z</time>
      </trkpt>
      <trkpt lat="45.05432" lon="4.78669">
        <ele>328.9</ele>
        <time>2026-05-03T06:34:34Z</time>
      </trkpt>
      <trkpt lat="45.05427" lon="4.78665">
        <ele>329.5</ele>
        <time>2026-05-03T06:34:39Z</time>
      </trkpt>
      <trkpt lat="45.05423" lon="4.78659">
        <ele>329.3</ele>
        <time>2026-05-03T06:34:44Z</time>
      </trkpt>
      <trkpt lat="45.05417" lon="4.78652">
        <ele>329.5</ele>
        <time>2026-05-03T06:34:49Z</time>
      </trkpt>
      <trkpt lat="45.05412" lon="4.78646">
        <ele>329.6</ele>
        <time>2026-05-03T06:34:54Z</time>
      </trkpt>
      <trkpt lat="45.05404" lon="4.78641">
        <ele>331.1</ele>
        <time>2026-05-03T06:34:59Z</time>
      </trkpt>
      <trkpt lat="45.05397" lon="4.78635">
        <ele>331.8</ele>
        <time>2026-05-03T06:35:04Z</time>
      </trkpt>
      <trkpt lat="45.05395" lon="4.78625">
        <ele>329.4</ele>
        <time>2026-05-03T06:35:09Z</time>
      </trkpt>
      <trkpt lat="45.05396" lon="4.78616">
        <ele>326.2</ele>
        <time>2026-05-03T06:35:14Z</time>
      </trkpt>
      <trkpt lat="45.05401" lon="4.78608">
        <ele>321.9</ele>
        <time>2026-05-03T06:35:19Z</time>
      </trkpt>
      <trkpt lat="45.05405" lon="4.78601">
        <ele>318.4</ele>
        <time>2026-05-03T06:35:24Z</time>
      </trkpt>
      <trkpt lat="45.05408" lon="4.78594">
        <ele>315.2</ele>
        <time>2026-05-03T06:35:29Z</time>
      </trkpt>
      <trkpt lat="45.05409" lon="4.78586">
        <ele>312.4</ele>
        <time>2026-05-03T06:35:34Z</time>
      </trkpt>
      <trkpt lat="45.0541" lon="4.78578">
        <ele>309.1</ele>
        <time>2026-05-03T06:35:39Z</time>
      </trkpt>
      <trkpt lat="45.05407" lon="4.78574">
        <ele>308.5</ele>
        <time>2026-05-03T06:35:44Z</time>
      </trkpt>
      <trkpt lat="45.05403" lon="4.78572">
        <ele>309</ele>
        <time>2026-05-03T06:35:49Z</time>
      </trkpt>
      <trkpt lat="45.05397" lon="4.78569">
        <ele>309.8</ele>
        <time>2026-05-03T06:35:54Z</time>
      </trkpt>
      <trkpt lat="45.05391" lon="4.78564">
        <ele>309.8</ele>
        <time>2026-05-03T06:35:59Z</time>
      </trkpt>
      <trkpt lat="45.05385" lon="4.78558">
        <ele>309.3</ele>
        <time>2026-05-03T06:36:04Z</time>
      </trkpt>
      <trkpt lat="45.05377" lon="4.7855">
        <ele>308.6</ele>
        <time>2026-05-03T06:36:09Z</time>
      </trkpt>
      <trkpt lat="45.0537" lon="4.78543">
        <ele>307.9</ele>
        <time>2026-05-03T06:36:14Z</time>
      </trkpt>
      <trkpt lat="45.05364" lon="4.78541">
        <ele>309</ele>
        <time>2026-05-03T06:36:19Z</time>
      </trkpt>
      <trkpt lat="45.05358" lon="4.78537">
        <ele>309.2</ele>
        <time>2026-05-03T06:36:24Z</time>
      </trkpt>
      <trkpt lat="45.0535" lon="4.78536">
        <ele>311.3</ele>
        <time>2026-05-03T06:36:29Z</time>
      </trkpt>
      <trkpt lat="45.05343" lon="4.78535">
        <ele>313.1</ele>
        <time>2026-05-03T06:36:34Z</time>
      </trkpt>
      <trkpt lat="45.05335" lon="4.78534">
        <ele>315.2</ele>
        <time>2026-05-03T06:36:39Z</time>
      </trkpt>
      <trkpt lat="45.05328" lon="4.78532">
        <ele>316.7</ele>
        <time>2026-05-03T06:36:44Z</time>
      </trkpt>
      <trkpt lat="45.0532" lon="4.78527">
        <ele>317.5</ele>
        <time>2026-05-03T06:36:49Z</time>
      </trkpt>
      <trkpt lat="45.05315" lon="4.78518">
        <ele>315.5</ele>
        <time>2026-05-03T06:36:54Z</time>
      </trkpt>
      <trkpt lat="45.05312" lon="4.78508">
        <ele>312.5</ele>
        <time>2026-05-03T06:36:59Z</time>
      </trkpt>
      <trkpt lat="45.05309" lon="4.78497">
        <ele>309.1</ele>
        <time>2026-05-03T06:37:04Z</time>
      </trkpt>
      <trkpt lat="45.05309" lon="4.78488">
        <ele>305.4</ele>
        <time>2026-05-03T06:37:09Z</time>
      </trkpt>
      <trkpt lat="45.05306" lon="4.78481">
        <ele>303.7</ele>
        <time>2026-05-03T06:37:14Z</time>
      </trkpt>
      <trkpt lat="45.05302" lon="4.78473">
        <ele>302</ele>
        <time>2026-05-03T06:37:19Z</time>
      </trkpt>
      <trkpt lat="45.05297" lon="4.7847">
        <ele>302.9</ele>
        <time>2026-05-03T06:37:24Z</time>
      </trkpt>
      <trkpt lat="45.05296" lon="4.78469">
        <ele>302.9</ele>
        <time>2026-05-03T06:37:29Z</time>
      </trkpt>
      <trkpt lat="45.05296" lon="4.78469">
        <ele>302.9</ele>
        <time>2026-05-03T06:37:34Z</time>
      </trkpt>
      <trkpt lat="45.05296" lon="4.78469">
        <ele>302.9</ele>
        <time>2026-05-03T06:37:39Z</time>
      </trkpt>
      <trkpt lat="45.05296" lon="4.78469">
        <ele>302.9</ele>
        <time>2026-05-03T06:37:44Z</time>
      </trkpt>
      <trkpt lat="45.05296" lon="4.78469">
        <ele>302.9</ele>
        <time>2026-05-03T06:37:49Z</time>
      </trkpt>
      <trkpt lat="45.05288" lon="4.78459">
        <ele>302.3</ele>
        <time>2026-05-03T06:37:54Z</time>
      </trkpt>
      <trkpt lat="45.05282" lon="4.78455">
        <ele>303.4</ele>
        <time>2026-05-03T06:37:59Z</time>
      </trkpt>
      <trkpt lat="45.05275" lon="4.78454">
        <ele>306.1</ele>
        <time>2026-05-03T06:38:04Z</time>
      </trkpt>
      <trkpt lat="45.05268" lon="4.78454">
        <ele>309.1</ele>
        <time>2026-05-03T06:38:09Z</time>
      </trkpt>
      <trkpt lat="45.05262" lon="4.78455">
        <ele>312.1</ele>
        <time>2026-05-03T06:38:14Z</time>
      </trkpt>
      <trkpt lat="45.05256" lon="4.78457">
        <ele>315.4</ele>
        <time>2026-05-03T06:38:19Z</time>
      </trkpt>
      <trkpt lat="45.05251" lon="4.78458">
        <ele>318</ele>
        <time>2026-05-03T06:38:24Z</time>
      </trkpt>
      <trkpt lat="45.05242" lon="4.78459">
        <ele>322.3</ele>
        <time>2026-05-03T06:38:29Z</time>
      </trkpt>
      <trkpt lat="45.05237" lon="4.78455">
        <ele>323.2</ele>
        <time>2026-05-03T06:38:34Z</time>
      </trkpt>
      <trkpt lat="45.05232" lon="4.78449">
        <ele>323.4</ele>
        <time>2026-05-03T06:38:39Z</time>
      </trkpt>
      <trkpt lat="45.05226" lon="4.78441">
        <ele>323.6</ele>
        <time>2026-05-03T06:38:44Z</time>
      </trkpt>
      <trkpt lat="45.05221" lon="4.78432">
        <ele>323.1</ele>
        <time>2026-05-03T06:38:49Z</time>
      </trkpt>
      <trkpt lat="45.05213" lon="4.78426">
        <ele>325.1</ele>
        <time>2026-05-03T06:38:54Z</time>
      </trkpt>
      <trkpt lat="45.05206" lon="4.7842">
        <ele>326.6</ele>
        <time>2026-05-03T06:38:59Z</time>
      </trkpt>
      <trkpt lat="45.05203" lon="4.78407">
        <ele>324</ele>
        <time>2026-05-03T06:39:04Z</time>
      </trkpt>
      <trkpt lat="45.05205" lon="4.78397">
        <ele>319.8</ele>
        <time>2026-05-03T06:39:09Z</time>
      </trkpt>
      <trkpt lat="45.05207" lon="4.7839">
        <ele>316.6</ele>
        <time>2026-05-03T06:39:14Z</time>
      </trkpt>
      <trkpt lat="45.05211" lon="4.78386">
        <ele>313.5</ele>
        <time>2026-05-03T06:39:19Z</time>
      </trkpt>
      <trkpt lat="45.05211" lon="4.78386">
        <ele>313.5</ele>
        <time>2026-05-03T06:39:24Z</time>
      </trkpt>
      <trkpt lat="45.05211" lon="4.78386">
        <ele>313.5</ele>
        <time>2026-05-03T06:39:29Z</time>
      </trkpt>
      <trkpt lat="45.05215" lon="4.78377">
        <ele>308.9</ele>
        <time>2026-05-03T06:39:34Z</time>
      </trkpt>
      <trkpt lat="45.05218" lon="4.7837">
        <ele>305.4</ele>
        <time>2026-05-03T06:39:39Z</time>
      </trkpt>
      <trkpt lat="45.0522" lon="4.78368">
        <ele>303.9</ele>
        <time>2026-05-03T06:39:44Z</time>
      </trkpt>
      <trkpt lat="45.05221" lon="4.78367">
        <ele>303.1</ele>
        <time>2026-05-03T06:39:49Z</time>
      </trkpt>
      <trkpt lat="45.05221" lon="4.78367">
        <ele>303.1</ele>
        <time>2026-05-03T06:39:54Z</time>
      </trkpt>
      <trkpt lat="45.05221" lon="4.78367">
        <ele>303.1</ele>
        <time>2026-05-03T06:39:59Z</time>
      </trkpt>
      <trkpt lat="45.05223" lon="4.78366">
        <ele>301.9</ele>
        <time>2026-05-03T06:40:04Z</time>
      </trkpt>
      <trkpt lat="45.05221" lon="4.78363">
        <ele>301.9</ele>
        <time>2026-05-03T06:40:09Z</time>
      </trkpt>
      <trkpt lat="45.0522" lon="4.78354">
        <ele>299.6</ele>
        <time>2026-05-03T06:40:14Z</time>
      </trkpt>
      <trkpt lat="45.05218" lon="4.78346">
        <ele>298</ele>
        <time>2026-05-03T06:40:19Z</time>
      </trkpt>
      <trkpt lat="45.05217" lon="4.7834">
        <ele>296.5</ele>
        <time>2026-05-03T06:40:24Z</time>
      </trkpt>
      <trkpt lat="45.05211" lon="4.78335">
        <ele>297.4</ele>
        <time>2026-05-03T06:40:29Z</time>
      </trkpt>
      <trkpt lat="45.0521" lon="4.78331">
        <ele>296.3</ele>
        <time>2026-05-03T06:40:34Z</time>
      </trkpt>
      <trkpt lat="45.05209" lon="4.7833">
        <ele>296.3</ele>
        <time>2026-05-03T06:40:39Z</time>
      </trkpt>
      <trkpt lat="45.05209" lon="4.7833">
        <ele>296.3</ele>
        <time>2026-05-03T06:40:44Z</time>
      </trkpt>
      <trkpt lat="45.05205" lon="4.78323">
        <ele>294.9</ele>
        <time>2026-05-03T06:40:49Z</time>
      </trkpt>
      <trkpt lat="45.05204" lon="4.78321">
        <ele>294.5</ele>
        <time>2026-05-03T06:40:54Z</time>
      </trkpt>
      <trkpt lat="45.05201" lon="4.78314">
        <ele>292.6</ele>
        <time>2026-05-03T06:40:59Z</time>
      </trkpt>
      <trkpt lat="45.05198" lon="4.78305">
        <ele>289.9</ele>
        <time>2026-05-03T06:41:04Z</time>
      </trkpt>
      <trkpt lat="45.05192" lon="4.78299">
        <ele>289.5</ele>
        <time>2026-05-03T06:41:09Z</time>
      </trkpt>
      <trkpt lat="45.05188" lon="4.78293">
        <ele>288.3</ele>
        <time>2026-05-03T06:41:14Z</time>
      </trkpt>
      <trkpt lat="45.05181" lon="4.78286">
        <ele>287.7</ele>
        <time>2026-05-03T06:41:19Z</time>
      </trkpt>
      <trkpt lat="45.05174" lon="4.78281">
        <ele>287.9</ele>
        <time>2026-05-03T06:41:24Z</time>
      </trkpt>
      <trkpt lat="45.05169" lon="4.78276">
        <ele>287.4</ele>
        <time>2026-05-03T06:41:29Z</time>
      </trkpt>
      <trkpt lat="45.05162" lon="4.78269">
        <ele>285.7</ele>
        <time>2026-05-03T06:41:34Z</time>
      </trkpt>
      <trkpt lat="45.05155" lon="4.78262">
        <ele>283.7</ele>
        <time>2026-05-03T06:41:39Z</time>
      </trkpt>
      <trkpt lat="45.05148" lon="4.78256">
        <ele>282.2</ele>
        <time>2026-05-03T06:41:44Z</time>
      </trkpt>
      <trkpt lat="45.05142" lon="4.78254">
        <ele>282.3</ele>
        <time>2026-05-03T06:41:49Z</time>
      </trkpt>
      <trkpt lat="45.05135" lon="4.78251">
        <ele>282.2</ele>
        <time>2026-05-03T06:41:54Z</time>
      </trkpt>
      <trkpt lat="45.05132" lon="4.78247">
        <ele>281</ele>
        <time>2026-05-03T06:41:59Z</time>
      </trkpt>
      <trkpt lat="45.05132" lon="4.78245">
        <ele>280.2</ele>
        <time>2026-05-03T06:42:04Z</time>
      </trkpt>
      <trkpt lat="45.05132" lon="4.78245">
        <ele>280.2</ele>
        <time>2026-05-03T06:42:09Z</time>
      </trkpt>
      <trkpt lat="45.05132" lon="4.78245">
        <ele>280.2</ele>
        <time>2026-05-03T06:42:14Z</time>
      </trkpt>
      <trkpt lat="45.05132" lon="4.78245">
        <ele>280.2</ele>
        <time>2026-05-03T06:42:19Z</time>
      </trkpt>
      <trkpt lat="45.05132" lon="4.78245">
        <ele>280.2</ele>
        <time>2026-05-03T06:42:24Z</time>
      </trkpt>
      <trkpt lat="45.0513" lon="4.78242">
        <ele>279.3</ele>
        <time>2026-05-03T06:42:29Z</time>
      </trkpt>
      <trkpt lat="45.05125" lon="4.78238">
        <ele>278.5</ele>
        <time>2026-05-03T06:42:34Z</time>
      </trkpt>
      <trkpt lat="45.05118" lon="4.78232">
        <ele>277.2</ele>
        <time>2026-05-03T06:42:39Z</time>
      </trkpt>
      <trkpt lat="45.05113" lon="4.78226">
        <ele>275.4</ele>
        <time>2026-05-03T06:42:44Z</time>
      </trkpt>
      <trkpt lat="45.05109" lon="4.78219">
        <ele>273</ele>
        <time>2026-05-03T06:42:49Z</time>
      </trkpt>
      <trkpt lat="45.05104" lon="4.7821">
        <ele>269.9</ele>
        <time>2026-05-03T06:42:54Z</time>
      </trkpt>
      <trkpt lat="45.05099" lon="4.782">
        <ele>266.2</ele>
        <time>2026-05-03T06:42:59Z</time>
      </trkpt>
      <trkpt lat="45.05094" lon="4.7819">
        <ele>262.4</ele>
        <time>2026-05-03T06:43:04Z</time>
      </trkpt>
      <trkpt lat="45.0509" lon="4.78179">
        <ele>257.9</ele>
        <time>2026-05-03T06:43:09Z</time>
      </trkpt>
      <trkpt lat="45.05084" lon="4.78172">
        <ele>255.4</ele>
        <time>2026-05-03T06:43:14Z</time>
      </trkpt>
      <trkpt lat="45.05077" lon="4.78166">
        <ele>255</ele>
        <time>2026-05-03T06:43:19Z</time>
      </trkpt>
      <trkpt lat="45.05069" lon="4.78162">
        <ele>257.7</ele>
        <time>2026-05-03T06:43:24Z</time>
      </trkpt>
      <trkpt lat="45.0506" lon="4.78162">
        <ele>260.6</ele>
        <time>2026-05-03T06:43:29Z</time>
      </trkpt>
      <trkpt lat="45.05054" lon="4.78163">
        <ele>262.5</ele>
        <time>2026-05-03T06:43:34Z</time>
      </trkpt>
      <trkpt lat="45.05047" lon="4.78164">
        <ele>264.6</ele>
        <time>2026-05-03T06:43:39Z</time>
      </trkpt>
      <trkpt lat="45.05041" lon="4.78168">
        <ele>266.6</ele>
        <time>2026-05-03T06:43:44Z</time>
      </trkpt>
      <trkpt lat="45.05034" lon="4.78171">
        <ele>269.6</ele>
        <time>2026-05-03T06:43:49Z</time>
      </trkpt>
      <trkpt lat="45.05028" lon="4.78175">
        <ele>272.4</ele>
        <time>2026-05-03T06:43:54Z</time>
      </trkpt>
      <trkpt lat="45.05022" lon="4.78179">
        <ele>275</ele>
        <time>2026-05-03T06:43:59Z</time>
      </trkpt>
      <trkpt lat="45.05012" lon="4.78179">
        <ele>277.7</ele>
        <time>2026-05-03T06:44:04Z</time>
      </trkpt>
      <trkpt lat="45.05004" lon="4.78179">
        <ele>279.9</ele>
        <time>2026-05-03T06:44:09Z</time>
      </trkpt>
      <trkpt lat="45.04996" lon="4.78179">
        <ele>282.4</ele>
        <time>2026-05-03T06:44:14Z</time>
      </trkpt>
      <trkpt lat="45.04988" lon="4.78178">
        <ele>285.3</ele>
        <time>2026-05-03T06:44:19Z</time>
      </trkpt>
      <trkpt lat="45.0498" lon="4.78174">
        <ele>287.9</ele>
        <time>2026-05-03T06:44:24Z</time>
      </trkpt>
      <trkpt lat="45.04974" lon="4.7817">
        <ele>289.9</ele>
        <time>2026-05-03T06:44:29Z</time>
      </trkpt>
      <trkpt lat="45.04971" lon="4.78161">
        <ele>292.3</ele>
        <time>2026-05-03T06:44:34Z</time>
      </trkpt>
      <trkpt lat="45.04968" lon="4.78155">
        <ele>295.1</ele>
        <time>2026-05-03T06:44:39Z</time>
      </trkpt>
      <trkpt lat="45.04966" lon="4.78156">
        <ele>295.7</ele>
        <time>2026-05-03T06:44:44Z</time>
      </trkpt>
      <trkpt lat="45.04965" lon="4.7816">
        <ele>295</ele>
        <time>2026-05-03T06:44:49Z</time>
      </trkpt>
      <trkpt lat="45.04965" lon="4.7816">
        <ele>295</ele>
        <time>2026-05-03T06:44:54Z</time>
      </trkpt>
      <trkpt lat="45.04965" lon="4.7816">
        <ele>295</ele>
        <time>2026-05-03T06:44:59Z</time>
      </trkpt>
      <trkpt lat="45.04965" lon="4.7816">
        <ele>295</ele>
        <time>2026-05-03T06:45:04Z</time>
      </trkpt>
      <trkpt lat="45.04965" lon="4.7816">
        <ele>295</ele>
        <time>2026-05-03T06:45:09Z</time>
      </trkpt>
      <trkpt lat="45.04965" lon="4.7816">
        <ele>295</ele>
        <time>2026-05-03T06:45:14Z</time>
      </trkpt>
      <trkpt lat="45.04965" lon="4.7816">
        <ele>295</ele>
        <time>2026-05-03T06:45:19Z</time>
      </trkpt>
      <trkpt lat="45.04965" lon="4.7816">
        <ele>295</ele>
        <time>2026-05-03T06:45:24Z</time>
      </trkpt>
      <trkpt lat="45.04965" lon="4.7816">
        <ele>295</ele>
        <time>2026-05-03T06:45:29Z</time>
      </trkpt>
      <trkpt lat="45.04965" lon="4.7816">
        <ele>295</ele>
        <time>2026-05-03T06:45:34Z</time>
      </trkpt>
      <trkpt lat="45.04965" lon="4.7816">
        <ele>295</ele>
        <time>2026-05-03T06:45:39Z</time>
      </trkpt>
      <trkpt lat="45.04965" lon="4.7816">
        <ele>295</ele>
        <time>2026-05-03T06:45:44Z</time>
      </trkpt>
      <trkpt lat="45.04965" lon="4.7816">
        <ele>295</ele>
        <time>2026-05-03T06:45:49Z</time>
      </trkpt>
      <trkpt lat="45.04965" lon="4.7816">
        <ele>295</ele>
        <time>2026-05-03T06:45:54Z</time>
      </trkpt>
      <trkpt lat="45.04965" lon="4.7816">
        <ele>295</ele>
        <time>2026-05-03T06:45:59Z</time>
      </trkpt>
      <trkpt lat="45.04965" lon="4.7816">
        <ele>295</ele>
        <time>2026-05-03T06:46:04Z</time>
      </trkpt>
      <trkpt lat="45.04965" lon="4.7816">
        <ele>295</ele>
        <time>2026-05-03T06:46:09Z</time>
      </trkpt>
      <trkpt lat="45.04965" lon="4.7816">
        <ele>295</ele>
        <time>2026-05-03T06:46:14Z</time>
      </trkpt>
      <trkpt lat="45.04965" lon="4.7816">
        <ele>295</ele>
        <time>2026-05-03T06:46:19Z</time>
      </trkpt>
      <trkpt lat="45.04965" lon="4.7816">
        <ele>295</ele>
        <time>2026-05-03T06:46:24Z</time>
      </trkpt>
      <trkpt lat="45.04965" lon="4.7816">
        <ele>295</ele>
        <time>2026-05-03T06:46:29Z</time>
      </trkpt>
      <trkpt lat="45.04965" lon="4.7816">
        <ele>295</ele>
        <time>2026-05-03T06:46:34Z</time>
      </trkpt>
      <trkpt lat="45.04965" lon="4.7816">
        <ele>295</ele>
        <time>2026-05-03T06:46:39Z</time>
      </trkpt>
      <trkpt lat="45.04965" lon="4.7816">
        <ele>295</ele>
        <time>2026-05-03T06:46:44Z</time>
      </trkpt>
      <trkpt lat="45.04965" lon="4.7816">
        <ele>295</ele>
        <time>2026-05-03T06:46:49Z</time>
      </trkpt>
      <trkpt lat="45.0497" lon="4.78157">
        <ele>293.8</ele>
        <time>2026-05-03T06:46:54Z</time>
      </trkpt>
      <trkpt lat="45.04978" lon="4.78152">
        <ele>291.8</ele>
        <time>2026-05-03T06:46:59Z</time>
      </trkpt>
      <trkpt lat="45.04985" lon="4.78151">
        <ele>289.1</ele>
        <time>2026-05-03T06:47:04Z</time>
      </trkpt>
      <trkpt lat="45.04991" lon="4.78146">
        <ele>287.9</ele>
        <time>2026-05-03T06:47:09Z</time>
      </trkpt>
      <trkpt lat="45.04996" lon="4.78137">
        <ele>288.1</ele>
        <time>2026-05-03T06:47:14Z</time>
      </trkpt>
      <trkpt lat="45.04999" lon="4.78128">
        <ele>289.2</ele>
        <time>2026-05-03T06:47:19Z</time>
      </trkpt>
      <trkpt lat="45.05002" lon="4.7812">
        <ele>289.9</ele>
        <time>2026-05-03T06:47:24Z</time>
      </trkpt>
      <trkpt lat="45.05004" lon="4.78111">
        <ele>291.1</ele>
        <time>2026-05-03T06:47:29Z</time>
      </trkpt>
      <trkpt lat="45.05007" lon="4.78101">
        <ele>292</ele>
        <time>2026-05-03T06:47:34Z</time>
      </trkpt>
      <trkpt lat="45.0501" lon="4.78093">
        <ele>292.3</ele>
        <time>2026-05-03T06:47:39Z</time>
      </trkpt>
      <trkpt lat="45.05013" lon="4.78082">
        <ele>293.1</ele>
        <time>2026-05-03T06:47:44Z</time>
      </trkpt>
      <trkpt lat="45.05015" lon="4.78073">
        <ele>293.5</ele>
        <time>2026-05-03T06:47:49Z</time>
      </trkpt>
      <trkpt lat="45.05019" lon="4.78063">
        <ele>293</ele>
        <time>2026-05-03T06:47:54Z</time>
      </trkpt>
      <trkpt lat="45.05023" lon="4.78056">
        <ele>292</ele>
        <time>2026-05-03T06:47:59Z</time>
      </trkpt>
      <trkpt lat="45.05029" lon="4.78051">
        <ele>289.4</ele>
        <time>2026-05-03T06:48:04Z</time>
      </trkpt>
      <trkpt lat="45.05036" lon="4.78045">
        <ele>286.4</ele>
        <time>2026-05-03T06:48:09Z</time>
      </trkpt>
      <trkpt lat="45.05041" lon="4.78037">
        <ele>284.9</ele>
        <time>2026-05-03T06:48:14Z</time>
      </trkpt>
      <trkpt lat="45.05046" lon="4.78031">
        <ele>283</ele>
        <time>2026-05-03T06:48:19Z</time>
      </trkpt>
      <trkpt lat="45.05051" lon="4.78024">
        <ele>281.2</ele>
        <time>2026-05-03T06:48:24Z</time>
      </trkpt>
      <trkpt lat="45.05053" lon="4.78016">
        <ele>281.3</ele>
        <time>2026-05-03T06:48:29Z</time>
      </trkpt>
      <trkpt lat="45.05053" lon="4.78008">
        <ele>282.6</ele>
        <time>2026-05-03T06:48:34Z</time>
      </trkpt>
      <trkpt lat="45.05051" lon="4.77999">
        <ele>284.8</ele>
        <time>2026-05-03T06:48:39Z</time>
      </trkpt>
      <trkpt lat="45.05048" lon="4.77992">
        <ele>285</ele>
        <time>2026-05-03T06:48:44Z</time>
      </trkpt>
      <trkpt lat="45.05046" lon="4.77984">
        <ele>284.4</ele>
        <time>2026-05-03T06:48:49Z</time>
      </trkpt>
      <trkpt lat="45.05043" lon="4.77974">
        <ele>284</ele>
        <time>2026-05-03T06:48:54Z</time>
      </trkpt>
      <trkpt lat="45.0504" lon="4.77968">
        <ele>284.3</ele>
        <time>2026-05-03T06:48:59Z</time>
      </trkpt>
      <trkpt lat="45.05037" lon="4.77959">
        <ele>284</ele>
        <time>2026-05-03T06:49:04Z</time>
      </trkpt>
      <trkpt lat="45.05033" lon="4.7795">
        <ele>284.2</ele>
        <time>2026-05-03T06:49:09Z</time>
      </trkpt>
      <trkpt lat="45.0503" lon="4.77941">
        <ele>283.8</ele>
        <time>2026-05-03T06:49:14Z</time>
      </trkpt>
      <trkpt lat="45.05027" lon="4.77932">
        <ele>283.3</ele>
        <time>2026-05-03T06:49:19Z</time>
      </trkpt>
      <trkpt lat="45.05024" lon="4.77924">
        <ele>283</ele>
        <time>2026-05-03T06:49:24Z</time>
      </trkpt>
      <trkpt lat="45.05019" lon="4.77917">
        <ele>284</ele>
        <time>2026-05-03T06:49:29Z</time>
      </trkpt>
      <trkpt lat="45.05014" lon="4.7791">
        <ele>284.1</ele>
        <time>2026-05-03T06:49:34Z</time>
      </trkpt>
      <trkpt lat="45.05011" lon="4.77903">
        <ele>283</ele>
        <time>2026-05-03T06:49:39Z</time>
      </trkpt>
      <trkpt lat="45.05006" lon="4.77895">
        <ele>282.4</ele>
        <time>2026-05-03T06:49:44Z</time>
      </trkpt>
      <trkpt lat="45.05002" lon="4.77888">
        <ele>281.7</ele>
        <time>2026-05-03T06:49:49Z</time>
      </trkpt>
      <trkpt lat="45.04998" lon="4.77881">
        <ele>280.4</ele>
        <time>2026-05-03T06:49:54Z</time>
      </trkpt>
      <trkpt lat="45.04993" lon="4.77874">
        <ele>279</ele>
        <time>2026-05-03T06:49:59Z</time>
      </trkpt>
      <trkpt lat="45.0499" lon="4.77867">
        <ele>277</ele>
        <time>2026-05-03T06:50:04Z</time>
      </trkpt>
      <trkpt lat="45.04984" lon="4.77862">
        <ele>276.6</ele>
        <time>2026-05-03T06:50:09Z</time>
      </trkpt>
      <trkpt lat="45.04978" lon="4.77857">
        <ele>276.3</ele>
        <time>2026-05-03T06:50:14Z</time>
      </trkpt>
      <trkpt lat="45.0497" lon="4.77853">
        <ele>276.8</ele>
        <time>2026-05-03T06:50:19Z</time>
      </trkpt>
      <trkpt lat="45.04967" lon="4.77849">
        <ele>276</ele>
        <time>2026-05-03T06:50:24Z</time>
      </trkpt>
      <trkpt lat="45.04964" lon="4.77846">
        <ele>275.6</ele>
        <time>2026-05-03T06:50:29Z</time>
      </trkpt>
      <trkpt lat="45.0496" lon="4.77838">
        <ele>273.4</ele>
        <time>2026-05-03T06:50:34Z</time>
      </trkpt>
      <trkpt lat="45.04953" lon="4.77831">
        <ele>272.6</ele>
        <time>2026-05-03T06:50:39Z</time>
      </trkpt>
      <trkpt lat="45.04948" lon="4.77826">
        <ele>272.3</ele>
        <time>2026-05-03T06:50:44Z</time>
      </trkpt>
      <trkpt lat="45.04941" lon="4.77821">
        <ele>272.4</ele>
        <time>2026-05-03T06:50:49Z</time>
      </trkpt>
      <trkpt lat="45.04936" lon="4.77817">
        <ele>272.4</ele>
        <time>2026-05-03T06:50:54Z</time>
      </trkpt>
      <trkpt lat="45.04931" lon="4.77812">
        <ele>272</ele>
        <time>2026-05-03T06:50:59Z</time>
      </trkpt>
      <trkpt lat="45.04926" lon="4.77809">
        <ele>272.4</ele>
        <time>2026-05-03T06:51:04Z</time>
      </trkpt>
      <trkpt lat="45.0492" lon="4.77807">
        <ele>273.3</ele>
        <time>2026-05-03T06:51:09Z</time>
      </trkpt>
      <trkpt lat="45.04914" lon="4.77805">
        <ele>274.8</ele>
        <time>2026-05-03T06:51:14Z</time>
      </trkpt>
      <trkpt lat="45.04909" lon="4.77803">
        <ele>276.6</ele>
        <time>2026-05-03T06:51:19Z</time>
      </trkpt>
      <trkpt lat="45.04901" lon="4.77802">
        <ele>280.2</ele>
        <time>2026-05-03T06:51:24Z</time>
      </trkpt>
      <trkpt lat="45.04895" lon="4.778">
        <ele>282.5</ele>
        <time>2026-05-03T06:51:29Z</time>
      </trkpt>
      <trkpt lat="45.04888" lon="4.77797">
        <ele>285</ele>
        <time>2026-05-03T06:51:34Z</time>
      </trkpt>
      <trkpt lat="45.0488" lon="4.77793">
        <ele>287.7</ele>
        <time>2026-05-03T06:51:39Z</time>
      </trkpt>
      <trkpt lat="45.04874" lon="4.77789">
        <ele>289.4</ele>
        <time>2026-05-03T06:51:44Z</time>
      </trkpt>
      <trkpt lat="45.04869" lon="4.77784">
        <ele>290.4</ele>
        <time>2026-05-03T06:51:49Z</time>
      </trkpt>
      <trkpt lat="45.04862" lon="4.7778">
        <ele>292.8</ele>
        <time>2026-05-03T06:51:54Z</time>
      </trkpt>
      <trkpt lat="45.04858" lon="4.77777">
        <ele>293.9</ele>
        <time>2026-05-03T06:51:59Z</time>
      </trkpt>
      <trkpt lat="45.04853" lon="4.77773">
        <ele>295.3</ele>
        <time>2026-05-03T06:52:04Z</time>
      </trkpt>
      <trkpt lat="45.04847" lon="4.77767">
        <ele>296.6</ele>
        <time>2026-05-03T06:52:09Z</time>
      </trkpt>
      <trkpt lat="45.04844" lon="4.7776">
        <ele>296.2</ele>
        <time>2026-05-03T06:52:14Z</time>
      </trkpt>
      <trkpt lat="45.04837" lon="4.77756">
        <ele>298.7</ele>
        <time>2026-05-03T06:52:19Z</time>
      </trkpt>
      <trkpt lat="45.04831" lon="4.77751">
        <ele>300.3</ele>
        <time>2026-05-03T06:52:24Z</time>
      </trkpt>
      <trkpt lat="45.04825" lon="4.77747">
        <ele>302.1</ele>
        <time>2026-05-03T06:52:29Z</time>
      </trkpt>
      <trkpt lat="45.04817" lon="4.77742">
        <ele>304.6</ele>
        <time>2026-05-03T06:52:34Z</time>
      </trkpt>
      <trkpt lat="45.04811" lon="4.7774">
        <ele>306.8</ele>
        <time>2026-05-03T06:52:39Z</time>
      </trkpt>
      <trkpt lat="45.04805" lon="4.77739">
        <ele>309.2</ele>
        <time>2026-05-03T06:52:44Z</time>
      </trkpt>
      <trkpt lat="45.04801" lon="4.77737">
        <ele>310.5</ele>
        <time>2026-05-03T06:52:49Z</time>
      </trkpt>
      <trkpt lat="45.04798" lon="4.77736">
        <ele>311.6</ele>
        <time>2026-05-03T06:52:54Z</time>
      </trkpt>
      <trkpt lat="45.04795" lon="4.77735">
        <ele>312.6</ele>
        <time>2026-05-03T06:52:59Z</time>
      </trkpt>
      <trkpt lat="45.04793" lon="4.77733">
        <ele>313.1</ele>
        <time>2026-05-03T06:53:04Z</time>
      </trkpt>
      <trkpt lat="45.04792" lon="4.77733">
        <ele>313.5</ele>
        <time>2026-05-03T06:53:09Z</time>
      </trkpt>
      <trkpt lat="45.04794" lon="4.77726">
        <ele>311.3</ele>
        <time>2026-05-03T06:53:14Z</time>
      </trkpt>
      <trkpt lat="45.04793" lon="4.77717">
        <ele>309.9</ele>
        <time>2026-05-03T06:53:19Z</time>
      </trkpt>
      <trkpt lat="45.04796" lon="4.77707">
        <ele>306.7</ele>
        <time>2026-05-03T06:53:24Z</time>
      </trkpt>
      <trkpt lat="45.04798" lon="4.77704">
        <ele>305.4</ele>
        <time>2026-05-03T06:53:29Z</time>
      </trkpt>
      <trkpt lat="45.04799" lon="4.77698">
        <ele>303.8</ele>
        <time>2026-05-03T06:53:34Z</time>
      </trkpt>
      <trkpt lat="45.04799" lon="4.77689">
        <ele>302.1</ele>
        <time>2026-05-03T06:53:39Z</time>
      </trkpt>
      <trkpt lat="45.04799" lon="4.7768">
        <ele>300.3</ele>
        <time>2026-05-03T06:53:44Z</time>
      </trkpt>
      <trkpt lat="45.048" lon="4.7767">
        <ele>298</ele>
        <time>2026-05-03T06:53:49Z</time>
      </trkpt>
      <trkpt lat="45.04801" lon="4.7766">
        <ele>295.5</ele>
        <time>2026-05-03T06:53:54Z</time>
      </trkpt>
      <trkpt lat="45.04802" lon="4.77652">
        <ele>293.3</ele>
        <time>2026-05-03T06:53:59Z</time>
      </trkpt>
      <trkpt lat="45.04805" lon="4.77644">
        <ele>290.5</ele>
        <time>2026-05-03T06:54:04Z</time>
      </trkpt>
      <trkpt lat="45.04808" lon="4.77637">
        <ele>288.1</ele>
        <time>2026-05-03T06:54:09Z</time>
      </trkpt>
      <trkpt lat="45.04812" lon="4.77632">
        <ele>285.9</ele>
        <time>2026-05-03T06:54:14Z</time>
      </trkpt>
      <trkpt lat="45.04816" lon="4.77626">
        <ele>283.7</ele>
        <time>2026-05-03T06:54:19Z</time>
      </trkpt>
      <trkpt lat="45.04822" lon="4.77623">
        <ele>281.6</ele>
        <time>2026-05-03T06:54:24Z</time>
      </trkpt>
      <trkpt lat="45.04827" lon="4.77622">
        <ele>280.2</ele>
        <time>2026-05-03T06:54:29Z</time>
      </trkpt>
      <trkpt lat="45.04833" lon="4.7762">
        <ele>278.4</ele>
        <time>2026-05-03T06:54:34Z</time>
      </trkpt>
      <trkpt lat="45.04839" lon="4.77618">
        <ele>276.8</ele>
        <time>2026-05-03T06:54:39Z</time>
      </trkpt>
      <trkpt lat="45.04846" lon="4.77616">
        <ele>275</ele>
        <time>2026-05-03T06:54:44Z</time>
      </trkpt>
      <trkpt lat="45.04851" lon="4.77614">
        <ele>273.8</ele>
        <time>2026-05-03T06:54:49Z</time>
      </trkpt>
      <trkpt lat="45.04857" lon="4.77614">
        <ele>272.6</ele>
        <time>2026-05-03T06:54:54Z</time>
      </trkpt>
      <trkpt lat="45.04863" lon="4.77611">
        <ele>271.3</ele>
        <time>2026-05-03T06:54:59Z</time>
      </trkpt>
      <trkpt lat="45.04871" lon="4.77608">
        <ele>269.8</ele>
        <time>2026-05-03T06:55:04Z</time>
      </trkpt>
      <trkpt lat="45.04876" lon="4.77605">
        <ele>268.9</ele>
        <time>2026-05-03T06:55:09Z</time>
      </trkpt>
      <trkpt lat="45.04883" lon="4.77604">
        <ele>267.8</ele>
        <time>2026-05-03T06:55:14Z</time>
      </trkpt>
      <trkpt lat="45.04888" lon="4.77603">
        <ele>267.1</ele>
        <time>2026-05-03T06:55:19Z</time>
      </trkpt>
      <trkpt lat="45.04895" lon="4.77601">
        <ele>266.1</ele>
        <time>2026-05-03T06:55:24Z</time>
      </trkpt>
      <trkpt lat="45.04901" lon="4.77597">
        <ele>265.7</ele>
        <time>2026-05-03T06:55:29Z</time>
      </trkpt>
      <trkpt lat="45.04907" lon="4.77595">
        <ele>265.2</ele>
        <time>2026-05-03T06:55:34Z</time>
      </trkpt>
      <trkpt lat="45.04913" lon="4.77593">
        <ele>264.7</ele>
        <time>2026-05-03T06:55:39Z</time>
      </trkpt>
      <trkpt lat="45.04919" lon="4.77594">
        <ele>264.1</ele>
        <time>2026-05-03T06:55:44Z</time>
      </trkpt>
      <trkpt lat="45.04925" lon="4.77594">
        <ele>264</ele>
        <time>2026-05-03T06:55:49Z</time>
      </trkpt>
      <trkpt lat="45.04929" lon="4.7759">
        <ele>264.8</ele>
        <time>2026-05-03T06:55:54Z</time>
      </trkpt>
      <trkpt lat="45.04927" lon="4.77585">
        <ele>265.8</ele>
        <time>2026-05-03T06:55:59Z</time>
      </trkpt>
      <trkpt lat="45.04921" lon="4.77584">
        <ele>265.9</ele>
        <time>2026-05-03T06:56:04Z</time>
      </trkpt>
      <trkpt lat="45.04913" lon="4.77585">
        <ele>266</ele>
        <time>2026-05-03T06:56:09Z</time>
      </trkpt>
      <trkpt lat="45.04907" lon="4.77585">
        <ele>266.6</ele>
        <time>2026-05-03T06:56:14Z</time>
      </trkpt>
      <trkpt lat="45.049" lon="4.77587">
        <ele>267</ele>
        <time>2026-05-03T06:56:19Z</time>
      </trkpt>
      <trkpt lat="45.04893" lon="4.77592">
        <ele>267.2</ele>
        <time>2026-05-03T06:56:24Z</time>
      </trkpt>
      <trkpt lat="45.04886" lon="4.77591">
        <ele>268.1</ele>
        <time>2026-05-03T06:56:29Z</time>
      </trkpt>
      <trkpt lat="45.04879" lon="4.7759">
        <ele>268.9</ele>
        <time>2026-05-03T06:56:34Z</time>
      </trkpt>
      <trkpt lat="45.04873" lon="4.77589">
        <ele>269.6</ele>
        <time>2026-05-03T06:56:39Z</time>
      </trkpt>
      <trkpt lat="45.04866" lon="4.77589">
        <ele>270.4</ele>
        <time>2026-05-03T06:56:44Z</time>
      </trkpt>
      <trkpt lat="45.0486" lon="4.77587">
        <ele>270.9</ele>
        <time>2026-05-03T06:56:49Z</time>
      </trkpt>
      <trkpt lat="45.04854" lon="4.77587">
        <ele>271.5</ele>
        <time>2026-05-03T06:56:54Z</time>
      </trkpt>
      <trkpt lat="45.04848" lon="4.77586">
        <ele>272</ele>
        <time>2026-05-03T06:56:59Z</time>
      </trkpt>
      <trkpt lat="45.04843" lon="4.77585">
        <ele>272.4</ele>
        <time>2026-05-03T06:57:04Z</time>
      </trkpt>
      <trkpt lat="45.04842" lon="4.77583">
        <ele>272.2</ele>
        <time>2026-05-03T06:57:09Z</time>
      </trkpt>
      <trkpt lat="45.04843" lon="4.77582">
        <ele>271.9</ele>
        <time>2026-05-03T06:57:14Z</time>
      </trkpt>
      <trkpt lat="45.04843" lon="4.77582">
        <ele>271.9</ele>
        <time>2026-05-03T06:57:19Z</time>
      </trkpt>
      <trkpt lat="45.04843" lon="4.77582">
        <ele>271.9</ele>
        <time>2026-05-03T06:57:24Z</time>
      </trkpt>
      <trkpt lat="45.04843" lon="4.77582">
        <ele>271.9</ele>
        <time>2026-05-03T06:57:29Z</time>
      </trkpt>
      <trkpt lat="45.04843" lon="4.77582">
        <ele>271.9</ele>
        <time>2026-05-03T06:57:34Z</time>
      </trkpt>
      <trkpt lat="45.04843" lon="4.77582">
        <ele>271.9</ele>
        <time>2026-05-03T06:57:39Z</time>
      </trkpt>
      <trkpt lat="45.04843" lon="4.77582">
        <ele>271.9</ele>
        <time>2026-05-03T06:57:44Z</time>
      </trkpt>
      <trkpt lat="45.04841" lon="4.77584">
        <ele>272.4</ele>
        <time>2026-05-03T06:57:49Z</time>
      </trkpt>
      <trkpt lat="45.04837" lon="4.77584">
        <ele>272.8</ele>
        <time>2026-05-03T06:57:54Z</time>
      </trkpt>
      <trkpt lat="45.04829" lon="4.77586">
        <ele>274</ele>
        <time>2026-05-03T06:57:59Z</time>
      </trkpt>
      <trkpt lat="45.04822" lon="4.77585">
        <ele>274.9</ele>
        <time>2026-05-03T06:58:04Z</time>
      </trkpt>
      <trkpt lat="45.04814" lon="4.77586">
        <ele>276.3</ele>
        <time>2026-05-03T06:58:09Z</time>
      </trkpt>
      <trkpt lat="45.04807" lon="4.77585">
        <ele>277.2</ele>
        <time>2026-05-03T06:58:14Z</time>
      </trkpt>
      <trkpt lat="45.04801" lon="4.77585">
        <ele>278</ele>
        <time>2026-05-03T06:58:19Z</time>
      </trkpt>
      <trkpt lat="45.04795" lon="4.77583">
        <ele>278.4</ele>
        <time>2026-05-03T06:58:24Z</time>
      </trkpt>
      <trkpt lat="45.04789" lon="4.7758">
        <ele>278.5</ele>
        <time>2026-05-03T06:58:29Z</time>
      </trkpt>
      <trkpt lat="45.04784" lon="4.77579">
        <ele>278.9</ele>
        <time>2026-05-03T06:58:34Z</time>
      </trkpt>
      <trkpt lat="45.04779" lon="4.77576">
        <ele>278.7</ele>
        <time>2026-05-03T06:58:39Z</time>
      </trkpt>
      <trkpt lat="45.04774" lon="4.77575">
        <ele>279.1</ele>
        <time>2026-05-03T06:58:44Z</time>
      </trkpt>
      <trkpt lat="45.04768" lon="4.77573">
        <ele>279.3</ele>
        <time>2026-05-03T06:58:49Z</time>
      </trkpt>
      <trkpt lat="45.04763" lon="4.77568">
        <ele>278.4</ele>
        <time>2026-05-03T06:58:54Z</time>
      </trkpt>
      <trkpt lat="45.0476" lon="4.77567">
        <ele>278.5</ele>
        <time>2026-05-03T06:58:59Z</time>
      </trkpt>
      <trkpt lat="45.04758" lon="4.77564">
        <ele>277.8</ele>
        <time>2026-05-03T06:59:04Z</time>
      </trkpt>
      <trkpt lat="45.04758" lon="4.77564">
        <ele>277.8</ele>
        <time>2026-05-03T06:59:09Z</time>
      </trkpt>
      <trkpt lat="45.04758" lon="4.77564">
        <ele>277.8</ele>
        <time>2026-05-03T06:59:14Z</time>
      </trkpt>
      <trkpt lat="45.04758" lon="4.77564">
        <ele>277.8</ele>
        <time>2026-05-03T06:59:19Z</time>
      </trkpt>
      <trkpt lat="45.04758" lon="4.77564">
        <ele>277.8</ele>
        <time>2026-05-03T06:59:24Z</time>
      </trkpt>
      <trkpt lat="45.04758" lon="4.77564">
        <ele>277.8</ele>
        <time>2026-05-03T06:59:29Z</time>
      </trkpt>
      <trkpt lat="45.04758" lon="4.77564">
        <ele>277.8</ele>
        <time>2026-05-03T06:59:34Z</time>
      </trkpt>
      <trkpt lat="45.04758" lon="4.77564">
        <ele>277.8</ele>
        <time>2026-05-03T06:59:39Z</time>
      </trkpt>
      <trkpt lat="45.04758" lon="4.77564">
        <ele>277.8</ele>
        <time>2026-05-03T06:59:44Z</time>
      </trkpt>
      <trkpt lat="45.04753" lon="4.77563">
        <ele>278.1</ele>
        <time>2026-05-03T06:59:49Z</time>
      </trkpt>
      <trkpt lat="45.04748" lon="4.77566">
        <ele>279.7</ele>
        <time>2026-05-03T06:59:54Z</time>
      </trkpt>
      <trkpt lat="45.04744" lon="4.77568">
        <ele>281.1</ele>
        <time>2026-05-03T06:59:59Z</time>
      </trkpt>
      <trkpt lat="45.04744" lon="4.77567">
        <ele>280.8</ele>
        <time>2026-05-03T07:00:04Z</time>
      </trkpt>
      <trkpt lat="45.04744" lon="4.77567">
        <ele>280.8</ele>
        <time>2026-05-03T07:00:09Z</time>
      </trkpt>
      <trkpt lat="45.04749" lon="4.77566">
        <ele>279.6</ele>
        <time>2026-05-03T07:00:14Z</time>
      </trkpt>
      <trkpt lat="45.04754" lon="4.77565">
        <ele>278.6</ele>
        <time>2026-05-03T07:00:19Z</time>
      </trkpt>
      <trkpt lat="45.04758" lon="4.77566">
        <ele>278.4</ele>
        <time>2026-05-03T07:00:24Z</time>
      </trkpt>
      <trkpt lat="45.04762" lon="4.7757">
        <ele>279.1</ele>
        <time>2026-05-03T07:00:29Z</time>
      </trkpt>
      <trkpt lat="45.04767" lon="4.77573">
        <ele>279.4</ele>
        <time>2026-05-03T07:00:34Z</time>
      </trkpt>
      <trkpt lat="45.04772" lon="4.77574">
        <ele>279</ele>
        <time>2026-05-03T07:00:39Z</time>
      </trkpt>
      <trkpt lat="45.04777" lon="4.77577">
        <ele>279.3</ele>
        <time>2026-05-03T07:00:44Z</time>
      </trkpt>
      <trkpt lat="45.04776" lon="4.7758">
        <ele>280.3</ele>
        <time>2026-05-03T07:00:49Z</time>
      </trkpt>
      <trkpt lat="45.04769" lon="4.77582">
        <ele>281.9</ele>
        <time>2026-05-03T07:00:54Z</time>
      </trkpt>
      <trkpt lat="45.04763" lon="4.77582">
        <ele>282.7</ele>
        <time>2026-05-03T07:00:59Z</time>
      </trkpt>
      <trkpt lat="45.04755" lon="4.77586">
        <ele>285.2</ele>
        <time>2026-05-03T07:01:04Z</time>
      </trkpt>
      <trkpt lat="45.04751" lon="4.7759">
        <ele>287.3</ele>
        <time>2026-05-03T07:01:09Z</time>
      </trkpt>
      <trkpt lat="45.04747" lon="4.77595">
        <ele>289.9</ele>
        <time>2026-05-03T07:01:14Z</time>
      </trkpt>
      <trkpt lat="45.04743" lon="4.77601">
        <ele>292.9</ele>
        <time>2026-05-03T07:01:19Z</time>
      </trkpt>
      <trkpt lat="45.04738" lon="4.77607">
        <ele>296.1</ele>
        <time>2026-05-03T07:01:24Z</time>
      </trkpt>
      <trkpt lat="45.04734" lon="4.7761">
        <ele>298</ele>
        <time>2026-05-03T07:01:29Z</time>
      </trkpt>
      <trkpt lat="45.0473" lon="4.77613">
        <ele>300</ele>
        <time>2026-05-03T07:01:34Z</time>
      </trkpt>
      <trkpt lat="45.04728" lon="4.77614">
        <ele>300.8</ele>
        <time>2026-05-03T07:01:39Z</time>
      </trkpt>
      <trkpt lat="45.04725" lon="4.77614">
        <ele>301.3</ele>
        <time>2026-05-03T07:01:44Z</time>
      </trkpt>
      <trkpt lat="45.0472" lon="4.77614">
        <ele>302.3</ele>
        <time>2026-05-03T07:01:49Z</time>
      </trkpt>
      <trkpt lat="45.04716" lon="4.77613">
        <ele>302.7</ele>
        <time>2026-05-03T07:01:54Z</time>
      </trkpt>
      <trkpt lat="45.04713" lon="4.77612">
        <ele>302.9</ele>
        <time>2026-05-03T07:01:59Z</time>
      </trkpt>
      <trkpt lat="45.04709" lon="4.77612">
        <ele>303.7</ele>
        <time>2026-05-03T07:02:04Z</time>
      </trkpt>
      <trkpt lat="45.04706" lon="4.77613">
        <ele>304.7</ele>
        <time>2026-05-03T07:02:09Z</time>
      </trkpt>
      <trkpt lat="45.04702" lon="4.77612">
        <ele>305.1</ele>
        <time>2026-05-03T07:02:14Z</time>
      </trkpt>
      <trkpt lat="45.04698" lon="4.77612">
        <ele>305.9</ele>
        <time>2026-05-03T07:02:19Z</time>
      </trkpt>
      <trkpt lat="45.04694" lon="4.77611">
        <ele>306.3</ele>
        <time>2026-05-03T07:02:24Z</time>
      </trkpt>
      <trkpt lat="45.04689" lon="4.77611">
        <ele>307.2</ele>
        <time>2026-05-03T07:02:29Z</time>
      </trkpt>
      <trkpt lat="45.04685" lon="4.77611">
        <ele>308</ele>
        <time>2026-05-03T07:02:34Z</time>
      </trkpt>
      <trkpt lat="45.04681" lon="4.77612">
        <ele>309.2</ele>
        <time>2026-05-03T07:02:39Z</time>
      </trkpt>
      <trkpt lat="45.04677" lon="4.77611">
        <ele>309.6</ele>
        <time>2026-05-03T07:02:44Z</time>
      </trkpt>
      <trkpt lat="45.04671" lon="4.77611">
        <ele>310.8</ele>
        <time>2026-05-03T07:02:49Z</time>
      </trkpt>
      <trkpt lat="45.04668" lon="4.77611">
        <ele>311.4</ele>
        <time>2026-05-03T07:02:54Z</time>
      </trkpt>
      <trkpt lat="45.04664" lon="4.7761">
        <ele>311.6</ele>
        <time>2026-05-03T07:02:59Z</time>
      </trkpt>
      <trkpt lat="45.04659" lon="4.77609">
        <ele>312</ele>
        <time>2026-05-03T07:03:04Z</time>
      </trkpt>
      <trkpt lat="45.04654" lon="4.77609">
        <ele>312.8</ele>
        <time>2026-05-03T07:03:09Z</time>
      </trkpt>
      <trkpt lat="45.0465" lon="4.7761">
        <ele>313.9</ele>
        <time>2026-05-03T07:03:14Z</time>
      </trkpt>
      <trkpt lat="45.04645" lon="4.77609">
        <ele>314.2</ele>
        <time>2026-05-03T07:03:19Z</time>
      </trkpt>
      <trkpt lat="45.04642" lon="4.7761">
        <ele>315.1</ele>
        <time>2026-05-03T07:03:24Z</time>
      </trkpt>
      <trkpt lat="45.04638" lon="4.77611">
        <ele>316.2</ele>
        <time>2026-05-03T07:03:29Z</time>
      </trkpt>
      <trkpt lat="45.04635" lon="4.77612">
        <ele>317.1</ele>
        <time>2026-05-03T07:03:34Z</time>
      </trkpt>
      <trkpt lat="45.04632" lon="4.77613">
        <ele>318</ele>
        <time>2026-05-03T07:03:39Z</time>
      </trkpt>
      <trkpt lat="45.04629" lon="4.77614">
        <ele>319</ele>
        <time>2026-05-03T07:03:44Z</time>
      </trkpt>
      <trkpt lat="45.04625" lon="4.77614">
        <ele>319.6</ele>
        <time>2026-05-03T07:03:49Z</time>
      </trkpt>
      <trkpt lat="45.04622" lon="4.77616">
        <ele>321</ele>
        <time>2026-05-03T07:03:54Z</time>
      </trkpt>
      <trkpt lat="45.04619" lon="4.77617">
        <ele>321.9</ele>
        <time>2026-05-03T07:03:59Z</time>
      </trkpt>
      <trkpt lat="45.04615" lon="4.77619">
        <ele>323.5</ele>
        <time>2026-05-03T07:04:04Z</time>
      </trkpt>
      <trkpt lat="45.04612" lon="4.7762">
        <ele>324.4</ele>
        <time>2026-05-03T07:04:09Z</time>
      </trkpt>
      <trkpt lat="45.04608" lon="4.77621">
        <ele>325.5</ele>
        <time>2026-05-03T07:04:14Z</time>
      </trkpt>
      <trkpt lat="45.04605" lon="4.7762">
        <ele>325.6</ele>
        <time>2026-05-03T07:04:19Z</time>
      </trkpt>
      <trkpt lat="45.04601" lon="4.77619">
        <ele>325.8</ele>
        <time>2026-05-03T07:04:24Z</time>
      </trkpt>
      <trkpt lat="45.04598" lon="4.7762">
        <ele>326.7</ele>
        <time>2026-05-03T07:04:29Z</time>
      </trkpt>
      <trkpt lat="45.04596" lon="4.7762">
        <ele>327.1</ele>
        <time>2026-05-03T07:04:34Z</time>
      </trkpt>
      <trkpt lat="45.04592" lon="4.77621">
        <ele>328.2</ele>
        <time>2026-05-03T07:04:39Z</time>
      </trkpt>
      <trkpt lat="45.0459" lon="4.77624">
        <ele>329.9</ele>
        <time>2026-05-03T07:04:44Z</time>
      </trkpt>
      <trkpt lat="45.04589" lon="4.77628">
        <ele>331.9</ele>
        <time>2026-05-03T07:04:49Z</time>
      </trkpt>
      <trkpt lat="45.0459" lon="4.77631">
        <ele>333.2</ele>
        <time>2026-05-03T07:04:54Z</time>
      </trkpt>
      <trkpt lat="45.04593" lon="4.77633">
        <ele>333.6</ele>
        <time>2026-05-03T07:04:59Z</time>
      </trkpt>
      <trkpt lat="45.04599" lon="4.77636">
        <ele>333.9</ele>
        <time>2026-05-03T07:05:04Z</time>
      </trkpt>
      <trkpt lat="45.04604" lon="4.77637">
        <ele>333.5</ele>
        <time>2026-05-03T07:05:09Z</time>
      </trkpt>
      <trkpt lat="45.04608" lon="4.77639">
        <ele>333.7</ele>
        <time>2026-05-03T07:05:14Z</time>
      </trkpt>
      <trkpt lat="45.04612" lon="4.7764">
        <ele>333.5</ele>
        <time>2026-05-03T07:05:19Z</time>
      </trkpt>
      <trkpt lat="45.04616" lon="4.77642">
        <ele>333.6</ele>
        <time>2026-05-03T07:05:24Z</time>
      </trkpt>
      <trkpt lat="45.0462" lon="4.77641">
        <ele>332.5</ele>
        <time>2026-05-03T07:05:29Z</time>
      </trkpt>
      <trkpt lat="45.04625" lon="4.77643">
        <ele>332.5</ele>
        <time>2026-05-03T07:05:34Z</time>
      </trkpt>
      <trkpt lat="45.04628" lon="4.77644">
        <ele>332.4</ele>
        <time>2026-05-03T07:05:39Z</time>
      </trkpt>
      <trkpt lat="45.04632" lon="4.77646">
        <ele>332.6</ele>
        <time>2026-05-03T07:05:44Z</time>
      </trkpt>
      <trkpt lat="45.04636" lon="4.77649">
        <ele>333.2</ele>
        <time>2026-05-03T07:05:49Z</time>
      </trkpt>
      <trkpt lat="45.0464" lon="4.77651">
        <ele>333.3</ele>
        <time>2026-05-03T07:05:54Z</time>
      </trkpt>
      <trkpt lat="45.04645" lon="4.77654">
        <ele>333.7</ele>
        <time>2026-05-03T07:05:59Z</time>
      </trkpt>
      <trkpt lat="45.04649" lon="4.77657">
        <ele>334.2</ele>
        <time>2026-05-03T07:06:04Z</time>
      </trkpt>
      <trkpt lat="45.04653" lon="4.7766">
        <ele>334.8</ele>
        <time>2026-05-03T07:06:09Z</time>
      </trkpt>
      <trkpt lat="45.04655" lon="4.77666">
        <ele>337</ele>
        <time>2026-05-03T07:06:14Z</time>
      </trkpt>
      <trkpt lat="45.04658" lon="4.77672">
        <ele>338.1</ele>
        <time>2026-05-03T07:06:19Z</time>
      </trkpt>
      <trkpt lat="45.04662" lon="4.77676">
        <ele>338.5</ele>
        <time>2026-05-03T07:06:24Z</time>
      </trkpt>
      <trkpt lat="45.04664" lon="4.77681">
        <ele>339.5</ele>
        <time>2026-05-03T07:06:29Z</time>
      </trkpt>
      <trkpt lat="45.04668" lon="4.77685">
        <ele>339.7</ele>
        <time>2026-05-03T07:06:34Z</time>
      </trkpt>
      <trkpt lat="45.04672" lon="4.7769">
        <ele>340.2</ele>
        <time>2026-05-03T07:06:39Z</time>
      </trkpt>
      <trkpt lat="45.04674" lon="4.77694">
        <ele>340.8</ele>
        <time>2026-05-03T07:06:44Z</time>
      </trkpt>
      <trkpt lat="45.04677" lon="4.77699">
        <ele>341.4</ele>
        <time>2026-05-03T07:06:49Z</time>
      </trkpt>
      <trkpt lat="45.0468" lon="4.77703">
        <ele>341.7</ele>
        <time>2026-05-03T07:06:54Z</time>
      </trkpt>
      <trkpt lat="45.04682" lon="4.77707">
        <ele>342.3</ele>
        <time>2026-05-03T07:06:59Z</time>
      </trkpt>
      <trkpt lat="45.04684" lon="4.77711">
        <ele>342.8</ele>
        <time>2026-05-03T07:07:04Z</time>
      </trkpt>
      <trkpt lat="45.04687" lon="4.77717">
        <ele>343.7</ele>
        <time>2026-05-03T07:07:09Z</time>
      </trkpt>
      <trkpt lat="45.04688" lon="4.77722">
        <ele>344.7</ele>
        <time>2026-05-03T07:07:14Z</time>
      </trkpt>
      <trkpt lat="45.04689" lon="4.77726">
        <ele>345.5</ele>
        <time>2026-05-03T07:07:19Z</time>
      </trkpt>
      <trkpt lat="45.04691" lon="4.77731">
        <ele>346.3</ele>
        <time>2026-05-03T07:07:24Z</time>
      </trkpt>
      <trkpt lat="45.04691" lon="4.77736">
        <ele>347.6</ele>
        <time>2026-05-03T07:07:29Z</time>
      </trkpt>
      <trkpt lat="45.04691" lon="4.77742">
        <ele>349.2</ele>
        <time>2026-05-03T07:07:34Z</time>
      </trkpt>
      <trkpt lat="45.04692" lon="4.77748">
        <ele>350.5</ele>
        <time>2026-05-03T07:07:39Z</time>
      </trkpt>
      <trkpt lat="45.04693" lon="4.77753">
        <ele>350.9</ele>
        <time>2026-05-03T07:07:44Z</time>
      </trkpt>
      <trkpt lat="45.04691" lon="4.77759">
        <ele>351.7</ele>
        <time>2026-05-03T07:07:49Z</time>
      </trkpt>
      <trkpt lat="45.04689" lon="4.77764">
        <ele>352.4</ele>
        <time>2026-05-03T07:07:54Z</time>
      </trkpt>
      <trkpt lat="45.04685" lon="4.77766">
        <ele>353.6</ele>
        <time>2026-05-03T07:07:59Z</time>
      </trkpt>
      <trkpt lat="45.04682" lon="4.77767">
        <ele>354.4</ele>
        <time>2026-05-03T07:08:04Z</time>
      </trkpt>
      <trkpt lat="45.04678" lon="4.77769">
        <ele>355.5</ele>
        <time>2026-05-03T07:08:09Z</time>
      </trkpt>
      <trkpt lat="45.04673" lon="4.77771">
        <ele>356.9</ele>
        <time>2026-05-03T07:08:14Z</time>
      </trkpt>
      <trkpt lat="45.04669" lon="4.77773">
        <ele>358</ele>
        <time>2026-05-03T07:08:19Z</time>
      </trkpt>
      <trkpt lat="45.04665" lon="4.77774">
        <ele>359</ele>
        <time>2026-05-03T07:08:24Z</time>
      </trkpt>
      <trkpt lat="45.04662" lon="4.77776">
        <ele>359.8</ele>
        <time>2026-05-03T07:08:29Z</time>
      </trkpt>
      <trkpt lat="45.04659" lon="4.77776">
        <ele>360.5</ele>
        <time>2026-05-03T07:08:34Z</time>
      </trkpt>
      <trkpt lat="45.04656" lon="4.7778">
        <ele>361.4</ele>
        <time>2026-05-03T07:08:39Z</time>
      </trkpt>
      <trkpt lat="45.04653" lon="4.77782">
        <ele>362.2</ele>
        <time>2026-05-03T07:08:44Z</time>
      </trkpt>
      <trkpt lat="45.04649" lon="4.77784">
        <ele>363.3</ele>
        <time>2026-05-03T07:08:49Z</time>
      </trkpt>
      <trkpt lat="45.04646" lon="4.77787">
        <ele>364.2</ele>
        <time>2026-05-03T07:08:54Z</time>
      </trkpt>
      <trkpt lat="45.04644" lon="4.77787">
        <ele>364.8</ele>
        <time>2026-05-03T07:08:59Z</time>
      </trkpt>
      <trkpt lat="45.04643" lon="4.77789">
        <ele>365.1</ele>
        <time>2026-05-03T07:09:04Z</time>
      </trkpt>
      <trkpt lat="45.04639" lon="4.77793">
        <ele>366.4</ele>
        <time>2026-05-03T07:09:09Z</time>
      </trkpt>
      <trkpt lat="45.04636" lon="4.77795">
        <ele>367.3</ele>
        <time>2026-05-03T07:09:14Z</time>
      </trkpt>
      <trkpt lat="45.04632" lon="4.77795">
        <ele>368.4</ele>
        <time>2026-05-03T07:09:19Z</time>
      </trkpt>
      <trkpt lat="45.04628" lon="4.77798">
        <ele>369.6</ele>
        <time>2026-05-03T07:09:24Z</time>
      </trkpt>
      <trkpt lat="45.04624" lon="4.77799">
        <ele>370.8</ele>
        <time>2026-05-03T07:09:29Z</time>
      </trkpt>
      <trkpt lat="45.04622" lon="4.77804">
        <ele>371.7</ele>
        <time>2026-05-03T07:09:34Z</time>
      </trkpt>
      <trkpt lat="45.04619" lon="4.77808">
        <ele>372.9</ele>
        <time>2026-05-03T07:09:39Z</time>
      </trkpt>
      <trkpt lat="45.04615" lon="4.77812">
        <ele>374.3</ele>
        <time>2026-05-03T07:09:44Z</time>
      </trkpt>
      <trkpt lat="45.04613" lon="4.77816">
        <ele>375.3</ele>
        <time>2026-05-03T07:09:49Z</time>
      </trkpt>
      <trkpt lat="45.0461" lon="4.77816">
        <ele>376.1</ele>
        <time>2026-05-03T07:09:54Z</time>
      </trkpt>
      <trkpt lat="45.0461" lon="4.77816">
        <ele>376.1</ele>
        <time>2026-05-03T07:09:59Z</time>
      </trkpt>
      <trkpt lat="45.0461" lon="4.77816">
        <ele>376.1</ele>
        <time>2026-05-03T07:10:04Z</time>
      </trkpt>
      <trkpt lat="45.0461" lon="4.77816">
        <ele>376.1</ele>
        <time>2026-05-03T07:10:09Z</time>
      </trkpt>
      <trkpt lat="45.0461" lon="4.77816">
        <ele>376.1</ele>
        <time>2026-05-03T07:10:14Z</time>
      </trkpt>
      <trkpt lat="45.0461" lon="4.77816">
        <ele>376.1</ele>
        <time>2026-05-03T07:10:19Z</time>
      </trkpt>
      <trkpt lat="45.0461" lon="4.77816">
        <ele>376.1</ele>
        <time>2026-05-03T07:10:24Z</time>
      </trkpt>
      <trkpt lat="45.04607" lon="4.77804">
        <ele>375.9</ele>
        <time>2026-05-03T07:10:29Z</time>
      </trkpt>
      <trkpt lat="45.0461" lon="4.77797">
        <ele>374.4</ele>
        <time>2026-05-03T07:10:34Z</time>
      </trkpt>
      <trkpt lat="45.04612" lon="4.77791">
        <ele>373.4</ele>
        <time>2026-05-03T07:10:39Z</time>
      </trkpt>
      <trkpt lat="45.04615" lon="4.77786">
        <ele>372.2</ele>
        <time>2026-05-03T07:10:44Z</time>
      </trkpt>
      <trkpt lat="45.04616" lon="4.77781">
        <ele>371.5</ele>
        <time>2026-05-03T07:10:49Z</time>
      </trkpt>
      <trkpt lat="45.04618" lon="4.77776">
        <ele>370.6</ele>
        <time>2026-05-03T07:10:54Z</time>
      </trkpt>
      <trkpt lat="45.04619" lon="4.77773">
        <ele>370.1</ele>
        <time>2026-05-03T07:10:59Z</time>
      </trkpt>
      <trkpt lat="45.04617" lon="4.77768">
        <ele>370.2</ele>
        <time>2026-05-03T07:11:04Z</time>
      </trkpt>
      <trkpt lat="45.04615" lon="4.77764">
        <ele>370.3</ele>
        <time>2026-05-03T07:11:09Z</time>
      </trkpt>
      <trkpt lat="45.04612" lon="4.77761">
        <ele>370.8</ele>
        <time>2026-05-03T07:11:14Z</time>
      </trkpt>
      <trkpt lat="45.04609" lon="4.77762">
        <ele>371.5</ele>
        <time>2026-05-03T07:11:19Z</time>
      </trkpt>
      <trkpt lat="45.04605" lon="4.77764">
        <ele>372.7</ele>
        <time>2026-05-03T07:11:24Z</time>
      </trkpt>
      <trkpt lat="45.04603" lon="4.77764">
        <ele>373.1</ele>
        <time>2026-05-03T07:11:29Z</time>
      </trkpt>
      <trkpt lat="45.046" lon="4.77763">
        <ele>373.7</ele>
        <time>2026-05-03T07:11:34Z</time>
      </trkpt>
      <trkpt lat="45.04599" lon="4.77763">
        <ele>373.9</ele>
        <time>2026-05-03T07:11:39Z</time>
      </trkpt>
      <trkpt lat="45.04599" lon="4.77763">
        <ele>373.9</ele>
        <time>2026-05-03T07:11:44Z</time>
      </trkpt>
      <trkpt lat="45.04594" lon="4.77761">
        <ele>374.9</ele>
        <time>2026-05-03T07:11:49Z</time>
      </trkpt>
      <trkpt lat="45.04594" lon="4.77761">
        <ele>374.9</ele>
        <time>2026-05-03T07:11:54Z</time>
      </trkpt>
      <trkpt lat="45.04587" lon="4.77763">
        <ele>376.7</ele>
        <time>2026-05-03T07:11:59Z</time>
      </trkpt>
      <trkpt lat="45.04585" lon="4.77762">
        <ele>377.1</ele>
        <time>2026-05-03T07:12:04Z</time>
      </trkpt>
      <trkpt lat="45.04585" lon="4.77762">
        <ele>377.1</ele>
        <time>2026-05-03T07:12:09Z</time>
      </trkpt>
      <trkpt lat="45.04585" lon="4.77762">
        <ele>377.1</ele>
        <time>2026-05-03T07:12:14Z</time>
      </trkpt>
      <trkpt lat="45.04585" lon="4.77762">
        <ele>377.1</ele>
        <time>2026-05-03T07:12:19Z</time>
      </trkpt>
      <trkpt lat="45.04575" lon="4.77759">
        <ele>378.8</ele>
        <time>2026-05-03T07:12:24Z</time>
      </trkpt>
      <trkpt lat="45.04575" lon="4.77759">
        <ele>378.8</ele>
        <time>2026-05-03T07:12:29Z</time>
      </trkpt>
      <trkpt lat="45.04575" lon="4.77759">
        <ele>378.8</ele>
        <time>2026-05-03T07:12:34Z</time>
      </trkpt>
      <trkpt lat="45.04575" lon="4.77759">
        <ele>378.8</ele>
        <time>2026-05-03T07:12:39Z</time>
      </trkpt>
      <trkpt lat="45.04564" lon="4.7776">
        <ele>381.2</ele>
        <time>2026-05-03T07:12:44Z</time>
      </trkpt>
      <trkpt lat="45.04561" lon="4.7776">
        <ele>381.9</ele>
        <time>2026-05-03T07:12:49Z</time>
      </trkpt>
      <trkpt lat="45.04559" lon="4.7776">
        <ele>382.3</ele>
        <time>2026-05-03T07:12:54Z</time>
      </trkpt>
      <trkpt lat="45.04555" lon="4.77759">
        <ele>383</ele>
        <time>2026-05-03T07:12:59Z</time>
      </trkpt>
      <trkpt lat="45.04551" lon="4.77758">
        <ele>383.7</ele>
        <time>2026-05-03T07:13:04Z</time>
      </trkpt>
      <trkpt lat="45.04548" lon="4.77759">
        <ele>384.4</ele>
        <time>2026-05-03T07:13:09Z</time>
      </trkpt>
      <trkpt lat="45.04547" lon="4.7776">
        <ele>384.8</ele>
        <time>2026-05-03T07:13:14Z</time>
      </trkpt>
      <trkpt lat="45.04547" lon="4.7776">
        <ele>384.8</ele>
        <time>2026-05-03T07:13:19Z</time>
      </trkpt>
      <trkpt lat="45.0454" lon="4.77759">
        <ele>386.1</ele>
        <time>2026-05-03T07:13:24Z</time>
      </trkpt>
      <trkpt lat="45.04537" lon="4.77761">
        <ele>387</ele>
        <time>2026-05-03T07:13:29Z</time>
      </trkpt>
      <trkpt lat="45.04534" lon="4.77762">
        <ele>387.8</ele>
        <time>2026-05-03T07:13:34Z</time>
      </trkpt>
      <trkpt lat="45.04532" lon="4.77762">
        <ele>388.2</ele>
        <time>2026-05-03T07:13:39Z</time>
      </trkpt>
      <trkpt lat="45.04528" lon="4.77762">
        <ele>389</ele>
        <time>2026-05-03T07:13:44Z</time>
      </trkpt>
      <trkpt lat="45.04524" lon="4.77762">
        <ele>389.9</ele>
        <time>2026-05-03T07:13:49Z</time>
      </trkpt>
      <trkpt lat="45.04522" lon="4.77761">
        <ele>390.1</ele>
        <time>2026-05-03T07:13:54Z</time>
      </trkpt>
      <trkpt lat="45.04522" lon="4.77763">
        <ele>390.4</ele>
        <time>2026-05-03T07:13:59Z</time>
      </trkpt>
      <trkpt lat="45.04523" lon="4.7777">
        <ele>391.2</ele>
        <time>2026-05-03T07:14:04Z</time>
      </trkpt>
      <trkpt lat="45.04524" lon="4.77775">
        <ele>391.7</ele>
        <time>2026-05-03T07:14:09Z</time>
      </trkpt>
      <trkpt lat="45.04526" lon="4.77779">
        <ele>391.9</ele>
        <time>2026-05-03T07:14:14Z</time>
      </trkpt>
      <trkpt lat="45.04527" lon="4.77783">
        <ele>392.3</ele>
        <time>2026-05-03T07:14:19Z</time>
      </trkpt>
      <trkpt lat="45.04529" lon="4.77788">
        <ele>392.5</ele>
        <time>2026-05-03T07:14:24Z</time>
      </trkpt>
      <trkpt lat="45.04528" lon="4.77792">
        <ele>393.3</ele>
        <time>2026-05-03T07:14:29Z</time>
      </trkpt>
      <trkpt lat="45.04526" lon="4.77797">
        <ele>394.5</ele>
        <time>2026-05-03T07:14:34Z</time>
      </trkpt>
      <trkpt lat="45.04526" lon="4.778">
        <ele>394.9</ele>
        <time>2026-05-03T07:14:39Z</time>
      </trkpt>
      <trkpt lat="45.04523" lon="4.77804">
        <ele>396.2</ele>
        <time>2026-05-03T07:14:44Z</time>
      </trkpt>
      <trkpt lat="45.04521" lon="4.77809">
        <ele>397.4</ele>
        <time>2026-05-03T07:14:49Z</time>
      </trkpt>
      <trkpt lat="45.04518" lon="4.7781">
        <ele>398.2</ele>
        <time>2026-05-03T07:14:54Z</time>
      </trkpt>
      <trkpt lat="45.04517" lon="4.77813">
        <ele>398.9</ele>
        <time>2026-05-03T07:14:59Z</time>
      </trkpt>
      <trkpt lat="45.04514" lon="4.77816">
        <ele>400</ele>
        <time>2026-05-03T07:15:04Z</time>
      </trkpt>
      <trkpt lat="45.04511" lon="4.77818">
        <ele>401</ele>
        <time>2026-05-03T07:15:09Z</time>
      </trkpt>
      <trkpt lat="45.04509" lon="4.77821">
        <ele>402</ele>
        <time>2026-05-03T07:15:14Z</time>
      </trkpt>
      <trkpt lat="45.04505" lon="4.77822">
        <ele>403.1</ele>
        <time>2026-05-03T07:15:19Z</time>
      </trkpt>
      <trkpt lat="45.04502" lon="4.77821">
        <ele>403.6</ele>
        <time>2026-05-03T07:15:24Z</time>
      </trkpt>
      <trkpt lat="45.04498" lon="4.77819">
        <ele>404.1</ele>
        <time>2026-05-03T07:15:29Z</time>
      </trkpt>
      <trkpt lat="45.04496" lon="4.77816">
        <ele>403.9</ele>
        <time>2026-05-03T07:15:34Z</time>
      </trkpt>
      <trkpt lat="45.04493" lon="4.77816">
        <ele>404.4</ele>
        <time>2026-05-03T07:15:39Z</time>
      </trkpt>
      <trkpt lat="45.0449" lon="4.77818">
        <ele>405.1</ele>
        <time>2026-05-03T07:15:44Z</time>
      </trkpt>
      <trkpt lat="45.04489" lon="4.77822">
        <ele>405.9</ele>
        <time>2026-05-03T07:15:49Z</time>
      </trkpt>
      <trkpt lat="45.04487" lon="4.77827">
        <ele>407</ele>
        <time>2026-05-03T07:15:54Z</time>
      </trkpt>
      <trkpt lat="45.04485" lon="4.77829">
        <ele>407.6</ele>
        <time>2026-05-03T07:15:59Z</time>
      </trkpt>
      <trkpt lat="45.04482" lon="4.7783">
        <ele>408.3</ele>
        <time>2026-05-03T07:16:04Z</time>
      </trkpt>
      <trkpt lat="45.04479" lon="4.77833">
        <ele>409.2</ele>
        <time>2026-05-03T07:16:09Z</time>
      </trkpt>
      <trkpt lat="45.04476" lon="4.77833">
        <ele>409.7</ele>
        <time>2026-05-03T07:16:14Z</time>
      </trkpt>
      <trkpt lat="45.04472" lon="4.77834">
        <ele>410.3</ele>
        <time>2026-05-03T07:16:19Z</time>
      </trkpt>
      <trkpt lat="45.04469" lon="4.77833">
        <ele>410.8</ele>
        <time>2026-05-03T07:16:24Z</time>
      </trkpt>
      <trkpt lat="45.04466" lon="4.77835">
        <ele>411.1</ele>
        <time>2026-05-03T07:16:29Z</time>
      </trkpt>
      <trkpt lat="45.04463" lon="4.77833">
        <ele>411.7</ele>
        <time>2026-05-03T07:16:34Z</time>
      </trkpt>
      <trkpt lat="45.04463" lon="4.77833">
        <ele>411.7</ele>
        <time>2026-05-03T07:16:39Z</time>
      </trkpt>
      <trkpt lat="45.04463" lon="4.77833">
        <ele>411.7</ele>
        <time>2026-05-03T07:16:44Z</time>
      </trkpt>
      <trkpt lat="45.04456" lon="4.77834">
        <ele>412.8</ele>
        <time>2026-05-03T07:16:49Z</time>
      </trkpt>
      <trkpt lat="45.04453" lon="4.77832">
        <ele>413.1</ele>
        <time>2026-05-03T07:16:54Z</time>
      </trkpt>
      <trkpt lat="45.0445" lon="4.77832">
        <ele>413.6</ele>
        <time>2026-05-03T07:16:59Z</time>
      </trkpt>
      <trkpt lat="45.04446" lon="4.77835">
        <ele>414.2</ele>
        <time>2026-05-03T07:17:04Z</time>
      </trkpt>
      <trkpt lat="45.04443" lon="4.77834">
        <ele>414.8</ele>
        <time>2026-05-03T07:17:09Z</time>
      </trkpt>
      <trkpt lat="45.0444" lon="4.77834">
        <ele>415.3</ele>
        <time>2026-05-03T07:17:14Z</time>
      </trkpt>
      <trkpt lat="45.04438" lon="4.77835">
        <ele>415.5</ele>
        <time>2026-05-03T07:17:19Z</time>
      </trkpt>
      <trkpt lat="45.04435" lon="4.77837">
        <ele>415.7</ele>
        <time>2026-05-03T07:17:24Z</time>
      </trkpt>
      <trkpt lat="45.04431" lon="4.77837">
        <ele>416.4</ele>
        <time>2026-05-03T07:17:29Z</time>
      </trkpt>
      <trkpt lat="45.04428" lon="4.77836">
        <ele>416.9</ele>
        <time>2026-05-03T07:17:34Z</time>
      </trkpt>
      <trkpt lat="45.04425" lon="4.77837">
        <ele>417.3</ele>
        <time>2026-05-03T07:17:39Z</time>
      </trkpt>
      <trkpt lat="45.04421" lon="4.77836">
        <ele>418</ele>
        <time>2026-05-03T07:17:44Z</time>
      </trkpt>
      <trkpt lat="45.04415" lon="4.77836">
        <ele>418.9</ele>
        <time>2026-05-03T07:17:49Z</time>
      </trkpt>
      <trkpt lat="45.04412" lon="4.77834">
        <ele>419.4</ele>
        <time>2026-05-03T07:17:54Z</time>
      </trkpt>
      <trkpt lat="45.04408" lon="4.77835">
        <ele>419.7</ele>
        <time>2026-05-03T07:17:59Z</time>
      </trkpt>
      <trkpt lat="45.04405" lon="4.77836">
        <ele>419.8</ele>
        <time>2026-05-03T07:18:04Z</time>
      </trkpt>
      <trkpt lat="45.04401" lon="4.77837">
        <ele>420.1</ele>
        <time>2026-05-03T07:18:09Z</time>
      </trkpt>
      <trkpt lat="45.04395" lon="4.77837">
        <ele>420.7</ele>
        <time>2026-05-03T07:18:14Z</time>
      </trkpt>
      <trkpt lat="45.04392" lon="4.77837">
        <ele>421</ele>
        <time>2026-05-03T07:18:19Z</time>
      </trkpt>
      <trkpt lat="45.04387" lon="4.77836">
        <ele>421.6</ele>
        <time>2026-05-03T07:18:24Z</time>
      </trkpt>
      <trkpt lat="45.04383" lon="4.77836">
        <ele>422</ele>
        <time>2026-05-03T07:18:29Z</time>
      </trkpt>
      <trkpt lat="45.04379" lon="4.77835">
        <ele>422.4</ele>
        <time>2026-05-03T07:18:34Z</time>
      </trkpt>
      <trkpt lat="45.04375" lon="4.77834">
        <ele>422.9</ele>
        <time>2026-05-03T07:18:39Z</time>
      </trkpt>
      <trkpt lat="45.04371" lon="4.77834">
        <ele>423.3</ele>
        <time>2026-05-03T07:18:44Z</time>
      </trkpt>
      <trkpt lat="45.04366" lon="4.77833">
        <ele>423.8</ele>
        <time>2026-05-03T07:18:49Z</time>
      </trkpt>
      <trkpt lat="45.04361" lon="4.77831">
        <ele>424</ele>
        <time>2026-05-03T07:18:54Z</time>
      </trkpt>
      <trkpt lat="45.04357" lon="4.7783">
        <ele>424.2</ele>
        <time>2026-05-03T07:18:59Z</time>
      </trkpt>
      <trkpt lat="45.04352" lon="4.77829">
        <ele>424.5</ele>
        <time>2026-05-03T07:19:04Z</time>
      </trkpt>
      <trkpt lat="45.04347" lon="4.77828">
        <ele>424.8</ele>
        <time>2026-05-03T07:19:09Z</time>
      </trkpt>
      <trkpt lat="45.04343" lon="4.77828">
        <ele>425.2</ele>
        <time>2026-05-03T07:19:14Z</time>
      </trkpt>
      <trkpt lat="45.04339" lon="4.77828">
        <ele>425.6</ele>
        <time>2026-05-03T07:19:19Z</time>
      </trkpt>
      <trkpt lat="45.04334" lon="4.77827">
        <ele>425.9</ele>
        <time>2026-05-03T07:19:24Z</time>
      </trkpt>
      <trkpt lat="45.04332" lon="4.77827">
        <ele>426.1</ele>
        <time>2026-05-03T07:19:29Z</time>
      </trkpt>
      <trkpt lat="45.04332" lon="4.77827">
        <ele>426.1</ele>
        <time>2026-05-03T07:19:34Z</time>
      </trkpt>
      <trkpt lat="45.04332" lon="4.77827">
        <ele>426.1</ele>
        <time>2026-05-03T07:19:39Z</time>
      </trkpt>
      <trkpt lat="45.04327" lon="4.77828">
        <ele>426.5</ele>
        <time>2026-05-03T07:19:44Z</time>
      </trkpt>
      <trkpt lat="45.04323" lon="4.77828">
        <ele>426.7</ele>
        <time>2026-05-03T07:19:49Z</time>
      </trkpt>
      <trkpt lat="45.04321" lon="4.77828">
        <ele>426.8</ele>
        <time>2026-05-03T07:19:54Z</time>
      </trkpt>
      <trkpt lat="45.04315" lon="4.77829">
        <ele>427.2</ele>
        <time>2026-05-03T07:19:59Z</time>
      </trkpt>
      <trkpt lat="45.0431" lon="4.77829">
        <ele>427.5</ele>
        <time>2026-05-03T07:20:04Z</time>
      </trkpt>
      <trkpt lat="45.04305" lon="4.77827">
        <ele>427.4</ele>
        <time>2026-05-03T07:20:09Z</time>
      </trkpt>
      <trkpt lat="45.043" lon="4.77826">
        <ele>427.5</ele>
        <time>2026-05-03T07:20:14Z</time>
      </trkpt>
      <trkpt lat="45.04296" lon="4.77826">
        <ele>427.7</ele>
        <time>2026-05-03T07:20:19Z</time>
      </trkpt>
      <trkpt lat="45.04293" lon="4.77827">
        <ele>428</ele>
        <time>2026-05-03T07:20:24Z</time>
      </trkpt>
      <trkpt lat="45.04288" lon="4.77827">
        <ele>428.3</ele>
        <time>2026-05-03T07:20:29Z</time>
      </trkpt>
      <trkpt lat="45.04283" lon="4.77828">
        <ele>428.7</ele>
        <time>2026-05-03T07:20:34Z</time>
      </trkpt>
      <trkpt lat="45.04277" lon="4.7783">
        <ele>429.2</ele>
        <time>2026-05-03T07:20:39Z</time>
      </trkpt>
      <trkpt lat="45.04273" lon="4.77831">
        <ele>429.6</ele>
        <time>2026-05-03T07:20:44Z</time>
      </trkpt>
      <trkpt lat="45.04267" lon="4.77832">
        <ele>430</ele>
        <time>2026-05-03T07:20:49Z</time>
      </trkpt>
      <trkpt lat="45.04263" lon="4.77832">
        <ele>430.2</ele>
        <time>2026-05-03T07:20:54Z</time>
      </trkpt>
      <trkpt lat="45.04257" lon="4.77831">
        <ele>430.4</ele>
        <time>2026-05-03T07:20:59Z</time>
      </trkpt>
      <trkpt lat="45.04252" lon="4.77829">
        <ele>430.3</ele>
        <time>2026-05-03T07:21:04Z</time>
      </trkpt>
      <trkpt lat="45.04247" lon="4.77828">
        <ele>430.5</ele>
        <time>2026-05-03T07:21:09Z</time>
      </trkpt>
      <trkpt lat="45.0424" lon="4.77828">
        <ele>430.9</ele>
        <time>2026-05-03T07:21:14Z</time>
      </trkpt>
      <trkpt lat="45.04235" lon="4.77829">
        <ele>431.3</ele>
        <time>2026-05-03T07:21:19Z</time>
      </trkpt>
      <trkpt lat="45.0423" lon="4.77829">
        <ele>431.6</ele>
        <time>2026-05-03T07:21:24Z</time>
      </trkpt>
      <trkpt lat="45.04224" lon="4.77829">
        <ele>432</ele>
        <time>2026-05-03T07:21:29Z</time>
      </trkpt>
      <trkpt lat="45.04218" lon="4.77829">
        <ele>432.3</ele>
        <time>2026-05-03T07:21:34Z</time>
      </trkpt>
      <trkpt lat="45.04212" lon="4.77828">
        <ele>432.5</ele>
        <time>2026-05-03T07:21:39Z</time>
      </trkpt>
      <trkpt lat="45.04207" lon="4.77828">
        <ele>432.8</ele>
        <time>2026-05-03T07:21:44Z</time>
      </trkpt>
      <trkpt lat="45.04199" lon="4.77828">
        <ele>433.3</ele>
        <time>2026-05-03T07:21:49Z</time>
      </trkpt>
      <trkpt lat="45.04194" lon="4.77826">
        <ele>433.3</ele>
        <time>2026-05-03T07:21:54Z</time>
      </trkpt>
      <trkpt lat="45.04187" lon="4.77826">
        <ele>433.7</ele>
        <time>2026-05-03T07:21:59Z</time>
      </trkpt>
      <trkpt lat="45.0418" lon="4.77824">
        <ele>433.8</ele>
        <time>2026-05-03T07:22:04Z</time>
      </trkpt>
      <trkpt lat="45.04174" lon="4.77823">
        <ele>434</ele>
        <time>2026-05-03T07:22:09Z</time>
      </trkpt>
      <trkpt lat="45.04168" lon="4.77822">
        <ele>434.2</ele>
        <time>2026-05-03T07:22:14Z</time>
      </trkpt>
      <trkpt lat="45.04162" lon="4.77821">
        <ele>434.6</ele>
        <time>2026-05-03T07:22:19Z</time>
      </trkpt>
      <trkpt lat="45.04155" lon="4.77819">
        <ele>435.1</ele>
        <time>2026-05-03T07:22:24Z</time>
      </trkpt>
      <trkpt lat="45.04149" lon="4.77817">
        <ele>435.5</ele>
        <time>2026-05-03T07:22:29Z</time>
      </trkpt>
      <trkpt lat="45.04143" lon="4.77816">
        <ele>436.1</ele>
        <time>2026-05-03T07:22:34Z</time>
      </trkpt>
      <trkpt lat="45.04137" lon="4.77813">
        <ele>436.3</ele>
        <time>2026-05-03T07:22:39Z</time>
      </trkpt>
      <trkpt lat="45.04132" lon="4.77814">
        <ele>437</ele>
        <time>2026-05-03T07:22:44Z</time>
      </trkpt>
      <trkpt lat="45.04125" lon="4.77812">
        <ele>437.5</ele>
        <time>2026-05-03T07:22:49Z</time>
      </trkpt>
      <trkpt lat="45.04118" lon="4.77813">
        <ele>438.5</ele>
        <time>2026-05-03T07:22:54Z</time>
      </trkpt>
      <trkpt lat="45.04112" lon="4.77812">
        <ele>439.1</ele>
        <time>2026-05-03T07:22:59Z</time>
      </trkpt>
      <trkpt lat="45.04105" lon="4.77811">
        <ele>439.7</ele>
        <time>2026-05-03T07:23:04Z</time>
      </trkpt>
      <trkpt lat="45.04099" lon="4.77811">
        <ele>440.4</ele>
        <time>2026-05-03T07:23:09Z</time>
      </trkpt>
      <trkpt lat="45.04092" lon="4.77811">
        <ele>441.2</ele>
        <time>2026-05-03T07:23:14Z</time>
      </trkpt>
      <trkpt lat="45.04086" lon="4.77812">
        <ele>442.1</ele>
        <time>2026-05-03T07:23:19Z</time>
      </trkpt>
      <trkpt lat="45.04079" lon="4.77812">
        <ele>443</ele>
        <time>2026-05-03T07:23:24Z</time>
      </trkpt>
      <trkpt lat="45.04074" lon="4.77813">
        <ele>443.8</ele>
        <time>2026-05-03T07:23:29Z</time>
      </trkpt>
      <trkpt lat="45.04068" lon="4.77815">
        <ele>444.9</ele>
        <time>2026-05-03T07:23:34Z</time>
      </trkpt>
      <trkpt lat="45.04063" lon="4.77817">
        <ele>445.8</ele>
        <time>2026-05-03T07:23:39Z</time>
      </trkpt>
      <trkpt lat="45.04058" lon="4.7782">
        <ele>446.9</ele>
        <time>2026-05-03T07:23:44Z</time>
      </trkpt>
      <trkpt lat="45.04052" lon="4.77823">
        <ele>448.2</ele>
        <time>2026-05-03T07:23:49Z</time>
      </trkpt>
      <trkpt lat="45.04047" lon="4.77824">
        <ele>448.9</ele>
        <time>2026-05-03T07:23:54Z</time>
      </trkpt>
      <trkpt lat="45.04042" lon="4.77826">
        <ele>449.9</ele>
        <time>2026-05-03T07:23:59Z</time>
      </trkpt>
      <trkpt lat="45.04037" lon="4.77827">
        <ele>450.6</ele>
        <time>2026-05-03T07:24:04Z</time>
      </trkpt>
      <trkpt lat="45.04034" lon="4.77827">
        <ele>451</ele>
        <time>2026-05-03T07:24:09Z</time>
      </trkpt>
      <trkpt lat="45.04031" lon="4.77826">
        <ele>451.2</ele>
        <time>2026-05-03T07:24:14Z</time>
      </trkpt>
      <trkpt lat="45.04029" lon="4.77829">
        <ele>451.9</ele>
        <time>2026-05-03T07:24:19Z</time>
      </trkpt>
      <trkpt lat="45.04027" lon="4.77829">
        <ele>452.1</ele>
        <time>2026-05-03T07:24:24Z</time>
      </trkpt>
      <trkpt lat="45.04022" lon="4.7783">
        <ele>452.9</ele>
        <time>2026-05-03T07:24:29Z</time>
      </trkpt>
      <trkpt lat="45.04017" lon="4.77829">
        <ele>453.4</ele>
        <time>2026-05-03T07:24:34Z</time>
      </trkpt>
      <trkpt lat="45.04013" lon="4.77828">
        <ele>453.7</ele>
        <time>2026-05-03T07:24:39Z</time>
      </trkpt>
      <trkpt lat="45.04008" lon="4.77827">
        <ele>454.2</ele>
        <time>2026-05-03T07:24:44Z</time>
      </trkpt>
      <trkpt lat="45.04004" lon="4.77827">
        <ele>454.7</ele>
        <time>2026-05-03T07:24:49Z</time>
      </trkpt>
      <trkpt lat="45.03999" lon="4.77824">
        <ele>454.9</ele>
        <time>2026-05-03T07:24:54Z</time>
      </trkpt>
      <trkpt lat="45.03995" lon="4.77818">
        <ele>454.4</ele>
        <time>2026-05-03T07:24:59Z</time>
      </trkpt>
      <trkpt lat="45.03993" lon="4.7781">
        <ele>453.5</ele>
        <time>2026-05-03T07:25:04Z</time>
      </trkpt>
      <trkpt lat="45.03994" lon="4.77808">
        <ele>453.2</ele>
        <time>2026-05-03T07:25:09Z</time>
      </trkpt>
      <trkpt lat="45.03993" lon="4.77807">
        <ele>453.1</ele>
        <time>2026-05-03T07:25:14Z</time>
      </trkpt>
      <trkpt lat="45.03988" lon="4.77801">
        <ele>452.7</ele>
        <time>2026-05-03T07:25:19Z</time>
      </trkpt>
      <trkpt lat="45.03982" lon="4.77795">
        <ele>452.5</ele>
        <time>2026-05-03T07:25:24Z</time>
      </trkpt>
      <trkpt lat="45.03976" lon="4.77791">
        <ele>452.4</ele>
        <time>2026-05-03T07:25:29Z</time>
      </trkpt>
      <trkpt lat="45.0397" lon="4.77788">
        <ele>452.5</ele>
        <time>2026-05-03T07:25:34Z</time>
      </trkpt>
      <trkpt lat="45.03964" lon="4.77784">
        <ele>452.5</ele>
        <time>2026-05-03T07:25:39Z</time>
      </trkpt>
      <trkpt lat="45.03958" lon="4.77783">
        <ele>452.9</ele>
        <time>2026-05-03T07:25:44Z</time>
      </trkpt>
      <trkpt lat="45.03951" lon="4.77782">
        <ele>453.3</ele>
        <time>2026-05-03T07:25:49Z</time>
      </trkpt>
      <trkpt lat="45.03944" lon="4.77777">
        <ele>453.3</ele>
        <time>2026-05-03T07:25:54Z</time>
      </trkpt>
      <trkpt lat="45.03938" lon="4.77775">
        <ele>453.5</ele>
        <time>2026-05-03T07:25:59Z</time>
      </trkpt>
      <trkpt lat="45.03934" lon="4.77769">
        <ele>453.1</ele>
        <time>2026-05-03T07:26:04Z</time>
      </trkpt>
      <trkpt lat="45.03932" lon="4.77761">
        <ele>452.2</ele>
        <time>2026-05-03T07:26:09Z</time>
      </trkpt>
      <trkpt lat="45.03931" lon="4.7775">
        <ele>450.8</ele>
        <time>2026-05-03T07:26:14Z</time>
      </trkpt>
      <trkpt lat="45.03931" lon="4.7774">
        <ele>449.4</ele>
        <time>2026-05-03T07:26:19Z</time>
      </trkpt>
      <trkpt lat="45.03929" lon="4.77731">
        <ele>448.2</ele>
        <time>2026-05-03T07:26:24Z</time>
      </trkpt>
      <trkpt lat="45.03925" lon="4.77723">
        <ele>447.4</ele>
        <time>2026-05-03T07:26:29Z</time>
      </trkpt>
      <trkpt lat="45.03919" lon="4.77716">
        <ele>446.9</ele>
        <time>2026-05-03T07:26:34Z</time>
      </trkpt>
      <trkpt lat="45.03915" lon="4.77709">
        <ele>446.2</ele>
        <time>2026-05-03T07:26:39Z</time>
      </trkpt>
      <trkpt lat="45.03911" lon="4.77699">
        <ele>445.1</ele>
        <time>2026-05-03T07:26:44Z</time>
      </trkpt>
      <trkpt lat="45.03908" lon="4.77688">
        <ele>443.7</ele>
        <time>2026-05-03T07:26:49Z</time>
      </trkpt>
      <trkpt lat="45.03908" lon="4.77679">
        <ele>442.5</ele>
        <time>2026-05-03T07:26:54Z</time>
      </trkpt>
      <trkpt lat="45.0391" lon="4.7767">
        <ele>441</ele>
        <time>2026-05-03T07:26:59Z</time>
      </trkpt>
      <trkpt lat="45.03912" lon="4.7766">
        <ele>439.4</ele>
        <time>2026-05-03T07:27:04Z</time>
      </trkpt>
      <trkpt lat="45.03915" lon="4.77658">
        <ele>438.9</ele>
        <time>2026-05-03T07:27:09Z</time>
      </trkpt>
      <trkpt lat="45.03916" lon="4.77658">
        <ele>438.8</ele>
        <time>2026-05-03T07:27:14Z</time>
      </trkpt>
      <trkpt lat="45.03916" lon="4.77658">
        <ele>438.8</ele>
        <time>2026-05-03T07:27:19Z</time>
      </trkpt>
      <trkpt lat="45.03916" lon="4.77658">
        <ele>438.8</ele>
        <time>2026-05-03T07:27:24Z</time>
      </trkpt>
      <trkpt lat="45.03916" lon="4.77658">
        <ele>438.8</ele>
        <time>2026-05-03T07:27:29Z</time>
      </trkpt>
      <trkpt lat="45.03916" lon="4.77655">
        <ele>438.4</ele>
        <time>2026-05-03T07:27:34Z</time>
      </trkpt>
      <trkpt lat="45.03916" lon="4.77648">
        <ele>437.4</ele>
        <time>2026-05-03T07:27:39Z</time>
      </trkpt>
      <trkpt lat="45.03918" lon="4.7764">
        <ele>436.1</ele>
        <time>2026-05-03T07:27:44Z</time>
      </trkpt>
      <trkpt lat="45.03919" lon="4.77632">
        <ele>434.8</ele>
        <time>2026-05-03T07:27:49Z</time>
      </trkpt>
      <trkpt lat="45.03919" lon="4.77627">
        <ele>434.1</ele>
        <time>2026-05-03T07:27:54Z</time>
      </trkpt>
      <trkpt lat="45.03919" lon="4.77623">
        <ele>433.5</ele>
        <time>2026-05-03T07:27:59Z</time>
      </trkpt>
      <trkpt lat="45.03919" lon="4.77623">
        <ele>433.5</ele>
        <time>2026-05-03T07:28:04Z</time>
      </trkpt>
      <trkpt lat="45.03919" lon="4.77623">
        <ele>433.5</ele>
        <time>2026-05-03T07:28:09Z</time>
      </trkpt>
      <trkpt lat="45.03919" lon="4.77623">
        <ele>433.5</ele>
        <time>2026-05-03T07:28:14Z</time>
      </trkpt>
      <trkpt lat="45.03919" lon="4.77623">
        <ele>433.5</ele>
        <time>2026-05-03T07:28:19Z</time>
      </trkpt>
      <trkpt lat="45.03919" lon="4.77623">
        <ele>433.5</ele>
        <time>2026-05-03T07:28:24Z</time>
      </trkpt>
      <trkpt lat="45.03919" lon="4.77623">
        <ele>433.5</ele>
        <time>2026-05-03T07:28:29Z</time>
      </trkpt>
      <trkpt lat="45.03919" lon="4.77623">
        <ele>433.5</ele>
        <time>2026-05-03T07:28:34Z</time>
      </trkpt>
      <trkpt lat="45.03925" lon="4.77617">
        <ele>432.2</ele>
        <time>2026-05-03T07:28:39Z</time>
      </trkpt>
      <trkpt lat="45.03929" lon="4.77612">
        <ele>431.2</ele>
        <time>2026-05-03T07:28:44Z</time>
      </trkpt>
      <trkpt lat="45.0393" lon="4.77603">
        <ele>429.8</ele>
        <time>2026-05-03T07:28:49Z</time>
      </trkpt>
      <trkpt lat="45.03927" lon="4.77595">
        <ele>428.9</ele>
        <time>2026-05-03T07:28:54Z</time>
      </trkpt>
      <trkpt lat="45.03921" lon="4.77588">
        <ele>428.4</ele>
        <time>2026-05-03T07:28:59Z</time>
      </trkpt>
      <trkpt lat="45.03914" lon="4.77584">
        <ele>428.3</ele>
        <time>2026-05-03T07:29:04Z</time>
      </trkpt>
      <trkpt lat="45.03907" lon="4.77583">
        <ele>428.8</ele>
        <time>2026-05-03T07:29:09Z</time>
      </trkpt>
      <trkpt lat="45.03901" lon="4.7758">
        <ele>428.8</ele>
        <time>2026-05-03T07:29:14Z</time>
      </trkpt>
      <trkpt lat="45.03894" lon="4.77579">
        <ele>429.3</ele>
        <time>2026-05-03T07:29:19Z</time>
      </trkpt>
      <trkpt lat="45.03888" lon="4.77576">
        <ele>429.3</ele>
        <time>2026-05-03T07:29:24Z</time>
      </trkpt>
      <trkpt lat="45.03882" lon="4.77568">
        <ele>428.7</ele>
        <time>2026-05-03T07:29:29Z</time>
      </trkpt>
      <trkpt lat="45.03875" lon="4.77564">
        <ele>428.7</ele>
        <time>2026-05-03T07:29:34Z</time>
      </trkpt>
      <trkpt lat="45.03868" lon="4.77558">
        <ele>428.5</ele>
        <time>2026-05-03T07:29:39Z</time>
      </trkpt>
      <trkpt lat="45.03865" lon="4.77556">
        <ele>428.5</ele>
        <time>2026-05-03T07:29:44Z</time>
      </trkpt>
      <trkpt lat="45.03864" lon="4.77556">
        <ele>428.6</ele>
        <time>2026-05-03T07:29:49Z</time>
      </trkpt>
      <trkpt lat="45.03863" lon="4.77556">
        <ele>428.7</ele>
        <time>2026-05-03T07:29:54Z</time>
      </trkpt>
      <trkpt lat="45.03863" lon="4.77556">
        <ele>428.7</ele>
        <time>2026-05-03T07:29:59Z</time>
      </trkpt>
      <trkpt lat="45.03863" lon="4.77556">
        <ele>428.7</ele>
        <time>2026-05-03T07:30:04Z</time>
      </trkpt>
      <trkpt lat="45.03863" lon="4.77556">
        <ele>428.7</ele>
        <time>2026-05-03T07:30:09Z</time>
      </trkpt>
      <trkpt lat="45.03856" lon="4.77547">
        <ele>428.1</ele>
        <time>2026-05-03T07:30:14Z</time>
      </trkpt>
      <trkpt lat="45.03854" lon="4.77541">
        <ele>427.4</ele>
        <time>2026-05-03T07:30:19Z</time>
      </trkpt>
      <trkpt lat="45.03855" lon="4.77537">
        <ele>426.8</ele>
        <time>2026-05-03T07:30:24Z</time>
      </trkpt>
      <trkpt lat="45.03858" lon="4.77529">
        <ele>425.4</ele>
        <time>2026-05-03T07:30:29Z</time>
      </trkpt>
      <trkpt lat="45.03859" lon="4.77522">
        <ele>424.3</ele>
        <time>2026-05-03T07:30:34Z</time>
      </trkpt>
      <trkpt lat="45.03858" lon="4.77522">
        <ele>424.4</ele>
        <time>2026-05-03T07:30:39Z</time>
      </trkpt>
      <trkpt lat="45.03856" lon="4.7753">
        <ele>425.7</ele>
        <time>2026-05-03T07:30:44Z</time>
      </trkpt>
      <trkpt lat="45.03854" lon="4.77537">
        <ele>426.9</ele>
        <time>2026-05-03T07:30:49Z</time>
      </trkpt>
      <trkpt lat="45.03849" lon="4.77538">
        <ele>427.5</ele>
        <time>2026-05-03T07:30:54Z</time>
      </trkpt>
      <trkpt lat="45.03843" lon="4.77538">
        <ele>428.1</ele>
        <time>2026-05-03T07:30:59Z</time>
      </trkpt>
      <trkpt lat="45.03838" lon="4.77542">
        <ele>429.1</ele>
        <time>2026-05-03T07:31:04Z</time>
      </trkpt>
      <trkpt lat="45.03833" lon="4.77545">
        <ele>430</ele>
        <time>2026-05-03T07:31:09Z</time>
      </trkpt>
      <trkpt lat="45.03829" lon="4.77548">
        <ele>430.8</ele>
        <time>2026-05-03T07:31:14Z</time>
      </trkpt>
      <trkpt lat="45.03824" lon="4.77551">
        <ele>431.8</ele>
        <time>2026-05-03T07:31:19Z</time>
      </trkpt>
      <trkpt lat="45.03819" lon="4.77553">
        <ele>432.6</ele>
        <time>2026-05-03T07:31:24Z</time>
      </trkpt>
      <trkpt lat="45.03813" lon="4.77554">
        <ele>433.4</ele>
        <time>2026-05-03T07:31:29Z</time>
      </trkpt>
      <trkpt lat="45.03807" lon="4.77556">
        <ele>434.3</ele>
        <time>2026-05-03T07:31:34Z</time>
      </trkpt>
      <trkpt lat="45.03801" lon="4.77557">
        <ele>435.1</ele>
        <time>2026-05-03T07:31:39Z</time>
      </trkpt>
      <trkpt lat="45.03794" lon="4.77556">
        <ele>435.8</ele>
        <time>2026-05-03T07:31:44Z</time>
      </trkpt>
      <trkpt lat="45.03787" lon="4.77553">
        <ele>436.3</ele>
        <time>2026-05-03T07:31:49Z</time>
      </trkpt>
      <trkpt lat="45.03781" lon="4.7755">
        <ele>436.6</ele>
        <time>2026-05-03T07:31:54Z</time>
      </trkpt>
      <trkpt lat="45.03775" lon="4.77547">
        <ele>437</ele>
        <time>2026-05-03T07:31:59Z</time>
      </trkpt>
      <trkpt lat="45.03769" lon="4.77543">
        <ele>437.3</ele>
        <time>2026-05-03T07:32:04Z</time>
      </trkpt>
      <trkpt lat="45.03764" lon="4.77535">
        <ele>437.2</ele>
        <time>2026-05-03T07:32:09Z</time>
      </trkpt>
      <trkpt lat="45.03758" lon="4.77527">
        <ele>437.2</ele>
        <time>2026-05-03T07:32:14Z</time>
      </trkpt>
      <trkpt lat="45.03757" lon="4.77519">
        <ele>436.7</ele>
        <time>2026-05-03T07:32:19Z</time>
      </trkpt>
      <trkpt lat="45.03757" lon="4.77509">
        <ele>435.8</ele>
        <time>2026-05-03T07:32:24Z</time>
      </trkpt>
      <trkpt lat="45.03761" lon="4.775">
        <ele>434.4</ele>
        <time>2026-05-03T07:32:29Z</time>
      </trkpt>
      <trkpt lat="45.03766" lon="4.77491">
        <ele>432.9</ele>
        <time>2026-05-03T07:32:34Z</time>
      </trkpt>
      <trkpt lat="45.03771" lon="4.77485">
        <ele>431.7</ele>
        <time>2026-05-03T07:32:39Z</time>
      </trkpt>
      <trkpt lat="45.03774" lon="4.77476">
        <ele>430.5</ele>
        <time>2026-05-03T07:32:44Z</time>
      </trkpt>
      <trkpt lat="45.03775" lon="4.7747">
        <ele>429.8</ele>
        <time>2026-05-03T07:32:49Z</time>
      </trkpt>
      <trkpt lat="45.03775" lon="4.77464">
        <ele>429.3</ele>
        <time>2026-05-03T07:32:54Z</time>
      </trkpt>
      <trkpt lat="45.03772" lon="4.77455">
        <ele>428.9</ele>
        <time>2026-05-03T07:32:59Z</time>
      </trkpt>
      <trkpt lat="45.0377" lon="4.77445">
        <ele>428.3</ele>
        <time>2026-05-03T07:33:04Z</time>
      </trkpt>
      <trkpt lat="45.03767" lon="4.77436">
        <ele>427.9</ele>
        <time>2026-05-03T07:33:09Z</time>
      </trkpt>
      <trkpt lat="45.03765" lon="4.77429">
        <ele>427.5</ele>
        <time>2026-05-03T07:33:14Z</time>
      </trkpt>
      <trkpt lat="45.03764" lon="4.7742">
        <ele>426.8</ele>
        <time>2026-05-03T07:33:19Z</time>
      </trkpt>
      <trkpt lat="45.03763" lon="4.77413">
        <ele>426.2</ele>
        <time>2026-05-03T07:33:24Z</time>
      </trkpt>
      <trkpt lat="45.03761" lon="4.77405">
        <ele>425.7</ele>
        <time>2026-05-03T07:33:29Z</time>
      </trkpt>
      <trkpt lat="45.03758" lon="4.77398">
        <ele>425.3</ele>
        <time>2026-05-03T07:33:34Z</time>
      </trkpt>
      <trkpt lat="45.03756" lon="4.7739">
        <ele>424.8</ele>
        <time>2026-05-03T07:33:39Z</time>
      </trkpt>
      <trkpt lat="45.03756" lon="4.77386">
        <ele>424.4</ele>
        <time>2026-05-03T07:33:44Z</time>
      </trkpt>
      <trkpt lat="45.03756" lon="4.77385">
        <ele>424.3</ele>
        <time>2026-05-03T07:33:49Z</time>
      </trkpt>
      <trkpt lat="45.03756" lon="4.77385">
        <ele>424.3</ele>
        <time>2026-05-03T07:33:54Z</time>
      </trkpt>
      <trkpt lat="45.03753" lon="4.7738">
        <ele>424.2</ele>
        <time>2026-05-03T07:33:59Z</time>
      </trkpt>
      <trkpt lat="45.03749" lon="4.77372">
        <ele>423.8</ele>
        <time>2026-05-03T07:34:04Z</time>
      </trkpt>
      <trkpt lat="45.03743" lon="4.77365">
        <ele>423.5</ele>
        <time>2026-05-03T07:34:09Z</time>
      </trkpt>
      <trkpt lat="45.03738" lon="4.77361">
        <ele>423.4</ele>
        <time>2026-05-03T07:34:14Z</time>
      </trkpt>
      <trkpt lat="45.03734" lon="4.77359">
        <ele>423.4</ele>
        <time>2026-05-03T07:34:19Z</time>
      </trkpt>
      <trkpt lat="45.03729" lon="4.77356">
        <ele>423.4</ele>
        <time>2026-05-03T07:34:24Z</time>
      </trkpt>
      <trkpt lat="45.03723" lon="4.77352">
        <ele>423.4</ele>
        <time>2026-05-03T07:34:29Z</time>
      </trkpt>
      <trkpt lat="45.03717" lon="4.77347">
        <ele>423.3</ele>
        <time>2026-05-03T07:34:34Z</time>
      </trkpt>
      <trkpt lat="45.0371" lon="4.77344">
        <ele>423.4</ele>
        <time>2026-05-03T07:34:39Z</time>
      </trkpt>
      <trkpt lat="45.03707" lon="4.77341">
        <ele>423.3</ele>
        <time>2026-05-03T07:34:44Z</time>
      </trkpt>
      <trkpt lat="45.03705" lon="4.77338">
        <ele>423.1</ele>
        <time>2026-05-03T07:34:49Z</time>
      </trkpt>
      <trkpt lat="45.03706" lon="4.77335">
        <ele>422.8</ele>
        <time>2026-05-03T07:34:54Z</time>
      </trkpt>
      <trkpt lat="45.03703" lon="4.77331">
        <ele>422.5</ele>
        <time>2026-05-03T07:34:59Z</time>
      </trkpt>
      <trkpt lat="45.03697" lon="4.77328">
        <ele>422.5</ele>
        <time>2026-05-03T07:35:04Z</time>
      </trkpt>
      <trkpt lat="45.03691" lon="4.77325">
        <ele>422.4</ele>
        <time>2026-05-03T07:35:09Z</time>
      </trkpt>
      <trkpt lat="45.03685" lon="4.77323">
        <ele>422.5</ele>
        <time>2026-05-03T07:35:14Z</time>
      </trkpt>
      <trkpt lat="45.0368" lon="4.7732">
        <ele>422.4</ele>
        <time>2026-05-03T07:35:19Z</time>
      </trkpt>
      <trkpt lat="45.03675" lon="4.77319">
        <ele>422.6</ele>
        <time>2026-05-03T07:35:24Z</time>
      </trkpt>
      <trkpt lat="45.03669" lon="4.77317">
        <ele>422.7</ele>
        <time>2026-05-03T07:35:29Z</time>
      </trkpt>
      <trkpt lat="45.03664" lon="4.77316">
        <ele>422.7</ele>
        <time>2026-05-03T07:35:34Z</time>
      </trkpt>
      <trkpt lat="45.03659" lon="4.77318">
        <ele>423</ele>
        <time>2026-05-03T07:35:39Z</time>
      </trkpt>
      <trkpt lat="45.03652" lon="4.77317">
        <ele>422.9</ele>
        <time>2026-05-03T07:35:44Z</time>
      </trkpt>
      <trkpt lat="45.03647" lon="4.77319">
        <ele>423.2</ele>
        <time>2026-05-03T07:35:49Z</time>
      </trkpt>
      <trkpt lat="45.03641" lon="4.7732">
        <ele>423.4</ele>
        <time>2026-05-03T07:35:54Z</time>
      </trkpt>
      <trkpt lat="45.03636" lon="4.77322">
        <ele>423.7</ele>
        <time>2026-05-03T07:35:59Z</time>
      </trkpt>
      <trkpt lat="45.03632" lon="4.77326">
        <ele>424.1</ele>
        <time>2026-05-03T07:36:04Z</time>
      </trkpt>
      <trkpt lat="45.03626" lon="4.77327">
        <ele>424.3</ele>
        <time>2026-05-03T07:36:09Z</time>
      </trkpt>
      <trkpt lat="45.03621" lon="4.7733">
        <ele>424.6</ele>
        <time>2026-05-03T07:36:14Z</time>
      </trkpt>
      <trkpt lat="45.03614" lon="4.77333">
        <ele>425</ele>
        <time>2026-05-03T07:36:19Z</time>
      </trkpt>
      <trkpt lat="45.03608" lon="4.77334">
        <ele>425.1</ele>
        <time>2026-05-03T07:36:24Z</time>
      </trkpt>
      <trkpt lat="45.03602" lon="4.77335">
        <ele>425.2</ele>
        <time>2026-05-03T07:36:29Z</time>
      </trkpt>
      <trkpt lat="45.03596" lon="4.77336">
        <ele>425.3</ele>
        <time>2026-05-03T07:36:34Z</time>
      </trkpt>
      <trkpt lat="45.03591" lon="4.77337">
        <ele>425.4</ele>
        <time>2026-05-03T07:36:39Z</time>
      </trkpt>
      <trkpt lat="45.03585" lon="4.77339">
        <ele>425.6</ele>
        <time>2026-05-03T07:36:44Z</time>
      </trkpt>
      <trkpt lat="45.03578" lon="4.77339">
        <ele>425.6</ele>
        <time>2026-05-03T07:36:49Z</time>
      </trkpt>
      <trkpt lat="45.03571" lon="4.7734">
        <ele>425.7</ele>
        <time>2026-05-03T07:36:54Z</time>
      </trkpt>
      <trkpt lat="45.03565" lon="4.77342">
        <ele>425.9</ele>
        <time>2026-05-03T07:36:59Z</time>
      </trkpt>
      <trkpt lat="45.03558" lon="4.77343">
        <ele>426</ele>
        <time>2026-05-03T07:37:04Z</time>
      </trkpt>
      <trkpt lat="45.03552" lon="4.77345">
        <ele>426.2</ele>
        <time>2026-05-03T07:37:09Z</time>
      </trkpt>
      <trkpt lat="45.03546" lon="4.77347">
        <ele>426.3</ele>
        <time>2026-05-03T07:37:14Z</time>
      </trkpt>
      <trkpt lat="45.0354" lon="4.77347">
        <ele>426.3</ele>
        <time>2026-05-03T07:37:19Z</time>
      </trkpt>
      <trkpt lat="45.03533" lon="4.77347">
        <ele>426.3</ele>
        <time>2026-05-03T07:37:24Z</time>
      </trkpt>
      <trkpt lat="45.03525" lon="4.77347">
        <ele>426.2</ele>
        <time>2026-05-03T07:37:29Z</time>
      </trkpt>
      <trkpt lat="45.03519" lon="4.77346">
        <ele>426.1</ele>
        <time>2026-05-03T07:37:34Z</time>
      </trkpt>
      <trkpt lat="45.03514" lon="4.77344">
        <ele>425.9</ele>
        <time>2026-05-03T07:37:39Z</time>
      </trkpt>
      <trkpt lat="45.03508" lon="4.77341">
        <ele>425.7</ele>
        <time>2026-05-03T07:37:44Z</time>
      </trkpt>
      <trkpt lat="45.03505" lon="4.7734">
        <ele>425.6</ele>
        <time>2026-05-03T07:37:49Z</time>
      </trkpt>
      <trkpt lat="45.03505" lon="4.7734">
        <ele>425.6</ele>
        <time>2026-05-03T07:37:54Z</time>
      </trkpt>
      <trkpt lat="45.03502" lon="4.77337">
        <ele>425.3</ele>
        <time>2026-05-03T07:37:59Z</time>
      </trkpt>
      <trkpt lat="45.03494" lon="4.77333">
        <ele>425.3</ele>
        <time>2026-05-03T07:38:04Z</time>
      </trkpt>
      <trkpt lat="45.03488" lon="4.77332">
        <ele>425.6</ele>
        <time>2026-05-03T07:38:09Z</time>
      </trkpt>
      <trkpt lat="45.03484" lon="4.7733">
        <ele>425.6</ele>
        <time>2026-05-03T07:38:14Z</time>
      </trkpt>
      <trkpt lat="45.03479" lon="4.77326">
        <ele>425.4</ele>
        <time>2026-05-03T07:38:19Z</time>
      </trkpt>
      <trkpt lat="45.03474" lon="4.77325">
        <ele>425.6</ele>
        <time>2026-05-03T07:38:24Z</time>
      </trkpt>
      <trkpt lat="45.03465" lon="4.77325">
        <ele>426.1</ele>
        <time>2026-05-03T07:38:29Z</time>
      </trkpt>
      <trkpt lat="45.03458" lon="4.7733">
        <ele>427.1</ele>
        <time>2026-05-03T07:38:34Z</time>
      </trkpt>
      <trkpt lat="45.03453" lon="4.77337">
        <ele>428.2</ele>
        <time>2026-05-03T07:38:39Z</time>
      </trkpt>
      <trkpt lat="45.03447" lon="4.77338">
        <ele>428.6</ele>
        <time>2026-05-03T07:38:44Z</time>
      </trkpt>
      <trkpt lat="45.03441" lon="4.77334">
        <ele>428.6</ele>
        <time>2026-05-03T07:38:49Z</time>
      </trkpt>
      <trkpt lat="45.03436" lon="4.77327">
        <ele>428</ele>
        <time>2026-05-03T07:38:54Z</time>
      </trkpt>
      <trkpt lat="45.03432" lon="4.7732">
        <ele>427.2</ele>
        <time>2026-05-03T07:38:59Z</time>
      </trkpt>
      <trkpt lat="45.03428" lon="4.77314">
        <ele>426.6</ele>
        <time>2026-05-03T07:39:04Z</time>
      </trkpt>
      <trkpt lat="45.03425" lon="4.77307">
        <ele>425.8</ele>
        <time>2026-05-03T07:39:09Z</time>
      </trkpt>
      <trkpt lat="45.0342" lon="4.77302">
        <ele>425.3</ele>
        <time>2026-05-03T07:39:14Z</time>
      </trkpt>
      <trkpt lat="45.03416" lon="4.77299">
        <ele>425.1</ele>
        <time>2026-05-03T07:39:19Z</time>
      </trkpt>
      <trkpt lat="45.0341" lon="4.77302">
        <ele>426.4</ele>
        <time>2026-05-03T07:39:24Z</time>
      </trkpt>
      <trkpt lat="45.03404" lon="4.77302">
        <ele>427.2</ele>
        <time>2026-05-03T07:39:29Z</time>
      </trkpt>
      <trkpt lat="45.03399" lon="4.77306">
        <ele>428.4</ele>
        <time>2026-05-03T07:39:34Z</time>
      </trkpt>
      <trkpt lat="45.03393" lon="4.7731">
        <ele>429.7</ele>
        <time>2026-05-03T07:39:39Z</time>
      </trkpt>
      <trkpt lat="45.03387" lon="4.77314">
        <ele>431</ele>
        <time>2026-05-03T07:39:44Z</time>
      </trkpt>
      <trkpt lat="45.03382" lon="4.7732">
        <ele>432.4</ele>
        <time>2026-05-03T07:39:49Z</time>
      </trkpt>
      <trkpt lat="45.03382" lon="4.77322">
        <ele>432.7</ele>
        <time>2026-05-03T07:39:54Z</time>
      </trkpt>
      <trkpt lat="45.03381" lon="4.77323">
        <ele>433</ele>
        <time>2026-05-03T07:39:59Z</time>
      </trkpt>
      <trkpt lat="45.03381" lon="4.77323">
        <ele>433</ele>
        <time>2026-05-03T07:40:04Z</time>
      </trkpt>
      <trkpt lat="45.03381" lon="4.77323">
        <ele>433</ele>
        <time>2026-05-03T07:40:09Z</time>
      </trkpt>
      <trkpt lat="45.03381" lon="4.77323">
        <ele>433</ele>
        <time>2026-05-03T07:40:14Z</time>
      </trkpt>
      <trkpt lat="45.03379" lon="4.77328">
        <ele>433.8</ele>
        <time>2026-05-03T07:40:19Z</time>
      </trkpt>
      <trkpt lat="45.03373" lon="4.77334">
        <ele>435.3</ele>
        <time>2026-05-03T07:40:24Z</time>
      </trkpt>
      <trkpt lat="45.0337" lon="4.77339">
        <ele>436.1</ele>
        <time>2026-05-03T07:40:29Z</time>
      </trkpt>
      <trkpt lat="45.03367" lon="4.77345">
        <ele>437.1</ele>
        <time>2026-05-03T07:40:34Z</time>
      </trkpt>
      <trkpt lat="45.03363" lon="4.7735">
        <ele>438</ele>
        <time>2026-05-03T07:40:39Z</time>
      </trkpt>
      <trkpt lat="45.03362" lon="4.77352">
        <ele>438.3</ele>
        <time>2026-05-03T07:40:44Z</time>
      </trkpt>
      <trkpt lat="45.03362" lon="4.77352">
        <ele>438.3</ele>
        <time>2026-05-03T07:40:49Z</time>
      </trkpt>
      <trkpt lat="45.0336" lon="4.77355">
        <ele>438.8</ele>
        <time>2026-05-03T07:40:54Z</time>
      </trkpt>
      <trkpt lat="45.03356" lon="4.77359">
        <ele>439.6</ele>
        <time>2026-05-03T07:40:59Z</time>
      </trkpt>
      <trkpt lat="45.03351" lon="4.77363">
        <ele>440.5</ele>
        <time>2026-05-03T07:41:04Z</time>
      </trkpt>
      <trkpt lat="45.03344" lon="4.77366">
        <ele>441.6</ele>
        <time>2026-05-03T07:41:09Z</time>
      </trkpt>
      <trkpt lat="45.03339" lon="4.77371">
        <ele>442.5</ele>
        <time>2026-05-03T07:41:14Z</time>
      </trkpt>
      <trkpt lat="45.03334" lon="4.77375">
        <ele>443.4</ele>
        <time>2026-05-03T07:41:19Z</time>
      </trkpt>
      <trkpt lat="45.03328" lon="4.7738">
        <ele>444.2</ele>
        <time>2026-05-03T07:41:24Z</time>
      </trkpt>
      <trkpt lat="45.03323" lon="4.77382">
        <ele>444.7</ele>
        <time>2026-05-03T07:41:29Z</time>
      </trkpt>
      <trkpt lat="45.03318" lon="4.77382">
        <ele>445</ele>
        <time>2026-05-03T07:41:34Z</time>
      </trkpt>
      <trkpt lat="45.03316" lon="4.77382">
        <ele>445.1</ele>
        <time>2026-05-03T07:41:39Z</time>
      </trkpt>
      <trkpt lat="45.03311" lon="4.77383">
        <ele>445.5</ele>
        <time>2026-05-03T07:41:44Z</time>
      </trkpt>
      <trkpt lat="45.03307" lon="4.77382">
        <ele>445.6</ele>
        <time>2026-05-03T07:41:49Z</time>
      </trkpt>
      <trkpt lat="45.03302" lon="4.77383">
        <ele>446</ele>
        <time>2026-05-03T07:41:54Z</time>
      </trkpt>
      <trkpt lat="45.03298" lon="4.7738">
        <ele>445.9</ele>
        <time>2026-05-03T07:41:59Z</time>
      </trkpt>
      <trkpt lat="45.03293" lon="4.77377">
        <ele>445.9</ele>
        <time>2026-05-03T07:42:04Z</time>
      </trkpt>
      <trkpt lat="45.03289" lon="4.77374">
        <ele>445.8</ele>
        <time>2026-05-03T07:42:09Z</time>
      </trkpt>
      <trkpt lat="45.03285" lon="4.77372">
        <ele>445.8</ele>
        <time>2026-05-03T07:42:14Z</time>
      </trkpt>
      <trkpt lat="45.03281" lon="4.77368">
        <ele>445.6</ele>
        <time>2026-05-03T07:42:19Z</time>
      </trkpt>
      <trkpt lat="45.03278" lon="4.77365">
        <ele>445.4</ele>
        <time>2026-05-03T07:42:24Z</time>
      </trkpt>
      <trkpt lat="45.03273" lon="4.77361">
        <ele>445.2</ele>
        <time>2026-05-03T07:42:29Z</time>
      </trkpt>
      <trkpt lat="45.03267" lon="4.77359">
        <ele>445.3</ele>
        <time>2026-05-03T07:42:34Z</time>
      </trkpt>
      <trkpt lat="45.03262" lon="4.77358">
        <ele>445.4</ele>
        <time>2026-05-03T07:42:39Z</time>
      </trkpt>
      <trkpt lat="45.03261" lon="4.77356">
        <ele>445.2</ele>
        <time>2026-05-03T07:42:44Z</time>
      </trkpt>
      <trkpt lat="45.03257" lon="4.77355">
        <ele>445.3</ele>
        <time>2026-05-03T07:42:49Z</time>
      </trkpt>
      <trkpt lat="45.0325" lon="4.77354">
        <ele>445.5</ele>
        <time>2026-05-03T07:42:54Z</time>
      </trkpt>
      <trkpt lat="45.03244" lon="4.77353">
        <ele>445.6</ele>
        <time>2026-05-03T07:42:59Z</time>
      </trkpt>
      <trkpt lat="45.03238" lon="4.77355">
        <ele>446.1</ele>
        <time>2026-05-03T07:43:04Z</time>
      </trkpt>
      <trkpt lat="45.03232" lon="4.77358">
        <ele>446.6</ele>
        <time>2026-05-03T07:43:09Z</time>
      </trkpt>
      <trkpt lat="45.03226" lon="4.77358">
        <ele>446.9</ele>
        <time>2026-05-03T07:43:14Z</time>
      </trkpt>
      <trkpt lat="45.0322" lon="4.77359">
        <ele>447.2</ele>
        <time>2026-05-03T07:43:19Z</time>
      </trkpt>
      <trkpt lat="45.03214" lon="4.77361">
        <ele>447.6</ele>
        <time>2026-05-03T07:43:24Z</time>
      </trkpt>
      <trkpt lat="45.03208" lon="4.77363">
        <ele>448</ele>
        <time>2026-05-03T07:43:29Z</time>
      </trkpt>
      <trkpt lat="45.03203" lon="4.77362">
        <ele>448.1</ele>
        <time>2026-05-03T07:43:34Z</time>
      </trkpt>
      <trkpt lat="45.03196" lon="4.77363">
        <ele>448.5</ele>
        <time>2026-05-03T07:43:39Z</time>
      </trkpt>
      <trkpt lat="45.0319" lon="4.77364">
        <ele>448.8</ele>
        <time>2026-05-03T07:43:44Z</time>
      </trkpt>
      <trkpt lat="45.03185" lon="4.77366">
        <ele>449.1</ele>
        <time>2026-05-03T07:43:49Z</time>
      </trkpt>
      <trkpt lat="45.03178" lon="4.77368">
        <ele>449.5</ele>
        <time>2026-05-03T07:43:54Z</time>
      </trkpt>
      <trkpt lat="45.03173" lon="4.77371">
        <ele>450</ele>
        <time>2026-05-03T07:43:59Z</time>
      </trkpt>
      <trkpt lat="45.03166" lon="4.77375">
        <ele>450.5</ele>
        <time>2026-05-03T07:44:04Z</time>
      </trkpt>
      <trkpt lat="45.0316" lon="4.77377">
        <ele>450.9</ele>
        <time>2026-05-03T07:44:09Z</time>
      </trkpt>
      <trkpt lat="45.03156" lon="4.7738">
        <ele>451.3</ele>
        <time>2026-05-03T07:44:14Z</time>
      </trkpt>
      <trkpt lat="45.03151" lon="4.77383">
        <ele>451.7</ele>
        <time>2026-05-03T07:44:19Z</time>
      </trkpt>
      <trkpt lat="45.03149" lon="4.7739">
        <ele>452.3</ele>
        <time>2026-05-03T07:44:24Z</time>
      </trkpt>
      <trkpt lat="45.03148" lon="4.77398">
        <ele>453</ele>
        <time>2026-05-03T07:44:29Z</time>
      </trkpt>
      <trkpt lat="45.03147" lon="4.77406">
        <ele>453.6</ele>
        <time>2026-05-03T07:44:34Z</time>
      </trkpt>
      <trkpt lat="45.03146" lon="4.77413">
        <ele>454.2</ele>
        <time>2026-05-03T07:44:39Z</time>
      </trkpt>
      <trkpt lat="45.03145" lon="4.77422">
        <ele>454.8</ele>
        <time>2026-05-03T07:44:44Z</time>
      </trkpt>
      <trkpt lat="45.03144" lon="4.77431">
        <ele>455.2</ele>
        <time>2026-05-03T07:44:49Z</time>
      </trkpt>
      <trkpt lat="45.03143" lon="4.77439">
        <ele>455.6</ele>
        <time>2026-05-03T07:44:54Z</time>
      </trkpt>
      <trkpt lat="45.03142" lon="4.77447">
        <ele>456</ele>
        <time>2026-05-03T07:44:59Z</time>
      </trkpt>
      <trkpt lat="45.03141" lon="4.77453">
        <ele>456.4</ele>
        <time>2026-05-03T07:45:04Z</time>
      </trkpt>
      <trkpt lat="45.03136" lon="4.77459">
        <ele>456.8</ele>
        <time>2026-05-03T07:45:09Z</time>
      </trkpt>
      <trkpt lat="45.03131" lon="4.7746">
        <ele>456.9</ele>
        <time>2026-05-03T07:45:14Z</time>
      </trkpt>
      <trkpt lat="45.03124" lon="4.7746">
        <ele>457.1</ele>
        <time>2026-05-03T07:45:19Z</time>
      </trkpt>
      <trkpt lat="45.03118" lon="4.7746">
        <ele>457.2</ele>
        <time>2026-05-03T07:45:24Z</time>
      </trkpt>
      <trkpt lat="45.0311" lon="4.77459">
        <ele>457.4</ele>
        <time>2026-05-03T07:45:29Z</time>
      </trkpt>
      <trkpt lat="45.03103" lon="4.77459">
        <ele>457.6</ele>
        <time>2026-05-03T07:45:34Z</time>
      </trkpt>
      <trkpt lat="45.03096" lon="4.77458">
        <ele>457.7</ele>
        <time>2026-05-03T07:45:39Z</time>
      </trkpt>
      <trkpt lat="45.03088" lon="4.77456">
        <ele>457.8</ele>
        <time>2026-05-03T07:45:44Z</time>
      </trkpt>
      <trkpt lat="45.0308" lon="4.77456">
        <ele>458</ele>
        <time>2026-05-03T07:45:49Z</time>
      </trkpt>
      <trkpt lat="45.03074" lon="4.77455">
        <ele>458.1</ele>
        <time>2026-05-03T07:45:54Z</time>
      </trkpt>
      <trkpt lat="45.03067" lon="4.77454">
        <ele>458.3</ele>
        <time>2026-05-03T07:45:59Z</time>
      </trkpt>
      <trkpt lat="45.0306" lon="4.77453">
        <ele>458.5</ele>
        <time>2026-05-03T07:46:04Z</time>
      </trkpt>
      <trkpt lat="45.03054" lon="4.77451">
        <ele>458.6</ele>
        <time>2026-05-03T07:46:09Z</time>
      </trkpt>
      <trkpt lat="45.03048" lon="4.7745">
        <ele>458.7</ele>
        <time>2026-05-03T07:46:14Z</time>
      </trkpt>
      <trkpt lat="45.03041" lon="4.77451">
        <ele>459</ele>
        <time>2026-05-03T07:46:19Z</time>
      </trkpt>
      <trkpt lat="45.03036" lon="4.77451">
        <ele>459.1</ele>
        <time>2026-05-03T07:46:24Z</time>
      </trkpt>
      <trkpt lat="45.03034" lon="4.7745">
        <ele>459.1</ele>
        <time>2026-05-03T07:46:29Z</time>
      </trkpt>
      <trkpt lat="45.0303" lon="4.7745">
        <ele>459.3</ele>
        <time>2026-05-03T07:46:34Z</time>
      </trkpt>
      <trkpt lat="45.03029" lon="4.7745">
        <ele>459.3</ele>
        <time>2026-05-03T07:46:39Z</time>
      </trkpt>
      <trkpt lat="45.03026" lon="4.77452">
        <ele>459.5</ele>
        <time>2026-05-03T07:46:44Z</time>
      </trkpt>
      <trkpt lat="45.03018" lon="4.77453">
        <ele>459.8</ele>
        <time>2026-05-03T07:46:49Z</time>
      </trkpt>
      <trkpt lat="45.03011" lon="4.77453">
        <ele>460</ele>
        <time>2026-05-03T07:46:54Z</time>
      </trkpt>
      <trkpt lat="45.03003" lon="4.77451">
        <ele>460.1</ele>
        <time>2026-05-03T07:46:59Z</time>
      </trkpt>
      <trkpt lat="45.02997" lon="4.7745">
        <ele>460.2</ele>
        <time>2026-05-03T07:47:04Z</time>
      </trkpt>
      <trkpt lat="45.0299" lon="4.77448">
        <ele>460.1</ele>
        <time>2026-05-03T07:47:09Z</time>
      </trkpt>
      <trkpt lat="45.02984" lon="4.77448">
        <ele>460.1</ele>
        <time>2026-05-03T07:47:14Z</time>
      </trkpt>
      <trkpt lat="45.02977" lon="4.77446">
        <ele>460.1</ele>
        <time>2026-05-03T07:47:19Z</time>
      </trkpt>
      <trkpt lat="45.02971" lon="4.77445">
        <ele>460</ele>
        <time>2026-05-03T07:47:24Z</time>
      </trkpt>
      <trkpt lat="45.02964" lon="4.77442">
        <ele>459.9</ele>
        <time>2026-05-03T07:47:29Z</time>
      </trkpt>
      <trkpt lat="45.02956" lon="4.77438">
        <ele>459.8</ele>
        <time>2026-05-03T07:47:34Z</time>
      </trkpt>
      <trkpt lat="45.02948" lon="4.77436">
        <ele>459.7</ele>
        <time>2026-05-03T07:47:39Z</time>
      </trkpt>
      <trkpt lat="45.0294" lon="4.77435">
        <ele>459.7</ele>
        <time>2026-05-03T07:47:44Z</time>
      </trkpt>
      <trkpt lat="45.02932" lon="4.77435">
        <ele>459.7</ele>
        <time>2026-05-03T07:47:49Z</time>
      </trkpt>
      <trkpt lat="45.02925" lon="4.77436">
        <ele>459.7</ele>
        <time>2026-05-03T07:47:54Z</time>
      </trkpt>
      <trkpt lat="45.0292" lon="4.77435">
        <ele>459.7</ele>
        <time>2026-05-03T07:47:59Z</time>
      </trkpt>
      <trkpt lat="45.02914" lon="4.77437">
        <ele>459.6</ele>
        <time>2026-05-03T07:48:04Z</time>
      </trkpt>
      <trkpt lat="45.02906" lon="4.77438">
        <ele>459.1</ele>
        <time>2026-05-03T07:48:09Z</time>
      </trkpt>
      <trkpt lat="45.02898" lon="4.7744">
        <ele>458.6</ele>
        <time>2026-05-03T07:48:14Z</time>
      </trkpt>
      <trkpt lat="45.02891" lon="4.77442">
        <ele>458.2</ele>
        <time>2026-05-03T07:48:19Z</time>
      </trkpt>
      <trkpt lat="45.02884" lon="4.77444">
        <ele>457.8</ele>
        <time>2026-05-03T07:48:24Z</time>
      </trkpt>
      <trkpt lat="45.02878" lon="4.77446">
        <ele>457.4</ele>
        <time>2026-05-03T07:48:29Z</time>
      </trkpt>
      <trkpt lat="45.02871" lon="4.7745">
        <ele>457</ele>
        <time>2026-05-03T07:48:34Z</time>
      </trkpt>
      <trkpt lat="45.02864" lon="4.77455">
        <ele>456.6</ele>
        <time>2026-05-03T07:48:39Z</time>
      </trkpt>
      <trkpt lat="45.02857" lon="4.7746">
        <ele>456.2</ele>
        <time>2026-05-03T07:48:44Z</time>
      </trkpt>
      <trkpt lat="45.02851" lon="4.77464">
        <ele>455.9</ele>
        <time>2026-05-03T07:48:49Z</time>
      </trkpt>
      <trkpt lat="45.02845" lon="4.7747">
        <ele>455.5</ele>
        <time>2026-05-03T07:48:54Z</time>
      </trkpt>
      <trkpt lat="45.02839" lon="4.77476">
        <ele>455.1</ele>
        <time>2026-05-03T07:48:59Z</time>
      </trkpt>
      <trkpt lat="45.02833" lon="4.77482">
        <ele>454.8</ele>
        <time>2026-05-03T07:49:04Z</time>
      </trkpt>
      <trkpt lat="45.02831" lon="4.77486">
        <ele>454.7</ele>
        <time>2026-05-03T07:49:09Z</time>
      </trkpt>
      <trkpt lat="45.02829" lon="4.77489">
        <ele>454.7</ele>
        <time>2026-05-03T07:49:14Z</time>
      </trkpt>
      <trkpt lat="45.02823" lon="4.77496">
        <ele>454.6</ele>
        <time>2026-05-03T07:49:19Z</time>
      </trkpt>
      <trkpt lat="45.02818" lon="4.77502">
        <ele>454.6</ele>
        <time>2026-05-03T07:49:24Z</time>
      </trkpt>
      <trkpt lat="45.02813" lon="4.7751">
        <ele>455</ele>
        <time>2026-05-03T07:49:29Z</time>
      </trkpt>
      <trkpt lat="45.02807" lon="4.77517">
        <ele>455.4</ele>
        <time>2026-05-03T07:49:34Z</time>
      </trkpt>
      <trkpt lat="45.02801" lon="4.77523">
        <ele>455.6</ele>
        <time>2026-05-03T07:49:39Z</time>
      </trkpt>
      <trkpt lat="45.02796" lon="4.77529">
        <ele>455.8</ele>
        <time>2026-05-03T07:49:44Z</time>
      </trkpt>
      <trkpt lat="45.02789" lon="4.77535">
        <ele>455.9</ele>
        <time>2026-05-03T07:49:49Z</time>
      </trkpt>
      <trkpt lat="45.02785" lon="4.77537">
        <ele>455.9</ele>
        <time>2026-05-03T07:49:54Z</time>
      </trkpt>
      <trkpt lat="45.02785" lon="4.77539">
        <ele>456</ele>
        <time>2026-05-03T07:49:59Z</time>
      </trkpt>
      <trkpt lat="45.02781" lon="4.77541">
        <ele>455.9</ele>
        <time>2026-05-03T07:50:04Z</time>
      </trkpt>
      <trkpt lat="45.02777" lon="4.77541">
        <ele>455.8</ele>
        <time>2026-05-03T07:50:09Z</time>
      </trkpt>
      <trkpt lat="45.02775" lon="4.77541">
        <ele>455.7</ele>
        <time>2026-05-03T07:50:14Z</time>
      </trkpt>
      <trkpt lat="45.02768" lon="4.77544">
        <ele>455.5</ele>
        <time>2026-05-03T07:50:19Z</time>
      </trkpt>
      <trkpt lat="45.02762" lon="4.77547">
        <ele>455.4</ele>
        <time>2026-05-03T07:50:24Z</time>
      </trkpt>
      <trkpt lat="45.02755" lon="4.77551">
        <ele>455.3</ele>
        <time>2026-05-03T07:50:29Z</time>
      </trkpt>
      <trkpt lat="45.02749" lon="4.77555">
        <ele>455.2</ele>
        <time>2026-05-03T07:50:34Z</time>
      </trkpt>
      <trkpt lat="45.02743" lon="4.7756">
        <ele>454.9</ele>
        <time>2026-05-03T07:50:39Z</time>
      </trkpt>
      <trkpt lat="45.02737" lon="4.77565">
        <ele>454.6</ele>
        <time>2026-05-03T07:50:44Z</time>
      </trkpt>
      <trkpt lat="45.02733" lon="4.77573">
        <ele>454.6</ele>
        <time>2026-05-03T07:50:49Z</time>
      </trkpt>
      <trkpt lat="45.02728" lon="4.7758">
        <ele>454.5</ele>
        <time>2026-05-03T07:50:54Z</time>
      </trkpt>
      <trkpt lat="45.02723" lon="4.77589">
        <ele>454</ele>
        <time>2026-05-03T07:50:59Z</time>
      </trkpt>
      <trkpt lat="45.02719" lon="4.77597">
        <ele>453.4</ele>
        <time>2026-05-03T07:51:04Z</time>
      </trkpt>
      <trkpt lat="45.02715" lon="4.77605">
        <ele>452.9</ele>
        <time>2026-05-03T07:51:09Z</time>
      </trkpt>
      <trkpt lat="45.02711" lon="4.77616">
        <ele>452.2</ele>
        <time>2026-05-03T07:51:14Z</time>
      </trkpt>
      <trkpt lat="45.02708" lon="4.77627">
        <ele>451.7</ele>
        <time>2026-05-03T07:51:19Z</time>
      </trkpt>
      <trkpt lat="45.02704" lon="4.77636">
        <ele>451.1</ele>
        <time>2026-05-03T07:51:24Z</time>
      </trkpt>
      <trkpt lat="45.02701" lon="4.77644">
        <ele>450.6</ele>
        <time>2026-05-03T07:51:29Z</time>
      </trkpt>
      <trkpt lat="45.02698" lon="4.77655">
        <ele>450</ele>
        <time>2026-05-03T07:51:34Z</time>
      </trkpt>
      <trkpt lat="45.02695" lon="4.77664">
        <ele>449.5</ele>
        <time>2026-05-03T07:51:39Z</time>
      </trkpt>
      <trkpt lat="45.02691" lon="4.77673">
        <ele>448.8</ele>
        <time>2026-05-03T07:51:44Z</time>
      </trkpt>
      <trkpt lat="45.02688" lon="4.77682">
        <ele>448.3</ele>
        <time>2026-05-03T07:51:49Z</time>
      </trkpt>
      <trkpt lat="45.02684" lon="4.77693">
        <ele>447.6</ele>
        <time>2026-05-03T07:51:54Z</time>
      </trkpt>
      <trkpt lat="45.02679" lon="4.77702">
        <ele>446.9</ele>
        <time>2026-05-03T07:51:59Z</time>
      </trkpt>
      <trkpt lat="45.02675" lon="4.77714">
        <ele>446.3</ele>
        <time>2026-05-03T07:52:04Z</time>
      </trkpt>
      <trkpt lat="45.02672" lon="4.77724">
        <ele>445.9</ele>
        <time>2026-05-03T07:52:09Z</time>
      </trkpt>
      <trkpt lat="45.02669" lon="4.77732">
        <ele>445.5</ele>
        <time>2026-05-03T07:52:14Z</time>
      </trkpt>
      <trkpt lat="45.02666" lon="4.77742">
        <ele>445</ele>
        <time>2026-05-03T07:52:19Z</time>
      </trkpt>
      <trkpt lat="45.02663" lon="4.77751">
        <ele>444.5</ele>
        <time>2026-05-03T07:52:24Z</time>
      </trkpt>
      <trkpt lat="45.0266" lon="4.7776">
        <ele>444.4</ele>
        <time>2026-05-03T07:52:29Z</time>
      </trkpt>
      <trkpt lat="45.02656" lon="4.77767">
        <ele>444</ele>
        <time>2026-05-03T07:52:34Z</time>
      </trkpt>
      <trkpt lat="45.02651" lon="4.77776">
        <ele>443.6</ele>
        <time>2026-05-03T07:52:39Z</time>
      </trkpt>
      <trkpt lat="45.02646" lon="4.77784">
        <ele>443.2</ele>
        <time>2026-05-03T07:52:44Z</time>
      </trkpt>
      <trkpt lat="45.02641" lon="4.77791">
        <ele>442.7</ele>
        <time>2026-05-03T07:52:49Z</time>
      </trkpt>
      <trkpt lat="45.02634" lon="4.77799">
        <ele>442.1</ele>
        <time>2026-05-03T07:52:54Z</time>
      </trkpt>
      <trkpt lat="45.02628" lon="4.77805">
        <ele>441.5</ele>
        <time>2026-05-03T07:52:59Z</time>
      </trkpt>
      <trkpt lat="45.02622" lon="4.77811">
        <ele>441</ele>
        <time>2026-05-03T07:53:04Z</time>
      </trkpt>
      <trkpt lat="45.02617" lon="4.77819">
        <ele>440.6</ele>
        <time>2026-05-03T07:53:09Z</time>
      </trkpt>
      <trkpt lat="45.02613" lon="4.77827">
        <ele>440.4</ele>
        <time>2026-05-03T07:53:14Z</time>
      </trkpt>
      <trkpt lat="45.0261" lon="4.77836">
        <ele>440.4</ele>
        <time>2026-05-03T07:53:19Z</time>
      </trkpt>
      <trkpt lat="45.02607" lon="4.77845">
        <ele>440.6</ele>
        <time>2026-05-03T07:53:24Z</time>
      </trkpt>
      <trkpt lat="45.02605" lon="4.77857">
        <ele>441.2</ele>
        <time>2026-05-03T07:53:29Z</time>
      </trkpt>
      <trkpt lat="45.02606" lon="4.77865">
        <ele>441.9</ele>
        <time>2026-05-03T07:53:34Z</time>
      </trkpt>
      <trkpt lat="45.02606" lon="4.77876">
        <ele>442.6</ele>
        <time>2026-05-03T07:53:39Z</time>
      </trkpt>
      <trkpt lat="45.02606" lon="4.77886">
        <ele>443.3</ele>
        <time>2026-05-03T07:53:44Z</time>
      </trkpt>
      <trkpt lat="45.02604" lon="4.77896">
        <ele>443.8</ele>
        <time>2026-05-03T07:53:49Z</time>
      </trkpt>
      <trkpt lat="45.026" lon="4.77908">
        <ele>444.4</ele>
        <time>2026-05-03T07:53:54Z</time>
      </trkpt>
      <trkpt lat="45.02597" lon="4.77918">
        <ele>444.8</ele>
        <time>2026-05-03T07:53:59Z</time>
      </trkpt>
      <trkpt lat="45.02591" lon="4.77926">
        <ele>444.2</ele>
        <time>2026-05-03T07:54:04Z</time>
      </trkpt>
      <trkpt lat="45.02585" lon="4.77931">
        <ele>443.7</ele>
        <time>2026-05-03T07:54:09Z</time>
      </trkpt>
      <trkpt lat="45.02578" lon="4.77932">
        <ele>443.1</ele>
        <time>2026-05-03T07:54:14Z</time>
      </trkpt>
      <trkpt lat="45.02569" lon="4.77934">
        <ele>442.2</ele>
        <time>2026-05-03T07:54:19Z</time>
      </trkpt>
      <trkpt lat="45.02562" lon="4.77934">
        <ele>441.5</ele>
        <time>2026-05-03T07:54:24Z</time>
      </trkpt>
      <trkpt lat="45.02554" lon="4.77934">
        <ele>440.7</ele>
        <time>2026-05-03T07:54:29Z</time>
      </trkpt>
      <trkpt lat="45.02546" lon="4.77934">
        <ele>439.9</ele>
        <time>2026-05-03T07:54:34Z</time>
      </trkpt>
      <trkpt lat="45.02537" lon="4.77933">
        <ele>439.1</ele>
        <time>2026-05-03T07:54:39Z</time>
      </trkpt>
      <trkpt lat="45.02529" lon="4.77933">
        <ele>438.3</ele>
        <time>2026-05-03T07:54:44Z</time>
      </trkpt>
      <trkpt lat="45.02522" lon="4.7793">
        <ele>437.8</ele>
        <time>2026-05-03T07:54:49Z</time>
      </trkpt>
      <trkpt lat="45.0252" lon="4.77931">
        <ele>437.6</ele>
        <time>2026-05-03T07:54:54Z</time>
      </trkpt>
      <trkpt lat="45.0252" lon="4.77931">
        <ele>437.6</ele>
        <time>2026-05-03T07:54:59Z</time>
      </trkpt>
      <trkpt lat="45.0252" lon="4.77931">
        <ele>437.6</ele>
        <time>2026-05-03T07:55:04Z</time>
      </trkpt>
      <trkpt lat="45.02512" lon="4.77929">
        <ele>437</ele>
        <time>2026-05-03T07:55:09Z</time>
      </trkpt>
      <trkpt lat="45.02503" lon="4.77928">
        <ele>436.2</ele>
        <time>2026-05-03T07:55:14Z</time>
      </trkpt>
      <trkpt lat="45.02496" lon="4.77926">
        <ele>435.4</ele>
        <time>2026-05-03T07:55:19Z</time>
      </trkpt>
      <trkpt lat="45.02488" lon="4.77924">
        <ele>434.3</ele>
        <time>2026-05-03T07:55:24Z</time>
      </trkpt>
      <trkpt lat="45.02481" lon="4.77923">
        <ele>433.3</ele>
        <time>2026-05-03T07:55:29Z</time>
      </trkpt>
      <trkpt lat="45.02473" lon="4.77918">
        <ele>432.6</ele>
        <time>2026-05-03T07:55:34Z</time>
      </trkpt>
      <trkpt lat="45.02465" lon="4.77915">
        <ele>431.6</ele>
        <time>2026-05-03T07:55:39Z</time>
      </trkpt>
      <trkpt lat="45.02458" lon="4.77911">
        <ele>430.7</ele>
        <time>2026-05-03T07:55:44Z</time>
      </trkpt>
      <trkpt lat="45.0245" lon="4.77908">
        <ele>429.7</ele>
        <time>2026-05-03T07:55:49Z</time>
      </trkpt>
      <trkpt lat="45.02444" lon="4.77904">
        <ele>429.2</ele>
        <time>2026-05-03T07:55:54Z</time>
      </trkpt>
      <trkpt lat="45.02436" lon="4.77899">
        <ele>428.7</ele>
        <time>2026-05-03T07:55:59Z</time>
      </trkpt>
      <trkpt lat="45.02429" lon="4.77893">
        <ele>428.6</ele>
        <time>2026-05-03T07:56:04Z</time>
      </trkpt>
      <trkpt lat="45.02421" lon="4.77889">
        <ele>428.4</ele>
        <time>2026-05-03T07:56:09Z</time>
      </trkpt>
      <trkpt lat="45.02414" lon="4.77885">
        <ele>428.1</ele>
        <time>2026-05-03T07:56:14Z</time>
      </trkpt>
      <trkpt lat="45.02408" lon="4.7788">
        <ele>427.8</ele>
        <time>2026-05-03T07:56:19Z</time>
      </trkpt>
      <trkpt lat="45.02402" lon="4.77874">
        <ele>427.7</ele>
        <time>2026-05-03T07:56:24Z</time>
      </trkpt>
      <trkpt lat="45.02396" lon="4.7787">
        <ele>427.3</ele>
        <time>2026-05-03T07:56:29Z</time>
      </trkpt>
      <trkpt lat="45.02389" lon="4.77865">
        <ele>427</ele>
        <time>2026-05-03T07:56:34Z</time>
      </trkpt>
      <trkpt lat="45.02382" lon="4.77862">
        <ele>426.4</ele>
        <time>2026-05-03T07:56:39Z</time>
      </trkpt>
      <trkpt lat="45.02374" lon="4.77857">
        <ele>426.1</ele>
        <time>2026-05-03T07:56:44Z</time>
      </trkpt>
      <trkpt lat="45.02367" lon="4.77852">
        <ele>426</ele>
        <time>2026-05-03T07:56:49Z</time>
      </trkpt>
      <trkpt lat="45.0236" lon="4.77847">
        <ele>425.9</ele>
        <time>2026-05-03T07:56:54Z</time>
      </trkpt>
      <trkpt lat="45.02353" lon="4.77842">
        <ele>425.9</ele>
        <time>2026-05-03T07:56:59Z</time>
      </trkpt>
      <trkpt lat="45.02346" lon="4.77839">
        <ele>425.5</ele>
        <time>2026-05-03T07:57:04Z</time>
      </trkpt>
      <trkpt lat="45.0234" lon="4.77834">
        <ele>425.7</ele>
        <time>2026-05-03T07:57:09Z</time>
      </trkpt>
      <trkpt lat="45.02333" lon="4.77829">
        <ele>425.3</ele>
        <time>2026-05-03T07:57:14Z</time>
      </trkpt>
      <trkpt lat="45.02327" lon="4.77824">
        <ele>425</ele>
        <time>2026-05-03T07:57:19Z</time>
      </trkpt>
      <trkpt lat="45.02321" lon="4.77819">
        <ele>424.8</ele>
        <time>2026-05-03T07:57:24Z</time>
      </trkpt>
      <trkpt lat="45.02314" lon="4.77812">
        <ele>424.6</ele>
        <time>2026-05-03T07:57:29Z</time>
      </trkpt>
      <trkpt lat="45.02308" lon="4.77807">
        <ele>424.4</ele>
        <time>2026-05-03T07:57:34Z</time>
      </trkpt>
      <trkpt lat="45.02302" lon="4.77803">
        <ele>424.1</ele>
        <time>2026-05-03T07:57:39Z</time>
      </trkpt>
      <trkpt lat="45.02297" lon="4.77797">
        <ele>424.1</ele>
        <time>2026-05-03T07:57:44Z</time>
      </trkpt>
      <trkpt lat="45.0229" lon="4.77789">
        <ele>424.1</ele>
        <time>2026-05-03T07:57:49Z</time>
      </trkpt>
      <trkpt lat="45.02282" lon="4.77782">
        <ele>423.9</ele>
        <time>2026-05-03T07:57:54Z</time>
      </trkpt>
      <trkpt lat="45.02277" lon="4.77775">
        <ele>424.1</ele>
        <time>2026-05-03T07:57:59Z</time>
      </trkpt>
      <trkpt lat="45.02271" lon="4.77767">
        <ele>424.2</ele>
        <time>2026-05-03T07:58:04Z</time>
      </trkpt>
      <trkpt lat="45.02265" lon="4.77761">
        <ele>424.3</ele>
        <time>2026-05-03T07:58:09Z</time>
      </trkpt>
      <trkpt lat="45.0226" lon="4.77754">
        <ele>424.5</ele>
        <time>2026-05-03T07:58:14Z</time>
      </trkpt>
      <trkpt lat="45.02254" lon="4.77747">
        <ele>424.2</ele>
        <time>2026-05-03T07:58:19Z</time>
      </trkpt>
      <trkpt lat="45.02247" lon="4.7774">
        <ele>423.8</ele>
        <time>2026-05-03T07:58:24Z</time>
      </trkpt>
      <trkpt lat="45.0224" lon="4.77733">
        <ele>424.1</ele>
        <time>2026-05-03T07:58:29Z</time>
      </trkpt>
      <trkpt lat="45.02233" lon="4.77728">
        <ele>424.3</ele>
        <time>2026-05-03T07:58:34Z</time>
      </trkpt>
      <trkpt lat="45.02229" lon="4.77724">
        <ele>424.4</ele>
        <time>2026-05-03T07:58:39Z</time>
      </trkpt>
      <trkpt lat="45.02221" lon="4.77719">
        <ele>424.7</ele>
        <time>2026-05-03T07:58:44Z</time>
      </trkpt>
      <trkpt lat="45.02215" lon="4.77714">
        <ele>424.9</ele>
        <time>2026-05-03T07:58:49Z</time>
      </trkpt>
      <trkpt lat="45.02206" lon="4.77713">
        <ele>425.4</ele>
        <time>2026-05-03T07:58:54Z</time>
      </trkpt>
      <trkpt lat="45.02199" lon="4.77711">
        <ele>425.7</ele>
        <time>2026-05-03T07:58:59Z</time>
      </trkpt>
      <trkpt lat="45.02192" lon="4.77708">
        <ele>426</ele>
        <time>2026-05-03T07:59:04Z</time>
      </trkpt>
      <trkpt lat="45.02184" lon="4.77707">
        <ele>426.4</ele>
        <time>2026-05-03T07:59:09Z</time>
      </trkpt>
      <trkpt lat="45.02175" lon="4.77706">
        <ele>426.9</ele>
        <time>2026-05-03T07:59:14Z</time>
      </trkpt>
      <trkpt lat="45.02167" lon="4.77709">
        <ele>427.5</ele>
        <time>2026-05-03T07:59:19Z</time>
      </trkpt>
      <trkpt lat="45.02161" lon="4.7771">
        <ele>428.3</ele>
        <time>2026-05-03T07:59:24Z</time>
      </trkpt>
      <trkpt lat="45.02153" lon="4.77712">
        <ele>429.4</ele>
        <time>2026-05-03T07:59:29Z</time>
      </trkpt>
      <trkpt lat="45.02147" lon="4.77717">
        <ele>430.4</ele>
        <time>2026-05-03T07:59:34Z</time>
      </trkpt>
      <trkpt lat="45.02139" lon="4.77722">
        <ele>431.7</ele>
        <time>2026-05-03T07:59:39Z</time>
      </trkpt>
      <trkpt lat="45.02133" lon="4.77725">
        <ele>432.7</ele>
        <time>2026-05-03T07:59:44Z</time>
      </trkpt>
      <trkpt lat="45.02125" lon="4.77731">
        <ele>434.1</ele>
        <time>2026-05-03T07:59:49Z</time>
      </trkpt>
      <trkpt lat="45.02118" lon="4.77735">
        <ele>435.3</ele>
        <time>2026-05-03T07:59:54Z</time>
      </trkpt>
      <trkpt lat="45.02112" lon="4.77739">
        <ele>436.4</ele>
        <time>2026-05-03T07:59:59Z</time>
      </trkpt>
      <trkpt lat="45.02106" lon="4.77741">
        <ele>437.3</ele>
        <time>2026-05-03T08:00:04Z</time>
      </trkpt>
      <trkpt lat="45.02101" lon="4.77748">
        <ele>438.5</ele>
        <time>2026-05-03T08:00:09Z</time>
      </trkpt>
      <trkpt lat="45.02095" lon="4.77755">
        <ele>439.6</ele>
        <time>2026-05-03T08:00:14Z</time>
      </trkpt>
      <trkpt lat="45.0209" lon="4.77763">
        <ele>440.6</ele>
        <time>2026-05-03T08:00:19Z</time>
      </trkpt>
      <trkpt lat="45.02087" lon="4.77772">
        <ele>441.3</ele>
        <time>2026-05-03T08:00:24Z</time>
      </trkpt>
      <trkpt lat="45.02087" lon="4.77778">
        <ele>441.5</ele>
        <time>2026-05-03T08:00:29Z</time>
      </trkpt>
      <trkpt lat="45.02086" lon="4.77784">
        <ele>441.9</ele>
        <time>2026-05-03T08:00:34Z</time>
      </trkpt>
      <trkpt lat="45.02086" lon="4.77792">
        <ele>442.2</ele>
        <time>2026-05-03T08:00:39Z</time>
      </trkpt>
      <trkpt lat="45.02087" lon="4.778">
        <ele>442.3</ele>
        <time>2026-05-03T08:00:44Z</time>
      </trkpt>
      <trkpt lat="45.02087" lon="4.77809">
        <ele>442.6</ele>
        <time>2026-05-03T08:00:49Z</time>
      </trkpt>
      <trkpt lat="45.02086" lon="4.77815">
        <ele>443</ele>
        <time>2026-05-03T08:00:54Z</time>
      </trkpt>
      <trkpt lat="45.02085" lon="4.77823">
        <ele>443.4</ele>
        <time>2026-05-03T08:00:59Z</time>
      </trkpt>
      <trkpt lat="45.02082" lon="4.77833">
        <ele>444.1</ele>
        <time>2026-05-03T08:01:04Z</time>
      </trkpt>
      <trkpt lat="45.0208" lon="4.77841">
        <ele>443.2</ele>
        <time>2026-05-03T08:01:09Z</time>
      </trkpt>
      <trkpt lat="45.02078" lon="4.77849">
        <ele>442.2</ele>
        <time>2026-05-03T08:01:14Z</time>
      </trkpt>
      <trkpt lat="45.02076" lon="4.77856">
        <ele>441.4</ele>
        <time>2026-05-03T08:01:19Z</time>
      </trkpt>
      <trkpt lat="45.02076" lon="4.77864">
        <ele>440.4</ele>
        <time>2026-05-03T08:01:24Z</time>
      </trkpt>
      <trkpt lat="45.02076" lon="4.77872">
        <ele>439.3</ele>
        <time>2026-05-03T08:01:29Z</time>
      </trkpt>
      <trkpt lat="45.02078" lon="4.77879">
        <ele>438.3</ele>
        <time>2026-05-03T08:01:34Z</time>
      </trkpt>
      <trkpt lat="45.02076" lon="4.77891">
        <ele>436.8</ele>
        <time>2026-05-03T08:01:39Z</time>
      </trkpt>
      <trkpt lat="45.02071" lon="4.77898">
        <ele>436.1</ele>
        <time>2026-05-03T08:01:44Z</time>
      </trkpt>
      <trkpt lat="45.02066" lon="4.77902">
        <ele>435.8</ele>
        <time>2026-05-03T08:01:49Z</time>
      </trkpt>
      <trkpt lat="45.0206" lon="4.77904">
        <ele>435.8</ele>
        <time>2026-05-03T08:01:54Z</time>
      </trkpt>
      <trkpt lat="45.02054" lon="4.77904">
        <ele>436.1</ele>
        <time>2026-05-03T08:01:59Z</time>
      </trkpt>
      <trkpt lat="45.02047" lon="4.77905">
        <ele>436.3</ele>
        <time>2026-05-03T08:02:04Z</time>
      </trkpt>
      <trkpt lat="45.02045" lon="4.77905">
        <ele>436.4</ele>
        <time>2026-05-03T08:02:09Z</time>
      </trkpt>
      <trkpt lat="45.0204" lon="4.77904">
        <ele>436.8</ele>
        <time>2026-05-03T08:02:14Z</time>
      </trkpt>
      <trkpt lat="45.02034" lon="4.77901">
        <ele>437.5</ele>
        <time>2026-05-03T08:02:19Z</time>
      </trkpt>
      <trkpt lat="45.02028" lon="4.77899">
        <ele>438.1</ele>
        <time>2026-05-03T08:02:24Z</time>
      </trkpt>
      <trkpt lat="45.0202" lon="4.77899">
        <ele>438.5</ele>
        <time>2026-05-03T08:02:29Z</time>
      </trkpt>
      <trkpt lat="45.02015" lon="4.77897">
        <ele>439.1</ele>
        <time>2026-05-03T08:02:34Z</time>
      </trkpt>
      <trkpt lat="45.02006" lon="4.77897">
        <ele>439.5</ele>
        <time>2026-05-03T08:02:39Z</time>
      </trkpt>
      <trkpt lat="45.02" lon="4.77895">
        <ele>440.1</ele>
        <time>2026-05-03T08:02:44Z</time>
      </trkpt>
      <trkpt lat="45.01994" lon="4.77893">
        <ele>440.8</ele>
        <time>2026-05-03T08:02:49Z</time>
      </trkpt>
      <trkpt lat="45.01986" lon="4.77893">
        <ele>441.3</ele>
        <time>2026-05-03T08:02:54Z</time>
      </trkpt>
      <trkpt lat="45.0198" lon="4.77891">
        <ele>441.9</ele>
        <time>2026-05-03T08:02:59Z</time>
      </trkpt>
      <trkpt lat="45.01973" lon="4.7789">
        <ele>442.4</ele>
        <time>2026-05-03T08:03:04Z</time>
      </trkpt>
      <trkpt lat="45.01966" lon="4.77889">
        <ele>442.9</ele>
        <time>2026-05-03T08:03:09Z</time>
      </trkpt>
      <trkpt lat="45.01958" lon="4.77887">
        <ele>443.5</ele>
        <time>2026-05-03T08:03:14Z</time>
      </trkpt>
      <trkpt lat="45.01952" lon="4.77885">
        <ele>444.1</ele>
        <time>2026-05-03T08:03:19Z</time>
      </trkpt>
      <trkpt lat="45.01946" lon="4.77884">
        <ele>444.5</ele>
        <time>2026-05-03T08:03:24Z</time>
      </trkpt>
      <trkpt lat="45.01939" lon="4.77882">
        <ele>445</ele>
        <time>2026-05-03T08:03:29Z</time>
      </trkpt>
      <trkpt lat="45.01933" lon="4.7788">
        <ele>445.4</ele>
        <time>2026-05-03T08:03:34Z</time>
      </trkpt>
      <trkpt lat="45.01927" lon="4.77879">
        <ele>445.8</ele>
        <time>2026-05-03T08:03:39Z</time>
      </trkpt>
      <trkpt lat="45.01922" lon="4.77875">
        <ele>446.3</ele>
        <time>2026-05-03T08:03:44Z</time>
      </trkpt>
      <trkpt lat="45.01915" lon="4.77874">
        <ele>446.6</ele>
        <time>2026-05-03T08:03:49Z</time>
      </trkpt>
      <trkpt lat="45.01909" lon="4.77872">
        <ele>446.9</ele>
        <time>2026-05-03T08:03:54Z</time>
      </trkpt>
      <trkpt lat="45.01902" lon="4.77868">
        <ele>447.3</ele>
        <time>2026-05-03T08:03:59Z</time>
      </trkpt>
      <trkpt lat="45.01897" lon="4.77864">
        <ele>447.6</ele>
        <time>2026-05-03T08:04:04Z</time>
      </trkpt>
      <trkpt lat="45.01891" lon="4.77862">
        <ele>447.8</ele>
        <time>2026-05-03T08:04:09Z</time>
      </trkpt>
      <trkpt lat="45.01884" lon="4.7786">
        <ele>448</ele>
        <time>2026-05-03T08:04:14Z</time>
      </trkpt>
      <trkpt lat="45.01876" lon="4.77858">
        <ele>448.2</ele>
        <time>2026-05-03T08:04:19Z</time>
      </trkpt>
      <trkpt lat="45.0187" lon="4.77856">
        <ele>448.4</ele>
        <time>2026-05-03T08:04:24Z</time>
      </trkpt>
      <trkpt lat="45.01863" lon="4.77855">
        <ele>448.5</ele>
        <time>2026-05-03T08:04:29Z</time>
      </trkpt>
      <trkpt lat="45.01856" lon="4.77853">
        <ele>448.7</ele>
        <time>2026-05-03T08:04:34Z</time>
      </trkpt>
      <trkpt lat="45.01849" lon="4.77853">
        <ele>448.8</ele>
        <time>2026-05-03T08:04:39Z</time>
      </trkpt>
      <trkpt lat="45.01843" lon="4.77854">
        <ele>448.9</ele>
        <time>2026-05-03T08:04:44Z</time>
      </trkpt>
      <trkpt lat="45.01836" lon="4.77854">
        <ele>449</ele>
        <time>2026-05-03T08:04:49Z</time>
      </trkpt>
      <trkpt lat="45.01827" lon="4.77853">
        <ele>448.8</ele>
        <time>2026-05-03T08:04:54Z</time>
      </trkpt>
      <trkpt lat="45.01819" lon="4.77854">
        <ele>448.7</ele>
        <time>2026-05-03T08:04:59Z</time>
      </trkpt>
      <trkpt lat="45.01811" lon="4.77854">
        <ele>448.5</ele>
        <time>2026-05-03T08:05:04Z</time>
      </trkpt>
      <trkpt lat="45.01803" lon="4.77852">
        <ele>448.2</ele>
        <time>2026-05-03T08:05:09Z</time>
      </trkpt>
      <trkpt lat="45.01796" lon="4.77854">
        <ele>448.1</ele>
        <time>2026-05-03T08:05:14Z</time>
      </trkpt>
      <trkpt lat="45.01788" lon="4.77853">
        <ele>447.9</ele>
        <time>2026-05-03T08:05:19Z</time>
      </trkpt>
      <trkpt lat="45.01782" lon="4.77852">
        <ele>447.7</ele>
        <time>2026-05-03T08:05:24Z</time>
      </trkpt>
      <trkpt lat="45.01775" lon="4.77852">
        <ele>447.5</ele>
        <time>2026-05-03T08:05:29Z</time>
      </trkpt>
      <trkpt lat="45.01767" lon="4.77851">
        <ele>447.3</ele>
        <time>2026-05-03T08:05:34Z</time>
      </trkpt>
      <trkpt lat="45.0176" lon="4.7785">
        <ele>447.1</ele>
        <time>2026-05-03T08:05:39Z</time>
      </trkpt>
      <trkpt lat="45.01753" lon="4.77851">
        <ele>446.9</ele>
        <time>2026-05-03T08:05:44Z</time>
      </trkpt>
      <trkpt lat="45.01746" lon="4.77851">
        <ele>446.7</ele>
        <time>2026-05-03T08:05:49Z</time>
      </trkpt>
      <trkpt lat="45.01739" lon="4.77852">
        <ele>446.5</ele>
        <time>2026-05-03T08:05:54Z</time>
      </trkpt>
      <trkpt lat="45.01733" lon="4.77855">
        <ele>446.5</ele>
        <time>2026-05-03T08:05:59Z</time>
      </trkpt>
      <trkpt lat="45.01727" lon="4.77862">
        <ele>446.6</ele>
        <time>2026-05-03T08:06:04Z</time>
      </trkpt>
      <trkpt lat="45.01723" lon="4.7787">
        <ele>446.9</ele>
        <time>2026-05-03T08:06:09Z</time>
      </trkpt>
      <trkpt lat="45.0172" lon="4.77878">
        <ele>447.3</ele>
        <time>2026-05-03T08:06:14Z</time>
      </trkpt>
      <trkpt lat="45.01718" lon="4.77887">
        <ele>447.7</ele>
        <time>2026-05-03T08:06:19Z</time>
      </trkpt>
      <trkpt lat="45.01715" lon="4.77896">
        <ele>448.1</ele>
        <time>2026-05-03T08:06:24Z</time>
      </trkpt>
      <trkpt lat="45.01713" lon="4.77905">
        <ele>448.5</ele>
        <time>2026-05-03T08:06:29Z</time>
      </trkpt>
      <trkpt lat="45.01711" lon="4.77915">
        <ele>449</ele>
        <time>2026-05-03T08:06:34Z</time>
      </trkpt>
      <trkpt lat="45.01708" lon="4.77921">
        <ele>449.2</ele>
        <time>2026-05-03T08:06:39Z</time>
      </trkpt>
      <trkpt lat="45.01703" lon="4.77928">
        <ele>449.4</ele>
        <time>2026-05-03T08:06:44Z</time>
      </trkpt>
      <trkpt lat="45.017" lon="4.77935">
        <ele>449.6</ele>
        <time>2026-05-03T08:06:49Z</time>
      </trkpt>
      <trkpt lat="45.01698" lon="4.77936">
        <ele>449.6</ele>
        <time>2026-05-03T08:06:54Z</time>
      </trkpt>
      <trkpt lat="45.01693" lon="4.77944">
        <ele>449.8</ele>
        <time>2026-05-03T08:06:59Z</time>
      </trkpt>
      <trkpt lat="45.01687" lon="4.77951">
        <ele>450</ele>
        <time>2026-05-03T08:07:04Z</time>
      </trkpt>
      <trkpt lat="45.0168" lon="4.77959">
        <ele>450.3</ele>
        <time>2026-05-03T08:07:09Z</time>
      </trkpt>
      <trkpt lat="45.01676" lon="4.77967">
        <ele>450.6</ele>
        <time>2026-05-03T08:07:14Z</time>
      </trkpt>
      <trkpt lat="45.0167" lon="4.77978">
        <ele>451</ele>
        <time>2026-05-03T08:07:19Z</time>
      </trkpt>
      <trkpt lat="45.01665" lon="4.77981">
        <ele>451</ele>
        <time>2026-05-03T08:07:24Z</time>
      </trkpt>
      <trkpt lat="45.01665" lon="4.77981">
        <ele>451</ele>
        <time>2026-05-03T08:07:29Z</time>
      </trkpt>
      <trkpt lat="45.01668" lon="4.77988">
        <ele>451.4</ele>
        <time>2026-05-03T08:07:34Z</time>
      </trkpt>
      <trkpt lat="45.01667" lon="4.77993">
        <ele>451.7</ele>
        <time>2026-05-03T08:07:39Z</time>
      </trkpt>
      <trkpt lat="45.01667" lon="4.77996">
        <ele>451.8</ele>
        <time>2026-05-03T08:07:44Z</time>
      </trkpt>
      <trkpt lat="45.01668" lon="4.78002">
        <ele>452</ele>
        <time>2026-05-03T08:07:49Z</time>
      </trkpt>
      <trkpt lat="45.01668" lon="4.78012">
        <ele>452</ele>
        <time>2026-05-03T08:07:54Z</time>
      </trkpt>
      <trkpt lat="45.01668" lon="4.78022">
        <ele>452</ele>
        <time>2026-05-03T08:07:59Z</time>
      </trkpt>
      <trkpt lat="45.01667" lon="4.78033">
        <ele>452</ele>
        <time>2026-05-03T08:08:04Z</time>
      </trkpt>
      <trkpt lat="45.01667" lon="4.78042">
        <ele>452</ele>
        <time>2026-05-03T08:08:09Z</time>
      </trkpt>
      <trkpt lat="45.01668" lon="4.78052">
        <ele>452</ele>
        <time>2026-05-03T08:08:14Z</time>
      </trkpt>
      <trkpt lat="45.01668" lon="4.78062">
        <ele>452</ele>
        <time>2026-05-03T08:08:19Z</time>
      </trkpt>
      <trkpt lat="45.01667" lon="4.78074">
        <ele>452</ele>
        <time>2026-05-03T08:08:24Z</time>
      </trkpt>
      <trkpt lat="45.01667" lon="4.78085">
        <ele>452.1</ele>
        <time>2026-05-03T08:08:29Z</time>
      </trkpt>
      <trkpt lat="45.01667" lon="4.78095">
        <ele>452.4</ele>
        <time>2026-05-03T08:08:34Z</time>
      </trkpt>
      <trkpt lat="45.01666" lon="4.78106">
        <ele>452.8</ele>
        <time>2026-05-03T08:08:39Z</time>
      </trkpt>
      <trkpt lat="45.01666" lon="4.78117">
        <ele>453.2</ele>
        <time>2026-05-03T08:08:44Z</time>
      </trkpt>
      <trkpt lat="45.01664" lon="4.78127">
        <ele>453.5</ele>
        <time>2026-05-03T08:08:49Z</time>
      </trkpt>
      <trkpt lat="45.01663" lon="4.78138">
        <ele>453.8</ele>
        <time>2026-05-03T08:08:54Z</time>
      </trkpt>
      <trkpt lat="45.01662" lon="4.78147">
        <ele>454.1</ele>
        <time>2026-05-03T08:08:59Z</time>
      </trkpt>
      <trkpt lat="45.01661" lon="4.78156">
        <ele>454.4</ele>
        <time>2026-05-03T08:09:04Z</time>
      </trkpt>
      <trkpt lat="45.01658" lon="4.78165">
        <ele>454.6</ele>
        <time>2026-05-03T08:09:09Z</time>
      </trkpt>
      <trkpt lat="45.01654" lon="4.78173">
        <ele>455.2</ele>
        <time>2026-05-03T08:09:14Z</time>
      </trkpt>
      <trkpt lat="45.01649" lon="4.78182">
        <ele>455.8</ele>
        <time>2026-05-03T08:09:19Z</time>
      </trkpt>
      <trkpt lat="45.01642" lon="4.78189">
        <ele>456.3</ele>
        <time>2026-05-03T08:09:24Z</time>
      </trkpt>
      <trkpt lat="45.01636" lon="4.78194">
        <ele>456.5</ele>
        <time>2026-05-03T08:09:29Z</time>
      </trkpt>
      <trkpt lat="45.0163" lon="4.78199">
        <ele>456.8</ele>
        <time>2026-05-03T08:09:34Z</time>
      </trkpt>
      <trkpt lat="45.01624" lon="4.78204">
        <ele>457</ele>
        <time>2026-05-03T08:09:39Z</time>
      </trkpt>
      <trkpt lat="45.01617" lon="4.78209">
        <ele>457.3</ele>
        <time>2026-05-03T08:09:44Z</time>
      </trkpt>
      <trkpt lat="45.0161" lon="4.78212">
        <ele>457.3</ele>
        <time>2026-05-03T08:09:49Z</time>
      </trkpt>
      <trkpt lat="45.01603" lon="4.78216">
        <ele>457.4</ele>
        <time>2026-05-03T08:09:54Z</time>
      </trkpt>
      <trkpt lat="45.01597" lon="4.78221">
        <ele>457.7</ele>
        <time>2026-05-03T08:09:59Z</time>
      </trkpt>
      <trkpt lat="45.0159" lon="4.78224">
        <ele>457.7</ele>
        <time>2026-05-03T08:10:04Z</time>
      </trkpt>
      <trkpt lat="45.01584" lon="4.78228">
        <ele>457.9</ele>
        <time>2026-05-03T08:10:09Z</time>
      </trkpt>
      <trkpt lat="45.01577" lon="4.78232">
        <ele>458.2</ele>
        <time>2026-05-03T08:10:14Z</time>
      </trkpt>
      <trkpt lat="45.01571" lon="4.78236">
        <ele>458.5</ele>
        <time>2026-05-03T08:10:19Z</time>
      </trkpt>
      <trkpt lat="45.01564" lon="4.78241">
        <ele>458.9</ele>
        <time>2026-05-03T08:10:24Z</time>
      </trkpt>
      <trkpt lat="45.01557" lon="4.78245">
        <ele>459.2</ele>
        <time>2026-05-03T08:10:29Z</time>
      </trkpt>
      <trkpt lat="45.01549" lon="4.78249">
        <ele>459.5</ele>
        <time>2026-05-03T08:10:34Z</time>
      </trkpt>
      <trkpt lat="45.01543" lon="4.78253">
        <ele>459.7</ele>
        <time>2026-05-03T08:10:39Z</time>
      </trkpt>
      <trkpt lat="45.01536" lon="4.78257">
        <ele>459.8</ele>
        <time>2026-05-03T08:10:44Z</time>
      </trkpt>
      <trkpt lat="45.01529" lon="4.78261">
        <ele>459.8</ele>
        <time>2026-05-03T08:10:49Z</time>
      </trkpt>
      <trkpt lat="45.01523" lon="4.78264">
        <ele>459.9</ele>
        <time>2026-05-03T08:10:54Z</time>
      </trkpt>
      <trkpt lat="45.01516" lon="4.78268">
        <ele>459.9</ele>
        <time>2026-05-03T08:10:59Z</time>
      </trkpt>
      <trkpt lat="45.01515" lon="4.7827">
        <ele>460</ele>
        <time>2026-05-03T08:11:04Z</time>
      </trkpt>
      <trkpt lat="45.01511" lon="4.78277">
        <ele>460.2</ele>
        <time>2026-05-03T08:11:09Z</time>
      </trkpt>
      <trkpt lat="45.01505" lon="4.78281">
        <ele>460.2</ele>
        <time>2026-05-03T08:11:14Z</time>
      </trkpt>
      <trkpt lat="45.01498" lon="4.78286">
        <ele>460.4</ele>
        <time>2026-05-03T08:11:19Z</time>
      </trkpt>
      <trkpt lat="45.01492" lon="4.78291">
        <ele>460.8</ele>
        <time>2026-05-03T08:11:24Z</time>
      </trkpt>
      <trkpt lat="45.01486" lon="4.78295">
        <ele>461.1</ele>
        <time>2026-05-03T08:11:29Z</time>
      </trkpt>
      <trkpt lat="45.01479" lon="4.78299">
        <ele>461.5</ele>
        <time>2026-05-03T08:11:34Z</time>
      </trkpt>
      <trkpt lat="45.01476" lon="4.78306">
        <ele>461.9</ele>
        <time>2026-05-03T08:11:39Z</time>
      </trkpt>
      <trkpt lat="45.0148" lon="4.78311">
        <ele>461.9</ele>
        <time>2026-05-03T08:11:44Z</time>
      </trkpt>
      <trkpt lat="45.01485" lon="4.78314">
        <ele>461.8</ele>
        <time>2026-05-03T08:11:49Z</time>
      </trkpt>
      <trkpt lat="45.0149" lon="4.78319">
        <ele>461.8</ele>
        <time>2026-05-03T08:11:54Z</time>
      </trkpt>
      <trkpt lat="45.01497" lon="4.78325">
        <ele>461.8</ele>
        <time>2026-05-03T08:11:59Z</time>
      </trkpt>
      <trkpt lat="45.01503" lon="4.7833">
        <ele>462</ele>
        <time>2026-05-03T08:12:04Z</time>
      </trkpt>
      <trkpt lat="45.0151" lon="4.78332">
        <ele>462.3</ele>
        <time>2026-05-03T08:12:09Z</time>
      </trkpt>
      <trkpt lat="45.01515" lon="4.78336">
        <ele>462.7</ele>
        <time>2026-05-03T08:12:14Z</time>
      </trkpt>
      <trkpt lat="45.01517" lon="4.78342">
        <ele>463.1</ele>
        <time>2026-05-03T08:12:19Z</time>
      </trkpt>
      <trkpt lat="45.01521" lon="4.78351">
        <ele>463.7</ele>
        <time>2026-05-03T08:12:24Z</time>
      </trkpt>
      <trkpt lat="45.01526" lon="4.78357">
        <ele>464.2</ele>
        <time>2026-05-03T08:12:29Z</time>
      </trkpt>
      <trkpt lat="45.0153" lon="4.78359">
        <ele>464.4</ele>
        <time>2026-05-03T08:12:34Z</time>
      </trkpt>
      <trkpt lat="45.01534" lon="4.78361">
        <ele>464.6</ele>
        <time>2026-05-03T08:12:39Z</time>
      </trkpt>
      <trkpt lat="45.0154" lon="4.7836">
        <ele>464.7</ele>
        <time>2026-05-03T08:12:44Z</time>
      </trkpt>
      <trkpt lat="45.01547" lon="4.78358">
        <ele>464.8</ele>
        <time>2026-05-03T08:12:49Z</time>
      </trkpt>
      <trkpt lat="45.01554" lon="4.78359">
        <ele>465.1</ele>
        <time>2026-05-03T08:12:54Z</time>
      </trkpt>
      <trkpt lat="45.01555" lon="4.78368">
        <ele>465.5</ele>
        <time>2026-05-03T08:12:59Z</time>
      </trkpt>
      <trkpt lat="45.01554" lon="4.78374">
        <ele>465.8</ele>
        <time>2026-05-03T08:13:04Z</time>
      </trkpt>
      <trkpt lat="45.0155" lon="4.7838">
        <ele>465.9</ele>
        <time>2026-05-03T08:13:09Z</time>
      </trkpt>
      <trkpt lat="45.0155" lon="4.78381">
        <ele>466</ele>
        <time>2026-05-03T08:13:14Z</time>
      </trkpt>
      <trkpt lat="45.01549" lon="4.78384">
        <ele>466.1</ele>
        <time>2026-05-03T08:13:19Z</time>
      </trkpt>
      <trkpt lat="45.01544" lon="4.78392">
        <ele>466.4</ele>
        <time>2026-05-03T08:13:24Z</time>
      </trkpt>
      <trkpt lat="45.01539" lon="4.78399">
        <ele>466.6</ele>
        <time>2026-05-03T08:13:29Z</time>
      </trkpt>
      <trkpt lat="45.01536" lon="4.78407">
        <ele>467</ele>
        <time>2026-05-03T08:13:34Z</time>
      </trkpt>
      <trkpt lat="45.01534" lon="4.78414">
        <ele>467.3</ele>
        <time>2026-05-03T08:13:39Z</time>
      </trkpt>
      <trkpt lat="45.01531" lon="4.78425">
        <ele>467.6</ele>
        <time>2026-05-03T08:13:44Z</time>
      </trkpt>
      <trkpt lat="45.01528" lon="4.78434">
        <ele>467.8</ele>
        <time>2026-05-03T08:13:49Z</time>
      </trkpt>
      <trkpt lat="45.01523" lon="4.78443">
        <ele>467.9</ele>
        <time>2026-05-03T08:13:54Z</time>
      </trkpt>
      <trkpt lat="45.01518" lon="4.7845">
        <ele>468</ele>
        <time>2026-05-03T08:13:59Z</time>
      </trkpt>
      <trkpt lat="45.01514" lon="4.78456">
        <ele>468.1</ele>
        <time>2026-05-03T08:14:04Z</time>
      </trkpt>
      <trkpt lat="45.01509" lon="4.78462">
        <ele>468.2</ele>
        <time>2026-05-03T08:14:09Z</time>
      </trkpt>
      <trkpt lat="45.01505" lon="4.78468">
        <ele>468.3</ele>
        <time>2026-05-03T08:14:14Z</time>
      </trkpt>
      <trkpt lat="45.01501" lon="4.78474">
        <ele>468.4</ele>
        <time>2026-05-03T08:14:19Z</time>
      </trkpt>
      <trkpt lat="45.01496" lon="4.78478">
        <ele>468.7</ele>
        <time>2026-05-03T08:14:24Z</time>
      </trkpt>
      <trkpt lat="45.01492" lon="4.78485">
        <ele>469</ele>
        <time>2026-05-03T08:14:29Z</time>
      </trkpt>
      <trkpt lat="45.01488" lon="4.78492">
        <ele>469.4</ele>
        <time>2026-05-03T08:14:34Z</time>
      </trkpt>
      <trkpt lat="45.01484" lon="4.78498">
        <ele>469.7</ele>
        <time>2026-05-03T08:14:39Z</time>
      </trkpt>
      <trkpt lat="45.0148" lon="4.78506">
        <ele>470.3</ele>
        <time>2026-05-03T08:14:44Z</time>
      </trkpt>
      <trkpt lat="45.01475" lon="4.78514">
        <ele>471</ele>
        <time>2026-05-03T08:14:49Z</time>
      </trkpt>
      <trkpt lat="45.01471" lon="4.78523">
        <ele>471.7</ele>
        <time>2026-05-03T08:14:54Z</time>
      </trkpt>
      <trkpt lat="45.01467" lon="4.78531">
        <ele>472.3</ele>
        <time>2026-05-03T08:14:59Z</time>
      </trkpt>
      <trkpt lat="45.01464" lon="4.78537">
        <ele>472.8</ele>
        <time>2026-05-03T08:15:04Z</time>
      </trkpt>
      <trkpt lat="45.0146" lon="4.78544">
        <ele>473.3</ele>
        <time>2026-05-03T08:15:09Z</time>
      </trkpt>
      <trkpt lat="45.01457" lon="4.78551">
        <ele>473.8</ele>
        <time>2026-05-03T08:15:14Z</time>
      </trkpt>
      <trkpt lat="45.01453" lon="4.78558">
        <ele>474.3</ele>
        <time>2026-05-03T08:15:19Z</time>
      </trkpt>
      <trkpt lat="45.01449" lon="4.78564">
        <ele>474.8</ele>
        <time>2026-05-03T08:15:24Z</time>
      </trkpt>
      <trkpt lat="45.01445" lon="4.78571">
        <ele>475.3</ele>
        <time>2026-05-03T08:15:29Z</time>
      </trkpt>
      <trkpt lat="45.01441" lon="4.78579">
        <ele>475.9</ele>
        <time>2026-05-03T08:15:34Z</time>
      </trkpt>
      <trkpt lat="45.01437" lon="4.78587">
        <ele>476.5</ele>
        <time>2026-05-03T08:15:39Z</time>
      </trkpt>
      <trkpt lat="45.01433" lon="4.78594">
        <ele>477</ele>
        <time>2026-05-03T08:15:44Z</time>
      </trkpt>
      <trkpt lat="45.01429" lon="4.78601">
        <ele>477.5</ele>
        <time>2026-05-03T08:15:49Z</time>
      </trkpt>
      <trkpt lat="45.01424" lon="4.78608">
        <ele>478</ele>
        <time>2026-05-03T08:15:54Z</time>
      </trkpt>
      <trkpt lat="45.01419" lon="4.78615">
        <ele>478.5</ele>
        <time>2026-05-03T08:15:59Z</time>
      </trkpt>
      <trkpt lat="45.01414" lon="4.7862">
        <ele>478.8</ele>
        <time>2026-05-03T08:16:04Z</time>
      </trkpt>
      <trkpt lat="45.01409" lon="4.78626">
        <ele>479.2</ele>
        <time>2026-05-03T08:16:09Z</time>
      </trkpt>
      <trkpt lat="45.01402" lon="4.78631">
        <ele>479.6</ele>
        <time>2026-05-03T08:16:14Z</time>
      </trkpt>
      <trkpt lat="45.01397" lon="4.78635">
        <ele>479.9</ele>
        <time>2026-05-03T08:16:19Z</time>
      </trkpt>
      <trkpt lat="45.0139" lon="4.78639">
        <ele>480.2</ele>
        <time>2026-05-03T08:16:24Z</time>
      </trkpt>
      <trkpt lat="45.01384" lon="4.78643">
        <ele>480.5</ele>
        <time>2026-05-03T08:16:29Z</time>
      </trkpt>
      <trkpt lat="45.01378" lon="4.78646">
        <ele>480.8</ele>
        <time>2026-05-03T08:16:34Z</time>
      </trkpt>
      <trkpt lat="45.01373" lon="4.78649">
        <ele>481.1</ele>
        <time>2026-05-03T08:16:39Z</time>
      </trkpt>
      <trkpt lat="45.01367" lon="4.78653">
        <ele>481.4</ele>
        <time>2026-05-03T08:16:44Z</time>
      </trkpt>
      <trkpt lat="45.0136" lon="4.78657">
        <ele>481.8</ele>
        <time>2026-05-03T08:16:49Z</time>
      </trkpt>
      <trkpt lat="45.01355" lon="4.78662">
        <ele>482.2</ele>
        <time>2026-05-03T08:16:54Z</time>
      </trkpt>
      <trkpt lat="45.01349" lon="4.78668">
        <ele>482.8</ele>
        <time>2026-05-03T08:16:59Z</time>
      </trkpt>
      <trkpt lat="45.01343" lon="4.78674">
        <ele>483.5</ele>
        <time>2026-05-03T08:17:04Z</time>
      </trkpt>
      <trkpt lat="45.01339" lon="4.78678">
        <ele>484.1</ele>
        <time>2026-05-03T08:17:09Z</time>
      </trkpt>
      <trkpt lat="45.01335" lon="4.78678">
        <ele>484.2</ele>
        <time>2026-05-03T08:17:14Z</time>
      </trkpt>
      <trkpt lat="45.01331" lon="4.78672">
        <ele>483.8</ele>
        <time>2026-05-03T08:17:19Z</time>
      </trkpt>
      <trkpt lat="45.01325" lon="4.78666">
        <ele>483.7</ele>
        <time>2026-05-03T08:17:24Z</time>
      </trkpt>
      <trkpt lat="45.01319" lon="4.7866">
        <ele>483.8</ele>
        <time>2026-05-03T08:17:29Z</time>
      </trkpt>
      <trkpt lat="45.01314" lon="4.78653">
        <ele>483.8</ele>
        <time>2026-05-03T08:17:34Z</time>
      </trkpt>
      <trkpt lat="45.0131" lon="4.78644">
        <ele>483.5</ele>
        <time>2026-05-03T08:17:39Z</time>
      </trkpt>
      <trkpt lat="45.01305" lon="4.78637">
        <ele>483.5</ele>
        <time>2026-05-03T08:17:44Z</time>
      </trkpt>
      <trkpt lat="45.01302" lon="4.7863">
        <ele>483.3</ele>
        <time>2026-05-03T08:17:49Z</time>
      </trkpt>
      <trkpt lat="45.01299" lon="4.78622">
        <ele>483</ele>
        <time>2026-05-03T08:17:54Z</time>
      </trkpt>
      <trkpt lat="45.01295" lon="4.78615">
        <ele>482.8</ele>
        <time>2026-05-03T08:17:59Z</time>
      </trkpt>
      <trkpt lat="45.0129" lon="4.78608">
        <ele>482.8</ele>
        <time>2026-05-03T08:18:04Z</time>
      </trkpt>
      <trkpt lat="45.01284" lon="4.786">
        <ele>482.7</ele>
        <time>2026-05-03T08:18:09Z</time>
      </trkpt>
      <trkpt lat="45.01279" lon="4.78591">
        <ele>482.4</ele>
        <time>2026-05-03T08:18:14Z</time>
      </trkpt>
      <trkpt lat="45.01274" lon="4.78586">
        <ele>482.5</ele>
        <time>2026-05-03T08:18:19Z</time>
      </trkpt>
      <trkpt lat="45.01269" lon="4.78581">
        <ele>482.5</ele>
        <time>2026-05-03T08:18:24Z</time>
      </trkpt>
      <trkpt lat="45.01265" lon="4.78576">
        <ele>482.4</ele>
        <time>2026-05-03T08:18:29Z</time>
      </trkpt>
      <trkpt lat="45.01259" lon="4.78571">
        <ele>482.5</ele>
        <time>2026-05-03T08:18:34Z</time>
      </trkpt>
      <trkpt lat="45.01252" lon="4.78565">
        <ele>482.5</ele>
        <time>2026-05-03T08:18:39Z</time>
      </trkpt>
      <trkpt lat="45.01249" lon="4.78563">
        <ele>482.6</ele>
        <time>2026-05-03T08:18:44Z</time>
      </trkpt>
      <trkpt lat="45.01249" lon="4.78562">
        <ele>482.5</ele>
        <time>2026-05-03T08:18:49Z</time>
      </trkpt>
      <trkpt lat="45.01248" lon="4.78562">
        <ele>482.6</ele>
        <time>2026-05-03T08:18:54Z</time>
      </trkpt>
      <trkpt lat="45.01241" lon="4.7856">
        <ele>482.9</ele>
        <time>2026-05-03T08:18:59Z</time>
      </trkpt>
      <trkpt lat="45.01233" lon="4.78556">
        <ele>483.2</ele>
        <time>2026-05-03T08:19:04Z</time>
      </trkpt>
      <trkpt lat="45.01227" lon="4.78553">
        <ele>483.4</ele>
        <time>2026-05-03T08:19:09Z</time>
      </trkpt>
      <trkpt lat="45.0122" lon="4.78548">
        <ele>483.6</ele>
        <time>2026-05-03T08:19:14Z</time>
      </trkpt>
      <trkpt lat="45.01214" lon="4.78541">
        <ele>483.6</ele>
        <time>2026-05-03T08:19:19Z</time>
      </trkpt>
      <trkpt lat="45.01209" lon="4.78533">
        <ele>483.4</ele>
        <time>2026-05-03T08:19:24Z</time>
      </trkpt>
      <trkpt lat="45.01204" lon="4.78522">
        <ele>483.2</ele>
        <time>2026-05-03T08:19:29Z</time>
      </trkpt>
      <trkpt lat="45.012" lon="4.78512">
        <ele>482.9</ele>
        <time>2026-05-03T08:19:34Z</time>
      </trkpt>
      <trkpt lat="45.01196" lon="4.78504">
        <ele>482.8</ele>
        <time>2026-05-03T08:19:39Z</time>
      </trkpt>
      <trkpt lat="45.01192" lon="4.78494">
        <ele>482.6</ele>
        <time>2026-05-03T08:19:44Z</time>
      </trkpt>
      <trkpt lat="45.01188" lon="4.78485">
        <ele>482.5</ele>
        <time>2026-05-03T08:19:49Z</time>
      </trkpt>
      <trkpt lat="45.01184" lon="4.78475">
        <ele>482.3</ele>
        <time>2026-05-03T08:19:54Z</time>
      </trkpt>
      <trkpt lat="45.01179" lon="4.78466">
        <ele>482.3</ele>
        <time>2026-05-03T08:19:59Z</time>
      </trkpt>
      <trkpt lat="45.01174" lon="4.78457">
        <ele>482.3</ele>
        <time>2026-05-03T08:20:04Z</time>
      </trkpt>
      <trkpt lat="45.01169" lon="4.78448">
        <ele>482.3</ele>
        <time>2026-05-03T08:20:09Z</time>
      </trkpt>
      <trkpt lat="45.01165" lon="4.7844">
        <ele>482.3</ele>
        <time>2026-05-03T08:20:14Z</time>
      </trkpt>
      <trkpt lat="45.0116" lon="4.78432">
        <ele>482.4</ele>
        <time>2026-05-03T08:20:19Z</time>
      </trkpt>
      <trkpt lat="45.01156" lon="4.78424">
        <ele>482.4</ele>
        <time>2026-05-03T08:20:24Z</time>
      </trkpt>
      <trkpt lat="45.01151" lon="4.78415">
        <ele>482.4</ele>
        <time>2026-05-03T08:20:29Z</time>
      </trkpt>
      <trkpt lat="45.01146" lon="4.78408">
        <ele>482.5</ele>
        <time>2026-05-03T08:20:34Z</time>
      </trkpt>
      <trkpt lat="45.0114" lon="4.78402">
        <ele>482.7</ele>
        <time>2026-05-03T08:20:39Z</time>
      </trkpt>
      <trkpt lat="45.01134" lon="4.78394">
        <ele>482.7</ele>
        <time>2026-05-03T08:20:44Z</time>
      </trkpt>
      <trkpt lat="45.01128" lon="4.78386">
        <ele>482.7</ele>
        <time>2026-05-03T08:20:49Z</time>
      </trkpt>
      <trkpt lat="45.01122" lon="4.7838">
        <ele>482.8</ele>
        <time>2026-05-03T08:20:54Z</time>
      </trkpt>
      <trkpt lat="45.01116" lon="4.78374">
        <ele>482.9</ele>
        <time>2026-05-03T08:20:59Z</time>
      </trkpt>
      <trkpt lat="45.0111" lon="4.78369">
        <ele>483</ele>
        <time>2026-05-03T08:21:04Z</time>
      </trkpt>
      <trkpt lat="45.01104" lon="4.78364">
        <ele>483.1</ele>
        <time>2026-05-03T08:21:09Z</time>
      </trkpt>
      <trkpt lat="45.01099" lon="4.78359">
        <ele>483</ele>
        <time>2026-05-03T08:21:14Z</time>
      </trkpt>
      <trkpt lat="45.01095" lon="4.78357">
        <ele>483.2</ele>
        <time>2026-05-03T08:21:19Z</time>
      </trkpt>
      <trkpt lat="45.0109" lon="4.78351">
        <ele>483</ele>
        <time>2026-05-03T08:21:24Z</time>
      </trkpt>
      <trkpt lat="45.01083" lon="4.78347">
        <ele>483.2</ele>
        <time>2026-05-03T08:21:29Z</time>
      </trkpt>
      <trkpt lat="45.01076" lon="4.78344">
        <ele>483.3</ele>
        <time>2026-05-03T08:21:34Z</time>
      </trkpt>
      <trkpt lat="45.01069" lon="4.78341">
        <ele>483.5</ele>
        <time>2026-05-03T08:21:39Z</time>
      </trkpt>
      <trkpt lat="45.01063" lon="4.7834">
        <ele>483.8</ele>
        <time>2026-05-03T08:21:44Z</time>
      </trkpt>
      <trkpt lat="45.01055" lon="4.78336">
        <ele>483.9</ele>
        <time>2026-05-03T08:21:49Z</time>
      </trkpt>
      <trkpt lat="45.01048" lon="4.78334">
        <ele>484.2</ele>
        <time>2026-05-03T08:21:54Z</time>
      </trkpt>
      <trkpt lat="45.01043" lon="4.78331">
        <ele>484.3</ele>
        <time>2026-05-03T08:21:59Z</time>
      </trkpt>
      <trkpt lat="45.01035" lon="4.78328">
        <ele>484.7</ele>
        <time>2026-05-03T08:22:04Z</time>
      </trkpt>
      <trkpt lat="45.01029" lon="4.78324">
        <ele>484.9</ele>
        <time>2026-05-03T08:22:09Z</time>
      </trkpt>
      <trkpt lat="45.01023" lon="4.78321">
        <ele>485.1</ele>
        <time>2026-05-03T08:22:14Z</time>
      </trkpt>
      <trkpt lat="45.01018" lon="4.78317">
        <ele>485.2</ele>
        <time>2026-05-03T08:22:19Z</time>
      </trkpt>
      <trkpt lat="45.01013" lon="4.78311">
        <ele>485.2</ele>
        <time>2026-05-03T08:22:24Z</time>
      </trkpt>
      <trkpt lat="45.01005" lon="4.78307">
        <ele>485.5</ele>
        <time>2026-05-03T08:22:29Z</time>
      </trkpt>
      <trkpt lat="45.01" lon="4.78301">
        <ele>485.4</ele>
        <time>2026-05-03T08:22:34Z</time>
      </trkpt>
      <trkpt lat="45.01001" lon="4.78291">
        <ele>484.9</ele>
        <time>2026-05-03T08:22:39Z</time>
      </trkpt>
      <trkpt lat="45.01002" lon="4.78284">
        <ele>484.5</ele>
        <time>2026-05-03T08:22:44Z</time>
      </trkpt>
      <trkpt lat="45.01004" lon="4.78278">
        <ele>484.1</ele>
        <time>2026-05-03T08:22:49Z</time>
      </trkpt>
      <trkpt lat="45.01005" lon="4.78269">
        <ele>483.7</ele>
        <time>2026-05-03T08:22:54Z</time>
      </trkpt>
      <trkpt lat="45.01004" lon="4.78267">
        <ele>483.6</ele>
        <time>2026-05-03T08:22:59Z</time>
      </trkpt>
      <trkpt lat="45.01004" lon="4.78266">
        <ele>483.6</ele>
        <time>2026-05-03T08:23:04Z</time>
      </trkpt>
      <trkpt lat="45.01003" lon="4.78264">
        <ele>483.5</ele>
        <time>2026-05-03T08:23:09Z</time>
      </trkpt>
      <trkpt lat="45.01003" lon="4.78263">
        <ele>483.5</ele>
        <time>2026-05-03T08:23:14Z</time>
      </trkpt>
      <trkpt lat="45.01" lon="4.7826">
        <ele>483.5</ele>
        <time>2026-05-03T08:23:19Z</time>
      </trkpt>
      <trkpt lat="45.01" lon="4.7826">
        <ele>483.5</ele>
        <time>2026-05-03T08:23:24Z</time>
      </trkpt>
      <trkpt lat="45.01" lon="4.7826">
        <ele>483.5</ele>
        <time>2026-05-03T08:23:29Z</time>
      </trkpt>
      <trkpt lat="45.01" lon="4.7826">
        <ele>483.5</ele>
        <time>2026-05-03T08:23:34Z</time>
      </trkpt>
      <trkpt lat="45.01" lon="4.7826">
        <ele>483.5</ele>
        <time>2026-05-03T08:23:39Z</time>
      </trkpt>
      <trkpt lat="45.01" lon="4.7826">
        <ele>483.5</ele>
        <time>2026-05-03T08:23:44Z</time>
      </trkpt>
      <trkpt lat="45.01" lon="4.7826">
        <ele>483.5</ele>
        <time>2026-05-03T08:23:49Z</time>
      </trkpt>
      <trkpt lat="45.01" lon="4.7826">
        <ele>483.5</ele>
        <time>2026-05-03T08:23:54Z</time>
      </trkpt>
      <trkpt lat="45.01" lon="4.7826">
        <ele>483.5</ele>
        <time>2026-05-03T08:23:59Z</time>
      </trkpt>
      <trkpt lat="45.01" lon="4.7826">
        <ele>483.5</ele>
        <time>2026-05-03T08:24:04Z</time>
      </trkpt>
      <trkpt lat="45.01" lon="4.7826">
        <ele>483.5</ele>
        <time>2026-05-03T08:24:09Z</time>
      </trkpt>
      <trkpt lat="45.01" lon="4.7826">
        <ele>483.5</ele>
        <time>2026-05-03T08:24:14Z</time>
      </trkpt>
      <trkpt lat="45.01" lon="4.7826">
        <ele>483.5</ele>
        <time>2026-05-03T08:24:19Z</time>
      </trkpt>
      <trkpt lat="45.01" lon="4.7826">
        <ele>483.5</ele>
        <time>2026-05-03T08:24:24Z</time>
      </trkpt>
      <trkpt lat="45.01" lon="4.7826">
        <ele>483.5</ele>
        <time>2026-05-03T08:24:29Z</time>
      </trkpt>
      <trkpt lat="45.01" lon="4.7826">
        <ele>483.5</ele>
        <time>2026-05-03T08:24:34Z</time>
      </trkpt>
      <trkpt lat="45.01" lon="4.7826">
        <ele>483.5</ele>
        <time>2026-05-03T08:24:39Z</time>
      </trkpt>
      <trkpt lat="45.01" lon="4.7826">
        <ele>483.5</ele>
        <time>2026-05-03T08:24:44Z</time>
      </trkpt>
      <trkpt lat="45.01" lon="4.7826">
        <ele>483.5</ele>
        <time>2026-05-03T08:24:49Z</time>
      </trkpt>
      <trkpt lat="45.01" lon="4.7826">
        <ele>483.5</ele>
        <time>2026-05-03T08:24:54Z</time>
      </trkpt>
      <trkpt lat="45.01008" lon="4.78259">
        <ele>483</ele>
        <time>2026-05-03T08:24:59Z</time>
      </trkpt>
      <trkpt lat="45.01013" lon="4.78252">
        <ele>482.5</ele>
        <time>2026-05-03T08:25:04Z</time>
      </trkpt>
      <trkpt lat="45.01017" lon="4.78244">
        <ele>481.9</ele>
        <time>2026-05-03T08:25:09Z</time>
      </trkpt>
      <trkpt lat="45.01021" lon="4.78238">
        <ele>481.4</ele>
        <time>2026-05-03T08:25:14Z</time>
      </trkpt>
      <trkpt lat="45.01024" lon="4.7823">
        <ele>480.9</ele>
        <time>2026-05-03T08:25:19Z</time>
      </trkpt>
      <trkpt lat="45.01028" lon="4.78222">
        <ele>480.3</ele>
        <time>2026-05-03T08:25:24Z</time>
      </trkpt>
      <trkpt lat="45.0103" lon="4.78214">
        <ele>479.8</ele>
        <time>2026-05-03T08:25:29Z</time>
      </trkpt>
      <trkpt lat="45.01037" lon="4.78206">
        <ele>479.1</ele>
        <time>2026-05-03T08:25:34Z</time>
      </trkpt>
      <trkpt lat="45.01041" lon="4.78196">
        <ele>478.4</ele>
        <time>2026-05-03T08:25:39Z</time>
      </trkpt>
      <trkpt lat="45.01041" lon="4.78186">
        <ele>478</ele>
        <time>2026-05-03T08:25:44Z</time>
      </trkpt>
      <trkpt lat="45.01043" lon="4.78173">
        <ele>477.2</ele>
        <time>2026-05-03T08:25:49Z</time>
      </trkpt>
      <trkpt lat="45.01046" lon="4.78166">
        <ele>476.8</ele>
        <time>2026-05-03T08:25:54Z</time>
      </trkpt>
      <trkpt lat="45.01052" lon="4.78161">
        <ele>476.1</ele>
        <time>2026-05-03T08:25:59Z</time>
      </trkpt>
      <trkpt lat="45.01052" lon="4.78161">
        <ele>476.1</ele>
        <time>2026-05-03T08:25:59Z</time>
      </trkpt>
      <trkpt lat="45.01049" lon="4.78154">
        <ele>475.8</ele>
        <time>2026-05-03T08:27:44Z</time>
      </trkpt>
      <trkpt lat="45.01049" lon="4.78154">
        <ele>475.8</ele>
        <time>2026-05-03T08:27:49Z</time>
      </trkpt>
      <trkpt lat="45.01043" lon="4.78162">
        <ele>476.7</ele>
        <time>2026-05-03T08:27:54Z</time>
      </trkpt>
      <trkpt lat="45.01041" lon="4.78164">
        <ele>476.9</ele>
        <time>2026-05-03T08:27:59Z</time>
      </trkpt>
      <trkpt lat="45.01037" lon="4.78162">
        <ele>477</ele>
        <time>2026-05-03T08:28:04Z</time>
      </trkpt>
      <trkpt lat="45.01035" lon="4.78163">
        <ele>477.1</ele>
        <time>2026-05-03T08:28:09Z</time>
      </trkpt>
      <trkpt lat="45.01034" lon="4.78161">
        <ele>477.1</ele>
        <time>2026-05-03T08:28:14Z</time>
      </trkpt>
      <trkpt lat="45.01034" lon="4.78161">
        <ele>477.1</ele>
        <time>2026-05-03T08:28:19Z</time>
      </trkpt>
      <trkpt lat="45.01034" lon="4.78161">
        <ele>477.1</ele>
        <time>2026-05-03T08:28:24Z</time>
      </trkpt>
      <trkpt lat="45.01034" lon="4.78161">
        <ele>477.1</ele>
        <time>2026-05-03T08:28:29Z</time>
      </trkpt>
      <trkpt lat="45.01034" lon="4.78161">
        <ele>477.1</ele>
        <time>2026-05-03T08:28:34Z</time>
      </trkpt>
      <trkpt lat="45.01034" lon="4.78161">
        <ele>477.1</ele>
        <time>2026-05-03T08:28:39Z</time>
      </trkpt>
      <trkpt lat="45.01034" lon="4.78161">
        <ele>477.1</ele>
        <time>2026-05-03T08:28:44Z</time>
      </trkpt>
      <trkpt lat="45.01034" lon="4.78161">
        <ele>477.1</ele>
        <time>2026-05-03T08:28:49Z</time>
      </trkpt>
      <trkpt lat="45.01034" lon="4.78161">
        <ele>477.1</ele>
        <time>2026-05-03T08:28:54Z</time>
      </trkpt>
      <trkpt lat="45.01034" lon="4.78161">
        <ele>477.1</ele>
        <time>2026-05-03T08:28:59Z</time>
      </trkpt>
      <trkpt lat="45.01034" lon="4.78161">
        <ele>477.1</ele>
        <time>2026-05-03T08:29:04Z</time>
      </trkpt>
      <trkpt lat="45.01034" lon="4.78161">
        <ele>477.1</ele>
        <time>2026-05-03T08:29:09Z</time>
      </trkpt>
      <trkpt lat="45.01034" lon="4.78161">
        <ele>477.1</ele>
        <time>2026-05-03T08:29:14Z</time>
      </trkpt>
      <trkpt lat="45.01034" lon="4.78161">
        <ele>477.1</ele>
        <time>2026-05-03T08:29:19Z</time>
      </trkpt>
      <trkpt lat="45.01034" lon="4.78161">
        <ele>477.1</ele>
        <time>2026-05-03T08:29:24Z</time>
      </trkpt>
      <trkpt lat="45.01034" lon="4.78161">
        <ele>477.1</ele>
        <time>2026-05-03T08:29:29Z</time>
      </trkpt>
      <trkpt lat="45.01034" lon="4.78161">
        <ele>477.1</ele>
        <time>2026-05-03T08:29:34Z</time>
      </trkpt>
      <trkpt lat="45.01034" lon="4.78161">
        <ele>477.1</ele>
        <time>2026-05-03T08:29:39Z</time>
      </trkpt>
      <trkpt lat="45.01034" lon="4.78161">
        <ele>477.1</ele>
        <time>2026-05-03T08:29:44Z</time>
      </trkpt>
      <trkpt lat="45.01034" lon="4.78161">
        <ele>477.1</ele>
        <time>2026-05-03T08:29:49Z</time>
      </trkpt>
      <trkpt lat="45.01034" lon="4.78161">
        <ele>477.1</ele>
        <time>2026-05-03T08:29:54Z</time>
      </trkpt>
      <trkpt lat="45.01034" lon="4.78161">
        <ele>477.1</ele>
        <time>2026-05-03T08:29:59Z</time>
      </trkpt>
      <trkpt lat="45.01034" lon="4.78161">
        <ele>477.1</ele>
        <time>2026-05-03T08:30:04Z</time>
      </trkpt>
      <trkpt lat="45.01034" lon="4.78161">
        <ele>477.1</ele>
        <time>2026-05-03T08:30:09Z</time>
      </trkpt>
      <trkpt lat="45.01034" lon="4.78161">
        <ele>477.1</ele>
        <time>2026-05-03T08:30:14Z</time>
      </trkpt>
      <trkpt lat="45.01034" lon="4.78161">
        <ele>477.1</ele>
        <time>2026-05-03T08:30:19Z</time>
      </trkpt>
      <trkpt lat="45.01034" lon="4.78161">
        <ele>477.1</ele>
        <time>2026-05-03T08:30:24Z</time>
      </trkpt>
      <trkpt lat="45.01034" lon="4.78161">
        <ele>477.1</ele>
        <time>2026-05-03T08:30:29Z</time>
      </trkpt>
      <trkpt lat="45.01034" lon="4.78161">
        <ele>477.1</ele>
        <time>2026-05-03T08:30:34Z</time>
      </trkpt>
      <trkpt lat="45.01034" lon="4.78161">
        <ele>477.1</ele>
        <time>2026-05-03T08:30:39Z</time>
      </trkpt>
      <trkpt lat="45.01034" lon="4.78161">
        <ele>477.1</ele>
        <time>2026-05-03T08:30:44Z</time>
      </trkpt>
      <trkpt lat="45.01034" lon="4.78161">
        <ele>477.1</ele>
        <time>2026-05-03T08:30:49Z</time>
      </trkpt>
      <trkpt lat="45.01034" lon="4.78161">
        <ele>477.1</ele>
        <time>2026-05-03T08:30:54Z</time>
      </trkpt>
      <trkpt lat="45.01034" lon="4.78161">
        <ele>477.1</ele>
        <time>2026-05-03T08:30:59Z</time>
      </trkpt>
      <trkpt lat="45.01034" lon="4.78161">
        <ele>477.1</ele>
        <time>2026-05-03T08:31:04Z</time>
      </trkpt>
      <trkpt lat="45.01034" lon="4.78161">
        <ele>477.1</ele>
        <time>2026-05-03T08:31:09Z</time>
      </trkpt>
      <trkpt lat="45.01034" lon="4.78161">
        <ele>477.1</ele>
        <time>2026-05-03T08:31:14Z</time>
      </trkpt>
      <trkpt lat="45.01034" lon="4.78161">
        <ele>477.1</ele>
        <time>2026-05-03T08:31:19Z</time>
      </trkpt>
      <trkpt lat="45.01034" lon="4.78161">
        <ele>477.1</ele>
        <time>2026-05-03T08:31:24Z</time>
      </trkpt>
      <trkpt lat="45.01033" lon="4.78161">
        <ele>477.1</ele>
        <time>2026-05-03T08:31:29Z</time>
      </trkpt>
      <trkpt lat="45.01026" lon="4.7816">
        <ele>477.4</ele>
        <time>2026-05-03T08:31:34Z</time>
      </trkpt>
      <trkpt lat="45.0102" lon="4.78156">
        <ele>477.5</ele>
        <time>2026-05-03T08:31:39Z</time>
      </trkpt>
      <trkpt lat="45.01014" lon="4.78151">
        <ele>477.6</ele>
        <time>2026-05-03T08:31:44Z</time>
      </trkpt>
      <trkpt lat="45.01008" lon="4.7815">
        <ele>477.9</ele>
        <time>2026-05-03T08:31:49Z</time>
      </trkpt>
      <trkpt lat="45.01002" lon="4.78151">
        <ele>478.3</ele>
        <time>2026-05-03T08:31:54Z</time>
      </trkpt>
      <trkpt lat="45.00999" lon="4.7815">
        <ele>478.5</ele>
        <time>2026-05-03T08:31:59Z</time>
      </trkpt>
      <trkpt lat="45.00993" lon="4.78149">
        <ele>478.8</ele>
        <time>2026-05-03T08:32:04Z</time>
      </trkpt>
      <trkpt lat="45.00984" lon="4.78146">
        <ele>479.2</ele>
        <time>2026-05-03T08:32:09Z</time>
      </trkpt>
      <trkpt lat="45.00976" lon="4.78153">
        <ele>479.9</ele>
        <time>2026-05-03T08:32:14Z</time>
      </trkpt>
      <trkpt lat="45.0097" lon="4.78159">
        <ele>480.5</ele>
        <time>2026-05-03T08:32:19Z</time>
      </trkpt>
      <trkpt lat="45.00967" lon="4.78165">
        <ele>480.9</ele>
        <time>2026-05-03T08:32:24Z</time>
      </trkpt>
      <trkpt lat="45.00964" lon="4.78171">
        <ele>481.4</ele>
        <time>2026-05-03T08:32:29Z</time>
      </trkpt>
      <trkpt lat="45.00965" lon="4.78179">
        <ele>481.8</ele>
        <time>2026-05-03T08:32:34Z</time>
      </trkpt>
      <trkpt lat="45.00968" lon="4.78183">
        <ele>481.8</ele>
        <time>2026-05-03T08:32:39Z</time>
      </trkpt>
      <trkpt lat="45.0097" lon="4.78185">
        <ele>481.8</ele>
        <time>2026-05-03T08:32:44Z</time>
      </trkpt>
      <trkpt lat="45.0097" lon="4.78186">
        <ele>481.8</ele>
        <time>2026-05-03T08:32:49Z</time>
      </trkpt>
      <trkpt lat="45.0097" lon="4.78186">
        <ele>481.8</ele>
        <time>2026-05-03T08:32:54Z</time>
      </trkpt>
      <trkpt lat="45.0097" lon="4.78186">
        <ele>481.8</ele>
        <time>2026-05-03T08:32:59Z</time>
      </trkpt>
      <trkpt lat="45.0097" lon="4.78194">
        <ele>482.2</ele>
        <time>2026-05-03T08:33:04Z</time>
      </trkpt>
      <trkpt lat="45.00971" lon="4.78201">
        <ele>482.5</ele>
        <time>2026-05-03T08:33:09Z</time>
      </trkpt>
      <trkpt lat="45.00971" lon="4.78201">
        <ele>482.5</ele>
        <time>2026-05-03T08:33:14Z</time>
      </trkpt>
      <trkpt lat="45.00973" lon="4.78202">
        <ele>482.5</ele>
        <time>2026-05-03T08:33:19Z</time>
      </trkpt>
      <trkpt lat="45.00972" lon="4.78203">
        <ele>482.6</ele>
        <time>2026-05-03T08:33:24Z</time>
      </trkpt>
      <trkpt lat="45.00966" lon="4.78211">
        <ele>483.4</ele>
        <time>2026-05-03T08:33:29Z</time>
      </trkpt>
      <trkpt lat="45.00963" lon="4.78218">
        <ele>484</ele>
        <time>2026-05-03T08:33:34Z</time>
      </trkpt>
      <trkpt lat="45.00963" lon="4.78227">
        <ele>484.4</ele>
        <time>2026-05-03T08:33:39Z</time>
      </trkpt>
      <trkpt lat="45.00957" lon="4.78235">
        <ele>485.3</ele>
        <time>2026-05-03T08:33:44Z</time>
      </trkpt>
      <trkpt lat="45.00953" lon="4.7824">
        <ele>485.8</ele>
        <time>2026-05-03T08:33:49Z</time>
      </trkpt>
      <trkpt lat="45.0095" lon="4.78246">
        <ele>486.4</ele>
        <time>2026-05-03T08:33:54Z</time>
      </trkpt>
      <trkpt lat="45.00945" lon="4.78253">
        <ele>487.1</ele>
        <time>2026-05-03T08:33:59Z</time>
      </trkpt>
      <trkpt lat="45.0094" lon="4.78257">
        <ele>487.7</ele>
        <time>2026-05-03T08:34:04Z</time>
      </trkpt>
      <trkpt lat="45.00935" lon="4.78263">
        <ele>488.4</ele>
        <time>2026-05-03T08:34:09Z</time>
      </trkpt>
      <trkpt lat="45.00931" lon="4.78269">
        <ele>489.1</ele>
        <time>2026-05-03T08:34:14Z</time>
      </trkpt>
      <trkpt lat="45.00922" lon="4.78272">
        <ele>489.9</ele>
        <time>2026-05-03T08:34:19Z</time>
      </trkpt>
      <trkpt lat="45.00915" lon="4.78273">
        <ele>490.4</ele>
        <time>2026-05-03T08:34:24Z</time>
      </trkpt>
      <trkpt lat="45.00909" lon="4.78275">
        <ele>490.8</ele>
        <time>2026-05-03T08:34:29Z</time>
      </trkpt>
      <trkpt lat="45.00902" lon="4.78279">
        <ele>491.3</ele>
        <time>2026-05-03T08:34:34Z</time>
      </trkpt>
      <trkpt lat="45.00898" lon="4.78285">
        <ele>491.9</ele>
        <time>2026-05-03T08:34:39Z</time>
      </trkpt>
      <trkpt lat="45.00893" lon="4.78288">
        <ele>492.3</ele>
        <time>2026-05-03T08:34:44Z</time>
      </trkpt>
      <trkpt lat="45.00888" lon="4.78293">
        <ele>492.8</ele>
        <time>2026-05-03T08:34:49Z</time>
      </trkpt>
      <trkpt lat="45.00884" lon="4.78297">
        <ele>493.2</ele>
        <time>2026-05-03T08:34:54Z</time>
      </trkpt>
      <trkpt lat="45.0088" lon="4.78302">
        <ele>493.7</ele>
        <time>2026-05-03T08:34:59Z</time>
      </trkpt>
      <trkpt lat="45.00874" lon="4.78304">
        <ele>494.1</ele>
        <time>2026-05-03T08:35:04Z</time>
      </trkpt>
      <trkpt lat="45.0087" lon="4.78306">
        <ele>494.4</ele>
        <time>2026-05-03T08:35:09Z</time>
      </trkpt>
      <trkpt lat="45.00865" lon="4.78308">
        <ele>494.8</ele>
        <time>2026-05-03T08:35:14Z</time>
      </trkpt>
      <trkpt lat="45.00858" lon="4.78309">
        <ele>495.2</ele>
        <time>2026-05-03T08:35:19Z</time>
      </trkpt>
      <trkpt lat="45.00849" lon="4.7831">
        <ele>495.6</ele>
        <time>2026-05-03T08:35:24Z</time>
      </trkpt>
      <trkpt lat="45.00843" lon="4.78314">
        <ele>496.2</ele>
        <time>2026-05-03T08:35:29Z</time>
      </trkpt>
      <trkpt lat="45.00836" lon="4.78316">
        <ele>496.6</ele>
        <time>2026-05-03T08:35:34Z</time>
      </trkpt>
      <trkpt lat="45.00832" lon="4.78317">
        <ele>496.9</ele>
        <time>2026-05-03T08:35:39Z</time>
      </trkpt>
      <trkpt lat="45.00824" lon="4.78317">
        <ele>497.1</ele>
        <time>2026-05-03T08:35:44Z</time>
      </trkpt>
      <trkpt lat="45.00817" lon="4.78315">
        <ele>497.1</ele>
        <time>2026-05-03T08:35:49Z</time>
      </trkpt>
      <trkpt lat="45.00811" lon="4.78314">
        <ele>497.2</ele>
        <time>2026-05-03T08:35:54Z</time>
      </trkpt>
      <trkpt lat="45.00806" lon="4.78314">
        <ele>497.3</ele>
        <time>2026-05-03T08:35:59Z</time>
      </trkpt>
      <trkpt lat="45.00799" lon="4.78315">
        <ele>497.6</ele>
        <time>2026-05-03T08:36:04Z</time>
      </trkpt>
      <trkpt lat="45.00794" lon="4.78314">
        <ele>497.7</ele>
        <time>2026-05-03T08:36:09Z</time>
      </trkpt>
      <trkpt lat="45.00787" lon="4.78314">
        <ele>497.8</ele>
        <time>2026-05-03T08:36:14Z</time>
      </trkpt>
      <trkpt lat="45.00782" lon="4.78313">
        <ele>497.9</ele>
        <time>2026-05-03T08:36:19Z</time>
      </trkpt>
      <trkpt lat="45.00775" lon="4.78311">
        <ele>498</ele>
        <time>2026-05-03T08:36:24Z</time>
      </trkpt>
      <trkpt lat="45.00769" lon="4.7831">
        <ele>498.1</ele>
        <time>2026-05-03T08:36:29Z</time>
      </trkpt>
      <trkpt lat="45.00763" lon="4.78309">
        <ele>498.2</ele>
        <time>2026-05-03T08:36:34Z</time>
      </trkpt>
      <trkpt lat="45.00757" lon="4.78309">
        <ele>498.3</ele>
        <time>2026-05-03T08:36:39Z</time>
      </trkpt>
      <trkpt lat="45.0075" lon="4.78311">
        <ele>498.7</ele>
        <time>2026-05-03T08:36:44Z</time>
      </trkpt>
      <trkpt lat="45.00742" lon="4.7831">
        <ele>498.4</ele>
        <time>2026-05-03T08:36:49Z</time>
      </trkpt>
      <trkpt lat="45.00736" lon="4.78312">
        <ele>498.3</ele>
        <time>2026-05-03T08:36:54Z</time>
      </trkpt>
      <trkpt lat="45.0073" lon="4.78314">
        <ele>498.3</ele>
        <time>2026-05-03T08:36:59Z</time>
      </trkpt>
      <trkpt lat="45.00724" lon="4.78317">
        <ele>498.3</ele>
        <time>2026-05-03T08:37:04Z</time>
      </trkpt>
      <trkpt lat="45.00719" lon="4.78319">
        <ele>498.3</ele>
        <time>2026-05-03T08:37:09Z</time>
      </trkpt>
      <trkpt lat="45.00714" lon="4.78322">
        <ele>498.4</ele>
        <time>2026-05-03T08:37:14Z</time>
      </trkpt>
      <trkpt lat="45.00711" lon="4.78323">
        <ele>498.4</ele>
        <time>2026-05-03T08:37:19Z</time>
      </trkpt>
      <trkpt lat="45.00706" lon="4.78326">
        <ele>498.5</ele>
        <time>2026-05-03T08:37:24Z</time>
      </trkpt>
      <trkpt lat="45.007" lon="4.7833">
        <ele>498.6</ele>
        <time>2026-05-03T08:37:29Z</time>
      </trkpt>
      <trkpt lat="45.00694" lon="4.78334">
        <ele>498.7</ele>
        <time>2026-05-03T08:37:34Z</time>
      </trkpt>
      <trkpt lat="45.00687" lon="4.78336">
        <ele>498.6</ele>
        <time>2026-05-03T08:37:39Z</time>
      </trkpt>
      <trkpt lat="45.00681" lon="4.78339">
        <ele>498.6</ele>
        <time>2026-05-03T08:37:44Z</time>
      </trkpt>
      <trkpt lat="45.00676" lon="4.78343">
        <ele>498.7</ele>
        <time>2026-05-03T08:37:49Z</time>
      </trkpt>
      <trkpt lat="45.00671" lon="4.78348">
        <ele>498.8</ele>
        <time>2026-05-03T08:37:54Z</time>
      </trkpt>
      <trkpt lat="45.00666" lon="4.78352">
        <ele>498.9</ele>
        <time>2026-05-03T08:37:59Z</time>
      </trkpt>
      <trkpt lat="45.0066" lon="4.78357">
        <ele>498.7</ele>
        <time>2026-05-03T08:38:04Z</time>
      </trkpt>
      <trkpt lat="45.00655" lon="4.78362">
        <ele>498.6</ele>
        <time>2026-05-03T08:38:09Z</time>
      </trkpt>
      <trkpt lat="45.0065" lon="4.78368">
        <ele>498.5</ele>
        <time>2026-05-03T08:38:14Z</time>
      </trkpt>
      <trkpt lat="45.00647" lon="4.78372">
        <ele>498.5</ele>
        <time>2026-05-03T08:38:19Z</time>
      </trkpt>
      <trkpt lat="45.00642" lon="4.78372">
        <ele>498.1</ele>
        <time>2026-05-03T08:38:24Z</time>
      </trkpt>
      <trkpt lat="45.00641" lon="4.78373">
        <ele>498.1</ele>
        <time>2026-05-03T08:38:29Z</time>
      </trkpt>
      <trkpt lat="45.00641" lon="4.78373">
        <ele>498.1</ele>
        <time>2026-05-03T08:38:34Z</time>
      </trkpt>
      <trkpt lat="45.00641" lon="4.78373">
        <ele>498.1</ele>
        <time>2026-05-03T08:38:39Z</time>
      </trkpt>
      <trkpt lat="45.00642" lon="4.78377">
        <ele>498.3</ele>
        <time>2026-05-03T08:38:44Z</time>
      </trkpt>
      <trkpt lat="45.00642" lon="4.78385">
        <ele>498.6</ele>
        <time>2026-05-03T08:38:49Z</time>
      </trkpt>
      <trkpt lat="45.00636" lon="4.78391">
        <ele>498.3</ele>
        <time>2026-05-03T08:38:54Z</time>
      </trkpt>
      <trkpt lat="45.0063" lon="4.78398">
        <ele>498</ele>
        <time>2026-05-03T08:38:59Z</time>
      </trkpt>
      <trkpt lat="45.00626" lon="4.78405">
        <ele>497.8</ele>
        <time>2026-05-03T08:39:04Z</time>
      </trkpt>
      <trkpt lat="45.00622" lon="4.78412">
        <ele>497.6</ele>
        <time>2026-05-03T08:39:09Z</time>
      </trkpt>
      <trkpt lat="45.00615" lon="4.7842">
        <ele>497.1</ele>
        <time>2026-05-03T08:39:14Z</time>
      </trkpt>
      <trkpt lat="45.00611" lon="4.78428">
        <ele>496.7</ele>
        <time>2026-05-03T08:39:19Z</time>
      </trkpt>
      <trkpt lat="45.00607" lon="4.78437">
        <ele>496.4</ele>
        <time>2026-05-03T08:39:24Z</time>
      </trkpt>
      <trkpt lat="45.00604" lon="4.78446">
        <ele>496.2</ele>
        <time>2026-05-03T08:39:29Z</time>
      </trkpt>
      <trkpt lat="45.00602" lon="4.78456">
        <ele>496</ele>
        <time>2026-05-03T08:39:34Z</time>
      </trkpt>
      <trkpt lat="45.006" lon="4.78466">
        <ele>495.8</ele>
        <time>2026-05-03T08:39:39Z</time>
      </trkpt>
      <trkpt lat="45.00598" lon="4.78475">
        <ele>495.7</ele>
        <time>2026-05-03T08:39:44Z</time>
      </trkpt>
      <trkpt lat="45.00594" lon="4.78484">
        <ele>495.2</ele>
        <time>2026-05-03T08:39:49Z</time>
      </trkpt>
      <trkpt lat="45.00591" lon="4.78494">
        <ele>494.9</ele>
        <time>2026-05-03T08:39:54Z</time>
      </trkpt>
      <trkpt lat="45.00585" lon="4.78504">
        <ele>494.4</ele>
        <time>2026-05-03T08:39:59Z</time>
      </trkpt>
      <trkpt lat="45.00583" lon="4.78513">
        <ele>494.8</ele>
        <time>2026-05-03T08:40:04Z</time>
      </trkpt>
      <trkpt lat="45.00579" lon="4.78521">
        <ele>495.2</ele>
        <time>2026-05-03T08:40:09Z</time>
      </trkpt>
      <trkpt lat="45.00576" lon="4.78531">
        <ele>495.8</ele>
        <time>2026-05-03T08:40:14Z</time>
      </trkpt>
      <trkpt lat="45.00574" lon="4.7854">
        <ele>496.3</ele>
        <time>2026-05-03T08:40:19Z</time>
      </trkpt>
      <trkpt lat="45.00572" lon="4.78552">
        <ele>497.1</ele>
        <time>2026-05-03T08:40:24Z</time>
      </trkpt>
      <trkpt lat="45.00572" lon="4.78562">
        <ele>497.7</ele>
        <time>2026-05-03T08:40:29Z</time>
      </trkpt>
      <trkpt lat="45.00571" lon="4.78572">
        <ele>498.3</ele>
        <time>2026-05-03T08:40:34Z</time>
      </trkpt>
      <trkpt lat="45.00571" lon="4.78583">
        <ele>499</ele>
        <time>2026-05-03T08:40:39Z</time>
      </trkpt>
      <trkpt lat="45.0057" lon="4.78594">
        <ele>499.8</ele>
        <time>2026-05-03T08:40:44Z</time>
      </trkpt>
      <trkpt lat="45.0057" lon="4.78604">
        <ele>500.6</ele>
        <time>2026-05-03T08:40:49Z</time>
      </trkpt>
      <trkpt lat="45.00568" lon="4.78611">
        <ele>501.1</ele>
        <time>2026-05-03T08:40:54Z</time>
      </trkpt>
      <trkpt lat="45.00565" lon="4.7862">
        <ele>501.7</ele>
        <time>2026-05-03T08:40:59Z</time>
      </trkpt>
      <trkpt lat="45.00561" lon="4.78628">
        <ele>502.2</ele>
        <time>2026-05-03T08:41:04Z</time>
      </trkpt>
      <trkpt lat="45.00558" lon="4.78638">
        <ele>502.8</ele>
        <time>2026-05-03T08:41:09Z</time>
      </trkpt>
      <trkpt lat="45.00554" lon="4.78647">
        <ele>503.3</ele>
        <time>2026-05-03T08:41:14Z</time>
      </trkpt>
      <trkpt lat="45.0055" lon="4.78657">
        <ele>503.8</ele>
        <time>2026-05-03T08:41:19Z</time>
      </trkpt>
      <trkpt lat="45.00545" lon="4.78665">
        <ele>504.1</ele>
        <time>2026-05-03T08:41:24Z</time>
      </trkpt>
      <trkpt lat="45.00542" lon="4.78673">
        <ele>504.2</ele>
        <time>2026-05-03T08:41:29Z</time>
      </trkpt>
      <trkpt lat="45.00539" lon="4.78682">
        <ele>504.3</ele>
        <time>2026-05-03T08:41:34Z</time>
      </trkpt>
      <trkpt lat="45.00534" lon="4.78689">
        <ele>504.3</ele>
        <time>2026-05-03T08:41:39Z</time>
      </trkpt>
      <trkpt lat="45.00527" lon="4.78693">
        <ele>504.1</ele>
        <time>2026-05-03T08:41:44Z</time>
      </trkpt>
      <trkpt lat="45.00521" lon="4.78694">
        <ele>503.9</ele>
        <time>2026-05-03T08:41:49Z</time>
      </trkpt>
      <trkpt lat="45.00516" lon="4.78696">
        <ele>503.8</ele>
        <time>2026-05-03T08:41:54Z</time>
      </trkpt>
      <trkpt lat="45.00508" lon="4.78698">
        <ele>503.5</ele>
        <time>2026-05-03T08:41:59Z</time>
      </trkpt>
      <trkpt lat="45.005" lon="4.78701">
        <ele>503.2</ele>
        <time>2026-05-03T08:42:04Z</time>
      </trkpt>
      <trkpt lat="45.00493" lon="4.78705">
        <ele>502.6</ele>
        <time>2026-05-03T08:42:09Z</time>
      </trkpt>
      <trkpt lat="45.00486" lon="4.7871">
        <ele>502</ele>
        <time>2026-05-03T08:42:14Z</time>
      </trkpt>
      <trkpt lat="45.0048" lon="4.78715">
        <ele>501.6</ele>
        <time>2026-05-03T08:42:19Z</time>
      </trkpt>
      <trkpt lat="45.00473" lon="4.7872">
        <ele>501</ele>
        <time>2026-05-03T08:42:24Z</time>
      </trkpt>
      <trkpt lat="45.00467" lon="4.78725">
        <ele>500.5</ele>
        <time>2026-05-03T08:42:29Z</time>
      </trkpt>
      <trkpt lat="45.00462" lon="4.78732">
        <ele>500.2</ele>
        <time>2026-05-03T08:42:34Z</time>
      </trkpt>
      <trkpt lat="45.00454" lon="4.78738">
        <ele>499.6</ele>
        <time>2026-05-03T08:42:39Z</time>
      </trkpt>
      <trkpt lat="45.00449" lon="4.78746">
        <ele>499.3</ele>
        <time>2026-05-03T08:42:44Z</time>
      </trkpt>
      <trkpt lat="45.00444" lon="4.78751">
        <ele>499.1</ele>
        <time>2026-05-03T08:42:49Z</time>
      </trkpt>
      <trkpt lat="45.0044" lon="4.7876">
        <ele>499.7</ele>
        <time>2026-05-03T08:42:54Z</time>
      </trkpt>
      <trkpt lat="45.00436" lon="4.78767">
        <ele>500.2</ele>
        <time>2026-05-03T08:42:59Z</time>
      </trkpt>
      <trkpt lat="45.0043" lon="4.78774">
        <ele>500.6</ele>
        <time>2026-05-03T08:43:04Z</time>
      </trkpt>
      <trkpt lat="45.00425" lon="4.78781">
        <ele>501.1</ele>
        <time>2026-05-03T08:43:09Z</time>
      </trkpt>
      <trkpt lat="45.0042" lon="4.78787">
        <ele>501.6</ele>
        <time>2026-05-03T08:43:14Z</time>
      </trkpt>
      <trkpt lat="45.00415" lon="4.78794">
        <ele>502.3</ele>
        <time>2026-05-03T08:43:19Z</time>
      </trkpt>
      <trkpt lat="45.00409" lon="4.78797">
        <ele>502.5</ele>
        <time>2026-05-03T08:43:24Z</time>
      </trkpt>
      <trkpt lat="45.00403" lon="4.78801">
        <ele>502.9</ele>
        <time>2026-05-03T08:43:29Z</time>
      </trkpt>
      <trkpt lat="45.00398" lon="4.78804">
        <ele>503.1</ele>
        <time>2026-05-03T08:43:34Z</time>
      </trkpt>
      <trkpt lat="45.00393" lon="4.78807">
        <ele>503.3</ele>
        <time>2026-05-03T08:43:39Z</time>
      </trkpt>
      <trkpt lat="45.00389" lon="4.78811">
        <ele>503.7</ele>
        <time>2026-05-03T08:43:44Z</time>
      </trkpt>
      <trkpt lat="45.00383" lon="4.78814">
        <ele>503.9</ele>
        <time>2026-05-03T08:43:49Z</time>
      </trkpt>
      <trkpt lat="45.00378" lon="4.7882">
        <ele>504.4</ele>
        <time>2026-05-03T08:43:54Z</time>
      </trkpt>
      <trkpt lat="45.00373" lon="4.78824">
        <ele>504.7</ele>
        <time>2026-05-03T08:43:59Z</time>
      </trkpt>
      <trkpt lat="45.00368" lon="4.78829">
        <ele>505.1</ele>
        <time>2026-05-03T08:44:04Z</time>
      </trkpt>
      <trkpt lat="45.00368" lon="4.7883">
        <ele>505.3</ele>
        <time>2026-05-03T08:44:09Z</time>
      </trkpt>
      <trkpt lat="45.00368" lon="4.78831">
        <ele>505.4</ele>
        <time>2026-05-03T08:44:14Z</time>
      </trkpt>
      <trkpt lat="45.00368" lon="4.78831">
        <ele>505.4</ele>
        <time>2026-05-03T08:44:19Z</time>
      </trkpt>
      <trkpt lat="45.00368" lon="4.78831">
        <ele>505.4</ele>
        <time>2026-05-03T08:44:24Z</time>
      </trkpt>
      <trkpt lat="45.00368" lon="4.78831">
        <ele>505.4</ele>
        <time>2026-05-03T08:44:29Z</time>
      </trkpt>
      <trkpt lat="45.00368" lon="4.78831">
        <ele>505.4</ele>
        <time>2026-05-03T08:44:34Z</time>
      </trkpt>
      <trkpt lat="45.00368" lon="4.78831">
        <ele>505.4</ele>
        <time>2026-05-03T08:44:39Z</time>
      </trkpt>
      <trkpt lat="45.00368" lon="4.78831">
        <ele>505.4</ele>
        <time>2026-05-03T08:44:44Z</time>
      </trkpt>
      <trkpt lat="45.00368" lon="4.78831">
        <ele>505.4</ele>
        <time>2026-05-03T08:44:49Z</time>
      </trkpt>
      <trkpt lat="45.00368" lon="4.78831">
        <ele>505.4</ele>
        <time>2026-05-03T08:44:54Z</time>
      </trkpt>
      <trkpt lat="45.00368" lon="4.78831">
        <ele>505.4</ele>
        <time>2026-05-03T08:44:59Z</time>
      </trkpt>
      <trkpt lat="45.00356" lon="4.78838">
        <ele>505.8</ele>
        <time>2026-05-03T08:45:04Z</time>
      </trkpt>
      <trkpt lat="45.00356" lon="4.78838">
        <ele>505.8</ele>
        <time>2026-05-03T08:45:09Z</time>
      </trkpt>
      <trkpt lat="45.00356" lon="4.78838">
        <ele>505.8</ele>
        <time>2026-05-03T08:45:14Z</time>
      </trkpt>
      <trkpt lat="45.00356" lon="4.78838">
        <ele>505.8</ele>
        <time>2026-05-03T08:45:19Z</time>
      </trkpt>
      <trkpt lat="45.00356" lon="4.78838">
        <ele>505.8</ele>
        <time>2026-05-03T08:45:24Z</time>
      </trkpt>
      <trkpt lat="45.00356" lon="4.78838">
        <ele>505.8</ele>
        <time>2026-05-03T08:45:29Z</time>
      </trkpt>
      <trkpt lat="45.00356" lon="4.78838">
        <ele>505.8</ele>
        <time>2026-05-03T08:45:34Z</time>
      </trkpt>
      <trkpt lat="45.00356" lon="4.78838">
        <ele>505.8</ele>
        <time>2026-05-03T08:45:39Z</time>
      </trkpt>
      <trkpt lat="45.00356" lon="4.78838">
        <ele>505.8</ele>
        <time>2026-05-03T08:45:44Z</time>
      </trkpt>
      <trkpt lat="45.00353" lon="4.78839">
        <ele>505.8</ele>
        <time>2026-05-03T08:45:49Z</time>
      </trkpt>
      <trkpt lat="45.00348" lon="4.78842">
        <ele>506</ele>
        <time>2026-05-03T08:45:54Z</time>
      </trkpt>
      <trkpt lat="45.00343" lon="4.78845">
        <ele>506.2</ele>
        <time>2026-05-03T08:45:59Z</time>
      </trkpt>
      <trkpt lat="45.00339" lon="4.78848">
        <ele>506.5</ele>
        <time>2026-05-03T08:46:04Z</time>
      </trkpt>
      <trkpt lat="45.00333" lon="4.78853">
        <ele>507.1</ele>
        <time>2026-05-03T08:46:09Z</time>
      </trkpt>
      <trkpt lat="45.00326" lon="4.78858">
        <ele>507.5</ele>
        <time>2026-05-03T08:46:14Z</time>
      </trkpt>
      <trkpt lat="45.00321" lon="4.78861">
        <ele>507.7</ele>
        <time>2026-05-03T08:46:19Z</time>
      </trkpt>
      <trkpt lat="45.00315" lon="4.78867">
        <ele>508.2</ele>
        <time>2026-05-03T08:46:24Z</time>
      </trkpt>
      <trkpt lat="45.00309" lon="4.78871">
        <ele>508.5</ele>
        <time>2026-05-03T08:46:29Z</time>
      </trkpt>
      <trkpt lat="45.00303" lon="4.78875">
        <ele>508.7</ele>
        <time>2026-05-03T08:46:34Z</time>
      </trkpt>
      <trkpt lat="45.00297" lon="4.7888">
        <ele>509</ele>
        <time>2026-05-03T08:46:39Z</time>
      </trkpt>
      <trkpt lat="45.0029" lon="4.78885">
        <ele>509.2</ele>
        <time>2026-05-03T08:46:44Z</time>
      </trkpt>
      <trkpt lat="45.00285" lon="4.7889">
        <ele>509.5</ele>
        <time>2026-05-03T08:46:49Z</time>
      </trkpt>
      <trkpt lat="45.0028" lon="4.78893">
        <ele>509.6</ele>
        <time>2026-05-03T08:46:54Z</time>
      </trkpt>
      <trkpt lat="45.00274" lon="4.78898">
        <ele>509.7</ele>
        <time>2026-05-03T08:46:59Z</time>
      </trkpt>
      <trkpt lat="45.00268" lon="4.78902">
        <ele>509.8</ele>
        <time>2026-05-03T08:47:04Z</time>
      </trkpt>
      <trkpt lat="45.00261" lon="4.78906">
        <ele>509.7</ele>
        <time>2026-05-03T08:47:09Z</time>
      </trkpt>
      <trkpt lat="45.00253" lon="4.78909">
        <ele>509.4</ele>
        <time>2026-05-03T08:47:14Z</time>
      </trkpt>
      <trkpt lat="45.00246" lon="4.78913">
        <ele>509.4</ele>
        <time>2026-05-03T08:47:19Z</time>
      </trkpt>
      <trkpt lat="45.00237" lon="4.78915">
        <ele>509.2</ele>
        <time>2026-05-03T08:47:24Z</time>
      </trkpt>
      <trkpt lat="45.0023" lon="4.78917">
        <ele>509.1</ele>
        <time>2026-05-03T08:47:29Z</time>
      </trkpt>
      <trkpt lat="45.00222" lon="4.78918">
        <ele>508.8</ele>
        <time>2026-05-03T08:47:34Z</time>
      </trkpt>
      <trkpt lat="45.00215" lon="4.7892">
        <ele>508.7</ele>
        <time>2026-05-03T08:47:39Z</time>
      </trkpt>
      <trkpt lat="45.00209" lon="4.78923">
        <ele>508.7</ele>
        <time>2026-05-03T08:47:44Z</time>
      </trkpt>
      <trkpt lat="45.00202" lon="4.78926">
        <ele>508.7</ele>
        <time>2026-05-03T08:47:49Z</time>
      </trkpt>
      <trkpt lat="45.00196" lon="4.78929">
        <ele>508.7</ele>
        <time>2026-05-03T08:47:54Z</time>
      </trkpt>
      <trkpt lat="45.00188" lon="4.78931">
        <ele>508.4</ele>
        <time>2026-05-03T08:47:59Z</time>
      </trkpt>
      <trkpt lat="45.00182" lon="4.78935">
        <ele>508.4</ele>
        <time>2026-05-03T08:48:04Z</time>
      </trkpt>
      <trkpt lat="45.00176" lon="4.78941">
        <ele>508.6</ele>
        <time>2026-05-03T08:48:09Z</time>
      </trkpt>
      <trkpt lat="45.0017" lon="4.78947">
        <ele>508.8</ele>
        <time>2026-05-03T08:48:14Z</time>
      </trkpt>
      <trkpt lat="45.00164" lon="4.78954">
        <ele>509.1</ele>
        <time>2026-05-03T08:48:19Z</time>
      </trkpt>
      <trkpt lat="45.00158" lon="4.7896">
        <ele>509.5</ele>
        <time>2026-05-03T08:48:24Z</time>
      </trkpt>
      <trkpt lat="45.00152" lon="4.78964">
        <ele>509.8</ele>
        <time>2026-05-03T08:48:29Z</time>
      </trkpt>
      <trkpt lat="45.00145" lon="4.78969">
        <ele>510</ele>
        <time>2026-05-03T08:48:34Z</time>
      </trkpt>
      <trkpt lat="45.00137" lon="4.78973">
        <ele>510.1</ele>
        <time>2026-05-03T08:48:39Z</time>
      </trkpt>
      <trkpt lat="45.0013" lon="4.78978">
        <ele>510.3</ele>
        <time>2026-05-03T08:48:44Z</time>
      </trkpt>
      <trkpt lat="45.00123" lon="4.78982">
        <ele>510.4</ele>
        <time>2026-05-03T08:48:49Z</time>
      </trkpt>
      <trkpt lat="45.00117" lon="4.78986">
        <ele>510.4</ele>
        <time>2026-05-03T08:48:54Z</time>
      </trkpt>
      <trkpt lat="45.00109" lon="4.7899">
        <ele>510.4</ele>
        <time>2026-05-03T08:48:59Z</time>
      </trkpt>
      <trkpt lat="45.00102" lon="4.78995">
        <ele>510.4</ele>
        <time>2026-05-03T08:49:04Z</time>
      </trkpt>
      <trkpt lat="45.00096" lon="4.79001">
        <ele>510.5</ele>
        <time>2026-05-03T08:49:09Z</time>
        <extensions>
          <visugpx:TrkExtension xmlns:visugpx="https://www.visugpx.com/editgpx/">
            <visugpx:node>11</visugpx:node>
            </visugpx:TrkExtension>
        </extensions>
      </trkpt>
      <trkpt lat="45.00096" lon="4.79001">
        <ele>514.9</ele>
        <time>2026-05-03T08:49:09Z</time>
        <extensions>
          <visugpx:TrkExtension xmlns:visugpx="https://www.visugpx.com/editgpx/">
            <visugpx:node>12</visugpx:node>
            </visugpx:TrkExtension>
        </extensions>
      </trkpt>
      <trkpt lat="45.0009" lon="4.79003">
        <ele>514.6</ele>
        <time>2026-05-03T08:49:14Z</time>
      </trkpt>
      <trkpt lat="45.00086" lon="4.79005">
        <ele>514.4</ele>
        <time>2026-05-03T08:49:19Z</time>
        <extensions>
          <visugpx:TrkExtension xmlns:visugpx="https://www.visugpx.com/editgpx/">
            <visugpx:node>13</visugpx:node>
            </visugpx:TrkExtension>
        </extensions>
      </trkpt>
      <trkpt lat="45.00086" lon="4.79005">
        <ele>514.4</ele>
        <time>2026-05-03T08:49:19Z</time>
        <extensions>
          <visugpx:TrkExtension xmlns:visugpx="https://www.visugpx.com/editgpx/">
            <visugpx:node>14</visugpx:node>
            </visugpx:TrkExtension>
        </extensions>
      </trkpt>
      <trkpt lat="45.00085" lon="4.79006">
        <ele>514.3</ele>
        <time>2026-05-03T08:49:24Z</time>
      </trkpt>
      <trkpt lat="45.00081" lon="4.79012">
        <ele>514.3</ele>
        <time>2026-05-03T08:49:29Z</time>
      </trkpt>
      <trkpt lat="45.00075" lon="4.79019">
        <ele>514.1</ele>
        <time>2026-05-03T08:49:34Z</time>
      </trkpt>
      <trkpt lat="45.00071" lon="4.79026">
        <ele>514</ele>
        <time>2026-05-03T08:49:39Z</time>
      </trkpt>
      <trkpt lat="45.00066" lon="4.79032">
        <ele>514</ele>
        <time>2026-05-03T08:49:44Z</time>
      </trkpt>
      <trkpt lat="45.00062" lon="4.79036">
        <ele>514</ele>
        <time>2026-05-03T08:49:49Z</time>
      </trkpt>
      <trkpt lat="45.00059" lon="4.79038">
        <ele>513.9</ele>
        <time>2026-05-03T08:49:54Z</time>
      </trkpt>
      <trkpt lat="45.00058" lon="4.79039">
        <ele>513.9</ele>
        <time>2026-05-03T08:49:59Z</time>
      </trkpt>
      <trkpt lat="45.00058" lon="4.79039">
        <ele>513.9</ele>
        <time>2026-05-03T08:50:04Z</time>
      </trkpt>
      <trkpt lat="45.00056" lon="4.7904">
        <ele>513.9</ele>
        <time>2026-05-03T08:50:09Z</time>
      </trkpt>
      <trkpt lat="45.00049" lon="4.79043">
        <ele>513.9</ele>
        <time>2026-05-03T08:50:14Z</time>
      </trkpt>
      <trkpt lat="45.00043" lon="4.79046">
        <ele>513.9</ele>
        <time>2026-05-03T08:50:19Z</time>
        <extensions>
          <visugpx:TrkExtension xmlns:visugpx="https://www.visugpx.com/editgpx/">
            <visugpx:node>15</visugpx:node>
            </visugpx:TrkExtension>
        </extensions>
      </trkpt>
      <trkpt lat="45.00043" lon="4.79046">
        <ele>513.9</ele>
        <time>2026-05-03T08:50:19Z</time>
      </trkpt>
      <trkpt lat="45.00036" lon="4.79049">
        <ele>513.8</ele>
        <time>2026-05-03T08:50:24Z</time>
      </trkpt>
      <trkpt lat="45.00029" lon="4.7905">
        <ele>513.6</ele>
        <time>2026-05-03T08:50:29Z</time>
        <extensions>
          <visugpx:TrkExtension xmlns:visugpx="https://www.visugpx.com/editgpx/">
            <visugpx:node>16</visugpx:node>
            </visugpx:TrkExtension>
        </extensions>
      </trkpt>
      <trkpt lat="45.00029" lon="4.7905">
        <ele>513.6</ele>
        <time>2026-05-03T08:50:29Z</time>
      </trkpt>
      <trkpt lat="45.00023" lon="4.79051">
        <ele>513.7</ele>
        <time>2026-05-03T08:50:34Z</time>
      </trkpt>
      <trkpt lat="45.00017" lon="4.79053">
        <ele>513.8</ele>
        <time>2026-05-03T08:50:39Z</time>
        <extensions>
          <visugpx:TrkExtension xmlns:visugpx="https://www.visugpx.com/editgpx/">
            <visugpx:node>17</visugpx:node>
            </visugpx:TrkExtension>
        </extensions>
      </trkpt>
      <trkpt lat="45.00017" lon="4.79053">
        <ele>513.8</ele>
        <time>2026-05-03T08:50:39Z</time>
        <extensions>
          <visugpx:TrkExtension xmlns:visugpx="https://www.visugpx.com/editgpx/">
            <visugpx:node>18</visugpx:node>
            </visugpx:TrkExtension>
        </extensions>
      </trkpt>
      <trkpt lat="45.0001" lon="4.79054">
        <ele>513.9</ele>
        <time>2026-05-03T08:50:44Z</time>
      </trkpt>
      <trkpt lat="45.00002" lon="4.79055">
        <ele>514</ele>
        <time>2026-05-03T08:50:49Z</time>
        <extensions>
          <visugpx:TrkExtension xmlns:visugpx="https://www.visugpx.com/editgpx/">
            <visugpx:node>19</visugpx:node>
            </visugpx:TrkExtension>
        </extensions>
      </trkpt>
      <trkpt lat="45.00002" lon="4.79055">
        <ele>514</ele>
        <time>2026-05-03T08:50:49Z</time>
        <extensions>
          <visugpx:TrkExtension xmlns:visugpx="https://www.visugpx.com/editgpx/">
            <visugpx:node>20</visugpx:node>
            </visugpx:TrkExtension>
        </extensions>
      </trkpt>
      <trkpt lat="44.99994" lon="4.79054">
        <ele>513.7</ele>
        <time>2026-05-03T08:50:54Z</time>
      </trkpt>
      <trkpt lat="44.99988" lon="4.79051">
        <ele>513.4</ele>
        <time>2026-05-03T08:50:59Z</time>
      </trkpt>
      <trkpt lat="44.9998" lon="4.79049">
        <ele>513.1</ele>
        <time>2026-05-03T08:51:04Z</time>
        <extensions>
          <visugpx:TrkExtension xmlns:visugpx="https://www.visugpx.com/editgpx/">
            <visugpx:node>21</visugpx:node>
            </visugpx:TrkExtension>
        </extensions>
      </trkpt>
      <trkpt lat="44.9998" lon="4.79049">
        <ele>507</ele>
        <time>2026-05-03T08:51:04Z</time>
        <extensions>
          <visugpx:TrkExtension xmlns:visugpx="https://www.visugpx.com/editgpx/">
            <visugpx:node>22</visugpx:node>
            </visugpx:TrkExtension>
        </extensions>
      </trkpt>
      <trkpt lat="44.99972" lon="4.7905">
        <ele>506.5</ele>
        <time>2026-05-03T08:51:09Z</time>
      </trkpt>
      <trkpt lat="44.99965" lon="4.7905">
        <ele>506.1</ele>
        <time>2026-05-03T08:51:14Z</time>
      </trkpt>
      <trkpt lat="44.99957" lon="4.7905">
        <ele>505.6</ele>
        <time>2026-05-03T08:51:19Z</time>
      </trkpt>
      <trkpt lat="44.99957" lon="4.7905">
        <ele>505.6</ele>
        <time>2026-05-03T08:51:19Z</time>
      </trkpt>
      <trkpt lat="44.9995" lon="4.79049">
        <ele>505.3</ele>
        <time>2026-05-03T08:51:24Z</time>
      </trkpt>
      <trkpt lat="44.99942" lon="4.79048">
        <ele>505</ele>
        <time>2026-05-03T08:51:29Z</time>
      </trkpt>
      <trkpt lat="44.99942" lon="4.79048">
        <ele>505</ele>
        <time>2026-05-03T08:51:29Z</time>
        <extensions>
          <visugpx:TrkExtension xmlns:visugpx="https://www.visugpx.com/editgpx/">
            <visugpx:node>23</visugpx:node>
            </visugpx:TrkExtension>
        </extensions>
      </trkpt>
      <trkpt lat="44.99934" lon="4.79048">
        <ele>504.6</ele>
        <time>2026-05-03T08:51:34Z</time>
      </trkpt>
      <trkpt lat="44.99926" lon="4.79047">
        <ele>504.3</ele>
        <time>2026-05-03T08:51:39Z</time>
      </trkpt>
      <trkpt lat="44.99919" lon="4.79046">
        <ele>504</ele>
        <time>2026-05-03T08:51:44Z</time>
      </trkpt>
      <trkpt lat="44.99911" lon="4.79046">
        <ele>503.5</ele>
        <time>2026-05-03T08:51:49Z</time>
      </trkpt>
      <trkpt lat="44.99902" lon="4.79045">
        <ele>502.9</ele>
        <time>2026-05-03T08:51:54Z</time>
      </trkpt>
      <trkpt lat="44.99894" lon="4.79044">
        <ele>502.4</ele>
        <time>2026-05-03T08:51:59Z</time>
      </trkpt>
      <trkpt lat="44.99887" lon="4.79044">
        <ele>501.9</ele>
        <time>2026-05-03T08:52:04Z</time>
      </trkpt>
      <trkpt lat="44.99881" lon="4.79043">
        <ele>501.6</ele>
        <time>2026-05-03T08:52:09Z</time>
      </trkpt>
      <trkpt lat="44.99881" lon="4.79043">
        <ele>501.6</ele>
        <time>2026-05-03T08:52:09Z</time>
      </trkpt>
      <trkpt lat="44.99874" lon="4.79043">
        <ele>501</ele>
        <time>2026-05-03T08:52:14Z</time>
      </trkpt>
      <trkpt lat="44.99865" lon="4.79043">
        <ele>500.3</ele>
        <time>2026-05-03T08:52:19Z</time>
      </trkpt>
      <trkpt lat="44.99857" lon="4.79043">
        <ele>499.7</ele>
        <time>2026-05-03T08:52:24Z</time>
      </trkpt>
      <trkpt lat="44.99849" lon="4.79042">
        <ele>499.2</ele>
        <time>2026-05-03T08:52:29Z</time>
      </trkpt>
      <trkpt lat="44.99841" lon="4.79041">
        <ele>498.7</ele>
        <time>2026-05-03T08:52:34Z</time>
      </trkpt>
      <trkpt lat="44.99834" lon="4.79042">
        <ele>498</ele>
        <time>2026-05-03T08:52:39Z</time>
      </trkpt>
      <trkpt lat="44.99826" lon="4.79042">
        <ele>498.2</ele>
        <time>2026-05-03T08:52:44Z</time>
      </trkpt>
      <trkpt lat="44.99819" lon="4.79042">
        <ele>498.4</ele>
        <time>2026-05-03T08:52:49Z</time>
      </trkpt>
      <trkpt lat="44.99812" lon="4.79043">
        <ele>498.6</ele>
        <time>2026-05-03T08:52:54Z</time>
      </trkpt>
      <trkpt lat="44.99804" lon="4.79043">
        <ele>498.8</ele>
        <time>2026-05-03T08:52:59Z</time>
      </trkpt>
      <trkpt lat="44.99804" lon="4.79043">
        <ele>498.8</ele>
        <time>2026-05-03T08:52:59Z</time>
      </trkpt>
      <trkpt lat="44.99795" lon="4.79042">
        <ele>499.1</ele>
        <time>2026-05-03T08:53:04Z</time>
      </trkpt>
      <trkpt lat="44.99786" lon="4.79042">
        <ele>499.4</ele>
        <time>2026-05-03T08:53:09Z</time>
      </trkpt>
      <trkpt lat="44.99779" lon="4.79041">
        <ele>499.6</ele>
        <time>2026-05-03T08:53:14Z</time>
      </trkpt>
      <trkpt lat="44.99771" lon="4.79039">
        <ele>499.9</ele>
        <time>2026-05-03T08:53:19Z</time>
      </trkpt>
      <trkpt lat="44.99765" lon="4.79037">
        <ele>500</ele>
        <time>2026-05-03T08:53:24Z</time>
        <extensions>
          <visugpx:TrkExtension xmlns:visugpx="https://www.visugpx.com/editgpx/">
            <visugpx:node>24</visugpx:node>
            </visugpx:TrkExtension>
        </extensions>
      </trkpt>
      <trkpt lat="44.99765" lon="4.79037">
        <ele>500</ele>
        <time>2026-05-03T08:53:24Z</time>
      </trkpt>
      <trkpt lat="44.99758" lon="4.79036">
        <ele>500.1</ele>
        <time>2026-05-03T08:53:29Z</time>
      </trkpt>
      <trkpt lat="44.9975" lon="4.79033">
        <ele>500.2</ele>
        <time>2026-05-03T08:53:34Z</time>
      </trkpt>
      <trkpt lat="44.99746" lon="4.79028">
        <ele>500.5</ele>
        <time>2026-05-03T08:53:39Z</time>
      </trkpt>
      <trkpt lat="44.99747" lon="4.79023">
        <ele>500.2</ele>
        <time>2026-05-03T08:53:44Z</time>
      </trkpt>
      <trkpt lat="44.99747" lon="4.79017">
        <ele>500</ele>
        <time>2026-05-03T08:53:49Z</time>
      </trkpt>
      <trkpt lat="44.99747" lon="4.79011">
        <ele>499.7</ele>
        <time>2026-05-03T08:53:54Z</time>
      </trkpt>
      <trkpt lat="44.99748" lon="4.79004">
        <ele>499.4</ele>
        <time>2026-05-03T08:53:59Z</time>
      </trkpt>
      <trkpt lat="44.99751" lon="4.78998">
        <ele>498.7</ele>
        <time>2026-05-03T08:54:04Z</time>
      </trkpt>
      <trkpt lat="44.99752" lon="4.78992">
        <ele>497.7</ele>
        <time>2026-05-03T08:54:09Z</time>
      </trkpt>
      <trkpt lat="44.99754" lon="4.78992">
        <ele>497.8</ele>
        <time>2026-05-03T08:54:14Z</time>
      </trkpt>
      <trkpt lat="44.99755" lon="4.78993">
        <ele>498</ele>
        <time>2026-05-03T08:54:19Z</time>
      </trkpt>
      <trkpt lat="44.99755" lon="4.78993">
        <ele>498</ele>
        <time>2026-05-03T08:54:24Z</time>
      </trkpt>
      <trkpt lat="44.99755" lon="4.78993">
        <ele>498</ele>
        <time>2026-05-03T08:54:29Z</time>
      </trkpt>
      <trkpt lat="44.99755" lon="4.78993">
        <ele>498</ele>
        <time>2026-05-03T08:54:34Z</time>
      </trkpt>
      <trkpt lat="44.99755" lon="4.78993">
        <ele>498</ele>
        <time>2026-05-03T08:54:39Z</time>
      </trkpt>
      <trkpt lat="44.99755" lon="4.78993">
        <ele>498</ele>
        <time>2026-05-03T08:54:44Z</time>
      </trkpt>
      <trkpt lat="44.99755" lon="4.78993">
        <ele>498</ele>
        <time>2026-05-03T08:54:49Z</time>
      </trkpt>
      <trkpt lat="44.99755" lon="4.78993">
        <ele>498</ele>
        <time>2026-05-03T08:54:54Z</time>
      </trkpt>
      <trkpt lat="44.99755" lon="4.78993">
        <ele>498</ele>
        <time>2026-05-03T08:54:59Z</time>
      </trkpt>
      <trkpt lat="44.99755" lon="4.78993">
        <ele>498</ele>
        <time>2026-05-03T08:55:04Z</time>
      </trkpt>
      <trkpt lat="44.99755" lon="4.78993">
        <ele>498</ele>
        <time>2026-05-03T08:55:09Z</time>
      </trkpt>
      <trkpt lat="44.99755" lon="4.78993">
        <ele>498</ele>
        <time>2026-05-03T08:55:14Z</time>
      </trkpt>
      <trkpt lat="44.99755" lon="4.78993">
        <ele>498</ele>
        <time>2026-05-03T08:55:19Z</time>
      </trkpt>
      <trkpt lat="44.99755" lon="4.78993">
        <ele>498</ele>
        <time>2026-05-03T08:55:24Z</time>
      </trkpt>
      <trkpt lat="44.99755" lon="4.78993">
        <ele>498</ele>
        <time>2026-05-03T08:55:29Z</time>
      </trkpt>
      <trkpt lat="44.99755" lon="4.78993">
        <ele>498</ele>
        <time>2026-05-03T08:55:34Z</time>
      </trkpt>
      <trkpt lat="44.99755" lon="4.78993">
        <ele>498</ele>
        <time>2026-05-03T08:55:39Z</time>
      </trkpt>
      <trkpt lat="44.99755" lon="4.78993">
        <ele>498</ele>
        <time>2026-05-03T08:55:44Z</time>
      </trkpt>
      <trkpt lat="44.99755" lon="4.78993">
        <ele>498</ele>
        <time>2026-05-03T08:55:49Z</time>
      </trkpt>
      <trkpt lat="44.99755" lon="4.78993">
        <ele>498</ele>
        <time>2026-05-03T08:55:54Z</time>
      </trkpt>
      <trkpt lat="44.99755" lon="4.78993">
        <ele>498</ele>
        <time>2026-05-03T08:55:59Z</time>
      </trkpt>
      <trkpt lat="44.99755" lon="4.78993">
        <ele>498</ele>
        <time>2026-05-03T08:56:04Z</time>
      </trkpt>
      <trkpt lat="44.99755" lon="4.78993">
        <ele>498</ele>
        <time>2026-05-03T08:56:09Z</time>
      </trkpt>
      <trkpt lat="44.99755" lon="4.78993">
        <ele>498</ele>
        <time>2026-05-03T08:56:14Z</time>
      </trkpt>
      <trkpt lat="44.99755" lon="4.78993">
        <ele>498</ele>
        <time>2026-05-03T08:56:19Z</time>
      </trkpt>
      <trkpt lat="44.99755" lon="4.78993">
        <ele>498</ele>
        <time>2026-05-03T08:56:24Z</time>
      </trkpt>
      <trkpt lat="44.99755" lon="4.78993">
        <ele>498</ele>
        <time>2026-05-03T08:56:29Z</time>
      </trkpt>
      <trkpt lat="44.99755" lon="4.78993">
        <ele>498</ele>
        <time>2026-05-03T08:56:34Z</time>
      </trkpt>
      <trkpt lat="44.99755" lon="4.78993">
        <ele>498</ele>
        <time>2026-05-03T08:56:39Z</time>
      </trkpt>
      <trkpt lat="44.99755" lon="4.78993">
        <ele>498</ele>
        <time>2026-05-03T08:56:44Z</time>
      </trkpt>
      <trkpt lat="44.99755" lon="4.78993">
        <ele>498</ele>
        <time>2026-05-03T08:56:49Z</time>
      </trkpt>
      <trkpt lat="44.99755" lon="4.78993">
        <ele>498</ele>
        <time>2026-05-03T08:56:54Z</time>
      </trkpt>
      <trkpt lat="44.99755" lon="4.78993">
        <ele>498</ele>
        <time>2026-05-03T08:56:59Z</time>
      </trkpt>
      <trkpt lat="44.99755" lon="4.78993">
        <ele>498</ele>
        <time>2026-05-03T08:57:04Z</time>
      </trkpt>
      <trkpt lat="44.99755" lon="4.78993">
        <ele>498</ele>
        <time>2026-05-03T08:57:09Z</time>
      </trkpt>
      <trkpt lat="44.99755" lon="4.78993">
        <ele>498</ele>
        <time>2026-05-03T08:57:14Z</time>
      </trkpt>
      <trkpt lat="44.99755" lon="4.78993">
        <ele>498</ele>
        <time>2026-05-03T08:57:19Z</time>
      </trkpt>
      <trkpt lat="44.99755" lon="4.78993">
        <ele>498</ele>
        <time>2026-05-03T08:57:24Z</time>
      </trkpt>
      <trkpt lat="44.99755" lon="4.78993">
        <ele>498</ele>
        <time>2026-05-03T08:57:29Z</time>
      </trkpt>
      <trkpt lat="44.99755" lon="4.78993">
        <ele>498</ele>
        <time>2026-05-03T08:57:34Z</time>
      </trkpt>
      <trkpt lat="44.99755" lon="4.78993">
        <ele>498</ele>
        <time>2026-05-03T08:57:39Z</time>
      </trkpt>
      <trkpt lat="44.99755" lon="4.78993">
        <ele>498</ele>
        <time>2026-05-03T08:57:44Z</time>
      </trkpt>
      <trkpt lat="44.9975" lon="4.78999">
        <ele>498.8</ele>
        <time>2026-05-03T08:57:49Z</time>
      </trkpt>
      <trkpt lat="44.99747" lon="4.79007">
        <ele>499.6</ele>
        <time>2026-05-03T08:57:54Z</time>
      </trkpt>
      <trkpt lat="44.99743" lon="4.79015">
        <ele>500.4</ele>
        <time>2026-05-03T08:57:59Z</time>
      </trkpt>
      <trkpt lat="44.99739" lon="4.79021">
        <ele>501.1</ele>
        <time>2026-05-03T08:58:04Z</time>
      </trkpt>
      <trkpt lat="44.99734" lon="4.79027">
        <ele>502</ele>
        <time>2026-05-03T08:58:09Z</time>
      </trkpt>
      <trkpt lat="44.99726" lon="4.79027">
        <ele>503</ele>
        <time>2026-05-03T08:58:14Z</time>
      </trkpt>
      <trkpt lat="44.99718" lon="4.79029">
        <ele>504.2</ele>
        <time>2026-05-03T08:58:19Z</time>
      </trkpt>
      <trkpt lat="44.99712" lon="4.79029">
        <ele>504.9</ele>
        <time>2026-05-03T08:58:24Z</time>
      </trkpt>
      <trkpt lat="44.99705" lon="4.79031">
        <ele>506</ele>
        <time>2026-05-03T08:58:29Z</time>
        <extensions>
          <visugpx:TrkExtension xmlns:visugpx="https://www.visugpx.com/editgpx/">
            <visugpx:node>25</visugpx:node>
            </visugpx:TrkExtension>
        </extensions>
      </trkpt>
      <trkpt lat="44.99705" lon="4.79031">
        <ele>506</ele>
        <time>2026-05-03T08:58:29Z</time>
        <extensions>
          <visugpx:TrkExtension xmlns:visugpx="https://www.visugpx.com/editgpx/">
            <visugpx:node>26</visugpx:node>
            </visugpx:TrkExtension>
        </extensions>
      </trkpt>
      <trkpt lat="44.99697" lon="4.79034">
        <ele>507.2</ele>
        <time>2026-05-03T08:58:34Z</time>
      </trkpt>
      <trkpt lat="44.9969" lon="4.79037">
        <ele>508.4</ele>
        <time>2026-05-03T08:58:39Z</time>
      </trkpt>
      <trkpt lat="44.99683" lon="4.79041">
        <ele>509.7</ele>
        <time>2026-05-03T08:58:44Z</time>
      </trkpt>
      <trkpt lat="44.99678" lon="4.79045">
        <ele>510.7</ele>
        <time>2026-05-03T08:58:49Z</time>
      </trkpt>
      <trkpt lat="44.99672" lon="4.79051">
        <ele>512.1</ele>
        <time>2026-05-03T08:58:54Z</time>
      </trkpt>
      <trkpt lat="44.99667" lon="4.79056">
        <ele>513.3</ele>
        <time>2026-05-03T08:58:59Z</time>
      </trkpt>
      <trkpt lat="44.99663" lon="4.79064">
        <ele>514.3</ele>
        <time>2026-05-03T08:59:04Z</time>
      </trkpt>
      <trkpt lat="44.99661" lon="4.79075">
        <ele>515.4</ele>
        <time>2026-05-03T08:59:09Z</time>
      </trkpt>
      <trkpt lat="44.99659" lon="4.79083">
        <ele>516.2</ele>
        <time>2026-05-03T08:59:14Z</time>
      </trkpt>
      <trkpt lat="44.99655" lon="4.79093">
        <ele>516.5</ele>
        <time>2026-05-03T08:59:19Z</time>
      </trkpt>
      <trkpt lat="44.99651" lon="4.79103">
        <ele>516.8</ele>
        <time>2026-05-03T08:59:24Z</time>
      </trkpt>
      <trkpt lat="44.99647" lon="4.79111">
        <ele>517</ele>
        <time>2026-05-03T08:59:29Z</time>
      </trkpt>
      <trkpt lat="44.99643" lon="4.79119">
        <ele>517.2</ele>
        <time>2026-05-03T08:59:34Z</time>
      </trkpt>
      <trkpt lat="44.99639" lon="4.79126">
        <ele>517.3</ele>
        <time>2026-05-03T08:59:39Z</time>
      </trkpt>
      <trkpt lat="44.99634" lon="4.79135">
        <ele>517.6</ele>
        <time>2026-05-03T08:59:44Z</time>
      </trkpt>
      <trkpt lat="44.99633" lon="4.79142">
        <ele>517.6</ele>
        <time>2026-05-03T08:59:49Z</time>
      </trkpt>
      <trkpt lat="44.9963" lon="4.7915">
        <ele>517.8</ele>
        <time>2026-05-03T08:59:54Z</time>
      </trkpt>
      <trkpt lat="44.99626" lon="4.79158">
        <ele>517.9</ele>
        <time>2026-05-03T08:59:59Z</time>
      </trkpt>
      <trkpt lat="44.99624" lon="4.79166">
        <ele>518</ele>
        <time>2026-05-03T09:00:04Z</time>
      </trkpt>
      <trkpt lat="44.99621" lon="4.79175">
        <ele>517.4</ele>
        <time>2026-05-03T09:00:09Z</time>
      </trkpt>
      <trkpt lat="44.99617" lon="4.79183">
        <ele>516.7</ele>
        <time>2026-05-03T09:00:14Z</time>
      </trkpt>
      <trkpt lat="44.99612" lon="4.79191">
        <ele>516.2</ele>
        <time>2026-05-03T09:00:19Z</time>
      </trkpt>
      <trkpt lat="44.99606" lon="4.79199">
        <ele>515.6</ele>
        <time>2026-05-03T09:00:24Z</time>
      </trkpt>
      <trkpt lat="44.99602" lon="4.79207">
        <ele>515.1</ele>
        <time>2026-05-03T09:00:29Z</time>
      </trkpt>
      <trkpt lat="44.99597" lon="4.79213">
        <ele>514.7</ele>
        <time>2026-05-03T09:00:34Z</time>
      </trkpt>
      <trkpt lat="44.99592" lon="4.79222">
        <ele>514.1</ele>
        <time>2026-05-03T09:00:39Z</time>
      </trkpt>
      <trkpt lat="44.99587" lon="4.7923">
        <ele>513.6</ele>
        <time>2026-05-03T09:00:44Z</time>
      </trkpt>
      <trkpt lat="44.99582" lon="4.79237">
        <ele>513</ele>
        <time>2026-05-03T09:00:49Z</time>
      </trkpt>
      <trkpt lat="44.99577" lon="4.79245">
        <ele>511.8</ele>
        <time>2026-05-03T09:00:54Z</time>
      </trkpt>
      <trkpt lat="44.99571" lon="4.79254">
        <ele>510.9</ele>
        <time>2026-05-03T09:00:59Z</time>
      </trkpt>
      <trkpt lat="44.99568" lon="4.79263">
        <ele>510.7</ele>
        <time>2026-05-03T09:01:04Z</time>
      </trkpt>
      <trkpt lat="44.99562" lon="4.7927">
        <ele>510.2</ele>
        <time>2026-05-03T09:01:09Z</time>
      </trkpt>
      <trkpt lat="44.99555" lon="4.79275">
        <ele>509.6</ele>
        <time>2026-05-03T09:01:14Z</time>
      </trkpt>
      <trkpt lat="44.9955" lon="4.7928">
        <ele>509.2</ele>
        <time>2026-05-03T09:01:19Z</time>
      </trkpt>
      <trkpt lat="44.99544" lon="4.79284">
        <ele>508.6</ele>
        <time>2026-05-03T09:01:24Z</time>
      </trkpt>
      <trkpt lat="44.99536" lon="4.79288">
        <ele>507.9</ele>
        <time>2026-05-03T09:01:29Z</time>
      </trkpt>
      <trkpt lat="44.99529" lon="4.7929">
        <ele>507.3</ele>
        <time>2026-05-03T09:01:34Z</time>
      </trkpt>
      <trkpt lat="44.99521" lon="4.79293">
        <ele>506.5</ele>
        <time>2026-05-03T09:01:39Z</time>
      </trkpt>
      <trkpt lat="44.99513" lon="4.79295">
        <ele>505.8</ele>
        <time>2026-05-03T09:01:44Z</time>
      </trkpt>
      <trkpt lat="44.99506" lon="4.79298">
        <ele>505.2</ele>
        <time>2026-05-03T09:01:49Z</time>
      </trkpt>
      <trkpt lat="44.99499" lon="4.79301">
        <ele>504.5</ele>
        <time>2026-05-03T09:01:54Z</time>
      </trkpt>
      <trkpt lat="44.99491" lon="4.79305">
        <ele>503.2</ele>
        <time>2026-05-03T09:01:59Z</time>
      </trkpt>
      <trkpt lat="44.99484" lon="4.79309">
        <ele>502.2</ele>
        <time>2026-05-03T09:02:04Z</time>
      </trkpt>
      <trkpt lat="44.99477" lon="4.79314">
        <ele>501.1</ele>
        <time>2026-05-03T09:02:09Z</time>
      </trkpt>
      <trkpt lat="44.9947" lon="4.79318">
        <ele>500.1</ele>
        <time>2026-05-03T09:02:14Z</time>
      </trkpt>
      <trkpt lat="44.99463" lon="4.79321">
        <ele>499</ele>
        <time>2026-05-03T09:02:19Z</time>
      </trkpt>
      <trkpt lat="44.99456" lon="4.79324">
        <ele>498</ele>
        <time>2026-05-03T09:02:24Z</time>
      </trkpt>
      <trkpt lat="44.99448" lon="4.79327">
        <ele>496.8</ele>
        <time>2026-05-03T09:02:29Z</time>
      </trkpt>
      <trkpt lat="44.99441" lon="4.79331">
        <ele>495.7</ele>
        <time>2026-05-03T09:02:34Z</time>
        <extensions>
          <visugpx:TrkExtension xmlns:visugpx="https://www.visugpx.com/editgpx/">
            <visugpx:node>27</visugpx:node>
            </visugpx:TrkExtension>
        </extensions>
      </trkpt>
      <trkpt lat="44.99441" lon="4.79331">
        <ele>495.7</ele>
        <time>2026-05-03T09:02:34Z</time>
        <extensions>
          <visugpx:TrkExtension xmlns:visugpx="https://www.visugpx.com/editgpx/">
            <visugpx:node>28</visugpx:node>
            </visugpx:TrkExtension>
        </extensions>
      </trkpt>
      <trkpt lat="44.99434" lon="4.79334">
        <ele>494.8</ele>
        <time>2026-05-03T09:02:39Z</time>
      </trkpt>
      <trkpt lat="44.99427" lon="4.79337">
        <ele>493.9</ele>
        <time>2026-05-03T09:02:44Z</time>
      </trkpt>
      <trkpt lat="44.99421" lon="4.79341">
        <ele>493.3</ele>
        <time>2026-05-03T09:02:49Z</time>
      </trkpt>
      <trkpt lat="44.99413" lon="4.79344">
        <ele>493.2</ele>
        <time>2026-05-03T09:02:54Z</time>
      </trkpt>
      <trkpt lat="44.99408" lon="4.79349">
        <ele>494.1</ele>
        <time>2026-05-03T09:02:59Z</time>
      </trkpt>
      <trkpt lat="44.99402" lon="4.79357">
        <ele>495.2</ele>
        <time>2026-05-03T09:03:04Z</time>
      </trkpt>
      <trkpt lat="44.99396" lon="4.79364">
        <ele>496.3</ele>
        <time>2026-05-03T09:03:09Z</time>
      </trkpt>
      <trkpt lat="44.99392" lon="4.79373">
        <ele>497.3</ele>
        <time>2026-05-03T09:03:14Z</time>
      </trkpt>
      <trkpt lat="44.99389" lon="4.79383">
        <ele>498.2</ele>
        <time>2026-05-03T09:03:19Z</time>
      </trkpt>
      <trkpt lat="44.99385" lon="4.79392">
        <ele>499.2</ele>
        <time>2026-05-03T09:03:24Z</time>
      </trkpt>
      <trkpt lat="44.99381" lon="4.794">
        <ele>500</ele>
        <time>2026-05-03T09:03:29Z</time>
      </trkpt>
      <trkpt lat="44.99375" lon="4.79409">
        <ele>501</ele>
        <time>2026-05-03T09:03:34Z</time>
      </trkpt>
      <trkpt lat="44.9937" lon="4.79416">
        <ele>501.8</ele>
        <time>2026-05-03T09:03:39Z</time>
      </trkpt>
      <trkpt lat="44.99364" lon="4.79423">
        <ele>501.8</ele>
        <time>2026-05-03T09:03:44Z</time>
      </trkpt>
      <trkpt lat="44.9936" lon="4.79428">
        <ele>501.6</ele>
        <time>2026-05-03T09:03:49Z</time>
      </trkpt>
      <trkpt lat="44.99354" lon="4.79435">
        <ele>501.3</ele>
        <time>2026-05-03T09:03:54Z</time>
      </trkpt>
      <trkpt lat="44.99347" lon="4.79442">
        <ele>500.8</ele>
        <time>2026-05-03T09:03:59Z</time>
      </trkpt>
      <trkpt lat="44.99342" lon="4.79448">
        <ele>500.3</ele>
        <time>2026-05-03T09:04:04Z</time>
      </trkpt>
      <trkpt lat="44.99337" lon="4.79455">
        <ele>499.5</ele>
        <time>2026-05-03T09:04:09Z</time>
      </trkpt>
      <trkpt lat="44.99332" lon="4.79461">
        <ele>498.6</ele>
        <time>2026-05-03T09:04:14Z</time>
      </trkpt>
      <trkpt lat="44.99326" lon="4.79467">
        <ele>497.6</ele>
        <time>2026-05-03T09:04:19Z</time>
      </trkpt>
      <trkpt lat="44.9932" lon="4.79473">
        <ele>496.4</ele>
        <time>2026-05-03T09:04:24Z</time>
      </trkpt>
      <trkpt lat="44.99314" lon="4.79477">
        <ele>495.4</ele>
        <time>2026-05-03T09:04:29Z</time>
      </trkpt>
      <trkpt lat="44.99307" lon="4.79482">
        <ele>494.1</ele>
        <time>2026-05-03T09:04:34Z</time>
      </trkpt>
      <trkpt lat="44.99302" lon="4.79486">
        <ele>493</ele>
        <time>2026-05-03T09:04:39Z</time>
      </trkpt>
      <trkpt lat="44.99294" lon="4.7949">
        <ele>491.6</ele>
        <time>2026-05-03T09:04:44Z</time>
      </trkpt>
      <trkpt lat="44.99287" lon="4.79494">
        <ele>490.2</ele>
        <time>2026-05-03T09:04:49Z</time>
      </trkpt>
      <trkpt lat="44.9928" lon="4.79495">
        <ele>489.3</ele>
        <time>2026-05-03T09:04:54Z</time>
      </trkpt>
      <trkpt lat="44.99278" lon="4.79496">
        <ele>488.9</ele>
        <time>2026-05-03T09:04:59Z</time>
      </trkpt>
      <trkpt lat="44.99273" lon="4.79496">
        <ele>488.3</ele>
        <time>2026-05-03T09:05:04Z</time>
      </trkpt>
      <trkpt lat="44.99265" lon="4.79495">
        <ele>487.8</ele>
        <time>2026-05-03T09:05:09Z</time>
      </trkpt>
      <trkpt lat="44.99256" lon="4.79494">
        <ele>487.1</ele>
        <time>2026-05-03T09:05:14Z</time>
      </trkpt>
      <trkpt lat="44.99254" lon="4.79495">
        <ele>486.7</ele>
        <time>2026-05-03T09:05:19Z</time>
      </trkpt>
      <trkpt lat="44.99254" lon="4.79496">
        <ele>486.4</ele>
        <time>2026-05-03T09:05:24Z</time>
      </trkpt>
      <trkpt lat="44.99251" lon="4.79495">
        <ele>486.4</ele>
        <time>2026-05-03T09:05:29Z</time>
      </trkpt>
      <trkpt lat="44.99244" lon="4.79492">
        <ele>486.5</ele>
        <time>2026-05-03T09:05:34Z</time>
      </trkpt>
      <trkpt lat="44.99238" lon="4.7949">
        <ele>486.5</ele>
        <time>2026-05-03T09:05:39Z</time>
      </trkpt>
      <trkpt lat="44.99231" lon="4.79488">
        <ele>486.5</ele>
        <time>2026-05-03T09:05:44Z</time>
      </trkpt>
      <trkpt lat="44.99223" lon="4.79486">
        <ele>486.4</ele>
        <time>2026-05-03T09:05:49Z</time>
      </trkpt>
      <trkpt lat="44.99216" lon="4.79483">
        <ele>486.6</ele>
        <time>2026-05-03T09:05:54Z</time>
      </trkpt>
      <trkpt lat="44.99208" lon="4.79479">
        <ele>487</ele>
        <time>2026-05-03T09:05:59Z</time>
      </trkpt>
      <trkpt lat="44.992" lon="4.79476">
        <ele>487.2</ele>
        <time>2026-05-03T09:06:04Z</time>
      </trkpt>
      <trkpt lat="44.99193" lon="4.79471">
        <ele>488</ele>
        <time>2026-05-03T09:06:09Z</time>
      </trkpt>
      <trkpt lat="44.99188" lon="4.79467">
        <ele>488.7</ele>
        <time>2026-05-03T09:06:14Z</time>
      </trkpt>
      <trkpt lat="44.99182" lon="4.7946">
        <ele>490.2</ele>
        <time>2026-05-03T09:06:19Z</time>
      </trkpt>
      <trkpt lat="44.99172" lon="4.79459">
        <ele>489.7</ele>
        <time>2026-05-03T09:06:24Z</time>
      </trkpt>
      <trkpt lat="44.99165" lon="4.79459">
        <ele>489.2</ele>
        <time>2026-05-03T09:06:29Z</time>
      </trkpt>
      <trkpt lat="44.99158" lon="4.79459">
        <ele>488.8</ele>
        <time>2026-05-03T09:06:34Z</time>
      </trkpt>
      <trkpt lat="44.9915" lon="4.79461">
        <ele>487.8</ele>
        <time>2026-05-03T09:06:39Z</time>
      </trkpt>
      <trkpt lat="44.99143" lon="4.7946">
        <ele>487.6</ele>
        <time>2026-05-03T09:06:44Z</time>
      </trkpt>
      <trkpt lat="44.99136" lon="4.79458">
        <ele>487.7</ele>
        <time>2026-05-03T09:06:49Z</time>
      </trkpt>
      <trkpt lat="44.9913" lon="4.79458">
        <ele>487.4</ele>
        <time>2026-05-03T09:06:54Z</time>
      </trkpt>
      <trkpt lat="44.99123" lon="4.79458">
        <ele>487</ele>
        <time>2026-05-03T09:06:59Z</time>
      </trkpt>
      <trkpt lat="44.99115" lon="4.79457">
        <ele>486.7</ele>
        <time>2026-05-03T09:07:04Z</time>
      </trkpt>
      <trkpt lat="44.99109" lon="4.79455">
        <ele>486.8</ele>
        <time>2026-05-03T09:07:09Z</time>
      </trkpt>
      <trkpt lat="44.99103" lon="4.79453">
        <ele>487</ele>
        <time>2026-05-03T09:07:14Z</time>
      </trkpt>
      <trkpt lat="44.99094" lon="4.79449">
        <ele>487.3</ele>
        <time>2026-05-03T09:07:19Z</time>
      </trkpt>
      <trkpt lat="44.99087" lon="4.79444">
        <ele>488</ele>
        <time>2026-05-03T09:07:24Z</time>
      </trkpt>
      <trkpt lat="44.99081" lon="4.79442">
        <ele>488.3</ele>
        <time>2026-05-03T09:07:29Z</time>
      </trkpt>
      <trkpt lat="44.99075" lon="4.79438">
        <ele>489.4</ele>
        <time>2026-05-03T09:07:34Z</time>
      </trkpt>
      <trkpt lat="44.99067" lon="4.79435">
        <ele>490.3</ele>
        <time>2026-05-03T09:07:39Z</time>
      </trkpt>
      <trkpt lat="44.99061" lon="4.79432">
        <ele>491.1</ele>
        <time>2026-05-03T09:07:44Z</time>
      </trkpt>
      <trkpt lat="44.99054" lon="4.7943">
        <ele>491.7</ele>
        <time>2026-05-03T09:07:49Z</time>
      </trkpt>
      <trkpt lat="44.99045" lon="4.79429">
        <ele>492.1</ele>
        <time>2026-05-03T09:07:54Z</time>
      </trkpt>
      <trkpt lat="44.99037" lon="4.79427">
        <ele>492.7</ele>
        <time>2026-05-03T09:07:59Z</time>
      </trkpt>
      <trkpt lat="44.9903" lon="4.79425">
        <ele>493.2</ele>
        <time>2026-05-03T09:08:04Z</time>
      </trkpt>
      <trkpt lat="44.99023" lon="4.79425">
        <ele>493.3</ele>
        <time>2026-05-03T09:08:09Z</time>
      </trkpt>
      <trkpt lat="44.99014" lon="4.79424">
        <ele>493.7</ele>
        <time>2026-05-03T09:08:14Z</time>
      </trkpt>
      <trkpt lat="44.99007" lon="4.79424">
        <ele>493.8</ele>
        <time>2026-05-03T09:08:19Z</time>
      </trkpt>
      <trkpt lat="44.98999" lon="4.79422">
        <ele>494.5</ele>
        <time>2026-05-03T09:08:24Z</time>
      </trkpt>
      <trkpt lat="44.9899" lon="4.7942">
        <ele>496.7</ele>
        <time>2026-05-03T09:08:29Z</time>
      </trkpt>
      <trkpt lat="44.98982" lon="4.79417">
        <ele>498.8</ele>
        <time>2026-05-03T09:08:34Z</time>
      </trkpt>
      <trkpt lat="44.98973" lon="4.79417">
        <ele>500.8</ele>
        <time>2026-05-03T09:08:39Z</time>
      </trkpt>
      <trkpt lat="44.98967" lon="4.79414">
        <ele>502</ele>
        <time>2026-05-03T09:08:44Z</time>
      </trkpt>
      <trkpt lat="44.98959" lon="4.79412">
        <ele>503.5</ele>
        <time>2026-05-03T09:08:49Z</time>
      </trkpt>
      <trkpt lat="44.98951" lon="4.79411">
        <ele>505.1</ele>
        <time>2026-05-03T09:08:54Z</time>
      </trkpt>
      <trkpt lat="44.98944" lon="4.79407">
        <ele>506.2</ele>
        <time>2026-05-03T09:08:59Z</time>
      </trkpt>
      <trkpt lat="44.98937" lon="4.79403">
        <ele>507.3</ele>
        <time>2026-05-03T09:09:04Z</time>
      </trkpt>
      <trkpt lat="44.98932" lon="4.79399">
        <ele>507.9</ele>
        <time>2026-05-03T09:09:09Z</time>
      </trkpt>
      <trkpt lat="44.98926" lon="4.79394">
        <ele>508.5</ele>
        <time>2026-05-03T09:09:14Z</time>
      </trkpt>
      <trkpt lat="44.98921" lon="4.79388">
        <ele>508.8</ele>
        <time>2026-05-03T09:09:19Z</time>
      </trkpt>
      <trkpt lat="44.98916" lon="4.79384">
        <ele>509.1</ele>
        <time>2026-05-03T09:09:24Z</time>
      </trkpt>
      <trkpt lat="44.98911" lon="4.79379">
        <ele>509</ele>
        <time>2026-05-03T09:09:29Z</time>
      </trkpt>
      <trkpt lat="44.9891" lon="4.79374">
        <ele>508.5</ele>
        <time>2026-05-03T09:09:34Z</time>
      </trkpt>
      <trkpt lat="44.98911" lon="4.79373">
        <ele>508.3</ele>
        <time>2026-05-03T09:09:39Z</time>
        <extensions>
          <visugpx:TrkExtension xmlns:visugpx="https://www.visugpx.com/editgpx/">
            <visugpx:node>29</visugpx:node>
            </visugpx:TrkExtension>
        </extensions>
      </trkpt>
      <trkpt lat="44.98911" lon="4.79373">
        <ele>508.3</ele>
        <time>2026-05-03T09:09:39Z</time>
        <extensions>
          <visugpx:TrkExtension xmlns:visugpx="https://www.visugpx.com/editgpx/">
            <visugpx:node>30</visugpx:node>
            </visugpx:TrkExtension>
        </extensions>
      </trkpt>
      <trkpt lat="44.98911" lon="4.79373">
        <ele>508.3</ele>
        <time>2026-05-03T09:09:44Z</time>
      </trkpt>
      <trkpt lat="44.98911" lon="4.79373">
        <ele>508.3</ele>
        <time>2026-05-03T09:09:49Z</time>
      </trkpt>
      <trkpt lat="44.98911" lon="4.79373">
        <ele>508.3</ele>
        <time>2026-05-03T09:09:54Z</time>
      </trkpt>
      <trkpt lat="44.98911" lon="4.79373">
        <ele>508.3</ele>
        <time>2026-05-03T09:09:59Z</time>
      </trkpt>
      <trkpt lat="44.98911" lon="4.79373">
        <ele>508.3</ele>
        <time>2026-05-03T09:10:04Z</time>
      </trkpt>
      <trkpt lat="44.98911" lon="4.79373">
        <ele>508.3</ele>
        <time>2026-05-03T09:10:09Z</time>
      </trkpt>
      <trkpt lat="44.98911" lon="4.79373">
        <ele>508.3</ele>
        <time>2026-05-03T09:10:14Z</time>
      </trkpt>
      <trkpt lat="44.98911" lon="4.79373">
        <ele>508.3</ele>
        <time>2026-05-03T09:10:19Z</time>
      </trkpt>
      <trkpt lat="44.98911" lon="4.79373">
        <ele>508.3</ele>
        <time>2026-05-03T09:10:24Z</time>
      </trkpt>
      <trkpt lat="44.98911" lon="4.79373">
        <ele>508.3</ele>
        <time>2026-05-03T09:10:29Z</time>
      </trkpt>
      <trkpt lat="44.98911" lon="4.79373">
        <ele>508.3</ele>
        <time>2026-05-03T09:10:34Z</time>
      </trkpt>
      <trkpt lat="44.98911" lon="4.79373">
        <ele>508.3</ele>
        <time>2026-05-03T09:10:39Z</time>
      </trkpt>
      <trkpt lat="44.98911" lon="4.79373">
        <ele>508.3</ele>
        <time>2026-05-03T09:10:44Z</time>
      </trkpt>
      <trkpt lat="44.98911" lon="4.79373">
        <ele>508.3</ele>
        <time>2026-05-03T09:10:49Z</time>
      </trkpt>
      <trkpt lat="44.98911" lon="4.79373">
        <ele>508.3</ele>
        <time>2026-05-03T09:10:54Z</time>
      </trkpt>
      <trkpt lat="44.98911" lon="4.79373">
        <ele>508.3</ele>
        <time>2026-05-03T09:10:59Z</time>
      </trkpt>
      <trkpt lat="44.98911" lon="4.79373">
        <ele>508.3</ele>
        <time>2026-05-03T09:11:04Z</time>
      </trkpt>
      <trkpt lat="44.98911" lon="4.79373">
        <ele>508.3</ele>
        <time>2026-05-03T09:11:09Z</time>
      </trkpt>
      <trkpt lat="44.98911" lon="4.79373">
        <ele>508.3</ele>
        <time>2026-05-03T09:11:14Z</time>
      </trkpt>
      <trkpt lat="44.98911" lon="4.79373">
        <ele>508.3</ele>
        <time>2026-05-03T09:11:19Z</time>
      </trkpt>
      <trkpt lat="44.98911" lon="4.79373">
        <ele>508.3</ele>
        <time>2026-05-03T09:11:24Z</time>
      </trkpt>
      <trkpt lat="44.98911" lon="4.79373">
        <ele>508.3</ele>
        <time>2026-05-03T09:11:29Z</time>
      </trkpt>
      <trkpt lat="44.98911" lon="4.79373">
        <ele>508.3</ele>
        <time>2026-05-03T09:11:34Z</time>
      </trkpt>
      <trkpt lat="44.98911" lon="4.79373">
        <ele>508.3</ele>
        <time>2026-05-03T09:11:39Z</time>
      </trkpt>
      <trkpt lat="44.98911" lon="4.79373">
        <ele>508.3</ele>
        <time>2026-05-03T09:11:44Z</time>
      </trkpt>
      <trkpt lat="44.98901" lon="4.79375">
        <ele>509.5</ele>
        <time>2026-05-03T09:11:49Z</time>
      </trkpt>
      <trkpt lat="44.98894" lon="4.79373">
        <ele>509.9</ele>
        <time>2026-05-03T09:11:54Z</time>
      </trkpt>
      <trkpt lat="44.98889" lon="4.79371">
        <ele>510.1</ele>
        <time>2026-05-03T09:11:59Z</time>
      </trkpt>
      <trkpt lat="44.98883" lon="4.79371">
        <ele>510.6</ele>
        <time>2026-05-03T09:12:04Z</time>
      </trkpt>
      <trkpt lat="44.98879" lon="4.79371">
        <ele>511</ele>
        <time>2026-05-03T09:12:09Z</time>
      </trkpt>
      <trkpt lat="44.98876" lon="4.79373">
        <ele>511.6</ele>
        <time>2026-05-03T09:12:14Z</time>
      </trkpt>
      <trkpt lat="44.98871" lon="4.79372">
        <ele>511.9</ele>
        <time>2026-05-03T09:12:19Z</time>
      </trkpt>
      <trkpt lat="44.98867" lon="4.79369">
        <ele>511.8</ele>
        <time>2026-05-03T09:12:24Z</time>
      </trkpt>
      <trkpt lat="44.98865" lon="4.79367">
        <ele>511.6</ele>
        <time>2026-05-03T09:12:29Z</time>
      </trkpt>
      <trkpt lat="44.98862" lon="4.79364">
        <ele>511.4</ele>
        <time>2026-05-03T09:12:34Z</time>
      </trkpt>
      <trkpt lat="44.98858" lon="4.79361">
        <ele>511.2</ele>
        <time>2026-05-03T09:12:39Z</time>
      </trkpt>
      <trkpt lat="44.98855" lon="4.79359">
        <ele>511.1</ele>
        <time>2026-05-03T09:12:44Z</time>
      </trkpt>
      <trkpt lat="44.98852" lon="4.79361">
        <ele>511.7</ele>
        <time>2026-05-03T09:12:49Z</time>
      </trkpt>
      <trkpt lat="44.98848" lon="4.79363">
        <ele>512.4</ele>
        <time>2026-05-03T09:12:54Z</time>
      </trkpt>
      <trkpt lat="44.98844" lon="4.79364">
        <ele>513</ele>
        <time>2026-05-03T09:12:59Z</time>
      </trkpt>
      <trkpt lat="44.9884" lon="4.79368">
        <ele>514.1</ele>
        <time>2026-05-03T09:13:04Z</time>
      </trkpt>
      <trkpt lat="44.98836" lon="4.79372">
        <ele>515.2</ele>
        <time>2026-05-03T09:13:09Z</time>
      </trkpt>
      <trkpt lat="44.98834" lon="4.79375">
        <ele>515.9</ele>
        <time>2026-05-03T09:13:14Z</time>
      </trkpt>
      <trkpt lat="44.98831" lon="4.79378">
        <ele>516.8</ele>
        <time>2026-05-03T09:13:19Z</time>
      </trkpt>
      <trkpt lat="44.98827" lon="4.79382">
        <ele>518</ele>
        <time>2026-05-03T09:13:24Z</time>
      </trkpt>
      <trkpt lat="44.98823" lon="4.79384">
        <ele>518.8</ele>
        <time>2026-05-03T09:13:29Z</time>
      </trkpt>
      <trkpt lat="44.98821" lon="4.79385">
        <ele>519.1</ele>
        <time>2026-05-03T09:13:34Z</time>
      </trkpt>
      <trkpt lat="44.98818" lon="4.79387">
        <ele>519.8</ele>
        <time>2026-05-03T09:13:39Z</time>
      </trkpt>
      <trkpt lat="44.98816" lon="4.79388">
        <ele>520.2</ele>
        <time>2026-05-03T09:13:44Z</time>
      </trkpt>
      <trkpt lat="44.98812" lon="4.7939">
        <ele>520.9</ele>
        <time>2026-05-03T09:13:49Z</time>
      </trkpt>
      <trkpt lat="44.98809" lon="4.79391">
        <ele>521.4</ele>
        <time>2026-05-03T09:13:54Z</time>
      </trkpt>
      <trkpt lat="44.98806" lon="4.79391">
        <ele>521.6</ele>
        <time>2026-05-03T09:13:59Z</time>
      </trkpt>
      <trkpt lat="44.98803" lon="4.79392">
        <ele>522.1</ele>
        <time>2026-05-03T09:14:04Z</time>
      </trkpt>
      <trkpt lat="44.988" lon="4.79392">
        <ele>522.4</ele>
        <time>2026-05-03T09:14:09Z</time>
      </trkpt>
      <trkpt lat="44.98797" lon="4.79392">
        <ele>522.7</ele>
        <time>2026-05-03T09:14:14Z</time>
      </trkpt>
      <trkpt lat="44.98792" lon="4.79394">
        <ele>523.4</ele>
        <time>2026-05-03T09:14:19Z</time>
      </trkpt>
      <trkpt lat="44.98789" lon="4.79395">
        <ele>523.9</ele>
        <time>2026-05-03T09:14:24Z</time>
      </trkpt>
      <trkpt lat="44.98787" lon="4.79396">
        <ele>524.2</ele>
        <time>2026-05-03T09:14:29Z</time>
      </trkpt>
      <trkpt lat="44.98783" lon="4.79398">
        <ele>524.9</ele>
        <time>2026-05-03T09:14:34Z</time>
      </trkpt>
      <trkpt lat="44.98778" lon="4.794">
        <ele>525.6</ele>
        <time>2026-05-03T09:14:39Z</time>
      </trkpt>
      <trkpt lat="44.98776" lon="4.79403">
        <ele>526.2</ele>
        <time>2026-05-03T09:14:44Z</time>
      </trkpt>
      <trkpt lat="44.98773" lon="4.79405">
        <ele>526.7</ele>
        <time>2026-05-03T09:14:49Z</time>
      </trkpt>
      <trkpt lat="44.98771" lon="4.79408">
        <ele>527.3</ele>
        <time>2026-05-03T09:14:54Z</time>
      </trkpt>
      <trkpt lat="44.98769" lon="4.79412">
        <ele>528</ele>
        <time>2026-05-03T09:14:59Z</time>
      </trkpt>
      <trkpt lat="44.98765" lon="4.79416">
        <ele>528.8</ele>
        <time>2026-05-03T09:15:04Z</time>
      </trkpt>
      <trkpt lat="44.98762" lon="4.79421">
        <ele>529.7</ele>
        <time>2026-05-03T09:15:09Z</time>
      </trkpt>
      <trkpt lat="44.9876" lon="4.79425">
        <ele>530.3</ele>
        <time>2026-05-03T09:15:14Z</time>
      </trkpt>
      <trkpt lat="44.98758" lon="4.79429">
        <ele>531</ele>
        <time>2026-05-03T09:15:19Z</time>
      </trkpt>
      <trkpt lat="44.98758" lon="4.79433">
        <ele>531.5</ele>
        <time>2026-05-03T09:15:24Z</time>
      </trkpt>
      <trkpt lat="44.98759" lon="4.79439">
        <ele>532.2</ele>
        <time>2026-05-03T09:15:29Z</time>
      </trkpt>
      <trkpt lat="44.9876" lon="4.79444">
        <ele>532.8</ele>
        <time>2026-05-03T09:15:34Z</time>
      </trkpt>
      <trkpt lat="44.98759" lon="4.79449">
        <ele>533.5</ele>
        <time>2026-05-03T09:15:39Z</time>
      </trkpt>
      <trkpt lat="44.98758" lon="4.79453">
        <ele>534.1</ele>
        <time>2026-05-03T09:15:44Z</time>
      </trkpt>
      <trkpt lat="44.98757" lon="4.79458">
        <ele>534.8</ele>
        <time>2026-05-03T09:15:49Z</time>
      </trkpt>
      <trkpt lat="44.98756" lon="4.79464">
        <ele>535.7</ele>
        <time>2026-05-03T09:15:54Z</time>
      </trkpt>
      <trkpt lat="44.98757" lon="4.79464">
        <ele>535.6</ele>
        <time>2026-05-03T09:15:59Z</time>
      </trkpt>
      <trkpt lat="44.98757" lon="4.79464">
        <ele>535.6</ele>
        <time>2026-05-03T09:16:04Z</time>
      </trkpt>
      <trkpt lat="44.98757" lon="4.79464">
        <ele>535.6</ele>
        <time>2026-05-03T09:16:09Z</time>
      </trkpt>
      <trkpt lat="44.98757" lon="4.79464">
        <ele>535.6</ele>
        <time>2026-05-03T09:16:14Z</time>
      </trkpt>
      <trkpt lat="44.98757" lon="4.79464">
        <ele>535.6</ele>
        <time>2026-05-03T09:16:19Z</time>
      </trkpt>
      <trkpt lat="44.98757" lon="4.79478">
        <ele>537.4</ele>
        <time>2026-05-03T09:16:24Z</time>
      </trkpt>
      <trkpt lat="44.98758" lon="4.79479">
        <ele>537.4</ele>
        <time>2026-05-03T09:16:29Z</time>
      </trkpt>
      <trkpt lat="44.98758" lon="4.79479">
        <ele>537.4</ele>
        <time>2026-05-03T09:16:34Z</time>
      </trkpt>
      <trkpt lat="44.98753" lon="4.79491">
        <ele>539.5</ele>
        <time>2026-05-03T09:16:39Z</time>
      </trkpt>
      <trkpt lat="44.98752" lon="4.79494">
        <ele>540</ele>
        <time>2026-05-03T09:16:44Z</time>
      </trkpt>
      <trkpt lat="44.9875" lon="4.79497">
        <ele>540.6</ele>
        <time>2026-05-03T09:16:49Z</time>
      </trkpt>
      <trkpt lat="44.98747" lon="4.79501">
        <ele>541.6</ele>
        <time>2026-05-03T09:16:54Z</time>
      </trkpt>
      <trkpt lat="44.98744" lon="4.79501">
        <ele>542</ele>
        <time>2026-05-03T09:16:59Z</time>
      </trkpt>
      <trkpt lat="44.98741" lon="4.795">
        <ele>542.4</ele>
        <time>2026-05-03T09:17:04Z</time>
      </trkpt>
      <trkpt lat="44.98738" lon="4.79501">
        <ele>543</ele>
        <time>2026-05-03T09:17:09Z</time>
      </trkpt>
      <trkpt lat="44.98735" lon="4.79503">
        <ele>543.6</ele>
        <time>2026-05-03T09:17:14Z</time>
      </trkpt>
      <trkpt lat="44.98731" lon="4.79504">
        <ele>544.4</ele>
        <time>2026-05-03T09:17:19Z</time>
      </trkpt>
      <trkpt lat="44.98729" lon="4.79505">
        <ele>544.8</ele>
        <time>2026-05-03T09:17:24Z</time>
      </trkpt>
      <trkpt lat="44.98726" lon="4.79507">
        <ele>545.4</ele>
        <time>2026-05-03T09:17:29Z</time>
      </trkpt>
      <trkpt lat="44.98723" lon="4.7951">
        <ele>546.1</ele>
        <time>2026-05-03T09:17:34Z</time>
      </trkpt>
      <trkpt lat="44.9872" lon="4.79514">
        <ele>547</ele>
        <time>2026-05-03T09:17:39Z</time>
      </trkpt>
      <trkpt lat="44.98717" lon="4.79516">
        <ele>547.6</ele>
        <time>2026-05-03T09:17:44Z</time>
      </trkpt>
      <trkpt lat="44.98713" lon="4.79518">
        <ele>548.3</ele>
        <time>2026-05-03T09:17:49Z</time>
      </trkpt>
      <trkpt lat="44.98709" lon="4.79522">
        <ele>549.3</ele>
        <time>2026-05-03T09:17:54Z</time>
      </trkpt>
      <trkpt lat="44.98706" lon="4.79525">
        <ele>549.9</ele>
        <time>2026-05-03T09:17:59Z</time>
      </trkpt>
      <trkpt lat="44.98702" lon="4.79529">
        <ele>550.8</ele>
        <time>2026-05-03T09:18:04Z</time>
      </trkpt>
      <trkpt lat="44.987" lon="4.79535">
        <ele>551.6</ele>
        <time>2026-05-03T09:18:09Z</time>
      </trkpt>
      <trkpt lat="44.98697" lon="4.79538">
        <ele>552.2</ele>
        <time>2026-05-03T09:18:14Z</time>
      </trkpt>
      <trkpt lat="44.98694" lon="4.79543">
        <ele>553</ele>
        <time>2026-05-03T09:18:19Z</time>
      </trkpt>
      <trkpt lat="44.9869" lon="4.79547">
        <ele>553.8</ele>
        <time>2026-05-03T09:18:24Z</time>
      </trkpt>
      <trkpt lat="44.98688" lon="4.79549">
        <ele>554.2</ele>
        <time>2026-05-03T09:18:29Z</time>
      </trkpt>
      <trkpt lat="44.98684" lon="4.79551">
        <ele>554.9</ele>
        <time>2026-05-03T09:18:34Z</time>
      </trkpt>
      <trkpt lat="44.98678" lon="4.79554">
        <ele>555.8</ele>
        <time>2026-05-03T09:18:39Z</time>
        <extensions>
          <visugpx:TrkExtension xmlns:visugpx="https://www.visugpx.com/editgpx/">
            <visugpx:node>31</visugpx:node>
            </visugpx:TrkExtension>
        </extensions>
      </trkpt>
      <trkpt lat="44.98678" lon="4.79554">
        <ele>555.8</ele>
        <time>2026-05-03T09:18:39Z</time>
        <extensions>
          <visugpx:TrkExtension xmlns:visugpx="https://www.visugpx.com/editgpx/">
            <visugpx:node>32</visugpx:node>
            </visugpx:TrkExtension>
        </extensions>
      </trkpt>
      <trkpt lat="44.98674" lon="4.79557">
        <ele>556.5</ele>
        <time>2026-05-03T09:18:44Z</time>
      </trkpt>
      <trkpt lat="44.98671" lon="4.79561">
        <ele>557.1</ele>
        <time>2026-05-03T09:18:49Z</time>
      </trkpt>
      <trkpt lat="44.98668" lon="4.79565">
        <ele>557.7</ele>
        <time>2026-05-03T09:18:54Z</time>
      </trkpt>
      <trkpt lat="44.98665" lon="4.79569">
        <ele>558.4</ele>
        <time>2026-05-03T09:18:59Z</time>
      </trkpt>
      <trkpt lat="44.98661" lon="4.79572">
        <ele>559.3</ele>
        <time>2026-05-03T09:19:04Z</time>
      </trkpt>
      <trkpt lat="44.98659" lon="4.79576">
        <ele>559.8</ele>
        <time>2026-05-03T09:19:09Z</time>
      </trkpt>
      <trkpt lat="44.98657" lon="4.79581">
        <ele>560.4</ele>
        <time>2026-05-03T09:19:14Z</time>
      </trkpt>
      <trkpt lat="44.98654" lon="4.79585">
        <ele>561.3</ele>
        <time>2026-05-03T09:19:19Z</time>
      </trkpt>
      <trkpt lat="44.98652" lon="4.7959">
        <ele>562.4</ele>
        <time>2026-05-03T09:19:24Z</time>
      </trkpt>
      <trkpt lat="44.98648" lon="4.79592">
        <ele>563.3</ele>
        <time>2026-05-03T09:19:29Z</time>
      </trkpt>
      <trkpt lat="44.98644" lon="4.79596">
        <ele>564.5</ele>
        <time>2026-05-03T09:19:34Z</time>
      </trkpt>
      <trkpt lat="44.98641" lon="4.796">
        <ele>565.5</ele>
        <time>2026-05-03T09:19:39Z</time>
      </trkpt>
      <trkpt lat="44.98639" lon="4.79603">
        <ele>566.2</ele>
        <time>2026-05-03T09:19:44Z</time>
      </trkpt>
      <trkpt lat="44.98636" lon="4.79605">
        <ele>566.9</ele>
        <time>2026-05-03T09:19:49Z</time>
      </trkpt>
      <trkpt lat="44.98633" lon="4.79607">
        <ele>567.6</ele>
        <time>2026-05-03T09:19:54Z</time>
      </trkpt>
      <trkpt lat="44.98631" lon="4.79608">
        <ele>568</ele>
        <time>2026-05-03T09:19:59Z</time>
      </trkpt>
      <trkpt lat="44.98628" lon="4.7961">
        <ele>568.6</ele>
        <time>2026-05-03T09:20:04Z</time>
      </trkpt>
      <trkpt lat="44.98623" lon="4.7961">
        <ele>569.3</ele>
        <time>2026-05-03T09:20:09Z</time>
      </trkpt>
      <trkpt lat="44.98619" lon="4.79613">
        <ele>570.1</ele>
        <time>2026-05-03T09:20:14Z</time>
      </trkpt>
      <trkpt lat="44.98615" lon="4.79614">
        <ele>570.8</ele>
        <time>2026-05-03T09:20:19Z</time>
      </trkpt>
      <trkpt lat="44.98612" lon="4.79617">
        <ele>571.5</ele>
        <time>2026-05-03T09:20:24Z</time>
      </trkpt>
      <trkpt lat="44.9861" lon="4.7962">
        <ele>572</ele>
        <time>2026-05-03T09:20:29Z</time>
      </trkpt>
      <trkpt lat="44.98607" lon="4.79622">
        <ele>572.6</ele>
        <time>2026-05-03T09:20:34Z</time>
      </trkpt>
      <trkpt lat="44.98605" lon="4.79625">
        <ele>573.2</ele>
        <time>2026-05-03T09:20:39Z</time>
      </trkpt>
      <trkpt lat="44.98605" lon="4.79629">
        <ele>573.6</ele>
        <time>2026-05-03T09:20:44Z</time>
      </trkpt>
      <trkpt lat="44.98605" lon="4.79632">
        <ele>573.9</ele>
        <time>2026-05-03T09:20:49Z</time>
      </trkpt>
      <trkpt lat="44.98603" lon="4.79636">
        <ele>574.5</ele>
        <time>2026-05-03T09:20:54Z</time>
      </trkpt>
      <trkpt lat="44.986" lon="4.79638">
        <ele>575</ele>
        <time>2026-05-03T09:20:59Z</time>
      </trkpt>
      <trkpt lat="44.98597" lon="4.79638">
        <ele>575.3</ele>
        <time>2026-05-03T09:21:04Z</time>
      </trkpt>
      <trkpt lat="44.98594" lon="4.7964">
        <ele>575.8</ele>
        <time>2026-05-03T09:21:09Z</time>
      </trkpt>
      <trkpt lat="44.98592" lon="4.79643">
        <ele>576.3</ele>
        <time>2026-05-03T09:21:14Z</time>
      </trkpt>
      <trkpt lat="44.9859" lon="4.79646">
        <ele>576.7</ele>
        <time>2026-05-03T09:21:19Z</time>
      </trkpt>
      <trkpt lat="44.98586" lon="4.79647">
        <ele>577.1</ele>
        <time>2026-05-03T09:21:24Z</time>
      </trkpt>
      <trkpt lat="44.98582" lon="4.79649">
        <ele>577.9</ele>
        <time>2026-05-03T09:21:29Z</time>
      </trkpt>
      <trkpt lat="44.9858" lon="4.79654">
        <ele>578.8</ele>
        <time>2026-05-03T09:21:34Z</time>
      </trkpt>
      <trkpt lat="44.98579" lon="4.79659">
        <ele>579.5</ele>
        <time>2026-05-03T09:21:39Z</time>
      </trkpt>
      <trkpt lat="44.98575" lon="4.79659">
        <ele>580.6</ele>
        <time>2026-05-03T09:21:44Z</time>
      </trkpt>
      <trkpt lat="44.98571" lon="4.79663">
        <ele>582</ele>
        <time>2026-05-03T09:21:49Z</time>
      </trkpt>
      <trkpt lat="44.98568" lon="4.79665">
        <ele>582.9</ele>
        <time>2026-05-03T09:21:54Z</time>
      </trkpt>
      <trkpt lat="44.98565" lon="4.79668">
        <ele>584.1</ele>
        <time>2026-05-03T09:21:59Z</time>
      </trkpt>
      <trkpt lat="44.98562" lon="4.7967">
        <ele>585.2</ele>
        <time>2026-05-03T09:22:04Z</time>
      </trkpt>
      <trkpt lat="44.98558" lon="4.79674">
        <ele>586.8</ele>
        <time>2026-05-03T09:22:09Z</time>
      </trkpt>
      <trkpt lat="44.98556" lon="4.79677">
        <ele>587.8</ele>
        <time>2026-05-03T09:22:14Z</time>
      </trkpt>
      <trkpt lat="44.98553" lon="4.79681">
        <ele>589.1</ele>
        <time>2026-05-03T09:22:19Z</time>
      </trkpt>
      <trkpt lat="44.98551" lon="4.79685">
        <ele>590.2</ele>
        <time>2026-05-03T09:22:24Z</time>
      </trkpt>
      <trkpt lat="44.98546" lon="4.7969">
        <ele>592.1</ele>
        <time>2026-05-03T09:22:29Z</time>
      </trkpt>
      <trkpt lat="44.98542" lon="4.79692">
        <ele>593.3</ele>
        <time>2026-05-03T09:22:34Z</time>
      </trkpt>
      <trkpt lat="44.98538" lon="4.79696">
        <ele>594.7</ele>
        <time>2026-05-03T09:22:39Z</time>
      </trkpt>
      <trkpt lat="44.98534" lon="4.79702">
        <ele>596.3</ele>
        <time>2026-05-03T09:22:44Z</time>
      </trkpt>
      <trkpt lat="44.98532" lon="4.79706">
        <ele>597.2</ele>
        <time>2026-05-03T09:22:49Z</time>
      </trkpt>
      <trkpt lat="44.98527" lon="4.7971">
        <ele>598.7</ele>
        <time>2026-05-03T09:22:54Z</time>
      </trkpt>
      <trkpt lat="44.98522" lon="4.79714">
        <ele>600.1</ele>
        <time>2026-05-03T09:22:59Z</time>
      </trkpt>
      <trkpt lat="44.98515" lon="4.79718">
        <ele>601.8</ele>
        <time>2026-05-03T09:23:04Z</time>
      </trkpt>
      <trkpt lat="44.98512" lon="4.79722">
        <ele>602.8</ele>
        <time>2026-05-03T09:23:09Z</time>
      </trkpt>
      <trkpt lat="44.98509" lon="4.79725">
        <ele>603.6</ele>
        <time>2026-05-03T09:23:14Z</time>
      </trkpt>
      <trkpt lat="44.98504" lon="4.79727">
        <ele>604.6</ele>
        <time>2026-05-03T09:23:19Z</time>
      </trkpt>
      <trkpt lat="44.985" lon="4.79729">
        <ele>605.5</ele>
        <time>2026-05-03T09:23:24Z</time>
      </trkpt>
      <trkpt lat="44.98496" lon="4.79732">
        <ele>606.7</ele>
        <time>2026-05-03T09:23:29Z</time>
      </trkpt>
      <trkpt lat="44.98491" lon="4.79734">
        <ele>608</ele>
        <time>2026-05-03T09:23:34Z</time>
      </trkpt>
      <trkpt lat="44.98485" lon="4.79735">
        <ele>609.5</ele>
        <time>2026-05-03T09:23:39Z</time>
      </trkpt>
      <trkpt lat="44.98478" lon="4.79736">
        <ele>611.3</ele>
        <time>2026-05-03T09:23:44Z</time>
      </trkpt>
      <trkpt lat="44.98474" lon="4.79738">
        <ele>612.4</ele>
        <time>2026-05-03T09:23:49Z</time>
      </trkpt>
      <trkpt lat="44.98471" lon="4.7974">
        <ele>613.2</ele>
        <time>2026-05-03T09:23:54Z</time>
      </trkpt>
      <trkpt lat="44.9847" lon="4.79742">
        <ele>613.6</ele>
        <time>2026-05-03T09:23:59Z</time>
      </trkpt>
      <trkpt lat="44.98475" lon="4.79744">
        <ele>612.6</ele>
        <time>2026-05-03T09:24:04Z</time>
      </trkpt>
      <trkpt lat="44.98481" lon="4.79745">
        <ele>611.2</ele>
        <time>2026-05-03T09:24:09Z</time>
      </trkpt>
      <trkpt lat="44.98489" lon="4.79745">
        <ele>609.3</ele>
        <time>2026-05-03T09:24:14Z</time>
      </trkpt>
      <trkpt lat="44.98498" lon="4.79745">
        <ele>607.1</ele>
        <time>2026-05-03T09:24:19Z</time>
      </trkpt>
      <trkpt lat="44.98507" lon="4.79745">
        <ele>605.6</ele>
        <time>2026-05-03T09:24:24Z</time>
      </trkpt>
      <trkpt lat="44.98513" lon="4.79744">
        <ele>604.6</ele>
        <time>2026-05-03T09:24:29Z</time>
      </trkpt>
      <trkpt lat="44.98519" lon="4.79744">
        <ele>603.7</ele>
        <time>2026-05-03T09:24:34Z</time>
      </trkpt>
      <trkpt lat="44.98523" lon="4.79743">
        <ele>603</ele>
        <time>2026-05-03T09:24:39Z</time>
      </trkpt>
      <trkpt lat="44.98527" lon="4.79745">
        <ele>602.6</ele>
        <time>2026-05-03T09:24:44Z</time>
      </trkpt>
      <trkpt lat="44.98532" lon="4.79747">
        <ele>602</ele>
        <time>2026-05-03T09:24:49Z</time>
      </trkpt>
      <trkpt lat="44.98536" lon="4.79748">
        <ele>601.6</ele>
        <time>2026-05-03T09:24:54Z</time>
      </trkpt>
      <trkpt lat="44.9854" lon="4.7975">
        <ele>601.2</ele>
        <time>2026-05-03T09:24:59Z</time>
      </trkpt>
      <trkpt lat="44.98544" lon="4.79751">
        <ele>600.9</ele>
        <time>2026-05-03T09:25:04Z</time>
      </trkpt>
      <trkpt lat="44.98548" lon="4.79753">
        <ele>600.7</ele>
        <time>2026-05-03T09:25:09Z</time>
      </trkpt>
      <trkpt lat="44.98554" lon="4.79757">
        <ele>600.7</ele>
        <time>2026-05-03T09:25:14Z</time>
      </trkpt>
      <trkpt lat="44.98558" lon="4.79762">
        <ele>601.2</ele>
        <time>2026-05-03T09:25:19Z</time>
      </trkpt>
      <trkpt lat="44.98563" lon="4.79766">
        <ele>601.3</ele>
        <time>2026-05-03T09:25:24Z</time>
      </trkpt>
      <trkpt lat="44.98568" lon="4.79771">
        <ele>601.7</ele>
        <time>2026-05-03T09:25:29Z</time>
      </trkpt>
      <trkpt lat="44.98573" lon="4.79776">
        <ele>602</ele>
        <time>2026-05-03T09:25:34Z</time>
      </trkpt>
      <trkpt lat="44.98576" lon="4.79784">
        <ele>603.3</ele>
        <time>2026-05-03T09:25:39Z</time>
      </trkpt>
      <trkpt lat="44.98579" lon="4.7979">
        <ele>604.2</ele>
        <time>2026-05-03T09:25:44Z</time>
      </trkpt>
      <trkpt lat="44.98582" lon="4.79796">
        <ele>605.1</ele>
        <time>2026-05-03T09:25:49Z</time>
      </trkpt>
      <trkpt lat="44.98587" lon="4.79802">
        <ele>605.9</ele>
        <time>2026-05-03T09:25:54Z</time>
      </trkpt>
      <trkpt lat="44.98592" lon="4.7981">
        <ele>607</ele>
        <time>2026-05-03T09:25:59Z</time>
      </trkpt>
      <trkpt lat="44.98596" lon="4.79816">
        <ele>607.8</ele>
        <time>2026-05-03T09:26:04Z</time>
      </trkpt>
      <trkpt lat="44.98594" lon="4.79821">
        <ele>609.1</ele>
        <time>2026-05-03T09:26:09Z</time>
      </trkpt>
      <trkpt lat="44.98592" lon="4.79821">
        <ele>609.3</ele>
        <time>2026-05-03T09:26:14Z</time>
      </trkpt>
      <trkpt lat="44.98587" lon="4.79819">
        <ele>609.5</ele>
        <time>2026-05-03T09:26:19Z</time>
      </trkpt>
      <trkpt lat="44.98582" lon="4.79818">
        <ele>609.9</ele>
        <time>2026-05-03T09:26:24Z</time>
      </trkpt>
      <trkpt lat="44.98578" lon="4.79817">
        <ele>610.1</ele>
        <time>2026-05-03T09:26:29Z</time>
      </trkpt>
      <trkpt lat="44.98572" lon="4.79817">
        <ele>610.9</ele>
        <time>2026-05-03T09:26:34Z</time>
      </trkpt>
      <trkpt lat="44.98566" lon="4.79815">
        <ele>611.2</ele>
        <time>2026-05-03T09:26:39Z</time>
      </trkpt>
      <trkpt lat="44.98562" lon="4.79812">
        <ele>611.1</ele>
        <time>2026-05-03T09:26:44Z</time>
      </trkpt>
      <trkpt lat="44.98558" lon="4.79808">
        <ele>610.8</ele>
        <time>2026-05-03T09:26:49Z</time>
      </trkpt>
      <trkpt lat="44.98553" lon="4.79807">
        <ele>611.2</ele>
        <time>2026-05-03T09:26:54Z</time>
      </trkpt>
      <trkpt lat="44.98548" lon="4.79806">
        <ele>611.6</ele>
        <time>2026-05-03T09:26:59Z</time>
      </trkpt>
      <trkpt lat="44.98541" lon="4.79805">
        <ele>612.3</ele>
        <time>2026-05-03T09:27:04Z</time>
      </trkpt>
      <trkpt lat="44.98536" lon="4.79806">
        <ele>613.1</ele>
        <time>2026-05-03T09:27:09Z</time>
      </trkpt>
      <trkpt lat="44.98531" lon="4.79806">
        <ele>613.8</ele>
        <time>2026-05-03T09:27:14Z</time>
      </trkpt>
      <trkpt lat="44.98525" lon="4.79806">
        <ele>614.6</ele>
        <time>2026-05-03T09:27:19Z</time>
      </trkpt>
      <trkpt lat="44.98519" lon="4.79805">
        <ele>615.1</ele>
        <time>2026-05-03T09:27:24Z</time>
      </trkpt>
      <trkpt lat="44.98513" lon="4.79806">
        <ele>616.1</ele>
        <time>2026-05-03T09:27:29Z</time>
      </trkpt>
      <trkpt lat="44.98508" lon="4.79807">
        <ele>616.9</ele>
        <time>2026-05-03T09:27:34Z</time>
      </trkpt>
      <trkpt lat="44.98503" lon="4.79806">
        <ele>617.4</ele>
        <time>2026-05-03T09:27:39Z</time>
      </trkpt>
      <trkpt lat="44.98497" lon="4.79806">
        <ele>618.2</ele>
        <time>2026-05-03T09:27:44Z</time>
      </trkpt>
      <trkpt lat="44.98493" lon="4.79807">
        <ele>619</ele>
        <time>2026-05-03T09:27:49Z</time>
      </trkpt>
      <trkpt lat="44.98488" lon="4.79808">
        <ele>620</ele>
        <time>2026-05-03T09:27:54Z</time>
      </trkpt>
      <trkpt lat="44.98484" lon="4.79808">
        <ele>620.6</ele>
        <time>2026-05-03T09:27:59Z</time>
      </trkpt>
      <trkpt lat="44.9848" lon="4.7981">
        <ele>621.6</ele>
        <time>2026-05-03T09:28:04Z</time>
      </trkpt>
      <trkpt lat="44.98476" lon="4.79811">
        <ele>622.4</ele>
        <time>2026-05-03T09:28:09Z</time>
      </trkpt>
      <trkpt lat="44.98471" lon="4.79811">
        <ele>623.1</ele>
        <time>2026-05-03T09:28:14Z</time>
      </trkpt>
      <trkpt lat="44.98467" lon="4.7981">
        <ele>623.6</ele>
        <time>2026-05-03T09:28:19Z</time>
      </trkpt>
      <trkpt lat="44.98468" lon="4.79813">
        <ele>623.9</ele>
        <time>2026-05-03T09:28:24Z</time>
      </trkpt>
      <trkpt lat="44.98467" lon="4.79814">
        <ele>624.2</ele>
        <time>2026-05-03T09:28:29Z</time>
      </trkpt>
      <trkpt lat="44.98464" lon="4.79815">
        <ele>624.8</ele>
        <time>2026-05-03T09:28:34Z</time>
      </trkpt>
      <trkpt lat="44.98459" lon="4.79815">
        <ele>625.5</ele>
        <time>2026-05-03T09:28:39Z</time>
      </trkpt>
      <trkpt lat="44.98456" lon="4.79814">
        <ele>625.8</ele>
        <time>2026-05-03T09:28:44Z</time>
      </trkpt>
      <trkpt lat="44.98452" lon="4.79813">
        <ele>626.3</ele>
        <time>2026-05-03T09:28:49Z</time>
      </trkpt>
      <trkpt lat="44.98448" lon="4.79813">
        <ele>626.9</ele>
        <time>2026-05-03T09:28:54Z</time>
      </trkpt>
      <trkpt lat="44.98444" lon="4.79813">
        <ele>627.5</ele>
        <time>2026-05-03T09:28:59Z</time>
      </trkpt>
      <trkpt lat="44.9844" lon="4.79813">
        <ele>628.1</ele>
        <time>2026-05-03T09:29:04Z</time>
      </trkpt>
      <trkpt lat="44.98432" lon="4.79812">
        <ele>629.2</ele>
        <time>2026-05-03T09:29:09Z</time>
      </trkpt>
      <trkpt lat="44.98427" lon="4.79812">
        <ele>629.9</ele>
        <time>2026-05-03T09:29:14Z</time>
      </trkpt>
      <trkpt lat="44.98423" lon="4.79813">
        <ele>630.6</ele>
        <time>2026-05-03T09:29:19Z</time>
      </trkpt>
      <trkpt lat="44.98417" lon="4.79814">
        <ele>631.6</ele>
        <time>2026-05-03T09:29:24Z</time>
      </trkpt>
      <trkpt lat="44.98413" lon="4.79817">
        <ele>631.7</ele>
        <time>2026-05-03T09:29:29Z</time>
      </trkpt>
      <trkpt lat="44.98409" lon="4.79816">
        <ele>631.6</ele>
        <time>2026-05-03T09:29:34Z</time>
      </trkpt>
      <trkpt lat="44.98403" lon="4.79815">
        <ele>631.4</ele>
        <time>2026-05-03T09:29:39Z</time>
      </trkpt>
      <trkpt lat="44.98398" lon="4.79815">
        <ele>631.3</ele>
        <time>2026-05-03T09:29:44Z</time>
      </trkpt>
      <trkpt lat="44.98394" lon="4.79815">
        <ele>631.2</ele>
        <time>2026-05-03T09:29:49Z</time>
      </trkpt>
      <trkpt lat="44.98389" lon="4.79813">
        <ele>631</ele>
        <time>2026-05-03T09:29:54Z</time>
      </trkpt>
      <trkpt lat="44.98384" lon="4.79812">
        <ele>630.9</ele>
        <time>2026-05-03T09:29:59Z</time>
      </trkpt>
      <trkpt lat="44.9838" lon="4.79811">
        <ele>630.8</ele>
        <time>2026-05-03T09:30:04Z</time>
      </trkpt>
      <trkpt lat="44.98375" lon="4.79811">
        <ele>630.7</ele>
        <time>2026-05-03T09:30:09Z</time>
      </trkpt>
      <trkpt lat="44.98372" lon="4.79811">
        <ele>630.6</ele>
        <time>2026-05-03T09:30:14Z</time>
      </trkpt>
      <trkpt lat="44.98369" lon="4.79812">
        <ele>630.6</ele>
        <time>2026-05-03T09:30:19Z</time>
      </trkpt>
      <trkpt lat="44.98366" lon="4.79814">
        <ele>630.6</ele>
        <time>2026-05-03T09:30:24Z</time>
      </trkpt>
      <trkpt lat="44.98361" lon="4.79813">
        <ele>630.5</ele>
        <time>2026-05-03T09:30:29Z</time>
      </trkpt>
      <trkpt lat="44.98356" lon="4.79812">
        <ele>630.4</ele>
        <time>2026-05-03T09:30:34Z</time>
      </trkpt>
      <trkpt lat="44.98351" lon="4.79811">
        <ele>630.3</ele>
        <time>2026-05-03T09:30:39Z</time>
      </trkpt>
      <trkpt lat="44.98347" lon="4.79808">
        <ele>630.2</ele>
        <time>2026-05-03T09:30:44Z</time>
      </trkpt>
      <trkpt lat="44.98342" lon="4.79806">
        <ele>630.1</ele>
        <time>2026-05-03T09:30:49Z</time>
      </trkpt>
      <trkpt lat="44.98339" lon="4.79804">
        <ele>630.1</ele>
        <time>2026-05-03T09:30:54Z</time>
      </trkpt>
      <trkpt lat="44.98335" lon="4.79801">
        <ele>630</ele>
        <time>2026-05-03T09:30:59Z</time>
      </trkpt>
      <trkpt lat="44.98333" lon="4.79797">
        <ele>630</ele>
        <time>2026-05-03T09:31:04Z</time>
      </trkpt>
      <trkpt lat="44.98331" lon="4.79791">
        <ele>629.9</ele>
        <time>2026-05-03T09:31:09Z</time>
      </trkpt>
      <trkpt lat="44.98329" lon="4.79785">
        <ele>629.9</ele>
        <time>2026-05-03T09:31:14Z</time>
      </trkpt>
      <trkpt lat="44.98326" lon="4.79782">
        <ele>629.8</ele>
        <time>2026-05-03T09:31:19Z</time>
      </trkpt>
      <trkpt lat="44.98325" lon="4.79779">
        <ele>629.8</ele>
        <time>2026-05-03T09:31:24Z</time>
      </trkpt>
      <trkpt lat="44.98324" lon="4.79778">
        <ele>629.8</ele>
        <time>2026-05-03T09:31:29Z</time>
      </trkpt>
      <trkpt lat="44.98324" lon="4.79778">
        <ele>629.8</ele>
        <time>2026-05-03T09:31:34Z</time>
      </trkpt>
      <trkpt lat="44.98324" lon="4.79778">
        <ele>629.8</ele>
        <time>2026-05-03T09:31:39Z</time>
      </trkpt>
      <trkpt lat="44.9832" lon="4.79779">
        <ele>629.7</ele>
        <time>2026-05-03T09:31:44Z</time>
      </trkpt>
      <trkpt lat="44.9832" lon="4.79779">
        <ele>629.7</ele>
        <time>2026-05-03T09:31:49Z</time>
      </trkpt>
      <trkpt lat="44.9832" lon="4.79779">
        <ele>629.7</ele>
        <time>2026-05-03T09:31:54Z</time>
      </trkpt>
      <trkpt lat="44.9832" lon="4.79779">
        <ele>629.7</ele>
        <time>2026-05-03T09:31:59Z</time>
      </trkpt>
      <trkpt lat="44.9832" lon="4.79779">
        <ele>629.7</ele>
        <time>2026-05-03T09:32:04Z</time>
      </trkpt>
      <trkpt lat="44.98318" lon="4.79775">
        <ele>629.7</ele>
        <time>2026-05-03T09:32:09Z</time>
      </trkpt>
      <trkpt lat="44.98314" lon="4.79776">
        <ele>629.6</ele>
        <time>2026-05-03T09:32:14Z</time>
      </trkpt>
      <trkpt lat="44.98312" lon="4.79784">
        <ele>629.4</ele>
        <time>2026-05-03T09:32:19Z</time>
      </trkpt>
      <trkpt lat="44.98311" lon="4.79792">
        <ele>629.2</ele>
        <time>2026-05-03T09:32:24Z</time>
      </trkpt>
      <trkpt lat="44.98309" lon="4.798">
        <ele>628.9</ele>
        <time>2026-05-03T09:32:29Z</time>
      </trkpt>
      <trkpt lat="44.98308" lon="4.79807">
        <ele>628.8</ele>
        <time>2026-05-03T09:32:34Z</time>
      </trkpt>
      <trkpt lat="44.9831" lon="4.79816">
        <ele>628.7</ele>
        <time>2026-05-03T09:32:39Z</time>
      </trkpt>
      <trkpt lat="44.98312" lon="4.79824">
        <ele>628.6</ele>
        <time>2026-05-03T09:32:44Z</time>
      </trkpt>
      <trkpt lat="44.98313" lon="4.79826">
        <ele>628.7</ele>
        <time>2026-05-03T09:32:49Z</time>
      </trkpt>
      <trkpt lat="44.98312" lon="4.79828">
        <ele>628.6</ele>
        <time>2026-05-03T09:32:54Z</time>
      </trkpt>
      <trkpt lat="44.98312" lon="4.79828">
        <ele>628.6</ele>
        <time>2026-05-03T09:32:59Z</time>
      </trkpt>
      <trkpt lat="44.98312" lon="4.79828">
        <ele>628.6</ele>
        <time>2026-05-03T09:33:04Z</time>
      </trkpt>
      <trkpt lat="44.98312" lon="4.79828">
        <ele>628.6</ele>
        <time>2026-05-03T09:33:09Z</time>
      </trkpt>
      <trkpt lat="44.98312" lon="4.79828">
        <ele>628.6</ele>
        <time>2026-05-03T09:33:14Z</time>
      </trkpt>
      <trkpt lat="44.98309" lon="4.79828">
        <ele>628.4</ele>
        <time>2026-05-03T09:33:19Z</time>
      </trkpt>
      <trkpt lat="44.98307" lon="4.79829">
        <ele>628.2</ele>
        <time>2026-05-03T09:33:24Z</time>
      </trkpt>
      <trkpt lat="44.98307" lon="4.79835">
        <ele>627.9</ele>
        <time>2026-05-03T09:33:29Z</time>
      </trkpt>
      <trkpt lat="44.98308" lon="4.79836">
        <ele>627.8</ele>
        <time>2026-05-03T09:33:34Z</time>
      </trkpt>
      <trkpt lat="44.98308" lon="4.79836">
        <ele>627.8</ele>
        <time>2026-05-03T09:33:39Z</time>
      </trkpt>
      <trkpt lat="44.98308" lon="4.79836">
        <ele>627.8</ele>
        <time>2026-05-03T09:33:44Z</time>
      </trkpt>
      <trkpt lat="44.98308" lon="4.79836">
        <ele>627.8</ele>
        <time>2026-05-03T09:33:49Z</time>
      </trkpt>
      <trkpt lat="44.98308" lon="4.79836">
        <ele>627.8</ele>
        <time>2026-05-03T09:33:54Z</time>
      </trkpt>
      <trkpt lat="44.98304" lon="4.79844">
        <ele>626.2</ele>
        <time>2026-05-03T09:33:59Z</time>
      </trkpt>
      <trkpt lat="44.98303" lon="4.79844">
        <ele>626.2</ele>
        <time>2026-05-03T09:34:04Z</time>
      </trkpt>
      <trkpt lat="44.98303" lon="4.79845">
        <ele>626</ele>
        <time>2026-05-03T09:34:09Z</time>
      </trkpt>
      <trkpt lat="44.98308" lon="4.79847">
        <ele>626.1</ele>
        <time>2026-05-03T09:34:14Z</time>
      </trkpt>
      <trkpt lat="44.98313" lon="4.79852">
        <ele>625.9</ele>
        <time>2026-05-03T09:34:19Z</time>
      </trkpt>
      <trkpt lat="44.98316" lon="4.79858">
        <ele>625.3</ele>
        <time>2026-05-03T09:34:24Z</time>
      </trkpt>
      <trkpt lat="44.98318" lon="4.79863">
        <ele>624.8</ele>
        <time>2026-05-03T09:34:29Z</time>
      </trkpt>
      <trkpt lat="44.98318" lon="4.79869">
        <ele>624</ele>
        <time>2026-05-03T09:34:34Z</time>
      </trkpt>
      <trkpt lat="44.98318" lon="4.79874">
        <ele>623.3</ele>
        <time>2026-05-03T09:34:39Z</time>
      </trkpt>
      <trkpt lat="44.9832" lon="4.79878">
        <ele>623</ele>
        <time>2026-05-03T09:34:44Z</time>
      </trkpt>
      <trkpt lat="44.98321" lon="4.79884">
        <ele>622.3</ele>
        <time>2026-05-03T09:34:49Z</time>
      </trkpt>
      <trkpt lat="44.98322" lon="4.79891">
        <ele>621.5</ele>
        <time>2026-05-03T09:34:54Z</time>
      </trkpt>
      <trkpt lat="44.98324" lon="4.79898">
        <ele>620.9</ele>
        <time>2026-05-03T09:34:59Z</time>
      </trkpt>
      <trkpt lat="44.98324" lon="4.79904">
        <ele>620.1</ele>
        <time>2026-05-03T09:35:04Z</time>
      </trkpt>
      <trkpt lat="44.98324" lon="4.79911">
        <ele>619.2</ele>
        <time>2026-05-03T09:35:09Z</time>
      </trkpt>
      <trkpt lat="44.98326" lon="4.79915">
        <ele>619</ele>
        <time>2026-05-03T09:35:14Z</time>
      </trkpt>
      <trkpt lat="44.98329" lon="4.79919">
        <ele>619</ele>
        <time>2026-05-03T09:35:19Z</time>
      </trkpt>
      <trkpt lat="44.98327" lon="4.7992">
        <ele>618.6</ele>
        <time>2026-05-03T09:35:24Z</time>
      </trkpt>
      <trkpt lat="44.98326" lon="4.79924">
        <ele>618</ele>
        <time>2026-05-03T09:35:29Z</time>
      </trkpt>
      <trkpt lat="44.98328" lon="4.79931">
        <ele>617.7</ele>
        <time>2026-05-03T09:35:34Z</time>
      </trkpt>
      <trkpt lat="44.9833" lon="4.79937">
        <ele>617.4</ele>
        <time>2026-05-03T09:35:39Z</time>
      </trkpt>
      <trkpt lat="44.98333" lon="4.79944">
        <ele>617.3</ele>
        <time>2026-05-03T09:35:44Z</time>
      </trkpt>
      <trkpt lat="44.98335" lon="4.79949">
        <ele>617.2</ele>
        <time>2026-05-03T09:35:49Z</time>
      </trkpt>
      <trkpt lat="44.98336" lon="4.79951">
        <ele>617.1</ele>
        <time>2026-05-03T09:35:54Z</time>
      </trkpt>
      <trkpt lat="44.98336" lon="4.79952">
        <ele>617</ele>
        <time>2026-05-03T09:35:59Z</time>
      </trkpt>
      <trkpt lat="44.98339" lon="4.79951">
        <ele>617.6</ele>
        <time>2026-05-03T09:36:04Z</time>
      </trkpt>
      <trkpt lat="44.98344" lon="4.79952">
        <ele>618.3</ele>
        <time>2026-05-03T09:36:09Z</time>
      </trkpt>
      <trkpt lat="44.98345" lon="4.79952">
        <ele>618.4</ele>
        <time>2026-05-03T09:36:14Z</time>
      </trkpt>
      <trkpt lat="44.98346" lon="4.79953">
        <ele>618.5</ele>
        <time>2026-05-03T09:36:19Z</time>
      </trkpt>
      <trkpt lat="44.98346" lon="4.79953">
        <ele>618.5</ele>
        <time>2026-05-03T09:36:24Z</time>
      </trkpt>
      <trkpt lat="44.98346" lon="4.79953">
        <ele>618.5</ele>
        <time>2026-05-03T09:36:29Z</time>
      </trkpt>
      <trkpt lat="44.98346" lon="4.79953">
        <ele>618.5</ele>
        <time>2026-05-03T09:36:34Z</time>
      </trkpt>
      <trkpt lat="44.9835" lon="4.79957">
        <ele>618.6</ele>
        <time>2026-05-03T09:36:39Z</time>
      </trkpt>
      <trkpt lat="44.9835" lon="4.79957">
        <ele>618.6</ele>
        <time>2026-05-03T09:36:44Z</time>
      </trkpt>
      <trkpt lat="44.98351" lon="4.79956">
        <ele>618.9</ele>
        <time>2026-05-03T09:36:49Z</time>
      </trkpt>
      <trkpt lat="44.98351" lon="4.79956">
        <ele>618.9</ele>
        <time>2026-05-03T09:36:54Z</time>
      </trkpt>
      <trkpt lat="44.98351" lon="4.79956">
        <ele>618.9</ele>
        <time>2026-05-03T09:36:59Z</time>
      </trkpt>
      <trkpt lat="44.98351" lon="4.79956">
        <ele>618.9</ele>
        <time>2026-05-03T09:37:04Z</time>
      </trkpt>
      <trkpt lat="44.98351" lon="4.79956">
        <ele>618.9</ele>
        <time>2026-05-03T09:37:09Z</time>
      </trkpt>
      <trkpt lat="44.98351" lon="4.79956">
        <ele>618.9</ele>
        <time>2026-05-03T09:37:14Z</time>
      </trkpt>
      <trkpt lat="44.98351" lon="4.79956">
        <ele>618.9</ele>
        <time>2026-05-03T09:37:19Z</time>
      </trkpt>
      <trkpt lat="44.98351" lon="4.79956">
        <ele>618.9</ele>
        <time>2026-05-03T09:37:24Z</time>
      </trkpt>
      <trkpt lat="44.98351" lon="4.79956">
        <ele>618.9</ele>
        <time>2026-05-03T09:37:29Z</time>
      </trkpt>
      <trkpt lat="44.98351" lon="4.79956">
        <ele>618.9</ele>
        <time>2026-05-03T09:37:34Z</time>
      </trkpt>
      <trkpt lat="44.98351" lon="4.79956">
        <ele>618.9</ele>
        <time>2026-05-03T09:37:39Z</time>
      </trkpt>
      <trkpt lat="44.98351" lon="4.79956">
        <ele>618.9</ele>
        <time>2026-05-03T09:37:44Z</time>
      </trkpt>
      <trkpt lat="44.98351" lon="4.79956">
        <ele>618.9</ele>
        <time>2026-05-03T09:37:49Z</time>
      </trkpt>
      <trkpt lat="44.98351" lon="4.79956">
        <ele>618.9</ele>
        <time>2026-05-03T09:37:54Z</time>
      </trkpt>
      <trkpt lat="44.98352" lon="4.79954">
        <ele>619.3</ele>
        <time>2026-05-03T09:37:59Z</time>
      </trkpt>
      <trkpt lat="44.98352" lon="4.79954">
        <ele>619.3</ele>
        <time>2026-05-03T09:38:04Z</time>
      </trkpt>
      <trkpt lat="44.98352" lon="4.79954">
        <ele>619.3</ele>
        <time>2026-05-03T09:38:10Z</time>
      </trkpt>
      <trkpt lat="44.98356" lon="4.79956">
        <ele>619.7</ele>
        <time>2026-05-03T09:38:15Z</time>
      </trkpt>
      <trkpt lat="44.9836" lon="4.79954">
        <ele>620.5</ele>
        <time>2026-05-03T09:38:20Z</time>
      </trkpt>
      <trkpt lat="44.98366" lon="4.79952">
        <ele>621.7</ele>
        <time>2026-05-03T09:38:25Z</time>
      </trkpt>
      <trkpt lat="44.98371" lon="4.79947">
        <ele>623</ele>
        <time>2026-05-03T09:38:30Z</time>
      </trkpt>
      <trkpt lat="44.98373" lon="4.79947">
        <ele>623.4</ele>
        <time>2026-05-03T09:38:35Z</time>
      </trkpt>
      <trkpt lat="44.98373" lon="4.79947">
        <ele>623.4</ele>
        <time>2026-05-03T09:38:40Z</time>
      </trkpt>
      <trkpt lat="44.98373" lon="4.79946">
        <ele>623.5</ele>
        <time>2026-05-03T09:38:45Z</time>
      </trkpt>
      <trkpt lat="44.98373" lon="4.79946">
        <ele>623.5</ele>
        <time>2026-05-03T09:38:50Z</time>
      </trkpt>
      <trkpt lat="44.98373" lon="4.79946">
        <ele>623.5</ele>
        <time>2026-05-03T09:38:55Z</time>
      </trkpt>
      <trkpt lat="44.98373" lon="4.79946">
        <ele>623.5</ele>
        <time>2026-05-03T09:39:00Z</time>
      </trkpt>
      <trkpt lat="44.98373" lon="4.79946">
        <ele>623.5</ele>
        <time>2026-05-03T09:39:05Z</time>
      </trkpt>
      <trkpt lat="44.98373" lon="4.79946">
        <ele>623.5</ele>
        <time>2026-05-03T09:39:10Z</time>
      </trkpt>
      <trkpt lat="44.98373" lon="4.79946">
        <ele>623.5</ele>
        <time>2026-05-03T09:39:15Z</time>
      </trkpt>
      <trkpt lat="44.98375" lon="4.79945">
        <ele>623.9</ele>
        <time>2026-05-03T09:39:20Z</time>
      </trkpt>
      <trkpt lat="44.98378" lon="4.7994">
        <ele>625</ele>
        <time>2026-05-03T09:39:25Z</time>
      </trkpt>
      <trkpt lat="44.98379" lon="4.79934">
        <ele>626</ele>
        <time>2026-05-03T09:39:30Z</time>
      </trkpt>
      <trkpt lat="44.98382" lon="4.7993">
        <ele>627</ele>
        <time>2026-05-03T09:39:35Z</time>
      </trkpt>
      <trkpt lat="44.98384" lon="4.79929">
        <ele>627.5</ele>
        <time>2026-05-03T09:39:40Z</time>
      </trkpt>
      <trkpt lat="44.98386" lon="4.7993">
        <ele>627.7</ele>
        <time>2026-05-03T09:39:45Z</time>
      </trkpt>
      <trkpt lat="44.98386" lon="4.7993">
        <ele>627.7</ele>
        <time>2026-05-03T09:39:50Z</time>
      </trkpt>
      <trkpt lat="44.98386" lon="4.7993">
        <ele>627.7</ele>
        <time>2026-05-03T09:39:55Z</time>
      </trkpt>
      <trkpt lat="44.98386" lon="4.7993">
        <ele>627.7</ele>
        <time>2026-05-03T09:40:00Z</time>
      </trkpt>
      <trkpt lat="44.98386" lon="4.7992">
        <ele>629</ele>
        <time>2026-05-03T09:40:05Z</time>
      </trkpt>
      <trkpt lat="44.98388" lon="4.79919">
        <ele>629.5</ele>
        <time>2026-05-03T09:40:10Z</time>
      </trkpt>
      <trkpt lat="44.98386" lon="4.79913">
        <ele>629.6</ele>
        <time>2026-05-03T09:40:15Z</time>
      </trkpt>
      <trkpt lat="44.98386" lon="4.7991">
        <ele>629.7</ele>
        <time>2026-05-03T09:40:20Z</time>
      </trkpt>
      <trkpt lat="44.98387" lon="4.79909">
        <ele>629.9</ele>
        <time>2026-05-03T09:40:25Z</time>
      </trkpt>
      <trkpt lat="44.98387" lon="4.79909">
        <ele>629.9</ele>
        <time>2026-05-03T09:40:30Z</time>
      </trkpt>
      <trkpt lat="44.98387" lon="4.79909">
        <ele>629.9</ele>
        <time>2026-05-03T09:40:35Z</time>
      </trkpt>
      <trkpt lat="44.98387" lon="4.79914">
        <ele>629.7</ele>
        <time>2026-05-03T09:40:40Z</time>
      </trkpt>
      <trkpt lat="44.98384" lon="4.79915">
        <ele>629.2</ele>
        <time>2026-05-03T09:40:45Z</time>
      </trkpt>
      <trkpt lat="44.9838" lon="4.79914">
        <ele>628.5</ele>
        <time>2026-05-03T09:40:50Z</time>
      </trkpt>
      <trkpt lat="44.98375" lon="4.79913">
        <ele>627.7</ele>
        <time>2026-05-03T09:40:55Z</time>
      </trkpt>
      <trkpt lat="44.98374" lon="4.79909">
        <ele>627.7</ele>
        <time>2026-05-03T09:41:00Z</time>
      </trkpt>
      <trkpt lat="44.9837" lon="4.7991">
        <ele>627</ele>
        <time>2026-05-03T09:41:05Z</time>
      </trkpt>
      <trkpt lat="44.98366" lon="4.7991">
        <ele>626.3</ele>
        <time>2026-05-03T09:41:10Z</time>
      </trkpt>
      <trkpt lat="44.98362" lon="4.79909">
        <ele>625.7</ele>
        <time>2026-05-03T09:41:15Z</time>
      </trkpt>
      <trkpt lat="44.98358" lon="4.7991">
        <ele>625</ele>
        <time>2026-05-03T09:41:20Z</time>
      </trkpt>
      <trkpt lat="44.98352" lon="4.79911">
        <ele>623.9</ele>
        <time>2026-05-03T09:41:25Z</time>
      </trkpt>
      <trkpt lat="44.98348" lon="4.79911">
        <ele>623.2</ele>
        <time>2026-05-03T09:41:30Z</time>
      </trkpt>
      <trkpt lat="44.98348" lon="4.79909">
        <ele>623.4</ele>
        <time>2026-05-03T09:41:35Z</time>
      </trkpt>
      <trkpt lat="44.98348" lon="4.79909">
        <ele>623.4</ele>
        <time>2026-05-03T09:41:40Z</time>
      </trkpt>
      <trkpt lat="44.98348" lon="4.79909">
        <ele>623.4</ele>
        <time>2026-05-03T09:41:45Z</time>
      </trkpt>
      <trkpt lat="44.98348" lon="4.79909">
        <ele>623.4</ele>
        <time>2026-05-03T09:41:50Z</time>
      </trkpt>
      <trkpt lat="44.98348" lon="4.79909">
        <ele>623.4</ele>
        <time>2026-05-03T09:41:55Z</time>
      </trkpt>
      <trkpt lat="44.98348" lon="4.79909">
        <ele>623.4</ele>
        <time>2026-05-03T09:42:00Z</time>
      </trkpt>
      <trkpt lat="44.98348" lon="4.79909">
        <ele>623.4</ele>
        <time>2026-05-03T09:42:05Z</time>
      </trkpt>
      <trkpt lat="44.98348" lon="4.79909">
        <ele>623.4</ele>
        <time>2026-05-03T09:42:10Z</time>
      </trkpt>
      <trkpt lat="44.98348" lon="4.79909">
        <ele>623.4</ele>
        <time>2026-05-03T09:42:15Z</time>
      </trkpt>
      <trkpt lat="44.98348" lon="4.79918">
        <ele>622.5</ele>
        <time>2026-05-03T09:42:20Z</time>
      </trkpt>
      <trkpt lat="44.98352" lon="4.7992">
        <ele>623</ele>
        <time>2026-05-03T09:42:25Z</time>
      </trkpt>
      <trkpt lat="44.98356" lon="4.79923">
        <ele>623.4</ele>
        <time>2026-05-03T09:42:30Z</time>
      </trkpt>
      <trkpt lat="44.98356" lon="4.79926">
        <ele>623</ele>
        <time>2026-05-03T09:42:35Z</time>
      </trkpt>
      <trkpt lat="44.98357" lon="4.79927">
        <ele>623.1</ele>
        <time>2026-05-03T09:42:40Z</time>
      </trkpt>
      <trkpt lat="44.98357" lon="4.79927">
        <ele>623.1</ele>
        <time>2026-05-03T09:42:45Z</time>
      </trkpt>
      <trkpt lat="44.98357" lon="4.79927">
        <ele>623.1</ele>
        <time>2026-05-03T09:42:50Z</time>
      </trkpt>
      <trkpt lat="44.98356" lon="4.79943">
        <ele>621.1</ele>
        <time>2026-05-03T09:42:55Z</time>
      </trkpt>
      <trkpt lat="44.98357" lon="4.79947">
        <ele>620.8</ele>
        <time>2026-05-03T09:43:00Z</time>
      </trkpt>
      <trkpt lat="44.98356" lon="4.79933">
        <ele>622.2</ele>
        <time>2026-05-03T09:43:05Z</time>
      </trkpt>
      <trkpt lat="44.98355" lon="4.79925">
        <ele>623</ele>
        <time>2026-05-03T09:43:10Z</time>
      </trkpt>
      <trkpt lat="44.98355" lon="4.79925">
        <ele>623</ele>
        <time>2026-05-03T09:43:15Z</time>
      </trkpt>
      <trkpt lat="44.98355" lon="4.79925">
        <ele>623</ele>
        <time>2026-05-03T09:43:20Z</time>
      </trkpt>
      <trkpt lat="44.98355" lon="4.79925">
        <ele>623</ele>
        <time>2026-05-03T09:43:25Z</time>
      </trkpt>
      <trkpt lat="44.98355" lon="4.79925">
        <ele>623</ele>
        <time>2026-05-03T09:43:30Z</time>
      </trkpt>
      <trkpt lat="44.98355" lon="4.79925">
        <ele>623</ele>
        <time>2026-05-03T09:43:35Z</time>
      </trkpt>
      <trkpt lat="44.98355" lon="4.79925">
        <ele>623</ele>
        <time>2026-05-03T09:43:40Z</time>
      </trkpt>
      <trkpt lat="44.98355" lon="4.79925">
        <ele>623</ele>
        <time>2026-05-03T09:43:45Z</time>
      </trkpt>
      <trkpt lat="44.98355" lon="4.79925">
        <ele>623</ele>
        <time>2026-05-03T09:43:50Z</time>
      </trkpt>
      <trkpt lat="44.98355" lon="4.79925">
        <ele>623</ele>
        <time>2026-05-03T09:43:55Z</time>
      </trkpt>
      <trkpt lat="44.98355" lon="4.79925">
        <ele>623</ele>
        <time>2026-05-03T09:44:00Z</time>
      </trkpt>
      <trkpt lat="44.98355" lon="4.79925">
        <ele>623</ele>
        <time>2026-05-03T09:44:05Z</time>
      </trkpt>
      <trkpt lat="44.98355" lon="4.79925">
        <ele>623</ele>
        <time>2026-05-03T09:44:10Z</time>
      </trkpt>
      <trkpt lat="44.98355" lon="4.79925">
        <ele>623</ele>
        <time>2026-05-03T09:44:15Z</time>
      </trkpt>
      <trkpt lat="44.98355" lon="4.79925">
        <ele>623</ele>
        <time>2026-05-03T09:44:20Z</time>
      </trkpt>
      <trkpt lat="44.98355" lon="4.79925">
        <ele>623</ele>
        <time>2026-05-03T09:44:25Z</time>
      </trkpt>
      <trkpt lat="44.98355" lon="4.79925">
        <ele>623</ele>
        <time>2026-05-03T09:44:30Z</time>
      </trkpt>
      <trkpt lat="44.98355" lon="4.79925">
        <ele>623</ele>
        <time>2026-05-03T09:44:35Z</time>
      </trkpt>
      <trkpt lat="44.98355" lon="4.79925">
        <ele>623</ele>
        <time>2026-05-03T09:44:40Z</time>
      </trkpt>
      <trkpt lat="44.98355" lon="4.79925">
        <ele>623</ele>
        <time>2026-05-03T09:44:45Z</time>
      </trkpt>
      <trkpt lat="44.98355" lon="4.79925">
        <ele>623</ele>
        <time>2026-05-03T09:44:50Z</time>
      </trkpt>
      <trkpt lat="44.98355" lon="4.79925">
        <ele>623</ele>
        <time>2026-05-03T09:44:55Z</time>
      </trkpt>
      <trkpt lat="44.98355" lon="4.79925">
        <ele>623</ele>
        <time>2026-05-03T09:45:00Z</time>
      </trkpt>
      <trkpt lat="44.98355" lon="4.79925">
        <ele>623</ele>
        <time>2026-05-03T09:45:05Z</time>
      </trkpt>
      <trkpt lat="44.98355" lon="4.79925">
        <ele>623</ele>
        <time>2026-05-03T09:45:10Z</time>
      </trkpt>
      <trkpt lat="44.98355" lon="4.79925">
        <ele>623</ele>
        <time>2026-05-03T09:45:15Z</time>
      </trkpt>
      <trkpt lat="44.98355" lon="4.79925">
        <ele>623</ele>
        <time>2026-05-03T09:45:20Z</time>
      </trkpt>
      <trkpt lat="44.98355" lon="4.79925">
        <ele>623</ele>
        <time>2026-05-03T09:45:25Z</time>
      </trkpt>
      <trkpt lat="44.98355" lon="4.79925">
        <ele>623</ele>
        <time>2026-05-03T09:45:30Z</time>
      </trkpt>
      <trkpt lat="44.98355" lon="4.79925">
        <ele>623</ele>
        <time>2026-05-03T09:45:35Z</time>
      </trkpt>
      <trkpt lat="44.98355" lon="4.79925">
        <ele>623</ele>
        <time>2026-05-03T09:45:40Z</time>
      </trkpt>
      <trkpt lat="44.98355" lon="4.79925">
        <ele>623</ele>
        <time>2026-05-03T09:45:45Z</time>
      </trkpt>
      <trkpt lat="44.98355" lon="4.79925">
        <ele>623</ele>
        <time>2026-05-03T09:45:50Z</time>
      </trkpt>
      <trkpt lat="44.98355" lon="4.79925">
        <ele>623</ele>
        <time>2026-05-03T09:45:55Z</time>
      </trkpt>
      <trkpt lat="44.98355" lon="4.79925">
        <ele>623</ele>
        <time>2026-05-03T09:46:00Z</time>
      </trkpt>
      <trkpt lat="44.98355" lon="4.79925">
        <ele>623</ele>
        <time>2026-05-03T09:46:05Z</time>
      </trkpt>
      <trkpt lat="44.98355" lon="4.79925">
        <ele>623</ele>
        <time>2026-05-03T09:46:10Z</time>
      </trkpt>
      <trkpt lat="44.98355" lon="4.79925">
        <ele>623</ele>
        <time>2026-05-03T09:46:15Z</time>
      </trkpt>
      <trkpt lat="44.98355" lon="4.79925">
        <ele>623</ele>
        <time>2026-05-03T09:46:20Z</time>
      </trkpt>
      <trkpt lat="44.98355" lon="4.79925">
        <ele>623</ele>
        <time>2026-05-03T09:46:25Z</time>
      </trkpt>
      <trkpt lat="44.98355" lon="4.79925">
        <ele>623</ele>
        <time>2026-05-03T09:46:30Z</time>
      </trkpt>
      <trkpt lat="44.98355" lon="4.79925">
        <ele>623</ele>
        <time>2026-05-03T09:46:35Z</time>
      </trkpt>
      <trkpt lat="44.98355" lon="4.79925">
        <ele>623</ele>
        <time>2026-05-03T09:46:40Z</time>
      </trkpt>
      <trkpt lat="44.98355" lon="4.79925">
        <ele>623</ele>
        <time>2026-05-03T09:46:45Z</time>
      </trkpt>
      <trkpt lat="44.98355" lon="4.79925">
        <ele>623</ele>
        <time>2026-05-03T09:46:50Z</time>
      </trkpt>
      <trkpt lat="44.98355" lon="4.79925">
        <ele>623</ele>
        <time>2026-05-03T09:46:55Z</time>
      </trkpt>
      <trkpt lat="44.98355" lon="4.79925">
        <ele>623</ele>
        <time>2026-05-03T09:47:00Z</time>
      </trkpt>
      <trkpt lat="44.98355" lon="4.79925">
        <ele>623</ele>
        <time>2026-05-03T09:47:05Z</time>
      </trkpt>
      <trkpt lat="44.98355" lon="4.79925">
        <ele>623</ele>
        <time>2026-05-03T09:47:10Z</time>
      </trkpt>
      <trkpt lat="44.98355" lon="4.79925">
        <ele>623</ele>
        <time>2026-05-03T09:47:15Z</time>
      </trkpt>
      <trkpt lat="44.98355" lon="4.79925">
        <ele>623</ele>
        <time>2026-05-03T09:47:20Z</time>
      </trkpt>
      <trkpt lat="44.98355" lon="4.79925">
        <ele>623</ele>
        <time>2026-05-03T09:47:25Z</time>
      </trkpt>
      <trkpt lat="44.98355" lon="4.79925">
        <ele>623</ele>
        <time>2026-05-03T09:47:30Z</time>
      </trkpt>
      <trkpt lat="44.98355" lon="4.79925">
        <ele>623</ele>
        <time>2026-05-03T09:47:35Z</time>
      </trkpt>
      <trkpt lat="44.98355" lon="4.79925">
        <ele>623</ele>
        <time>2026-05-03T09:47:40Z</time>
      </trkpt>
      <trkpt lat="44.98355" lon="4.79925">
        <ele>623</ele>
        <time>2026-05-03T09:47:45Z</time>
      </trkpt>
      <trkpt lat="44.98355" lon="4.79925">
        <ele>623</ele>
        <time>2026-05-03T09:47:50Z</time>
      </trkpt>
      <trkpt lat="44.98355" lon="4.79912">
        <ele>624.3</ele>
        <time>2026-05-03T09:47:55Z</time>
      </trkpt>
      <trkpt lat="44.98358" lon="4.79906">
        <ele>625.3</ele>
        <time>2026-05-03T09:48:00Z</time>
      </trkpt>
      <trkpt lat="44.98362" lon="4.79906">
        <ele>625.9</ele>
        <time>2026-05-03T09:48:05Z</time>
      </trkpt>
      <trkpt lat="44.9836" lon="4.79902">
        <ele>625.9</ele>
        <time>2026-05-03T09:48:10Z</time>
      </trkpt>
      <trkpt lat="44.98355" lon="4.79896">
        <ele>625.6</ele>
        <time>2026-05-03T09:48:15Z</time>
      </trkpt>
      <trkpt lat="44.98349" lon="4.79891">
        <ele>625.2</ele>
        <time>2026-05-03T09:48:20Z</time>
      </trkpt>
      <trkpt lat="44.98343" lon="4.79887">
        <ele>624.8</ele>
        <time>2026-05-03T09:48:25Z</time>
      </trkpt>
      <trkpt lat="44.98337" lon="4.79881">
        <ele>624.7</ele>
        <time>2026-05-03T09:48:30Z</time>
      </trkpt>
      <trkpt lat="44.98331" lon="4.79878">
        <ele>624.4</ele>
        <time>2026-05-03T09:48:35Z</time>
      </trkpt>
      <trkpt lat="44.98326" lon="4.79875">
        <ele>624.1</ele>
        <time>2026-05-03T09:48:40Z</time>
      </trkpt>
      <trkpt lat="44.9832" lon="4.79869">
        <ele>624.2</ele>
        <time>2026-05-03T09:48:45Z</time>
      </trkpt>
      <trkpt lat="44.98315" lon="4.79866">
        <ele>624.1</ele>
        <time>2026-05-03T09:48:50Z</time>
      </trkpt>
      <trkpt lat="44.98311" lon="4.79857">
        <ele>624.9</ele>
        <time>2026-05-03T09:48:55Z</time>
      </trkpt>
      <trkpt lat="44.98309" lon="4.7985">
        <ele>625.8</ele>
        <time>2026-05-03T09:49:00Z</time>
      </trkpt>
      <trkpt lat="44.98308" lon="4.7984">
        <ele>627.2</ele>
        <time>2026-05-03T09:49:05Z</time>
      </trkpt>
      <trkpt lat="44.98305" lon="4.79833">
        <ele>628</ele>
        <time>2026-05-03T09:49:10Z</time>
      </trkpt>
      <trkpt lat="44.98305" lon="4.79823">
        <ele>628.2</ele>
        <time>2026-05-03T09:49:15Z</time>
      </trkpt>
      <trkpt lat="44.98307" lon="4.79811">
        <ele>628.6</ele>
        <time>2026-05-03T09:49:20Z</time>
      </trkpt>
      <trkpt lat="44.98308" lon="4.79799">
        <ele>628.9</ele>
        <time>2026-05-03T09:49:25Z</time>
      </trkpt>
      <trkpt lat="44.98311" lon="4.79786">
        <ele>629.3</ele>
        <time>2026-05-03T09:49:30Z</time>
      </trkpt>
      <trkpt lat="44.9831" lon="4.79775">
        <ele>629.5</ele>
        <time>2026-05-03T09:49:35Z</time>
      </trkpt>
      <trkpt lat="44.98308" lon="4.79767">
        <ele>629.6</ele>
        <time>2026-05-03T09:49:40Z</time>
      </trkpt>
      <trkpt lat="44.98301" lon="4.79763">
        <ele>629.6</ele>
        <time>2026-05-03T09:49:45Z</time>
      </trkpt>
      <trkpt lat="44.98295" lon="4.79762">
        <ele>629.6</ele>
        <time>2026-05-03T09:49:50Z</time>
      </trkpt>
      <trkpt lat="44.98288" lon="4.7976">
        <ele>629.6</ele>
        <time>2026-05-03T09:49:55Z</time>
      </trkpt>
      <trkpt lat="44.98282" lon="4.79759">
        <ele>629.6</ele>
        <time>2026-05-03T09:50:00Z</time>
      </trkpt>
      <trkpt lat="44.98276" lon="4.79757">
        <ele>629.7</ele>
        <time>2026-05-03T09:50:05Z</time>
      </trkpt>
      <trkpt lat="44.98269" lon="4.79756">
        <ele>629.7</ele>
        <time>2026-05-03T09:50:10Z</time>
      </trkpt>
      <trkpt lat="44.98261" lon="4.79755">
        <ele>629.7</ele>
        <time>2026-05-03T09:50:15Z</time>
      </trkpt>
      <trkpt lat="44.98254" lon="4.79753">
        <ele>629.8</ele>
        <time>2026-05-03T09:50:20Z</time>
      </trkpt>
      <trkpt lat="44.98248" lon="4.79753">
        <ele>629.7</ele>
        <time>2026-05-03T09:50:25Z</time>
      </trkpt>
      <trkpt lat="44.98242" lon="4.79752">
        <ele>629.4</ele>
        <time>2026-05-03T09:50:30Z</time>
      </trkpt>
      <trkpt lat="44.98235" lon="4.79753">
        <ele>628.8</ele>
        <time>2026-05-03T09:50:35Z</time>
      </trkpt>
      <trkpt lat="44.98227" lon="4.7975">
        <ele>628.6</ele>
        <time>2026-05-03T09:50:40Z</time>
      </trkpt>
      <trkpt lat="44.9822" lon="4.79749">
        <ele>628.2</ele>
        <time>2026-05-03T09:50:45Z</time>
      </trkpt>
      <trkpt lat="44.98214" lon="4.7975">
        <ele>627.8</ele>
        <time>2026-05-03T09:50:50Z</time>
      </trkpt>
      <trkpt lat="44.98206" lon="4.7975">
        <ele>627.4</ele>
        <time>2026-05-03T09:50:55Z</time>
      </trkpt>
      <trkpt lat="44.98198" lon="4.79749">
        <ele>626.9</ele>
        <time>2026-05-03T09:51:00Z</time>
      </trkpt>
      <trkpt lat="44.98191" lon="4.79748">
        <ele>626.5</ele>
        <time>2026-05-03T09:51:05Z</time>
      </trkpt>
      <trkpt lat="44.98185" lon="4.79749">
        <ele>626.1</ele>
        <time>2026-05-03T09:51:10Z</time>
      </trkpt>
      <trkpt lat="44.98179" lon="4.79749">
        <ele>625.7</ele>
        <time>2026-05-03T09:51:15Z</time>
      </trkpt>
      <trkpt lat="44.98172" lon="4.79747">
        <ele>625.3</ele>
        <time>2026-05-03T09:51:20Z</time>
      </trkpt>
      <trkpt lat="44.98165" lon="4.79745">
        <ele>625</ele>
        <time>2026-05-03T09:51:25Z</time>
      </trkpt>
      <trkpt lat="44.98159" lon="4.79744">
        <ele>624.6</ele>
        <time>2026-05-03T09:51:30Z</time>
      </trkpt>
      <trkpt lat="44.98152" lon="4.79745">
        <ele>624.2</ele>
        <time>2026-05-03T09:51:35Z</time>
      </trkpt>
      <trkpt lat="44.98145" lon="4.79744">
        <ele>623.8</ele>
        <time>2026-05-03T09:51:40Z</time>
      </trkpt>
      <trkpt lat="44.98139" lon="4.79747">
        <ele>623.4</ele>
        <time>2026-05-03T09:51:45Z</time>
      </trkpt>
      <trkpt lat="44.98132" lon="4.79747">
        <ele>623</ele>
        <time>2026-05-03T09:51:50Z</time>
      </trkpt>
      <trkpt lat="44.98127" lon="4.79748">
        <ele>622.7</ele>
        <time>2026-05-03T09:51:55Z</time>
      </trkpt>
      <trkpt lat="44.98125" lon="4.79747">
        <ele>622.6</ele>
        <time>2026-05-03T09:52:00Z</time>
      </trkpt>
      <trkpt lat="44.98124" lon="4.79746">
        <ele>622.5</ele>
        <time>2026-05-03T09:52:05Z</time>
      </trkpt>
      <trkpt lat="44.98124" lon="4.79746">
        <ele>622.5</ele>
        <time>2026-05-03T09:52:10Z</time>
      </trkpt>
      <trkpt lat="44.98124" lon="4.79746">
        <ele>622.5</ele>
        <time>2026-05-03T09:52:15Z</time>
      </trkpt>
      <trkpt lat="44.98124" lon="4.79746">
        <ele>622.5</ele>
        <time>2026-05-03T09:52:20Z</time>
      </trkpt>
      <trkpt lat="44.98124" lon="4.79746">
        <ele>622.5</ele>
        <time>2026-05-03T09:52:25Z</time>
      </trkpt>
      <trkpt lat="44.98124" lon="4.79746">
        <ele>622.5</ele>
        <time>2026-05-03T09:52:30Z</time>
      </trkpt>
      <trkpt lat="44.98124" lon="4.79746">
        <ele>622.5</ele>
        <time>2026-05-03T09:52:35Z</time>
      </trkpt>
      <trkpt lat="44.98124" lon="4.79746">
        <ele>622.5</ele>
        <time>2026-05-03T09:52:40Z</time>
      </trkpt>
      <trkpt lat="44.98124" lon="4.79746">
        <ele>622.5</ele>
        <time>2026-05-03T09:52:45Z</time>
      </trkpt>
      <trkpt lat="44.98124" lon="4.79746">
        <ele>622.5</ele>
        <time>2026-05-03T09:52:50Z</time>
      </trkpt>
      <trkpt lat="44.98124" lon="4.79746">
        <ele>622.5</ele>
        <time>2026-05-03T09:52:55Z</time>
      </trkpt>
      <trkpt lat="44.98124" lon="4.79746">
        <ele>622.5</ele>
        <time>2026-05-03T09:53:00Z</time>
      </trkpt>
      <trkpt lat="44.98124" lon="4.79746">
        <ele>622.5</ele>
        <time>2026-05-03T09:53:05Z</time>
      </trkpt>
      <trkpt lat="44.98124" lon="4.79746">
        <ele>622.5</ele>
        <time>2026-05-03T09:53:10Z</time>
      </trkpt>
      <trkpt lat="44.98124" lon="4.79746">
        <ele>622.5</ele>
        <time>2026-05-03T09:53:15Z</time>
      </trkpt>
      <trkpt lat="44.98123" lon="4.79745">
        <ele>622.5</ele>
        <time>2026-05-03T09:53:20Z</time>
      </trkpt>
      <trkpt lat="44.98122" lon="4.79744">
        <ele>622.4</ele>
        <time>2026-05-03T09:53:25Z</time>
      </trkpt>
      <trkpt lat="44.98117" lon="4.79743">
        <ele>622.2</ele>
        <time>2026-05-03T09:53:30Z</time>
      </trkpt>
      <trkpt lat="44.98113" lon="4.79739">
        <ele>622</ele>
        <time>2026-05-03T09:53:35Z</time>
      </trkpt>
      <trkpt lat="44.98108" lon="4.79735">
        <ele>621.8</ele>
        <time>2026-05-03T09:53:40Z</time>
      </trkpt>
      <trkpt lat="44.98104" lon="4.79731">
        <ele>621.6</ele>
        <time>2026-05-03T09:53:45Z</time>
      </trkpt>
      <trkpt lat="44.98099" lon="4.7973">
        <ele>621.4</ele>
        <time>2026-05-03T09:53:50Z</time>
      </trkpt>
      <trkpt lat="44.98093" lon="4.79729">
        <ele>621.1</ele>
        <time>2026-05-03T09:53:55Z</time>
      </trkpt>
      <trkpt lat="44.98087" lon="4.79727">
        <ele>620.8</ele>
        <time>2026-05-03T09:54:00Z</time>
      </trkpt>
      <trkpt lat="44.98082" lon="4.79725">
        <ele>620.6</ele>
        <time>2026-05-03T09:54:05Z</time>
      </trkpt>
      <trkpt lat="44.98075" lon="4.79723">
        <ele>620.4</ele>
        <time>2026-05-03T09:54:10Z</time>
      </trkpt>
      <trkpt lat="44.98067" lon="4.79719">
        <ele>620.3</ele>
        <time>2026-05-03T09:54:15Z</time>
      </trkpt>
      <trkpt lat="44.98061" lon="4.7972">
        <ele>620.1</ele>
        <time>2026-05-03T09:54:20Z</time>
      </trkpt>
      <trkpt lat="44.98053" lon="4.79718">
        <ele>619.9</ele>
        <time>2026-05-03T09:54:25Z</time>
      </trkpt>
      <trkpt lat="44.9804" lon="4.79711">
        <ele>619.7</ele>
        <time>2026-05-03T09:54:30Z</time>
      </trkpt>
      <trkpt lat="44.98032" lon="4.79708">
        <ele>619.5</ele>
        <time>2026-05-03T09:54:35Z</time>
      </trkpt>
      <trkpt lat="44.98024" lon="4.79707">
        <ele>619.2</ele>
        <time>2026-05-03T09:54:40Z</time>
      </trkpt>
      <trkpt lat="44.98017" lon="4.79706">
        <ele>619</ele>
        <time>2026-05-03T09:54:45Z</time>
      </trkpt>
      <trkpt lat="44.9801" lon="4.79703">
        <ele>618.9</ele>
        <time>2026-05-03T09:54:50Z</time>
      </trkpt>
      <trkpt lat="44.98002" lon="4.79701">
        <ele>618.7</ele>
        <time>2026-05-03T09:54:55Z</time>
      </trkpt>
      <trkpt lat="44.97993" lon="4.79695">
        <ele>618.5</ele>
        <time>2026-05-03T09:55:00Z</time>
      </trkpt>
      <trkpt lat="44.97986" lon="4.79692">
        <ele>618.3</ele>
        <time>2026-05-03T09:55:05Z</time>
      </trkpt>
      <trkpt lat="44.97979" lon="4.79692">
        <ele>618.2</ele>
        <time>2026-05-03T09:55:10Z</time>
      </trkpt>
      <trkpt lat="44.97973" lon="4.7969">
        <ele>618</ele>
        <time>2026-05-03T09:55:15Z</time>
      </trkpt>
      <trkpt lat="44.97965" lon="4.79688">
        <ele>617.8</ele>
        <time>2026-05-03T09:55:20Z</time>
      </trkpt>
      <trkpt lat="44.97957" lon="4.79685">
        <ele>617.6</ele>
        <time>2026-05-03T09:55:25Z</time>
      </trkpt>
      <trkpt lat="44.9795" lon="4.79684">
        <ele>617.4</ele>
        <time>2026-05-03T09:55:30Z</time>
      </trkpt>
      <trkpt lat="44.97944" lon="4.79682">
        <ele>617.2</ele>
        <time>2026-05-03T09:55:35Z</time>
      </trkpt>
      <trkpt lat="44.9794" lon="4.79682">
        <ele>617.1</ele>
        <time>2026-05-03T09:55:40Z</time>
      </trkpt>
      <trkpt lat="44.97933" lon="4.79681">
        <ele>616.8</ele>
        <time>2026-05-03T09:55:45Z</time>
      </trkpt>
      <trkpt lat="44.97925" lon="4.79678">
        <ele>616.5</ele>
        <time>2026-05-03T09:55:50Z</time>
      </trkpt>
      <trkpt lat="44.97916" lon="4.79677">
        <ele>616.2</ele>
        <time>2026-05-03T09:55:55Z</time>
      </trkpt>
      <trkpt lat="44.9791" lon="4.79681">
        <ele>615.8</ele>
        <time>2026-05-03T09:56:00Z</time>
      </trkpt>
      <trkpt lat="44.97905" lon="4.79683">
        <ele>615.5</ele>
        <time>2026-05-03T09:56:05Z</time>
      </trkpt>
      <trkpt lat="44.97901" lon="4.79685">
        <ele>615.2</ele>
        <time>2026-05-03T09:56:10Z</time>
      </trkpt>
      <trkpt lat="44.97893" lon="4.79686">
        <ele>614.7</ele>
        <time>2026-05-03T09:56:15Z</time>
      </trkpt>
      <trkpt lat="44.97886" lon="4.79683">
        <ele>614</ele>
        <time>2026-05-03T09:56:20Z</time>
      </trkpt>
      <trkpt lat="44.9788" lon="4.79678">
        <ele>613.4</ele>
        <time>2026-05-03T09:56:25Z</time>
      </trkpt>
      <trkpt lat="44.97878" lon="4.79672">
        <ele>613</ele>
        <time>2026-05-03T09:56:30Z</time>
      </trkpt>
      <trkpt lat="44.97872" lon="4.7967">
        <ele>612.4</ele>
        <time>2026-05-03T09:56:35Z</time>
      </trkpt>
      <trkpt lat="44.9787" lon="4.79666">
        <ele>612</ele>
        <time>2026-05-03T09:56:40Z</time>
      </trkpt>
      <trkpt lat="44.9787" lon="4.79664">
        <ele>611.8</ele>
        <time>2026-05-03T09:56:45Z</time>
      </trkpt>
      <trkpt lat="44.97873" lon="4.79668">
        <ele>612.4</ele>
        <time>2026-05-03T09:56:50Z</time>
      </trkpt>
      <trkpt lat="44.97879" lon="4.79673">
        <ele>613.1</ele>
        <time>2026-05-03T09:56:55Z</time>
      </trkpt>
      <trkpt lat="44.97882" lon="4.79683">
        <ele>613.7</ele>
        <time>2026-05-03T09:57:00Z</time>
      </trkpt>
      <trkpt lat="44.97881" lon="4.7969">
        <ele>613.9</ele>
        <time>2026-05-03T09:57:05Z</time>
      </trkpt>
      <trkpt lat="44.97882" lon="4.79699">
        <ele>614.3</ele>
        <time>2026-05-03T09:57:10Z</time>
      </trkpt>
      <trkpt lat="44.97877" lon="4.79706">
        <ele>614.3</ele>
        <time>2026-05-03T09:57:15Z</time>
      </trkpt>
      <trkpt lat="44.97877" lon="4.79706">
        <ele>614.3</ele>
        <time>2026-05-03T09:57:20Z</time>
      </trkpt>
      <trkpt lat="44.97882" lon="4.79702">
        <ele>614.5</ele>
        <time>2026-05-03T09:57:25Z</time>
      </trkpt>
      <trkpt lat="44.97888" lon="4.79699">
        <ele>614.8</ele>
        <time>2026-05-03T09:57:30Z</time>
      </trkpt>
      <trkpt lat="44.97893" lon="4.79694">
        <ele>614.9</ele>
        <time>2026-05-03T09:57:35Z</time>
      </trkpt>
      <trkpt lat="44.97899" lon="4.79691">
        <ele>615.3</ele>
        <time>2026-05-03T09:57:40Z</time>
      </trkpt>
      <trkpt lat="44.97905" lon="4.79685">
        <ele>615.6</ele>
        <time>2026-05-03T09:57:45Z</time>
      </trkpt>
      <trkpt lat="44.97912" lon="4.79684">
        <ele>616.1</ele>
        <time>2026-05-03T09:57:50Z</time>
      </trkpt>
      <trkpt lat="44.97919" lon="4.79684">
        <ele>616.5</ele>
        <time>2026-05-03T09:57:55Z</time>
      </trkpt>
      <trkpt lat="44.97924" lon="4.79691">
        <ele>616.8</ele>
        <time>2026-05-03T09:58:00Z</time>
      </trkpt>
      <trkpt lat="44.97926" lon="4.79694">
        <ele>616.9</ele>
        <time>2026-05-03T09:58:05Z</time>
      </trkpt>
      <trkpt lat="44.97926" lon="4.79686">
        <ele>616.7</ele>
        <time>2026-05-03T09:58:10Z</time>
      </trkpt>
      <trkpt lat="44.97928" lon="4.79681">
        <ele>616.7</ele>
        <time>2026-05-03T09:58:15Z</time>
      </trkpt>
      <trkpt lat="44.97931" lon="4.79675">
        <ele>616.7</ele>
        <time>2026-05-03T09:58:20Z</time>
      </trkpt>
      <trkpt lat="44.97932" lon="4.79666">
        <ele>616.5</ele>
        <time>2026-05-03T09:58:25Z</time>
      </trkpt>
      <trkpt lat="44.97933" lon="4.79656">
        <ele>615.5</ele>
        <time>2026-05-03T09:58:30Z</time>
      </trkpt>
      <trkpt lat="44.97936" lon="4.79645">
        <ele>614.6</ele>
        <time>2026-05-03T09:58:35Z</time>
      </trkpt>
      <trkpt lat="44.97939" lon="4.79637">
        <ele>613.9</ele>
        <time>2026-05-03T09:58:40Z</time>
      </trkpt>
      <trkpt lat="44.97943" lon="4.79631">
        <ele>613.4</ele>
        <time>2026-05-03T09:58:45Z</time>
      </trkpt>
      <trkpt lat="44.97948" lon="4.79626">
        <ele>613</ele>
        <time>2026-05-03T09:58:50Z</time>
      </trkpt>
      <trkpt lat="44.97955" lon="4.79622">
        <ele>612.8</ele>
        <time>2026-05-03T09:58:55Z</time>
      </trkpt>
      <trkpt lat="44.97963" lon="4.79617">
        <ele>612.6</ele>
        <time>2026-05-03T09:59:00Z</time>
      </trkpt>
      <trkpt lat="44.9797" lon="4.79616">
        <ele>612.7</ele>
        <time>2026-05-03T09:59:05Z</time>
      </trkpt>
      <trkpt lat="44.9798" lon="4.79615">
        <ele>612.8</ele>
        <time>2026-05-03T09:59:10Z</time>
      </trkpt>
      <trkpt lat="44.97988" lon="4.79613">
        <ele>612.9</ele>
        <time>2026-05-03T09:59:15Z</time>
      </trkpt>
      <trkpt lat="44.97995" lon="4.79609">
        <ele>612.6</ele>
        <time>2026-05-03T09:59:20Z</time>
      </trkpt>
      <trkpt lat="44.98003" lon="4.79604">
        <ele>612.3</ele>
        <time>2026-05-03T09:59:25Z</time>
      </trkpt>
      <trkpt lat="44.98007" lon="4.79598">
        <ele>611.8</ele>
        <time>2026-05-03T09:59:30Z</time>
      </trkpt>
      <trkpt lat="44.9801" lon="4.79591">
        <ele>611.2</ele>
        <time>2026-05-03T09:59:35Z</time>
      </trkpt>
      <trkpt lat="44.98011" lon="4.7959">
        <ele>611.1</ele>
        <time>2026-05-03T09:59:40Z</time>
      </trkpt>
      <trkpt lat="44.98011" lon="4.7959">
        <ele>611.1</ele>
        <time>2026-05-03T09:59:45Z</time>
      </trkpt>
      <trkpt lat="44.98011" lon="4.7959">
        <ele>611.1</ele>
        <time>2026-05-03T09:59:50Z</time>
      </trkpt>
      <trkpt lat="44.98011" lon="4.7959">
        <ele>611.1</ele>
        <time>2026-05-03T09:59:55Z</time>
      </trkpt>
      <trkpt lat="44.98011" lon="4.79581">
        <ele>610.2</ele>
        <time>2026-05-03T10:00:00Z</time>
      </trkpt>
      <trkpt lat="44.9801" lon="4.79572">
        <ele>609.6</ele>
        <time>2026-05-03T10:00:05Z</time>
      </trkpt>
      <trkpt lat="44.98008" lon="4.79562">
        <ele>608.8</ele>
        <time>2026-05-03T10:00:10Z</time>
      </trkpt>
      <trkpt lat="44.98005" lon="4.79553">
        <ele>608</ele>
        <time>2026-05-03T10:00:15Z</time>
      </trkpt>
      <trkpt lat="44.98003" lon="4.79544">
        <ele>607.3</ele>
        <time>2026-05-03T10:00:20Z</time>
      </trkpt>
      <trkpt lat="44.98" lon="4.79536">
        <ele>606.6</ele>
        <time>2026-05-03T10:00:25Z</time>
      </trkpt>
      <trkpt lat="44.97997" lon="4.79529">
        <ele>606</ele>
        <time>2026-05-03T10:00:30Z</time>
      </trkpt>
      <trkpt lat="44.97995" lon="4.79521">
        <ele>605.3</ele>
        <time>2026-05-03T10:00:35Z</time>
      </trkpt>
      <trkpt lat="44.97992" lon="4.79509">
        <ele>604.3</ele>
        <time>2026-05-03T10:00:40Z</time>
      </trkpt>
      <trkpt lat="44.97989" lon="4.79501">
        <ele>603.5</ele>
        <time>2026-05-03T10:00:45Z</time>
      </trkpt>
      <trkpt lat="44.97985" lon="4.79491">
        <ele>603.2</ele>
        <time>2026-05-03T10:00:50Z</time>
      </trkpt>
      <trkpt lat="44.97985" lon="4.7948">
        <ele>603.2</ele>
        <time>2026-05-03T10:00:55Z</time>
      </trkpt>
      <trkpt lat="44.97984" lon="4.79469">
        <ele>603</ele>
        <time>2026-05-03T10:01:00Z</time>
      </trkpt>
      <trkpt lat="44.97983" lon="4.79459">
        <ele>602.9</ele>
        <time>2026-05-03T10:01:05Z</time>
      </trkpt>
      <trkpt lat="44.97982" lon="4.7945">
        <ele>602.7</ele>
        <time>2026-05-03T10:01:10Z</time>
      </trkpt>
      <trkpt lat="44.97983" lon="4.79443">
        <ele>602.8</ele>
        <time>2026-05-03T10:01:15Z</time>
      </trkpt>
      <trkpt lat="44.97982" lon="4.79434">
        <ele>602.6</ele>
        <time>2026-05-03T10:01:20Z</time>
      </trkpt>
      <trkpt lat="44.9798" lon="4.79424">
        <ele>602.4</ele>
        <time>2026-05-03T10:01:25Z</time>
      </trkpt>
      <trkpt lat="44.97978" lon="4.79415">
        <ele>602.2</ele>
        <time>2026-05-03T10:01:30Z</time>
      </trkpt>
      <trkpt lat="44.97977" lon="4.79404">
        <ele>602.6</ele>
        <time>2026-05-03T10:01:35Z</time>
      </trkpt>
      <trkpt lat="44.97976" lon="4.79397">
        <ele>602.8</ele>
        <time>2026-05-03T10:01:40Z</time>
      </trkpt>
      <trkpt lat="44.97976" lon="4.79389">
        <ele>603.1</ele>
        <time>2026-05-03T10:01:45Z</time>
      </trkpt>
      <trkpt lat="44.97974" lon="4.7938">
        <ele>603.2</ele>
        <time>2026-05-03T10:01:50Z</time>
      </trkpt>
      <trkpt lat="44.97973" lon="4.79373">
        <ele>603.3</ele>
        <time>2026-05-03T10:01:55Z</time>
      </trkpt>
      <trkpt lat="44.97972" lon="4.79366">
        <ele>603.5</ele>
        <time>2026-05-03T10:02:00Z</time>
      </trkpt>
      <trkpt lat="44.9797" lon="4.79359">
        <ele>603.4</ele>
        <time>2026-05-03T10:02:05Z</time>
      </trkpt>
      <trkpt lat="44.97968" lon="4.79353">
        <ele>603.4</ele>
        <time>2026-05-03T10:02:10Z</time>
      </trkpt>
      <trkpt lat="44.97966" lon="4.79346">
        <ele>603.3</ele>
        <time>2026-05-03T10:02:15Z</time>
      </trkpt>
      <trkpt lat="44.97964" lon="4.79341">
        <ele>603.2</ele>
        <time>2026-05-03T10:02:20Z</time>
      </trkpt>
      <trkpt lat="44.97965" lon="4.79335">
        <ele>603.5</ele>
        <time>2026-05-03T10:02:25Z</time>
      </trkpt>
      <trkpt lat="44.97966" lon="4.79327">
        <ele>604</ele>
        <time>2026-05-03T10:02:30Z</time>
      </trkpt>
      <trkpt lat="44.97967" lon="4.79321">
        <ele>604.4</ele>
        <time>2026-05-03T10:02:35Z</time>
      </trkpt>
      <trkpt lat="44.97966" lon="4.79315">
        <ele>604.5</ele>
        <time>2026-05-03T10:02:40Z</time>
      </trkpt>
      <trkpt lat="44.97967" lon="4.79308">
        <ele>604.9</ele>
        <time>2026-05-03T10:02:45Z</time>
      </trkpt>
      <trkpt lat="44.97968" lon="4.79302">
        <ele>605.4</ele>
        <time>2026-05-03T10:02:50Z</time>
      </trkpt>
      <trkpt lat="44.97968" lon="4.79302">
        <ele>605.4</ele>
        <time>2026-05-03T10:02:55Z</time>
      </trkpt>
      <trkpt lat="44.97968" lon="4.79302">
        <ele>605.4</ele>
        <time>2026-05-03T10:03:00Z</time>
      </trkpt>
      <trkpt lat="44.97968" lon="4.79302">
        <ele>605.4</ele>
        <time>2026-05-03T10:03:05Z</time>
      </trkpt>
      <trkpt lat="44.97969" lon="4.79295">
        <ele>605.8</ele>
        <time>2026-05-03T10:03:10Z</time>
      </trkpt>
      <trkpt lat="44.9797" lon="4.79288">
        <ele>606.3</ele>
        <time>2026-05-03T10:03:15Z</time>
      </trkpt>
      <trkpt lat="44.9797" lon="4.7928">
        <ele>606.6</ele>
        <time>2026-05-03T10:03:20Z</time>
      </trkpt>
      <trkpt lat="44.97971" lon="4.79272">
        <ele>607.2</ele>
        <time>2026-05-03T10:03:25Z</time>
      </trkpt>
      <trkpt lat="44.97971" lon="4.79265">
        <ele>607.5</ele>
        <time>2026-05-03T10:03:30Z</time>
      </trkpt>
      <trkpt lat="44.97971" lon="4.79256">
        <ele>607.9</ele>
        <time>2026-05-03T10:03:35Z</time>
      </trkpt>
      <trkpt lat="44.9797" lon="4.79248">
        <ele>608.1</ele>
        <time>2026-05-03T10:03:40Z</time>
      </trkpt>
      <trkpt lat="44.97972" lon="4.79241">
        <ele>608.9</ele>
        <time>2026-05-03T10:03:45Z</time>
      </trkpt>
      <trkpt lat="44.9797" lon="4.79233">
        <ele>609.1</ele>
        <time>2026-05-03T10:03:50Z</time>
      </trkpt>
      <trkpt lat="44.9797" lon="4.79225">
        <ele>609.6</ele>
        <time>2026-05-03T10:03:55Z</time>
      </trkpt>
      <trkpt lat="44.97968" lon="4.79217">
        <ele>609.9</ele>
        <time>2026-05-03T10:04:00Z</time>
      </trkpt>
      <trkpt lat="44.97966" lon="4.79207">
        <ele>610.4</ele>
        <time>2026-05-03T10:04:05Z</time>
      </trkpt>
      <trkpt lat="44.97966" lon="4.79195">
        <ele>611.3</ele>
        <time>2026-05-03T10:04:10Z</time>
      </trkpt>
      <trkpt lat="44.97968" lon="4.79181">
        <ele>612.5</ele>
        <time>2026-05-03T10:04:15Z</time>
      </trkpt>
      <trkpt lat="44.97966" lon="4.79172">
        <ele>613</ele>
        <time>2026-05-03T10:04:20Z</time>
      </trkpt>
      <trkpt lat="44.97965" lon="4.79162">
        <ele>613.5</ele>
        <time>2026-05-03T10:04:25Z</time>
      </trkpt>
      <trkpt lat="44.97962" lon="4.79152">
        <ele>613.7</ele>
        <time>2026-05-03T10:04:30Z</time>
      </trkpt>
      <trkpt lat="44.97959" lon="4.79143">
        <ele>614</ele>
        <time>2026-05-03T10:04:35Z</time>
      </trkpt>
      <trkpt lat="44.97956" lon="4.79134">
        <ele>614.4</ele>
        <time>2026-05-03T10:04:40Z</time>
      </trkpt>
      <trkpt lat="44.97952" lon="4.79127">
        <ele>614.7</ele>
        <time>2026-05-03T10:04:45Z</time>
      </trkpt>
      <trkpt lat="44.97948" lon="4.7912">
        <ele>615.1</ele>
        <time>2026-05-03T10:04:50Z</time>
      </trkpt>
      <trkpt lat="44.97945" lon="4.79113">
        <ele>615.5</ele>
        <time>2026-05-03T10:04:55Z</time>
      </trkpt>
      <trkpt lat="44.97942" lon="4.79106">
        <ele>616</ele>
        <time>2026-05-03T10:05:00Z</time>
      </trkpt>
      <trkpt lat="44.97941" lon="4.79099">
        <ele>616.5</ele>
        <time>2026-05-03T10:05:05Z</time>
      </trkpt>
      <trkpt lat="44.9794" lon="4.79091">
        <ele>617.1</ele>
        <time>2026-05-03T10:05:10Z</time>
      </trkpt>
      <trkpt lat="44.97939" lon="4.7908">
        <ele>617.5</ele>
        <time>2026-05-03T10:05:15Z</time>
      </trkpt>
      <trkpt lat="44.97938" lon="4.79067">
        <ele>616.9</ele>
        <time>2026-05-03T10:05:20Z</time>
      </trkpt>
      <trkpt lat="44.9794" lon="4.79055">
        <ele>616.2</ele>
        <time>2026-05-03T10:05:25Z</time>
      </trkpt>
      <trkpt lat="44.97941" lon="4.79045">
        <ele>615.6</ele>
        <time>2026-05-03T10:05:30Z</time>
      </trkpt>
      <trkpt lat="44.9794" lon="4.79038">
        <ele>615.4</ele>
        <time>2026-05-03T10:05:35Z</time>
      </trkpt>
      <trkpt lat="44.97939" lon="4.79029">
        <ele>615</ele>
        <time>2026-05-03T10:05:40Z</time>
      </trkpt>
      <trkpt lat="44.97937" lon="4.79019">
        <ele>614.7</ele>
        <time>2026-05-03T10:05:45Z</time>
      </trkpt>
      <trkpt lat="44.97938" lon="4.7901">
        <ele>614.2</ele>
        <time>2026-05-03T10:05:50Z</time>
      </trkpt>
      <trkpt lat="44.97937" lon="4.79001">
        <ele>613.9</ele>
        <time>2026-05-03T10:05:55Z</time>
      </trkpt>
      <trkpt lat="44.97935" lon="4.7899">
        <ele>612.1</ele>
        <time>2026-05-03T10:06:00Z</time>
      </trkpt>
      <trkpt lat="44.97935" lon="4.78978">
        <ele>609.9</ele>
        <time>2026-05-03T10:06:05Z</time>
      </trkpt>
      <trkpt lat="44.97935" lon="4.78968">
        <ele>608</ele>
        <time>2026-05-03T10:06:10Z</time>
      </trkpt>
      <trkpt lat="44.97935" lon="4.78956">
        <ele>605.7</ele>
        <time>2026-05-03T10:06:15Z</time>
      </trkpt>
      <trkpt lat="44.97932" lon="4.78946">
        <ele>604</ele>
        <time>2026-05-03T10:06:20Z</time>
      </trkpt>
      <trkpt lat="44.9793" lon="4.78936">
        <ele>602.2</ele>
        <time>2026-05-03T10:06:25Z</time>
      </trkpt>
      <trkpt lat="44.9793" lon="4.78927">
        <ele>600.5</ele>
        <time>2026-05-03T10:06:30Z</time>
      </trkpt>
      <trkpt lat="44.97929" lon="4.7892">
        <ele>599.2</ele>
        <time>2026-05-03T10:06:35Z</time>
      </trkpt>
      <trkpt lat="44.97929" lon="4.78914">
        <ele>598.1</ele>
        <time>2026-05-03T10:06:40Z</time>
      </trkpt>
      <trkpt lat="44.9793" lon="4.7891">
        <ele>597.3</ele>
        <time>2026-05-03T10:06:45Z</time>
      </trkpt>
      <trkpt lat="44.9793" lon="4.78903">
        <ele>596.1</ele>
        <time>2026-05-03T10:06:50Z</time>
      </trkpt>
      <trkpt lat="44.97929" lon="4.789">
        <ele>595.6</ele>
        <time>2026-05-03T10:06:55Z</time>
      </trkpt>
      <trkpt lat="44.97931" lon="4.7889">
        <ele>593.8</ele>
        <time>2026-05-03T10:07:00Z</time>
      </trkpt>
      <trkpt lat="44.9793" lon="4.78881">
        <ele>592.2</ele>
        <time>2026-05-03T10:07:05Z</time>
      </trkpt>
      <trkpt lat="44.97928" lon="4.78877">
        <ele>591.6</ele>
        <time>2026-05-03T10:07:10Z</time>
      </trkpt>
      <trkpt lat="44.97926" lon="4.78874">
        <ele>591.1</ele>
        <time>2026-05-03T10:07:15Z</time>
      </trkpt>
      <trkpt lat="44.97922" lon="4.78867">
        <ele>589.9</ele>
        <time>2026-05-03T10:07:20Z</time>
      </trkpt>
      <trkpt lat="44.97918" lon="4.78863">
        <ele>589.3</ele>
        <time>2026-05-03T10:07:25Z</time>
      </trkpt>
      <trkpt lat="44.97915" lon="4.78858">
        <ele>588.5</ele>
        <time>2026-05-03T10:07:30Z</time>
      </trkpt>
      <trkpt lat="44.97909" lon="4.78851">
        <ele>587.5</ele>
        <time>2026-05-03T10:07:35Z</time>
      </trkpt>
      <trkpt lat="44.97906" lon="4.7884">
        <ele>585.7</ele>
        <time>2026-05-03T10:07:40Z</time>
      </trkpt>
      <trkpt lat="44.97902" lon="4.78831">
        <ele>584.4</ele>
        <time>2026-05-03T10:07:45Z</time>
      </trkpt>
      <trkpt lat="44.97898" lon="4.78824">
        <ele>583.5</ele>
        <time>2026-05-03T10:07:50Z</time>
      </trkpt>
      <trkpt lat="44.97894" lon="4.78817">
        <ele>582.7</ele>
        <time>2026-05-03T10:07:55Z</time>
      </trkpt>
      <trkpt lat="44.97889" lon="4.78811">
        <ele>582</ele>
        <time>2026-05-03T10:08:00Z</time>
      </trkpt>
      <trkpt lat="44.97885" lon="4.78803">
        <ele>581</ele>
        <time>2026-05-03T10:08:05Z</time>
      </trkpt>
      <trkpt lat="44.97879" lon="4.78796">
        <ele>580.2</ele>
        <time>2026-05-03T10:08:10Z</time>
      </trkpt>
      <trkpt lat="44.97875" lon="4.78788">
        <ele>579.2</ele>
        <time>2026-05-03T10:08:15Z</time>
      </trkpt>
      <trkpt lat="44.97871" lon="4.7878">
        <ele>578.2</ele>
        <time>2026-05-03T10:08:20Z</time>
      </trkpt>
      <trkpt lat="44.97867" lon="4.78772">
        <ele>577.1</ele>
        <time>2026-05-03T10:08:25Z</time>
      </trkpt>
      <trkpt lat="44.97864" lon="4.78764">
        <ele>576</ele>
        <time>2026-05-03T10:08:30Z</time>
      </trkpt>
      <trkpt lat="44.97862" lon="4.78758">
        <ele>575.2</ele>
        <time>2026-05-03T10:08:35Z</time>
      </trkpt>
      <trkpt lat="44.97862" lon="4.78755">
        <ele>574.7</ele>
        <time>2026-05-03T10:08:40Z</time>
      </trkpt>
      <trkpt lat="44.9786" lon="4.78749">
        <ele>574</ele>
        <time>2026-05-03T10:08:45Z</time>
      </trkpt>
      <trkpt lat="44.97859" lon="4.78745">
        <ele>573.7</ele>
        <time>2026-05-03T10:08:50Z</time>
      </trkpt>
      <trkpt lat="44.97859" lon="4.78744">
        <ele>573.6</ele>
        <time>2026-05-03T10:08:55Z</time>
      </trkpt>
      <trkpt lat="44.97859" lon="4.78742">
        <ele>573.5</ele>
        <time>2026-05-03T10:09:00Z</time>
      </trkpt>
      <trkpt lat="44.97859" lon="4.7874">
        <ele>573.3</ele>
        <time>2026-05-03T10:09:05Z</time>
      </trkpt>
      <trkpt lat="44.97859" lon="4.7874">
        <ele>573.3</ele>
        <time>2026-05-03T10:09:10Z</time>
      </trkpt>
      <trkpt lat="44.97859" lon="4.7874">
        <ele>573.3</ele>
        <time>2026-05-03T10:09:15Z</time>
      </trkpt>
      <trkpt lat="44.97859" lon="4.7874">
        <ele>573.3</ele>
        <time>2026-05-03T10:09:20Z</time>
      </trkpt>
      <trkpt lat="44.97859" lon="4.7874">
        <ele>573.3</ele>
        <time>2026-05-03T10:09:25Z</time>
      </trkpt>
      <trkpt lat="44.97858" lon="4.78737">
        <ele>573.2</ele>
        <time>2026-05-03T10:09:30Z</time>
      </trkpt>
      <trkpt lat="44.97858" lon="4.78737">
        <ele>573.2</ele>
        <time>2026-05-03T10:09:35Z</time>
      </trkpt>
      <trkpt lat="44.97858" lon="4.78737">
        <ele>573.2</ele>
        <time>2026-05-03T10:09:40Z</time>
      </trkpt>
      <trkpt lat="44.97858" lon="4.78737">
        <ele>573.2</ele>
        <time>2026-05-03T10:09:45Z</time>
      </trkpt>
      <trkpt lat="44.97858" lon="4.78737">
        <ele>573.2</ele>
        <time>2026-05-03T10:09:50Z</time>
      </trkpt>
      <trkpt lat="44.97858" lon="4.78737">
        <ele>573.2</ele>
        <time>2026-05-03T10:09:55Z</time>
      </trkpt>
      <trkpt lat="44.97858" lon="4.78737">
        <ele>573.2</ele>
        <time>2026-05-03T10:10:00Z</time>
      </trkpt>
      <trkpt lat="44.97858" lon="4.78737">
        <ele>573.2</ele>
        <time>2026-05-03T10:10:05Z</time>
      </trkpt>
      <trkpt lat="44.97858" lon="4.78737">
        <ele>573.2</ele>
        <time>2026-05-03T10:10:10Z</time>
      </trkpt>
      <trkpt lat="44.97858" lon="4.78737">
        <ele>573.2</ele>
        <time>2026-05-03T10:10:15Z</time>
      </trkpt>
      <trkpt lat="44.97858" lon="4.78737">
        <ele>573.2</ele>
        <time>2026-05-03T10:10:20Z</time>
      </trkpt>
      <trkpt lat="44.97858" lon="4.78737">
        <ele>573.2</ele>
        <time>2026-05-03T10:10:25Z</time>
      </trkpt>
      <trkpt lat="44.97858" lon="4.78737">
        <ele>573.2</ele>
        <time>2026-05-03T10:10:30Z</time>
      </trkpt>
      <trkpt lat="44.97858" lon="4.78737">
        <ele>573.2</ele>
        <time>2026-05-03T10:10:35Z</time>
      </trkpt>
      <trkpt lat="44.97858" lon="4.78737">
        <ele>573.2</ele>
        <time>2026-05-03T10:10:40Z</time>
      </trkpt>
      <trkpt lat="44.97858" lon="4.78737">
        <ele>573.2</ele>
        <time>2026-05-03T10:10:45Z</time>
      </trkpt>
      <trkpt lat="44.97858" lon="4.78737">
        <ele>573.2</ele>
        <time>2026-05-03T10:10:50Z</time>
      </trkpt>
      <trkpt lat="44.97858" lon="4.78737">
        <ele>573.2</ele>
        <time>2026-05-03T10:10:55Z</time>
      </trkpt>
      <trkpt lat="44.97858" lon="4.78737">
        <ele>573.2</ele>
        <time>2026-05-03T10:11:00Z</time>
      </trkpt>
      <trkpt lat="44.97858" lon="4.78737">
        <ele>573.2</ele>
        <time>2026-05-03T10:11:05Z</time>
      </trkpt>
      <trkpt lat="44.97858" lon="4.78737">
        <ele>573.2</ele>
        <time>2026-05-03T10:11:10Z</time>
      </trkpt>
      <trkpt lat="44.97858" lon="4.78737">
        <ele>573.2</ele>
        <time>2026-05-03T10:11:15Z</time>
      </trkpt>
      <trkpt lat="44.97858" lon="4.78737">
        <ele>573.2</ele>
        <time>2026-05-03T10:11:20Z</time>
      </trkpt>
      <trkpt lat="44.97858" lon="4.78737">
        <ele>573.2</ele>
        <time>2026-05-03T10:11:25Z</time>
      </trkpt>
      <trkpt lat="44.97858" lon="4.78737">
        <ele>573.2</ele>
        <time>2026-05-03T10:11:30Z</time>
      </trkpt>
      <trkpt lat="44.97858" lon="4.78737">
        <ele>573.2</ele>
        <time>2026-05-03T10:11:35Z</time>
      </trkpt>
      <trkpt lat="44.97856" lon="4.78721">
        <ele>572</ele>
        <time>2026-05-03T10:11:40Z</time>
      </trkpt>
      <trkpt lat="44.97856" lon="4.78712">
        <ele>571.4</ele>
        <time>2026-05-03T10:11:45Z</time>
      </trkpt>
      <trkpt lat="44.97854" lon="4.78703">
        <ele>570.7</ele>
        <time>2026-05-03T10:11:50Z</time>
      </trkpt>
      <trkpt lat="44.97854" lon="4.78703">
        <ele>570.7</ele>
        <time>2026-05-03T10:11:50Z</time>
      </trkpt>
      <trkpt lat="44.97852" lon="4.78694">
        <ele>570.1</ele>
        <time>2026-05-03T10:11:58Z</time>
      </trkpt>
      <trkpt lat="44.97851" lon="4.78689">
        <ele>569.7</ele>
        <time>2026-05-03T10:12:04Z</time>
      </trkpt>
      <trkpt lat="44.97851" lon="4.78689">
        <ele>569.7</ele>
        <time>2026-05-03T10:12:09Z</time>
      </trkpt>
      <trkpt lat="44.9785" lon="4.78685">
        <ele>569.4</ele>
        <time>2026-05-03T10:12:14Z</time>
      </trkpt>
      <trkpt lat="44.97847" lon="4.78676">
        <ele>568.7</ele>
        <time>2026-05-03T10:12:19Z</time>
      </trkpt>
      <trkpt lat="44.97844" lon="4.78669">
        <ele>568.2</ele>
        <time>2026-05-03T10:12:24Z</time>
      </trkpt>
      <trkpt lat="44.97839" lon="4.78661">
        <ele>568.2</ele>
        <time>2026-05-03T10:12:29Z</time>
      </trkpt>
      <trkpt lat="44.97833" lon="4.78658">
        <ele>568.3</ele>
        <time>2026-05-03T10:12:34Z</time>
      </trkpt>
      <trkpt lat="44.97828" lon="4.78655">
        <ele>568.3</ele>
        <time>2026-05-03T10:12:39Z</time>
      </trkpt>
      <trkpt lat="44.97832" lon="4.78652">
        <ele>568.5</ele>
        <time>2026-05-03T10:12:44Z</time>
      </trkpt>
      <trkpt lat="44.97837" lon="4.78647">
        <ele>568.7</ele>
        <time>2026-05-03T10:12:49Z</time>
      </trkpt>
      <trkpt lat="44.97843" lon="4.78643">
        <ele>568.9</ele>
        <time>2026-05-03T10:12:54Z</time>
      </trkpt>
      <trkpt lat="44.97849" lon="4.78638">
        <ele>569</ele>
        <time>2026-05-03T10:12:59Z</time>
      </trkpt>
      <trkpt lat="44.97854" lon="4.78632">
        <ele>569.2</ele>
        <time>2026-05-03T10:13:04Z</time>
      </trkpt>
      <trkpt lat="44.97861" lon="4.78626">
        <ele>569.5</ele>
        <time>2026-05-03T10:13:09Z</time>
      </trkpt>
      <trkpt lat="44.97866" lon="4.78621">
        <ele>569.6</ele>
        <time>2026-05-03T10:13:14Z</time>
      </trkpt>
      <trkpt lat="44.97872" lon="4.78614">
        <ele>569.9</ele>
        <time>2026-05-03T10:13:19Z</time>
      </trkpt>
      <trkpt lat="44.97875" lon="4.78608">
        <ele>570.1</ele>
        <time>2026-05-03T10:13:24Z</time>
      </trkpt>
      <trkpt lat="44.97878" lon="4.786">
        <ele>570.4</ele>
        <time>2026-05-03T10:13:29Z</time>
      </trkpt>
      <trkpt lat="44.97882" lon="4.78592">
        <ele>570.7</ele>
        <time>2026-05-03T10:13:34Z</time>
      </trkpt>
      <trkpt lat="44.97884" lon="4.78585">
        <ele>570.9</ele>
        <time>2026-05-03T10:13:39Z</time>
      </trkpt>
      <trkpt lat="44.97887" lon="4.78578">
        <ele>571.3</ele>
        <time>2026-05-03T10:13:44Z</time>
      </trkpt>
      <trkpt lat="44.9789" lon="4.7857">
        <ele>571.8</ele>
        <time>2026-05-03T10:13:49Z</time>
      </trkpt>
      <trkpt lat="44.97892" lon="4.78563">
        <ele>572.2</ele>
        <time>2026-05-03T10:13:54Z</time>
      </trkpt>
      <trkpt lat="44.97894" lon="4.78555">
        <ele>572.7</ele>
        <time>2026-05-03T10:13:59Z</time>
      </trkpt>
      <trkpt lat="44.97896" lon="4.78549">
        <ele>573.1</ele>
        <time>2026-05-03T10:14:04Z</time>
      </trkpt>
      <trkpt lat="44.97898" lon="4.78541">
        <ele>573.5</ele>
        <time>2026-05-03T10:14:09Z</time>
      </trkpt>
      <trkpt lat="44.97901" lon="4.78534">
        <ele>574</ele>
        <time>2026-05-03T10:14:14Z</time>
      </trkpt>
      <trkpt lat="44.97903" lon="4.78528">
        <ele>574.3</ele>
        <time>2026-05-03T10:14:19Z</time>
      </trkpt>
      <trkpt lat="44.97903" lon="4.78528">
        <ele>574.3</ele>
        <time>2026-05-03T10:14:24Z</time>
      </trkpt>
      <trkpt lat="44.97903" lon="4.78528">
        <ele>574.3</ele>
        <time>2026-05-03T10:14:29Z</time>
      </trkpt>
      <trkpt lat="44.97903" lon="4.78528">
        <ele>574.3</ele>
        <time>2026-05-03T10:14:34Z</time>
      </trkpt>
      <trkpt lat="44.97903" lon="4.78528">
        <ele>574.3</ele>
        <time>2026-05-03T10:14:39Z</time>
      </trkpt>
      <trkpt lat="44.97903" lon="4.78528">
        <ele>574.3</ele>
        <time>2026-05-03T10:14:44Z</time>
      </trkpt>
      <trkpt lat="44.97903" lon="4.78528">
        <ele>574.3</ele>
        <time>2026-05-03T10:14:49Z</time>
      </trkpt>
      <trkpt lat="44.97903" lon="4.78528">
        <ele>574.3</ele>
        <time>2026-05-03T10:14:54Z</time>
      </trkpt>
      <trkpt lat="44.97903" lon="4.78528">
        <ele>574.3</ele>
        <time>2026-05-03T10:14:59Z</time>
      </trkpt>
      <trkpt lat="44.97903" lon="4.78528">
        <ele>574.3</ele>
        <time>2026-05-03T10:15:04Z</time>
      </trkpt>
      <trkpt lat="44.97903" lon="4.78528">
        <ele>574.3</ele>
        <time>2026-05-03T10:15:09Z</time>
      </trkpt>
      <trkpt lat="44.97903" lon="4.78528">
        <ele>574.3</ele>
        <time>2026-05-03T10:15:14Z</time>
      </trkpt>
      <trkpt lat="44.97903" lon="4.78528">
        <ele>574.3</ele>
        <time>2026-05-03T10:15:19Z</time>
      </trkpt>
      <trkpt lat="44.97903" lon="4.78528">
        <ele>574.3</ele>
        <time>2026-05-03T10:15:24Z</time>
      </trkpt>
      <trkpt lat="44.97903" lon="4.78528">
        <ele>574.3</ele>
        <time>2026-05-03T10:15:29Z</time>
      </trkpt>
      <trkpt lat="44.97903" lon="4.78528">
        <ele>574.3</ele>
        <time>2026-05-03T10:15:34Z</time>
      </trkpt>
      <trkpt lat="44.97903" lon="4.78528">
        <ele>574.3</ele>
        <time>2026-05-03T10:15:39Z</time>
      </trkpt>
      <trkpt lat="44.97903" lon="4.78528">
        <ele>574.3</ele>
        <time>2026-05-03T10:15:44Z</time>
      </trkpt>
      <trkpt lat="44.97903" lon="4.78528">
        <ele>574.3</ele>
        <time>2026-05-03T10:15:49Z</time>
      </trkpt>
      <trkpt lat="44.97909" lon="4.78522">
        <ele>574.7</ele>
        <time>2026-05-03T10:15:54Z</time>
      </trkpt>
      <trkpt lat="44.97914" lon="4.78515">
        <ele>575.1</ele>
        <time>2026-05-03T10:15:59Z</time>
      </trkpt>
      <trkpt lat="44.97916" lon="4.78508">
        <ele>575.5</ele>
        <time>2026-05-03T10:16:04Z</time>
      </trkpt>
      <trkpt lat="44.97921" lon="4.78502">
        <ele>576.1</ele>
        <time>2026-05-03T10:16:09Z</time>
      </trkpt>
      <trkpt lat="44.97925" lon="4.78496">
        <ele>576.8</ele>
        <time>2026-05-03T10:16:14Z</time>
      </trkpt>
      <trkpt lat="44.97929" lon="4.78489">
        <ele>577.6</ele>
        <time>2026-05-03T10:16:19Z</time>
      </trkpt>
      <trkpt lat="44.97936" lon="4.78484">
        <ele>578.3</ele>
        <time>2026-05-03T10:16:24Z</time>
      </trkpt>
      <trkpt lat="44.97938" lon="4.7848">
        <ele>578.7</ele>
        <time>2026-05-03T10:16:29Z</time>
      </trkpt>
      <trkpt lat="44.97943" lon="4.78482">
        <ele>578.7</ele>
        <time>2026-05-03T10:16:34Z</time>
      </trkpt>
      <trkpt lat="44.97948" lon="4.78483">
        <ele>578.8</ele>
        <time>2026-05-03T10:16:39Z</time>
      </trkpt>
      <trkpt lat="44.97953" lon="4.78486">
        <ele>578.8</ele>
        <time>2026-05-03T10:16:44Z</time>
      </trkpt>
      <trkpt lat="44.97959" lon="4.7849">
        <ele>578.7</ele>
        <time>2026-05-03T10:16:49Z</time>
      </trkpt>
      <trkpt lat="44.97967" lon="4.78489">
        <ele>579.2</ele>
        <time>2026-05-03T10:16:54Z</time>
      </trkpt>
      <trkpt lat="44.97973" lon="4.78487">
        <ele>579.5</ele>
        <time>2026-05-03T10:16:59Z</time>
      </trkpt>
      <trkpt lat="44.97979" lon="4.78482">
        <ele>580.1</ele>
        <time>2026-05-03T10:17:04Z</time>
      </trkpt>
      <trkpt lat="44.97983" lon="4.78476">
        <ele>580.6</ele>
        <time>2026-05-03T10:17:09Z</time>
      </trkpt>
      <trkpt lat="44.97988" lon="4.78469">
        <ele>581.1</ele>
        <time>2026-05-03T10:17:14Z</time>
      </trkpt>
      <trkpt lat="44.97995" lon="4.78466">
        <ele>581.5</ele>
        <time>2026-05-03T10:17:19Z</time>
      </trkpt>
      <trkpt lat="44.98003" lon="4.78464">
        <ele>581.9</ele>
        <time>2026-05-03T10:17:24Z</time>
      </trkpt>
      <trkpt lat="44.98009" lon="4.78466">
        <ele>582</ele>
        <time>2026-05-03T10:17:29Z</time>
      </trkpt>
      <trkpt lat="44.98017" lon="4.78468">
        <ele>582.3</ele>
        <time>2026-05-03T10:17:34Z</time>
      </trkpt>
      <trkpt lat="44.98023" lon="4.78469">
        <ele>582.6</ele>
        <time>2026-05-03T10:17:39Z</time>
      </trkpt>
      <trkpt lat="44.98029" lon="4.78473">
        <ele>582.7</ele>
        <time>2026-05-03T10:17:44Z</time>
      </trkpt>
      <trkpt lat="44.98036" lon="4.78474">
        <ele>583</ele>
        <time>2026-05-03T10:17:49Z</time>
      </trkpt>
      <trkpt lat="44.98042" lon="4.78477">
        <ele>583.2</ele>
        <time>2026-05-03T10:17:54Z</time>
      </trkpt>
      <trkpt lat="44.98049" lon="4.78479">
        <ele>583.5</ele>
        <time>2026-05-03T10:17:59Z</time>
      </trkpt>
      <trkpt lat="44.98055" lon="4.78481">
        <ele>583.8</ele>
        <time>2026-05-03T10:18:04Z</time>
      </trkpt>
      <trkpt lat="44.98061" lon="4.78485">
        <ele>584</ele>
        <time>2026-05-03T10:18:09Z</time>
      </trkpt>
      <trkpt lat="44.98062" lon="4.78483">
        <ele>584.1</ele>
        <time>2026-05-03T10:18:14Z</time>
      </trkpt>
      <trkpt lat="44.98062" lon="4.78483">
        <ele>584.1</ele>
        <time>2026-05-03T10:18:19Z</time>
      </trkpt>
      <trkpt lat="44.98062" lon="4.78483">
        <ele>584.1</ele>
        <time>2026-05-03T10:18:24Z</time>
      </trkpt>
      <trkpt lat="44.98067" lon="4.78486">
        <ele>584.3</ele>
        <time>2026-05-03T10:18:29Z</time>
      </trkpt>
      <trkpt lat="44.98073" lon="4.7849">
        <ele>584.5</ele>
        <time>2026-05-03T10:18:34Z</time>
      </trkpt>
      <trkpt lat="44.98075" lon="4.78492">
        <ele>584.6</ele>
        <time>2026-05-03T10:18:39Z</time>
      </trkpt>
      <trkpt lat="44.98075" lon="4.78492">
        <ele>584.6</ele>
        <time>2026-05-03T10:18:44Z</time>
      </trkpt>
      <trkpt lat="44.98075" lon="4.78492">
        <ele>584.6</ele>
        <time>2026-05-03T10:18:49Z</time>
      </trkpt>
      <trkpt lat="44.98077" lon="4.78493">
        <ele>584.7</ele>
        <time>2026-05-03T10:18:54Z</time>
      </trkpt>
      <trkpt lat="44.98077" lon="4.78493">
        <ele>584.7</ele>
        <time>2026-05-03T10:18:59Z</time>
      </trkpt>
      <trkpt lat="44.98082" lon="4.78499">
        <ele>584.9</ele>
        <time>2026-05-03T10:19:04Z</time>
      </trkpt>
      <trkpt lat="44.98088" lon="4.78502">
        <ele>585</ele>
        <time>2026-05-03T10:19:09Z</time>
      </trkpt>
      <trkpt lat="44.98095" lon="4.78505">
        <ele>585</ele>
        <time>2026-05-03T10:19:14Z</time>
      </trkpt>
      <trkpt lat="44.98102" lon="4.78508">
        <ele>585.1</ele>
        <time>2026-05-03T10:19:19Z</time>
      </trkpt>
      <trkpt lat="44.98111" lon="4.7851">
        <ele>585.3</ele>
        <time>2026-05-03T10:19:24Z</time>
      </trkpt>
      <trkpt lat="44.98117" lon="4.78512">
        <ele>585.4</ele>
        <time>2026-05-03T10:19:29Z</time>
      </trkpt>
      <trkpt lat="44.98122" lon="4.78513">
        <ele>585.5</ele>
        <time>2026-05-03T10:19:34Z</time>
      </trkpt>
      <trkpt lat="44.98129" lon="4.78515">
        <ele>585.7</ele>
        <time>2026-05-03T10:19:39Z</time>
      </trkpt>
      <trkpt lat="44.98137" lon="4.78516">
        <ele>586</ele>
        <time>2026-05-03T10:19:44Z</time>
      </trkpt>
      <trkpt lat="44.98143" lon="4.78517">
        <ele>586.2</ele>
        <time>2026-05-03T10:19:49Z</time>
      </trkpt>
      <trkpt lat="44.9815" lon="4.78517">
        <ele>586.5</ele>
        <time>2026-05-03T10:19:54Z</time>
      </trkpt>
      <trkpt lat="44.98158" lon="4.78517">
        <ele>586.9</ele>
        <time>2026-05-03T10:19:59Z</time>
      </trkpt>
      <trkpt lat="44.98165" lon="4.78516">
        <ele>587.4</ele>
        <time>2026-05-03T10:20:04Z</time>
      </trkpt>
      <trkpt lat="44.98173" lon="4.78515">
        <ele>587.8</ele>
        <time>2026-05-03T10:20:09Z</time>
      </trkpt>
      <trkpt lat="44.98179" lon="4.78514">
        <ele>588.1</ele>
        <time>2026-05-03T10:20:14Z</time>
      </trkpt>
      <trkpt lat="44.98184" lon="4.78514">
        <ele>588.3</ele>
        <time>2026-05-03T10:20:19Z</time>
      </trkpt>
      <trkpt lat="44.98187" lon="4.78513">
        <ele>588.6</ele>
        <time>2026-05-03T10:20:24Z</time>
      </trkpt>
      <trkpt lat="44.98193" lon="4.78511">
        <ele>589</ele>
        <time>2026-05-03T10:20:29Z</time>
      </trkpt>
      <trkpt lat="44.98197" lon="4.78506">
        <ele>589.8</ele>
        <time>2026-05-03T10:20:34Z</time>
      </trkpt>
      <trkpt lat="44.98201" lon="4.78501">
        <ele>590.5</ele>
        <time>2026-05-03T10:20:39Z</time>
      </trkpt>
      <trkpt lat="44.98203" lon="4.78494">
        <ele>590.9</ele>
        <time>2026-05-03T10:20:44Z</time>
      </trkpt>
      <trkpt lat="44.98204" lon="4.78485">
        <ele>591.2</ele>
        <time>2026-05-03T10:20:49Z</time>
      </trkpt>
      <trkpt lat="44.98205" lon="4.78476">
        <ele>591.5</ele>
        <time>2026-05-03T10:20:54Z</time>
      </trkpt>
      <trkpt lat="44.98206" lon="4.78468">
        <ele>591.8</ele>
        <time>2026-05-03T10:20:59Z</time>
      </trkpt>
      <trkpt lat="44.98207" lon="4.78459">
        <ele>592.1</ele>
        <time>2026-05-03T10:21:04Z</time>
      </trkpt>
      <trkpt lat="44.98208" lon="4.78449">
        <ele>592.5</ele>
        <time>2026-05-03T10:21:09Z</time>
      </trkpt>
      <trkpt lat="44.98209" lon="4.78441">
        <ele>592.8</ele>
        <time>2026-05-03T10:21:14Z</time>
      </trkpt>
      <trkpt lat="44.98209" lon="4.78432">
        <ele>593.1</ele>
        <time>2026-05-03T10:21:19Z</time>
      </trkpt>
      <trkpt lat="44.9821" lon="4.78423">
        <ele>593.4</ele>
        <time>2026-05-03T10:21:24Z</time>
      </trkpt>
      <trkpt lat="44.98211" lon="4.78414">
        <ele>593.8</ele>
        <time>2026-05-03T10:21:29Z</time>
      </trkpt>
      <trkpt lat="44.98212" lon="4.78402">
        <ele>594.4</ele>
        <time>2026-05-03T10:21:34Z</time>
      </trkpt>
      <trkpt lat="44.98212" lon="4.78391">
        <ele>594.9</ele>
        <time>2026-05-03T10:21:39Z</time>
      </trkpt>
      <trkpt lat="44.98213" lon="4.78381">
        <ele>595.4</ele>
        <time>2026-05-03T10:21:44Z</time>
      </trkpt>
      <trkpt lat="44.98213" lon="4.78372">
        <ele>595.8</ele>
        <time>2026-05-03T10:21:49Z</time>
      </trkpt>
      <trkpt lat="44.98215" lon="4.78363">
        <ele>596.4</ele>
        <time>2026-05-03T10:21:54Z</time>
      </trkpt>
      <trkpt lat="44.98216" lon="4.78353">
        <ele>596.9</ele>
        <time>2026-05-03T10:21:59Z</time>
      </trkpt>
      <trkpt lat="44.98216" lon="4.78345">
        <ele>597.2</ele>
        <time>2026-05-03T10:22:04Z</time>
      </trkpt>
      <trkpt lat="44.98217" lon="4.78338">
        <ele>597.6</ele>
        <time>2026-05-03T10:22:09Z</time>
      </trkpt>
      <trkpt lat="44.98218" lon="4.78331">
        <ele>598.2</ele>
        <time>2026-05-03T10:22:14Z</time>
      </trkpt>
      <trkpt lat="44.9822" lon="4.78323">
        <ele>599.2</ele>
        <time>2026-05-03T10:22:19Z</time>
      </trkpt>
      <trkpt lat="44.9822" lon="4.78315">
        <ele>600</ele>
        <time>2026-05-03T10:22:24Z</time>
      </trkpt>
      <trkpt lat="44.9822" lon="4.78308">
        <ele>600.7</ele>
        <time>2026-05-03T10:22:29Z</time>
      </trkpt>
      <trkpt lat="44.98219" lon="4.783">
        <ele>601.4</ele>
        <time>2026-05-03T10:22:34Z</time>
      </trkpt>
      <trkpt lat="44.98219" lon="4.78292">
        <ele>602.2</ele>
        <time>2026-05-03T10:22:39Z</time>
      </trkpt>
      <trkpt lat="44.98219" lon="4.78285">
        <ele>602.9</ele>
        <time>2026-05-03T10:22:44Z</time>
      </trkpt>
      <trkpt lat="44.9822" lon="4.78277">
        <ele>603.8</ele>
        <time>2026-05-03T10:22:49Z</time>
      </trkpt>
      <trkpt lat="44.9822" lon="4.78269">
        <ele>604.6</ele>
        <time>2026-05-03T10:22:54Z</time>
      </trkpt>
      <trkpt lat="44.98221" lon="4.78262">
        <ele>605.4</ele>
        <time>2026-05-03T10:22:59Z</time>
      </trkpt>
      <trkpt lat="44.98223" lon="4.78252">
        <ele>606.5</ele>
        <time>2026-05-03T10:23:04Z</time>
      </trkpt>
      <trkpt lat="44.98224" lon="4.78243">
        <ele>607.3</ele>
        <time>2026-05-03T10:23:09Z</time>
      </trkpt>
      <trkpt lat="44.98226" lon="4.78234">
        <ele>608.1</ele>
        <time>2026-05-03T10:23:14Z</time>
      </trkpt>
      <trkpt lat="44.98227" lon="4.78226">
        <ele>608.7</ele>
        <time>2026-05-03T10:23:19Z</time>
      </trkpt>
      <trkpt lat="44.98227" lon="4.78218">
        <ele>609.2</ele>
        <time>2026-05-03T10:23:24Z</time>
      </trkpt>
      <trkpt lat="44.98224" lon="4.78213">
        <ele>609.4</ele>
        <time>2026-05-03T10:23:29Z</time>
      </trkpt>
      <trkpt lat="44.9822" lon="4.78208">
        <ele>609.6</ele>
        <time>2026-05-03T10:23:34Z</time>
      </trkpt>
      <trkpt lat="44.98218" lon="4.78206">
        <ele>609.6</ele>
        <time>2026-05-03T10:23:39Z</time>
      </trkpt>
      <trkpt lat="44.98214" lon="4.78203">
        <ele>609.7</ele>
        <time>2026-05-03T10:23:44Z</time>
      </trkpt>
      <trkpt lat="44.98208" lon="4.782">
        <ele>609.7</ele>
        <time>2026-05-03T10:23:49Z</time>
      </trkpt>
      <trkpt lat="44.98206" lon="4.78198">
        <ele>609.8</ele>
        <time>2026-05-03T10:23:54Z</time>
      </trkpt>
      <trkpt lat="44.98203" lon="4.78195">
        <ele>609.9</ele>
        <time>2026-05-03T10:23:59Z</time>
      </trkpt>
      <trkpt lat="44.98197" lon="4.78192">
        <ele>610</ele>
        <time>2026-05-03T10:24:04Z</time>
      </trkpt>
      <trkpt lat="44.98192" lon="4.78188">
        <ele>610.2</ele>
        <time>2026-05-03T10:24:09Z</time>
      </trkpt>
      <trkpt lat="44.98186" lon="4.78183">
        <ele>610.5</ele>
        <time>2026-05-03T10:24:14Z</time>
      </trkpt>
      <trkpt lat="44.98181" lon="4.78179">
        <ele>610.8</ele>
        <time>2026-05-03T10:24:19Z</time>
      </trkpt>
      <trkpt lat="44.98174" lon="4.78174">
        <ele>611.3</ele>
        <time>2026-05-03T10:24:24Z</time>
      </trkpt>
      <trkpt lat="44.98167" lon="4.78169">
        <ele>611.7</ele>
        <time>2026-05-03T10:24:29Z</time>
      </trkpt>
      <trkpt lat="44.9816" lon="4.78164">
        <ele>612</ele>
        <time>2026-05-03T10:24:34Z</time>
      </trkpt>
      <trkpt lat="44.98154" lon="4.78161">
        <ele>612</ele>
        <time>2026-05-03T10:24:39Z</time>
      </trkpt>
      <trkpt lat="44.98146" lon="4.78157">
        <ele>612.1</ele>
        <time>2026-05-03T10:24:44Z</time>
      </trkpt>
      <trkpt lat="44.9814" lon="4.78156">
        <ele>612</ele>
        <time>2026-05-03T10:24:49Z</time>
      </trkpt>
      <trkpt lat="44.98135" lon="4.78151">
        <ele>612.2</ele>
        <time>2026-05-03T10:24:54Z</time>
      </trkpt>
      <trkpt lat="44.98127" lon="4.78148">
        <ele>612.3</ele>
        <time>2026-05-03T10:24:59Z</time>
      </trkpt>
      <trkpt lat="44.9812" lon="4.78145">
        <ele>612.4</ele>
        <time>2026-05-03T10:25:04Z</time>
      </trkpt>
      <trkpt lat="44.98115" lon="4.78142">
        <ele>612.5</ele>
        <time>2026-05-03T10:25:09Z</time>
      </trkpt>
      <trkpt lat="44.9811" lon="4.78139">
        <ele>612.6</ele>
        <time>2026-05-03T10:25:14Z</time>
      </trkpt>
      <trkpt lat="44.98104" lon="4.78137">
        <ele>612.7</ele>
        <time>2026-05-03T10:25:19Z</time>
      </trkpt>
      <trkpt lat="44.98099" lon="4.78134">
        <ele>612.9</ele>
        <time>2026-05-03T10:25:24Z</time>
      </trkpt>
      <trkpt lat="44.98093" lon="4.78131">
        <ele>613.1</ele>
        <time>2026-05-03T10:25:29Z</time>
      </trkpt>
      <trkpt lat="44.98087" lon="4.78128">
        <ele>613.3</ele>
        <time>2026-05-03T10:25:34Z</time>
      </trkpt>
      <trkpt lat="44.98083" lon="4.78125">
        <ele>613.5</ele>
        <time>2026-05-03T10:25:39Z</time>
      </trkpt>
      <trkpt lat="44.98078" lon="4.78123">
        <ele>613.4</ele>
        <time>2026-05-03T10:25:44Z</time>
      </trkpt>
      <trkpt lat="44.98073" lon="4.7812">
        <ele>613.4</ele>
        <time>2026-05-03T10:25:49Z</time>
      </trkpt>
      <trkpt lat="44.98071" lon="4.78119">
        <ele>613.4</ele>
        <time>2026-05-03T10:25:54Z</time>
      </trkpt>
      <trkpt lat="44.9807" lon="4.7812">
        <ele>613.3</ele>
        <time>2026-05-03T10:25:59Z</time>
      </trkpt>
      <trkpt lat="44.9807" lon="4.7812">
        <ele>613.3</ele>
        <time>2026-05-03T10:26:04Z</time>
      </trkpt>
      <trkpt lat="44.9807" lon="4.7812">
        <ele>613.3</ele>
        <time>2026-05-03T10:26:09Z</time>
      </trkpt>
      <trkpt lat="44.9807" lon="4.7812">
        <ele>613.3</ele>
        <time>2026-05-03T10:26:14Z</time>
      </trkpt>
      <trkpt lat="44.9807" lon="4.7812">
        <ele>613.3</ele>
        <time>2026-05-03T10:26:19Z</time>
      </trkpt>
      <trkpt lat="44.9807" lon="4.7812">
        <ele>613.3</ele>
        <time>2026-05-03T10:26:24Z</time>
      </trkpt>
      <trkpt lat="44.9807" lon="4.7812">
        <ele>613.3</ele>
        <time>2026-05-03T10:26:29Z</time>
      </trkpt>
      <trkpt lat="44.9807" lon="4.7812">
        <ele>613.3</ele>
        <time>2026-05-03T10:26:34Z</time>
      </trkpt>
      <trkpt lat="44.9807" lon="4.7812">
        <ele>613.3</ele>
        <time>2026-05-03T10:26:39Z</time>
      </trkpt>
      <trkpt lat="44.9807" lon="4.7812">
        <ele>613.3</ele>
        <time>2026-05-03T10:26:44Z</time>
      </trkpt>
      <trkpt lat="44.9807" lon="4.7812">
        <ele>613.3</ele>
        <time>2026-05-03T10:26:49Z</time>
      </trkpt>
      <trkpt lat="44.9807" lon="4.7812">
        <ele>613.3</ele>
        <time>2026-05-03T10:26:54Z</time>
      </trkpt>
      <trkpt lat="44.9807" lon="4.7812">
        <ele>613.3</ele>
        <time>2026-05-03T10:26:59Z</time>
      </trkpt>
      <trkpt lat="44.9807" lon="4.7812">
        <ele>613.3</ele>
        <time>2026-05-03T10:27:04Z</time>
      </trkpt>
      <trkpt lat="44.9807" lon="4.7812">
        <ele>613.3</ele>
        <time>2026-05-03T10:27:09Z</time>
      </trkpt>
      <trkpt lat="44.9807" lon="4.7812">
        <ele>613.3</ele>
        <time>2026-05-03T10:27:14Z</time>
      </trkpt>
      <trkpt lat="44.9807" lon="4.7812">
        <ele>613.3</ele>
        <time>2026-05-03T10:27:19Z</time>
      </trkpt>
      <trkpt lat="44.9807" lon="4.7812">
        <ele>613.3</ele>
        <time>2026-05-03T10:27:24Z</time>
      </trkpt>
      <trkpt lat="44.9807" lon="4.7812">
        <ele>613.3</ele>
        <time>2026-05-03T10:27:29Z</time>
      </trkpt>
      <trkpt lat="44.9807" lon="4.7812">
        <ele>613.3</ele>
        <time>2026-05-03T10:27:34Z</time>
      </trkpt>
      <trkpt lat="44.9807" lon="4.7812">
        <ele>613.3</ele>
        <time>2026-05-03T10:27:39Z</time>
      </trkpt>
      <trkpt lat="44.9807" lon="4.7812">
        <ele>613.3</ele>
        <time>2026-05-03T10:27:44Z</time>
      </trkpt>
      <trkpt lat="44.98068" lon="4.78118">
        <ele>613.4</ele>
        <time>2026-05-03T10:27:49Z</time>
      </trkpt>
      <trkpt lat="44.98063" lon="4.78115">
        <ele>613.4</ele>
        <time>2026-05-03T10:27:54Z</time>
      </trkpt>
      <trkpt lat="44.98057" lon="4.78111">
        <ele>613.4</ele>
        <time>2026-05-03T10:27:59Z</time>
      </trkpt>
      <trkpt lat="44.98052" lon="4.7811">
        <ele>613.3</ele>
        <time>2026-05-03T10:28:04Z</time>
      </trkpt>
      <trkpt lat="44.98045" lon="4.78108">
        <ele>613.1</ele>
        <time>2026-05-03T10:28:09Z</time>
      </trkpt>
      <trkpt lat="44.98038" lon="4.78103">
        <ele>613.2</ele>
        <time>2026-05-03T10:28:14Z</time>
      </trkpt>
      <trkpt lat="44.98033" lon="4.78101">
        <ele>613.1</ele>
        <time>2026-05-03T10:28:19Z</time>
      </trkpt>
      <trkpt lat="44.98026" lon="4.78097">
        <ele>613.1</ele>
        <time>2026-05-03T10:28:24Z</time>
      </trkpt>
      <trkpt lat="44.98019" lon="4.78094">
        <ele>613</ele>
        <time>2026-05-03T10:28:29Z</time>
      </trkpt>
      <trkpt lat="44.98012" lon="4.78092">
        <ele>612.8</ele>
        <time>2026-05-03T10:28:34Z</time>
      </trkpt>
      <trkpt lat="44.98006" lon="4.78089">
        <ele>612.8</ele>
        <time>2026-05-03T10:28:39Z</time>
      </trkpt>
      <trkpt lat="44.97999" lon="4.78084">
        <ele>612.9</ele>
        <time>2026-05-03T10:28:44Z</time>
      </trkpt>
      <trkpt lat="44.97991" lon="4.78081">
        <ele>613</ele>
        <time>2026-05-03T10:28:49Z</time>
      </trkpt>
      <trkpt lat="44.97985" lon="4.78079">
        <ele>613</ele>
        <time>2026-05-03T10:28:54Z</time>
      </trkpt>
      <trkpt lat="44.97978" lon="4.78074">
        <ele>613.1</ele>
        <time>2026-05-03T10:28:59Z</time>
      </trkpt>
      <trkpt lat="44.97971" lon="4.78072">
        <ele>613.1</ele>
        <time>2026-05-03T10:29:04Z</time>
      </trkpt>
      <trkpt lat="44.97964" lon="4.78069">
        <ele>613.1</ele>
        <time>2026-05-03T10:29:09Z</time>
      </trkpt>
      <trkpt lat="44.97958" lon="4.78066">
        <ele>613.1</ele>
        <time>2026-05-03T10:29:14Z</time>
      </trkpt>
      <trkpt lat="44.9795" lon="4.78062">
        <ele>613.2</ele>
        <time>2026-05-03T10:29:19Z</time>
      </trkpt>
      <trkpt lat="44.97944" lon="4.78059">
        <ele>613.2</ele>
        <time>2026-05-03T10:29:24Z</time>
      </trkpt>
      <trkpt lat="44.97936" lon="4.78055">
        <ele>613.3</ele>
        <time>2026-05-03T10:29:29Z</time>
      </trkpt>
      <trkpt lat="44.97929" lon="4.78051">
        <ele>613.3</ele>
        <time>2026-05-03T10:29:34Z</time>
      </trkpt>
      <trkpt lat="44.97923" lon="4.78046">
        <ele>613.4</ele>
        <time>2026-05-03T10:29:39Z</time>
      </trkpt>
      <trkpt lat="44.97916" lon="4.78043">
        <ele>613.4</ele>
        <time>2026-05-03T10:29:44Z</time>
      </trkpt>
      <trkpt lat="44.97908" lon="4.7804">
        <ele>613</ele>
        <time>2026-05-03T10:29:49Z</time>
      </trkpt>
      <trkpt lat="44.97902" lon="4.78036">
        <ele>612.8</ele>
        <time>2026-05-03T10:29:54Z</time>
      </trkpt>
      <trkpt lat="44.97895" lon="4.78033">
        <ele>612.5</ele>
        <time>2026-05-03T10:29:59Z</time>
      </trkpt>
      <trkpt lat="44.97887" lon="4.78027">
        <ele>612.1</ele>
        <time>2026-05-03T10:30:04Z</time>
      </trkpt>
      <trkpt lat="44.97881" lon="4.78022">
        <ele>611.9</ele>
        <time>2026-05-03T10:30:09Z</time>
      </trkpt>
      <trkpt lat="44.97874" lon="4.78019">
        <ele>611.5</ele>
        <time>2026-05-03T10:30:14Z</time>
      </trkpt>
      <trkpt lat="44.97869" lon="4.78016">
        <ele>611.2</ele>
        <time>2026-05-03T10:30:19Z</time>
      </trkpt>
      <trkpt lat="44.97862" lon="4.78013">
        <ele>610.8</ele>
        <time>2026-05-03T10:30:24Z</time>
      </trkpt>
      <trkpt lat="44.97854" lon="4.78009">
        <ele>610.3</ele>
        <time>2026-05-03T10:30:29Z</time>
      </trkpt>
      <trkpt lat="44.97848" lon="4.78005">
        <ele>610</ele>
        <time>2026-05-03T10:30:34Z</time>
      </trkpt>
      <trkpt lat="44.97841" lon="4.77999">
        <ele>609.6</ele>
        <time>2026-05-03T10:30:39Z</time>
      </trkpt>
      <trkpt lat="44.97835" lon="4.77994">
        <ele>609.5</ele>
        <time>2026-05-03T10:30:44Z</time>
      </trkpt>
      <trkpt lat="44.97829" lon="4.77988">
        <ele>609.5</ele>
        <time>2026-05-03T10:30:49Z</time>
      </trkpt>
      <trkpt lat="44.97823" lon="4.77982">
        <ele>609.5</ele>
        <time>2026-05-03T10:30:54Z</time>
      </trkpt>
      <trkpt lat="44.97816" lon="4.77976">
        <ele>609.4</ele>
        <time>2026-05-03T10:30:59Z</time>
      </trkpt>
      <trkpt lat="44.97812" lon="4.7797">
        <ele>609.5</ele>
        <time>2026-05-03T10:31:04Z</time>
      </trkpt>
      <trkpt lat="44.97806" lon="4.77964">
        <ele>609.5</ele>
        <time>2026-05-03T10:31:09Z</time>
      </trkpt>
      <trkpt lat="44.97799" lon="4.77959">
        <ele>609.4</ele>
        <time>2026-05-03T10:31:14Z</time>
      </trkpt>
      <trkpt lat="44.97792" lon="4.77953">
        <ele>609.3</ele>
        <time>2026-05-03T10:31:19Z</time>
      </trkpt>
      <trkpt lat="44.97787" lon="4.77947">
        <ele>609.4</ele>
        <time>2026-05-03T10:31:24Z</time>
      </trkpt>
      <trkpt lat="44.9778" lon="4.77941">
        <ele>609.3</ele>
        <time>2026-05-03T10:31:29Z</time>
      </trkpt>
      <trkpt lat="44.97774" lon="4.77934">
        <ele>609.4</ele>
        <time>2026-05-03T10:31:34Z</time>
      </trkpt>
      <trkpt lat="44.97768" lon="4.77927">
        <ele>609.5</ele>
        <time>2026-05-03T10:31:39Z</time>
      </trkpt>
      <trkpt lat="44.97763" lon="4.77921">
        <ele>609.5</ele>
        <time>2026-05-03T10:31:44Z</time>
      </trkpt>
      <trkpt lat="44.97756" lon="4.77915">
        <ele>609.4</ele>
        <time>2026-05-03T10:31:49Z</time>
      </trkpt>
      <trkpt lat="44.9775" lon="4.7791">
        <ele>609.4</ele>
        <time>2026-05-03T10:31:54Z</time>
      </trkpt>
      <trkpt lat="44.97744" lon="4.77905">
        <ele>609.9</ele>
        <time>2026-05-03T10:31:59Z</time>
      </trkpt>
      <trkpt lat="44.97738" lon="4.779">
        <ele>610.5</ele>
        <time>2026-05-03T10:32:04Z</time>
      </trkpt>
      <trkpt lat="44.9773" lon="4.77896">
        <ele>611.1</ele>
        <time>2026-05-03T10:32:09Z</time>
      </trkpt>
      <trkpt lat="44.97723" lon="4.7789">
        <ele>611.9</ele>
        <time>2026-05-03T10:32:14Z</time>
      </trkpt>
      <trkpt lat="44.97717" lon="4.77886">
        <ele>612.5</ele>
        <time>2026-05-03T10:32:19Z</time>
      </trkpt>
      <trkpt lat="44.9771" lon="4.7788">
        <ele>613.3</ele>
        <time>2026-05-03T10:32:24Z</time>
      </trkpt>
      <trkpt lat="44.97704" lon="4.77874">
        <ele>614.1</ele>
        <time>2026-05-03T10:32:29Z</time>
      </trkpt>
      <trkpt lat="44.97697" lon="4.77868">
        <ele>614.9</ele>
        <time>2026-05-03T10:32:34Z</time>
      </trkpt>
      <trkpt lat="44.97691" lon="4.77864">
        <ele>615.6</ele>
        <time>2026-05-03T10:32:39Z</time>
      </trkpt>
      <trkpt lat="44.97687" lon="4.77862">
        <ele>616</ele>
        <time>2026-05-03T10:32:44Z</time>
      </trkpt>
      <trkpt lat="44.97681" lon="4.7786">
        <ele>616.6</ele>
        <time>2026-05-03T10:32:49Z</time>
      </trkpt>
      <trkpt lat="44.97676" lon="4.7786">
        <ele>616.9</ele>
        <time>2026-05-03T10:32:54Z</time>
      </trkpt>
      <trkpt lat="44.9767" lon="4.77859">
        <ele>617.3</ele>
        <time>2026-05-03T10:32:59Z</time>
      </trkpt>
      <trkpt lat="44.97668" lon="4.77862">
        <ele>617.2</ele>
        <time>2026-05-03T10:33:04Z</time>
      </trkpt>
      <trkpt lat="44.97667" lon="4.77866">
        <ele>616.8</ele>
        <time>2026-05-03T10:33:09Z</time>
      </trkpt>
      <trkpt lat="44.97666" lon="4.77867">
        <ele>616.8</ele>
        <time>2026-05-03T10:33:14Z</time>
      </trkpt>
      <trkpt lat="44.97666" lon="4.77867">
        <ele>616.8</ele>
        <time>2026-05-03T10:33:19Z</time>
      </trkpt>
      <trkpt lat="44.97666" lon="4.77867">
        <ele>616.8</ele>
        <time>2026-05-03T10:33:24Z</time>
      </trkpt>
      <trkpt lat="44.97666" lon="4.77867">
        <ele>616.8</ele>
        <time>2026-05-03T10:33:29Z</time>
      </trkpt>
      <trkpt lat="44.97666" lon="4.77867">
        <ele>616.8</ele>
        <time>2026-05-03T10:33:34Z</time>
      </trkpt>
      <trkpt lat="44.97666" lon="4.77867">
        <ele>616.8</ele>
        <time>2026-05-03T10:33:39Z</time>
      </trkpt>
      <trkpt lat="44.97666" lon="4.77867">
        <ele>616.8</ele>
        <time>2026-05-03T10:33:44Z</time>
      </trkpt>
      <trkpt lat="44.97666" lon="4.77867">
        <ele>616.8</ele>
        <time>2026-05-03T10:33:49Z</time>
      </trkpt>
      <trkpt lat="44.97666" lon="4.77867">
        <ele>616.8</ele>
        <time>2026-05-03T10:33:54Z</time>
      </trkpt>
      <trkpt lat="44.97666" lon="4.77867">
        <ele>616.8</ele>
        <time>2026-05-03T10:33:59Z</time>
      </trkpt>
      <trkpt lat="44.97666" lon="4.77867">
        <ele>616.8</ele>
        <time>2026-05-03T10:34:04Z</time>
      </trkpt>
      <trkpt lat="44.97665" lon="4.77868">
        <ele>616.7</ele>
        <time>2026-05-03T10:34:09Z</time>
      </trkpt>
      <trkpt lat="44.97665" lon="4.77868">
        <ele>616.7</ele>
        <time>2026-05-03T10:34:14Z</time>
      </trkpt>
      <trkpt lat="44.97662" lon="4.77864">
        <ele>617.3</ele>
        <time>2026-05-03T10:34:19Z</time>
      </trkpt>
      <trkpt lat="44.97657" lon="4.77859">
        <ele>618</ele>
        <time>2026-05-03T10:34:24Z</time>
      </trkpt>
      <trkpt lat="44.97652" lon="4.77856">
        <ele>618.4</ele>
        <time>2026-05-03T10:34:29Z</time>
      </trkpt>
      <trkpt lat="44.97647" lon="4.77851">
        <ele>619.1</ele>
        <time>2026-05-03T10:34:34Z</time>
      </trkpt>
      <trkpt lat="44.97641" lon="4.77848">
        <ele>619.6</ele>
        <time>2026-05-03T10:34:39Z</time>
      </trkpt>
      <trkpt lat="44.97637" lon="4.77845">
        <ele>620</ele>
        <time>2026-05-03T10:34:44Z</time>
      </trkpt>
      <trkpt lat="44.97631" lon="4.77843">
        <ele>620.5</ele>
        <time>2026-05-03T10:34:49Z</time>
      </trkpt>
      <trkpt lat="44.97625" lon="4.77842">
        <ele>620.8</ele>
        <time>2026-05-03T10:34:54Z</time>
      </trkpt>
      <trkpt lat="44.97619" lon="4.77841">
        <ele>621.1</ele>
        <time>2026-05-03T10:34:59Z</time>
      </trkpt>
      <trkpt lat="44.97614" lon="4.7784">
        <ele>621.4</ele>
        <time>2026-05-03T10:35:04Z</time>
      </trkpt>
      <trkpt lat="44.97608" lon="4.77839">
        <ele>621.7</ele>
        <time>2026-05-03T10:35:09Z</time>
      </trkpt>
      <trkpt lat="44.97604" lon="4.77837">
        <ele>622</ele>
        <time>2026-05-03T10:35:14Z</time>
      </trkpt>
      <trkpt lat="44.976" lon="4.77834">
        <ele>622.3</ele>
        <time>2026-05-03T10:35:19Z</time>
      </trkpt>
      <trkpt lat="44.97595" lon="4.77831">
        <ele>622.5</ele>
        <time>2026-05-03T10:35:24Z</time>
      </trkpt>
      <trkpt lat="44.97589" lon="4.77827">
        <ele>622.6</ele>
        <time>2026-05-03T10:35:29Z</time>
      </trkpt>
      <trkpt lat="44.97582" lon="4.77821">
        <ele>622.6</ele>
        <time>2026-05-03T10:35:34Z</time>
      </trkpt>
      <trkpt lat="44.97575" lon="4.77816">
        <ele>622.1</ele>
        <time>2026-05-03T10:35:39Z</time>
      </trkpt>
      <trkpt lat="44.97569" lon="4.77811">
        <ele>621.7</ele>
        <time>2026-05-03T10:35:44Z</time>
      </trkpt>
      <trkpt lat="44.97563" lon="4.77807">
        <ele>621.4</ele>
        <time>2026-05-03T10:35:49Z</time>
      </trkpt>
      <trkpt lat="44.97558" lon="4.77804">
        <ele>621.1</ele>
        <time>2026-05-03T10:35:54Z</time>
      </trkpt>
      <trkpt lat="44.97553" lon="4.778">
        <ele>620.9</ele>
        <time>2026-05-03T10:35:59Z</time>
      </trkpt>
      <trkpt lat="44.97547" lon="4.77796">
        <ele>620.7</ele>
        <time>2026-05-03T10:36:04Z</time>
      </trkpt>
      <trkpt lat="44.9754" lon="4.77793">
        <ele>620.4</ele>
        <time>2026-05-03T10:36:09Z</time>
      </trkpt>
      <trkpt lat="44.97533" lon="4.77789">
        <ele>620.2</ele>
        <time>2026-05-03T10:36:14Z</time>
      </trkpt>
      <trkpt lat="44.97528" lon="4.77787">
        <ele>620.1</ele>
        <time>2026-05-03T10:36:19Z</time>
      </trkpt>
      <trkpt lat="44.97525" lon="4.77784">
        <ele>620.1</ele>
        <time>2026-05-03T10:36:24Z</time>
      </trkpt>
      <trkpt lat="44.97525" lon="4.77784">
        <ele>620.1</ele>
        <time>2026-05-03T10:36:29Z</time>
      </trkpt>
      <trkpt lat="44.97518" lon="4.77776">
        <ele>620.2</ele>
        <time>2026-05-03T10:36:34Z</time>
      </trkpt>
      <trkpt lat="44.97512" lon="4.77773">
        <ele>620.1</ele>
        <time>2026-05-03T10:36:39Z</time>
      </trkpt>
      <trkpt lat="44.97507" lon="4.77772">
        <ele>620.1</ele>
        <time>2026-05-03T10:36:44Z</time>
      </trkpt>
      <trkpt lat="44.975" lon="4.7777">
        <ele>620</ele>
        <time>2026-05-03T10:36:49Z</time>
      </trkpt>
      <trkpt lat="44.97492" lon="4.77769">
        <ele>619.2</ele>
        <time>2026-05-03T10:36:54Z</time>
      </trkpt>
      <trkpt lat="44.97487" lon="4.77768">
        <ele>618.7</ele>
        <time>2026-05-03T10:36:59Z</time>
      </trkpt>
      <trkpt lat="44.97481" lon="4.77766">
        <ele>618.1</ele>
        <time>2026-05-03T10:37:04Z</time>
      </trkpt>
      <trkpt lat="44.97475" lon="4.77762">
        <ele>617.7</ele>
        <time>2026-05-03T10:37:09Z</time>
      </trkpt>
      <trkpt lat="44.97468" lon="4.77758">
        <ele>617.1</ele>
        <time>2026-05-03T10:37:14Z</time>
      </trkpt>
      <trkpt lat="44.97461" lon="4.77754">
        <ele>616.6</ele>
        <time>2026-05-03T10:37:19Z</time>
      </trkpt>
      <trkpt lat="44.97454" lon="4.77753">
        <ele>615.9</ele>
        <time>2026-05-03T10:37:24Z</time>
      </trkpt>
      <trkpt lat="44.97447" lon="4.7775">
        <ele>615.3</ele>
        <time>2026-05-03T10:37:29Z</time>
      </trkpt>
      <trkpt lat="44.97438" lon="4.77749">
        <ele>614.4</ele>
        <time>2026-05-03T10:37:34Z</time>
      </trkpt>
      <trkpt lat="44.97433" lon="4.77746">
        <ele>614</ele>
        <time>2026-05-03T10:37:39Z</time>
      </trkpt>
      <trkpt lat="44.97426" lon="4.77741">
        <ele>613.7</ele>
        <time>2026-05-03T10:37:44Z</time>
      </trkpt>
      <trkpt lat="44.97419" lon="4.77736">
        <ele>613.5</ele>
        <time>2026-05-03T10:37:49Z</time>
      </trkpt>
      <trkpt lat="44.97416" lon="4.7773">
        <ele>613.9</ele>
        <time>2026-05-03T10:37:54Z</time>
      </trkpt>
      <trkpt lat="44.97415" lon="4.77726">
        <ele>614.2</ele>
        <time>2026-05-03T10:37:59Z</time>
      </trkpt>
      <trkpt lat="44.97415" lon="4.77726">
        <ele>614.2</ele>
        <time>2026-05-03T10:38:04Z</time>
      </trkpt>
      <trkpt lat="44.97415" lon="4.77726">
        <ele>614.2</ele>
        <time>2026-05-03T10:38:09Z</time>
      </trkpt>
      <trkpt lat="44.97415" lon="4.77726">
        <ele>614.2</ele>
        <time>2026-05-03T10:38:14Z</time>
      </trkpt>
      <trkpt lat="44.97415" lon="4.77726">
        <ele>614.2</ele>
        <time>2026-05-03T10:38:19Z</time>
      </trkpt>
      <trkpt lat="44.97415" lon="4.77726">
        <ele>614.2</ele>
        <time>2026-05-03T10:38:24Z</time>
      </trkpt>
      <trkpt lat="44.97415" lon="4.77726">
        <ele>614.2</ele>
        <time>2026-05-03T10:38:29Z</time>
      </trkpt>
      <trkpt lat="44.97415" lon="4.77726">
        <ele>614.2</ele>
        <time>2026-05-03T10:38:34Z</time>
      </trkpt>
      <trkpt lat="44.97415" lon="4.77726">
        <ele>614.2</ele>
        <time>2026-05-03T10:38:39Z</time>
      </trkpt>
      <trkpt lat="44.97415" lon="4.77726">
        <ele>614.2</ele>
        <time>2026-05-03T10:38:44Z</time>
      </trkpt>
      <trkpt lat="44.97415" lon="4.77726">
        <ele>614.2</ele>
        <time>2026-05-03T10:38:49Z</time>
      </trkpt>
      <trkpt lat="44.97415" lon="4.77726">
        <ele>614.2</ele>
        <time>2026-05-03T10:38:54Z</time>
      </trkpt>
      <trkpt lat="44.97415" lon="4.77726">
        <ele>614.2</ele>
        <time>2026-05-03T10:38:59Z</time>
      </trkpt>
      <trkpt lat="44.97415" lon="4.77726">
        <ele>614.2</ele>
        <time>2026-05-03T10:39:04Z</time>
      </trkpt>
      <trkpt lat="44.97415" lon="4.77726">
        <ele>614.2</ele>
        <time>2026-05-03T10:39:09Z</time>
      </trkpt>
      <trkpt lat="44.97415" lon="4.77726">
        <ele>614.2</ele>
        <time>2026-05-03T10:39:14Z</time>
      </trkpt>
      <trkpt lat="44.97415" lon="4.77726">
        <ele>614.2</ele>
        <time>2026-05-03T10:39:19Z</time>
      </trkpt>
      <trkpt lat="44.97415" lon="4.77726">
        <ele>614.2</ele>
        <time>2026-05-03T10:39:24Z</time>
      </trkpt>
      <trkpt lat="44.97415" lon="4.77726">
        <ele>614.2</ele>
        <time>2026-05-03T10:39:29Z</time>
      </trkpt>
      <trkpt lat="44.97415" lon="4.77726">
        <ele>614.2</ele>
        <time>2026-05-03T10:39:34Z</time>
      </trkpt>
      <trkpt lat="44.97415" lon="4.77726">
        <ele>614.2</ele>
        <time>2026-05-03T10:39:39Z</time>
      </trkpt>
      <trkpt lat="44.97415" lon="4.77726">
        <ele>614.2</ele>
        <time>2026-05-03T10:39:44Z</time>
      </trkpt>
      <trkpt lat="44.97415" lon="4.77726">
        <ele>614.2</ele>
        <time>2026-05-03T10:39:49Z</time>
      </trkpt>
      <trkpt lat="44.97415" lon="4.77726">
        <ele>614.2</ele>
        <time>2026-05-03T10:39:54Z</time>
      </trkpt>
      <trkpt lat="44.97415" lon="4.77726">
        <ele>614.2</ele>
        <time>2026-05-03T10:39:59Z</time>
      </trkpt>
      <trkpt lat="44.97415" lon="4.77726">
        <ele>614.2</ele>
        <time>2026-05-03T10:40:04Z</time>
      </trkpt>
      <trkpt lat="44.97415" lon="4.77726">
        <ele>614.2</ele>
        <time>2026-05-03T10:40:09Z</time>
      </trkpt>
      <trkpt lat="44.97415" lon="4.77726">
        <ele>614.2</ele>
        <time>2026-05-03T10:40:14Z</time>
      </trkpt>
      <trkpt lat="44.97415" lon="4.77726">
        <ele>614.2</ele>
        <time>2026-05-03T10:40:19Z</time>
      </trkpt>
      <trkpt lat="44.97415" lon="4.77726">
        <ele>614.2</ele>
        <time>2026-05-03T10:40:24Z</time>
      </trkpt>
      <trkpt lat="44.97415" lon="4.77726">
        <ele>614.2</ele>
        <time>2026-05-03T10:40:29Z</time>
      </trkpt>
      <trkpt lat="44.97415" lon="4.77726">
        <ele>614.2</ele>
        <time>2026-05-03T10:40:34Z</time>
      </trkpt>
      <trkpt lat="44.97415" lon="4.77726">
        <ele>614.2</ele>
        <time>2026-05-03T10:40:39Z</time>
      </trkpt>
      <trkpt lat="44.97415" lon="4.77726">
        <ele>614.2</ele>
        <time>2026-05-03T10:40:44Z</time>
      </trkpt>
      <trkpt lat="44.97415" lon="4.77726">
        <ele>614.2</ele>
        <time>2026-05-03T10:40:49Z</time>
      </trkpt>
      <trkpt lat="44.97409" lon="4.77722">
        <ele>614.1</ele>
        <time>2026-05-03T10:40:54Z</time>
      </trkpt>
      <trkpt lat="44.97402" lon="4.77719">
        <ele>613.9</ele>
        <time>2026-05-03T10:40:59Z</time>
      </trkpt>
      <trkpt lat="44.97397" lon="4.77713">
        <ele>614.2</ele>
        <time>2026-05-03T10:41:04Z</time>
      </trkpt>
      <trkpt lat="44.97392" lon="4.77705">
        <ele>614.8</ele>
        <time>2026-05-03T10:41:09Z</time>
      </trkpt>
      <trkpt lat="44.97385" lon="4.77699">
        <ele>615.1</ele>
        <time>2026-05-03T10:41:14Z</time>
      </trkpt>
      <trkpt lat="44.9738" lon="4.77691">
        <ele>615.9</ele>
        <time>2026-05-03T10:41:19Z</time>
      </trkpt>
      <trkpt lat="44.97373" lon="4.77685">
        <ele>616.4</ele>
        <time>2026-05-03T10:41:24Z</time>
      </trkpt>
      <trkpt lat="44.97368" lon="4.77677">
        <ele>617.3</ele>
        <time>2026-05-03T10:41:29Z</time>
      </trkpt>
      <trkpt lat="44.97365" lon="4.77667">
        <ele>618.7</ele>
        <time>2026-05-03T10:41:34Z</time>
      </trkpt>
      <trkpt lat="44.97361" lon="4.77659">
        <ele>619.2</ele>
        <time>2026-05-03T10:41:39Z</time>
      </trkpt>
      <trkpt lat="44.9736" lon="4.77651">
        <ele>619.7</ele>
        <time>2026-05-03T10:41:44Z</time>
      </trkpt>
      <trkpt lat="44.97359" lon="4.77642">
        <ele>620.2</ele>
        <time>2026-05-03T10:41:49Z</time>
      </trkpt>
      <trkpt lat="44.97357" lon="4.77633">
        <ele>620.8</ele>
        <time>2026-05-03T10:41:54Z</time>
      </trkpt>
      <trkpt lat="44.97355" lon="4.77623">
        <ele>621.5</ele>
        <time>2026-05-03T10:41:59Z</time>
      </trkpt>
      <trkpt lat="44.97353" lon="4.77612">
        <ele>622.3</ele>
        <time>2026-05-03T10:42:04Z</time>
      </trkpt>
      <trkpt lat="44.97349" lon="4.77602">
        <ele>623.1</ele>
        <time>2026-05-03T10:42:09Z</time>
      </trkpt>
      <trkpt lat="44.97346" lon="4.77595">
        <ele>623.7</ele>
        <time>2026-05-03T10:42:14Z</time>
      </trkpt>
      <trkpt lat="44.97343" lon="4.77587">
        <ele>624.4</ele>
        <time>2026-05-03T10:42:19Z</time>
      </trkpt>
      <trkpt lat="44.9734" lon="4.77577">
        <ele>624.4</ele>
        <time>2026-05-03T10:42:24Z</time>
      </trkpt>
      <trkpt lat="44.97338" lon="4.77568">
        <ele>623.9</ele>
        <time>2026-05-03T10:42:29Z</time>
      </trkpt>
      <trkpt lat="44.97334" lon="4.77561">
        <ele>623.6</ele>
        <time>2026-05-03T10:42:34Z</time>
      </trkpt>
      <trkpt lat="44.97329" lon="4.77554">
        <ele>622.4</ele>
        <time>2026-05-03T10:42:39Z</time>
      </trkpt>
      <trkpt lat="44.97325" lon="4.77545">
        <ele>621.2</ele>
        <time>2026-05-03T10:42:44Z</time>
      </trkpt>
      <trkpt lat="44.97319" lon="4.77533">
        <ele>619.6</ele>
        <time>2026-05-03T10:42:49Z</time>
      </trkpt>
      <trkpt lat="44.97316" lon="4.77524">
        <ele>618.6</ele>
        <time>2026-05-03T10:42:54Z</time>
      </trkpt>
      <trkpt lat="44.97312" lon="4.77516">
        <ele>617.6</ele>
        <time>2026-05-03T10:42:59Z</time>
      </trkpt>
      <trkpt lat="44.97307" lon="4.77508">
        <ele>616.5</ele>
        <time>2026-05-03T10:43:04Z</time>
      </trkpt>
      <trkpt lat="44.973" lon="4.77502">
        <ele>615.3</ele>
        <time>2026-05-03T10:43:09Z</time>
      </trkpt>
      <trkpt lat="44.97295" lon="4.77498">
        <ele>614.2</ele>
        <time>2026-05-03T10:43:14Z</time>
      </trkpt>
      <trkpt lat="44.9729" lon="4.77493">
        <ele>612.9</ele>
        <time>2026-05-03T10:43:19Z</time>
      </trkpt>
      <trkpt lat="44.97286" lon="4.77489">
        <ele>612</ele>
        <time>2026-05-03T10:43:24Z</time>
      </trkpt>
      <trkpt lat="44.97279" lon="4.77484">
        <ele>610.5</ele>
        <time>2026-05-03T10:43:29Z</time>
      </trkpt>
      <trkpt lat="44.97271" lon="4.77476">
        <ele>608.9</ele>
        <time>2026-05-03T10:43:34Z</time>
      </trkpt>
      <trkpt lat="44.97264" lon="4.7747">
        <ele>607.6</ele>
        <time>2026-05-03T10:43:39Z</time>
      </trkpt>
      <trkpt lat="44.97257" lon="4.77465">
        <ele>606.6</ele>
        <time>2026-05-03T10:43:44Z</time>
      </trkpt>
      <trkpt lat="44.97251" lon="4.7746">
        <ele>605.7</ele>
        <time>2026-05-03T10:43:49Z</time>
      </trkpt>
      <trkpt lat="44.97246" lon="4.77455">
        <ele>604.5</ele>
        <time>2026-05-03T10:43:54Z</time>
      </trkpt>
      <trkpt lat="44.97239" lon="4.77449">
        <ele>602.9</ele>
        <time>2026-05-03T10:43:59Z</time>
      </trkpt>
      <trkpt lat="44.97234" lon="4.77443">
        <ele>601.7</ele>
        <time>2026-05-03T10:44:04Z</time>
      </trkpt>
      <trkpt lat="44.97228" lon="4.77436">
        <ele>600.4</ele>
        <time>2026-05-03T10:44:09Z</time>
      </trkpt>
      <trkpt lat="44.97221" lon="4.77427">
        <ele>599.1</ele>
        <time>2026-05-03T10:44:14Z</time>
      </trkpt>
      <trkpt lat="44.97215" lon="4.77421">
        <ele>598</ele>
        <time>2026-05-03T10:44:19Z</time>
      </trkpt>
      <trkpt lat="44.9721" lon="4.77414">
        <ele>597.4</ele>
        <time>2026-05-03T10:44:24Z</time>
      </trkpt>
      <trkpt lat="44.97203" lon="4.77408">
        <ele>596.7</ele>
        <time>2026-05-03T10:44:29Z</time>
      </trkpt>
      <trkpt lat="44.97195" lon="4.77401">
        <ele>596.3</ele>
        <time>2026-05-03T10:44:34Z</time>
      </trkpt>
      <trkpt lat="44.97189" lon="4.77394">
        <ele>596.2</ele>
        <time>2026-05-03T10:44:39Z</time>
      </trkpt>
      <trkpt lat="44.97185" lon="4.77388">
        <ele>596.4</ele>
        <time>2026-05-03T10:44:44Z</time>
      </trkpt>
      <trkpt lat="44.9718" lon="4.7738">
        <ele>596.8</ele>
        <time>2026-05-03T10:44:49Z</time>
      </trkpt>
      <trkpt lat="44.97174" lon="4.77372">
        <ele>597.3</ele>
        <time>2026-05-03T10:44:54Z</time>
      </trkpt>
      <trkpt lat="44.9717" lon="4.77365">
        <ele>598</ele>
        <time>2026-05-03T10:44:59Z</time>
      </trkpt>
      <trkpt lat="44.97167" lon="4.77357">
        <ele>598.9</ele>
        <time>2026-05-03T10:45:04Z</time>
      </trkpt>
      <trkpt lat="44.97162" lon="4.77349">
        <ele>599.3</ele>
        <time>2026-05-03T10:45:09Z</time>
      </trkpt>
      <trkpt lat="44.97159" lon="4.77341">
        <ele>600</ele>
        <time>2026-05-03T10:45:14Z</time>
      </trkpt>
      <trkpt lat="44.97155" lon="4.77335">
        <ele>600.4</ele>
        <time>2026-05-03T10:45:19Z</time>
      </trkpt>
      <trkpt lat="44.97149" lon="4.77324">
        <ele>601.2</ele>
        <time>2026-05-03T10:45:24Z</time>
      </trkpt>
      <trkpt lat="44.97146" lon="4.77315">
        <ele>602.2</ele>
        <time>2026-05-03T10:45:29Z</time>
      </trkpt>
      <trkpt lat="44.97142" lon="4.77308">
        <ele>602.7</ele>
        <time>2026-05-03T10:45:34Z</time>
      </trkpt>
      <trkpt lat="44.97139" lon="4.77302">
        <ele>603.3</ele>
        <time>2026-05-03T10:45:39Z</time>
      </trkpt>
      <trkpt lat="44.97137" lon="4.77297">
        <ele>603.9</ele>
        <time>2026-05-03T10:45:44Z</time>
      </trkpt>
      <trkpt lat="44.97135" lon="4.77293">
        <ele>604.3</ele>
        <time>2026-05-03T10:45:49Z</time>
      </trkpt>
      <trkpt lat="44.97131" lon="4.77288">
        <ele>604.6</ele>
        <time>2026-05-03T10:45:54Z</time>
      </trkpt>
      <trkpt lat="44.97128" lon="4.77285">
        <ele>604.8</ele>
        <time>2026-05-03T10:45:59Z</time>
      </trkpt>
      <trkpt lat="44.97124" lon="4.77279">
        <ele>605.4</ele>
        <time>2026-05-03T10:46:04Z</time>
      </trkpt>
      <trkpt lat="44.9712" lon="4.77272">
        <ele>606.1</ele>
        <time>2026-05-03T10:46:09Z</time>
      </trkpt>
      <trkpt lat="44.97118" lon="4.77265">
        <ele>607.1</ele>
        <time>2026-05-03T10:46:14Z</time>
      </trkpt>
      <trkpt lat="44.97115" lon="4.77258">
        <ele>608</ele>
        <time>2026-05-03T10:46:19Z</time>
      </trkpt>
      <trkpt lat="44.97111" lon="4.77251">
        <ele>608.8</ele>
        <time>2026-05-03T10:46:24Z</time>
      </trkpt>
      <trkpt lat="44.97107" lon="4.77244">
        <ele>609</ele>
        <time>2026-05-03T10:46:29Z</time>
      </trkpt>
      <trkpt lat="44.97103" lon="4.77236">
        <ele>609.1</ele>
        <time>2026-05-03T10:46:34Z</time>
      </trkpt>
      <trkpt lat="44.971" lon="4.77229">
        <ele>609.3</ele>
        <time>2026-05-03T10:46:39Z</time>
      </trkpt>
      <trkpt lat="44.97097" lon="4.77223">
        <ele>609.5</ele>
        <time>2026-05-03T10:46:44Z</time>
      </trkpt>
      <trkpt lat="44.97092" lon="4.77216">
        <ele>609.7</ele>
        <time>2026-05-03T10:46:49Z</time>
      </trkpt>
      <trkpt lat="44.97087" lon="4.77208">
        <ele>610.1</ele>
        <time>2026-05-03T10:46:54Z</time>
      </trkpt>
      <trkpt lat="44.97081" lon="4.77202">
        <ele>610</ele>
        <time>2026-05-03T10:46:59Z</time>
      </trkpt>
      <trkpt lat="44.97077" lon="4.77196">
        <ele>609.6</ele>
        <time>2026-05-03T10:47:04Z</time>
      </trkpt>
      <trkpt lat="44.97071" lon="4.77191">
        <ele>608.8</ele>
        <time>2026-05-03T10:47:09Z</time>
      </trkpt>
      <trkpt lat="44.97066" lon="4.77188">
        <ele>608.1</ele>
        <time>2026-05-03T10:47:14Z</time>
      </trkpt>
      <trkpt lat="44.97061" lon="4.77185">
        <ele>607.4</ele>
        <time>2026-05-03T10:47:19Z</time>
      </trkpt>
      <trkpt lat="44.97054" lon="4.7718">
        <ele>606.6</ele>
        <time>2026-05-03T10:47:24Z</time>
      </trkpt>
      <trkpt lat="44.97048" lon="4.77176">
        <ele>606</ele>
        <time>2026-05-03T10:47:29Z</time>
      </trkpt>
      <trkpt lat="44.97041" lon="4.77171">
        <ele>605.3</ele>
        <time>2026-05-03T10:47:34Z</time>
      </trkpt>
      <trkpt lat="44.97036" lon="4.77165">
        <ele>605</ele>
        <time>2026-05-03T10:47:39Z</time>
      </trkpt>
      <trkpt lat="44.97028" lon="4.7716">
        <ele>603.8</ele>
        <time>2026-05-03T10:47:44Z</time>
      </trkpt>
      <trkpt lat="44.9702" lon="4.77152">
        <ele>602.6</ele>
        <time>2026-05-03T10:47:49Z</time>
      </trkpt>
      <trkpt lat="44.97013" lon="4.77143">
        <ele>601.9</ele>
        <time>2026-05-03T10:47:54Z</time>
      </trkpt>
      <trkpt lat="44.97008" lon="4.77137">
        <ele>601.4</ele>
        <time>2026-05-03T10:47:59Z</time>
      </trkpt>
      <trkpt lat="44.97003" lon="4.77131">
        <ele>601.1</ele>
        <time>2026-05-03T10:48:04Z</time>
      </trkpt>
      <trkpt lat="44.96995" lon="4.77123">
        <ele>600.4</ele>
        <time>2026-05-03T10:48:09Z</time>
      </trkpt>
      <trkpt lat="44.96989" lon="4.77119">
        <ele>599.7</ele>
        <time>2026-05-03T10:48:14Z</time>
      </trkpt>
      <trkpt lat="44.96983" lon="4.77114">
        <ele>599.1</ele>
        <time>2026-05-03T10:48:19Z</time>
      </trkpt>
      <trkpt lat="44.96977" lon="4.7711">
        <ele>598.4</ele>
        <time>2026-05-03T10:48:24Z</time>
      </trkpt>
      <trkpt lat="44.96971" lon="4.77104">
        <ele>597.8</ele>
        <time>2026-05-03T10:48:29Z</time>
      </trkpt>
      <trkpt lat="44.96964" lon="4.77101">
        <ele>597</ele>
        <time>2026-05-03T10:48:34Z</time>
      </trkpt>
      <trkpt lat="44.96958" lon="4.77097">
        <ele>596.3</ele>
        <time>2026-05-03T10:48:39Z</time>
      </trkpt>
      <trkpt lat="44.96951" lon="4.77093">
        <ele>595.5</ele>
        <time>2026-05-03T10:48:44Z</time>
      </trkpt>
      <trkpt lat="44.96944" lon="4.77089">
        <ele>594.7</ele>
        <time>2026-05-03T10:48:49Z</time>
      </trkpt>
      <trkpt lat="44.96938" lon="4.77084">
        <ele>594</ele>
        <time>2026-05-03T10:48:54Z</time>
      </trkpt>
      <trkpt lat="44.96931" lon="4.77082">
        <ele>592.9</ele>
        <time>2026-05-03T10:48:59Z</time>
      </trkpt>
      <trkpt lat="44.96924" lon="4.77082">
        <ele>591.9</ele>
        <time>2026-05-03T10:49:04Z</time>
      </trkpt>
      <trkpt lat="44.96918" lon="4.77081">
        <ele>591</ele>
        <time>2026-05-03T10:49:09Z</time>
      </trkpt>
      <trkpt lat="44.96913" lon="4.7708">
        <ele>589.9</ele>
        <time>2026-05-03T10:49:14Z</time>
      </trkpt>
      <trkpt lat="44.96906" lon="4.77081">
        <ele>588.4</ele>
        <time>2026-05-03T10:49:19Z</time>
      </trkpt>
      <trkpt lat="44.96899" lon="4.77083">
        <ele>586.9</ele>
        <time>2026-05-03T10:49:24Z</time>
      </trkpt>
      <trkpt lat="44.96891" lon="4.77083">
        <ele>585.1</ele>
        <time>2026-05-03T10:49:29Z</time>
      </trkpt>
      <trkpt lat="44.96884" lon="4.77084">
        <ele>583.5</ele>
        <time>2026-05-03T10:49:34Z</time>
      </trkpt>
      <trkpt lat="44.96878" lon="4.77088">
        <ele>582</ele>
        <time>2026-05-03T10:49:39Z</time>
      </trkpt>
      <trkpt lat="44.96871" lon="4.77092">
        <ele>580.3</ele>
        <time>2026-05-03T10:49:44Z</time>
      </trkpt>
      <trkpt lat="44.96863" lon="4.77095">
        <ele>578.5</ele>
        <time>2026-05-03T10:49:49Z</time>
      </trkpt>
      <trkpt lat="44.96856" lon="4.77093">
        <ele>577</ele>
        <time>2026-05-03T10:49:54Z</time>
      </trkpt>
      <trkpt lat="44.96851" lon="4.77088">
        <ele>575.9</ele>
        <time>2026-05-03T10:49:59Z</time>
      </trkpt>
      <trkpt lat="44.96847" lon="4.77084">
        <ele>575.1</ele>
        <time>2026-05-03T10:50:04Z</time>
      </trkpt>
      <trkpt lat="44.96843" lon="4.77078">
        <ele>573.7</ele>
        <time>2026-05-03T10:50:09Z</time>
      </trkpt>
      <trkpt lat="44.96838" lon="4.77074">
        <ele>572.2</ele>
        <time>2026-05-03T10:50:14Z</time>
      </trkpt>
      <trkpt lat="44.96834" lon="4.77073">
        <ele>571.2</ele>
        <time>2026-05-03T10:50:19Z</time>
      </trkpt>
      <trkpt lat="44.9683" lon="4.77072">
        <ele>570.2</ele>
        <time>2026-05-03T10:50:24Z</time>
      </trkpt>
      <trkpt lat="44.96825" lon="4.77068">
        <ele>568.7</ele>
        <time>2026-05-03T10:50:29Z</time>
      </trkpt>
      <trkpt lat="44.96821" lon="4.77062">
        <ele>567.3</ele>
        <time>2026-05-03T10:50:34Z</time>
      </trkpt>
      <trkpt lat="44.96817" lon="4.77059">
        <ele>566.1</ele>
        <time>2026-05-03T10:50:39Z</time>
      </trkpt>
      <trkpt lat="44.96812" lon="4.77055">
        <ele>564.7</ele>
        <time>2026-05-03T10:50:44Z</time>
      </trkpt>
      <trkpt lat="44.96808" lon="4.77051">
        <ele>563.5</ele>
        <time>2026-05-03T10:50:49Z</time>
      </trkpt>
      <trkpt lat="44.96805" lon="4.77049">
        <ele>562.7</ele>
        <time>2026-05-03T10:50:54Z</time>
      </trkpt>
      <trkpt lat="44.96802" lon="4.77047">
        <ele>561.9</ele>
        <time>2026-05-03T10:50:59Z</time>
      </trkpt>
      <trkpt lat="44.96798" lon="4.77046">
        <ele>560.9</ele>
        <time>2026-05-03T10:51:04Z</time>
      </trkpt>
      <trkpt lat="44.96797" lon="4.77043">
        <ele>560.5</ele>
        <time>2026-05-03T10:51:09Z</time>
      </trkpt>
      <trkpt lat="44.96793" lon="4.77042">
        <ele>559.6</ele>
        <time>2026-05-03T10:51:14Z</time>
      </trkpt>
      <trkpt lat="44.96787" lon="4.77041">
        <ele>558.2</ele>
        <time>2026-05-03T10:51:19Z</time>
      </trkpt>
      <trkpt lat="44.96783" lon="4.77039">
        <ele>557.2</ele>
        <time>2026-05-03T10:51:24Z</time>
      </trkpt>
      <trkpt lat="44.9678" lon="4.77047">
        <ele>557.2</ele>
        <time>2026-05-03T10:51:29Z</time>
      </trkpt>
      <trkpt lat="44.96776" lon="4.77053">
        <ele>556.8</ele>
        <time>2026-05-03T10:51:34Z</time>
      </trkpt>
      <trkpt lat="44.96771" lon="4.77059">
        <ele>556.1</ele>
        <time>2026-05-03T10:51:39Z</time>
      </trkpt>
      <trkpt lat="44.96767" lon="4.77066">
        <ele>555.7</ele>
        <time>2026-05-03T10:51:44Z</time>
      </trkpt>
      <trkpt lat="44.96764" lon="4.77072">
        <ele>555.4</ele>
        <time>2026-05-03T10:51:49Z</time>
      </trkpt>
      <trkpt lat="44.9676" lon="4.77077">
        <ele>554.9</ele>
        <time>2026-05-03T10:51:54Z</time>
      </trkpt>
      <trkpt lat="44.96756" lon="4.77085">
        <ele>554.5</ele>
        <time>2026-05-03T10:51:59Z</time>
      </trkpt>
      <trkpt lat="44.96752" lon="4.77093">
        <ele>554</ele>
        <time>2026-05-03T10:52:04Z</time>
      </trkpt>
      <trkpt lat="44.96747" lon="4.77102">
        <ele>553.7</ele>
        <time>2026-05-03T10:52:09Z</time>
      </trkpt>
      <trkpt lat="44.96743" lon="4.7711">
        <ele>553.8</ele>
        <time>2026-05-03T10:52:14Z</time>
      </trkpt>
      <trkpt lat="44.96741" lon="4.77111">
        <ele>553.6</ele>
        <time>2026-05-03T10:52:19Z</time>
      </trkpt>
      <trkpt lat="44.96737" lon="4.77119">
        <ele>553.6</ele>
        <time>2026-05-03T10:52:24Z</time>
      </trkpt>
      <trkpt lat="44.96734" lon="4.77126">
        <ele>553.7</ele>
        <time>2026-05-03T10:52:29Z</time>
      </trkpt>
      <trkpt lat="44.96729" lon="4.77133">
        <ele>553.7</ele>
        <time>2026-05-03T10:52:34Z</time>
      </trkpt>
      <trkpt lat="44.96724" lon="4.77139">
        <ele>553.5</ele>
        <time>2026-05-03T10:52:39Z</time>
      </trkpt>
      <trkpt lat="44.9672" lon="4.77145">
        <ele>553.5</ele>
        <time>2026-05-03T10:52:44Z</time>
      </trkpt>
      <trkpt lat="44.96718" lon="4.77147">
        <ele>553.5</ele>
        <time>2026-05-03T10:52:49Z</time>
      </trkpt>
      <trkpt lat="44.96717" lon="4.77148">
        <ele>553.4</ele>
        <time>2026-05-03T10:52:54Z</time>
      </trkpt>
      <trkpt lat="44.96715" lon="4.7715">
        <ele>553.4</ele>
        <time>2026-05-03T10:52:59Z</time>
      </trkpt>
      <trkpt lat="44.96713" lon="4.77154">
        <ele>553.5</ele>
        <time>2026-05-03T10:53:04Z</time>
      </trkpt>
      <trkpt lat="44.96711" lon="4.77158">
        <ele>553.6</ele>
        <time>2026-05-03T10:53:09Z</time>
      </trkpt>
      <trkpt lat="44.96709" lon="4.77163">
        <ele>553.8</ele>
        <time>2026-05-03T10:53:14Z</time>
      </trkpt>
      <trkpt lat="44.96708" lon="4.77168">
        <ele>553.9</ele>
        <time>2026-05-03T10:53:19Z</time>
      </trkpt>
      <trkpt lat="44.96706" lon="4.77175">
        <ele>553.5</ele>
        <time>2026-05-03T10:53:24Z</time>
      </trkpt>
      <trkpt lat="44.96705" lon="4.77182">
        <ele>553.2</ele>
        <time>2026-05-03T10:53:29Z</time>
      </trkpt>
      <trkpt lat="44.96707" lon="4.77187">
        <ele>553.3</ele>
        <time>2026-05-03T10:53:34Z</time>
      </trkpt>
      <trkpt lat="44.96706" lon="4.77194">
        <ele>553</ele>
        <time>2026-05-03T10:53:39Z</time>
      </trkpt>
      <trkpt lat="44.96702" lon="4.77196">
        <ele>552.5</ele>
        <time>2026-05-03T10:53:44Z</time>
      </trkpt>
      <trkpt lat="44.96695" lon="4.77197">
        <ele>551.9</ele>
        <time>2026-05-03T10:53:49Z</time>
      </trkpt>
      <trkpt lat="44.96688" lon="4.77195">
        <ele>551.3</ele>
        <time>2026-05-03T10:53:54Z</time>
      </trkpt>
      <trkpt lat="44.96681" lon="4.77194">
        <ele>550.7</ele>
        <time>2026-05-03T10:53:59Z</time>
      </trkpt>
      <trkpt lat="44.96674" lon="4.77193">
        <ele>550</ele>
        <time>2026-05-03T10:54:04Z</time>
      </trkpt>
      <trkpt lat="44.96666" lon="4.77192">
        <ele>549.3</ele>
        <time>2026-05-03T10:54:09Z</time>
      </trkpt>
      <trkpt lat="44.96659" lon="4.7719">
        <ele>548.4</ele>
        <time>2026-05-03T10:54:14Z</time>
      </trkpt>
      <trkpt lat="44.96651" lon="4.77188">
        <ele>547.3</ele>
        <time>2026-05-03T10:54:19Z</time>
      </trkpt>
      <trkpt lat="44.96643" lon="4.77187">
        <ele>546.2</ele>
        <time>2026-05-03T10:54:24Z</time>
      </trkpt>
      <trkpt lat="44.96635" lon="4.77185">
        <ele>545.1</ele>
        <time>2026-05-03T10:54:29Z</time>
      </trkpt>
      <trkpt lat="44.96628" lon="4.77184">
        <ele>544.2</ele>
        <time>2026-05-03T10:54:34Z</time>
      </trkpt>
      <trkpt lat="44.96622" lon="4.77181">
        <ele>543.5</ele>
        <time>2026-05-03T10:54:39Z</time>
      </trkpt>
      <trkpt lat="44.96616" lon="4.77176">
        <ele>542.9</ele>
        <time>2026-05-03T10:54:44Z</time>
      </trkpt>
      <trkpt lat="44.96608" lon="4.77174">
        <ele>541.9</ele>
        <time>2026-05-03T10:54:49Z</time>
      </trkpt>
      <trkpt lat="44.96601" lon="4.77171">
        <ele>541.1</ele>
        <time>2026-05-03T10:54:54Z</time>
      </trkpt>
      <trkpt lat="44.96593" lon="4.77166">
        <ele>540.2</ele>
        <time>2026-05-03T10:54:59Z</time>
      </trkpt>
      <trkpt lat="44.96586" lon="4.77161">
        <ele>539.1</ele>
        <time>2026-05-03T10:55:04Z</time>
      </trkpt>
      <trkpt lat="44.9658" lon="4.77157">
        <ele>537.9</ele>
        <time>2026-05-03T10:55:09Z</time>
      </trkpt>
      <trkpt lat="44.96573" lon="4.77152">
        <ele>536.4</ele>
        <time>2026-05-03T10:55:14Z</time>
      </trkpt>
      <trkpt lat="44.96567" lon="4.77148">
        <ele>535.1</ele>
        <time>2026-05-03T10:55:19Z</time>
      </trkpt>
      <trkpt lat="44.96561" lon="4.77144">
        <ele>533.8</ele>
        <time>2026-05-03T10:55:24Z</time>
      </trkpt>
      <trkpt lat="44.96554" lon="4.77136">
        <ele>532.2</ele>
        <time>2026-05-03T10:55:29Z</time>
      </trkpt>
      <trkpt lat="44.96548" lon="4.77131">
        <ele>530.9</ele>
        <time>2026-05-03T10:55:34Z</time>
      </trkpt>
      <trkpt lat="44.96543" lon="4.77126">
        <ele>529.8</ele>
        <time>2026-05-03T10:55:39Z</time>
      </trkpt>
      <trkpt lat="44.96537" lon="4.77118">
        <ele>528.4</ele>
        <time>2026-05-03T10:55:44Z</time>
      </trkpt>
      <trkpt lat="44.96531" lon="4.77112">
        <ele>527.2</ele>
        <time>2026-05-03T10:55:49Z</time>
      </trkpt>
      <trkpt lat="44.96524" lon="4.77106">
        <ele>525.7</ele>
        <time>2026-05-03T10:55:54Z</time>
      </trkpt>
      <trkpt lat="44.96518" lon="4.771">
        <ele>524.5</ele>
        <time>2026-05-03T10:55:59Z</time>
      </trkpt>
      <trkpt lat="44.96512" lon="4.77092">
        <ele>523.3</ele>
        <time>2026-05-03T10:56:04Z</time>
      </trkpt>
      <trkpt lat="44.96506" lon="4.77088">
        <ele>522.1</ele>
        <time>2026-05-03T10:56:09Z</time>
      </trkpt>
      <trkpt lat="44.96499" lon="4.77081">
        <ele>520.8</ele>
        <time>2026-05-03T10:56:14Z</time>
      </trkpt>
      <trkpt lat="44.96492" lon="4.77076">
        <ele>519.5</ele>
        <time>2026-05-03T10:56:19Z</time>
      </trkpt>
      <trkpt lat="44.96487" lon="4.77071">
        <ele>518.7</ele>
        <time>2026-05-03T10:56:24Z</time>
      </trkpt>
      <trkpt lat="44.96481" lon="4.77065">
        <ele>517.7</ele>
        <time>2026-05-03T10:56:29Z</time>
      </trkpt>
      <trkpt lat="44.96476" lon="4.77058">
        <ele>517.1</ele>
        <time>2026-05-03T10:56:34Z</time>
      </trkpt>
      <trkpt lat="44.96469" lon="4.77054">
        <ele>516.1</ele>
        <time>2026-05-03T10:56:39Z</time>
      </trkpt>
      <trkpt lat="44.96462" lon="4.77049">
        <ele>515.1</ele>
        <time>2026-05-03T10:56:44Z</time>
      </trkpt>
      <trkpt lat="44.96456" lon="4.77044">
        <ele>514.4</ele>
        <time>2026-05-03T10:56:49Z</time>
      </trkpt>
      <trkpt lat="44.9645" lon="4.77039">
        <ele>513.8</ele>
        <time>2026-05-03T10:56:54Z</time>
      </trkpt>
      <trkpt lat="44.96443" lon="4.77033">
        <ele>513.2</ele>
        <time>2026-05-03T10:56:59Z</time>
      </trkpt>
      <trkpt lat="44.96437" lon="4.77027">
        <ele>512.8</ele>
        <time>2026-05-03T10:57:04Z</time>
      </trkpt>
      <trkpt lat="44.96431" lon="4.77022">
        <ele>512.4</ele>
        <time>2026-05-03T10:57:09Z</time>
      </trkpt>
      <trkpt lat="44.96429" lon="4.77021">
        <ele>512.3</ele>
        <time>2026-05-03T10:57:14Z</time>
      </trkpt>
      <trkpt lat="44.96429" lon="4.77021">
        <ele>512.3</ele>
        <time>2026-05-03T10:57:19Z</time>
      </trkpt>
      <trkpt lat="44.96429" lon="4.77021">
        <ele>512.3</ele>
        <time>2026-05-03T10:57:24Z</time>
      </trkpt>
      <trkpt lat="44.96429" lon="4.77021">
        <ele>512.3</ele>
        <time>2026-05-03T10:57:29Z</time>
      </trkpt>
      <trkpt lat="44.96427" lon="4.77018">
        <ele>512.3</ele>
        <time>2026-05-03T10:57:34Z</time>
      </trkpt>
      <trkpt lat="44.96422" lon="4.77012">
        <ele>512.3</ele>
        <time>2026-05-03T10:57:39Z</time>
      </trkpt>
      <trkpt lat="44.96416" lon="4.77007">
        <ele>512</ele>
        <time>2026-05-03T10:57:44Z</time>
      </trkpt>
      <trkpt lat="44.9641" lon="4.77002">
        <ele>511.6</ele>
        <time>2026-05-03T10:57:49Z</time>
      </trkpt>
      <trkpt lat="44.96404" lon="4.76996">
        <ele>510.9</ele>
        <time>2026-05-03T10:57:54Z</time>
      </trkpt>
      <trkpt lat="44.96398" lon="4.7699">
        <ele>510.3</ele>
        <time>2026-05-03T10:57:59Z</time>
      </trkpt>
      <trkpt lat="44.96392" lon="4.76985">
        <ele>509.7</ele>
        <time>2026-05-03T10:58:04Z</time>
      </trkpt>
      <trkpt lat="44.96385" lon="4.7698">
        <ele>509</ele>
        <time>2026-05-03T10:58:09Z</time>
      </trkpt>
      <trkpt lat="44.96378" lon="4.76974">
        <ele>508.6</ele>
        <time>2026-05-03T10:58:14Z</time>
      </trkpt>
      <trkpt lat="44.96372" lon="4.76968">
        <ele>508.4</ele>
        <time>2026-05-03T10:58:19Z</time>
      </trkpt>
      <trkpt lat="44.96366" lon="4.76962">
        <ele>508.3</ele>
        <time>2026-05-03T10:58:24Z</time>
      </trkpt>
      <trkpt lat="44.96359" lon="4.76957">
        <ele>508.1</ele>
        <time>2026-05-03T10:58:29Z</time>
      </trkpt>
      <trkpt lat="44.96354" lon="4.76951">
        <ele>508.3</ele>
        <time>2026-05-03T10:58:34Z</time>
      </trkpt>
      <trkpt lat="44.96347" lon="4.76944">
        <ele>508.7</ele>
        <time>2026-05-03T10:58:39Z</time>
      </trkpt>
      <trkpt lat="44.9634" lon="4.76938">
        <ele>509</ele>
        <time>2026-05-03T10:58:44Z</time>
      </trkpt>
      <trkpt lat="44.96334" lon="4.76932">
        <ele>509.5</ele>
        <time>2026-05-03T10:58:49Z</time>
      </trkpt>
      <trkpt lat="44.96326" lon="4.76927">
        <ele>509.3</ele>
        <time>2026-05-03T10:58:54Z</time>
      </trkpt>
      <trkpt lat="44.9632" lon="4.76921">
        <ele>509.5</ele>
        <time>2026-05-03T10:58:59Z</time>
      </trkpt>
      <trkpt lat="44.96314" lon="4.76914">
        <ele>509.5</ele>
        <time>2026-05-03T10:59:04Z</time>
      </trkpt>
      <trkpt lat="44.96308" lon="4.76907">
        <ele>508.9</ele>
        <time>2026-05-03T10:59:09Z</time>
      </trkpt>
      <trkpt lat="44.96301" lon="4.76902">
        <ele>508.1</ele>
        <time>2026-05-03T10:59:14Z</time>
      </trkpt>
      <trkpt lat="44.96294" lon="4.76896">
        <ele>507.5</ele>
        <time>2026-05-03T10:59:19Z</time>
      </trkpt>
      <trkpt lat="44.96288" lon="4.7689">
        <ele>507.1</ele>
        <time>2026-05-03T10:59:24Z</time>
      </trkpt>
      <trkpt lat="44.96282" lon="4.76884">
        <ele>506.7</ele>
        <time>2026-05-03T10:59:29Z</time>
      </trkpt>
      <trkpt lat="44.96277" lon="4.76879">
        <ele>506.4</ele>
        <time>2026-05-03T10:59:34Z</time>
      </trkpt>
      <trkpt lat="44.96273" lon="4.76874">
        <ele>506.3</ele>
        <time>2026-05-03T10:59:39Z</time>
      </trkpt>
      <trkpt lat="44.96271" lon="4.76872">
        <ele>506.2</ele>
        <time>2026-05-03T10:59:44Z</time>
      </trkpt>
      <trkpt lat="44.96271" lon="4.76872">
        <ele>506.2</ele>
        <time>2026-05-03T10:59:49Z</time>
      </trkpt>
      <trkpt lat="44.96272" lon="4.7687">
        <ele>506.4</ele>
        <time>2026-05-03T10:59:54Z</time>
      </trkpt>
      <trkpt lat="44.96271" lon="4.76867">
        <ele>506.4</ele>
        <time>2026-05-03T10:59:59Z</time>
      </trkpt>
      <trkpt lat="44.96271" lon="4.76862">
        <ele>506.7</ele>
        <time>2026-05-03T11:00:04Z</time>
      </trkpt>
      <trkpt lat="44.9627" lon="4.76858">
        <ele>506.9</ele>
        <time>2026-05-03T11:00:09Z</time>
      </trkpt>
      <trkpt lat="44.9627" lon="4.76854">
        <ele>507.1</ele>
        <time>2026-05-03T11:00:14Z</time>
      </trkpt>
      <trkpt lat="44.96267" lon="4.76846">
        <ele>507.3</ele>
        <time>2026-05-03T11:00:19Z</time>
      </trkpt>
      <trkpt lat="44.96263" lon="4.76838">
        <ele>507.5</ele>
        <time>2026-05-03T11:00:24Z</time>
      </trkpt>
      <trkpt lat="44.9626" lon="4.76832">
        <ele>507.6</ele>
        <time>2026-05-03T11:00:29Z</time>
      </trkpt>
      <trkpt lat="44.96259" lon="4.76826">
        <ele>507.3</ele>
        <time>2026-05-03T11:00:34Z</time>
      </trkpt>
      <trkpt lat="44.96258" lon="4.7682">
        <ele>507.1</ele>
        <time>2026-05-03T11:00:39Z</time>
      </trkpt>
      <trkpt lat="44.96257" lon="4.76817">
        <ele>506.9</ele>
        <time>2026-05-03T11:00:44Z</time>
      </trkpt>
      <trkpt lat="44.96257" lon="4.76816">
        <ele>506.9</ele>
        <time>2026-05-03T11:00:49Z</time>
      </trkpt>
      <trkpt lat="44.96257" lon="4.76816">
        <ele>506.9</ele>
        <time>2026-05-03T11:00:54Z</time>
      </trkpt>
      <trkpt lat="44.96257" lon="4.76816">
        <ele>506.9</ele>
        <time>2026-05-03T11:00:59Z</time>
      </trkpt>
      <trkpt lat="44.96257" lon="4.76816">
        <ele>506.9</ele>
        <time>2026-05-03T11:01:04Z</time>
      </trkpt>
      <trkpt lat="44.96257" lon="4.76816">
        <ele>506.9</ele>
        <time>2026-05-03T11:01:09Z</time>
      </trkpt>
      <trkpt lat="44.96257" lon="4.76816">
        <ele>506.9</ele>
        <time>2026-05-03T11:01:14Z</time>
      </trkpt>
      <trkpt lat="44.96257" lon="4.76816">
        <ele>506.9</ele>
        <time>2026-05-03T11:01:19Z</time>
      </trkpt>
      <trkpt lat="44.96257" lon="4.76816">
        <ele>506.9</ele>
        <time>2026-05-03T11:01:24Z</time>
      </trkpt>
      <trkpt lat="44.96257" lon="4.76816">
        <ele>506.9</ele>
        <time>2026-05-03T11:01:29Z</time>
      </trkpt>
      <trkpt lat="44.96257" lon="4.76816">
        <ele>506.9</ele>
        <time>2026-05-03T11:01:34Z</time>
      </trkpt>
      <trkpt lat="44.96257" lon="4.76816">
        <ele>506.9</ele>
        <time>2026-05-03T11:01:39Z</time>
      </trkpt>
      <trkpt lat="44.96257" lon="4.76816">
        <ele>506.9</ele>
        <time>2026-05-03T11:01:44Z</time>
      </trkpt>
      <trkpt lat="44.96257" lon="4.76816">
        <ele>506.9</ele>
        <time>2026-05-03T11:01:49Z</time>
      </trkpt>
      <trkpt lat="44.96254" lon="4.76804">
        <ele>506.4</ele>
        <time>2026-05-03T11:01:54Z</time>
      </trkpt>
      <trkpt lat="44.96252" lon="4.76797">
        <ele>506.2</ele>
        <time>2026-05-03T11:01:59Z</time>
      </trkpt>
      <trkpt lat="44.9625" lon="4.76791">
        <ele>506</ele>
        <time>2026-05-03T11:02:04Z</time>
      </trkpt>
      <trkpt lat="44.9625" lon="4.7679">
        <ele>506</ele>
        <time>2026-05-03T11:02:09Z</time>
      </trkpt>
      <trkpt lat="44.9625" lon="4.7679">
        <ele>506</ele>
        <time>2026-05-03T11:02:14Z</time>
      </trkpt>
      <trkpt lat="44.9625" lon="4.7679">
        <ele>506</ele>
        <time>2026-05-03T11:02:19Z</time>
      </trkpt>
      <trkpt lat="44.96247" lon="4.76782">
        <ele>505.3</ele>
        <time>2026-05-03T11:02:24Z</time>
      </trkpt>
      <trkpt lat="44.96245" lon="4.76775">
        <ele>504.8</ele>
        <time>2026-05-03T11:02:29Z</time>
      </trkpt>
      <trkpt lat="44.96243" lon="4.76769">
        <ele>504.4</ele>
        <time>2026-05-03T11:02:34Z</time>
      </trkpt>
      <trkpt lat="44.96243" lon="4.76761">
        <ele>504.2</ele>
        <time>2026-05-03T11:02:39Z</time>
      </trkpt>
      <trkpt lat="44.96241" lon="4.76757">
        <ele>503.9</ele>
        <time>2026-05-03T11:02:44Z</time>
      </trkpt>
      <trkpt lat="44.96239" lon="4.76753">
        <ele>503.5</ele>
        <time>2026-05-03T11:02:49Z</time>
      </trkpt>
      <trkpt lat="44.96239" lon="4.76753">
        <ele>503.5</ele>
        <time>2026-05-03T11:02:54Z</time>
      </trkpt>
      <trkpt lat="44.96239" lon="4.76753">
        <ele>503.5</ele>
        <time>2026-05-03T11:02:59Z</time>
      </trkpt>
      <trkpt lat="44.96239" lon="4.76748">
        <ele>503.2</ele>
        <time>2026-05-03T11:03:04Z</time>
      </trkpt>
      <trkpt lat="44.96235" lon="4.76739">
        <ele>501.5</ele>
        <time>2026-05-03T11:03:09Z</time>
      </trkpt>
      <trkpt lat="44.96231" lon="4.76734">
        <ele>500.3</ele>
        <time>2026-05-03T11:03:14Z</time>
      </trkpt>
      <trkpt lat="44.96231" lon="4.76731">
        <ele>500</ele>
        <time>2026-05-03T11:03:19Z</time>
      </trkpt>
      <trkpt lat="44.96229" lon="4.76725">
        <ele>499</ele>
        <time>2026-05-03T11:03:24Z</time>
      </trkpt>
      <trkpt lat="44.96227" lon="4.7672">
        <ele>498.1</ele>
        <time>2026-05-03T11:03:29Z</time>
      </trkpt>
      <trkpt lat="44.96224" lon="4.76715">
        <ele>497.2</ele>
        <time>2026-05-03T11:03:34Z</time>
      </trkpt>
      <trkpt lat="44.96221" lon="4.76713">
        <ele>496.6</ele>
        <time>2026-05-03T11:03:39Z</time>
      </trkpt>
      <trkpt lat="44.96221" lon="4.76709">
        <ele>496.1</ele>
        <time>2026-05-03T11:03:44Z</time>
      </trkpt>
      <trkpt lat="44.96221" lon="4.76709">
        <ele>496.1</ele>
        <time>2026-05-03T11:03:49Z</time>
      </trkpt>
      <trkpt lat="44.96221" lon="4.76709">
        <ele>496.1</ele>
        <time>2026-05-03T11:03:54Z</time>
      </trkpt>
      <trkpt lat="44.96221" lon="4.76709">
        <ele>496.1</ele>
        <time>2026-05-03T11:03:59Z</time>
      </trkpt>
      <trkpt lat="44.96221" lon="4.76709">
        <ele>496.1</ele>
        <time>2026-05-03T11:04:04Z</time>
      </trkpt>
      <trkpt lat="44.96221" lon="4.76709">
        <ele>496.1</ele>
        <time>2026-05-03T11:04:09Z</time>
      </trkpt>
      <trkpt lat="44.96221" lon="4.76709">
        <ele>496.1</ele>
        <time>2026-05-03T11:04:14Z</time>
      </trkpt>
      <trkpt lat="44.96215" lon="4.76699">
        <ele>494.3</ele>
        <time>2026-05-03T11:04:19Z</time>
      </trkpt>
      <trkpt lat="44.96213" lon="4.76696">
        <ele>493.7</ele>
        <time>2026-05-03T11:04:24Z</time>
      </trkpt>
      <trkpt lat="44.96212" lon="4.76692">
        <ele>493.1</ele>
        <time>2026-05-03T11:04:29Z</time>
      </trkpt>
      <trkpt lat="44.96209" lon="4.76691">
        <ele>492.7</ele>
        <time>2026-05-03T11:04:34Z</time>
      </trkpt>
      <trkpt lat="44.96204" lon="4.76688">
        <ele>491.8</ele>
        <time>2026-05-03T11:04:39Z</time>
      </trkpt>
      <trkpt lat="44.96199" lon="4.76683">
        <ele>490.8</ele>
        <time>2026-05-03T11:04:44Z</time>
      </trkpt>
      <trkpt lat="44.96196" lon="4.7668">
        <ele>490.2</ele>
        <time>2026-05-03T11:04:49Z</time>
      </trkpt>
      <trkpt lat="44.96192" lon="4.76675">
        <ele>489.3</ele>
        <time>2026-05-03T11:04:54Z</time>
      </trkpt>
      <trkpt lat="44.96188" lon="4.76669">
        <ele>488.3</ele>
        <time>2026-05-03T11:04:59Z</time>
      </trkpt>
      <trkpt lat="44.96183" lon="4.7666">
        <ele>486.6</ele>
        <time>2026-05-03T11:05:04Z</time>
      </trkpt>
      <trkpt lat="44.96179" lon="4.76654">
        <ele>485.3</ele>
        <time>2026-05-03T11:05:09Z</time>
      </trkpt>
      <trkpt lat="44.96176" lon="4.7665">
        <ele>484.5</ele>
        <time>2026-05-03T11:05:14Z</time>
      </trkpt>
      <trkpt lat="44.96173" lon="4.76645">
        <ele>483.4</ele>
        <time>2026-05-03T11:05:19Z</time>
      </trkpt>
      <trkpt lat="44.9617" lon="4.76638">
        <ele>482.2</ele>
        <time>2026-05-03T11:05:24Z</time>
      </trkpt>
      <trkpt lat="44.96165" lon="4.76633">
        <ele>480.8</ele>
        <time>2026-05-03T11:05:29Z</time>
      </trkpt>
      <trkpt lat="44.96164" lon="4.76631">
        <ele>480.3</ele>
        <time>2026-05-03T11:05:34Z</time>
      </trkpt>
      <trkpt lat="44.96162" lon="4.7663">
        <ele>479.8</ele>
        <time>2026-05-03T11:05:39Z</time>
      </trkpt>
      <trkpt lat="44.96159" lon="4.76631">
        <ele>479.3</ele>
        <time>2026-05-03T11:05:44Z</time>
      </trkpt>
      <trkpt lat="44.96154" lon="4.76633">
        <ele>478.5</ele>
        <time>2026-05-03T11:05:49Z</time>
      </trkpt>
      <trkpt lat="44.9615" lon="4.76633">
        <ele>477.7</ele>
        <time>2026-05-03T11:05:54Z</time>
      </trkpt>
      <trkpt lat="44.96145" lon="4.76633">
        <ele>476.6</ele>
        <time>2026-05-03T11:05:59Z</time>
      </trkpt>
      <trkpt lat="44.9614" lon="4.76634">
        <ele>475.7</ele>
        <time>2026-05-03T11:06:04Z</time>
      </trkpt>
      <trkpt lat="44.96137" lon="4.76632">
        <ele>474.8</ele>
        <time>2026-05-03T11:06:09Z</time>
      </trkpt>
      <trkpt lat="44.96131" lon="4.76634">
        <ele>473.8</ele>
        <time>2026-05-03T11:06:14Z</time>
      </trkpt>
      <trkpt lat="44.96125" lon="4.76636">
        <ele>472.8</ele>
        <time>2026-05-03T11:06:19Z</time>
      </trkpt>
      <trkpt lat="44.96119" lon="4.76638">
        <ele>471.8</ele>
        <time>2026-05-03T11:06:24Z</time>
      </trkpt>
      <trkpt lat="44.96113" lon="4.7664">
        <ele>470.7</ele>
        <time>2026-05-03T11:06:29Z</time>
      </trkpt>
      <trkpt lat="44.96107" lon="4.76643">
        <ele>469.8</ele>
        <time>2026-05-03T11:06:34Z</time>
      </trkpt>
      <trkpt lat="44.96101" lon="4.76645">
        <ele>468.7</ele>
        <time>2026-05-03T11:06:39Z</time>
      </trkpt>
      <trkpt lat="44.96095" lon="4.76647">
        <ele>467.6</ele>
        <time>2026-05-03T11:06:44Z</time>
      </trkpt>
      <trkpt lat="44.96089" lon="4.76648">
        <ele>466.4</ele>
        <time>2026-05-03T11:06:49Z</time>
      </trkpt>
      <trkpt lat="44.96082" lon="4.76652">
        <ele>465.6</ele>
        <time>2026-05-03T11:06:54Z</time>
      </trkpt>
      <trkpt lat="44.96075" lon="4.76655">
        <ele>466.1</ele>
        <time>2026-05-03T11:06:59Z</time>
      </trkpt>
      <trkpt lat="44.96073" lon="4.76657">
        <ele>466.3</ele>
        <time>2026-05-03T11:07:04Z</time>
      </trkpt>
      <trkpt lat="44.96072" lon="4.76657">
        <ele>466.3</ele>
        <time>2026-05-03T11:07:09Z</time>
      </trkpt>
      <trkpt lat="44.96072" lon="4.76657">
        <ele>466.3</ele>
        <time>2026-05-03T11:07:14Z</time>
      </trkpt>
      <trkpt lat="44.96067" lon="4.76661">
        <ele>466.6</ele>
        <time>2026-05-03T11:07:19Z</time>
      </trkpt>
      <trkpt lat="44.96065" lon="4.76669">
        <ele>467.2</ele>
        <time>2026-05-03T11:07:24Z</time>
      </trkpt>
      <trkpt lat="44.96064" lon="4.76675">
        <ele>467.5</ele>
        <time>2026-05-03T11:07:29Z</time>
      </trkpt>
      <trkpt lat="44.96062" lon="4.76682">
        <ele>467.9</ele>
        <time>2026-05-03T11:07:34Z</time>
      </trkpt>
      <trkpt lat="44.96059" lon="4.76691">
        <ele>468.3</ele>
        <time>2026-05-03T11:07:39Z</time>
      </trkpt>
      <trkpt lat="44.96059" lon="4.76698">
        <ele>468.7</ele>
        <time>2026-05-03T11:07:44Z</time>
      </trkpt>
      <trkpt lat="44.96057" lon="4.76704">
        <ele>468.9</ele>
        <time>2026-05-03T11:07:49Z</time>
      </trkpt>
      <trkpt lat="44.96055" lon="4.76711">
        <ele>469.1</ele>
        <time>2026-05-03T11:07:54Z</time>
      </trkpt>
      <trkpt lat="44.9605" lon="4.76718">
        <ele>469</ele>
        <time>2026-05-03T11:07:59Z</time>
      </trkpt>
      <trkpt lat="44.96044" lon="4.76728">
        <ele>468.7</ele>
        <time>2026-05-03T11:08:04Z</time>
      </trkpt>
      <trkpt lat="44.96039" lon="4.76736">
        <ele>468.3</ele>
        <time>2026-05-03T11:08:09Z</time>
      </trkpt>
      <trkpt lat="44.96035" lon="4.76743">
        <ele>468</ele>
        <time>2026-05-03T11:08:14Z</time>
      </trkpt>
      <trkpt lat="44.96035" lon="4.76748">
        <ele>468</ele>
        <time>2026-05-03T11:08:19Z</time>
      </trkpt>
      <trkpt lat="44.96034" lon="4.76752">
        <ele>467.8</ele>
        <time>2026-05-03T11:08:24Z</time>
      </trkpt>
      <trkpt lat="44.96033" lon="4.76754">
        <ele>467.7</ele>
        <time>2026-05-03T11:08:29Z</time>
      </trkpt>
      <trkpt lat="44.96033" lon="4.76754">
        <ele>467.7</ele>
        <time>2026-05-03T11:08:34Z</time>
      </trkpt>
      <trkpt lat="44.96033" lon="4.76754">
        <ele>467.7</ele>
        <time>2026-05-03T11:08:39Z</time>
      </trkpt>
      <trkpt lat="44.96028" lon="4.7676">
        <ele>466.8</ele>
        <time>2026-05-03T11:08:44Z</time>
      </trkpt>
      <trkpt lat="44.96028" lon="4.76769">
        <ele>466.6</ele>
        <time>2026-05-03T11:08:49Z</time>
      </trkpt>
      <trkpt lat="44.96029" lon="4.76779">
        <ele>466.5</ele>
        <time>2026-05-03T11:08:54Z</time>
      </trkpt>
      <trkpt lat="44.96031" lon="4.76789">
        <ele>466.5</ele>
        <time>2026-05-03T11:08:59Z</time>
      </trkpt>
      <trkpt lat="44.96034" lon="4.76799">
        <ele>466.7</ele>
        <time>2026-05-03T11:09:04Z</time>
      </trkpt>
      <trkpt lat="44.96035" lon="4.76806">
        <ele>466.7</ele>
        <time>2026-05-03T11:09:09Z</time>
      </trkpt>
      <trkpt lat="44.96037" lon="4.76814">
        <ele>466.8</ele>
        <time>2026-05-03T11:09:14Z</time>
      </trkpt>
      <trkpt lat="44.96039" lon="4.76822">
        <ele>466.9</ele>
        <time>2026-05-03T11:09:19Z</time>
      </trkpt>
      <trkpt lat="44.9604" lon="4.76831">
        <ele>466.8</ele>
        <time>2026-05-03T11:09:24Z</time>
      </trkpt>
      <trkpt lat="44.96039" lon="4.76839">
        <ele>466.4</ele>
        <time>2026-05-03T11:09:29Z</time>
      </trkpt>
      <trkpt lat="44.9604" lon="4.76848">
        <ele>466.2</ele>
        <time>2026-05-03T11:09:34Z</time>
      </trkpt>
      <trkpt lat="44.96043" lon="4.76857">
        <ele>466.3</ele>
        <time>2026-05-03T11:09:39Z</time>
      </trkpt>
      <trkpt lat="44.96046" lon="4.76863">
        <ele>466.5</ele>
        <time>2026-05-03T11:09:44Z</time>
      </trkpt>
      <trkpt lat="44.96048" lon="4.76869">
        <ele>466.6</ele>
        <time>2026-05-03T11:09:49Z</time>
      </trkpt>
      <trkpt lat="44.96052" lon="4.76876">
        <ele>466.8</ele>
        <time>2026-05-03T11:09:54Z</time>
      </trkpt>
      <trkpt lat="44.96056" lon="4.76882">
        <ele>467.1</ele>
        <time>2026-05-03T11:09:59Z</time>
      </trkpt>
      <trkpt lat="44.9606" lon="4.76888">
        <ele>467.4</ele>
        <time>2026-05-03T11:10:04Z</time>
      </trkpt>
      <trkpt lat="44.96063" lon="4.76894">
        <ele>467.5</ele>
        <time>2026-05-03T11:10:09Z</time>
      </trkpt>
      <trkpt lat="44.96067" lon="4.76899">
        <ele>467.8</ele>
        <time>2026-05-03T11:10:14Z</time>
      </trkpt>
      <trkpt lat="44.96072" lon="4.76904">
        <ele>468.2</ele>
        <time>2026-05-03T11:10:19Z</time>
      </trkpt>
      <trkpt lat="44.96076" lon="4.76909">
        <ele>468.5</ele>
        <time>2026-05-03T11:10:24Z</time>
      </trkpt>
      <trkpt lat="44.96082" lon="4.76913">
        <ele>469</ele>
        <time>2026-05-03T11:10:29Z</time>
      </trkpt>
      <trkpt lat="44.96088" lon="4.76917">
        <ele>470</ele>
        <time>2026-05-03T11:10:34Z</time>
      </trkpt>
      <trkpt lat="44.96093" lon="4.76923">
        <ele>470.6</ele>
        <time>2026-05-03T11:10:39Z</time>
      </trkpt>
      <trkpt lat="44.96099" lon="4.76928">
        <ele>471.4</ele>
        <time>2026-05-03T11:10:44Z</time>
      </trkpt>
      <trkpt lat="44.96105" lon="4.76933">
        <ele>472.1</ele>
        <time>2026-05-03T11:10:49Z</time>
      </trkpt>
      <trkpt lat="44.96113" lon="4.76936">
        <ele>473.4</ele>
        <time>2026-05-03T11:10:54Z</time>
      </trkpt>
      <trkpt lat="44.96118" lon="4.7694">
        <ele>474</ele>
        <time>2026-05-03T11:10:59Z</time>
      </trkpt>
      <trkpt lat="44.96123" lon="4.76942">
        <ele>474.7</ele>
        <time>2026-05-03T11:11:04Z</time>
      </trkpt>
      <trkpt lat="44.9613" lon="4.76945">
        <ele>475.7</ele>
        <time>2026-05-03T11:11:09Z</time>
      </trkpt>
      <trkpt lat="44.96137" lon="4.76949">
        <ele>476.5</ele>
        <time>2026-05-03T11:11:14Z</time>
      </trkpt>
      <trkpt lat="44.96143" lon="4.76955">
        <ele>476.8</ele>
        <time>2026-05-03T11:11:19Z</time>
      </trkpt>
      <trkpt lat="44.9615" lon="4.76959">
        <ele>477.5</ele>
        <time>2026-05-03T11:11:24Z</time>
      </trkpt>
      <trkpt lat="44.96156" lon="4.76964">
        <ele>477.8</ele>
        <time>2026-05-03T11:11:29Z</time>
      </trkpt>
      <trkpt lat="44.96163" lon="4.76968">
        <ele>478.4</ele>
        <time>2026-05-03T11:11:34Z</time>
      </trkpt>
      <trkpt lat="44.9617" lon="4.76971">
        <ele>479</ele>
        <time>2026-05-03T11:11:39Z</time>
      </trkpt>
      <trkpt lat="44.96175" lon="4.76973">
        <ele>479.5</ele>
        <time>2026-05-03T11:11:44Z</time>
      </trkpt>
      <trkpt lat="44.96182" lon="4.76977">
        <ele>479.9</ele>
        <time>2026-05-03T11:11:49Z</time>
      </trkpt>
      <trkpt lat="44.96187" lon="4.7698">
        <ele>480.2</ele>
        <time>2026-05-03T11:11:54Z</time>
      </trkpt>
      <trkpt lat="44.96189" lon="4.76984">
        <ele>479.8</ele>
        <time>2026-05-03T11:11:59Z</time>
      </trkpt>
      <trkpt lat="44.96189" lon="4.76986">
        <ele>479.5</ele>
        <time>2026-05-03T11:12:04Z</time>
      </trkpt>
      <trkpt lat="44.96195" lon="4.76989">
        <ele>479.9</ele>
        <time>2026-05-03T11:12:09Z</time>
      </trkpt>
      <trkpt lat="44.96202" lon="4.76992">
        <ele>480.4</ele>
        <time>2026-05-03T11:12:14Z</time>
      </trkpt>
      <trkpt lat="44.96209" lon="4.76998">
        <ele>480.4</ele>
        <time>2026-05-03T11:12:19Z</time>
      </trkpt>
      <trkpt lat="44.96215" lon="4.77004">
        <ele>480.2</ele>
        <time>2026-05-03T11:12:24Z</time>
      </trkpt>
      <trkpt lat="44.96222" lon="4.77009">
        <ele>480.3</ele>
        <time>2026-05-03T11:12:29Z</time>
      </trkpt>
      <trkpt lat="44.96227" lon="4.77016">
        <ele>479.7</ele>
        <time>2026-05-03T11:12:34Z</time>
      </trkpt>
      <trkpt lat="44.96233" lon="4.77022">
        <ele>479.3</ele>
        <time>2026-05-03T11:12:39Z</time>
      </trkpt>
      <trkpt lat="44.96238" lon="4.77029">
        <ele>478.6</ele>
        <time>2026-05-03T11:12:44Z</time>
      </trkpt>
      <trkpt lat="44.96242" lon="4.77037">
        <ele>477.5</ele>
        <time>2026-05-03T11:12:49Z</time>
      </trkpt>
      <trkpt lat="44.96247" lon="4.77045">
        <ele>476.5</ele>
        <time>2026-05-03T11:12:54Z</time>
      </trkpt>
      <trkpt lat="44.96251" lon="4.77053">
        <ele>475.4</ele>
        <time>2026-05-03T11:12:59Z</time>
      </trkpt>
      <trkpt lat="44.96256" lon="4.77061">
        <ele>474.6</ele>
        <time>2026-05-03T11:13:04Z</time>
      </trkpt>
      <trkpt lat="44.96259" lon="4.77069">
        <ele>473.6</ele>
        <time>2026-05-03T11:13:09Z</time>
      </trkpt>
      <trkpt lat="44.96264" lon="4.77077">
        <ele>472.9</ele>
        <time>2026-05-03T11:13:14Z</time>
      </trkpt>
      <trkpt lat="44.96268" lon="4.77085">
        <ele>472.4</ele>
        <time>2026-05-03T11:13:19Z</time>
      </trkpt>
      <trkpt lat="44.96271" lon="4.77095">
        <ele>472.3</ele>
        <time>2026-05-03T11:13:24Z</time>
      </trkpt>
      <trkpt lat="44.96273" lon="4.77105">
        <ele>472.1</ele>
        <time>2026-05-03T11:13:29Z</time>
      </trkpt>
      <trkpt lat="44.96275" lon="4.77115">
        <ele>471.9</ele>
        <time>2026-05-03T11:13:34Z</time>
      </trkpt>
      <trkpt lat="44.96277" lon="4.77124">
        <ele>471.7</ele>
        <time>2026-05-03T11:13:39Z</time>
      </trkpt>
      <trkpt lat="44.96278" lon="4.77134">
        <ele>471.3</ele>
        <time>2026-05-03T11:13:44Z</time>
      </trkpt>
      <trkpt lat="44.96278" lon="4.77141">
        <ele>470.9</ele>
        <time>2026-05-03T11:13:49Z</time>
      </trkpt>
      <trkpt lat="44.96277" lon="4.7715">
        <ele>470.2</ele>
        <time>2026-05-03T11:13:54Z</time>
      </trkpt>
      <trkpt lat="44.96273" lon="4.77159">
        <ele>468.9</ele>
        <time>2026-05-03T11:13:59Z</time>
      </trkpt>
      <trkpt lat="44.96269" lon="4.77167">
        <ele>467.7</ele>
        <time>2026-05-03T11:14:04Z</time>
      </trkpt>
      <trkpt lat="44.96264" lon="4.77176">
        <ele>467</ele>
        <time>2026-05-03T11:14:09Z</time>
      </trkpt>
      <trkpt lat="44.96258" lon="4.77183">
        <ele>466.1</ele>
        <time>2026-05-03T11:14:14Z</time>
      </trkpt>
      <trkpt lat="44.96253" lon="4.77192">
        <ele>465.5</ele>
        <time>2026-05-03T11:14:19Z</time>
      </trkpt>
      <trkpt lat="44.96249" lon="4.772">
        <ele>465.3</ele>
        <time>2026-05-03T11:14:24Z</time>
      </trkpt>
      <trkpt lat="44.96244" lon="4.77206">
        <ele>465.9</ele>
        <time>2026-05-03T11:14:29Z</time>
      </trkpt>
      <trkpt lat="44.96241" lon="4.77211">
        <ele>466.4</ele>
        <time>2026-05-03T11:14:34Z</time>
      </trkpt>
      <trkpt lat="44.96238" lon="4.77207">
        <ele>466.5</ele>
        <time>2026-05-03T11:14:39Z</time>
      </trkpt>
      <trkpt lat="44.96239" lon="4.77202">
        <ele>466.2</ele>
        <time>2026-05-03T11:14:44Z</time>
      </trkpt>
      <trkpt lat="44.96241" lon="4.77193">
        <ele>465.7</ele>
        <time>2026-05-03T11:14:49Z</time>
      </trkpt>
      <trkpt lat="44.96245" lon="4.77184">
        <ele>465</ele>
        <time>2026-05-03T11:14:54Z</time>
      </trkpt>
      <trkpt lat="44.96249" lon="4.77177">
        <ele>464.4</ele>
        <time>2026-05-03T11:14:59Z</time>
      </trkpt>
      <trkpt lat="44.96251" lon="4.77167">
        <ele>464.2</ele>
        <time>2026-05-03T11:15:04Z</time>
      </trkpt>
      <trkpt lat="44.96247" lon="4.77158">
        <ele>464.7</ele>
        <time>2026-05-03T11:15:09Z</time>
      </trkpt>
      <trkpt lat="44.96243" lon="4.77152">
        <ele>465.2</ele>
        <time>2026-05-03T11:15:14Z</time>
      </trkpt>
      <trkpt lat="44.96238" lon="4.77145">
        <ele>465.7</ele>
        <time>2026-05-03T11:15:19Z</time>
      </trkpt>
      <trkpt lat="44.96232" lon="4.77135">
        <ele>466.1</ele>
        <time>2026-05-03T11:15:24Z</time>
      </trkpt>
      <trkpt lat="44.96226" lon="4.77123">
        <ele>466.4</ele>
        <time>2026-05-03T11:15:29Z</time>
      </trkpt>
      <trkpt lat="44.96222" lon="4.77116">
        <ele>466.4</ele>
        <time>2026-05-03T11:15:34Z</time>
      </trkpt>
      <trkpt lat="44.96218" lon="4.77111">
        <ele>466.3</ele>
        <time>2026-05-03T11:15:39Z</time>
      </trkpt>
      <trkpt lat="44.96212" lon="4.77102">
        <ele>466</ele>
        <time>2026-05-03T11:15:44Z</time>
      </trkpt>
      <trkpt lat="44.96208" lon="4.77095">
        <ele>465.7</ele>
        <time>2026-05-03T11:15:49Z</time>
      </trkpt>
      <trkpt lat="44.96203" lon="4.7709">
        <ele>465.2</ele>
        <time>2026-05-03T11:15:54Z</time>
      </trkpt>
      <trkpt lat="44.96196" lon="4.77084">
        <ele>464.5</ele>
        <time>2026-05-03T11:15:59Z</time>
      </trkpt>
      <trkpt lat="44.96189" lon="4.77079">
        <ele>464.6</ele>
        <time>2026-05-03T11:16:04Z</time>
      </trkpt>
      <trkpt lat="44.96182" lon="4.77074">
        <ele>464.7</ele>
        <time>2026-05-03T11:16:09Z</time>
      </trkpt>
      <trkpt lat="44.96176" lon="4.77069">
        <ele>464.9</ele>
        <time>2026-05-03T11:16:14Z</time>
      </trkpt>
      <trkpt lat="44.9617" lon="4.77063">
        <ele>465.3</ele>
        <time>2026-05-03T11:16:19Z</time>
      </trkpt>
      <trkpt lat="44.96164" lon="4.77058">
        <ele>465.6</ele>
        <time>2026-05-03T11:16:24Z</time>
      </trkpt>
      <trkpt lat="44.96157" lon="4.77053">
        <ele>466.2</ele>
        <time>2026-05-03T11:16:29Z</time>
      </trkpt>
      <trkpt lat="44.9615" lon="4.77049">
        <ele>466.5</ele>
        <time>2026-05-03T11:16:34Z</time>
      </trkpt>
      <trkpt lat="44.96144" lon="4.77046">
        <ele>466.6</ele>
        <time>2026-05-03T11:16:39Z</time>
      </trkpt>
      <trkpt lat="44.96138" lon="4.77042">
        <ele>466.8</ele>
        <time>2026-05-03T11:16:44Z</time>
      </trkpt>
      <trkpt lat="44.96131" lon="4.77038">
        <ele>466.7</ele>
        <time>2026-05-03T11:16:49Z</time>
      </trkpt>
      <trkpt lat="44.96124" lon="4.77034">
        <ele>466.6</ele>
        <time>2026-05-03T11:16:54Z</time>
      </trkpt>
      <trkpt lat="44.96118" lon="4.77031">
        <ele>466.4</ele>
        <time>2026-05-03T11:16:59Z</time>
      </trkpt>
      <trkpt lat="44.96111" lon="4.77026">
        <ele>466</ele>
        <time>2026-05-03T11:17:04Z</time>
      </trkpt>
      <trkpt lat="44.96104" lon="4.77022">
        <ele>465.5</ele>
        <time>2026-05-03T11:17:09Z</time>
      </trkpt>
      <trkpt lat="44.96097" lon="4.7702">
        <ele>464.9</ele>
        <time>2026-05-03T11:17:14Z</time>
      </trkpt>
      <trkpt lat="44.9609" lon="4.77016">
        <ele>464.2</ele>
        <time>2026-05-03T11:17:19Z</time>
      </trkpt>
      <trkpt lat="44.96082" lon="4.77013">
        <ele>463.5</ele>
        <time>2026-05-03T11:17:24Z</time>
      </trkpt>
      <trkpt lat="44.96076" lon="4.77009">
        <ele>463.5</ele>
        <time>2026-05-03T11:17:29Z</time>
      </trkpt>
      <trkpt lat="44.9607" lon="4.77004">
        <ele>463.3</ele>
        <time>2026-05-03T11:17:34Z</time>
      </trkpt>
      <trkpt lat="44.96063" lon="4.77">
        <ele>463</ele>
        <time>2026-05-03T11:17:39Z</time>
      </trkpt>
      <trkpt lat="44.96057" lon="4.76999">
        <ele>463</ele>
        <time>2026-05-03T11:17:44Z</time>
      </trkpt>
      <trkpt lat="44.96051" lon="4.76995">
        <ele>463.1</ele>
        <time>2026-05-03T11:17:49Z</time>
      </trkpt>
      <trkpt lat="44.96045" lon="4.76992">
        <ele>463.1</ele>
        <time>2026-05-03T11:17:54Z</time>
      </trkpt>
      <trkpt lat="44.96037" lon="4.76989">
        <ele>463.1</ele>
        <time>2026-05-03T11:17:59Z</time>
      </trkpt>
      <trkpt lat="44.96033" lon="4.76987">
        <ele>463</ele>
        <time>2026-05-03T11:18:04Z</time>
      </trkpt>
      <trkpt lat="44.96031" lon="4.76986">
        <ele>463</ele>
        <time>2026-05-03T11:18:09Z</time>
      </trkpt>
      <trkpt lat="44.96028" lon="4.76983">
        <ele>462.9</ele>
        <time>2026-05-03T11:18:14Z</time>
      </trkpt>
      <trkpt lat="44.96028" lon="4.76983">
        <ele>462.9</ele>
        <time>2026-05-03T11:18:19Z</time>
      </trkpt>
      <trkpt lat="44.96028" lon="4.76983">
        <ele>462.9</ele>
        <time>2026-05-03T11:18:24Z</time>
      </trkpt>
      <trkpt lat="44.96028" lon="4.76983">
        <ele>462.9</ele>
        <time>2026-05-03T11:18:29Z</time>
      </trkpt>
      <trkpt lat="44.96028" lon="4.76983">
        <ele>462.9</ele>
        <time>2026-05-03T11:18:34Z</time>
      </trkpt>
      <trkpt lat="44.96028" lon="4.76983">
        <ele>462.9</ele>
        <time>2026-05-03T11:18:39Z</time>
      </trkpt>
      <trkpt lat="44.96028" lon="4.76983">
        <ele>462.9</ele>
        <time>2026-05-03T11:18:44Z</time>
      </trkpt>
      <trkpt lat="44.96028" lon="4.76983">
        <ele>462.9</ele>
        <time>2026-05-03T11:18:49Z</time>
      </trkpt>
      <trkpt lat="44.96028" lon="4.76983">
        <ele>462.9</ele>
        <time>2026-05-03T11:18:54Z</time>
      </trkpt>
      <trkpt lat="44.96028" lon="4.76983">
        <ele>462.9</ele>
        <time>2026-05-03T11:18:59Z</time>
      </trkpt>
      <trkpt lat="44.96028" lon="4.76983">
        <ele>462.9</ele>
        <time>2026-05-03T11:19:04Z</time>
      </trkpt>
      <trkpt lat="44.96028" lon="4.76983">
        <ele>462.9</ele>
        <time>2026-05-03T11:19:09Z</time>
      </trkpt>
      <trkpt lat="44.96028" lon="4.76983">
        <ele>462.9</ele>
        <time>2026-05-03T11:19:13Z</time>
      </trkpt>
      <trkpt lat="44.96028" lon="4.76983">
        <ele>462.9</ele>
        <time>2026-05-03T11:19:19Z</time>
      </trkpt>
      <trkpt lat="44.96024" lon="4.76981">
        <ele>462.7</ele>
        <time>2026-05-03T11:19:24Z</time>
      </trkpt>
      <trkpt lat="44.96018" lon="4.76979">
        <ele>462.5</ele>
        <time>2026-05-03T11:19:29Z</time>
      </trkpt>
      <trkpt lat="44.96012" lon="4.76975">
        <ele>462.2</ele>
        <time>2026-05-03T11:19:34Z</time>
      </trkpt>
      <trkpt lat="44.96007" lon="4.76969">
        <ele>461.8</ele>
        <time>2026-05-03T11:19:39Z</time>
      </trkpt>
      <trkpt lat="44.96002" lon="4.76963">
        <ele>461.3</ele>
        <time>2026-05-03T11:19:44Z</time>
      </trkpt>
      <trkpt lat="44.95997" lon="4.76956">
        <ele>461.1</ele>
        <time>2026-05-03T11:19:49Z</time>
      </trkpt>
      <trkpt lat="44.95993" lon="4.76951">
        <ele>461.2</ele>
        <time>2026-05-03T11:19:54Z</time>
      </trkpt>
      <trkpt lat="44.95989" lon="4.76945">
        <ele>461.3</ele>
        <time>2026-05-03T11:19:59Z</time>
      </trkpt>
      <trkpt lat="44.95988" lon="4.76938">
        <ele>461.2</ele>
        <time>2026-05-03T11:20:04Z</time>
      </trkpt>
      <trkpt lat="44.95988" lon="4.76929">
        <ele>460.9</ele>
        <time>2026-05-03T11:20:09Z</time>
      </trkpt>
      <trkpt lat="44.95987" lon="4.76921">
        <ele>460.8</ele>
        <time>2026-05-03T11:20:14Z</time>
      </trkpt>
      <trkpt lat="44.95985" lon="4.76914">
        <ele>461</ele>
        <time>2026-05-03T11:20:19Z</time>
      </trkpt>
      <trkpt lat="44.9598" lon="4.7691">
        <ele>461.8</ele>
        <time>2026-05-03T11:20:24Z</time>
      </trkpt>
      <trkpt lat="44.95975" lon="4.76904">
        <ele>462.6</ele>
        <time>2026-05-03T11:20:29Z</time>
      </trkpt>
      <trkpt lat="44.9597" lon="4.76899">
        <ele>463.4</ele>
        <time>2026-05-03T11:20:34Z</time>
      </trkpt>
      <trkpt lat="44.95964" lon="4.76894">
        <ele>464.3</ele>
        <time>2026-05-03T11:20:39Z</time>
      </trkpt>
      <trkpt lat="44.95957" lon="4.76897">
        <ele>465.1</ele>
        <time>2026-05-03T11:20:44Z</time>
      </trkpt>
      <trkpt lat="44.95954" lon="4.76907">
        <ele>465.3</ele>
        <time>2026-05-03T11:20:49Z</time>
      </trkpt>
      <trkpt lat="44.95951" lon="4.76916">
        <ele>465.5</ele>
        <time>2026-05-03T11:20:54Z</time>
      </trkpt>
      <trkpt lat="44.95948" lon="4.76926">
        <ele>465.5</ele>
        <time>2026-05-03T11:20:59Z</time>
      </trkpt>
      <trkpt lat="44.95944" lon="4.76935">
        <ele>465.6</ele>
        <time>2026-05-03T11:21:04Z</time>
      </trkpt>
      <trkpt lat="44.95943" lon="4.76937">
        <ele>465.7</ele>
        <time>2026-05-03T11:21:09Z</time>
      </trkpt>
      <trkpt lat="44.95939" lon="4.76944">
        <ele>465.7</ele>
        <time>2026-05-03T11:21:14Z</time>
      </trkpt>
      <trkpt lat="44.95936" lon="4.76953">
        <ele>465.5</ele>
        <time>2026-05-03T11:21:19Z</time>
      </trkpt>
      <trkpt lat="44.95932" lon="4.7696">
        <ele>465.4</ele>
        <time>2026-05-03T11:21:24Z</time>
      </trkpt>
      <trkpt lat="44.95928" lon="4.76966">
        <ele>465.2</ele>
        <time>2026-05-03T11:21:29Z</time>
      </trkpt>
      <trkpt lat="44.95922" lon="4.7697">
        <ele>465.3</ele>
        <time>2026-05-03T11:21:34Z</time>
      </trkpt>
      <trkpt lat="44.95918" lon="4.7697">
        <ele>465.5</ele>
        <time>2026-05-03T11:21:39Z</time>
      </trkpt>
      <trkpt lat="44.95916" lon="4.76969">
        <ele>465.8</ele>
        <time>2026-05-03T11:21:44Z</time>
      </trkpt>
      <trkpt lat="44.95915" lon="4.76967">
        <ele>466.2</ele>
        <time>2026-05-03T11:21:49Z</time>
      </trkpt>
      <trkpt lat="44.95915" lon="4.76967">
        <ele>466.2</ele>
        <time>2026-05-03T11:21:54Z</time>
      </trkpt>
      <trkpt lat="44.95905" lon="4.76968">
        <ele>468.4</ele>
        <time>2026-05-03T11:21:59Z</time>
      </trkpt>
      <trkpt lat="44.95898" lon="4.76969">
        <ele>470</ele>
        <time>2026-05-03T11:22:04Z</time>
      </trkpt>
      <trkpt lat="44.95891" lon="4.76966">
        <ele>471.9</ele>
        <time>2026-05-03T11:22:09Z</time>
      </trkpt>
      <trkpt lat="44.95888" lon="4.76956">
        <ele>473.2</ele>
        <time>2026-05-03T11:22:14Z</time>
      </trkpt>
      <trkpt lat="44.95883" lon="4.76951">
        <ele>474.6</ele>
        <time>2026-05-03T11:22:19Z</time>
      </trkpt>
      <trkpt lat="44.95877" lon="4.76946">
        <ele>476.2</ele>
        <time>2026-05-03T11:22:24Z</time>
      </trkpt>
      <trkpt lat="44.95873" lon="4.76944">
        <ele>477.1</ele>
        <time>2026-05-03T11:22:29Z</time>
      </trkpt>
      <trkpt lat="44.95872" lon="4.76946">
        <ele>477.2</ele>
        <time>2026-05-03T11:22:34Z</time>
      </trkpt>
      <trkpt lat="44.9587" lon="4.76946">
        <ele>477.7</ele>
        <time>2026-05-03T11:22:39Z</time>
      </trkpt>
      <trkpt lat="44.9587" lon="4.76946">
        <ele>477.7</ele>
        <time>2026-05-03T11:22:44Z</time>
      </trkpt>
      <trkpt lat="44.95867" lon="4.76939">
        <ele>478.6</ele>
        <time>2026-05-03T11:22:49Z</time>
      </trkpt>
      <trkpt lat="44.95865" lon="4.76935">
        <ele>479.2</ele>
        <time>2026-05-03T11:22:54Z</time>
      </trkpt>
      <trkpt lat="44.95867" lon="4.76933">
        <ele>478.9</ele>
        <time>2026-05-03T11:22:59Z</time>
      </trkpt>
      <trkpt lat="44.95867" lon="4.76933">
        <ele>478.9</ele>
        <time>2026-05-03T11:23:04Z</time>
      </trkpt>
      <trkpt lat="44.95867" lon="4.76933">
        <ele>478.9</ele>
        <time>2026-05-03T11:23:09Z</time>
      </trkpt>
      <trkpt lat="44.95867" lon="4.76933">
        <ele>478.9</ele>
        <time>2026-05-03T11:23:14Z</time>
      </trkpt>
      <trkpt lat="44.95869" lon="4.76931">
        <ele>478.5</ele>
        <time>2026-05-03T11:23:19Z</time>
      </trkpt>
      <trkpt lat="44.95868" lon="4.76924">
        <ele>479</ele>
        <time>2026-05-03T11:23:24Z</time>
      </trkpt>
      <trkpt lat="44.95867" lon="4.76918">
        <ele>479.5</ele>
        <time>2026-05-03T11:23:29Z</time>
      </trkpt>
      <trkpt lat="44.95866" lon="4.76914">
        <ele>479.5</ele>
        <time>2026-05-03T11:23:34Z</time>
      </trkpt>
      <trkpt lat="44.95869" lon="4.7691">
        <ele>478.7</ele>
        <time>2026-05-03T11:23:39Z</time>
      </trkpt>
      <trkpt lat="44.95872" lon="4.76906">
        <ele>477.9</ele>
        <time>2026-05-03T11:23:44Z</time>
      </trkpt>
      <trkpt lat="44.95874" lon="4.76903">
        <ele>477.3</ele>
        <time>2026-05-03T11:23:49Z</time>
      </trkpt>
      <trkpt lat="44.95876" lon="4.769">
        <ele>476.8</ele>
        <time>2026-05-03T11:23:54Z</time>
      </trkpt>
      <trkpt lat="44.9588" lon="4.76895">
        <ele>476</ele>
        <time>2026-05-03T11:23:59Z</time>
      </trkpt>
      <trkpt lat="44.95883" lon="4.7689">
        <ele>475.3</ele>
        <time>2026-05-03T11:24:04Z</time>
      </trkpt>
      <trkpt lat="44.95885" lon="4.76887">
        <ele>474.9</ele>
        <time>2026-05-03T11:24:09Z</time>
      </trkpt>
      <trkpt lat="44.95888" lon="4.76881">
        <ele>474.3</ele>
        <time>2026-05-03T11:24:14Z</time>
      </trkpt>
      <trkpt lat="44.9589" lon="4.76878">
        <ele>474</ele>
        <time>2026-05-03T11:24:19Z</time>
      </trkpt>
      <trkpt lat="44.95892" lon="4.76872">
        <ele>473.6</ele>
        <time>2026-05-03T11:24:24Z</time>
      </trkpt>
      <trkpt lat="44.95892" lon="4.76867">
        <ele>473.5</ele>
        <time>2026-05-03T11:24:29Z</time>
      </trkpt>
      <trkpt lat="44.95894" lon="4.76863">
        <ele>473.2</ele>
        <time>2026-05-03T11:24:34Z</time>
      </trkpt>
      <trkpt lat="44.95896" lon="4.76859">
        <ele>472.9</ele>
        <time>2026-05-03T11:24:39Z</time>
      </trkpt>
      <trkpt lat="44.95899" lon="4.76855">
        <ele>472.7</ele>
        <time>2026-05-03T11:24:44Z</time>
      </trkpt>
      <trkpt lat="44.959" lon="4.76851">
        <ele>472.6</ele>
        <time>2026-05-03T11:24:49Z</time>
      </trkpt>
      <trkpt lat="44.95902" lon="4.76847">
        <ele>472.4</ele>
        <time>2026-05-03T11:24:54Z</time>
      </trkpt>
      <trkpt lat="44.95902" lon="4.76843">
        <ele>472.4</ele>
        <time>2026-05-03T11:24:59Z</time>
      </trkpt>
      <trkpt lat="44.959" lon="4.76839">
        <ele>472.5</ele>
        <time>2026-05-03T11:25:04Z</time>
      </trkpt>
      <trkpt lat="44.95898" lon="4.76837">
        <ele>472.5</ele>
        <time>2026-05-03T11:25:09Z</time>
      </trkpt>
      <trkpt lat="44.95898" lon="4.76837">
        <ele>472.5</ele>
        <time>2026-05-03T11:25:14Z</time>
      </trkpt>
      <trkpt lat="44.95891" lon="4.7683">
        <ele>472.8</ele>
        <time>2026-05-03T11:25:19Z</time>
      </trkpt>
      <trkpt lat="44.95888" lon="4.76829">
        <ele>472.9</ele>
        <time>2026-05-03T11:25:24Z</time>
      </trkpt>
      <trkpt lat="44.95885" lon="4.76829">
        <ele>473</ele>
        <time>2026-05-03T11:25:29Z</time>
      </trkpt>
      <trkpt lat="44.95881" lon="4.7683">
        <ele>473.1</ele>
        <time>2026-05-03T11:25:34Z</time>
      </trkpt>
      <trkpt lat="44.95878" lon="4.7683">
        <ele>473.1</ele>
        <time>2026-05-03T11:25:39Z</time>
      </trkpt>
      <trkpt lat="44.95875" lon="4.7683">
        <ele>473.2</ele>
        <time>2026-05-03T11:25:44Z</time>
      </trkpt>
      <trkpt lat="44.95871" lon="4.76832">
        <ele>473.2</ele>
        <time>2026-05-03T11:25:49Z</time>
      </trkpt>
      <trkpt lat="44.95867" lon="4.76832">
        <ele>473.3</ele>
        <time>2026-05-03T11:25:54Z</time>
      </trkpt>
      <trkpt lat="44.95862" lon="4.76833">
        <ele>473.3</ele>
        <time>2026-05-03T11:25:59Z</time>
      </trkpt>
      <trkpt lat="44.95859" lon="4.76834">
        <ele>473.4</ele>
        <time>2026-05-03T11:26:04Z</time>
      </trkpt>
      <trkpt lat="44.95855" lon="4.76838">
        <ele>473.9</ele>
        <time>2026-05-03T11:26:09Z</time>
      </trkpt>
      <trkpt lat="44.95851" lon="4.76846">
        <ele>474.9</ele>
        <time>2026-05-03T11:26:14Z</time>
      </trkpt>
      <trkpt lat="44.95847" lon="4.7685">
        <ele>475.6</ele>
        <time>2026-05-03T11:26:19Z</time>
      </trkpt>
      <trkpt lat="44.95844" lon="4.76855">
        <ele>476.4</ele>
        <time>2026-05-03T11:26:24Z</time>
      </trkpt>
      <trkpt lat="44.95842" lon="4.7686">
        <ele>477.2</ele>
        <time>2026-05-03T11:26:29Z</time>
      </trkpt>
      <trkpt lat="44.95839" lon="4.76865">
        <ele>478.1</ele>
        <time>2026-05-03T11:26:34Z</time>
      </trkpt>
      <trkpt lat="44.95835" lon="4.7687">
        <ele>479.1</ele>
        <time>2026-05-03T11:26:39Z</time>
      </trkpt>
      <trkpt lat="44.95832" lon="4.76874">
        <ele>480.1</ele>
        <time>2026-05-03T11:26:44Z</time>
      </trkpt>
      <trkpt lat="44.95829" lon="4.76876">
        <ele>480.8</ele>
        <time>2026-05-03T11:26:49Z</time>
      </trkpt>
      <trkpt lat="44.95824" lon="4.7688">
        <ele>482.1</ele>
        <time>2026-05-03T11:26:54Z</time>
      </trkpt>
      <trkpt lat="44.95819" lon="4.76882">
        <ele>483.1</ele>
        <time>2026-05-03T11:26:59Z</time>
      </trkpt>
      <trkpt lat="44.95815" lon="4.76884">
        <ele>483.9</ele>
        <time>2026-05-03T11:27:04Z</time>
      </trkpt>
      <trkpt lat="44.95811" lon="4.76887">
        <ele>484.9</ele>
        <time>2026-05-03T11:27:09Z</time>
      </trkpt>
      <trkpt lat="44.95809" lon="4.76891">
        <ele>485.7</ele>
        <time>2026-05-03T11:27:14Z</time>
      </trkpt>
      <trkpt lat="44.95803" lon="4.76895">
        <ele>487</ele>
        <time>2026-05-03T11:27:19Z</time>
      </trkpt>
      <trkpt lat="44.95798" lon="4.76901">
        <ele>488.4</ele>
        <time>2026-05-03T11:27:24Z</time>
      </trkpt>
      <trkpt lat="44.95792" lon="4.76906">
        <ele>489.7</ele>
        <time>2026-05-03T11:27:29Z</time>
      </trkpt>
      <trkpt lat="44.95787" lon="4.7691">
        <ele>490.8</ele>
        <time>2026-05-03T11:27:34Z</time>
      </trkpt>
      <trkpt lat="44.95784" lon="4.76914">
        <ele>491.6</ele>
        <time>2026-05-03T11:27:39Z</time>
      </trkpt>
      <trkpt lat="44.95779" lon="4.76915">
        <ele>492.3</ele>
        <time>2026-05-03T11:27:44Z</time>
      </trkpt>
      <trkpt lat="44.95775" lon="4.76918">
        <ele>493</ele>
        <time>2026-05-03T11:27:49Z</time>
      </trkpt>
      <trkpt lat="44.95771" lon="4.7692">
        <ele>493.6</ele>
        <time>2026-05-03T11:27:54Z</time>
      </trkpt>
      <trkpt lat="44.95765" lon="4.76923">
        <ele>494.4</ele>
        <time>2026-05-03T11:27:59Z</time>
      </trkpt>
      <trkpt lat="44.9576" lon="4.76924">
        <ele>495.1</ele>
        <time>2026-05-03T11:28:04Z</time>
      </trkpt>
      <trkpt lat="44.95755" lon="4.76925">
        <ele>495.8</ele>
        <time>2026-05-03T11:28:09Z</time>
      </trkpt>
      <trkpt lat="44.95752" lon="4.76928">
        <ele>496.3</ele>
        <time>2026-05-03T11:28:14Z</time>
      </trkpt>
      <trkpt lat="44.95747" lon="4.7693">
        <ele>497.2</ele>
        <time>2026-05-03T11:28:19Z</time>
      </trkpt>
      <trkpt lat="44.95743" lon="4.76932">
        <ele>498.1</ele>
        <time>2026-05-03T11:28:24Z</time>
      </trkpt>
      <trkpt lat="44.95738" lon="4.76934">
        <ele>499.1</ele>
        <time>2026-05-03T11:28:29Z</time>
      </trkpt>
      <trkpt lat="44.95733" lon="4.76936">
        <ele>500.1</ele>
        <time>2026-05-03T11:28:34Z</time>
      </trkpt>
      <trkpt lat="44.95728" lon="4.76939">
        <ele>501.1</ele>
        <time>2026-05-03T11:28:39Z</time>
      </trkpt>
      <trkpt lat="44.95725" lon="4.76942">
        <ele>501.8</ele>
        <time>2026-05-03T11:28:44Z</time>
      </trkpt>
      <trkpt lat="44.95722" lon="4.76945">
        <ele>502.4</ele>
        <time>2026-05-03T11:28:49Z</time>
      </trkpt>
      <trkpt lat="44.95718" lon="4.76947">
        <ele>503.1</ele>
        <time>2026-05-03T11:28:54Z</time>
      </trkpt>
      <trkpt lat="44.95716" lon="4.76949">
        <ele>503.5</ele>
        <time>2026-05-03T11:28:59Z</time>
      </trkpt>
      <trkpt lat="44.95711" lon="4.76955">
        <ele>504.5</ele>
        <time>2026-05-03T11:29:04Z</time>
      </trkpt>
      <trkpt lat="44.95708" lon="4.76957">
        <ele>505</ele>
        <time>2026-05-03T11:29:09Z</time>
      </trkpt>
      <trkpt lat="44.95704" lon="4.76961">
        <ele>505.8</ele>
        <time>2026-05-03T11:29:14Z</time>
      </trkpt>
      <trkpt lat="44.957" lon="4.76965">
        <ele>506.4</ele>
        <time>2026-05-03T11:29:19Z</time>
      </trkpt>
      <trkpt lat="44.95696" lon="4.7697">
        <ele>507.1</ele>
        <time>2026-05-03T11:29:24Z</time>
      </trkpt>
      <trkpt lat="44.95691" lon="4.76975">
        <ele>507.9</ele>
        <time>2026-05-03T11:29:29Z</time>
      </trkpt>
      <trkpt lat="44.95689" lon="4.76977">
        <ele>508.2</ele>
        <time>2026-05-03T11:29:34Z</time>
      </trkpt>
      <trkpt lat="44.95684" lon="4.76979">
        <ele>508.9</ele>
        <time>2026-05-03T11:29:39Z</time>
      </trkpt>
      <trkpt lat="44.95676" lon="4.7698">
        <ele>510.1</ele>
        <time>2026-05-03T11:29:44Z</time>
      </trkpt>
      <trkpt lat="44.9567" lon="4.76984">
        <ele>510.9</ele>
        <time>2026-05-03T11:29:49Z</time>
      </trkpt>
      <trkpt lat="44.95667" lon="4.76987">
        <ele>511.3</ele>
        <time>2026-05-03T11:29:54Z</time>
      </trkpt>
      <trkpt lat="44.95662" lon="4.76987">
        <ele>511.9</ele>
        <time>2026-05-03T11:29:59Z</time>
      </trkpt>
      <trkpt lat="44.95659" lon="4.76989">
        <ele>512.3</ele>
        <time>2026-05-03T11:30:04Z</time>
      </trkpt>
      <trkpt lat="44.95654" lon="4.76991">
        <ele>512.9</ele>
        <time>2026-05-03T11:30:09Z</time>
      </trkpt>
      <trkpt lat="44.9565" lon="4.76993">
        <ele>513.4</ele>
        <time>2026-05-03T11:30:14Z</time>
      </trkpt>
      <trkpt lat="44.95647" lon="4.76996">
        <ele>513.7</ele>
        <time>2026-05-03T11:30:19Z</time>
      </trkpt>
      <trkpt lat="44.95642" lon="4.76997">
        <ele>514.3</ele>
        <time>2026-05-03T11:30:24Z</time>
      </trkpt>
      <trkpt lat="44.95636" lon="4.76999">
        <ele>515.1</ele>
        <time>2026-05-03T11:30:29Z</time>
      </trkpt>
      <trkpt lat="44.9563" lon="4.77001">
        <ele>515.7</ele>
        <time>2026-05-03T11:30:34Z</time>
      </trkpt>
      <trkpt lat="44.95624" lon="4.77">
        <ele>516.6</ele>
        <time>2026-05-03T11:30:39Z</time>
      </trkpt>
      <trkpt lat="44.9562" lon="4.77001">
        <ele>517.1</ele>
        <time>2026-05-03T11:30:44Z</time>
      </trkpt>
      <trkpt lat="44.95616" lon="4.77003">
        <ele>517.4</ele>
        <time>2026-05-03T11:30:49Z</time>
      </trkpt>
      <trkpt lat="44.95613" lon="4.77005">
        <ele>517.5</ele>
        <time>2026-05-03T11:30:54Z</time>
      </trkpt>
      <trkpt lat="44.9561" lon="4.77006">
        <ele>517.8</ele>
        <time>2026-05-03T11:30:59Z</time>
      </trkpt>
      <trkpt lat="44.95608" lon="4.77007">
        <ele>518</ele>
        <time>2026-05-03T11:31:04Z</time>
      </trkpt>
      <trkpt lat="44.95608" lon="4.77007">
        <ele>518</ele>
        <time>2026-05-03T11:31:09Z</time>
      </trkpt>
      <trkpt lat="44.95603" lon="4.77008">
        <ele>518.5</ele>
        <time>2026-05-03T11:31:14Z</time>
      </trkpt>
      <trkpt lat="44.95599" lon="4.77007">
        <ele>519.1</ele>
        <time>2026-05-03T11:31:19Z</time>
      </trkpt>
      <trkpt lat="44.95596" lon="4.77005">
        <ele>519.7</ele>
        <time>2026-05-03T11:31:24Z</time>
      </trkpt>
      <trkpt lat="44.95591" lon="4.77002">
        <ele>520.8</ele>
        <time>2026-05-03T11:31:29Z</time>
      </trkpt>
      <trkpt lat="44.95583" lon="4.77">
        <ele>522</ele>
        <time>2026-05-03T11:31:34Z</time>
      </trkpt>
      <trkpt lat="44.95578" lon="4.76995">
        <ele>522.8</ele>
        <time>2026-05-03T11:31:39Z</time>
      </trkpt>
      <trkpt lat="44.95573" lon="4.76991">
        <ele>523.5</ele>
        <time>2026-05-03T11:31:44Z</time>
      </trkpt>
      <trkpt lat="44.9557" lon="4.76986">
        <ele>524</ele>
        <time>2026-05-03T11:31:49Z</time>
      </trkpt>
      <trkpt lat="44.95566" lon="4.76981">
        <ele>524.7</ele>
        <time>2026-05-03T11:31:54Z</time>
      </trkpt>
      <trkpt lat="44.95562" lon="4.76977">
        <ele>525.3</ele>
        <time>2026-05-03T11:31:59Z</time>
      </trkpt>
      <trkpt lat="44.95558" lon="4.76972">
        <ele>525.9</ele>
        <time>2026-05-03T11:32:04Z</time>
      </trkpt>
      <trkpt lat="44.95554" lon="4.76969">
        <ele>526.5</ele>
        <time>2026-05-03T11:32:09Z</time>
      </trkpt>
      <trkpt lat="44.9555" lon="4.76966">
        <ele>527.2</ele>
        <time>2026-05-03T11:32:14Z</time>
      </trkpt>
      <trkpt lat="44.95546" lon="4.76966">
        <ele>527.6</ele>
        <time>2026-05-03T11:32:19Z</time>
      </trkpt>
      <trkpt lat="44.95541" lon="4.76964">
        <ele>528.3</ele>
        <time>2026-05-03T11:32:24Z</time>
      </trkpt>
      <trkpt lat="44.95535" lon="4.76962">
        <ele>529.1</ele>
        <time>2026-05-03T11:32:29Z</time>
      </trkpt>
      <trkpt lat="44.95529" lon="4.76961">
        <ele>529.9</ele>
        <time>2026-05-03T11:32:34Z</time>
      </trkpt>
      <trkpt lat="44.95523" lon="4.76959">
        <ele>530.7</ele>
        <time>2026-05-03T11:32:39Z</time>
      </trkpt>
      <trkpt lat="44.95517" lon="4.76958">
        <ele>531.5</ele>
        <time>2026-05-03T11:32:44Z</time>
      </trkpt>
      <trkpt lat="44.95512" lon="4.76958">
        <ele>532.1</ele>
        <time>2026-05-03T11:32:49Z</time>
      </trkpt>
      <trkpt lat="44.95507" lon="4.76959">
        <ele>532.6</ele>
        <time>2026-05-03T11:32:54Z</time>
      </trkpt>
      <trkpt lat="44.95502" lon="4.76959">
        <ele>533.2</ele>
        <time>2026-05-03T11:32:59Z</time>
      </trkpt>
      <trkpt lat="44.95497" lon="4.76959">
        <ele>533.7</ele>
        <time>2026-05-03T11:33:04Z</time>
      </trkpt>
      <trkpt lat="44.95493" lon="4.76961">
        <ele>534</ele>
        <time>2026-05-03T11:33:09Z</time>
      </trkpt>
      <trkpt lat="44.95488" lon="4.76962">
        <ele>534.4</ele>
        <time>2026-05-03T11:33:14Z</time>
      </trkpt>
      <trkpt lat="44.95484" lon="4.76964">
        <ele>534.6</ele>
        <time>2026-05-03T11:33:19Z</time>
      </trkpt>
      <trkpt lat="44.95479" lon="4.76968">
        <ele>534.8</ele>
        <time>2026-05-03T11:33:24Z</time>
      </trkpt>
      <trkpt lat="44.95476" lon="4.76972">
        <ele>534.9</ele>
        <time>2026-05-03T11:33:29Z</time>
      </trkpt>
      <trkpt lat="44.95473" lon="4.76978">
        <ele>534.8</ele>
        <time>2026-05-03T11:33:34Z</time>
      </trkpt>
      <trkpt lat="44.95469" lon="4.76982">
        <ele>535</ele>
        <time>2026-05-03T11:33:39Z</time>
      </trkpt>
      <trkpt lat="44.95466" lon="4.76987">
        <ele>535</ele>
        <time>2026-05-03T11:33:44Z</time>
      </trkpt>
      <trkpt lat="44.95464" lon="4.76994">
        <ele>534.8</ele>
        <time>2026-05-03T11:33:49Z</time>
      </trkpt>
      <trkpt lat="44.95463" lon="4.76999">
        <ele>534.6</ele>
        <time>2026-05-03T11:33:54Z</time>
      </trkpt>
      <trkpt lat="44.95459" lon="4.77003">
        <ele>534.7</ele>
        <time>2026-05-03T11:33:59Z</time>
      </trkpt>
      <trkpt lat="44.95454" lon="4.77004">
        <ele>535.1</ele>
        <time>2026-05-03T11:34:04Z</time>
      </trkpt>
      <trkpt lat="44.95449" lon="4.77005">
        <ele>535.6</ele>
        <time>2026-05-03T11:34:09Z</time>
      </trkpt>
      <trkpt lat="44.95443" lon="4.77006">
        <ele>536.1</ele>
        <time>2026-05-03T11:34:14Z</time>
      </trkpt>
      <trkpt lat="44.95438" lon="4.77005">
        <ele>536.6</ele>
        <time>2026-05-03T11:34:19Z</time>
      </trkpt>
      <trkpt lat="44.95433" lon="4.77006">
        <ele>537</ele>
        <time>2026-05-03T11:34:24Z</time>
      </trkpt>
      <trkpt lat="44.95428" lon="4.77007">
        <ele>537.4</ele>
        <time>2026-05-03T11:34:29Z</time>
      </trkpt>
      <trkpt lat="44.95422" lon="4.77007">
        <ele>538</ele>
        <time>2026-05-03T11:34:34Z</time>
      </trkpt>
      <trkpt lat="44.95417" lon="4.77007">
        <ele>538.5</ele>
        <time>2026-05-03T11:34:39Z</time>
      </trkpt>
      <trkpt lat="44.95411" lon="4.77006">
        <ele>538.6</ele>
        <time>2026-05-03T11:34:44Z</time>
      </trkpt>
      <trkpt lat="44.95405" lon="4.77004">
        <ele>538.7</ele>
        <time>2026-05-03T11:34:49Z</time>
      </trkpt>
      <trkpt lat="44.954" lon="4.77006">
        <ele>538.6</ele>
        <time>2026-05-03T11:34:54Z</time>
      </trkpt>
      <trkpt lat="44.95394" lon="4.77006">
        <ele>538.6</ele>
        <time>2026-05-03T11:34:59Z</time>
      </trkpt>
      <trkpt lat="44.95387" lon="4.77008">
        <ele>538.4</ele>
        <time>2026-05-03T11:35:04Z</time>
      </trkpt>
      <trkpt lat="44.95382" lon="4.7701">
        <ele>538.3</ele>
        <time>2026-05-03T11:35:09Z</time>
      </trkpt>
      <trkpt lat="44.95376" lon="4.7701">
        <ele>538.3</ele>
        <time>2026-05-03T11:35:14Z</time>
      </trkpt>
      <trkpt lat="44.95371" lon="4.77012">
        <ele>538.1</ele>
        <time>2026-05-03T11:35:19Z</time>
      </trkpt>
      <trkpt lat="44.95365" lon="4.77012">
        <ele>538.1</ele>
        <time>2026-05-03T11:35:24Z</time>
      </trkpt>
      <trkpt lat="44.95361" lon="4.77014">
        <ele>538</ele>
        <time>2026-05-03T11:35:29Z</time>
      </trkpt>
      <trkpt lat="44.95358" lon="4.77015">
        <ele>537.9</ele>
        <time>2026-05-03T11:35:34Z</time>
      </trkpt>
      <trkpt lat="44.95354" lon="4.77016">
        <ele>537.8</ele>
        <time>2026-05-03T11:35:39Z</time>
      </trkpt>
      <trkpt lat="44.9535" lon="4.77017">
        <ele>537.8</ele>
        <time>2026-05-03T11:35:44Z</time>
      </trkpt>
      <trkpt lat="44.95345" lon="4.77017">
        <ele>537.8</ele>
        <time>2026-05-03T11:35:49Z</time>
      </trkpt>
      <trkpt lat="44.95341" lon="4.77016">
        <ele>537.8</ele>
        <time>2026-05-03T11:35:54Z</time>
      </trkpt>
      <trkpt lat="44.95336" lon="4.77015">
        <ele>537.9</ele>
        <time>2026-05-03T11:35:59Z</time>
      </trkpt>
      <trkpt lat="44.95331" lon="4.77015">
        <ele>537.9</ele>
        <time>2026-05-03T11:36:04Z</time>
      </trkpt>
      <trkpt lat="44.95326" lon="4.77013">
        <ele>537.9</ele>
        <time>2026-05-03T11:36:09Z</time>
      </trkpt>
      <trkpt lat="44.95321" lon="4.77011">
        <ele>537.9</ele>
        <time>2026-05-03T11:36:14Z</time>
      </trkpt>
      <trkpt lat="44.95314" lon="4.7701">
        <ele>537.8</ele>
        <time>2026-05-03T11:36:19Z</time>
      </trkpt>
      <trkpt lat="44.95309" lon="4.77008">
        <ele>537.8</ele>
        <time>2026-05-03T11:36:24Z</time>
      </trkpt>
      <trkpt lat="44.95306" lon="4.77006">
        <ele>537.9</ele>
        <time>2026-05-03T11:36:29Z</time>
      </trkpt>
      <trkpt lat="44.95303" lon="4.77004">
        <ele>538</ele>
        <time>2026-05-03T11:36:34Z</time>
      </trkpt>
      <trkpt lat="44.95297" lon="4.77002">
        <ele>538</ele>
        <time>2026-05-03T11:36:39Z</time>
      </trkpt>
      <trkpt lat="44.95292" lon="4.76998">
        <ele>538.2</ele>
        <time>2026-05-03T11:36:44Z</time>
      </trkpt>
      <trkpt lat="44.95287" lon="4.76995">
        <ele>538.3</ele>
        <time>2026-05-03T11:36:49Z</time>
      </trkpt>
      <trkpt lat="44.95282" lon="4.7699">
        <ele>538.5</ele>
        <time>2026-05-03T11:36:54Z</time>
      </trkpt>
      <trkpt lat="44.95277" lon="4.76986">
        <ele>538.7</ele>
        <time>2026-05-03T11:36:59Z</time>
      </trkpt>
      <trkpt lat="44.95273" lon="4.7698">
        <ele>539.1</ele>
        <time>2026-05-03T11:37:04Z</time>
      </trkpt>
      <trkpt lat="44.95269" lon="4.76974">
        <ele>539.4</ele>
        <time>2026-05-03T11:37:09Z</time>
      </trkpt>
      <trkpt lat="44.95264" lon="4.76968">
        <ele>539.7</ele>
        <time>2026-05-03T11:37:14Z</time>
      </trkpt>
      <trkpt lat="44.95261" lon="4.76961">
        <ele>540.1</ele>
        <time>2026-05-03T11:37:19Z</time>
      </trkpt>
      <trkpt lat="44.95257" lon="4.76954">
        <ele>540.5</ele>
        <time>2026-05-03T11:37:24Z</time>
      </trkpt>
      <trkpt lat="44.95254" lon="4.76945">
        <ele>541.1</ele>
        <time>2026-05-03T11:37:29Z</time>
      </trkpt>
      <trkpt lat="44.95252" lon="4.76938">
        <ele>541.5</ele>
        <time>2026-05-03T11:37:34Z</time>
      </trkpt>
      <trkpt lat="44.95249" lon="4.7693">
        <ele>542</ele>
        <time>2026-05-03T11:37:39Z</time>
      </trkpt>
      <trkpt lat="44.95247" lon="4.76922">
        <ele>542.6</ele>
        <time>2026-05-03T11:37:44Z</time>
      </trkpt>
      <trkpt lat="44.95245" lon="4.76913">
        <ele>543.3</ele>
        <time>2026-05-03T11:37:49Z</time>
      </trkpt>
      <trkpt lat="44.95242" lon="4.76906">
        <ele>543.9</ele>
        <time>2026-05-03T11:37:54Z</time>
      </trkpt>
      <trkpt lat="44.95239" lon="4.76898">
        <ele>544.6</ele>
        <time>2026-05-03T11:37:59Z</time>
      </trkpt>
      <trkpt lat="44.95236" lon="4.76892">
        <ele>545.1</ele>
        <time>2026-05-03T11:38:04Z</time>
      </trkpt>
      <trkpt lat="44.95233" lon="4.76886">
        <ele>545.6</ele>
        <time>2026-05-03T11:38:09Z</time>
      </trkpt>
      <trkpt lat="44.95229" lon="4.7688">
        <ele>546.1</ele>
        <time>2026-05-03T11:38:14Z</time>
      </trkpt>
      <trkpt lat="44.95225" lon="4.76875">
        <ele>546.5</ele>
        <time>2026-05-03T11:38:19Z</time>
      </trkpt>
      <trkpt lat="44.95221" lon="4.7687">
        <ele>546.9</ele>
        <time>2026-05-03T11:38:24Z</time>
      </trkpt>
      <trkpt lat="44.95217" lon="4.76864">
        <ele>547.4</ele>
        <time>2026-05-03T11:38:29Z</time>
      </trkpt>
      <trkpt lat="44.95212" lon="4.76859">
        <ele>547.8</ele>
        <time>2026-05-03T11:38:34Z</time>
      </trkpt>
      <trkpt lat="44.95207" lon="4.76854">
        <ele>548.3</ele>
        <time>2026-05-03T11:38:39Z</time>
      </trkpt>
      <trkpt lat="44.95201" lon="4.76851">
        <ele>548.5</ele>
        <time>2026-05-03T11:38:44Z</time>
      </trkpt>
      <trkpt lat="44.95196" lon="4.76846">
        <ele>548.9</ele>
        <time>2026-05-03T11:38:49Z</time>
      </trkpt>
      <trkpt lat="44.95189" lon="4.76843">
        <ele>549.2</ele>
        <time>2026-05-03T11:38:54Z</time>
      </trkpt>
      <trkpt lat="44.95183" lon="4.76837">
        <ele>549.7</ele>
        <time>2026-05-03T11:38:59Z</time>
      </trkpt>
      <trkpt lat="44.95177" lon="4.76835">
        <ele>549.9</ele>
        <time>2026-05-03T11:39:04Z</time>
      </trkpt>
      <trkpt lat="44.95173" lon="4.76832">
        <ele>550.1</ele>
        <time>2026-05-03T11:39:09Z</time>
      </trkpt>
      <trkpt lat="44.95167" lon="4.76829">
        <ele>550.4</ele>
        <time>2026-05-03T11:39:14Z</time>
      </trkpt>
      <trkpt lat="44.95161" lon="4.76827">
        <ele>550.5</ele>
        <time>2026-05-03T11:39:19Z</time>
      </trkpt>
      <trkpt lat="44.95155" lon="4.76824">
        <ele>550.8</ele>
        <time>2026-05-03T11:39:24Z</time>
      </trkpt>
      <trkpt lat="44.95148" lon="4.76821">
        <ele>551</ele>
        <time>2026-05-03T11:39:29Z</time>
      </trkpt>
      <trkpt lat="44.95142" lon="4.76819">
        <ele>551.1</ele>
        <time>2026-05-03T11:39:34Z</time>
      </trkpt>
      <trkpt lat="44.95136" lon="4.76817">
        <ele>551.2</ele>
        <time>2026-05-03T11:39:39Z</time>
      </trkpt>
      <trkpt lat="44.9513" lon="4.76813">
        <ele>551.5</ele>
        <time>2026-05-03T11:39:44Z</time>
      </trkpt>
      <trkpt lat="44.95127" lon="4.76809">
        <ele>551.9</ele>
        <time>2026-05-03T11:39:49Z</time>
      </trkpt>
      <trkpt lat="44.95125" lon="4.76808">
        <ele>551.9</ele>
        <time>2026-05-03T11:39:54Z</time>
      </trkpt>
      <trkpt lat="44.9512" lon="4.76807">
        <ele>552</ele>
        <time>2026-05-03T11:39:59Z</time>
      </trkpt>
      <trkpt lat="44.95114" lon="4.76806">
        <ele>552</ele>
        <time>2026-05-03T11:40:04Z</time>
      </trkpt>
      <trkpt lat="44.95116" lon="4.76805">
        <ele>552.1</ele>
        <time>2026-05-03T11:40:09Z</time>
      </trkpt>
      <trkpt lat="44.95122" lon="4.76802">
        <ele>552.5</ele>
        <time>2026-05-03T11:40:14Z</time>
      </trkpt>
      <trkpt lat="44.95128" lon="4.76799">
        <ele>552.8</ele>
        <time>2026-05-03T11:40:19Z</time>
      </trkpt>
      <trkpt lat="44.95131" lon="4.76793">
        <ele>553.4</ele>
        <time>2026-05-03T11:40:24Z</time>
      </trkpt>
      <trkpt lat="44.95135" lon="4.76787">
        <ele>554.1</ele>
        <time>2026-05-03T11:40:29Z</time>
      </trkpt>
      <trkpt lat="44.95138" lon="4.76779">
        <ele>554.9</ele>
        <time>2026-05-03T11:40:34Z</time>
      </trkpt>
      <trkpt lat="44.95141" lon="4.76771">
        <ele>555.7</ele>
        <time>2026-05-03T11:40:39Z</time>
      </trkpt>
      <trkpt lat="44.95142" lon="4.76761">
        <ele>556.6</ele>
        <time>2026-05-03T11:40:44Z</time>
      </trkpt>
      <trkpt lat="44.95144" lon="4.76752">
        <ele>557.5</ele>
        <time>2026-05-03T11:40:49Z</time>
      </trkpt>
      <trkpt lat="44.95146" lon="4.76742">
        <ele>558.3</ele>
        <time>2026-05-03T11:40:54Z</time>
      </trkpt>
      <trkpt lat="44.95145" lon="4.76732">
        <ele>558.9</ele>
        <time>2026-05-03T11:40:59Z</time>
      </trkpt>
      <trkpt lat="44.95145" lon="4.76723">
        <ele>559.5</ele>
        <time>2026-05-03T11:41:04Z</time>
      </trkpt>
      <trkpt lat="44.95146" lon="4.76713">
        <ele>560.1</ele>
        <time>2026-05-03T11:41:09Z</time>
      </trkpt>
      <trkpt lat="44.95145" lon="4.76704">
        <ele>560.7</ele>
        <time>2026-05-03T11:41:14Z</time>
      </trkpt>
      <trkpt lat="44.95144" lon="4.76695">
        <ele>561.3</ele>
        <time>2026-05-03T11:41:19Z</time>
      </trkpt>
      <trkpt lat="44.95143" lon="4.76686">
        <ele>561.9</ele>
        <time>2026-05-03T11:41:24Z</time>
      </trkpt>
      <trkpt lat="44.95144" lon="4.76678">
        <ele>562.4</ele>
        <time>2026-05-03T11:41:29Z</time>
      </trkpt>
      <trkpt lat="44.95145" lon="4.76668">
        <ele>563</ele>
        <time>2026-05-03T11:41:34Z</time>
      </trkpt>
      <trkpt lat="44.95144" lon="4.76658">
        <ele>563</ele>
        <time>2026-05-03T11:41:39Z</time>
      </trkpt>
      <trkpt lat="44.95145" lon="4.76649">
        <ele>562.9</ele>
        <time>2026-05-03T11:41:44Z</time>
      </trkpt>
      <trkpt lat="44.95145" lon="4.76639">
        <ele>562.9</ele>
        <time>2026-05-03T11:41:49Z</time>
      </trkpt>
      <trkpt lat="44.95146" lon="4.7663">
        <ele>562.8</ele>
        <time>2026-05-03T11:41:54Z</time>
      </trkpt>
      <trkpt lat="44.95146" lon="4.7662">
        <ele>562.7</ele>
        <time>2026-05-03T11:41:59Z</time>
      </trkpt>
      <trkpt lat="44.95147" lon="4.7661">
        <ele>562.5</ele>
        <time>2026-05-03T11:42:04Z</time>
      </trkpt>
      <trkpt lat="44.95148" lon="4.766">
        <ele>562.4</ele>
        <time>2026-05-03T11:42:09Z</time>
      </trkpt>
      <trkpt lat="44.95149" lon="4.76592">
        <ele>562.2</ele>
        <time>2026-05-03T11:42:14Z</time>
      </trkpt>
      <trkpt lat="44.95154" lon="4.76583">
        <ele>561.5</ele>
        <time>2026-05-03T11:42:19Z</time>
      </trkpt>
      <trkpt lat="44.95157" lon="4.76572">
        <ele>560.2</ele>
        <time>2026-05-03T11:42:24Z</time>
      </trkpt>
      <trkpt lat="44.95161" lon="4.76562">
        <ele>558.9</ele>
        <time>2026-05-03T11:42:29Z</time>
      </trkpt>
      <trkpt lat="44.95164" lon="4.76552">
        <ele>557.7</ele>
        <time>2026-05-03T11:42:34Z</time>
      </trkpt>
      <trkpt lat="44.95166" lon="4.76542">
        <ele>556.6</ele>
        <time>2026-05-03T11:42:39Z</time>
      </trkpt>
      <trkpt lat="44.95168" lon="4.76532">
        <ele>555.6</ele>
        <time>2026-05-03T11:42:44Z</time>
      </trkpt>
      <trkpt lat="44.95171" lon="4.76522">
        <ele>554.6</ele>
        <time>2026-05-03T11:42:49Z</time>
      </trkpt>
      <trkpt lat="44.95172" lon="4.76514">
        <ele>553.9</ele>
        <time>2026-05-03T11:42:54Z</time>
      </trkpt>
      <trkpt lat="44.95175" lon="4.76505">
        <ele>553</ele>
        <time>2026-05-03T11:42:59Z</time>
      </trkpt>
      <trkpt lat="44.95177" lon="4.76495">
        <ele>552.2</ele>
        <time>2026-05-03T11:43:04Z</time>
      </trkpt>
      <trkpt lat="44.95179" lon="4.76485">
        <ele>551.5</ele>
        <time>2026-05-03T11:43:09Z</time>
      </trkpt>
      <trkpt lat="44.9518" lon="4.76473">
        <ele>550.8</ele>
        <time>2026-05-03T11:43:14Z</time>
      </trkpt>
      <trkpt lat="44.95181" lon="4.76463">
        <ele>550.2</ele>
        <time>2026-05-03T11:43:19Z</time>
      </trkpt>
      <trkpt lat="44.95182" lon="4.76451">
        <ele>549.4</ele>
        <time>2026-05-03T11:43:24Z</time>
      </trkpt>
      <trkpt lat="44.95183" lon="4.7644">
        <ele>548.8</ele>
        <time>2026-05-03T11:43:29Z</time>
      </trkpt>
      <trkpt lat="44.95182" lon="4.76429">
        <ele>548.2</ele>
        <time>2026-05-03T11:43:34Z</time>
      </trkpt>
      <trkpt lat="44.9518" lon="4.76421">
        <ele>547.8</ele>
        <time>2026-05-03T11:43:39Z</time>
      </trkpt>
      <trkpt lat="44.95174" lon="4.76416">
        <ele>547.7</ele>
        <time>2026-05-03T11:43:44Z</time>
      </trkpt>
      <trkpt lat="44.95168" lon="4.76414">
        <ele>547.7</ele>
        <time>2026-05-03T11:43:49Z</time>
      </trkpt>
      <trkpt lat="44.95161" lon="4.76411">
        <ele>547.7</ele>
        <time>2026-05-03T11:43:54Z</time>
      </trkpt>
      <trkpt lat="44.95154" lon="4.76411">
        <ele>548.1</ele>
        <time>2026-05-03T11:43:59Z</time>
      </trkpt>
      <trkpt lat="44.95148" lon="4.76409">
        <ele>548.2</ele>
        <time>2026-05-03T11:44:04Z</time>
      </trkpt>
      <trkpt lat="44.9514" lon="4.76409">
        <ele>548.7</ele>
        <time>2026-05-03T11:44:09Z</time>
      </trkpt>
      <trkpt lat="44.95133" lon="4.76405">
        <ele>548.6</ele>
        <time>2026-05-03T11:44:14Z</time>
      </trkpt>
      <trkpt lat="44.95128" lon="4.76403">
        <ele>548.6</ele>
        <time>2026-05-03T11:44:19Z</time>
      </trkpt>
      <trkpt lat="44.95121" lon="4.76401">
        <ele>548.7</ele>
        <time>2026-05-03T11:44:24Z</time>
      </trkpt>
      <trkpt lat="44.95114" lon="4.76398">
        <ele>548.7</ele>
        <time>2026-05-03T11:44:29Z</time>
      </trkpt>
      <trkpt lat="44.95108" lon="4.76395">
        <ele>548.6</ele>
        <time>2026-05-03T11:44:34Z</time>
      </trkpt>
      <trkpt lat="44.95102" lon="4.76389">
        <ele>548.1</ele>
        <time>2026-05-03T11:44:39Z</time>
      </trkpt>
      <trkpt lat="44.95096" lon="4.76384">
        <ele>547.7</ele>
        <time>2026-05-03T11:44:44Z</time>
      </trkpt>
      <trkpt lat="44.95089" lon="4.76381">
        <ele>547.6</ele>
        <time>2026-05-03T11:44:49Z</time>
      </trkpt>
      <trkpt lat="44.95082" lon="4.76375">
        <ele>547.1</ele>
        <time>2026-05-03T11:44:54Z</time>
      </trkpt>
      <trkpt lat="44.95074" lon="4.7637">
        <ele>547</ele>
        <time>2026-05-03T11:44:59Z</time>
      </trkpt>
      <trkpt lat="44.95067" lon="4.76366">
        <ele>546.9</ele>
        <time>2026-05-03T11:45:04Z</time>
      </trkpt>
      <trkpt lat="44.95061" lon="4.7636">
        <ele>546.5</ele>
        <time>2026-05-03T11:45:09Z</time>
      </trkpt>
      <trkpt lat="44.95053" lon="4.76357">
        <ele>546.7</ele>
        <time>2026-05-03T11:45:14Z</time>
      </trkpt>
      <trkpt lat="44.95046" lon="4.76352">
        <ele>546.6</ele>
        <time>2026-05-03T11:45:19Z</time>
      </trkpt>
      <trkpt lat="44.9504" lon="4.76349">
        <ele>546.7</ele>
        <time>2026-05-03T11:45:24Z</time>
      </trkpt>
      <trkpt lat="44.95036" lon="4.76345">
        <ele>546.5</ele>
        <time>2026-05-03T11:45:29Z</time>
      </trkpt>
      <trkpt lat="44.95031" lon="4.76341">
        <ele>546.4</ele>
        <time>2026-05-03T11:45:34Z</time>
      </trkpt>
      <trkpt lat="44.95025" lon="4.76335">
        <ele>546.1</ele>
        <time>2026-05-03T11:45:39Z</time>
      </trkpt>
      <trkpt lat="44.95018" lon="4.76331">
        <ele>546.1</ele>
        <time>2026-05-03T11:45:44Z</time>
      </trkpt>
      <trkpt lat="44.95011" lon="4.76325">
        <ele>545.8</ele>
        <time>2026-05-03T11:45:49Z</time>
      </trkpt>
      <trkpt lat="44.95005" lon="4.7632">
        <ele>545.5</ele>
        <time>2026-05-03T11:45:54Z</time>
      </trkpt>
      <trkpt lat="44.94997" lon="4.76317">
        <ele>545.6</ele>
        <time>2026-05-03T11:45:59Z</time>
      </trkpt>
      <trkpt lat="44.94993" lon="4.76315">
        <ele>545.4</ele>
        <time>2026-05-03T11:46:04Z</time>
      </trkpt>
      <trkpt lat="44.94986" lon="4.76311">
        <ele>545.2</ele>
        <time>2026-05-03T11:46:09Z</time>
      </trkpt>
      <trkpt lat="44.94979" lon="4.76307">
        <ele>544.9</ele>
        <time>2026-05-03T11:46:14Z</time>
      </trkpt>
      <trkpt lat="44.94972" lon="4.76302">
        <ele>544.5</ele>
        <time>2026-05-03T11:46:19Z</time>
      </trkpt>
      <trkpt lat="44.94965" lon="4.76299">
        <ele>544.4</ele>
        <time>2026-05-03T11:46:24Z</time>
      </trkpt>
      <trkpt lat="44.9496" lon="4.76298">
        <ele>544.5</ele>
        <time>2026-05-03T11:46:29Z</time>
      </trkpt>
      <trkpt lat="44.94954" lon="4.76294">
        <ele>544.3</ele>
        <time>2026-05-03T11:46:34Z</time>
      </trkpt>
      <trkpt lat="44.94946" lon="4.7629">
        <ele>544.2</ele>
        <time>2026-05-03T11:46:39Z</time>
      </trkpt>
      <trkpt lat="44.94939" lon="4.76286">
        <ele>544.1</ele>
        <time>2026-05-03T11:46:44Z</time>
      </trkpt>
      <trkpt lat="44.9493" lon="4.76282">
        <ele>544.1</ele>
        <time>2026-05-03T11:46:49Z</time>
      </trkpt>
      <trkpt lat="44.94925" lon="4.76278">
        <ele>543.9</ele>
        <time>2026-05-03T11:46:54Z</time>
      </trkpt>
      <trkpt lat="44.94919" lon="4.76275">
        <ele>543.9</ele>
        <time>2026-05-03T11:46:59Z</time>
      </trkpt>
      <trkpt lat="44.94915" lon="4.76269">
        <ele>543.5</ele>
        <time>2026-05-03T11:47:04Z</time>
      </trkpt>
      <trkpt lat="44.94909" lon="4.76262">
        <ele>543.4</ele>
        <time>2026-05-03T11:47:09Z</time>
      </trkpt>
      <trkpt lat="44.94902" lon="4.76255">
        <ele>543.5</ele>
        <time>2026-05-03T11:47:14Z</time>
      </trkpt>
      <trkpt lat="44.94894" lon="4.76245">
        <ele>544</ele>
        <time>2026-05-03T11:47:19Z</time>
      </trkpt>
      <trkpt lat="44.94888" lon="4.76237">
        <ele>544.8</ele>
        <time>2026-05-03T11:47:24Z</time>
      </trkpt>
      <trkpt lat="44.94883" lon="4.76231">
        <ele>545.4</ele>
        <time>2026-05-03T11:47:29Z</time>
      </trkpt>
      <trkpt lat="44.94878" lon="4.76223">
        <ele>546.1</ele>
        <time>2026-05-03T11:47:34Z</time>
      </trkpt>
      <trkpt lat="44.94874" lon="4.76212">
        <ele>546.6</ele>
        <time>2026-05-03T11:47:39Z</time>
      </trkpt>
      <trkpt lat="44.94871" lon="4.76203">
        <ele>547</ele>
        <time>2026-05-03T11:47:44Z</time>
      </trkpt>
      <trkpt lat="44.9487" lon="4.76193">
        <ele>547.2</ele>
        <time>2026-05-03T11:47:49Z</time>
      </trkpt>
      <trkpt lat="44.9487" lon="4.76182">
        <ele>547.2</ele>
        <time>2026-05-03T11:47:54Z</time>
      </trkpt>
      <trkpt lat="44.9487" lon="4.76173">
        <ele>547.2</ele>
        <time>2026-05-03T11:47:59Z</time>
      </trkpt>
      <trkpt lat="44.94871" lon="4.76164">
        <ele>547.1</ele>
        <time>2026-05-03T11:48:04Z</time>
      </trkpt>
      <trkpt lat="44.94871" lon="4.76155">
        <ele>547.1</ele>
        <time>2026-05-03T11:48:09Z</time>
      </trkpt>
      <trkpt lat="44.94872" lon="4.76146">
        <ele>547.1</ele>
        <time>2026-05-03T11:48:14Z</time>
      </trkpt>
      <trkpt lat="44.94873" lon="4.76137">
        <ele>547.1</ele>
        <time>2026-05-03T11:48:19Z</time>
      </trkpt>
      <trkpt lat="44.94873" lon="4.7613">
        <ele>547.2</ele>
        <time>2026-05-03T11:48:24Z</time>
      </trkpt>
      <trkpt lat="44.94872" lon="4.76128">
        <ele>547.3</ele>
        <time>2026-05-03T11:48:29Z</time>
      </trkpt>
      <trkpt lat="44.94875" lon="4.76121">
        <ele>547</ele>
        <time>2026-05-03T11:48:34Z</time>
      </trkpt>
      <trkpt lat="44.94878" lon="4.76115">
        <ele>546.8</ele>
        <time>2026-05-03T11:48:39Z</time>
      </trkpt>
      <trkpt lat="44.9488" lon="4.76109">
        <ele>546.7</ele>
        <time>2026-05-03T11:48:44Z</time>
      </trkpt>
      <trkpt lat="44.94882" lon="4.76101">
        <ele>546.6</ele>
        <time>2026-05-03T11:48:49Z</time>
      </trkpt>
      <trkpt lat="44.94883" lon="4.76094">
        <ele>546.7</ele>
        <time>2026-05-03T11:48:54Z</time>
      </trkpt>
      <trkpt lat="44.94884" lon="4.76087">
        <ele>546.7</ele>
        <time>2026-05-03T11:48:59Z</time>
      </trkpt>
      <trkpt lat="44.94886" lon="4.76082">
        <ele>546.6</ele>
        <time>2026-05-03T11:49:04Z</time>
      </trkpt>
      <trkpt lat="44.94887" lon="4.76073">
        <ele>547</ele>
        <time>2026-05-03T11:49:09Z</time>
      </trkpt>
      <trkpt lat="44.94887" lon="4.76067">
        <ele>547.3</ele>
        <time>2026-05-03T11:49:14Z</time>
      </trkpt>
      <trkpt lat="44.94888" lon="4.76062">
        <ele>547.5</ele>
        <time>2026-05-03T11:49:19Z</time>
      </trkpt>
      <trkpt lat="44.94889" lon="4.76057">
        <ele>547.7</ele>
        <time>2026-05-03T11:49:24Z</time>
      </trkpt>
      <trkpt lat="44.94893" lon="4.76051">
        <ele>547.8</ele>
        <time>2026-05-03T11:49:29Z</time>
      </trkpt>
      <trkpt lat="44.94896" lon="4.76046">
        <ele>547.9</ele>
        <time>2026-05-03T11:49:34Z</time>
      </trkpt>
      <trkpt lat="44.94899" lon="4.76041">
        <ele>548</ele>
        <time>2026-05-03T11:49:39Z</time>
      </trkpt>
      <trkpt lat="44.94901" lon="4.76038">
        <ele>548.1</ele>
        <time>2026-05-03T11:49:44Z</time>
      </trkpt>
      <trkpt lat="44.94902" lon="4.76036">
        <ele>548.1</ele>
        <time>2026-05-03T11:49:49Z</time>
      </trkpt>
      <trkpt lat="44.94905" lon="4.7603">
        <ele>548.4</ele>
        <time>2026-05-03T11:49:54Z</time>
      </trkpt>
      <trkpt lat="44.94908" lon="4.76025">
        <ele>548.6</ele>
        <time>2026-05-03T11:49:59Z</time>
      </trkpt>
      <trkpt lat="44.9491" lon="4.76019">
        <ele>548.9</ele>
        <time>2026-05-03T11:50:04Z</time>
      </trkpt>
      <trkpt lat="44.94914" lon="4.76016">
        <ele>548.9</ele>
        <time>2026-05-03T11:50:09Z</time>
      </trkpt>
      <trkpt lat="44.94916" lon="4.76009">
        <ele>549.4</ele>
        <time>2026-05-03T11:50:14Z</time>
      </trkpt>
      <trkpt lat="44.9492" lon="4.76004">
        <ele>549.7</ele>
        <time>2026-05-03T11:50:19Z</time>
      </trkpt>
      <trkpt lat="44.94923" lon="4.75999">
        <ele>550</ele>
        <time>2026-05-03T11:50:24Z</time>
      </trkpt>
      <trkpt lat="44.94926" lon="4.75994">
        <ele>550.3</ele>
        <time>2026-05-03T11:50:29Z</time>
      </trkpt>
      <trkpt lat="44.94929" lon="4.75991">
        <ele>550.4</ele>
        <time>2026-05-03T11:50:34Z</time>
      </trkpt>
      <trkpt lat="44.94932" lon="4.75987">
        <ele>550.6</ele>
        <time>2026-05-03T11:50:39Z</time>
      </trkpt>
      <trkpt lat="44.94935" lon="4.75983">
        <ele>550.8</ele>
        <time>2026-05-03T11:50:44Z</time>
      </trkpt>
      <trkpt lat="44.94938" lon="4.75979">
        <ele>551.1</ele>
        <time>2026-05-03T11:50:49Z</time>
      </trkpt>
      <trkpt lat="44.94938" lon="4.75973">
        <ele>551.4</ele>
        <time>2026-05-03T11:50:54Z</time>
      </trkpt>
      <trkpt lat="44.94933" lon="4.75971">
        <ele>551.6</ele>
        <time>2026-05-03T11:50:59Z</time>
      </trkpt>
      <trkpt lat="44.94926" lon="4.75967">
        <ele>551.9</ele>
        <time>2026-05-03T11:51:04Z</time>
      </trkpt>
      <trkpt lat="44.9492" lon="4.75964">
        <ele>552.1</ele>
        <time>2026-05-03T11:51:09Z</time>
      </trkpt>
      <trkpt lat="44.94915" lon="4.75962">
        <ele>552.3</ele>
        <time>2026-05-03T11:51:14Z</time>
      </trkpt>
      <trkpt lat="44.9491" lon="4.75962">
        <ele>552.3</ele>
        <time>2026-05-03T11:51:19Z</time>
      </trkpt>
      <trkpt lat="44.94906" lon="4.75957">
        <ele>552.5</ele>
        <time>2026-05-03T11:51:24Z</time>
      </trkpt>
      <trkpt lat="44.949" lon="4.75955">
        <ele>552.6</ele>
        <time>2026-05-03T11:51:29Z</time>
      </trkpt>
      <trkpt lat="44.94894" lon="4.7595">
        <ele>552.7</ele>
        <time>2026-05-03T11:51:34Z</time>
      </trkpt>
      <trkpt lat="44.94889" lon="4.75945">
        <ele>552.9</ele>
        <time>2026-05-03T11:51:39Z</time>
      </trkpt>
      <trkpt lat="44.94883" lon="4.7594">
        <ele>553</ele>
        <time>2026-05-03T11:51:44Z</time>
      </trkpt>
      <trkpt lat="44.94876" lon="4.75935">
        <ele>553</ele>
        <time>2026-05-03T11:51:49Z</time>
      </trkpt>
      <trkpt lat="44.94869" lon="4.7593">
        <ele>552.9</ele>
        <time>2026-05-03T11:51:54Z</time>
      </trkpt>
      <trkpt lat="44.94864" lon="4.75923">
        <ele>553</ele>
        <time>2026-05-03T11:51:59Z</time>
      </trkpt>
      <trkpt lat="44.94859" lon="4.75917">
        <ele>552.9</ele>
        <time>2026-05-03T11:52:04Z</time>
      </trkpt>
      <trkpt lat="44.94852" lon="4.75911">
        <ele>552.3</ele>
        <time>2026-05-03T11:52:09Z</time>
      </trkpt>
      <trkpt lat="44.94844" lon="4.75907">
        <ele>551.6</ele>
        <time>2026-05-03T11:52:14Z</time>
      </trkpt>
      <trkpt lat="44.94838" lon="4.75905">
        <ele>551.2</ele>
        <time>2026-05-03T11:52:19Z</time>
      </trkpt>
      <trkpt lat="44.9483" lon="4.75906">
        <ele>551</ele>
        <time>2026-05-03T11:52:24Z</time>
      </trkpt>
      <trkpt lat="44.94822" lon="4.75911">
        <ele>551.1</ele>
        <time>2026-05-03T11:52:29Z</time>
      </trkpt>
      <trkpt lat="44.94815" lon="4.75917">
        <ele>551.3</ele>
        <time>2026-05-03T11:52:34Z</time>
      </trkpt>
      <trkpt lat="44.94808" lon="4.75921">
        <ele>551.2</ele>
        <time>2026-05-03T11:52:39Z</time>
      </trkpt>
      <trkpt lat="44.94801" lon="4.75925">
        <ele>551.1</ele>
        <time>2026-05-03T11:52:44Z</time>
      </trkpt>
      <trkpt lat="44.94794" lon="4.75927">
        <ele>551.1</ele>
        <time>2026-05-03T11:52:49Z</time>
      </trkpt>
      <trkpt lat="44.9479" lon="4.7593">
        <ele>551.1</ele>
        <time>2026-05-03T11:52:54Z</time>
      </trkpt>
      <trkpt lat="44.94783" lon="4.75937">
        <ele>551.4</ele>
        <time>2026-05-03T11:52:59Z</time>
      </trkpt>
      <trkpt lat="44.94776" lon="4.75942">
        <ele>551.6</ele>
        <time>2026-05-03T11:53:04Z</time>
      </trkpt>
      <trkpt lat="44.94769" lon="4.75945">
        <ele>551.8</ele>
        <time>2026-05-03T11:53:09Z</time>
      </trkpt>
      <trkpt lat="44.94763" lon="4.75947">
        <ele>551.9</ele>
        <time>2026-05-03T11:53:14Z</time>
      </trkpt>
      <trkpt lat="44.94756" lon="4.75955">
        <ele>552.6</ele>
        <time>2026-05-03T11:53:19Z</time>
      </trkpt>
      <trkpt lat="44.94753" lon="4.7596">
        <ele>553.1</ele>
        <time>2026-05-03T11:53:24Z</time>
      </trkpt>
      <trkpt lat="44.94747" lon="4.75967">
        <ele>554</ele>
        <time>2026-05-03T11:53:29Z</time>
      </trkpt>
      <trkpt lat="44.94741" lon="4.75971">
        <ele>554.8</ele>
        <time>2026-05-03T11:53:34Z</time>
      </trkpt>
      <trkpt lat="44.94734" lon="4.75977">
        <ele>555.8</ele>
        <time>2026-05-03T11:53:39Z</time>
      </trkpt>
      <trkpt lat="44.94729" lon="4.75981">
        <ele>556.6</ele>
        <time>2026-05-03T11:53:44Z</time>
      </trkpt>
      <trkpt lat="44.94721" lon="4.75984">
        <ele>557.4</ele>
        <time>2026-05-03T11:53:49Z</time>
      </trkpt>
      <trkpt lat="44.94714" lon="4.75986">
        <ele>558.1</ele>
        <time>2026-05-03T11:53:54Z</time>
      </trkpt>
      <trkpt lat="44.94708" lon="4.75988">
        <ele>558.7</ele>
        <time>2026-05-03T11:53:59Z</time>
      </trkpt>
      <trkpt lat="44.94701" lon="4.75987">
        <ele>559.1</ele>
        <time>2026-05-03T11:54:04Z</time>
      </trkpt>
      <trkpt lat="44.94695" lon="4.75986">
        <ele>559.4</ele>
        <time>2026-05-03T11:54:09Z</time>
      </trkpt>
      <trkpt lat="44.94689" lon="4.75985">
        <ele>559.7</ele>
        <time>2026-05-03T11:54:14Z</time>
      </trkpt>
      <trkpt lat="44.94682" lon="4.75985">
        <ele>560.2</ele>
        <time>2026-05-03T11:54:19Z</time>
      </trkpt>
      <trkpt lat="44.94677" lon="4.75985">
        <ele>560.5</ele>
        <time>2026-05-03T11:54:24Z</time>
      </trkpt>
      <trkpt lat="44.94671" lon="4.75984">
        <ele>560.8</ele>
        <time>2026-05-03T11:54:29Z</time>
      </trkpt>
      <trkpt lat="44.94664" lon="4.75986">
        <ele>561.5</ele>
        <time>2026-05-03T11:54:34Z</time>
      </trkpt>
      <trkpt lat="44.94658" lon="4.75985">
        <ele>561.7</ele>
        <time>2026-05-03T11:54:39Z</time>
      </trkpt>
      <trkpt lat="44.94652" lon="4.75984">
        <ele>561.9</ele>
        <time>2026-05-03T11:54:44Z</time>
      </trkpt>
      <trkpt lat="44.94646" lon="4.7598">
        <ele>561.8</ele>
        <time>2026-05-03T11:54:49Z</time>
      </trkpt>
      <trkpt lat="44.94641" lon="4.75977">
        <ele>561.7</ele>
        <time>2026-05-03T11:54:54Z</time>
      </trkpt>
      <trkpt lat="44.94634" lon="4.75977">
        <ele>562.1</ele>
        <time>2026-05-03T11:54:59Z</time>
      </trkpt>
      <trkpt lat="44.94628" lon="4.75974">
        <ele>562.1</ele>
        <time>2026-05-03T11:55:04Z</time>
      </trkpt>
      <trkpt lat="44.94621" lon="4.75972">
        <ele>562.2</ele>
        <time>2026-05-03T11:55:09Z</time>
      </trkpt>
      <trkpt lat="44.94615" lon="4.7597">
        <ele>562.3</ele>
        <time>2026-05-03T11:55:14Z</time>
      </trkpt>
      <trkpt lat="44.94609" lon="4.75969">
        <ele>562.5</ele>
        <time>2026-05-03T11:55:19Z</time>
      </trkpt>
      <trkpt lat="44.94603" lon="4.75968">
        <ele>562.7</ele>
        <time>2026-05-03T11:55:24Z</time>
      </trkpt>
      <trkpt lat="44.94597" lon="4.75967">
        <ele>562.9</ele>
        <time>2026-05-03T11:55:29Z</time>
      </trkpt>
      <trkpt lat="44.94591" lon="4.75966">
        <ele>563.1</ele>
        <time>2026-05-03T11:55:34Z</time>
      </trkpt>
      <trkpt lat="44.94585" lon="4.75965">
        <ele>563.3</ele>
        <time>2026-05-03T11:55:39Z</time>
      </trkpt>
      <trkpt lat="44.94579" lon="4.75963">
        <ele>563.5</ele>
        <time>2026-05-03T11:55:44Z</time>
      </trkpt>
      <trkpt lat="44.94572" lon="4.75962">
        <ele>563.9</ele>
        <time>2026-05-03T11:55:49Z</time>
      </trkpt>
      <trkpt lat="44.94566" lon="4.7596">
        <ele>564.2</ele>
        <time>2026-05-03T11:55:54Z</time>
      </trkpt>
      <trkpt lat="44.94559" lon="4.7596">
        <ele>564.8</ele>
        <time>2026-05-03T11:55:59Z</time>
      </trkpt>
      <trkpt lat="44.94553" lon="4.75961">
        <ele>565.4</ele>
        <time>2026-05-03T11:56:04Z</time>
      </trkpt>
      <trkpt lat="44.94546" lon="4.7596">
        <ele>565.9</ele>
        <time>2026-05-03T11:56:09Z</time>
      </trkpt>
      <trkpt lat="44.9454" lon="4.75959">
        <ele>566.2</ele>
        <time>2026-05-03T11:56:14Z</time>
      </trkpt>
      <trkpt lat="44.94533" lon="4.75959">
        <ele>566.8</ele>
        <time>2026-05-03T11:56:19Z</time>
      </trkpt>
      <trkpt lat="44.94526" lon="4.75961">
        <ele>567.7</ele>
        <time>2026-05-03T11:56:24Z</time>
      </trkpt>
      <trkpt lat="44.9452" lon="4.7596">
        <ele>568</ele>
        <time>2026-05-03T11:56:29Z</time>
      </trkpt>
      <trkpt lat="44.94514" lon="4.75961">
        <ele>568.7</ele>
        <time>2026-05-03T11:56:34Z</time>
      </trkpt>
      <trkpt lat="44.94508" lon="4.75963">
        <ele>569.4</ele>
        <time>2026-05-03T11:56:39Z</time>
      </trkpt>
      <trkpt lat="44.94502" lon="4.75964">
        <ele>570.1</ele>
        <time>2026-05-03T11:56:44Z</time>
      </trkpt>
      <trkpt lat="44.94498" lon="4.75965">
        <ele>570.4</ele>
        <time>2026-05-03T11:56:49Z</time>
      </trkpt>
      <trkpt lat="44.94495" lon="4.75965">
        <ele>570.5</ele>
        <time>2026-05-03T11:56:54Z</time>
      </trkpt>
      <trkpt lat="44.9449" lon="4.75964">
        <ele>570.4</ele>
        <time>2026-05-03T11:56:59Z</time>
      </trkpt>
      <trkpt lat="44.94485" lon="4.75963">
        <ele>570.4</ele>
        <time>2026-05-03T11:57:04Z</time>
      </trkpt>
      <trkpt lat="44.94477" lon="4.75963">
        <ele>570.5</ele>
        <time>2026-05-03T11:57:09Z</time>
      </trkpt>
      <trkpt lat="44.94472" lon="4.75961">
        <ele>570.3</ele>
        <time>2026-05-03T11:57:14Z</time>
      </trkpt>
      <trkpt lat="44.94466" lon="4.75959">
        <ele>570.2</ele>
        <time>2026-05-03T11:57:19Z</time>
      </trkpt>
      <trkpt lat="44.94462" lon="4.75955">
        <ele>569.8</ele>
        <time>2026-05-03T11:57:24Z</time>
      </trkpt>
      <trkpt lat="44.94456" lon="4.75952">
        <ele>569.5</ele>
        <time>2026-05-03T11:57:29Z</time>
      </trkpt>
      <trkpt lat="44.9445" lon="4.75949">
        <ele>569.2</ele>
        <time>2026-05-03T11:57:34Z</time>
      </trkpt>
      <trkpt lat="44.94444" lon="4.75945">
        <ele>568.9</ele>
        <time>2026-05-03T11:57:39Z</time>
      </trkpt>
      <trkpt lat="44.94438" lon="4.75943">
        <ele>568.7</ele>
        <time>2026-05-03T11:57:44Z</time>
      </trkpt>
      <trkpt lat="44.94431" lon="4.75938">
        <ele>568.3</ele>
        <time>2026-05-03T11:57:49Z</time>
      </trkpt>
      <trkpt lat="44.94425" lon="4.75934">
        <ele>567.9</ele>
        <time>2026-05-03T11:57:54Z</time>
      </trkpt>
      <trkpt lat="44.94419" lon="4.75929">
        <ele>567.4</ele>
        <time>2026-05-03T11:57:59Z</time>
      </trkpt>
      <trkpt lat="44.94413" lon="4.75927">
        <ele>567.1</ele>
        <time>2026-05-03T11:58:04Z</time>
      </trkpt>
      <trkpt lat="44.94406" lon="4.75923">
        <ele>566.2</ele>
        <time>2026-05-03T11:58:09Z</time>
      </trkpt>
      <trkpt lat="44.94401" lon="4.75919">
        <ele>565.5</ele>
        <time>2026-05-03T11:58:14Z</time>
      </trkpt>
      <trkpt lat="44.94394" lon="4.75916">
        <ele>564.8</ele>
        <time>2026-05-03T11:58:19Z</time>
      </trkpt>
      <trkpt lat="44.94387" lon="4.75915">
        <ele>564.3</ele>
        <time>2026-05-03T11:58:24Z</time>
      </trkpt>
      <trkpt lat="44.94381" lon="4.75914">
        <ele>563.9</ele>
        <time>2026-05-03T11:58:29Z</time>
      </trkpt>
      <trkpt lat="44.94374" lon="4.75911">
        <ele>563.1</ele>
        <time>2026-05-03T11:58:34Z</time>
      </trkpt>
      <trkpt lat="44.94367" lon="4.7591">
        <ele>562.7</ele>
        <time>2026-05-03T11:58:39Z</time>
      </trkpt>
      <trkpt lat="44.94361" lon="4.7591">
        <ele>562.4</ele>
        <time>2026-05-03T11:58:44Z</time>
      </trkpt>
      <trkpt lat="44.94354" lon="4.7591">
        <ele>562.1</ele>
        <time>2026-05-03T11:58:49Z</time>
      </trkpt>
      <trkpt lat="44.94349" lon="4.75912">
        <ele>562.2</ele>
        <time>2026-05-03T11:58:54Z</time>
      </trkpt>
      <trkpt lat="44.94343" lon="4.75912">
        <ele>561.9</ele>
        <time>2026-05-03T11:58:59Z</time>
      </trkpt>
      <trkpt lat="44.94337" lon="4.75912">
        <ele>561.7</ele>
        <time>2026-05-03T11:59:04Z</time>
      </trkpt>
      <trkpt lat="44.94331" lon="4.75913">
        <ele>561.7</ele>
        <time>2026-05-03T11:59:09Z</time>
      </trkpt>
      <trkpt lat="44.94324" lon="4.75914">
        <ele>562.3</ele>
        <time>2026-05-03T11:59:14Z</time>
      </trkpt>
      <trkpt lat="44.94317" lon="4.75915">
        <ele>562.8</ele>
        <time>2026-05-03T11:59:19Z</time>
      </trkpt>
      <trkpt lat="44.94311" lon="4.75918">
        <ele>563.5</ele>
        <time>2026-05-03T11:59:24Z</time>
      </trkpt>
      <trkpt lat="44.94306" lon="4.75921">
        <ele>564.1</ele>
        <time>2026-05-03T11:59:29Z</time>
      </trkpt>
      <trkpt lat="44.943" lon="4.75924">
        <ele>564.7</ele>
        <time>2026-05-03T11:59:34Z</time>
      </trkpt>
      <trkpt lat="44.94295" lon="4.7593">
        <ele>565.5</ele>
        <time>2026-05-03T11:59:39Z</time>
      </trkpt>
      <trkpt lat="44.9429" lon="4.75936">
        <ele>566.3</ele>
        <time>2026-05-03T11:59:44Z</time>
      </trkpt>
      <trkpt lat="44.94286" lon="4.75941">
        <ele>567</ele>
        <time>2026-05-03T11:59:49Z</time>
      </trkpt>
      <trkpt lat="44.94283" lon="4.75948">
        <ele>567.7</ele>
        <time>2026-05-03T11:59:54Z</time>
      </trkpt>
      <trkpt lat="44.9428" lon="4.75955">
        <ele>568.5</ele>
        <time>2026-05-03T11:59:59Z</time>
      </trkpt>
      <trkpt lat="44.94277" lon="4.75961">
        <ele>569.1</ele>
        <time>2026-05-03T12:00:04Z</time>
      </trkpt>
      <trkpt lat="44.94274" lon="4.75969">
        <ele>569.9</ele>
        <time>2026-05-03T12:00:09Z</time>
      </trkpt>
      <trkpt lat="44.94271" lon="4.75978">
        <ele>570.7</ele>
        <time>2026-05-03T12:00:14Z</time>
      </trkpt>
      <trkpt lat="44.94268" lon="4.75987">
        <ele>571.5</ele>
        <time>2026-05-03T12:00:19Z</time>
      </trkpt>
      <trkpt lat="44.94266" lon="4.75994">
        <ele>572.1</ele>
        <time>2026-05-03T12:00:24Z</time>
      </trkpt>
      <trkpt lat="44.94263" lon="4.76">
        <ele>572.7</ele>
        <time>2026-05-03T12:00:29Z</time>
      </trkpt>
      <trkpt lat="44.9426" lon="4.76007">
        <ele>573.7</ele>
        <time>2026-05-03T12:00:34Z</time>
      </trkpt>
      <trkpt lat="44.94257" lon="4.76013">
        <ele>574.7</ele>
        <time>2026-05-03T12:00:39Z</time>
      </trkpt>
      <trkpt lat="44.94254" lon="4.7602">
        <ele>575.7</ele>
        <time>2026-05-03T12:00:44Z</time>
      </trkpt>
      <trkpt lat="44.9425" lon="4.76024">
        <ele>576.5</ele>
        <time>2026-05-03T12:00:49Z</time>
      </trkpt>
      <trkpt lat="44.94245" lon="4.76029">
        <ele>577.9</ele>
        <time>2026-05-03T12:00:54Z</time>
      </trkpt>
      <trkpt lat="44.9424" lon="4.76032">
        <ele>579.1</ele>
        <time>2026-05-03T12:00:59Z</time>
      </trkpt>
      <trkpt lat="44.94233" lon="4.76034">
        <ele>580.5</ele>
        <time>2026-05-03T12:01:04Z</time>
      </trkpt>
      <trkpt lat="44.94228" lon="4.76033">
        <ele>581.1</ele>
        <time>2026-05-03T12:01:09Z</time>
      </trkpt>
      <trkpt lat="44.94222" lon="4.76034">
        <ele>582.2</ele>
        <time>2026-05-03T12:01:14Z</time>
      </trkpt>
      <trkpt lat="44.94214" lon="4.76032">
        <ele>583.1</ele>
        <time>2026-05-03T12:01:19Z</time>
      </trkpt>
      <trkpt lat="44.94206" lon="4.76033">
        <ele>584.5</ele>
        <time>2026-05-03T12:01:24Z</time>
      </trkpt>
      <trkpt lat="44.942" lon="4.76031">
        <ele>585.1</ele>
        <time>2026-05-03T12:01:29Z</time>
      </trkpt>
      <trkpt lat="44.94194" lon="4.76024">
        <ele>584.9</ele>
        <time>2026-05-03T12:01:34Z</time>
      </trkpt>
      <trkpt lat="44.94187" lon="4.76019">
        <ele>585.2</ele>
        <time>2026-05-03T12:01:39Z</time>
      </trkpt>
      <trkpt lat="44.94182" lon="4.76013">
        <ele>584.9</ele>
        <time>2026-05-03T12:01:44Z</time>
      </trkpt>
      <trkpt lat="44.94176" lon="4.7601">
        <ele>585.3</ele>
        <time>2026-05-03T12:01:49Z</time>
      </trkpt>
      <trkpt lat="44.94171" lon="4.76006">
        <ele>585.4</ele>
        <time>2026-05-03T12:01:54Z</time>
      </trkpt>
      <trkpt lat="44.94166" lon="4.76">
        <ele>585.1</ele>
        <time>2026-05-03T12:01:59Z</time>
      </trkpt>
      <trkpt lat="44.94161" lon="4.75996">
        <ele>585.2</ele>
        <time>2026-05-03T12:02:04Z</time>
      </trkpt>
      <trkpt lat="44.94157" lon="4.75991">
        <ele>585</ele>
        <time>2026-05-03T12:02:09Z</time>
      </trkpt>
      <trkpt lat="44.94151" lon="4.75987">
        <ele>585.2</ele>
        <time>2026-05-03T12:02:14Z</time>
      </trkpt>
      <trkpt lat="44.94145" lon="4.75981">
        <ele>585.1</ele>
        <time>2026-05-03T12:02:19Z</time>
      </trkpt>
      <trkpt lat="44.9414" lon="4.75976">
        <ele>585</ele>
        <time>2026-05-03T12:02:24Z</time>
      </trkpt>
      <trkpt lat="44.94134" lon="4.75973">
        <ele>585.3</ele>
        <time>2026-05-03T12:02:29Z</time>
      </trkpt>
      <trkpt lat="44.94129" lon="4.75968">
        <ele>585.2</ele>
        <time>2026-05-03T12:02:34Z</time>
      </trkpt>
      <trkpt lat="44.94123" lon="4.75963">
        <ele>585.1</ele>
        <time>2026-05-03T12:02:39Z</time>
      </trkpt>
      <trkpt lat="44.94118" lon="4.75958">
        <ele>584.9</ele>
        <time>2026-05-03T12:02:44Z</time>
      </trkpt>
      <trkpt lat="44.94112" lon="4.75953">
        <ele>584.8</ele>
        <time>2026-05-03T12:02:49Z</time>
      </trkpt>
      <trkpt lat="44.94106" lon="4.7595">
        <ele>585</ele>
        <time>2026-05-03T12:02:54Z</time>
      </trkpt>
      <trkpt lat="44.941" lon="4.75946">
        <ele>585</ele>
        <time>2026-05-03T12:02:59Z</time>
      </trkpt>
      <trkpt lat="44.94095" lon="4.75944">
        <ele>585.1</ele>
        <time>2026-05-03T12:03:04Z</time>
      </trkpt>
      <trkpt lat="44.94089" lon="4.7594">
        <ele>585.1</ele>
        <time>2026-05-03T12:03:09Z</time>
      </trkpt>
      <trkpt lat="44.94083" lon="4.75938">
        <ele>585.4</ele>
        <time>2026-05-03T12:03:14Z</time>
      </trkpt>
      <trkpt lat="44.94076" lon="4.75935">
        <ele>585.5</ele>
        <time>2026-05-03T12:03:19Z</time>
      </trkpt>
      <trkpt lat="44.9407" lon="4.75931">
        <ele>585.5</ele>
        <time>2026-05-03T12:03:24Z</time>
      </trkpt>
      <trkpt lat="44.94063" lon="4.75928">
        <ele>585.7</ele>
        <time>2026-05-03T12:03:29Z</time>
      </trkpt>
      <trkpt lat="44.94058" lon="4.75925">
        <ele>585.7</ele>
        <time>2026-05-03T12:03:34Z</time>
      </trkpt>
      <trkpt lat="44.94051" lon="4.75922">
        <ele>585.9</ele>
        <time>2026-05-03T12:03:39Z</time>
      </trkpt>
      <trkpt lat="44.94045" lon="4.7592">
        <ele>586.2</ele>
        <time>2026-05-03T12:03:44Z</time>
      </trkpt>
      <trkpt lat="44.94039" lon="4.75916">
        <ele>586.2</ele>
        <time>2026-05-03T12:03:49Z</time>
      </trkpt>
      <trkpt lat="44.94034" lon="4.75914">
        <ele>586.5</ele>
        <time>2026-05-03T12:03:54Z</time>
      </trkpt>
      <trkpt lat="44.94028" lon="4.75911">
        <ele>586.9</ele>
        <time>2026-05-03T12:03:59Z</time>
      </trkpt>
      <trkpt lat="44.94024" lon="4.75908">
        <ele>587</ele>
        <time>2026-05-03T12:04:04Z</time>
      </trkpt>
      <trkpt lat="44.94019" lon="4.75906">
        <ele>587.4</ele>
        <time>2026-05-03T12:04:09Z</time>
      </trkpt>
      <trkpt lat="44.94011" lon="4.75903">
        <ele>587.9</ele>
        <time>2026-05-03T12:04:14Z</time>
      </trkpt>
      <trkpt lat="44.94005" lon="4.75899">
        <ele>588.2</ele>
        <time>2026-05-03T12:04:19Z</time>
      </trkpt>
      <trkpt lat="44.93998" lon="4.75895">
        <ele>588.3</ele>
        <time>2026-05-03T12:04:24Z</time>
      </trkpt>
      <trkpt lat="44.93992" lon="4.75891">
        <ele>587.6</ele>
        <time>2026-05-03T12:04:29Z</time>
      </trkpt>
      <trkpt lat="44.93986" lon="4.75887">
        <ele>587</ele>
        <time>2026-05-03T12:04:34Z</time>
      </trkpt>
      <trkpt lat="44.9398" lon="4.75882">
        <ele>586.3</ele>
        <time>2026-05-03T12:04:39Z</time>
      </trkpt>
      <trkpt lat="44.93973" lon="4.75879">
        <ele>585.8</ele>
        <time>2026-05-03T12:04:44Z</time>
      </trkpt>
      <trkpt lat="44.93968" lon="4.75875">
        <ele>585.5</ele>
        <time>2026-05-03T12:04:49Z</time>
      </trkpt>
      <trkpt lat="44.93961" lon="4.75872">
        <ele>585.1</ele>
        <time>2026-05-03T12:04:54Z</time>
      </trkpt>
      <trkpt lat="44.93955" lon="4.75869">
        <ele>584.8</ele>
        <time>2026-05-03T12:04:59Z</time>
      </trkpt>
      <trkpt lat="44.93949" lon="4.75865">
        <ele>584.6</ele>
        <time>2026-05-03T12:05:04Z</time>
      </trkpt>
      <trkpt lat="44.93943" lon="4.75863">
        <ele>584.4</ele>
        <time>2026-05-03T12:05:09Z</time>
      </trkpt>
      <trkpt lat="44.93936" lon="4.7586">
        <ele>584.2</ele>
        <time>2026-05-03T12:05:14Z</time>
      </trkpt>
      <trkpt lat="44.93931" lon="4.75858">
        <ele>584.2</ele>
        <time>2026-05-03T12:05:19Z</time>
      </trkpt>
      <trkpt lat="44.93925" lon="4.75855">
        <ele>584.1</ele>
        <time>2026-05-03T12:05:24Z</time>
      </trkpt>
      <trkpt lat="44.93919" lon="4.75852">
        <ele>584.1</ele>
        <time>2026-05-03T12:05:29Z</time>
      </trkpt>
      <trkpt lat="44.93913" lon="4.7585">
        <ele>583.4</ele>
        <time>2026-05-03T12:05:34Z</time>
      </trkpt>
      <trkpt lat="44.93906" lon="4.75846">
        <ele>582</ele>
        <time>2026-05-03T12:05:39Z</time>
      </trkpt>
      <trkpt lat="44.939" lon="4.75844">
        <ele>580.8</ele>
        <time>2026-05-03T12:05:44Z</time>
      </trkpt>
      <trkpt lat="44.93894" lon="4.75841">
        <ele>579.7</ele>
        <time>2026-05-03T12:05:49Z</time>
      </trkpt>
      <trkpt lat="44.93887" lon="4.75838">
        <ele>578.3</ele>
        <time>2026-05-03T12:05:54Z</time>
      </trkpt>
      <trkpt lat="44.93882" lon="4.75836">
        <ele>577.3</ele>
        <time>2026-05-03T12:05:59Z</time>
      </trkpt>
      <trkpt lat="44.93876" lon="4.75833">
        <ele>576.2</ele>
        <time>2026-05-03T12:06:04Z</time>
      </trkpt>
      <trkpt lat="44.93869" lon="4.75829">
        <ele>575</ele>
        <time>2026-05-03T12:06:09Z</time>
      </trkpt>
      <trkpt lat="44.93864" lon="4.75826">
        <ele>574.2</ele>
        <time>2026-05-03T12:06:14Z</time>
      </trkpt>
      <trkpt lat="44.93859" lon="4.75824">
        <ele>573.3</ele>
        <time>2026-05-03T12:06:19Z</time>
      </trkpt>
      <trkpt lat="44.93859" lon="4.75824">
        <ele>573.3</ele>
        <time>2026-05-03T12:06:24Z</time>
      </trkpt>
      <trkpt lat="44.93857" lon="4.75823">
        <ele>573</ele>
        <time>2026-05-03T12:06:29Z</time>
      </trkpt>
      <trkpt lat="44.93852" lon="4.75818">
        <ele>572.4</ele>
        <time>2026-05-03T12:06:34Z</time>
      </trkpt>
      <trkpt lat="44.93849" lon="4.75812">
        <ele>572.4</ele>
        <time>2026-05-03T12:06:39Z</time>
      </trkpt>
      <trkpt lat="44.93849" lon="4.75804">
        <ele>573.2</ele>
        <time>2026-05-03T12:06:44Z</time>
      </trkpt>
      <trkpt lat="44.93854" lon="4.75801">
        <ele>574.4</ele>
        <time>2026-05-03T12:06:49Z</time>
      </trkpt>
      <trkpt lat="44.93859" lon="4.75801">
        <ele>575.3</ele>
        <time>2026-05-03T12:06:54Z</time>
      </trkpt>
      <trkpt lat="44.93859" lon="4.75801">
        <ele>575.3</ele>
        <time>2026-05-03T12:06:59Z</time>
      </trkpt>
      <trkpt lat="44.93859" lon="4.75801">
        <ele>575.3</ele>
        <time>2026-05-03T12:07:04Z</time>
      </trkpt>
      <trkpt lat="44.93859" lon="4.75801">
        <ele>575.3</ele>
        <time>2026-05-03T12:07:09Z</time>
      </trkpt>
      <trkpt lat="44.93859" lon="4.75801">
        <ele>575.3</ele>
        <time>2026-05-03T12:07:14Z</time>
      </trkpt>
      <trkpt lat="44.93858" lon="4.75796">
        <ele>575.6</ele>
        <time>2026-05-03T12:07:19Z</time>
      </trkpt>
      <trkpt lat="44.93853" lon="4.75792">
        <ele>575</ele>
        <time>2026-05-03T12:07:24Z</time>
      </trkpt>
      <trkpt lat="44.93849" lon="4.75786">
        <ele>574.9</ele>
        <time>2026-05-03T12:07:29Z</time>
      </trkpt>
      <trkpt lat="44.93847" lon="4.75778">
        <ele>575.3</ele>
        <time>2026-05-03T12:07:34Z</time>
      </trkpt>
      <trkpt lat="44.93846" lon="4.7577">
        <ele>575.9</ele>
        <time>2026-05-03T12:07:39Z</time>
      </trkpt>
      <trkpt lat="44.93844" lon="4.75761">
        <ele>576.4</ele>
        <time>2026-05-03T12:07:44Z</time>
      </trkpt>
      <trkpt lat="44.93843" lon="4.75752">
        <ele>577.2</ele>
        <time>2026-05-03T12:07:49Z</time>
      </trkpt>
      <trkpt lat="44.93841" lon="4.75744">
        <ele>578.1</ele>
        <time>2026-05-03T12:07:54Z</time>
      </trkpt>
      <trkpt lat="44.9384" lon="4.75735">
        <ele>579.4</ele>
        <time>2026-05-03T12:07:59Z</time>
      </trkpt>
      <trkpt lat="44.9384" lon="4.75726">
        <ele>580.8</ele>
        <time>2026-05-03T12:08:04Z</time>
      </trkpt>
      <trkpt lat="44.9384" lon="4.75717">
        <ele>582.3</ele>
        <time>2026-05-03T12:08:09Z</time>
      </trkpt>
      <trkpt lat="44.9384" lon="4.75708">
        <ele>583.7</ele>
        <time>2026-05-03T12:08:14Z</time>
      </trkpt>
      <trkpt lat="44.93841" lon="4.75702">
        <ele>584.8</ele>
        <time>2026-05-03T12:08:19Z</time>
      </trkpt>
      <trkpt lat="44.93842" lon="4.757">
        <ele>585.2</ele>
        <time>2026-05-03T12:08:24Z</time>
      </trkpt>
      <trkpt lat="44.93842" lon="4.757">
        <ele>585.2</ele>
        <time>2026-05-03T12:08:29Z</time>
      </trkpt>
      <trkpt lat="44.93842" lon="4.75694">
        <ele>586.2</ele>
        <time>2026-05-03T12:08:34Z</time>
      </trkpt>
      <trkpt lat="44.9384" lon="4.75687">
        <ele>587.1</ele>
        <time>2026-05-03T12:08:39Z</time>
      </trkpt>
      <trkpt lat="44.93839" lon="4.75681">
        <ele>588</ele>
        <time>2026-05-03T12:08:44Z</time>
      </trkpt>
      <trkpt lat="44.93838" lon="4.75675">
        <ele>588.9</ele>
        <time>2026-05-03T12:08:49Z</time>
      </trkpt>
      <trkpt lat="44.93837" lon="4.7567">
        <ele>589.7</ele>
        <time>2026-05-03T12:08:54Z</time>
      </trkpt>
      <trkpt lat="44.93836" lon="4.75662">
        <ele>591</ele>
        <time>2026-05-03T12:08:59Z</time>
      </trkpt>
      <trkpt lat="44.93835" lon="4.75657">
        <ele>591.9</ele>
        <time>2026-05-03T12:09:04Z</time>
      </trkpt>
      <trkpt lat="44.93834" lon="4.7565">
        <ele>593.2</ele>
        <time>2026-05-03T12:09:09Z</time>
      </trkpt>
      <trkpt lat="44.93832" lon="4.75644">
        <ele>594.1</ele>
        <time>2026-05-03T12:09:14Z</time>
      </trkpt>
      <trkpt lat="44.93831" lon="4.75637">
        <ele>595.4</ele>
        <time>2026-05-03T12:09:19Z</time>
      </trkpt>
      <trkpt lat="44.93831" lon="4.75631">
        <ele>596.5</ele>
        <time>2026-05-03T12:09:24Z</time>
      </trkpt>
      <trkpt lat="44.9383" lon="4.75625">
        <ele>597.5</ele>
        <time>2026-05-03T12:09:29Z</time>
      </trkpt>
      <trkpt lat="44.93829" lon="4.75619">
        <ele>598.6</ele>
        <time>2026-05-03T12:09:34Z</time>
      </trkpt>
      <trkpt lat="44.93827" lon="4.75613">
        <ele>599.5</ele>
        <time>2026-05-03T12:09:39Z</time>
      </trkpt>
      <trkpt lat="44.93826" lon="4.75607">
        <ele>600.5</ele>
        <time>2026-05-03T12:09:44Z</time>
      </trkpt>
      <trkpt lat="44.93826" lon="4.75601">
        <ele>601.7</ele>
        <time>2026-05-03T12:09:49Z</time>
      </trkpt>
      <trkpt lat="44.93825" lon="4.75596">
        <ele>602.6</ele>
        <time>2026-05-03T12:09:54Z</time>
      </trkpt>
      <trkpt lat="44.93823" lon="4.7559">
        <ele>603.6</ele>
        <time>2026-05-03T12:09:59Z</time>
      </trkpt>
      <trkpt lat="44.93821" lon="4.75583">
        <ele>604.7</ele>
        <time>2026-05-03T12:10:04Z</time>
      </trkpt>
      <trkpt lat="44.9382" lon="4.75577">
        <ele>605.3</ele>
        <time>2026-05-03T12:10:09Z</time>
      </trkpt>
      <trkpt lat="44.93818" lon="4.75572">
        <ele>605.7</ele>
        <time>2026-05-03T12:10:14Z</time>
      </trkpt>
      <trkpt lat="44.93817" lon="4.75565">
        <ele>606.4</ele>
        <time>2026-05-03T12:10:19Z</time>
      </trkpt>
      <trkpt lat="44.93817" lon="4.75559">
        <ele>607.1</ele>
        <time>2026-05-03T12:10:24Z</time>
      </trkpt>
      <trkpt lat="44.93816" lon="4.75553">
        <ele>607.7</ele>
        <time>2026-05-03T12:10:29Z</time>
      </trkpt>
      <trkpt lat="44.93814" lon="4.75547">
        <ele>608.2</ele>
        <time>2026-05-03T12:10:34Z</time>
      </trkpt>
      <trkpt lat="44.93813" lon="4.75541">
        <ele>608.9</ele>
        <time>2026-05-03T12:10:39Z</time>
      </trkpt>
      <trkpt lat="44.93811" lon="4.75534">
        <ele>609.6</ele>
        <time>2026-05-03T12:10:44Z</time>
      </trkpt>
      <trkpt lat="44.9381" lon="4.75528">
        <ele>610.2</ele>
        <time>2026-05-03T12:10:49Z</time>
      </trkpt>
      <trkpt lat="44.93809" lon="4.75521">
        <ele>611</ele>
        <time>2026-05-03T12:10:54Z</time>
      </trkpt>
      <trkpt lat="44.93808" lon="4.75514">
        <ele>611.8</ele>
        <time>2026-05-03T12:10:59Z</time>
      </trkpt>
      <trkpt lat="44.93807" lon="4.75507">
        <ele>612.6</ele>
        <time>2026-05-03T12:11:04Z</time>
      </trkpt>
      <trkpt lat="44.93806" lon="4.75499">
        <ele>613.5</ele>
        <time>2026-05-03T12:11:09Z</time>
      </trkpt>
      <trkpt lat="44.93805" lon="4.75491">
        <ele>614.3</ele>
        <time>2026-05-03T12:11:14Z</time>
      </trkpt>
      <trkpt lat="44.93805" lon="4.75482">
        <ele>615.3</ele>
        <time>2026-05-03T12:11:19Z</time>
      </trkpt>
      <trkpt lat="44.93808" lon="4.75477">
        <ele>616</ele>
        <time>2026-05-03T12:11:24Z</time>
      </trkpt>
      <trkpt lat="44.93811" lon="4.75473">
        <ele>616.6</ele>
        <time>2026-05-03T12:11:29Z</time>
      </trkpt>
      <trkpt lat="44.93816" lon="4.7547">
        <ele>617.1</ele>
        <time>2026-05-03T12:11:34Z</time>
      </trkpt>
      <trkpt lat="44.93822" lon="4.75468">
        <ele>617.6</ele>
        <time>2026-05-03T12:11:39Z</time>
      </trkpt>
      <trkpt lat="44.93828" lon="4.75466">
        <ele>618</ele>
        <time>2026-05-03T12:11:44Z</time>
      </trkpt>
      <trkpt lat="44.93834" lon="4.75464">
        <ele>618.4</ele>
        <time>2026-05-03T12:11:49Z</time>
      </trkpt>
      <trkpt lat="44.9384" lon="4.75461">
        <ele>618.4</ele>
        <time>2026-05-03T12:11:54Z</time>
      </trkpt>
      <trkpt lat="44.93845" lon="4.75457">
        <ele>618.6</ele>
        <time>2026-05-03T12:11:59Z</time>
      </trkpt>
      <trkpt lat="44.9385" lon="4.75453">
        <ele>618.8</ele>
        <time>2026-05-03T12:12:04Z</time>
      </trkpt>
      <trkpt lat="44.93855" lon="4.7545">
        <ele>618.9</ele>
        <time>2026-05-03T12:12:09Z</time>
      </trkpt>
      <trkpt lat="44.9386" lon="4.75447">
        <ele>619.1</ele>
        <time>2026-05-03T12:12:14Z</time>
      </trkpt>
      <trkpt lat="44.93865" lon="4.75444">
        <ele>619.2</ele>
        <time>2026-05-03T12:12:19Z</time>
      </trkpt>
      <trkpt lat="44.9387" lon="4.75439">
        <ele>619.7</ele>
        <time>2026-05-03T12:12:24Z</time>
      </trkpt>
      <trkpt lat="44.93875" lon="4.75436">
        <ele>619.9</ele>
        <time>2026-05-03T12:12:29Z</time>
      </trkpt>
      <trkpt lat="44.9388" lon="4.75433">
        <ele>620.2</ele>
        <time>2026-05-03T12:12:34Z</time>
      </trkpt>
      <trkpt lat="44.93884" lon="4.7543">
        <ele>620.5</ele>
        <time>2026-05-03T12:12:39Z</time>
      </trkpt>
      <trkpt lat="44.93888" lon="4.75427">
        <ele>620.9</ele>
        <time>2026-05-03T12:12:44Z</time>
      </trkpt>
      <trkpt lat="44.93892" lon="4.75424">
        <ele>621.2</ele>
        <time>2026-05-03T12:12:49Z</time>
      </trkpt>
      <trkpt lat="44.93896" lon="4.75422">
        <ele>621.4</ele>
        <time>2026-05-03T12:12:54Z</time>
      </trkpt>
      <trkpt lat="44.939" lon="4.75421">
        <ele>621.5</ele>
        <time>2026-05-03T12:12:59Z</time>
      </trkpt>
      <trkpt lat="44.93905" lon="4.75419">
        <ele>621.8</ele>
        <time>2026-05-03T12:13:04Z</time>
      </trkpt>
      <trkpt lat="44.93909" lon="4.75416">
        <ele>622.2</ele>
        <time>2026-05-03T12:13:09Z</time>
      </trkpt>
      <trkpt lat="44.93914" lon="4.75416">
        <ele>622.1</ele>
        <time>2026-05-03T12:13:14Z</time>
      </trkpt>
      <trkpt lat="44.93919" lon="4.75414">
        <ele>622.2</ele>
        <time>2026-05-03T12:13:19Z</time>
      </trkpt>
      <trkpt lat="44.93924" lon="4.75409">
        <ele>622.6</ele>
        <time>2026-05-03T12:13:24Z</time>
      </trkpt>
      <trkpt lat="44.93927" lon="4.75407">
        <ele>622.7</ele>
        <time>2026-05-03T12:13:29Z</time>
      </trkpt>
      <trkpt lat="44.9393" lon="4.75404">
        <ele>622.9</ele>
        <time>2026-05-03T12:13:34Z</time>
      </trkpt>
      <trkpt lat="44.93935" lon="4.75398">
        <ele>623.4</ele>
        <time>2026-05-03T12:13:39Z</time>
      </trkpt>
      <trkpt lat="44.9394" lon="4.75394">
        <ele>623.6</ele>
        <time>2026-05-03T12:13:44Z</time>
      </trkpt>
      <trkpt lat="44.93945" lon="4.75388">
        <ele>624</ele>
        <time>2026-05-03T12:13:49Z</time>
      </trkpt>
      <trkpt lat="44.93949" lon="4.75382">
        <ele>624.4</ele>
        <time>2026-05-03T12:13:54Z</time>
      </trkpt>
      <trkpt lat="44.93951" lon="4.75376">
        <ele>624.8</ele>
        <time>2026-05-03T12:13:59Z</time>
      </trkpt>
      <trkpt lat="44.93953" lon="4.75369">
        <ele>625.4</ele>
        <time>2026-05-03T12:14:04Z</time>
      </trkpt>
      <trkpt lat="44.93955" lon="4.75361">
        <ele>626.1</ele>
        <time>2026-05-03T12:14:09Z</time>
      </trkpt>
      <trkpt lat="44.93955" lon="4.75353">
        <ele>626.9</ele>
        <time>2026-05-03T12:14:14Z</time>
      </trkpt>
      <trkpt lat="44.93954" lon="4.75345">
        <ele>627.7</ele>
        <time>2026-05-03T12:14:19Z</time>
      </trkpt>
      <trkpt lat="44.93952" lon="4.75335">
        <ele>628.9</ele>
        <time>2026-05-03T12:14:24Z</time>
      </trkpt>
      <trkpt lat="44.9395" lon="4.75325">
        <ele>629.2</ele>
        <time>2026-05-03T12:14:29Z</time>
      </trkpt>
      <trkpt lat="44.93946" lon="4.75316">
        <ele>629.6</ele>
        <time>2026-05-03T12:14:34Z</time>
      </trkpt>
      <trkpt lat="44.93942" lon="4.75307">
        <ele>630.1</ele>
        <time>2026-05-03T12:14:39Z</time>
      </trkpt>
      <trkpt lat="44.93938" lon="4.75298">
        <ele>630.7</ele>
        <time>2026-05-03T12:14:44Z</time>
      </trkpt>
      <trkpt lat="44.93934" lon="4.75289">
        <ele>631.4</ele>
        <time>2026-05-03T12:14:49Z</time>
      </trkpt>
      <trkpt lat="44.9393" lon="4.75281">
        <ele>632.1</ele>
        <time>2026-05-03T12:14:54Z</time>
      </trkpt>
      <trkpt lat="44.93926" lon="4.75272">
        <ele>632.8</ele>
        <time>2026-05-03T12:14:59Z</time>
      </trkpt>
      <trkpt lat="44.93923" lon="4.75263">
        <ele>633.6</ele>
        <time>2026-05-03T12:15:04Z</time>
      </trkpt>
      <trkpt lat="44.93921" lon="4.75255">
        <ele>634.1</ele>
        <time>2026-05-03T12:15:09Z</time>
      </trkpt>
      <trkpt lat="44.93917" lon="4.75247">
        <ele>634.5</ele>
        <time>2026-05-03T12:15:14Z</time>
      </trkpt>
      <trkpt lat="44.93914" lon="4.75238">
        <ele>633.5</ele>
        <time>2026-05-03T12:15:19Z</time>
      </trkpt>
      <trkpt lat="44.93911" lon="4.75229">
        <ele>632.5</ele>
        <time>2026-05-03T12:15:24Z</time>
      </trkpt>
      <trkpt lat="44.93908" lon="4.75221">
        <ele>631.6</ele>
        <time>2026-05-03T12:15:29Z</time>
      </trkpt>
      <trkpt lat="44.93904" lon="4.75212">
        <ele>630.7</ele>
        <time>2026-05-03T12:15:34Z</time>
      </trkpt>
      <trkpt lat="44.939" lon="4.752">
        <ele>629.3</ele>
        <time>2026-05-03T12:15:39Z</time>
      </trkpt>
      <trkpt lat="44.93898" lon="4.7519">
        <ele>628.1</ele>
        <time>2026-05-03T12:15:44Z</time>
      </trkpt>
      <trkpt lat="44.93896" lon="4.75181">
        <ele>627.1</ele>
        <time>2026-05-03T12:15:49Z</time>
      </trkpt>
      <trkpt lat="44.93894" lon="4.75168">
        <ele>625.5</ele>
        <time>2026-05-03T12:15:54Z</time>
      </trkpt>
      <trkpt lat="44.93893" lon="4.75158">
        <ele>624.3</ele>
        <time>2026-05-03T12:15:59Z</time>
      </trkpt>
      <trkpt lat="44.93893" lon="4.75148">
        <ele>623</ele>
        <time>2026-05-03T12:16:04Z</time>
      </trkpt>
      <trkpt lat="44.93892" lon="4.75138">
        <ele>621.8</ele>
        <time>2026-05-03T12:16:09Z</time>
      </trkpt>
      <trkpt lat="44.93892" lon="4.7513">
        <ele>620.8</ele>
        <time>2026-05-03T12:16:14Z</time>
      </trkpt>
      <trkpt lat="44.93894" lon="4.75119">
        <ele>619.2</ele>
        <time>2026-05-03T12:16:19Z</time>
      </trkpt>
      <trkpt lat="44.93894" lon="4.7511">
        <ele>618.1</ele>
        <time>2026-05-03T12:16:24Z</time>
      </trkpt>
      <trkpt lat="44.93895" lon="4.75099">
        <ele>616.6</ele>
        <time>2026-05-03T12:16:29Z</time>
      </trkpt>
      <trkpt lat="44.93895" lon="4.75093">
        <ele>615.8</ele>
        <time>2026-05-03T12:16:34Z</time>
      </trkpt>
      <trkpt lat="44.93895" lon="4.75084">
        <ele>614.6</ele>
        <time>2026-05-03T12:16:39Z</time>
      </trkpt>
      <trkpt lat="44.93896" lon="4.75075">
        <ele>613.7</ele>
        <time>2026-05-03T12:16:44Z</time>
      </trkpt>
      <trkpt lat="44.93895" lon="4.75066">
        <ele>613</ele>
        <time>2026-05-03T12:16:49Z</time>
      </trkpt>
      <trkpt lat="44.93895" lon="4.75057">
        <ele>612.2</ele>
        <time>2026-05-03T12:16:54Z</time>
      </trkpt>
      <trkpt lat="44.93895" lon="4.75048">
        <ele>611.4</ele>
        <time>2026-05-03T12:16:59Z</time>
      </trkpt>
      <trkpt lat="44.93897" lon="4.7504">
        <ele>610.4</ele>
        <time>2026-05-03T12:17:04Z</time>
      </trkpt>
      <trkpt lat="44.93897" lon="4.7503">
        <ele>609.5</ele>
        <time>2026-05-03T12:17:09Z</time>
      </trkpt>
      <trkpt lat="44.939" lon="4.75021">
        <ele>608.2</ele>
        <time>2026-05-03T12:17:14Z</time>
      </trkpt>
      <trkpt lat="44.93902" lon="4.75012">
        <ele>607</ele>
        <time>2026-05-03T12:17:19Z</time>
      </trkpt>
      <trkpt lat="44.93902" lon="4.75005">
        <ele>606.3</ele>
        <time>2026-05-03T12:17:24Z</time>
      </trkpt>
      <trkpt lat="44.93907" lon="4.74997">
        <ele>604.6</ele>
        <time>2026-05-03T12:17:29Z</time>
      </trkpt>
      <trkpt lat="44.93911" lon="4.7499">
        <ele>603.2</ele>
        <time>2026-05-03T12:17:34Z</time>
      </trkpt>
      <trkpt lat="44.93914" lon="4.74985">
        <ele>602.1</ele>
        <time>2026-05-03T12:17:39Z</time>
      </trkpt>
      <trkpt lat="44.93917" lon="4.74979">
        <ele>601</ele>
        <time>2026-05-03T12:17:44Z</time>
      </trkpt>
      <trkpt lat="44.93919" lon="4.74973">
        <ele>600.5</ele>
        <time>2026-05-03T12:17:49Z</time>
      </trkpt>
      <trkpt lat="44.93922" lon="4.74967">
        <ele>599.9</ele>
        <time>2026-05-03T12:17:54Z</time>
      </trkpt>
      <trkpt lat="44.93925" lon="4.74962">
        <ele>599.5</ele>
        <time>2026-05-03T12:17:59Z</time>
      </trkpt>
      <trkpt lat="44.93928" lon="4.74958">
        <ele>599.1</ele>
        <time>2026-05-03T12:18:04Z</time>
      </trkpt>
      <trkpt lat="44.93932" lon="4.74951">
        <ele>598.4</ele>
        <time>2026-05-03T12:18:09Z</time>
      </trkpt>
      <trkpt lat="44.93935" lon="4.74946">
        <ele>597.9</ele>
        <time>2026-05-03T12:18:14Z</time>
      </trkpt>
      <trkpt lat="44.93938" lon="4.74938">
        <ele>597.1</ele>
        <time>2026-05-03T12:18:19Z</time>
      </trkpt>
      <trkpt lat="44.9394" lon="4.74932">
        <ele>596.4</ele>
        <time>2026-05-03T12:18:24Z</time>
      </trkpt>
      <trkpt lat="44.93943" lon="4.74926">
        <ele>595.7</ele>
        <time>2026-05-03T12:18:29Z</time>
      </trkpt>
      <trkpt lat="44.93944" lon="4.7492">
        <ele>595</ele>
        <time>2026-05-03T12:18:34Z</time>
      </trkpt>
      <trkpt lat="44.93946" lon="4.74912">
        <ele>594.3</ele>
        <time>2026-05-03T12:18:39Z</time>
      </trkpt>
      <trkpt lat="44.93949" lon="4.74905">
        <ele>593.6</ele>
        <time>2026-05-03T12:18:44Z</time>
      </trkpt>
      <trkpt lat="44.93953" lon="4.74899">
        <ele>593</ele>
        <time>2026-05-03T12:18:49Z</time>
      </trkpt>
      <trkpt lat="44.93955" lon="4.74891">
        <ele>592.3</ele>
        <time>2026-05-03T12:18:54Z</time>
      </trkpt>
      <trkpt lat="44.93954" lon="4.74879">
        <ele>591.3</ele>
        <time>2026-05-03T12:18:59Z</time>
      </trkpt>
      <trkpt lat="44.93954" lon="4.74869">
        <ele>590.4</ele>
        <time>2026-05-03T12:19:04Z</time>
      </trkpt>
      <trkpt lat="44.93954" lon="4.74863">
        <ele>589.9</ele>
        <time>2026-05-03T12:19:09Z</time>
      </trkpt>
      <trkpt lat="44.93956" lon="4.74856">
        <ele>589.2</ele>
        <time>2026-05-03T12:19:14Z</time>
      </trkpt>
      <trkpt lat="44.93958" lon="4.74849">
        <ele>588.4</ele>
        <time>2026-05-03T12:19:19Z</time>
      </trkpt>
      <trkpt lat="44.93957" lon="4.74846">
        <ele>588.2</ele>
        <time>2026-05-03T12:19:24Z</time>
      </trkpt>
      <trkpt lat="44.93955" lon="4.74836">
        <ele>587.5</ele>
        <time>2026-05-03T12:19:29Z</time>
      </trkpt>
      <trkpt lat="44.93955" lon="4.74827">
        <ele>586.5</ele>
        <time>2026-05-03T12:19:34Z</time>
      </trkpt>
      <trkpt lat="44.93955" lon="4.74819">
        <ele>585.7</ele>
        <time>2026-05-03T12:19:39Z</time>
      </trkpt>
      <trkpt lat="44.93953" lon="4.74812">
        <ele>585.1</ele>
        <time>2026-05-03T12:19:44Z</time>
      </trkpt>
      <trkpt lat="44.93953" lon="4.74807">
        <ele>584.5</ele>
        <time>2026-05-03T12:19:49Z</time>
      </trkpt>
      <trkpt lat="44.93954" lon="4.74803">
        <ele>584</ele>
        <time>2026-05-03T12:19:54Z</time>
      </trkpt>
      <trkpt lat="44.93954" lon="4.74797">
        <ele>583.3</ele>
        <time>2026-05-03T12:19:59Z</time>
      </trkpt>
      <trkpt lat="44.93954" lon="4.7479">
        <ele>582.6</ele>
        <time>2026-05-03T12:20:04Z</time>
      </trkpt>
      <trkpt lat="44.93956" lon="4.74784">
        <ele>581.7</ele>
        <time>2026-05-03T12:20:09Z</time>
      </trkpt>
      <trkpt lat="44.93958" lon="4.74778">
        <ele>580.7</ele>
        <time>2026-05-03T12:20:14Z</time>
      </trkpt>
      <trkpt lat="44.9396" lon="4.74771">
        <ele>579.7</ele>
        <time>2026-05-03T12:20:19Z</time>
      </trkpt>
      <trkpt lat="44.93965" lon="4.74767">
        <ele>578.5</ele>
        <time>2026-05-03T12:20:24Z</time>
      </trkpt>
      <trkpt lat="44.93968" lon="4.74759">
        <ele>577.1</ele>
        <time>2026-05-03T12:20:29Z</time>
      </trkpt>
      <trkpt lat="44.9397" lon="4.74752">
        <ele>575.9</ele>
        <time>2026-05-03T12:20:34Z</time>
      </trkpt>
      <trkpt lat="44.93974" lon="4.74745">
        <ele>574.4</ele>
        <time>2026-05-03T12:20:39Z</time>
      </trkpt>
      <trkpt lat="44.93976" lon="4.74737">
        <ele>573</ele>
        <time>2026-05-03T12:20:44Z</time>
      </trkpt>
      <trkpt lat="44.93977" lon="4.74729">
        <ele>571.8</ele>
        <time>2026-05-03T12:20:49Z</time>
      </trkpt>
      <trkpt lat="44.93978" lon="4.7472">
        <ele>570.4</ele>
        <time>2026-05-03T12:20:54Z</time>
      </trkpt>
      <trkpt lat="44.93979" lon="4.74712">
        <ele>569.1</ele>
        <time>2026-05-03T12:20:59Z</time>
      </trkpt>
      <trkpt lat="44.93979" lon="4.74705">
        <ele>568.2</ele>
        <time>2026-05-03T12:21:04Z</time>
      </trkpt>
      <trkpt lat="44.93979" lon="4.74698">
        <ele>567.3</ele>
        <time>2026-05-03T12:21:09Z</time>
      </trkpt>
      <trkpt lat="44.93977" lon="4.74689">
        <ele>566.4</ele>
        <time>2026-05-03T12:21:14Z</time>
      </trkpt>
      <trkpt lat="44.93975" lon="4.74681">
        <ele>565.7</ele>
        <time>2026-05-03T12:21:19Z</time>
      </trkpt>
      <trkpt lat="44.93973" lon="4.74673">
        <ele>565</ele>
        <time>2026-05-03T12:21:24Z</time>
      </trkpt>
      <trkpt lat="44.93971" lon="4.74668">
        <ele>564.7</ele>
        <time>2026-05-03T12:21:29Z</time>
      </trkpt>
      <trkpt lat="44.93968" lon="4.7466">
        <ele>564.5</ele>
        <time>2026-05-03T12:21:34Z</time>
      </trkpt>
      <trkpt lat="44.93966" lon="4.74653">
        <ele>564.2</ele>
        <time>2026-05-03T12:21:39Z</time>
      </trkpt>
      <trkpt lat="44.93963" lon="4.74647">
        <ele>564.2</ele>
        <time>2026-05-03T12:21:44Z</time>
      </trkpt>
      <trkpt lat="44.9396" lon="4.74642">
        <ele>564.3</ele>
        <time>2026-05-03T12:21:49Z</time>
      </trkpt>
      <trkpt lat="44.93957" lon="4.74634">
        <ele>564.1</ele>
        <time>2026-05-03T12:21:54Z</time>
      </trkpt>
      <trkpt lat="44.93954" lon="4.74629">
        <ele>564.2</ele>
        <time>2026-05-03T12:21:59Z</time>
      </trkpt>
      <trkpt lat="44.93952" lon="4.74623">
        <ele>563.9</ele>
        <time>2026-05-03T12:22:04Z</time>
      </trkpt>
      <trkpt lat="44.93952" lon="4.74617">
        <ele>563.4</ele>
        <time>2026-05-03T12:22:09Z</time>
      </trkpt>
      <trkpt lat="44.93953" lon="4.7461">
        <ele>562.5</ele>
        <time>2026-05-03T12:22:14Z</time>
      </trkpt>
      <trkpt lat="44.93955" lon="4.74604">
        <ele>561.6</ele>
        <time>2026-05-03T12:22:19Z</time>
      </trkpt>
      <trkpt lat="44.93954" lon="4.74599">
        <ele>561.3</ele>
        <time>2026-05-03T12:22:24Z</time>
      </trkpt>
      <trkpt lat="44.93954" lon="4.74599">
        <ele>561.3</ele>
        <time>2026-05-03T12:22:29Z</time>
      </trkpt>
      <trkpt lat="44.93954" lon="4.74598">
        <ele>561.2</ele>
        <time>2026-05-03T12:22:34Z</time>
      </trkpt>
      <trkpt lat="44.93954" lon="4.74598">
        <ele>561.2</ele>
        <time>2026-05-03T12:22:39Z</time>
      </trkpt>
      <trkpt lat="44.93949" lon="4.74597">
        <ele>561.9</ele>
        <time>2026-05-03T12:22:44Z</time>
      </trkpt>
      <trkpt lat="44.93944" lon="4.74594">
        <ele>562.5</ele>
        <time>2026-05-03T12:22:49Z</time>
      </trkpt>
      <trkpt lat="44.93938" lon="4.74593">
        <ele>563.4</ele>
        <time>2026-05-03T12:22:54Z</time>
      </trkpt>
      <trkpt lat="44.93933" lon="4.74592">
        <ele>564.2</ele>
        <time>2026-05-03T12:22:59Z</time>
      </trkpt>
      <trkpt lat="44.93928" lon="4.7459">
        <ele>564.8</ele>
        <time>2026-05-03T12:23:04Z</time>
      </trkpt>
      <trkpt lat="44.93924" lon="4.74585">
        <ele>564.9</ele>
        <time>2026-05-03T12:23:09Z</time>
      </trkpt>
      <trkpt lat="44.93926" lon="4.74578">
        <ele>564.2</ele>
        <time>2026-05-03T12:23:14Z</time>
      </trkpt>
      <trkpt lat="44.9393" lon="4.74571">
        <ele>563.3</ele>
        <time>2026-05-03T12:23:19Z</time>
      </trkpt>
      <trkpt lat="44.93935" lon="4.74562">
        <ele>562.2</ele>
        <time>2026-05-03T12:23:24Z</time>
      </trkpt>
      <trkpt lat="44.93939" lon="4.74554">
        <ele>561.2</ele>
        <time>2026-05-03T12:23:29Z</time>
      </trkpt>
      <trkpt lat="44.93943" lon="4.74548">
        <ele>560.3</ele>
        <time>2026-05-03T12:23:34Z</time>
      </trkpt>
      <trkpt lat="44.93943" lon="4.74547">
        <ele>560.3</ele>
        <time>2026-05-03T12:23:39Z</time>
      </trkpt>
      <trkpt lat="44.93944" lon="4.74547">
        <ele>560.1</ele>
        <time>2026-05-03T12:23:44Z</time>
      </trkpt>
      <trkpt lat="44.93946" lon="4.74543">
        <ele>559.6</ele>
        <time>2026-05-03T12:23:49Z</time>
      </trkpt>
      <trkpt lat="44.93951" lon="4.74536">
        <ele>558.5</ele>
        <time>2026-05-03T12:23:54Z</time>
      </trkpt>
      <trkpt lat="44.93955" lon="4.74527">
        <ele>557.5</ele>
        <time>2026-05-03T12:23:59Z</time>
      </trkpt>
      <trkpt lat="44.93959" lon="4.7452">
        <ele>556.6</ele>
        <time>2026-05-03T12:24:04Z</time>
      </trkpt>
      <trkpt lat="44.93963" lon="4.74512">
        <ele>555.6</ele>
        <time>2026-05-03T12:24:09Z</time>
      </trkpt>
      <trkpt lat="44.93965" lon="4.74502">
        <ele>555</ele>
        <time>2026-05-03T12:24:14Z</time>
      </trkpt>
      <trkpt lat="44.93967" lon="4.74491">
        <ele>554.3</ele>
        <time>2026-05-03T12:24:19Z</time>
      </trkpt>
      <trkpt lat="44.9397" lon="4.74482">
        <ele>553.5</ele>
        <time>2026-05-03T12:24:24Z</time>
      </trkpt>
      <trkpt lat="44.9397" lon="4.74472">
        <ele>553.2</ele>
        <time>2026-05-03T12:24:29Z</time>
      </trkpt>
      <trkpt lat="44.93972" lon="4.74461">
        <ele>552.6</ele>
        <time>2026-05-03T12:24:34Z</time>
      </trkpt>
      <trkpt lat="44.93975" lon="4.74451">
        <ele>551.9</ele>
        <time>2026-05-03T12:24:39Z</time>
      </trkpt>
      <trkpt lat="44.93977" lon="4.74441">
        <ele>551.4</ele>
        <time>2026-05-03T12:24:44Z</time>
      </trkpt>
      <trkpt lat="44.93979" lon="4.74431">
        <ele>550.9</ele>
        <time>2026-05-03T12:24:49Z</time>
      </trkpt>
      <trkpt lat="44.93982" lon="4.74421">
        <ele>550.3</ele>
        <time>2026-05-03T12:24:54Z</time>
      </trkpt>
      <trkpt lat="44.93985" lon="4.74412">
        <ele>549.3</ele>
        <time>2026-05-03T12:24:59Z</time>
      </trkpt>
      <trkpt lat="44.93987" lon="4.74403">
        <ele>548.1</ele>
        <time>2026-05-03T12:25:04Z</time>
      </trkpt>
      <trkpt lat="44.93988" lon="4.74393">
        <ele>546.9</ele>
        <time>2026-05-03T12:25:09Z</time>
      </trkpt>
      <trkpt lat="44.93988" lon="4.74382">
        <ele>545.7</ele>
        <time>2026-05-03T12:25:14Z</time>
      </trkpt>
      <trkpt lat="44.93988" lon="4.74372">
        <ele>544.6</ele>
        <time>2026-05-03T12:25:19Z</time>
      </trkpt>
      <trkpt lat="44.9399" lon="4.74362">
        <ele>543.3</ele>
        <time>2026-05-03T12:25:24Z</time>
      </trkpt>
      <trkpt lat="44.9399" lon="4.74352">
        <ele>542.2</ele>
        <time>2026-05-03T12:25:29Z</time>
      </trkpt>
      <trkpt lat="44.9399" lon="4.74341">
        <ele>541</ele>
        <time>2026-05-03T12:25:34Z</time>
      </trkpt>
      <trkpt lat="44.93993" lon="4.74331">
        <ele>539.6</ele>
        <time>2026-05-03T12:25:39Z</time>
      </trkpt>
      <trkpt lat="44.93995" lon="4.74321">
        <ele>538.3</ele>
        <time>2026-05-03T12:25:44Z</time>
      </trkpt>
      <trkpt lat="44.93997" lon="4.74311">
        <ele>537</ele>
        <time>2026-05-03T12:25:49Z</time>
      </trkpt>
      <trkpt lat="44.94002" lon="4.74302">
        <ele>535.6</ele>
        <time>2026-05-03T12:25:54Z</time>
      </trkpt>
      <trkpt lat="44.94007" lon="4.74294">
        <ele>534.6</ele>
        <time>2026-05-03T12:25:59Z</time>
      </trkpt>
      <trkpt lat="44.94012" lon="4.74286">
        <ele>533.6</ele>
        <time>2026-05-03T12:26:04Z</time>
      </trkpt>
      <trkpt lat="44.94017" lon="4.74281">
        <ele>533</ele>
        <time>2026-05-03T12:26:09Z</time>
      </trkpt>
      <trkpt lat="44.94022" lon="4.74275">
        <ele>532.3</ele>
        <time>2026-05-03T12:26:14Z</time>
      </trkpt>
      <trkpt lat="44.94027" lon="4.7427">
        <ele>531.7</ele>
        <time>2026-05-03T12:26:19Z</time>
      </trkpt>
      <trkpt lat="44.94033" lon="4.74266">
        <ele>531.2</ele>
        <time>2026-05-03T12:26:24Z</time>
      </trkpt>
      <trkpt lat="44.9404" lon="4.74262">
        <ele>530.7</ele>
        <time>2026-05-03T12:26:29Z</time>
      </trkpt>
      <trkpt lat="44.94046" lon="4.74256">
        <ele>530</ele>
        <time>2026-05-03T12:26:34Z</time>
      </trkpt>
      <trkpt lat="44.94053" lon="4.74251">
        <ele>529.5</ele>
        <time>2026-05-03T12:26:39Z</time>
      </trkpt>
      <trkpt lat="44.94062" lon="4.74247">
        <ele>529</ele>
        <time>2026-05-03T12:26:44Z</time>
      </trkpt>
      <trkpt lat="44.94067" lon="4.74244">
        <ele>528.7</ele>
        <time>2026-05-03T12:26:49Z</time>
      </trkpt>
      <trkpt lat="44.94075" lon="4.74242">
        <ele>528.4</ele>
        <time>2026-05-03T12:26:54Z</time>
      </trkpt>
      <trkpt lat="44.94082" lon="4.74243">
        <ele>528.4</ele>
        <time>2026-05-03T12:26:59Z</time>
      </trkpt>
      <trkpt lat="44.9409" lon="4.74242">
        <ele>528.2</ele>
        <time>2026-05-03T12:27:04Z</time>
      </trkpt>
      <trkpt lat="44.941" lon="4.74241">
        <ele>528.1</ele>
        <time>2026-05-03T12:27:09Z</time>
      </trkpt>
      <trkpt lat="44.94108" lon="4.74241">
        <ele>528.1</ele>
        <time>2026-05-03T12:27:14Z</time>
      </trkpt>
      <trkpt lat="44.94114" lon="4.74242">
        <ele>528.2</ele>
        <time>2026-05-03T12:27:19Z</time>
      </trkpt>
      <trkpt lat="44.94121" lon="4.74241">
        <ele>528.1</ele>
        <time>2026-05-03T12:27:24Z</time>
      </trkpt>
      <trkpt lat="44.94128" lon="4.74236">
        <ele>527.7</ele>
        <time>2026-05-03T12:27:29Z</time>
      </trkpt>
      <trkpt lat="44.94134" lon="4.74228">
        <ele>526.9</ele>
        <time>2026-05-03T12:27:34Z</time>
      </trkpt>
      <trkpt lat="44.94137" lon="4.74219">
        <ele>526</ele>
        <time>2026-05-03T12:27:39Z</time>
      </trkpt>
      <trkpt lat="44.94138" lon="4.7421">
        <ele>525.2</ele>
        <time>2026-05-03T12:27:44Z</time>
      </trkpt>
      <trkpt lat="44.94137" lon="4.74206">
        <ele>524.8</ele>
        <time>2026-05-03T12:27:49Z</time>
      </trkpt>
      <trkpt lat="44.94137" lon="4.74198">
        <ele>524</ele>
        <time>2026-05-03T12:27:54Z</time>
      </trkpt>
      <trkpt lat="44.9414" lon="4.74191">
        <ele>523.3</ele>
        <time>2026-05-03T12:27:59Z</time>
      </trkpt>
      <trkpt lat="44.94142" lon="4.74185">
        <ele>522.8</ele>
        <time>2026-05-03T12:28:04Z</time>
      </trkpt>
      <trkpt lat="44.94146" lon="4.74176">
        <ele>521.9</ele>
        <time>2026-05-03T12:28:09Z</time>
      </trkpt>
      <trkpt lat="44.9415" lon="4.74169">
        <ele>521.2</ele>
        <time>2026-05-03T12:28:14Z</time>
      </trkpt>
      <trkpt lat="44.94156" lon="4.74163">
        <ele>520.7</ele>
        <time>2026-05-03T12:28:19Z</time>
      </trkpt>
      <trkpt lat="44.94164" lon="4.74157">
        <ele>520.3</ele>
        <time>2026-05-03T12:28:24Z</time>
      </trkpt>
      <trkpt lat="44.9417" lon="4.74152">
        <ele>520</ele>
        <time>2026-05-03T12:28:29Z</time>
      </trkpt>
      <trkpt lat="44.94176" lon="4.74148">
        <ele>519.9</ele>
        <time>2026-05-03T12:28:34Z</time>
      </trkpt>
      <trkpt lat="44.94183" lon="4.74144">
        <ele>519.8</ele>
        <time>2026-05-03T12:28:39Z</time>
      </trkpt>
      <trkpt lat="44.9419" lon="4.74142">
        <ele>519.9</ele>
        <time>2026-05-03T12:28:44Z</time>
      </trkpt>
      <trkpt lat="44.94196" lon="4.74139">
        <ele>519.8</ele>
        <time>2026-05-03T12:28:49Z</time>
      </trkpt>
      <trkpt lat="44.94202" lon="4.74136">
        <ele>519.8</ele>
        <time>2026-05-03T12:28:54Z</time>
      </trkpt>
      <trkpt lat="44.9421" lon="4.74133">
        <ele>519.7</ele>
        <time>2026-05-03T12:28:59Z</time>
      </trkpt>
      <trkpt lat="44.94215" lon="4.74128">
        <ele>519.4</ele>
        <time>2026-05-03T12:29:04Z</time>
      </trkpt>
      <trkpt lat="44.94212" lon="4.74122">
        <ele>518.8</ele>
        <time>2026-05-03T12:29:09Z</time>
      </trkpt>
      <trkpt lat="44.94203" lon="4.7412">
        <ele>518.5</ele>
        <time>2026-05-03T12:29:14Z</time>
      </trkpt>
      <trkpt lat="44.94197" lon="4.74121">
        <ele>518.4</ele>
        <time>2026-05-03T12:29:19Z</time>
      </trkpt>
      <trkpt lat="44.9419" lon="4.74119">
        <ele>518.1</ele>
        <time>2026-05-03T12:29:24Z</time>
      </trkpt>
      <trkpt lat="44.94184" lon="4.74116">
        <ele>517.7</ele>
        <time>2026-05-03T12:29:29Z</time>
      </trkpt>
      <trkpt lat="44.94178" lon="4.74111">
        <ele>517.2</ele>
        <time>2026-05-03T12:29:34Z</time>
      </trkpt>
      <trkpt lat="44.94173" lon="4.74104">
        <ele>516.6</ele>
        <time>2026-05-03T12:29:39Z</time>
      </trkpt>
      <trkpt lat="44.94168" lon="4.74094">
        <ele>515.8</ele>
        <time>2026-05-03T12:29:44Z</time>
      </trkpt>
      <trkpt lat="44.94165" lon="4.74085">
        <ele>515.1</ele>
        <time>2026-05-03T12:29:49Z</time>
      </trkpt>
      <trkpt lat="44.94163" lon="4.74073">
        <ele>515</ele>
        <time>2026-05-03T12:29:54Z</time>
      </trkpt>
      <trkpt lat="44.94162" lon="4.74063">
        <ele>515</ele>
        <time>2026-05-03T12:29:59Z</time>
      </trkpt>
      <trkpt lat="44.94161" lon="4.74052">
        <ele>515</ele>
        <time>2026-05-03T12:30:04Z</time>
      </trkpt>
      <trkpt lat="44.94165" lon="4.74046">
        <ele>515</ele>
        <time>2026-05-03T12:30:09Z</time>
      </trkpt>
      <trkpt lat="44.94163" lon="4.74039">
        <ele>515</ele>
        <time>2026-05-03T12:30:14Z</time>
      </trkpt>
      <trkpt lat="44.94162" lon="4.74035">
        <ele>515</ele>
        <time>2026-05-03T12:30:19Z</time>
      </trkpt>
      <trkpt lat="44.94162" lon="4.7403">
        <ele>515</ele>
        <time>2026-05-03T12:30:24Z</time>
      </trkpt>
      <trkpt lat="44.94163" lon="4.7403">
        <ele>515</ele>
        <time>2026-05-03T12:30:29Z</time>
      </trkpt>
      <trkpt lat="44.94163" lon="4.7403">
        <ele>515</ele>
        <time>2026-05-03T12:30:34Z</time>
      </trkpt>
      <trkpt lat="44.94163" lon="4.7403">
        <ele>515</ele>
        <time>2026-05-03T12:30:39Z</time>
      </trkpt>
      <trkpt lat="44.94163" lon="4.7403">
        <ele>515</ele>
        <time>2026-05-03T12:30:44Z</time>
      </trkpt>
      <trkpt lat="44.94163" lon="4.7403">
        <ele>515</ele>
        <time>2026-05-03T12:30:49Z</time>
      </trkpt>
      <trkpt lat="44.94158" lon="4.74027">
        <ele>515</ele>
        <time>2026-05-03T12:30:54Z</time>
      </trkpt>
      <trkpt lat="44.94156" lon="4.74021">
        <ele>514.9</ele>
        <time>2026-05-03T12:30:59Z</time>
      </trkpt>
      <trkpt lat="44.94154" lon="4.74011">
        <ele>514.9</ele>
        <time>2026-05-03T12:31:04Z</time>
      </trkpt>
      <trkpt lat="44.94153" lon="4.74003">
        <ele>514.8</ele>
        <time>2026-05-03T12:31:09Z</time>
      </trkpt>
      <trkpt lat="44.94152" lon="4.73994">
        <ele>515.1</ele>
        <time>2026-05-03T12:31:14Z</time>
      </trkpt>
      <trkpt lat="44.94149" lon="4.73986">
        <ele>515.5</ele>
        <time>2026-05-03T12:31:19Z</time>
      </trkpt>
      <trkpt lat="44.94147" lon="4.73977">
        <ele>515.9</ele>
        <time>2026-05-03T12:31:24Z</time>
      </trkpt>
      <trkpt lat="44.94145" lon="4.73968">
        <ele>516.4</ele>
        <time>2026-05-03T12:31:29Z</time>
      </trkpt>
      <trkpt lat="44.94142" lon="4.7396">
        <ele>516.7</ele>
        <time>2026-05-03T12:31:34Z</time>
      </trkpt>
      <trkpt lat="44.9414" lon="4.73952">
        <ele>517</ele>
        <time>2026-05-03T12:31:39Z</time>
      </trkpt>
      <trkpt lat="44.94136" lon="4.73944">
        <ele>517.3</ele>
        <time>2026-05-03T12:31:44Z</time>
      </trkpt>
      <trkpt lat="44.9413" lon="4.73937">
        <ele>517.3</ele>
        <time>2026-05-03T12:31:49Z</time>
      </trkpt>
      <trkpt lat="44.94125" lon="4.7393">
        <ele>517.4</ele>
        <time>2026-05-03T12:31:54Z</time>
      </trkpt>
      <trkpt lat="44.94118" lon="4.73924">
        <ele>517.4</ele>
        <time>2026-05-03T12:31:59Z</time>
      </trkpt>
      <trkpt lat="44.94114" lon="4.73917">
        <ele>517.5</ele>
        <time>2026-05-03T12:32:04Z</time>
      </trkpt>
      <trkpt lat="44.94111" lon="4.73912">
        <ele>517.6</ele>
        <time>2026-05-03T12:32:09Z</time>
      </trkpt>
      <trkpt lat="44.94107" lon="4.73911">
        <ele>517.4</ele>
        <time>2026-05-03T12:32:14Z</time>
      </trkpt>
      <trkpt lat="44.94103" lon="4.73906">
        <ele>517.4</ele>
        <time>2026-05-03T12:32:19Z</time>
      </trkpt>
      <trkpt lat="44.94098" lon="4.73899">
        <ele>517.5</ele>
        <time>2026-05-03T12:32:24Z</time>
      </trkpt>
      <trkpt lat="44.94091" lon="4.73891">
        <ele>517.4</ele>
        <time>2026-05-03T12:32:29Z</time>
      </trkpt>
      <trkpt lat="44.94086" lon="4.73886">
        <ele>517.3</ele>
        <time>2026-05-03T12:32:34Z</time>
      </trkpt>
      <trkpt lat="44.94082" lon="4.73881">
        <ele>517.3</ele>
        <time>2026-05-03T12:32:39Z</time>
      </trkpt>
      <trkpt lat="44.94077" lon="4.73875">
        <ele>517.5</ele>
        <time>2026-05-03T12:32:44Z</time>
      </trkpt>
      <trkpt lat="44.94072" lon="4.73866">
        <ele>517.8</ele>
        <time>2026-05-03T12:32:49Z</time>
      </trkpt>
      <trkpt lat="44.94068" lon="4.73858">
        <ele>518.1</ele>
        <time>2026-05-03T12:32:54Z</time>
      </trkpt>
      <trkpt lat="44.94064" lon="4.7385">
        <ele>518.3</ele>
        <time>2026-05-03T12:32:59Z</time>
      </trkpt>
      <trkpt lat="44.94062" lon="4.73841">
        <ele>518.5</ele>
        <time>2026-05-03T12:33:04Z</time>
      </trkpt>
      <trkpt lat="44.94059" lon="4.73832">
        <ele>518.7</ele>
        <time>2026-05-03T12:33:09Z</time>
      </trkpt>
      <trkpt lat="44.94058" lon="4.73824">
        <ele>518.7</ele>
        <time>2026-05-03T12:33:14Z</time>
      </trkpt>
      <trkpt lat="44.94056" lon="4.73814">
        <ele>518.7</ele>
        <time>2026-05-03T12:33:19Z</time>
      </trkpt>
      <trkpt lat="44.94057" lon="4.73804">
        <ele>518.7</ele>
        <time>2026-05-03T12:33:24Z</time>
      </trkpt>
      <trkpt lat="44.94057" lon="4.73795">
        <ele>518.7</ele>
        <time>2026-05-03T12:33:29Z</time>
      </trkpt>
      <trkpt lat="44.94061" lon="4.73786">
        <ele>518.7</ele>
        <time>2026-05-03T12:33:34Z</time>
      </trkpt>
      <trkpt lat="44.94061" lon="4.73779">
        <ele>518.7</ele>
        <time>2026-05-03T12:33:39Z</time>
      </trkpt>
      <trkpt lat="44.94064" lon="4.73772">
        <ele>518.8</ele>
        <time>2026-05-03T12:33:44Z</time>
      </trkpt>
      <trkpt lat="44.94067" lon="4.73762">
        <ele>518.8</ele>
        <time>2026-05-03T12:33:49Z</time>
      </trkpt>
      <trkpt lat="44.94067" lon="4.73752">
        <ele>518.8</ele>
        <time>2026-05-03T12:33:54Z</time>
      </trkpt>
      <trkpt lat="44.94065" lon="4.73743">
        <ele>518.9</ele>
        <time>2026-05-03T12:33:59Z</time>
      </trkpt>
      <trkpt lat="44.94064" lon="4.73736">
        <ele>519</ele>
        <time>2026-05-03T12:34:04Z</time>
      </trkpt>
      <trkpt lat="44.94063" lon="4.73726">
        <ele>519.2</ele>
        <time>2026-05-03T12:34:09Z</time>
      </trkpt>
      <trkpt lat="44.94062" lon="4.73715">
        <ele>519.4</ele>
        <time>2026-05-03T12:34:14Z</time>
      </trkpt>
      <trkpt lat="44.94061" lon="4.73707">
        <ele>519.6</ele>
        <time>2026-05-03T12:34:19Z</time>
      </trkpt>
      <trkpt lat="44.94061" lon="4.73697">
        <ele>519.8</ele>
        <time>2026-05-03T12:34:24Z</time>
      </trkpt>
      <trkpt lat="44.94062" lon="4.73687">
        <ele>519.9</ele>
        <time>2026-05-03T12:34:29Z</time>
      </trkpt>
      <trkpt lat="44.94061" lon="4.73677">
        <ele>520.1</ele>
        <time>2026-05-03T12:34:34Z</time>
      </trkpt>
      <trkpt lat="44.94061" lon="4.73666">
        <ele>520.4</ele>
        <time>2026-05-03T12:34:39Z</time>
      </trkpt>
      <trkpt lat="44.94062" lon="4.73657">
        <ele>520.7</ele>
        <time>2026-05-03T12:34:44Z</time>
      </trkpt>
      <trkpt lat="44.94063" lon="4.73647">
        <ele>521.2</ele>
        <time>2026-05-03T12:34:49Z</time>
      </trkpt>
      <trkpt lat="44.94061" lon="4.73635">
        <ele>521.9</ele>
        <time>2026-05-03T12:34:54Z</time>
      </trkpt>
      <trkpt lat="44.9406" lon="4.73624">
        <ele>522.5</ele>
        <time>2026-05-03T12:34:59Z</time>
      </trkpt>
      <trkpt lat="44.94057" lon="4.73617">
        <ele>523.1</ele>
        <time>2026-05-03T12:35:04Z</time>
      </trkpt>
      <trkpt lat="44.94054" lon="4.73608">
        <ele>523.9</ele>
        <time>2026-05-03T12:35:09Z</time>
      </trkpt>
      <trkpt lat="44.94049" lon="4.736">
        <ele>524.8</ele>
        <time>2026-05-03T12:35:14Z</time>
      </trkpt>
      <trkpt lat="44.94044" lon="4.73593">
        <ele>525.7</ele>
        <time>2026-05-03T12:35:19Z</time>
      </trkpt>
      <trkpt lat="44.94037" lon="4.73587">
        <ele>526.8</ele>
        <time>2026-05-03T12:35:24Z</time>
      </trkpt>
      <trkpt lat="44.9403" lon="4.73579">
        <ele>527.7</ele>
        <time>2026-05-03T12:35:29Z</time>
      </trkpt>
      <trkpt lat="44.94025" lon="4.73576">
        <ele>528.1</ele>
        <time>2026-05-03T12:35:34Z</time>
      </trkpt>
      <trkpt lat="44.94022" lon="4.7357">
        <ele>528.3</ele>
        <time>2026-05-03T12:35:39Z</time>
      </trkpt>
      <trkpt lat="44.94017" lon="4.73564">
        <ele>528.7</ele>
        <time>2026-05-03T12:35:44Z</time>
      </trkpt>
      <trkpt lat="44.94013" lon="4.73556">
        <ele>528.8</ele>
        <time>2026-05-03T12:35:49Z</time>
      </trkpt>
      <trkpt lat="44.9401" lon="4.73548">
        <ele>528.9</ele>
        <time>2026-05-03T12:35:54Z</time>
      </trkpt>
      <trkpt lat="44.94006" lon="4.73538">
        <ele>528.9</ele>
        <time>2026-05-03T12:35:59Z</time>
      </trkpt>
      <trkpt lat="44.94003" lon="4.73528">
        <ele>528.8</ele>
        <time>2026-05-03T12:36:04Z</time>
      </trkpt>
      <trkpt lat="44.93999" lon="4.73517">
        <ele>528.7</ele>
        <time>2026-05-03T12:36:09Z</time>
      </trkpt>
      <trkpt lat="44.93997" lon="4.73507">
        <ele>528.7</ele>
        <time>2026-05-03T12:36:14Z</time>
      </trkpt>
      <trkpt lat="44.93994" lon="4.73498">
        <ele>528.9</ele>
        <time>2026-05-03T12:36:19Z</time>
      </trkpt>
      <trkpt lat="44.93993" lon="4.7349">
        <ele>529.2</ele>
        <time>2026-05-03T12:36:24Z</time>
      </trkpt>
      <trkpt lat="44.93991" lon="4.73481">
        <ele>529.6</ele>
        <time>2026-05-03T12:36:29Z</time>
      </trkpt>
      <trkpt lat="44.93988" lon="4.73474">
        <ele>530.2</ele>
        <time>2026-05-03T12:36:34Z</time>
      </trkpt>
      <trkpt lat="44.93985" lon="4.73465">
        <ele>530.9</ele>
        <time>2026-05-03T12:36:39Z</time>
      </trkpt>
      <trkpt lat="44.93981" lon="4.73456">
        <ele>531.7</ele>
        <time>2026-05-03T12:36:44Z</time>
      </trkpt>
      <trkpt lat="44.93979" lon="4.73445">
        <ele>532.3</ele>
        <time>2026-05-03T12:36:49Z</time>
      </trkpt>
      <trkpt lat="44.93979" lon="4.73436">
        <ele>532.6</ele>
        <time>2026-05-03T12:36:54Z</time>
      </trkpt>
      <trkpt lat="44.93979" lon="4.73424">
        <ele>532.9</ele>
        <time>2026-05-03T12:36:59Z</time>
      </trkpt>
      <trkpt lat="44.93979" lon="4.73416">
        <ele>533</ele>
        <time>2026-05-03T12:37:04Z</time>
      </trkpt>
      <trkpt lat="44.93978" lon="4.73405">
        <ele>532.7</ele>
        <time>2026-05-03T12:37:09Z</time>
      </trkpt>
      <trkpt lat="44.93978" lon="4.73395">
        <ele>532.2</ele>
        <time>2026-05-03T12:37:14Z</time>
      </trkpt>
      <trkpt lat="44.93979" lon="4.73386">
        <ele>531.6</ele>
        <time>2026-05-03T12:37:19Z</time>
      </trkpt>
      <trkpt lat="44.93979" lon="4.73375">
        <ele>531</ele>
        <time>2026-05-03T12:37:24Z</time>
      </trkpt>
      <trkpt lat="44.93979" lon="4.73365">
        <ele>530.6</ele>
        <time>2026-05-03T12:37:29Z</time>
      </trkpt>
      <trkpt lat="44.93979" lon="4.73357">
        <ele>530.2</ele>
        <time>2026-05-03T12:37:34Z</time>
      </trkpt>
      <trkpt lat="44.93979" lon="4.73347">
        <ele>529.7</ele>
        <time>2026-05-03T12:37:39Z</time>
      </trkpt>
      <trkpt lat="44.93977" lon="4.73338">
        <ele>529.6</ele>
        <time>2026-05-03T12:37:44Z</time>
      </trkpt>
      <trkpt lat="44.93974" lon="4.73328">
        <ele>529.7</ele>
        <time>2026-05-03T12:37:49Z</time>
      </trkpt>
      <trkpt lat="44.93974" lon="4.73316">
        <ele>529.1</ele>
        <time>2026-05-03T12:37:54Z</time>
      </trkpt>
      <trkpt lat="44.93973" lon="4.73307">
        <ele>528.8</ele>
        <time>2026-05-03T12:37:59Z</time>
      </trkpt>
      <trkpt lat="44.93973" lon="4.73297">
        <ele>528.3</ele>
        <time>2026-05-03T12:38:04Z</time>
      </trkpt>
      <trkpt lat="44.9397" lon="4.73289">
        <ele>528.4</ele>
        <time>2026-05-03T12:38:09Z</time>
      </trkpt>
      <trkpt lat="44.93968" lon="4.73278">
        <ele>528.1</ele>
        <time>2026-05-03T12:38:14Z</time>
      </trkpt>
      <trkpt lat="44.93964" lon="4.73269">
        <ele>528.3</ele>
        <time>2026-05-03T12:38:19Z</time>
      </trkpt>
      <trkpt lat="44.93962" lon="4.73259">
        <ele>528</ele>
        <time>2026-05-03T12:38:24Z</time>
      </trkpt>
      <trkpt lat="44.93959" lon="4.7325">
        <ele>527.9</ele>
        <time>2026-05-03T12:38:29Z</time>
      </trkpt>
      <trkpt lat="44.93957" lon="4.73241">
        <ele>527.9</ele>
        <time>2026-05-03T12:38:34Z</time>
      </trkpt>
      <trkpt lat="44.93954" lon="4.73232">
        <ele>527.9</ele>
        <time>2026-05-03T12:38:39Z</time>
      </trkpt>
      <trkpt lat="44.9395" lon="4.73223">
        <ele>528.1</ele>
        <time>2026-05-03T12:38:44Z</time>
      </trkpt>
      <trkpt lat="44.93944" lon="4.73216">
        <ele>528.6</ele>
        <time>2026-05-03T12:38:49Z</time>
      </trkpt>
      <trkpt lat="44.93936" lon="4.73216">
        <ele>529.6</ele>
        <time>2026-05-03T12:38:54Z</time>
      </trkpt>
      <trkpt lat="44.93932" lon="4.73218">
        <ele>530.2</ele>
        <time>2026-05-03T12:38:59Z</time>
        <extensions>
          <visugpx:TrkExtension xmlns:visugpx="https://www.visugpx.com/editgpx/">
            <visugpx:node>33</visugpx:node>
            </visugpx:TrkExtension>
        </extensions>
      </trkpt>
      <trkpt lat="44.93947" lon="4.73232">
        <ele>528.9</ele>
        <time>2026-05-04T05:14:06Z</time>
      </trkpt>
      <trkpt lat="44.93937" lon="4.73217">
        <ele>529.5</ele>
        <time>2026-05-04T05:14:12Z</time>
      </trkpt>
      <trkpt lat="44.93936" lon="4.73215">
        <ele>529.5</ele>
        <time>2026-05-04T05:14:17Z</time>
      </trkpt>
      <trkpt lat="44.93937" lon="4.73214">
        <ele>529.3</ele>
        <time>2026-05-04T05:14:22Z</time>
      </trkpt>
      <trkpt lat="44.93942" lon="4.73204">
        <ele>528.3</ele>
        <time>2026-05-04T05:14:27Z</time>
      </trkpt>
      <trkpt lat="44.93943" lon="4.73198">
        <ele>527.9</ele>
        <time>2026-05-04T05:14:32Z</time>
      </trkpt>
      <trkpt lat="44.93945" lon="4.7319">
        <ele>527.3</ele>
        <time>2026-05-04T05:14:37Z</time>
      </trkpt>
      <trkpt lat="44.93946" lon="4.73184">
        <ele>526.9</ele>
        <time>2026-05-04T05:14:42Z</time>
      </trkpt>
      <trkpt lat="44.93944" lon="4.73177">
        <ele>526.8</ele>
        <time>2026-05-04T05:14:47Z</time>
      </trkpt>
      <trkpt lat="44.93942" lon="4.73166">
        <ele>526.6</ele>
        <time>2026-05-04T05:14:52Z</time>
      </trkpt>
      <trkpt lat="44.93943" lon="4.73152">
        <ele>526.2</ele>
        <time>2026-05-04T05:14:57Z</time>
      </trkpt>
      <trkpt lat="44.93945" lon="4.73139">
        <ele>525.7</ele>
        <time>2026-05-04T05:15:02Z</time>
      </trkpt>
      <trkpt lat="44.93949" lon="4.73128">
        <ele>525.2</ele>
        <time>2026-05-04T05:15:07Z</time>
      </trkpt>
      <trkpt lat="44.9395" lon="4.73117">
        <ele>525</ele>
        <time>2026-05-04T05:15:12Z</time>
      </trkpt>
      <trkpt lat="44.93947" lon="4.73105">
        <ele>524.9</ele>
        <time>2026-05-04T05:15:17Z</time>
      </trkpt>
      <trkpt lat="44.93941" lon="4.73103">
        <ele>525.3</ele>
        <time>2026-05-04T05:15:22Z</time>
      </trkpt>
      <trkpt lat="44.93933" lon="4.73106">
        <ele>525.8</ele>
        <time>2026-05-04T05:15:27Z</time>
      </trkpt>
      <trkpt lat="44.93924" lon="4.7311">
        <ele>526.5</ele>
        <time>2026-05-04T05:15:32Z</time>
      </trkpt>
      <trkpt lat="44.93919" lon="4.73111">
        <ele>526.8</ele>
        <time>2026-05-04T05:15:37Z</time>
      </trkpt>
      <trkpt lat="44.93916" lon="4.73106">
        <ele>526.9</ele>
        <time>2026-05-04T05:15:42Z</time>
      </trkpt>
      <trkpt lat="44.93916" lon="4.73106">
        <ele>526.9</ele>
        <time>2026-05-04T05:15:47Z</time>
      </trkpt>
      <trkpt lat="44.93916" lon="4.73109">
        <ele>527</ele>
        <time>2026-05-04T05:15:52Z</time>
      </trkpt>
      <trkpt lat="44.93916" lon="4.73109">
        <ele>527</ele>
        <time>2026-05-04T05:15:57Z</time>
      </trkpt>
      <trkpt lat="44.93916" lon="4.73109">
        <ele>527</ele>
        <time>2026-05-04T05:16:02Z</time>
      </trkpt>
      <trkpt lat="44.93916" lon="4.73109">
        <ele>527</ele>
        <time>2026-05-04T05:16:07Z</time>
      </trkpt>
      <trkpt lat="44.93917" lon="4.73114">
        <ele>527.1</ele>
        <time>2026-05-04T05:16:12Z</time>
      </trkpt>
      <trkpt lat="44.93914" lon="4.73119">
        <ele>527.6</ele>
        <time>2026-05-04T05:16:17Z</time>
      </trkpt>
      <trkpt lat="44.93909" lon="4.7312">
        <ele>528.1</ele>
        <time>2026-05-04T05:16:22Z</time>
      </trkpt>
      <trkpt lat="44.93902" lon="4.73121">
        <ele>528.9</ele>
        <time>2026-05-04T05:16:27Z</time>
      </trkpt>
      <trkpt lat="44.93896" lon="4.73124">
        <ele>529.6</ele>
        <time>2026-05-04T05:16:32Z</time>
      </trkpt>
      <trkpt lat="44.93891" lon="4.73128">
        <ele>530.2</ele>
        <time>2026-05-04T05:16:37Z</time>
      </trkpt>
      <trkpt lat="44.93885" lon="4.7313">
        <ele>530.9</ele>
        <time>2026-05-04T05:16:42Z</time>
      </trkpt>
      <trkpt lat="44.93879" lon="4.73133">
        <ele>531.6</ele>
        <time>2026-05-04T05:16:47Z</time>
      </trkpt>
      <trkpt lat="44.93874" lon="4.73136">
        <ele>532.2</ele>
        <time>2026-05-04T05:16:52Z</time>
      </trkpt>
      <trkpt lat="44.93872" lon="4.73139">
        <ele>532.5</ele>
        <time>2026-05-04T05:16:57Z</time>
      </trkpt>
      <trkpt lat="44.93872" lon="4.7314">
        <ele>532.5</ele>
        <time>2026-05-04T05:17:02Z</time>
      </trkpt>
      <trkpt lat="44.93872" lon="4.7314">
        <ele>532.5</ele>
        <time>2026-05-04T05:17:07Z</time>
      </trkpt>
      <trkpt lat="44.93872" lon="4.7314">
        <ele>532.5</ele>
        <time>2026-05-04T05:17:12Z</time>
      </trkpt>
      <trkpt lat="44.93866" lon="4.73146">
        <ele>533.3</ele>
        <time>2026-05-04T05:17:17Z</time>
      </trkpt>
      <trkpt lat="44.93859" lon="4.7315">
        <ele>534.1</ele>
        <time>2026-05-04T05:17:22Z</time>
      </trkpt>
      <trkpt lat="44.93854" lon="4.73155">
        <ele>534.7</ele>
        <time>2026-05-04T05:17:27Z</time>
      </trkpt>
      <trkpt lat="44.93849" lon="4.7316">
        <ele>535.3</ele>
        <time>2026-05-04T05:17:32Z</time>
      </trkpt>
      <trkpt lat="44.93843" lon="4.73163">
        <ele>536</ele>
        <time>2026-05-04T05:17:37Z</time>
      </trkpt>
      <trkpt lat="44.93838" lon="4.73166">
        <ele>536.5</ele>
        <time>2026-05-04T05:17:42Z</time>
      </trkpt>
      <trkpt lat="44.9383" lon="4.73169">
        <ele>537.6</ele>
        <time>2026-05-04T05:17:47Z</time>
      </trkpt>
      <trkpt lat="44.93823" lon="4.73172">
        <ele>538.7</ele>
        <time>2026-05-04T05:17:52Z</time>
      </trkpt>
      <trkpt lat="44.93818" lon="4.73173">
        <ele>539.4</ele>
        <time>2026-05-04T05:17:57Z</time>
      </trkpt>
      <trkpt lat="44.93813" lon="4.73175">
        <ele>540.2</ele>
        <time>2026-05-04T05:18:02Z</time>
      </trkpt>
      <trkpt lat="44.93808" lon="4.73174">
        <ele>540.6</ele>
        <time>2026-05-04T05:18:07Z</time>
      </trkpt>
      <trkpt lat="44.93802" lon="4.73174">
        <ele>541.3</ele>
        <time>2026-05-04T05:18:12Z</time>
      </trkpt>
      <trkpt lat="44.93796" lon="4.73174">
        <ele>542</ele>
        <time>2026-05-04T05:18:17Z</time>
      </trkpt>
      <trkpt lat="44.93789" lon="4.73173">
        <ele>542.6</ele>
        <time>2026-05-04T05:18:22Z</time>
      </trkpt>
      <trkpt lat="44.93783" lon="4.73173">
        <ele>543.3</ele>
        <time>2026-05-04T05:18:27Z</time>
      </trkpt>
      <trkpt lat="44.93777" lon="4.73172">
        <ele>543.8</ele>
        <time>2026-05-04T05:18:32Z</time>
      </trkpt>
      <trkpt lat="44.93771" lon="4.73171">
        <ele>544.4</ele>
        <time>2026-05-04T05:18:37Z</time>
      </trkpt>
      <trkpt lat="44.93765" lon="4.7317">
        <ele>544.9</ele>
        <time>2026-05-04T05:18:42Z</time>
      </trkpt>
      <trkpt lat="44.93761" lon="4.7317">
        <ele>545.3</ele>
        <time>2026-05-04T05:18:47Z</time>
      </trkpt>
      <trkpt lat="44.93752" lon="4.73169">
        <ele>546.1</ele>
        <time>2026-05-04T05:18:52Z</time>
      </trkpt>
      <trkpt lat="44.93748" lon="4.73166">
        <ele>546.2</ele>
        <time>2026-05-04T05:18:57Z</time>
      </trkpt>
      <trkpt lat="44.93742" lon="4.73164">
        <ele>546.8</ele>
        <time>2026-05-04T05:19:02Z</time>
      </trkpt>
      <trkpt lat="44.93737" lon="4.73162">
        <ele>547.3</ele>
        <time>2026-05-04T05:19:07Z</time>
      </trkpt>
      <trkpt lat="44.93733" lon="4.73159">
        <ele>547.5</ele>
        <time>2026-05-04T05:19:12Z</time>
      </trkpt>
      <trkpt lat="44.93728" lon="4.73158">
        <ele>548</ele>
        <time>2026-05-04T05:19:17Z</time>
      </trkpt>
      <trkpt lat="44.93722" lon="4.73156">
        <ele>548.5</ele>
        <time>2026-05-04T05:19:22Z</time>
      </trkpt>
      <trkpt lat="44.93717" lon="4.73155">
        <ele>549</ele>
        <time>2026-05-04T05:19:27Z</time>
      </trkpt>
      <trkpt lat="44.93713" lon="4.73153">
        <ele>549.2</ele>
        <time>2026-05-04T05:19:32Z</time>
      </trkpt>
      <trkpt lat="44.93709" lon="4.73149">
        <ele>549.2</ele>
        <time>2026-05-04T05:19:37Z</time>
      </trkpt>
      <trkpt lat="44.93706" lon="4.73144">
        <ele>548.9</ele>
        <time>2026-05-04T05:19:42Z</time>
      </trkpt>
      <trkpt lat="44.93702" lon="4.73138">
        <ele>548.5</ele>
        <time>2026-05-04T05:19:47Z</time>
      </trkpt>
      <trkpt lat="44.93698" lon="4.73131">
        <ele>548</ele>
        <time>2026-05-04T05:19:52Z</time>
      </trkpt>
      <trkpt lat="44.93697" lon="4.73123">
        <ele>547</ele>
        <time>2026-05-04T05:19:57Z</time>
      </trkpt>
      <trkpt lat="44.93692" lon="4.73115">
        <ele>546.3</ele>
        <time>2026-05-04T05:20:02Z</time>
      </trkpt>
      <trkpt lat="44.93687" lon="4.7311">
        <ele>546</ele>
        <time>2026-05-04T05:20:07Z</time>
      </trkpt>
      <trkpt lat="44.9368" lon="4.73112">
        <ele>546.8</ele>
        <time>2026-05-04T05:20:12Z</time>
      </trkpt>
      <trkpt lat="44.93674" lon="4.73113">
        <ele>547.4</ele>
        <time>2026-05-04T05:20:17Z</time>
      </trkpt>
      <trkpt lat="44.93673" lon="4.73113">
        <ele>547.5</ele>
        <time>2026-05-04T05:20:22Z</time>
      </trkpt>
      <trkpt lat="44.93673" lon="4.73113">
        <ele>547.5</ele>
        <time>2026-05-04T05:20:27Z</time>
      </trkpt>
      <trkpt lat="44.93673" lon="4.73113">
        <ele>547.5</ele>
        <time>2026-05-04T05:20:32Z</time>
      </trkpt>
      <trkpt lat="44.93673" lon="4.73113">
        <ele>547.5</ele>
        <time>2026-05-04T05:20:37Z</time>
      </trkpt>
      <trkpt lat="44.93673" lon="4.73113">
        <ele>547.5</ele>
        <time>2026-05-04T05:20:42Z</time>
      </trkpt>
      <trkpt lat="44.93671" lon="4.73116">
        <ele>548.1</ele>
        <time>2026-05-04T05:20:47Z</time>
      </trkpt>
      <trkpt lat="44.93664" lon="4.73122">
        <ele>549.8</ele>
        <time>2026-05-04T05:20:52Z</time>
      </trkpt>
      <trkpt lat="44.93659" lon="4.73129">
        <ele>551.5</ele>
        <time>2026-05-04T05:20:57Z</time>
      </trkpt>
      <trkpt lat="44.93656" lon="4.73135">
        <ele>552.8</ele>
        <time>2026-05-04T05:21:02Z</time>
      </trkpt>
      <trkpt lat="44.93652" lon="4.73141">
        <ele>554.2</ele>
        <time>2026-05-04T05:21:07Z</time>
      </trkpt>
      <trkpt lat="44.93647" lon="4.73146">
        <ele>555.5</ele>
        <time>2026-05-04T05:21:12Z</time>
      </trkpt>
      <trkpt lat="44.93644" lon="4.73152">
        <ele>556.8</ele>
        <time>2026-05-04T05:21:17Z</time>
      </trkpt>
      <trkpt lat="44.93639" lon="4.73157">
        <ele>558.1</ele>
        <time>2026-05-04T05:21:22Z</time>
      </trkpt>
      <trkpt lat="44.93634" lon="4.73158">
        <ele>558.8</ele>
        <time>2026-05-04T05:21:27Z</time>
      </trkpt>
      <trkpt lat="44.93628" lon="4.7316">
        <ele>559.7</ele>
        <time>2026-05-04T05:21:32Z</time>
      </trkpt>
      <trkpt lat="44.93622" lon="4.73162">
        <ele>560.6</ele>
        <time>2026-05-04T05:21:37Z</time>
      </trkpt>
      <trkpt lat="44.93617" lon="4.73162">
        <ele>561.1</ele>
        <time>2026-05-04T05:21:42Z</time>
      </trkpt>
      <trkpt lat="44.93612" lon="4.73161">
        <ele>561.4</ele>
        <time>2026-05-04T05:21:47Z</time>
      </trkpt>
      <trkpt lat="44.93607" lon="4.73159">
        <ele>561.6</ele>
        <time>2026-05-04T05:21:52Z</time>
      </trkpt>
      <trkpt lat="44.93601" lon="4.73157">
        <ele>561.9</ele>
        <time>2026-05-04T05:21:57Z</time>
      </trkpt>
      <trkpt lat="44.93595" lon="4.73155">
        <ele>562.2</ele>
        <time>2026-05-04T05:22:02Z</time>
      </trkpt>
      <trkpt lat="44.93589" lon="4.73154">
        <ele>562.6</ele>
        <time>2026-05-04T05:22:07Z</time>
      </trkpt>
      <trkpt lat="44.93581" lon="4.73151">
        <ele>562.9</ele>
        <time>2026-05-04T05:22:12Z</time>
      </trkpt>
      <trkpt lat="44.93575" lon="4.7315">
        <ele>563.1</ele>
        <time>2026-05-04T05:22:17Z</time>
      </trkpt>
      <trkpt lat="44.9357" lon="4.73152">
        <ele>563.6</ele>
        <time>2026-05-04T05:22:22Z</time>
      </trkpt>
      <trkpt lat="44.93564" lon="4.73153">
        <ele>564.1</ele>
        <time>2026-05-04T05:22:27Z</time>
      </trkpt>
      <trkpt lat="44.93558" lon="4.73154">
        <ele>564.6</ele>
        <time>2026-05-04T05:22:32Z</time>
      </trkpt>
      <trkpt lat="44.93553" lon="4.73156">
        <ele>565.1</ele>
        <time>2026-05-04T05:22:37Z</time>
      </trkpt>
      <trkpt lat="44.93547" lon="4.73157">
        <ele>565.6</ele>
        <time>2026-05-04T05:22:42Z</time>
      </trkpt>
      <trkpt lat="44.93541" lon="4.73157">
        <ele>565.9</ele>
        <time>2026-05-04T05:22:47Z</time>
      </trkpt>
      <trkpt lat="44.93536" lon="4.73158">
        <ele>566.3</ele>
        <time>2026-05-04T05:22:52Z</time>
      </trkpt>
      <trkpt lat="44.9353" lon="4.73159">
        <ele>566.7</ele>
        <time>2026-05-04T05:22:57Z</time>
      </trkpt>
      <trkpt lat="44.93524" lon="4.73161">
        <ele>567.2</ele>
        <time>2026-05-04T05:23:02Z</time>
      </trkpt>
      <trkpt lat="44.93517" lon="4.73162">
        <ele>567.7</ele>
        <time>2026-05-04T05:23:07Z</time>
      </trkpt>
      <trkpt lat="44.93511" lon="4.73161">
        <ele>567.9</ele>
        <time>2026-05-04T05:23:12Z</time>
      </trkpt>
      <trkpt lat="44.93504" lon="4.73163">
        <ele>568.4</ele>
        <time>2026-05-04T05:23:17Z</time>
      </trkpt>
      <trkpt lat="44.93499" lon="4.73165">
        <ele>568.8</ele>
        <time>2026-05-04T05:23:22Z</time>
      </trkpt>
      <trkpt lat="44.93493" lon="4.73166">
        <ele>568.9</ele>
        <time>2026-05-04T05:23:27Z</time>
      </trkpt>
      <trkpt lat="44.93488" lon="4.73166">
        <ele>568.9</ele>
        <time>2026-05-04T05:23:32Z</time>
      </trkpt>
      <trkpt lat="44.93484" lon="4.73167">
        <ele>569</ele>
        <time>2026-05-04T05:23:37Z</time>
      </trkpt>
      <trkpt lat="44.93479" lon="4.7317">
        <ele>569</ele>
        <time>2026-05-04T05:23:42Z</time>
      </trkpt>
      <trkpt lat="44.93474" lon="4.73172">
        <ele>569.1</ele>
        <time>2026-05-04T05:23:47Z</time>
      </trkpt>
      <trkpt lat="44.93469" lon="4.73174">
        <ele>569.1</ele>
        <time>2026-05-04T05:23:52Z</time>
      </trkpt>
      <trkpt lat="44.93464" lon="4.73177">
        <ele>569.2</ele>
        <time>2026-05-04T05:23:57Z</time>
      </trkpt>
      <trkpt lat="44.93459" lon="4.7318">
        <ele>569.3</ele>
        <time>2026-05-04T05:24:02Z</time>
      </trkpt>
      <trkpt lat="44.93453" lon="4.73184">
        <ele>569.5</ele>
        <time>2026-05-04T05:24:07Z</time>
      </trkpt>
      <trkpt lat="44.93446" lon="4.73188">
        <ele>569.7</ele>
        <time>2026-05-04T05:24:12Z</time>
      </trkpt>
      <trkpt lat="44.93439" lon="4.73189">
        <ele>569.8</ele>
        <time>2026-05-04T05:24:17Z</time>
      </trkpt>
      <trkpt lat="44.93434" lon="4.73192">
        <ele>570</ele>
        <time>2026-05-04T05:24:22Z</time>
      </trkpt>
      <trkpt lat="44.93428" lon="4.73196">
        <ele>570.2</ele>
        <time>2026-05-04T05:24:27Z</time>
      </trkpt>
      <trkpt lat="44.93421" lon="4.732">
        <ele>570.5</ele>
        <time>2026-05-04T05:24:32Z</time>
      </trkpt>
      <trkpt lat="44.93415" lon="4.73205">
        <ele>570.9</ele>
        <time>2026-05-04T05:24:37Z</time>
      </trkpt>
      <trkpt lat="44.93409" lon="4.73208">
        <ele>571.1</ele>
        <time>2026-05-04T05:24:42Z</time>
      </trkpt>
      <trkpt lat="44.93404" lon="4.73214">
        <ele>571.5</ele>
        <time>2026-05-04T05:24:47Z</time>
      </trkpt>
      <trkpt lat="44.93398" lon="4.73216">
        <ele>571.7</ele>
        <time>2026-05-04T05:24:52Z</time>
      </trkpt>
      <trkpt lat="44.93393" lon="4.73221">
        <ele>572.2</ele>
        <time>2026-05-04T05:24:57Z</time>
      </trkpt>
      <trkpt lat="44.93387" lon="4.73227">
        <ele>572.7</ele>
        <time>2026-05-04T05:25:02Z</time>
      </trkpt>
      <trkpt lat="44.93384" lon="4.73234">
        <ele>573.3</ele>
        <time>2026-05-04T05:25:07Z</time>
      </trkpt>
      <trkpt lat="44.93379" lon="4.73239">
        <ele>573.9</ele>
        <time>2026-05-04T05:25:12Z</time>
      </trkpt>
      <trkpt lat="44.93373" lon="4.73241">
        <ele>574.3</ele>
        <time>2026-05-04T05:25:17Z</time>
      </trkpt>
      <trkpt lat="44.93366" lon="4.73241">
        <ele>574.6</ele>
        <time>2026-05-04T05:25:22Z</time>
      </trkpt>
      <trkpt lat="44.93359" lon="4.7324">
        <ele>574.8</ele>
        <time>2026-05-04T05:25:27Z</time>
      </trkpt>
      <trkpt lat="44.93352" lon="4.73239">
        <ele>575</ele>
        <time>2026-05-04T05:25:32Z</time>
      </trkpt>
      <trkpt lat="44.93345" lon="4.73239">
        <ele>575.2</ele>
        <time>2026-05-04T05:25:37Z</time>
      </trkpt>
      <trkpt lat="44.93337" lon="4.73237">
        <ele>575.3</ele>
        <time>2026-05-04T05:25:42Z</time>
      </trkpt>
      <trkpt lat="44.93332" lon="4.73236">
        <ele>575.3</ele>
        <time>2026-05-04T05:25:47Z</time>
      </trkpt>
      <trkpt lat="44.93326" lon="4.73235">
        <ele>575</ele>
        <time>2026-05-04T05:25:52Z</time>
      </trkpt>
      <trkpt lat="44.9332" lon="4.73236">
        <ele>575</ele>
        <time>2026-05-04T05:25:57Z</time>
      </trkpt>
      <trkpt lat="44.93313" lon="4.73236">
        <ele>574.8</ele>
        <time>2026-05-04T05:26:02Z</time>
      </trkpt>
      <trkpt lat="44.93307" lon="4.73236">
        <ele>574.7</ele>
        <time>2026-05-04T05:26:07Z</time>
      </trkpt>
      <trkpt lat="44.933" lon="4.73237">
        <ele>574.6</ele>
        <time>2026-05-04T05:26:12Z</time>
      </trkpt>
      <trkpt lat="44.93292" lon="4.73239">
        <ele>574.7</ele>
        <time>2026-05-04T05:26:17Z</time>
      </trkpt>
      <trkpt lat="44.93286" lon="4.73239">
        <ele>574.5</ele>
        <time>2026-05-04T05:26:22Z</time>
      </trkpt>
      <trkpt lat="44.93279" lon="4.73239">
        <ele>574.4</ele>
        <time>2026-05-04T05:26:27Z</time>
      </trkpt>
      <trkpt lat="44.93272" lon="4.73238">
        <ele>574.1</ele>
        <time>2026-05-04T05:26:32Z</time>
      </trkpt>
      <trkpt lat="44.93265" lon="4.73235">
        <ele>573.6</ele>
        <time>2026-05-04T05:26:37Z</time>
      </trkpt>
      <trkpt lat="44.93258" lon="4.73235">
        <ele>573.4</ele>
        <time>2026-05-04T05:26:42Z</time>
      </trkpt>
      <trkpt lat="44.93252" lon="4.73236">
        <ele>573.4</ele>
        <time>2026-05-04T05:26:47Z</time>
      </trkpt>
      <trkpt lat="44.93246" lon="4.73238">
        <ele>573.7</ele>
        <time>2026-05-04T05:26:52Z</time>
      </trkpt>
      <trkpt lat="44.9324" lon="4.7324">
        <ele>574.1</ele>
        <time>2026-05-04T05:26:57Z</time>
      </trkpt>
      <trkpt lat="44.93237" lon="4.73242">
        <ele>574.4</ele>
        <time>2026-05-04T05:27:02Z</time>
      </trkpt>
      <trkpt lat="44.93237" lon="4.73242">
        <ele>574.4</ele>
        <time>2026-05-04T05:27:07Z</time>
      </trkpt>
      <trkpt lat="44.93237" lon="4.73242">
        <ele>574.4</ele>
        <time>2026-05-04T05:27:12Z</time>
      </trkpt>
      <trkpt lat="44.93237" lon="4.73242">
        <ele>574.4</ele>
        <time>2026-05-04T05:27:17Z</time>
      </trkpt>
      <trkpt lat="44.93237" lon="4.73242">
        <ele>574.4</ele>
        <time>2026-05-04T05:27:22Z</time>
      </trkpt>
      <trkpt lat="44.93237" lon="4.73242">
        <ele>574.4</ele>
        <time>2026-05-04T05:27:27Z</time>
      </trkpt>
      <trkpt lat="44.93237" lon="4.73242">
        <ele>574.4</ele>
        <time>2026-05-04T05:27:32Z</time>
      </trkpt>
      <trkpt lat="44.93237" lon="4.73242">
        <ele>574.4</ele>
        <time>2026-05-04T05:27:37Z</time>
      </trkpt>
      <trkpt lat="44.93237" lon="4.73242">
        <ele>574.4</ele>
        <time>2026-05-04T05:27:42Z</time>
      </trkpt>
      <trkpt lat="44.93237" lon="4.73242">
        <ele>574.4</ele>
        <time>2026-05-04T05:27:47Z</time>
      </trkpt>
      <trkpt lat="44.93237" lon="4.73242">
        <ele>574.4</ele>
        <time>2026-05-04T05:27:52Z</time>
      </trkpt>
      <trkpt lat="44.93237" lon="4.73242">
        <ele>574.4</ele>
        <time>2026-05-04T05:27:57Z</time>
      </trkpt>
      <trkpt lat="44.93237" lon="4.73242">
        <ele>574.4</ele>
        <time>2026-05-04T05:28:02Z</time>
      </trkpt>
      <trkpt lat="44.93237" lon="4.73242">
        <ele>574.4</ele>
        <time>2026-05-04T05:28:07Z</time>
      </trkpt>
      <trkpt lat="44.93237" lon="4.73242">
        <ele>574.4</ele>
        <time>2026-05-04T05:28:12Z</time>
      </trkpt>
      <trkpt lat="44.93237" lon="4.73242">
        <ele>574.4</ele>
        <time>2026-05-04T05:28:17Z</time>
      </trkpt>
      <trkpt lat="44.93237" lon="4.73242">
        <ele>574.4</ele>
        <time>2026-05-04T05:28:22Z</time>
      </trkpt>
      <trkpt lat="44.93237" lon="4.73242">
        <ele>574.4</ele>
        <time>2026-05-04T05:28:27Z</time>
      </trkpt>
      <trkpt lat="44.93237" lon="4.73242">
        <ele>574.4</ele>
        <time>2026-05-04T05:28:32Z</time>
      </trkpt>
      <trkpt lat="44.93237" lon="4.73242">
        <ele>574.4</ele>
        <time>2026-05-04T05:28:37Z</time>
      </trkpt>
      <trkpt lat="44.93237" lon="4.73242">
        <ele>574.4</ele>
        <time>2026-05-04T05:28:42Z</time>
      </trkpt>
      <trkpt lat="44.93237" lon="4.73242">
        <ele>574.4</ele>
        <time>2026-05-04T05:28:47Z</time>
      </trkpt>
      <trkpt lat="44.93237" lon="4.73242">
        <ele>574.4</ele>
        <time>2026-05-04T05:28:52Z</time>
      </trkpt>
      <trkpt lat="44.93237" lon="4.73242">
        <ele>574.4</ele>
        <time>2026-05-04T05:28:57Z</time>
      </trkpt>
      <trkpt lat="44.93237" lon="4.73242">
        <ele>574.4</ele>
        <time>2026-05-04T05:29:02Z</time>
      </trkpt>
      <trkpt lat="44.93237" lon="4.73242">
        <ele>574.4</ele>
        <time>2026-05-04T05:29:07Z</time>
      </trkpt>
      <trkpt lat="44.93237" lon="4.73242">
        <ele>574.4</ele>
        <time>2026-05-04T05:29:12Z</time>
      </trkpt>
      <trkpt lat="44.93237" lon="4.73242">
        <ele>574.4</ele>
        <time>2026-05-04T05:29:17Z</time>
      </trkpt>
      <trkpt lat="44.93237" lon="4.73242">
        <ele>574.4</ele>
        <time>2026-05-04T05:29:22Z</time>
      </trkpt>
      <trkpt lat="44.93237" lon="4.73242">
        <ele>574.4</ele>
        <time>2026-05-04T05:29:27Z</time>
      </trkpt>
      <trkpt lat="44.93237" lon="4.73242">
        <ele>574.4</ele>
        <time>2026-05-04T05:29:32Z</time>
      </trkpt>
      <trkpt lat="44.93237" lon="4.73242">
        <ele>574.4</ele>
        <time>2026-05-04T05:29:37Z</time>
      </trkpt>
      <trkpt lat="44.93237" lon="4.73242">
        <ele>574.4</ele>
        <time>2026-05-04T05:29:42Z</time>
      </trkpt>
      <trkpt lat="44.93237" lon="4.73242">
        <ele>574.4</ele>
        <time>2026-05-04T05:29:47Z</time>
      </trkpt>
      <trkpt lat="44.93237" lon="4.73242">
        <ele>574.4</ele>
        <time>2026-05-04T05:29:52Z</time>
      </trkpt>
      <trkpt lat="44.93228" lon="4.7324">
        <ele>574.4</ele>
        <time>2026-05-04T05:29:57Z</time>
      </trkpt>
      <trkpt lat="44.93226" lon="4.73239">
        <ele>574.4</ele>
        <time>2026-05-04T05:30:02Z</time>
      </trkpt>
      <trkpt lat="44.93217" lon="4.73238">
        <ele>574.5</ele>
        <time>2026-05-04T05:30:07Z</time>
      </trkpt>
      <trkpt lat="44.93211" lon="4.73237">
        <ele>574.5</ele>
        <time>2026-05-04T05:30:12Z</time>
      </trkpt>
      <trkpt lat="44.93206" lon="4.73238">
        <ele>574.8</ele>
        <time>2026-05-04T05:30:17Z</time>
      </trkpt>
      <trkpt lat="44.93201" lon="4.7324">
        <ele>575.2</ele>
        <time>2026-05-04T05:30:22Z</time>
      </trkpt>
      <trkpt lat="44.93196" lon="4.73241">
        <ele>575.5</ele>
        <time>2026-05-04T05:30:27Z</time>
      </trkpt>
      <trkpt lat="44.93192" lon="4.73242">
        <ele>575.8</ele>
        <time>2026-05-04T05:30:32Z</time>
      </trkpt>
      <trkpt lat="44.93186" lon="4.73242">
        <ele>576</ele>
        <time>2026-05-04T05:30:37Z</time>
      </trkpt>
      <trkpt lat="44.93179" lon="4.73241">
        <ele>576</ele>
        <time>2026-05-04T05:30:42Z</time>
      </trkpt>
      <trkpt lat="44.93173" lon="4.73238">
        <ele>575.7</ele>
        <time>2026-05-04T05:30:47Z</time>
      </trkpt>
      <trkpt lat="44.93167" lon="4.73236">
        <ele>575.5</ele>
        <time>2026-05-04T05:30:52Z</time>
      </trkpt>
      <trkpt lat="44.93159" lon="4.73236">
        <ele>576.1</ele>
        <time>2026-05-04T05:30:57Z</time>
      </trkpt>
      <trkpt lat="44.93153" lon="4.73236">
        <ele>576.5</ele>
        <time>2026-05-04T05:31:02Z</time>
      </trkpt>
      <trkpt lat="44.93147" lon="4.73237">
        <ele>577.1</ele>
        <time>2026-05-04T05:31:07Z</time>
      </trkpt>
      <trkpt lat="44.93142" lon="4.73236">
        <ele>577.4</ele>
        <time>2026-05-04T05:31:12Z</time>
      </trkpt>
      <trkpt lat="44.93137" lon="4.73235">
        <ele>577.6</ele>
        <time>2026-05-04T05:31:17Z</time>
      </trkpt>
      <trkpt lat="44.93131" lon="4.73233">
        <ele>577.7</ele>
        <time>2026-05-04T05:31:22Z</time>
      </trkpt>
      <trkpt lat="44.93124" lon="4.73232">
        <ele>578.1</ele>
        <time>2026-05-04T05:31:27Z</time>
      </trkpt>
      <trkpt lat="44.93117" lon="4.73234">
        <ele>578.9</ele>
        <time>2026-05-04T05:31:32Z</time>
      </trkpt>
      <trkpt lat="44.93111" lon="4.73234">
        <ele>579.4</ele>
        <time>2026-05-04T05:31:37Z</time>
      </trkpt>
      <trkpt lat="44.93106" lon="4.73235">
        <ele>579.9</ele>
        <time>2026-05-04T05:31:42Z</time>
      </trkpt>
      <trkpt lat="44.931" lon="4.73235">
        <ele>580.4</ele>
        <time>2026-05-04T05:31:47Z</time>
      </trkpt>
      <trkpt lat="44.93094" lon="4.73235">
        <ele>580.8</ele>
        <time>2026-05-04T05:31:52Z</time>
      </trkpt>
      <trkpt lat="44.93088" lon="4.73237">
        <ele>581.6</ele>
        <time>2026-05-04T05:31:57Z</time>
      </trkpt>
      <trkpt lat="44.93083" lon="4.73236">
        <ele>581.8</ele>
        <time>2026-05-04T05:32:02Z</time>
      </trkpt>
      <trkpt lat="44.93078" lon="4.73235">
        <ele>582.1</ele>
        <time>2026-05-04T05:32:07Z</time>
      </trkpt>
      <trkpt lat="44.93073" lon="4.73235">
        <ele>582.6</ele>
        <time>2026-05-04T05:32:12Z</time>
      </trkpt>
      <trkpt lat="44.93068" lon="4.73235">
        <ele>583</ele>
        <time>2026-05-04T05:32:17Z</time>
      </trkpt>
      <trkpt lat="44.93063" lon="4.73234">
        <ele>583.3</ele>
        <time>2026-05-04T05:32:22Z</time>
      </trkpt>
      <trkpt lat="44.93057" lon="4.73234">
        <ele>583.8</ele>
        <time>2026-05-04T05:32:27Z</time>
      </trkpt>
      <trkpt lat="44.93051" lon="4.73233">
        <ele>584.2</ele>
        <time>2026-05-04T05:32:32Z</time>
      </trkpt>
      <trkpt lat="44.93047" lon="4.73231">
        <ele>584.3</ele>
        <time>2026-05-04T05:32:37Z</time>
      </trkpt>
      <trkpt lat="44.93041" lon="4.73229">
        <ele>584.5</ele>
        <time>2026-05-04T05:32:42Z</time>
      </trkpt>
      <trkpt lat="44.93036" lon="4.73227">
        <ele>584.7</ele>
        <time>2026-05-04T05:32:47Z</time>
      </trkpt>
      <trkpt lat="44.93031" lon="4.73226">
        <ele>585</ele>
        <time>2026-05-04T05:32:52Z</time>
      </trkpt>
      <trkpt lat="44.93026" lon="4.73225">
        <ele>585.3</ele>
        <time>2026-05-04T05:32:57Z</time>
      </trkpt>
      <trkpt lat="44.93019" lon="4.73224">
        <ele>585.8</ele>
        <time>2026-05-04T05:33:02Z</time>
      </trkpt>
      <trkpt lat="44.93016" lon="4.73223">
        <ele>586</ele>
        <time>2026-05-04T05:33:07Z</time>
      </trkpt>
      <trkpt lat="44.93012" lon="4.73223">
        <ele>586.3</ele>
        <time>2026-05-04T05:33:12Z</time>
      </trkpt>
      <trkpt lat="44.93007" lon="4.73221">
        <ele>586.5</ele>
        <time>2026-05-04T05:33:17Z</time>
      </trkpt>
      <trkpt lat="44.93002" lon="4.73222">
        <ele>587.1</ele>
        <time>2026-05-04T05:33:22Z</time>
      </trkpt>
      <trkpt lat="44.92997" lon="4.73222">
        <ele>587.3</ele>
        <time>2026-05-04T05:33:27Z</time>
      </trkpt>
      <trkpt lat="44.92992" lon="4.73222">
        <ele>587.2</ele>
        <time>2026-05-04T05:33:32Z</time>
      </trkpt>
      <trkpt lat="44.92987" lon="4.73222">
        <ele>587.2</ele>
        <time>2026-05-04T05:33:37Z</time>
      </trkpt>
      <trkpt lat="44.92981" lon="4.73222">
        <ele>587.2</ele>
        <time>2026-05-04T05:33:42Z</time>
      </trkpt>
      <trkpt lat="44.92976" lon="4.73221">
        <ele>587</ele>
        <time>2026-05-04T05:33:47Z</time>
      </trkpt>
      <trkpt lat="44.92972" lon="4.73221">
        <ele>587</ele>
        <time>2026-05-04T05:33:52Z</time>
      </trkpt>
      <trkpt lat="44.92967" lon="4.73221">
        <ele>586.9</ele>
        <time>2026-05-04T05:33:57Z</time>
      </trkpt>
      <trkpt lat="44.92962" lon="4.73221">
        <ele>586.9</ele>
        <time>2026-05-04T05:34:02Z</time>
      </trkpt>
      <trkpt lat="44.92957" lon="4.73219">
        <ele>586.7</ele>
        <time>2026-05-04T05:34:07Z</time>
      </trkpt>
      <trkpt lat="44.92951" lon="4.7322">
        <ele>586.8</ele>
        <time>2026-05-04T05:34:12Z</time>
      </trkpt>
      <trkpt lat="44.92947" lon="4.7322">
        <ele>586.7</ele>
        <time>2026-05-04T05:34:17Z</time>
      </trkpt>
      <trkpt lat="44.92943" lon="4.73221">
        <ele>586.8</ele>
        <time>2026-05-04T05:34:22Z</time>
      </trkpt>
      <trkpt lat="44.92939" lon="4.7322">
        <ele>586.7</ele>
        <time>2026-05-04T05:34:27Z</time>
      </trkpt>
      <trkpt lat="44.92934" lon="4.73218">
        <ele>586.5</ele>
        <time>2026-05-04T05:34:32Z</time>
      </trkpt>
      <trkpt lat="44.92931" lon="4.73216">
        <ele>586.4</ele>
        <time>2026-05-04T05:34:37Z</time>
      </trkpt>
      <trkpt lat="44.92925" lon="4.73214">
        <ele>586.3</ele>
        <time>2026-05-04T05:34:42Z</time>
      </trkpt>
      <trkpt lat="44.92919" lon="4.73212">
        <ele>586.2</ele>
        <time>2026-05-04T05:34:47Z</time>
      </trkpt>
      <trkpt lat="44.92915" lon="4.73212">
        <ele>586.2</ele>
        <time>2026-05-04T05:34:52Z</time>
      </trkpt>
      <trkpt lat="44.9291" lon="4.73211">
        <ele>586.1</ele>
        <time>2026-05-04T05:34:57Z</time>
      </trkpt>
      <trkpt lat="44.92905" lon="4.73211">
        <ele>586.1</ele>
        <time>2026-05-04T05:35:02Z</time>
      </trkpt>
      <trkpt lat="44.929" lon="4.73211">
        <ele>586.1</ele>
        <time>2026-05-04T05:35:07Z</time>
      </trkpt>
      <trkpt lat="44.92895" lon="4.7321">
        <ele>586</ele>
        <time>2026-05-04T05:35:12Z</time>
      </trkpt>
      <trkpt lat="44.9289" lon="4.7321">
        <ele>586</ele>
        <time>2026-05-04T05:35:17Z</time>
      </trkpt>
      <trkpt lat="44.92886" lon="4.7321">
        <ele>586</ele>
        <time>2026-05-04T05:35:22Z</time>
      </trkpt>
      <trkpt lat="44.92882" lon="4.7321">
        <ele>586</ele>
        <time>2026-05-04T05:35:27Z</time>
      </trkpt>
      <trkpt lat="44.92877" lon="4.7321">
        <ele>586</ele>
        <time>2026-05-04T05:35:32Z</time>
      </trkpt>
      <trkpt lat="44.92874" lon="4.73211">
        <ele>586</ele>
        <time>2026-05-04T05:35:37Z</time>
      </trkpt>
      <trkpt lat="44.9287" lon="4.73212">
        <ele>586</ele>
        <time>2026-05-04T05:35:42Z</time>
      </trkpt>
      <trkpt lat="44.92867" lon="4.73215">
        <ele>586</ele>
        <time>2026-05-04T05:35:47Z</time>
      </trkpt>
      <trkpt lat="44.92864" lon="4.73217">
        <ele>586</ele>
        <time>2026-05-04T05:35:52Z</time>
      </trkpt>
      <trkpt lat="44.92859" lon="4.7322">
        <ele>586</ele>
        <time>2026-05-04T05:35:57Z</time>
      </trkpt>
      <trkpt lat="44.92854" lon="4.73221">
        <ele>585.9</ele>
        <time>2026-05-04T05:36:02Z</time>
      </trkpt>
      <trkpt lat="44.9285" lon="4.73224">
        <ele>585.8</ele>
        <time>2026-05-04T05:36:07Z</time>
      </trkpt>
      <trkpt lat="44.92847" lon="4.73227">
        <ele>585.8</ele>
        <time>2026-05-04T05:36:12Z</time>
      </trkpt>
      <trkpt lat="44.92845" lon="4.73228">
        <ele>585.7</ele>
        <time>2026-05-04T05:36:17Z</time>
      </trkpt>
      <trkpt lat="44.92845" lon="4.73228">
        <ele>585.7</ele>
        <time>2026-05-04T05:36:22Z</time>
      </trkpt>
      <trkpt lat="44.92845" lon="4.73228">
        <ele>585.7</ele>
        <time>2026-05-04T05:36:27Z</time>
      </trkpt>
      <trkpt lat="44.92845" lon="4.73228">
        <ele>585.7</ele>
        <time>2026-05-04T05:36:32Z</time>
      </trkpt>
      <trkpt lat="44.92845" lon="4.73228">
        <ele>585.7</ele>
        <time>2026-05-04T05:36:37Z</time>
      </trkpt>
      <trkpt lat="44.92845" lon="4.73228">
        <ele>585.7</ele>
        <time>2026-05-04T05:36:42Z</time>
      </trkpt>
      <trkpt lat="44.92842" lon="4.73234">
        <ele>585.6</ele>
        <time>2026-05-04T05:36:47Z</time>
      </trkpt>
      <trkpt lat="44.92838" lon="4.73237">
        <ele>585.4</ele>
        <time>2026-05-04T05:36:52Z</time>
      </trkpt>
      <trkpt lat="44.92833" lon="4.73239">
        <ele>585.3</ele>
        <time>2026-05-04T05:36:57Z</time>
      </trkpt>
      <trkpt lat="44.92827" lon="4.7324">
        <ele>585.9</ele>
        <time>2026-05-04T05:37:02Z</time>
      </trkpt>
      <trkpt lat="44.92821" lon="4.73241">
        <ele>586.4</ele>
        <time>2026-05-04T05:37:07Z</time>
      </trkpt>
      <trkpt lat="44.92816" lon="4.73243">
        <ele>586.8</ele>
        <time>2026-05-04T05:37:12Z</time>
      </trkpt>
      <trkpt lat="44.92811" lon="4.73245">
        <ele>587.3</ele>
        <time>2026-05-04T05:37:17Z</time>
      </trkpt>
      <trkpt lat="44.92806" lon="4.73248">
        <ele>587.7</ele>
        <time>2026-05-04T05:37:22Z</time>
      </trkpt>
      <trkpt lat="44.92799" lon="4.7325">
        <ele>588.3</ele>
        <time>2026-05-04T05:37:27Z</time>
      </trkpt>
      <trkpt lat="44.92795" lon="4.73254">
        <ele>589</ele>
        <time>2026-05-04T05:37:32Z</time>
      </trkpt>
      <trkpt lat="44.92789" lon="4.73255">
        <ele>589.7</ele>
        <time>2026-05-04T05:37:37Z</time>
      </trkpt>
      <trkpt lat="44.92785" lon="4.73257">
        <ele>590.2</ele>
        <time>2026-05-04T05:37:42Z</time>
      </trkpt>
      <trkpt lat="44.92779" lon="4.73258">
        <ele>590.9</ele>
        <time>2026-05-04T05:37:47Z</time>
      </trkpt>
      <trkpt lat="44.92774" lon="4.73259">
        <ele>591.5</ele>
        <time>2026-05-04T05:37:52Z</time>
      </trkpt>
      <trkpt lat="44.92768" lon="4.7326">
        <ele>592.2</ele>
        <time>2026-05-04T05:37:57Z</time>
      </trkpt>
      <trkpt lat="44.92762" lon="4.73261">
        <ele>592.9</ele>
        <time>2026-05-04T05:38:02Z</time>
      </trkpt>
      <trkpt lat="44.92755" lon="4.73262">
        <ele>593.8</ele>
        <time>2026-05-04T05:38:07Z</time>
      </trkpt>
      <trkpt lat="44.9275" lon="4.73264">
        <ele>594.5</ele>
        <time>2026-05-04T05:38:12Z</time>
      </trkpt>
      <trkpt lat="44.92748" lon="4.73271">
        <ele>595.5</ele>
        <time>2026-05-04T05:38:17Z</time>
      </trkpt>
      <trkpt lat="44.9275" lon="4.73279">
        <ele>596.1</ele>
        <time>2026-05-04T05:38:22Z</time>
      </trkpt>
      <trkpt lat="44.92752" lon="4.73287">
        <ele>596.8</ele>
        <time>2026-05-04T05:38:27Z</time>
      </trkpt>
      <trkpt lat="44.92755" lon="4.73292">
        <ele>596.9</ele>
        <time>2026-05-04T05:38:32Z</time>
      </trkpt>
      <trkpt lat="44.9276" lon="4.73299">
        <ele>597</ele>
        <time>2026-05-04T05:38:37Z</time>
      </trkpt>
      <trkpt lat="44.92765" lon="4.73306">
        <ele>597</ele>
        <time>2026-05-04T05:38:42Z</time>
      </trkpt>
      <trkpt lat="44.92769" lon="4.73312">
        <ele>597</ele>
        <time>2026-05-04T05:38:47Z</time>
      </trkpt>
      <trkpt lat="44.92772" lon="4.73318">
        <ele>597.2</ele>
        <time>2026-05-04T05:38:52Z</time>
      </trkpt>
      <trkpt lat="44.92775" lon="4.73322">
        <ele>597.1</ele>
        <time>2026-05-04T05:38:57Z</time>
      </trkpt>
      <trkpt lat="44.92778" lon="4.73327">
        <ele>597.1</ele>
        <time>2026-05-04T05:39:02Z</time>
      </trkpt>
      <trkpt lat="44.92782" lon="4.73333">
        <ele>597</ele>
        <time>2026-05-04T05:39:07Z</time>
      </trkpt>
      <trkpt lat="44.92784" lon="4.73338">
        <ele>596.8</ele>
        <time>2026-05-04T05:39:12Z</time>
      </trkpt>
      <trkpt lat="44.92787" lon="4.73343">
        <ele>596.3</ele>
        <time>2026-05-04T05:39:17Z</time>
      </trkpt>
      <trkpt lat="44.92789" lon="4.73349">
        <ele>596.1</ele>
        <time>2026-05-04T05:39:22Z</time>
      </trkpt>
      <trkpt lat="44.92791" lon="4.73356">
        <ele>595.9</ele>
        <time>2026-05-04T05:39:27Z</time>
      </trkpt>
      <trkpt lat="44.92793" lon="4.7336">
        <ele>595.6</ele>
        <time>2026-05-04T05:39:32Z</time>
      </trkpt>
      <trkpt lat="44.92795" lon="4.73367">
        <ele>595.4</ele>
        <time>2026-05-04T05:39:37Z</time>
      </trkpt>
      <trkpt lat="44.92795" lon="4.73375">
        <ele>595.5</ele>
        <time>2026-05-04T05:39:42Z</time>
      </trkpt>
      <trkpt lat="44.92795" lon="4.73383">
        <ele>595.6</ele>
        <time>2026-05-04T05:39:47Z</time>
      </trkpt>
      <trkpt lat="44.92794" lon="4.7339">
        <ele>595.8</ele>
        <time>2026-05-04T05:39:52Z</time>
      </trkpt>
      <trkpt lat="44.92792" lon="4.734">
        <ele>596.2</ele>
        <time>2026-05-04T05:39:57Z</time>
      </trkpt>
      <trkpt lat="44.9279" lon="4.73408">
        <ele>596.7</ele>
        <time>2026-05-04T05:40:02Z</time>
      </trkpt>
      <trkpt lat="44.92788" lon="4.73412">
        <ele>597</ele>
        <time>2026-05-04T05:40:07Z</time>
      </trkpt>
      <trkpt lat="44.92788" lon="4.73419">
        <ele>597</ele>
        <time>2026-05-04T05:40:12Z</time>
      </trkpt>
      <trkpt lat="44.92788" lon="4.73427">
        <ele>596.9</ele>
        <time>2026-05-04T05:40:17Z</time>
      </trkpt>
      <trkpt lat="44.92788" lon="4.73435">
        <ele>596.8</ele>
        <time>2026-05-04T05:40:22Z</time>
      </trkpt>
      <trkpt lat="44.92786" lon="4.73442">
        <ele>597</ele>
        <time>2026-05-04T05:40:27Z</time>
      </trkpt>
      <trkpt lat="44.92785" lon="4.73449">
        <ele>597</ele>
        <time>2026-05-04T05:40:32Z</time>
      </trkpt>
      <trkpt lat="44.92785" lon="4.73455">
        <ele>596.9</ele>
        <time>2026-05-04T05:40:37Z</time>
      </trkpt>
      <trkpt lat="44.92785" lon="4.73466">
        <ele>596.8</ele>
        <time>2026-05-04T05:40:42Z</time>
      </trkpt>
      <trkpt lat="44.92785" lon="4.73473">
        <ele>596.6</ele>
        <time>2026-05-04T05:40:47Z</time>
      </trkpt>
      <trkpt lat="44.92785" lon="4.73483">
        <ele>596.5</ele>
        <time>2026-05-04T05:40:52Z</time>
      </trkpt>
      <trkpt lat="44.92784" lon="4.7349">
        <ele>596.5</ele>
        <time>2026-05-04T05:40:57Z</time>
      </trkpt>
      <trkpt lat="44.92786" lon="4.73498">
        <ele>596.1</ele>
        <time>2026-05-04T05:41:02Z</time>
      </trkpt>
      <trkpt lat="44.92785" lon="4.73505">
        <ele>596.1</ele>
        <time>2026-05-04T05:41:07Z</time>
      </trkpt>
      <trkpt lat="44.92782" lon="4.73511">
        <ele>596.3</ele>
        <time>2026-05-04T05:41:12Z</time>
      </trkpt>
      <trkpt lat="44.9278" lon="4.73519">
        <ele>596.3</ele>
        <time>2026-05-04T05:41:17Z</time>
      </trkpt>
      <trkpt lat="44.92778" lon="4.73527">
        <ele>596.3</ele>
        <time>2026-05-04T05:41:22Z</time>
      </trkpt>
      <trkpt lat="44.92777" lon="4.73534">
        <ele>596.3</ele>
        <time>2026-05-04T05:41:27Z</time>
      </trkpt>
      <trkpt lat="44.92774" lon="4.73541">
        <ele>596.4</ele>
        <time>2026-05-04T05:41:32Z</time>
      </trkpt>
      <trkpt lat="44.92769" lon="4.73545">
        <ele>596.7</ele>
        <time>2026-05-04T05:41:37Z</time>
      </trkpt>
      <trkpt lat="44.92763" lon="4.7355">
        <ele>597.1</ele>
        <time>2026-05-04T05:41:42Z</time>
      </trkpt>
      <trkpt lat="44.92759" lon="4.73553">
        <ele>597.3</ele>
        <time>2026-05-04T05:41:47Z</time>
      </trkpt>
      <trkpt lat="44.92753" lon="4.73557">
        <ele>597.7</ele>
        <time>2026-05-04T05:41:52Z</time>
      </trkpt>
      <trkpt lat="44.92747" lon="4.73561">
        <ele>598.5</ele>
        <time>2026-05-04T05:41:57Z</time>
      </trkpt>
      <trkpt lat="44.92743" lon="4.73566">
        <ele>599.3</ele>
        <time>2026-05-04T05:42:02Z</time>
      </trkpt>
      <trkpt lat="44.92739" lon="4.73572">
        <ele>600.1</ele>
        <time>2026-05-04T05:42:07Z</time>
      </trkpt>
      <trkpt lat="44.92735" lon="4.73579">
        <ele>600.9</ele>
        <time>2026-05-04T05:42:12Z</time>
      </trkpt>
      <trkpt lat="44.92731" lon="4.73587">
        <ele>601.9</ele>
        <time>2026-05-04T05:42:17Z</time>
      </trkpt>
      <trkpt lat="44.92728" lon="4.73597">
        <ele>602.9</ele>
        <time>2026-05-04T05:42:22Z</time>
      </trkpt>
      <trkpt lat="44.92722" lon="4.73604">
        <ele>604.6</ele>
        <time>2026-05-04T05:42:27Z</time>
      </trkpt>
      <trkpt lat="44.92719" lon="4.73613">
        <ele>605.5</ele>
        <time>2026-05-04T05:42:32Z</time>
      </trkpt>
      <trkpt lat="44.92715" lon="4.7362">
        <ele>606.7</ele>
        <time>2026-05-04T05:42:37Z</time>
      </trkpt>
      <trkpt lat="44.92713" lon="4.73629">
        <ele>607.4</ele>
        <time>2026-05-04T05:42:42Z</time>
      </trkpt>
      <trkpt lat="44.92711" lon="4.73638">
        <ele>608.1</ele>
        <time>2026-05-04T05:42:47Z</time>
      </trkpt>
      <trkpt lat="44.92709" lon="4.73646">
        <ele>608.8</ele>
        <time>2026-05-04T05:42:52Z</time>
      </trkpt>
      <trkpt lat="44.92708" lon="4.73654">
        <ele>609.3</ele>
        <time>2026-05-04T05:42:57Z</time>
      </trkpt>
      <trkpt lat="44.92705" lon="4.73663">
        <ele>610.3</ele>
        <time>2026-05-04T05:43:02Z</time>
      </trkpt>
      <trkpt lat="44.92704" lon="4.7367">
        <ele>610.7</ele>
        <time>2026-05-04T05:43:07Z</time>
      </trkpt>
      <trkpt lat="44.92703" lon="4.73676">
        <ele>611.1</ele>
        <time>2026-05-04T05:43:12Z</time>
      </trkpt>
      <trkpt lat="44.92701" lon="4.73685">
        <ele>611.8</ele>
        <time>2026-05-04T05:43:17Z</time>
      </trkpt>
      <trkpt lat="44.927" lon="4.73695">
        <ele>612.3</ele>
        <time>2026-05-04T05:43:22Z</time>
      </trkpt>
      <trkpt lat="44.92701" lon="4.73704">
        <ele>612.2</ele>
        <time>2026-05-04T05:43:27Z</time>
      </trkpt>
      <trkpt lat="44.92699" lon="4.73713">
        <ele>613</ele>
        <time>2026-05-04T05:43:32Z</time>
      </trkpt>
      <trkpt lat="44.92697" lon="4.73721">
        <ele>613.7</ele>
        <time>2026-05-04T05:43:37Z</time>
      </trkpt>
      <trkpt lat="44.92696" lon="4.73727">
        <ele>614.1</ele>
        <time>2026-05-04T05:43:42Z</time>
      </trkpt>
      <trkpt lat="44.92696" lon="4.73732">
        <ele>614.2</ele>
        <time>2026-05-04T05:43:47Z</time>
      </trkpt>
      <trkpt lat="44.92697" lon="4.73734">
        <ele>614</ele>
        <time>2026-05-04T05:43:52Z</time>
      </trkpt>
      <trkpt lat="44.92697" lon="4.73734">
        <ele>614</ele>
        <time>2026-05-04T05:43:57Z</time>
      </trkpt>
      <trkpt lat="44.92692" lon="4.73742">
        <ele>615.4</ele>
        <time>2026-05-04T05:44:02Z</time>
      </trkpt>
      <trkpt lat="44.92689" lon="4.73752">
        <ele>616.3</ele>
        <time>2026-05-04T05:44:07Z</time>
      </trkpt>
      <trkpt lat="44.92687" lon="4.73758">
        <ele>616.5</ele>
        <time>2026-05-04T05:44:12Z</time>
      </trkpt>
      <trkpt lat="44.92685" lon="4.73765">
        <ele>616.7</ele>
        <time>2026-05-04T05:44:17Z</time>
      </trkpt>
      <trkpt lat="44.92683" lon="4.73771">
        <ele>616.9</ele>
        <time>2026-05-04T05:44:22Z</time>
      </trkpt>
      <trkpt lat="44.92681" lon="4.73776">
        <ele>617.1</ele>
        <time>2026-05-04T05:44:27Z</time>
      </trkpt>
      <trkpt lat="44.92679" lon="4.73784">
        <ele>617.2</ele>
        <time>2026-05-04T05:44:32Z</time>
      </trkpt>
      <trkpt lat="44.92679" lon="4.73793">
        <ele>616.7</ele>
        <time>2026-05-04T05:44:37Z</time>
      </trkpt>
      <trkpt lat="44.92678" lon="4.73802">
        <ele>616.4</ele>
        <time>2026-05-04T05:44:42Z</time>
      </trkpt>
      <trkpt lat="44.92678" lon="4.7381">
        <ele>616</ele>
        <time>2026-05-04T05:44:47Z</time>
      </trkpt>
      <trkpt lat="44.92679" lon="4.73816">
        <ele>615.5</ele>
        <time>2026-05-04T05:44:52Z</time>
      </trkpt>
      <trkpt lat="44.92678" lon="4.73823">
        <ele>615.4</ele>
        <time>2026-05-04T05:44:57Z</time>
      </trkpt>
      <trkpt lat="44.92678" lon="4.73834">
        <ele>614.7</ele>
        <time>2026-05-04T05:45:02Z</time>
      </trkpt>
      <trkpt lat="44.92676" lon="4.73843">
        <ele>614.1</ele>
        <time>2026-05-04T05:45:07Z</time>
      </trkpt>
      <trkpt lat="44.92674" lon="4.73851">
        <ele>613.5</ele>
        <time>2026-05-04T05:45:12Z</time>
      </trkpt>
      <trkpt lat="44.92672" lon="4.73861">
        <ele>612.7</ele>
        <time>2026-05-04T05:45:17Z</time>
      </trkpt>
      <trkpt lat="44.9267" lon="4.73869">
        <ele>612.1</ele>
        <time>2026-05-04T05:45:22Z</time>
      </trkpt>
      <trkpt lat="44.92667" lon="4.73874">
        <ele>612.1</ele>
        <time>2026-05-04T05:45:27Z</time>
      </trkpt>
      <trkpt lat="44.92662" lon="4.73883">
        <ele>611.5</ele>
        <time>2026-05-04T05:45:32Z</time>
      </trkpt>
      <trkpt lat="44.92658" lon="4.73891">
        <ele>610.9</ele>
        <time>2026-05-04T05:45:37Z</time>
      </trkpt>
      <trkpt lat="44.92655" lon="4.73898">
        <ele>610.2</ele>
        <time>2026-05-04T05:45:42Z</time>
      </trkpt>
      <trkpt lat="44.92649" lon="4.73909">
        <ele>609.3</ele>
        <time>2026-05-04T05:45:47Z</time>
      </trkpt>
      <trkpt lat="44.92647" lon="4.73915">
        <ele>608.6</ele>
        <time>2026-05-04T05:45:52Z</time>
      </trkpt>
      <trkpt lat="44.92647" lon="4.73915">
        <ele>608.6</ele>
        <time>2026-05-04T05:45:57Z</time>
      </trkpt>
      <trkpt lat="44.92647" lon="4.73916">
        <ele>608.5</ele>
        <time>2026-05-04T05:46:02Z</time>
      </trkpt>
      <trkpt lat="44.92641" lon="4.73923">
        <ele>608.2</ele>
        <time>2026-05-04T05:46:07Z</time>
      </trkpt>
      <trkpt lat="44.9264" lon="4.73929">
        <ele>607.7</ele>
        <time>2026-05-04T05:46:12Z</time>
      </trkpt>
      <trkpt lat="44.92638" lon="4.7394">
        <ele>606.7</ele>
        <time>2026-05-04T05:46:17Z</time>
      </trkpt>
      <trkpt lat="44.92637" lon="4.7395">
        <ele>605.7</ele>
        <time>2026-05-04T05:46:22Z</time>
      </trkpt>
      <trkpt lat="44.92637" lon="4.73962">
        <ele>604.5</ele>
        <time>2026-05-04T05:46:27Z</time>
      </trkpt>
      <trkpt lat="44.92639" lon="4.7397">
        <ele>603.7</ele>
        <time>2026-05-04T05:46:32Z</time>
      </trkpt>
      <trkpt lat="44.92641" lon="4.73977">
        <ele>603</ele>
        <time>2026-05-04T05:46:37Z</time>
      </trkpt>
      <trkpt lat="44.92641" lon="4.73984">
        <ele>602.3</ele>
        <time>2026-05-04T05:46:42Z</time>
      </trkpt>
      <trkpt lat="44.92642" lon="4.73991">
        <ele>601.7</ele>
        <time>2026-05-04T05:46:47Z</time>
      </trkpt>
      <trkpt lat="44.92642" lon="4.73997">
        <ele>601.1</ele>
        <time>2026-05-04T05:46:52Z</time>
      </trkpt>
      <trkpt lat="44.92642" lon="4.74003">
        <ele>600.6</ele>
        <time>2026-05-04T05:46:57Z</time>
      </trkpt>
      <trkpt lat="44.92641" lon="4.74011">
        <ele>599.9</ele>
        <time>2026-05-04T05:47:02Z</time>
      </trkpt>
      <trkpt lat="44.9264" lon="4.74018">
        <ele>599.3</ele>
        <time>2026-05-04T05:47:07Z</time>
      </trkpt>
      <trkpt lat="44.9264" lon="4.74026">
        <ele>598.7</ele>
        <time>2026-05-04T05:47:12Z</time>
      </trkpt>
      <trkpt lat="44.92641" lon="4.74034">
        <ele>598.2</ele>
        <time>2026-05-04T05:47:17Z</time>
      </trkpt>
      <trkpt lat="44.92642" lon="4.74044">
        <ele>597.5</ele>
        <time>2026-05-04T05:47:22Z</time>
      </trkpt>
      <trkpt lat="44.9264" lon="4.74052">
        <ele>596.7</ele>
        <time>2026-05-04T05:47:27Z</time>
      </trkpt>
      <trkpt lat="44.92639" lon="4.74058">
        <ele>596</ele>
        <time>2026-05-04T05:47:32Z</time>
      </trkpt>
      <trkpt lat="44.92637" lon="4.74057">
        <ele>595.8</ele>
        <time>2026-05-04T05:47:37Z</time>
      </trkpt>
      <trkpt lat="44.9263" lon="4.74055">
        <ele>595.1</ele>
        <time>2026-05-04T05:47:42Z</time>
      </trkpt>
      <trkpt lat="44.92625" lon="4.74051">
        <ele>594.8</ele>
        <time>2026-05-04T05:47:47Z</time>
      </trkpt>
      <trkpt lat="44.92621" lon="4.74045">
        <ele>594.9</ele>
        <time>2026-05-04T05:47:52Z</time>
      </trkpt>
      <trkpt lat="44.92616" lon="4.74038">
        <ele>595.2</ele>
        <time>2026-05-04T05:47:57Z</time>
      </trkpt>
      <trkpt lat="44.92611" lon="4.74031">
        <ele>595.5</ele>
        <time>2026-05-04T05:48:02Z</time>
      </trkpt>
      <trkpt lat="44.92606" lon="4.74026">
        <ele>595.7</ele>
        <time>2026-05-04T05:48:07Z</time>
      </trkpt>
      <trkpt lat="44.92601" lon="4.74019">
        <ele>596.2</ele>
        <time>2026-05-04T05:48:12Z</time>
      </trkpt>
      <trkpt lat="44.92594" lon="4.74013">
        <ele>596.5</ele>
        <time>2026-05-04T05:48:17Z</time>
      </trkpt>
      <trkpt lat="44.92588" lon="4.74009">
        <ele>596.8</ele>
        <time>2026-05-04T05:48:22Z</time>
      </trkpt>
      <trkpt lat="44.92584" lon="4.74004">
        <ele>597.4</ele>
        <time>2026-05-04T05:48:27Z</time>
      </trkpt>
      <trkpt lat="44.92581" lon="4.73999">
        <ele>597.9</ele>
        <time>2026-05-04T05:48:32Z</time>
      </trkpt>
      <trkpt lat="44.92578" lon="4.73997">
        <ele>597.9</ele>
        <time>2026-05-04T05:48:37Z</time>
      </trkpt>
      <trkpt lat="44.92573" lon="4.73993">
        <ele>598</ele>
        <time>2026-05-04T05:48:42Z</time>
      </trkpt>
      <trkpt lat="44.92569" lon="4.73987">
        <ele>598.7</ele>
        <time>2026-05-04T05:48:47Z</time>
      </trkpt>
      <trkpt lat="44.92564" lon="4.73981">
        <ele>599.4</ele>
        <time>2026-05-04T05:48:52Z</time>
      </trkpt>
      <trkpt lat="44.92558" lon="4.73972">
        <ele>600.7</ele>
        <time>2026-05-04T05:48:57Z</time>
      </trkpt>
      <trkpt lat="44.92552" lon="4.73964">
        <ele>602</ele>
        <time>2026-05-04T05:49:02Z</time>
      </trkpt>
      <trkpt lat="44.92548" lon="4.73957">
        <ele>603.3</ele>
        <time>2026-05-04T05:49:07Z</time>
      </trkpt>
      <trkpt lat="44.92545" lon="4.73952">
        <ele>604.2</ele>
        <time>2026-05-04T05:49:12Z</time>
      </trkpt>
      <trkpt lat="44.92542" lon="4.73946">
        <ele>605.5</ele>
        <time>2026-05-04T05:49:17Z</time>
      </trkpt>
      <trkpt lat="44.92538" lon="4.73941">
        <ele>606.5</ele>
        <time>2026-05-04T05:49:22Z</time>
      </trkpt>
      <trkpt lat="44.92534" lon="4.73933">
        <ele>608.3</ele>
        <time>2026-05-04T05:49:27Z</time>
      </trkpt>
      <trkpt lat="44.92534" lon="4.73926">
        <ele>610.1</ele>
        <time>2026-05-04T05:49:32Z</time>
      </trkpt>
      <trkpt lat="44.92532" lon="4.7392">
        <ele>611.5</ele>
        <time>2026-05-04T05:49:37Z</time>
      </trkpt>
      <trkpt lat="44.9253" lon="4.73914">
        <ele>613</ele>
        <time>2026-05-04T05:49:42Z</time>
      </trkpt>
      <trkpt lat="44.9253" lon="4.73909">
        <ele>614.2</ele>
        <time>2026-05-04T05:49:47Z</time>
      </trkpt>
      <trkpt lat="44.92529" lon="4.73904">
        <ele>615.3</ele>
        <time>2026-05-04T05:49:52Z</time>
      </trkpt>
      <trkpt lat="44.9253" lon="4.73898">
        <ele>616.7</ele>
        <time>2026-05-04T05:49:57Z</time>
      </trkpt>
      <trkpt lat="44.9253" lon="4.73889">
        <ele>618.8</ele>
        <time>2026-05-04T05:50:02Z</time>
      </trkpt>
      <trkpt lat="44.92529" lon="4.73882">
        <ele>620.5</ele>
        <time>2026-05-04T05:50:07Z</time>
      </trkpt>
      <trkpt lat="44.92528" lon="4.73876">
        <ele>621.9</ele>
        <time>2026-05-04T05:50:12Z</time>
      </trkpt>
      <trkpt lat="44.92529" lon="4.73868">
        <ele>623.8</ele>
        <time>2026-05-04T05:50:17Z</time>
      </trkpt>
      <trkpt lat="44.9253" lon="4.73862">
        <ele>625.1</ele>
        <time>2026-05-04T05:50:22Z</time>
      </trkpt>
      <trkpt lat="44.92531" lon="4.73856">
        <ele>626.5</ele>
        <time>2026-05-04T05:50:27Z</time>
      </trkpt>
      <trkpt lat="44.92534" lon="4.73851">
        <ele>627.5</ele>
        <time>2026-05-04T05:50:32Z</time>
      </trkpt>
      <trkpt lat="44.92537" lon="4.73845">
        <ele>628.7</ele>
        <time>2026-05-04T05:50:37Z</time>
      </trkpt>
      <trkpt lat="44.92539" lon="4.73839">
        <ele>629.9</ele>
        <time>2026-05-04T05:50:42Z</time>
      </trkpt>
      <trkpt lat="44.92539" lon="4.73833">
        <ele>631.2</ele>
        <time>2026-05-04T05:50:47Z</time>
      </trkpt>
      <trkpt lat="44.92542" lon="4.73827">
        <ele>632</ele>
        <time>2026-05-04T05:50:52Z</time>
      </trkpt>
      <trkpt lat="44.92544" lon="4.73819">
        <ele>633</ele>
        <time>2026-05-04T05:50:57Z</time>
      </trkpt>
      <trkpt lat="44.92547" lon="4.73812">
        <ele>633.8</ele>
        <time>2026-05-04T05:51:02Z</time>
      </trkpt>
      <trkpt lat="44.92551" lon="4.73806">
        <ele>634.4</ele>
        <time>2026-05-04T05:51:07Z</time>
      </trkpt>
      <trkpt lat="44.92553" lon="4.738">
        <ele>635.1</ele>
        <time>2026-05-04T05:51:12Z</time>
      </trkpt>
      <trkpt lat="44.92556" lon="4.73794">
        <ele>635.6</ele>
        <time>2026-05-04T05:51:17Z</time>
      </trkpt>
      <trkpt lat="44.92559" lon="4.73785">
        <ele>636.6</ele>
        <time>2026-05-04T05:51:22Z</time>
      </trkpt>
      <trkpt lat="44.92561" lon="4.73778">
        <ele>637.3</ele>
        <time>2026-05-04T05:51:27Z</time>
      </trkpt>
      <trkpt lat="44.92562" lon="4.73771">
        <ele>638.2</ele>
        <time>2026-05-04T05:51:32Z</time>
      </trkpt>
      <trkpt lat="44.92562" lon="4.73763">
        <ele>639.3</ele>
        <time>2026-05-04T05:51:37Z</time>
      </trkpt>
      <trkpt lat="44.92564" lon="4.73756">
        <ele>640</ele>
        <time>2026-05-04T05:51:42Z</time>
      </trkpt>
      <trkpt lat="44.92563" lon="4.73748">
        <ele>641.1</ele>
        <time>2026-05-04T05:51:47Z</time>
      </trkpt>
      <trkpt lat="44.92563" lon="4.7374">
        <ele>642</ele>
        <time>2026-05-04T05:51:52Z</time>
      </trkpt>
      <trkpt lat="44.9256" lon="4.73732">
        <ele>643.4</ele>
        <time>2026-05-04T05:51:57Z</time>
      </trkpt>
      <trkpt lat="44.92558" lon="4.73724">
        <ele>644.8</ele>
        <time>2026-05-04T05:52:02Z</time>
      </trkpt>
      <trkpt lat="44.92556" lon="4.73716">
        <ele>646.1</ele>
        <time>2026-05-04T05:52:07Z</time>
      </trkpt>
      <trkpt lat="44.92556" lon="4.73707">
        <ele>647.2</ele>
        <time>2026-05-04T05:52:12Z</time>
      </trkpt>
      <trkpt lat="44.92554" lon="4.737">
        <ele>648.6</ele>
        <time>2026-05-04T05:52:17Z</time>
      </trkpt>
      <trkpt lat="44.92553" lon="4.73692">
        <ele>649.8</ele>
        <time>2026-05-04T05:52:22Z</time>
      </trkpt>
      <trkpt lat="44.9255" lon="4.73683">
        <ele>651.8</ele>
        <time>2026-05-04T05:52:27Z</time>
      </trkpt>
      <trkpt lat="44.92546" lon="4.73674">
        <ele>654.2</ele>
        <time>2026-05-04T05:52:32Z</time>
      </trkpt>
      <trkpt lat="44.92542" lon="4.73666">
        <ele>656.4</ele>
        <time>2026-05-04T05:52:37Z</time>
      </trkpt>
      <trkpt lat="44.92539" lon="4.7366">
        <ele>657.7</ele>
        <time>2026-05-04T05:52:42Z</time>
      </trkpt>
      <trkpt lat="44.92536" lon="4.73654">
        <ele>659</ele>
        <time>2026-05-04T05:52:47Z</time>
      </trkpt>
      <trkpt lat="44.92535" lon="4.73646">
        <ele>659.9</ele>
        <time>2026-05-04T05:52:52Z</time>
      </trkpt>
      <trkpt lat="44.92535" lon="4.73639">
        <ele>660.3</ele>
        <time>2026-05-04T05:52:57Z</time>
      </trkpt>
      <trkpt lat="44.92534" lon="4.73631">
        <ele>661.2</ele>
        <time>2026-05-04T05:53:02Z</time>
      </trkpt>
      <trkpt lat="44.92531" lon="4.73623">
        <ele>662.7</ele>
        <time>2026-05-04T05:53:07Z</time>
      </trkpt>
      <trkpt lat="44.92529" lon="4.73615">
        <ele>664</ele>
        <time>2026-05-04T05:53:12Z</time>
      </trkpt>
      <trkpt lat="44.92527" lon="4.73609">
        <ele>665.1</ele>
        <time>2026-05-04T05:53:17Z</time>
      </trkpt>
      <trkpt lat="44.92525" lon="4.73601">
        <ele>666.4</ele>
        <time>2026-05-04T05:53:22Z</time>
      </trkpt>
      <trkpt lat="44.92524" lon="4.73594">
        <ele>667.3</ele>
        <time>2026-05-04T05:53:27Z</time>
      </trkpt>
      <trkpt lat="44.92524" lon="4.73587">
        <ele>667.8</ele>
        <time>2026-05-04T05:53:32Z</time>
      </trkpt>
      <trkpt lat="44.92524" lon="4.73578">
        <ele>667.8</ele>
        <time>2026-05-04T05:53:37Z</time>
      </trkpt>
      <trkpt lat="44.92522" lon="4.73568">
        <ele>668</ele>
        <time>2026-05-04T05:53:42Z</time>
      </trkpt>
      <trkpt lat="44.9252" lon="4.7356">
        <ele>668.4</ele>
        <time>2026-05-04T05:53:47Z</time>
      </trkpt>
      <trkpt lat="44.92519" lon="4.73553">
        <ele>668.4</ele>
        <time>2026-05-04T05:53:52Z</time>
      </trkpt>
      <trkpt lat="44.92517" lon="4.73546">
        <ele>668.7</ele>
        <time>2026-05-04T05:53:57Z</time>
      </trkpt>
      <trkpt lat="44.92514" lon="4.7354">
        <ele>669.5</ele>
        <time>2026-05-04T05:54:02Z</time>
      </trkpt>
      <trkpt lat="44.92513" lon="4.73534">
        <ele>669.5</ele>
        <time>2026-05-04T05:54:07Z</time>
      </trkpt>
      <trkpt lat="44.92512" lon="4.73527">
        <ele>669.4</ele>
        <time>2026-05-04T05:54:12Z</time>
      </trkpt>
      <trkpt lat="44.92513" lon="4.73517">
        <ele>668.6</ele>
        <time>2026-05-04T05:54:17Z</time>
      </trkpt>
      <trkpt lat="44.92513" lon="4.7351">
        <ele>668.2</ele>
        <time>2026-05-04T05:54:22Z</time>
      </trkpt>
      <trkpt lat="44.92512" lon="4.73506">
        <ele>668.3</ele>
        <time>2026-05-04T05:54:27Z</time>
      </trkpt>
      <trkpt lat="44.9251" lon="4.73505">
        <ele>668.9</ele>
        <time>2026-05-04T05:54:32Z</time>
      </trkpt>
      <trkpt lat="44.92507" lon="4.73501">
        <ele>669.7</ele>
        <time>2026-05-04T05:54:37Z</time>
      </trkpt>
      <trkpt lat="44.92505" lon="4.73494">
        <ele>669.5</ele>
        <time>2026-05-04T05:54:42Z</time>
      </trkpt>
      <trkpt lat="44.92503" lon="4.73488">
        <ele>669.4</ele>
        <time>2026-05-04T05:54:47Z</time>
      </trkpt>
      <trkpt lat="44.92501" lon="4.73481">
        <ele>669.2</ele>
        <time>2026-05-04T05:54:52Z</time>
      </trkpt>
      <trkpt lat="44.92499" lon="4.73475">
        <ele>668.9</ele>
        <time>2026-05-04T05:54:57Z</time>
      </trkpt>
      <trkpt lat="44.92498" lon="4.73467">
        <ele>668.1</ele>
        <time>2026-05-04T05:55:02Z</time>
      </trkpt>
      <trkpt lat="44.92496" lon="4.73459">
        <ele>667.5</ele>
        <time>2026-05-04T05:55:07Z</time>
      </trkpt>
      <trkpt lat="44.92495" lon="4.73453">
        <ele>666.9</ele>
        <time>2026-05-04T05:55:12Z</time>
      </trkpt>
      <trkpt lat="44.92492" lon="4.73448">
        <ele>667</ele>
        <time>2026-05-04T05:55:17Z</time>
      </trkpt>
      <trkpt lat="44.9249" lon="4.73443">
        <ele>666.8</ele>
        <time>2026-05-04T05:55:22Z</time>
      </trkpt>
      <trkpt lat="44.92485" lon="4.7344">
        <ele>667.6</ele>
        <time>2026-05-04T05:55:27Z</time>
      </trkpt>
      <trkpt lat="44.9248" lon="4.73438">
        <ele>668.5</ele>
        <time>2026-05-04T05:55:32Z</time>
      </trkpt>
      <trkpt lat="44.9248" lon="4.73438">
        <ele>668.5</ele>
        <time>2026-05-04T05:55:37Z</time>
      </trkpt>
      <trkpt lat="44.92481" lon="4.73436">
        <ele>668.1</ele>
        <time>2026-05-04T05:55:42Z</time>
      </trkpt>
      <trkpt lat="44.92481" lon="4.73436">
        <ele>668.1</ele>
        <time>2026-05-04T05:55:47Z</time>
      </trkpt>
      <trkpt lat="44.92481" lon="4.73436">
        <ele>668.1</ele>
        <time>2026-05-04T05:55:52Z</time>
      </trkpt>
      <trkpt lat="44.92481" lon="4.73436">
        <ele>668.1</ele>
        <time>2026-05-04T05:55:57Z</time>
      </trkpt>
      <trkpt lat="44.92481" lon="4.73436">
        <ele>668.1</ele>
        <time>2026-05-04T05:56:02Z</time>
      </trkpt>
      <trkpt lat="44.92481" lon="4.73436">
        <ele>668.1</ele>
        <time>2026-05-04T05:56:07Z</time>
      </trkpt>
      <trkpt lat="44.92481" lon="4.73436">
        <ele>668.1</ele>
        <time>2026-05-04T05:56:12Z</time>
      </trkpt>
      <trkpt lat="44.92481" lon="4.73436">
        <ele>668.1</ele>
        <time>2026-05-04T05:56:17Z</time>
      </trkpt>
      <trkpt lat="44.92481" lon="4.73436">
        <ele>668.1</ele>
        <time>2026-05-04T05:56:22Z</time>
      </trkpt>
      <trkpt lat="44.92481" lon="4.73436">
        <ele>668.1</ele>
        <time>2026-05-04T05:56:27Z</time>
      </trkpt>
      <trkpt lat="44.92481" lon="4.73436">
        <ele>668.1</ele>
        <time>2026-05-04T05:56:32Z</time>
      </trkpt>
      <trkpt lat="44.92473" lon="4.7343">
        <ele>669.3</ele>
        <time>2026-05-04T05:56:37Z</time>
      </trkpt>
      <trkpt lat="44.92473" lon="4.73428">
        <ele>669.1</ele>
        <time>2026-05-04T05:56:42Z</time>
      </trkpt>
      <trkpt lat="44.92473" lon="4.73428">
        <ele>669.1</ele>
        <time>2026-05-04T05:56:47Z</time>
      </trkpt>
      <trkpt lat="44.92473" lon="4.73428">
        <ele>669.1</ele>
        <time>2026-05-04T05:56:52Z</time>
      </trkpt>
      <trkpt lat="44.92473" lon="4.73428">
        <ele>669.1</ele>
        <time>2026-05-04T05:56:57Z</time>
      </trkpt>
      <trkpt lat="44.92473" lon="4.73428">
        <ele>669.1</ele>
        <time>2026-05-04T05:57:02Z</time>
      </trkpt>
      <trkpt lat="44.92473" lon="4.73428">
        <ele>669.1</ele>
        <time>2026-05-04T05:57:07Z</time>
      </trkpt>
      <trkpt lat="44.92473" lon="4.73428">
        <ele>669.1</ele>
        <time>2026-05-04T05:57:12Z</time>
      </trkpt>
      <trkpt lat="44.92473" lon="4.73428">
        <ele>669.1</ele>
        <time>2026-05-04T05:57:17Z</time>
      </trkpt>
      <trkpt lat="44.92473" lon="4.73428">
        <ele>669.1</ele>
        <time>2026-05-04T05:57:22Z</time>
      </trkpt>
      <trkpt lat="44.92473" lon="4.73428">
        <ele>669.1</ele>
        <time>2026-05-04T05:57:27Z</time>
      </trkpt>
      <trkpt lat="44.92473" lon="4.73428">
        <ele>669.1</ele>
        <time>2026-05-04T05:57:32Z</time>
      </trkpt>
      <trkpt lat="44.92473" lon="4.73428">
        <ele>669.1</ele>
        <time>2026-05-04T05:57:37Z</time>
      </trkpt>
      <trkpt lat="44.92473" lon="4.73428">
        <ele>669.1</ele>
        <time>2026-05-04T05:57:42Z</time>
      </trkpt>
      <trkpt lat="44.92473" lon="4.73428">
        <ele>669.1</ele>
        <time>2026-05-04T05:57:47Z</time>
      </trkpt>
      <trkpt lat="44.92473" lon="4.73428">
        <ele>669.1</ele>
        <time>2026-05-04T05:57:52Z</time>
      </trkpt>
      <trkpt lat="44.92473" lon="4.73428">
        <ele>669.1</ele>
        <time>2026-05-04T05:57:57Z</time>
      </trkpt>
      <trkpt lat="44.92473" lon="4.73428">
        <ele>669.1</ele>
        <time>2026-05-04T05:58:02Z</time>
      </trkpt>
      <trkpt lat="44.92472" lon="4.73427">
        <ele>669.2</ele>
        <time>2026-05-04T05:58:07Z</time>
      </trkpt>
      <trkpt lat="44.92472" lon="4.73419">
        <ele>668.3</ele>
        <time>2026-05-04T05:58:12Z</time>
      </trkpt>
      <trkpt lat="44.92471" lon="4.73416">
        <ele>668.2</ele>
        <time>2026-05-04T05:58:17Z</time>
      </trkpt>
      <trkpt lat="44.9247" lon="4.73415">
        <ele>668.3</ele>
        <time>2026-05-04T05:58:22Z</time>
      </trkpt>
      <trkpt lat="44.92469" lon="4.73413">
        <ele>668.1</ele>
        <time>2026-05-04T05:58:27Z</time>
      </trkpt>
      <trkpt lat="44.92466" lon="4.73408">
        <ele>668</ele>
        <time>2026-05-04T05:58:32Z</time>
      </trkpt>
      <trkpt lat="44.92464" lon="4.73403">
        <ele>667.6</ele>
        <time>2026-05-04T05:58:37Z</time>
      </trkpt>
      <trkpt lat="44.9246" lon="4.73398">
        <ele>667.7</ele>
        <time>2026-05-04T05:58:42Z</time>
      </trkpt>
      <trkpt lat="44.92457" lon="4.73394">
        <ele>667.8</ele>
        <time>2026-05-04T05:58:47Z</time>
      </trkpt>
      <trkpt lat="44.92454" lon="4.73389">
        <ele>667.6</ele>
        <time>2026-05-04T05:58:52Z</time>
      </trkpt>
      <trkpt lat="44.92451" lon="4.73385">
        <ele>667.7</ele>
        <time>2026-05-04T05:58:57Z</time>
      </trkpt>
      <trkpt lat="44.92448" lon="4.73379">
        <ele>667.4</ele>
        <time>2026-05-04T05:59:02Z</time>
      </trkpt>
      <trkpt lat="44.92441" lon="4.73373">
        <ele>668.2</ele>
        <time>2026-05-04T05:59:07Z</time>
      </trkpt>
      <trkpt lat="44.92437" lon="4.73369">
        <ele>668.6</ele>
        <time>2026-05-04T05:59:12Z</time>
      </trkpt>
      <trkpt lat="44.92433" lon="4.73364">
        <ele>668.8</ele>
        <time>2026-05-04T05:59:17Z</time>
      </trkpt>
      <trkpt lat="44.9243" lon="4.73359">
        <ele>668.7</ele>
        <time>2026-05-04T05:59:22Z</time>
      </trkpt>
      <trkpt lat="44.92426" lon="4.73358">
        <ele>669.6</ele>
        <time>2026-05-04T05:59:27Z</time>
      </trkpt>
      <trkpt lat="44.92421" lon="4.73355">
        <ele>670.5</ele>
        <time>2026-05-04T05:59:32Z</time>
      </trkpt>
      <trkpt lat="44.92414" lon="4.73351">
        <ele>671.2</ele>
        <time>2026-05-04T05:59:37Z</time>
      </trkpt>
      <trkpt lat="44.92408" lon="4.73346">
        <ele>671.1</ele>
        <time>2026-05-04T05:59:42Z</time>
      </trkpt>
      <trkpt lat="44.92404" lon="4.73342">
        <ele>670.9</ele>
        <time>2026-05-04T05:59:47Z</time>
      </trkpt>
      <trkpt lat="44.924" lon="4.73338">
        <ele>670.7</ele>
        <time>2026-05-04T05:59:52Z</time>
      </trkpt>
      <trkpt lat="44.92398" lon="4.73335">
        <ele>670.5</ele>
        <time>2026-05-04T05:59:57Z</time>
      </trkpt>
      <trkpt lat="44.92394" lon="4.73331">
        <ele>670.3</ele>
        <time>2026-05-04T06:00:02Z</time>
      </trkpt>
      <trkpt lat="44.92394" lon="4.73329">
        <ele>670</ele>
        <time>2026-05-04T06:00:07Z</time>
      </trkpt>
      <trkpt lat="44.92395" lon="4.73328">
        <ele>669.7</ele>
        <time>2026-05-04T06:00:12Z</time>
      </trkpt>
      <trkpt lat="44.92395" lon="4.73328">
        <ele>669.7</ele>
        <time>2026-05-04T06:00:17Z</time>
      </trkpt>
      <trkpt lat="44.92389" lon="4.73321">
        <ele>669.3</ele>
        <time>2026-05-04T06:00:22Z</time>
      </trkpt>
      <trkpt lat="44.92384" lon="4.73316">
        <ele>669.2</ele>
        <time>2026-05-04T06:00:27Z</time>
      </trkpt>
      <trkpt lat="44.9238" lon="4.73313">
        <ele>669.4</ele>
        <time>2026-05-04T06:00:32Z</time>
      </trkpt>
      <trkpt lat="44.92375" lon="4.73307">
        <ele>669.2</ele>
        <time>2026-05-04T06:00:37Z</time>
      </trkpt>
      <trkpt lat="44.92372" lon="4.73305">
        <ele>669.4</ele>
        <time>2026-05-04T06:00:42Z</time>
      </trkpt>
      <trkpt lat="44.92372" lon="4.73302">
        <ele>669</ele>
        <time>2026-05-04T06:00:47Z</time>
      </trkpt>
      <trkpt lat="44.92371" lon="4.73301">
        <ele>669</ele>
        <time>2026-05-04T06:00:52Z</time>
      </trkpt>
      <trkpt lat="44.92365" lon="4.73298">
        <ele>669.5</ele>
        <time>2026-05-04T06:00:57Z</time>
      </trkpt>
      <trkpt lat="44.92362" lon="4.73294">
        <ele>669.5</ele>
        <time>2026-05-04T06:01:02Z</time>
      </trkpt>
      <trkpt lat="44.92357" lon="4.73289">
        <ele>669.7</ele>
        <time>2026-05-04T06:01:07Z</time>
      </trkpt>
      <trkpt lat="44.92351" lon="4.73283">
        <ele>670</ele>
        <time>2026-05-04T06:01:12Z</time>
      </trkpt>
      <trkpt lat="44.92346" lon="4.73277">
        <ele>670.2</ele>
        <time>2026-05-04T06:01:17Z</time>
      </trkpt>
      <trkpt lat="44.9234" lon="4.73271">
        <ele>670.7</ele>
        <time>2026-05-04T06:01:22Z</time>
      </trkpt>
      <trkpt lat="44.92335" lon="4.73268">
        <ele>671.4</ele>
        <time>2026-05-04T06:01:27Z</time>
      </trkpt>
      <trkpt lat="44.9233" lon="4.73265">
        <ele>671.6</ele>
        <time>2026-05-04T06:01:32Z</time>
      </trkpt>
      <trkpt lat="44.92324" lon="4.73261">
        <ele>671.6</ele>
        <time>2026-05-04T06:01:37Z</time>
      </trkpt>
      <trkpt lat="44.92318" lon="4.73255">
        <ele>671.5</ele>
        <time>2026-05-04T06:01:42Z</time>
      </trkpt>
      <trkpt lat="44.92313" lon="4.73248">
        <ele>671.2</ele>
        <time>2026-05-04T06:01:47Z</time>
      </trkpt>
      <trkpt lat="44.92308" lon="4.73242">
        <ele>670.9</ele>
        <time>2026-05-04T06:01:52Z</time>
      </trkpt>
      <trkpt lat="44.92302" lon="4.73235">
        <ele>670.6</ele>
        <time>2026-05-04T06:01:57Z</time>
      </trkpt>
      <trkpt lat="44.92299" lon="4.73227">
        <ele>670</ele>
        <time>2026-05-04T06:02:02Z</time>
      </trkpt>
      <trkpt lat="44.92295" lon="4.73221">
        <ele>669.7</ele>
        <time>2026-05-04T06:02:07Z</time>
      </trkpt>
      <trkpt lat="44.9229" lon="4.73213">
        <ele>669.4</ele>
        <time>2026-05-04T06:02:12Z</time>
      </trkpt>
      <trkpt lat="44.92285" lon="4.73207">
        <ele>669.3</ele>
        <time>2026-05-04T06:02:17Z</time>
      </trkpt>
      <trkpt lat="44.92281" lon="4.73202">
        <ele>669.2</ele>
        <time>2026-05-04T06:02:22Z</time>
      </trkpt>
      <trkpt lat="44.92278" lon="4.73197">
        <ele>669.1</ele>
        <time>2026-05-04T06:02:27Z</time>
      </trkpt>
      <trkpt lat="44.92274" lon="4.7319">
        <ele>668.9</ele>
        <time>2026-05-04T06:02:32Z</time>
      </trkpt>
      <trkpt lat="44.92269" lon="4.73184">
        <ele>669</ele>
        <time>2026-05-04T06:02:37Z</time>
      </trkpt>
      <trkpt lat="44.92266" lon="4.73179">
        <ele>668.9</ele>
        <time>2026-05-04T06:02:42Z</time>
      </trkpt>
      <trkpt lat="44.92261" lon="4.73172">
        <ele>669</ele>
        <time>2026-05-04T06:02:47Z</time>
      </trkpt>
      <trkpt lat="44.92257" lon="4.73168">
        <ele>669.2</ele>
        <time>2026-05-04T06:02:52Z</time>
      </trkpt>
      <trkpt lat="44.92253" lon="4.73161">
        <ele>668.9</ele>
        <time>2026-05-04T06:02:57Z</time>
      </trkpt>
      <trkpt lat="44.92247" lon="4.73151">
        <ele>667.4</ele>
        <time>2026-05-04T06:03:02Z</time>
      </trkpt>
      <trkpt lat="44.92241" lon="4.73143">
        <ele>665.3</ele>
        <time>2026-05-04T06:03:07Z</time>
      </trkpt>
      <trkpt lat="44.92235" lon="4.73137">
        <ele>663.6</ele>
        <time>2026-05-04T06:03:12Z</time>
      </trkpt>
      <trkpt lat="44.92229" lon="4.73131">
        <ele>662.1</ele>
        <time>2026-05-04T06:03:17Z</time>
      </trkpt>
      <trkpt lat="44.92223" lon="4.73126">
        <ele>660.7</ele>
        <time>2026-05-04T06:03:22Z</time>
      </trkpt>
      <trkpt lat="44.92217" lon="4.73119">
        <ele>659.3</ele>
        <time>2026-05-04T06:03:27Z</time>
      </trkpt>
      <trkpt lat="44.92211" lon="4.73114">
        <ele>658.2</ele>
        <time>2026-05-04T06:03:32Z</time>
      </trkpt>
      <trkpt lat="44.92205" lon="4.73109">
        <ele>657.2</ele>
        <time>2026-05-04T06:03:37Z</time>
      </trkpt>
      <trkpt lat="44.92199" lon="4.73103">
        <ele>656.2</ele>
        <time>2026-05-04T06:03:42Z</time>
      </trkpt>
      <trkpt lat="44.92193" lon="4.73098">
        <ele>655.4</ele>
        <time>2026-05-04T06:03:47Z</time>
      </trkpt>
      <trkpt lat="44.92188" lon="4.7309">
        <ele>654.7</ele>
        <time>2026-05-04T06:03:52Z</time>
      </trkpt>
      <trkpt lat="44.92181" lon="4.73085">
        <ele>654.1</ele>
        <time>2026-05-04T06:03:57Z</time>
      </trkpt>
      <trkpt lat="44.92175" lon="4.73081">
        <ele>653.7</ele>
        <time>2026-05-04T06:04:02Z</time>
      </trkpt>
      <trkpt lat="44.9217" lon="4.73077">
        <ele>653.5</ele>
        <time>2026-05-04T06:04:07Z</time>
      </trkpt>
      <trkpt lat="44.92163" lon="4.73077">
        <ele>652.8</ele>
        <time>2026-05-04T06:04:12Z</time>
      </trkpt>
      <trkpt lat="44.92156" lon="4.73074">
        <ele>652</ele>
        <time>2026-05-04T06:04:17Z</time>
      </trkpt>
      <trkpt lat="44.92149" lon="4.73071">
        <ele>651.3</ele>
        <time>2026-05-04T06:04:22Z</time>
      </trkpt>
      <trkpt lat="44.92141" lon="4.73069">
        <ele>650.5</ele>
        <time>2026-05-04T06:04:27Z</time>
      </trkpt>
      <trkpt lat="44.92134" lon="4.73065">
        <ele>650</ele>
        <time>2026-05-04T06:04:32Z</time>
      </trkpt>
      <trkpt lat="44.92126" lon="4.73062">
        <ele>649.3</ele>
        <time>2026-05-04T06:04:37Z</time>
      </trkpt>
      <trkpt lat="44.92119" lon="4.73058">
        <ele>648.9</ele>
        <time>2026-05-04T06:04:42Z</time>
      </trkpt>
      <trkpt lat="44.92112" lon="4.73051">
        <ele>649</ele>
        <time>2026-05-04T06:04:47Z</time>
      </trkpt>
      <trkpt lat="44.92106" lon="4.73045">
        <ele>649.1</ele>
        <time>2026-05-04T06:04:52Z</time>
      </trkpt>
      <trkpt lat="44.92101" lon="4.73038">
        <ele>649.6</ele>
        <time>2026-05-04T06:04:57Z</time>
      </trkpt>
      <trkpt lat="44.92095" lon="4.7303">
        <ele>650.2</ele>
        <time>2026-05-04T06:05:02Z</time>
      </trkpt>
      <trkpt lat="44.92091" lon="4.73022">
        <ele>651.1</ele>
        <time>2026-05-04T06:05:07Z</time>
      </trkpt>
      <trkpt lat="44.92087" lon="4.73014">
        <ele>652</ele>
        <time>2026-05-04T06:05:12Z</time>
      </trkpt>
      <trkpt lat="44.92085" lon="4.73008">
        <ele>652.8</ele>
        <time>2026-05-04T06:05:17Z</time>
      </trkpt>
      <trkpt lat="44.92083" lon="4.73006">
        <ele>653</ele>
        <time>2026-05-04T06:05:22Z</time>
      </trkpt>
      <trkpt lat="44.9208" lon="4.73002">
        <ele>653.2</ele>
        <time>2026-05-04T06:05:27Z</time>
      </trkpt>
      <trkpt lat="44.92077" lon="4.72999">
        <ele>653.3</ele>
        <time>2026-05-04T06:05:32Z</time>
      </trkpt>
      <trkpt lat="44.92073" lon="4.72994">
        <ele>654</ele>
        <time>2026-05-04T06:05:37Z</time>
      </trkpt>
      <trkpt lat="44.9207" lon="4.72988">
        <ele>655.1</ele>
        <time>2026-05-04T06:05:42Z</time>
      </trkpt>
      <trkpt lat="44.92066" lon="4.72981">
        <ele>656.2</ele>
        <time>2026-05-04T06:05:47Z</time>
      </trkpt>
      <trkpt lat="44.92064" lon="4.72976">
        <ele>657.2</ele>
        <time>2026-05-04T06:05:52Z</time>
      </trkpt>
      <trkpt lat="44.92061" lon="4.72969">
        <ele>658.5</ele>
        <time>2026-05-04T06:05:57Z</time>
      </trkpt>
      <trkpt lat="44.92059" lon="4.72961">
        <ele>660.2</ele>
        <time>2026-05-04T06:06:02Z</time>
      </trkpt>
      <trkpt lat="44.92056" lon="4.72957">
        <ele>660.7</ele>
        <time>2026-05-04T06:06:07Z</time>
      </trkpt>
      <trkpt lat="44.92053" lon="4.72952">
        <ele>661.5</ele>
        <time>2026-05-04T06:06:12Z</time>
      </trkpt>
      <trkpt lat="44.9205" lon="4.72947">
        <ele>662.3</ele>
        <time>2026-05-04T06:06:17Z</time>
      </trkpt>
      <trkpt lat="44.92048" lon="4.7294">
        <ele>663.7</ele>
        <time>2026-05-04T06:06:22Z</time>
      </trkpt>
      <trkpt lat="44.92046" lon="4.72938">
        <ele>663.9</ele>
        <time>2026-05-04T06:06:27Z</time>
      </trkpt>
      <trkpt lat="44.92046" lon="4.72938">
        <ele>663.9</ele>
        <time>2026-05-04T06:06:32Z</time>
      </trkpt>
      <trkpt lat="44.92046" lon="4.72938">
        <ele>663.9</ele>
        <time>2026-05-04T06:06:37Z</time>
      </trkpt>
      <trkpt lat="44.92046" lon="4.72938">
        <ele>663.9</ele>
        <time>2026-05-04T06:06:42Z</time>
      </trkpt>
      <trkpt lat="44.92046" lon="4.72938">
        <ele>663.9</ele>
        <time>2026-05-04T06:06:47Z</time>
      </trkpt>
      <trkpt lat="44.92046" lon="4.72938">
        <ele>663.9</ele>
        <time>2026-05-04T06:06:52Z</time>
      </trkpt>
      <trkpt lat="44.92046" lon="4.72938">
        <ele>663.9</ele>
        <time>2026-05-04T06:06:57Z</time>
      </trkpt>
      <trkpt lat="44.92046" lon="4.72938">
        <ele>663.9</ele>
        <time>2026-05-04T06:07:02Z</time>
      </trkpt>
      <trkpt lat="44.92046" lon="4.72938">
        <ele>663.9</ele>
        <time>2026-05-04T06:07:07Z</time>
      </trkpt>
      <trkpt lat="44.92046" lon="4.72938">
        <ele>663.9</ele>
        <time>2026-05-04T06:07:12Z</time>
      </trkpt>
      <trkpt lat="44.92046" lon="4.72938">
        <ele>663.9</ele>
        <time>2026-05-04T06:07:17Z</time>
      </trkpt>
      <trkpt lat="44.92046" lon="4.72938">
        <ele>663.9</ele>
        <time>2026-05-04T06:07:22Z</time>
      </trkpt>
      <trkpt lat="44.92046" lon="4.72938">
        <ele>663.9</ele>
        <time>2026-05-04T06:07:27Z</time>
      </trkpt>
      <trkpt lat="44.92046" lon="4.72938">
        <ele>663.9</ele>
        <time>2026-05-04T06:07:32Z</time>
      </trkpt>
      <trkpt lat="44.92046" lon="4.72938">
        <ele>663.9</ele>
        <time>2026-05-04T06:07:37Z</time>
      </trkpt>
      <trkpt lat="44.92046" lon="4.72938">
        <ele>663.9</ele>
        <time>2026-05-04T06:07:42Z</time>
      </trkpt>
      <trkpt lat="44.92046" lon="4.72938">
        <ele>663.9</ele>
        <time>2026-05-04T06:07:47Z</time>
      </trkpt>
      <trkpt lat="44.92044" lon="4.72932">
        <ele>665.1</ele>
        <time>2026-05-04T06:07:52Z</time>
      </trkpt>
      <trkpt lat="44.92042" lon="4.72927">
        <ele>666</ele>
        <time>2026-05-04T06:07:57Z</time>
      </trkpt>
      <trkpt lat="44.92041" lon="4.72923">
        <ele>666.8</ele>
        <time>2026-05-04T06:08:02Z</time>
      </trkpt>
      <trkpt lat="44.92039" lon="4.72918">
        <ele>667.8</ele>
        <time>2026-05-04T06:08:07Z</time>
      </trkpt>
      <trkpt lat="44.92037" lon="4.72913">
        <ele>668.3</ele>
        <time>2026-05-04T06:08:12Z</time>
      </trkpt>
      <trkpt lat="44.92033" lon="4.72911">
        <ele>668</ele>
        <time>2026-05-04T06:08:17Z</time>
      </trkpt>
      <trkpt lat="44.92031" lon="4.72907">
        <ele>668.3</ele>
        <time>2026-05-04T06:08:22Z</time>
      </trkpt>
      <trkpt lat="44.92027" lon="4.72905">
        <ele>668</ele>
        <time>2026-05-04T06:08:27Z</time>
      </trkpt>
      <trkpt lat="44.92025" lon="4.729">
        <ele>668.5</ele>
        <time>2026-05-04T06:08:32Z</time>
      </trkpt>
      <trkpt lat="44.92023" lon="4.72896">
        <ele>668.9</ele>
        <time>2026-05-04T06:08:37Z</time>
      </trkpt>
      <trkpt lat="44.92021" lon="4.72894">
        <ele>668.9</ele>
        <time>2026-05-04T06:08:42Z</time>
      </trkpt>
      <trkpt lat="44.9202" lon="4.72893">
        <ele>668.9</ele>
        <time>2026-05-04T06:08:47Z</time>
      </trkpt>
      <trkpt lat="44.9202" lon="4.72893">
        <ele>668.9</ele>
        <time>2026-05-04T06:08:52Z</time>
      </trkpt>
      <trkpt lat="44.9202" lon="4.72893">
        <ele>668.9</ele>
        <time>2026-05-04T06:08:57Z</time>
      </trkpt>
      <trkpt lat="44.9202" lon="4.72893">
        <ele>668.9</ele>
        <time>2026-05-04T06:09:02Z</time>
      </trkpt>
      <trkpt lat="44.9202" lon="4.72893">
        <ele>668.9</ele>
        <time>2026-05-04T06:09:07Z</time>
      </trkpt>
      <trkpt lat="44.9202" lon="4.72893">
        <ele>668.9</ele>
        <time>2026-05-04T06:09:12Z</time>
      </trkpt>
      <trkpt lat="44.9202" lon="4.72893">
        <ele>668.9</ele>
        <time>2026-05-04T06:09:17Z</time>
      </trkpt>
      <trkpt lat="44.9202" lon="4.72893">
        <ele>668.9</ele>
        <time>2026-05-04T06:09:22Z</time>
      </trkpt>
      <trkpt lat="44.9202" lon="4.72893">
        <ele>668.9</ele>
        <time>2026-05-04T06:09:27Z</time>
      </trkpt>
      <trkpt lat="44.9202" lon="4.72893">
        <ele>668.9</ele>
        <time>2026-05-04T06:09:32Z</time>
      </trkpt>
      <trkpt lat="44.9202" lon="4.72893">
        <ele>668.9</ele>
        <time>2026-05-04T06:09:37Z</time>
      </trkpt>
      <trkpt lat="44.9202" lon="4.72893">
        <ele>668.9</ele>
        <time>2026-05-04T06:09:42Z</time>
      </trkpt>
      <trkpt lat="44.9202" lon="4.72893">
        <ele>668.9</ele>
        <time>2026-05-04T06:09:47Z</time>
      </trkpt>
      <trkpt lat="44.9202" lon="4.72893">
        <ele>668.9</ele>
        <time>2026-05-04T06:09:52Z</time>
      </trkpt>
      <trkpt lat="44.9202" lon="4.72893">
        <ele>668.9</ele>
        <time>2026-05-04T06:09:57Z</time>
      </trkpt>
      <trkpt lat="44.9202" lon="4.72893">
        <ele>668.9</ele>
        <time>2026-05-04T06:10:02Z</time>
      </trkpt>
      <trkpt lat="44.9202" lon="4.72893">
        <ele>668.9</ele>
        <time>2026-05-04T06:10:07Z</time>
      </trkpt>
      <trkpt lat="44.9202" lon="4.72893">
        <ele>668.9</ele>
        <time>2026-05-04T06:10:12Z</time>
      </trkpt>
      <trkpt lat="44.9202" lon="4.72893">
        <ele>668.9</ele>
        <time>2026-05-04T06:10:17Z</time>
      </trkpt>
      <trkpt lat="44.9202" lon="4.72893">
        <ele>668.9</ele>
        <time>2026-05-04T06:10:22Z</time>
      </trkpt>
      <trkpt lat="44.9202" lon="4.72893">
        <ele>668.9</ele>
        <time>2026-05-04T06:10:27Z</time>
      </trkpt>
      <trkpt lat="44.9202" lon="4.72893">
        <ele>668.9</ele>
        <time>2026-05-04T06:10:32Z</time>
      </trkpt>
      <trkpt lat="44.9202" lon="4.72893">
        <ele>668.9</ele>
        <time>2026-05-04T06:10:37Z</time>
      </trkpt>
      <trkpt lat="44.9202" lon="4.72893">
        <ele>668.9</ele>
        <time>2026-05-04T06:10:42Z</time>
      </trkpt>
      <trkpt lat="44.9202" lon="4.72893">
        <ele>668.9</ele>
        <time>2026-05-04T06:10:47Z</time>
      </trkpt>
      <trkpt lat="44.9202" lon="4.72893">
        <ele>668.9</ele>
        <time>2026-05-04T06:10:52Z</time>
      </trkpt>
      <trkpt lat="44.9202" lon="4.72893">
        <ele>668.9</ele>
        <time>2026-05-04T06:10:57Z</time>
      </trkpt>
      <trkpt lat="44.9202" lon="4.72893">
        <ele>668.9</ele>
        <time>2026-05-04T06:11:02Z</time>
      </trkpt>
      <trkpt lat="44.9202" lon="4.72893">
        <ele>668.9</ele>
        <time>2026-05-04T06:11:07Z</time>
      </trkpt>
      <trkpt lat="44.9202" lon="4.72893">
        <ele>668.9</ele>
        <time>2026-05-04T06:11:12Z</time>
      </trkpt>
      <trkpt lat="44.9202" lon="4.72893">
        <ele>668.9</ele>
        <time>2026-05-04T06:11:17Z</time>
      </trkpt>
      <trkpt lat="44.9202" lon="4.72893">
        <ele>668.9</ele>
        <time>2026-05-04T06:11:22Z</time>
      </trkpt>
      <trkpt lat="44.9202" lon="4.72893">
        <ele>668.9</ele>
        <time>2026-05-04T06:11:27Z</time>
      </trkpt>
      <trkpt lat="44.9202" lon="4.72893">
        <ele>668.9</ele>
        <time>2026-05-04T06:11:32Z</time>
      </trkpt>
      <trkpt lat="44.9202" lon="4.72893">
        <ele>668.9</ele>
        <time>2026-05-04T06:11:37Z</time>
      </trkpt>
      <trkpt lat="44.9202" lon="4.72893">
        <ele>668.9</ele>
        <time>2026-05-04T06:11:37Z</time>
      </trkpt>
      <trkpt lat="44.92032" lon="4.72902">
        <ele>669.3</ele>
        <time>2026-05-04T06:11:42Z</time>
      </trkpt>
      <trkpt lat="44.92018" lon="4.72894">
        <ele>668.4</ele>
        <time>2026-05-04T06:11:48Z</time>
      </trkpt>
      <trkpt lat="44.92018" lon="4.72891">
        <ele>668.9</ele>
        <time>2026-05-04T06:11:53Z</time>
      </trkpt>
      <trkpt lat="44.92016" lon="4.72886">
        <ele>669.4</ele>
        <time>2026-05-04T06:11:58Z</time>
      </trkpt>
      <trkpt lat="44.92013" lon="4.72881">
        <ele>669.8</ele>
        <time>2026-05-04T06:12:03Z</time>
      </trkpt>
      <trkpt lat="44.92011" lon="4.72876">
        <ele>670.4</ele>
        <time>2026-05-04T06:12:08Z</time>
      </trkpt>
      <trkpt lat="44.92009" lon="4.72872">
        <ele>670.7</ele>
        <time>2026-05-04T06:12:13Z</time>
      </trkpt>
      <trkpt lat="44.92008" lon="4.72867">
        <ele>671.4</ele>
        <time>2026-05-04T06:12:18Z</time>
      </trkpt>
      <trkpt lat="44.92005" lon="4.72862">
        <ele>671.8</ele>
        <time>2026-05-04T06:12:23Z</time>
      </trkpt>
      <trkpt lat="44.92004" lon="4.72857">
        <ele>672.5</ele>
        <time>2026-05-04T06:12:28Z</time>
      </trkpt>
      <trkpt lat="44.92003" lon="4.72851">
        <ele>673.4</ele>
        <time>2026-05-04T06:12:33Z</time>
      </trkpt>
      <trkpt lat="44.92002" lon="4.72846">
        <ele>674.1</ele>
        <time>2026-05-04T06:12:38Z</time>
      </trkpt>
      <trkpt lat="44.92002" lon="4.72839">
        <ele>675.3</ele>
        <time>2026-05-04T06:12:43Z</time>
      </trkpt>
      <trkpt lat="44.92002" lon="4.72834">
        <ele>676.1</ele>
        <time>2026-05-04T06:12:48Z</time>
      </trkpt>
      <trkpt lat="44.92001" lon="4.72828">
        <ele>676.8</ele>
        <time>2026-05-04T06:12:53Z</time>
      </trkpt>
      <trkpt lat="44.92001" lon="4.72822">
        <ele>677.5</ele>
        <time>2026-05-04T06:12:58Z</time>
      </trkpt>
      <trkpt lat="44.92" lon="4.72814">
        <ele>678.3</ele>
        <time>2026-05-04T06:13:03Z</time>
      </trkpt>
      <trkpt lat="44.91998" lon="4.72808">
        <ele>678.6</ele>
        <time>2026-05-04T06:13:08Z</time>
      </trkpt>
      <trkpt lat="44.91997" lon="4.72802">
        <ele>679.1</ele>
        <time>2026-05-04T06:13:13Z</time>
      </trkpt>
      <trkpt lat="44.91996" lon="4.72798">
        <ele>679.3</ele>
        <time>2026-05-04T06:13:18Z</time>
      </trkpt>
      <trkpt lat="44.91995" lon="4.72792">
        <ele>679.8</ele>
        <time>2026-05-04T06:13:23Z</time>
      </trkpt>
      <trkpt lat="44.91995" lon="4.72783">
        <ele>680.9</ele>
        <time>2026-05-04T06:13:28Z</time>
      </trkpt>
      <trkpt lat="44.91992" lon="4.72777">
        <ele>681</ele>
        <time>2026-05-04T06:13:33Z</time>
      </trkpt>
      <trkpt lat="44.9199" lon="4.72772">
        <ele>681.1</ele>
        <time>2026-05-04T06:13:38Z</time>
      </trkpt>
      <trkpt lat="44.91987" lon="4.72765">
        <ele>681.3</ele>
        <time>2026-05-04T06:13:43Z</time>
      </trkpt>
      <trkpt lat="44.91984" lon="4.72757">
        <ele>681.7</ele>
        <time>2026-05-04T06:13:48Z</time>
      </trkpt>
      <trkpt lat="44.91982" lon="4.7275">
        <ele>682.1</ele>
        <time>2026-05-04T06:13:53Z</time>
      </trkpt>
      <trkpt lat="44.91978" lon="4.72742">
        <ele>682.5</ele>
        <time>2026-05-04T06:13:58Z</time>
      </trkpt>
      <trkpt lat="44.91973" lon="4.72736">
        <ele>682.3</ele>
        <time>2026-05-04T06:14:03Z</time>
      </trkpt>
      <trkpt lat="44.91969" lon="4.7273">
        <ele>682.5</ele>
        <time>2026-05-04T06:14:08Z</time>
      </trkpt>
      <trkpt lat="44.91965" lon="4.72723">
        <ele>682.8</ele>
        <time>2026-05-04T06:14:13Z</time>
      </trkpt>
      <trkpt lat="44.91958" lon="4.72716">
        <ele>682.6</ele>
        <time>2026-05-04T06:14:18Z</time>
      </trkpt>
      <trkpt lat="44.91954" lon="4.72712">
        <ele>682.6</ele>
        <time>2026-05-04T06:14:23Z</time>
      </trkpt>
      <trkpt lat="44.91952" lon="4.72706">
        <ele>683.3</ele>
        <time>2026-05-04T06:14:28Z</time>
      </trkpt>
      <trkpt lat="44.91949" lon="4.727">
        <ele>683.8</ele>
        <time>2026-05-04T06:14:33Z</time>
      </trkpt>
      <trkpt lat="44.91945" lon="4.72694">
        <ele>684.2</ele>
        <time>2026-05-04T06:14:38Z</time>
      </trkpt>
      <trkpt lat="44.91942" lon="4.72688">
        <ele>684.8</ele>
        <time>2026-05-04T06:14:43Z</time>
      </trkpt>
      <trkpt lat="44.91938" lon="4.72681">
        <ele>685.4</ele>
        <time>2026-05-04T06:14:48Z</time>
      </trkpt>
      <trkpt lat="44.91934" lon="4.72675">
        <ele>685.9</ele>
        <time>2026-05-04T06:14:53Z</time>
      </trkpt>
      <trkpt lat="44.91931" lon="4.72671">
        <ele>686.2</ele>
        <time>2026-05-04T06:14:58Z</time>
      </trkpt>
      <trkpt lat="44.91927" lon="4.72666">
        <ele>686.6</ele>
        <time>2026-05-04T06:15:03Z</time>
      </trkpt>
      <trkpt lat="44.91923" lon="4.72661">
        <ele>686.9</ele>
        <time>2026-05-04T06:15:08Z</time>
      </trkpt>
      <trkpt lat="44.91921" lon="4.72655">
        <ele>687.7</ele>
        <time>2026-05-04T06:15:13Z</time>
      </trkpt>
      <trkpt lat="44.91918" lon="4.72649">
        <ele>688.3</ele>
        <time>2026-05-04T06:15:18Z</time>
      </trkpt>
      <trkpt lat="44.91916" lon="4.72644">
        <ele>689</ele>
        <time>2026-05-04T06:15:23Z</time>
      </trkpt>
      <trkpt lat="44.91914" lon="4.72639">
        <ele>689.8</ele>
        <time>2026-05-04T06:15:28Z</time>
      </trkpt>
      <trkpt lat="44.91911" lon="4.72633">
        <ele>690.6</ele>
        <time>2026-05-04T06:15:33Z</time>
      </trkpt>
      <trkpt lat="44.91909" lon="4.72627">
        <ele>691.6</ele>
        <time>2026-05-04T06:15:38Z</time>
      </trkpt>
      <trkpt lat="44.91904" lon="4.72622">
        <ele>692.2</ele>
        <time>2026-05-04T06:15:43Z</time>
      </trkpt>
      <trkpt lat="44.91901" lon="4.72618">
        <ele>692.7</ele>
        <time>2026-05-04T06:15:48Z</time>
      </trkpt>
      <trkpt lat="44.91898" lon="4.72613">
        <ele>693.5</ele>
        <time>2026-05-04T06:15:53Z</time>
      </trkpt>
      <trkpt lat="44.91894" lon="4.72607">
        <ele>694.5</ele>
        <time>2026-05-04T06:15:58Z</time>
      </trkpt>
      <trkpt lat="44.9189" lon="4.72599">
        <ele>695.9</ele>
        <time>2026-05-04T06:16:03Z</time>
      </trkpt>
      <trkpt lat="44.91886" lon="4.72592">
        <ele>697.1</ele>
        <time>2026-05-04T06:16:08Z</time>
      </trkpt>
      <trkpt lat="44.91882" lon="4.72582">
        <ele>699.1</ele>
        <time>2026-05-04T06:16:13Z</time>
      </trkpt>
      <trkpt lat="44.91879" lon="4.72574">
        <ele>700.8</ele>
        <time>2026-05-04T06:16:18Z</time>
      </trkpt>
      <trkpt lat="44.91877" lon="4.72567">
        <ele>702.3</ele>
        <time>2026-05-04T06:16:23Z</time>
      </trkpt>
      <trkpt lat="44.91872" lon="4.72562">
        <ele>703.3</ele>
        <time>2026-05-04T06:16:28Z</time>
      </trkpt>
      <trkpt lat="44.9187" lon="4.72554">
        <ele>705.1</ele>
        <time>2026-05-04T06:16:33Z</time>
      </trkpt>
      <trkpt lat="44.91867" lon="4.72548">
        <ele>706.4</ele>
        <time>2026-05-04T06:16:38Z</time>
      </trkpt>
      <trkpt lat="44.91863" lon="4.72544">
        <ele>707.3</ele>
        <time>2026-05-04T06:16:43Z</time>
      </trkpt>
      <trkpt lat="44.91858" lon="4.72538">
        <ele>708.7</ele>
        <time>2026-05-04T06:16:48Z</time>
      </trkpt>
      <trkpt lat="44.91856" lon="4.72533">
        <ele>709.8</ele>
        <time>2026-05-04T06:16:53Z</time>
      </trkpt>
      <trkpt lat="44.91852" lon="4.72527">
        <ele>711.3</ele>
        <time>2026-05-04T06:16:58Z</time>
      </trkpt>
      <trkpt lat="44.91848" lon="4.72523">
        <ele>712.2</ele>
        <time>2026-05-04T06:17:03Z</time>
      </trkpt>
      <trkpt lat="44.91847" lon="4.72519">
        <ele>713.2</ele>
        <time>2026-05-04T06:17:08Z</time>
      </trkpt>
      <trkpt lat="44.91844" lon="4.72516">
        <ele>713.9</ele>
        <time>2026-05-04T06:17:13Z</time>
      </trkpt>
      <trkpt lat="44.91843" lon="4.72515">
        <ele>714.2</ele>
        <time>2026-05-04T06:17:18Z</time>
      </trkpt>
      <trkpt lat="44.91843" lon="4.72515">
        <ele>714.2</ele>
        <time>2026-05-04T06:17:23Z</time>
      </trkpt>
      <trkpt lat="44.91843" lon="4.72515">
        <ele>714.2</ele>
        <time>2026-05-04T06:17:28Z</time>
      </trkpt>
      <trkpt lat="44.91843" lon="4.72515">
        <ele>714.2</ele>
        <time>2026-05-04T06:17:33Z</time>
      </trkpt>
      <trkpt lat="44.91843" lon="4.72515">
        <ele>714.2</ele>
        <time>2026-05-04T06:17:38Z</time>
      </trkpt>
      <trkpt lat="44.91843" lon="4.72515">
        <ele>714.2</ele>
        <time>2026-05-04T06:17:43Z</time>
      </trkpt>
      <trkpt lat="44.91843" lon="4.72515">
        <ele>714.2</ele>
        <time>2026-05-04T06:17:48Z</time>
      </trkpt>
      <trkpt lat="44.91843" lon="4.72515">
        <ele>714.2</ele>
        <time>2026-05-04T06:17:53Z</time>
      </trkpt>
      <trkpt lat="44.91843" lon="4.72515">
        <ele>714.2</ele>
        <time>2026-05-04T06:17:58Z</time>
      </trkpt>
      <trkpt lat="44.91843" lon="4.72515">
        <ele>714.2</ele>
        <time>2026-05-04T06:18:03Z</time>
      </trkpt>
      <trkpt lat="44.91843" lon="4.72515">
        <ele>714.2</ele>
        <time>2026-05-04T06:18:08Z</time>
      </trkpt>
      <trkpt lat="44.91843" lon="4.72515">
        <ele>714.2</ele>
        <time>2026-05-04T06:18:13Z</time>
      </trkpt>
      <trkpt lat="44.91843" lon="4.72515">
        <ele>714.2</ele>
        <time>2026-05-04T06:18:18Z</time>
      </trkpt>
      <trkpt lat="44.91843" lon="4.72515">
        <ele>714.2</ele>
        <time>2026-05-04T06:18:23Z</time>
      </trkpt>
      <trkpt lat="44.91843" lon="4.72515">
        <ele>714.2</ele>
        <time>2026-05-04T06:18:28Z</time>
      </trkpt>
      <trkpt lat="44.91843" lon="4.72515">
        <ele>714.2</ele>
        <time>2026-05-04T06:18:33Z</time>
      </trkpt>
      <trkpt lat="44.91843" lon="4.72515">
        <ele>714.2</ele>
        <time>2026-05-04T06:18:38Z</time>
      </trkpt>
      <trkpt lat="44.91843" lon="4.72515">
        <ele>714.2</ele>
        <time>2026-05-04T06:18:43Z</time>
      </trkpt>
      <trkpt lat="44.91843" lon="4.72515">
        <ele>714.2</ele>
        <time>2026-05-04T06:18:48Z</time>
      </trkpt>
      <trkpt lat="44.91843" lon="4.72515">
        <ele>714.2</ele>
        <time>2026-05-04T06:18:53Z</time>
      </trkpt>
      <trkpt lat="44.91839" lon="4.72509">
        <ele>715.7</ele>
        <time>2026-05-04T06:18:58Z</time>
      </trkpt>
      <trkpt lat="44.91837" lon="4.72504">
        <ele>717</ele>
        <time>2026-05-04T06:19:03Z</time>
      </trkpt>
      <trkpt lat="44.91833" lon="4.725">
        <ele>718</ele>
        <time>2026-05-04T06:19:08Z</time>
      </trkpt>
      <trkpt lat="44.91825" lon="4.72495">
        <ele>718</ele>
        <time>2026-05-04T06:19:13Z</time>
      </trkpt>
      <trkpt lat="44.91821" lon="4.72491">
        <ele>718.2</ele>
        <time>2026-05-04T06:19:18Z</time>
      </trkpt>
      <trkpt lat="44.91817" lon="4.72487">
        <ele>718.5</ele>
        <time>2026-05-04T06:19:23Z</time>
      </trkpt>
      <trkpt lat="44.91813" lon="4.72484">
        <ele>718.6</ele>
        <time>2026-05-04T06:19:28Z</time>
      </trkpt>
      <trkpt lat="44.91808" lon="4.72481">
        <ele>718.7</ele>
        <time>2026-05-04T06:19:33Z</time>
      </trkpt>
      <trkpt lat="44.91803" lon="4.72478">
        <ele>718.9</ele>
        <time>2026-05-04T06:19:38Z</time>
      </trkpt>
      <trkpt lat="44.918" lon="4.72473">
        <ele>719.3</ele>
        <time>2026-05-04T06:19:43Z</time>
      </trkpt>
      <trkpt lat="44.91796" lon="4.7247">
        <ele>719.5</ele>
        <time>2026-05-04T06:19:48Z</time>
      </trkpt>
      <trkpt lat="44.91791" lon="4.72469">
        <ele>719.5</ele>
        <time>2026-05-04T06:19:53Z</time>
      </trkpt>
      <trkpt lat="44.91787" lon="4.72467">
        <ele>719.6</ele>
        <time>2026-05-04T06:19:58Z</time>
      </trkpt>
      <trkpt lat="44.91782" lon="4.72463">
        <ele>720</ele>
        <time>2026-05-04T06:20:03Z</time>
      </trkpt>
      <trkpt lat="44.91776" lon="4.72458">
        <ele>720.5</ele>
        <time>2026-05-04T06:20:08Z</time>
      </trkpt>
      <trkpt lat="44.91772" lon="4.72453">
        <ele>721.1</ele>
        <time>2026-05-04T06:20:13Z</time>
      </trkpt>
      <trkpt lat="44.91766" lon="4.72447">
        <ele>721.8</ele>
        <time>2026-05-04T06:20:18Z</time>
      </trkpt>
      <trkpt lat="44.9176" lon="4.7244">
        <ele>722.7</ele>
        <time>2026-05-04T06:20:23Z</time>
      </trkpt>
      <trkpt lat="44.91755" lon="4.72435">
        <ele>723.4</ele>
        <time>2026-05-04T06:20:28Z</time>
      </trkpt>
      <trkpt lat="44.9175" lon="4.7243">
        <ele>724.1</ele>
        <time>2026-05-04T06:20:33Z</time>
      </trkpt>
      <trkpt lat="44.91744" lon="4.72427">
        <ele>723.2</ele>
        <time>2026-05-04T06:20:38Z</time>
      </trkpt>
      <trkpt lat="44.91737" lon="4.72423">
        <ele>722.4</ele>
        <time>2026-05-04T06:20:43Z</time>
      </trkpt>
      <trkpt lat="44.9173" lon="4.72418">
        <ele>721.7</ele>
        <time>2026-05-04T06:20:48Z</time>
      </trkpt>
      <trkpt lat="44.91722" lon="4.72415">
        <ele>720.3</ele>
        <time>2026-05-04T06:20:53Z</time>
      </trkpt>
      <trkpt lat="44.91715" lon="4.72412">
        <ele>718.9</ele>
        <time>2026-05-04T06:20:58Z</time>
      </trkpt>
      <trkpt lat="44.91707" lon="4.72407">
        <ele>717.4</ele>
        <time>2026-05-04T06:21:03Z</time>
      </trkpt>
      <trkpt lat="44.91701" lon="4.72402">
        <ele>716.5</ele>
        <time>2026-05-04T06:21:08Z</time>
      </trkpt>
      <trkpt lat="44.91695" lon="4.72396">
        <ele>715.8</ele>
        <time>2026-05-04T06:21:13Z</time>
      </trkpt>
      <trkpt lat="44.91689" lon="4.72394">
        <ele>715</ele>
        <time>2026-05-04T06:21:18Z</time>
      </trkpt>
      <trkpt lat="44.91683" lon="4.72395">
        <ele>714.1</ele>
        <time>2026-05-04T06:21:23Z</time>
      </trkpt>
      <trkpt lat="44.91675" lon="4.72392">
        <ele>713.2</ele>
        <time>2026-05-04T06:21:28Z</time>
      </trkpt>
      <trkpt lat="44.91668" lon="4.72385">
        <ele>713</ele>
        <time>2026-05-04T06:21:33Z</time>
      </trkpt>
      <trkpt lat="44.91664" lon="4.7238">
        <ele>712.6</ele>
        <time>2026-05-04T06:21:38Z</time>
      </trkpt>
      <trkpt lat="44.91656" lon="4.72371">
        <ele>711.4</ele>
        <time>2026-05-04T06:21:43Z</time>
      </trkpt>
      <trkpt lat="44.91649" lon="4.72364">
        <ele>710.4</ele>
        <time>2026-05-04T06:21:48Z</time>
      </trkpt>
      <trkpt lat="44.91642" lon="4.72357">
        <ele>709.4</ele>
        <time>2026-05-04T06:21:53Z</time>
      </trkpt>
      <trkpt lat="44.91634" lon="4.72349">
        <ele>708.4</ele>
        <time>2026-05-04T06:21:58Z</time>
      </trkpt>
      <trkpt lat="44.91627" lon="4.7234">
        <ele>708</ele>
        <time>2026-05-04T06:22:03Z</time>
      </trkpt>
      <trkpt lat="44.9162" lon="4.72333">
        <ele>707.3</ele>
        <time>2026-05-04T06:22:08Z</time>
      </trkpt>
      <trkpt lat="44.91615" lon="4.72326">
        <ele>706.5</ele>
        <time>2026-05-04T06:22:13Z</time>
      </trkpt>
      <trkpt lat="44.9161" lon="4.7232">
        <ele>705.8</ele>
        <time>2026-05-04T06:22:18Z</time>
      </trkpt>
      <trkpt lat="44.91602" lon="4.72315">
        <ele>704.4</ele>
        <time>2026-05-04T06:22:23Z</time>
      </trkpt>
      <trkpt lat="44.91596" lon="4.7231">
        <ele>703.7</ele>
        <time>2026-05-04T06:22:28Z</time>
      </trkpt>
      <trkpt lat="44.91591" lon="4.72305">
        <ele>703.2</ele>
        <time>2026-05-04T06:22:33Z</time>
      </trkpt>
      <trkpt lat="44.91587" lon="4.723">
        <ele>703.1</ele>
        <time>2026-05-04T06:22:38Z</time>
      </trkpt>
      <trkpt lat="44.91578" lon="4.72295">
        <ele>701.5</ele>
        <time>2026-05-04T06:22:43Z</time>
      </trkpt>
      <trkpt lat="44.91572" lon="4.7229">
        <ele>700.4</ele>
        <time>2026-05-04T06:22:48Z</time>
      </trkpt>
      <trkpt lat="44.91566" lon="4.72284">
        <ele>699.6</ele>
        <time>2026-05-04T06:22:53Z</time>
      </trkpt>
      <trkpt lat="44.9156" lon="4.72277">
        <ele>699.1</ele>
        <time>2026-05-04T06:22:58Z</time>
      </trkpt>
      <trkpt lat="44.91555" lon="4.72269">
        <ele>699.2</ele>
        <time>2026-05-04T06:23:03Z</time>
      </trkpt>
      <trkpt lat="44.91549" lon="4.72262">
        <ele>698.9</ele>
        <time>2026-05-04T06:23:08Z</time>
      </trkpt>
      <trkpt lat="44.91543" lon="4.72254">
        <ele>699</ele>
        <time>2026-05-04T06:23:13Z</time>
      </trkpt>
      <trkpt lat="44.91538" lon="4.72247">
        <ele>699</ele>
        <time>2026-05-04T06:23:18Z</time>
      </trkpt>
      <trkpt lat="44.91532" lon="4.7224">
        <ele>698.5</ele>
        <time>2026-05-04T06:23:23Z</time>
      </trkpt>
      <trkpt lat="44.91527" lon="4.72233">
        <ele>698.3</ele>
        <time>2026-05-04T06:23:28Z</time>
      </trkpt>
      <trkpt lat="44.91521" lon="4.72225">
        <ele>698.2</ele>
        <time>2026-05-04T06:23:33Z</time>
      </trkpt>
      <trkpt lat="44.91516" lon="4.72218">
        <ele>698.4</ele>
        <time>2026-05-04T06:23:38Z</time>
      </trkpt>
      <trkpt lat="44.91509" lon="4.72211">
        <ele>698.4</ele>
        <time>2026-05-04T06:23:43Z</time>
      </trkpt>
      <trkpt lat="44.91503" lon="4.72205">
        <ele>698.5</ele>
        <time>2026-05-04T06:23:48Z</time>
      </trkpt>
      <trkpt lat="44.91497" lon="4.722">
        <ele>698.9</ele>
        <time>2026-05-04T06:23:53Z</time>
      </trkpt>
      <trkpt lat="44.91492" lon="4.72194">
        <ele>699.8</ele>
        <time>2026-05-04T06:23:58Z</time>
      </trkpt>
      <trkpt lat="44.91488" lon="4.72189">
        <ele>700.7</ele>
        <time>2026-05-04T06:24:03Z</time>
      </trkpt>
      <trkpt lat="44.91484" lon="4.72184">
        <ele>701.6</ele>
        <time>2026-05-04T06:24:08Z</time>
      </trkpt>
      <trkpt lat="44.91476" lon="4.7217">
        <ele>704.6</ele>
        <time>2026-05-04T06:24:13Z</time>
      </trkpt>
      <trkpt lat="44.91469" lon="4.72158">
        <ele>706.3</ele>
        <time>2026-05-04T06:24:18Z</time>
      </trkpt>
      <trkpt lat="44.91464" lon="4.7215">
        <ele>707.3</ele>
        <time>2026-05-04T06:24:23Z</time>
      </trkpt>
      <trkpt lat="44.91457" lon="4.72144">
        <ele>708.3</ele>
        <time>2026-05-04T06:24:28Z</time>
      </trkpt>
      <trkpt lat="44.91451" lon="4.72139">
        <ele>709.2</ele>
        <time>2026-05-04T06:24:33Z</time>
      </trkpt>
      <trkpt lat="44.91443" lon="4.72133">
        <ele>710.5</ele>
        <time>2026-05-04T06:24:38Z</time>
      </trkpt>
      <trkpt lat="44.91436" lon="4.72128">
        <ele>711.7</ele>
        <time>2026-05-04T06:24:43Z</time>
      </trkpt>
      <trkpt lat="44.9143" lon="4.72124">
        <ele>712.7</ele>
        <time>2026-05-04T06:24:48Z</time>
      </trkpt>
      <trkpt lat="44.91423" lon="4.72124">
        <ele>713.2</ele>
        <time>2026-05-04T06:24:53Z</time>
      </trkpt>
      <trkpt lat="44.91417" lon="4.7212">
        <ele>714.4</ele>
        <time>2026-05-04T06:24:58Z</time>
      </trkpt>
      <trkpt lat="44.91413" lon="4.72117">
        <ele>715.1</ele>
        <time>2026-05-04T06:25:03Z</time>
      </trkpt>
      <trkpt lat="44.91407" lon="4.72112">
        <ele>716.3</ele>
        <time>2026-05-04T06:25:08Z</time>
      </trkpt>
      <trkpt lat="44.91401" lon="4.72106">
        <ele>717.6</ele>
        <time>2026-05-04T06:25:13Z</time>
      </trkpt>
      <trkpt lat="44.91396" lon="4.72102">
        <ele>718.5</ele>
        <time>2026-05-04T06:25:18Z</time>
      </trkpt>
      <trkpt lat="44.91392" lon="4.72099">
        <ele>719.1</ele>
        <time>2026-05-04T06:25:23Z</time>
      </trkpt>
      <trkpt lat="44.91388" lon="4.72094">
        <ele>720</ele>
        <time>2026-05-04T06:25:28Z</time>
      </trkpt>
      <trkpt lat="44.91385" lon="4.7209">
        <ele>720.7</ele>
        <time>2026-05-04T06:25:33Z</time>
      </trkpt>
      <trkpt lat="44.9138" lon="4.72087">
        <ele>721.3</ele>
        <time>2026-05-04T06:25:38Z</time>
      </trkpt>
      <trkpt lat="44.91376" lon="4.72083">
        <ele>721.9</ele>
        <time>2026-05-04T06:25:43Z</time>
      </trkpt>
      <trkpt lat="44.91372" lon="4.72078">
        <ele>721.5</ele>
        <time>2026-05-04T06:25:48Z</time>
      </trkpt>
      <trkpt lat="44.91368" lon="4.72073">
        <ele>721.1</ele>
        <time>2026-05-04T06:25:53Z</time>
      </trkpt>
      <trkpt lat="44.91364" lon="4.72068">
        <ele>720.6</ele>
        <time>2026-05-04T06:25:58Z</time>
      </trkpt>
      <trkpt lat="44.91361" lon="4.72064">
        <ele>720.2</ele>
        <time>2026-05-04T06:26:03Z</time>
      </trkpt>
      <trkpt lat="44.91357" lon="4.72062">
        <ele>719.9</ele>
        <time>2026-05-04T06:26:08Z</time>
      </trkpt>
      <trkpt lat="44.91352" lon="4.72061">
        <ele>719.8</ele>
        <time>2026-05-04T06:26:13Z</time>
      </trkpt>
      <trkpt lat="44.91344" lon="4.72058">
        <ele>719.4</ele>
        <time>2026-05-04T06:26:18Z</time>
      </trkpt>
      <trkpt lat="44.91338" lon="4.72058">
        <ele>719.4</ele>
        <time>2026-05-04T06:26:23Z</time>
      </trkpt>
      <trkpt lat="44.9133" lon="4.7206">
        <ele>719.3</ele>
        <time>2026-05-04T06:26:28Z</time>
      </trkpt>
      <trkpt lat="44.91323" lon="4.72062">
        <ele>719</ele>
        <time>2026-05-04T06:26:33Z</time>
      </trkpt>
      <trkpt lat="44.91317" lon="4.72065">
        <ele>718.9</ele>
        <time>2026-05-04T06:26:38Z</time>
      </trkpt>
      <trkpt lat="44.9131" lon="4.72069">
        <ele>718.9</ele>
        <time>2026-05-04T06:26:43Z</time>
      </trkpt>
      <trkpt lat="44.91302" lon="4.72074">
        <ele>718.9</ele>
        <time>2026-05-04T06:26:48Z</time>
      </trkpt>
      <trkpt lat="44.91297" lon="4.72074">
        <ele>718.5</ele>
        <time>2026-05-04T06:26:53Z</time>
      </trkpt>
      <trkpt lat="44.9129" lon="4.72079">
        <ele>718.7</ele>
        <time>2026-05-04T06:26:58Z</time>
      </trkpt>
      <trkpt lat="44.91282" lon="4.72082">
        <ele>718.5</ele>
        <time>2026-05-04T06:27:03Z</time>
      </trkpt>
      <trkpt lat="44.91277" lon="4.72084">
        <ele>718.2</ele>
        <time>2026-05-04T06:27:08Z</time>
      </trkpt>
      <trkpt lat="44.91271" lon="4.72083">
        <ele>717.7</ele>
        <time>2026-05-04T06:27:13Z</time>
      </trkpt>
      <trkpt lat="44.91263" lon="4.72084">
        <ele>717</ele>
        <time>2026-05-04T06:27:18Z</time>
      </trkpt>
      <trkpt lat="44.91256" lon="4.72085">
        <ele>716.3</ele>
        <time>2026-05-04T06:27:23Z</time>
      </trkpt>
      <trkpt lat="44.91248" lon="4.72086">
        <ele>715.5</ele>
        <time>2026-05-04T06:27:28Z</time>
      </trkpt>
      <trkpt lat="44.91242" lon="4.72086">
        <ele>715</ele>
        <time>2026-05-04T06:27:33Z</time>
      </trkpt>
      <trkpt lat="44.91232" lon="4.72086">
        <ele>714</ele>
        <time>2026-05-04T06:27:38Z</time>
      </trkpt>
      <trkpt lat="44.91224" lon="4.72084">
        <ele>713.4</ele>
        <time>2026-05-04T06:27:43Z</time>
      </trkpt>
      <trkpt lat="44.91218" lon="4.72081">
        <ele>712.6</ele>
        <time>2026-05-04T06:27:48Z</time>
      </trkpt>
      <trkpt lat="44.91212" lon="4.72079">
        <ele>711.7</ele>
        <time>2026-05-04T06:27:53Z</time>
      </trkpt>
      <trkpt lat="44.91206" lon="4.72078">
        <ele>711</ele>
        <time>2026-05-04T06:27:58Z</time>
      </trkpt>
      <trkpt lat="44.912" lon="4.72078">
        <ele>710.5</ele>
        <time>2026-05-04T06:28:03Z</time>
      </trkpt>
      <trkpt lat="44.91194" lon="4.72082">
        <ele>710.4</ele>
        <time>2026-05-04T06:28:08Z</time>
      </trkpt>
      <trkpt lat="44.91187" lon="4.72082">
        <ele>709.8</ele>
        <time>2026-05-04T06:28:13Z</time>
      </trkpt>
      <trkpt lat="44.9118" lon="4.72082">
        <ele>709.1</ele>
        <time>2026-05-04T06:28:18Z</time>
      </trkpt>
      <trkpt lat="44.91171" lon="4.72079">
        <ele>707.9</ele>
        <time>2026-05-04T06:28:23Z</time>
      </trkpt>
      <trkpt lat="44.91161" lon="4.72073">
        <ele>705.5</ele>
        <time>2026-05-04T06:28:28Z</time>
      </trkpt>
      <trkpt lat="44.91155" lon="4.72069">
        <ele>703.8</ele>
        <time>2026-05-04T06:28:33Z</time>
      </trkpt>
      <trkpt lat="44.91148" lon="4.72065">
        <ele>702.1</ele>
        <time>2026-05-04T06:28:38Z</time>
      </trkpt>
      <trkpt lat="44.91143" lon="4.72065">
        <ele>701.1</ele>
        <time>2026-05-04T06:28:43Z</time>
      </trkpt>
      <trkpt lat="44.91138" lon="4.72063">
        <ele>699.9</ele>
        <time>2026-05-04T06:28:48Z</time>
      </trkpt>
      <trkpt lat="44.91131" lon="4.72067">
        <ele>698.7</ele>
        <time>2026-05-04T06:28:53Z</time>
      </trkpt>
      <trkpt lat="44.91122" lon="4.72068">
        <ele>696.9</ele>
        <time>2026-05-04T06:28:58Z</time>
      </trkpt>
      <trkpt lat="44.91116" lon="4.72067">
        <ele>695.7</ele>
        <time>2026-05-04T06:29:03Z</time>
      </trkpt>
      <trkpt lat="44.91108" lon="4.72069">
        <ele>694</ele>
        <time>2026-05-04T06:29:08Z</time>
      </trkpt>
      <trkpt lat="44.91102" lon="4.72068">
        <ele>692.8</ele>
        <time>2026-05-04T06:29:13Z</time>
      </trkpt>
      <trkpt lat="44.91095" lon="4.72066">
        <ele>691.4</ele>
        <time>2026-05-04T06:29:18Z</time>
      </trkpt>
      <trkpt lat="44.91086" lon="4.72061">
        <ele>689.9</ele>
        <time>2026-05-04T06:29:23Z</time>
      </trkpt>
      <trkpt lat="44.91075" lon="4.72057">
        <ele>688.8</ele>
        <time>2026-05-04T06:29:28Z</time>
      </trkpt>
      <trkpt lat="44.91067" lon="4.72052">
        <ele>688.4</ele>
        <time>2026-05-04T06:29:33Z</time>
      </trkpt>
      <trkpt lat="44.91062" lon="4.72046">
        <ele>688.5</ele>
        <time>2026-05-04T06:29:38Z</time>
      </trkpt>
      <trkpt lat="44.91055" lon="4.72043">
        <ele>688.2</ele>
        <time>2026-05-04T06:29:43Z</time>
      </trkpt>
      <trkpt lat="44.91048" lon="4.72039">
        <ele>688</ele>
        <time>2026-05-04T06:29:48Z</time>
      </trkpt>
      <trkpt lat="44.9104" lon="4.72035">
        <ele>687.8</ele>
        <time>2026-05-04T06:29:53Z</time>
      </trkpt>
      <trkpt lat="44.91033" lon="4.72033">
        <ele>687.5</ele>
        <time>2026-05-04T06:29:58Z</time>
      </trkpt>
      <trkpt lat="44.91027" lon="4.72032">
        <ele>687.2</ele>
        <time>2026-05-04T06:30:03Z</time>
      </trkpt>
      <trkpt lat="44.91018" lon="4.72027">
        <ele>687.2</ele>
        <time>2026-05-04T06:30:08Z</time>
      </trkpt>
      <trkpt lat="44.91011" lon="4.72025">
        <ele>687.1</ele>
        <time>2026-05-04T06:30:13Z</time>
      </trkpt>
      <trkpt lat="44.91004" lon="4.72023">
        <ele>686.9</ele>
        <time>2026-05-04T06:30:18Z</time>
      </trkpt>
      <trkpt lat="44.90998" lon="4.72019">
        <ele>687.5</ele>
        <time>2026-05-04T06:30:23Z</time>
      </trkpt>
      <trkpt lat="44.90991" lon="4.72018">
        <ele>688.3</ele>
        <time>2026-05-04T06:30:28Z</time>
      </trkpt>
      <trkpt lat="44.90984" lon="4.72014">
        <ele>689.7</ele>
        <time>2026-05-04T06:30:33Z</time>
      </trkpt>
      <trkpt lat="44.90976" lon="4.72008">
        <ele>691.7</ele>
        <time>2026-05-04T06:30:38Z</time>
      </trkpt>
      <trkpt lat="44.90968" lon="4.72004">
        <ele>693.4</ele>
        <time>2026-05-04T06:30:43Z</time>
      </trkpt>
      <trkpt lat="44.9096" lon="4.72">
        <ele>695.3</ele>
        <time>2026-05-04T06:30:48Z</time>
      </trkpt>
      <trkpt lat="44.90952" lon="4.71996">
        <ele>696.9</ele>
        <time>2026-05-04T06:30:53Z</time>
      </trkpt>
      <trkpt lat="44.90947" lon="4.71991">
        <ele>698.3</ele>
        <time>2026-05-04T06:30:58Z</time>
      </trkpt>
      <trkpt lat="44.9094" lon="4.71987">
        <ele>700</ele>
        <time>2026-05-04T06:31:03Z</time>
      </trkpt>
      <trkpt lat="44.90936" lon="4.71978">
        <ele>702.1</ele>
        <time>2026-05-04T06:31:08Z</time>
      </trkpt>
      <trkpt lat="44.90932" lon="4.7197">
        <ele>704.2</ele>
        <time>2026-05-04T06:31:13Z</time>
      </trkpt>
      <trkpt lat="44.90928" lon="4.71964">
        <ele>706</ele>
        <time>2026-05-04T06:31:18Z</time>
      </trkpt>
      <trkpt lat="44.90924" lon="4.71955">
        <ele>708.5</ele>
        <time>2026-05-04T06:31:23Z</time>
      </trkpt>
      <trkpt lat="44.90921" lon="4.71947">
        <ele>710.8</ele>
        <time>2026-05-04T06:31:28Z</time>
      </trkpt>
      <trkpt lat="44.90918" lon="4.71938">
        <ele>713.3</ele>
        <time>2026-05-04T06:31:33Z</time>
      </trkpt>
      <trkpt lat="44.90917" lon="4.71932">
        <ele>714.8</ele>
        <time>2026-05-04T06:31:38Z</time>
      </trkpt>
      <trkpt lat="44.90914" lon="4.71926">
        <ele>716.6</ele>
        <time>2026-05-04T06:31:43Z</time>
      </trkpt>
      <trkpt lat="44.90909" lon="4.71919">
        <ele>719.1</ele>
        <time>2026-05-04T06:31:48Z</time>
      </trkpt>
      <trkpt lat="44.90908" lon="4.71911">
        <ele>720.1</ele>
        <time>2026-05-04T06:31:53Z</time>
      </trkpt>
      <trkpt lat="44.90906" lon="4.71908">
        <ele>720.7</ele>
        <time>2026-05-04T06:31:58Z</time>
      </trkpt>
      <trkpt lat="44.90905" lon="4.71906">
        <ele>721</ele>
        <time>2026-05-04T06:32:03Z</time>
      </trkpt>
      <trkpt lat="44.90905" lon="4.71906">
        <ele>721</ele>
        <time>2026-05-04T06:32:08Z</time>
      </trkpt>
      <trkpt lat="44.90905" lon="4.71906">
        <ele>721</ele>
        <time>2026-05-04T06:32:13Z</time>
      </trkpt>
      <trkpt lat="44.90902" lon="4.71897">
        <ele>722.2</ele>
        <time>2026-05-04T06:32:18Z</time>
      </trkpt>
      <trkpt lat="44.90901" lon="4.7189">
        <ele>722.8</ele>
        <time>2026-05-04T06:32:23Z</time>
      </trkpt>
      <trkpt lat="44.90897" lon="4.71885">
        <ele>723.9</ele>
        <time>2026-05-04T06:32:28Z</time>
      </trkpt>
      <trkpt lat="44.90893" lon="4.71877">
        <ele>725.2</ele>
        <time>2026-05-04T06:32:33Z</time>
      </trkpt>
      <trkpt lat="44.9089" lon="4.7187">
        <ele>726.2</ele>
        <time>2026-05-04T06:32:38Z</time>
      </trkpt>
      <trkpt lat="44.90887" lon="4.71862">
        <ele>727.3</ele>
        <time>2026-05-04T06:32:43Z</time>
      </trkpt>
      <trkpt lat="44.90885" lon="4.71855">
        <ele>728.2</ele>
        <time>2026-05-04T06:32:48Z</time>
      </trkpt>
      <trkpt lat="44.90883" lon="4.71848">
        <ele>729</ele>
        <time>2026-05-04T06:32:53Z</time>
      </trkpt>
      <trkpt lat="44.90881" lon="4.71843">
        <ele>729.7</ele>
        <time>2026-05-04T06:32:58Z</time>
      </trkpt>
      <trkpt lat="44.90881" lon="4.71839">
        <ele>729.9</ele>
        <time>2026-05-04T06:33:03Z</time>
      </trkpt>
      <trkpt lat="44.9088" lon="4.7183">
        <ele>730.1</ele>
        <time>2026-05-04T06:33:08Z</time>
      </trkpt>
      <trkpt lat="44.90878" lon="4.71823">
        <ele>729.6</ele>
        <time>2026-05-04T06:33:13Z</time>
      </trkpt>
      <trkpt lat="44.90878" lon="4.71814">
        <ele>728.5</ele>
        <time>2026-05-04T06:33:18Z</time>
      </trkpt>
      <trkpt lat="44.90879" lon="4.71805">
        <ele>727.2</ele>
        <time>2026-05-04T06:33:23Z</time>
      </trkpt>
      <trkpt lat="44.90878" lon="4.71797">
        <ele>726.4</ele>
        <time>2026-05-04T06:33:28Z</time>
      </trkpt>
      <trkpt lat="44.90877" lon="4.71791">
        <ele>725.8</ele>
        <time>2026-05-04T06:33:33Z</time>
      </trkpt>
      <trkpt lat="44.9088" lon="4.71784">
        <ele>724.4</ele>
        <time>2026-05-04T06:33:38Z</time>
      </trkpt>
      <trkpt lat="44.90883" lon="4.71777">
        <ele>723.1</ele>
        <time>2026-05-04T06:33:43Z</time>
      </trkpt>
      <trkpt lat="44.90883" lon="4.71773">
        <ele>722.6</ele>
        <time>2026-05-04T06:33:48Z</time>
      </trkpt>
      <trkpt lat="44.90883" lon="4.71765">
        <ele>721.7</ele>
        <time>2026-05-04T06:33:53Z</time>
      </trkpt>
      <trkpt lat="44.9088" lon="4.71757">
        <ele>721.1</ele>
        <time>2026-05-04T06:33:58Z</time>
      </trkpt>
      <trkpt lat="44.90876" lon="4.7175">
        <ele>720.9</ele>
        <time>2026-05-04T06:34:03Z</time>
      </trkpt>
      <trkpt lat="44.90873" lon="4.71744">
        <ele>720.4</ele>
        <time>2026-05-04T06:34:08Z</time>
      </trkpt>
      <trkpt lat="44.90869" lon="4.71737">
        <ele>719.8</ele>
        <time>2026-05-04T06:34:13Z</time>
      </trkpt>
      <trkpt lat="44.90863" lon="4.71729">
        <ele>719.5</ele>
        <time>2026-05-04T06:34:18Z</time>
      </trkpt>
      <trkpt lat="44.90856" lon="4.71721">
        <ele>719.2</ele>
        <time>2026-05-04T06:34:23Z</time>
      </trkpt>
      <trkpt lat="44.9085" lon="4.71715">
        <ele>719.1</ele>
        <time>2026-05-04T06:34:28Z</time>
      </trkpt>
      <trkpt lat="44.90844" lon="4.71712">
        <ele>719.5</ele>
        <time>2026-05-04T06:34:33Z</time>
      </trkpt>
      <trkpt lat="44.90839" lon="4.71707">
        <ele>719.5</ele>
        <time>2026-05-04T06:34:38Z</time>
      </trkpt>
      <trkpt lat="44.90833" lon="4.71704">
        <ele>719.9</ele>
        <time>2026-05-04T06:34:43Z</time>
      </trkpt>
      <trkpt lat="44.90824" lon="4.717">
        <ele>720.2</ele>
        <time>2026-05-04T06:34:48Z</time>
      </trkpt>
      <trkpt lat="44.90816" lon="4.71696">
        <ele>720.4</ele>
        <time>2026-05-04T06:34:53Z</time>
      </trkpt>
      <trkpt lat="44.9081" lon="4.7169">
        <ele>720.2</ele>
        <time>2026-05-04T06:34:58Z</time>
      </trkpt>
      <trkpt lat="44.90803" lon="4.71683">
        <ele>720.1</ele>
        <time>2026-05-04T06:35:03Z</time>
      </trkpt>
      <trkpt lat="44.90798" lon="4.7168">
        <ele>720.3</ele>
        <time>2026-05-04T06:35:08Z</time>
      </trkpt>
      <trkpt lat="44.90794" lon="4.71677">
        <ele>720.5</ele>
        <time>2026-05-04T06:35:13Z</time>
      </trkpt>
      <trkpt lat="44.90788" lon="4.71675">
        <ele>721</ele>
        <time>2026-05-04T06:35:18Z</time>
      </trkpt>
      <trkpt lat="44.90781" lon="4.71671">
        <ele>721.4</ele>
        <time>2026-05-04T06:35:23Z</time>
      </trkpt>
      <trkpt lat="44.90774" lon="4.71666">
        <ele>721.8</ele>
        <time>2026-05-04T06:35:28Z</time>
      </trkpt>
      <trkpt lat="44.90768" lon="4.71662">
        <ele>722.1</ele>
        <time>2026-05-04T06:35:33Z</time>
      </trkpt>
      <trkpt lat="44.90763" lon="4.71657">
        <ele>722.2</ele>
        <time>2026-05-04T06:35:38Z</time>
      </trkpt>
      <trkpt lat="44.90759" lon="4.71652">
        <ele>722.2</ele>
        <time>2026-05-04T06:35:43Z</time>
      </trkpt>
      <trkpt lat="44.90752" lon="4.71647">
        <ele>722.6</ele>
        <time>2026-05-04T06:35:48Z</time>
      </trkpt>
      <trkpt lat="44.90747" lon="4.7164">
        <ele>721.6</ele>
        <time>2026-05-04T06:35:53Z</time>
      </trkpt>
      <trkpt lat="44.90742" lon="4.71636">
        <ele>720.4</ele>
        <time>2026-05-04T06:35:58Z</time>
      </trkpt>
      <trkpt lat="44.90737" lon="4.7163">
        <ele>719.1</ele>
        <time>2026-05-04T06:36:03Z</time>
      </trkpt>
      <trkpt lat="44.90731" lon="4.71625">
        <ele>717.8</ele>
        <time>2026-05-04T06:36:08Z</time>
      </trkpt>
      <trkpt lat="44.90727" lon="4.71619">
        <ele>716.7</ele>
        <time>2026-05-04T06:36:13Z</time>
      </trkpt>
      <trkpt lat="44.90722" lon="4.71614">
        <ele>715.7</ele>
        <time>2026-05-04T06:36:18Z</time>
      </trkpt>
      <trkpt lat="44.90717" lon="4.7161">
        <ele>714.8</ele>
        <time>2026-05-04T06:36:23Z</time>
      </trkpt>
      <trkpt lat="44.90713" lon="4.71604">
        <ele>714</ele>
        <time>2026-05-04T06:36:28Z</time>
      </trkpt>
      <trkpt lat="44.90707" lon="4.71596">
        <ele>713</ele>
        <time>2026-05-04T06:36:33Z</time>
      </trkpt>
      <trkpt lat="44.90702" lon="4.71589">
        <ele>712.2</ele>
        <time>2026-05-04T06:36:38Z</time>
      </trkpt>
      <trkpt lat="44.90697" lon="4.71584">
        <ele>711.6</ele>
        <time>2026-05-04T06:36:43Z</time>
      </trkpt>
      <trkpt lat="44.90689" lon="4.7158">
        <ele>710.7</ele>
        <time>2026-05-04T06:36:48Z</time>
      </trkpt>
      <trkpt lat="44.90681" lon="4.71577">
        <ele>710</ele>
        <time>2026-05-04T06:36:53Z</time>
      </trkpt>
      <trkpt lat="44.90675" lon="4.71575">
        <ele>709.6</ele>
        <time>2026-05-04T06:36:58Z</time>
      </trkpt>
      <trkpt lat="44.90667" lon="4.71573">
        <ele>709</ele>
        <time>2026-05-04T06:37:03Z</time>
      </trkpt>
      <trkpt lat="44.90658" lon="4.7157">
        <ele>709</ele>
        <time>2026-05-04T06:37:08Z</time>
      </trkpt>
      <trkpt lat="44.90652" lon="4.71567">
        <ele>709.2</ele>
        <time>2026-05-04T06:37:13Z</time>
      </trkpt>
      <trkpt lat="44.90646" lon="4.71564">
        <ele>709.5</ele>
        <time>2026-05-04T06:37:18Z</time>
      </trkpt>
      <trkpt lat="44.90639" lon="4.71561">
        <ele>709.9</ele>
        <time>2026-05-04T06:37:23Z</time>
      </trkpt>
      <trkpt lat="44.90633" lon="4.71559">
        <ele>710.3</ele>
        <time>2026-05-04T06:37:28Z</time>
      </trkpt>
      <trkpt lat="44.90626" lon="4.71558">
        <ele>710.7</ele>
        <time>2026-05-04T06:37:33Z</time>
      </trkpt>
      <trkpt lat="44.90619" lon="4.71552">
        <ele>711.8</ele>
        <time>2026-05-04T06:37:38Z</time>
      </trkpt>
      <trkpt lat="44.90612" lon="4.7155">
        <ele>712.5</ele>
        <time>2026-05-04T06:37:43Z</time>
      </trkpt>
      <trkpt lat="44.90604" lon="4.71549">
        <ele>713.3</ele>
        <time>2026-05-04T06:37:48Z</time>
      </trkpt>
      <trkpt lat="44.90595" lon="4.7155">
        <ele>713.6</ele>
        <time>2026-05-04T06:37:53Z</time>
      </trkpt>
      <trkpt lat="44.90585" lon="4.7155">
        <ele>714.3</ele>
        <time>2026-05-04T06:37:58Z</time>
      </trkpt>
      <trkpt lat="44.90578" lon="4.7155">
        <ele>714.3</ele>
        <time>2026-05-04T06:38:03Z</time>
      </trkpt>
      <trkpt lat="44.90563" lon="4.71549">
        <ele>714.2</ele>
        <time>2026-05-04T06:38:08Z</time>
      </trkpt>
      <trkpt lat="44.90557" lon="4.71553">
        <ele>713</ele>
        <time>2026-05-04T06:38:13Z</time>
      </trkpt>
      <trkpt lat="44.90551" lon="4.71555">
        <ele>712.4</ele>
        <time>2026-05-04T06:38:18Z</time>
      </trkpt>
      <trkpt lat="44.90545" lon="4.71556">
        <ele>712</ele>
        <time>2026-05-04T06:38:23Z</time>
      </trkpt>
      <trkpt lat="44.90538" lon="4.71556">
        <ele>711.8</ele>
        <time>2026-05-04T06:38:28Z</time>
      </trkpt>
      <trkpt lat="44.90529" lon="4.7156">
        <ele>710.5</ele>
        <time>2026-05-04T06:38:33Z</time>
      </trkpt>
      <trkpt lat="44.90521" lon="4.71565">
        <ele>708.9</ele>
        <time>2026-05-04T06:38:38Z</time>
      </trkpt>
      <trkpt lat="44.90513" lon="4.71569">
        <ele>707.5</ele>
        <time>2026-05-04T06:38:43Z</time>
      </trkpt>
      <trkpt lat="44.90506" lon="4.71571">
        <ele>706.7</ele>
        <time>2026-05-04T06:38:48Z</time>
      </trkpt>
      <trkpt lat="44.90498" lon="4.71575">
        <ele>705.2</ele>
        <time>2026-05-04T06:38:53Z</time>
      </trkpt>
      <trkpt lat="44.9049" lon="4.71575">
        <ele>704.6</ele>
        <time>2026-05-04T06:38:58Z</time>
      </trkpt>
      <trkpt lat="44.90482" lon="4.71575">
        <ele>704</ele>
        <time>2026-05-04T06:39:03Z</time>
      </trkpt>
      <trkpt lat="44.90474" lon="4.71577">
        <ele>702.9</ele>
        <time>2026-05-04T06:39:08Z</time>
      </trkpt>
      <trkpt lat="44.90467" lon="4.71579">
        <ele>701.8</ele>
        <time>2026-05-04T06:39:13Z</time>
      </trkpt>
      <trkpt lat="44.9046" lon="4.7158">
        <ele>701</ele>
        <time>2026-05-04T06:39:18Z</time>
      </trkpt>
      <trkpt lat="44.90453" lon="4.71583">
        <ele>699.7</ele>
        <time>2026-05-04T06:39:23Z</time>
      </trkpt>
      <trkpt lat="44.90453" lon="4.71583">
        <ele>699.7</ele>
        <time>2026-05-04T06:39:28Z</time>
      </trkpt>
      <trkpt lat="44.90453" lon="4.71582">
        <ele>700</ele>
        <time>2026-05-04T06:39:33Z</time>
      </trkpt>
      <trkpt lat="44.90453" lon="4.71582">
        <ele>700</ele>
        <time>2026-05-04T06:39:38Z</time>
      </trkpt>
      <trkpt lat="44.90452" lon="4.71582">
        <ele>699.9</ele>
        <time>2026-05-04T06:39:43Z</time>
      </trkpt>
      <trkpt lat="44.90445" lon="4.71582">
        <ele>699.4</ele>
        <time>2026-05-04T06:39:48Z</time>
      </trkpt>
      <trkpt lat="44.90437" lon="4.71582">
        <ele>698.8</ele>
        <time>2026-05-04T06:39:53Z</time>
      </trkpt>
      <trkpt lat="44.90429" lon="4.71584">
        <ele>697.7</ele>
        <time>2026-05-04T06:39:58Z</time>
      </trkpt>
      <trkpt lat="44.90423" lon="4.71586">
        <ele>696.8</ele>
        <time>2026-05-04T06:40:03Z</time>
      </trkpt>
      <trkpt lat="44.90417" lon="4.7159">
        <ele>695.5</ele>
        <time>2026-05-04T06:40:08Z</time>
      </trkpt>
      <trkpt lat="44.90417" lon="4.71591">
        <ele>695.3</ele>
        <time>2026-05-04T06:40:13Z</time>
      </trkpt>
      <trkpt lat="44.90417" lon="4.71589">
        <ele>695.7</ele>
        <time>2026-05-04T06:40:18Z</time>
      </trkpt>
      <trkpt lat="44.90417" lon="4.71589">
        <ele>695.7</ele>
        <time>2026-05-04T06:40:23Z</time>
      </trkpt>
      <trkpt lat="44.90417" lon="4.71589">
        <ele>695.7</ele>
        <time>2026-05-04T06:40:28Z</time>
      </trkpt>
      <trkpt lat="44.90417" lon="4.71589">
        <ele>695.7</ele>
        <time>2026-05-04T06:40:33Z</time>
      </trkpt>
      <trkpt lat="44.90417" lon="4.71589">
        <ele>695.7</ele>
        <time>2026-05-04T06:40:38Z</time>
      </trkpt>
      <trkpt lat="44.90413" lon="4.71587">
        <ele>695.7</ele>
        <time>2026-05-04T06:40:43Z</time>
      </trkpt>
      <trkpt lat="44.90406" lon="4.71583">
        <ele>695.8</ele>
        <time>2026-05-04T06:40:48Z</time>
      </trkpt>
      <trkpt lat="44.90399" lon="4.71583">
        <ele>695</ele>
        <time>2026-05-04T06:40:53Z</time>
      </trkpt>
      <trkpt lat="44.90391" lon="4.71584">
        <ele>693.8</ele>
        <time>2026-05-04T06:40:58Z</time>
      </trkpt>
      <trkpt lat="44.90384" lon="4.71586">
        <ele>692.6</ele>
        <time>2026-05-04T06:41:03Z</time>
      </trkpt>
      <trkpt lat="44.90376" lon="4.71585">
        <ele>691.9</ele>
        <time>2026-05-04T06:41:08Z</time>
      </trkpt>
      <trkpt lat="44.90367" lon="4.71585">
        <ele>690.8</ele>
        <time>2026-05-04T06:41:13Z</time>
      </trkpt>
      <trkpt lat="44.90359" lon="4.71584">
        <ele>690</ele>
        <time>2026-05-04T06:41:18Z</time>
      </trkpt>
      <trkpt lat="44.90351" lon="4.71582">
        <ele>689.3</ele>
        <time>2026-05-04T06:41:23Z</time>
      </trkpt>
      <trkpt lat="44.90343" lon="4.71578">
        <ele>688.8</ele>
        <time>2026-05-04T06:41:28Z</time>
      </trkpt>
      <trkpt lat="44.90336" lon="4.71576">
        <ele>688.1</ele>
        <time>2026-05-04T06:41:33Z</time>
      </trkpt>
      <trkpt lat="44.9033" lon="4.71571">
        <ele>687.8</ele>
        <time>2026-05-04T06:41:38Z</time>
      </trkpt>
      <trkpt lat="44.90322" lon="4.71564">
        <ele>687.4</ele>
        <time>2026-05-04T06:41:43Z</time>
      </trkpt>
      <trkpt lat="44.90315" lon="4.71558">
        <ele>687.2</ele>
        <time>2026-05-04T06:41:48Z</time>
      </trkpt>
      <trkpt lat="44.9031" lon="4.71551">
        <ele>687.5</ele>
        <time>2026-05-04T06:41:53Z</time>
      </trkpt>
      <trkpt lat="44.90306" lon="4.71543">
        <ele>688.2</ele>
        <time>2026-05-04T06:41:58Z</time>
      </trkpt>
      <trkpt lat="44.90301" lon="4.71534">
        <ele>689</ele>
        <time>2026-05-04T06:42:03Z</time>
      </trkpt>
      <trkpt lat="44.90295" lon="4.71526">
        <ele>689.8</ele>
        <time>2026-05-04T06:42:08Z</time>
      </trkpt>
      <trkpt lat="44.90289" lon="4.71517">
        <ele>690.8</ele>
        <time>2026-05-04T06:42:13Z</time>
      </trkpt>
      <trkpt lat="44.90284" lon="4.71509">
        <ele>692</ele>
        <time>2026-05-04T06:42:18Z</time>
      </trkpt>
      <trkpt lat="44.90278" lon="4.71502">
        <ele>693</ele>
        <time>2026-05-04T06:42:23Z</time>
      </trkpt>
      <trkpt lat="44.90273" lon="4.71492">
        <ele>695.4</ele>
        <time>2026-05-04T06:42:28Z</time>
      </trkpt>
      <trkpt lat="44.90268" lon="4.71483">
        <ele>697.9</ele>
        <time>2026-05-04T06:42:33Z</time>
      </trkpt>
      <trkpt lat="44.90265" lon="4.71474">
        <ele>700.5</ele>
        <time>2026-05-04T06:42:38Z</time>
      </trkpt>
      <trkpt lat="44.90261" lon="4.71464">
        <ele>703.6</ele>
        <time>2026-05-04T06:42:43Z</time>
      </trkpt>
      <trkpt lat="44.90256" lon="4.71457">
        <ele>705.8</ele>
        <time>2026-05-04T06:42:48Z</time>
      </trkpt>
      <trkpt lat="44.9025" lon="4.7145">
        <ele>708.2</ele>
        <time>2026-05-04T06:42:53Z</time>
      </trkpt>
      <trkpt lat="44.90245" lon="4.71441">
        <ele>711.8</ele>
        <time>2026-05-04T06:42:58Z</time>
      </trkpt>
      <trkpt lat="44.9024" lon="4.71437">
        <ele>713.9</ele>
        <time>2026-05-04T06:43:03Z</time>
      </trkpt>
      <trkpt lat="44.90235" lon="4.71434">
        <ele>715.6</ele>
        <time>2026-05-04T06:43:08Z</time>
      </trkpt>
      <trkpt lat="44.90227" lon="4.71433">
        <ele>717.1</ele>
        <time>2026-05-04T06:43:13Z</time>
      </trkpt>
      <trkpt lat="44.90223" lon="4.7143">
        <ele>718.8</ele>
        <time>2026-05-04T06:43:18Z</time>
      </trkpt>
      <trkpt lat="44.90217" lon="4.71429">
        <ele>720.1</ele>
        <time>2026-05-04T06:43:23Z</time>
      </trkpt>
      <trkpt lat="44.90211" lon="4.71432">
        <ele>719.9</ele>
        <time>2026-05-04T06:43:28Z</time>
      </trkpt>
      <trkpt lat="44.90204" lon="4.71435">
        <ele>719.8</ele>
        <time>2026-05-04T06:43:33Z</time>
      </trkpt>
      <trkpt lat="44.90199" lon="4.7144">
        <ele>718.6</ele>
        <time>2026-05-04T06:43:38Z</time>
      </trkpt>
      <trkpt lat="44.90194" lon="4.71439">
        <ele>719.7</ele>
        <time>2026-05-04T06:43:43Z</time>
      </trkpt>
      <trkpt lat="44.90189" lon="4.71436">
        <ele>721.6</ele>
        <time>2026-05-04T06:43:48Z</time>
      </trkpt>
      <trkpt lat="44.90186" lon="4.71435">
        <ele>722.5</ele>
        <time>2026-05-04T06:43:53Z</time>
      </trkpt>
      <trkpt lat="44.90182" lon="4.71434">
        <ele>723.5</ele>
        <time>2026-05-04T06:43:58Z</time>
      </trkpt>
      <trkpt lat="44.90178" lon="4.71432">
        <ele>724.9</ele>
        <time>2026-05-04T06:44:03Z</time>
      </trkpt>
      <trkpt lat="44.90174" lon="4.71432">
        <ele>725.5</ele>
        <time>2026-05-04T06:44:08Z</time>
      </trkpt>
      <trkpt lat="44.90171" lon="4.71431">
        <ele>726.3</ele>
        <time>2026-05-04T06:44:13Z</time>
      </trkpt>
      <trkpt lat="44.90165" lon="4.71431">
        <ele>727.3</ele>
        <time>2026-05-04T06:44:18Z</time>
      </trkpt>
      <trkpt lat="44.9016" lon="4.71429">
        <ele>728.9</ele>
        <time>2026-05-04T06:44:23Z</time>
      </trkpt>
      <trkpt lat="44.90156" lon="4.71428">
        <ele>730</ele>
        <time>2026-05-04T06:44:28Z</time>
      </trkpt>
      <trkpt lat="44.90153" lon="4.71429">
        <ele>730</ele>
        <time>2026-05-04T06:44:33Z</time>
      </trkpt>
      <trkpt lat="44.90148" lon="4.71431">
        <ele>730</ele>
        <time>2026-05-04T06:44:38Z</time>
      </trkpt>
      <trkpt lat="44.90143" lon="4.7143">
        <ele>731.3</ele>
        <time>2026-05-04T06:44:43Z</time>
      </trkpt>
      <trkpt lat="44.90138" lon="4.71429">
        <ele>732.5</ele>
        <time>2026-05-04T06:44:48Z</time>
      </trkpt>
      <trkpt lat="44.90134" lon="4.71427">
        <ele>734</ele>
        <time>2026-05-04T06:44:53Z</time>
      </trkpt>
      <trkpt lat="44.90129" lon="4.71426">
        <ele>735.2</ele>
        <time>2026-05-04T06:44:58Z</time>
      </trkpt>
      <trkpt lat="44.90124" lon="4.71426">
        <ele>736</ele>
        <time>2026-05-04T06:45:03Z</time>
      </trkpt>
      <trkpt lat="44.90119" lon="4.71427">
        <ele>736.4</ele>
        <time>2026-05-04T06:45:08Z</time>
      </trkpt>
      <trkpt lat="44.90114" lon="4.71427">
        <ele>737.2</ele>
        <time>2026-05-04T06:45:13Z</time>
      </trkpt>
      <trkpt lat="44.90109" lon="4.71428">
        <ele>737.6</ele>
        <time>2026-05-04T06:45:18Z</time>
      </trkpt>
      <trkpt lat="44.90105" lon="4.71429">
        <ele>737.9</ele>
        <time>2026-05-04T06:45:23Z</time>
      </trkpt>
      <trkpt lat="44.901" lon="4.71429">
        <ele>738.7</ele>
        <time>2026-05-04T06:45:28Z</time>
      </trkpt>
      <trkpt lat="44.90095" lon="4.71429">
        <ele>739.5</ele>
        <time>2026-05-04T06:45:33Z</time>
      </trkpt>
      <trkpt lat="44.90092" lon="4.71428">
        <ele>740.4</ele>
        <time>2026-05-04T06:45:38Z</time>
      </trkpt>
      <trkpt lat="44.90087" lon="4.71426">
        <ele>741.9</ele>
        <time>2026-05-04T06:45:43Z</time>
      </trkpt>
      <trkpt lat="44.90084" lon="4.71426">
        <ele>742.4</ele>
        <time>2026-05-04T06:45:48Z</time>
      </trkpt>
      <trkpt lat="44.90081" lon="4.71427">
        <ele>742.5</ele>
        <time>2026-05-04T06:45:53Z</time>
      </trkpt>
      <trkpt lat="44.90076" lon="4.71429">
        <ele>742.4</ele>
        <time>2026-05-04T06:45:58Z</time>
      </trkpt>
      <trkpt lat="44.90072" lon="4.71429">
        <ele>742.9</ele>
        <time>2026-05-04T06:46:03Z</time>
      </trkpt>
      <trkpt lat="44.90067" lon="4.71429">
        <ele>743.6</ele>
        <time>2026-05-04T06:46:08Z</time>
      </trkpt>
      <trkpt lat="44.90063" lon="4.7143">
        <ele>743.8</ele>
        <time>2026-05-04T06:46:13Z</time>
      </trkpt>
      <trkpt lat="44.90058" lon="4.71433">
        <ele>743.4</ele>
        <time>2026-05-04T06:46:18Z</time>
      </trkpt>
      <trkpt lat="44.90054" lon="4.71437">
        <ele>742.5</ele>
        <time>2026-05-04T06:46:23Z</time>
      </trkpt>
      <trkpt lat="44.9005" lon="4.71437">
        <ele>743</ele>
        <time>2026-05-04T06:46:28Z</time>
      </trkpt>
      <trkpt lat="44.90045" lon="4.71439">
        <ele>743</ele>
        <time>2026-05-04T06:46:33Z</time>
      </trkpt>
      <trkpt lat="44.90041" lon="4.71439">
        <ele>743.6</ele>
        <time>2026-05-04T06:46:38Z</time>
      </trkpt>
      <trkpt lat="44.90036" lon="4.71438">
        <ele>744.6</ele>
        <time>2026-05-04T06:46:43Z</time>
      </trkpt>
      <trkpt lat="44.90032" lon="4.71441">
        <ele>744.1</ele>
        <time>2026-05-04T06:46:48Z</time>
      </trkpt>
      <trkpt lat="44.90027" lon="4.71443">
        <ele>744.1</ele>
        <time>2026-05-04T06:46:53Z</time>
      </trkpt>
      <trkpt lat="44.90021" lon="4.71444">
        <ele>744.6</ele>
        <time>2026-05-04T06:46:58Z</time>
      </trkpt>
      <trkpt lat="44.90016" lon="4.71444">
        <ele>745.3</ele>
        <time>2026-05-04T06:47:03Z</time>
      </trkpt>
      <trkpt lat="44.9001" lon="4.71446">
        <ele>745.4</ele>
        <time>2026-05-04T06:47:08Z</time>
      </trkpt>
      <trkpt lat="44.90006" lon="4.71448">
        <ele>745.2</ele>
        <time>2026-05-04T06:47:13Z</time>
      </trkpt>
      <trkpt lat="44.9" lon="4.7145">
        <ele>745.4</ele>
        <time>2026-05-04T06:47:18Z</time>
      </trkpt>
      <trkpt lat="44.89996" lon="4.7145">
        <ele>745.7</ele>
        <time>2026-05-04T06:47:23Z</time>
      </trkpt>
      <trkpt lat="44.89991" lon="4.7145">
        <ele>746</ele>
        <time>2026-05-04T06:47:28Z</time>
      </trkpt>
      <trkpt lat="44.89987" lon="4.71449">
        <ele>746.7</ele>
        <time>2026-05-04T06:47:33Z</time>
      </trkpt>
      <trkpt lat="44.89982" lon="4.7145">
        <ele>746.7</ele>
        <time>2026-05-04T06:47:38Z</time>
      </trkpt>
      <trkpt lat="44.89979" lon="4.7145">
        <ele>746.9</ele>
        <time>2026-05-04T06:47:43Z</time>
      </trkpt>
      <trkpt lat="44.89975" lon="4.71449">
        <ele>747.5</ele>
        <time>2026-05-04T06:47:48Z</time>
      </trkpt>
      <trkpt lat="44.8997" lon="4.7145">
        <ele>747.6</ele>
        <time>2026-05-04T06:47:53Z</time>
      </trkpt>
      <trkpt lat="44.89966" lon="4.7145">
        <ele>747.8</ele>
        <time>2026-05-04T06:47:58Z</time>
      </trkpt>
      <trkpt lat="44.89962" lon="4.71454">
        <ele>747</ele>
        <time>2026-05-04T06:48:03Z</time>
      </trkpt>
      <trkpt lat="44.89959" lon="4.71456">
        <ele>746.6</ele>
        <time>2026-05-04T06:48:08Z</time>
      </trkpt>
      <trkpt lat="44.89956" lon="4.71457">
        <ele>746.6</ele>
        <time>2026-05-04T06:48:13Z</time>
      </trkpt>
      <trkpt lat="44.89953" lon="4.71456">
        <ele>747.1</ele>
        <time>2026-05-04T06:48:18Z</time>
      </trkpt>
      <trkpt lat="44.8995" lon="4.71457">
        <ele>747.1</ele>
        <time>2026-05-04T06:48:23Z</time>
      </trkpt>
      <trkpt lat="44.89948" lon="4.71459">
        <ele>746.7</ele>
        <time>2026-05-04T06:48:28Z</time>
      </trkpt>
      <trkpt lat="44.89945" lon="4.71457">
        <ele>747.5</ele>
        <time>2026-05-04T06:48:33Z</time>
      </trkpt>
      <trkpt lat="44.89942" lon="4.71457">
        <ele>747.7</ele>
        <time>2026-05-04T06:48:38Z</time>
      </trkpt>
      <trkpt lat="44.8994" lon="4.71457">
        <ele>747.9</ele>
        <time>2026-05-04T06:48:43Z</time>
      </trkpt>
      <trkpt lat="44.89938" lon="4.71457">
        <ele>748.1</ele>
        <time>2026-05-04T06:48:48Z</time>
      </trkpt>
      <trkpt lat="44.89935" lon="4.71461">
        <ele>747.3</ele>
        <time>2026-05-04T06:48:53Z</time>
      </trkpt>
      <trkpt lat="44.89932" lon="4.71461">
        <ele>747.5</ele>
        <time>2026-05-04T06:48:58Z</time>
      </trkpt>
      <trkpt lat="44.89929" lon="4.71461">
        <ele>747.8</ele>
        <time>2026-05-04T06:49:03Z</time>
      </trkpt>
      <trkpt lat="44.89926" lon="4.71459">
        <ele>748.6</ele>
        <time>2026-05-04T06:49:08Z</time>
      </trkpt>
      <trkpt lat="44.89923" lon="4.71457">
        <ele>749.3</ele>
        <time>2026-05-04T06:49:13Z</time>
      </trkpt>
      <trkpt lat="44.89919" lon="4.71458">
        <ele>749.4</ele>
        <time>2026-05-04T06:49:18Z</time>
      </trkpt>
      <trkpt lat="44.89916" lon="4.71458">
        <ele>749.6</ele>
        <time>2026-05-04T06:49:23Z</time>
      </trkpt>
      <trkpt lat="44.89913" lon="4.71456">
        <ele>750.4</ele>
        <time>2026-05-04T06:49:28Z</time>
      </trkpt>
      <trkpt lat="44.8991" lon="4.71455">
        <ele>750.8</ele>
        <time>2026-05-04T06:49:33Z</time>
      </trkpt>
      <trkpt lat="44.89906" lon="4.71455">
        <ele>751.2</ele>
        <time>2026-05-04T06:49:38Z</time>
      </trkpt>
      <trkpt lat="44.89903" lon="4.71453">
        <ele>751.8</ele>
        <time>2026-05-04T06:49:43Z</time>
      </trkpt>
      <trkpt lat="44.899" lon="4.71451">
        <ele>752.5</ele>
        <time>2026-05-04T06:49:48Z</time>
      </trkpt>
      <trkpt lat="44.89897" lon="4.7145">
        <ele>752.9</ele>
        <time>2026-05-04T06:49:53Z</time>
      </trkpt>
      <trkpt lat="44.89894" lon="4.71448">
        <ele>753.4</ele>
        <time>2026-05-04T06:49:58Z</time>
      </trkpt>
      <trkpt lat="44.8989" lon="4.71449">
        <ele>753.5</ele>
        <time>2026-05-04T06:50:03Z</time>
      </trkpt>
      <trkpt lat="44.89885" lon="4.71448">
        <ele>754</ele>
        <time>2026-05-04T06:50:08Z</time>
      </trkpt>
      <trkpt lat="44.89881" lon="4.71448">
        <ele>754.3</ele>
        <time>2026-05-04T06:50:13Z</time>
      </trkpt>
      <trkpt lat="44.89878" lon="4.71448">
        <ele>754.5</ele>
        <time>2026-05-04T06:50:18Z</time>
      </trkpt>
      <trkpt lat="44.89876" lon="4.71447">
        <ele>754.8</ele>
        <time>2026-05-04T06:50:23Z</time>
      </trkpt>
      <trkpt lat="44.89873" lon="4.71447">
        <ele>755</ele>
        <time>2026-05-04T06:50:28Z</time>
      </trkpt>
      <trkpt lat="44.8987" lon="4.71446">
        <ele>755.3</ele>
        <time>2026-05-04T06:50:33Z</time>
      </trkpt>
      <trkpt lat="44.89868" lon="4.71444">
        <ele>755.6</ele>
        <time>2026-05-04T06:50:38Z</time>
      </trkpt>
      <trkpt lat="44.89866" lon="4.71441">
        <ele>756</ele>
        <time>2026-05-04T06:50:43Z</time>
      </trkpt>
      <trkpt lat="44.89862" lon="4.7144">
        <ele>756.3</ele>
        <time>2026-05-04T06:50:48Z</time>
      </trkpt>
      <trkpt lat="44.89859" lon="4.71439">
        <ele>756.6</ele>
        <time>2026-05-04T06:50:53Z</time>
      </trkpt>
      <trkpt lat="44.89856" lon="4.71438">
        <ele>756.8</ele>
        <time>2026-05-04T06:50:58Z</time>
      </trkpt>
      <trkpt lat="44.89852" lon="4.71438">
        <ele>756.9</ele>
        <time>2026-05-04T06:51:03Z</time>
      </trkpt>
      <trkpt lat="44.89848" lon="4.71439">
        <ele>757.1</ele>
        <time>2026-05-04T06:51:08Z</time>
      </trkpt>
      <trkpt lat="44.89845" lon="4.71442">
        <ele>757.1</ele>
        <time>2026-05-04T06:51:13Z</time>
      </trkpt>
      <trkpt lat="44.89841" lon="4.71442">
        <ele>757.3</ele>
        <time>2026-05-04T06:51:18Z</time>
      </trkpt>
      <trkpt lat="44.89837" lon="4.71441">
        <ele>757.5</ele>
        <time>2026-05-04T06:51:23Z</time>
      </trkpt>
      <trkpt lat="44.89832" lon="4.71442">
        <ele>757.7</ele>
        <time>2026-05-04T06:51:28Z</time>
      </trkpt>
      <trkpt lat="44.89827" lon="4.71444">
        <ele>757.7</ele>
        <time>2026-05-04T06:51:33Z</time>
      </trkpt>
      <trkpt lat="44.89823" lon="4.71444">
        <ele>757.7</ele>
        <time>2026-05-04T06:51:38Z</time>
      </trkpt>
      <trkpt lat="44.89819" lon="4.71444">
        <ele>757.7</ele>
        <time>2026-05-04T06:51:43Z</time>
      </trkpt>
      <trkpt lat="44.89815" lon="4.71446">
        <ele>757.7</ele>
        <time>2026-05-04T06:51:48Z</time>
      </trkpt>
      <trkpt lat="44.89812" lon="4.71445">
        <ele>757.7</ele>
        <time>2026-05-04T06:51:53Z</time>
      </trkpt>
      <trkpt lat="44.89809" lon="4.71445">
        <ele>757.7</ele>
        <time>2026-05-04T06:51:58Z</time>
      </trkpt>
      <trkpt lat="44.89806" lon="4.71443">
        <ele>757.6</ele>
        <time>2026-05-04T06:52:03Z</time>
      </trkpt>
      <trkpt lat="44.89801" lon="4.7144">
        <ele>757.5</ele>
        <time>2026-05-04T06:52:08Z</time>
      </trkpt>
      <trkpt lat="44.89796" lon="4.71438">
        <ele>757.4</ele>
        <time>2026-05-04T06:52:13Z</time>
      </trkpt>
      <trkpt lat="44.89792" lon="4.71435">
        <ele>757.3</ele>
        <time>2026-05-04T06:52:18Z</time>
      </trkpt>
      <trkpt lat="44.89792" lon="4.71432">
        <ele>757.1</ele>
        <time>2026-05-04T06:52:23Z</time>
      </trkpt>
      <trkpt lat="44.89792" lon="4.71432">
        <ele>757.1</ele>
        <time>2026-05-04T06:52:28Z</time>
      </trkpt>
      <trkpt lat="44.89792" lon="4.71432">
        <ele>757.1</ele>
        <time>2026-05-04T06:52:33Z</time>
      </trkpt>
      <trkpt lat="44.89792" lon="4.71432">
        <ele>757.1</ele>
        <time>2026-05-04T06:52:38Z</time>
      </trkpt>
      <trkpt lat="44.89792" lon="4.71432">
        <ele>757.1</ele>
        <time>2026-05-04T06:52:43Z</time>
      </trkpt>
      <trkpt lat="44.89789" lon="4.71421">
        <ele>756.6</ele>
        <time>2026-05-04T06:52:48Z</time>
      </trkpt>
      <trkpt lat="44.8979" lon="4.71413">
        <ele>756.3</ele>
        <time>2026-05-04T06:52:53Z</time>
      </trkpt>
      <trkpt lat="44.89791" lon="4.71405">
        <ele>756.1</ele>
        <time>2026-05-04T06:52:58Z</time>
      </trkpt>
      <trkpt lat="44.89794" lon="4.71397">
        <ele>756.1</ele>
        <time>2026-05-04T06:53:03Z</time>
      </trkpt>
      <trkpt lat="44.89796" lon="4.71387">
        <ele>755.9</ele>
        <time>2026-05-04T06:53:08Z</time>
      </trkpt>
      <trkpt lat="44.89797" lon="4.71378">
        <ele>755.8</ele>
        <time>2026-05-04T06:53:13Z</time>
      </trkpt>
      <trkpt lat="44.898" lon="4.71371">
        <ele>755.9</ele>
        <time>2026-05-04T06:53:18Z</time>
      </trkpt>
      <trkpt lat="44.89802" lon="4.71364">
        <ele>756</ele>
        <time>2026-05-04T06:53:23Z</time>
      </trkpt>
      <trkpt lat="44.89803" lon="4.71355">
        <ele>756</ele>
        <time>2026-05-04T06:53:28Z</time>
      </trkpt>
      <trkpt lat="44.89805" lon="4.71349">
        <ele>756.1</ele>
        <time>2026-05-04T06:53:33Z</time>
      </trkpt>
      <trkpt lat="44.89809" lon="4.71342">
        <ele>756.6</ele>
        <time>2026-05-04T06:53:38Z</time>
      </trkpt>
      <trkpt lat="44.89812" lon="4.71336">
        <ele>756.9</ele>
        <time>2026-05-04T06:53:43Z</time>
      </trkpt>
      <trkpt lat="44.89817" lon="4.71332">
        <ele>757.6</ele>
        <time>2026-05-04T06:53:48Z</time>
      </trkpt>
      <trkpt lat="44.8982" lon="4.71327">
        <ele>758.1</ele>
        <time>2026-05-04T06:53:53Z</time>
      </trkpt>
      <trkpt lat="44.89823" lon="4.71323">
        <ele>758.5</ele>
        <time>2026-05-04T06:53:58Z</time>
      </trkpt>
      <trkpt lat="44.89828" lon="4.7132">
        <ele>759.1</ele>
        <time>2026-05-04T06:54:03Z</time>
      </trkpt>
      <trkpt lat="44.89829" lon="4.71318">
        <ele>759.2</ele>
        <time>2026-05-04T06:54:08Z</time>
      </trkpt>
      <trkpt lat="44.89832" lon="4.71316">
        <ele>759.6</ele>
        <time>2026-05-04T06:54:13Z</time>
      </trkpt>
      <trkpt lat="44.89836" lon="4.71313">
        <ele>760.2</ele>
        <time>2026-05-04T06:54:18Z</time>
      </trkpt>
      <trkpt lat="44.89841" lon="4.71309">
        <ele>760.9</ele>
        <time>2026-05-04T06:54:23Z</time>
      </trkpt>
      <trkpt lat="44.89845" lon="4.71306">
        <ele>761.4</ele>
        <time>2026-05-04T06:54:28Z</time>
      </trkpt>
      <trkpt lat="44.89847" lon="4.71301">
        <ele>761.7</ele>
        <time>2026-05-04T06:54:33Z</time>
      </trkpt>
      <trkpt lat="44.89851" lon="4.713">
        <ele>762.3</ele>
        <time>2026-05-04T06:54:38Z</time>
      </trkpt>
      <trkpt lat="44.89855" lon="4.71299">
        <ele>762.9</ele>
        <time>2026-05-04T06:54:43Z</time>
      </trkpt>
      <trkpt lat="44.89859" lon="4.71296">
        <ele>763.5</ele>
        <time>2026-05-04T06:54:48Z</time>
      </trkpt>
      <trkpt lat="44.89862" lon="4.71288">
        <ele>764</ele>
        <time>2026-05-04T06:54:53Z</time>
      </trkpt>
      <trkpt lat="44.89864" lon="4.71281">
        <ele>764.3</ele>
        <time>2026-05-04T06:54:58Z</time>
      </trkpt>
      <trkpt lat="44.89864" lon="4.71274">
        <ele>764.2</ele>
        <time>2026-05-04T06:55:03Z</time>
      </trkpt>
      <trkpt lat="44.89862" lon="4.71266">
        <ele>763.9</ele>
        <time>2026-05-04T06:55:08Z</time>
      </trkpt>
      <trkpt lat="44.89861" lon="4.71258">
        <ele>763.7</ele>
        <time>2026-05-04T06:55:13Z</time>
      </trkpt>
      <trkpt lat="44.89857" lon="4.7125">
        <ele>763</ele>
        <time>2026-05-04T06:55:18Z</time>
      </trkpt>
      <trkpt lat="44.89855" lon="4.71238">
        <ele>763.1</ele>
        <time>2026-05-04T06:55:23Z</time>
      </trkpt>
      <trkpt lat="44.89857" lon="4.7123">
        <ele>763.7</ele>
        <time>2026-05-04T06:55:28Z</time>
      </trkpt>
      <trkpt lat="44.89856" lon="4.71221">
        <ele>763.9</ele>
        <time>2026-05-04T06:55:33Z</time>
      </trkpt>
      <trkpt lat="44.89854" lon="4.71213">
        <ele>763.9</ele>
        <time>2026-05-04T06:55:38Z</time>
      </trkpt>
      <trkpt lat="44.89857" lon="4.71204">
        <ele>764.6</ele>
        <time>2026-05-04T06:55:43Z</time>
      </trkpt>
      <trkpt lat="44.89859" lon="4.71195">
        <ele>765.2</ele>
        <time>2026-05-04T06:55:48Z</time>
      </trkpt>
      <trkpt lat="44.89864" lon="4.7119">
        <ele>765.9</ele>
        <time>2026-05-04T06:55:53Z</time>
      </trkpt>
      <trkpt lat="44.89868" lon="4.71183">
        <ele>766.5</ele>
        <time>2026-05-04T06:55:58Z</time>
      </trkpt>
      <trkpt lat="44.89873" lon="4.71176">
        <ele>767.1</ele>
        <time>2026-05-04T06:56:03Z</time>
      </trkpt>
      <trkpt lat="44.89877" lon="4.71171">
        <ele>767.6</ele>
        <time>2026-05-04T06:56:08Z</time>
      </trkpt>
      <trkpt lat="44.89878" lon="4.71164">
        <ele>768</ele>
        <time>2026-05-04T06:56:13Z</time>
      </trkpt>
      <trkpt lat="44.89879" lon="4.71158">
        <ele>768.5</ele>
        <time>2026-05-04T06:56:18Z</time>
      </trkpt>
      <trkpt lat="44.89881" lon="4.71153">
        <ele>769</ele>
        <time>2026-05-04T06:56:23Z</time>
      </trkpt>
      <trkpt lat="44.89886" lon="4.7115">
        <ele>769.6</ele>
        <time>2026-05-04T06:56:28Z</time>
      </trkpt>
      <trkpt lat="44.8989" lon="4.71142">
        <ele>770.4</ele>
        <time>2026-05-04T06:56:33Z</time>
      </trkpt>
      <trkpt lat="44.89892" lon="4.7113">
        <ele>771.3</ele>
        <time>2026-05-04T06:56:38Z</time>
      </trkpt>
      <trkpt lat="44.89896" lon="4.71123">
        <ele>772</ele>
        <time>2026-05-04T06:56:43Z</time>
      </trkpt>
      <trkpt lat="44.89897" lon="4.71113">
        <ele>772.7</ele>
        <time>2026-05-04T06:56:48Z</time>
      </trkpt>
      <trkpt lat="44.89894" lon="4.71104">
        <ele>773.1</ele>
        <time>2026-05-04T06:56:53Z</time>
      </trkpt>
      <trkpt lat="44.89891" lon="4.71095">
        <ele>773.6</ele>
        <time>2026-05-04T06:56:58Z</time>
      </trkpt>
      <trkpt lat="44.89891" lon="4.71085">
        <ele>774.3</ele>
        <time>2026-05-04T06:57:03Z</time>
      </trkpt>
      <trkpt lat="44.8989" lon="4.71075">
        <ele>774.7</ele>
        <time>2026-05-04T06:57:08Z</time>
      </trkpt>
      <trkpt lat="44.89888" lon="4.71067">
        <ele>775</ele>
        <time>2026-05-04T06:57:13Z</time>
      </trkpt>
      <trkpt lat="44.89884" lon="4.71058">
        <ele>775.3</ele>
        <time>2026-05-04T06:57:18Z</time>
      </trkpt>
      <trkpt lat="44.89882" lon="4.7105">
        <ele>775.5</ele>
        <time>2026-05-04T06:57:23Z</time>
      </trkpt>
      <trkpt lat="44.89878" lon="4.7104">
        <ele>775.7</ele>
        <time>2026-05-04T06:57:28Z</time>
      </trkpt>
      <trkpt lat="44.89872" lon="4.71033">
        <ele>775.7</ele>
        <time>2026-05-04T06:57:33Z</time>
      </trkpt>
      <trkpt lat="44.89864" lon="4.71024">
        <ele>775.5</ele>
        <time>2026-05-04T06:57:38Z</time>
      </trkpt>
      <trkpt lat="44.89857" lon="4.71017">
        <ele>775.3</ele>
        <time>2026-05-04T06:57:43Z</time>
      </trkpt>
      <trkpt lat="44.89852" lon="4.71009">
        <ele>775.1</ele>
        <time>2026-05-04T06:57:48Z</time>
      </trkpt>
      <trkpt lat="44.89853" lon="4.71001">
        <ele>775.4</ele>
        <time>2026-05-04T06:57:53Z</time>
      </trkpt>
      <trkpt lat="44.89858" lon="4.70995">
        <ele>775</ele>
        <time>2026-05-04T06:57:58Z</time>
      </trkpt>
      <trkpt lat="44.89864" lon="4.70989">
        <ele>774.6</ele>
        <time>2026-05-04T06:58:03Z</time>
      </trkpt>
      <trkpt lat="44.89869" lon="4.70985">
        <ele>774.4</ele>
        <time>2026-05-04T06:58:08Z</time>
      </trkpt>
      <trkpt lat="44.89875" lon="4.70981">
        <ele>774.4</ele>
        <time>2026-05-04T06:58:13Z</time>
      </trkpt>
      <trkpt lat="44.8988" lon="4.70976">
        <ele>774.2</ele>
        <time>2026-05-04T06:58:18Z</time>
      </trkpt>
      <trkpt lat="44.89886" lon="4.70971">
        <ele>774.1</ele>
        <time>2026-05-04T06:58:23Z</time>
      </trkpt>
      <trkpt lat="44.89891" lon="4.70965">
        <ele>773.9</ele>
        <time>2026-05-04T06:58:28Z</time>
      </trkpt>
      <trkpt lat="44.89896" lon="4.70957">
        <ele>773.5</ele>
        <time>2026-05-04T06:58:33Z</time>
      </trkpt>
      <trkpt lat="44.89903" lon="4.70952">
        <ele>773.7</ele>
        <time>2026-05-04T06:58:38Z</time>
      </trkpt>
      <trkpt lat="44.8991" lon="4.70951">
        <ele>774.5</ele>
        <time>2026-05-04T06:58:43Z</time>
      </trkpt>
      <trkpt lat="44.89916" lon="4.70947">
        <ele>774.8</ele>
        <time>2026-05-04T06:58:48Z</time>
      </trkpt>
      <trkpt lat="44.89922" lon="4.70941">
        <ele>775.1</ele>
        <time>2026-05-04T06:58:53Z</time>
      </trkpt>
      <trkpt lat="44.89929" lon="4.70933">
        <ele>775.5</ele>
        <time>2026-05-04T06:58:58Z</time>
      </trkpt>
      <trkpt lat="44.89935" lon="4.70924">
        <ele>775.7</ele>
        <time>2026-05-04T06:59:03Z</time>
      </trkpt>
      <trkpt lat="44.89936" lon="4.70913">
        <ele>775.3</ele>
        <time>2026-05-04T06:59:08Z</time>
      </trkpt>
      <trkpt lat="44.89933" lon="4.70904">
        <ele>775</ele>
        <time>2026-05-04T06:59:13Z</time>
      </trkpt>
      <trkpt lat="44.89929" lon="4.70894">
        <ele>774.3</ele>
        <time>2026-05-04T06:59:18Z</time>
      </trkpt>
      <trkpt lat="44.89923" lon="4.70886">
        <ele>773.1</ele>
        <time>2026-05-04T06:59:23Z</time>
      </trkpt>
      <trkpt lat="44.8992" lon="4.70882">
        <ele>772.4</ele>
        <time>2026-05-04T06:59:28Z</time>
      </trkpt>
      <trkpt lat="44.89919" lon="4.70876">
        <ele>772.1</ele>
        <time>2026-05-04T06:59:33Z</time>
      </trkpt>
      <trkpt lat="44.89917" lon="4.70873">
        <ele>771.6</ele>
        <time>2026-05-04T06:59:38Z</time>
      </trkpt>
      <trkpt lat="44.89914" lon="4.70866">
        <ele>770.7</ele>
        <time>2026-05-04T06:59:43Z</time>
      </trkpt>
      <trkpt lat="44.8991" lon="4.7086">
        <ele>769.5</ele>
        <time>2026-05-04T06:59:48Z</time>
      </trkpt>
      <trkpt lat="44.89906" lon="4.70855">
        <ele>768.2</ele>
        <time>2026-05-04T06:59:53Z</time>
      </trkpt>
      <trkpt lat="44.899" lon="4.70851">
        <ele>766.2</ele>
        <time>2026-05-04T06:59:58Z</time>
      </trkpt>
      <trkpt lat="44.89897" lon="4.70847">
        <ele>765.1</ele>
        <time>2026-05-04T07:00:03Z</time>
      </trkpt>
      <trkpt lat="44.89895" lon="4.70845">
        <ele>764.4</ele>
        <time>2026-05-04T07:00:08Z</time>
      </trkpt>
      <trkpt lat="44.89895" lon="4.70843">
        <ele>764.3</ele>
        <time>2026-05-04T07:00:13Z</time>
      </trkpt>
      <trkpt lat="44.89892" lon="4.70837">
        <ele>763</ele>
        <time>2026-05-04T07:00:18Z</time>
      </trkpt>
      <trkpt lat="44.89887" lon="4.7083">
        <ele>761.5</ele>
        <time>2026-05-04T07:00:23Z</time>
      </trkpt>
      <trkpt lat="44.89883" lon="4.70826">
        <ele>760.7</ele>
        <time>2026-05-04T07:00:28Z</time>
      </trkpt>
      <trkpt lat="44.8988" lon="4.70816">
        <ele>761</ele>
        <time>2026-05-04T07:00:33Z</time>
      </trkpt>
      <trkpt lat="44.89877" lon="4.70806">
        <ele>761.3</ele>
        <time>2026-05-04T07:00:38Z</time>
      </trkpt>
      <trkpt lat="44.89874" lon="4.70799">
        <ele>761.2</ele>
        <time>2026-05-04T07:00:43Z</time>
      </trkpt>
      <trkpt lat="44.89872" lon="4.70792">
        <ele>761.4</ele>
        <time>2026-05-04T07:00:48Z</time>
      </trkpt>
      <trkpt lat="44.89869" lon="4.70784">
        <ele>761.3</ele>
        <time>2026-05-04T07:00:53Z</time>
      </trkpt>
      <trkpt lat="44.89867" lon="4.70776">
        <ele>761.6</ele>
        <time>2026-05-04T07:00:58Z</time>
      </trkpt>
      <trkpt lat="44.89866" lon="4.70766">
        <ele>762.5</ele>
        <time>2026-05-04T07:01:03Z</time>
      </trkpt>
      <trkpt lat="44.89867" lon="4.70759">
        <ele>763.8</ele>
        <time>2026-05-04T07:01:08Z</time>
      </trkpt>
      <trkpt lat="44.89865" lon="4.70751">
        <ele>764</ele>
        <time>2026-05-04T07:01:13Z</time>
      </trkpt>
      <trkpt lat="44.89864" lon="4.70743">
        <ele>765.6</ele>
        <time>2026-05-04T07:01:18Z</time>
      </trkpt>
      <trkpt lat="44.89863" lon="4.70737">
        <ele>766.8</ele>
        <time>2026-05-04T07:01:23Z</time>
      </trkpt>
      <trkpt lat="44.89861" lon="4.70728">
        <ele>768.3</ele>
        <time>2026-05-04T07:01:28Z</time>
      </trkpt>
      <trkpt lat="44.8986" lon="4.70718">
        <ele>770.6</ele>
        <time>2026-05-04T07:01:33Z</time>
      </trkpt>
      <trkpt lat="44.8986" lon="4.7071">
        <ele>772.7</ele>
        <time>2026-05-04T07:01:38Z</time>
      </trkpt>
      <trkpt lat="44.8986" lon="4.70704">
        <ele>774.2</ele>
        <time>2026-05-04T07:01:43Z</time>
      </trkpt>
      <trkpt lat="44.89859" lon="4.70694">
        <ele>776.5</ele>
        <time>2026-05-04T07:01:48Z</time>
      </trkpt>
      <trkpt lat="44.89856" lon="4.70687">
        <ele>777.3</ele>
        <time>2026-05-04T07:01:53Z</time>
      </trkpt>
      <trkpt lat="44.89853" lon="4.70678">
        <ele>778.6</ele>
        <time>2026-05-04T07:01:58Z</time>
      </trkpt>
      <trkpt lat="44.89847" lon="4.70672">
        <ele>778.2</ele>
        <time>2026-05-04T07:02:03Z</time>
      </trkpt>
      <trkpt lat="44.89841" lon="4.70666">
        <ele>777.7</ele>
        <time>2026-05-04T07:02:08Z</time>
      </trkpt>
      <trkpt lat="44.89834" lon="4.70659">
        <ele>777</ele>
        <time>2026-05-04T07:02:13Z</time>
      </trkpt>
      <trkpt lat="44.89828" lon="4.70652">
        <ele>776.4</ele>
        <time>2026-05-04T07:02:18Z</time>
      </trkpt>
      <trkpt lat="44.8982" lon="4.70643">
        <ele>775.6</ele>
        <time>2026-05-04T07:02:23Z</time>
      </trkpt>
      <trkpt lat="44.89815" lon="4.70635">
        <ele>775.7</ele>
        <time>2026-05-04T07:02:28Z</time>
      </trkpt>
      <trkpt lat="44.89811" lon="4.70627">
        <ele>776.1</ele>
        <time>2026-05-04T07:02:33Z</time>
      </trkpt>
      <trkpt lat="44.89806" lon="4.7062">
        <ele>776</ele>
        <time>2026-05-04T07:02:38Z</time>
      </trkpt>
      <trkpt lat="44.89801" lon="4.70615">
        <ele>775.4</ele>
        <time>2026-05-04T07:02:43Z</time>
      </trkpt>
      <trkpt lat="44.89798" lon="4.70609">
        <ele>775.7</ele>
        <time>2026-05-04T07:02:48Z</time>
      </trkpt>
      <trkpt lat="44.89793" lon="4.70604">
        <ele>775.1</ele>
        <time>2026-05-04T07:02:53Z</time>
      </trkpt>
      <trkpt lat="44.89787" lon="4.70598">
        <ele>774.4</ele>
        <time>2026-05-04T07:02:58Z</time>
      </trkpt>
      <trkpt lat="44.89786" lon="4.70596">
        <ele>774.6</ele>
        <time>2026-05-04T07:03:03Z</time>
      </trkpt>
      <trkpt lat="44.89786" lon="4.70589">
        <ele>776.2</ele>
        <time>2026-05-04T07:03:08Z</time>
      </trkpt>
      <trkpt lat="44.89784" lon="4.70589">
        <ele>775.5</ele>
        <time>2026-05-04T07:03:13Z</time>
      </trkpt>
      <trkpt lat="44.8978" lon="4.70588">
        <ele>774.3</ele>
        <time>2026-05-04T07:03:18Z</time>
      </trkpt>
      <trkpt lat="44.89776" lon="4.70583">
        <ele>774.1</ele>
        <time>2026-05-04T07:03:23Z</time>
      </trkpt>
      <trkpt lat="44.89769" lon="4.70576">
        <ele>772.4</ele>
        <time>2026-05-04T07:03:28Z</time>
      </trkpt>
      <trkpt lat="44.89767" lon="4.70567">
        <ele>772.6</ele>
        <time>2026-05-04T07:03:33Z</time>
      </trkpt>
      <trkpt lat="44.89762" lon="4.7056">
        <ele>771.6</ele>
        <time>2026-05-04T07:03:38Z</time>
      </trkpt>
      <trkpt lat="44.89759" lon="4.70554">
        <ele>771.1</ele>
        <time>2026-05-04T07:03:43Z</time>
      </trkpt>
      <trkpt lat="44.89756" lon="4.70549">
        <ele>770.5</ele>
        <time>2026-05-04T07:03:48Z</time>
      </trkpt>
      <trkpt lat="44.89754" lon="4.70545">
        <ele>770.2</ele>
        <time>2026-05-04T07:03:53Z</time>
      </trkpt>
      <trkpt lat="44.89751" lon="4.70538">
        <ele>769.7</ele>
        <time>2026-05-04T07:03:58Z</time>
      </trkpt>
      <trkpt lat="44.89743" lon="4.70527">
        <ele>767.3</ele>
        <time>2026-05-04T07:04:03Z</time>
      </trkpt>
      <trkpt lat="44.89738" lon="4.70517">
        <ele>766</ele>
        <time>2026-05-04T07:04:08Z</time>
      </trkpt>
      <trkpt lat="44.89736" lon="4.70511">
        <ele>765.6</ele>
        <time>2026-05-04T07:04:13Z</time>
      </trkpt>
      <trkpt lat="44.89736" lon="4.70505">
        <ele>766.2</ele>
        <time>2026-05-04T07:04:18Z</time>
      </trkpt>
      <trkpt lat="44.89735" lon="4.70496">
        <ele>766.2</ele>
        <time>2026-05-04T07:04:23Z</time>
      </trkpt>
      <trkpt lat="44.89733" lon="4.70484">
        <ele>765.4</ele>
        <time>2026-05-04T07:04:28Z</time>
      </trkpt>
      <trkpt lat="44.8973" lon="4.70474">
        <ele>764</ele>
        <time>2026-05-04T07:04:33Z</time>
      </trkpt>
      <trkpt lat="44.89728" lon="4.70465">
        <ele>763.2</ele>
        <time>2026-05-04T07:04:38Z</time>
      </trkpt>
      <trkpt lat="44.89726" lon="4.70463">
        <ele>762.2</ele>
        <time>2026-05-04T07:04:43Z</time>
      </trkpt>
      <trkpt lat="44.89726" lon="4.70458">
        <ele>762.3</ele>
        <time>2026-05-04T07:04:48Z</time>
      </trkpt>
      <trkpt lat="44.89726" lon="4.70456">
        <ele>762.3</ele>
        <time>2026-05-04T07:04:53Z</time>
      </trkpt>
      <trkpt lat="44.89726" lon="4.70456">
        <ele>762.3</ele>
        <time>2026-05-04T07:04:58Z</time>
      </trkpt>
      <trkpt lat="44.89725" lon="4.70438">
        <ele>761.9</ele>
        <time>2026-05-04T07:05:03Z</time>
      </trkpt>
      <trkpt lat="44.89726" lon="4.7043">
        <ele>762.4</ele>
        <time>2026-05-04T07:05:08Z</time>
      </trkpt>
      <trkpt lat="44.89726" lon="4.70422">
        <ele>762.5</ele>
        <time>2026-05-04T07:05:13Z</time>
      </trkpt>
      <trkpt lat="44.8973" lon="4.70417">
        <ele>764.4</ele>
        <time>2026-05-04T07:05:18Z</time>
      </trkpt>
      <trkpt lat="44.89732" lon="4.70407">
        <ele>765</ele>
        <time>2026-05-04T07:05:23Z</time>
      </trkpt>
      <trkpt lat="44.89735" lon="4.704">
        <ele>766.2</ele>
        <time>2026-05-04T07:05:28Z</time>
      </trkpt>
      <trkpt lat="44.89737" lon="4.70395">
        <ele>766.9</ele>
        <time>2026-05-04T07:05:33Z</time>
      </trkpt>
      <trkpt lat="44.89736" lon="4.70389">
        <ele>766.2</ele>
        <time>2026-05-04T07:05:38Z</time>
      </trkpt>
      <trkpt lat="44.89736" lon="4.70383">
        <ele>765.9</ele>
        <time>2026-05-04T07:05:43Z</time>
      </trkpt>
      <trkpt lat="44.89736" lon="4.70373">
        <ele>765.5</ele>
        <time>2026-05-04T07:05:48Z</time>
      </trkpt>
      <trkpt lat="44.89737" lon="4.70367">
        <ele>765.7</ele>
        <time>2026-05-04T07:05:53Z</time>
      </trkpt>
      <trkpt lat="44.89741" lon="4.7036">
        <ele>767</ele>
        <time>2026-05-04T07:05:58Z</time>
      </trkpt>
      <trkpt lat="44.89743" lon="4.70356">
        <ele>767.6</ele>
        <time>2026-05-04T07:06:03Z</time>
      </trkpt>
      <trkpt lat="44.89742" lon="4.7035">
        <ele>766.9</ele>
        <time>2026-05-04T07:06:08Z</time>
      </trkpt>
      <trkpt lat="44.89742" lon="4.70345">
        <ele>766.7</ele>
        <time>2026-05-04T07:06:13Z</time>
      </trkpt>
      <trkpt lat="44.89745" lon="4.70341">
        <ele>767.6</ele>
        <time>2026-05-04T07:06:18Z</time>
      </trkpt>
      <trkpt lat="44.89746" lon="4.7034">
        <ele>767.9</ele>
        <time>2026-05-04T07:06:23Z</time>
      </trkpt>
      <trkpt lat="44.89751" lon="4.70328">
        <ele>768.8</ele>
        <time>2026-05-04T07:06:28Z</time>
      </trkpt>
      <trkpt lat="44.89753" lon="4.70321">
        <ele>768.7</ele>
        <time>2026-05-04T07:06:33Z</time>
      </trkpt>
      <trkpt lat="44.89755" lon="4.70314">
        <ele>768.6</ele>
        <time>2026-05-04T07:06:38Z</time>
      </trkpt>
      <trkpt lat="44.89757" lon="4.70306">
        <ele>768.4</ele>
        <time>2026-05-04T07:06:43Z</time>
      </trkpt>
      <trkpt lat="44.89758" lon="4.70299">
        <ele>768</ele>
        <time>2026-05-04T07:06:48Z</time>
      </trkpt>
      <trkpt lat="44.8976" lon="4.70294">
        <ele>768</ele>
        <time>2026-05-04T07:06:53Z</time>
      </trkpt>
      <trkpt lat="44.89762" lon="4.7029">
        <ele>768.1</ele>
        <time>2026-05-04T07:06:58Z</time>
      </trkpt>
      <trkpt lat="44.89761" lon="4.70282">
        <ele>767.1</ele>
        <time>2026-05-04T07:07:03Z</time>
      </trkpt>
      <trkpt lat="44.89762" lon="4.70275">
        <ele>766.7</ele>
        <time>2026-05-04T07:07:08Z</time>
      </trkpt>
      <trkpt lat="44.89763" lon="4.70267">
        <ele>766.1</ele>
        <time>2026-05-04T07:07:13Z</time>
      </trkpt>
      <trkpt lat="44.89765" lon="4.70261">
        <ele>765.9</ele>
        <time>2026-05-04T07:07:18Z</time>
      </trkpt>
      <trkpt lat="44.89768" lon="4.70254">
        <ele>765.9</ele>
        <time>2026-05-04T07:07:23Z</time>
      </trkpt>
      <trkpt lat="44.89768" lon="4.70246">
        <ele>765.5</ele>
        <time>2026-05-04T07:07:28Z</time>
      </trkpt>
      <trkpt lat="44.89769" lon="4.70238">
        <ele>765.7</ele>
        <time>2026-05-04T07:07:33Z</time>
      </trkpt>
      <trkpt lat="44.89772" lon="4.70228">
        <ele>766.2</ele>
        <time>2026-05-04T07:07:38Z</time>
      </trkpt>
      <trkpt lat="44.89775" lon="4.70222">
        <ele>766.7</ele>
        <time>2026-05-04T07:07:43Z</time>
      </trkpt>
      <trkpt lat="44.89777" lon="4.70212">
        <ele>766.9</ele>
        <time>2026-05-04T07:07:48Z</time>
      </trkpt>
      <trkpt lat="44.89777" lon="4.70199">
        <ele>766.8</ele>
        <time>2026-05-04T07:07:53Z</time>
      </trkpt>
      <trkpt lat="44.89776" lon="4.70191">
        <ele>766.6</ele>
        <time>2026-05-04T07:07:58Z</time>
      </trkpt>
      <trkpt lat="44.89775" lon="4.70181">
        <ele>766.5</ele>
        <time>2026-05-04T07:08:03Z</time>
      </trkpt>
      <trkpt lat="44.89773" lon="4.70174">
        <ele>766.2</ele>
        <time>2026-05-04T07:08:08Z</time>
      </trkpt>
      <trkpt lat="44.8977" lon="4.70167">
        <ele>765.9</ele>
        <time>2026-05-04T07:08:13Z</time>
      </trkpt>
      <trkpt lat="44.89768" lon="4.70159">
        <ele>766.1</ele>
        <time>2026-05-04T07:08:18Z</time>
      </trkpt>
      <trkpt lat="44.89763" lon="4.7015">
        <ele>766.2</ele>
        <time>2026-05-04T07:08:23Z</time>
      </trkpt>
      <trkpt lat="44.8976" lon="4.70138">
        <ele>766.7</ele>
        <time>2026-05-04T07:08:28Z</time>
      </trkpt>
      <trkpt lat="44.89755" lon="4.70131">
        <ele>767.1</ele>
        <time>2026-05-04T07:08:33Z</time>
      </trkpt>
      <trkpt lat="44.89753" lon="4.70123">
        <ele>767.7</ele>
        <time>2026-05-04T07:08:38Z</time>
      </trkpt>
      <trkpt lat="44.89748" lon="4.70118">
        <ele>768</ele>
        <time>2026-05-04T07:08:43Z</time>
      </trkpt>
      <trkpt lat="44.89744" lon="4.70112">
        <ele>768.4</ele>
        <time>2026-05-04T07:08:48Z</time>
      </trkpt>
      <trkpt lat="44.89739" lon="4.70106">
        <ele>768.8</ele>
        <time>2026-05-04T07:08:53Z</time>
      </trkpt>
      <trkpt lat="44.89737" lon="4.70089">
        <ele>770.4</ele>
        <time>2026-05-04T07:08:58Z</time>
      </trkpt>
      <trkpt lat="44.89732" lon="4.70078">
        <ele>771.2</ele>
        <time>2026-05-04T07:09:03Z</time>
      </trkpt>
      <trkpt lat="44.89728" lon="4.7007">
        <ele>771.6</ele>
        <time>2026-05-04T07:09:08Z</time>
      </trkpt>
      <trkpt lat="44.89728" lon="4.70067">
        <ele>771.8</ele>
        <time>2026-05-04T07:09:13Z</time>
      </trkpt>
      <trkpt lat="44.89728" lon="4.70067">
        <ele>771.8</ele>
        <time>2026-05-04T07:09:18Z</time>
      </trkpt>
      <trkpt lat="44.89728" lon="4.70067">
        <ele>771.8</ele>
        <time>2026-05-04T07:09:23Z</time>
      </trkpt>
      <trkpt lat="44.89727" lon="4.70058">
        <ele>772.2</ele>
        <time>2026-05-04T07:09:28Z</time>
      </trkpt>
      <trkpt lat="44.89727" lon="4.70051">
        <ele>772.6</ele>
        <time>2026-05-04T07:09:33Z</time>
      </trkpt>
      <trkpt lat="44.89727" lon="4.70043">
        <ele>773</ele>
        <time>2026-05-04T07:09:38Z</time>
      </trkpt>
      <trkpt lat="44.89728" lon="4.70035">
        <ele>773.3</ele>
        <time>2026-05-04T07:09:43Z</time>
      </trkpt>
      <trkpt lat="44.89726" lon="4.70024">
        <ele>774</ele>
        <time>2026-05-04T07:09:48Z</time>
      </trkpt>
      <trkpt lat="44.89723" lon="4.70015">
        <ele>774.7</ele>
        <time>2026-05-04T07:09:53Z</time>
      </trkpt>
      <trkpt lat="44.89722" lon="4.70007">
        <ele>775.3</ele>
        <time>2026-05-04T07:09:58Z</time>
      </trkpt>
      <trkpt lat="44.8972" lon="4.70003">
        <ele>775.8</ele>
        <time>2026-05-04T07:10:03Z</time>
      </trkpt>
      <trkpt lat="44.89716" lon="4.69995">
        <ele>776.6</ele>
        <time>2026-05-04T07:10:08Z</time>
      </trkpt>
      <trkpt lat="44.89716" lon="4.69984">
        <ele>776.8</ele>
        <time>2026-05-04T07:10:13Z</time>
      </trkpt>
      <trkpt lat="44.89716" lon="4.69976">
        <ele>776.9</ele>
        <time>2026-05-04T07:10:18Z</time>
      </trkpt>
      <trkpt lat="44.89718" lon="4.69967">
        <ele>776.7</ele>
        <time>2026-05-04T07:10:23Z</time>
      </trkpt>
      <trkpt lat="44.89718" lon="4.69958">
        <ele>776.9</ele>
        <time>2026-05-04T07:10:28Z</time>
      </trkpt>
      <trkpt lat="44.89718" lon="4.69948">
        <ele>777</ele>
        <time>2026-05-04T07:10:33Z</time>
      </trkpt>
      <trkpt lat="44.89716" lon="4.69936">
        <ele>777.6</ele>
        <time>2026-05-04T07:10:38Z</time>
      </trkpt>
      <trkpt lat="44.89716" lon="4.69924">
        <ele>777.8</ele>
        <time>2026-05-04T07:10:43Z</time>
      </trkpt>
      <trkpt lat="44.89714" lon="4.69912">
        <ele>777.7</ele>
        <time>2026-05-04T07:10:48Z</time>
      </trkpt>
      <trkpt lat="44.89714" lon="4.69904">
        <ele>776.7</ele>
        <time>2026-05-04T07:10:53Z</time>
      </trkpt>
      <trkpt lat="44.89715" lon="4.69894">
        <ele>775.2</ele>
        <time>2026-05-04T07:10:58Z</time>
      </trkpt>
      <trkpt lat="44.89715" lon="4.69885">
        <ele>774</ele>
        <time>2026-05-04T07:11:03Z</time>
      </trkpt>
      <trkpt lat="44.89713" lon="4.69872">
        <ele>772.6</ele>
        <time>2026-05-04T07:11:08Z</time>
      </trkpt>
      <trkpt lat="44.89715" lon="4.69864">
        <ele>771.2</ele>
        <time>2026-05-04T07:11:13Z</time>
      </trkpt>
      <trkpt lat="44.89718" lon="4.69854">
        <ele>769.5</ele>
        <time>2026-05-04T07:11:18Z</time>
      </trkpt>
      <trkpt lat="44.89719" lon="4.69843">
        <ele>768</ele>
        <time>2026-05-04T07:11:23Z</time>
      </trkpt>
      <trkpt lat="44.89721" lon="4.69832">
        <ele>766.3</ele>
        <time>2026-05-04T07:11:28Z</time>
      </trkpt>
      <trkpt lat="44.89722" lon="4.69819">
        <ele>763.9</ele>
        <time>2026-05-04T07:11:33Z</time>
      </trkpt>
      <trkpt lat="44.89726" lon="4.69809">
        <ele>762</ele>
        <time>2026-05-04T07:11:38Z</time>
      </trkpt>
      <trkpt lat="44.89727" lon="4.69799">
        <ele>760.3</ele>
        <time>2026-05-04T07:11:43Z</time>
      </trkpt>
      <trkpt lat="44.8973" lon="4.69789">
        <ele>758.5</ele>
        <time>2026-05-04T07:11:48Z</time>
      </trkpt>
      <trkpt lat="44.89733" lon="4.6978">
        <ele>757.1</ele>
        <time>2026-05-04T07:11:53Z</time>
      </trkpt>
      <trkpt lat="44.89738" lon="4.69773">
        <ele>755.9</ele>
        <time>2026-05-04T07:11:58Z</time>
      </trkpt>
      <trkpt lat="44.8974" lon="4.69762">
        <ele>754.4</ele>
        <time>2026-05-04T07:12:03Z</time>
      </trkpt>
      <trkpt lat="44.89743" lon="4.69751">
        <ele>753</ele>
        <time>2026-05-04T07:12:08Z</time>
      </trkpt>
      <trkpt lat="44.89747" lon="4.69742">
        <ele>751.2</ele>
        <time>2026-05-04T07:12:13Z</time>
      </trkpt>
      <trkpt lat="44.89753" lon="4.69735">
        <ele>749.4</ele>
        <time>2026-05-04T07:12:18Z</time>
      </trkpt>
      <trkpt lat="44.89757" lon="4.69729">
        <ele>747.6</ele>
        <time>2026-05-04T07:12:23Z</time>
      </trkpt>
      <trkpt lat="44.89762" lon="4.69721">
        <ele>745.3</ele>
        <time>2026-05-04T07:12:28Z</time>
      </trkpt>
      <trkpt lat="44.89769" lon="4.69713">
        <ele>743</ele>
        <time>2026-05-04T07:12:33Z</time>
      </trkpt>
      <trkpt lat="44.89776" lon="4.69706">
        <ele>740.9</ele>
        <time>2026-05-04T07:12:38Z</time>
      </trkpt>
      <trkpt lat="44.89782" lon="4.697">
        <ele>739.3</ele>
        <time>2026-05-04T07:12:43Z</time>
      </trkpt>
      <trkpt lat="44.89788" lon="4.69694">
        <ele>737.7</ele>
        <time>2026-05-04T07:12:48Z</time>
      </trkpt>
      <trkpt lat="44.89793" lon="4.69687">
        <ele>736.2</ele>
        <time>2026-05-04T07:12:53Z</time>
      </trkpt>
      <trkpt lat="44.89798" lon="4.69684">
        <ele>735.4</ele>
        <time>2026-05-04T07:12:58Z</time>
      </trkpt>
      <trkpt lat="44.89798" lon="4.69684">
        <ele>735.4</ele>
        <time>2026-05-04T07:13:03Z</time>
      </trkpt>
      <trkpt lat="44.89798" lon="4.69682">
        <ele>735.1</ele>
        <time>2026-05-04T07:13:08Z</time>
      </trkpt>
      <trkpt lat="44.89798" lon="4.69682">
        <ele>735.1</ele>
        <time>2026-05-04T07:13:13Z</time>
      </trkpt>
      <trkpt lat="44.89798" lon="4.69682">
        <ele>735.1</ele>
        <time>2026-05-04T07:13:18Z</time>
      </trkpt>
      <trkpt lat="44.89798" lon="4.69682">
        <ele>735.1</ele>
        <time>2026-05-04T07:13:23Z</time>
      </trkpt>
      <trkpt lat="44.89798" lon="4.69682">
        <ele>735.1</ele>
        <time>2026-05-04T07:13:28Z</time>
      </trkpt>
      <trkpt lat="44.8981" lon="4.69681">
        <ele>734.1</ele>
        <time>2026-05-04T07:13:33Z</time>
      </trkpt>
      <trkpt lat="44.8981" lon="4.69681">
        <ele>734.1</ele>
        <time>2026-05-04T07:13:38Z</time>
      </trkpt>
      <trkpt lat="44.8981" lon="4.69681">
        <ele>734.1</ele>
        <time>2026-05-04T07:13:43Z</time>
      </trkpt>
      <trkpt lat="44.8981" lon="4.69681">
        <ele>734.1</ele>
        <time>2026-05-04T07:13:48Z</time>
      </trkpt>
      <trkpt lat="44.8981" lon="4.69681">
        <ele>734.1</ele>
        <time>2026-05-04T07:13:53Z</time>
      </trkpt>
      <trkpt lat="44.8981" lon="4.69681">
        <ele>734.1</ele>
        <time>2026-05-04T07:13:58Z</time>
      </trkpt>
      <trkpt lat="44.8981" lon="4.69681">
        <ele>734.1</ele>
        <time>2026-05-04T07:14:03Z</time>
      </trkpt>
      <trkpt lat="44.8981" lon="4.69681">
        <ele>734.1</ele>
        <time>2026-05-04T07:14:08Z</time>
      </trkpt>
      <trkpt lat="44.8981" lon="4.69681">
        <ele>734.1</ele>
        <time>2026-05-04T07:14:13Z</time>
      </trkpt>
      <trkpt lat="44.8981" lon="4.69681">
        <ele>734.1</ele>
        <time>2026-05-04T07:14:18Z</time>
      </trkpt>
      <trkpt lat="44.8981" lon="4.69681">
        <ele>734.1</ele>
        <time>2026-05-04T07:14:23Z</time>
      </trkpt>
      <trkpt lat="44.8981" lon="4.69681">
        <ele>734.1</ele>
        <time>2026-05-04T07:14:28Z</time>
      </trkpt>
      <trkpt lat="44.8981" lon="4.69681">
        <ele>734.1</ele>
        <time>2026-05-04T07:14:33Z</time>
      </trkpt>
      <trkpt lat="44.8981" lon="4.69681">
        <ele>734.1</ele>
        <time>2026-05-04T07:14:38Z</time>
      </trkpt>
      <trkpt lat="44.8981" lon="4.69681">
        <ele>734.1</ele>
        <time>2026-05-04T07:14:43Z</time>
      </trkpt>
      <trkpt lat="44.8981" lon="4.69681">
        <ele>734.1</ele>
        <time>2026-05-04T07:14:48Z</time>
      </trkpt>
      <trkpt lat="44.8981" lon="4.69681">
        <ele>734.1</ele>
        <time>2026-05-04T07:14:53Z</time>
      </trkpt>
      <trkpt lat="44.8981" lon="4.69681">
        <ele>734.1</ele>
        <time>2026-05-04T07:14:58Z</time>
      </trkpt>
      <trkpt lat="44.8981" lon="4.69681">
        <ele>734.1</ele>
        <time>2026-05-04T07:15:03Z</time>
      </trkpt>
      <trkpt lat="44.8981" lon="4.69681">
        <ele>734.1</ele>
        <time>2026-05-04T07:15:08Z</time>
      </trkpt>
      <trkpt lat="44.8981" lon="4.69681">
        <ele>734.1</ele>
        <time>2026-05-04T07:15:13Z</time>
      </trkpt>
      <trkpt lat="44.8981" lon="4.69681">
        <ele>734.1</ele>
        <time>2026-05-04T07:15:18Z</time>
      </trkpt>
      <trkpt lat="44.8981" lon="4.69681">
        <ele>734.1</ele>
        <time>2026-05-04T07:15:23Z</time>
      </trkpt>
      <trkpt lat="44.8981" lon="4.69681">
        <ele>734.1</ele>
        <time>2026-05-04T07:15:28Z</time>
      </trkpt>
      <trkpt lat="44.8981" lon="4.69681">
        <ele>734.1</ele>
        <time>2026-05-04T07:15:33Z</time>
      </trkpt>
      <trkpt lat="44.8981" lon="4.69681">
        <ele>734.1</ele>
        <time>2026-05-04T07:15:38Z</time>
      </trkpt>
      <trkpt lat="44.8981" lon="4.69681">
        <ele>734.1</ele>
        <time>2026-05-04T07:15:43Z</time>
      </trkpt>
      <trkpt lat="44.8981" lon="4.69681">
        <ele>734.1</ele>
        <time>2026-05-04T07:15:48Z</time>
      </trkpt>
      <trkpt lat="44.8981" lon="4.69681">
        <ele>734.1</ele>
        <time>2026-05-04T07:15:53Z</time>
      </trkpt>
      <trkpt lat="44.8981" lon="4.69681">
        <ele>734.1</ele>
        <time>2026-05-04T07:15:58Z</time>
      </trkpt>
      <trkpt lat="44.8981" lon="4.69681">
        <ele>734.1</ele>
        <time>2026-05-04T07:16:03Z</time>
      </trkpt>
      <trkpt lat="44.8981" lon="4.69681">
        <ele>734.1</ele>
        <time>2026-05-04T07:16:08Z</time>
      </trkpt>
      <trkpt lat="44.8981" lon="4.69681">
        <ele>734.1</ele>
        <time>2026-05-04T07:16:13Z</time>
      </trkpt>
      <trkpt lat="44.8981" lon="4.69681">
        <ele>734.1</ele>
        <time>2026-05-04T07:16:18Z</time>
      </trkpt>
      <trkpt lat="44.8981" lon="4.69681">
        <ele>734.1</ele>
        <time>2026-05-04T07:16:23Z</time>
      </trkpt>
      <trkpt lat="44.8981" lon="4.69681">
        <ele>734.1</ele>
        <time>2026-05-04T07:16:28Z</time>
      </trkpt>
      <trkpt lat="44.8981" lon="4.69681">
        <ele>734.1</ele>
        <time>2026-05-04T07:16:33Z</time>
      </trkpt>
      <trkpt lat="44.8981" lon="4.69681">
        <ele>734.1</ele>
        <time>2026-05-04T07:16:38Z</time>
      </trkpt>
      <trkpt lat="44.8981" lon="4.69681">
        <ele>734.1</ele>
        <time>2026-05-04T07:16:43Z</time>
      </trkpt>
      <trkpt lat="44.8981" lon="4.69681">
        <ele>734.1</ele>
        <time>2026-05-04T07:16:48Z</time>
      </trkpt>
      <trkpt lat="44.8981" lon="4.69681">
        <ele>734.1</ele>
        <time>2026-05-04T07:16:53Z</time>
      </trkpt>
      <trkpt lat="44.89811" lon="4.69672">
        <ele>732.8</ele>
        <time>2026-05-04T07:16:58Z</time>
      </trkpt>
      <trkpt lat="44.89814" lon="4.69665">
        <ele>731.6</ele>
        <time>2026-05-04T07:17:03Z</time>
      </trkpt>
      <trkpt lat="44.89818" lon="4.69659">
        <ele>730.2</ele>
        <time>2026-05-04T07:17:08Z</time>
      </trkpt>
      <trkpt lat="44.89821" lon="4.69656">
        <ele>729.5</ele>
        <time>2026-05-04T07:17:13Z</time>
      </trkpt>
      <trkpt lat="44.8982" lon="4.69653">
        <ele>728.9</ele>
        <time>2026-05-04T07:17:18Z</time>
      </trkpt>
      <trkpt lat="44.89821" lon="4.69652">
        <ele>728.7</ele>
        <time>2026-05-04T07:17:23Z</time>
      </trkpt>
      <trkpt lat="44.89821" lon="4.69652">
        <ele>728.7</ele>
        <time>2026-05-04T07:17:28Z</time>
      </trkpt>
      <trkpt lat="44.89821" lon="4.69652">
        <ele>728.7</ele>
        <time>2026-05-04T07:17:33Z</time>
      </trkpt>
      <trkpt lat="44.89827" lon="4.69646">
        <ele>727.4</ele>
        <time>2026-05-04T07:17:38Z</time>
      </trkpt>
      <trkpt lat="44.89832" lon="4.69639">
        <ele>726</ele>
        <time>2026-05-04T07:17:43Z</time>
      </trkpt>
      <trkpt lat="44.89837" lon="4.69634">
        <ele>725.3</ele>
        <time>2026-05-04T07:17:48Z</time>
      </trkpt>
      <trkpt lat="44.89842" lon="4.69629">
        <ele>724.7</ele>
        <time>2026-05-04T07:17:53Z</time>
      </trkpt>
      <trkpt lat="44.89847" lon="4.69617">
        <ele>723.1</ele>
        <time>2026-05-04T07:17:58Z</time>
      </trkpt>
      <trkpt lat="44.89852" lon="4.69608">
        <ele>722.1</ele>
        <time>2026-05-04T07:18:03Z</time>
      </trkpt>
      <trkpt lat="44.89857" lon="4.69603">
        <ele>721.8</ele>
        <time>2026-05-04T07:18:08Z</time>
      </trkpt>
      <trkpt lat="44.89862" lon="4.69596">
        <ele>721.2</ele>
        <time>2026-05-04T07:18:13Z</time>
      </trkpt>
      <trkpt lat="44.89864" lon="4.6959">
        <ele>720.6</ele>
        <time>2026-05-04T07:18:18Z</time>
      </trkpt>
      <trkpt lat="44.89864" lon="4.69586">
        <ele>720.1</ele>
        <time>2026-05-04T07:18:23Z</time>
      </trkpt>
      <trkpt lat="44.89864" lon="4.69585">
        <ele>719.9</ele>
        <time>2026-05-04T07:18:28Z</time>
      </trkpt>
      <trkpt lat="44.89864" lon="4.69585">
        <ele>719.9</ele>
        <time>2026-05-04T07:18:33Z</time>
      </trkpt>
      <trkpt lat="44.89864" lon="4.69585">
        <ele>719.9</ele>
        <time>2026-05-04T07:18:38Z</time>
      </trkpt>
      <trkpt lat="44.89864" lon="4.69585">
        <ele>719.9</ele>
        <time>2026-05-04T07:18:43Z</time>
      </trkpt>
      <trkpt lat="44.89864" lon="4.69585">
        <ele>719.9</ele>
        <time>2026-05-04T07:18:48Z</time>
      </trkpt>
      <trkpt lat="44.89864" lon="4.69585">
        <ele>719.9</ele>
        <time>2026-05-04T07:18:53Z</time>
      </trkpt>
      <trkpt lat="44.89864" lon="4.69585">
        <ele>719.9</ele>
        <time>2026-05-04T07:18:58Z</time>
      </trkpt>
      <trkpt lat="44.89864" lon="4.69585">
        <ele>719.9</ele>
        <time>2026-05-04T07:19:03Z</time>
      </trkpt>
      <trkpt lat="44.89864" lon="4.69585">
        <ele>719.9</ele>
        <time>2026-05-04T07:19:08Z</time>
      </trkpt>
      <trkpt lat="44.89864" lon="4.69585">
        <ele>719.9</ele>
        <time>2026-05-04T07:19:13Z</time>
      </trkpt>
      <trkpt lat="44.89864" lon="4.69585">
        <ele>719.9</ele>
        <time>2026-05-04T07:19:18Z</time>
      </trkpt>
      <trkpt lat="44.89864" lon="4.69585">
        <ele>719.9</ele>
        <time>2026-05-04T07:19:23Z</time>
      </trkpt>
      <trkpt lat="44.89862" lon="4.69577">
        <ele>718.2</ele>
        <time>2026-05-04T07:19:28Z</time>
      </trkpt>
      <trkpt lat="44.89863" lon="4.69566">
        <ele>716.2</ele>
        <time>2026-05-04T07:19:33Z</time>
      </trkpt>
      <trkpt lat="44.89867" lon="4.6956">
        <ele>715.6</ele>
        <time>2026-05-04T07:19:38Z</time>
      </trkpt>
      <trkpt lat="44.8987" lon="4.69557">
        <ele>715.6</ele>
        <time>2026-05-04T07:19:43Z</time>
      </trkpt>
      <trkpt lat="44.89873" lon="4.6955">
        <ele>714.8</ele>
        <time>2026-05-04T07:19:48Z</time>
      </trkpt>
      <trkpt lat="44.89876" lon="4.69541">
        <ele>713.8</ele>
        <time>2026-05-04T07:19:53Z</time>
      </trkpt>
      <trkpt lat="44.89877" lon="4.69532">
        <ele>712.5</ele>
        <time>2026-05-04T07:19:58Z</time>
      </trkpt>
      <trkpt lat="44.89877" lon="4.6952">
        <ele>710.5</ele>
        <time>2026-05-04T07:20:03Z</time>
      </trkpt>
      <trkpt lat="44.89878" lon="4.6951">
        <ele>709</ele>
        <time>2026-05-04T07:20:08Z</time>
      </trkpt>
      <trkpt lat="44.89878" lon="4.69501">
        <ele>707.5</ele>
        <time>2026-05-04T07:20:13Z</time>
      </trkpt>
      <trkpt lat="44.89877" lon="4.6949">
        <ele>706.8</ele>
        <time>2026-05-04T07:20:18Z</time>
      </trkpt>
      <trkpt lat="44.89876" lon="4.69479">
        <ele>706.2</ele>
        <time>2026-05-04T07:20:23Z</time>
      </trkpt>
      <trkpt lat="44.89877" lon="4.69471">
        <ele>706.3</ele>
        <time>2026-05-04T07:20:28Z</time>
      </trkpt>
      <trkpt lat="44.89878" lon="4.69463">
        <ele>706.4</ele>
        <time>2026-05-04T07:20:33Z</time>
      </trkpt>
      <trkpt lat="44.89878" lon="4.69455">
        <ele>706.2</ele>
        <time>2026-05-04T07:20:38Z</time>
      </trkpt>
      <trkpt lat="44.89874" lon="4.69449">
        <ele>704.6</ele>
        <time>2026-05-04T07:20:43Z</time>
      </trkpt>
      <trkpt lat="44.89867" lon="4.69445">
        <ele>701.9</ele>
        <time>2026-05-04T07:20:48Z</time>
      </trkpt>
      <trkpt lat="44.8986" lon="4.69446">
        <ele>699.5</ele>
        <time>2026-05-04T07:20:53Z</time>
      </trkpt>
      <trkpt lat="44.89858" lon="4.69452">
        <ele>699.1</ele>
        <time>2026-05-04T07:20:58Z</time>
      </trkpt>
      <trkpt lat="44.89856" lon="4.69458">
        <ele>698.7</ele>
        <time>2026-05-04T07:21:03Z</time>
      </trkpt>
      <trkpt lat="44.89853" lon="4.69466">
        <ele>698.2</ele>
        <time>2026-05-04T07:21:08Z</time>
      </trkpt>
      <trkpt lat="44.89848" lon="4.69472">
        <ele>697</ele>
        <time>2026-05-04T07:21:13Z</time>
      </trkpt>
      <trkpt lat="44.89844" lon="4.69477">
        <ele>696.1</ele>
        <time>2026-05-04T07:21:18Z</time>
      </trkpt>
      <trkpt lat="44.8984" lon="4.69482">
        <ele>695.3</ele>
        <time>2026-05-04T07:21:23Z</time>
      </trkpt>
      <trkpt lat="44.89838" lon="4.69482">
        <ele>694.7</ele>
        <time>2026-05-04T07:21:28Z</time>
      </trkpt>
      <trkpt lat="44.89838" lon="4.69482">
        <ele>694.7</ele>
        <time>2026-05-04T07:21:33Z</time>
      </trkpt>
      <trkpt lat="44.89838" lon="4.69482">
        <ele>694.7</ele>
        <time>2026-05-04T07:21:38Z</time>
      </trkpt>
      <trkpt lat="44.89838" lon="4.69482">
        <ele>694.7</ele>
        <time>2026-05-04T07:21:43Z</time>
      </trkpt>
      <trkpt lat="44.89837" lon="4.69473">
        <ele>693.6</ele>
        <time>2026-05-04T07:21:48Z</time>
      </trkpt>
      <trkpt lat="44.89838" lon="4.69465">
        <ele>693.2</ele>
        <time>2026-05-04T07:21:53Z</time>
      </trkpt>
      <trkpt lat="44.89838" lon="4.69454">
        <ele>692.2</ele>
        <time>2026-05-04T07:21:58Z</time>
      </trkpt>
      <trkpt lat="44.89836" lon="4.69442">
        <ele>690.4</ele>
        <time>2026-05-04T07:22:03Z</time>
      </trkpt>
      <trkpt lat="44.89838" lon="4.69433">
        <ele>690.4</ele>
        <time>2026-05-04T07:22:08Z</time>
      </trkpt>
      <trkpt lat="44.89834" lon="4.69424">
        <ele>688</ele>
        <time>2026-05-04T07:22:13Z</time>
      </trkpt>
      <trkpt lat="44.8983" lon="4.69414">
        <ele>686.3</ele>
        <time>2026-05-04T07:22:18Z</time>
      </trkpt>
      <trkpt lat="44.89827" lon="4.69404">
        <ele>686.3</ele>
        <time>2026-05-04T07:22:23Z</time>
      </trkpt>
      <trkpt lat="44.89822" lon="4.69394">
        <ele>685.6</ele>
        <time>2026-05-04T07:22:28Z</time>
      </trkpt>
      <trkpt lat="44.89819" lon="4.69385">
        <ele>685.4</ele>
        <time>2026-05-04T07:22:33Z</time>
      </trkpt>
      <trkpt lat="44.89813" lon="4.69374">
        <ele>684.2</ele>
        <time>2026-05-04T07:22:38Z</time>
      </trkpt>
      <trkpt lat="44.89807" lon="4.69363">
        <ele>682.9</ele>
        <time>2026-05-04T07:22:43Z</time>
      </trkpt>
      <trkpt lat="44.89803" lon="4.69356">
        <ele>682</ele>
        <time>2026-05-04T07:22:48Z</time>
      </trkpt>
      <trkpt lat="44.89799" lon="4.69348">
        <ele>681</ele>
        <time>2026-05-04T07:22:53Z</time>
      </trkpt>
      <trkpt lat="44.89795" lon="4.69339">
        <ele>680</ele>
        <time>2026-05-04T07:22:58Z</time>
      </trkpt>
      <trkpt lat="44.8979" lon="4.69333">
        <ele>678.4</ele>
        <time>2026-05-04T07:23:03Z</time>
      </trkpt>
      <trkpt lat="44.89786" lon="4.69326">
        <ele>677.9</ele>
        <time>2026-05-04T07:23:08Z</time>
      </trkpt>
      <trkpt lat="44.89781" lon="4.69316">
        <ele>677.4</ele>
        <time>2026-05-04T07:23:13Z</time>
      </trkpt>
      <trkpt lat="44.89776" lon="4.69308">
        <ele>676.6</ele>
        <time>2026-05-04T07:23:18Z</time>
      </trkpt>
      <trkpt lat="44.8977" lon="4.69302">
        <ele>675.1</ele>
        <time>2026-05-04T07:23:23Z</time>
      </trkpt>
      <trkpt lat="44.89765" lon="4.69297">
        <ele>673.8</ele>
        <time>2026-05-04T07:23:28Z</time>
      </trkpt>
      <trkpt lat="44.89763" lon="4.69302">
        <ele>672.3</ele>
        <time>2026-05-04T07:23:33Z</time>
      </trkpt>
      <trkpt lat="44.89764" lon="4.6931">
        <ele>671.6</ele>
        <time>2026-05-04T07:23:38Z</time>
      </trkpt>
      <trkpt lat="44.89765" lon="4.69318">
        <ele>670.9</ele>
        <time>2026-05-04T07:23:43Z</time>
      </trkpt>
      <trkpt lat="44.89764" lon="4.69327">
        <ele>669.3</ele>
        <time>2026-05-04T07:23:48Z</time>
      </trkpt>
      <trkpt lat="44.89763" lon="4.69335">
        <ele>668</ele>
        <time>2026-05-04T07:23:53Z</time>
      </trkpt>
      <trkpt lat="44.89763" lon="4.69347">
        <ele>667.8</ele>
        <time>2026-05-04T07:23:58Z</time>
      </trkpt>
      <trkpt lat="44.89765" lon="4.69356">
        <ele>668.4</ele>
        <time>2026-05-04T07:24:03Z</time>
      </trkpt>
      <trkpt lat="44.89765" lon="4.69366">
        <ele>668.2</ele>
        <time>2026-05-04T07:24:08Z</time>
      </trkpt>
      <trkpt lat="44.89765" lon="4.69377">
        <ele>668</ele>
        <time>2026-05-04T07:24:13Z</time>
      </trkpt>
      <trkpt lat="44.89765" lon="4.69385">
        <ele>667.9</ele>
        <time>2026-05-04T07:24:18Z</time>
      </trkpt>
      <trkpt lat="44.89768" lon="4.69395">
        <ele>668.6</ele>
        <time>2026-05-04T07:24:23Z</time>
      </trkpt>
      <trkpt lat="44.89767" lon="4.69407">
        <ele>668.1</ele>
        <time>2026-05-04T07:24:28Z</time>
      </trkpt>
      <trkpt lat="44.89767" lon="4.69418">
        <ele>668.2</ele>
        <time>2026-05-04T07:24:33Z</time>
      </trkpt>
      <trkpt lat="44.89767" lon="4.69432">
        <ele>671.1</ele>
        <time>2026-05-04T07:24:38Z</time>
      </trkpt>
      <trkpt lat="44.89762" lon="4.69442">
        <ele>672</ele>
        <time>2026-05-04T07:24:43Z</time>
      </trkpt>
      <trkpt lat="44.89757" lon="4.69435">
        <ele>669.2</ele>
        <time>2026-05-04T07:24:48Z</time>
      </trkpt>
      <trkpt lat="44.89754" lon="4.69427">
        <ele>666.6</ele>
        <time>2026-05-04T07:24:53Z</time>
      </trkpt>
      <trkpt lat="44.89751" lon="4.69418">
        <ele>663.6</ele>
        <time>2026-05-04T07:24:58Z</time>
      </trkpt>
      <trkpt lat="44.8975" lon="4.6941">
        <ele>663</ele>
        <time>2026-05-04T07:25:03Z</time>
      </trkpt>
      <trkpt lat="44.89747" lon="4.69402">
        <ele>662.8</ele>
        <time>2026-05-04T07:25:08Z</time>
      </trkpt>
      <trkpt lat="44.89741" lon="4.69391">
        <ele>662.1</ele>
        <time>2026-05-04T07:25:13Z</time>
      </trkpt>
      <trkpt lat="44.89739" lon="4.69385">
        <ele>661.7</ele>
        <time>2026-05-04T07:25:18Z</time>
      </trkpt>
      <trkpt lat="44.89737" lon="4.69384">
        <ele>661.5</ele>
        <time>2026-05-04T07:25:23Z</time>
      </trkpt>
      <trkpt lat="44.89734" lon="4.69382">
        <ele>661</ele>
        <time>2026-05-04T07:25:28Z</time>
      </trkpt>
      <trkpt lat="44.89734" lon="4.69382">
        <ele>661</ele>
        <time>2026-05-04T07:25:33Z</time>
      </trkpt>
      <trkpt lat="44.89734" lon="4.69382">
        <ele>661</ele>
        <time>2026-05-04T07:25:38Z</time>
      </trkpt>
      <trkpt lat="44.89734" lon="4.69382">
        <ele>661</ele>
        <time>2026-05-04T07:25:43Z</time>
      </trkpt>
      <trkpt lat="44.89732" lon="4.69381">
        <ele>660.7</ele>
        <time>2026-05-04T07:25:48Z</time>
      </trkpt>
      <trkpt lat="44.89729" lon="4.69376">
        <ele>660.1</ele>
        <time>2026-05-04T07:25:53Z</time>
      </trkpt>
      <trkpt lat="44.89726" lon="4.69375">
        <ele>659.7</ele>
        <time>2026-05-04T07:25:58Z</time>
      </trkpt>
      <trkpt lat="44.89726" lon="4.69374">
        <ele>659.6</ele>
        <time>2026-05-04T07:26:03Z</time>
      </trkpt>
      <trkpt lat="44.89721" lon="4.69367">
        <ele>658.5</ele>
        <time>2026-05-04T07:26:08Z</time>
      </trkpt>
      <trkpt lat="44.89715" lon="4.69361">
        <ele>657.1</ele>
        <time>2026-05-04T07:26:13Z</time>
      </trkpt>
      <trkpt lat="44.8971" lon="4.69354">
        <ele>655.7</ele>
        <time>2026-05-04T07:26:18Z</time>
      </trkpt>
      <trkpt lat="44.89703" lon="4.69349">
        <ele>653.9</ele>
        <time>2026-05-04T07:26:23Z</time>
      </trkpt>
      <trkpt lat="44.89698" lon="4.69342">
        <ele>652.1</ele>
        <time>2026-05-04T07:26:28Z</time>
      </trkpt>
      <trkpt lat="44.89695" lon="4.69335">
        <ele>650.7</ele>
        <time>2026-05-04T07:26:33Z</time>
      </trkpt>
      <trkpt lat="44.89692" lon="4.69328">
        <ele>649.9</ele>
        <time>2026-05-04T07:26:38Z</time>
      </trkpt>
      <trkpt lat="44.89687" lon="4.69322">
        <ele>648.8</ele>
        <time>2026-05-04T07:26:43Z</time>
      </trkpt>
      <trkpt lat="44.89681" lon="4.69315">
        <ele>647.3</ele>
        <time>2026-05-04T07:26:48Z</time>
      </trkpt>
      <trkpt lat="44.89673" lon="4.69311">
        <ele>645.2</ele>
        <time>2026-05-04T07:26:53Z</time>
      </trkpt>
      <trkpt lat="44.89666" lon="4.69306">
        <ele>643.3</ele>
        <time>2026-05-04T07:26:58Z</time>
      </trkpt>
      <trkpt lat="44.89659" lon="4.69303">
        <ele>642.3</ele>
        <time>2026-05-04T07:27:03Z</time>
      </trkpt>
      <trkpt lat="44.89656" lon="4.69299">
        <ele>641.7</ele>
        <time>2026-05-04T07:27:08Z</time>
      </trkpt>
      <trkpt lat="44.89652" lon="4.69294">
        <ele>640.9</ele>
        <time>2026-05-04T07:27:13Z</time>
      </trkpt>
      <trkpt lat="44.89651" lon="4.69292">
        <ele>640.7</ele>
        <time>2026-05-04T07:27:18Z</time>
      </trkpt>
      <trkpt lat="44.89651" lon="4.69292">
        <ele>640.7</ele>
        <time>2026-05-04T07:27:23Z</time>
      </trkpt>
      <trkpt lat="44.89651" lon="4.69292">
        <ele>640.7</ele>
        <time>2026-05-04T07:27:28Z</time>
      </trkpt>
      <trkpt lat="44.8965" lon="4.69286">
        <ele>640.2</ele>
        <time>2026-05-04T07:27:33Z</time>
      </trkpt>
      <trkpt lat="44.89645" lon="4.6928">
        <ele>639</ele>
        <time>2026-05-04T07:27:38Z</time>
      </trkpt>
      <trkpt lat="44.89641" lon="4.69276">
        <ele>638</ele>
        <time>2026-05-04T07:27:43Z</time>
      </trkpt>
      <trkpt lat="44.89634" lon="4.6927">
        <ele>636.3</ele>
        <time>2026-05-04T07:27:48Z</time>
      </trkpt>
      <trkpt lat="44.89629" lon="4.69264">
        <ele>634.7</ele>
        <time>2026-05-04T07:27:53Z</time>
      </trkpt>
      <trkpt lat="44.89624" lon="4.69257">
        <ele>633</ele>
        <time>2026-05-04T07:27:58Z</time>
      </trkpt>
      <trkpt lat="44.8962" lon="4.69252">
        <ele>631.6</ele>
        <time>2026-05-04T07:28:03Z</time>
      </trkpt>
      <trkpt lat="44.89615" lon="4.69246">
        <ele>630.2</ele>
        <time>2026-05-04T07:28:08Z</time>
      </trkpt>
      <trkpt lat="44.89611" lon="4.69236">
        <ele>629.2</ele>
        <time>2026-05-04T07:28:13Z</time>
      </trkpt>
      <trkpt lat="44.89607" lon="4.69228">
        <ele>628.2</ele>
        <time>2026-05-04T07:28:18Z</time>
      </trkpt>
      <trkpt lat="44.89602" lon="4.69219">
        <ele>626.7</ele>
        <time>2026-05-04T07:28:23Z</time>
      </trkpt>
      <trkpt lat="44.89596" lon="4.6921">
        <ele>624.8</ele>
        <time>2026-05-04T07:28:28Z</time>
      </trkpt>
      <trkpt lat="44.8959" lon="4.69202">
        <ele>622.7</ele>
        <time>2026-05-04T07:28:33Z</time>
      </trkpt>
      <trkpt lat="44.89587" lon="4.69193">
        <ele>621.4</ele>
        <time>2026-05-04T07:28:38Z</time>
      </trkpt>
      <trkpt lat="44.89587" lon="4.69187">
        <ele>621.2</ele>
        <time>2026-05-04T07:28:43Z</time>
      </trkpt>
      <trkpt lat="44.89587" lon="4.69177">
        <ele>620.8</ele>
        <time>2026-05-04T07:28:48Z</time>
      </trkpt>
      <trkpt lat="44.89589" lon="4.69166">
        <ele>621.1</ele>
        <time>2026-05-04T07:28:53Z</time>
      </trkpt>
      <trkpt lat="44.89586" lon="4.69159">
        <ele>620.5</ele>
        <time>2026-05-04T07:28:58Z</time>
      </trkpt>
      <trkpt lat="44.89587" lon="4.69151">
        <ele>621.5</ele>
        <time>2026-05-04T07:29:03Z</time>
      </trkpt>
      <trkpt lat="44.89586" lon="4.69141">
        <ele>621.8</ele>
        <time>2026-05-04T07:29:08Z</time>
      </trkpt>
      <trkpt lat="44.89585" lon="4.69132">
        <ele>622.1</ele>
        <time>2026-05-04T07:29:13Z</time>
      </trkpt>
      <trkpt lat="44.89583" lon="4.69118">
        <ele>622.4</ele>
        <time>2026-05-04T07:29:18Z</time>
      </trkpt>
      <trkpt lat="44.89579" lon="4.69105">
        <ele>622.6</ele>
        <time>2026-05-04T07:29:23Z</time>
      </trkpt>
      <trkpt lat="44.89575" lon="4.69095">
        <ele>622.3</ele>
        <time>2026-05-04T07:29:28Z</time>
      </trkpt>
      <trkpt lat="44.89569" lon="4.69081">
        <ele>622</ele>
        <time>2026-05-04T07:29:33Z</time>
      </trkpt>
      <trkpt lat="44.89563" lon="4.69071">
        <ele>622.5</ele>
        <time>2026-05-04T07:29:38Z</time>
      </trkpt>
      <trkpt lat="44.89558" lon="4.6906">
        <ele>623.3</ele>
        <time>2026-05-04T07:29:43Z</time>
      </trkpt>
      <trkpt lat="44.89555" lon="4.69052">
        <ele>624.1</ele>
        <time>2026-05-04T07:29:48Z</time>
      </trkpt>
      <trkpt lat="44.89552" lon="4.69043">
        <ele>625</ele>
        <time>2026-05-04T07:29:53Z</time>
      </trkpt>
      <trkpt lat="44.89548" lon="4.69035">
        <ele>625.4</ele>
        <time>2026-05-04T07:29:58Z</time>
      </trkpt>
      <trkpt lat="44.89543" lon="4.69026">
        <ele>625.7</ele>
        <time>2026-05-04T07:30:03Z</time>
      </trkpt>
      <trkpt lat="44.89538" lon="4.69019">
        <ele>625.6</ele>
        <time>2026-05-04T07:30:08Z</time>
      </trkpt>
      <trkpt lat="44.8953" lon="4.69013">
        <ele>624.4</ele>
        <time>2026-05-04T07:30:13Z</time>
      </trkpt>
      <trkpt lat="44.89523" lon="4.69005">
        <ele>623.8</ele>
        <time>2026-05-04T07:30:18Z</time>
      </trkpt>
      <trkpt lat="44.89517" lon="4.68999">
        <ele>623.2</ele>
        <time>2026-05-04T07:30:23Z</time>
      </trkpt>
      <trkpt lat="44.89511" lon="4.68992">
        <ele>623.2</ele>
        <time>2026-05-04T07:30:28Z</time>
      </trkpt>
      <trkpt lat="44.89506" lon="4.68986">
        <ele>623.3</ele>
        <time>2026-05-04T07:30:33Z</time>
      </trkpt>
      <trkpt lat="44.89501" lon="4.68979">
        <ele>623.6</ele>
        <time>2026-05-04T07:30:38Z</time>
      </trkpt>
      <trkpt lat="44.89497" lon="4.68974">
        <ele>623.8</ele>
        <time>2026-05-04T07:30:43Z</time>
      </trkpt>
      <trkpt lat="44.8949" lon="4.6897">
        <ele>623.1</ele>
        <time>2026-05-04T07:30:48Z</time>
      </trkpt>
      <trkpt lat="44.89484" lon="4.68968">
        <ele>622</ele>
        <time>2026-05-04T07:30:53Z</time>
      </trkpt>
      <trkpt lat="44.8948" lon="4.68968">
        <ele>621</ele>
        <time>2026-05-04T07:30:58Z</time>
      </trkpt>
      <trkpt lat="44.89473" lon="4.68962">
        <ele>620.7</ele>
        <time>2026-05-04T07:31:03Z</time>
      </trkpt>
      <trkpt lat="44.89467" lon="4.68955">
        <ele>620.7</ele>
        <time>2026-05-04T07:31:08Z</time>
      </trkpt>
      <trkpt lat="44.89464" lon="4.6895">
        <ele>621.1</ele>
        <time>2026-05-04T07:31:13Z</time>
      </trkpt>
      <trkpt lat="44.8946" lon="4.68945">
        <ele>621.2</ele>
        <time>2026-05-04T07:31:18Z</time>
      </trkpt>
      <trkpt lat="44.89455" lon="4.68942">
        <ele>620.5</ele>
        <time>2026-05-04T07:31:23Z</time>
      </trkpt>
      <trkpt lat="44.8945" lon="4.68936">
        <ele>620.4</ele>
        <time>2026-05-04T07:31:28Z</time>
      </trkpt>
      <trkpt lat="44.89446" lon="4.68929">
        <ele>620.8</ele>
        <time>2026-05-04T07:31:33Z</time>
      </trkpt>
      <trkpt lat="44.89441" lon="4.68923">
        <ele>620.7</ele>
        <time>2026-05-04T07:31:38Z</time>
      </trkpt>
      <trkpt lat="44.89434" lon="4.68918">
        <ele>619.7</ele>
        <time>2026-05-04T07:31:43Z</time>
      </trkpt>
      <trkpt lat="44.89429" lon="4.68913">
        <ele>619.5</ele>
        <time>2026-05-04T07:31:48Z</time>
      </trkpt>
      <trkpt lat="44.89423" lon="4.68907">
        <ele>619.3</ele>
        <time>2026-05-04T07:31:53Z</time>
      </trkpt>
      <trkpt lat="44.89415" lon="4.68901">
        <ele>618.5</ele>
        <time>2026-05-04T07:31:58Z</time>
      </trkpt>
      <trkpt lat="44.89407" lon="4.68894">
        <ele>618.1</ele>
        <time>2026-05-04T07:32:03Z</time>
      </trkpt>
      <trkpt lat="44.89401" lon="4.68888">
        <ele>617.8</ele>
        <time>2026-05-04T07:32:08Z</time>
      </trkpt>
      <trkpt lat="44.89396" lon="4.68878">
        <ele>618.7</ele>
        <time>2026-05-04T07:32:13Z</time>
      </trkpt>
      <trkpt lat="44.8939" lon="4.68872">
        <ele>618.3</ele>
        <time>2026-05-04T07:32:18Z</time>
      </trkpt>
      <trkpt lat="44.89386" lon="4.68864">
        <ele>618.9</ele>
        <time>2026-05-04T07:32:23Z</time>
      </trkpt>
      <trkpt lat="44.89381" lon="4.68854">
        <ele>619.6</ele>
        <time>2026-05-04T07:32:28Z</time>
      </trkpt>
      <trkpt lat="44.89377" lon="4.68847">
        <ele>619.8</ele>
        <time>2026-05-04T07:32:33Z</time>
      </trkpt>
      <trkpt lat="44.89371" lon="4.68839">
        <ele>619.5</ele>
        <time>2026-05-04T07:32:38Z</time>
      </trkpt>
      <trkpt lat="44.89364" lon="4.68832">
        <ele>618.6</ele>
        <time>2026-05-04T07:32:43Z</time>
      </trkpt>
      <trkpt lat="44.89356" lon="4.68827">
        <ele>617</ele>
        <time>2026-05-04T07:32:48Z</time>
      </trkpt>
      <trkpt lat="44.89352" lon="4.68819">
        <ele>617.4</ele>
        <time>2026-05-04T07:32:53Z</time>
      </trkpt>
      <trkpt lat="44.89347" lon="4.68815">
        <ele>616.6</ele>
        <time>2026-05-04T07:32:58Z</time>
      </trkpt>
      <trkpt lat="44.89342" lon="4.68809">
        <ele>616.2</ele>
        <time>2026-05-04T07:33:03Z</time>
      </trkpt>
      <trkpt lat="44.89338" lon="4.68802">
        <ele>616.4</ele>
        <time>2026-05-04T07:33:08Z</time>
      </trkpt>
      <trkpt lat="44.89333" lon="4.68796">
        <ele>616</ele>
        <time>2026-05-04T07:33:13Z</time>
      </trkpt>
      <trkpt lat="44.89328" lon="4.6879">
        <ele>615.8</ele>
        <time>2026-05-04T07:33:18Z</time>
      </trkpt>
      <trkpt lat="44.89323" lon="4.68782">
        <ele>615.9</ele>
        <time>2026-05-04T07:33:23Z</time>
      </trkpt>
      <trkpt lat="44.89318" lon="4.68774">
        <ele>616</ele>
        <time>2026-05-04T07:33:28Z</time>
      </trkpt>
      <trkpt lat="44.89311" lon="4.68766">
        <ele>615.3</ele>
        <time>2026-05-04T07:33:33Z</time>
      </trkpt>
      <trkpt lat="44.89308" lon="4.68757">
        <ele>616.1</ele>
        <time>2026-05-04T07:33:38Z</time>
      </trkpt>
      <trkpt lat="44.89304" lon="4.6875">
        <ele>616.1</ele>
        <time>2026-05-04T07:33:43Z</time>
      </trkpt>
      <trkpt lat="44.89299" lon="4.68741">
        <ele>615.2</ele>
        <time>2026-05-04T07:33:48Z</time>
      </trkpt>
      <trkpt lat="44.89295" lon="4.68732">
        <ele>614.5</ele>
        <time>2026-05-04T07:33:53Z</time>
      </trkpt>
      <trkpt lat="44.89291" lon="4.68721">
        <ele>614</ele>
        <time>2026-05-04T07:33:58Z</time>
      </trkpt>
      <trkpt lat="44.89285" lon="4.68712">
        <ele>612.8</ele>
        <time>2026-05-04T07:34:03Z</time>
      </trkpt>
      <trkpt lat="44.89281" lon="4.68703">
        <ele>612.2</ele>
        <time>2026-05-04T07:34:08Z</time>
      </trkpt>
      <trkpt lat="44.89277" lon="4.68693">
        <ele>611.6</ele>
        <time>2026-05-04T07:34:13Z</time>
      </trkpt>
      <trkpt lat="44.89276" lon="4.68685">
        <ele>612</ele>
        <time>2026-05-04T07:34:18Z</time>
      </trkpt>
      <trkpt lat="44.89275" lon="4.68678">
        <ele>612.2</ele>
        <time>2026-05-04T07:34:23Z</time>
      </trkpt>
      <trkpt lat="44.89275" lon="4.68674">
        <ele>612.5</ele>
        <time>2026-05-04T07:34:28Z</time>
      </trkpt>
      <trkpt lat="44.89276" lon="4.68673">
        <ele>612.9</ele>
        <time>2026-05-04T07:34:33Z</time>
      </trkpt>
      <trkpt lat="44.89276" lon="4.68673">
        <ele>612.9</ele>
        <time>2026-05-04T07:34:38Z</time>
      </trkpt>
      <trkpt lat="44.89276" lon="4.68673">
        <ele>612.9</ele>
        <time>2026-05-04T07:34:43Z</time>
      </trkpt>
      <trkpt lat="44.89276" lon="4.68673">
        <ele>612.9</ele>
        <time>2026-05-04T07:34:48Z</time>
      </trkpt>
      <trkpt lat="44.89275" lon="4.68672">
        <ele>612.7</ele>
        <time>2026-05-04T07:34:53Z</time>
      </trkpt>
      <trkpt lat="44.89275" lon="4.68672">
        <ele>612.7</ele>
        <time>2026-05-04T07:34:58Z</time>
      </trkpt>
      <trkpt lat="44.89275" lon="4.68672">
        <ele>612.7</ele>
        <time>2026-05-04T07:35:03Z</time>
      </trkpt>
      <trkpt lat="44.89275" lon="4.68672">
        <ele>612.7</ele>
        <time>2026-05-04T07:35:08Z</time>
      </trkpt>
      <trkpt lat="44.89275" lon="4.68672">
        <ele>612.7</ele>
        <time>2026-05-04T07:35:13Z</time>
      </trkpt>
      <trkpt lat="44.89275" lon="4.68672">
        <ele>612.7</ele>
        <time>2026-05-04T07:35:18Z</time>
      </trkpt>
      <trkpt lat="44.89275" lon="4.68672">
        <ele>612.7</ele>
        <time>2026-05-04T07:35:23Z</time>
      </trkpt>
      <trkpt lat="44.89275" lon="4.68672">
        <ele>612.7</ele>
        <time>2026-05-04T07:35:28Z</time>
      </trkpt>
      <trkpt lat="44.89275" lon="4.68672">
        <ele>612.7</ele>
        <time>2026-05-04T07:35:33Z</time>
      </trkpt>
      <trkpt lat="44.89275" lon="4.68672">
        <ele>612.7</ele>
        <time>2026-05-04T07:35:38Z</time>
      </trkpt>
      <trkpt lat="44.89275" lon="4.68672">
        <ele>612.7</ele>
        <time>2026-05-04T07:35:43Z</time>
      </trkpt>
      <trkpt lat="44.89275" lon="4.68672">
        <ele>612.7</ele>
        <time>2026-05-04T07:35:48Z</time>
      </trkpt>
      <trkpt lat="44.89275" lon="4.68672">
        <ele>612.7</ele>
        <time>2026-05-04T07:35:53Z</time>
      </trkpt>
      <trkpt lat="44.89275" lon="4.68672">
        <ele>612.7</ele>
        <time>2026-05-04T07:35:58Z</time>
      </trkpt>
      <trkpt lat="44.89275" lon="4.68672">
        <ele>612.7</ele>
        <time>2026-05-04T07:36:03Z</time>
      </trkpt>
      <trkpt lat="44.89275" lon="4.68672">
        <ele>612.7</ele>
        <time>2026-05-04T07:36:08Z</time>
      </trkpt>
      <trkpt lat="44.89275" lon="4.68672">
        <ele>612.7</ele>
        <time>2026-05-04T07:36:13Z</time>
      </trkpt>
      <trkpt lat="44.89275" lon="4.68672">
        <ele>612.7</ele>
        <time>2026-05-04T07:36:18Z</time>
      </trkpt>
      <trkpt lat="44.8928" lon="4.68662">
        <ele>614.6</ele>
        <time>2026-05-04T07:36:23Z</time>
      </trkpt>
      <trkpt lat="44.89285" lon="4.68657">
        <ele>616.1</ele>
        <time>2026-05-04T07:36:28Z</time>
      </trkpt>
      <trkpt lat="44.89287" lon="4.68646">
        <ele>616.5</ele>
        <time>2026-05-04T07:36:33Z</time>
      </trkpt>
      <trkpt lat="44.89293" lon="4.68643">
        <ele>618.4</ele>
        <time>2026-05-04T07:36:38Z</time>
      </trkpt>
      <trkpt lat="44.89301" lon="4.68639">
        <ele>620.9</ele>
        <time>2026-05-04T07:36:43Z</time>
      </trkpt>
      <trkpt lat="44.89306" lon="4.6863">
        <ele>622.3</ele>
        <time>2026-05-04T07:36:48Z</time>
      </trkpt>
      <trkpt lat="44.89311" lon="4.68618">
        <ele>623.6</ele>
        <time>2026-05-04T07:36:53Z</time>
      </trkpt>
      <trkpt lat="44.89313" lon="4.68609">
        <ele>624</ele>
        <time>2026-05-04T07:36:58Z</time>
      </trkpt>
      <trkpt lat="44.89315" lon="4.68602">
        <ele>624.5</ele>
        <time>2026-05-04T07:37:03Z</time>
      </trkpt>
      <trkpt lat="44.89317" lon="4.68595">
        <ele>625</ele>
        <time>2026-05-04T07:37:08Z</time>
      </trkpt>
      <trkpt lat="44.8932" lon="4.68586">
        <ele>625.7</ele>
        <time>2026-05-04T07:37:13Z</time>
      </trkpt>
      <trkpt lat="44.89323" lon="4.68578">
        <ele>626.4</ele>
        <time>2026-05-04T07:37:18Z</time>
      </trkpt>
      <trkpt lat="44.89326" lon="4.68568">
        <ele>626.8</ele>
        <time>2026-05-04T07:37:23Z</time>
      </trkpt>
      <trkpt lat="44.89331" lon="4.68559">
        <ele>627.8</ele>
        <time>2026-05-04T07:37:28Z</time>
      </trkpt>
      <trkpt lat="44.89335" lon="4.6855">
        <ele>628.4</ele>
        <time>2026-05-04T07:37:33Z</time>
      </trkpt>
      <trkpt lat="44.8934" lon="4.68541">
        <ele>629.2</ele>
        <time>2026-05-04T07:37:38Z</time>
      </trkpt>
      <trkpt lat="44.89344" lon="4.68531">
        <ele>629.6</ele>
        <time>2026-05-04T07:37:43Z</time>
      </trkpt>
      <trkpt lat="44.89346" lon="4.68521">
        <ele>629.5</ele>
        <time>2026-05-04T07:37:48Z</time>
      </trkpt>
      <trkpt lat="44.89348" lon="4.68512">
        <ele>629.4</ele>
        <time>2026-05-04T07:37:53Z</time>
      </trkpt>
      <trkpt lat="44.89352" lon="4.68503">
        <ele>629.9</ele>
        <time>2026-05-04T07:37:58Z</time>
      </trkpt>
      <trkpt lat="44.89353" lon="4.68491">
        <ele>629.2</ele>
        <time>2026-05-04T07:38:03Z</time>
      </trkpt>
      <trkpt lat="44.89358" lon="4.68481">
        <ele>629.6</ele>
        <time>2026-05-04T07:38:08Z</time>
      </trkpt>
      <trkpt lat="44.89362" lon="4.68471">
        <ele>629.8</ele>
        <time>2026-05-04T07:38:13Z</time>
      </trkpt>
      <trkpt lat="44.89366" lon="4.68464">
        <ele>630.3</ele>
        <time>2026-05-04T07:38:18Z</time>
      </trkpt>
      <trkpt lat="44.8937" lon="4.68454">
        <ele>630.6</ele>
        <time>2026-05-04T07:38:23Z</time>
      </trkpt>
      <trkpt lat="44.89374" lon="4.68444">
        <ele>630.9</ele>
        <time>2026-05-04T07:38:28Z</time>
      </trkpt>
      <trkpt lat="44.89378" lon="4.68435">
        <ele>631.3</ele>
        <time>2026-05-04T07:38:33Z</time>
      </trkpt>
      <trkpt lat="44.8938" lon="4.68425">
        <ele>631.1</ele>
        <time>2026-05-04T07:38:38Z</time>
      </trkpt>
      <trkpt lat="44.89383" lon="4.68414">
        <ele>631.4</ele>
        <time>2026-05-04T07:38:43Z</time>
      </trkpt>
      <trkpt lat="44.89385" lon="4.68403">
        <ele>632.3</ele>
        <time>2026-05-04T07:38:48Z</time>
      </trkpt>
      <trkpt lat="44.89388" lon="4.68389">
        <ele>633.6</ele>
        <time>2026-05-04T07:38:53Z</time>
      </trkpt>
      <trkpt lat="44.89391" lon="4.68378">
        <ele>634.6</ele>
        <time>2026-05-04T07:38:58Z</time>
      </trkpt>
      <trkpt lat="44.89394" lon="4.68367">
        <ele>635.5</ele>
        <time>2026-05-04T07:39:03Z</time>
      </trkpt>
      <trkpt lat="44.89395" lon="4.68363">
        <ele>635.8</ele>
        <time>2026-05-04T07:39:08Z</time>
      </trkpt>
      <trkpt lat="44.89395" lon="4.6836">
        <ele>635.8</ele>
        <time>2026-05-04T07:39:13Z</time>
      </trkpt>
      <trkpt lat="44.89396" lon="4.68351">
        <ele>636.2</ele>
        <time>2026-05-04T07:39:18Z</time>
      </trkpt>
      <trkpt lat="44.894" lon="4.68342">
        <ele>637.1</ele>
        <time>2026-05-04T07:39:23Z</time>
      </trkpt>
      <trkpt lat="44.894" lon="4.68331">
        <ele>637.4</ele>
        <time>2026-05-04T07:39:28Z</time>
      </trkpt>
      <trkpt lat="44.89405" lon="4.6832">
        <ele>639</ele>
        <time>2026-05-04T07:39:33Z</time>
      </trkpt>
      <trkpt lat="44.89409" lon="4.68311">
        <ele>640.1</ele>
        <time>2026-05-04T07:39:38Z</time>
      </trkpt>
      <trkpt lat="44.89412" lon="4.68301">
        <ele>641.1</ele>
        <time>2026-05-04T07:39:43Z</time>
      </trkpt>
      <trkpt lat="44.89414" lon="4.68296">
        <ele>641.5</ele>
        <time>2026-05-04T07:39:48Z</time>
      </trkpt>
      <trkpt lat="44.89411" lon="4.6829">
        <ele>641.6</ele>
        <time>2026-05-04T07:39:53Z</time>
      </trkpt>
      <trkpt lat="44.89409" lon="4.68286">
        <ele>641.7</ele>
        <time>2026-05-04T07:39:58Z</time>
      </trkpt>
      <trkpt lat="44.89409" lon="4.68286">
        <ele>641.7</ele>
        <time>2026-05-04T07:40:03Z</time>
      </trkpt>
      <trkpt lat="44.89408" lon="4.68286">
        <ele>641.6</ele>
        <time>2026-05-04T07:40:08Z</time>
      </trkpt>
      <trkpt lat="44.89406" lon="4.68285">
        <ele>641.5</ele>
        <time>2026-05-04T07:40:13Z</time>
      </trkpt>
      <trkpt lat="44.89406" lon="4.68285">
        <ele>641.5</ele>
        <time>2026-05-04T07:40:18Z</time>
      </trkpt>
      <trkpt lat="44.89401" lon="4.68283">
        <ele>641.3</ele>
        <time>2026-05-04T07:40:23Z</time>
      </trkpt>
      <trkpt lat="44.89394" lon="4.68281">
        <ele>640.9</ele>
        <time>2026-05-04T07:40:28Z</time>
      </trkpt>
      <trkpt lat="44.89388" lon="4.68282">
        <ele>640.4</ele>
        <time>2026-05-04T07:40:33Z</time>
      </trkpt>
      <trkpt lat="44.89382" lon="4.68273">
        <ele>641</ele>
        <time>2026-05-04T07:40:38Z</time>
      </trkpt>
      <trkpt lat="44.89376" lon="4.68269">
        <ele>641.2</ele>
        <time>2026-05-04T07:40:43Z</time>
      </trkpt>
      <trkpt lat="44.89368" lon="4.68266">
        <ele>641.2</ele>
        <time>2026-05-04T07:40:48Z</time>
      </trkpt>
      <trkpt lat="44.89362" lon="4.68264">
        <ele>641.2</ele>
        <time>2026-05-04T07:40:53Z</time>
      </trkpt>
      <trkpt lat="44.89356" lon="4.68265">
        <ele>640.8</ele>
        <time>2026-05-04T07:40:58Z</time>
      </trkpt>
      <trkpt lat="44.89348" lon="4.68265">
        <ele>640.5</ele>
        <time>2026-05-04T07:41:03Z</time>
      </trkpt>
      <trkpt lat="44.89341" lon="4.68266">
        <ele>640.1</ele>
        <time>2026-05-04T07:41:08Z</time>
      </trkpt>
      <trkpt lat="44.89336" lon="4.68266">
        <ele>639.8</ele>
        <time>2026-05-04T07:41:13Z</time>
      </trkpt>
      <trkpt lat="44.89331" lon="4.68264">
        <ele>639.9</ele>
        <time>2026-05-04T07:41:18Z</time>
      </trkpt>
      <trkpt lat="44.89327" lon="4.68262">
        <ele>639.9</ele>
        <time>2026-05-04T07:41:23Z</time>
      </trkpt>
      <trkpt lat="44.89323" lon="4.68256">
        <ele>640.7</ele>
        <time>2026-05-04T07:41:28Z</time>
      </trkpt>
      <trkpt lat="44.89319" lon="4.68247">
        <ele>641.9</ele>
        <time>2026-05-04T07:41:33Z</time>
      </trkpt>
      <trkpt lat="44.89315" lon="4.68237">
        <ele>642.6</ele>
        <time>2026-05-04T07:41:38Z</time>
      </trkpt>
      <trkpt lat="44.89309" lon="4.68229">
        <ele>642.9</ele>
        <time>2026-05-04T07:41:43Z</time>
      </trkpt>
      <trkpt lat="44.89304" lon="4.68221">
        <ele>643.3</ele>
        <time>2026-05-04T07:41:48Z</time>
      </trkpt>
      <trkpt lat="44.89299" lon="4.68216">
        <ele>643.5</ele>
        <time>2026-05-04T07:41:53Z</time>
      </trkpt>
      <trkpt lat="44.89294" lon="4.68209">
        <ele>643.9</ele>
        <time>2026-05-04T07:41:58Z</time>
      </trkpt>
      <trkpt lat="44.89289" lon="4.68205">
        <ele>643.9</ele>
        <time>2026-05-04T07:42:03Z</time>
      </trkpt>
      <trkpt lat="44.89284" lon="4.68201">
        <ele>644</ele>
        <time>2026-05-04T07:42:08Z</time>
      </trkpt>
      <trkpt lat="44.8928" lon="4.68196">
        <ele>644.3</ele>
        <time>2026-05-04T07:42:13Z</time>
      </trkpt>
      <trkpt lat="44.89276" lon="4.68192">
        <ele>644.5</ele>
        <time>2026-05-04T07:42:18Z</time>
      </trkpt>
      <trkpt lat="44.89271" lon="4.68189">
        <ele>644.5</ele>
        <time>2026-05-04T07:42:23Z</time>
      </trkpt>
      <trkpt lat="44.89266" lon="4.68187">
        <ele>644.4</ele>
        <time>2026-05-04T07:42:28Z</time>
      </trkpt>
      <trkpt lat="44.89262" lon="4.68187">
        <ele>644.1</ele>
        <time>2026-05-04T07:42:33Z</time>
      </trkpt>
      <trkpt lat="44.89258" lon="4.68183">
        <ele>644.4</ele>
        <time>2026-05-04T07:42:38Z</time>
      </trkpt>
      <trkpt lat="44.89253" lon="4.68182">
        <ele>644.2</ele>
        <time>2026-05-04T07:42:43Z</time>
      </trkpt>
      <trkpt lat="44.89249" lon="4.68177">
        <ele>644.5</ele>
        <time>2026-05-04T07:42:48Z</time>
      </trkpt>
      <trkpt lat="44.89242" lon="4.68176">
        <ele>643.6</ele>
        <time>2026-05-04T07:42:53Z</time>
      </trkpt>
      <trkpt lat="44.89235" lon="4.68172">
        <ele>643.2</ele>
        <time>2026-05-04T07:42:58Z</time>
      </trkpt>
      <trkpt lat="44.89228" lon="4.68169">
        <ele>642.7</ele>
        <time>2026-05-04T07:43:03Z</time>
      </trkpt>
      <trkpt lat="44.89221" lon="4.68163">
        <ele>642.4</ele>
        <time>2026-05-04T07:43:08Z</time>
      </trkpt>
      <trkpt lat="44.89217" lon="4.68156">
        <ele>642.4</ele>
        <time>2026-05-04T07:43:13Z</time>
      </trkpt>
      <trkpt lat="44.89214" lon="4.68146">
        <ele>642.7</ele>
        <time>2026-05-04T07:43:18Z</time>
      </trkpt>
      <trkpt lat="44.89209" lon="4.6814">
        <ele>642.5</ele>
        <time>2026-05-04T07:43:23Z</time>
      </trkpt>
      <trkpt lat="44.89203" lon="4.68134">
        <ele>642.2</ele>
        <time>2026-05-04T07:43:28Z</time>
      </trkpt>
      <trkpt lat="44.89196" lon="4.68129">
        <ele>641.7</ele>
        <time>2026-05-04T07:43:33Z</time>
      </trkpt>
      <trkpt lat="44.89188" lon="4.68123">
        <ele>641.2</ele>
        <time>2026-05-04T07:43:38Z</time>
      </trkpt>
      <trkpt lat="44.89182" lon="4.68119">
        <ele>640.8</ele>
        <time>2026-05-04T07:43:43Z</time>
      </trkpt>
      <trkpt lat="44.89175" lon="4.68114">
        <ele>640.4</ele>
        <time>2026-05-04T07:43:48Z</time>
      </trkpt>
      <trkpt lat="44.89166" lon="4.68109">
        <ele>639.7</ele>
        <time>2026-05-04T07:43:53Z</time>
      </trkpt>
      <trkpt lat="44.89158" lon="4.68103">
        <ele>638.3</ele>
        <time>2026-05-04T07:43:58Z</time>
      </trkpt>
      <trkpt lat="44.8915" lon="4.68101">
        <ele>636.6</ele>
        <time>2026-05-04T07:44:03Z</time>
      </trkpt>
      <trkpt lat="44.89143" lon="4.68099">
        <ele>635.2</ele>
        <time>2026-05-04T07:44:08Z</time>
      </trkpt>
      <trkpt lat="44.89137" lon="4.68098">
        <ele>633.9</ele>
        <time>2026-05-04T07:44:13Z</time>
      </trkpt>
      <trkpt lat="44.89128" lon="4.68093">
        <ele>632.3</ele>
        <time>2026-05-04T07:44:18Z</time>
      </trkpt>
      <trkpt lat="44.89121" lon="4.6809">
        <ele>630.9</ele>
        <time>2026-05-04T07:44:23Z</time>
      </trkpt>
      <trkpt lat="44.89114" lon="4.68088">
        <ele>629.5</ele>
        <time>2026-05-04T07:44:28Z</time>
      </trkpt>
      <trkpt lat="44.89107" lon="4.68088">
        <ele>627.9</ele>
        <time>2026-05-04T07:44:33Z</time>
      </trkpt>
      <trkpt lat="44.89104" lon="4.68086">
        <ele>627.4</ele>
        <time>2026-05-04T07:44:38Z</time>
      </trkpt>
      <trkpt lat="44.89101" lon="4.68084">
        <ele>627</ele>
        <time>2026-05-04T07:44:43Z</time>
      </trkpt>
      <trkpt lat="44.89098" lon="4.6808">
        <ele>626.3</ele>
        <time>2026-05-04T07:44:48Z</time>
      </trkpt>
      <trkpt lat="44.89091" lon="4.68076">
        <ele>624.6</ele>
        <time>2026-05-04T07:44:53Z</time>
      </trkpt>
      <trkpt lat="44.89085" lon="4.6807">
        <ele>623.2</ele>
        <time>2026-05-04T07:44:58Z</time>
      </trkpt>
      <trkpt lat="44.8908" lon="4.68065">
        <ele>622.3</ele>
        <time>2026-05-04T07:45:03Z</time>
      </trkpt>
      <trkpt lat="44.89074" lon="4.68064">
        <ele>621.4</ele>
        <time>2026-05-04T07:45:08Z</time>
      </trkpt>
      <trkpt lat="44.89069" lon="4.68061">
        <ele>620.7</ele>
        <time>2026-05-04T07:45:13Z</time>
      </trkpt>
      <trkpt lat="44.89062" lon="4.68059">
        <ele>619.7</ele>
        <time>2026-05-04T07:45:18Z</time>
      </trkpt>
      <trkpt lat="44.89054" lon="4.68058">
        <ele>618.6</ele>
        <time>2026-05-04T07:45:23Z</time>
      </trkpt>
      <trkpt lat="44.89047" lon="4.68057">
        <ele>617.7</ele>
        <time>2026-05-04T07:45:28Z</time>
      </trkpt>
      <trkpt lat="44.89042" lon="4.68056">
        <ele>617</ele>
        <time>2026-05-04T07:45:33Z</time>
      </trkpt>
      <trkpt lat="44.89038" lon="4.68055">
        <ele>616.5</ele>
        <time>2026-05-04T07:45:38Z</time>
      </trkpt>
      <trkpt lat="44.89032" lon="4.68056">
        <ele>615.7</ele>
        <time>2026-05-04T07:45:43Z</time>
      </trkpt>
      <trkpt lat="44.89026" lon="4.68057">
        <ele>614.8</ele>
        <time>2026-05-04T07:45:48Z</time>
      </trkpt>
      <trkpt lat="44.89019" lon="4.68055">
        <ele>614</ele>
        <time>2026-05-04T07:45:53Z</time>
      </trkpt>
      <trkpt lat="44.89014" lon="4.68051">
        <ele>613.5</ele>
        <time>2026-05-04T07:45:58Z</time>
      </trkpt>
      <trkpt lat="44.8901" lon="4.68049">
        <ele>613.2</ele>
        <time>2026-05-04T07:46:03Z</time>
      </trkpt>
      <trkpt lat="44.89005" lon="4.68046">
        <ele>612.8</ele>
        <time>2026-05-04T07:46:08Z</time>
      </trkpt>
      <trkpt lat="44.88999" lon="4.68044">
        <ele>612.1</ele>
        <time>2026-05-04T07:46:13Z</time>
      </trkpt>
      <trkpt lat="44.88993" lon="4.68043">
        <ele>611.1</ele>
        <time>2026-05-04T07:46:18Z</time>
      </trkpt>
      <trkpt lat="44.88988" lon="4.6804">
        <ele>610.4</ele>
        <time>2026-05-04T07:46:23Z</time>
      </trkpt>
      <trkpt lat="44.8898" lon="4.68038">
        <ele>609.1</ele>
        <time>2026-05-04T07:46:28Z</time>
      </trkpt>
      <trkpt lat="44.88973" lon="4.68036">
        <ele>608</ele>
        <time>2026-05-04T07:46:33Z</time>
      </trkpt>
      <trkpt lat="44.88968" lon="4.68032">
        <ele>607.5</ele>
        <time>2026-05-04T07:46:38Z</time>
      </trkpt>
      <trkpt lat="44.88963" lon="4.68028">
        <ele>607</ele>
        <time>2026-05-04T07:46:43Z</time>
      </trkpt>
      <trkpt lat="44.88957" lon="4.68025">
        <ele>606.2</ele>
        <time>2026-05-04T07:46:48Z</time>
      </trkpt>
      <trkpt lat="44.88952" lon="4.68021">
        <ele>605.7</ele>
        <time>2026-05-04T07:46:53Z</time>
      </trkpt>
      <trkpt lat="44.88945" lon="4.6802">
        <ele>604.6</ele>
        <time>2026-05-04T07:46:58Z</time>
      </trkpt>
      <trkpt lat="44.88939" lon="4.68021">
        <ele>603.4</ele>
        <time>2026-05-04T07:47:03Z</time>
      </trkpt>
      <trkpt lat="44.88934" lon="4.68021">
        <ele>602.5</ele>
        <time>2026-05-04T07:47:08Z</time>
      </trkpt>
      <trkpt lat="44.8893" lon="4.6802">
        <ele>602</ele>
        <time>2026-05-04T07:47:13Z</time>
      </trkpt>
      <trkpt lat="44.88925" lon="4.68018">
        <ele>601.3</ele>
        <time>2026-05-04T07:47:18Z</time>
      </trkpt>
      <trkpt lat="44.88922" lon="4.68015">
        <ele>601.1</ele>
        <time>2026-05-04T07:47:23Z</time>
      </trkpt>
      <trkpt lat="44.88916" lon="4.68012">
        <ele>600.4</ele>
        <time>2026-05-04T07:47:28Z</time>
      </trkpt>
      <trkpt lat="44.8891" lon="4.6801">
        <ele>599.7</ele>
        <time>2026-05-04T07:47:33Z</time>
      </trkpt>
      <trkpt lat="44.88906" lon="4.68005">
        <ele>599.6</ele>
        <time>2026-05-04T07:47:38Z</time>
      </trkpt>
      <trkpt lat="44.889" lon="4.68004">
        <ele>598.7</ele>
        <time>2026-05-04T07:47:43Z</time>
      </trkpt>
      <trkpt lat="44.88894" lon="4.68008">
        <ele>597.2</ele>
        <time>2026-05-04T07:47:48Z</time>
      </trkpt>
      <trkpt lat="44.88888" lon="4.68013">
        <ele>595.5</ele>
        <time>2026-05-04T07:47:53Z</time>
      </trkpt>
      <trkpt lat="44.88883" lon="4.68014">
        <ele>594.5</ele>
        <time>2026-05-04T07:47:58Z</time>
      </trkpt>
      <trkpt lat="44.88878" lon="4.68011">
        <ele>594</ele>
        <time>2026-05-04T07:48:03Z</time>
      </trkpt>
      <trkpt lat="44.88873" lon="4.68009">
        <ele>593.4</ele>
        <time>2026-05-04T07:48:08Z</time>
      </trkpt>
      <trkpt lat="44.88868" lon="4.68004">
        <ele>593.3</ele>
        <time>2026-05-04T07:48:13Z</time>
      </trkpt>
      <trkpt lat="44.88866" lon="4.67996">
        <ele>593.2</ele>
        <time>2026-05-04T07:48:18Z</time>
      </trkpt>
      <trkpt lat="44.88866" lon="4.67988">
        <ele>592.5</ele>
        <time>2026-05-04T07:48:23Z</time>
      </trkpt>
      <trkpt lat="44.88867" lon="4.67979">
        <ele>591.9</ele>
        <time>2026-05-04T07:48:28Z</time>
      </trkpt>
      <trkpt lat="44.88868" lon="4.67969">
        <ele>591.2</ele>
        <time>2026-05-04T07:48:33Z</time>
      </trkpt>
      <trkpt lat="44.88867" lon="4.67958">
        <ele>590.1</ele>
        <time>2026-05-04T07:48:38Z</time>
      </trkpt>
      <trkpt lat="44.88866" lon="4.67946">
        <ele>589</ele>
        <time>2026-05-04T07:48:43Z</time>
      </trkpt>
      <trkpt lat="44.88863" lon="4.67934">
        <ele>587.4</ele>
        <time>2026-05-04T07:48:48Z</time>
      </trkpt>
      <trkpt lat="44.88861" lon="4.67922">
        <ele>586.1</ele>
        <time>2026-05-04T07:48:53Z</time>
      </trkpt>
      <trkpt lat="44.8886" lon="4.67907">
        <ele>584.4</ele>
        <time>2026-05-04T07:48:58Z</time>
      </trkpt>
      <trkpt lat="44.88862" lon="4.67896">
        <ele>583.6</ele>
        <time>2026-05-04T07:49:03Z</time>
      </trkpt>
      <trkpt lat="44.88867" lon="4.67888">
        <ele>583.6</ele>
        <time>2026-05-04T07:49:08Z</time>
      </trkpt>
      <trkpt lat="44.88872" lon="4.67879">
        <ele>583.6</ele>
        <time>2026-05-04T07:49:13Z</time>
      </trkpt>
      <trkpt lat="44.88876" lon="4.6787">
        <ele>583.4</ele>
        <time>2026-05-04T07:49:18Z</time>
      </trkpt>
      <trkpt lat="44.88883" lon="4.67861">
        <ele>583.9</ele>
        <time>2026-05-04T07:49:23Z</time>
      </trkpt>
      <trkpt lat="44.8889" lon="4.67854">
        <ele>584.5</ele>
        <time>2026-05-04T07:49:28Z</time>
      </trkpt>
      <trkpt lat="44.88895" lon="4.67849">
        <ele>585</ele>
        <time>2026-05-04T07:49:33Z</time>
      </trkpt>
      <trkpt lat="44.889" lon="4.67844">
        <ele>585.6</ele>
        <time>2026-05-04T07:49:38Z</time>
      </trkpt>
      <trkpt lat="44.88907" lon="4.67843">
        <ele>586.9</ele>
        <time>2026-05-04T07:49:43Z</time>
      </trkpt>
      <trkpt lat="44.88917" lon="4.67843">
        <ele>588.8</ele>
        <time>2026-05-04T07:49:48Z</time>
      </trkpt>
      <trkpt lat="44.88924" lon="4.67844">
        <ele>589.5</ele>
        <time>2026-05-04T07:49:53Z</time>
      </trkpt>
      <trkpt lat="44.88929" lon="4.67846">
        <ele>590</ele>
        <time>2026-05-04T07:49:58Z</time>
      </trkpt>
      <trkpt lat="44.88936" lon="4.67847">
        <ele>590.7</ele>
        <time>2026-05-04T07:50:03Z</time>
      </trkpt>
      <trkpt lat="44.88946" lon="4.67847">
        <ele>591.5</ele>
        <time>2026-05-04T07:50:08Z</time>
      </trkpt>
      <trkpt lat="44.88956" lon="4.67846">
        <ele>592.2</ele>
        <time>2026-05-04T07:50:13Z</time>
      </trkpt>
      <trkpt lat="44.88967" lon="4.67844">
        <ele>592.8</ele>
        <time>2026-05-04T07:50:18Z</time>
      </trkpt>
      <trkpt lat="44.88975" lon="4.6784">
        <ele>593</ele>
        <time>2026-05-04T07:50:23Z</time>
      </trkpt>
      <trkpt lat="44.8898" lon="4.67832">
        <ele>592.3</ele>
        <time>2026-05-04T07:50:28Z</time>
      </trkpt>
      <trkpt lat="44.88983" lon="4.67821">
        <ele>590.4</ele>
        <time>2026-05-04T07:50:33Z</time>
      </trkpt>
      <trkpt lat="44.88987" lon="4.67813">
        <ele>589.1</ele>
        <time>2026-05-04T07:50:38Z</time>
      </trkpt>
      <trkpt lat="44.88992" lon="4.67807">
        <ele>588.2</ele>
        <time>2026-05-04T07:50:43Z</time>
      </trkpt>
      <trkpt lat="44.88997" lon="4.67807">
        <ele>588.5</ele>
        <time>2026-05-04T07:50:48Z</time>
      </trkpt>
      <trkpt lat="44.89" lon="4.67796">
        <ele>586.4</ele>
        <time>2026-05-04T07:50:53Z</time>
      </trkpt>
      <trkpt lat="44.89003" lon="4.67786">
        <ele>584.5</ele>
        <time>2026-05-04T07:50:58Z</time>
      </trkpt>
      <trkpt lat="44.89004" lon="4.67777">
        <ele>582.8</ele>
        <time>2026-05-04T07:51:03Z</time>
      </trkpt>
      <trkpt lat="44.89012" lon="4.67769">
        <ele>581.7</ele>
        <time>2026-05-04T07:51:08Z</time>
      </trkpt>
      <trkpt lat="44.89014" lon="4.67757">
        <ele>579.5</ele>
        <time>2026-05-04T07:51:13Z</time>
      </trkpt>
      <trkpt lat="44.89017" lon="4.67749">
        <ele>578.2</ele>
        <time>2026-05-04T07:51:18Z</time>
      </trkpt>
      <trkpt lat="44.89023" lon="4.6774">
        <ele>576.7</ele>
        <time>2026-05-04T07:51:23Z</time>
      </trkpt>
      <trkpt lat="44.89031" lon="4.67732">
        <ele>575.6</ele>
        <time>2026-05-04T07:51:28Z</time>
      </trkpt>
      <trkpt lat="44.89036" lon="4.6773">
        <ele>575.6</ele>
        <time>2026-05-04T07:51:33Z</time>
      </trkpt>
      <trkpt lat="44.89041" lon="4.6773">
        <ele>576.1</ele>
        <time>2026-05-04T07:51:38Z</time>
      </trkpt>
      <trkpt lat="44.89046" lon="4.67731">
        <ele>576.8</ele>
        <time>2026-05-04T07:51:43Z</time>
      </trkpt>
      <trkpt lat="44.89053" lon="4.67732">
        <ele>577.7</ele>
        <time>2026-05-04T07:51:48Z</time>
      </trkpt>
      <trkpt lat="44.8906" lon="4.67732">
        <ele>578.3</ele>
        <time>2026-05-04T07:51:53Z</time>
      </trkpt>
      <trkpt lat="44.89066" lon="4.67728">
        <ele>578.1</ele>
        <time>2026-05-04T07:51:58Z</time>
      </trkpt>
      <trkpt lat="44.89072" lon="4.67717">
        <ele>576.5</ele>
        <time>2026-05-04T07:52:03Z</time>
      </trkpt>
      <trkpt lat="44.89076" lon="4.67708">
        <ele>575.1</ele>
        <time>2026-05-04T07:52:08Z</time>
      </trkpt>
      <trkpt lat="44.89077" lon="4.67698">
        <ele>573.3</ele>
        <time>2026-05-04T07:52:13Z</time>
      </trkpt>
      <trkpt lat="44.8908" lon="4.67687">
        <ele>571.5</ele>
        <time>2026-05-04T07:52:18Z</time>
      </trkpt>
      <trkpt lat="44.89079" lon="4.67679">
        <ele>569.8</ele>
        <time>2026-05-04T07:52:23Z</time>
      </trkpt>
      <trkpt lat="44.89081" lon="4.6767">
        <ele>568.3</ele>
        <time>2026-05-04T07:52:28Z</time>
      </trkpt>
      <trkpt lat="44.89082" lon="4.67661">
        <ele>566.5</ele>
        <time>2026-05-04T07:52:33Z</time>
      </trkpt>
      <trkpt lat="44.89081" lon="4.67652">
        <ele>564.3</ele>
        <time>2026-05-04T07:52:38Z</time>
      </trkpt>
      <trkpt lat="44.89079" lon="4.67641">
        <ele>561.6</ele>
        <time>2026-05-04T07:52:43Z</time>
      </trkpt>
      <trkpt lat="44.89079" lon="4.67633">
        <ele>559.7</ele>
        <time>2026-05-04T07:52:48Z</time>
      </trkpt>
      <trkpt lat="44.89078" lon="4.67618">
        <ele>556.2</ele>
        <time>2026-05-04T07:52:53Z</time>
      </trkpt>
      <trkpt lat="44.89077" lon="4.67604">
        <ele>552.8</ele>
        <time>2026-05-04T07:52:58Z</time>
      </trkpt>
      <trkpt lat="44.89076" lon="4.67593">
        <ele>550.2</ele>
        <time>2026-05-04T07:53:03Z</time>
      </trkpt>
      <trkpt lat="44.89078" lon="4.67581">
        <ele>547.7</ele>
        <time>2026-05-04T07:53:08Z</time>
      </trkpt>
      <trkpt lat="44.89081" lon="4.67571">
        <ele>546</ele>
        <time>2026-05-04T07:53:13Z</time>
      </trkpt>
      <trkpt lat="44.89084" lon="4.67562">
        <ele>544.5</ele>
        <time>2026-05-04T07:53:18Z</time>
      </trkpt>
      <trkpt lat="44.89087" lon="4.67549">
        <ele>542.3</ele>
        <time>2026-05-04T07:53:23Z</time>
      </trkpt>
      <trkpt lat="44.8909" lon="4.67538">
        <ele>540.5</ele>
        <time>2026-05-04T07:53:28Z</time>
      </trkpt>
      <trkpt lat="44.89093" lon="4.67528">
        <ele>539</ele>
        <time>2026-05-04T07:53:33Z</time>
      </trkpt>
      <trkpt lat="44.89098" lon="4.67519">
        <ele>538.1</ele>
        <time>2026-05-04T07:53:38Z</time>
      </trkpt>
      <trkpt lat="44.891" lon="4.67509">
        <ele>536.5</ele>
        <time>2026-05-04T07:53:43Z</time>
      </trkpt>
      <trkpt lat="44.89103" lon="4.67498">
        <ele>534.9</ele>
        <time>2026-05-04T07:53:48Z</time>
      </trkpt>
      <trkpt lat="44.89106" lon="4.67484">
        <ele>533.1</ele>
        <time>2026-05-04T07:53:53Z</time>
      </trkpt>
      <trkpt lat="44.8911" lon="4.67473">
        <ele>531.9</ele>
        <time>2026-05-04T07:53:58Z</time>
      </trkpt>
      <trkpt lat="44.89115" lon="4.67464">
        <ele>531.3</ele>
        <time>2026-05-04T07:54:03Z</time>
      </trkpt>
      <trkpt lat="44.89121" lon="4.6746">
        <ele>531.8</ele>
        <time>2026-05-04T07:54:08Z</time>
      </trkpt>
      <trkpt lat="44.89127" lon="4.67458">
        <ele>532.6</ele>
        <time>2026-05-04T07:54:13Z</time>
      </trkpt>
      <trkpt lat="44.89134" lon="4.67455">
        <ele>533.4</ele>
        <time>2026-05-04T07:54:18Z</time>
      </trkpt>
      <trkpt lat="44.89141" lon="4.67452">
        <ele>534.2</ele>
        <time>2026-05-04T07:54:23Z</time>
      </trkpt>
      <trkpt lat="44.89149" lon="4.67447">
        <ele>534.8</ele>
        <time>2026-05-04T07:54:28Z</time>
      </trkpt>
      <trkpt lat="44.89155" lon="4.67439">
        <ele>534.3</ele>
        <time>2026-05-04T07:54:33Z</time>
      </trkpt>
      <trkpt lat="44.89159" lon="4.6743">
        <ele>533.3</ele>
        <time>2026-05-04T07:54:38Z</time>
      </trkpt>
      <trkpt lat="44.89158" lon="4.67421">
        <ele>531.3</ele>
        <time>2026-05-04T07:54:43Z</time>
      </trkpt>
      <trkpt lat="44.89154" lon="4.67412">
        <ele>529.4</ele>
        <time>2026-05-04T07:54:48Z</time>
      </trkpt>
      <trkpt lat="44.89154" lon="4.67407">
        <ele>529</ele>
        <time>2026-05-04T07:54:53Z</time>
      </trkpt>
      <trkpt lat="44.89154" lon="4.67407">
        <ele>529</ele>
        <time>2026-05-04T07:54:58Z</time>
      </trkpt>
      <trkpt lat="44.89154" lon="4.67407">
        <ele>529</ele>
        <time>2026-05-04T07:55:03Z</time>
      </trkpt>
      <trkpt lat="44.89154" lon="4.67407">
        <ele>529</ele>
        <time>2026-05-04T07:55:08Z</time>
      </trkpt>
      <trkpt lat="44.89154" lon="4.67407">
        <ele>529</ele>
        <time>2026-05-04T07:55:13Z</time>
      </trkpt>
      <trkpt lat="44.89154" lon="4.67407">
        <ele>529</ele>
        <time>2026-05-04T07:55:18Z</time>
      </trkpt>
      <trkpt lat="44.89154" lon="4.67407">
        <ele>529</ele>
        <time>2026-05-04T07:55:23Z</time>
      </trkpt>
      <trkpt lat="44.89154" lon="4.67407">
        <ele>529</ele>
        <time>2026-05-04T07:55:28Z</time>
      </trkpt>
      <trkpt lat="44.89151" lon="4.67398">
        <ele>527.9</ele>
        <time>2026-05-04T07:55:33Z</time>
      </trkpt>
      <trkpt lat="44.89147" lon="4.67387">
        <ele>526.5</ele>
        <time>2026-05-04T07:55:38Z</time>
      </trkpt>
      <trkpt lat="44.89143" lon="4.67377">
        <ele>525.2</ele>
        <time>2026-05-04T07:55:43Z</time>
      </trkpt>
      <trkpt lat="44.89139" lon="4.67368">
        <ele>524.1</ele>
        <time>2026-05-04T07:55:48Z</time>
      </trkpt>
      <trkpt lat="44.89136" lon="4.67359">
        <ele>523.2</ele>
        <time>2026-05-04T07:55:53Z</time>
      </trkpt>
      <trkpt lat="44.89132" lon="4.67349">
        <ele>522.1</ele>
        <time>2026-05-04T07:55:58Z</time>
      </trkpt>
      <trkpt lat="44.89129" lon="4.6734">
        <ele>521.3</ele>
        <time>2026-05-04T07:56:03Z</time>
      </trkpt>
      <trkpt lat="44.89127" lon="4.67331">
        <ele>520.8</ele>
        <time>2026-05-04T07:56:08Z</time>
      </trkpt>
      <trkpt lat="44.89129" lon="4.67322">
        <ele>521.1</ele>
        <time>2026-05-04T07:56:13Z</time>
      </trkpt>
      <trkpt lat="44.89132" lon="4.67312">
        <ele>521.4</ele>
        <time>2026-05-04T07:56:18Z</time>
      </trkpt>
      <trkpt lat="44.89137" lon="4.67305">
        <ele>521.9</ele>
        <time>2026-05-04T07:56:23Z</time>
      </trkpt>
      <trkpt lat="44.89143" lon="4.67301">
        <ele>522.3</ele>
        <time>2026-05-04T07:56:28Z</time>
      </trkpt>
      <trkpt lat="44.89149" lon="4.67295">
        <ele>522.6</ele>
        <time>2026-05-04T07:56:33Z</time>
      </trkpt>
      <trkpt lat="44.89156" lon="4.67287">
        <ele>522.8</ele>
        <time>2026-05-04T07:56:38Z</time>
      </trkpt>
      <trkpt lat="44.89162" lon="4.67278">
        <ele>522.8</ele>
        <time>2026-05-04T07:56:43Z</time>
      </trkpt>
      <trkpt lat="44.89165" lon="4.67269">
        <ele>522.6</ele>
        <time>2026-05-04T07:56:48Z</time>
      </trkpt>
      <trkpt lat="44.8917" lon="4.67258">
        <ele>522.4</ele>
        <time>2026-05-04T07:56:53Z</time>
      </trkpt>
      <trkpt lat="44.89177" lon="4.67252">
        <ele>522.3</ele>
        <time>2026-05-04T07:56:58Z</time>
      </trkpt>
      <trkpt lat="44.89184" lon="4.67246">
        <ele>521.9</ele>
        <time>2026-05-04T07:57:03Z</time>
      </trkpt>
      <trkpt lat="44.8919" lon="4.67242">
        <ele>521.5</ele>
        <time>2026-05-04T07:57:08Z</time>
      </trkpt>
      <trkpt lat="44.89194" lon="4.67237">
        <ele>520.8</ele>
        <time>2026-05-04T07:57:13Z</time>
      </trkpt>
      <trkpt lat="44.89199" lon="4.67233">
        <ele>520.4</ele>
        <time>2026-05-04T07:57:18Z</time>
      </trkpt>
      <trkpt lat="44.89207" lon="4.67229">
        <ele>520</ele>
        <time>2026-05-04T07:57:23Z</time>
      </trkpt>
      <trkpt lat="44.89214" lon="4.67225">
        <ele>519.5</ele>
        <time>2026-05-04T07:57:28Z</time>
      </trkpt>
      <trkpt lat="44.89221" lon="4.67224">
        <ele>519.5</ele>
        <time>2026-05-04T07:57:33Z</time>
      </trkpt>
      <trkpt lat="44.89229" lon="4.67223">
        <ele>519.4</ele>
        <time>2026-05-04T07:57:38Z</time>
      </trkpt>
      <trkpt lat="44.89236" lon="4.67223">
        <ele>519.6</ele>
        <time>2026-05-04T07:57:43Z</time>
      </trkpt>
      <trkpt lat="44.89243" lon="4.67224">
        <ele>519.8</ele>
        <time>2026-05-04T07:57:48Z</time>
      </trkpt>
      <trkpt lat="44.89252" lon="4.67223">
        <ele>519.7</ele>
        <time>2026-05-04T07:57:53Z</time>
      </trkpt>
      <trkpt lat="44.89254" lon="4.67215">
        <ele>518.3</ele>
        <time>2026-05-04T07:57:58Z</time>
      </trkpt>
      <trkpt lat="44.89251" lon="4.67207">
        <ele>517.2</ele>
        <time>2026-05-04T07:58:03Z</time>
      </trkpt>
      <trkpt lat="44.89246" lon="4.672">
        <ele>516.2</ele>
        <time>2026-05-04T07:58:08Z</time>
      </trkpt>
      <trkpt lat="44.8924" lon="4.67195">
        <ele>515.3</ele>
        <time>2026-05-04T07:58:13Z</time>
      </trkpt>
      <trkpt lat="44.89233" lon="4.6719">
        <ele>514.5</ele>
        <time>2026-05-04T07:58:18Z</time>
      </trkpt>
      <trkpt lat="44.8923" lon="4.67187">
        <ele>514.1</ele>
        <time>2026-05-04T07:58:23Z</time>
      </trkpt>
      <trkpt lat="44.89226" lon="4.67181">
        <ele>513.1</ele>
        <time>2026-05-04T07:58:28Z</time>
      </trkpt>
      <trkpt lat="44.89218" lon="4.67179">
        <ele>512.8</ele>
        <time>2026-05-04T07:58:33Z</time>
      </trkpt>
      <trkpt lat="44.89211" lon="4.67177">
        <ele>512.5</ele>
        <time>2026-05-04T07:58:38Z</time>
      </trkpt>
      <trkpt lat="44.89204" lon="4.67175">
        <ele>512.2</ele>
        <time>2026-05-04T07:58:43Z</time>
      </trkpt>
      <trkpt lat="44.89198" lon="4.67171">
        <ele>511.6</ele>
        <time>2026-05-04T07:58:48Z</time>
      </trkpt>
      <trkpt lat="44.89192" lon="4.67163">
        <ele>510.6</ele>
        <time>2026-05-04T07:58:53Z</time>
      </trkpt>
      <trkpt lat="44.8919" lon="4.67154">
        <ele>509.6</ele>
        <time>2026-05-04T07:58:58Z</time>
      </trkpt>
      <trkpt lat="44.89188" lon="4.67146">
        <ele>508.8</ele>
        <time>2026-05-04T07:59:03Z</time>
      </trkpt>
      <trkpt lat="44.89186" lon="4.67136">
        <ele>507.7</ele>
        <time>2026-05-04T07:59:08Z</time>
      </trkpt>
      <trkpt lat="44.89183" lon="4.67128">
        <ele>506.8</ele>
        <time>2026-05-04T07:59:13Z</time>
      </trkpt>
      <trkpt lat="44.8918" lon="4.67117">
        <ele>505.6</ele>
        <time>2026-05-04T07:59:18Z</time>
      </trkpt>
      <trkpt lat="44.89176" lon="4.67108">
        <ele>504.7</ele>
        <time>2026-05-04T07:59:23Z</time>
      </trkpt>
      <trkpt lat="44.89175" lon="4.67097">
        <ele>503.5</ele>
        <time>2026-05-04T07:59:28Z</time>
      </trkpt>
      <trkpt lat="44.89173" lon="4.67086">
        <ele>502.3</ele>
        <time>2026-05-04T07:59:33Z</time>
      </trkpt>
      <trkpt lat="44.89171" lon="4.67074">
        <ele>500.4</ele>
        <time>2026-05-04T07:59:38Z</time>
      </trkpt>
      <trkpt lat="44.89169" lon="4.67065">
        <ele>498.9</ele>
        <time>2026-05-04T07:59:43Z</time>
      </trkpt>
      <trkpt lat="44.89167" lon="4.67054">
        <ele>497.1</ele>
        <time>2026-05-04T07:59:48Z</time>
      </trkpt>
      <trkpt lat="44.89164" lon="4.67044">
        <ele>495.3</ele>
        <time>2026-05-04T07:59:53Z</time>
      </trkpt>
      <trkpt lat="44.89162" lon="4.67034">
        <ele>493.6</ele>
        <time>2026-05-04T07:59:58Z</time>
      </trkpt>
      <trkpt lat="44.8916" lon="4.67025">
        <ele>492.1</ele>
        <time>2026-05-04T08:00:03Z</time>
      </trkpt>
      <trkpt lat="44.89158" lon="4.67015">
        <ele>490.5</ele>
        <time>2026-05-04T08:00:08Z</time>
      </trkpt>
      <trkpt lat="44.89156" lon="4.67004">
        <ele>488.7</ele>
        <time>2026-05-04T08:00:13Z</time>
      </trkpt>
      <trkpt lat="44.89154" lon="4.66994">
        <ele>488.2</ele>
        <time>2026-05-04T08:00:18Z</time>
      </trkpt>
      <trkpt lat="44.89148" lon="4.66982">
        <ele>488.8</ele>
        <time>2026-05-04T08:00:23Z</time>
      </trkpt>
      <trkpt lat="44.89144" lon="4.66974">
        <ele>489.5</ele>
        <time>2026-05-04T08:00:28Z</time>
      </trkpt>
      <trkpt lat="44.89138" lon="4.66969">
        <ele>490.3</ele>
        <time>2026-05-04T08:00:33Z</time>
      </trkpt>
      <trkpt lat="44.89131" lon="4.66966">
        <ele>491.3</ele>
        <time>2026-05-04T08:00:38Z</time>
      </trkpt>
      <trkpt lat="44.89124" lon="4.66961">
        <ele>492.6</ele>
        <time>2026-05-04T08:00:43Z</time>
      </trkpt>
      <trkpt lat="44.89117" lon="4.66955">
        <ele>494.2</ele>
        <time>2026-05-04T08:00:48Z</time>
      </trkpt>
      <trkpt lat="44.89109" lon="4.6695">
        <ele>496.1</ele>
        <time>2026-05-04T08:00:53Z</time>
      </trkpt>
      <trkpt lat="44.89104" lon="4.66944">
        <ele>497.9</ele>
        <time>2026-05-04T08:00:58Z</time>
      </trkpt>
      <trkpt lat="44.89099" lon="4.66936">
        <ele>500.3</ele>
        <time>2026-05-04T08:01:03Z</time>
      </trkpt>
      <trkpt lat="44.89098" lon="4.66925">
        <ele>502.7</ele>
        <time>2026-05-04T08:01:08Z</time>
      </trkpt>
      <trkpt lat="44.89094" lon="4.66917">
        <ele>505.2</ele>
        <time>2026-05-04T08:01:13Z</time>
      </trkpt>
      <trkpt lat="44.89089" lon="4.6691">
        <ele>508.3</ele>
        <time>2026-05-04T08:01:18Z</time>
      </trkpt>
      <trkpt lat="44.89087" lon="4.66902">
        <ele>510.8</ele>
        <time>2026-05-04T08:01:23Z</time>
      </trkpt>
      <trkpt lat="44.89084" lon="4.66894">
        <ele>513.8</ele>
        <time>2026-05-04T08:01:28Z</time>
      </trkpt>
      <trkpt lat="44.89083" lon="4.66886">
        <ele>516.2</ele>
        <time>2026-05-04T08:01:33Z</time>
      </trkpt>
      <trkpt lat="44.89083" lon="4.66876">
        <ele>518.8</ele>
        <time>2026-05-04T08:01:38Z</time>
      </trkpt>
      <trkpt lat="44.89086" lon="4.66867">
        <ele>520.2</ele>
        <time>2026-05-04T08:01:43Z</time>
      </trkpt>
      <trkpt lat="44.89088" lon="4.66859">
        <ele>521.5</ele>
        <time>2026-05-04T08:01:48Z</time>
      </trkpt>
      <trkpt lat="44.89091" lon="4.66851">
        <ele>522.3</ele>
        <time>2026-05-04T08:01:53Z</time>
      </trkpt>
      <trkpt lat="44.89094" lon="4.66844">
        <ele>522.8</ele>
        <time>2026-05-04T08:01:58Z</time>
      </trkpt>
      <trkpt lat="44.89098" lon="4.66838">
        <ele>522.6</ele>
        <time>2026-05-04T08:02:03Z</time>
      </trkpt>
      <trkpt lat="44.89102" lon="4.66832">
        <ele>522.1</ele>
        <time>2026-05-04T08:02:08Z</time>
      </trkpt>
      <trkpt lat="44.89106" lon="4.66826">
        <ele>520.9</ele>
        <time>2026-05-04T08:02:13Z</time>
      </trkpt>
      <trkpt lat="44.89112" lon="4.66819">
        <ele>518.9</ele>
        <time>2026-05-04T08:02:18Z</time>
      </trkpt>
      <trkpt lat="44.89115" lon="4.66811">
        <ele>518.4</ele>
        <time>2026-05-04T08:02:23Z</time>
      </trkpt>
      <trkpt lat="44.89119" lon="4.66805">
        <ele>517.3</ele>
        <time>2026-05-04T08:02:28Z</time>
      </trkpt>
      <trkpt lat="44.89124" lon="4.66798">
        <ele>515.8</ele>
        <time>2026-05-04T08:02:33Z</time>
      </trkpt>
      <trkpt lat="44.89128" lon="4.66791">
        <ele>514.8</ele>
        <time>2026-05-04T08:02:38Z</time>
      </trkpt>
      <trkpt lat="44.89133" lon="4.66784">
        <ele>513.4</ele>
        <time>2026-05-04T08:02:43Z</time>
      </trkpt>
      <trkpt lat="44.89138" lon="4.66777">
        <ele>512</ele>
        <time>2026-05-04T08:02:48Z</time>
      </trkpt>
      <trkpt lat="44.89142" lon="4.66771">
        <ele>510.9</ele>
        <time>2026-05-04T08:02:53Z</time>
      </trkpt>
      <trkpt lat="44.89147" lon="4.66762">
        <ele>509.8</ele>
        <time>2026-05-04T08:02:58Z</time>
      </trkpt>
      <trkpt lat="44.89151" lon="4.66755">
        <ele>508.9</ele>
        <time>2026-05-04T08:03:03Z</time>
      </trkpt>
      <trkpt lat="44.89155" lon="4.66748">
        <ele>507.8</ele>
        <time>2026-05-04T08:03:08Z</time>
      </trkpt>
      <trkpt lat="44.89158" lon="4.66741">
        <ele>506.9</ele>
        <time>2026-05-04T08:03:13Z</time>
      </trkpt>
      <trkpt lat="44.89161" lon="4.66734">
        <ele>505.9</ele>
        <time>2026-05-04T08:03:18Z</time>
      </trkpt>
      <trkpt lat="44.89163" lon="4.66725">
        <ele>505.6</ele>
        <time>2026-05-04T08:03:23Z</time>
      </trkpt>
      <trkpt lat="44.89166" lon="4.66718">
        <ele>504.8</ele>
        <time>2026-05-04T08:03:28Z</time>
      </trkpt>
      <trkpt lat="44.89168" lon="4.66709">
        <ele>504.9</ele>
        <time>2026-05-04T08:03:33Z</time>
      </trkpt>
      <trkpt lat="44.8917" lon="4.667">
        <ele>505.1</ele>
        <time>2026-05-04T08:03:38Z</time>
      </trkpt>
      <trkpt lat="44.89172" lon="4.66692">
        <ele>505.3</ele>
        <time>2026-05-04T08:03:43Z</time>
      </trkpt>
      <trkpt lat="44.89175" lon="4.66685">
        <ele>505.3</ele>
        <time>2026-05-04T08:03:48Z</time>
      </trkpt>
      <trkpt lat="44.89177" lon="4.66676">
        <ele>505.4</ele>
        <time>2026-05-04T08:03:53Z</time>
      </trkpt>
      <trkpt lat="44.89179" lon="4.66668">
        <ele>505.5</ele>
        <time>2026-05-04T08:03:58Z</time>
      </trkpt>
      <trkpt lat="44.8918" lon="4.6666">
        <ele>505.5</ele>
        <time>2026-05-04T08:04:03Z</time>
      </trkpt>
      <trkpt lat="44.89182" lon="4.66653">
        <ele>505.5</ele>
        <time>2026-05-04T08:04:08Z</time>
      </trkpt>
      <trkpt lat="44.89183" lon="4.66645">
        <ele>505.5</ele>
        <time>2026-05-04T08:04:13Z</time>
      </trkpt>
      <trkpt lat="44.89183" lon="4.66638">
        <ele>505.7</ele>
        <time>2026-05-04T08:04:18Z</time>
      </trkpt>
      <trkpt lat="44.89184" lon="4.6663">
        <ele>505.7</ele>
        <time>2026-05-04T08:04:23Z</time>
      </trkpt>
      <trkpt lat="44.89184" lon="4.66621">
        <ele>505.9</ele>
        <time>2026-05-04T08:04:28Z</time>
      </trkpt>
      <trkpt lat="44.89185" lon="4.66612">
        <ele>506</ele>
        <time>2026-05-04T08:04:33Z</time>
      </trkpt>
      <trkpt lat="44.89186" lon="4.66605">
        <ele>506</ele>
        <time>2026-05-04T08:04:38Z</time>
      </trkpt>
      <trkpt lat="44.89188" lon="4.66597">
        <ele>505.9</ele>
        <time>2026-05-04T08:04:43Z</time>
      </trkpt>
      <trkpt lat="44.89189" lon="4.66588">
        <ele>506</ele>
        <time>2026-05-04T08:04:48Z</time>
      </trkpt>
      <trkpt lat="44.89188" lon="4.66579">
        <ele>506.4</ele>
        <time>2026-05-04T08:04:53Z</time>
      </trkpt>
      <trkpt lat="44.89187" lon="4.6657">
        <ele>507</ele>
        <time>2026-05-04T08:04:58Z</time>
      </trkpt>
      <trkpt lat="44.89187" lon="4.66561">
        <ele>507.5</ele>
        <time>2026-05-04T08:05:03Z</time>
      </trkpt>
      <trkpt lat="44.89186" lon="4.66553">
        <ele>508</ele>
        <time>2026-05-04T08:05:08Z</time>
      </trkpt>
      <trkpt lat="44.89185" lon="4.66545">
        <ele>508.6</ele>
        <time>2026-05-04T08:05:13Z</time>
      </trkpt>
      <trkpt lat="44.89183" lon="4.66537">
        <ele>509.3</ele>
        <time>2026-05-04T08:05:18Z</time>
      </trkpt>
      <trkpt lat="44.89183" lon="4.66528">
        <ele>509.8</ele>
        <time>2026-05-04T08:05:23Z</time>
      </trkpt>
      <trkpt lat="44.89183" lon="4.66519">
        <ele>510.3</ele>
        <time>2026-05-04T08:05:28Z</time>
      </trkpt>
      <trkpt lat="44.89183" lon="4.6651">
        <ele>510.7</ele>
        <time>2026-05-04T08:05:33Z</time>
      </trkpt>
      <trkpt lat="44.89183" lon="4.66502">
        <ele>511.2</ele>
        <time>2026-05-04T08:05:38Z</time>
      </trkpt>
      <trkpt lat="44.89178" lon="4.66495">
        <ele>512</ele>
        <time>2026-05-04T08:05:43Z</time>
      </trkpt>
      <trkpt lat="44.89174" lon="4.66488">
        <ele>512.5</ele>
        <time>2026-05-04T08:05:48Z</time>
      </trkpt>
      <trkpt lat="44.8917" lon="4.6648">
        <ele>512.8</ele>
        <time>2026-05-04T08:05:53Z</time>
      </trkpt>
      <trkpt lat="44.89166" lon="4.6647">
        <ele>513.2</ele>
        <time>2026-05-04T08:05:58Z</time>
      </trkpt>
      <trkpt lat="44.89165" lon="4.66462">
        <ele>513.2</ele>
        <time>2026-05-04T08:06:03Z</time>
      </trkpt>
      <trkpt lat="44.89161" lon="4.66452">
        <ele>514.3</ele>
        <time>2026-05-04T08:06:08Z</time>
      </trkpt>
      <trkpt lat="44.89159" lon="4.66446">
        <ele>514.8</ele>
        <time>2026-05-04T08:06:13Z</time>
      </trkpt>
      <trkpt lat="44.89157" lon="4.66438">
        <ele>515.3</ele>
        <time>2026-05-04T08:06:18Z</time>
      </trkpt>
      <trkpt lat="44.89158" lon="4.66431">
        <ele>514.7</ele>
        <time>2026-05-04T08:06:23Z</time>
      </trkpt>
      <trkpt lat="44.89153" lon="4.66424">
        <ele>516.2</ele>
        <time>2026-05-04T08:06:28Z</time>
      </trkpt>
      <trkpt lat="44.89151" lon="4.66416">
        <ele>516.6</ele>
        <time>2026-05-04T08:06:33Z</time>
      </trkpt>
      <trkpt lat="44.8915" lon="4.66407">
        <ele>516.4</ele>
        <time>2026-05-04T08:06:38Z</time>
      </trkpt>
      <trkpt lat="44.89148" lon="4.66398">
        <ele>516.5</ele>
        <time>2026-05-04T08:06:43Z</time>
      </trkpt>
      <trkpt lat="44.89146" lon="4.66387">
        <ele>516.4</ele>
        <time>2026-05-04T08:06:48Z</time>
      </trkpt>
      <trkpt lat="44.89144" lon="4.6638">
        <ele>516.5</ele>
        <time>2026-05-04T08:06:53Z</time>
      </trkpt>
      <trkpt lat="44.89143" lon="4.6637">
        <ele>516.1</ele>
        <time>2026-05-04T08:06:58Z</time>
      </trkpt>
      <trkpt lat="44.89142" lon="4.66359">
        <ele>515.6</ele>
        <time>2026-05-04T08:07:03Z</time>
      </trkpt>
      <trkpt lat="44.89144" lon="4.66349">
        <ele>514.3</ele>
        <time>2026-05-04T08:07:08Z</time>
      </trkpt>
      <trkpt lat="44.89147" lon="4.6634">
        <ele>512.9</ele>
        <time>2026-05-04T08:07:13Z</time>
      </trkpt>
      <trkpt lat="44.89148" lon="4.66331">
        <ele>512.3</ele>
        <time>2026-05-04T08:07:18Z</time>
      </trkpt>
      <trkpt lat="44.89151" lon="4.66326">
        <ele>511.7</ele>
        <time>2026-05-04T08:07:23Z</time>
      </trkpt>
      <trkpt lat="44.89156" lon="4.6632">
        <ele>510.8</ele>
        <time>2026-05-04T08:07:28Z</time>
      </trkpt>
      <trkpt lat="44.89161" lon="4.66313">
        <ele>509.8</ele>
        <time>2026-05-04T08:07:33Z</time>
      </trkpt>
      <trkpt lat="44.89166" lon="4.66307">
        <ele>508.8</ele>
        <time>2026-05-04T08:07:38Z</time>
      </trkpt>
      <trkpt lat="44.89172" lon="4.66305">
        <ele>508.6</ele>
        <time>2026-05-04T08:07:43Z</time>
      </trkpt>
      <trkpt lat="44.89181" lon="4.66301">
        <ele>508.5</ele>
        <time>2026-05-04T08:07:48Z</time>
      </trkpt>
      <trkpt lat="44.89187" lon="4.66295">
        <ele>508.5</ele>
        <time>2026-05-04T08:07:53Z</time>
      </trkpt>
      <trkpt lat="44.89193" lon="4.66286">
        <ele>508.5</ele>
        <time>2026-05-04T08:07:58Z</time>
      </trkpt>
      <trkpt lat="44.89195" lon="4.66278">
        <ele>508.5</ele>
        <time>2026-05-04T08:08:03Z</time>
      </trkpt>
      <trkpt lat="44.89197" lon="4.66272">
        <ele>508.6</ele>
        <time>2026-05-04T08:08:08Z</time>
      </trkpt>
      <trkpt lat="44.89201" lon="4.66265">
        <ele>508.6</ele>
        <time>2026-05-04T08:08:13Z</time>
      </trkpt>
      <trkpt lat="44.89205" lon="4.66259">
        <ele>508.5</ele>
        <time>2026-05-04T08:08:18Z</time>
      </trkpt>
      <trkpt lat="44.89208" lon="4.66252">
        <ele>508.5</ele>
        <time>2026-05-04T08:08:23Z</time>
      </trkpt>
      <trkpt lat="44.8921" lon="4.66246">
        <ele>508.9</ele>
        <time>2026-05-04T08:08:28Z</time>
      </trkpt>
      <trkpt lat="44.89215" lon="4.66241">
        <ele>509.2</ele>
        <time>2026-05-04T08:08:33Z</time>
      </trkpt>
      <trkpt lat="44.89218" lon="4.66235">
        <ele>509.8</ele>
        <time>2026-05-04T08:08:38Z</time>
      </trkpt>
      <trkpt lat="44.89221" lon="4.66228">
        <ele>510.6</ele>
        <time>2026-05-04T08:08:43Z</time>
      </trkpt>
      <trkpt lat="44.89224" lon="4.66221">
        <ele>511.4</ele>
        <time>2026-05-04T08:08:48Z</time>
      </trkpt>
      <trkpt lat="44.89228" lon="4.66217">
        <ele>511.8</ele>
        <time>2026-05-04T08:08:53Z</time>
      </trkpt>
      <trkpt lat="44.8923" lon="4.66212">
        <ele>512.4</ele>
        <time>2026-05-04T08:08:58Z</time>
      </trkpt>
      <trkpt lat="44.89236" lon="4.66206">
        <ele>513.2</ele>
        <time>2026-05-04T08:09:03Z</time>
      </trkpt>
      <trkpt lat="44.8924" lon="4.662">
        <ele>514.1</ele>
        <time>2026-05-04T08:09:08Z</time>
      </trkpt>
      <trkpt lat="44.89241" lon="4.66194">
        <ele>514.9</ele>
        <time>2026-05-04T08:09:13Z</time>
      </trkpt>
      <trkpt lat="44.89243" lon="4.66187">
        <ele>515.9</ele>
        <time>2026-05-04T08:09:18Z</time>
      </trkpt>
      <trkpt lat="44.89246" lon="4.66178">
        <ele>517.2</ele>
        <time>2026-05-04T08:09:23Z</time>
      </trkpt>
      <trkpt lat="44.8925" lon="4.66168">
        <ele>518.8</ele>
        <time>2026-05-04T08:09:28Z</time>
      </trkpt>
      <trkpt lat="44.89253" lon="4.6616">
        <ele>520.1</ele>
        <time>2026-05-04T08:09:33Z</time>
      </trkpt>
      <trkpt lat="44.89256" lon="4.66151">
        <ele>521.4</ele>
        <time>2026-05-04T08:09:38Z</time>
      </trkpt>
      <trkpt lat="44.89259" lon="4.66142">
        <ele>522.7</ele>
        <time>2026-05-04T08:09:43Z</time>
      </trkpt>
      <trkpt lat="44.89262" lon="4.66134">
        <ele>523.8</ele>
        <time>2026-05-04T08:09:48Z</time>
      </trkpt>
      <trkpt lat="44.89265" lon="4.66126">
        <ele>524.8</ele>
        <time>2026-05-04T08:09:53Z</time>
      </trkpt>
      <trkpt lat="44.89268" lon="4.66118">
        <ele>525.7</ele>
        <time>2026-05-04T08:09:58Z</time>
      </trkpt>
      <trkpt lat="44.8927" lon="4.6611">
        <ele>526.6</ele>
        <time>2026-05-04T08:10:03Z</time>
      </trkpt>
      <trkpt lat="44.89273" lon="4.66103">
        <ele>527.3</ele>
        <time>2026-05-04T08:10:08Z</time>
      </trkpt>
      <trkpt lat="44.89276" lon="4.66092">
        <ele>528.4</ele>
        <time>2026-05-04T08:10:13Z</time>
      </trkpt>
      <trkpt lat="44.8928" lon="4.66083">
        <ele>529.1</ele>
        <time>2026-05-04T08:10:18Z</time>
      </trkpt>
      <trkpt lat="44.89283" lon="4.66074">
        <ele>529.8</ele>
        <time>2026-05-04T08:10:23Z</time>
      </trkpt>
      <trkpt lat="44.89285" lon="4.66067">
        <ele>530.4</ele>
        <time>2026-05-04T08:10:28Z</time>
      </trkpt>
      <trkpt lat="44.89286" lon="4.66059">
        <ele>531.3</ele>
        <time>2026-05-04T08:10:33Z</time>
      </trkpt>
      <trkpt lat="44.89288" lon="4.66052">
        <ele>531.9</ele>
        <time>2026-05-04T08:10:38Z</time>
      </trkpt>
      <trkpt lat="44.89291" lon="4.66044">
        <ele>532.5</ele>
        <time>2026-05-04T08:10:43Z</time>
      </trkpt>
      <trkpt lat="44.89294" lon="4.66038">
        <ele>532.9</ele>
        <time>2026-05-04T08:10:48Z</time>
      </trkpt>
      <trkpt lat="44.89296" lon="4.66031">
        <ele>533.6</ele>
        <time>2026-05-04T08:10:53Z</time>
      </trkpt>
      <trkpt lat="44.893" lon="4.66025">
        <ele>533.8</ele>
        <time>2026-05-04T08:10:58Z</time>
      </trkpt>
      <trkpt lat="44.89303" lon="4.6602">
        <ele>534.1</ele>
        <time>2026-05-04T08:11:03Z</time>
      </trkpt>
      <trkpt lat="44.89306" lon="4.66014">
        <ele>534.5</ele>
        <time>2026-05-04T08:11:08Z</time>
      </trkpt>
      <trkpt lat="44.8931" lon="4.66007">
        <ele>534.9</ele>
        <time>2026-05-04T08:11:13Z</time>
      </trkpt>
      <trkpt lat="44.89312" lon="4.66">
        <ele>535.6</ele>
        <time>2026-05-04T08:11:18Z</time>
      </trkpt>
      <trkpt lat="44.89315" lon="4.65994">
        <ele>535.9</ele>
        <time>2026-05-04T08:11:23Z</time>
      </trkpt>
      <trkpt lat="44.89318" lon="4.65987">
        <ele>536.4</ele>
        <time>2026-05-04T08:11:28Z</time>
      </trkpt>
      <trkpt lat="44.89321" lon="4.65978">
        <ele>537.2</ele>
        <time>2026-05-04T08:11:33Z</time>
      </trkpt>
      <trkpt lat="44.89323" lon="4.65972">
        <ele>537.7</ele>
        <time>2026-05-04T08:11:38Z</time>
      </trkpt>
      <trkpt lat="44.89324" lon="4.65965">
        <ele>538.5</ele>
        <time>2026-05-04T08:11:43Z</time>
      </trkpt>
      <trkpt lat="44.89328" lon="4.65958">
        <ele>539</ele>
        <time>2026-05-04T08:11:48Z</time>
      </trkpt>
      <trkpt lat="44.89332" lon="4.65952">
        <ele>539.4</ele>
        <time>2026-05-04T08:11:53Z</time>
      </trkpt>
      <trkpt lat="44.89336" lon="4.65944">
        <ele>540</ele>
        <time>2026-05-04T08:11:58Z</time>
      </trkpt>
      <trkpt lat="44.89338" lon="4.65938">
        <ele>540.5</ele>
        <time>2026-05-04T08:12:03Z</time>
      </trkpt>
      <trkpt lat="44.89342" lon="4.6593">
        <ele>540.9</ele>
        <time>2026-05-04T08:12:08Z</time>
      </trkpt>
      <trkpt lat="44.89344" lon="4.65925">
        <ele>541.2</ele>
        <time>2026-05-04T08:12:13Z</time>
      </trkpt>
      <trkpt lat="44.89348" lon="4.65917">
        <ele>541.5</ele>
        <time>2026-05-04T08:12:18Z</time>
      </trkpt>
      <trkpt lat="44.89351" lon="4.65909">
        <ele>541.9</ele>
        <time>2026-05-04T08:12:23Z</time>
      </trkpt>
      <trkpt lat="44.89355" lon="4.659">
        <ele>542.3</ele>
        <time>2026-05-04T08:12:28Z</time>
      </trkpt>
      <trkpt lat="44.89359" lon="4.6589">
        <ele>542.8</ele>
        <time>2026-05-04T08:12:33Z</time>
      </trkpt>
      <trkpt lat="44.89362" lon="4.65883">
        <ele>543.1</ele>
        <time>2026-05-04T08:12:38Z</time>
      </trkpt>
      <trkpt lat="44.89367" lon="4.65876">
        <ele>543.1</ele>
        <time>2026-05-04T08:12:43Z</time>
      </trkpt>
      <trkpt lat="44.89371" lon="4.65869">
        <ele>543.3</ele>
        <time>2026-05-04T08:12:48Z</time>
      </trkpt>
      <trkpt lat="44.89374" lon="4.65862">
        <ele>543.7</ele>
        <time>2026-05-04T08:12:53Z</time>
      </trkpt>
      <trkpt lat="44.89377" lon="4.65855">
        <ele>544.1</ele>
        <time>2026-05-04T08:12:58Z</time>
      </trkpt>
      <trkpt lat="44.89382" lon="4.6585">
        <ele>544</ele>
        <time>2026-05-04T08:13:03Z</time>
      </trkpt>
      <trkpt lat="44.89388" lon="4.65844">
        <ele>543.8</ele>
        <time>2026-05-04T08:13:08Z</time>
      </trkpt>
      <trkpt lat="44.89395" lon="4.65839">
        <ele>543.4</ele>
        <time>2026-05-04T08:13:13Z</time>
      </trkpt>
      <trkpt lat="44.894" lon="4.65834">
        <ele>543.3</ele>
        <time>2026-05-04T08:13:18Z</time>
      </trkpt>
      <trkpt lat="44.89406" lon="4.65827">
        <ele>543.3</ele>
        <time>2026-05-04T08:13:23Z</time>
      </trkpt>
      <trkpt lat="44.89413" lon="4.65823">
        <ele>542.9</ele>
        <time>2026-05-04T08:13:28Z</time>
      </trkpt>
      <trkpt lat="44.89418" lon="4.65818">
        <ele>543</ele>
        <time>2026-05-04T08:13:33Z</time>
      </trkpt>
      <trkpt lat="44.89423" lon="4.65813">
        <ele>543.6</ele>
        <time>2026-05-04T08:13:38Z</time>
      </trkpt>
      <trkpt lat="44.89427" lon="4.65806">
        <ele>544.3</ele>
        <time>2026-05-04T08:13:43Z</time>
      </trkpt>
      <trkpt lat="44.8943" lon="4.65799">
        <ele>545</ele>
        <time>2026-05-04T08:13:48Z</time>
      </trkpt>
      <trkpt lat="44.89434" lon="4.65791">
        <ele>545.7</ele>
        <time>2026-05-04T08:13:53Z</time>
      </trkpt>
      <trkpt lat="44.89438" lon="4.65786">
        <ele>546</ele>
        <time>2026-05-04T08:13:58Z</time>
      </trkpt>
      <trkpt lat="44.8944" lon="4.65777">
        <ele>546.8</ele>
        <time>2026-05-04T08:14:03Z</time>
      </trkpt>
      <trkpt lat="44.89441" lon="4.65769">
        <ele>547.5</ele>
        <time>2026-05-04T08:14:08Z</time>
      </trkpt>
      <trkpt lat="44.89441" lon="4.65759">
        <ele>548.5</ele>
        <time>2026-05-04T08:14:13Z</time>
      </trkpt>
      <trkpt lat="44.89441" lon="4.65748">
        <ele>549.6</ele>
        <time>2026-05-04T08:14:18Z</time>
      </trkpt>
      <trkpt lat="44.89442" lon="4.6574">
        <ele>550.4</ele>
        <time>2026-05-04T08:14:23Z</time>
      </trkpt>
      <trkpt lat="44.89443" lon="4.65733">
        <ele>551.1</ele>
        <time>2026-05-04T08:14:28Z</time>
      </trkpt>
      <trkpt lat="44.89444" lon="4.65723">
        <ele>552.2</ele>
        <time>2026-05-04T08:14:33Z</time>
      </trkpt>
      <trkpt lat="44.89447" lon="4.65715">
        <ele>552.8</ele>
        <time>2026-05-04T08:14:38Z</time>
      </trkpt>
      <trkpt lat="44.89451" lon="4.65707">
        <ele>553.2</ele>
        <time>2026-05-04T08:14:43Z</time>
      </trkpt>
      <trkpt lat="44.89455" lon="4.65699">
        <ele>553.7</ele>
        <time>2026-05-04T08:14:48Z</time>
      </trkpt>
      <trkpt lat="44.89456" lon="4.65689">
        <ele>554.7</ele>
        <time>2026-05-04T08:14:53Z</time>
      </trkpt>
      <trkpt lat="44.8946" lon="4.65681">
        <ele>555.2</ele>
        <time>2026-05-04T08:14:58Z</time>
      </trkpt>
      <trkpt lat="44.89463" lon="4.65675">
        <ele>555.5</ele>
        <time>2026-05-04T08:15:03Z</time>
      </trkpt>
      <trkpt lat="44.89463" lon="4.65665">
        <ele>556.6</ele>
        <time>2026-05-04T08:15:08Z</time>
      </trkpt>
      <trkpt lat="44.89465" lon="4.65656">
        <ele>557</ele>
        <time>2026-05-04T08:15:13Z</time>
      </trkpt>
      <trkpt lat="44.89466" lon="4.6565">
        <ele>557.4</ele>
        <time>2026-05-04T08:15:18Z</time>
      </trkpt>
      <trkpt lat="44.89467" lon="4.65643">
        <ele>557.8</ele>
        <time>2026-05-04T08:15:23Z</time>
      </trkpt>
      <trkpt lat="44.89468" lon="4.65635">
        <ele>558.3</ele>
        <time>2026-05-04T08:15:28Z</time>
      </trkpt>
      <trkpt lat="44.8947" lon="4.65625">
        <ele>558.8</ele>
        <time>2026-05-04T08:15:33Z</time>
      </trkpt>
      <trkpt lat="44.89472" lon="4.65617">
        <ele>559.1</ele>
        <time>2026-05-04T08:15:38Z</time>
      </trkpt>
      <trkpt lat="44.89474" lon="4.65607">
        <ele>559.6</ele>
        <time>2026-05-04T08:15:43Z</time>
      </trkpt>
      <trkpt lat="44.89476" lon="4.65597">
        <ele>560.1</ele>
        <time>2026-05-04T08:15:48Z</time>
      </trkpt>
      <trkpt lat="44.89478" lon="4.65588">
        <ele>560.6</ele>
        <time>2026-05-04T08:15:53Z</time>
      </trkpt>
      <trkpt lat="44.89479" lon="4.65576">
        <ele>560.7</ele>
        <time>2026-05-04T08:15:58Z</time>
      </trkpt>
      <trkpt lat="44.89479" lon="4.65566">
        <ele>560.7</ele>
        <time>2026-05-04T08:16:03Z</time>
      </trkpt>
      <trkpt lat="44.89481" lon="4.65558">
        <ele>560.3</ele>
        <time>2026-05-04T08:16:08Z</time>
      </trkpt>
      <trkpt lat="44.89483" lon="4.65549">
        <ele>560</ele>
        <time>2026-05-04T08:16:13Z</time>
      </trkpt>
      <trkpt lat="44.89484" lon="4.65538">
        <ele>559.8</ele>
        <time>2026-05-04T08:16:18Z</time>
      </trkpt>
      <trkpt lat="44.89488" lon="4.65528">
        <ele>559.1</ele>
        <time>2026-05-04T08:16:23Z</time>
      </trkpt>
      <trkpt lat="44.8949" lon="4.65518">
        <ele>558.7</ele>
        <time>2026-05-04T08:16:28Z</time>
      </trkpt>
      <trkpt lat="44.89491" lon="4.65509">
        <ele>558.5</ele>
        <time>2026-05-04T08:16:33Z</time>
      </trkpt>
      <trkpt lat="44.89495" lon="4.65499">
        <ele>557.8</ele>
        <time>2026-05-04T08:16:38Z</time>
      </trkpt>
      <trkpt lat="44.89501" lon="4.65492">
        <ele>557.3</ele>
        <time>2026-05-04T08:16:43Z</time>
      </trkpt>
      <trkpt lat="44.89505" lon="4.65486">
        <ele>557.1</ele>
        <time>2026-05-04T08:16:48Z</time>
      </trkpt>
      <trkpt lat="44.89509" lon="4.65478">
        <ele>557.1</ele>
        <time>2026-05-04T08:16:53Z</time>
      </trkpt>
      <trkpt lat="44.89512" lon="4.65473">
        <ele>556.9</ele>
        <time>2026-05-04T08:16:58Z</time>
      </trkpt>
      <trkpt lat="44.89515" lon="4.65471">
        <ele>556.6</ele>
        <time>2026-05-04T08:17:03Z</time>
      </trkpt>
      <trkpt lat="44.89519" lon="4.65464">
        <ele>556.5</ele>
        <time>2026-05-04T08:17:08Z</time>
      </trkpt>
      <trkpt lat="44.89521" lon="4.65457">
        <ele>556.7</ele>
        <time>2026-05-04T08:17:13Z</time>
      </trkpt>
      <trkpt lat="44.89523" lon="4.6545">
        <ele>556.9</ele>
        <time>2026-05-04T08:17:18Z</time>
      </trkpt>
      <trkpt lat="44.89524" lon="4.65442">
        <ele>557.2</ele>
        <time>2026-05-04T08:17:23Z</time>
      </trkpt>
      <trkpt lat="44.89526" lon="4.65433">
        <ele>557.5</ele>
        <time>2026-05-04T08:17:28Z</time>
      </trkpt>
      <trkpt lat="44.89528" lon="4.65423">
        <ele>557.9</ele>
        <time>2026-05-04T08:17:33Z</time>
      </trkpt>
      <trkpt lat="44.89529" lon="4.65414">
        <ele>558.4</ele>
        <time>2026-05-04T08:17:38Z</time>
      </trkpt>
      <trkpt lat="44.89531" lon="4.65405">
        <ele>559.1</ele>
        <time>2026-05-04T08:17:43Z</time>
      </trkpt>
      <trkpt lat="44.89532" lon="4.65396">
        <ele>559.8</ele>
        <time>2026-05-04T08:17:48Z</time>
      </trkpt>
      <trkpt lat="44.89535" lon="4.65386">
        <ele>560.4</ele>
        <time>2026-05-04T08:17:53Z</time>
      </trkpt>
      <trkpt lat="44.89537" lon="4.65379">
        <ele>560.8</ele>
        <time>2026-05-04T08:17:58Z</time>
      </trkpt>
      <trkpt lat="44.8954" lon="4.65369">
        <ele>561.3</ele>
        <time>2026-05-04T08:18:03Z</time>
      </trkpt>
      <trkpt lat="44.89545" lon="4.65361">
        <ele>561.4</ele>
        <time>2026-05-04T08:18:08Z</time>
      </trkpt>
      <trkpt lat="44.89549" lon="4.65355">
        <ele>561.3</ele>
        <time>2026-05-04T08:18:13Z</time>
      </trkpt>
      <trkpt lat="44.89553" lon="4.65349">
        <ele>561.3</ele>
        <time>2026-05-04T08:18:18Z</time>
      </trkpt>
      <trkpt lat="44.89559" lon="4.65345">
        <ele>560.7</ele>
        <time>2026-05-04T08:18:23Z</time>
      </trkpt>
      <trkpt lat="44.89567" lon="4.65342">
        <ele>559.8</ele>
        <time>2026-05-04T08:18:28Z</time>
      </trkpt>
      <trkpt lat="44.89575" lon="4.65341">
        <ele>558.6</ele>
        <time>2026-05-04T08:18:33Z</time>
      </trkpt>
      <trkpt lat="44.89582" lon="4.65337">
        <ele>557.9</ele>
        <time>2026-05-04T08:18:38Z</time>
      </trkpt>
      <trkpt lat="44.89586" lon="4.65334">
        <ele>557.6</ele>
        <time>2026-05-04T08:18:43Z</time>
      </trkpt>
      <trkpt lat="44.89594" lon="4.65331">
        <ele>556.8</ele>
        <time>2026-05-04T08:18:48Z</time>
      </trkpt>
      <trkpt lat="44.89602" lon="4.65329">
        <ele>555.9</ele>
        <time>2026-05-04T08:18:53Z</time>
      </trkpt>
      <trkpt lat="44.89609" lon="4.65325">
        <ele>555.3</ele>
        <time>2026-05-04T08:18:58Z</time>
      </trkpt>
      <trkpt lat="44.89616" lon="4.65322">
        <ele>554.5</ele>
        <time>2026-05-04T08:19:03Z</time>
      </trkpt>
      <trkpt lat="44.89617" lon="4.65321">
        <ele>554.5</ele>
        <time>2026-05-04T08:19:08Z</time>
      </trkpt>
      <trkpt lat="44.89618" lon="4.65322">
        <ele>554.3</ele>
        <time>2026-05-04T08:19:13Z</time>
      </trkpt>
      <trkpt lat="44.89619" lon="4.65324">
        <ele>554.1</ele>
        <time>2026-05-04T08:19:18Z</time>
      </trkpt>
      <trkpt lat="44.89624" lon="4.65321">
        <ele>553.6</ele>
        <time>2026-05-04T08:19:23Z</time>
      </trkpt>
      <trkpt lat="44.89629" lon="4.65317">
        <ele>553.2</ele>
        <time>2026-05-04T08:19:28Z</time>
      </trkpt>
      <trkpt lat="44.89635" lon="4.65312">
        <ele>552.7</ele>
        <time>2026-05-04T08:19:33Z</time>
      </trkpt>
      <trkpt lat="44.89637" lon="4.65307">
        <ele>552.7</ele>
        <time>2026-05-04T08:19:38Z</time>
      </trkpt>
      <trkpt lat="44.89639" lon="4.65301">
        <ele>552.7</ele>
        <time>2026-05-04T08:19:43Z</time>
      </trkpt>
      <trkpt lat="44.89641" lon="4.65292">
        <ele>552.9</ele>
        <time>2026-05-04T08:19:48Z</time>
      </trkpt>
      <trkpt lat="44.89643" lon="4.65283">
        <ele>553.1</ele>
        <time>2026-05-04T08:19:53Z</time>
      </trkpt>
      <trkpt lat="44.89644" lon="4.65275">
        <ele>553.3</ele>
        <time>2026-05-04T08:19:58Z</time>
      </trkpt>
      <trkpt lat="44.89642" lon="4.65267">
        <ele>553.9</ele>
        <time>2026-05-04T08:20:03Z</time>
      </trkpt>
      <trkpt lat="44.89641" lon="4.65261">
        <ele>554.3</ele>
        <time>2026-05-04T08:20:08Z</time>
      </trkpt>
      <trkpt lat="44.89641" lon="4.65254">
        <ele>554.6</ele>
        <time>2026-05-04T08:20:13Z</time>
      </trkpt>
      <trkpt lat="44.89643" lon="4.65246">
        <ele>554.7</ele>
        <time>2026-05-04T08:20:18Z</time>
      </trkpt>
      <trkpt lat="44.89643" lon="4.65238">
        <ele>554.9</ele>
        <time>2026-05-04T08:20:23Z</time>
      </trkpt>
      <trkpt lat="44.89643" lon="4.65235">
        <ele>555</ele>
        <time>2026-05-04T08:20:28Z</time>
      </trkpt>
      <trkpt lat="44.89641" lon="4.65231">
        <ele>555.4</ele>
        <time>2026-05-04T08:20:33Z</time>
      </trkpt>
      <trkpt lat="44.89641" lon="4.65231">
        <ele>555.4</ele>
        <time>2026-05-04T08:20:38Z</time>
      </trkpt>
      <trkpt lat="44.89641" lon="4.65231">
        <ele>555.4</ele>
        <time>2026-05-04T08:20:43Z</time>
      </trkpt>
      <trkpt lat="44.89641" lon="4.65231">
        <ele>555.4</ele>
        <time>2026-05-04T08:20:48Z</time>
      </trkpt>
      <trkpt lat="44.89642" lon="4.65226">
        <ele>555.4</ele>
        <time>2026-05-04T08:20:53Z</time>
      </trkpt>
      <trkpt lat="44.89642" lon="4.6522">
        <ele>555.6</ele>
        <time>2026-05-04T08:20:58Z</time>
      </trkpt>
      <trkpt lat="44.89643" lon="4.65212">
        <ele>555.8</ele>
        <time>2026-05-04T08:21:03Z</time>
      </trkpt>
      <trkpt lat="44.89644" lon="4.65205">
        <ele>555.9</ele>
        <time>2026-05-04T08:21:08Z</time>
      </trkpt>
      <trkpt lat="44.89646" lon="4.65198">
        <ele>555.9</ele>
        <time>2026-05-04T08:21:13Z</time>
      </trkpt>
      <trkpt lat="44.89646" lon="4.65195">
        <ele>556</ele>
        <time>2026-05-04T08:21:18Z</time>
      </trkpt>
      <trkpt lat="44.89646" lon="4.65193">
        <ele>556.1</ele>
        <time>2026-05-04T08:21:23Z</time>
      </trkpt>
      <trkpt lat="44.89647" lon="4.65185">
        <ele>556.3</ele>
        <time>2026-05-04T08:21:28Z</time>
      </trkpt>
      <trkpt lat="44.89648" lon="4.65178">
        <ele>556.4</ele>
        <time>2026-05-04T08:21:33Z</time>
      </trkpt>
      <trkpt lat="44.89649" lon="4.6517">
        <ele>556.6</ele>
        <time>2026-05-04T08:21:38Z</time>
      </trkpt>
      <trkpt lat="44.89651" lon="4.65161">
        <ele>556.7</ele>
        <time>2026-05-04T08:21:43Z</time>
      </trkpt>
      <trkpt lat="44.89651" lon="4.65154">
        <ele>557</ele>
        <time>2026-05-04T08:21:48Z</time>
      </trkpt>
      <trkpt lat="44.89652" lon="4.65147">
        <ele>557.2</ele>
        <time>2026-05-04T08:21:53Z</time>
      </trkpt>
      <trkpt lat="44.89652" lon="4.65139">
        <ele>557.5</ele>
        <time>2026-05-04T08:21:58Z</time>
      </trkpt>
      <trkpt lat="44.89654" lon="4.65131">
        <ele>557.6</ele>
        <time>2026-05-04T08:22:03Z</time>
      </trkpt>
      <trkpt lat="44.89657" lon="4.65123">
        <ele>557.6</ele>
        <time>2026-05-04T08:22:08Z</time>
      </trkpt>
      <trkpt lat="44.89658" lon="4.65114">
        <ele>557.8</ele>
        <time>2026-05-04T08:22:13Z</time>
      </trkpt>
      <trkpt lat="44.89659" lon="4.65106">
        <ele>558</ele>
        <time>2026-05-04T08:22:18Z</time>
      </trkpt>
      <trkpt lat="44.8966" lon="4.65097">
        <ele>558.2</ele>
        <time>2026-05-04T08:22:23Z</time>
      </trkpt>
      <trkpt lat="44.89662" lon="4.65088">
        <ele>558.3</ele>
        <time>2026-05-04T08:22:28Z</time>
      </trkpt>
      <trkpt lat="44.89664" lon="4.65079">
        <ele>558.4</ele>
        <time>2026-05-04T08:22:33Z</time>
      </trkpt>
      <trkpt lat="44.89666" lon="4.65069">
        <ele>558.6</ele>
        <time>2026-05-04T08:22:38Z</time>
      </trkpt>
      <trkpt lat="44.89667" lon="4.6506">
        <ele>558.9</ele>
        <time>2026-05-04T08:22:43Z</time>
      </trkpt>
      <trkpt lat="44.89666" lon="4.65051">
        <ele>559.2</ele>
        <time>2026-05-04T08:22:48Z</time>
      </trkpt>
      <trkpt lat="44.89668" lon="4.65042">
        <ele>559.5</ele>
        <time>2026-05-04T08:22:53Z</time>
      </trkpt>
      <trkpt lat="44.8967" lon="4.65033">
        <ele>559.9</ele>
        <time>2026-05-04T08:22:58Z</time>
      </trkpt>
      <trkpt lat="44.89671" lon="4.65025">
        <ele>560.3</ele>
        <time>2026-05-04T08:23:03Z</time>
      </trkpt>
      <trkpt lat="44.8967" lon="4.65015">
        <ele>560.6</ele>
        <time>2026-05-04T08:23:08Z</time>
      </trkpt>
      <trkpt lat="44.89671" lon="4.65012">
        <ele>560.7</ele>
        <time>2026-05-04T08:23:13Z</time>
      </trkpt>
      <trkpt lat="44.89671" lon="4.65006">
        <ele>560.9</ele>
        <time>2026-05-04T08:23:18Z</time>
      </trkpt>
      <trkpt lat="44.89671" lon="4.64999">
        <ele>561.2</ele>
        <time>2026-05-04T08:23:23Z</time>
      </trkpt>
      <trkpt lat="44.89672" lon="4.64989">
        <ele>561.5</ele>
        <time>2026-05-04T08:23:28Z</time>
      </trkpt>
      <trkpt lat="44.89672" lon="4.64982">
        <ele>561.7</ele>
        <time>2026-05-04T08:23:33Z</time>
      </trkpt>
      <trkpt lat="44.89672" lon="4.64974">
        <ele>561.9</ele>
        <time>2026-05-04T08:23:38Z</time>
      </trkpt>
      <trkpt lat="44.89673" lon="4.64964">
        <ele>562.2</ele>
        <time>2026-05-04T08:23:43Z</time>
      </trkpt>
      <trkpt lat="44.89674" lon="4.64955">
        <ele>562.5</ele>
        <time>2026-05-04T08:23:48Z</time>
      </trkpt>
      <trkpt lat="44.89675" lon="4.64947">
        <ele>562.8</ele>
        <time>2026-05-04T08:23:53Z</time>
      </trkpt>
      <trkpt lat="44.89675" lon="4.64938">
        <ele>563</ele>
        <time>2026-05-04T08:23:58Z</time>
      </trkpt>
      <trkpt lat="44.89677" lon="4.64928">
        <ele>563.4</ele>
        <time>2026-05-04T08:24:03Z</time>
      </trkpt>
      <trkpt lat="44.89677" lon="4.64919">
        <ele>563.7</ele>
        <time>2026-05-04T08:24:08Z</time>
      </trkpt>
      <trkpt lat="44.89678" lon="4.64911">
        <ele>564.2</ele>
        <time>2026-05-04T08:24:13Z</time>
      </trkpt>
      <trkpt lat="44.89679" lon="4.64902">
        <ele>564.8</ele>
        <time>2026-05-04T08:24:18Z</time>
      </trkpt>
      <trkpt lat="44.8968" lon="4.64899">
        <ele>565.1</ele>
        <time>2026-05-04T08:24:23Z</time>
      </trkpt>
      <trkpt lat="44.8968" lon="4.64895">
        <ele>565.4</ele>
        <time>2026-05-04T08:24:28Z</time>
      </trkpt>
      <trkpt lat="44.8968" lon="4.6489">
        <ele>565.7</ele>
        <time>2026-05-04T08:24:33Z</time>
      </trkpt>
      <trkpt lat="44.8968" lon="4.64883">
        <ele>566.2</ele>
        <time>2026-05-04T08:24:38Z</time>
      </trkpt>
      <trkpt lat="44.89682" lon="4.64877">
        <ele>566.7</ele>
        <time>2026-05-04T08:24:43Z</time>
      </trkpt>
      <trkpt lat="44.89684" lon="4.64869">
        <ele>567.5</ele>
        <time>2026-05-04T08:24:48Z</time>
      </trkpt>
      <trkpt lat="44.89689" lon="4.64866">
        <ele>568.1</ele>
        <time>2026-05-04T08:24:53Z</time>
      </trkpt>
      <trkpt lat="44.89694" lon="4.64863">
        <ele>568.8</ele>
        <time>2026-05-04T08:24:58Z</time>
      </trkpt>
      <trkpt lat="44.897" lon="4.64863">
        <ele>569.4</ele>
        <time>2026-05-04T08:25:03Z</time>
      </trkpt>
      <trkpt lat="44.89707" lon="4.64864">
        <ele>570</ele>
        <time>2026-05-04T08:25:08Z</time>
      </trkpt>
      <trkpt lat="44.89713" lon="4.64865">
        <ele>570.5</ele>
        <time>2026-05-04T08:25:13Z</time>
      </trkpt>
      <trkpt lat="44.89719" lon="4.64867">
        <ele>570.9</ele>
        <time>2026-05-04T08:25:18Z</time>
      </trkpt>
      <trkpt lat="44.89726" lon="4.64869">
        <ele>571.4</ele>
        <time>2026-05-04T08:25:23Z</time>
      </trkpt>
      <trkpt lat="44.89732" lon="4.64872">
        <ele>571.6</ele>
        <time>2026-05-04T08:25:28Z</time>
      </trkpt>
      <trkpt lat="44.89737" lon="4.64875">
        <ele>571.8</ele>
        <time>2026-05-04T08:25:33Z</time>
      </trkpt>
      <trkpt lat="44.89744" lon="4.64878">
        <ele>572.2</ele>
        <time>2026-05-04T08:25:38Z</time>
      </trkpt>
      <trkpt lat="44.8975" lon="4.64881">
        <ele>572.4</ele>
        <time>2026-05-04T08:25:43Z</time>
      </trkpt>
      <trkpt lat="44.89756" lon="4.64888">
        <ele>572.4</ele>
        <time>2026-05-04T08:25:48Z</time>
      </trkpt>
      <trkpt lat="44.89763" lon="4.64889">
        <ele>573</ele>
        <time>2026-05-04T08:25:53Z</time>
      </trkpt>
      <trkpt lat="44.8977" lon="4.64893">
        <ele>573.4</ele>
        <time>2026-05-04T08:25:58Z</time>
      </trkpt>
      <trkpt lat="44.89777" lon="4.64895">
        <ele>573.9</ele>
        <time>2026-05-04T08:26:03Z</time>
      </trkpt>
      <trkpt lat="44.89784" lon="4.649">
        <ele>574.2</ele>
        <time>2026-05-04T08:26:08Z</time>
      </trkpt>
      <trkpt lat="44.89789" lon="4.64898">
        <ele>574.9</ele>
        <time>2026-05-04T08:26:13Z</time>
      </trkpt>
      <trkpt lat="44.89788" lon="4.64892">
        <ele>575.3</ele>
        <time>2026-05-04T08:26:18Z</time>
      </trkpt>
      <trkpt lat="44.89785" lon="4.64883">
        <ele>575.8</ele>
        <time>2026-05-04T08:26:23Z</time>
      </trkpt>
      <trkpt lat="44.89783" lon="4.64874">
        <ele>576.5</ele>
        <time>2026-05-04T08:26:28Z</time>
      </trkpt>
      <trkpt lat="44.89778" lon="4.64867">
        <ele>576.6</ele>
        <time>2026-05-04T08:26:33Z</time>
      </trkpt>
      <trkpt lat="44.89776" lon="4.64862">
        <ele>576.9</ele>
        <time>2026-05-04T08:26:38Z</time>
      </trkpt>
      <trkpt lat="44.89774" lon="4.64853">
        <ele>577.5</ele>
        <time>2026-05-04T08:26:43Z</time>
      </trkpt>
      <trkpt lat="44.89771" lon="4.64844">
        <ele>578</ele>
        <time>2026-05-04T08:26:48Z</time>
      </trkpt>
      <trkpt lat="44.8977" lon="4.64835">
        <ele>578.8</ele>
        <time>2026-05-04T08:26:53Z</time>
      </trkpt>
      <trkpt lat="44.89766" lon="4.64827">
        <ele>579</ele>
        <time>2026-05-04T08:26:58Z</time>
      </trkpt>
      <trkpt lat="44.89765" lon="4.64819">
        <ele>579.5</ele>
        <time>2026-05-04T08:27:03Z</time>
      </trkpt>
      <trkpt lat="44.8976" lon="4.64811">
        <ele>579.6</ele>
        <time>2026-05-04T08:27:08Z</time>
      </trkpt>
      <trkpt lat="44.89757" lon="4.64802">
        <ele>580.1</ele>
        <time>2026-05-04T08:27:13Z</time>
      </trkpt>
      <trkpt lat="44.89755" lon="4.64793">
        <ele>580.7</ele>
        <time>2026-05-04T08:27:18Z</time>
      </trkpt>
      <trkpt lat="44.89754" lon="4.64788">
        <ele>581</ele>
        <time>2026-05-04T08:27:23Z</time>
      </trkpt>
      <trkpt lat="44.89753" lon="4.64778">
        <ele>581.8</ele>
        <time>2026-05-04T08:27:28Z</time>
      </trkpt>
      <trkpt lat="44.89751" lon="4.64768">
        <ele>582.5</ele>
        <time>2026-05-04T08:27:33Z</time>
      </trkpt>
      <trkpt lat="44.89752" lon="4.64761">
        <ele>583.1</ele>
        <time>2026-05-04T08:27:38Z</time>
      </trkpt>
      <trkpt lat="44.8976" lon="4.64759">
        <ele>583.6</ele>
        <time>2026-05-04T08:27:43Z</time>
      </trkpt>
      <trkpt lat="44.89765" lon="4.64755">
        <ele>584</ele>
        <time>2026-05-04T08:27:48Z</time>
      </trkpt>
      <trkpt lat="44.8977" lon="4.64756">
        <ele>584.1</ele>
        <time>2026-05-04T08:27:53Z</time>
      </trkpt>
      <trkpt lat="44.89771" lon="4.64764">
        <ele>583.6</ele>
        <time>2026-05-04T08:27:58Z</time>
      </trkpt>
      <trkpt lat="44.89776" lon="4.64772">
        <ele>583.3</ele>
        <time>2026-05-04T08:28:03Z</time>
      </trkpt>
      <trkpt lat="44.89782" lon="4.64779">
        <ele>583.1</ele>
        <time>2026-05-04T08:28:08Z</time>
      </trkpt>
      <trkpt lat="44.89788" lon="4.64781">
        <ele>583.3</ele>
        <time>2026-05-04T08:28:13Z</time>
      </trkpt>
      <trkpt lat="44.89793" lon="4.64787">
        <ele>583.3</ele>
        <time>2026-05-04T08:28:18Z</time>
      </trkpt>
      <trkpt lat="44.89796" lon="4.64795">
        <ele>583.1</ele>
        <time>2026-05-04T08:28:23Z</time>
      </trkpt>
      <trkpt lat="44.898" lon="4.64804">
        <ele>583</ele>
        <time>2026-05-04T08:28:28Z</time>
      </trkpt>
      <trkpt lat="44.89803" lon="4.64814">
        <ele>582.8</ele>
        <time>2026-05-04T08:28:33Z</time>
      </trkpt>
      <trkpt lat="44.89806" lon="4.64822">
        <ele>582.8</ele>
        <time>2026-05-04T08:28:38Z</time>
      </trkpt>
      <trkpt lat="44.89812" lon="4.6483">
        <ele>583.1</ele>
        <time>2026-05-04T08:28:43Z</time>
      </trkpt>
      <trkpt lat="44.89818" lon="4.64836">
        <ele>583.3</ele>
        <time>2026-05-04T08:28:48Z</time>
      </trkpt>
      <trkpt lat="44.89824" lon="4.64841">
        <ele>583.4</ele>
        <time>2026-05-04T08:28:53Z</time>
      </trkpt>
      <trkpt lat="44.89824" lon="4.64849">
        <ele>582.8</ele>
        <time>2026-05-04T08:28:58Z</time>
      </trkpt>
      <trkpt lat="44.89824" lon="4.64852">
        <ele>582.5</ele>
        <time>2026-05-04T08:29:03Z</time>
      </trkpt>
      <trkpt lat="44.89822" lon="4.64852">
        <ele>582.3</ele>
        <time>2026-05-04T08:29:08Z</time>
      </trkpt>
      <trkpt lat="44.89822" lon="4.64852">
        <ele>582.3</ele>
        <time>2026-05-04T08:29:08Z</time>
      </trkpt>
      <trkpt lat="44.89834" lon="4.64838">
        <ele>584.6</ele>
        <time>2026-05-04T09:07:25Z</time>
      </trkpt>
      <trkpt lat="44.89834" lon="4.64837">
        <ele>584.7</ele>
        <time>2026-05-04T09:07:30Z</time>
      </trkpt>
      <trkpt lat="44.89833" lon="4.64837">
        <ele>584.7</ele>
        <time>2026-05-04T09:07:35Z</time>
      </trkpt>
      <trkpt lat="44.89833" lon="4.64837">
        <ele>584.7</ele>
        <time>2026-05-04T09:07:40Z</time>
      </trkpt>
      <trkpt lat="44.89827" lon="4.64836">
        <ele>584.2</ele>
        <time>2026-05-04T09:07:45Z</time>
      </trkpt>
      <trkpt lat="44.89819" lon="4.64833">
        <ele>583.6</ele>
        <time>2026-05-04T09:07:50Z</time>
      </trkpt>
      <trkpt lat="44.89814" lon="4.64826">
        <ele>583.4</ele>
        <time>2026-05-04T09:07:55Z</time>
      </trkpt>
      <trkpt lat="44.89812" lon="4.64817">
        <ele>583.4</ele>
        <time>2026-05-04T09:08:00Z</time>
      </trkpt>
      <trkpt lat="44.89807" lon="4.64811">
        <ele>583.2</ele>
        <time>2026-05-04T09:08:05Z</time>
      </trkpt>
      <trkpt lat="44.89802" lon="4.64804">
        <ele>583.1</ele>
        <time>2026-05-04T09:08:10Z</time>
      </trkpt>
      <trkpt lat="44.89798" lon="4.64797">
        <ele>583.2</ele>
        <time>2026-05-04T09:08:15Z</time>
      </trkpt>
      <trkpt lat="44.89798" lon="4.64785">
        <ele>583.7</ele>
        <time>2026-05-04T09:08:20Z</time>
      </trkpt>
      <trkpt lat="44.89796" lon="4.64774">
        <ele>584</ele>
        <time>2026-05-04T09:08:25Z</time>
      </trkpt>
      <trkpt lat="44.89797" lon="4.64766">
        <ele>584.4</ele>
        <time>2026-05-04T09:08:30Z</time>
      </trkpt>
      <trkpt lat="44.89795" lon="4.6476">
        <ele>584.6</ele>
        <time>2026-05-04T09:08:35Z</time>
      </trkpt>
      <trkpt lat="44.89789" lon="4.64755">
        <ele>584.7</ele>
        <time>2026-05-04T09:08:40Z</time>
      </trkpt>
      <trkpt lat="44.89787" lon="4.6475">
        <ele>584.9</ele>
        <time>2026-05-04T09:08:45Z</time>
      </trkpt>
      <trkpt lat="44.89783" lon="4.64745">
        <ele>584.8</ele>
        <time>2026-05-04T09:08:50Z</time>
      </trkpt>
      <trkpt lat="44.89778" lon="4.64742">
        <ele>584.7</ele>
        <time>2026-05-04T09:08:55Z</time>
      </trkpt>
      <trkpt lat="44.89773" lon="4.64737">
        <ele>584.7</ele>
        <time>2026-05-04T09:09:00Z</time>
      </trkpt>
      <trkpt lat="44.89768" lon="4.64731">
        <ele>584.7</ele>
        <time>2026-05-04T09:09:05Z</time>
      </trkpt>
      <trkpt lat="44.89763" lon="4.64726">
        <ele>584.7</ele>
        <time>2026-05-04T09:09:10Z</time>
      </trkpt>
      <trkpt lat="44.89757" lon="4.6472">
        <ele>584.8</ele>
        <time>2026-05-04T09:09:15Z</time>
      </trkpt>
      <trkpt lat="44.89752" lon="4.64713">
        <ele>584.9</ele>
        <time>2026-05-04T09:09:20Z</time>
      </trkpt>
      <trkpt lat="44.89748" lon="4.64704">
        <ele>585</ele>
        <time>2026-05-04T09:09:25Z</time>
      </trkpt>
      <trkpt lat="44.89743" lon="4.64694">
        <ele>584.9</ele>
        <time>2026-05-04T09:09:30Z</time>
      </trkpt>
      <trkpt lat="44.89737" lon="4.64687">
        <ele>584.7</ele>
        <time>2026-05-04T09:09:35Z</time>
      </trkpt>
      <trkpt lat="44.89732" lon="4.6468">
        <ele>584.6</ele>
        <time>2026-05-04T09:09:40Z</time>
      </trkpt>
      <trkpt lat="44.89728" lon="4.64676">
        <ele>584.6</ele>
        <time>2026-05-04T09:09:45Z</time>
      </trkpt>
      <trkpt lat="44.89724" lon="4.6467">
        <ele>584.6</ele>
        <time>2026-05-04T09:09:50Z</time>
      </trkpt>
      <trkpt lat="44.89718" lon="4.64666">
        <ele>584.5</ele>
        <time>2026-05-04T09:09:55Z</time>
      </trkpt>
      <trkpt lat="44.89713" lon="4.64658">
        <ele>584.5</ele>
        <time>2026-05-04T09:10:00Z</time>
      </trkpt>
      <trkpt lat="44.89709" lon="4.64651">
        <ele>584.5</ele>
        <time>2026-05-04T09:10:05Z</time>
      </trkpt>
      <trkpt lat="44.89704" lon="4.64647">
        <ele>584.4</ele>
        <time>2026-05-04T09:10:10Z</time>
      </trkpt>
      <trkpt lat="44.897" lon="4.64638">
        <ele>584.6</ele>
        <time>2026-05-04T09:10:15Z</time>
      </trkpt>
      <trkpt lat="44.89696" lon="4.64628">
        <ele>584.8</ele>
        <time>2026-05-04T09:10:20Z</time>
      </trkpt>
      <trkpt lat="44.89694" lon="4.64617">
        <ele>585.1</ele>
        <time>2026-05-04T09:10:25Z</time>
      </trkpt>
      <trkpt lat="44.89693" lon="4.64607">
        <ele>585.4</ele>
        <time>2026-05-04T09:10:30Z</time>
      </trkpt>
      <trkpt lat="44.8969" lon="4.646">
        <ele>585.6</ele>
        <time>2026-05-04T09:10:35Z</time>
      </trkpt>
      <trkpt lat="44.89685" lon="4.64594">
        <ele>585.8</ele>
        <time>2026-05-04T09:10:40Z</time>
      </trkpt>
      <trkpt lat="44.89681" lon="4.64587">
        <ele>586</ele>
        <time>2026-05-04T09:10:45Z</time>
      </trkpt>
      <trkpt lat="44.89675" lon="4.64578">
        <ele>586.3</ele>
        <time>2026-05-04T09:10:50Z</time>
      </trkpt>
      <trkpt lat="44.8967" lon="4.6457">
        <ele>586.7</ele>
        <time>2026-05-04T09:10:55Z</time>
      </trkpt>
      <trkpt lat="44.89664" lon="4.64561">
        <ele>587.1</ele>
        <time>2026-05-04T09:11:00Z</time>
      </trkpt>
      <trkpt lat="44.89659" lon="4.64555">
        <ele>587.3</ele>
        <time>2026-05-04T09:11:05Z</time>
      </trkpt>
      <trkpt lat="44.89652" lon="4.64551">
        <ele>587.5</ele>
        <time>2026-05-04T09:11:10Z</time>
      </trkpt>
      <trkpt lat="44.89649" lon="4.64545">
        <ele>587.8</ele>
        <time>2026-05-04T09:11:15Z</time>
      </trkpt>
      <trkpt lat="44.89647" lon="4.64529">
        <ele>588.7</ele>
        <time>2026-05-04T09:11:20Z</time>
      </trkpt>
      <trkpt lat="44.89649" lon="4.64514">
        <ele>589.5</ele>
        <time>2026-05-04T09:11:25Z</time>
      </trkpt>
      <trkpt lat="44.89652" lon="4.64508">
        <ele>589.8</ele>
        <time>2026-05-04T09:11:30Z</time>
      </trkpt>
      <trkpt lat="44.89652" lon="4.64502">
        <ele>590.1</ele>
        <time>2026-05-04T09:11:35Z</time>
      </trkpt>
      <trkpt lat="44.8965" lon="4.64498">
        <ele>590.3</ele>
        <time>2026-05-04T09:11:40Z</time>
      </trkpt>
      <trkpt lat="44.8965" lon="4.64498">
        <ele>590.3</ele>
        <time>2026-05-04T09:11:45Z</time>
      </trkpt>
      <trkpt lat="44.89641" lon="4.64483">
        <ele>591</ele>
        <time>2026-05-04T09:11:50Z</time>
      </trkpt>
      <trkpt lat="44.89636" lon="4.64481">
        <ele>591.1</ele>
        <time>2026-05-04T09:11:55Z</time>
      </trkpt>
      <trkpt lat="44.89632" lon="4.64479">
        <ele>591.3</ele>
        <time>2026-05-04T09:12:00Z</time>
      </trkpt>
      <trkpt lat="44.89626" lon="4.64479">
        <ele>591.4</ele>
        <time>2026-05-04T09:12:05Z</time>
      </trkpt>
      <trkpt lat="44.89621" lon="4.64476">
        <ele>591.6</ele>
        <time>2026-05-04T09:12:10Z</time>
      </trkpt>
      <trkpt lat="44.89615" lon="4.64475">
        <ele>591.7</ele>
        <time>2026-05-04T09:12:15Z</time>
      </trkpt>
      <trkpt lat="44.89609" lon="4.6447">
        <ele>592</ele>
        <time>2026-05-04T09:12:20Z</time>
      </trkpt>
      <trkpt lat="44.89605" lon="4.64467">
        <ele>592.2</ele>
        <time>2026-05-04T09:12:25Z</time>
      </trkpt>
      <trkpt lat="44.89599" lon="4.64466">
        <ele>592.4</ele>
        <time>2026-05-04T09:12:30Z</time>
      </trkpt>
      <trkpt lat="44.89594" lon="4.64462">
        <ele>592.6</ele>
        <time>2026-05-04T09:12:35Z</time>
      </trkpt>
      <trkpt lat="44.89587" lon="4.64461">
        <ele>592.8</ele>
        <time>2026-05-04T09:12:40Z</time>
      </trkpt>
      <trkpt lat="44.89582" lon="4.64461">
        <ele>592.8</ele>
        <time>2026-05-04T09:12:45Z</time>
      </trkpt>
      <trkpt lat="44.89578" lon="4.6446">
        <ele>592.8</ele>
        <time>2026-05-04T09:12:50Z</time>
      </trkpt>
      <trkpt lat="44.89573" lon="4.64458">
        <ele>592.8</ele>
        <time>2026-05-04T09:12:55Z</time>
      </trkpt>
      <trkpt lat="44.89571" lon="4.64456">
        <ele>592.9</ele>
        <time>2026-05-04T09:13:00Z</time>
      </trkpt>
      <trkpt lat="44.89569" lon="4.64456">
        <ele>592.8</ele>
        <time>2026-05-04T09:13:05Z</time>
      </trkpt>
      <trkpt lat="44.89567" lon="4.64458">
        <ele>592.7</ele>
        <time>2026-05-04T09:13:10Z</time>
      </trkpt>
      <trkpt lat="44.89562" lon="4.64461">
        <ele>592.5</ele>
        <time>2026-05-04T09:13:15Z</time>
      </trkpt>
      <trkpt lat="44.89554" lon="4.64459">
        <ele>592.4</ele>
        <time>2026-05-04T09:13:20Z</time>
      </trkpt>
      <trkpt lat="44.89546" lon="4.64457">
        <ele>592.4</ele>
        <time>2026-05-04T09:13:25Z</time>
      </trkpt>
      <trkpt lat="44.89542" lon="4.64459">
        <ele>592.2</ele>
        <time>2026-05-04T09:13:30Z</time>
      </trkpt>
      <trkpt lat="44.8954" lon="4.64458">
        <ele>592.2</ele>
        <time>2026-05-04T09:13:35Z</time>
      </trkpt>
      <trkpt lat="44.89535" lon="4.64457">
        <ele>592.2</ele>
        <time>2026-05-04T09:13:40Z</time>
      </trkpt>
      <trkpt lat="44.89529" lon="4.64457">
        <ele>592.1</ele>
        <time>2026-05-04T09:13:45Z</time>
      </trkpt>
      <trkpt lat="44.89523" lon="4.64456">
        <ele>592</ele>
        <time>2026-05-04T09:13:50Z</time>
      </trkpt>
      <trkpt lat="44.89517" lon="4.64455">
        <ele>591.9</ele>
        <time>2026-05-04T09:13:55Z</time>
      </trkpt>
      <trkpt lat="44.89508" lon="4.64454">
        <ele>591.7</ele>
        <time>2026-05-04T09:14:00Z</time>
      </trkpt>
      <trkpt lat="44.89502" lon="4.64452">
        <ele>591.6</ele>
        <time>2026-05-04T09:14:05Z</time>
      </trkpt>
      <trkpt lat="44.89496" lon="4.64453">
        <ele>591</ele>
        <time>2026-05-04T09:14:10Z</time>
      </trkpt>
      <trkpt lat="44.8949" lon="4.6445">
        <ele>590.2</ele>
        <time>2026-05-04T09:14:15Z</time>
      </trkpt>
      <trkpt lat="44.89484" lon="4.64451">
        <ele>589.3</ele>
        <time>2026-05-04T09:14:20Z</time>
      </trkpt>
      <trkpt lat="44.89482" lon="4.64447">
        <ele>589.1</ele>
        <time>2026-05-04T09:14:25Z</time>
      </trkpt>
      <trkpt lat="44.89479" lon="4.64441">
        <ele>588.7</ele>
        <time>2026-05-04T09:14:30Z</time>
      </trkpt>
      <trkpt lat="44.89476" lon="4.6444">
        <ele>588.2</ele>
        <time>2026-05-04T09:14:35Z</time>
      </trkpt>
      <trkpt lat="44.89474" lon="4.64438">
        <ele>587.9</ele>
        <time>2026-05-04T09:14:40Z</time>
      </trkpt>
      <trkpt lat="44.89474" lon="4.6444">
        <ele>587.9</ele>
        <time>2026-05-04T09:14:45Z</time>
      </trkpt>
      <trkpt lat="44.89473" lon="4.64441">
        <ele>587.8</ele>
        <time>2026-05-04T09:14:50Z</time>
      </trkpt>
      <trkpt lat="44.89473" lon="4.64441">
        <ele>587.8</ele>
        <time>2026-05-04T09:14:55Z</time>
      </trkpt>
      <trkpt lat="44.89473" lon="4.64441">
        <ele>587.8</ele>
        <time>2026-05-04T09:15:00Z</time>
      </trkpt>
      <trkpt lat="44.89473" lon="4.64441">
        <ele>587.8</ele>
        <time>2026-05-04T09:15:05Z</time>
      </trkpt>
      <trkpt lat="44.89473" lon="4.64441">
        <ele>587.8</ele>
        <time>2026-05-04T09:15:10Z</time>
      </trkpt>
      <trkpt lat="44.89473" lon="4.64441">
        <ele>587.8</ele>
        <time>2026-05-04T09:15:15Z</time>
      </trkpt>
      <trkpt lat="44.89473" lon="4.64441">
        <ele>587.8</ele>
        <time>2026-05-04T09:15:20Z</time>
      </trkpt>
      <trkpt lat="44.89473" lon="4.64441">
        <ele>587.8</ele>
        <time>2026-05-04T09:15:25Z</time>
      </trkpt>
      <trkpt lat="44.89473" lon="4.64441">
        <ele>587.8</ele>
        <time>2026-05-04T09:15:30Z</time>
      </trkpt>
      <trkpt lat="44.89473" lon="4.64441">
        <ele>587.8</ele>
        <time>2026-05-04T09:15:35Z</time>
      </trkpt>
      <trkpt lat="44.89473" lon="4.64441">
        <ele>587.8</ele>
        <time>2026-05-04T09:15:40Z</time>
      </trkpt>
      <trkpt lat="44.89473" lon="4.64441">
        <ele>587.8</ele>
        <time>2026-05-04T09:15:45Z</time>
      </trkpt>
      <trkpt lat="44.89473" lon="4.64441">
        <ele>587.8</ele>
        <time>2026-05-04T09:15:50Z</time>
      </trkpt>
      <trkpt lat="44.89467" lon="4.64452">
        <ele>586.9</ele>
        <time>2026-05-04T09:15:55Z</time>
      </trkpt>
      <trkpt lat="44.89466" lon="4.64454">
        <ele>586.8</ele>
        <time>2026-05-04T09:16:00Z</time>
      </trkpt>
      <trkpt lat="44.89466" lon="4.64454">
        <ele>586.8</ele>
        <time>2026-05-04T09:16:05Z</time>
      </trkpt>
      <trkpt lat="44.89466" lon="4.64454">
        <ele>586.8</ele>
        <time>2026-05-04T09:16:10Z</time>
      </trkpt>
      <trkpt lat="44.89466" lon="4.64454">
        <ele>586.8</ele>
        <time>2026-05-04T09:16:15Z</time>
      </trkpt>
      <trkpt lat="44.89462" lon="4.64457">
        <ele>586.3</ele>
        <time>2026-05-04T09:16:20Z</time>
      </trkpt>
      <trkpt lat="44.89462" lon="4.64457">
        <ele>586.3</ele>
        <time>2026-05-04T09:16:25Z</time>
      </trkpt>
      <trkpt lat="44.89462" lon="4.64457">
        <ele>586.3</ele>
        <time>2026-05-04T09:16:30Z</time>
      </trkpt>
      <trkpt lat="44.89462" lon="4.64457">
        <ele>586.3</ele>
        <time>2026-05-04T09:16:35Z</time>
      </trkpt>
      <trkpt lat="44.89462" lon="4.64457">
        <ele>586.3</ele>
        <time>2026-05-04T09:16:40Z</time>
      </trkpt>
      <trkpt lat="44.89462" lon="4.64457">
        <ele>586.3</ele>
        <time>2026-05-04T09:16:45Z</time>
      </trkpt>
      <trkpt lat="44.89462" lon="4.64457">
        <ele>586.3</ele>
        <time>2026-05-04T09:16:50Z</time>
      </trkpt>
      <trkpt lat="44.89462" lon="4.64457">
        <ele>586.3</ele>
        <time>2026-05-04T09:16:55Z</time>
      </trkpt>
      <trkpt lat="44.89462" lon="4.64457">
        <ele>586.3</ele>
        <time>2026-05-04T09:17:00Z</time>
      </trkpt>
      <trkpt lat="44.89462" lon="4.64457">
        <ele>586.3</ele>
        <time>2026-05-04T09:17:05Z</time>
      </trkpt>
      <trkpt lat="44.89464" lon="4.64452">
        <ele>586.5</ele>
        <time>2026-05-04T09:17:10Z</time>
      </trkpt>
      <trkpt lat="44.89464" lon="4.64441">
        <ele>586.5</ele>
        <time>2026-05-04T09:17:15Z</time>
      </trkpt>
      <trkpt lat="44.89461" lon="4.64432">
        <ele>586</ele>
        <time>2026-05-04T09:17:20Z</time>
      </trkpt>
      <trkpt lat="44.8946" lon="4.64421">
        <ele>585.8</ele>
        <time>2026-05-04T09:17:25Z</time>
      </trkpt>
      <trkpt lat="44.89462" lon="4.64416">
        <ele>586</ele>
        <time>2026-05-04T09:17:30Z</time>
      </trkpt>
      <trkpt lat="44.89461" lon="4.64411">
        <ele>585.7</ele>
        <time>2026-05-04T09:17:35Z</time>
      </trkpt>
      <trkpt lat="44.89461" lon="4.64411">
        <ele>585.7</ele>
        <time>2026-05-04T09:17:40Z</time>
      </trkpt>
      <trkpt lat="44.89462" lon="4.64403">
        <ele>585.5</ele>
        <time>2026-05-04T09:17:45Z</time>
      </trkpt>
      <trkpt lat="44.89467" lon="4.64394">
        <ele>585.9</ele>
        <time>2026-05-04T09:17:50Z</time>
      </trkpt>
      <trkpt lat="44.89472" lon="4.64389">
        <ele>586.3</ele>
        <time>2026-05-04T09:17:55Z</time>
      </trkpt>
      <trkpt lat="44.89476" lon="4.64382">
        <ele>586.5</ele>
        <time>2026-05-04T09:18:00Z</time>
      </trkpt>
      <trkpt lat="44.89479" lon="4.64373">
        <ele>586.4</ele>
        <time>2026-05-04T09:18:05Z</time>
      </trkpt>
      <trkpt lat="44.89483" lon="4.64359">
        <ele>586</ele>
        <time>2026-05-04T09:18:10Z</time>
      </trkpt>
      <trkpt lat="44.89483" lon="4.64348">
        <ele>585.4</ele>
        <time>2026-05-04T09:18:15Z</time>
      </trkpt>
      <trkpt lat="44.89481" lon="4.64337">
        <ele>584.6</ele>
        <time>2026-05-04T09:18:20Z</time>
      </trkpt>
      <trkpt lat="44.89482" lon="4.64326">
        <ele>584.1</ele>
        <time>2026-05-04T09:18:25Z</time>
      </trkpt>
      <trkpt lat="44.89482" lon="4.64316">
        <ele>583.6</ele>
        <time>2026-05-04T09:18:30Z</time>
      </trkpt>
      <trkpt lat="44.8948" lon="4.64308">
        <ele>583</ele>
        <time>2026-05-04T09:18:35Z</time>
      </trkpt>
      <trkpt lat="44.8948" lon="4.64303">
        <ele>582.8</ele>
        <time>2026-05-04T09:18:40Z</time>
      </trkpt>
      <trkpt lat="44.89479" lon="4.64292">
        <ele>582.1</ele>
        <time>2026-05-04T09:18:45Z</time>
      </trkpt>
      <trkpt lat="44.89482" lon="4.6428">
        <ele>581.8</ele>
        <time>2026-05-04T09:18:50Z</time>
      </trkpt>
      <trkpt lat="44.89479" lon="4.64271">
        <ele>581.1</ele>
        <time>2026-05-04T09:18:55Z</time>
      </trkpt>
      <trkpt lat="44.89471" lon="4.64261">
        <ele>579.8</ele>
        <time>2026-05-04T09:19:00Z</time>
      </trkpt>
      <trkpt lat="44.89469" lon="4.6425">
        <ele>579</ele>
        <time>2026-05-04T09:19:05Z</time>
      </trkpt>
      <trkpt lat="44.89466" lon="4.64243">
        <ele>578.6</ele>
        <time>2026-05-04T09:19:10Z</time>
      </trkpt>
      <trkpt lat="44.89466" lon="4.64243">
        <ele>578.6</ele>
        <time>2026-05-04T09:19:15Z</time>
      </trkpt>
      <trkpt lat="44.89467" lon="4.64239">
        <ele>578.6</ele>
        <time>2026-05-04T09:19:20Z</time>
      </trkpt>
      <trkpt lat="44.89461" lon="4.64224">
        <ele>577.8</ele>
        <time>2026-05-04T09:19:25Z</time>
      </trkpt>
      <trkpt lat="44.89454" lon="4.64216">
        <ele>577</ele>
        <time>2026-05-04T09:19:30Z</time>
      </trkpt>
      <trkpt lat="44.89448" lon="4.64207">
        <ele>576.4</ele>
        <time>2026-05-04T09:19:35Z</time>
      </trkpt>
      <trkpt lat="44.89447" lon="4.64198">
        <ele>576.2</ele>
        <time>2026-05-04T09:19:40Z</time>
      </trkpt>
      <trkpt lat="44.89448" lon="4.64192">
        <ele>576.2</ele>
        <time>2026-05-04T09:19:45Z</time>
      </trkpt>
      <trkpt lat="44.8945" lon="4.64187">
        <ele>576.3</ele>
        <time>2026-05-04T09:19:50Z</time>
      </trkpt>
      <trkpt lat="44.8945" lon="4.64185">
        <ele>576.3</ele>
        <time>2026-05-04T09:19:55Z</time>
      </trkpt>
      <trkpt lat="44.89446" lon="4.64185">
        <ele>576</ele>
        <time>2026-05-04T09:20:00Z</time>
      </trkpt>
      <trkpt lat="44.89438" lon="4.64184">
        <ele>575.4</ele>
        <time>2026-05-04T09:20:05Z</time>
      </trkpt>
      <trkpt lat="44.89432" lon="4.64178">
        <ele>575</ele>
        <time>2026-05-04T09:20:10Z</time>
      </trkpt>
      <trkpt lat="44.89427" lon="4.6417">
        <ele>574.6</ele>
        <time>2026-05-04T09:20:15Z</time>
      </trkpt>
      <trkpt lat="44.89422" lon="4.64161">
        <ele>574.6</ele>
        <time>2026-05-04T09:20:20Z</time>
      </trkpt>
      <trkpt lat="44.89417" lon="4.64154">
        <ele>574.6</ele>
        <time>2026-05-04T09:20:25Z</time>
      </trkpt>
      <trkpt lat="44.89413" lon="4.64146">
        <ele>574.7</ele>
        <time>2026-05-04T09:20:30Z</time>
      </trkpt>
      <trkpt lat="44.89408" lon="4.64138">
        <ele>574.7</ele>
        <time>2026-05-04T09:20:35Z</time>
      </trkpt>
      <trkpt lat="44.89405" lon="4.64132">
        <ele>574.8</ele>
        <time>2026-05-04T09:20:40Z</time>
      </trkpt>
      <trkpt lat="44.894" lon="4.64125">
        <ele>574.8</ele>
        <time>2026-05-04T09:20:45Z</time>
      </trkpt>
      <trkpt lat="44.89394" lon="4.64115">
        <ele>574.9</ele>
        <time>2026-05-04T09:20:50Z</time>
      </trkpt>
      <trkpt lat="44.8939" lon="4.64107">
        <ele>575.1</ele>
        <time>2026-05-04T09:20:55Z</time>
      </trkpt>
      <trkpt lat="44.89385" lon="4.64099">
        <ele>575.2</ele>
        <time>2026-05-04T09:21:00Z</time>
      </trkpt>
      <trkpt lat="44.8938" lon="4.64092">
        <ele>575.3</ele>
        <time>2026-05-04T09:21:05Z</time>
      </trkpt>
      <trkpt lat="44.89375" lon="4.64083">
        <ele>575.5</ele>
        <time>2026-05-04T09:21:10Z</time>
      </trkpt>
      <trkpt lat="44.89371" lon="4.64075">
        <ele>575.4</ele>
        <time>2026-05-04T09:21:15Z</time>
      </trkpt>
      <trkpt lat="44.89367" lon="4.64067">
        <ele>575.4</ele>
        <time>2026-05-04T09:21:20Z</time>
      </trkpt>
      <trkpt lat="44.89362" lon="4.64058">
        <ele>575.5</ele>
        <time>2026-05-04T09:21:25Z</time>
      </trkpt>
      <trkpt lat="44.89356" lon="4.64051">
        <ele>575.6</ele>
        <time>2026-05-04T09:21:30Z</time>
      </trkpt>
      <trkpt lat="44.89349" lon="4.64044">
        <ele>575.7</ele>
        <time>2026-05-04T09:21:35Z</time>
      </trkpt>
      <trkpt lat="44.89342" lon="4.64039">
        <ele>575.8</ele>
        <time>2026-05-04T09:21:40Z</time>
      </trkpt>
      <trkpt lat="44.89335" lon="4.64033">
        <ele>576</ele>
        <time>2026-05-04T09:21:45Z</time>
      </trkpt>
      <trkpt lat="44.89328" lon="4.6403">
        <ele>576.1</ele>
        <time>2026-05-04T09:21:50Z</time>
      </trkpt>
      <trkpt lat="44.89322" lon="4.64026">
        <ele>576.2</ele>
        <time>2026-05-04T09:21:55Z</time>
      </trkpt>
      <trkpt lat="44.89315" lon="4.64021">
        <ele>576.4</ele>
        <time>2026-05-04T09:22:00Z</time>
      </trkpt>
      <trkpt lat="44.89308" lon="4.64016">
        <ele>576.5</ele>
        <time>2026-05-04T09:22:05Z</time>
      </trkpt>
      <trkpt lat="44.89301" lon="4.6401">
        <ele>576.7</ele>
        <time>2026-05-04T09:22:10Z</time>
      </trkpt>
      <trkpt lat="44.893" lon="4.64007">
        <ele>576.8</ele>
        <time>2026-05-04T09:22:15Z</time>
      </trkpt>
      <trkpt lat="44.89296" lon="4.64001">
        <ele>577</ele>
        <time>2026-05-04T09:22:20Z</time>
      </trkpt>
      <trkpt lat="44.89291" lon="4.63992">
        <ele>576.8</ele>
        <time>2026-05-04T09:22:25Z</time>
      </trkpt>
      <trkpt lat="44.89284" lon="4.63986">
        <ele>576.5</ele>
        <time>2026-05-04T09:22:30Z</time>
      </trkpt>
      <trkpt lat="44.8928" lon="4.63977">
        <ele>576.2</ele>
        <time>2026-05-04T09:22:35Z</time>
      </trkpt>
      <trkpt lat="44.89277" lon="4.63968">
        <ele>576</ele>
        <time>2026-05-04T09:22:40Z</time>
      </trkpt>
      <trkpt lat="44.89273" lon="4.63959">
        <ele>575.8</ele>
        <time>2026-05-04T09:22:45Z</time>
      </trkpt>
      <trkpt lat="44.89268" lon="4.63952">
        <ele>575.6</ele>
        <time>2026-05-04T09:22:50Z</time>
      </trkpt>
      <trkpt lat="44.89262" lon="4.63946">
        <ele>575.5</ele>
        <time>2026-05-04T09:22:55Z</time>
      </trkpt>
      <trkpt lat="44.89255" lon="4.63939">
        <ele>575.3</ele>
        <time>2026-05-04T09:23:00Z</time>
      </trkpt>
      <trkpt lat="44.89249" lon="4.63935">
        <ele>575.2</ele>
        <time>2026-05-04T09:23:05Z</time>
      </trkpt>
      <trkpt lat="44.89241" lon="4.63929">
        <ele>575.1</ele>
        <time>2026-05-04T09:23:10Z</time>
      </trkpt>
      <trkpt lat="44.89233" lon="4.63925">
        <ele>574.9</ele>
        <time>2026-05-04T09:23:15Z</time>
      </trkpt>
      <trkpt lat="44.89225" lon="4.63921">
        <ele>574.8</ele>
        <time>2026-05-04T09:23:20Z</time>
      </trkpt>
      <trkpt lat="44.89218" lon="4.63917">
        <ele>574.6</ele>
        <time>2026-05-04T09:23:25Z</time>
      </trkpt>
      <trkpt lat="44.89211" lon="4.63911">
        <ele>574.4</ele>
        <time>2026-05-04T09:23:30Z</time>
      </trkpt>
      <trkpt lat="44.89204" lon="4.63907">
        <ele>574.2</ele>
        <time>2026-05-04T09:23:35Z</time>
      </trkpt>
      <trkpt lat="44.89197" lon="4.63902">
        <ele>574.1</ele>
        <time>2026-05-04T09:23:40Z</time>
      </trkpt>
      <trkpt lat="44.8919" lon="4.63899">
        <ele>574</ele>
        <time>2026-05-04T09:23:45Z</time>
      </trkpt>
      <trkpt lat="44.89183" lon="4.63894">
        <ele>574</ele>
        <time>2026-05-04T09:23:50Z</time>
      </trkpt>
      <trkpt lat="44.89175" lon="4.63891">
        <ele>574</ele>
        <time>2026-05-04T09:23:55Z</time>
      </trkpt>
      <trkpt lat="44.89169" lon="4.63886">
        <ele>574</ele>
        <time>2026-05-04T09:24:00Z</time>
      </trkpt>
      <trkpt lat="44.89163" lon="4.63881">
        <ele>573.7</ele>
        <time>2026-05-04T09:24:05Z</time>
      </trkpt>
      <trkpt lat="44.89157" lon="4.63875">
        <ele>573.3</ele>
        <time>2026-05-04T09:24:10Z</time>
      </trkpt>
      <trkpt lat="44.89152" lon="4.63867">
        <ele>572.9</ele>
        <time>2026-05-04T09:24:15Z</time>
      </trkpt>
      <trkpt lat="44.89146" lon="4.6386">
        <ele>572.4</ele>
        <time>2026-05-04T09:24:20Z</time>
      </trkpt>
      <trkpt lat="44.89143" lon="4.63852">
        <ele>572.1</ele>
        <time>2026-05-04T09:24:25Z</time>
      </trkpt>
      <trkpt lat="44.8914" lon="4.63844">
        <ele>571.8</ele>
        <time>2026-05-04T09:24:30Z</time>
      </trkpt>
      <trkpt lat="44.89137" lon="4.63835">
        <ele>571.5</ele>
        <time>2026-05-04T09:24:35Z</time>
      </trkpt>
      <trkpt lat="44.89135" lon="4.63828">
        <ele>571.3</ele>
        <time>2026-05-04T09:24:40Z</time>
      </trkpt>
      <trkpt lat="44.89135" lon="4.63818">
        <ele>571.2</ele>
        <time>2026-05-04T09:24:45Z</time>
      </trkpt>
      <trkpt lat="44.89134" lon="4.63806">
        <ele>570.9</ele>
        <time>2026-05-04T09:24:50Z</time>
      </trkpt>
      <trkpt lat="44.89132" lon="4.63796">
        <ele>570.6</ele>
        <time>2026-05-04T09:24:55Z</time>
      </trkpt>
      <trkpt lat="44.89128" lon="4.63786">
        <ele>570.2</ele>
        <time>2026-05-04T09:25:00Z</time>
      </trkpt>
      <trkpt lat="44.89124" lon="4.63778">
        <ele>569.8</ele>
        <time>2026-05-04T09:25:05Z</time>
      </trkpt>
      <trkpt lat="44.89117" lon="4.6377">
        <ele>569.1</ele>
        <time>2026-05-04T09:25:10Z</time>
      </trkpt>
      <trkpt lat="44.89113" lon="4.63765">
        <ele>568.7</ele>
        <time>2026-05-04T09:25:15Z</time>
      </trkpt>
      <trkpt lat="44.8911" lon="4.63754">
        <ele>568.3</ele>
        <time>2026-05-04T09:25:20Z</time>
      </trkpt>
      <trkpt lat="44.89105" lon="4.63744">
        <ele>567.9</ele>
        <time>2026-05-04T09:25:25Z</time>
      </trkpt>
      <trkpt lat="44.89099" lon="4.63735">
        <ele>567.6</ele>
        <time>2026-05-04T09:25:30Z</time>
      </trkpt>
      <trkpt lat="44.89093" lon="4.63727">
        <ele>567.3</ele>
        <time>2026-05-04T09:25:35Z</time>
      </trkpt>
      <trkpt lat="44.89089" lon="4.63717">
        <ele>567.2</ele>
        <time>2026-05-04T09:25:40Z</time>
      </trkpt>
      <trkpt lat="44.89085" lon="4.63707">
        <ele>567.1</ele>
        <time>2026-05-04T09:25:45Z</time>
      </trkpt>
      <trkpt lat="44.89078" lon="4.63697">
        <ele>566.5</ele>
        <time>2026-05-04T09:25:50Z</time>
      </trkpt>
      <trkpt lat="44.89072" lon="4.6369">
        <ele>565.9</ele>
        <time>2026-05-04T09:25:55Z</time>
      </trkpt>
      <trkpt lat="44.89066" lon="4.63683">
        <ele>565.3</ele>
        <time>2026-05-04T09:26:00Z</time>
      </trkpt>
      <trkpt lat="44.8906" lon="4.63674">
        <ele>564.9</ele>
        <time>2026-05-04T09:26:05Z</time>
      </trkpt>
      <trkpt lat="44.89054" lon="4.63666">
        <ele>564.5</ele>
        <time>2026-05-04T09:26:10Z</time>
      </trkpt>
      <trkpt lat="44.89049" lon="4.63658">
        <ele>564.4</ele>
        <time>2026-05-04T09:26:15Z</time>
      </trkpt>
      <trkpt lat="44.89043" lon="4.63651">
        <ele>564.2</ele>
        <time>2026-05-04T09:26:20Z</time>
      </trkpt>
      <trkpt lat="44.89037" lon="4.63644">
        <ele>564</ele>
        <time>2026-05-04T09:26:25Z</time>
      </trkpt>
      <trkpt lat="44.89031" lon="4.63637">
        <ele>564</ele>
        <time>2026-05-04T09:26:30Z</time>
      </trkpt>
      <trkpt lat="44.89024" lon="4.6363">
        <ele>564</ele>
        <time>2026-05-04T09:26:35Z</time>
      </trkpt>
      <trkpt lat="44.89018" lon="4.63624">
        <ele>564</ele>
        <time>2026-05-04T09:26:40Z</time>
      </trkpt>
      <trkpt lat="44.89016" lon="4.63621">
        <ele>564.1</ele>
        <time>2026-05-04T09:26:45Z</time>
      </trkpt>
      <trkpt lat="44.89011" lon="4.63618">
        <ele>564</ele>
        <time>2026-05-04T09:26:50Z</time>
      </trkpt>
      <trkpt lat="44.89009" lon="4.63618">
        <ele>563.9</ele>
        <time>2026-05-04T09:26:55Z</time>
      </trkpt>
      <trkpt lat="44.89008" lon="4.63619">
        <ele>563.7</ele>
        <time>2026-05-04T09:27:00Z</time>
      </trkpt>
      <trkpt lat="44.89008" lon="4.63619">
        <ele>563.7</ele>
        <time>2026-05-04T09:27:05Z</time>
      </trkpt>
      <trkpt lat="44.89008" lon="4.63619">
        <ele>563.7</ele>
        <time>2026-05-04T09:27:10Z</time>
      </trkpt>
      <trkpt lat="44.89008" lon="4.63619">
        <ele>563.7</ele>
        <time>2026-05-04T09:27:15Z</time>
      </trkpt>
      <trkpt lat="44.89008" lon="4.63619">
        <ele>563.7</ele>
        <time>2026-05-04T09:27:20Z</time>
      </trkpt>
      <trkpt lat="44.89008" lon="4.63619">
        <ele>563.7</ele>
        <time>2026-05-04T09:27:25Z</time>
      </trkpt>
      <trkpt lat="44.89008" lon="4.63619">
        <ele>563.7</ele>
        <time>2026-05-04T09:27:30Z</time>
      </trkpt>
      <trkpt lat="44.89008" lon="4.63619">
        <ele>563.7</ele>
        <time>2026-05-04T09:27:35Z</time>
      </trkpt>
      <trkpt lat="44.89008" lon="4.63619">
        <ele>563.7</ele>
        <time>2026-05-04T09:27:40Z</time>
      </trkpt>
      <trkpt lat="44.89008" lon="4.63619">
        <ele>563.7</ele>
        <time>2026-05-04T09:27:45Z</time>
      </trkpt>
      <trkpt lat="44.89008" lon="4.63619">
        <ele>563.7</ele>
        <time>2026-05-04T09:27:50Z</time>
      </trkpt>
      <trkpt lat="44.89007" lon="4.63613">
        <ele>564.3</ele>
        <time>2026-05-04T09:27:55Z</time>
      </trkpt>
      <trkpt lat="44.88999" lon="4.6361">
        <ele>564</ele>
        <time>2026-05-04T09:28:00Z</time>
      </trkpt>
      <trkpt lat="44.88993" lon="4.63606">
        <ele>564</ele>
        <time>2026-05-04T09:28:05Z</time>
      </trkpt>
      <trkpt lat="44.88986" lon="4.63602">
        <ele>563.9</ele>
        <time>2026-05-04T09:28:10Z</time>
      </trkpt>
      <trkpt lat="44.88979" lon="4.63598">
        <ele>563.8</ele>
        <time>2026-05-04T09:28:15Z</time>
      </trkpt>
      <trkpt lat="44.88973" lon="4.63593">
        <ele>563.9</ele>
        <time>2026-05-04T09:28:20Z</time>
      </trkpt>
      <trkpt lat="44.88966" lon="4.63589">
        <ele>563.9</ele>
        <time>2026-05-04T09:28:25Z</time>
      </trkpt>
      <trkpt lat="44.88961" lon="4.63585">
        <ele>564</ele>
        <time>2026-05-04T09:28:30Z</time>
      </trkpt>
      <trkpt lat="44.88955" lon="4.63581">
        <ele>563.8</ele>
        <time>2026-05-04T09:28:35Z</time>
      </trkpt>
      <trkpt lat="44.88949" lon="4.63576">
        <ele>563.5</ele>
        <time>2026-05-04T09:28:40Z</time>
      </trkpt>
      <trkpt lat="44.88943" lon="4.63571">
        <ele>563.2</ele>
        <time>2026-05-04T09:28:45Z</time>
      </trkpt>
      <trkpt lat="44.88937" lon="4.6357">
        <ele>562.8</ele>
        <time>2026-05-04T09:28:50Z</time>
      </trkpt>
      <trkpt lat="44.88932" lon="4.63566">
        <ele>562.6</ele>
        <time>2026-05-04T09:28:55Z</time>
      </trkpt>
      <trkpt lat="44.88925" lon="4.63562">
        <ele>562.3</ele>
        <time>2026-05-04T09:29:00Z</time>
      </trkpt>
      <trkpt lat="44.88918" lon="4.63558">
        <ele>562</ele>
        <time>2026-05-04T09:29:05Z</time>
      </trkpt>
      <trkpt lat="44.88911" lon="4.63553">
        <ele>561.2</ele>
        <time>2026-05-04T09:29:10Z</time>
      </trkpt>
      <trkpt lat="44.88904" lon="4.63549">
        <ele>560.2</ele>
        <time>2026-05-04T09:29:15Z</time>
      </trkpt>
      <trkpt lat="44.88897" lon="4.63546">
        <ele>559.3</ele>
        <time>2026-05-04T09:29:20Z</time>
      </trkpt>
      <trkpt lat="44.88889" lon="4.63542">
        <ele>558.2</ele>
        <time>2026-05-04T09:29:25Z</time>
      </trkpt>
      <trkpt lat="44.88881" lon="4.63539">
        <ele>557.1</ele>
        <time>2026-05-04T09:29:30Z</time>
      </trkpt>
      <trkpt lat="44.88875" lon="4.63537">
        <ele>556.2</ele>
        <time>2026-05-04T09:29:35Z</time>
      </trkpt>
      <trkpt lat="44.88866" lon="4.63535">
        <ele>554.9</ele>
        <time>2026-05-04T09:29:40Z</time>
      </trkpt>
      <trkpt lat="44.88858" lon="4.63532">
        <ele>553.9</ele>
        <time>2026-05-04T09:29:45Z</time>
      </trkpt>
      <trkpt lat="44.88851" lon="4.6353">
        <ele>552.9</ele>
        <time>2026-05-04T09:29:50Z</time>
      </trkpt>
      <trkpt lat="44.88843" lon="4.63529">
        <ele>551.7</ele>
        <time>2026-05-04T09:29:55Z</time>
      </trkpt>
      <trkpt lat="44.88836" lon="4.63528">
        <ele>550.7</ele>
        <time>2026-05-04T09:30:00Z</time>
      </trkpt>
      <trkpt lat="44.88829" lon="4.63528">
        <ele>549.5</ele>
        <time>2026-05-04T09:30:05Z</time>
      </trkpt>
      <trkpt lat="44.88825" lon="4.63526">
        <ele>548.8</ele>
        <time>2026-05-04T09:30:10Z</time>
      </trkpt>
      <trkpt lat="44.88821" lon="4.63524">
        <ele>548.2</ele>
        <time>2026-05-04T09:30:15Z</time>
      </trkpt>
      <trkpt lat="44.88817" lon="4.63523">
        <ele>547.5</ele>
        <time>2026-05-04T09:30:20Z</time>
      </trkpt>
      <trkpt lat="44.88815" lon="4.63524">
        <ele>547</ele>
        <time>2026-05-04T09:30:25Z</time>
      </trkpt>
      <trkpt lat="44.88814" lon="4.63524">
        <ele>546.8</ele>
        <time>2026-05-04T09:30:30Z</time>
      </trkpt>
      <trkpt lat="44.88814" lon="4.63524">
        <ele>546.8</ele>
        <time>2026-05-04T09:30:35Z</time>
      </trkpt>
      <trkpt lat="44.88804" lon="4.63518">
        <ele>545.3</ele>
        <time>2026-05-04T09:30:40Z</time>
      </trkpt>
      <trkpt lat="44.888" lon="4.63512">
        <ele>544.9</ele>
        <time>2026-05-04T09:30:45Z</time>
      </trkpt>
      <trkpt lat="44.88793" lon="4.63508">
        <ele>543.8</ele>
        <time>2026-05-04T09:30:50Z</time>
      </trkpt>
      <trkpt lat="44.88785" lon="4.63507">
        <ele>542.3</ele>
        <time>2026-05-04T09:30:55Z</time>
      </trkpt>
      <trkpt lat="44.88779" lon="4.63504">
        <ele>541.3</ele>
        <time>2026-05-04T09:31:00Z</time>
      </trkpt>
      <trkpt lat="44.88771" lon="4.63504">
        <ele>539.8</ele>
        <time>2026-05-04T09:31:05Z</time>
      </trkpt>
      <trkpt lat="44.88765" lon="4.63503">
        <ele>538.7</ele>
        <time>2026-05-04T09:31:10Z</time>
      </trkpt>
      <trkpt lat="44.88758" lon="4.63499">
        <ele>537.5</ele>
        <time>2026-05-04T09:31:15Z</time>
      </trkpt>
      <trkpt lat="44.88752" lon="4.63497">
        <ele>536.2</ele>
        <time>2026-05-04T09:31:20Z</time>
      </trkpt>
      <trkpt lat="44.88749" lon="4.63494">
        <ele>535.6</ele>
        <time>2026-05-04T09:31:25Z</time>
      </trkpt>
      <trkpt lat="44.88747" lon="4.63494">
        <ele>535.5</ele>
        <time>2026-05-04T09:31:30Z</time>
      </trkpt>
      <trkpt lat="44.88743" lon="4.63493">
        <ele>535.2</ele>
        <time>2026-05-04T09:31:35Z</time>
      </trkpt>
      <trkpt lat="44.88739" lon="4.63492">
        <ele>534.8</ele>
        <time>2026-05-04T09:31:40Z</time>
      </trkpt>
      <trkpt lat="44.88735" lon="4.63492">
        <ele>534.5</ele>
        <time>2026-05-04T09:31:45Z</time>
      </trkpt>
      <trkpt lat="44.8873" lon="4.6349">
        <ele>534.1</ele>
        <time>2026-05-04T09:31:50Z</time>
      </trkpt>
      <trkpt lat="44.88726" lon="4.63488">
        <ele>533.7</ele>
        <time>2026-05-04T09:31:55Z</time>
      </trkpt>
      <trkpt lat="44.88721" lon="4.63485">
        <ele>533.1</ele>
        <time>2026-05-04T09:32:00Z</time>
      </trkpt>
      <trkpt lat="44.88716" lon="4.63485">
        <ele>532.8</ele>
        <time>2026-05-04T09:32:05Z</time>
      </trkpt>
      <trkpt lat="44.8871" lon="4.63485">
        <ele>532.3</ele>
        <time>2026-05-04T09:32:10Z</time>
      </trkpt>
      <trkpt lat="44.88704" lon="4.63486">
        <ele>531.9</ele>
        <time>2026-05-04T09:32:15Z</time>
      </trkpt>
      <trkpt lat="44.88698" lon="4.63484">
        <ele>531.4</ele>
        <time>2026-05-04T09:32:20Z</time>
      </trkpt>
      <trkpt lat="44.88693" lon="4.63482">
        <ele>530.9</ele>
        <time>2026-05-04T09:32:25Z</time>
      </trkpt>
      <trkpt lat="44.88687" lon="4.63481">
        <ele>530.4</ele>
        <time>2026-05-04T09:32:30Z</time>
      </trkpt>
      <trkpt lat="44.88681" lon="4.6348">
        <ele>529.9</ele>
        <time>2026-05-04T09:32:35Z</time>
      </trkpt>
      <trkpt lat="44.88675" lon="4.63479">
        <ele>529.4</ele>
        <time>2026-05-04T09:32:40Z</time>
      </trkpt>
      <trkpt lat="44.8867" lon="4.63477">
        <ele>528.9</ele>
        <time>2026-05-04T09:32:45Z</time>
      </trkpt>
      <trkpt lat="44.88663" lon="4.63476">
        <ele>528.3</ele>
        <time>2026-05-04T09:32:50Z</time>
      </trkpt>
      <trkpt lat="44.88656" lon="4.63474">
        <ele>527.7</ele>
        <time>2026-05-04T09:32:55Z</time>
      </trkpt>
      <trkpt lat="44.88652" lon="4.63472">
        <ele>527.3</ele>
        <time>2026-05-04T09:33:00Z</time>
      </trkpt>
      <trkpt lat="44.88647" lon="4.63463">
        <ele>526.5</ele>
        <time>2026-05-04T09:33:05Z</time>
      </trkpt>
      <trkpt lat="44.88646" lon="4.63453">
        <ele>526</ele>
        <time>2026-05-04T09:33:10Z</time>
      </trkpt>
      <trkpt lat="44.88646" lon="4.63446">
        <ele>525.7</ele>
        <time>2026-05-04T09:33:15Z</time>
      </trkpt>
      <trkpt lat="44.88647" lon="4.63437">
        <ele>525.3</ele>
        <time>2026-05-04T09:33:20Z</time>
      </trkpt>
      <trkpt lat="44.88649" lon="4.63427">
        <ele>524.9</ele>
        <time>2026-05-04T09:33:25Z</time>
      </trkpt>
      <trkpt lat="44.88652" lon="4.63418">
        <ele>524.5</ele>
        <time>2026-05-04T09:33:30Z</time>
      </trkpt>
      <trkpt lat="44.88657" lon="4.63408">
        <ele>523.7</ele>
        <time>2026-05-04T09:33:35Z</time>
      </trkpt>
      <trkpt lat="44.88661" lon="4.63402">
        <ele>523.2</ele>
        <time>2026-05-04T09:33:40Z</time>
      </trkpt>
      <trkpt lat="44.88667" lon="4.63395">
        <ele>522.7</ele>
        <time>2026-05-04T09:33:45Z</time>
      </trkpt>
      <trkpt lat="44.88675" lon="4.63388">
        <ele>522.6</ele>
        <time>2026-05-04T09:33:50Z</time>
      </trkpt>
      <trkpt lat="44.88682" lon="4.63382">
        <ele>522.6</ele>
        <time>2026-05-04T09:33:55Z</time>
      </trkpt>
      <trkpt lat="44.88688" lon="4.63375">
        <ele>522.4</ele>
        <time>2026-05-04T09:34:00Z</time>
      </trkpt>
      <trkpt lat="44.88694" lon="4.63368">
        <ele>522.2</ele>
        <time>2026-05-04T09:34:05Z</time>
      </trkpt>
      <trkpt lat="44.887" lon="4.6336">
        <ele>522</ele>
        <time>2026-05-04T09:34:10Z</time>
      </trkpt>
      <trkpt lat="44.88705" lon="4.63351">
        <ele>521.5</ele>
        <time>2026-05-04T09:34:15Z</time>
      </trkpt>
      <trkpt lat="44.88708" lon="4.63343">
        <ele>521</ele>
        <time>2026-05-04T09:34:20Z</time>
      </trkpt>
      <trkpt lat="44.88712" lon="4.63334">
        <ele>520.4</ele>
        <time>2026-05-04T09:34:25Z</time>
      </trkpt>
      <trkpt lat="44.88717" lon="4.63324">
        <ele>518.8</ele>
        <time>2026-05-04T09:34:30Z</time>
      </trkpt>
      <trkpt lat="44.88721" lon="4.63315">
        <ele>517.2</ele>
        <time>2026-05-04T09:34:35Z</time>
      </trkpt>
      <trkpt lat="44.88724" lon="4.63307">
        <ele>515.9</ele>
        <time>2026-05-04T09:34:40Z</time>
      </trkpt>
      <trkpt lat="44.88729" lon="4.633">
        <ele>515</ele>
        <time>2026-05-04T09:34:45Z</time>
      </trkpt>
      <trkpt lat="44.88735" lon="4.63291">
        <ele>513.9</ele>
        <time>2026-05-04T09:34:50Z</time>
      </trkpt>
      <trkpt lat="44.88738" lon="4.63284">
        <ele>512.9</ele>
        <time>2026-05-04T09:34:55Z</time>
      </trkpt>
      <trkpt lat="44.88743" lon="4.63276">
        <ele>512</ele>
        <time>2026-05-04T09:35:00Z</time>
      </trkpt>
      <trkpt lat="44.88747" lon="4.63271">
        <ele>511.6</ele>
        <time>2026-05-04T09:35:05Z</time>
      </trkpt>
      <trkpt lat="44.88752" lon="4.63262">
        <ele>510.9</ele>
        <time>2026-05-04T09:35:10Z</time>
      </trkpt>
      <trkpt lat="44.88756" lon="4.63251">
        <ele>509.9</ele>
        <time>2026-05-04T09:35:15Z</time>
      </trkpt>
      <trkpt lat="44.88761" lon="4.63238">
        <ele>509.9</ele>
        <time>2026-05-04T09:35:20Z</time>
      </trkpt>
      <trkpt lat="44.88766" lon="4.6323">
        <ele>510.4</ele>
        <time>2026-05-04T09:35:25Z</time>
      </trkpt>
      <trkpt lat="44.88772" lon="4.63223">
        <ele>511.1</ele>
        <time>2026-05-04T09:35:30Z</time>
      </trkpt>
      <trkpt lat="44.88776" lon="4.63216">
        <ele>511.3</ele>
        <time>2026-05-04T09:35:35Z</time>
      </trkpt>
      <trkpt lat="44.88779" lon="4.63205">
        <ele>510.7</ele>
        <time>2026-05-04T09:35:40Z</time>
      </trkpt>
      <trkpt lat="44.88786" lon="4.63195">
        <ele>511.1</ele>
        <time>2026-05-04T09:35:45Z</time>
      </trkpt>
      <trkpt lat="44.88785" lon="4.63185">
        <ele>509.5</ele>
        <time>2026-05-04T09:35:50Z</time>
      </trkpt>
      <trkpt lat="44.88776" lon="4.63188">
        <ele>507.9</ele>
        <time>2026-05-04T09:35:55Z</time>
      </trkpt>
      <trkpt lat="44.88769" lon="4.63192">
        <ele>506.8</ele>
        <time>2026-05-04T09:36:00Z</time>
      </trkpt>
      <trkpt lat="44.88763" lon="4.63198">
        <ele>506.1</ele>
        <time>2026-05-04T09:36:05Z</time>
      </trkpt>
      <trkpt lat="44.88758" lon="4.63204">
        <ele>505.5</ele>
        <time>2026-05-04T09:36:10Z</time>
      </trkpt>
      <trkpt lat="44.88752" lon="4.6321">
        <ele>504.7</ele>
        <time>2026-05-04T09:36:15Z</time>
      </trkpt>
      <trkpt lat="44.88747" lon="4.63214">
        <ele>503.7</ele>
        <time>2026-05-04T09:36:20Z</time>
      </trkpt>
      <trkpt lat="44.8874" lon="4.63216">
        <ele>502.1</ele>
        <time>2026-05-04T09:36:25Z</time>
      </trkpt>
      <trkpt lat="44.88734" lon="4.63211">
        <ele>499.9</ele>
        <time>2026-05-04T09:36:30Z</time>
      </trkpt>
      <trkpt lat="44.8873" lon="4.63206">
        <ele>498</ele>
        <time>2026-05-04T09:36:35Z</time>
      </trkpt>
      <trkpt lat="44.88723" lon="4.63199">
        <ele>494.8</ele>
        <time>2026-05-04T09:36:40Z</time>
      </trkpt>
      <trkpt lat="44.88716" lon="4.63191">
        <ele>491.1</ele>
        <time>2026-05-04T09:36:45Z</time>
      </trkpt>
      <trkpt lat="44.8871" lon="4.63185">
        <ele>487.9</ele>
        <time>2026-05-04T09:36:50Z</time>
      </trkpt>
      <trkpt lat="44.88704" lon="4.63177">
        <ele>484.1</ele>
        <time>2026-05-04T09:36:55Z</time>
      </trkpt>
      <trkpt lat="44.88698" lon="4.6317">
        <ele>480.2</ele>
        <time>2026-05-04T09:37:00Z</time>
      </trkpt>
      <trkpt lat="44.88694" lon="4.63161">
        <ele>477.2</ele>
        <time>2026-05-04T09:37:05Z</time>
      </trkpt>
      <trkpt lat="44.88691" lon="4.63149">
        <ele>474.6</ele>
        <time>2026-05-04T09:37:10Z</time>
      </trkpt>
      <trkpt lat="44.8869" lon="4.63139">
        <ele>473</ele>
        <time>2026-05-04T09:37:15Z</time>
      </trkpt>
      <trkpt lat="44.88691" lon="4.63131">
        <ele>472.4</ele>
        <time>2026-05-04T09:37:20Z</time>
      </trkpt>
      <trkpt lat="44.8869" lon="4.63122">
        <ele>470.9</ele>
        <time>2026-05-04T09:37:25Z</time>
      </trkpt>
      <trkpt lat="44.88688" lon="4.63113">
        <ele>469</ele>
        <time>2026-05-04T09:37:30Z</time>
      </trkpt>
      <trkpt lat="44.8869" lon="4.63105">
        <ele>468.9</ele>
        <time>2026-05-04T09:37:35Z</time>
      </trkpt>
      <trkpt lat="44.8869" lon="4.63096">
        <ele>467.9</ele>
        <time>2026-05-04T09:37:40Z</time>
      </trkpt>
      <trkpt lat="44.88689" lon="4.63086">
        <ele>466.2</ele>
        <time>2026-05-04T09:37:45Z</time>
      </trkpt>
      <trkpt lat="44.88687" lon="4.63078">
        <ele>464.9</ele>
        <time>2026-05-04T09:37:50Z</time>
      </trkpt>
      <trkpt lat="44.88686" lon="4.63069">
        <ele>464.3</ele>
        <time>2026-05-04T09:37:55Z</time>
      </trkpt>
      <trkpt lat="44.88686" lon="4.63062">
        <ele>464.2</ele>
        <time>2026-05-04T09:38:00Z</time>
      </trkpt>
      <trkpt lat="44.88686" lon="4.63053">
        <ele>464.1</ele>
        <time>2026-05-04T09:38:05Z</time>
      </trkpt>
      <trkpt lat="44.88685" lon="4.63044">
        <ele>463.5</ele>
        <time>2026-05-04T09:38:10Z</time>
      </trkpt>
      <trkpt lat="44.88682" lon="4.63035">
        <ele>462.2</ele>
        <time>2026-05-04T09:38:15Z</time>
      </trkpt>
      <trkpt lat="44.88681" lon="4.63028">
        <ele>461.7</ele>
        <time>2026-05-04T09:38:20Z</time>
      </trkpt>
      <trkpt lat="44.88678" lon="4.6302">
        <ele>460.4</ele>
        <time>2026-05-04T09:38:25Z</time>
      </trkpt>
      <trkpt lat="44.88677" lon="4.63013">
        <ele>460</ele>
        <time>2026-05-04T09:38:30Z</time>
      </trkpt>
      <trkpt lat="44.88679" lon="4.63005">
        <ele>460.6</ele>
        <time>2026-05-04T09:38:35Z</time>
      </trkpt>
      <trkpt lat="44.88681" lon="4.63001">
        <ele>461.3</ele>
        <time>2026-05-04T09:38:40Z</time>
      </trkpt>
      <trkpt lat="44.88684" lon="4.62996">
        <ele>462.6</ele>
        <time>2026-05-04T09:38:45Z</time>
      </trkpt>
      <trkpt lat="44.88687" lon="4.6299">
        <ele>463.8</ele>
        <time>2026-05-04T09:38:50Z</time>
      </trkpt>
      <trkpt lat="44.8869" lon="4.62985">
        <ele>464.9</ele>
        <time>2026-05-04T09:38:55Z</time>
      </trkpt>
      <trkpt lat="44.88689" lon="4.62976">
        <ele>464.6</ele>
        <time>2026-05-04T09:39:00Z</time>
      </trkpt>
      <trkpt lat="44.88685" lon="4.62967">
        <ele>463.6</ele>
        <time>2026-05-04T09:39:05Z</time>
      </trkpt>
      <trkpt lat="44.88678" lon="4.62961">
        <ele>461.9</ele>
        <time>2026-05-04T09:39:10Z</time>
      </trkpt>
      <trkpt lat="44.88672" lon="4.62957">
        <ele>460.5</ele>
        <time>2026-05-04T09:39:15Z</time>
      </trkpt>
      <trkpt lat="44.88667" lon="4.62952">
        <ele>459.5</ele>
        <time>2026-05-04T09:39:20Z</time>
      </trkpt>
      <trkpt lat="44.88662" lon="4.62948">
        <ele>459.8</ele>
        <time>2026-05-04T09:39:25Z</time>
      </trkpt>
      <trkpt lat="44.88657" lon="4.62945">
        <ele>460.1</ele>
        <time>2026-05-04T09:39:30Z</time>
      </trkpt>
      <trkpt lat="44.88654" lon="4.62941">
        <ele>460.4</ele>
        <time>2026-05-04T09:39:35Z</time>
      </trkpt>
      <trkpt lat="44.88655" lon="4.6294">
        <ele>460.4</ele>
        <time>2026-05-04T09:39:40Z</time>
      </trkpt>
      <trkpt lat="44.88655" lon="4.62939">
        <ele>460.5</ele>
        <time>2026-05-04T09:39:45Z</time>
      </trkpt>
      <trkpt lat="44.88655" lon="4.62939">
        <ele>460.5</ele>
        <time>2026-05-04T09:39:50Z</time>
      </trkpt>
      <trkpt lat="44.8865" lon="4.62931">
        <ele>460.8</ele>
        <time>2026-05-04T09:39:55Z</time>
      </trkpt>
      <trkpt lat="44.88648" lon="4.62926">
        <ele>461</ele>
        <time>2026-05-04T09:40:00Z</time>
      </trkpt>
      <trkpt lat="44.88648" lon="4.62923">
        <ele>461.1</ele>
        <time>2026-05-04T09:40:05Z</time>
      </trkpt>
      <trkpt lat="44.88648" lon="4.62923">
        <ele>461.1</ele>
        <time>2026-05-04T09:40:10Z</time>
      </trkpt>
      <trkpt lat="44.88648" lon="4.62923">
        <ele>461.1</ele>
        <time>2026-05-04T09:40:15Z</time>
      </trkpt>
      <trkpt lat="44.88641" lon="4.62912">
        <ele>461.3</ele>
        <time>2026-05-04T09:40:20Z</time>
      </trkpt>
      <trkpt lat="44.88641" lon="4.6291">
        <ele>461.4</ele>
        <time>2026-05-04T09:40:25Z</time>
      </trkpt>
      <trkpt lat="44.88636" lon="4.62902">
        <ele>461.5</ele>
        <time>2026-05-04T09:40:30Z</time>
      </trkpt>
      <trkpt lat="44.88633" lon="4.62898">
        <ele>461.5</ele>
        <time>2026-05-04T09:40:35Z</time>
      </trkpt>
      <trkpt lat="44.88631" lon="4.62894">
        <ele>461.6</ele>
        <time>2026-05-04T09:40:40Z</time>
      </trkpt>
      <trkpt lat="44.88633" lon="4.62894">
        <ele>461.7</ele>
        <time>2026-05-04T09:40:45Z</time>
      </trkpt>
      <trkpt lat="44.88633" lon="4.62894">
        <ele>461.7</ele>
        <time>2026-05-04T09:40:50Z</time>
      </trkpt>
      <trkpt lat="44.88633" lon="4.62894">
        <ele>461.7</ele>
        <time>2026-05-04T09:40:55Z</time>
      </trkpt>
      <trkpt lat="44.88633" lon="4.62894">
        <ele>461.7</ele>
        <time>2026-05-04T09:41:00Z</time>
      </trkpt>
      <trkpt lat="44.88637" lon="4.62897">
        <ele>461.8</ele>
        <time>2026-05-04T09:41:05Z</time>
      </trkpt>
      <trkpt lat="44.88639" lon="4.62901">
        <ele>461.7</ele>
        <time>2026-05-04T09:41:10Z</time>
      </trkpt>
      <trkpt lat="44.88642" lon="4.62904">
        <ele>461.7</ele>
        <time>2026-05-04T09:41:15Z</time>
      </trkpt>
      <trkpt lat="44.88646" lon="4.62908">
        <ele>461.7</ele>
        <time>2026-05-04T09:41:20Z</time>
      </trkpt>
      <trkpt lat="44.88651" lon="4.62913">
        <ele>461.6</ele>
        <time>2026-05-04T09:41:25Z</time>
      </trkpt>
      <trkpt lat="44.88655" lon="4.62914">
        <ele>461.7</ele>
        <time>2026-05-04T09:41:30Z</time>
      </trkpt>
      <trkpt lat="44.88661" lon="4.62915">
        <ele>461.9</ele>
        <time>2026-05-04T09:41:35Z</time>
      </trkpt>
      <trkpt lat="44.88667" lon="4.62916">
        <ele>462.1</ele>
        <time>2026-05-04T09:41:40Z</time>
      </trkpt>
      <trkpt lat="44.88672" lon="4.62919">
        <ele>462.7</ele>
        <time>2026-05-04T09:41:45Z</time>
      </trkpt>
      <trkpt lat="44.88679" lon="4.62921">
        <ele>463.8</ele>
        <time>2026-05-04T09:41:50Z</time>
      </trkpt>
      <trkpt lat="44.88684" lon="4.62924">
        <ele>464.5</ele>
        <time>2026-05-04T09:41:55Z</time>
      </trkpt>
      <trkpt lat="44.88691" lon="4.62925">
        <ele>465.7</ele>
        <time>2026-05-04T09:42:00Z</time>
      </trkpt>
      <trkpt lat="44.88697" lon="4.62927">
        <ele>466.8</ele>
        <time>2026-05-04T09:42:05Z</time>
      </trkpt>
      <trkpt lat="44.88703" lon="4.62929">
        <ele>467.9</ele>
        <time>2026-05-04T09:42:10Z</time>
      </trkpt>
      <trkpt lat="44.88709" lon="4.62932">
        <ele>469.2</ele>
        <time>2026-05-04T09:42:15Z</time>
      </trkpt>
      <trkpt lat="44.88717" lon="4.62935">
        <ele>470.9</ele>
        <time>2026-05-04T09:42:20Z</time>
      </trkpt>
      <trkpt lat="44.88722" lon="4.62937">
        <ele>472.1</ele>
        <time>2026-05-04T09:42:25Z</time>
      </trkpt>
      <trkpt lat="44.88729" lon="4.62937">
        <ele>473.5</ele>
        <time>2026-05-04T09:42:30Z</time>
      </trkpt>
      <trkpt lat="44.88735" lon="4.62938">
        <ele>474.9</ele>
        <time>2026-05-04T09:42:35Z</time>
      </trkpt>
      <trkpt lat="44.88741" lon="4.6294">
        <ele>476.4</ele>
        <time>2026-05-04T09:42:40Z</time>
      </trkpt>
      <trkpt lat="44.88749" lon="4.62942">
        <ele>478.4</ele>
        <time>2026-05-04T09:42:45Z</time>
      </trkpt>
      <trkpt lat="44.88755" lon="4.62942">
        <ele>478.8</ele>
        <time>2026-05-04T09:42:50Z</time>
      </trkpt>
      <trkpt lat="44.88762" lon="4.62944">
        <ele>479.2</ele>
        <time>2026-05-04T09:42:55Z</time>
      </trkpt>
      <trkpt lat="44.88769" lon="4.62943">
        <ele>479.2</ele>
        <time>2026-05-04T09:43:00Z</time>
      </trkpt>
      <trkpt lat="44.88776" lon="4.62945">
        <ele>479.7</ele>
        <time>2026-05-04T09:43:05Z</time>
      </trkpt>
      <trkpt lat="44.88783" lon="4.62946">
        <ele>480.1</ele>
        <time>2026-05-04T09:43:10Z</time>
      </trkpt>
      <trkpt lat="44.8879" lon="4.62946">
        <ele>480.3</ele>
        <time>2026-05-04T09:43:15Z</time>
      </trkpt>
      <trkpt lat="44.88795" lon="4.62949">
        <ele>481</ele>
        <time>2026-05-04T09:43:20Z</time>
      </trkpt>
      <trkpt lat="44.888" lon="4.62952">
        <ele>481.8</ele>
        <time>2026-05-04T09:43:25Z</time>
      </trkpt>
      <trkpt lat="44.88806" lon="4.62952">
        <ele>482</ele>
        <time>2026-05-04T09:43:30Z</time>
      </trkpt>
      <trkpt lat="44.88812" lon="4.62951">
        <ele>482</ele>
        <time>2026-05-04T09:43:35Z</time>
      </trkpt>
      <trkpt lat="44.88817" lon="4.62951">
        <ele>482.1</ele>
        <time>2026-05-04T09:43:40Z</time>
      </trkpt>
      <trkpt lat="44.88821" lon="4.62953">
        <ele>482.7</ele>
        <time>2026-05-04T09:43:45Z</time>
      </trkpt>
      <trkpt lat="44.88827" lon="4.62954">
        <ele>483.2</ele>
        <time>2026-05-04T09:43:50Z</time>
      </trkpt>
      <trkpt lat="44.88832" lon="4.62957">
        <ele>484.1</ele>
        <time>2026-05-04T09:43:55Z</time>
      </trkpt>
      <trkpt lat="44.88841" lon="4.62957">
        <ele>484.3</ele>
        <time>2026-05-04T09:44:00Z</time>
      </trkpt>
      <trkpt lat="44.88849" lon="4.62957">
        <ele>484.4</ele>
        <time>2026-05-04T09:44:05Z</time>
      </trkpt>
      <trkpt lat="44.88858" lon="4.62954">
        <ele>483.8</ele>
        <time>2026-05-04T09:44:10Z</time>
      </trkpt>
      <trkpt lat="44.88866" lon="4.62951">
        <ele>483.3</ele>
        <time>2026-05-04T09:44:15Z</time>
      </trkpt>
      <trkpt lat="44.8887" lon="4.62949">
        <ele>482.9</ele>
        <time>2026-05-04T09:44:20Z</time>
      </trkpt>
      <trkpt lat="44.88875" lon="4.62945">
        <ele>482.1</ele>
        <time>2026-05-04T09:44:25Z</time>
      </trkpt>
      <trkpt lat="44.8888" lon="4.6294">
        <ele>481.2</ele>
        <time>2026-05-04T09:44:30Z</time>
      </trkpt>
      <trkpt lat="44.88884" lon="4.62934">
        <ele>480</ele>
        <time>2026-05-04T09:44:35Z</time>
      </trkpt>
      <trkpt lat="44.88888" lon="4.62929">
        <ele>479.1</ele>
        <time>2026-05-04T09:44:40Z</time>
      </trkpt>
      <trkpt lat="44.88891" lon="4.62923">
        <ele>478</ele>
        <time>2026-05-04T09:44:45Z</time>
      </trkpt>
      <trkpt lat="44.88895" lon="4.62918">
        <ele>477.2</ele>
        <time>2026-05-04T09:44:50Z</time>
      </trkpt>
      <trkpt lat="44.88899" lon="4.6291">
        <ele>476.6</ele>
        <time>2026-05-04T09:44:55Z</time>
      </trkpt>
      <trkpt lat="44.88905" lon="4.62902">
        <ele>476.2</ele>
        <time>2026-05-04T09:45:00Z</time>
      </trkpt>
      <trkpt lat="44.8891" lon="4.62895">
        <ele>476</ele>
        <time>2026-05-04T09:45:05Z</time>
      </trkpt>
      <trkpt lat="44.88915" lon="4.62888">
        <ele>475.8</ele>
        <time>2026-05-04T09:45:10Z</time>
      </trkpt>
      <trkpt lat="44.88922" lon="4.62882">
        <ele>476.1</ele>
        <time>2026-05-04T09:45:15Z</time>
      </trkpt>
      <trkpt lat="44.88927" lon="4.62878">
        <ele>476.4</ele>
        <time>2026-05-04T09:45:20Z</time>
      </trkpt>
      <trkpt lat="44.88934" lon="4.62876">
        <ele>477</ele>
        <time>2026-05-04T09:45:25Z</time>
      </trkpt>
      <trkpt lat="44.88941" lon="4.62873">
        <ele>477.7</ele>
        <time>2026-05-04T09:45:30Z</time>
      </trkpt>
      <trkpt lat="44.88946" lon="4.6287">
        <ele>478</ele>
        <time>2026-05-04T09:45:35Z</time>
      </trkpt>
      <trkpt lat="44.88953" lon="4.62869">
        <ele>478.8</ele>
        <time>2026-05-04T09:45:40Z</time>
      </trkpt>
      <trkpt lat="44.8896" lon="4.62867">
        <ele>479.5</ele>
        <time>2026-05-04T09:45:45Z</time>
      </trkpt>
      <trkpt lat="44.88966" lon="4.62866">
        <ele>480.2</ele>
        <time>2026-05-04T09:45:50Z</time>
      </trkpt>
      <trkpt lat="44.88972" lon="4.62865">
        <ele>480.8</ele>
        <time>2026-05-04T09:45:55Z</time>
      </trkpt>
      <trkpt lat="44.88978" lon="4.62864">
        <ele>481.5</ele>
        <time>2026-05-04T09:46:00Z</time>
      </trkpt>
      <trkpt lat="44.88986" lon="4.62865">
        <ele>482.5</ele>
        <time>2026-05-04T09:46:05Z</time>
      </trkpt>
      <trkpt lat="44.88992" lon="4.62864">
        <ele>483.2</ele>
        <time>2026-05-04T09:46:10Z</time>
      </trkpt>
      <trkpt lat="44.88998" lon="4.62864">
        <ele>483.9</ele>
        <time>2026-05-04T09:46:15Z</time>
      </trkpt>
      <trkpt lat="44.89004" lon="4.62863">
        <ele>484.6</ele>
        <time>2026-05-04T09:46:20Z</time>
      </trkpt>
      <trkpt lat="44.89011" lon="4.62862">
        <ele>485.4</ele>
        <time>2026-05-04T09:46:25Z</time>
      </trkpt>
      <trkpt lat="44.89017" lon="4.62861">
        <ele>486</ele>
        <time>2026-05-04T09:46:30Z</time>
      </trkpt>
      <trkpt lat="44.89023" lon="4.6286">
        <ele>486.7</ele>
        <time>2026-05-04T09:46:35Z</time>
      </trkpt>
      <trkpt lat="44.89027" lon="4.6286">
        <ele>487.2</ele>
        <time>2026-05-04T09:46:40Z</time>
      </trkpt>
      <trkpt lat="44.89028" lon="4.6286">
        <ele>487.3</ele>
        <time>2026-05-04T09:46:45Z</time>
      </trkpt>
      <trkpt lat="44.8903" lon="4.6286">
        <ele>487.5</ele>
        <time>2026-05-04T09:46:50Z</time>
      </trkpt>
      <trkpt lat="44.8903" lon="4.6286">
        <ele>487.5</ele>
        <time>2026-05-04T09:46:55Z</time>
      </trkpt>
      <trkpt lat="44.8903" lon="4.6286">
        <ele>487.5</ele>
        <time>2026-05-04T09:47:00Z</time>
      </trkpt>
      <trkpt lat="44.8903" lon="4.6286">
        <ele>487.5</ele>
        <time>2026-05-04T09:47:05Z</time>
      </trkpt>
      <trkpt lat="44.8903" lon="4.6286">
        <ele>487.5</ele>
        <time>2026-05-04T09:47:10Z</time>
      </trkpt>
      <trkpt lat="44.8903" lon="4.6286">
        <ele>487.5</ele>
        <time>2026-05-04T09:47:15Z</time>
      </trkpt>
      <trkpt lat="44.8903" lon="4.6286">
        <ele>487.5</ele>
        <time>2026-05-04T09:47:20Z</time>
      </trkpt>
      <trkpt lat="44.8903" lon="4.6286">
        <ele>487.5</ele>
        <time>2026-05-04T09:47:25Z</time>
      </trkpt>
      <trkpt lat="44.8903" lon="4.6286">
        <ele>487.5</ele>
        <time>2026-05-04T09:47:30Z</time>
      </trkpt>
      <trkpt lat="44.8903" lon="4.6286">
        <ele>487.5</ele>
        <time>2026-05-04T09:47:35Z</time>
      </trkpt>
      <trkpt lat="44.8903" lon="4.6286">
        <ele>487.5</ele>
        <time>2026-05-04T09:47:40Z</time>
      </trkpt>
      <trkpt lat="44.8903" lon="4.6286">
        <ele>487.5</ele>
        <time>2026-05-04T09:47:45Z</time>
      </trkpt>
      <trkpt lat="44.8903" lon="4.6286">
        <ele>487.5</ele>
        <time>2026-05-04T09:47:50Z</time>
      </trkpt>
      <trkpt lat="44.8903" lon="4.6286">
        <ele>487.5</ele>
        <time>2026-05-04T09:47:55Z</time>
      </trkpt>
      <trkpt lat="44.8903" lon="4.6286">
        <ele>487.5</ele>
        <time>2026-05-04T09:48:00Z</time>
      </trkpt>
      <trkpt lat="44.8903" lon="4.6286">
        <ele>487.5</ele>
        <time>2026-05-04T09:48:05Z</time>
      </trkpt>
      <trkpt lat="44.8903" lon="4.6286">
        <ele>487.5</ele>
        <time>2026-05-04T09:48:10Z</time>
      </trkpt>
      <trkpt lat="44.8903" lon="4.6286">
        <ele>487.5</ele>
        <time>2026-05-04T09:48:15Z</time>
      </trkpt>
      <trkpt lat="44.8903" lon="4.6286">
        <ele>487.5</ele>
        <time>2026-05-04T09:48:20Z</time>
      </trkpt>
      <trkpt lat="44.8903" lon="4.62861">
        <ele>487.6</ele>
        <time>2026-05-04T09:48:25Z</time>
      </trkpt>
      <trkpt lat="44.89035" lon="4.62861">
        <ele>488.2</ele>
        <time>2026-05-04T09:48:30Z</time>
      </trkpt>
      <trkpt lat="44.8904" lon="4.62863">
        <ele>488.9</ele>
        <time>2026-05-04T09:48:35Z</time>
      </trkpt>
      <trkpt lat="44.89044" lon="4.62864">
        <ele>489.5</ele>
        <time>2026-05-04T09:48:40Z</time>
      </trkpt>
      <trkpt lat="44.89051" lon="4.62866">
        <ele>490.5</ele>
        <time>2026-05-04T09:48:45Z</time>
      </trkpt>
      <trkpt lat="44.89056" lon="4.62869">
        <ele>491.4</ele>
        <time>2026-05-04T09:48:50Z</time>
      </trkpt>
      <trkpt lat="44.89059" lon="4.62875">
        <ele>492.3</ele>
        <time>2026-05-04T09:48:55Z</time>
      </trkpt>
      <trkpt lat="44.8906" lon="4.62882">
        <ele>493</ele>
        <time>2026-05-04T09:49:00Z</time>
      </trkpt>
      <trkpt lat="44.89061" lon="4.6289">
        <ele>493.9</ele>
        <time>2026-05-04T09:49:05Z</time>
      </trkpt>
      <trkpt lat="44.89062" lon="4.62899">
        <ele>494.8</ele>
        <time>2026-05-04T09:49:10Z</time>
      </trkpt>
      <trkpt lat="44.89064" lon="4.62906">
        <ele>495.8</ele>
        <time>2026-05-04T09:49:15Z</time>
      </trkpt>
      <trkpt lat="44.89067" lon="4.62913">
        <ele>496.9</ele>
        <time>2026-05-04T09:49:20Z</time>
      </trkpt>
      <trkpt lat="44.89071" lon="4.6292">
        <ele>498.5</ele>
        <time>2026-05-04T09:49:25Z</time>
      </trkpt>
      <trkpt lat="44.89075" lon="4.62926">
        <ele>500.2</ele>
        <time>2026-05-04T09:49:30Z</time>
      </trkpt>
      <trkpt lat="44.89079" lon="4.62932">
        <ele>502</ele>
        <time>2026-05-04T09:49:35Z</time>
      </trkpt>
      <trkpt lat="44.89083" lon="4.6294">
        <ele>504.1</ele>
        <time>2026-05-04T09:49:40Z</time>
      </trkpt>
      <trkpt lat="44.89085" lon="4.62949">
        <ele>505.8</ele>
        <time>2026-05-04T09:49:45Z</time>
      </trkpt>
      <trkpt lat="44.89089" lon="4.62957">
        <ele>507.2</ele>
        <time>2026-05-04T09:49:50Z</time>
      </trkpt>
      <trkpt lat="44.89093" lon="4.62966">
        <ele>508.8</ele>
        <time>2026-05-04T09:49:55Z</time>
      </trkpt>
      <trkpt lat="44.89097" lon="4.62973">
        <ele>509.9</ele>
        <time>2026-05-04T09:50:00Z</time>
      </trkpt>
      <trkpt lat="44.89101" lon="4.62982">
        <ele>511.4</ele>
        <time>2026-05-04T09:50:05Z</time>
      </trkpt>
      <trkpt lat="44.89106" lon="4.62988">
        <ele>512.2</ele>
        <time>2026-05-04T09:50:10Z</time>
      </trkpt>
      <trkpt lat="44.89114" lon="4.62994">
        <ele>512.9</ele>
        <time>2026-05-04T09:50:15Z</time>
      </trkpt>
      <trkpt lat="44.8912" lon="4.62996">
        <ele>513.1</ele>
        <time>2026-05-04T09:50:20Z</time>
      </trkpt>
      <trkpt lat="44.89128" lon="4.62996">
        <ele>512.8</ele>
        <time>2026-05-04T09:50:25Z</time>
      </trkpt>
      <trkpt lat="44.89137" lon="4.62993">
        <ele>512.1</ele>
        <time>2026-05-04T09:50:30Z</time>
      </trkpt>
      <trkpt lat="44.89146" lon="4.6299">
        <ele>511.4</ele>
        <time>2026-05-04T09:50:35Z</time>
      </trkpt>
      <trkpt lat="44.89152" lon="4.62985">
        <ele>510.6</ele>
        <time>2026-05-04T09:50:40Z</time>
      </trkpt>
      <trkpt lat="44.89156" lon="4.62978">
        <ele>509.6</ele>
        <time>2026-05-04T09:50:45Z</time>
      </trkpt>
      <trkpt lat="44.89162" lon="4.62969">
        <ele>508.3</ele>
        <time>2026-05-04T09:50:50Z</time>
      </trkpt>
      <trkpt lat="44.89165" lon="4.62958">
        <ele>507</ele>
        <time>2026-05-04T09:50:55Z</time>
      </trkpt>
      <trkpt lat="44.89164" lon="4.62946">
        <ele>505.5</ele>
        <time>2026-05-04T09:51:00Z</time>
      </trkpt>
      <trkpt lat="44.8916" lon="4.62936">
        <ele>504.3</ele>
        <time>2026-05-04T09:51:05Z</time>
      </trkpt>
      <trkpt lat="44.89156" lon="4.62928">
        <ele>503.2</ele>
        <time>2026-05-04T09:51:10Z</time>
      </trkpt>
      <trkpt lat="44.89153" lon="4.6292">
        <ele>502.1</ele>
        <time>2026-05-04T09:51:15Z</time>
      </trkpt>
      <trkpt lat="44.89151" lon="4.62911">
        <ele>501.3</ele>
        <time>2026-05-04T09:51:20Z</time>
      </trkpt>
      <trkpt lat="44.89148" lon="4.62902">
        <ele>500.7</ele>
        <time>2026-05-04T09:51:25Z</time>
      </trkpt>
      <trkpt lat="44.89144" lon="4.62891">
        <ele>499.8</ele>
        <time>2026-05-04T09:51:30Z</time>
      </trkpt>
      <trkpt lat="44.89141" lon="4.62884">
        <ele>499.2</ele>
        <time>2026-05-04T09:51:35Z</time>
      </trkpt>
      <trkpt lat="44.89139" lon="4.62876">
        <ele>498.6</ele>
        <time>2026-05-04T09:51:40Z</time>
      </trkpt>
      <trkpt lat="44.89135" lon="4.62867">
        <ele>497.7</ele>
        <time>2026-05-04T09:51:45Z</time>
      </trkpt>
      <trkpt lat="44.89131" lon="4.62856">
        <ele>496.7</ele>
        <time>2026-05-04T09:51:50Z</time>
      </trkpt>
      <trkpt lat="44.89128" lon="4.62846">
        <ele>495.7</ele>
        <time>2026-05-04T09:51:55Z</time>
      </trkpt>
      <trkpt lat="44.89124" lon="4.62834">
        <ele>494.5</ele>
        <time>2026-05-04T09:52:00Z</time>
      </trkpt>
      <trkpt lat="44.89119" lon="4.62825">
        <ele>494</ele>
        <time>2026-05-04T09:52:05Z</time>
      </trkpt>
      <trkpt lat="44.89117" lon="4.62815">
        <ele>493.8</ele>
        <time>2026-05-04T09:52:10Z</time>
      </trkpt>
      <trkpt lat="44.89114" lon="4.62805">
        <ele>493.5</ele>
        <time>2026-05-04T09:52:15Z</time>
      </trkpt>
      <trkpt lat="44.8911" lon="4.62796">
        <ele>493.1</ele>
        <time>2026-05-04T09:52:20Z</time>
      </trkpt>
      <trkpt lat="44.89107" lon="4.62784">
        <ele>492.7</ele>
        <time>2026-05-04T09:52:25Z</time>
      </trkpt>
      <trkpt lat="44.89106" lon="4.62773">
        <ele>492.6</ele>
        <time>2026-05-04T09:52:30Z</time>
      </trkpt>
      <trkpt lat="44.891" lon="4.62765">
        <ele>491.9</ele>
        <time>2026-05-04T09:52:35Z</time>
      </trkpt>
      <trkpt lat="44.89097" lon="4.62754">
        <ele>491.5</ele>
        <time>2026-05-04T09:52:40Z</time>
      </trkpt>
      <trkpt lat="44.89096" lon="4.62745">
        <ele>491.1</ele>
        <time>2026-05-04T09:52:45Z</time>
      </trkpt>
      <trkpt lat="44.89094" lon="4.62735">
        <ele>490.4</ele>
        <time>2026-05-04T09:52:50Z</time>
      </trkpt>
      <trkpt lat="44.89096" lon="4.62725">
        <ele>490.1</ele>
        <time>2026-05-04T09:52:55Z</time>
      </trkpt>
      <trkpt lat="44.891" lon="4.62716">
        <ele>490.1</ele>
        <time>2026-05-04T09:53:00Z</time>
      </trkpt>
      <trkpt lat="44.89103" lon="4.62708">
        <ele>490</ele>
        <time>2026-05-04T09:53:05Z</time>
      </trkpt>
      <trkpt lat="44.89106" lon="4.627">
        <ele>489.9</ele>
        <time>2026-05-04T09:53:10Z</time>
      </trkpt>
      <trkpt lat="44.89111" lon="4.62691">
        <ele>489.9</ele>
        <time>2026-05-04T09:53:15Z</time>
      </trkpt>
      <trkpt lat="44.89117" lon="4.62682">
        <ele>490</ele>
        <time>2026-05-04T09:53:20Z</time>
      </trkpt>
      <trkpt lat="44.89123" lon="4.62675">
        <ele>490.3</ele>
        <time>2026-05-04T09:53:25Z</time>
      </trkpt>
      <trkpt lat="44.89129" lon="4.62666">
        <ele>490.4</ele>
        <time>2026-05-04T09:53:30Z</time>
      </trkpt>
      <trkpt lat="44.89132" lon="4.62658">
        <ele>490.3</ele>
        <time>2026-05-04T09:53:35Z</time>
      </trkpt>
      <trkpt lat="44.89136" lon="4.62649">
        <ele>490.4</ele>
        <time>2026-05-04T09:53:40Z</time>
      </trkpt>
      <trkpt lat="44.89141" lon="4.62641">
        <ele>490.6</ele>
        <time>2026-05-04T09:53:45Z</time>
      </trkpt>
      <trkpt lat="44.89145" lon="4.62633">
        <ele>490.8</ele>
        <time>2026-05-04T09:53:50Z</time>
      </trkpt>
      <trkpt lat="44.89148" lon="4.62623">
        <ele>490.8</ele>
        <time>2026-05-04T09:53:55Z</time>
      </trkpt>
      <trkpt lat="44.89152" lon="4.62614">
        <ele>491</ele>
        <time>2026-05-04T09:54:00Z</time>
      </trkpt>
      <trkpt lat="44.89157" lon="4.62606">
        <ele>491.4</ele>
        <time>2026-05-04T09:54:05Z</time>
      </trkpt>
      <trkpt lat="44.89163" lon="4.626">
        <ele>491.9</ele>
        <time>2026-05-04T09:54:10Z</time>
      </trkpt>
      <trkpt lat="44.89169" lon="4.62596">
        <ele>492.4</ele>
        <time>2026-05-04T09:54:15Z</time>
      </trkpt>
      <trkpt lat="44.89174" lon="4.6259">
        <ele>492.5</ele>
        <time>2026-05-04T09:54:20Z</time>
      </trkpt>
      <trkpt lat="44.89181" lon="4.62581">
        <ele>492.2</ele>
        <time>2026-05-04T09:54:25Z</time>
      </trkpt>
      <trkpt lat="44.89186" lon="4.62577">
        <ele>491.7</ele>
        <time>2026-05-04T09:54:30Z</time>
      </trkpt>
      <trkpt lat="44.89193" lon="4.62572">
        <ele>491.1</ele>
        <time>2026-05-04T09:54:35Z</time>
      </trkpt>
      <trkpt lat="44.89199" lon="4.62566">
        <ele>490.3</ele>
        <time>2026-05-04T09:54:40Z</time>
      </trkpt>
      <trkpt lat="44.89205" lon="4.62558">
        <ele>489.2</ele>
        <time>2026-05-04T09:54:45Z</time>
      </trkpt>
      <trkpt lat="44.89211" lon="4.62552">
        <ele>488.3</ele>
        <time>2026-05-04T09:54:50Z</time>
      </trkpt>
      <trkpt lat="44.89217" lon="4.62548">
        <ele>487.7</ele>
        <time>2026-05-04T09:54:55Z</time>
      </trkpt>
      <trkpt lat="44.89224" lon="4.62543">
        <ele>486.9</ele>
        <time>2026-05-04T09:55:00Z</time>
      </trkpt>
      <trkpt lat="44.89231" lon="4.62535">
        <ele>485.6</ele>
        <time>2026-05-04T09:55:05Z</time>
      </trkpt>
      <trkpt lat="44.89237" lon="4.62527">
        <ele>484.1</ele>
        <time>2026-05-04T09:55:10Z</time>
      </trkpt>
      <trkpt lat="44.89244" lon="4.62521">
        <ele>483</ele>
        <time>2026-05-04T09:55:15Z</time>
      </trkpt>
      <trkpt lat="44.89251" lon="4.62514">
        <ele>481.8</ele>
        <time>2026-05-04T09:55:20Z</time>
      </trkpt>
      <trkpt lat="44.89257" lon="4.62509">
        <ele>481.7</ele>
        <time>2026-05-04T09:55:25Z</time>
      </trkpt>
      <trkpt lat="44.89263" lon="4.62503">
        <ele>481.5</ele>
        <time>2026-05-04T09:55:30Z</time>
      </trkpt>
      <trkpt lat="44.8927" lon="4.62496">
        <ele>481.8</ele>
        <time>2026-05-04T09:55:35Z</time>
      </trkpt>
      <trkpt lat="44.89276" lon="4.62493">
        <ele>482.5</ele>
        <time>2026-05-04T09:55:40Z</time>
      </trkpt>
      <trkpt lat="44.89282" lon="4.6249">
        <ele>483.2</ele>
        <time>2026-05-04T09:55:45Z</time>
      </trkpt>
      <trkpt lat="44.89289" lon="4.62483">
        <ele>483.8</ele>
        <time>2026-05-04T09:55:50Z</time>
      </trkpt>
      <trkpt lat="44.89296" lon="4.62478">
        <ele>484.3</ele>
        <time>2026-05-04T09:55:55Z</time>
      </trkpt>
      <trkpt lat="44.89304" lon="4.62471">
        <ele>484.7</ele>
        <time>2026-05-04T09:56:00Z</time>
      </trkpt>
      <trkpt lat="44.8931" lon="4.62465">
        <ele>484.9</ele>
        <time>2026-05-04T09:56:05Z</time>
      </trkpt>
      <trkpt lat="44.89316" lon="4.6246">
        <ele>485.1</ele>
        <time>2026-05-04T09:56:10Z</time>
      </trkpt>
      <trkpt lat="44.89319" lon="4.6245">
        <ele>484.5</ele>
        <time>2026-05-04T09:56:15Z</time>
      </trkpt>
      <trkpt lat="44.8932" lon="4.62442">
        <ele>483.8</ele>
        <time>2026-05-04T09:56:20Z</time>
      </trkpt>
      <trkpt lat="44.8932" lon="4.62433">
        <ele>483</ele>
        <time>2026-05-04T09:56:25Z</time>
      </trkpt>
      <trkpt lat="44.89319" lon="4.62423">
        <ele>482.1</ele>
        <time>2026-05-04T09:56:30Z</time>
      </trkpt>
      <trkpt lat="44.8932" lon="4.62415">
        <ele>481.8</ele>
        <time>2026-05-04T09:56:35Z</time>
      </trkpt>
      <trkpt lat="44.8932" lon="4.62407">
        <ele>483.3</ele>
        <time>2026-05-04T09:56:40Z</time>
      </trkpt>
      <trkpt lat="44.8932" lon="4.62404">
        <ele>483.9</ele>
        <time>2026-05-04T09:56:45Z</time>
      </trkpt>
      <trkpt lat="44.8932" lon="4.62404">
        <ele>483.9</ele>
        <time>2026-05-04T09:56:50Z</time>
      </trkpt>
      <trkpt lat="44.8932" lon="4.62404">
        <ele>483.9</ele>
        <time>2026-05-04T09:56:55Z</time>
      </trkpt>
      <trkpt lat="44.8932" lon="4.62404">
        <ele>483.9</ele>
        <time>2026-05-04T09:57:00Z</time>
      </trkpt>
      <trkpt lat="44.8932" lon="4.62404">
        <ele>483.9</ele>
        <time>2026-05-04T09:57:05Z</time>
      </trkpt>
      <trkpt lat="44.8932" lon="4.62404">
        <ele>483.9</ele>
        <time>2026-05-04T09:57:10Z</time>
      </trkpt>
      <trkpt lat="44.8932" lon="4.62404">
        <ele>483.9</ele>
        <time>2026-05-04T09:57:15Z</time>
      </trkpt>
      <trkpt lat="44.89315" lon="4.624">
        <ele>484.5</ele>
        <time>2026-05-04T09:57:20Z</time>
      </trkpt>
      <trkpt lat="44.89312" lon="4.62393">
        <ele>485.8</ele>
        <time>2026-05-04T09:57:25Z</time>
      </trkpt>
      <trkpt lat="44.89309" lon="4.62385">
        <ele>487.3</ele>
        <time>2026-05-04T09:57:30Z</time>
      </trkpt>
      <trkpt lat="44.89306" lon="4.62375">
        <ele>489.2</ele>
        <time>2026-05-04T09:57:35Z</time>
      </trkpt>
      <trkpt lat="44.89301" lon="4.6237">
        <ele>490.1</ele>
        <time>2026-05-04T09:57:40Z</time>
      </trkpt>
      <trkpt lat="44.89294" lon="4.6237">
        <ele>490</ele>
        <time>2026-05-04T09:57:45Z</time>
      </trkpt>
      <trkpt lat="44.89292" lon="4.62369">
        <ele>490.2</ele>
        <time>2026-05-04T09:57:50Z</time>
      </trkpt>
      <trkpt lat="44.89288" lon="4.62372">
        <ele>489.6</ele>
        <time>2026-05-04T09:57:55Z</time>
      </trkpt>
      <trkpt lat="44.89286" lon="4.62372">
        <ele>489.6</ele>
        <time>2026-05-04T09:58:00Z</time>
      </trkpt>
      <trkpt lat="44.89286" lon="4.62372">
        <ele>489.6</ele>
        <time>2026-05-04T09:58:05Z</time>
      </trkpt>
      <trkpt lat="44.89286" lon="4.62372">
        <ele>489.6</ele>
        <time>2026-05-04T09:58:10Z</time>
      </trkpt>
      <trkpt lat="44.89284" lon="4.62368">
        <ele>490.4</ele>
        <time>2026-05-04T09:58:15Z</time>
      </trkpt>
      <trkpt lat="44.89279" lon="4.62368">
        <ele>490.3</ele>
        <time>2026-05-04T09:58:20Z</time>
      </trkpt>
      <trkpt lat="44.89273" lon="4.62368">
        <ele>490.3</ele>
        <time>2026-05-04T09:58:25Z</time>
      </trkpt>
      <trkpt lat="44.89267" lon="4.62367">
        <ele>490.4</ele>
        <time>2026-05-04T09:58:30Z</time>
      </trkpt>
      <trkpt lat="44.89263" lon="4.62366">
        <ele>490.6</ele>
        <time>2026-05-04T09:58:35Z</time>
      </trkpt>
      <trkpt lat="44.89259" lon="4.62365">
        <ele>490.8</ele>
        <time>2026-05-04T09:58:40Z</time>
      </trkpt>
      <trkpt lat="44.89252" lon="4.62363">
        <ele>491.2</ele>
        <time>2026-05-04T09:58:45Z</time>
      </trkpt>
      <trkpt lat="44.89245" lon="4.62359">
        <ele>492.1</ele>
        <time>2026-05-04T09:58:50Z</time>
      </trkpt>
      <trkpt lat="44.8924" lon="4.62354">
        <ele>493.2</ele>
        <time>2026-05-04T09:58:55Z</time>
      </trkpt>
      <trkpt lat="44.89241" lon="4.62348">
        <ele>494.6</ele>
        <time>2026-05-04T09:59:00Z</time>
      </trkpt>
      <trkpt lat="44.89245" lon="4.62347">
        <ele>494.9</ele>
        <time>2026-05-04T09:59:05Z</time>
      </trkpt>
      <trkpt lat="44.8925" lon="4.62351">
        <ele>494</ele>
        <time>2026-05-04T09:59:10Z</time>
      </trkpt>
      <trkpt lat="44.89254" lon="4.62352">
        <ele>493.7</ele>
        <time>2026-05-04T09:59:15Z</time>
      </trkpt>
      <trkpt lat="44.89258" lon="4.62353">
        <ele>493.5</ele>
        <time>2026-05-04T09:59:20Z</time>
      </trkpt>
      <trkpt lat="44.89263" lon="4.62354">
        <ele>493.3</ele>
        <time>2026-05-04T09:59:25Z</time>
      </trkpt>
      <trkpt lat="44.89268" lon="4.62353">
        <ele>493.5</ele>
        <time>2026-05-04T09:59:30Z</time>
      </trkpt>
      <trkpt lat="44.89273" lon="4.62351">
        <ele>493.9</ele>
        <time>2026-05-04T09:59:35Z</time>
      </trkpt>
      <trkpt lat="44.89279" lon="4.62346">
        <ele>495</ele>
        <time>2026-05-04T09:59:40Z</time>
      </trkpt>
      <trkpt lat="44.89283" lon="4.62341">
        <ele>496</ele>
        <time>2026-05-04T09:59:45Z</time>
      </trkpt>
      <trkpt lat="44.89285" lon="4.62334">
        <ele>497.4</ele>
        <time>2026-05-04T09:59:50Z</time>
      </trkpt>
      <trkpt lat="44.89287" lon="4.62327">
        <ele>498.7</ele>
        <time>2026-05-04T09:59:55Z</time>
      </trkpt>
      <trkpt lat="44.89288" lon="4.62321">
        <ele>499.7</ele>
        <time>2026-05-04T10:00:00Z</time>
      </trkpt>
      <trkpt lat="44.89288" lon="4.62315">
        <ele>500.8</ele>
        <time>2026-05-04T10:00:05Z</time>
      </trkpt>
      <trkpt lat="44.89287" lon="4.62308">
        <ele>502</ele>
        <time>2026-05-04T10:00:10Z</time>
      </trkpt>
      <trkpt lat="44.89288" lon="4.62302">
        <ele>503</ele>
        <time>2026-05-04T10:00:15Z</time>
      </trkpt>
      <trkpt lat="44.89287" lon="4.62295">
        <ele>504.3</ele>
        <time>2026-05-04T10:00:20Z</time>
      </trkpt>
      <trkpt lat="44.89286" lon="4.62287">
        <ele>505.7</ele>
        <time>2026-05-04T10:00:25Z</time>
      </trkpt>
      <trkpt lat="44.89287" lon="4.62281">
        <ele>506.8</ele>
        <time>2026-05-04T10:00:30Z</time>
      </trkpt>
      <trkpt lat="44.89285" lon="4.62278">
        <ele>507.4</ele>
        <time>2026-05-04T10:00:35Z</time>
      </trkpt>
      <trkpt lat="44.89285" lon="4.62278">
        <ele>507.4</ele>
        <time>2026-05-04T10:00:40Z</time>
      </trkpt>
      <trkpt lat="44.89285" lon="4.62278">
        <ele>507.4</ele>
        <time>2026-05-04T10:00:45Z</time>
      </trkpt>
      <trkpt lat="44.89279" lon="4.62266">
        <ele>509.7</ele>
        <time>2026-05-04T10:00:50Z</time>
      </trkpt>
      <trkpt lat="44.89279" lon="4.6226">
        <ele>510.8</ele>
        <time>2026-05-04T10:00:55Z</time>
      </trkpt>
      <trkpt lat="44.89279" lon="4.62254">
        <ele>511.9</ele>
        <time>2026-05-04T10:01:00Z</time>
      </trkpt>
      <trkpt lat="44.89278" lon="4.62249">
        <ele>512.7</ele>
        <time>2026-05-04T10:01:05Z</time>
      </trkpt>
      <trkpt lat="44.89277" lon="4.62242">
        <ele>512.8</ele>
        <time>2026-05-04T10:01:10Z</time>
      </trkpt>
      <trkpt lat="44.89275" lon="4.62237">
        <ele>513</ele>
        <time>2026-05-04T10:01:15Z</time>
      </trkpt>
      <trkpt lat="44.89274" lon="4.62231">
        <ele>513.1</ele>
        <time>2026-05-04T10:01:20Z</time>
      </trkpt>
      <trkpt lat="44.89273" lon="4.62226">
        <ele>513.2</ele>
        <time>2026-05-04T10:01:25Z</time>
      </trkpt>
      <trkpt lat="44.89272" lon="4.62218">
        <ele>513.3</ele>
        <time>2026-05-04T10:01:30Z</time>
      </trkpt>
      <trkpt lat="44.8927" lon="4.6221">
        <ele>513.5</ele>
        <time>2026-05-04T10:01:35Z</time>
      </trkpt>
      <trkpt lat="44.8927" lon="4.62204">
        <ele>513.6</ele>
        <time>2026-05-04T10:01:40Z</time>
      </trkpt>
      <trkpt lat="44.89271" lon="4.62198">
        <ele>513.6</ele>
        <time>2026-05-04T10:01:45Z</time>
      </trkpt>
      <trkpt lat="44.89272" lon="4.62193">
        <ele>513.6</ele>
        <time>2026-05-04T10:01:50Z</time>
      </trkpt>
      <trkpt lat="44.89271" lon="4.62187">
        <ele>513.7</ele>
        <time>2026-05-04T10:01:55Z</time>
      </trkpt>
      <trkpt lat="44.89267" lon="4.62182">
        <ele>514</ele>
        <time>2026-05-04T10:02:00Z</time>
      </trkpt>
      <trkpt lat="44.89265" lon="4.62175">
        <ele>514.2</ele>
        <time>2026-05-04T10:02:05Z</time>
      </trkpt>
      <trkpt lat="44.89263" lon="4.62168">
        <ele>514.4</ele>
        <time>2026-05-04T10:02:10Z</time>
      </trkpt>
      <trkpt lat="44.89262" lon="4.62161">
        <ele>514.6</ele>
        <time>2026-05-04T10:02:15Z</time>
      </trkpt>
      <trkpt lat="44.8926" lon="4.62154">
        <ele>514.9</ele>
        <time>2026-05-04T10:02:20Z</time>
      </trkpt>
      <trkpt lat="44.8926" lon="4.62148">
        <ele>515.1</ele>
        <time>2026-05-04T10:02:25Z</time>
      </trkpt>
      <trkpt lat="44.89258" lon="4.62142">
        <ele>515.4</ele>
        <time>2026-05-04T10:02:30Z</time>
      </trkpt>
      <trkpt lat="44.89257" lon="4.62136">
        <ele>515.7</ele>
        <time>2026-05-04T10:02:35Z</time>
      </trkpt>
      <trkpt lat="44.89255" lon="4.62128">
        <ele>516.1</ele>
        <time>2026-05-04T10:02:40Z</time>
      </trkpt>
      <trkpt lat="44.89253" lon="4.62121">
        <ele>516.5</ele>
        <time>2026-05-04T10:02:45Z</time>
      </trkpt>
      <trkpt lat="44.89252" lon="4.62116">
        <ele>516.7</ele>
        <time>2026-05-04T10:02:50Z</time>
      </trkpt>
      <trkpt lat="44.8925" lon="4.6211">
        <ele>517</ele>
        <time>2026-05-04T10:02:55Z</time>
      </trkpt>
      <trkpt lat="44.89249" lon="4.62103">
        <ele>517.4</ele>
        <time>2026-05-04T10:03:00Z</time>
      </trkpt>
      <trkpt lat="44.89247" lon="4.62097">
        <ele>517.8</ele>
        <time>2026-05-04T10:03:05Z</time>
      </trkpt>
      <trkpt lat="44.89246" lon="4.6209">
        <ele>518.1</ele>
        <time>2026-05-04T10:03:10Z</time>
      </trkpt>
      <trkpt lat="44.89245" lon="4.62083">
        <ele>518.5</ele>
        <time>2026-05-04T10:03:15Z</time>
      </trkpt>
      <trkpt lat="44.89243" lon="4.62078">
        <ele>519.3</ele>
        <time>2026-05-04T10:03:20Z</time>
      </trkpt>
      <trkpt lat="44.89242" lon="4.62073">
        <ele>520.1</ele>
        <time>2026-05-04T10:03:25Z</time>
      </trkpt>
      <trkpt lat="44.89241" lon="4.62065">
        <ele>521.3</ele>
        <time>2026-05-04T10:03:30Z</time>
      </trkpt>
      <trkpt lat="44.89241" lon="4.62059">
        <ele>522.2</ele>
        <time>2026-05-04T10:03:35Z</time>
      </trkpt>
      <trkpt lat="44.89241" lon="4.62052">
        <ele>523.1</ele>
        <time>2026-05-04T10:03:40Z</time>
      </trkpt>
      <trkpt lat="44.8924" lon="4.62045">
        <ele>524.2</ele>
        <time>2026-05-04T10:03:45Z</time>
      </trkpt>
      <trkpt lat="44.89239" lon="4.62037">
        <ele>525.4</ele>
        <time>2026-05-04T10:03:50Z</time>
      </trkpt>
      <trkpt lat="44.89238" lon="4.6203">
        <ele>526.4</ele>
        <time>2026-05-04T10:03:55Z</time>
      </trkpt>
      <trkpt lat="44.89237" lon="4.62023">
        <ele>527.4</ele>
        <time>2026-05-04T10:04:00Z</time>
      </trkpt>
      <trkpt lat="44.89237" lon="4.62015">
        <ele>528.5</ele>
        <time>2026-05-04T10:04:05Z</time>
      </trkpt>
      <trkpt lat="44.89235" lon="4.62009">
        <ele>529.5</ele>
        <time>2026-05-04T10:04:10Z</time>
      </trkpt>
      <trkpt lat="44.89234" lon="4.62003">
        <ele>530.4</ele>
        <time>2026-05-04T10:04:15Z</time>
      </trkpt>
      <trkpt lat="44.89233" lon="4.61997">
        <ele>531.3</ele>
        <time>2026-05-04T10:04:20Z</time>
      </trkpt>
      <trkpt lat="44.89233" lon="4.61991">
        <ele>532.3</ele>
        <time>2026-05-04T10:04:25Z</time>
      </trkpt>
      <trkpt lat="44.89233" lon="4.61986">
        <ele>533.1</ele>
        <time>2026-05-04T10:04:30Z</time>
      </trkpt>
      <trkpt lat="44.89231" lon="4.61981">
        <ele>534</ele>
        <time>2026-05-04T10:04:35Z</time>
      </trkpt>
      <trkpt lat="44.8923" lon="4.61974">
        <ele>535.2</ele>
        <time>2026-05-04T10:04:40Z</time>
      </trkpt>
      <trkpt lat="44.89228" lon="4.61969">
        <ele>536.2</ele>
        <time>2026-05-04T10:04:45Z</time>
      </trkpt>
      <trkpt lat="44.89228" lon="4.61964">
        <ele>537</ele>
        <time>2026-05-04T10:04:50Z</time>
      </trkpt>
      <trkpt lat="44.89228" lon="4.61958">
        <ele>538</ele>
        <time>2026-05-04T10:04:55Z</time>
      </trkpt>
      <trkpt lat="44.89227" lon="4.61952">
        <ele>539.1</ele>
        <time>2026-05-04T10:05:00Z</time>
      </trkpt>
      <trkpt lat="44.89228" lon="4.61946">
        <ele>540</ele>
        <time>2026-05-04T10:05:05Z</time>
      </trkpt>
      <trkpt lat="44.89229" lon="4.6194">
        <ele>540.9</ele>
        <time>2026-05-04T10:05:10Z</time>
      </trkpt>
      <trkpt lat="44.8923" lon="4.61933">
        <ele>542</ele>
        <time>2026-05-04T10:05:15Z</time>
      </trkpt>
      <trkpt lat="44.89229" lon="4.61927">
        <ele>543.1</ele>
        <time>2026-05-04T10:05:20Z</time>
      </trkpt>
      <trkpt lat="44.89227" lon="4.61922">
        <ele>544.1</ele>
        <time>2026-05-04T10:05:25Z</time>
      </trkpt>
      <trkpt lat="44.89224" lon="4.61917">
        <ele>545.4</ele>
        <time>2026-05-04T10:05:30Z</time>
      </trkpt>
      <trkpt lat="44.89222" lon="4.61911">
        <ele>546.1</ele>
        <time>2026-05-04T10:05:35Z</time>
      </trkpt>
      <trkpt lat="44.89219" lon="4.61905">
        <ele>547</ele>
        <time>2026-05-04T10:05:40Z</time>
      </trkpt>
      <trkpt lat="44.89216" lon="4.619">
        <ele>547.9</ele>
        <time>2026-05-04T10:05:45Z</time>
      </trkpt>
      <trkpt lat="44.89213" lon="4.61894">
        <ele>548.8</ele>
        <time>2026-05-04T10:05:50Z</time>
      </trkpt>
      <trkpt lat="44.89211" lon="4.61888">
        <ele>549.7</ele>
        <time>2026-05-04T10:05:55Z</time>
      </trkpt>
      <trkpt lat="44.89208" lon="4.61882">
        <ele>550.7</ele>
        <time>2026-05-04T10:06:00Z</time>
      </trkpt>
      <trkpt lat="44.89208" lon="4.61876">
        <ele>551.2</ele>
        <time>2026-05-04T10:06:05Z</time>
      </trkpt>
      <trkpt lat="44.89207" lon="4.6187">
        <ele>551.9</ele>
        <time>2026-05-04T10:06:10Z</time>
      </trkpt>
      <trkpt lat="44.89208" lon="4.61863">
        <ele>552.4</ele>
        <time>2026-05-04T10:06:15Z</time>
      </trkpt>
      <trkpt lat="44.89206" lon="4.61856">
        <ele>553.4</ele>
        <time>2026-05-04T10:06:20Z</time>
      </trkpt>
      <trkpt lat="44.89204" lon="4.61852">
        <ele>554.2</ele>
        <time>2026-05-04T10:06:25Z</time>
      </trkpt>
      <trkpt lat="44.89202" lon="4.61847">
        <ele>555.1</ele>
        <time>2026-05-04T10:06:30Z</time>
      </trkpt>
      <trkpt lat="44.89203" lon="4.61841">
        <ele>555.4</ele>
        <time>2026-05-04T10:06:35Z</time>
      </trkpt>
      <trkpt lat="44.89205" lon="4.61838">
        <ele>555.3</ele>
        <time>2026-05-04T10:06:40Z</time>
      </trkpt>
      <trkpt lat="44.89205" lon="4.61834">
        <ele>555.7</ele>
        <time>2026-05-04T10:06:45Z</time>
      </trkpt>
      <trkpt lat="44.89205" lon="4.61829">
        <ele>556.2</ele>
        <time>2026-05-04T10:06:50Z</time>
      </trkpt>
      <trkpt lat="44.89204" lon="4.61825">
        <ele>556.8</ele>
        <time>2026-05-04T10:06:55Z</time>
      </trkpt>
      <trkpt lat="44.89204" lon="4.6182">
        <ele>557.3</ele>
        <time>2026-05-04T10:07:00Z</time>
      </trkpt>
      <trkpt lat="44.89204" lon="4.61814">
        <ele>557.9</ele>
        <time>2026-05-04T10:07:05Z</time>
      </trkpt>
      <trkpt lat="44.89203" lon="4.61809">
        <ele>558.6</ele>
        <time>2026-05-04T10:07:10Z</time>
      </trkpt>
      <trkpt lat="44.89204" lon="4.61803">
        <ele>559</ele>
        <time>2026-05-04T10:07:15Z</time>
      </trkpt>
      <trkpt lat="44.89201" lon="4.61797">
        <ele>560.3</ele>
        <time>2026-05-04T10:07:20Z</time>
      </trkpt>
      <trkpt lat="44.89199" lon="4.61792">
        <ele>561.2</ele>
        <time>2026-05-04T10:07:25Z</time>
      </trkpt>
      <trkpt lat="44.89198" lon="4.61788">
        <ele>561.8</ele>
        <time>2026-05-04T10:07:30Z</time>
      </trkpt>
      <trkpt lat="44.89197" lon="4.61782">
        <ele>562.6</ele>
        <time>2026-05-04T10:07:35Z</time>
      </trkpt>
      <trkpt lat="44.89197" lon="4.61777">
        <ele>563.1</ele>
        <time>2026-05-04T10:07:40Z</time>
      </trkpt>
      <trkpt lat="44.89194" lon="4.61771">
        <ele>564.3</ele>
        <time>2026-05-04T10:07:45Z</time>
      </trkpt>
      <trkpt lat="44.89193" lon="4.61765">
        <ele>565.1</ele>
        <time>2026-05-04T10:07:50Z</time>
      </trkpt>
      <trkpt lat="44.89193" lon="4.61759">
        <ele>565.7</ele>
        <time>2026-05-04T10:07:55Z</time>
      </trkpt>
      <trkpt lat="44.89191" lon="4.61753">
        <ele>566.7</ele>
        <time>2026-05-04T10:08:00Z</time>
      </trkpt>
      <trkpt lat="44.89189" lon="4.61747">
        <ele>567.8</ele>
        <time>2026-05-04T10:08:05Z</time>
      </trkpt>
      <trkpt lat="44.89188" lon="4.61741">
        <ele>568.6</ele>
        <time>2026-05-04T10:08:10Z</time>
      </trkpt>
      <trkpt lat="44.89188" lon="4.61736">
        <ele>569.1</ele>
        <time>2026-05-04T10:08:15Z</time>
      </trkpt>
      <trkpt lat="44.8919" lon="4.61728">
        <ele>569.5</ele>
        <time>2026-05-04T10:08:20Z</time>
      </trkpt>
      <trkpt lat="44.89191" lon="4.61723">
        <ele>569.9</ele>
        <time>2026-05-04T10:08:25Z</time>
      </trkpt>
      <trkpt lat="44.8919" lon="4.61717">
        <ele>570.7</ele>
        <time>2026-05-04T10:08:30Z</time>
      </trkpt>
      <trkpt lat="44.89189" lon="4.61709">
        <ele>571.7</ele>
        <time>2026-05-04T10:08:35Z</time>
      </trkpt>
      <trkpt lat="44.8919" lon="4.61704">
        <ele>572.1</ele>
        <time>2026-05-04T10:08:40Z</time>
      </trkpt>
      <trkpt lat="44.89189" lon="4.61696">
        <ele>573.1</ele>
        <time>2026-05-04T10:08:45Z</time>
      </trkpt>
      <trkpt lat="44.89187" lon="4.61689">
        <ele>574.3</ele>
        <time>2026-05-04T10:08:50Z</time>
      </trkpt>
      <trkpt lat="44.89186" lon="4.61683">
        <ele>575.1</ele>
        <time>2026-05-04T10:08:55Z</time>
      </trkpt>
      <trkpt lat="44.89185" lon="4.61675">
        <ele>576.2</ele>
        <time>2026-05-04T10:09:00Z</time>
      </trkpt>
      <trkpt lat="44.89185" lon="4.61668">
        <ele>576.9</ele>
        <time>2026-05-04T10:09:05Z</time>
      </trkpt>
      <trkpt lat="44.89185" lon="4.61662">
        <ele>577.2</ele>
        <time>2026-05-04T10:09:10Z</time>
      </trkpt>
      <trkpt lat="44.89185" lon="4.61654">
        <ele>577.4</ele>
        <time>2026-05-04T10:09:15Z</time>
      </trkpt>
      <trkpt lat="44.89185" lon="4.61647">
        <ele>577.5</ele>
        <time>2026-05-04T10:09:20Z</time>
      </trkpt>
      <trkpt lat="44.89184" lon="4.61639">
        <ele>578</ele>
        <time>2026-05-04T10:09:25Z</time>
      </trkpt>
      <trkpt lat="44.89182" lon="4.61631">
        <ele>578.7</ele>
        <time>2026-05-04T10:09:30Z</time>
      </trkpt>
      <trkpt lat="44.8918" lon="4.61625">
        <ele>579.3</ele>
        <time>2026-05-04T10:09:35Z</time>
      </trkpt>
      <trkpt lat="44.89179" lon="4.61618">
        <ele>579.7</ele>
        <time>2026-05-04T10:09:40Z</time>
      </trkpt>
      <trkpt lat="44.89177" lon="4.61611">
        <ele>580.4</ele>
        <time>2026-05-04T10:09:45Z</time>
      </trkpt>
      <trkpt lat="44.89176" lon="4.61604">
        <ele>580.9</ele>
        <time>2026-05-04T10:09:50Z</time>
      </trkpt>
      <trkpt lat="44.89174" lon="4.61598">
        <ele>581.6</ele>
        <time>2026-05-04T10:09:55Z</time>
      </trkpt>
      <trkpt lat="44.89173" lon="4.61592">
        <ele>582</ele>
        <time>2026-05-04T10:10:00Z</time>
      </trkpt>
      <trkpt lat="44.89173" lon="4.61586">
        <ele>582.2</ele>
        <time>2026-05-04T10:10:05Z</time>
      </trkpt>
      <trkpt lat="44.89172" lon="4.6158">
        <ele>582.4</ele>
        <time>2026-05-04T10:10:10Z</time>
      </trkpt>
      <trkpt lat="44.89169" lon="4.61573">
        <ele>582.9</ele>
        <time>2026-05-04T10:10:15Z</time>
      </trkpt>
      <trkpt lat="44.89167" lon="4.61568">
        <ele>583.2</ele>
        <time>2026-05-04T10:10:20Z</time>
      </trkpt>
      <trkpt lat="44.89165" lon="4.61562">
        <ele>583.1</ele>
        <time>2026-05-04T10:10:25Z</time>
      </trkpt>
      <trkpt lat="44.89162" lon="4.61556">
        <ele>582.9</ele>
        <time>2026-05-04T10:10:30Z</time>
      </trkpt>
      <trkpt lat="44.89159" lon="4.61551">
        <ele>582.9</ele>
        <time>2026-05-04T10:10:35Z</time>
      </trkpt>
      <trkpt lat="44.89157" lon="4.61544">
        <ele>582.7</ele>
        <time>2026-05-04T10:10:40Z</time>
      </trkpt>
      <trkpt lat="44.89156" lon="4.61536">
        <ele>582.4</ele>
        <time>2026-05-04T10:10:45Z</time>
      </trkpt>
      <trkpt lat="44.89154" lon="4.61528">
        <ele>582.2</ele>
        <time>2026-05-04T10:10:50Z</time>
      </trkpt>
      <trkpt lat="44.89151" lon="4.61521">
        <ele>582.1</ele>
        <time>2026-05-04T10:10:55Z</time>
      </trkpt>
      <trkpt lat="44.89149" lon="4.61514">
        <ele>582</ele>
        <time>2026-05-04T10:11:00Z</time>
      </trkpt>
      <trkpt lat="44.89148" lon="4.61507">
        <ele>581.8</ele>
        <time>2026-05-04T10:11:05Z</time>
      </trkpt>
      <trkpt lat="44.89147" lon="4.615">
        <ele>581.7</ele>
        <time>2026-05-04T10:11:10Z</time>
      </trkpt>
      <trkpt lat="44.89145" lon="4.61492">
        <ele>581.3</ele>
        <time>2026-05-04T10:11:15Z</time>
      </trkpt>
      <trkpt lat="44.89144" lon="4.61485">
        <ele>580.9</ele>
        <time>2026-05-04T10:11:20Z</time>
      </trkpt>
      <trkpt lat="44.89142" lon="4.6148">
        <ele>580.7</ele>
        <time>2026-05-04T10:11:25Z</time>
      </trkpt>
      <trkpt lat="44.89141" lon="4.61473">
        <ele>580.4</ele>
        <time>2026-05-04T10:11:30Z</time>
      </trkpt>
      <trkpt lat="44.8914" lon="4.61468">
        <ele>580.2</ele>
        <time>2026-05-04T10:11:35Z</time>
      </trkpt>
      <trkpt lat="44.89139" lon="4.61461">
        <ele>579.8</ele>
        <time>2026-05-04T10:11:40Z</time>
      </trkpt>
      <trkpt lat="44.89137" lon="4.61453">
        <ele>579.6</ele>
        <time>2026-05-04T10:11:45Z</time>
      </trkpt>
      <trkpt lat="44.89136" lon="4.61448">
        <ele>579.4</ele>
        <time>2026-05-04T10:11:50Z</time>
      </trkpt>
      <trkpt lat="44.89135" lon="4.61444">
        <ele>579.3</ele>
        <time>2026-05-04T10:11:55Z</time>
      </trkpt>
      <trkpt lat="44.89135" lon="4.61443">
        <ele>579.3</ele>
        <time>2026-05-04T10:12:00Z</time>
      </trkpt>
      <trkpt lat="44.89135" lon="4.61443">
        <ele>579.3</ele>
        <time>2026-05-04T10:12:05Z</time>
      </trkpt>
      <trkpt lat="44.89135" lon="4.61443">
        <ele>579.3</ele>
        <time>2026-05-04T10:12:10Z</time>
      </trkpt>
      <trkpt lat="44.89135" lon="4.61443">
        <ele>579.3</ele>
        <time>2026-05-04T10:12:15Z</time>
      </trkpt>
      <trkpt lat="44.89135" lon="4.61443">
        <ele>579.3</ele>
        <time>2026-05-04T10:12:20Z</time>
      </trkpt>
      <trkpt lat="44.89135" lon="4.61443">
        <ele>579.3</ele>
        <time>2026-05-04T10:12:25Z</time>
      </trkpt>
      <trkpt lat="44.89133" lon="4.61432">
        <ele>578.9</ele>
        <time>2026-05-04T10:12:30Z</time>
      </trkpt>
      <trkpt lat="44.89135" lon="4.61423">
        <ele>578.1</ele>
        <time>2026-05-04T10:12:35Z</time>
      </trkpt>
      <trkpt lat="44.89138" lon="4.61416">
        <ele>577.2</ele>
        <time>2026-05-04T10:12:40Z</time>
      </trkpt>
      <trkpt lat="44.89141" lon="4.6141">
        <ele>576.8</ele>
        <time>2026-05-04T10:12:45Z</time>
      </trkpt>
      <trkpt lat="44.89144" lon="4.61403">
        <ele>576.4</ele>
        <time>2026-05-04T10:12:50Z</time>
      </trkpt>
      <trkpt lat="44.89147" lon="4.61397">
        <ele>576</ele>
        <time>2026-05-04T10:12:55Z</time>
      </trkpt>
      <trkpt lat="44.89152" lon="4.61392">
        <ele>575.2</ele>
        <time>2026-05-04T10:13:00Z</time>
      </trkpt>
      <trkpt lat="44.89155" lon="4.61386">
        <ele>574.8</ele>
        <time>2026-05-04T10:13:05Z</time>
      </trkpt>
      <trkpt lat="44.89159" lon="4.61381">
        <ele>574.2</ele>
        <time>2026-05-04T10:13:10Z</time>
      </trkpt>
      <trkpt lat="44.89161" lon="4.61373">
        <ele>574.1</ele>
        <time>2026-05-04T10:13:15Z</time>
      </trkpt>
      <trkpt lat="44.89163" lon="4.61367">
        <ele>573.9</ele>
        <time>2026-05-04T10:13:20Z</time>
      </trkpt>
      <trkpt lat="44.89164" lon="4.61359">
        <ele>573.9</ele>
        <time>2026-05-04T10:13:25Z</time>
      </trkpt>
      <trkpt lat="44.89162" lon="4.61351">
        <ele>574.4</ele>
        <time>2026-05-04T10:13:30Z</time>
      </trkpt>
      <trkpt lat="44.8916" lon="4.61342">
        <ele>575</ele>
        <time>2026-05-04T10:13:35Z</time>
      </trkpt>
      <trkpt lat="44.89158" lon="4.61333">
        <ele>575.6</ele>
        <time>2026-05-04T10:13:40Z</time>
      </trkpt>
      <trkpt lat="44.89156" lon="4.61322">
        <ele>575.7</ele>
        <time>2026-05-04T10:13:45Z</time>
      </trkpt>
      <trkpt lat="44.89155" lon="4.61313">
        <ele>575.7</ele>
        <time>2026-05-04T10:13:50Z</time>
      </trkpt>
      <trkpt lat="44.89153" lon="4.61304">
        <ele>575.8</ele>
        <time>2026-05-04T10:13:55Z</time>
      </trkpt>
      <trkpt lat="44.89152" lon="4.61295">
        <ele>575.8</ele>
        <time>2026-05-04T10:14:00Z</time>
      </trkpt>
      <trkpt lat="44.89151" lon="4.61288">
        <ele>575.8</ele>
        <time>2026-05-04T10:14:05Z</time>
      </trkpt>
      <trkpt lat="44.8915" lon="4.61278">
        <ele>575.7</ele>
        <time>2026-05-04T10:14:10Z</time>
      </trkpt>
      <trkpt lat="44.8915" lon="4.6127">
        <ele>575.5</ele>
        <time>2026-05-04T10:14:15Z</time>
      </trkpt>
      <trkpt lat="44.89149" lon="4.61263">
        <ele>575.4</ele>
        <time>2026-05-04T10:14:20Z</time>
      </trkpt>
      <trkpt lat="44.89148" lon="4.61257">
        <ele>575.4</ele>
        <time>2026-05-04T10:14:25Z</time>
      </trkpt>
      <trkpt lat="44.89147" lon="4.6125">
        <ele>575.4</ele>
        <time>2026-05-04T10:14:30Z</time>
      </trkpt>
      <trkpt lat="44.89146" lon="4.61244">
        <ele>575.1</ele>
        <time>2026-05-04T10:14:35Z</time>
      </trkpt>
      <trkpt lat="44.89146" lon="4.61237">
        <ele>574.6</ele>
        <time>2026-05-04T10:14:40Z</time>
      </trkpt>
      <trkpt lat="44.89146" lon="4.61229">
        <ele>574</ele>
        <time>2026-05-04T10:14:45Z</time>
      </trkpt>
      <trkpt lat="44.89145" lon="4.61222">
        <ele>573.6</ele>
        <time>2026-05-04T10:14:50Z</time>
      </trkpt>
      <trkpt lat="44.89145" lon="4.61215">
        <ele>573.2</ele>
        <time>2026-05-04T10:14:55Z</time>
      </trkpt>
      <trkpt lat="44.89144" lon="4.61209">
        <ele>572.8</ele>
        <time>2026-05-04T10:15:00Z</time>
      </trkpt>
      <trkpt lat="44.89143" lon="4.61202">
        <ele>572.4</ele>
        <time>2026-05-04T10:15:05Z</time>
      </trkpt>
      <trkpt lat="44.89139" lon="4.61196">
        <ele>572.2</ele>
        <time>2026-05-04T10:15:10Z</time>
      </trkpt>
      <trkpt lat="44.89136" lon="4.61189">
        <ele>571.9</ele>
        <time>2026-05-04T10:15:15Z</time>
      </trkpt>
      <trkpt lat="44.89132" lon="4.61184">
        <ele>571.7</ele>
        <time>2026-05-04T10:15:20Z</time>
      </trkpt>
      <trkpt lat="44.89132" lon="4.61184">
        <ele>571.7</ele>
        <time>2026-05-04T10:15:25Z</time>
      </trkpt>
      <trkpt lat="44.89131" lon="4.61183">
        <ele>571.7</ele>
        <time>2026-05-04T10:15:30Z</time>
      </trkpt>
      <trkpt lat="44.89131" lon="4.61183">
        <ele>571.7</ele>
        <time>2026-05-04T10:15:35Z</time>
      </trkpt>
      <trkpt lat="44.89128" lon="4.61178">
        <ele>571.4</ele>
        <time>2026-05-04T10:15:40Z</time>
      </trkpt>
      <trkpt lat="44.89124" lon="4.61173">
        <ele>571.1</ele>
        <time>2026-05-04T10:15:45Z</time>
      </trkpt>
      <trkpt lat="44.89121" lon="4.6117">
        <ele>571</ele>
        <time>2026-05-04T10:15:50Z</time>
      </trkpt>
      <trkpt lat="44.89118" lon="4.6117">
        <ele>571.1</ele>
        <time>2026-05-04T10:15:55Z</time>
      </trkpt>
      <trkpt lat="44.89113" lon="4.61173">
        <ele>571.6</ele>
        <time>2026-05-04T10:16:00Z</time>
      </trkpt>
      <trkpt lat="44.89109" lon="4.61177">
        <ele>572.2</ele>
        <time>2026-05-04T10:16:05Z</time>
      </trkpt>
      <trkpt lat="44.89104" lon="4.61179">
        <ele>572.6</ele>
        <time>2026-05-04T10:16:10Z</time>
      </trkpt>
      <trkpt lat="44.89099" lon="4.61185">
        <ele>573.6</ele>
        <time>2026-05-04T10:16:15Z</time>
      </trkpt>
      <trkpt lat="44.89099" lon="4.61191">
        <ele>574.3</ele>
        <time>2026-05-04T10:16:20Z</time>
      </trkpt>
      <trkpt lat="44.891" lon="4.61195">
        <ele>574.7</ele>
        <time>2026-05-04T10:16:25Z</time>
      </trkpt>
      <trkpt lat="44.891" lon="4.61202">
        <ele>575.5</ele>
        <time>2026-05-04T10:16:30Z</time>
      </trkpt>
      <trkpt lat="44.891" lon="4.61209">
        <ele>576.3</ele>
        <time>2026-05-04T10:16:35Z</time>
      </trkpt>
      <trkpt lat="44.891" lon="4.61213">
        <ele>576.7</ele>
        <time>2026-05-04T10:16:40Z</time>
      </trkpt>
      <trkpt lat="44.891" lon="4.61213">
        <ele>576.7</ele>
        <time>2026-05-04T10:16:45Z</time>
      </trkpt>
      <trkpt lat="44.891" lon="4.61213">
        <ele>576.7</ele>
        <time>2026-05-04T10:16:50Z</time>
      </trkpt>
      <trkpt lat="44.89103" lon="4.61219">
        <ele>577.2</ele>
        <time>2026-05-04T10:16:55Z</time>
      </trkpt>
      <trkpt lat="44.89102" lon="4.61228">
        <ele>578.3</ele>
        <time>2026-05-04T10:17:00Z</time>
      </trkpt>
      <trkpt lat="44.89099" lon="4.61233">
        <ele>579.1</ele>
        <time>2026-05-04T10:17:05Z</time>
      </trkpt>
      <trkpt lat="44.89098" lon="4.61238">
        <ele>579.8</ele>
        <time>2026-05-04T10:17:10Z</time>
      </trkpt>
      <trkpt lat="44.89098" lon="4.61237">
        <ele>579.7</ele>
        <time>2026-05-04T10:17:15Z</time>
      </trkpt>
      <trkpt lat="44.89098" lon="4.61236">
        <ele>579.6</ele>
        <time>2026-05-04T10:17:20Z</time>
      </trkpt>
      <trkpt lat="44.89099" lon="4.61228">
        <ele>578.6</ele>
        <time>2026-05-04T10:17:25Z</time>
      </trkpt>
      <trkpt lat="44.89101" lon="4.61221">
        <ele>577.6</ele>
        <time>2026-05-04T10:17:30Z</time>
      </trkpt>
      <trkpt lat="44.891" lon="4.61213">
        <ele>576.7</ele>
        <time>2026-05-04T10:17:35Z</time>
      </trkpt>
      <trkpt lat="44.891" lon="4.61203">
        <ele>575.6</ele>
        <time>2026-05-04T10:17:40Z</time>
      </trkpt>
      <trkpt lat="44.891" lon="4.61194">
        <ele>574.5</ele>
        <time>2026-05-04T10:17:45Z</time>
      </trkpt>
      <trkpt lat="44.891" lon="4.61186">
        <ele>573.6</ele>
        <time>2026-05-04T10:17:50Z</time>
      </trkpt>
      <trkpt lat="44.891" lon="4.61181">
        <ele>573.1</ele>
        <time>2026-05-04T10:17:55Z</time>
      </trkpt>
      <trkpt lat="44.89098" lon="4.61177">
        <ele>572.7</ele>
        <time>2026-05-04T10:18:00Z</time>
      </trkpt>
      <trkpt lat="44.89093" lon="4.61178">
        <ele>573</ele>
        <time>2026-05-04T10:18:05Z</time>
      </trkpt>
      <trkpt lat="44.89087" lon="4.61178">
        <ele>573.3</ele>
        <time>2026-05-04T10:18:10Z</time>
      </trkpt>
      <trkpt lat="44.8908" lon="4.61178">
        <ele>573.9</ele>
        <time>2026-05-04T10:18:15Z</time>
      </trkpt>
      <trkpt lat="44.89074" lon="4.61177">
        <ele>574.6</ele>
        <time>2026-05-04T10:18:20Z</time>
      </trkpt>
      <trkpt lat="44.89068" lon="4.61176">
        <ele>575.3</ele>
        <time>2026-05-04T10:18:25Z</time>
      </trkpt>
      <trkpt lat="44.89063" lon="4.61177">
        <ele>576</ele>
        <time>2026-05-04T10:18:30Z</time>
      </trkpt>
      <trkpt lat="44.89057" lon="4.61175">
        <ele>576.6</ele>
        <time>2026-05-04T10:18:35Z</time>
      </trkpt>
      <trkpt lat="44.89051" lon="4.61171">
        <ele>577.1</ele>
        <time>2026-05-04T10:18:40Z</time>
      </trkpt>
      <trkpt lat="44.89045" lon="4.61165">
        <ele>577.4</ele>
        <time>2026-05-04T10:18:45Z</time>
      </trkpt>
      <trkpt lat="44.89039" lon="4.61159">
        <ele>577.6</ele>
        <time>2026-05-04T10:18:50Z</time>
      </trkpt>
      <trkpt lat="44.89032" lon="4.61154">
        <ele>578</ele>
        <time>2026-05-04T10:18:55Z</time>
      </trkpt>
      <trkpt lat="44.89026" lon="4.61149">
        <ele>578.3</ele>
        <time>2026-05-04T10:19:00Z</time>
      </trkpt>
      <trkpt lat="44.8902" lon="4.61143">
        <ele>578.5</ele>
        <time>2026-05-04T10:19:05Z</time>
      </trkpt>
      <trkpt lat="44.89015" lon="4.61134">
        <ele>578.1</ele>
        <time>2026-05-04T10:19:10Z</time>
      </trkpt>
      <trkpt lat="44.8901" lon="4.61125">
        <ele>577.7</ele>
        <time>2026-05-04T10:19:15Z</time>
      </trkpt>
      <trkpt lat="44.89006" lon="4.61117">
        <ele>577.3</ele>
        <time>2026-05-04T10:19:20Z</time>
      </trkpt>
      <trkpt lat="44.89001" lon="4.61108">
        <ele>576.8</ele>
        <time>2026-05-04T10:19:25Z</time>
      </trkpt>
      <trkpt lat="44.88998" lon="4.61102">
        <ele>576.3</ele>
        <time>2026-05-04T10:19:30Z</time>
      </trkpt>
      <trkpt lat="44.88993" lon="4.61094">
        <ele>575.6</ele>
        <time>2026-05-04T10:19:35Z</time>
      </trkpt>
      <trkpt lat="44.88989" lon="4.61088">
        <ele>575.1</ele>
        <time>2026-05-04T10:19:40Z</time>
      </trkpt>
      <trkpt lat="44.88984" lon="4.61081">
        <ele>574.6</ele>
        <time>2026-05-04T10:19:45Z</time>
      </trkpt>
      <trkpt lat="44.8898" lon="4.61074">
        <ele>574.4</ele>
        <time>2026-05-04T10:19:50Z</time>
      </trkpt>
      <trkpt lat="44.88975" lon="4.61067">
        <ele>574.2</ele>
        <time>2026-05-04T10:19:55Z</time>
      </trkpt>
      <trkpt lat="44.88972" lon="4.61061">
        <ele>574</ele>
        <time>2026-05-04T10:20:00Z</time>
      </trkpt>
      <trkpt lat="44.88967" lon="4.61057">
        <ele>574.1</ele>
        <time>2026-05-04T10:20:05Z</time>
      </trkpt>
      <trkpt lat="44.88962" lon="4.61053">
        <ele>574.1</ele>
        <time>2026-05-04T10:20:10Z</time>
      </trkpt>
      <trkpt lat="44.88958" lon="4.6105">
        <ele>574.2</ele>
        <time>2026-05-04T10:20:15Z</time>
      </trkpt>
      <trkpt lat="44.88953" lon="4.61045">
        <ele>574.3</ele>
        <time>2026-05-04T10:20:20Z</time>
      </trkpt>
      <trkpt lat="44.88948" lon="4.6104">
        <ele>574.3</ele>
        <time>2026-05-04T10:20:25Z</time>
      </trkpt>
      <trkpt lat="44.88942" lon="4.61034">
        <ele>574.5</ele>
        <time>2026-05-04T10:20:30Z</time>
      </trkpt>
      <trkpt lat="44.88935" lon="4.61027">
        <ele>574.6</ele>
        <time>2026-05-04T10:20:35Z</time>
      </trkpt>
      <trkpt lat="44.88927" lon="4.61018">
        <ele>574.9</ele>
        <time>2026-05-04T10:20:40Z</time>
      </trkpt>
      <trkpt lat="44.88922" lon="4.6101">
        <ele>574.9</ele>
        <time>2026-05-04T10:20:45Z</time>
      </trkpt>
      <trkpt lat="44.88917" lon="4.61004">
        <ele>575.1</ele>
        <time>2026-05-04T10:20:50Z</time>
      </trkpt>
      <trkpt lat="44.88913" lon="4.60997">
        <ele>575.1</ele>
        <time>2026-05-04T10:20:55Z</time>
      </trkpt>
      <trkpt lat="44.88908" lon="4.60992">
        <ele>575.2</ele>
        <time>2026-05-04T10:21:00Z</time>
      </trkpt>
      <trkpt lat="44.88905" lon="4.60983">
        <ele>575</ele>
        <time>2026-05-04T10:21:05Z</time>
      </trkpt>
      <trkpt lat="44.889" lon="4.60974">
        <ele>575.1</ele>
        <time>2026-05-04T10:21:10Z</time>
      </trkpt>
      <trkpt lat="44.88895" lon="4.60964">
        <ele>575.1</ele>
        <time>2026-05-04T10:21:15Z</time>
      </trkpt>
      <trkpt lat="44.8889" lon="4.60955">
        <ele>575.2</ele>
        <time>2026-05-04T10:21:20Z</time>
      </trkpt>
      <trkpt lat="44.88886" lon="4.60947">
        <ele>575.3</ele>
        <time>2026-05-04T10:21:25Z</time>
      </trkpt>
      <trkpt lat="44.88884" lon="4.60941">
        <ele>575.3</ele>
        <time>2026-05-04T10:21:30Z</time>
      </trkpt>
      <trkpt lat="44.8888" lon="4.60934">
        <ele>575.4</ele>
        <time>2026-05-04T10:21:35Z</time>
      </trkpt>
      <trkpt lat="44.88878" lon="4.60927">
        <ele>575.4</ele>
        <time>2026-05-04T10:21:40Z</time>
      </trkpt>
      <trkpt lat="44.88873" lon="4.6092">
        <ele>575.7</ele>
        <time>2026-05-04T10:21:45Z</time>
      </trkpt>
      <trkpt lat="44.8887" lon="4.60914">
        <ele>575.9</ele>
        <time>2026-05-04T10:21:50Z</time>
      </trkpt>
      <trkpt lat="44.88867" lon="4.60907">
        <ele>576.2</ele>
        <time>2026-05-04T10:21:55Z</time>
      </trkpt>
      <trkpt lat="44.88863" lon="4.60899">
        <ele>576.6</ele>
        <time>2026-05-04T10:22:00Z</time>
      </trkpt>
      <trkpt lat="44.88859" lon="4.60892">
        <ele>577</ele>
        <time>2026-05-04T10:22:05Z</time>
      </trkpt>
      <trkpt lat="44.88856" lon="4.60885">
        <ele>577.4</ele>
        <time>2026-05-04T10:22:10Z</time>
      </trkpt>
      <trkpt lat="44.88853" lon="4.60879">
        <ele>577.7</ele>
        <time>2026-05-04T10:22:15Z</time>
      </trkpt>
      <trkpt lat="44.88848" lon="4.60872">
        <ele>578.2</ele>
        <time>2026-05-04T10:22:20Z</time>
      </trkpt>
      <trkpt lat="44.88844" lon="4.60864">
        <ele>578.7</ele>
        <time>2026-05-04T10:22:25Z</time>
      </trkpt>
      <trkpt lat="44.8884" lon="4.60855">
        <ele>579.1</ele>
        <time>2026-05-04T10:22:30Z</time>
      </trkpt>
      <trkpt lat="44.88837" lon="4.60847">
        <ele>579.5</ele>
        <time>2026-05-04T10:22:35Z</time>
      </trkpt>
      <trkpt lat="44.88832" lon="4.60839">
        <ele>580</ele>
        <time>2026-05-04T10:22:40Z</time>
      </trkpt>
      <trkpt lat="44.88829" lon="4.60827">
        <ele>580.6</ele>
        <time>2026-05-04T10:22:45Z</time>
      </trkpt>
      <trkpt lat="44.88828" lon="4.60818">
        <ele>581</ele>
        <time>2026-05-04T10:22:50Z</time>
      </trkpt>
      <trkpt lat="44.88828" lon="4.60808">
        <ele>581.3</ele>
        <time>2026-05-04T10:22:55Z</time>
      </trkpt>
      <trkpt lat="44.88828" lon="4.608">
        <ele>581.6</ele>
        <time>2026-05-04T10:23:00Z</time>
      </trkpt>
      <trkpt lat="44.88828" lon="4.60798">
        <ele>581.6</ele>
        <time>2026-05-04T10:23:05Z</time>
      </trkpt>
      <trkpt lat="44.88828" lon="4.60798">
        <ele>581.6</ele>
        <time>2026-05-04T10:23:10Z</time>
      </trkpt>
      <trkpt lat="44.88828" lon="4.60798">
        <ele>581.6</ele>
        <time>2026-05-04T10:23:15Z</time>
      </trkpt>
      <trkpt lat="44.8883" lon="4.60792">
        <ele>581.7</ele>
        <time>2026-05-04T10:23:20Z</time>
      </trkpt>
      <trkpt lat="44.88832" lon="4.60788">
        <ele>581.7</ele>
        <time>2026-05-04T10:23:25Z</time>
      </trkpt>
      <trkpt lat="44.88834" lon="4.60785">
        <ele>581.7</ele>
        <time>2026-05-04T10:23:30Z</time>
      </trkpt>
      <trkpt lat="44.88836" lon="4.60781">
        <ele>581.7</ele>
        <time>2026-05-04T10:23:35Z</time>
      </trkpt>
      <trkpt lat="44.88838" lon="4.60773">
        <ele>581.8</ele>
        <time>2026-05-04T10:23:40Z</time>
      </trkpt>
      <trkpt lat="44.88841" lon="4.60766">
        <ele>581.9</ele>
        <time>2026-05-04T10:23:45Z</time>
      </trkpt>
      <trkpt lat="44.88844" lon="4.60759">
        <ele>582</ele>
        <time>2026-05-04T10:23:50Z</time>
      </trkpt>
      <trkpt lat="44.88847" lon="4.60752">
        <ele>582.1</ele>
        <time>2026-05-04T10:23:55Z</time>
      </trkpt>
      <trkpt lat="44.88849" lon="4.60746">
        <ele>582.2</ele>
        <time>2026-05-04T10:24:00Z</time>
      </trkpt>
      <trkpt lat="44.8885" lon="4.6074">
        <ele>582.4</ele>
        <time>2026-05-04T10:24:05Z</time>
      </trkpt>
      <trkpt lat="44.88851" lon="4.60732">
        <ele>582.6</ele>
        <time>2026-05-04T10:24:10Z</time>
      </trkpt>
      <trkpt lat="44.8885" lon="4.60726">
        <ele>582.9</ele>
        <time>2026-05-04T10:24:15Z</time>
      </trkpt>
      <trkpt lat="44.88849" lon="4.6072">
        <ele>583.1</ele>
        <time>2026-05-04T10:24:20Z</time>
      </trkpt>
      <trkpt lat="44.88848" lon="4.60712">
        <ele>583.4</ele>
        <time>2026-05-04T10:24:25Z</time>
      </trkpt>
      <trkpt lat="44.88848" lon="4.60705">
        <ele>583.7</ele>
        <time>2026-05-04T10:24:30Z</time>
      </trkpt>
      <trkpt lat="44.88847" lon="4.60698">
        <ele>583.9</ele>
        <time>2026-05-04T10:24:35Z</time>
      </trkpt>
      <trkpt lat="44.88847" lon="4.60692">
        <ele>584.1</ele>
        <time>2026-05-04T10:24:40Z</time>
      </trkpt>
      <trkpt lat="44.88847" lon="4.60686">
        <ele>584.3</ele>
        <time>2026-05-04T10:24:45Z</time>
      </trkpt>
      <trkpt lat="44.88846" lon="4.60679">
        <ele>584.6</ele>
        <time>2026-05-04T10:24:50Z</time>
      </trkpt>
      <trkpt lat="44.88845" lon="4.60673">
        <ele>584.8</ele>
        <time>2026-05-04T10:24:55Z</time>
      </trkpt>
      <trkpt lat="44.88845" lon="4.60667">
        <ele>585</ele>
        <time>2026-05-04T10:25:00Z</time>
      </trkpt>
      <trkpt lat="44.88845" lon="4.60662">
        <ele>585.1</ele>
        <time>2026-05-04T10:25:05Z</time>
      </trkpt>
      <trkpt lat="44.88846" lon="4.60657">
        <ele>585.2</ele>
        <time>2026-05-04T10:25:10Z</time>
      </trkpt>
      <trkpt lat="44.88845" lon="4.60651">
        <ele>585.3</ele>
        <time>2026-05-04T10:25:15Z</time>
      </trkpt>
      <trkpt lat="44.88845" lon="4.60644">
        <ele>585.4</ele>
        <time>2026-05-04T10:25:20Z</time>
      </trkpt>
      <trkpt lat="44.88844" lon="4.60636">
        <ele>585.5</ele>
        <time>2026-05-04T10:25:25Z</time>
      </trkpt>
      <trkpt lat="44.88844" lon="4.60629">
        <ele>585.6</ele>
        <time>2026-05-04T10:25:30Z</time>
      </trkpt>
      <trkpt lat="44.88843" lon="4.60621">
        <ele>585.7</ele>
        <time>2026-05-04T10:25:35Z</time>
      </trkpt>
      <trkpt lat="44.88844" lon="4.60614">
        <ele>585.9</ele>
        <time>2026-05-04T10:25:40Z</time>
      </trkpt>
      <trkpt lat="44.88844" lon="4.60608">
        <ele>586</ele>
        <time>2026-05-04T10:25:45Z</time>
      </trkpt>
      <trkpt lat="44.88842" lon="4.60601">
        <ele>586</ele>
        <time>2026-05-04T10:25:50Z</time>
      </trkpt>
      <trkpt lat="44.88842" lon="4.60593">
        <ele>586.2</ele>
        <time>2026-05-04T10:25:55Z</time>
      </trkpt>
      <trkpt lat="44.88844" lon="4.60585">
        <ele>586.4</ele>
        <time>2026-05-04T10:26:00Z</time>
      </trkpt>
      <trkpt lat="44.88844" lon="4.60579">
        <ele>586.6</ele>
        <time>2026-05-04T10:26:05Z</time>
      </trkpt>
      <trkpt lat="44.88844" lon="4.60574">
        <ele>586.9</ele>
        <time>2026-05-04T10:26:10Z</time>
      </trkpt>
      <trkpt lat="44.88843" lon="4.60567">
        <ele>587.3</ele>
        <time>2026-05-04T10:26:15Z</time>
      </trkpt>
      <trkpt lat="44.88843" lon="4.6056">
        <ele>587.7</ele>
        <time>2026-05-04T10:26:20Z</time>
      </trkpt>
      <trkpt lat="44.88843" lon="4.60555">
        <ele>587.9</ele>
        <time>2026-05-04T10:26:25Z</time>
      </trkpt>
      <trkpt lat="44.88842" lon="4.60548">
        <ele>588.3</ele>
        <time>2026-05-04T10:26:30Z</time>
      </trkpt>
      <trkpt lat="44.88842" lon="4.6054">
        <ele>588.7</ele>
        <time>2026-05-04T10:26:35Z</time>
      </trkpt>
      <trkpt lat="44.88841" lon="4.6053">
        <ele>589.3</ele>
        <time>2026-05-04T10:26:40Z</time>
      </trkpt>
      <trkpt lat="44.88841" lon="4.60522">
        <ele>589.8</ele>
        <time>2026-05-04T10:26:45Z</time>
      </trkpt>
      <trkpt lat="44.8884" lon="4.60515">
        <ele>590.1</ele>
        <time>2026-05-04T10:26:50Z</time>
      </trkpt>
      <trkpt lat="44.8884" lon="4.60507">
        <ele>590.6</ele>
        <time>2026-05-04T10:26:55Z</time>
      </trkpt>
      <trkpt lat="44.8884" lon="4.605">
        <ele>591</ele>
        <time>2026-05-04T10:27:00Z</time>
      </trkpt>
      <trkpt lat="44.88839" lon="4.60494">
        <ele>591.4</ele>
        <time>2026-05-04T10:27:05Z</time>
      </trkpt>
      <trkpt lat="44.88839" lon="4.60489">
        <ele>591.8</ele>
        <time>2026-05-04T10:27:10Z</time>
      </trkpt>
      <trkpt lat="44.88839" lon="4.60483">
        <ele>592.2</ele>
        <time>2026-05-04T10:27:15Z</time>
      </trkpt>
      <trkpt lat="44.88839" lon="4.60476">
        <ele>592.6</ele>
        <time>2026-05-04T10:27:20Z</time>
      </trkpt>
      <trkpt lat="44.88838" lon="4.60469">
        <ele>593.1</ele>
        <time>2026-05-04T10:27:25Z</time>
      </trkpt>
      <trkpt lat="44.88837" lon="4.60461">
        <ele>593.7</ele>
        <time>2026-05-04T10:27:30Z</time>
      </trkpt>
      <trkpt lat="44.88836" lon="4.60451">
        <ele>594.5</ele>
        <time>2026-05-04T10:27:35Z</time>
      </trkpt>
      <trkpt lat="44.88834" lon="4.60439">
        <ele>595.4</ele>
        <time>2026-05-04T10:27:40Z</time>
      </trkpt>
      <trkpt lat="44.88833" lon="4.60429">
        <ele>596.1</ele>
        <time>2026-05-04T10:27:45Z</time>
      </trkpt>
      <trkpt lat="44.88832" lon="4.60421">
        <ele>596.8</ele>
        <time>2026-05-04T10:27:50Z</time>
      </trkpt>
      <trkpt lat="44.88832" lon="4.60417">
        <ele>597.1</ele>
        <time>2026-05-04T10:27:55Z</time>
      </trkpt>
      <trkpt lat="44.88833" lon="4.60415">
        <ele>597.2</ele>
        <time>2026-05-04T10:28:00Z</time>
      </trkpt>
      <trkpt lat="44.88833" lon="4.60415">
        <ele>597.2</ele>
        <time>2026-05-04T10:28:05Z</time>
      </trkpt>
      <trkpt lat="44.88832" lon="4.6041">
        <ele>597.8</ele>
        <time>2026-05-04T10:28:10Z</time>
      </trkpt>
      <trkpt lat="44.88832" lon="4.60404">
        <ele>598.5</ele>
        <time>2026-05-04T10:28:15Z</time>
      </trkpt>
      <trkpt lat="44.88832" lon="4.60398">
        <ele>599.1</ele>
        <time>2026-05-04T10:28:20Z</time>
      </trkpt>
      <trkpt lat="44.88831" lon="4.60393">
        <ele>599.8</ele>
        <time>2026-05-04T10:28:25Z</time>
      </trkpt>
      <trkpt lat="44.88832" lon="4.60386">
        <ele>600.4</ele>
        <time>2026-05-04T10:28:30Z</time>
      </trkpt>
      <trkpt lat="44.88833" lon="4.60384">
        <ele>600.6</ele>
        <time>2026-05-04T10:28:35Z</time>
      </trkpt>
      <trkpt lat="44.88833" lon="4.60382">
        <ele>600.8</ele>
        <time>2026-05-04T10:28:40Z</time>
      </trkpt>
      <trkpt lat="44.88836" lon="4.60379">
        <ele>601</ele>
        <time>2026-05-04T10:28:45Z</time>
      </trkpt>
      <trkpt lat="44.88841" lon="4.60374">
        <ele>601.3</ele>
        <time>2026-05-04T10:28:50Z</time>
      </trkpt>
      <trkpt lat="44.88844" lon="4.60372">
        <ele>601.4</ele>
        <time>2026-05-04T10:28:55Z</time>
      </trkpt>
      <trkpt lat="44.88849" lon="4.60368">
        <ele>601.6</ele>
        <time>2026-05-04T10:29:00Z</time>
      </trkpt>
      <trkpt lat="44.88853" lon="4.60364">
        <ele>601.9</ele>
        <time>2026-05-04T10:29:05Z</time>
      </trkpt>
      <trkpt lat="44.88856" lon="4.60358">
        <ele>602.4</ele>
        <time>2026-05-04T10:29:10Z</time>
      </trkpt>
      <trkpt lat="44.88856" lon="4.60352">
        <ele>603.1</ele>
        <time>2026-05-04T10:29:15Z</time>
      </trkpt>
      <trkpt lat="44.88856" lon="4.60344">
        <ele>604</ele>
        <time>2026-05-04T10:29:20Z</time>
      </trkpt>
      <trkpt lat="44.88854" lon="4.60336">
        <ele>605</ele>
        <time>2026-05-04T10:29:25Z</time>
      </trkpt>
      <trkpt lat="44.88851" lon="4.60331">
        <ele>605.6</ele>
        <time>2026-05-04T10:29:30Z</time>
      </trkpt>
      <trkpt lat="44.8885" lon="4.6033">
        <ele>605.7</ele>
        <time>2026-05-04T10:29:35Z</time>
      </trkpt>
      <trkpt lat="44.8885" lon="4.6033">
        <ele>605.7</ele>
        <time>2026-05-04T10:29:40Z</time>
      </trkpt>
      <trkpt lat="44.88848" lon="4.60321">
        <ele>606.8</ele>
        <time>2026-05-04T10:29:45Z</time>
      </trkpt>
      <trkpt lat="44.88846" lon="4.60316">
        <ele>607.4</ele>
        <time>2026-05-04T10:29:50Z</time>
      </trkpt>
      <trkpt lat="44.88844" lon="4.6031">
        <ele>608.1</ele>
        <time>2026-05-04T10:29:55Z</time>
      </trkpt>
      <trkpt lat="44.8884" lon="4.60305">
        <ele>608.8</ele>
        <time>2026-05-04T10:30:00Z</time>
      </trkpt>
      <trkpt lat="44.88837" lon="4.60299">
        <ele>609.5</ele>
        <time>2026-05-04T10:30:05Z</time>
      </trkpt>
      <trkpt lat="44.88834" lon="4.60292">
        <ele>610.4</ele>
        <time>2026-05-04T10:30:10Z</time>
      </trkpt>
      <trkpt lat="44.8883" lon="4.60284">
        <ele>611.9</ele>
        <time>2026-05-04T10:30:15Z</time>
      </trkpt>
      <trkpt lat="44.88826" lon="4.60278">
        <ele>613.3</ele>
        <time>2026-05-04T10:30:20Z</time>
      </trkpt>
      <trkpt lat="44.88821" lon="4.60271">
        <ele>615.1</ele>
        <time>2026-05-04T10:30:25Z</time>
      </trkpt>
      <trkpt lat="44.88817" lon="4.60266">
        <ele>616.5</ele>
        <time>2026-05-04T10:30:30Z</time>
      </trkpt>
      <trkpt lat="44.88813" lon="4.60261">
        <ele>617.9</ele>
        <time>2026-05-04T10:30:35Z</time>
      </trkpt>
      <trkpt lat="44.88808" lon="4.60256">
        <ele>619.6</ele>
        <time>2026-05-04T10:30:40Z</time>
      </trkpt>
      <trkpt lat="44.88802" lon="4.60252">
        <ele>621.5</ele>
        <time>2026-05-04T10:30:45Z</time>
      </trkpt>
      <trkpt lat="44.88796" lon="4.60247">
        <ele>622.9</ele>
        <time>2026-05-04T10:30:50Z</time>
      </trkpt>
      <trkpt lat="44.8879" lon="4.60242">
        <ele>624.1</ele>
        <time>2026-05-04T10:30:55Z</time>
      </trkpt>
      <trkpt lat="44.88785" lon="4.60237">
        <ele>625</ele>
        <time>2026-05-04T10:31:00Z</time>
      </trkpt>
      <trkpt lat="44.88782" lon="4.6023">
        <ele>625.5</ele>
        <time>2026-05-04T10:31:05Z</time>
      </trkpt>
      <trkpt lat="44.88778" lon="4.60222">
        <ele>626.2</ele>
        <time>2026-05-04T10:31:10Z</time>
      </trkpt>
      <trkpt lat="44.88772" lon="4.60215">
        <ele>627.4</ele>
        <time>2026-05-04T10:31:15Z</time>
      </trkpt>
      <trkpt lat="44.88769" lon="4.60215">
        <ele>628.1</ele>
        <time>2026-05-04T10:31:20Z</time>
      </trkpt>
      <trkpt lat="44.88768" lon="4.60212">
        <ele>628.3</ele>
        <time>2026-05-04T10:31:25Z</time>
      </trkpt>
      <trkpt lat="44.88768" lon="4.60212">
        <ele>628.3</ele>
        <time>2026-05-04T10:31:30Z</time>
      </trkpt>
      <trkpt lat="44.88768" lon="4.60212">
        <ele>628.3</ele>
        <time>2026-05-04T10:31:35Z</time>
      </trkpt>
      <trkpt lat="44.88768" lon="4.60212">
        <ele>628.3</ele>
        <time>2026-05-04T10:31:40Z</time>
      </trkpt>
      <trkpt lat="44.88766" lon="4.60202">
        <ele>628.5</ele>
        <time>2026-05-04T10:31:45Z</time>
      </trkpt>
      <trkpt lat="44.88764" lon="4.60192">
        <ele>628.8</ele>
        <time>2026-05-04T10:31:50Z</time>
      </trkpt>
      <trkpt lat="44.88761" lon="4.60185">
        <ele>629.4</ele>
        <time>2026-05-04T10:31:55Z</time>
      </trkpt>
      <trkpt lat="44.8876" lon="4.60178">
        <ele>629.6</ele>
        <time>2026-05-04T10:32:00Z</time>
      </trkpt>
      <trkpt lat="44.88758" lon="4.6017">
        <ele>629.9</ele>
        <time>2026-05-04T10:32:05Z</time>
      </trkpt>
      <trkpt lat="44.88757" lon="4.60161">
        <ele>629.5</ele>
        <time>2026-05-04T10:32:10Z</time>
      </trkpt>
      <trkpt lat="44.88756" lon="4.60151">
        <ele>628.7</ele>
        <time>2026-05-04T10:32:15Z</time>
      </trkpt>
      <trkpt lat="44.88756" lon="4.60144">
        <ele>627.9</ele>
        <time>2026-05-04T10:32:20Z</time>
      </trkpt>
      <trkpt lat="44.88756" lon="4.60134">
        <ele>626.8</ele>
        <time>2026-05-04T10:32:25Z</time>
      </trkpt>
      <trkpt lat="44.88757" lon="4.60121">
        <ele>625.1</ele>
        <time>2026-05-04T10:32:30Z</time>
      </trkpt>
      <trkpt lat="44.88756" lon="4.6011">
        <ele>624.1</ele>
        <time>2026-05-04T10:32:35Z</time>
      </trkpt>
      <trkpt lat="44.88754" lon="4.60102">
        <ele>623.8</ele>
        <time>2026-05-04T10:32:40Z</time>
      </trkpt>
      <trkpt lat="44.88753" lon="4.60094">
        <ele>623.3</ele>
        <time>2026-05-04T10:32:45Z</time>
      </trkpt>
      <trkpt lat="44.88751" lon="4.60085">
        <ele>622.9</ele>
        <time>2026-05-04T10:32:50Z</time>
      </trkpt>
      <trkpt lat="44.88749" lon="4.60077">
        <ele>623</ele>
        <time>2026-05-04T10:32:55Z</time>
      </trkpt>
      <trkpt lat="44.88748" lon="4.60066">
        <ele>622.9</ele>
        <time>2026-05-04T10:33:00Z</time>
      </trkpt>
      <trkpt lat="44.88749" lon="4.60055">
        <ele>622.2</ele>
        <time>2026-05-04T10:33:05Z</time>
      </trkpt>
      <trkpt lat="44.88751" lon="4.60043">
        <ele>621.3</ele>
        <time>2026-05-04T10:33:10Z</time>
      </trkpt>
      <trkpt lat="44.88753" lon="4.60033">
        <ele>620.4</ele>
        <time>2026-05-04T10:33:15Z</time>
      </trkpt>
      <trkpt lat="44.88756" lon="4.60025">
        <ele>619.4</ele>
        <time>2026-05-04T10:33:20Z</time>
      </trkpt>
      <trkpt lat="44.8876" lon="4.60015">
        <ele>618</ele>
        <time>2026-05-04T10:33:25Z</time>
      </trkpt>
      <trkpt lat="44.88766" lon="4.60008">
        <ele>616.4</ele>
        <time>2026-05-04T10:33:30Z</time>
      </trkpt>
      <trkpt lat="44.8877" lon="4.59999">
        <ele>615.3</ele>
        <time>2026-05-04T10:33:35Z</time>
      </trkpt>
      <trkpt lat="44.88774" lon="4.5999">
        <ele>615.1</ele>
        <time>2026-05-04T10:33:40Z</time>
      </trkpt>
      <trkpt lat="44.88777" lon="4.59981">
        <ele>615.2</ele>
        <time>2026-05-04T10:33:45Z</time>
      </trkpt>
      <trkpt lat="44.8878" lon="4.59972">
        <ele>615.3</ele>
        <time>2026-05-04T10:33:50Z</time>
      </trkpt>
      <trkpt lat="44.88784" lon="4.59964">
        <ele>615.2</ele>
        <time>2026-05-04T10:33:55Z</time>
      </trkpt>
      <trkpt lat="44.88787" lon="4.59956">
        <ele>615.4</ele>
        <time>2026-05-04T10:34:00Z</time>
      </trkpt>
      <trkpt lat="44.88789" lon="4.59948">
        <ele>615.8</ele>
        <time>2026-05-04T10:34:05Z</time>
      </trkpt>
      <trkpt lat="44.88792" lon="4.59939">
        <ele>616.2</ele>
        <time>2026-05-04T10:34:10Z</time>
      </trkpt>
      <trkpt lat="44.88794" lon="4.59931">
        <ele>616.6</ele>
        <time>2026-05-04T10:34:15Z</time>
      </trkpt>
      <trkpt lat="44.88797" lon="4.59923">
        <ele>617</ele>
        <time>2026-05-04T10:34:20Z</time>
      </trkpt>
      <trkpt lat="44.88798" lon="4.59915">
        <ele>617.6</ele>
        <time>2026-05-04T10:34:25Z</time>
      </trkpt>
      <trkpt lat="44.888" lon="4.59904">
        <ele>617.6</ele>
        <time>2026-05-04T10:34:30Z</time>
      </trkpt>
      <trkpt lat="44.88803" lon="4.59895">
        <ele>617.4</ele>
        <time>2026-05-04T10:34:35Z</time>
      </trkpt>
      <trkpt lat="44.88806" lon="4.59886">
        <ele>617.3</ele>
        <time>2026-05-04T10:34:40Z</time>
      </trkpt>
      <trkpt lat="44.88811" lon="4.59877">
        <ele>616.9</ele>
        <time>2026-05-04T10:34:45Z</time>
      </trkpt>
      <trkpt lat="44.88814" lon="4.5987">
        <ele>616.7</ele>
        <time>2026-05-04T10:34:50Z</time>
      </trkpt>
      <trkpt lat="44.88817" lon="4.59863">
        <ele>616.6</ele>
        <time>2026-05-04T10:34:55Z</time>
      </trkpt>
      <trkpt lat="44.88817" lon="4.59852">
        <ele>617</ele>
        <time>2026-05-04T10:35:00Z</time>
      </trkpt>
      <trkpt lat="44.8882" lon="4.59842">
        <ele>617.1</ele>
        <time>2026-05-04T10:35:05Z</time>
      </trkpt>
      <trkpt lat="44.88822" lon="4.59831">
        <ele>617.1</ele>
        <time>2026-05-04T10:35:10Z</time>
      </trkpt>
      <trkpt lat="44.88825" lon="4.59822">
        <ele>616.4</ele>
        <time>2026-05-04T10:35:15Z</time>
      </trkpt>
      <trkpt lat="44.88826" lon="4.59813">
        <ele>615.9</ele>
        <time>2026-05-04T10:35:20Z</time>
      </trkpt>
      <trkpt lat="44.88828" lon="4.59806">
        <ele>615.3</ele>
        <time>2026-05-04T10:35:25Z</time>
      </trkpt>
      <trkpt lat="44.88829" lon="4.59797">
        <ele>614.8</ele>
        <time>2026-05-04T10:35:30Z</time>
      </trkpt>
      <trkpt lat="44.8883" lon="4.59788">
        <ele>614.3</ele>
        <time>2026-05-04T10:35:35Z</time>
      </trkpt>
      <trkpt lat="44.88831" lon="4.59779">
        <ele>613.7</ele>
        <time>2026-05-04T10:35:40Z</time>
      </trkpt>
      <trkpt lat="44.88832" lon="4.5977">
        <ele>613.2</ele>
        <time>2026-05-04T10:35:45Z</time>
      </trkpt>
      <trkpt lat="44.88832" lon="4.5976">
        <ele>612.7</ele>
        <time>2026-05-04T10:35:50Z</time>
      </trkpt>
      <trkpt lat="44.88833" lon="4.59751">
        <ele>612.1</ele>
        <time>2026-05-04T10:35:55Z</time>
      </trkpt>
      <trkpt lat="44.88833" lon="4.59742">
        <ele>611.2</ele>
        <time>2026-05-04T10:36:00Z</time>
      </trkpt>
      <trkpt lat="44.88833" lon="4.59732">
        <ele>610.1</ele>
        <time>2026-05-04T10:36:05Z</time>
      </trkpt>
      <trkpt lat="44.88832" lon="4.59722">
        <ele>609.2</ele>
        <time>2026-05-04T10:36:10Z</time>
      </trkpt>
      <trkpt lat="44.8883" lon="4.59713">
        <ele>608.6</ele>
        <time>2026-05-04T10:36:15Z</time>
      </trkpt>
      <trkpt lat="44.88829" lon="4.59702">
        <ele>607.6</ele>
        <time>2026-05-04T10:36:20Z</time>
      </trkpt>
      <trkpt lat="44.88829" lon="4.59694">
        <ele>606.8</ele>
        <time>2026-05-04T10:36:25Z</time>
      </trkpt>
      <trkpt lat="44.88827" lon="4.59685">
        <ele>606.3</ele>
        <time>2026-05-04T10:36:30Z</time>
      </trkpt>
      <trkpt lat="44.88826" lon="4.59676">
        <ele>605.5</ele>
        <time>2026-05-04T10:36:35Z</time>
      </trkpt>
      <trkpt lat="44.88825" lon="4.59667">
        <ele>604.8</ele>
        <time>2026-05-04T10:36:40Z</time>
      </trkpt>
      <trkpt lat="44.88823" lon="4.59659">
        <ele>604.5</ele>
        <time>2026-05-04T10:36:45Z</time>
      </trkpt>
      <trkpt lat="44.88823" lon="4.5965">
        <ele>603.6</ele>
        <time>2026-05-04T10:36:50Z</time>
      </trkpt>
      <trkpt lat="44.88821" lon="4.5964">
        <ele>603</ele>
        <time>2026-05-04T10:36:55Z</time>
      </trkpt>
      <trkpt lat="44.88819" lon="4.59631">
        <ele>602.6</ele>
        <time>2026-05-04T10:37:00Z</time>
      </trkpt>
      <trkpt lat="44.88819" lon="4.59621">
        <ele>601.6</ele>
        <time>2026-05-04T10:37:05Z</time>
      </trkpt>
      <trkpt lat="44.88819" lon="4.59613">
        <ele>600.9</ele>
        <time>2026-05-04T10:37:10Z</time>
      </trkpt>
      <trkpt lat="44.88818" lon="4.59601">
        <ele>599.9</ele>
        <time>2026-05-04T10:37:15Z</time>
      </trkpt>
      <trkpt lat="44.88815" lon="4.59591">
        <ele>599.8</ele>
        <time>2026-05-04T10:37:20Z</time>
      </trkpt>
      <trkpt lat="44.8881" lon="4.59582">
        <ele>600.4</ele>
        <time>2026-05-04T10:37:25Z</time>
      </trkpt>
      <trkpt lat="44.88805" lon="4.59573">
        <ele>601.7</ele>
        <time>2026-05-04T10:37:30Z</time>
      </trkpt>
      <trkpt lat="44.888" lon="4.59564">
        <ele>603.1</ele>
        <time>2026-05-04T10:37:35Z</time>
      </trkpt>
      <trkpt lat="44.88793" lon="4.59559">
        <ele>605</ele>
        <time>2026-05-04T10:37:40Z</time>
      </trkpt>
      <trkpt lat="44.88788" lon="4.59554">
        <ele>606.4</ele>
        <time>2026-05-04T10:37:45Z</time>
      </trkpt>
      <trkpt lat="44.88781" lon="4.59549">
        <ele>608.3</ele>
        <time>2026-05-04T10:37:50Z</time>
      </trkpt>
      <trkpt lat="44.88774" lon="4.59543">
        <ele>610.2</ele>
        <time>2026-05-04T10:37:55Z</time>
      </trkpt>
      <trkpt lat="44.88767" lon="4.59539">
        <ele>612.2</ele>
        <time>2026-05-04T10:38:00Z</time>
      </trkpt>
      <trkpt lat="44.8876" lon="4.59535">
        <ele>614.2</ele>
        <time>2026-05-04T10:38:05Z</time>
      </trkpt>
      <trkpt lat="44.88754" lon="4.5953">
        <ele>615.9</ele>
        <time>2026-05-04T10:38:10Z</time>
      </trkpt>
      <trkpt lat="44.88749" lon="4.59523">
        <ele>617.1</ele>
        <time>2026-05-04T10:38:15Z</time>
      </trkpt>
      <trkpt lat="44.88745" lon="4.59515">
        <ele>617.7</ele>
        <time>2026-05-04T10:38:20Z</time>
      </trkpt>
      <trkpt lat="44.8874" lon="4.59505">
        <ele>618.3</ele>
        <time>2026-05-04T10:38:25Z</time>
      </trkpt>
      <trkpt lat="44.88738" lon="4.59493">
        <ele>618.4</ele>
        <time>2026-05-04T10:38:30Z</time>
      </trkpt>
      <trkpt lat="44.88737" lon="4.59484">
        <ele>618.4</ele>
        <time>2026-05-04T10:38:35Z</time>
      </trkpt>
      <trkpt lat="44.88734" lon="4.59472">
        <ele>618.6</ele>
        <time>2026-05-04T10:38:40Z</time>
      </trkpt>
      <trkpt lat="44.88733" lon="4.59463">
        <ele>618.6</ele>
        <time>2026-05-04T10:38:45Z</time>
      </trkpt>
      <trkpt lat="44.8873" lon="4.59455">
        <ele>618.8</ele>
        <time>2026-05-04T10:38:50Z</time>
      </trkpt>
      <trkpt lat="44.88729" lon="4.59447">
        <ele>618.7</ele>
        <time>2026-05-04T10:38:55Z</time>
      </trkpt>
      <trkpt lat="44.88727" lon="4.59437">
        <ele>618.7</ele>
        <time>2026-05-04T10:39:00Z</time>
      </trkpt>
      <trkpt lat="44.88725" lon="4.59427">
        <ele>618.7</ele>
        <time>2026-05-04T10:39:05Z</time>
      </trkpt>
      <trkpt lat="44.88725" lon="4.59416">
        <ele>618.4</ele>
        <time>2026-05-04T10:39:10Z</time>
      </trkpt>
      <trkpt lat="44.88724" lon="4.59407">
        <ele>617.7</ele>
        <time>2026-05-04T10:39:15Z</time>
      </trkpt>
      <trkpt lat="44.88723" lon="4.59398">
        <ele>616.9</ele>
        <time>2026-05-04T10:39:20Z</time>
      </trkpt>
      <trkpt lat="44.8872" lon="4.5939">
        <ele>616.3</ele>
        <time>2026-05-04T10:39:25Z</time>
      </trkpt>
      <trkpt lat="44.88719" lon="4.59384">
        <ele>615.8</ele>
        <time>2026-05-04T10:39:30Z</time>
      </trkpt>
      <trkpt lat="44.8872" lon="4.59374">
        <ele>614.8</ele>
        <time>2026-05-04T10:39:35Z</time>
      </trkpt>
      <trkpt lat="44.88719" lon="4.59365">
        <ele>614.1</ele>
        <time>2026-05-04T10:39:40Z</time>
      </trkpt>
      <trkpt lat="44.88717" lon="4.59358">
        <ele>613.5</ele>
        <time>2026-05-04T10:39:45Z</time>
      </trkpt>
      <trkpt lat="44.88714" lon="4.5935">
        <ele>612.9</ele>
        <time>2026-05-04T10:39:50Z</time>
      </trkpt>
      <trkpt lat="44.88712" lon="4.59341">
        <ele>612.1</ele>
        <time>2026-05-04T10:39:55Z</time>
      </trkpt>
      <trkpt lat="44.88708" lon="4.59333">
        <ele>611.5</ele>
        <time>2026-05-04T10:40:00Z</time>
      </trkpt>
      <trkpt lat="44.88706" lon="4.59323">
        <ele>609.8</ele>
        <time>2026-05-04T10:40:05Z</time>
      </trkpt>
      <trkpt lat="44.88704" lon="4.59317">
        <ele>608.8</ele>
        <time>2026-05-04T10:40:10Z</time>
      </trkpt>
      <trkpt lat="44.88699" lon="4.59311">
        <ele>608</ele>
        <time>2026-05-04T10:40:15Z</time>
      </trkpt>
      <trkpt lat="44.88694" lon="4.59307">
        <ele>607.5</ele>
        <time>2026-05-04T10:40:20Z</time>
      </trkpt>
      <trkpt lat="44.88688" lon="4.59302">
        <ele>606.9</ele>
        <time>2026-05-04T10:40:25Z</time>
      </trkpt>
      <trkpt lat="44.88681" lon="4.59295">
        <ele>606</ele>
        <time>2026-05-04T10:40:30Z</time>
      </trkpt>
      <trkpt lat="44.88677" lon="4.5929">
        <ele>605.3</ele>
        <time>2026-05-04T10:40:35Z</time>
      </trkpt>
      <trkpt lat="44.88673" lon="4.59286">
        <ele>604.8</ele>
        <time>2026-05-04T10:40:40Z</time>
      </trkpt>
      <trkpt lat="44.88669" lon="4.59283">
        <ele>604.4</ele>
        <time>2026-05-04T10:40:45Z</time>
      </trkpt>
      <trkpt lat="44.88665" lon="4.59272">
        <ele>602.7</ele>
        <time>2026-05-04T10:40:50Z</time>
      </trkpt>
      <trkpt lat="44.88658" lon="4.59262">
        <ele>601.2</ele>
        <time>2026-05-04T10:40:55Z</time>
      </trkpt>
      <trkpt lat="44.88651" lon="4.59256">
        <ele>600.4</ele>
        <time>2026-05-04T10:41:00Z</time>
      </trkpt>
      <trkpt lat="44.88644" lon="4.59249">
        <ele>599.7</ele>
        <time>2026-05-04T10:41:05Z</time>
      </trkpt>
      <trkpt lat="44.88638" lon="4.59245">
        <ele>599.5</ele>
        <time>2026-05-04T10:41:10Z</time>
      </trkpt>
      <trkpt lat="44.8863" lon="4.5924">
        <ele>599.4</ele>
        <time>2026-05-04T10:41:15Z</time>
      </trkpt>
      <trkpt lat="44.88621" lon="4.59236">
        <ele>599.4</ele>
        <time>2026-05-04T10:41:20Z</time>
      </trkpt>
      <trkpt lat="44.88614" lon="4.59233">
        <ele>599.6</ele>
        <time>2026-05-04T10:41:25Z</time>
      </trkpt>
      <trkpt lat="44.88609" lon="4.5923">
        <ele>599.6</ele>
        <time>2026-05-04T10:41:30Z</time>
      </trkpt>
      <trkpt lat="44.88605" lon="4.59223">
        <ele>599.3</ele>
        <time>2026-05-04T10:41:35Z</time>
      </trkpt>
      <trkpt lat="44.88603" lon="4.59221">
        <ele>599.3</ele>
        <time>2026-05-04T10:41:40Z</time>
      </trkpt>
      <trkpt lat="44.88603" lon="4.59221">
        <ele>599.3</ele>
        <time>2026-05-04T10:41:45Z</time>
      </trkpt>
      <trkpt lat="44.88603" lon="4.59221">
        <ele>599.3</ele>
        <time>2026-05-04T10:41:50Z</time>
      </trkpt>
      <trkpt lat="44.88603" lon="4.59221">
        <ele>599.3</ele>
        <time>2026-05-04T10:41:55Z</time>
      </trkpt>
      <trkpt lat="44.88603" lon="4.59221">
        <ele>599.3</ele>
        <time>2026-05-04T10:42:00Z</time>
      </trkpt>
      <trkpt lat="44.88603" lon="4.59221">
        <ele>599.3</ele>
        <time>2026-05-04T10:42:05Z</time>
      </trkpt>
      <trkpt lat="44.88603" lon="4.59221">
        <ele>599.3</ele>
        <time>2026-05-04T10:42:10Z</time>
      </trkpt>
      <trkpt lat="44.88603" lon="4.59221">
        <ele>599.3</ele>
        <time>2026-05-04T10:42:15Z</time>
      </trkpt>
      <trkpt lat="44.88598" lon="4.59217">
        <ele>599.4</ele>
        <time>2026-05-04T10:42:20Z</time>
      </trkpt>
      <trkpt lat="44.88598" lon="4.59215">
        <ele>599.3</ele>
        <time>2026-05-04T10:42:25Z</time>
      </trkpt>
      <trkpt lat="44.88598" lon="4.59215">
        <ele>599.3</ele>
        <time>2026-05-04T10:42:30Z</time>
      </trkpt>
      <trkpt lat="44.88597" lon="4.59211">
        <ele>599.1</ele>
        <time>2026-05-04T10:42:35Z</time>
      </trkpt>
      <trkpt lat="44.88593" lon="4.59206">
        <ele>599.1</ele>
        <time>2026-05-04T10:42:40Z</time>
      </trkpt>
      <trkpt lat="44.88586" lon="4.59206">
        <ele>599.7</ele>
        <time>2026-05-04T10:42:45Z</time>
      </trkpt>
      <trkpt lat="44.8858" lon="4.59204">
        <ele>600</ele>
        <time>2026-05-04T10:42:50Z</time>
      </trkpt>
      <trkpt lat="44.88574" lon="4.59199">
        <ele>600.2</ele>
        <time>2026-05-04T10:42:55Z</time>
      </trkpt>
      <trkpt lat="44.88569" lon="4.59197">
        <ele>600.4</ele>
        <time>2026-05-04T10:43:00Z</time>
      </trkpt>
      <trkpt lat="44.88564" lon="4.59195">
        <ele>600.6</ele>
        <time>2026-05-04T10:43:05Z</time>
      </trkpt>
      <trkpt lat="44.88561" lon="4.59191">
        <ele>600.6</ele>
        <time>2026-05-04T10:43:10Z</time>
      </trkpt>
      <trkpt lat="44.88555" lon="4.59187">
        <ele>600.8</ele>
        <time>2026-05-04T10:43:15Z</time>
      </trkpt>
      <trkpt lat="44.8855" lon="4.59182">
        <ele>600.8</ele>
        <time>2026-05-04T10:43:20Z</time>
      </trkpt>
      <trkpt lat="44.88547" lon="4.59178">
        <ele>600.8</ele>
        <time>2026-05-04T10:43:25Z</time>
      </trkpt>
      <trkpt lat="44.88545" lon="4.59173">
        <ele>600.6</ele>
        <time>2026-05-04T10:43:30Z</time>
      </trkpt>
      <trkpt lat="44.88544" lon="4.59168">
        <ele>600.4</ele>
        <time>2026-05-04T10:43:35Z</time>
      </trkpt>
      <trkpt lat="44.88541" lon="4.59163">
        <ele>600.5</ele>
        <time>2026-05-04T10:43:40Z</time>
      </trkpt>
      <trkpt lat="44.88538" lon="4.59158">
        <ele>600.5</ele>
        <time>2026-05-04T10:43:45Z</time>
      </trkpt>
      <trkpt lat="44.88535" lon="4.59155">
        <ele>600.6</ele>
        <time>2026-05-04T10:43:50Z</time>
      </trkpt>
      <trkpt lat="44.8853" lon="4.59152">
        <ele>600.9</ele>
        <time>2026-05-04T10:43:55Z</time>
      </trkpt>
      <trkpt lat="44.88525" lon="4.59148">
        <ele>601.1</ele>
        <time>2026-05-04T10:44:00Z</time>
      </trkpt>
      <trkpt lat="44.88519" lon="4.59145">
        <ele>601.5</ele>
        <time>2026-05-04T10:44:05Z</time>
      </trkpt>
      <trkpt lat="44.88513" lon="4.59141">
        <ele>601.8</ele>
        <time>2026-05-04T10:44:10Z</time>
      </trkpt>
      <trkpt lat="44.88511" lon="4.59136">
        <ele>601.9</ele>
        <time>2026-05-04T10:44:15Z</time>
      </trkpt>
      <trkpt lat="44.88507" lon="4.59132">
        <ele>602.1</ele>
        <time>2026-05-04T10:44:20Z</time>
      </trkpt>
      <trkpt lat="44.88502" lon="4.5913">
        <ele>602.4</ele>
        <time>2026-05-04T10:44:25Z</time>
      </trkpt>
      <trkpt lat="44.88497" lon="4.59125">
        <ele>602.6</ele>
        <time>2026-05-04T10:44:30Z</time>
      </trkpt>
      <trkpt lat="44.8849" lon="4.5912">
        <ele>602.7</ele>
        <time>2026-05-04T10:44:35Z</time>
      </trkpt>
      <trkpt lat="44.88484" lon="4.59113">
        <ele>602.6</ele>
        <time>2026-05-04T10:44:40Z</time>
      </trkpt>
      <trkpt lat="44.88478" lon="4.59105">
        <ele>602.5</ele>
        <time>2026-05-04T10:44:45Z</time>
      </trkpt>
      <trkpt lat="44.88477" lon="4.59098">
        <ele>602.4</ele>
        <time>2026-05-04T10:44:50Z</time>
      </trkpt>
      <trkpt lat="44.88476" lon="4.59092">
        <ele>602.2</ele>
        <time>2026-05-04T10:44:55Z</time>
      </trkpt>
      <trkpt lat="44.88474" lon="4.59088">
        <ele>602.1</ele>
        <time>2026-05-04T10:45:00Z</time>
      </trkpt>
      <trkpt lat="44.88472" lon="4.59084">
        <ele>602</ele>
        <time>2026-05-04T10:45:05Z</time>
      </trkpt>
      <trkpt lat="44.88473" lon="4.59079">
        <ele>602.2</ele>
        <time>2026-05-04T10:45:10Z</time>
      </trkpt>
      <trkpt lat="44.88474" lon="4.59073">
        <ele>602.4</ele>
        <time>2026-05-04T10:45:15Z</time>
      </trkpt>
      <trkpt lat="44.88474" lon="4.59068">
        <ele>602.6</ele>
        <time>2026-05-04T10:45:20Z</time>
      </trkpt>
      <trkpt lat="44.88472" lon="4.59061">
        <ele>602.9</ele>
        <time>2026-05-04T10:45:25Z</time>
      </trkpt>
      <trkpt lat="44.8847" lon="4.59055">
        <ele>603.2</ele>
        <time>2026-05-04T10:45:30Z</time>
      </trkpt>
      <trkpt lat="44.88467" lon="4.59051">
        <ele>603.4</ele>
        <time>2026-05-04T10:45:35Z</time>
      </trkpt>
      <trkpt lat="44.88465" lon="4.59049">
        <ele>603.5</ele>
        <time>2026-05-04T10:45:40Z</time>
      </trkpt>
      <trkpt lat="44.88464" lon="4.59049">
        <ele>603.5</ele>
        <time>2026-05-04T10:45:45Z</time>
      </trkpt>
      <trkpt lat="44.88464" lon="4.59049">
        <ele>603.5</ele>
        <time>2026-05-04T10:45:50Z</time>
      </trkpt>
      <trkpt lat="44.88456" lon="4.59041">
        <ele>604.1</ele>
        <time>2026-05-04T10:45:55Z</time>
      </trkpt>
      <trkpt lat="44.88454" lon="4.59036">
        <ele>604.4</ele>
        <time>2026-05-04T10:46:00Z</time>
      </trkpt>
      <trkpt lat="44.88452" lon="4.59034">
        <ele>604.5</ele>
        <time>2026-05-04T10:46:05Z</time>
      </trkpt>
      <trkpt lat="44.88452" lon="4.59034">
        <ele>604.5</ele>
        <time>2026-05-04T10:46:10Z</time>
      </trkpt>
      <trkpt lat="44.88452" lon="4.59034">
        <ele>604.5</ele>
        <time>2026-05-04T10:46:15Z</time>
      </trkpt>
      <trkpt lat="44.88452" lon="4.59034">
        <ele>604.5</ele>
        <time>2026-05-04T10:46:20Z</time>
      </trkpt>
      <trkpt lat="44.88452" lon="4.59034">
        <ele>604.5</ele>
        <time>2026-05-04T10:46:25Z</time>
      </trkpt>
      <trkpt lat="44.88452" lon="4.59034">
        <ele>604.5</ele>
        <time>2026-05-04T10:46:30Z</time>
      </trkpt>
      <trkpt lat="44.88445" lon="4.59025">
        <ele>605.2</ele>
        <time>2026-05-04T10:46:35Z</time>
      </trkpt>
      <trkpt lat="44.88444" lon="4.59025">
        <ele>605.3</ele>
        <time>2026-05-04T10:46:40Z</time>
      </trkpt>
      <trkpt lat="44.88444" lon="4.59025">
        <ele>605.3</ele>
        <time>2026-05-04T10:46:45Z</time>
      </trkpt>
      <trkpt lat="44.88444" lon="4.59025">
        <ele>605.3</ele>
        <time>2026-05-04T10:46:50Z</time>
      </trkpt>
      <trkpt lat="44.88435" lon="4.5902">
        <ele>605.9</ele>
        <time>2026-05-04T10:46:55Z</time>
      </trkpt>
      <trkpt lat="44.88435" lon="4.59019">
        <ele>606</ele>
        <time>2026-05-04T10:47:00Z</time>
      </trkpt>
      <trkpt lat="44.8843" lon="4.59012">
        <ele>606.6</ele>
        <time>2026-05-04T10:47:05Z</time>
      </trkpt>
      <trkpt lat="44.88428" lon="4.5901">
        <ele>606.8</ele>
        <time>2026-05-04T10:47:10Z</time>
      </trkpt>
      <trkpt lat="44.88424" lon="4.59008">
        <ele>607.1</ele>
        <time>2026-05-04T10:47:15Z</time>
      </trkpt>
      <trkpt lat="44.88419" lon="4.59004">
        <ele>607.6</ele>
        <time>2026-05-04T10:47:20Z</time>
      </trkpt>
      <trkpt lat="44.88415" lon="4.59002">
        <ele>607.8</ele>
        <time>2026-05-04T10:47:25Z</time>
      </trkpt>
      <trkpt lat="44.88412" lon="4.59001">
        <ele>607.9</ele>
        <time>2026-05-04T10:47:30Z</time>
      </trkpt>
      <trkpt lat="44.88408" lon="4.58999">
        <ele>607.9</ele>
        <time>2026-05-04T10:47:35Z</time>
      </trkpt>
      <trkpt lat="44.88405" lon="4.58997">
        <ele>607.9</ele>
        <time>2026-05-04T10:47:40Z</time>
      </trkpt>
      <trkpt lat="44.88401" lon="4.58995">
        <ele>607.9</ele>
        <time>2026-05-04T10:47:45Z</time>
      </trkpt>
      <trkpt lat="44.88398" lon="4.58994">
        <ele>607.9</ele>
        <time>2026-05-04T10:47:50Z</time>
      </trkpt>
      <trkpt lat="44.88395" lon="4.58994">
        <ele>607.9</ele>
        <time>2026-05-04T10:47:55Z</time>
      </trkpt>
      <trkpt lat="44.8839" lon="4.58996">
        <ele>607.8</ele>
        <time>2026-05-04T10:48:00Z</time>
      </trkpt>
      <trkpt lat="44.88385" lon="4.58995">
        <ele>607.8</ele>
        <time>2026-05-04T10:48:05Z</time>
      </trkpt>
      <trkpt lat="44.8838" lon="4.58995">
        <ele>607.8</ele>
        <time>2026-05-04T10:48:10Z</time>
      </trkpt>
      <trkpt lat="44.88375" lon="4.58994">
        <ele>607.8</ele>
        <time>2026-05-04T10:48:15Z</time>
      </trkpt>
      <trkpt lat="44.8837" lon="4.58993">
        <ele>607.9</ele>
        <time>2026-05-04T10:48:20Z</time>
      </trkpt>
      <trkpt lat="44.88365" lon="4.5899">
        <ele>608</ele>
        <time>2026-05-04T10:48:25Z</time>
      </trkpt>
      <trkpt lat="44.88362" lon="4.58989">
        <ele>608.1</ele>
        <time>2026-05-04T10:48:30Z</time>
      </trkpt>
      <trkpt lat="44.88358" lon="4.58986">
        <ele>608.4</ele>
        <time>2026-05-04T10:48:35Z</time>
      </trkpt>
      <trkpt lat="44.88355" lon="4.58983">
        <ele>608.6</ele>
        <time>2026-05-04T10:48:40Z</time>
      </trkpt>
      <trkpt lat="44.8835" lon="4.58979">
        <ele>609</ele>
        <time>2026-05-04T10:48:45Z</time>
      </trkpt>
      <trkpt lat="44.88346" lon="4.58974">
        <ele>609.5</ele>
        <time>2026-05-04T10:48:50Z</time>
      </trkpt>
      <trkpt lat="44.88343" lon="4.5897">
        <ele>610</ele>
        <time>2026-05-04T10:48:55Z</time>
      </trkpt>
      <trkpt lat="44.8834" lon="4.58966">
        <ele>610.5</ele>
        <time>2026-05-04T10:49:00Z</time>
      </trkpt>
      <trkpt lat="44.88337" lon="4.58961">
        <ele>611.1</ele>
        <time>2026-05-04T10:49:05Z</time>
      </trkpt>
      <trkpt lat="44.88333" lon="4.58956">
        <ele>611.8</ele>
        <time>2026-05-04T10:49:10Z</time>
      </trkpt>
      <trkpt lat="44.8833" lon="4.58951">
        <ele>612.3</ele>
        <time>2026-05-04T10:49:15Z</time>
      </trkpt>
      <trkpt lat="44.88325" lon="4.58945">
        <ele>612.9</ele>
        <time>2026-05-04T10:49:20Z</time>
      </trkpt>
      <trkpt lat="44.8832" lon="4.5894">
        <ele>613.5</ele>
        <time>2026-05-04T10:49:25Z</time>
      </trkpt>
      <trkpt lat="44.88316" lon="4.58936">
        <ele>613.8</ele>
        <time>2026-05-04T10:49:30Z</time>
      </trkpt>
      <trkpt lat="44.88312" lon="4.5893">
        <ele>614.4</ele>
        <time>2026-05-04T10:49:35Z</time>
      </trkpt>
      <trkpt lat="44.88308" lon="4.58926">
        <ele>614.8</ele>
        <time>2026-05-04T10:49:40Z</time>
      </trkpt>
      <trkpt lat="44.88305" lon="4.58919">
        <ele>615.4</ele>
        <time>2026-05-04T10:49:45Z</time>
      </trkpt>
      <trkpt lat="44.88302" lon="4.58915">
        <ele>615.7</ele>
        <time>2026-05-04T10:49:50Z</time>
      </trkpt>
      <trkpt lat="44.88299" lon="4.58911">
        <ele>615.8</ele>
        <time>2026-05-04T10:49:55Z</time>
      </trkpt>
      <trkpt lat="44.88296" lon="4.58906">
        <ele>615.9</ele>
        <time>2026-05-04T10:50:00Z</time>
      </trkpt>
      <trkpt lat="44.88293" lon="4.58902">
        <ele>616</ele>
        <time>2026-05-04T10:50:05Z</time>
      </trkpt>
      <trkpt lat="44.88289" lon="4.58896">
        <ele>616.1</ele>
        <time>2026-05-04T10:50:10Z</time>
      </trkpt>
      <trkpt lat="44.88286" lon="4.58891">
        <ele>616.2</ele>
        <time>2026-05-04T10:50:15Z</time>
      </trkpt>
      <trkpt lat="44.88285" lon="4.58886">
        <ele>616.4</ele>
        <time>2026-05-04T10:50:20Z</time>
      </trkpt>
      <trkpt lat="44.88282" lon="4.58882">
        <ele>616.5</ele>
        <time>2026-05-04T10:50:25Z</time>
      </trkpt>
      <trkpt lat="44.88279" lon="4.58876">
        <ele>616.6</ele>
        <time>2026-05-04T10:50:30Z</time>
      </trkpt>
      <trkpt lat="44.88276" lon="4.5887">
        <ele>616.8</ele>
        <time>2026-05-04T10:50:35Z</time>
      </trkpt>
      <trkpt lat="44.88271" lon="4.58865">
        <ele>617</ele>
        <time>2026-05-04T10:50:40Z</time>
      </trkpt>
      <trkpt lat="44.88268" lon="4.5886">
        <ele>617.1</ele>
        <time>2026-05-04T10:50:45Z</time>
      </trkpt>
      <trkpt lat="44.88266" lon="4.58854">
        <ele>617.3</ele>
        <time>2026-05-04T10:50:50Z</time>
      </trkpt>
      <trkpt lat="44.88263" lon="4.58849">
        <ele>617.5</ele>
        <time>2026-05-04T10:50:55Z</time>
      </trkpt>
      <trkpt lat="44.88258" lon="4.58843">
        <ele>617.7</ele>
        <time>2026-05-04T10:51:00Z</time>
      </trkpt>
      <trkpt lat="44.88253" lon="4.58836">
        <ele>617.9</ele>
        <time>2026-05-04T10:51:05Z</time>
      </trkpt>
      <trkpt lat="44.8825" lon="4.58829">
        <ele>617.9</ele>
        <time>2026-05-04T10:51:10Z</time>
      </trkpt>
      <trkpt lat="44.88246" lon="4.58823">
        <ele>617.9</ele>
        <time>2026-05-04T10:51:15Z</time>
      </trkpt>
      <trkpt lat="44.88241" lon="4.58819">
        <ele>618.1</ele>
        <time>2026-05-04T10:51:20Z</time>
      </trkpt>
      <trkpt lat="44.88237" lon="4.58813">
        <ele>618.2</ele>
        <time>2026-05-04T10:51:25Z</time>
      </trkpt>
      <trkpt lat="44.88234" lon="4.58806">
        <ele>618.2</ele>
        <time>2026-05-04T10:51:30Z</time>
      </trkpt>
      <trkpt lat="44.88229" lon="4.58801">
        <ele>618.5</ele>
        <time>2026-05-04T10:51:35Z</time>
      </trkpt>
      <trkpt lat="44.88225" lon="4.58795">
        <ele>618.7</ele>
        <time>2026-05-04T10:51:40Z</time>
      </trkpt>
      <trkpt lat="44.88221" lon="4.58787">
        <ele>618.9</ele>
        <time>2026-05-04T10:51:45Z</time>
      </trkpt>
      <trkpt lat="44.88216" lon="4.58778">
        <ele>619.3</ele>
        <time>2026-05-04T10:51:50Z</time>
      </trkpt>
      <trkpt lat="44.88212" lon="4.58769">
        <ele>619.6</ele>
        <time>2026-05-04T10:51:55Z</time>
      </trkpt>
      <trkpt lat="44.88206" lon="4.58759">
        <ele>620.2</ele>
        <time>2026-05-04T10:52:00Z</time>
      </trkpt>
      <trkpt lat="44.88203" lon="4.58751">
        <ele>620.5</ele>
        <time>2026-05-04T10:52:05Z</time>
      </trkpt>
      <trkpt lat="44.882" lon="4.58743">
        <ele>620.5</ele>
        <time>2026-05-04T10:52:10Z</time>
      </trkpt>
      <trkpt lat="44.88198" lon="4.58733">
        <ele>620.2</ele>
        <time>2026-05-04T10:52:15Z</time>
      </trkpt>
      <trkpt lat="44.88196" lon="4.58725">
        <ele>620</ele>
        <time>2026-05-04T10:52:20Z</time>
      </trkpt>
      <trkpt lat="44.88196" lon="4.58716">
        <ele>619.6</ele>
        <time>2026-05-04T10:52:25Z</time>
      </trkpt>
      <trkpt lat="44.88193" lon="4.58706">
        <ele>619.3</ele>
        <time>2026-05-04T10:52:30Z</time>
      </trkpt>
      <trkpt lat="44.8819" lon="4.58698">
        <ele>619.2</ele>
        <time>2026-05-04T10:52:35Z</time>
      </trkpt>
      <trkpt lat="44.88188" lon="4.5869">
        <ele>618.9</ele>
        <time>2026-05-04T10:52:40Z</time>
      </trkpt>
      <trkpt lat="44.88186" lon="4.5868">
        <ele>618.5</ele>
        <time>2026-05-04T10:52:45Z</time>
      </trkpt>
      <trkpt lat="44.88183" lon="4.5867">
        <ele>618.2</ele>
        <time>2026-05-04T10:52:50Z</time>
      </trkpt>
      <trkpt lat="44.8818" lon="4.58662">
        <ele>618.2</ele>
        <time>2026-05-04T10:52:55Z</time>
      </trkpt>
      <trkpt lat="44.88177" lon="4.58655">
        <ele>618.3</ele>
        <time>2026-05-04T10:53:00Z</time>
      </trkpt>
      <trkpt lat="44.88174" lon="4.58647">
        <ele>618.3</ele>
        <time>2026-05-04T10:53:05Z</time>
      </trkpt>
      <trkpt lat="44.88169" lon="4.58638">
        <ele>618.5</ele>
        <time>2026-05-04T10:53:10Z</time>
      </trkpt>
      <trkpt lat="44.88166" lon="4.58631">
        <ele>618.6</ele>
        <time>2026-05-04T10:53:15Z</time>
      </trkpt>
      <trkpt lat="44.88162" lon="4.58625">
        <ele>618.6</ele>
        <time>2026-05-04T10:53:20Z</time>
      </trkpt>
      <trkpt lat="44.88157" lon="4.58617">
        <ele>618.6</ele>
        <time>2026-05-04T10:53:25Z</time>
      </trkpt>
      <trkpt lat="44.88151" lon="4.5861">
        <ele>618.6</ele>
        <time>2026-05-04T10:53:30Z</time>
      </trkpt>
      <trkpt lat="44.88149" lon="4.58604">
        <ele>618.5</ele>
        <time>2026-05-04T10:53:35Z</time>
      </trkpt>
      <trkpt lat="44.88146" lon="4.586">
        <ele>618.4</ele>
        <time>2026-05-04T10:53:40Z</time>
      </trkpt>
      <trkpt lat="44.88143" lon="4.58595">
        <ele>618.3</ele>
        <time>2026-05-04T10:53:45Z</time>
      </trkpt>
      <trkpt lat="44.8814" lon="4.58589">
        <ele>618.2</ele>
        <time>2026-05-04T10:53:50Z</time>
      </trkpt>
      <trkpt lat="44.88135" lon="4.58579">
        <ele>618</ele>
        <time>2026-05-04T10:53:55Z</time>
      </trkpt>
      <trkpt lat="44.88131" lon="4.58571">
        <ele>618.2</ele>
        <time>2026-05-04T10:54:00Z</time>
      </trkpt>
      <trkpt lat="44.88129" lon="4.58565">
        <ele>618.3</ele>
        <time>2026-05-04T10:54:05Z</time>
      </trkpt>
      <trkpt lat="44.88126" lon="4.58557">
        <ele>618.5</ele>
        <time>2026-05-04T10:54:10Z</time>
      </trkpt>
      <trkpt lat="44.88124" lon="4.5855">
        <ele>618.6</ele>
        <time>2026-05-04T10:54:15Z</time>
      </trkpt>
      <trkpt lat="44.88121" lon="4.58543">
        <ele>618.8</ele>
        <time>2026-05-04T10:54:20Z</time>
      </trkpt>
      <trkpt lat="44.88118" lon="4.58536">
        <ele>619.1</ele>
        <time>2026-05-04T10:54:25Z</time>
      </trkpt>
      <trkpt lat="44.88115" lon="4.58528">
        <ele>619.4</ele>
        <time>2026-05-04T10:54:30Z</time>
      </trkpt>
      <trkpt lat="44.88112" lon="4.5852">
        <ele>619.7</ele>
        <time>2026-05-04T10:54:35Z</time>
      </trkpt>
      <trkpt lat="44.8811" lon="4.58513">
        <ele>620</ele>
        <time>2026-05-04T10:54:40Z</time>
      </trkpt>
      <trkpt lat="44.88108" lon="4.58505">
        <ele>620.4</ele>
        <time>2026-05-04T10:54:45Z</time>
      </trkpt>
      <trkpt lat="44.88106" lon="4.58496">
        <ele>621.2</ele>
        <time>2026-05-04T10:54:50Z</time>
      </trkpt>
      <trkpt lat="44.88103" lon="4.58487">
        <ele>622.8</ele>
        <time>2026-05-04T10:54:55Z</time>
      </trkpt>
      <trkpt lat="44.88101" lon="4.5848">
        <ele>624</ele>
        <time>2026-05-04T10:55:00Z</time>
      </trkpt>
      <trkpt lat="44.88098" lon="4.58474">
        <ele>625.2</ele>
        <time>2026-05-04T10:55:05Z</time>
      </trkpt>
      <trkpt lat="44.88096" lon="4.58466">
        <ele>626.7</ele>
        <time>2026-05-04T10:55:10Z</time>
      </trkpt>
      <trkpt lat="44.88094" lon="4.58461">
        <ele>627.7</ele>
        <time>2026-05-04T10:55:15Z</time>
      </trkpt>
      <trkpt lat="44.88092" lon="4.58453">
        <ele>629.3</ele>
        <time>2026-05-04T10:55:20Z</time>
      </trkpt>
      <trkpt lat="44.88091" lon="4.58446">
        <ele>630.6</ele>
        <time>2026-05-04T10:55:25Z</time>
      </trkpt>
      <trkpt lat="44.88089" lon="4.58437">
        <ele>632.4</ele>
        <time>2026-05-04T10:55:30Z</time>
      </trkpt>
      <trkpt lat="44.88087" lon="4.5843">
        <ele>634</ele>
        <time>2026-05-04T10:55:35Z</time>
      </trkpt>
      <trkpt lat="44.88085" lon="4.58423">
        <ele>635.6</ele>
        <time>2026-05-04T10:55:40Z</time>
      </trkpt>
      <trkpt lat="44.88082" lon="4.58418">
        <ele>636.9</ele>
        <time>2026-05-04T10:55:45Z</time>
      </trkpt>
      <trkpt lat="44.88081" lon="4.58412">
        <ele>637.5</ele>
        <time>2026-05-04T10:55:50Z</time>
      </trkpt>
      <trkpt lat="44.88079" lon="4.58407">
        <ele>638</ele>
        <time>2026-05-04T10:55:55Z</time>
      </trkpt>
      <trkpt lat="44.88079" lon="4.58399">
        <ele>638.5</ele>
        <time>2026-05-04T10:56:00Z</time>
      </trkpt>
      <trkpt lat="44.88077" lon="4.58392">
        <ele>639.1</ele>
        <time>2026-05-04T10:56:05Z</time>
      </trkpt>
      <trkpt lat="44.88075" lon="4.58386">
        <ele>639.7</ele>
        <time>2026-05-04T10:56:10Z</time>
      </trkpt>
      <trkpt lat="44.88074" lon="4.58383">
        <ele>640</ele>
        <time>2026-05-04T10:56:15Z</time>
      </trkpt>
      <trkpt lat="44.88072" lon="4.58383">
        <ele>640.2</ele>
        <time>2026-05-04T10:56:20Z</time>
      </trkpt>
      <trkpt lat="44.88072" lon="4.58383">
        <ele>640.2</ele>
        <time>2026-05-04T10:56:25Z</time>
      </trkpt>
      <trkpt lat="44.88072" lon="4.58383">
        <ele>640.2</ele>
        <time>2026-05-04T10:56:30Z</time>
      </trkpt>
      <trkpt lat="44.88072" lon="4.58383">
        <ele>640.2</ele>
        <time>2026-05-04T10:56:35Z</time>
      </trkpt>
      <trkpt lat="44.88072" lon="4.58383">
        <ele>640.2</ele>
        <time>2026-05-04T10:56:40Z</time>
      </trkpt>
      <trkpt lat="44.88072" lon="4.58383">
        <ele>640.2</ele>
        <time>2026-05-04T10:56:45Z</time>
      </trkpt>
      <trkpt lat="44.88073" lon="4.58376">
        <ele>640.6</ele>
        <time>2026-05-04T10:56:50Z</time>
      </trkpt>
      <trkpt lat="44.88073" lon="4.58369">
        <ele>641</ele>
        <time>2026-05-04T10:56:55Z</time>
      </trkpt>
      <trkpt lat="44.88074" lon="4.58363">
        <ele>641.3</ele>
        <time>2026-05-04T10:57:00Z</time>
      </trkpt>
      <trkpt lat="44.88071" lon="4.58359">
        <ele>641.8</ele>
        <time>2026-05-04T10:57:05Z</time>
      </trkpt>
      <trkpt lat="44.88069" lon="4.58354">
        <ele>642.4</ele>
        <time>2026-05-04T10:57:10Z</time>
      </trkpt>
      <trkpt lat="44.88067" lon="4.58347">
        <ele>643.1</ele>
        <time>2026-05-04T10:57:15Z</time>
      </trkpt>
      <trkpt lat="44.88065" lon="4.5834">
        <ele>643.8</ele>
        <time>2026-05-04T10:57:20Z</time>
      </trkpt>
      <trkpt lat="44.88064" lon="4.58334">
        <ele>644.3</ele>
        <time>2026-05-04T10:57:25Z</time>
      </trkpt>
      <trkpt lat="44.88063" lon="4.58328">
        <ele>644.3</ele>
        <time>2026-05-04T10:57:30Z</time>
      </trkpt>
      <trkpt lat="44.8806" lon="4.58322">
        <ele>644.5</ele>
        <time>2026-05-04T10:57:35Z</time>
      </trkpt>
      <trkpt lat="44.88057" lon="4.58315">
        <ele>644.6</ele>
        <time>2026-05-04T10:57:40Z</time>
      </trkpt>
      <trkpt lat="44.88057" lon="4.5831">
        <ele>644.5</ele>
        <time>2026-05-04T10:57:45Z</time>
      </trkpt>
      <trkpt lat="44.88056" lon="4.58304">
        <ele>644.5</ele>
        <time>2026-05-04T10:57:50Z</time>
      </trkpt>
      <trkpt lat="44.88054" lon="4.58299">
        <ele>644.6</ele>
        <time>2026-05-04T10:57:55Z</time>
      </trkpt>
      <trkpt lat="44.88052" lon="4.58294">
        <ele>644.7</ele>
        <time>2026-05-04T10:58:00Z</time>
      </trkpt>
      <trkpt lat="44.88051" lon="4.58288">
        <ele>644.7</ele>
        <time>2026-05-04T10:58:05Z</time>
      </trkpt>
      <trkpt lat="44.8805" lon="4.58283">
        <ele>644.7</ele>
        <time>2026-05-04T10:58:10Z</time>
      </trkpt>
      <trkpt lat="44.88048" lon="4.58278">
        <ele>644.8</ele>
        <time>2026-05-04T10:58:15Z</time>
      </trkpt>
      <trkpt lat="44.88046" lon="4.58272">
        <ele>644.9</ele>
        <time>2026-05-04T10:58:20Z</time>
      </trkpt>
      <trkpt lat="44.88042" lon="4.58266">
        <ele>645.3</ele>
        <time>2026-05-04T10:58:25Z</time>
      </trkpt>
      <trkpt lat="44.88039" lon="4.58261">
        <ele>645.6</ele>
        <time>2026-05-04T10:58:30Z</time>
      </trkpt>
      <trkpt lat="44.88036" lon="4.58257">
        <ele>646</ele>
        <time>2026-05-04T10:58:35Z</time>
      </trkpt>
      <trkpt lat="44.88035" lon="4.58252">
        <ele>646</ele>
        <time>2026-05-04T10:58:40Z</time>
      </trkpt>
      <trkpt lat="44.88032" lon="4.58247">
        <ele>646.2</ele>
        <time>2026-05-04T10:58:45Z</time>
      </trkpt>
      <trkpt lat="44.88031" lon="4.58242">
        <ele>646.1</ele>
        <time>2026-05-04T10:58:50Z</time>
      </trkpt>
      <trkpt lat="44.88027" lon="4.58235">
        <ele>646.2</ele>
        <time>2026-05-04T10:58:55Z</time>
      </trkpt>
      <trkpt lat="44.88026" lon="4.58229">
        <ele>646</ele>
        <time>2026-05-04T10:59:00Z</time>
      </trkpt>
      <trkpt lat="44.88023" lon="4.58226">
        <ele>646.2</ele>
        <time>2026-05-04T10:59:05Z</time>
      </trkpt>
      <trkpt lat="44.88018" lon="4.58222">
        <ele>646.6</ele>
        <time>2026-05-04T10:59:10Z</time>
      </trkpt>
      <trkpt lat="44.88012" lon="4.58219">
        <ele>647.2</ele>
        <time>2026-05-04T10:59:15Z</time>
      </trkpt>
      <trkpt lat="44.88006" lon="4.58216">
        <ele>647.8</ele>
        <time>2026-05-04T10:59:20Z</time>
      </trkpt>
      <trkpt lat="44.88" lon="4.58213">
        <ele>648.3</ele>
        <time>2026-05-04T10:59:25Z</time>
      </trkpt>
      <trkpt lat="44.87995" lon="4.58211">
        <ele>648.6</ele>
        <time>2026-05-04T10:59:30Z</time>
      </trkpt>
      <trkpt lat="44.8799" lon="4.5821">
        <ele>649</ele>
        <time>2026-05-04T10:59:35Z</time>
      </trkpt>
      <trkpt lat="44.87983" lon="4.58207">
        <ele>649.5</ele>
        <time>2026-05-04T10:59:40Z</time>
      </trkpt>
      <trkpt lat="44.87977" lon="4.58204">
        <ele>649.8</ele>
        <time>2026-05-04T10:59:45Z</time>
      </trkpt>
      <trkpt lat="44.87972" lon="4.58199">
        <ele>650</ele>
        <time>2026-05-04T10:59:50Z</time>
      </trkpt>
      <trkpt lat="44.87965" lon="4.58194">
        <ele>650.5</ele>
        <time>2026-05-04T10:59:55Z</time>
      </trkpt>
      <trkpt lat="44.87958" lon="4.5819">
        <ele>651</ele>
        <time>2026-05-04T11:00:00Z</time>
      </trkpt>
      <trkpt lat="44.87952" lon="4.58185">
        <ele>651.4</ele>
        <time>2026-05-04T11:00:05Z</time>
      </trkpt>
      <trkpt lat="44.87947" lon="4.58181">
        <ele>651.8</ele>
        <time>2026-05-04T11:00:10Z</time>
      </trkpt>
      <trkpt lat="44.87942" lon="4.58175">
        <ele>652.2</ele>
        <time>2026-05-04T11:00:15Z</time>
      </trkpt>
      <trkpt lat="44.87934" lon="4.58167">
        <ele>652.9</ele>
        <time>2026-05-04T11:00:20Z</time>
      </trkpt>
      <trkpt lat="44.87928" lon="4.58164">
        <ele>653.4</ele>
        <time>2026-05-04T11:00:25Z</time>
      </trkpt>
      <trkpt lat="44.87921" lon="4.58158">
        <ele>653.7</ele>
        <time>2026-05-04T11:00:30Z</time>
      </trkpt>
      <trkpt lat="44.87915" lon="4.58151">
        <ele>653.7</ele>
        <time>2026-05-04T11:00:35Z</time>
      </trkpt>
      <trkpt lat="44.87911" lon="4.58147">
        <ele>653.9</ele>
        <time>2026-05-04T11:00:40Z</time>
      </trkpt>
      <trkpt lat="44.87906" lon="4.58142">
        <ele>654.2</ele>
        <time>2026-05-04T11:00:45Z</time>
      </trkpt>
      <trkpt lat="44.87902" lon="4.58134">
        <ele>654</ele>
        <time>2026-05-04T11:00:50Z</time>
      </trkpt>
      <trkpt lat="44.87897" lon="4.58126">
        <ele>654</ele>
        <time>2026-05-04T11:00:55Z</time>
      </trkpt>
      <trkpt lat="44.87893" lon="4.58116">
        <ele>653.7</ele>
        <time>2026-05-04T11:01:00Z</time>
      </trkpt>
      <trkpt lat="44.87888" lon="4.58108">
        <ele>653.7</ele>
        <time>2026-05-04T11:01:05Z</time>
      </trkpt>
      <trkpt lat="44.87883" lon="4.58098">
        <ele>653.6</ele>
        <time>2026-05-04T11:01:10Z</time>
      </trkpt>
      <trkpt lat="44.87879" lon="4.58091">
        <ele>653.6</ele>
        <time>2026-05-04T11:01:15Z</time>
      </trkpt>
      <trkpt lat="44.87876" lon="4.58087">
        <ele>653.7</ele>
        <time>2026-05-04T11:01:20Z</time>
      </trkpt>
      <trkpt lat="44.87871" lon="4.5808">
        <ele>653.9</ele>
        <time>2026-05-04T11:01:25Z</time>
      </trkpt>
      <trkpt lat="44.87865" lon="4.58073">
        <ele>654.3</ele>
        <time>2026-05-04T11:01:30Z</time>
      </trkpt>
      <trkpt lat="44.87859" lon="4.58068">
        <ele>654.9</ele>
        <time>2026-05-04T11:01:35Z</time>
      </trkpt>
      <trkpt lat="44.87855" lon="4.58065">
        <ele>655.3</ele>
        <time>2026-05-04T11:01:40Z</time>
      </trkpt>
      <trkpt lat="44.87853" lon="4.58063">
        <ele>655.4</ele>
        <time>2026-05-04T11:01:45Z</time>
      </trkpt>
      <trkpt lat="44.87849" lon="4.58058">
        <ele>655.6</ele>
        <time>2026-05-04T11:01:50Z</time>
      </trkpt>
      <trkpt lat="44.87842" lon="4.58056">
        <ele>656.5</ele>
        <time>2026-05-04T11:01:55Z</time>
      </trkpt>
      <trkpt lat="44.87835" lon="4.58053">
        <ele>657.2</ele>
        <time>2026-05-04T11:02:00Z</time>
      </trkpt>
      <trkpt lat="44.87827" lon="4.58049">
        <ele>658.7</ele>
        <time>2026-05-04T11:02:05Z</time>
      </trkpt>
      <trkpt lat="44.87821" lon="4.58044">
        <ele>659.8</ele>
        <time>2026-05-04T11:02:10Z</time>
      </trkpt>
      <trkpt lat="44.8782" lon="4.58041">
        <ele>659.8</ele>
        <time>2026-05-04T11:02:15Z</time>
      </trkpt>
      <trkpt lat="44.87816" lon="4.58034">
        <ele>660.3</ele>
        <time>2026-05-04T11:02:20Z</time>
      </trkpt>
      <trkpt lat="44.87811" lon="4.58027">
        <ele>661.1</ele>
        <time>2026-05-04T11:02:25Z</time>
      </trkpt>
      <trkpt lat="44.87809" lon="4.5802">
        <ele>661.1</ele>
        <time>2026-05-04T11:02:30Z</time>
      </trkpt>
      <trkpt lat="44.87806" lon="4.58011">
        <ele>661.3</ele>
        <time>2026-05-04T11:02:35Z</time>
      </trkpt>
      <trkpt lat="44.87804" lon="4.58003">
        <ele>661.3</ele>
        <time>2026-05-04T11:02:40Z</time>
      </trkpt>
      <trkpt lat="44.878" lon="4.57993">
        <ele>662.3</ele>
        <time>2026-05-04T11:02:45Z</time>
      </trkpt>
      <trkpt lat="44.87798" lon="4.57985">
        <ele>662.9</ele>
        <time>2026-05-04T11:02:50Z</time>
      </trkpt>
      <trkpt lat="44.87795" lon="4.57977">
        <ele>663.9</ele>
        <time>2026-05-04T11:02:55Z</time>
      </trkpt>
      <trkpt lat="44.87792" lon="4.57971">
        <ele>664.8</ele>
        <time>2026-05-04T11:03:00Z</time>
      </trkpt>
      <trkpt lat="44.87792" lon="4.57968">
        <ele>664.8</ele>
        <time>2026-05-04T11:03:05Z</time>
      </trkpt>
      <trkpt lat="44.8779" lon="4.5796">
        <ele>665.4</ele>
        <time>2026-05-04T11:03:10Z</time>
      </trkpt>
      <trkpt lat="44.87788" lon="4.5795">
        <ele>666.1</ele>
        <time>2026-05-04T11:03:15Z</time>
      </trkpt>
      <trkpt lat="44.87787" lon="4.57941">
        <ele>666.5</ele>
        <time>2026-05-04T11:03:20Z</time>
      </trkpt>
      <trkpt lat="44.87786" lon="4.57934">
        <ele>666.9</ele>
        <time>2026-05-04T11:03:25Z</time>
      </trkpt>
      <trkpt lat="44.87784" lon="4.57927">
        <ele>667.5</ele>
        <time>2026-05-04T11:03:30Z</time>
      </trkpt>
      <trkpt lat="44.87782" lon="4.57919">
        <ele>668.1</ele>
        <time>2026-05-04T11:03:35Z</time>
      </trkpt>
      <trkpt lat="44.8778" lon="4.57911">
        <ele>668.7</ele>
        <time>2026-05-04T11:03:40Z</time>
      </trkpt>
      <trkpt lat="44.87776" lon="4.57905">
        <ele>669.7</ele>
        <time>2026-05-04T11:03:45Z</time>
      </trkpt>
      <trkpt lat="44.87773" lon="4.57897">
        <ele>670.4</ele>
        <time>2026-05-04T11:03:50Z</time>
      </trkpt>
      <trkpt lat="44.8777" lon="4.57891">
        <ele>671.2</ele>
        <time>2026-05-04T11:03:55Z</time>
      </trkpt>
      <trkpt lat="44.87766" lon="4.57885">
        <ele>672.1</ele>
        <time>2026-05-04T11:04:00Z</time>
      </trkpt>
      <trkpt lat="44.87762" lon="4.57878">
        <ele>673</ele>
        <time>2026-05-04T11:04:05Z</time>
      </trkpt>
      <trkpt lat="44.87758" lon="4.57872">
        <ele>673.9</ele>
        <time>2026-05-04T11:04:10Z</time>
      </trkpt>
      <trkpt lat="44.87754" lon="4.57867">
        <ele>674.8</ele>
        <time>2026-05-04T11:04:15Z</time>
      </trkpt>
      <trkpt lat="44.87751" lon="4.57865">
        <ele>675.5</ele>
        <time>2026-05-04T11:04:20Z</time>
      </trkpt>
      <trkpt lat="44.87747" lon="4.57858">
        <ele>676.3</ele>
        <time>2026-05-04T11:04:25Z</time>
      </trkpt>
      <trkpt lat="44.87744" lon="4.57851">
        <ele>676.9</ele>
        <time>2026-05-04T11:04:30Z</time>
      </trkpt>
      <trkpt lat="44.8774" lon="4.57847">
        <ele>677.8</ele>
        <time>2026-05-04T11:04:35Z</time>
      </trkpt>
      <trkpt lat="44.87737" lon="4.57842">
        <ele>678.4</ele>
        <time>2026-05-04T11:04:40Z</time>
      </trkpt>
      <trkpt lat="44.87735" lon="4.57836">
        <ele>678.7</ele>
        <time>2026-05-04T11:04:45Z</time>
      </trkpt>
      <trkpt lat="44.8773" lon="4.57831">
        <ele>679.6</ele>
        <time>2026-05-04T11:04:50Z</time>
      </trkpt>
      <trkpt lat="44.87726" lon="4.57825">
        <ele>680</ele>
        <time>2026-05-04T11:04:55Z</time>
      </trkpt>
      <trkpt lat="44.87723" lon="4.5782">
        <ele>680.3</ele>
        <time>2026-05-04T11:05:00Z</time>
      </trkpt>
      <trkpt lat="44.8772" lon="4.57816">
        <ele>680.6</ele>
        <time>2026-05-04T11:05:05Z</time>
      </trkpt>
      <trkpt lat="44.87716" lon="4.5781">
        <ele>680.8</ele>
        <time>2026-05-04T11:05:10Z</time>
      </trkpt>
      <trkpt lat="44.87713" lon="4.57805">
        <ele>681</ele>
        <time>2026-05-04T11:05:15Z</time>
      </trkpt>
      <trkpt lat="44.8771" lon="4.57799">
        <ele>681</ele>
        <time>2026-05-04T11:05:20Z</time>
      </trkpt>
      <trkpt lat="44.87707" lon="4.57794">
        <ele>681</ele>
        <time>2026-05-04T11:05:25Z</time>
      </trkpt>
      <trkpt lat="44.87704" lon="4.57788">
        <ele>680.9</ele>
        <time>2026-05-04T11:05:30Z</time>
      </trkpt>
      <trkpt lat="44.87701" lon="4.57783">
        <ele>680.9</ele>
        <time>2026-05-04T11:05:35Z</time>
      </trkpt>
      <trkpt lat="44.87698" lon="4.57777">
        <ele>680.7</ele>
        <time>2026-05-04T11:05:40Z</time>
      </trkpt>
      <trkpt lat="44.87694" lon="4.57771">
        <ele>680.7</ele>
        <time>2026-05-04T11:05:45Z</time>
      </trkpt>
      <trkpt lat="44.87693" lon="4.57765">
        <ele>680.1</ele>
        <time>2026-05-04T11:05:50Z</time>
      </trkpt>
      <trkpt lat="44.8769" lon="4.57759">
        <ele>679.8</ele>
        <time>2026-05-04T11:05:55Z</time>
      </trkpt>
      <trkpt lat="44.87689" lon="4.57755">
        <ele>679.4</ele>
        <time>2026-05-04T11:06:00Z</time>
      </trkpt>
      <trkpt lat="44.87688" lon="4.57747">
        <ele>678.8</ele>
        <time>2026-05-04T11:06:05Z</time>
      </trkpt>
      <trkpt lat="44.87687" lon="4.57741">
        <ele>678.6</ele>
        <time>2026-05-04T11:06:10Z</time>
      </trkpt>
      <trkpt lat="44.87684" lon="4.57733">
        <ele>678.5</ele>
        <time>2026-05-04T11:06:15Z</time>
      </trkpt>
      <trkpt lat="44.8768" lon="4.57725">
        <ele>678.6</ele>
        <time>2026-05-04T11:06:20Z</time>
      </trkpt>
      <trkpt lat="44.87676" lon="4.57718">
        <ele>678.8</ele>
        <time>2026-05-04T11:06:25Z</time>
      </trkpt>
      <trkpt lat="44.87671" lon="4.5771">
        <ele>679</ele>
        <time>2026-05-04T11:06:30Z</time>
      </trkpt>
      <trkpt lat="44.87667" lon="4.57706">
        <ele>679.3</ele>
        <time>2026-05-04T11:06:35Z</time>
      </trkpt>
      <trkpt lat="44.87664" lon="4.57699">
        <ele>679.4</ele>
        <time>2026-05-04T11:06:40Z</time>
      </trkpt>
      <trkpt lat="44.87662" lon="4.5769">
        <ele>679.2</ele>
        <time>2026-05-04T11:06:45Z</time>
      </trkpt>
      <trkpt lat="44.87662" lon="4.57681">
        <ele>678.6</ele>
        <time>2026-05-04T11:06:50Z</time>
      </trkpt>
      <trkpt lat="44.87662" lon="4.57673">
        <ele>678.2</ele>
        <time>2026-05-04T11:06:55Z</time>
      </trkpt>
      <trkpt lat="44.87662" lon="4.57664">
        <ele>678.1</ele>
        <time>2026-05-04T11:07:00Z</time>
      </trkpt>
      <trkpt lat="44.87666" lon="4.57658">
        <ele>678.1</ele>
        <time>2026-05-04T11:07:05Z</time>
      </trkpt>
      <trkpt lat="44.8767" lon="4.57654">
        <ele>678.1</ele>
        <time>2026-05-04T11:07:10Z</time>
      </trkpt>
      <trkpt lat="44.87671" lon="4.57651">
        <ele>678.3</ele>
        <time>2026-05-04T11:07:15Z</time>
      </trkpt>
      <trkpt lat="44.87673" lon="4.57647">
        <ele>678.5</ele>
        <time>2026-05-04T11:07:20Z</time>
      </trkpt>
      <trkpt lat="44.87675" lon="4.57642">
        <ele>678.8</ele>
        <time>2026-05-04T11:07:25Z</time>
      </trkpt>
      <trkpt lat="44.87676" lon="4.57634">
        <ele>679.6</ele>
        <time>2026-05-04T11:07:30Z</time>
      </trkpt>
      <trkpt lat="44.87677" lon="4.57627">
        <ele>680.3</ele>
        <time>2026-05-04T11:07:35Z</time>
      </trkpt>
      <trkpt lat="44.87677" lon="4.57621">
        <ele>681</ele>
        <time>2026-05-04T11:07:40Z</time>
      </trkpt>
      <trkpt lat="44.87677" lon="4.57615">
        <ele>681.7</ele>
        <time>2026-05-04T11:07:45Z</time>
      </trkpt>
      <trkpt lat="44.87677" lon="4.57612">
        <ele>682</ele>
        <time>2026-05-04T11:07:50Z</time>
      </trkpt>
      <trkpt lat="44.87675" lon="4.57605">
        <ele>683.2</ele>
        <time>2026-05-04T11:07:55Z</time>
      </trkpt>
      <trkpt lat="44.87674" lon="4.576">
        <ele>683.9</ele>
        <time>2026-05-04T11:08:00Z</time>
      </trkpt>
      <trkpt lat="44.87673" lon="4.57595">
        <ele>684.6</ele>
        <time>2026-05-04T11:08:05Z</time>
      </trkpt>
      <trkpt lat="44.87672" lon="4.57588">
        <ele>685.6</ele>
        <time>2026-05-04T11:08:10Z</time>
      </trkpt>
      <trkpt lat="44.87672" lon="4.57582">
        <ele>686.4</ele>
        <time>2026-05-04T11:08:15Z</time>
      </trkpt>
      <trkpt lat="44.87672" lon="4.57578">
        <ele>687</ele>
        <time>2026-05-04T11:08:20Z</time>
      </trkpt>
      <trkpt lat="44.87672" lon="4.57572">
        <ele>687.9</ele>
        <time>2026-05-04T11:08:25Z</time>
      </trkpt>
      <trkpt lat="44.87671" lon="4.57565">
        <ele>689.2</ele>
        <time>2026-05-04T11:08:30Z</time>
      </trkpt>
      <trkpt lat="44.87671" lon="4.5756">
        <ele>690</ele>
        <time>2026-05-04T11:08:35Z</time>
      </trkpt>
      <trkpt lat="44.87671" lon="4.57555">
        <ele>690.8</ele>
        <time>2026-05-04T11:08:40Z</time>
      </trkpt>
      <trkpt lat="44.87672" lon="4.57553">
        <ele>690.9</ele>
        <time>2026-05-04T11:08:45Z</time>
      </trkpt>
      <trkpt lat="44.8767" lon="4.5755">
        <ele>691.7</ele>
        <time>2026-05-04T11:08:50Z</time>
      </trkpt>
      <trkpt lat="44.8767" lon="4.5755">
        <ele>691.7</ele>
        <time>2026-05-04T11:08:55Z</time>
      </trkpt>
      <trkpt lat="44.87666" lon="4.57544">
        <ele>693.2</ele>
        <time>2026-05-04T11:09:00Z</time>
      </trkpt>
      <trkpt lat="44.87662" lon="4.57541">
        <ele>694.4</ele>
        <time>2026-05-04T11:09:05Z</time>
      </trkpt>
      <trkpt lat="44.87657" lon="4.57542">
        <ele>695</ele>
        <time>2026-05-04T11:09:10Z</time>
      </trkpt>
      <trkpt lat="44.87654" lon="4.57541">
        <ele>695.7</ele>
        <time>2026-05-04T11:09:15Z</time>
      </trkpt>
      <trkpt lat="44.87649" lon="4.5754">
        <ele>696.6</ele>
        <time>2026-05-04T11:09:20Z</time>
      </trkpt>
      <trkpt lat="44.87648" lon="4.57536">
        <ele>697.5</ele>
        <time>2026-05-04T11:09:25Z</time>
      </trkpt>
      <trkpt lat="44.87647" lon="4.57534">
        <ele>698</ele>
        <time>2026-05-04T11:09:30Z</time>
      </trkpt>
      <trkpt lat="44.87647" lon="4.57534">
        <ele>698</ele>
        <time>2026-05-04T11:09:35Z</time>
      </trkpt>
      <trkpt lat="44.87647" lon="4.57534">
        <ele>698</ele>
        <time>2026-05-04T11:09:40Z</time>
      </trkpt>
      <trkpt lat="44.87647" lon="4.57534">
        <ele>698</ele>
        <time>2026-05-04T11:09:45Z</time>
      </trkpt>
      <trkpt lat="44.87647" lon="4.57534">
        <ele>698</ele>
        <time>2026-05-04T11:09:50Z</time>
      </trkpt>
      <trkpt lat="44.87644" lon="4.57537">
        <ele>698</ele>
        <time>2026-05-04T11:09:55Z</time>
      </trkpt>
      <trkpt lat="44.87639" lon="4.57538">
        <ele>698.6</ele>
        <time>2026-05-04T11:10:00Z</time>
      </trkpt>
      <trkpt lat="44.87635" lon="4.57541">
        <ele>698.7</ele>
        <time>2026-05-04T11:10:05Z</time>
      </trkpt>
      <trkpt lat="44.87629" lon="4.5754">
        <ele>699.9</ele>
        <time>2026-05-04T11:10:10Z</time>
      </trkpt>
      <trkpt lat="44.87624" lon="4.57541">
        <ele>700.5</ele>
        <time>2026-05-04T11:10:15Z</time>
      </trkpt>
      <trkpt lat="44.87619" lon="4.57543">
        <ele>701</ele>
        <time>2026-05-04T11:10:20Z</time>
      </trkpt>
      <trkpt lat="44.87615" lon="4.57542">
        <ele>701.8</ele>
        <time>2026-05-04T11:10:25Z</time>
      </trkpt>
      <trkpt lat="44.87611" lon="4.57545">
        <ele>701.9</ele>
        <time>2026-05-04T11:10:30Z</time>
      </trkpt>
      <trkpt lat="44.87606" lon="4.57545">
        <ele>702.7</ele>
        <time>2026-05-04T11:10:35Z</time>
      </trkpt>
      <trkpt lat="44.876" lon="4.57541">
        <ele>704.4</ele>
        <time>2026-05-04T11:10:40Z</time>
      </trkpt>
      <trkpt lat="44.876" lon="4.57535">
        <ele>705.7</ele>
        <time>2026-05-04T11:10:45Z</time>
      </trkpt>
      <trkpt lat="44.876" lon="4.57529">
        <ele>706.9</ele>
        <time>2026-05-04T11:10:50Z</time>
      </trkpt>
      <trkpt lat="44.87603" lon="4.57525">
        <ele>707.2</ele>
        <time>2026-05-04T11:10:55Z</time>
      </trkpt>
      <trkpt lat="44.87607" lon="4.57523">
        <ele>706.9</ele>
        <time>2026-05-04T11:11:00Z</time>
      </trkpt>
      <trkpt lat="44.8761" lon="4.57519">
        <ele>707.1</ele>
        <time>2026-05-04T11:11:05Z</time>
      </trkpt>
      <trkpt lat="44.87613" lon="4.57512">
        <ele>708</ele>
        <time>2026-05-04T11:11:10Z</time>
      </trkpt>
      <trkpt lat="44.87617" lon="4.57509">
        <ele>707.8</ele>
        <time>2026-05-04T11:11:15Z</time>
      </trkpt>
      <trkpt lat="44.87622" lon="4.57503">
        <ele>708</ele>
        <time>2026-05-04T11:11:20Z</time>
      </trkpt>
      <trkpt lat="44.87624" lon="4.57499">
        <ele>708.3</ele>
        <time>2026-05-04T11:11:25Z</time>
      </trkpt>
      <trkpt lat="44.87628" lon="4.57495">
        <ele>708.1</ele>
        <time>2026-05-04T11:11:30Z</time>
      </trkpt>
      <trkpt lat="44.87631" lon="4.5749">
        <ele>708.2</ele>
        <time>2026-05-04T11:11:35Z</time>
      </trkpt>
      <trkpt lat="44.87632" lon="4.57484">
        <ele>708.9</ele>
        <time>2026-05-04T11:11:40Z</time>
      </trkpt>
      <trkpt lat="44.87632" lon="4.57477">
        <ele>709.8</ele>
        <time>2026-05-04T11:11:45Z</time>
      </trkpt>
      <trkpt lat="44.87634" lon="4.57473">
        <ele>710</ele>
        <time>2026-05-04T11:11:50Z</time>
      </trkpt>
      <trkpt lat="44.87639" lon="4.57471">
        <ele>709.1</ele>
        <time>2026-05-04T11:11:55Z</time>
      </trkpt>
      <trkpt lat="44.87642" lon="4.5747">
        <ele>708.6</ele>
        <time>2026-05-04T11:12:00Z</time>
      </trkpt>
      <trkpt lat="44.87647" lon="4.57466">
        <ele>708</ele>
        <time>2026-05-04T11:12:05Z</time>
      </trkpt>
      <trkpt lat="44.87652" lon="4.57462">
        <ele>707.4</ele>
        <time>2026-05-04T11:12:10Z</time>
      </trkpt>
      <trkpt lat="44.87658" lon="4.5746">
        <ele>706.3</ele>
        <time>2026-05-04T11:12:15Z</time>
      </trkpt>
      <trkpt lat="44.87665" lon="4.57456">
        <ele>705.1</ele>
        <time>2026-05-04T11:12:20Z</time>
      </trkpt>
      <trkpt lat="44.87668" lon="4.57455">
        <ele>704.7</ele>
        <time>2026-05-04T11:12:25Z</time>
      </trkpt>
      <trkpt lat="44.87672" lon="4.57455">
        <ele>704</ele>
        <time>2026-05-04T11:12:30Z</time>
      </trkpt>
      <trkpt lat="44.87673" lon="4.57452">
        <ele>704.2</ele>
        <time>2026-05-04T11:12:35Z</time>
      </trkpt>
      <trkpt lat="44.87673" lon="4.57452">
        <ele>704.2</ele>
        <time>2026-05-04T11:12:40Z</time>
      </trkpt>
      <trkpt lat="44.87673" lon="4.57452">
        <ele>704.2</ele>
        <time>2026-05-04T11:12:45Z</time>
      </trkpt>
      <trkpt lat="44.87676" lon="4.57451">
        <ele>703.8</ele>
        <time>2026-05-04T11:12:50Z</time>
      </trkpt>
      <trkpt lat="44.87681" lon="4.5745">
        <ele>703.1</ele>
        <time>2026-05-04T11:12:55Z</time>
      </trkpt>
      <trkpt lat="44.87686" lon="4.57449">
        <ele>702.4</ele>
        <time>2026-05-04T11:13:00Z</time>
      </trkpt>
      <trkpt lat="44.87693" lon="4.57449">
        <ele>701.3</ele>
        <time>2026-05-04T11:13:05Z</time>
      </trkpt>
      <trkpt lat="44.87701" lon="4.57451">
        <ele>699.9</ele>
        <time>2026-05-04T11:13:10Z</time>
      </trkpt>
      <trkpt lat="44.87705" lon="4.57451">
        <ele>699.2</ele>
        <time>2026-05-04T11:13:15Z</time>
      </trkpt>
      <trkpt lat="44.87711" lon="4.57454">
        <ele>698</ele>
        <time>2026-05-04T11:13:20Z</time>
      </trkpt>
      <trkpt lat="44.87718" lon="4.57457">
        <ele>696.6</ele>
        <time>2026-05-04T11:13:25Z</time>
      </trkpt>
      <trkpt lat="44.87724" lon="4.57458">
        <ele>695.6</ele>
        <time>2026-05-04T11:13:30Z</time>
      </trkpt>
      <trkpt lat="44.87731" lon="4.57462">
        <ele>694.1</ele>
        <time>2026-05-04T11:13:35Z</time>
      </trkpt>
      <trkpt lat="44.87738" lon="4.57467">
        <ele>692.6</ele>
        <time>2026-05-04T11:13:40Z</time>
      </trkpt>
      <trkpt lat="44.87743" lon="4.57469">
        <ele>691.7</ele>
        <time>2026-05-04T11:13:45Z</time>
      </trkpt>
      <trkpt lat="44.87748" lon="4.57473">
        <ele>690.6</ele>
        <time>2026-05-04T11:13:50Z</time>
      </trkpt>
      <trkpt lat="44.87753" lon="4.57477">
        <ele>690.1</ele>
        <time>2026-05-04T11:13:55Z</time>
      </trkpt>
      <trkpt lat="44.87754" lon="4.57483">
        <ele>689.7</ele>
        <time>2026-05-04T11:14:00Z</time>
      </trkpt>
      <trkpt lat="44.87759" lon="4.5749">
        <ele>689.4</ele>
        <time>2026-05-04T11:14:05Z</time>
      </trkpt>
      <trkpt lat="44.87765" lon="4.57494">
        <ele>689.4</ele>
        <time>2026-05-04T11:14:10Z</time>
      </trkpt>
      <trkpt lat="44.87771" lon="4.57499">
        <ele>689.4</ele>
        <time>2026-05-04T11:14:15Z</time>
      </trkpt>
      <trkpt lat="44.87777" lon="4.57505">
        <ele>688.8</ele>
        <time>2026-05-04T11:14:20Z</time>
      </trkpt>
      <trkpt lat="44.87786" lon="4.57512">
        <ele>688.1</ele>
        <time>2026-05-04T11:14:25Z</time>
      </trkpt>
      <trkpt lat="44.87794" lon="4.57515">
        <ele>688</ele>
        <time>2026-05-04T11:14:30Z</time>
      </trkpt>
      <trkpt lat="44.87797" lon="4.57519">
        <ele>687.5</ele>
        <time>2026-05-04T11:14:35Z</time>
      </trkpt>
      <trkpt lat="44.87797" lon="4.57526">
        <ele>686.3</ele>
        <time>2026-05-04T11:14:40Z</time>
      </trkpt>
      <trkpt lat="44.87796" lon="4.57527">
        <ele>686</ele>
        <time>2026-05-04T11:14:45Z</time>
      </trkpt>
      <trkpt lat="44.87796" lon="4.57527">
        <ele>686</ele>
        <time>2026-05-04T11:14:50Z</time>
      </trkpt>
      <trkpt lat="44.87798" lon="4.57527">
        <ele>686.2</ele>
        <time>2026-05-04T11:14:55Z</time>
      </trkpt>
      <trkpt lat="44.87799" lon="4.57528">
        <ele>686</ele>
        <time>2026-05-04T11:15:00Z</time>
      </trkpt>
      <trkpt lat="44.87802" lon="4.57529">
        <ele>686</ele>
        <time>2026-05-04T11:15:05Z</time>
      </trkpt>
      <trkpt lat="44.87807" lon="4.57536">
        <ele>685.1</ele>
        <time>2026-05-04T11:15:10Z</time>
      </trkpt>
      <trkpt lat="44.87812" lon="4.57542">
        <ele>684.3</ele>
        <time>2026-05-04T11:15:15Z</time>
      </trkpt>
      <trkpt lat="44.87815" lon="4.57549">
        <ele>683.2</ele>
        <time>2026-05-04T11:15:20Z</time>
      </trkpt>
      <trkpt lat="44.87822" lon="4.57555">
        <ele>682.5</ele>
        <time>2026-05-04T11:15:25Z</time>
      </trkpt>
      <trkpt lat="44.87826" lon="4.5756">
        <ele>681.8</ele>
        <time>2026-05-04T11:15:30Z</time>
      </trkpt>
      <trkpt lat="44.87829" lon="4.57567">
        <ele>680.7</ele>
        <time>2026-05-04T11:15:35Z</time>
      </trkpt>
      <trkpt lat="44.87833" lon="4.57572">
        <ele>680</ele>
        <time>2026-05-04T11:15:40Z</time>
      </trkpt>
      <trkpt lat="44.87837" lon="4.57577">
        <ele>680</ele>
        <time>2026-05-04T11:15:45Z</time>
      </trkpt>
      <trkpt lat="44.87842" lon="4.57582">
        <ele>680.2</ele>
        <time>2026-05-04T11:15:50Z</time>
      </trkpt>
      <trkpt lat="44.87846" lon="4.57589">
        <ele>680.2</ele>
        <time>2026-05-04T11:15:55Z</time>
      </trkpt>
      <trkpt lat="44.87849" lon="4.57594">
        <ele>680.2</ele>
        <time>2026-05-04T11:16:00Z</time>
      </trkpt>
      <trkpt lat="44.87852" lon="4.57599">
        <ele>680.2</ele>
        <time>2026-05-04T11:16:05Z</time>
      </trkpt>
      <trkpt lat="44.87855" lon="4.57604">
        <ele>680.2</ele>
        <time>2026-05-04T11:16:10Z</time>
      </trkpt>
      <trkpt lat="44.87862" lon="4.57608">
        <ele>681.1</ele>
        <time>2026-05-04T11:16:15Z</time>
      </trkpt>
      <trkpt lat="44.87867" lon="4.5761">
        <ele>681.8</ele>
        <time>2026-05-04T11:16:20Z</time>
      </trkpt>
      <trkpt lat="44.87873" lon="4.57615">
        <ele>682.2</ele>
        <time>2026-05-04T11:16:25Z</time>
      </trkpt>
      <trkpt lat="44.87879" lon="4.5762">
        <ele>682.5</ele>
        <time>2026-05-04T11:16:30Z</time>
      </trkpt>
      <trkpt lat="44.87888" lon="4.57625">
        <ele>683.3</ele>
        <time>2026-05-04T11:16:35Z</time>
      </trkpt>
      <trkpt lat="44.87897" lon="4.57633">
        <ele>683.5</ele>
        <time>2026-05-04T11:16:40Z</time>
      </trkpt>
      <trkpt lat="44.87899" lon="4.57641">
        <ele>682.4</ele>
        <time>2026-05-04T11:16:45Z</time>
      </trkpt>
      <trkpt lat="44.87904" lon="4.57649">
        <ele>681.7</ele>
        <time>2026-05-04T11:16:50Z</time>
      </trkpt>
      <trkpt lat="44.8791" lon="4.57655">
        <ele>681.4</ele>
        <time>2026-05-04T11:16:55Z</time>
      </trkpt>
      <trkpt lat="44.87917" lon="4.57658">
        <ele>681.8</ele>
        <time>2026-05-04T11:17:00Z</time>
      </trkpt>
      <trkpt lat="44.87922" lon="4.57664">
        <ele>681.8</ele>
        <time>2026-05-04T11:17:05Z</time>
      </trkpt>
      <trkpt lat="44.87928" lon="4.5767">
        <ele>682.2</ele>
        <time>2026-05-04T11:17:10Z</time>
      </trkpt>
      <trkpt lat="44.87931" lon="4.57672">
        <ele>682.6</ele>
        <time>2026-05-04T11:17:15Z</time>
      </trkpt>
      <trkpt lat="44.87931" lon="4.57672">
        <ele>682.6</ele>
        <time>2026-05-04T11:17:20Z</time>
      </trkpt>
      <trkpt lat="44.87931" lon="4.57672">
        <ele>682.6</ele>
        <time>2026-05-04T11:17:25Z</time>
      </trkpt>
      <trkpt lat="44.87931" lon="4.57672">
        <ele>682.6</ele>
        <time>2026-05-04T11:17:30Z</time>
      </trkpt>
      <trkpt lat="44.87931" lon="4.57672">
        <ele>682.6</ele>
        <time>2026-05-04T11:17:35Z</time>
      </trkpt>
      <trkpt lat="44.87931" lon="4.57672">
        <ele>682.6</ele>
        <time>2026-05-04T11:17:40Z</time>
      </trkpt>
      <trkpt lat="44.87931" lon="4.57672">
        <ele>682.6</ele>
        <time>2026-05-04T11:17:45Z</time>
      </trkpt>
      <trkpt lat="44.87931" lon="4.57672">
        <ele>682.6</ele>
        <time>2026-05-04T11:17:50Z</time>
      </trkpt>
      <trkpt lat="44.87931" lon="4.57672">
        <ele>682.6</ele>
        <time>2026-05-04T11:17:55Z</time>
      </trkpt>
      <trkpt lat="44.87937" lon="4.57677">
        <ele>683.1</ele>
        <time>2026-05-04T11:18:00Z</time>
      </trkpt>
      <trkpt lat="44.87942" lon="4.57682">
        <ele>683.4</ele>
        <time>2026-05-04T11:18:05Z</time>
      </trkpt>
      <trkpt lat="44.87945" lon="4.57687">
        <ele>683.2</ele>
        <time>2026-05-04T11:18:10Z</time>
      </trkpt>
      <trkpt lat="44.87946" lon="4.57688">
        <ele>683.2</ele>
        <time>2026-05-04T11:18:15Z</time>
      </trkpt>
      <trkpt lat="44.87946" lon="4.57688">
        <ele>683.2</ele>
        <time>2026-05-04T11:18:20Z</time>
      </trkpt>
      <trkpt lat="44.87946" lon="4.57688">
        <ele>683.2</ele>
        <time>2026-05-04T11:18:25Z</time>
      </trkpt>
      <trkpt lat="44.87949" lon="4.57687">
        <ele>684.1</ele>
        <time>2026-05-04T11:18:30Z</time>
      </trkpt>
      <trkpt lat="44.8795" lon="4.57688">
        <ele>684.1</ele>
        <time>2026-05-04T11:18:35Z</time>
      </trkpt>
      <trkpt lat="44.8795" lon="4.57688">
        <ele>684.1</ele>
        <time>2026-05-04T11:18:40Z</time>
      </trkpt>
      <trkpt lat="44.8795" lon="4.57688">
        <ele>684.1</ele>
        <time>2026-05-04T11:18:45Z</time>
      </trkpt>
      <trkpt lat="44.8795" lon="4.57688">
        <ele>684.1</ele>
        <time>2026-05-04T11:18:50Z</time>
      </trkpt>
      <trkpt lat="44.8795" lon="4.57688">
        <ele>684.1</ele>
        <time>2026-05-04T11:18:55Z</time>
      </trkpt>
      <trkpt lat="44.8795" lon="4.57688">
        <ele>684.1</ele>
        <time>2026-05-04T11:19:00Z</time>
      </trkpt>
      <trkpt lat="44.8795" lon="4.57688">
        <ele>684.1</ele>
        <time>2026-05-04T11:19:05Z</time>
      </trkpt>
      <trkpt lat="44.8795" lon="4.57688">
        <ele>684.1</ele>
        <time>2026-05-04T11:19:10Z</time>
      </trkpt>
      <trkpt lat="44.87953" lon="4.57691">
        <ele>684.2</ele>
        <time>2026-05-04T11:19:15Z</time>
      </trkpt>
      <trkpt lat="44.87957" lon="4.57696">
        <ele>684.1</ele>
        <time>2026-05-04T11:19:20Z</time>
      </trkpt>
      <trkpt lat="44.87962" lon="4.57702">
        <ele>683.9</ele>
        <time>2026-05-04T11:19:25Z</time>
      </trkpt>
      <trkpt lat="44.87967" lon="4.57707">
        <ele>683.9</ele>
        <time>2026-05-04T11:19:30Z</time>
      </trkpt>
      <trkpt lat="44.87972" lon="4.57713">
        <ele>683.7</ele>
        <time>2026-05-04T11:19:35Z</time>
      </trkpt>
      <trkpt lat="44.87977" lon="4.57718">
        <ele>683.5</ele>
        <time>2026-05-04T11:19:40Z</time>
      </trkpt>
      <trkpt lat="44.87983" lon="4.57723">
        <ele>683.5</ele>
        <time>2026-05-04T11:19:45Z</time>
      </trkpt>
      <trkpt lat="44.87987" lon="4.57728">
        <ele>683.1</ele>
        <time>2026-05-04T11:19:50Z</time>
      </trkpt>
      <trkpt lat="44.87993" lon="4.57733">
        <ele>682.9</ele>
        <time>2026-05-04T11:19:55Z</time>
      </trkpt>
      <trkpt lat="44.87999" lon="4.5774">
        <ele>682.2</ele>
        <time>2026-05-04T11:20:00Z</time>
      </trkpt>
      <trkpt lat="44.88005" lon="4.57745">
        <ele>682.4</ele>
        <time>2026-05-04T11:20:05Z</time>
      </trkpt>
      <trkpt lat="44.88009" lon="4.57751">
        <ele>682.1</ele>
        <time>2026-05-04T11:20:10Z</time>
      </trkpt>
      <trkpt lat="44.88014" lon="4.57758">
        <ele>682.1</ele>
        <time>2026-05-04T11:20:15Z</time>
      </trkpt>
      <trkpt lat="44.88019" lon="4.57764">
        <ele>682.3</ele>
        <time>2026-05-04T11:20:20Z</time>
      </trkpt>
      <trkpt lat="44.88024" lon="4.57771">
        <ele>682.3</ele>
        <time>2026-05-04T11:20:25Z</time>
      </trkpt>
      <trkpt lat="44.88029" lon="4.57777">
        <ele>682.6</ele>
        <time>2026-05-04T11:20:30Z</time>
      </trkpt>
      <trkpt lat="44.88033" lon="4.57784">
        <ele>682.4</ele>
        <time>2026-05-04T11:20:35Z</time>
      </trkpt>
      <trkpt lat="44.88038" lon="4.57793">
        <ele>682.1</ele>
        <time>2026-05-04T11:20:40Z</time>
      </trkpt>
      <trkpt lat="44.88042" lon="4.578">
        <ele>681.9</ele>
        <time>2026-05-04T11:20:45Z</time>
      </trkpt>
      <trkpt lat="44.88048" lon="4.57809">
        <ele>681.9</ele>
        <time>2026-05-04T11:20:50Z</time>
      </trkpt>
      <trkpt lat="44.88054" lon="4.57817">
        <ele>682.1</ele>
        <time>2026-05-04T11:20:55Z</time>
      </trkpt>
      <trkpt lat="44.88059" lon="4.57822">
        <ele>682.5</ele>
        <time>2026-05-04T11:21:00Z</time>
      </trkpt>
      <trkpt lat="44.88063" lon="4.57829">
        <ele>682.4</ele>
        <time>2026-05-04T11:21:05Z</time>
      </trkpt>
      <trkpt lat="44.88068" lon="4.57838">
        <ele>682.1</ele>
        <time>2026-05-04T11:21:10Z</time>
      </trkpt>
      <trkpt lat="44.88072" lon="4.57847">
        <ele>681.4</ele>
        <time>2026-05-04T11:21:15Z</time>
      </trkpt>
      <trkpt lat="44.88076" lon="4.57856">
        <ele>680.6</ele>
        <time>2026-05-04T11:21:20Z</time>
      </trkpt>
      <trkpt lat="44.88079" lon="4.57866">
        <ele>679.3</ele>
        <time>2026-05-04T11:21:25Z</time>
      </trkpt>
      <trkpt lat="44.8808" lon="4.57872">
        <ele>678.3</ele>
        <time>2026-05-04T11:21:30Z</time>
      </trkpt>
      <trkpt lat="44.88085" lon="4.57882">
        <ele>677.6</ele>
        <time>2026-05-04T11:21:35Z</time>
      </trkpt>
      <trkpt lat="44.88089" lon="4.57887">
        <ele>677.8</ele>
        <time>2026-05-04T11:21:40Z</time>
      </trkpt>
      <trkpt lat="44.88091" lon="4.57894">
        <ele>676.9</ele>
        <time>2026-05-04T11:21:45Z</time>
      </trkpt>
      <trkpt lat="44.88094" lon="4.57903">
        <ele>675.9</ele>
        <time>2026-05-04T11:21:50Z</time>
      </trkpt>
      <trkpt lat="44.88098" lon="4.57913">
        <ele>675</ele>
        <time>2026-05-04T11:21:55Z</time>
      </trkpt>
      <trkpt lat="44.88103" lon="4.57922">
        <ele>674.7</ele>
        <time>2026-05-04T11:22:00Z</time>
      </trkpt>
      <trkpt lat="44.88107" lon="4.57934">
        <ele>673.8</ele>
        <time>2026-05-04T11:22:05Z</time>
      </trkpt>
      <trkpt lat="44.88111" lon="4.57943">
        <ele>673.3</ele>
        <time>2026-05-04T11:22:10Z</time>
      </trkpt>
      <trkpt lat="44.88116" lon="4.57953">
        <ele>673</ele>
        <time>2026-05-04T11:22:15Z</time>
      </trkpt>
      <trkpt lat="44.88122" lon="4.57961">
        <ele>673.2</ele>
        <time>2026-05-04T11:22:20Z</time>
      </trkpt>
      <trkpt lat="44.88128" lon="4.57967">
        <ele>673.8</ele>
        <time>2026-05-04T11:22:25Z</time>
      </trkpt>
      <trkpt lat="44.88133" lon="4.57973">
        <ele>674</ele>
        <time>2026-05-04T11:22:30Z</time>
      </trkpt>
      <trkpt lat="44.88138" lon="4.57981">
        <ele>673.9</ele>
        <time>2026-05-04T11:22:35Z</time>
      </trkpt>
      <trkpt lat="44.88143" lon="4.57986">
        <ele>674.3</ele>
        <time>2026-05-04T11:22:40Z</time>
      </trkpt>
      <trkpt lat="44.8815" lon="4.57998">
        <ele>674</ele>
        <time>2026-05-04T11:22:45Z</time>
      </trkpt>
      <trkpt lat="44.88154" lon="4.58006">
        <ele>673.5</ele>
        <time>2026-05-04T11:22:50Z</time>
      </trkpt>
      <trkpt lat="44.88159" lon="4.58013">
        <ele>673.4</ele>
        <time>2026-05-04T11:22:55Z</time>
      </trkpt>
      <trkpt lat="44.88164" lon="4.58024">
        <ele>672.4</ele>
        <time>2026-05-04T11:23:00Z</time>
      </trkpt>
      <trkpt lat="44.88167" lon="4.58032">
        <ele>671.6</ele>
        <time>2026-05-04T11:23:05Z</time>
      </trkpt>
      <trkpt lat="44.88171" lon="4.58041">
        <ele>670.8</ele>
        <time>2026-05-04T11:23:10Z</time>
      </trkpt>
      <trkpt lat="44.88176" lon="4.58048">
        <ele>670.7</ele>
        <time>2026-05-04T11:23:15Z</time>
      </trkpt>
      <trkpt lat="44.88181" lon="4.58057">
        <ele>670.3</ele>
        <time>2026-05-04T11:23:20Z</time>
      </trkpt>
      <trkpt lat="44.88186" lon="4.58064">
        <ele>670.2</ele>
        <time>2026-05-04T11:23:25Z</time>
      </trkpt>
      <trkpt lat="44.88191" lon="4.5807">
        <ele>670.4</ele>
        <time>2026-05-04T11:23:30Z</time>
      </trkpt>
      <trkpt lat="44.88197" lon="4.58076">
        <ele>670.8</ele>
        <time>2026-05-04T11:23:35Z</time>
      </trkpt>
      <trkpt lat="44.88202" lon="4.58082">
        <ele>671</ele>
        <time>2026-05-04T11:23:40Z</time>
      </trkpt>
      <trkpt lat="44.88207" lon="4.58087">
        <ele>671.5</ele>
        <time>2026-05-04T11:23:45Z</time>
      </trkpt>
      <trkpt lat="44.88212" lon="4.58093">
        <ele>671.9</ele>
        <time>2026-05-04T11:23:50Z</time>
      </trkpt>
      <trkpt lat="44.88217" lon="4.58099">
        <ele>672.3</ele>
        <time>2026-05-04T11:23:55Z</time>
      </trkpt>
      <trkpt lat="44.88222" lon="4.58107">
        <ele>672.3</ele>
        <time>2026-05-04T11:24:00Z</time>
      </trkpt>
      <trkpt lat="44.88224" lon="4.58113">
        <ele>671.8</ele>
        <time>2026-05-04T11:24:05Z</time>
      </trkpt>
      <trkpt lat="44.88225" lon="4.58116">
        <ele>671.6</ele>
        <time>2026-05-04T11:24:10Z</time>
      </trkpt>
    </trkseg>
  </trk>
  <trk>
    <name><![CDATA[visugpx_dsSFvrxmJk_1]]></name>
    <desc><![CDATA[]]></desc>
    <extensions>
      <line xmlns="http://www.topografix.com/GPX/gpx_style/0/2">
        <color>0000FF</color>
        <opacity>1</opacity>
        <width>4</width>
      </line>
    </extensions>
    <trkseg>
      <trkpt lat="44.91506" lon="4.4237">
        <ele>433.5</ele>
        <time>2026-05-06T05:20:52Z</time>
      </trkpt>
      <trkpt lat="44.91499" lon="4.42374">
        <ele>432.9</ele>
        <time>2026-05-06T05:20:57Z</time>
      </trkpt>
      <trkpt lat="44.91496" lon="4.42373">
        <ele>432.6</ele>
        <time>2026-05-06T05:21:02Z</time>
      </trkpt>
      <trkpt lat="44.91493" lon="4.42373">
        <ele>432.4</ele>
        <time>2026-05-06T05:21:07Z</time>
      </trkpt>
      <trkpt lat="44.91491" lon="4.42378">
        <ele>432.5</ele>
        <time>2026-05-06T05:21:12Z</time>
      </trkpt>
      <trkpt lat="44.91488" lon="4.42384">
        <ele>432.6</ele>
        <time>2026-05-06T05:21:17Z</time>
      </trkpt>
      <trkpt lat="44.91486" lon="4.42389">
        <ele>432.7</ele>
        <time>2026-05-06T05:21:22Z</time>
      </trkpt>
      <trkpt lat="44.91481" lon="4.42395">
        <ele>432.7</ele>
        <time>2026-05-06T05:21:27Z</time>
      </trkpt>
      <trkpt lat="44.91477" lon="4.42401">
        <ele>432.6</ele>
        <time>2026-05-06T05:21:32Z</time>
      </trkpt>
      <trkpt lat="44.91473" lon="4.42407">
        <ele>432.6</ele>
        <time>2026-05-06T05:21:37Z</time>
      </trkpt>
      <trkpt lat="44.9147" lon="4.42411">
        <ele>432.6</ele>
        <time>2026-05-06T05:21:42Z</time>
      </trkpt>
      <trkpt lat="44.91473" lon="4.42406">
        <ele>432.6</ele>
        <time>2026-05-06T05:21:47Z</time>
      </trkpt>
      <trkpt lat="44.91478" lon="4.424">
        <ele>432.7</ele>
        <time>2026-05-06T05:21:52Z</time>
      </trkpt>
      <trkpt lat="44.91483" lon="4.42393">
        <ele>432.7</ele>
        <time>2026-05-06T05:21:57Z</time>
      </trkpt>
      <trkpt lat="44.91487" lon="4.42387">
        <ele>432.7</ele>
        <time>2026-05-06T05:22:02Z</time>
      </trkpt>
      <trkpt lat="44.9149" lon="4.42384">
        <ele>432.8</ele>
        <time>2026-05-06T05:22:07Z</time>
      </trkpt>
      <trkpt lat="44.91495" lon="4.42377">
        <ele>432.8</ele>
        <time>2026-05-06T05:22:12Z</time>
      </trkpt>
      <trkpt lat="44.91497" lon="4.42373">
        <ele>432.7</ele>
        <time>2026-05-06T05:22:17Z</time>
      </trkpt>
      <trkpt lat="44.91497" lon="4.4237">
        <ele>432.6</ele>
        <time>2026-05-06T05:22:22Z</time>
      </trkpt>
      <trkpt lat="44.91501" lon="4.42361">
        <ele>432.5</ele>
        <time>2026-05-06T05:22:27Z</time>
      </trkpt>
      <trkpt lat="44.91504" lon="4.42353">
        <ele>432.4</ele>
        <time>2026-05-06T05:22:32Z</time>
      </trkpt>
      <trkpt lat="44.91508" lon="4.42346">
        <ele>432.6</ele>
        <time>2026-05-06T05:22:37Z</time>
      </trkpt>
      <trkpt lat="44.91509" lon="4.42344">
        <ele>432.6</ele>
        <time>2026-05-06T05:22:42Z</time>
      </trkpt>
      <trkpt lat="44.91509" lon="4.42343">
        <ele>432.6</ele>
        <time>2026-05-06T05:22:47Z</time>
      </trkpt>
      <trkpt lat="44.91512" lon="4.42337">
        <ele>432.6</ele>
        <time>2026-05-06T05:22:52Z</time>
      </trkpt>
      <trkpt lat="44.91516" lon="4.42329">
        <ele>432.8</ele>
        <time>2026-05-06T05:22:57Z</time>
      </trkpt>
      <trkpt lat="44.91521" lon="4.42322">
        <ele>433.1</ele>
        <time>2026-05-06T05:23:02Z</time>
      </trkpt>
      <trkpt lat="44.91525" lon="4.42313">
        <ele>433.2</ele>
        <time>2026-05-06T05:23:07Z</time>
      </trkpt>
      <trkpt lat="44.91529" lon="4.42307">
        <ele>433.3</ele>
        <time>2026-05-06T05:23:12Z</time>
      </trkpt>
      <trkpt lat="44.91533" lon="4.42298">
        <ele>433.2</ele>
        <time>2026-05-06T05:23:17Z</time>
      </trkpt>
      <trkpt lat="44.91539" lon="4.4229">
        <ele>433.2</ele>
        <time>2026-05-06T05:23:22Z</time>
      </trkpt>
      <trkpt lat="44.91542" lon="4.42287">
        <ele>433.2</ele>
        <time>2026-05-06T05:23:27Z</time>
      </trkpt>
      <trkpt lat="44.91544" lon="4.42284">
        <ele>433.2</ele>
        <time>2026-05-06T05:23:32Z</time>
      </trkpt>
      <trkpt lat="44.91545" lon="4.42281">
        <ele>433.1</ele>
        <time>2026-05-06T05:23:37Z</time>
      </trkpt>
      <trkpt lat="44.91545" lon="4.42281">
        <ele>433.1</ele>
        <time>2026-05-06T05:23:42Z</time>
      </trkpt>
      <trkpt lat="44.91546" lon="4.4228">
        <ele>433.1</ele>
        <time>2026-05-06T05:23:47Z</time>
      </trkpt>
      <trkpt lat="44.91549" lon="4.42274">
        <ele>432.8</ele>
        <time>2026-05-06T05:23:52Z</time>
      </trkpt>
      <trkpt lat="44.91552" lon="4.42267">
        <ele>432.5</ele>
        <time>2026-05-06T05:23:57Z</time>
      </trkpt>
      <trkpt lat="44.91558" lon="4.42261">
        <ele>432.3</ele>
        <time>2026-05-06T05:24:02Z</time>
      </trkpt>
      <trkpt lat="44.91562" lon="4.42255">
        <ele>431.9</ele>
        <time>2026-05-06T05:24:07Z</time>
      </trkpt>
      <trkpt lat="44.91566" lon="4.42248">
        <ele>431.6</ele>
        <time>2026-05-06T05:24:12Z</time>
      </trkpt>
      <trkpt lat="44.91572" lon="4.42242">
        <ele>431.8</ele>
        <time>2026-05-06T05:24:17Z</time>
      </trkpt>
      <trkpt lat="44.91578" lon="4.42236">
        <ele>431.9</ele>
        <time>2026-05-06T05:24:22Z</time>
      </trkpt>
      <trkpt lat="44.91583" lon="4.42226">
        <ele>432</ele>
        <time>2026-05-06T05:24:27Z</time>
      </trkpt>
      <trkpt lat="44.91586" lon="4.42218">
        <ele>432.5</ele>
        <time>2026-05-06T05:24:32Z</time>
      </trkpt>
      <trkpt lat="44.91593" lon="4.42212">
        <ele>433.8</ele>
        <time>2026-05-06T05:24:37Z</time>
      </trkpt>
      <trkpt lat="44.91597" lon="4.42205">
        <ele>434.4</ele>
        <time>2026-05-06T05:24:42Z</time>
      </trkpt>
      <trkpt lat="44.91603" lon="4.42197">
        <ele>435.2</ele>
        <time>2026-05-06T05:24:47Z</time>
      </trkpt>
      <trkpt lat="44.91607" lon="4.42191">
        <ele>435.6</ele>
        <time>2026-05-06T05:24:52Z</time>
      </trkpt>
      <trkpt lat="44.91613" lon="4.42185">
        <ele>436.1</ele>
        <time>2026-05-06T05:24:57Z</time>
      </trkpt>
      <trkpt lat="44.91618" lon="4.42179">
        <ele>436.5</ele>
        <time>2026-05-06T05:25:02Z</time>
      </trkpt>
      <trkpt lat="44.91624" lon="4.42171">
        <ele>436.7</ele>
        <time>2026-05-06T05:25:07Z</time>
      </trkpt>
      <trkpt lat="44.9163" lon="4.42164">
        <ele>437.1</ele>
        <time>2026-05-06T05:25:12Z</time>
      </trkpt>
      <trkpt lat="44.91636" lon="4.42157">
        <ele>437.8</ele>
        <time>2026-05-06T05:25:17Z</time>
      </trkpt>
      <trkpt lat="44.91641" lon="4.42151">
        <ele>438.2</ele>
        <time>2026-05-06T05:25:22Z</time>
      </trkpt>
      <trkpt lat="44.91643" lon="4.42149">
        <ele>438.4</ele>
        <time>2026-05-06T05:25:27Z</time>
      </trkpt>
      <trkpt lat="44.91643" lon="4.42149">
        <ele>438.4</ele>
        <time>2026-05-06T05:25:32Z</time>
      </trkpt>
      <trkpt lat="44.91642" lon="4.42147">
        <ele>438.3</ele>
        <time>2026-05-06T05:25:37Z</time>
      </trkpt>
      <trkpt lat="44.91642" lon="4.42147">
        <ele>438.3</ele>
        <time>2026-05-06T05:25:42Z</time>
      </trkpt>
      <trkpt lat="44.91643" lon="4.42146">
        <ele>438.4</ele>
        <time>2026-05-06T05:25:47Z</time>
      </trkpt>
      <trkpt lat="44.91649" lon="4.42142">
        <ele>438.7</ele>
        <time>2026-05-06T05:25:52Z</time>
      </trkpt>
      <trkpt lat="44.91653" lon="4.42134">
        <ele>438.8</ele>
        <time>2026-05-06T05:25:57Z</time>
      </trkpt>
      <trkpt lat="44.91657" lon="4.42125">
        <ele>438.7</ele>
        <time>2026-05-06T05:26:02Z</time>
      </trkpt>
      <trkpt lat="44.9166" lon="4.42116">
        <ele>438.5</ele>
        <time>2026-05-06T05:26:07Z</time>
      </trkpt>
      <trkpt lat="44.91666" lon="4.42108">
        <ele>438.2</ele>
        <time>2026-05-06T05:26:12Z</time>
      </trkpt>
      <trkpt lat="44.9167" lon="4.421">
        <ele>438.5</ele>
        <time>2026-05-06T05:26:17Z</time>
      </trkpt>
      <trkpt lat="44.91672" lon="4.42092">
        <ele>438.4</ele>
        <time>2026-05-06T05:26:22Z</time>
      </trkpt>
      <trkpt lat="44.91678" lon="4.42084">
        <ele>438.8</ele>
        <time>2026-05-06T05:26:27Z</time>
      </trkpt>
      <trkpt lat="44.91679" lon="4.42082">
        <ele>439</ele>
        <time>2026-05-06T05:26:32Z</time>
      </trkpt>
      <trkpt lat="44.91679" lon="4.42082">
        <ele>439</ele>
        <time>2026-05-06T05:26:37Z</time>
      </trkpt>
      <trkpt lat="44.91679" lon="4.42082">
        <ele>439</ele>
        <time>2026-05-06T05:26:42Z</time>
      </trkpt>
      <trkpt lat="44.91679" lon="4.42082">
        <ele>439</ele>
        <time>2026-05-06T05:26:47Z</time>
      </trkpt>
      <trkpt lat="44.91679" lon="4.42082">
        <ele>439</ele>
        <time>2026-05-06T05:26:52Z</time>
      </trkpt>
      <trkpt lat="44.91679" lon="4.42082">
        <ele>439</ele>
        <time>2026-05-06T05:26:57Z</time>
      </trkpt>
      <trkpt lat="44.91679" lon="4.42082">
        <ele>439</ele>
        <time>2026-05-06T05:27:02Z</time>
      </trkpt>
      <trkpt lat="44.91679" lon="4.42082">
        <ele>439</ele>
        <time>2026-05-06T05:27:07Z</time>
      </trkpt>
      <trkpt lat="44.91679" lon="4.42082">
        <ele>439</ele>
        <time>2026-05-06T05:27:12Z</time>
      </trkpt>
      <trkpt lat="44.91679" lon="4.42082">
        <ele>439</ele>
        <time>2026-05-06T05:27:17Z</time>
      </trkpt>
      <trkpt lat="44.91679" lon="4.42082">
        <ele>439</ele>
        <time>2026-05-06T05:27:22Z</time>
      </trkpt>
      <trkpt lat="44.91679" lon="4.42082">
        <ele>439</ele>
        <time>2026-05-06T05:27:27Z</time>
      </trkpt>
      <trkpt lat="44.91679" lon="4.42082">
        <ele>439</ele>
        <time>2026-05-06T05:27:32Z</time>
      </trkpt>
      <trkpt lat="44.91679" lon="4.42082">
        <ele>439</ele>
        <time>2026-05-06T05:27:37Z</time>
      </trkpt>
      <trkpt lat="44.91679" lon="4.42082">
        <ele>439</ele>
        <time>2026-05-06T05:27:42Z</time>
      </trkpt>
      <trkpt lat="44.91681" lon="4.42075">
        <ele>439.4</ele>
        <time>2026-05-06T05:27:47Z</time>
      </trkpt>
      <trkpt lat="44.91685" lon="4.42066">
        <ele>440.1</ele>
        <time>2026-05-06T05:27:52Z</time>
      </trkpt>
      <trkpt lat="44.91689" lon="4.42058">
        <ele>440.6</ele>
        <time>2026-05-06T05:27:57Z</time>
      </trkpt>
      <trkpt lat="44.91692" lon="4.42049">
        <ele>441</ele>
        <time>2026-05-06T05:28:02Z</time>
      </trkpt>
      <trkpt lat="44.91697" lon="4.42041">
        <ele>441.4</ele>
        <time>2026-05-06T05:28:07Z</time>
      </trkpt>
      <trkpt lat="44.91701" lon="4.42029">
        <ele>441.5</ele>
        <time>2026-05-06T05:28:12Z</time>
      </trkpt>
      <trkpt lat="44.91702" lon="4.42016">
        <ele>441.3</ele>
        <time>2026-05-06T05:28:17Z</time>
      </trkpt>
      <trkpt lat="44.91703" lon="4.42007">
        <ele>441.1</ele>
        <time>2026-05-06T05:28:22Z</time>
      </trkpt>
      <trkpt lat="44.91704" lon="4.41997">
        <ele>441.1</ele>
        <time>2026-05-06T05:28:27Z</time>
      </trkpt>
      <trkpt lat="44.91704" lon="4.41988">
        <ele>441.4</ele>
        <time>2026-05-06T05:28:32Z</time>
      </trkpt>
      <trkpt lat="44.91703" lon="4.41979">
        <ele>441.7</ele>
        <time>2026-05-06T05:28:37Z</time>
      </trkpt>
      <trkpt lat="44.91703" lon="4.41967">
        <ele>442.1</ele>
        <time>2026-05-06T05:28:42Z</time>
      </trkpt>
      <trkpt lat="44.91702" lon="4.41957">
        <ele>442.4</ele>
        <time>2026-05-06T05:28:47Z</time>
      </trkpt>
      <trkpt lat="44.917" lon="4.41946">
        <ele>442.8</ele>
        <time>2026-05-06T05:28:52Z</time>
      </trkpt>
      <trkpt lat="44.91698" lon="4.41942">
        <ele>443</ele>
        <time>2026-05-06T05:28:57Z</time>
      </trkpt>
      <trkpt lat="44.91697" lon="4.41938">
        <ele>443.2</ele>
        <time>2026-05-06T05:29:02Z</time>
      </trkpt>
      <trkpt lat="44.91696" lon="4.41928">
        <ele>443.5</ele>
        <time>2026-05-06T05:29:07Z</time>
      </trkpt>
      <trkpt lat="44.91698" lon="4.41917">
        <ele>443.9</ele>
        <time>2026-05-06T05:29:12Z</time>
      </trkpt>
      <trkpt lat="44.91697" lon="4.41907">
        <ele>444.6</ele>
        <time>2026-05-06T05:29:17Z</time>
      </trkpt>
      <trkpt lat="44.91696" lon="4.41896">
        <ele>445.3</ele>
        <time>2026-05-06T05:29:22Z</time>
      </trkpt>
      <trkpt lat="44.91692" lon="4.41889">
        <ele>445.8</ele>
        <time>2026-05-06T05:29:27Z</time>
      </trkpt>
      <trkpt lat="44.9169" lon="4.4188">
        <ele>446.3</ele>
        <time>2026-05-06T05:29:32Z</time>
      </trkpt>
      <trkpt lat="44.91688" lon="4.41871">
        <ele>446.9</ele>
        <time>2026-05-06T05:29:37Z</time>
      </trkpt>
      <trkpt lat="44.91688" lon="4.41863">
        <ele>447.3</ele>
        <time>2026-05-06T05:29:42Z</time>
      </trkpt>
      <trkpt lat="44.91686" lon="4.41854">
        <ele>447.8</ele>
        <time>2026-05-06T05:29:47Z</time>
      </trkpt>
      <trkpt lat="44.91683" lon="4.41846">
        <ele>448.1</ele>
        <time>2026-05-06T05:29:52Z</time>
      </trkpt>
      <trkpt lat="44.91683" lon="4.41834">
        <ele>448.7</ele>
        <time>2026-05-06T05:29:57Z</time>
      </trkpt>
      <trkpt lat="44.91682" lon="4.41822">
        <ele>449</ele>
        <time>2026-05-06T05:30:02Z</time>
      </trkpt>
      <trkpt lat="44.91677" lon="4.41813">
        <ele>448.7</ele>
        <time>2026-05-06T05:30:07Z</time>
      </trkpt>
      <trkpt lat="44.91674" lon="4.41802">
        <ele>448.4</ele>
        <time>2026-05-06T05:30:12Z</time>
      </trkpt>
      <trkpt lat="44.91671" lon="4.41793">
        <ele>448.1</ele>
        <time>2026-05-06T05:30:17Z</time>
      </trkpt>
      <trkpt lat="44.91667" lon="4.41783">
        <ele>447.4</ele>
        <time>2026-05-06T05:30:22Z</time>
      </trkpt>
      <trkpt lat="44.91663" lon="4.41775">
        <ele>449.3</ele>
        <time>2026-05-06T05:30:27Z</time>
      </trkpt>
      <trkpt lat="44.91663" lon="4.41775">
        <ele>449.3</ele>
        <time>2026-05-06T05:30:32Z</time>
      </trkpt>
      <trkpt lat="44.91663" lon="4.41775">
        <ele>449.3</ele>
        <time>2026-05-06T05:30:37Z</time>
      </trkpt>
      <trkpt lat="44.91661" lon="4.4177">
        <ele>450.3</ele>
        <time>2026-05-06T05:30:42Z</time>
      </trkpt>
      <trkpt lat="44.91657" lon="4.4176">
        <ele>452.4</ele>
        <time>2026-05-06T05:30:47Z</time>
      </trkpt>
      <trkpt lat="44.91653" lon="4.4175">
        <ele>454.5</ele>
        <time>2026-05-06T05:30:52Z</time>
      </trkpt>
      <trkpt lat="44.91649" lon="4.41742">
        <ele>456.6</ele>
        <time>2026-05-06T05:30:57Z</time>
      </trkpt>
      <trkpt lat="44.91645" lon="4.41732">
        <ele>458.5</ele>
        <time>2026-05-06T05:31:02Z</time>
      </trkpt>
      <trkpt lat="44.91641" lon="4.41723">
        <ele>460.2</ele>
        <time>2026-05-06T05:31:07Z</time>
      </trkpt>
      <trkpt lat="44.91637" lon="4.41713">
        <ele>461.7</ele>
        <time>2026-05-06T05:31:12Z</time>
      </trkpt>
      <trkpt lat="44.91634" lon="4.41702">
        <ele>462.6</ele>
        <time>2026-05-06T05:31:17Z</time>
      </trkpt>
      <trkpt lat="44.91631" lon="4.41693">
        <ele>463.4</ele>
        <time>2026-05-06T05:31:22Z</time>
      </trkpt>
      <trkpt lat="44.9163" lon="4.41682">
        <ele>463.1</ele>
        <time>2026-05-06T05:31:27Z</time>
      </trkpt>
      <trkpt lat="44.91628" lon="4.41671">
        <ele>463.2</ele>
        <time>2026-05-06T05:31:32Z</time>
      </trkpt>
      <trkpt lat="44.91628" lon="4.41662">
        <ele>462.5</ele>
        <time>2026-05-06T05:31:37Z</time>
      </trkpt>
      <trkpt lat="44.91627" lon="4.41651">
        <ele>461.7</ele>
        <time>2026-05-06T05:31:42Z</time>
      </trkpt>
      <trkpt lat="44.91627" lon="4.41641">
        <ele>460.7</ele>
        <time>2026-05-06T05:31:47Z</time>
      </trkpt>
      <trkpt lat="44.91628" lon="4.41632">
        <ele>459.5</ele>
        <time>2026-05-06T05:31:52Z</time>
      </trkpt>
      <trkpt lat="44.91629" lon="4.41623">
        <ele>458.2</ele>
        <time>2026-05-06T05:31:57Z</time>
      </trkpt>
      <trkpt lat="44.91629" lon="4.41612">
        <ele>457.1</ele>
        <time>2026-05-06T05:32:02Z</time>
      </trkpt>
      <trkpt lat="44.91631" lon="4.41601">
        <ele>455.4</ele>
        <time>2026-05-06T05:32:07Z</time>
      </trkpt>
      <trkpt lat="44.91635" lon="4.41593">
        <ele>453.4</ele>
        <time>2026-05-06T05:32:12Z</time>
      </trkpt>
      <trkpt lat="44.91637" lon="4.41583">
        <ele>451.9</ele>
        <time>2026-05-06T05:32:17Z</time>
      </trkpt>
      <trkpt lat="44.91645" lon="4.41575">
        <ele>449.9</ele>
        <time>2026-05-06T05:32:22Z</time>
      </trkpt>
      <trkpt lat="44.91654" lon="4.4157">
        <ele>447.5</ele>
        <time>2026-05-06T05:32:27Z</time>
      </trkpt>
      <trkpt lat="44.91661" lon="4.41564">
        <ele>445.8</ele>
        <time>2026-05-06T05:32:32Z</time>
      </trkpt>
      <trkpt lat="44.91668" lon="4.41556">
        <ele>444.9</ele>
        <time>2026-05-06T05:32:37Z</time>
      </trkpt>
      <trkpt lat="44.91673" lon="4.41551">
        <ele>446</ele>
        <time>2026-05-06T05:32:42Z</time>
      </trkpt>
      <trkpt lat="44.91677" lon="4.41547">
        <ele>446.8</ele>
        <time>2026-05-06T05:32:47Z</time>
      </trkpt>
      <trkpt lat="44.91678" lon="4.41545">
        <ele>446.9</ele>
        <time>2026-05-06T05:32:52Z</time>
      </trkpt>
      <trkpt lat="44.91682" lon="4.41543">
        <ele>447.5</ele>
        <time>2026-05-06T05:32:57Z</time>
      </trkpt>
      <trkpt lat="44.91683" lon="4.41541">
        <ele>447.7</ele>
        <time>2026-05-06T05:33:02Z</time>
      </trkpt>
      <trkpt lat="44.91683" lon="4.41541">
        <ele>447.7</ele>
        <time>2026-05-06T05:33:07Z</time>
      </trkpt>
      <trkpt lat="44.91683" lon="4.41541">
        <ele>447.7</ele>
        <time>2026-05-06T05:33:12Z</time>
      </trkpt>
      <trkpt lat="44.91683" lon="4.41541">
        <ele>447.7</ele>
        <time>2026-05-06T05:33:17Z</time>
      </trkpt>
      <trkpt lat="44.91687" lon="4.41539">
        <ele>448.1</ele>
        <time>2026-05-06T05:33:22Z</time>
      </trkpt>
      <trkpt lat="44.91694" lon="4.41538">
        <ele>449</ele>
        <time>2026-05-06T05:33:27Z</time>
      </trkpt>
      <trkpt lat="44.917" lon="4.41537">
        <ele>449.6</ele>
        <time>2026-05-06T05:33:32Z</time>
      </trkpt>
      <trkpt lat="44.91707" lon="4.41534">
        <ele>450.1</ele>
        <time>2026-05-06T05:33:37Z</time>
      </trkpt>
      <trkpt lat="44.91714" lon="4.41527">
        <ele>450</ele>
        <time>2026-05-06T05:33:42Z</time>
      </trkpt>
      <trkpt lat="44.91721" lon="4.4152">
        <ele>449.6</ele>
        <time>2026-05-06T05:33:47Z</time>
      </trkpt>
      <trkpt lat="44.91728" lon="4.41514">
        <ele>448.9</ele>
        <time>2026-05-06T05:33:52Z</time>
      </trkpt>
      <trkpt lat="44.91734" lon="4.41509">
        <ele>448.1</ele>
        <time>2026-05-06T05:33:57Z</time>
      </trkpt>
      <trkpt lat="44.91739" lon="4.41505">
        <ele>447.3</ele>
        <time>2026-05-06T05:34:02Z</time>
      </trkpt>
      <trkpt lat="44.91746" lon="4.415">
        <ele>446.1</ele>
        <time>2026-05-06T05:34:07Z</time>
      </trkpt>
      <trkpt lat="44.91751" lon="4.41492">
        <ele>446.9</ele>
        <time>2026-05-06T05:34:12Z</time>
      </trkpt>
      <trkpt lat="44.91757" lon="4.41485">
        <ele>449</ele>
        <time>2026-05-06T05:34:17Z</time>
      </trkpt>
      <trkpt lat="44.91761" lon="4.41475">
        <ele>450.4</ele>
        <time>2026-05-06T05:34:22Z</time>
      </trkpt>
      <trkpt lat="44.91765" lon="4.41465">
        <ele>451.6</ele>
        <time>2026-05-06T05:34:27Z</time>
      </trkpt>
      <trkpt lat="44.9177" lon="4.41455">
        <ele>452.7</ele>
        <time>2026-05-06T05:34:32Z</time>
      </trkpt>
      <trkpt lat="44.91774" lon="4.41445">
        <ele>453.3</ele>
        <time>2026-05-06T05:34:37Z</time>
      </trkpt>
      <trkpt lat="44.91777" lon="4.41433">
        <ele>453.5</ele>
        <time>2026-05-06T05:34:42Z</time>
      </trkpt>
      <trkpt lat="44.91782" lon="4.41423">
        <ele>453.6</ele>
        <time>2026-05-06T05:34:47Z</time>
      </trkpt>
      <trkpt lat="44.91786" lon="4.41415">
        <ele>453.7</ele>
        <time>2026-05-06T05:34:52Z</time>
      </trkpt>
      <trkpt lat="44.91792" lon="4.41408">
        <ele>455</ele>
        <time>2026-05-06T05:34:57Z</time>
      </trkpt>
      <trkpt lat="44.91795" lon="4.414">
        <ele>456.1</ele>
        <time>2026-05-06T05:35:02Z</time>
      </trkpt>
      <trkpt lat="44.91799" lon="4.41391">
        <ele>457.2</ele>
        <time>2026-05-06T05:35:07Z</time>
      </trkpt>
      <trkpt lat="44.91804" lon="4.41381">
        <ele>458.1</ele>
        <time>2026-05-06T05:35:12Z</time>
      </trkpt>
      <trkpt lat="44.91809" lon="4.41371">
        <ele>458.6</ele>
        <time>2026-05-06T05:35:17Z</time>
      </trkpt>
      <trkpt lat="44.91814" lon="4.41363">
        <ele>458.6</ele>
        <time>2026-05-06T05:35:22Z</time>
      </trkpt>
      <trkpt lat="44.9182" lon="4.41356">
        <ele>458.1</ele>
        <time>2026-05-06T05:35:27Z</time>
      </trkpt>
      <trkpt lat="44.91825" lon="4.41347">
        <ele>457.6</ele>
        <time>2026-05-06T05:35:32Z</time>
      </trkpt>
      <trkpt lat="44.91831" lon="4.41339">
        <ele>456.5</ele>
        <time>2026-05-06T05:35:37Z</time>
      </trkpt>
      <trkpt lat="44.91837" lon="4.4133">
        <ele>457.2</ele>
        <time>2026-05-06T05:35:42Z</time>
      </trkpt>
      <trkpt lat="44.91838" lon="4.41323">
        <ele>458.7</ele>
        <time>2026-05-06T05:35:47Z</time>
      </trkpt>
      <trkpt lat="44.91841" lon="4.41315">
        <ele>460.5</ele>
        <time>2026-05-06T05:35:52Z</time>
      </trkpt>
      <trkpt lat="44.91844" lon="4.41308">
        <ele>461.9</ele>
        <time>2026-05-06T05:35:57Z</time>
      </trkpt>
      <trkpt lat="44.91845" lon="4.41306">
        <ele>462.3</ele>
        <time>2026-05-06T05:36:02Z</time>
      </trkpt>
      <trkpt lat="44.91845" lon="4.41306">
        <ele>462.3</ele>
        <time>2026-05-06T05:36:07Z</time>
      </trkpt>
      <trkpt lat="44.91845" lon="4.41306">
        <ele>462.3</ele>
        <time>2026-05-06T05:36:12Z</time>
      </trkpt>
      <trkpt lat="44.91845" lon="4.41306">
        <ele>462.3</ele>
        <time>2026-05-06T05:36:17Z</time>
      </trkpt>
      <trkpt lat="44.91845" lon="4.41306">
        <ele>462.3</ele>
        <time>2026-05-06T05:36:22Z</time>
      </trkpt>
      <trkpt lat="44.91845" lon="4.41306">
        <ele>462.3</ele>
        <time>2026-05-06T05:36:27Z</time>
      </trkpt>
      <trkpt lat="44.91845" lon="4.41306">
        <ele>462.3</ele>
        <time>2026-05-06T05:36:32Z</time>
      </trkpt>
      <trkpt lat="44.91845" lon="4.41306">
        <ele>462.3</ele>
        <time>2026-05-06T05:36:37Z</time>
      </trkpt>
      <trkpt lat="44.91845" lon="4.41306">
        <ele>462.3</ele>
        <time>2026-05-06T05:36:42Z</time>
      </trkpt>
      <trkpt lat="44.91845" lon="4.41306">
        <ele>462.3</ele>
        <time>2026-05-06T05:36:47Z</time>
      </trkpt>
      <trkpt lat="44.91845" lon="4.41306">
        <ele>462.3</ele>
        <time>2026-05-06T05:36:52Z</time>
      </trkpt>
      <trkpt lat="44.91845" lon="4.41306">
        <ele>462.3</ele>
        <time>2026-05-06T05:36:57Z</time>
      </trkpt>
      <trkpt lat="44.91845" lon="4.41306">
        <ele>462.3</ele>
        <time>2026-05-06T05:37:02Z</time>
      </trkpt>
      <trkpt lat="44.91847" lon="4.41301">
        <ele>463.1</ele>
        <time>2026-05-06T05:37:07Z</time>
      </trkpt>
      <trkpt lat="44.91851" lon="4.41295">
        <ele>463.9</ele>
        <time>2026-05-06T05:37:12Z</time>
      </trkpt>
      <trkpt lat="44.91854" lon="4.41287">
        <ele>464.8</ele>
        <time>2026-05-06T05:37:17Z</time>
      </trkpt>
      <trkpt lat="44.91857" lon="4.41278">
        <ele>465.6</ele>
        <time>2026-05-06T05:37:22Z</time>
      </trkpt>
      <trkpt lat="44.91861" lon="4.41269">
        <ele>466</ele>
        <time>2026-05-06T05:37:27Z</time>
      </trkpt>
      <trkpt lat="44.91863" lon="4.41261">
        <ele>466.4</ele>
        <time>2026-05-06T05:37:32Z</time>
      </trkpt>
      <trkpt lat="44.91871" lon="4.41252">
        <ele>465.3</ele>
        <time>2026-05-06T05:37:37Z</time>
      </trkpt>
      <trkpt lat="44.91877" lon="4.41243">
        <ele>464.9</ele>
        <time>2026-05-06T05:37:42Z</time>
      </trkpt>
      <trkpt lat="44.91882" lon="4.41237">
        <ele>464.3</ele>
        <time>2026-05-06T05:37:47Z</time>
      </trkpt>
      <trkpt lat="44.91888" lon="4.41231">
        <ele>463.3</ele>
        <time>2026-05-06T05:37:52Z</time>
      </trkpt>
      <trkpt lat="44.91894" lon="4.41226">
        <ele>462.1</ele>
        <time>2026-05-06T05:37:57Z</time>
      </trkpt>
      <trkpt lat="44.91898" lon="4.4122">
        <ele>461.3</ele>
        <time>2026-05-06T05:38:02Z</time>
      </trkpt>
      <trkpt lat="44.91906" lon="4.41217">
        <ele>459.1</ele>
        <time>2026-05-06T05:38:07Z</time>
      </trkpt>
      <trkpt lat="44.91914" lon="4.41216">
        <ele>456.6</ele>
        <time>2026-05-06T05:38:12Z</time>
      </trkpt>
      <trkpt lat="44.91921" lon="4.41213">
        <ele>456.8</ele>
        <time>2026-05-06T05:38:17Z</time>
      </trkpt>
      <trkpt lat="44.91926" lon="4.41209">
        <ele>457.8</ele>
        <time>2026-05-06T05:38:22Z</time>
      </trkpt>
      <trkpt lat="44.91931" lon="4.41204">
        <ele>458.6</ele>
        <time>2026-05-06T05:38:27Z</time>
      </trkpt>
      <trkpt lat="44.91939" lon="4.41202">
        <ele>459.9</ele>
        <time>2026-05-06T05:38:32Z</time>
      </trkpt>
      <trkpt lat="44.91947" lon="4.41199">
        <ele>460.9</ele>
        <time>2026-05-06T05:38:37Z</time>
      </trkpt>
      <trkpt lat="44.91956" lon="4.41194">
        <ele>461.6</ele>
        <time>2026-05-06T05:38:42Z</time>
      </trkpt>
      <trkpt lat="44.91962" lon="4.41191">
        <ele>462</ele>
        <time>2026-05-06T05:38:47Z</time>
      </trkpt>
      <trkpt lat="44.91969" lon="4.4119">
        <ele>462.6</ele>
        <time>2026-05-06T05:38:52Z</time>
      </trkpt>
      <trkpt lat="44.91976" lon="4.41186">
        <ele>462.6</ele>
        <time>2026-05-06T05:38:57Z</time>
      </trkpt>
      <trkpt lat="44.91984" lon="4.41183">
        <ele>462.7</ele>
        <time>2026-05-06T05:39:02Z</time>
      </trkpt>
      <trkpt lat="44.9199" lon="4.4118">
        <ele>462.4</ele>
        <time>2026-05-06T05:39:07Z</time>
      </trkpt>
      <trkpt lat="44.91999" lon="4.41178">
        <ele>462.5</ele>
        <time>2026-05-06T05:39:12Z</time>
      </trkpt>
      <trkpt lat="44.92007" lon="4.41174">
        <ele>462.8</ele>
        <time>2026-05-06T05:39:17Z</time>
      </trkpt>
      <trkpt lat="44.9201" lon="4.41169">
        <ele>461.8</ele>
        <time>2026-05-06T05:39:22Z</time>
      </trkpt>
      <trkpt lat="44.92011" lon="4.41169">
        <ele>462</ele>
        <time>2026-05-06T05:39:27Z</time>
      </trkpt>
      <trkpt lat="44.92016" lon="4.41167">
        <ele>462.4</ele>
        <time>2026-05-06T05:39:32Z</time>
      </trkpt>
      <trkpt lat="44.92025" lon="4.41165">
        <ele>463.9</ele>
        <time>2026-05-06T05:39:37Z</time>
      </trkpt>
      <trkpt lat="44.92033" lon="4.41162">
        <ele>465.1</ele>
        <time>2026-05-06T05:39:42Z</time>
      </trkpt>
      <trkpt lat="44.9204" lon="4.41156">
        <ele>465.6</ele>
        <time>2026-05-06T05:39:47Z</time>
      </trkpt>
      <trkpt lat="44.92046" lon="4.4115">
        <ele>465.5</ele>
        <time>2026-05-06T05:39:52Z</time>
      </trkpt>
      <trkpt lat="44.92054" lon="4.41145">
        <ele>465.7</ele>
        <time>2026-05-06T05:39:57Z</time>
      </trkpt>
      <trkpt lat="44.9206" lon="4.41139">
        <ele>465.2</ele>
        <time>2026-05-06T05:40:02Z</time>
      </trkpt>
      <trkpt lat="44.92065" lon="4.41133">
        <ele>464.3</ele>
        <time>2026-05-06T05:40:07Z</time>
      </trkpt>
      <trkpt lat="44.92071" lon="4.41128">
        <ele>463.5</ele>
        <time>2026-05-06T05:40:12Z</time>
      </trkpt>
      <trkpt lat="44.92077" lon="4.41122">
        <ele>462.3</ele>
        <time>2026-05-06T05:40:17Z</time>
      </trkpt>
      <trkpt lat="44.92083" lon="4.41117">
        <ele>461.1</ele>
        <time>2026-05-06T05:40:22Z</time>
      </trkpt>
      <trkpt lat="44.92084" lon="4.41118">
        <ele>461.6</ele>
        <time>2026-05-06T05:40:27Z</time>
      </trkpt>
      <trkpt lat="44.92084" lon="4.41118">
        <ele>461.6</ele>
        <time>2026-05-06T05:40:32Z</time>
      </trkpt>
      <trkpt lat="44.92084" lon="4.41118">
        <ele>461.6</ele>
        <time>2026-05-06T05:40:37Z</time>
      </trkpt>
      <trkpt lat="44.92084" lon="4.41118">
        <ele>461.6</ele>
        <time>2026-05-06T05:40:42Z</time>
      </trkpt>
      <trkpt lat="44.92084" lon="4.41118">
        <ele>461.6</ele>
        <time>2026-05-06T05:40:47Z</time>
      </trkpt>
      <trkpt lat="44.9209" lon="4.41115">
        <ele>462.3</ele>
        <time>2026-05-06T05:40:52Z</time>
      </trkpt>
      <trkpt lat="44.92095" lon="4.41109">
        <ele>461.7</ele>
        <time>2026-05-06T05:40:57Z</time>
      </trkpt>
      <trkpt lat="44.92101" lon="4.41104">
        <ele>461.6</ele>
        <time>2026-05-06T05:41:02Z</time>
      </trkpt>
      <trkpt lat="44.92106" lon="4.41096">
        <ele>460.2</ele>
        <time>2026-05-06T05:41:07Z</time>
      </trkpt>
      <trkpt lat="44.9211" lon="4.41088">
        <ele>458.4</ele>
        <time>2026-05-06T05:41:12Z</time>
      </trkpt>
      <trkpt lat="44.92115" lon="4.4108">
        <ele>458</ele>
        <time>2026-05-06T05:41:17Z</time>
      </trkpt>
      <trkpt lat="44.92118" lon="4.41071">
        <ele>458.9</ele>
        <time>2026-05-06T05:41:22Z</time>
      </trkpt>
      <trkpt lat="44.92121" lon="4.4106">
        <ele>459.5</ele>
        <time>2026-05-06T05:41:27Z</time>
      </trkpt>
      <trkpt lat="44.92125" lon="4.41047">
        <ele>460</ele>
        <time>2026-05-06T05:41:32Z</time>
      </trkpt>
      <trkpt lat="44.92126" lon="4.41039">
        <ele>460</ele>
        <time>2026-05-06T05:41:37Z</time>
      </trkpt>
      <trkpt lat="44.92128" lon="4.4103">
        <ele>460</ele>
        <time>2026-05-06T05:41:42Z</time>
      </trkpt>
      <trkpt lat="44.92131" lon="4.4102">
        <ele>459.7</ele>
        <time>2026-05-06T05:41:47Z</time>
      </trkpt>
      <trkpt lat="44.92134" lon="4.41011">
        <ele>459.1</ele>
        <time>2026-05-06T05:41:52Z</time>
      </trkpt>
      <trkpt lat="44.92138" lon="4.41001">
        <ele>458.2</ele>
        <time>2026-05-06T05:41:57Z</time>
      </trkpt>
      <trkpt lat="44.9214" lon="4.40993">
        <ele>458.4</ele>
        <time>2026-05-06T05:42:02Z</time>
      </trkpt>
      <trkpt lat="44.92141" lon="4.40983">
        <ele>458.9</ele>
        <time>2026-05-06T05:42:07Z</time>
      </trkpt>
      <trkpt lat="44.92143" lon="4.40975">
        <ele>459.1</ele>
        <time>2026-05-06T05:42:12Z</time>
      </trkpt>
      <trkpt lat="44.92142" lon="4.40966">
        <ele>459.9</ele>
        <time>2026-05-06T05:42:17Z</time>
      </trkpt>
      <trkpt lat="44.92141" lon="4.40954">
        <ele>461</ele>
        <time>2026-05-06T05:42:22Z</time>
      </trkpt>
      <trkpt lat="44.92139" lon="4.40941">
        <ele>462.5</ele>
        <time>2026-05-06T05:42:27Z</time>
      </trkpt>
      <trkpt lat="44.92138" lon="4.40931">
        <ele>463.5</ele>
        <time>2026-05-06T05:42:32Z</time>
      </trkpt>
      <trkpt lat="44.92137" lon="4.4092">
        <ele>464.6</ele>
        <time>2026-05-06T05:42:37Z</time>
      </trkpt>
      <trkpt lat="44.92137" lon="4.40909">
        <ele>465</ele>
        <time>2026-05-06T05:42:42Z</time>
      </trkpt>
      <trkpt lat="44.92135" lon="4.40899">
        <ele>465.8</ele>
        <time>2026-05-06T05:42:47Z</time>
      </trkpt>
      <trkpt lat="44.92134" lon="4.40886">
        <ele>466.3</ele>
        <time>2026-05-06T05:42:52Z</time>
      </trkpt>
      <trkpt lat="44.92132" lon="4.40875">
        <ele>467.1</ele>
        <time>2026-05-06T05:42:57Z</time>
      </trkpt>
      <trkpt lat="44.92131" lon="4.40865">
        <ele>467.5</ele>
        <time>2026-05-06T05:43:02Z</time>
      </trkpt>
      <trkpt lat="44.92134" lon="4.40855">
        <ele>466.9</ele>
        <time>2026-05-06T05:43:07Z</time>
      </trkpt>
      <trkpt lat="44.92137" lon="4.40847">
        <ele>466.2</ele>
        <time>2026-05-06T05:43:12Z</time>
      </trkpt>
      <trkpt lat="44.92135" lon="4.40844">
        <ele>466.8</ele>
        <time>2026-05-06T05:43:17Z</time>
      </trkpt>
      <trkpt lat="44.92133" lon="4.40844">
        <ele>467.3</ele>
        <time>2026-05-06T05:43:22Z</time>
      </trkpt>
      <trkpt lat="44.92133" lon="4.40844">
        <ele>467.3</ele>
        <time>2026-05-06T05:43:27Z</time>
      </trkpt>
      <trkpt lat="44.92133" lon="4.40844">
        <ele>467.3</ele>
        <time>2026-05-06T05:43:32Z</time>
      </trkpt>
      <trkpt lat="44.92129" lon="4.40844">
        <ele>468.3</ele>
        <time>2026-05-06T05:43:37Z</time>
      </trkpt>
      <trkpt lat="44.92129" lon="4.40834">
        <ele>468.5</ele>
        <time>2026-05-06T05:43:42Z</time>
      </trkpt>
      <trkpt lat="44.92129" lon="4.40824">
        <ele>468.4</ele>
        <time>2026-05-06T05:43:47Z</time>
      </trkpt>
      <trkpt lat="44.92131" lon="4.40816">
        <ele>467.8</ele>
        <time>2026-05-06T05:43:52Z</time>
      </trkpt>
      <trkpt lat="44.92133" lon="4.40807">
        <ele>467.3</ele>
        <time>2026-05-06T05:43:57Z</time>
      </trkpt>
      <trkpt lat="44.92136" lon="4.40799">
        <ele>466.7</ele>
        <time>2026-05-06T05:44:02Z</time>
      </trkpt>
      <trkpt lat="44.92139" lon="4.4079">
        <ele>466.2</ele>
        <time>2026-05-06T05:44:07Z</time>
      </trkpt>
      <trkpt lat="44.92141" lon="4.40781">
        <ele>465.9</ele>
        <time>2026-05-06T05:44:12Z</time>
      </trkpt>
      <trkpt lat="44.9214" lon="4.40772">
        <ele>466.1</ele>
        <time>2026-05-06T05:44:17Z</time>
      </trkpt>
      <trkpt lat="44.92146" lon="4.40763">
        <ele>465.3</ele>
        <time>2026-05-06T05:44:22Z</time>
      </trkpt>
      <trkpt lat="44.92151" lon="4.40754">
        <ele>464.8</ele>
        <time>2026-05-06T05:44:27Z</time>
      </trkpt>
      <trkpt lat="44.92156" lon="4.40745">
        <ele>464.2</ele>
        <time>2026-05-06T05:44:32Z</time>
      </trkpt>
      <trkpt lat="44.92162" lon="4.4074">
        <ele>463.4</ele>
        <time>2026-05-06T05:44:37Z</time>
      </trkpt>
      <trkpt lat="44.92173" lon="4.40736">
        <ele>464.5</ele>
        <time>2026-05-06T05:44:42Z</time>
      </trkpt>
      <trkpt lat="44.92179" lon="4.40734">
        <ele>466.1</ele>
        <time>2026-05-06T05:44:47Z</time>
      </trkpt>
      <trkpt lat="44.92179" lon="4.40734">
        <ele>466.1</ele>
        <time>2026-05-06T05:44:52Z</time>
      </trkpt>
      <trkpt lat="44.92179" lon="4.40734">
        <ele>466.1</ele>
        <time>2026-05-06T05:44:57Z</time>
      </trkpt>
      <trkpt lat="44.92179" lon="4.40734">
        <ele>466.1</ele>
        <time>2026-05-06T05:45:02Z</time>
      </trkpt>
      <trkpt lat="44.92179" lon="4.40734">
        <ele>466.1</ele>
        <time>2026-05-06T05:45:07Z</time>
      </trkpt>
      <trkpt lat="44.92182" lon="4.4073">
        <ele>466.7</ele>
        <time>2026-05-06T05:45:12Z</time>
      </trkpt>
      <trkpt lat="44.92187" lon="4.40727">
        <ele>467.7</ele>
        <time>2026-05-06T05:45:17Z</time>
      </trkpt>
      <trkpt lat="44.92194" lon="4.40723">
        <ele>469</ele>
        <time>2026-05-06T05:45:22Z</time>
      </trkpt>
      <trkpt lat="44.92196" lon="4.40722">
        <ele>469.3</ele>
        <time>2026-05-06T05:45:27Z</time>
      </trkpt>
      <trkpt lat="44.92196" lon="4.40722">
        <ele>469.3</ele>
        <time>2026-05-06T05:45:32Z</time>
      </trkpt>
      <trkpt lat="44.92196" lon="4.40722">
        <ele>469.3</ele>
        <time>2026-05-06T05:45:37Z</time>
      </trkpt>
      <trkpt lat="44.92196" lon="4.40722">
        <ele>469.3</ele>
        <time>2026-05-06T05:45:42Z</time>
      </trkpt>
      <trkpt lat="44.92196" lon="4.40722">
        <ele>469.3</ele>
        <time>2026-05-06T05:45:47Z</time>
      </trkpt>
      <trkpt lat="44.92196" lon="4.40722">
        <ele>469.3</ele>
        <time>2026-05-06T05:45:52Z</time>
      </trkpt>
      <trkpt lat="44.92196" lon="4.40722">
        <ele>469.3</ele>
        <time>2026-05-06T05:45:57Z</time>
      </trkpt>
      <trkpt lat="44.92201" lon="4.40717">
        <ele>469.8</ele>
        <time>2026-05-06T05:46:02Z</time>
      </trkpt>
      <trkpt lat="44.92203" lon="4.40718">
        <ele>470.4</ele>
        <time>2026-05-06T05:46:07Z</time>
      </trkpt>
      <trkpt lat="44.92212" lon="4.40721">
        <ele>473</ele>
        <time>2026-05-06T05:46:12Z</time>
      </trkpt>
      <trkpt lat="44.92221" lon="4.40723">
        <ele>475.6</ele>
        <time>2026-05-06T05:46:17Z</time>
      </trkpt>
      <trkpt lat="44.92227" lon="4.40727">
        <ele>478</ele>
        <time>2026-05-06T05:46:22Z</time>
      </trkpt>
      <trkpt lat="44.92228" lon="4.40723">
        <ele>477.3</ele>
        <time>2026-05-06T05:46:27Z</time>
      </trkpt>
      <trkpt lat="44.92231" lon="4.40722">
        <ele>477.7</ele>
        <time>2026-05-06T05:46:32Z</time>
      </trkpt>
      <trkpt lat="44.92239" lon="4.40723">
        <ele>479.9</ele>
        <time>2026-05-06T05:46:37Z</time>
      </trkpt>
      <trkpt lat="44.92246" lon="4.40726">
        <ele>482.6</ele>
        <time>2026-05-06T05:46:42Z</time>
      </trkpt>
      <trkpt lat="44.92254" lon="4.40728">
        <ele>484.8</ele>
        <time>2026-05-06T05:46:47Z</time>
      </trkpt>
      <trkpt lat="44.92262" lon="4.40733">
        <ele>487.4</ele>
        <time>2026-05-06T05:46:52Z</time>
      </trkpt>
      <trkpt lat="44.9227" lon="4.40734">
        <ele>488.7</ele>
        <time>2026-05-06T05:46:57Z</time>
      </trkpt>
      <trkpt lat="44.92279" lon="4.40734">
        <ele>489.7</ele>
        <time>2026-05-06T05:47:02Z</time>
      </trkpt>
      <trkpt lat="44.92287" lon="4.40735">
        <ele>491.1</ele>
        <time>2026-05-06T05:47:07Z</time>
      </trkpt>
      <trkpt lat="44.92293" lon="4.40732">
        <ele>490.5</ele>
        <time>2026-05-06T05:47:12Z</time>
      </trkpt>
      <trkpt lat="44.92294" lon="4.4073">
        <ele>489.7</ele>
        <time>2026-05-06T05:47:17Z</time>
      </trkpt>
      <trkpt lat="44.92294" lon="4.4073">
        <ele>489.7</ele>
        <time>2026-05-06T05:47:22Z</time>
      </trkpt>
      <trkpt lat="44.92294" lon="4.4073">
        <ele>489.7</ele>
        <time>2026-05-06T05:47:27Z</time>
      </trkpt>
      <trkpt lat="44.92294" lon="4.4073">
        <ele>489.7</ele>
        <time>2026-05-06T05:47:32Z</time>
      </trkpt>
      <trkpt lat="44.92294" lon="4.4073">
        <ele>489.7</ele>
        <time>2026-05-06T05:47:37Z</time>
      </trkpt>
      <trkpt lat="44.92294" lon="4.4073">
        <ele>489.7</ele>
        <time>2026-05-06T05:47:42Z</time>
      </trkpt>
      <trkpt lat="44.92294" lon="4.4073">
        <ele>489.7</ele>
        <time>2026-05-06T05:47:47Z</time>
      </trkpt>
      <trkpt lat="44.92294" lon="4.4073">
        <ele>489.7</ele>
        <time>2026-05-06T05:47:52Z</time>
      </trkpt>
      <trkpt lat="44.92294" lon="4.4073">
        <ele>489.7</ele>
        <time>2026-05-06T05:47:57Z</time>
      </trkpt>
      <trkpt lat="44.92294" lon="4.4073">
        <ele>489.7</ele>
        <time>2026-05-06T05:48:02Z</time>
      </trkpt>
      <trkpt lat="44.92294" lon="4.4073">
        <ele>489.7</ele>
        <time>2026-05-06T05:48:07Z</time>
      </trkpt>
      <trkpt lat="44.92294" lon="4.4073">
        <ele>489.7</ele>
        <time>2026-05-06T05:48:12Z</time>
      </trkpt>
      <trkpt lat="44.92294" lon="4.4073">
        <ele>489.7</ele>
        <time>2026-05-06T05:48:17Z</time>
      </trkpt>
      <trkpt lat="44.92294" lon="4.4073">
        <ele>489.7</ele>
        <time>2026-05-06T05:48:22Z</time>
      </trkpt>
      <trkpt lat="44.92294" lon="4.4073">
        <ele>489.7</ele>
        <time>2026-05-06T05:48:27Z</time>
      </trkpt>
      <trkpt lat="44.92294" lon="4.4073">
        <ele>489.7</ele>
        <time>2026-05-06T05:48:32Z</time>
      </trkpt>
      <trkpt lat="44.92294" lon="4.4073">
        <ele>489.7</ele>
        <time>2026-05-06T05:48:37Z</time>
      </trkpt>
      <trkpt lat="44.92294" lon="4.4073">
        <ele>489.7</ele>
        <time>2026-05-06T05:48:42Z</time>
      </trkpt>
      <trkpt lat="44.92294" lon="4.4073">
        <ele>489.7</ele>
        <time>2026-05-06T05:48:47Z</time>
      </trkpt>
      <trkpt lat="44.92294" lon="4.4073">
        <ele>489.7</ele>
        <time>2026-05-06T05:48:52Z</time>
      </trkpt>
      <trkpt lat="44.92294" lon="4.4073">
        <ele>489.7</ele>
        <time>2026-05-06T05:48:57Z</time>
      </trkpt>
      <trkpt lat="44.92294" lon="4.4073">
        <ele>489.7</ele>
        <time>2026-05-06T05:49:02Z</time>
      </trkpt>
      <trkpt lat="44.92294" lon="4.4073">
        <ele>489.7</ele>
        <time>2026-05-06T05:49:07Z</time>
      </trkpt>
      <trkpt lat="44.92296" lon="4.40729">
        <ele>489.5</ele>
        <time>2026-05-06T05:49:12Z</time>
      </trkpt>
      <trkpt lat="44.92302" lon="4.40728">
        <ele>489.7</ele>
        <time>2026-05-06T05:49:17Z</time>
      </trkpt>
      <trkpt lat="44.92309" lon="4.40725">
        <ele>489</ele>
        <time>2026-05-06T05:49:22Z</time>
      </trkpt>
      <trkpt lat="44.92315" lon="4.40722">
        <ele>488.2</ele>
        <time>2026-05-06T05:49:27Z</time>
      </trkpt>
      <trkpt lat="44.92321" lon="4.40717">
        <ele>486.4</ele>
        <time>2026-05-06T05:49:32Z</time>
      </trkpt>
      <trkpt lat="44.92327" lon="4.40712">
        <ele>484.4</ele>
        <time>2026-05-06T05:49:37Z</time>
      </trkpt>
      <trkpt lat="44.92334" lon="4.40706">
        <ele>481.9</ele>
        <time>2026-05-06T05:49:42Z</time>
      </trkpt>
      <trkpt lat="44.9234" lon="4.407">
        <ele>479.5</ele>
        <time>2026-05-06T05:49:47Z</time>
      </trkpt>
      <trkpt lat="44.92347" lon="4.40694">
        <ele>477.3</ele>
        <time>2026-05-06T05:49:52Z</time>
      </trkpt>
      <trkpt lat="44.92354" lon="4.40688">
        <ele>475.2</ele>
        <time>2026-05-06T05:49:57Z</time>
      </trkpt>
      <trkpt lat="44.92361" lon="4.40684">
        <ele>474</ele>
        <time>2026-05-06T05:50:02Z</time>
      </trkpt>
      <trkpt lat="44.92368" lon="4.40679">
        <ele>472.5</ele>
        <time>2026-05-06T05:50:07Z</time>
      </trkpt>
      <trkpt lat="44.92375" lon="4.40674">
        <ele>471</ele>
        <time>2026-05-06T05:50:12Z</time>
      </trkpt>
      <trkpt lat="44.92382" lon="4.40669">
        <ele>469.5</ele>
        <time>2026-05-06T05:50:17Z</time>
      </trkpt>
      <trkpt lat="44.92389" lon="4.40664">
        <ele>469.2</ele>
        <time>2026-05-06T05:50:22Z</time>
      </trkpt>
      <trkpt lat="44.92395" lon="4.40658">
        <ele>469.5</ele>
        <time>2026-05-06T05:50:27Z</time>
      </trkpt>
      <trkpt lat="44.924" lon="4.40653">
        <ele>469.8</ele>
        <time>2026-05-06T05:50:32Z</time>
      </trkpt>
      <trkpt lat="44.92405" lon="4.40648">
        <ele>470</ele>
        <time>2026-05-06T05:50:37Z</time>
      </trkpt>
      <trkpt lat="44.92411" lon="4.40643">
        <ele>470.3</ele>
        <time>2026-05-06T05:50:42Z</time>
      </trkpt>
      <trkpt lat="44.92417" lon="4.40637">
        <ele>470.6</ele>
        <time>2026-05-06T05:50:47Z</time>
      </trkpt>
      <trkpt lat="44.92421" lon="4.40631">
        <ele>470.9</ele>
        <time>2026-05-06T05:50:52Z</time>
      </trkpt>
      <trkpt lat="44.92427" lon="4.4062">
        <ele>471.2</ele>
        <time>2026-05-06T05:50:57Z</time>
      </trkpt>
      <trkpt lat="44.92431" lon="4.40612">
        <ele>471.4</ele>
        <time>2026-05-06T05:51:02Z</time>
      </trkpt>
      <trkpt lat="44.92436" lon="4.40604">
        <ele>471.9</ele>
        <time>2026-05-06T05:51:07Z</time>
      </trkpt>
      <trkpt lat="44.92439" lon="4.40595">
        <ele>471.9</ele>
        <time>2026-05-06T05:51:12Z</time>
      </trkpt>
      <trkpt lat="44.9244" lon="4.40584">
        <ele>471.4</ele>
        <time>2026-05-06T05:51:17Z</time>
      </trkpt>
      <trkpt lat="44.92441" lon="4.40575">
        <ele>471.6</ele>
        <time>2026-05-06T05:51:22Z</time>
      </trkpt>
      <trkpt lat="44.92444" lon="4.40567">
        <ele>472.4</ele>
        <time>2026-05-06T05:51:27Z</time>
      </trkpt>
      <trkpt lat="44.92446" lon="4.40558">
        <ele>472.9</ele>
        <time>2026-05-06T05:51:32Z</time>
      </trkpt>
      <trkpt lat="44.92448" lon="4.40549">
        <ele>473.3</ele>
        <time>2026-05-06T05:51:37Z</time>
      </trkpt>
      <trkpt lat="44.92452" lon="4.40538">
        <ele>474.2</ele>
        <time>2026-05-06T05:51:42Z</time>
      </trkpt>
      <trkpt lat="44.92453" lon="4.40528">
        <ele>474.5</ele>
        <time>2026-05-06T05:51:47Z</time>
      </trkpt>
      <trkpt lat="44.92453" lon="4.40516">
        <ele>474.5</ele>
        <time>2026-05-06T05:51:52Z</time>
      </trkpt>
      <trkpt lat="44.92454" lon="4.40503">
        <ele>474.7</ele>
        <time>2026-05-06T05:51:57Z</time>
      </trkpt>
      <trkpt lat="44.92455" lon="4.40492">
        <ele>474.3</ele>
        <time>2026-05-06T05:52:02Z</time>
      </trkpt>
      <trkpt lat="44.92457" lon="4.40481">
        <ele>473.8</ele>
        <time>2026-05-06T05:52:07Z</time>
      </trkpt>
      <trkpt lat="44.92459" lon="4.4047">
        <ele>473.3</ele>
        <time>2026-05-06T05:52:12Z</time>
      </trkpt>
      <trkpt lat="44.92464" lon="4.4046">
        <ele>473.1</ele>
        <time>2026-05-06T05:52:17Z</time>
      </trkpt>
      <trkpt lat="44.92468" lon="4.40451">
        <ele>472.8</ele>
        <time>2026-05-06T05:52:22Z</time>
      </trkpt>
      <trkpt lat="44.92471" lon="4.40442">
        <ele>472.3</ele>
        <time>2026-05-06T05:52:27Z</time>
      </trkpt>
      <trkpt lat="44.92477" lon="4.40434">
        <ele>472.1</ele>
        <time>2026-05-06T05:52:32Z</time>
      </trkpt>
      <trkpt lat="44.92481" lon="4.40427">
        <ele>471.7</ele>
        <time>2026-05-06T05:52:37Z</time>
      </trkpt>
      <trkpt lat="44.92485" lon="4.4042">
        <ele>471.3</ele>
        <time>2026-05-06T05:52:42Z</time>
      </trkpt>
      <trkpt lat="44.9249" lon="4.4041">
        <ele>471</ele>
        <time>2026-05-06T05:52:47Z</time>
      </trkpt>
      <trkpt lat="44.92493" lon="4.40404">
        <ele>471</ele>
        <time>2026-05-06T05:52:52Z</time>
      </trkpt>
      <trkpt lat="44.92492" lon="4.40402">
        <ele>470.9</ele>
        <time>2026-05-06T05:52:57Z</time>
      </trkpt>
      <trkpt lat="44.92492" lon="4.40402">
        <ele>470.9</ele>
        <time>2026-05-06T05:53:02Z</time>
      </trkpt>
      <trkpt lat="44.92492" lon="4.40402">
        <ele>470.9</ele>
        <time>2026-05-06T05:53:07Z</time>
      </trkpt>
      <trkpt lat="44.92492" lon="4.40402">
        <ele>470.9</ele>
        <time>2026-05-06T05:53:12Z</time>
      </trkpt>
      <trkpt lat="44.92496" lon="4.40399">
        <ele>471</ele>
        <time>2026-05-06T05:53:17Z</time>
      </trkpt>
      <trkpt lat="44.92502" lon="4.40394">
        <ele>471.3</ele>
        <time>2026-05-06T05:53:22Z</time>
      </trkpt>
      <trkpt lat="44.92509" lon="4.4039">
        <ele>472.4</ele>
        <time>2026-05-06T05:53:27Z</time>
      </trkpt>
      <trkpt lat="44.92514" lon="4.40387">
        <ele>473</ele>
        <time>2026-05-06T05:53:32Z</time>
      </trkpt>
      <trkpt lat="44.92515" lon="4.40386">
        <ele>473.1</ele>
        <time>2026-05-06T05:53:37Z</time>
      </trkpt>
      <trkpt lat="44.92515" lon="4.40386">
        <ele>473.1</ele>
        <time>2026-05-06T05:53:42Z</time>
      </trkpt>
      <trkpt lat="44.92515" lon="4.40386">
        <ele>473.1</ele>
        <time>2026-05-06T05:53:47Z</time>
      </trkpt>
      <trkpt lat="44.92515" lon="4.40386">
        <ele>473.1</ele>
        <time>2026-05-06T05:53:52Z</time>
      </trkpt>
      <trkpt lat="44.92515" lon="4.40386">
        <ele>473.1</ele>
        <time>2026-05-06T05:53:57Z</time>
      </trkpt>
      <trkpt lat="44.92515" lon="4.40386">
        <ele>473.1</ele>
        <time>2026-05-06T05:54:02Z</time>
      </trkpt>
      <trkpt lat="44.92515" lon="4.40386">
        <ele>473.1</ele>
        <time>2026-05-06T05:54:07Z</time>
      </trkpt>
      <trkpt lat="44.92515" lon="4.40386">
        <ele>473.1</ele>
        <time>2026-05-06T05:54:12Z</time>
      </trkpt>
      <trkpt lat="44.92515" lon="4.40386">
        <ele>473.1</ele>
        <time>2026-05-06T05:54:17Z</time>
      </trkpt>
      <trkpt lat="44.92515" lon="4.40386">
        <ele>473.1</ele>
        <time>2026-05-06T05:54:22Z</time>
      </trkpt>
      <trkpt lat="44.92515" lon="4.40386">
        <ele>473.1</ele>
        <time>2026-05-06T05:54:27Z</time>
      </trkpt>
      <trkpt lat="44.92515" lon="4.40386">
        <ele>473.1</ele>
        <time>2026-05-06T05:54:32Z</time>
      </trkpt>
      <trkpt lat="44.92515" lon="4.40386">
        <ele>473.1</ele>
        <time>2026-05-06T05:54:37Z</time>
      </trkpt>
      <trkpt lat="44.92515" lon="4.40386">
        <ele>473.1</ele>
        <time>2026-05-06T05:54:42Z</time>
      </trkpt>
      <trkpt lat="44.92515" lon="4.40386">
        <ele>473.1</ele>
        <time>2026-05-06T05:54:47Z</time>
      </trkpt>
      <trkpt lat="44.92515" lon="4.40386">
        <ele>473.1</ele>
        <time>2026-05-06T05:54:52Z</time>
      </trkpt>
      <trkpt lat="44.92515" lon="4.40386">
        <ele>473.1</ele>
        <time>2026-05-06T05:54:57Z</time>
      </trkpt>
      <trkpt lat="44.92515" lon="4.40386">
        <ele>473.1</ele>
        <time>2026-05-06T05:55:02Z</time>
      </trkpt>
      <trkpt lat="44.92515" lon="4.40386">
        <ele>473.1</ele>
        <time>2026-05-06T05:55:07Z</time>
      </trkpt>
      <trkpt lat="44.92515" lon="4.40386">
        <ele>473.1</ele>
        <time>2026-05-06T05:55:12Z</time>
      </trkpt>
      <trkpt lat="44.92515" lon="4.40386">
        <ele>473.1</ele>
        <time>2026-05-06T05:55:17Z</time>
      </trkpt>
      <trkpt lat="44.92515" lon="4.40386">
        <ele>473.1</ele>
        <time>2026-05-06T05:55:22Z</time>
      </trkpt>
      <trkpt lat="44.92515" lon="4.40386">
        <ele>473.1</ele>
        <time>2026-05-06T05:55:27Z</time>
      </trkpt>
      <trkpt lat="44.92515" lon="4.40386">
        <ele>473.1</ele>
        <time>2026-05-06T05:55:32Z</time>
      </trkpt>
      <trkpt lat="44.92515" lon="4.40386">
        <ele>473.1</ele>
        <time>2026-05-06T05:55:37Z</time>
      </trkpt>
      <trkpt lat="44.92515" lon="4.40386">
        <ele>473.1</ele>
        <time>2026-05-06T05:55:42Z</time>
      </trkpt>
      <trkpt lat="44.92515" lon="4.40386">
        <ele>473.1</ele>
        <time>2026-05-06T05:55:47Z</time>
      </trkpt>
      <trkpt lat="44.92515" lon="4.40386">
        <ele>473.1</ele>
        <time>2026-05-06T05:55:52Z</time>
      </trkpt>
      <trkpt lat="44.92515" lon="4.40386">
        <ele>473.1</ele>
        <time>2026-05-06T05:55:57Z</time>
      </trkpt>
      <trkpt lat="44.92515" lon="4.40386">
        <ele>473.1</ele>
        <time>2026-05-06T05:56:02Z</time>
      </trkpt>
      <trkpt lat="44.92515" lon="4.40386">
        <ele>473.1</ele>
        <time>2026-05-06T05:56:07Z</time>
      </trkpt>
      <trkpt lat="44.92515" lon="4.40386">
        <ele>473.1</ele>
        <time>2026-05-06T05:56:12Z</time>
      </trkpt>
      <trkpt lat="44.92515" lon="4.40386">
        <ele>473.1</ele>
        <time>2026-05-06T05:56:17Z</time>
      </trkpt>
      <trkpt lat="44.92515" lon="4.40386">
        <ele>473.1</ele>
        <time>2026-05-06T05:56:22Z</time>
      </trkpt>
      <trkpt lat="44.92515" lon="4.40386">
        <ele>473.1</ele>
        <time>2026-05-06T05:56:27Z</time>
      </trkpt>
      <trkpt lat="44.92515" lon="4.40386">
        <ele>473.1</ele>
        <time>2026-05-06T05:56:32Z</time>
      </trkpt>
      <trkpt lat="44.92515" lon="4.40386">
        <ele>473.1</ele>
        <time>2026-05-06T05:56:37Z</time>
      </trkpt>
      <trkpt lat="44.92515" lon="4.40386">
        <ele>473.1</ele>
        <time>2026-05-06T05:56:42Z</time>
      </trkpt>
      <trkpt lat="44.92515" lon="4.40386">
        <ele>473.1</ele>
        <time>2026-05-06T05:56:47Z</time>
      </trkpt>
      <trkpt lat="44.92515" lon="4.40386">
        <ele>473.1</ele>
        <time>2026-05-06T05:56:52Z</time>
      </trkpt>
      <trkpt lat="44.92515" lon="4.40386">
        <ele>473.1</ele>
        <time>2026-05-06T05:56:57Z</time>
      </trkpt>
      <trkpt lat="44.9252" lon="4.40385">
        <ele>473.9</ele>
        <time>2026-05-06T05:57:02Z</time>
      </trkpt>
      <trkpt lat="44.92526" lon="4.40384">
        <ele>474.8</ele>
        <time>2026-05-06T05:57:07Z</time>
      </trkpt>
      <trkpt lat="44.9253" lon="4.4038">
        <ele>474.9</ele>
        <time>2026-05-06T05:57:12Z</time>
      </trkpt>
      <trkpt lat="44.92536" lon="4.40377">
        <ele>475.5</ele>
        <time>2026-05-06T05:57:17Z</time>
      </trkpt>
      <trkpt lat="44.92548" lon="4.40378">
        <ele>477.4</ele>
        <time>2026-05-06T05:57:22Z</time>
      </trkpt>
      <trkpt lat="44.92558" lon="4.4038">
        <ele>479.3</ele>
        <time>2026-05-06T05:57:27Z</time>
      </trkpt>
      <trkpt lat="44.92566" lon="4.4038">
        <ele>480.6</ele>
        <time>2026-05-06T05:57:32Z</time>
      </trkpt>
      <trkpt lat="44.92573" lon="4.40378">
        <ele>481.2</ele>
        <time>2026-05-06T05:57:37Z</time>
      </trkpt>
      <trkpt lat="44.92581" lon="4.40377">
        <ele>482.2</ele>
        <time>2026-05-06T05:57:42Z</time>
      </trkpt>
      <trkpt lat="44.92589" lon="4.40376">
        <ele>483.1</ele>
        <time>2026-05-06T05:57:47Z</time>
      </trkpt>
      <trkpt lat="44.92597" lon="4.40371">
        <ele>482.9</ele>
        <time>2026-05-06T05:57:52Z</time>
      </trkpt>
      <trkpt lat="44.92605" lon="4.40367">
        <ele>482.9</ele>
        <time>2026-05-06T05:57:57Z</time>
      </trkpt>
      <trkpt lat="44.9261" lon="4.40362">
        <ele>482.1</ele>
        <time>2026-05-06T05:58:02Z</time>
      </trkpt>
      <trkpt lat="44.92618" lon="4.40354">
        <ele>480.7</ele>
        <time>2026-05-06T05:58:07Z</time>
      </trkpt>
      <trkpt lat="44.92624" lon="4.40347">
        <ele>479.2</ele>
        <time>2026-05-06T05:58:12Z</time>
      </trkpt>
      <trkpt lat="44.9263" lon="4.40339">
        <ele>477.3</ele>
        <time>2026-05-06T05:58:17Z</time>
      </trkpt>
      <trkpt lat="44.92635" lon="4.40335">
        <ele>476.5</ele>
        <time>2026-05-06T05:58:22Z</time>
      </trkpt>
      <trkpt lat="44.92635" lon="4.40335">
        <ele>476.5</ele>
        <time>2026-05-06T05:58:27Z</time>
      </trkpt>
      <trkpt lat="44.92635" lon="4.40335">
        <ele>476.5</ele>
        <time>2026-05-06T05:58:32Z</time>
      </trkpt>
      <trkpt lat="44.92635" lon="4.40335">
        <ele>476.5</ele>
        <time>2026-05-06T05:58:37Z</time>
      </trkpt>
      <trkpt lat="44.92635" lon="4.40335">
        <ele>476.5</ele>
        <time>2026-05-06T05:58:42Z</time>
      </trkpt>
      <trkpt lat="44.92635" lon="4.40335">
        <ele>476.5</ele>
        <time>2026-05-06T05:58:47Z</time>
      </trkpt>
      <trkpt lat="44.92635" lon="4.40335">
        <ele>476.5</ele>
        <time>2026-05-06T05:58:52Z</time>
      </trkpt>
      <trkpt lat="44.92635" lon="4.40335">
        <ele>476.5</ele>
        <time>2026-05-06T05:58:57Z</time>
      </trkpt>
      <trkpt lat="44.92635" lon="4.40335">
        <ele>476.5</ele>
        <time>2026-05-06T05:59:02Z</time>
      </trkpt>
      <trkpt lat="44.92635" lon="4.40335">
        <ele>476.5</ele>
        <time>2026-05-06T05:59:07Z</time>
      </trkpt>
      <trkpt lat="44.92635" lon="4.40335">
        <ele>476.5</ele>
        <time>2026-05-06T05:59:12Z</time>
      </trkpt>
      <trkpt lat="44.92635" lon="4.40335">
        <ele>476.5</ele>
        <time>2026-05-06T05:59:17Z</time>
      </trkpt>
      <trkpt lat="44.92635" lon="4.40335">
        <ele>476.5</ele>
        <time>2026-05-06T05:59:22Z</time>
      </trkpt>
      <trkpt lat="44.92635" lon="4.40335">
        <ele>476.5</ele>
        <time>2026-05-06T05:59:27Z</time>
      </trkpt>
      <trkpt lat="44.92635" lon="4.40335">
        <ele>476.5</ele>
        <time>2026-05-06T05:59:32Z</time>
      </trkpt>
      <trkpt lat="44.92635" lon="4.40335">
        <ele>476.5</ele>
        <time>2026-05-06T05:59:37Z</time>
      </trkpt>
      <trkpt lat="44.92635" lon="4.40335">
        <ele>476.5</ele>
        <time>2026-05-06T05:59:42Z</time>
      </trkpt>
      <trkpt lat="44.92635" lon="4.40335">
        <ele>476.5</ele>
        <time>2026-05-06T05:59:47Z</time>
      </trkpt>
      <trkpt lat="44.92635" lon="4.40335">
        <ele>476.5</ele>
        <time>2026-05-06T05:59:52Z</time>
      </trkpt>
      <trkpt lat="44.92635" lon="4.40335">
        <ele>476.5</ele>
        <time>2026-05-06T05:59:57Z</time>
      </trkpt>
      <trkpt lat="44.92638" lon="4.40327">
        <ele>475.7</ele>
        <time>2026-05-06T06:00:02Z</time>
      </trkpt>
      <trkpt lat="44.92644" lon="4.4032">
        <ele>475.5</ele>
        <time>2026-05-06T06:00:07Z</time>
      </trkpt>
      <trkpt lat="44.9265" lon="4.40311">
        <ele>474.7</ele>
        <time>2026-05-06T06:00:12Z</time>
      </trkpt>
      <trkpt lat="44.92654" lon="4.40302">
        <ele>473.5</ele>
        <time>2026-05-06T06:00:17Z</time>
      </trkpt>
      <trkpt lat="44.92659" lon="4.40295">
        <ele>472.4</ele>
        <time>2026-05-06T06:00:22Z</time>
      </trkpt>
      <trkpt lat="44.92664" lon="4.40288">
        <ele>471</ele>
        <time>2026-05-06T06:00:27Z</time>
      </trkpt>
      <trkpt lat="44.92671" lon="4.40281">
        <ele>470.7</ele>
        <time>2026-05-06T06:00:32Z</time>
      </trkpt>
      <trkpt lat="44.92677" lon="4.40277">
        <ele>471.5</ele>
        <time>2026-05-06T06:00:37Z</time>
      </trkpt>
      <trkpt lat="44.92683" lon="4.4027">
        <ele>471.6</ele>
        <time>2026-05-06T06:00:42Z</time>
      </trkpt>
      <trkpt lat="44.9269" lon="4.40264">
        <ele>472.1</ele>
        <time>2026-05-06T06:00:47Z</time>
      </trkpt>
      <trkpt lat="44.92697" lon="4.40262">
        <ele>473.4</ele>
        <time>2026-05-06T06:00:52Z</time>
      </trkpt>
      <trkpt lat="44.92704" lon="4.4026">
        <ele>474.6</ele>
        <time>2026-05-06T06:00:57Z</time>
      </trkpt>
      <trkpt lat="44.92712" lon="4.40258">
        <ele>476.1</ele>
        <time>2026-05-06T06:01:02Z</time>
      </trkpt>
      <trkpt lat="44.92719" lon="4.40256">
        <ele>477.3</ele>
        <time>2026-05-06T06:01:07Z</time>
      </trkpt>
      <trkpt lat="44.92725" lon="4.40255">
        <ele>478.5</ele>
        <time>2026-05-06T06:01:12Z</time>
      </trkpt>
      <trkpt lat="44.92732" lon="4.40253">
        <ele>479.6</ele>
        <time>2026-05-06T06:01:17Z</time>
      </trkpt>
      <trkpt lat="44.9274" lon="4.40256">
        <ele>482.2</ele>
        <time>2026-05-06T06:01:22Z</time>
      </trkpt>
      <trkpt lat="44.92748" lon="4.4026">
        <ele>485</ele>
        <time>2026-05-06T06:01:27Z</time>
      </trkpt>
      <trkpt lat="44.92754" lon="4.40264">
        <ele>487.4</ele>
        <time>2026-05-06T06:01:32Z</time>
      </trkpt>
      <trkpt lat="44.92763" lon="4.40271">
        <ele>491.1</ele>
        <time>2026-05-06T06:01:37Z</time>
      </trkpt>
      <trkpt lat="44.9277" lon="4.40277">
        <ele>494</ele>
        <time>2026-05-06T06:01:42Z</time>
      </trkpt>
      <trkpt lat="44.92776" lon="4.40284">
        <ele>497.1</ele>
        <time>2026-05-06T06:01:47Z</time>
      </trkpt>
      <trkpt lat="44.9278" lon="4.40296">
        <ele>500.9</ele>
        <time>2026-05-06T06:01:52Z</time>
      </trkpt>
      <trkpt lat="44.92784" lon="4.40301">
        <ele>502.9</ele>
        <time>2026-05-06T06:01:57Z</time>
      </trkpt>
      <trkpt lat="44.92785" lon="4.40299">
        <ele>502.7</ele>
        <time>2026-05-06T06:02:02Z</time>
      </trkpt>
      <trkpt lat="44.92785" lon="4.403">
        <ele>502.9</ele>
        <time>2026-05-06T06:02:07Z</time>
      </trkpt>
      <trkpt lat="44.92785" lon="4.403">
        <ele>502.9</ele>
        <time>2026-05-06T06:02:12Z</time>
      </trkpt>
      <trkpt lat="44.92787" lon="4.40301">
        <ele>503.6</ele>
        <time>2026-05-06T06:02:17Z</time>
      </trkpt>
      <trkpt lat="44.92793" lon="4.40308">
        <ele>506.5</ele>
        <time>2026-05-06T06:02:22Z</time>
      </trkpt>
      <trkpt lat="44.92799" lon="4.40318">
        <ele>510.2</ele>
        <time>2026-05-06T06:02:27Z</time>
      </trkpt>
      <trkpt lat="44.92804" lon="4.40326">
        <ele>513.2</ele>
        <time>2026-05-06T06:02:32Z</time>
      </trkpt>
      <trkpt lat="44.92809" lon="4.40333">
        <ele>516</ele>
        <time>2026-05-06T06:02:37Z</time>
      </trkpt>
      <trkpt lat="44.92809" lon="4.40333">
        <ele>516</ele>
        <time>2026-05-06T06:02:42Z</time>
      </trkpt>
      <trkpt lat="44.92809" lon="4.40333">
        <ele>516</ele>
        <time>2026-05-06T06:02:47Z</time>
      </trkpt>
      <trkpt lat="44.92809" lon="4.40333">
        <ele>516</ele>
        <time>2026-05-06T06:02:52Z</time>
      </trkpt>
      <trkpt lat="44.92809" lon="4.40333">
        <ele>516</ele>
        <time>2026-05-06T06:02:57Z</time>
      </trkpt>
      <trkpt lat="44.92814" lon="4.40336">
        <ele>518.3</ele>
        <time>2026-05-06T06:03:02Z</time>
      </trkpt>
      <trkpt lat="44.92817" lon="4.40345">
        <ele>523.1</ele>
        <time>2026-05-06T06:03:07Z</time>
      </trkpt>
      <trkpt lat="44.92823" lon="4.40351">
        <ele>527.3</ele>
        <time>2026-05-06T06:03:12Z</time>
      </trkpt>
      <trkpt lat="44.92828" lon="4.4036">
        <ele>532.8</ele>
        <time>2026-05-06T06:03:17Z</time>
      </trkpt>
      <trkpt lat="44.92834" lon="4.40369">
        <ele>538.3</ele>
        <time>2026-05-06T06:03:22Z</time>
      </trkpt>
      <trkpt lat="44.92839" lon="4.40374">
        <ele>538.7</ele>
        <time>2026-05-06T06:03:27Z</time>
      </trkpt>
      <trkpt lat="44.92844" lon="4.40379">
        <ele>539.1</ele>
        <time>2026-05-06T06:03:32Z</time>
      </trkpt>
      <trkpt lat="44.9285" lon="4.40385">
        <ele>539.6</ele>
        <time>2026-05-06T06:03:37Z</time>
      </trkpt>
      <trkpt lat="44.92858" lon="4.40389">
        <ele>538.2</ele>
        <time>2026-05-06T06:03:42Z</time>
      </trkpt>
      <trkpt lat="44.92867" lon="4.40393">
        <ele>536.4</ele>
        <time>2026-05-06T06:03:47Z</time>
      </trkpt>
      <trkpt lat="44.92875" lon="4.40395">
        <ele>534</ele>
        <time>2026-05-06T06:03:52Z</time>
      </trkpt>
      <trkpt lat="44.92882" lon="4.40398">
        <ele>532.4</ele>
        <time>2026-05-06T06:03:57Z</time>
      </trkpt>
      <trkpt lat="44.92891" lon="4.40402">
        <ele>530.5</ele>
        <time>2026-05-06T06:04:02Z</time>
      </trkpt>
      <trkpt lat="44.92898" lon="4.404">
        <ele>526.6</ele>
        <time>2026-05-06T06:04:07Z</time>
      </trkpt>
      <trkpt lat="44.92907" lon="4.404">
        <ele>522.9</ele>
        <time>2026-05-06T06:04:12Z</time>
      </trkpt>
      <trkpt lat="44.92913" lon="4.40397">
        <ele>519</ele>
        <time>2026-05-06T06:04:17Z</time>
      </trkpt>
      <trkpt lat="44.92921" lon="4.40393">
        <ele>515.1</ele>
        <time>2026-05-06T06:04:22Z</time>
      </trkpt>
      <trkpt lat="44.9293" lon="4.40391">
        <ele>512.9</ele>
        <time>2026-05-06T06:04:27Z</time>
      </trkpt>
      <trkpt lat="44.92937" lon="4.40388">
        <ele>510.6</ele>
        <time>2026-05-06T06:04:32Z</time>
      </trkpt>
      <trkpt lat="44.92946" lon="4.40384">
        <ele>507.6</ele>
        <time>2026-05-06T06:04:37Z</time>
      </trkpt>
      <trkpt lat="44.92952" lon="4.40379">
        <ele>504.8</ele>
        <time>2026-05-06T06:04:42Z</time>
      </trkpt>
      <trkpt lat="44.9296" lon="4.40373">
        <ele>501.2</ele>
        <time>2026-05-06T06:04:47Z</time>
      </trkpt>
      <trkpt lat="44.92971" lon="4.40371">
        <ele>498.9</ele>
        <time>2026-05-06T06:04:52Z</time>
      </trkpt>
      <trkpt lat="44.92978" lon="4.40365">
        <ele>495.7</ele>
        <time>2026-05-06T06:04:57Z</time>
      </trkpt>
      <trkpt lat="44.92987" lon="4.40362">
        <ele>493.3</ele>
        <time>2026-05-06T06:05:02Z</time>
      </trkpt>
      <trkpt lat="44.92995" lon="4.40358">
        <ele>490.8</ele>
        <time>2026-05-06T06:05:07Z</time>
      </trkpt>
      <trkpt lat="44.93002" lon="4.40354">
        <ele>489.1</ele>
        <time>2026-05-06T06:05:12Z</time>
      </trkpt>
      <trkpt lat="44.93008" lon="4.40348">
        <ele>487.9</ele>
        <time>2026-05-06T06:05:17Z</time>
      </trkpt>
      <trkpt lat="44.93019" lon="4.40343">
        <ele>488.1</ele>
        <time>2026-05-06T06:05:22Z</time>
      </trkpt>
      <trkpt lat="44.93026" lon="4.40337">
        <ele>487.1</ele>
        <time>2026-05-06T06:05:27Z</time>
      </trkpt>
      <trkpt lat="44.93032" lon="4.40329">
        <ele>486.1</ele>
        <time>2026-05-06T06:05:32Z</time>
      </trkpt>
      <trkpt lat="44.9304" lon="4.40321">
        <ele>486</ele>
        <time>2026-05-06T06:05:37Z</time>
      </trkpt>
      <trkpt lat="44.93046" lon="4.40314">
        <ele>485.6</ele>
        <time>2026-05-06T06:05:42Z</time>
      </trkpt>
      <trkpt lat="44.93051" lon="4.40304">
        <ele>484.2</ele>
        <time>2026-05-06T06:05:47Z</time>
      </trkpt>
      <trkpt lat="44.93058" lon="4.40296">
        <ele>483.1</ele>
        <time>2026-05-06T06:05:52Z</time>
      </trkpt>
      <trkpt lat="44.93063" lon="4.40287">
        <ele>481.4</ele>
        <time>2026-05-06T06:05:57Z</time>
      </trkpt>
      <trkpt lat="44.93067" lon="4.40279">
        <ele>479.7</ele>
        <time>2026-05-06T06:06:02Z</time>
      </trkpt>
      <trkpt lat="44.93074" lon="4.40271">
        <ele>477.9</ele>
        <time>2026-05-06T06:06:07Z</time>
      </trkpt>
      <trkpt lat="44.93078" lon="4.40263">
        <ele>475.8</ele>
        <time>2026-05-06T06:06:12Z</time>
      </trkpt>
      <trkpt lat="44.93081" lon="4.40252">
        <ele>472.6</ele>
        <time>2026-05-06T06:06:17Z</time>
      </trkpt>
      <trkpt lat="44.93084" lon="4.40246">
        <ele>472.1</ele>
        <time>2026-05-06T06:06:22Z</time>
      </trkpt>
      <trkpt lat="44.9309" lon="4.4024">
        <ele>473.5</ele>
        <time>2026-05-06T06:06:27Z</time>
      </trkpt>
      <trkpt lat="44.93096" lon="4.40233">
        <ele>474.8</ele>
        <time>2026-05-06T06:06:32Z</time>
      </trkpt>
      <trkpt lat="44.93102" lon="4.40226">
        <ele>476</ele>
        <time>2026-05-06T06:06:37Z</time>
      </trkpt>
      <trkpt lat="44.93108" lon="4.40223">
        <ele>477.3</ele>
        <time>2026-05-06T06:06:42Z</time>
      </trkpt>
      <trkpt lat="44.93112" lon="4.4022">
        <ele>478</ele>
        <time>2026-05-06T06:06:47Z</time>
      </trkpt>
      <trkpt lat="44.93117" lon="4.4022">
        <ele>479.3</ele>
        <time>2026-05-06T06:06:52Z</time>
      </trkpt>
      <trkpt lat="44.93117" lon="4.4022">
        <ele>479.3</ele>
        <time>2026-05-06T06:06:57Z</time>
      </trkpt>
      <trkpt lat="44.93119" lon="4.40216">
        <ele>479.4</ele>
        <time>2026-05-06T06:07:02Z</time>
      </trkpt>
      <trkpt lat="44.93124" lon="4.4021">
        <ele>479.9</ele>
        <time>2026-05-06T06:07:07Z</time>
      </trkpt>
      <trkpt lat="44.9313" lon="4.40208">
        <ele>481.1</ele>
        <time>2026-05-06T06:07:12Z</time>
      </trkpt>
      <trkpt lat="44.93138" lon="4.40207">
        <ele>482.8</ele>
        <time>2026-05-06T06:07:17Z</time>
      </trkpt>
      <trkpt lat="44.93145" lon="4.40211">
        <ele>484.9</ele>
        <time>2026-05-06T06:07:22Z</time>
      </trkpt>
      <trkpt lat="44.93152" lon="4.40213">
        <ele>486.9</ele>
        <time>2026-05-06T06:07:27Z</time>
      </trkpt>
      <trkpt lat="44.93158" lon="4.40214">
        <ele>488.5</ele>
        <time>2026-05-06T06:07:32Z</time>
      </trkpt>
      <trkpt lat="44.93166" lon="4.40218">
        <ele>491.1</ele>
        <time>2026-05-06T06:07:37Z</time>
      </trkpt>
      <trkpt lat="44.93173" lon="4.40221">
        <ele>493.4</ele>
        <time>2026-05-06T06:07:42Z</time>
      </trkpt>
      <trkpt lat="44.93183" lon="4.40226">
        <ele>496.9</ele>
        <time>2026-05-06T06:07:47Z</time>
      </trkpt>
      <trkpt lat="44.9319" lon="4.40233">
        <ele>500.1</ele>
        <time>2026-05-06T06:07:52Z</time>
      </trkpt>
      <trkpt lat="44.93197" lon="4.40239">
        <ele>503.2</ele>
        <time>2026-05-06T06:07:57Z</time>
      </trkpt>
      <trkpt lat="44.93205" lon="4.40247">
        <ele>507</ele>
        <time>2026-05-06T06:08:02Z</time>
      </trkpt>
      <trkpt lat="44.93211" lon="4.40257">
        <ele>511.2</ele>
        <time>2026-05-06T06:08:07Z</time>
      </trkpt>
      <trkpt lat="44.93215" lon="4.40265">
        <ele>514.4</ele>
        <time>2026-05-06T06:08:12Z</time>
      </trkpt>
      <trkpt lat="44.93223" lon="4.40275">
        <ele>519.1</ele>
        <time>2026-05-06T06:08:17Z</time>
      </trkpt>
      <trkpt lat="44.93227" lon="4.40284">
        <ele>522.5</ele>
        <time>2026-05-06T06:08:22Z</time>
      </trkpt>
      <trkpt lat="44.93233" lon="4.40293">
        <ele>526.3</ele>
        <time>2026-05-06T06:08:27Z</time>
      </trkpt>
      <trkpt lat="44.93237" lon="4.40298">
        <ele>528.5</ele>
        <time>2026-05-06T06:08:32Z</time>
      </trkpt>
      <trkpt lat="44.93243" lon="4.40301">
        <ele>530.6</ele>
        <time>2026-05-06T06:08:37Z</time>
      </trkpt>
      <trkpt lat="44.93245" lon="4.40299">
        <ele>530.6</ele>
        <time>2026-05-06T06:08:42Z</time>
      </trkpt>
      <trkpt lat="44.93245" lon="4.40299">
        <ele>530.6</ele>
        <time>2026-05-06T06:08:47Z</time>
      </trkpt>
      <trkpt lat="44.93242" lon="4.40302">
        <ele>530.6</ele>
        <time>2026-05-06T06:08:52Z</time>
      </trkpt>
      <trkpt lat="44.93246" lon="4.40312">
        <ele>534</ele>
        <time>2026-05-06T06:08:57Z</time>
      </trkpt>
      <trkpt lat="44.93251" lon="4.40321">
        <ele>536.8</ele>
        <time>2026-05-06T06:09:02Z</time>
      </trkpt>
      <trkpt lat="44.93256" lon="4.40328">
        <ele>537</ele>
        <time>2026-05-06T06:09:07Z</time>
      </trkpt>
      <trkpt lat="44.93262" lon="4.40337">
        <ele>537.9</ele>
        <time>2026-05-06T06:09:12Z</time>
      </trkpt>
      <trkpt lat="44.93266" lon="4.40344">
        <ele>539.3</ele>
        <time>2026-05-06T06:09:17Z</time>
      </trkpt>
      <trkpt lat="44.93271" lon="4.40351">
        <ele>540.4</ele>
        <time>2026-05-06T06:09:22Z</time>
      </trkpt>
      <trkpt lat="44.93279" lon="4.4036">
        <ele>541.6</ele>
        <time>2026-05-06T06:09:27Z</time>
      </trkpt>
      <trkpt lat="44.93284" lon="4.40368">
        <ele>543.3</ele>
        <time>2026-05-06T06:09:32Z</time>
      </trkpt>
      <trkpt lat="44.93289" lon="4.40376">
        <ele>545.1</ele>
        <time>2026-05-06T06:09:37Z</time>
      </trkpt>
      <trkpt lat="44.93289" lon="4.40382">
        <ele>547.3</ele>
        <time>2026-05-06T06:09:42Z</time>
      </trkpt>
      <trkpt lat="44.93296" lon="4.40392">
        <ele>549.5</ele>
        <time>2026-05-06T06:09:47Z</time>
      </trkpt>
      <trkpt lat="44.93304" lon="4.40399">
        <ele>550.4</ele>
        <time>2026-05-06T06:09:52Z</time>
      </trkpt>
      <trkpt lat="44.93312" lon="4.40406">
        <ele>551.3</ele>
        <time>2026-05-06T06:09:57Z</time>
      </trkpt>
      <trkpt lat="44.9332" lon="4.40414">
        <ele>552.8</ele>
        <time>2026-05-06T06:10:02Z</time>
      </trkpt>
      <trkpt lat="44.93328" lon="4.40421">
        <ele>553.7</ele>
        <time>2026-05-06T06:10:07Z</time>
      </trkpt>
      <trkpt lat="44.93336" lon="4.40428">
        <ele>554</ele>
        <time>2026-05-06T06:10:12Z</time>
      </trkpt>
      <trkpt lat="44.93342" lon="4.40435">
        <ele>553.9</ele>
        <time>2026-05-06T06:10:17Z</time>
      </trkpt>
      <trkpt lat="44.93348" lon="4.40443">
        <ele>554.3</ele>
        <time>2026-05-06T06:10:22Z</time>
      </trkpt>
      <trkpt lat="44.93353" lon="4.40449">
        <ele>554.3</ele>
        <time>2026-05-06T06:10:27Z</time>
      </trkpt>
      <trkpt lat="44.93358" lon="4.40456">
        <ele>554.8</ele>
        <time>2026-05-06T06:10:32Z</time>
      </trkpt>
      <trkpt lat="44.93364" lon="4.40464">
        <ele>555.3</ele>
        <time>2026-05-06T06:10:37Z</time>
      </trkpt>
      <trkpt lat="44.93371" lon="4.40473">
        <ele>555.7</ele>
        <time>2026-05-06T06:10:42Z</time>
      </trkpt>
      <trkpt lat="44.93378" lon="4.4048">
        <ele>555.4</ele>
        <time>2026-05-06T06:10:47Z</time>
      </trkpt>
      <trkpt lat="44.93385" lon="4.40483">
        <ele>553.6</ele>
        <time>2026-05-06T06:10:52Z</time>
      </trkpt>
      <trkpt lat="44.93392" lon="4.4049">
        <ele>553.4</ele>
        <time>2026-05-06T06:10:57Z</time>
      </trkpt>
      <trkpt lat="44.93398" lon="4.40498">
        <ele>554</ele>
        <time>2026-05-06T06:11:02Z</time>
      </trkpt>
      <trkpt lat="44.93404" lon="4.40504">
        <ele>552.8</ele>
        <time>2026-05-06T06:11:07Z</time>
      </trkpt>
      <trkpt lat="44.93412" lon="4.40509">
        <ele>549.9</ele>
        <time>2026-05-06T06:11:12Z</time>
      </trkpt>
      <trkpt lat="44.93417" lon="4.40515">
        <ele>548.3</ele>
        <time>2026-05-06T06:11:17Z</time>
      </trkpt>
      <trkpt lat="44.93419" lon="4.40519">
        <ele>547.7</ele>
        <time>2026-05-06T06:11:22Z</time>
      </trkpt>
      <trkpt lat="44.93419" lon="4.40517">
        <ele>547.5</ele>
        <time>2026-05-06T06:11:27Z</time>
      </trkpt>
      <trkpt lat="44.93424" lon="4.40516">
        <ele>544.9</ele>
        <time>2026-05-06T06:11:32Z</time>
      </trkpt>
      <trkpt lat="44.93431" lon="4.40516">
        <ele>541.4</ele>
        <time>2026-05-06T06:11:37Z</time>
      </trkpt>
      <trkpt lat="44.93439" lon="4.40519">
        <ele>537.7</ele>
        <time>2026-05-06T06:11:42Z</time>
      </trkpt>
      <trkpt lat="44.93447" lon="4.4052">
        <ele>533.9</ele>
        <time>2026-05-06T06:11:47Z</time>
      </trkpt>
      <trkpt lat="44.93452" lon="4.4052">
        <ele>531.4</ele>
        <time>2026-05-06T06:11:52Z</time>
      </trkpt>
      <trkpt lat="44.93455" lon="4.40518">
        <ele>529.6</ele>
        <time>2026-05-06T06:11:57Z</time>
      </trkpt>
      <trkpt lat="44.9346" lon="4.40515">
        <ele>526.7</ele>
        <time>2026-05-06T06:12:02Z</time>
      </trkpt>
      <trkpt lat="44.93464" lon="4.40513">
        <ele>524.4</ele>
        <time>2026-05-06T06:12:07Z</time>
      </trkpt>
      <trkpt lat="44.93471" lon="4.4051">
        <ele>520.5</ele>
        <time>2026-05-06T06:12:12Z</time>
      </trkpt>
      <trkpt lat="44.93479" lon="4.40507">
        <ele>515.9</ele>
        <time>2026-05-06T06:12:17Z</time>
      </trkpt>
      <trkpt lat="44.93488" lon="4.40508">
        <ele>511.5</ele>
        <time>2026-05-06T06:12:22Z</time>
      </trkpt>
      <trkpt lat="44.93495" lon="4.40506">
        <ele>507.6</ele>
        <time>2026-05-06T06:12:27Z</time>
      </trkpt>
      <trkpt lat="44.93503" lon="4.40504">
        <ele>505.1</ele>
        <time>2026-05-06T06:12:32Z</time>
      </trkpt>
      <trkpt lat="44.93509" lon="4.40501">
        <ele>505.2</ele>
        <time>2026-05-06T06:12:37Z</time>
      </trkpt>
      <trkpt lat="44.93516" lon="4.40495">
        <ele>504.4</ele>
        <time>2026-05-06T06:12:42Z</time>
      </trkpt>
      <trkpt lat="44.9352" lon="4.40494">
        <ele>504.6</ele>
        <time>2026-05-06T06:12:47Z</time>
      </trkpt>
      <trkpt lat="44.93521" lon="4.40493">
        <ele>504.4</ele>
        <time>2026-05-06T06:12:52Z</time>
      </trkpt>
      <trkpt lat="44.93529" lon="4.4049">
        <ele>504.4</ele>
        <time>2026-05-06T06:12:57Z</time>
      </trkpt>
      <trkpt lat="44.93535" lon="4.40484">
        <ele>503.3</ele>
        <time>2026-05-06T06:13:02Z</time>
      </trkpt>
      <trkpt lat="44.93542" lon="4.40481">
        <ele>503.2</ele>
        <time>2026-05-06T06:13:07Z</time>
      </trkpt>
      <trkpt lat="44.93548" lon="4.40472">
        <ele>501.2</ele>
        <time>2026-05-06T06:13:12Z</time>
      </trkpt>
      <trkpt lat="44.93552" lon="4.40461">
        <ele>498.3</ele>
        <time>2026-05-06T06:13:17Z</time>
      </trkpt>
      <trkpt lat="44.93557" lon="4.4045">
        <ele>495.5</ele>
        <time>2026-05-06T06:13:22Z</time>
      </trkpt>
      <trkpt lat="44.93562" lon="4.40441">
        <ele>493.2</ele>
        <time>2026-05-06T06:13:27Z</time>
      </trkpt>
      <trkpt lat="44.93565" lon="4.40431">
        <ele>490.4</ele>
        <time>2026-05-06T06:13:32Z</time>
      </trkpt>
      <trkpt lat="44.9357" lon="4.40424">
        <ele>488.6</ele>
        <time>2026-05-06T06:13:37Z</time>
      </trkpt>
      <trkpt lat="44.93575" lon="4.40414">
        <ele>486.6</ele>
        <time>2026-05-06T06:13:42Z</time>
      </trkpt>
      <trkpt lat="44.93578" lon="4.40405">
        <ele>486.6</ele>
        <time>2026-05-06T06:13:47Z</time>
      </trkpt>
      <trkpt lat="44.93581" lon="4.40395">
        <ele>486.6</ele>
        <time>2026-05-06T06:13:52Z</time>
      </trkpt>
      <trkpt lat="44.93585" lon="4.40384">
        <ele>487</ele>
        <time>2026-05-06T06:13:57Z</time>
      </trkpt>
      <trkpt lat="44.93589" lon="4.40374">
        <ele>487.7</ele>
        <time>2026-05-06T06:14:02Z</time>
      </trkpt>
      <trkpt lat="44.93593" lon="4.40364">
        <ele>488.3</ele>
        <time>2026-05-06T06:14:07Z</time>
      </trkpt>
      <trkpt lat="44.93595" lon="4.40352">
        <ele>488.4</ele>
        <time>2026-05-06T06:14:12Z</time>
      </trkpt>
      <trkpt lat="44.93598" lon="4.40342">
        <ele>488.6</ele>
        <time>2026-05-06T06:14:17Z</time>
      </trkpt>
      <trkpt lat="44.93601" lon="4.40332">
        <ele>488.9</ele>
        <time>2026-05-06T06:14:22Z</time>
      </trkpt>
      <trkpt lat="44.93603" lon="4.40321">
        <ele>490.2</ele>
        <time>2026-05-06T06:14:27Z</time>
      </trkpt>
      <trkpt lat="44.93603" lon="4.40316">
        <ele>490.6</ele>
        <time>2026-05-06T06:14:32Z</time>
      </trkpt>
      <trkpt lat="44.93602" lon="4.40309">
        <ele>491.1</ele>
        <time>2026-05-06T06:14:37Z</time>
      </trkpt>
      <trkpt lat="44.93604" lon="4.40297">
        <ele>492.4</ele>
        <time>2026-05-06T06:14:42Z</time>
      </trkpt>
      <trkpt lat="44.93605" lon="4.40286">
        <ele>493.4</ele>
        <time>2026-05-06T06:14:47Z</time>
      </trkpt>
      <trkpt lat="44.93605" lon="4.40274">
        <ele>494.4</ele>
        <time>2026-05-06T06:14:52Z</time>
      </trkpt>
      <trkpt lat="44.93605" lon="4.40263">
        <ele>495.4</ele>
        <time>2026-05-06T06:14:57Z</time>
      </trkpt>
      <trkpt lat="44.93604" lon="4.40253">
        <ele>496.2</ele>
        <time>2026-05-06T06:15:02Z</time>
      </trkpt>
      <trkpt lat="44.93603" lon="4.40243">
        <ele>497.2</ele>
        <time>2026-05-06T06:15:07Z</time>
      </trkpt>
      <trkpt lat="44.93603" lon="4.40233">
        <ele>498.1</ele>
        <time>2026-05-06T06:15:12Z</time>
      </trkpt>
      <trkpt lat="44.93605" lon="4.40223">
        <ele>498.9</ele>
        <time>2026-05-06T06:15:17Z</time>
      </trkpt>
      <trkpt lat="44.93602" lon="4.40212">
        <ele>500.2</ele>
        <time>2026-05-06T06:15:22Z</time>
      </trkpt>
      <trkpt lat="44.93601" lon="4.40212">
        <ele>500.3</ele>
        <time>2026-05-06T06:15:27Z</time>
      </trkpt>
      <trkpt lat="44.93601" lon="4.4021">
        <ele>500.5</ele>
        <time>2026-05-06T06:15:32Z</time>
      </trkpt>
      <trkpt lat="44.93601" lon="4.4021">
        <ele>500.5</ele>
        <time>2026-05-06T06:15:37Z</time>
      </trkpt>
      <trkpt lat="44.93601" lon="4.4021">
        <ele>500.5</ele>
        <time>2026-05-06T06:15:42Z</time>
      </trkpt>
      <trkpt lat="44.93601" lon="4.4021">
        <ele>500.5</ele>
        <time>2026-05-06T06:15:47Z</time>
      </trkpt>
      <trkpt lat="44.93601" lon="4.4021">
        <ele>500.5</ele>
        <time>2026-05-06T06:15:52Z</time>
      </trkpt>
      <trkpt lat="44.93601" lon="4.4021">
        <ele>500.5</ele>
        <time>2026-05-06T06:15:57Z</time>
      </trkpt>
      <trkpt lat="44.93601" lon="4.4021">
        <ele>500.5</ele>
        <time>2026-05-06T06:16:02Z</time>
      </trkpt>
      <trkpt lat="44.93601" lon="4.4021">
        <ele>500.5</ele>
        <time>2026-05-06T06:16:07Z</time>
      </trkpt>
      <trkpt lat="44.93601" lon="4.4021">
        <ele>500.5</ele>
        <time>2026-05-06T06:16:12Z</time>
      </trkpt>
      <trkpt lat="44.93601" lon="4.4021">
        <ele>500.5</ele>
        <time>2026-05-06T06:16:17Z</time>
      </trkpt>
      <trkpt lat="44.93601" lon="4.4021">
        <ele>500.5</ele>
        <time>2026-05-06T06:16:22Z</time>
      </trkpt>
      <trkpt lat="44.93601" lon="4.4021">
        <ele>500.5</ele>
        <time>2026-05-06T06:16:27Z</time>
      </trkpt>
      <trkpt lat="44.93601" lon="4.4021">
        <ele>500.5</ele>
        <time>2026-05-06T06:16:32Z</time>
      </trkpt>
      <trkpt lat="44.93601" lon="4.4021">
        <ele>500.5</ele>
        <time>2026-05-06T06:16:37Z</time>
      </trkpt>
      <trkpt lat="44.93601" lon="4.4021">
        <ele>500.5</ele>
        <time>2026-05-06T06:16:42Z</time>
      </trkpt>
      <trkpt lat="44.93601" lon="4.4021">
        <ele>500.5</ele>
        <time>2026-05-06T06:16:47Z</time>
      </trkpt>
      <trkpt lat="44.93601" lon="4.4021">
        <ele>500.5</ele>
        <time>2026-05-06T06:16:52Z</time>
      </trkpt>
      <trkpt lat="44.93601" lon="4.4021">
        <ele>500.5</ele>
        <time>2026-05-06T06:16:57Z</time>
      </trkpt>
      <trkpt lat="44.93601" lon="4.4021">
        <ele>500.5</ele>
        <time>2026-05-06T06:17:02Z</time>
      </trkpt>
      <trkpt lat="44.93601" lon="4.4021">
        <ele>500.5</ele>
        <time>2026-05-06T06:17:07Z</time>
      </trkpt>
      <trkpt lat="44.93601" lon="4.4021">
        <ele>500.5</ele>
        <time>2026-05-06T06:17:12Z</time>
      </trkpt>
      <trkpt lat="44.93601" lon="4.4021">
        <ele>500.5</ele>
        <time>2026-05-06T06:17:17Z</time>
      </trkpt>
      <trkpt lat="44.93601" lon="4.4021">
        <ele>500.5</ele>
        <time>2026-05-06T06:17:22Z</time>
      </trkpt>
      <trkpt lat="44.93601" lon="4.4021">
        <ele>500.5</ele>
        <time>2026-05-06T06:17:27Z</time>
      </trkpt>
      <trkpt lat="44.93601" lon="4.4021">
        <ele>500.5</ele>
        <time>2026-05-06T06:17:32Z</time>
      </trkpt>
      <trkpt lat="44.93601" lon="4.4021">
        <ele>500.5</ele>
        <time>2026-05-06T06:17:37Z</time>
      </trkpt>
      <trkpt lat="44.93601" lon="4.4021">
        <ele>500.5</ele>
        <time>2026-05-06T06:17:42Z</time>
      </trkpt>
      <trkpt lat="44.93601" lon="4.4021">
        <ele>500.5</ele>
        <time>2026-05-06T06:17:47Z</time>
      </trkpt>
      <trkpt lat="44.93601" lon="4.4021">
        <ele>500.5</ele>
        <time>2026-05-06T06:17:52Z</time>
      </trkpt>
      <trkpt lat="44.93601" lon="4.4021">
        <ele>500.5</ele>
        <time>2026-05-06T06:17:57Z</time>
      </trkpt>
      <trkpt lat="44.93601" lon="4.4021">
        <ele>500.5</ele>
        <time>2026-05-06T06:18:02Z</time>
      </trkpt>
      <trkpt lat="44.93601" lon="4.4021">
        <ele>500.5</ele>
        <time>2026-05-06T06:18:07Z</time>
      </trkpt>
      <trkpt lat="44.93601" lon="4.4021">
        <ele>500.5</ele>
        <time>2026-05-06T06:18:12Z</time>
      </trkpt>
      <trkpt lat="44.93601" lon="4.4021">
        <ele>500.5</ele>
        <time>2026-05-06T06:18:17Z</time>
      </trkpt>
      <trkpt lat="44.93601" lon="4.4021">
        <ele>500.5</ele>
        <time>2026-05-06T06:18:22Z</time>
      </trkpt>
      <trkpt lat="44.93601" lon="4.4021">
        <ele>500.5</ele>
        <time>2026-05-06T06:18:27Z</time>
      </trkpt>
      <trkpt lat="44.93601" lon="4.4021">
        <ele>500.5</ele>
        <time>2026-05-06T06:18:32Z</time>
      </trkpt>
      <trkpt lat="44.93601" lon="4.4021">
        <ele>500.5</ele>
        <time>2026-05-06T06:18:37Z</time>
      </trkpt>
      <trkpt lat="44.93601" lon="4.4021">
        <ele>500.5</ele>
        <time>2026-05-06T06:18:42Z</time>
      </trkpt>
      <trkpt lat="44.93601" lon="4.4021">
        <ele>500.5</ele>
        <time>2026-05-06T06:18:47Z</time>
      </trkpt>
      <trkpt lat="44.93601" lon="4.4021">
        <ele>500.5</ele>
        <time>2026-05-06T06:18:52Z</time>
      </trkpt>
      <trkpt lat="44.93601" lon="4.4021">
        <ele>500.5</ele>
        <time>2026-05-06T06:18:57Z</time>
      </trkpt>
      <trkpt lat="44.93601" lon="4.4021">
        <ele>500.5</ele>
        <time>2026-05-06T06:19:02Z</time>
      </trkpt>
      <trkpt lat="44.93601" lon="4.4021">
        <ele>500.5</ele>
        <time>2026-05-06T06:19:07Z</time>
      </trkpt>
      <trkpt lat="44.93601" lon="4.4021">
        <ele>500.5</ele>
        <time>2026-05-06T06:19:12Z</time>
      </trkpt>
      <trkpt lat="44.93601" lon="4.4021">
        <ele>500.5</ele>
        <time>2026-05-06T06:19:17Z</time>
      </trkpt>
      <trkpt lat="44.93601" lon="4.4021">
        <ele>500.5</ele>
        <time>2026-05-06T06:19:22Z</time>
      </trkpt>
      <trkpt lat="44.93601" lon="4.4021">
        <ele>500.5</ele>
        <time>2026-05-06T06:19:27Z</time>
      </trkpt>
      <trkpt lat="44.93601" lon="4.4021">
        <ele>500.5</ele>
        <time>2026-05-06T06:19:32Z</time>
      </trkpt>
      <trkpt lat="44.93601" lon="4.4021">
        <ele>500.5</ele>
        <time>2026-05-06T06:19:37Z</time>
      </trkpt>
      <trkpt lat="44.93601" lon="4.4021">
        <ele>500.5</ele>
        <time>2026-05-06T06:19:42Z</time>
      </trkpt>
      <trkpt lat="44.93601" lon="4.4021">
        <ele>500.5</ele>
        <time>2026-05-06T06:19:47Z</time>
      </trkpt>
      <trkpt lat="44.93601" lon="4.4021">
        <ele>500.5</ele>
        <time>2026-05-06T06:19:52Z</time>
      </trkpt>
      <trkpt lat="44.93601" lon="4.4021">
        <ele>500.5</ele>
        <time>2026-05-06T06:19:57Z</time>
      </trkpt>
      <trkpt lat="44.93601" lon="4.4021">
        <ele>500.5</ele>
        <time>2026-05-06T06:20:02Z</time>
      </trkpt>
      <trkpt lat="44.93601" lon="4.4021">
        <ele>500.5</ele>
        <time>2026-05-06T06:20:07Z</time>
      </trkpt>
      <trkpt lat="44.93602" lon="4.40206">
        <ele>500.8</ele>
        <time>2026-05-06T06:20:12Z</time>
      </trkpt>
      <trkpt lat="44.93606" lon="4.40198">
        <ele>501.1</ele>
        <time>2026-05-06T06:20:17Z</time>
      </trkpt>
      <trkpt lat="44.93607" lon="4.40194">
        <ele>501.3</ele>
        <time>2026-05-06T06:20:22Z</time>
      </trkpt>
      <trkpt lat="44.93607" lon="4.40194">
        <ele>501.3</ele>
        <time>2026-05-06T06:20:27Z</time>
      </trkpt>
      <trkpt lat="44.93604" lon="4.40204">
        <ele>500.8</ele>
        <time>2026-05-06T06:20:32Z</time>
      </trkpt>
      <trkpt lat="44.93602" lon="4.40212">
        <ele>500.2</ele>
        <time>2026-05-06T06:20:37Z</time>
      </trkpt>
      <trkpt lat="44.93602" lon="4.40215">
        <ele>499.9</ele>
        <time>2026-05-06T06:20:42Z</time>
      </trkpt>
      <trkpt lat="44.93602" lon="4.40215">
        <ele>499.9</ele>
        <time>2026-05-06T06:20:47Z</time>
      </trkpt>
      <trkpt lat="44.93602" lon="4.40215">
        <ele>499.9</ele>
        <time>2026-05-06T06:20:52Z</time>
      </trkpt>
      <trkpt lat="44.93602" lon="4.40215">
        <ele>499.9</ele>
        <time>2026-05-06T06:20:57Z</time>
      </trkpt>
      <trkpt lat="44.93602" lon="4.40215">
        <ele>499.9</ele>
        <time>2026-05-06T06:21:02Z</time>
      </trkpt>
      <trkpt lat="44.93602" lon="4.40215">
        <ele>499.9</ele>
        <time>2026-05-06T06:21:07Z</time>
      </trkpt>
      <trkpt lat="44.93602" lon="4.40215">
        <ele>499.9</ele>
        <time>2026-05-06T06:21:12Z</time>
      </trkpt>
      <trkpt lat="44.93602" lon="4.40215">
        <ele>499.9</ele>
        <time>2026-05-06T06:21:17Z</time>
      </trkpt>
      <trkpt lat="44.93602" lon="4.40215">
        <ele>499.9</ele>
        <time>2026-05-06T06:21:22Z</time>
      </trkpt>
      <trkpt lat="44.93602" lon="4.40215">
        <ele>499.9</ele>
        <time>2026-05-06T06:21:27Z</time>
      </trkpt>
      <trkpt lat="44.93614" lon="4.40204">
        <ele>499.7</ele>
        <time>2026-05-06T06:21:32Z</time>
      </trkpt>
      <trkpt lat="44.93614" lon="4.40194">
        <ele>500.4</ele>
        <time>2026-05-06T06:21:37Z</time>
      </trkpt>
      <trkpt lat="44.93615" lon="4.40183">
        <ele>501.1</ele>
        <time>2026-05-06T06:21:42Z</time>
      </trkpt>
      <trkpt lat="44.93618" lon="4.40173">
        <ele>501.3</ele>
        <time>2026-05-06T06:21:47Z</time>
      </trkpt>
      <trkpt lat="44.93621" lon="4.40165">
        <ele>501.2</ele>
        <time>2026-05-06T06:21:52Z</time>
      </trkpt>
      <trkpt lat="44.93625" lon="4.40157">
        <ele>500.4</ele>
        <time>2026-05-06T06:21:57Z</time>
      </trkpt>
      <trkpt lat="44.9363" lon="4.40148">
        <ele>499.4</ele>
        <time>2026-05-06T06:22:02Z</time>
      </trkpt>
      <trkpt lat="44.93633" lon="4.40141">
        <ele>498.8</ele>
        <time>2026-05-06T06:22:07Z</time>
      </trkpt>
      <trkpt lat="44.93636" lon="4.40134">
        <ele>498.2</ele>
        <time>2026-05-06T06:22:12Z</time>
      </trkpt>
      <trkpt lat="44.93641" lon="4.40131">
        <ele>497.2</ele>
        <time>2026-05-06T06:22:17Z</time>
      </trkpt>
      <trkpt lat="44.93645" lon="4.40126">
        <ele>496.3</ele>
        <time>2026-05-06T06:22:22Z</time>
      </trkpt>
      <trkpt lat="44.93653" lon="4.40123">
        <ele>494.7</ele>
        <time>2026-05-06T06:22:27Z</time>
      </trkpt>
      <trkpt lat="44.93663" lon="4.40124">
        <ele>492.7</ele>
        <time>2026-05-06T06:22:32Z</time>
      </trkpt>
      <trkpt lat="44.93671" lon="4.40121">
        <ele>493</ele>
        <time>2026-05-06T06:22:37Z</time>
      </trkpt>
      <trkpt lat="44.9368" lon="4.4012">
        <ele>495.2</ele>
        <time>2026-05-06T06:22:42Z</time>
      </trkpt>
      <trkpt lat="44.93687" lon="4.40118">
        <ele>496.8</ele>
        <time>2026-05-06T06:22:47Z</time>
      </trkpt>
      <trkpt lat="44.93694" lon="4.40119">
        <ele>498.6</ele>
        <time>2026-05-06T06:22:52Z</time>
      </trkpt>
      <trkpt lat="44.93703" lon="4.40122">
        <ele>501.1</ele>
        <time>2026-05-06T06:22:57Z</time>
      </trkpt>
      <trkpt lat="44.93711" lon="4.40127">
        <ele>503.7</ele>
        <time>2026-05-06T06:23:02Z</time>
      </trkpt>
      <trkpt lat="44.93719" lon="4.40128">
        <ele>505.9</ele>
        <time>2026-05-06T06:23:07Z</time>
      </trkpt>
      <trkpt lat="44.93726" lon="4.40129">
        <ele>507.8</ele>
        <time>2026-05-06T06:23:12Z</time>
      </trkpt>
      <trkpt lat="44.93734" lon="4.40132">
        <ele>510.4</ele>
        <time>2026-05-06T06:23:17Z</time>
      </trkpt>
      <trkpt lat="44.93738" lon="4.40136">
        <ele>512.1</ele>
        <time>2026-05-06T06:23:22Z</time>
      </trkpt>
      <trkpt lat="44.93781" lon="4.40155">
        <ele>522</ele>
        <time>2026-05-06T06:23:39Z</time>
      </trkpt>
      <trkpt lat="44.93782" lon="4.40134">
        <ele>516.3</ele>
        <time>2026-05-06T06:23:44Z</time>
      </trkpt>
      <trkpt lat="44.93786" lon="4.40145">
        <ele>519.6</ele>
        <time>2026-05-06T06:23:49Z</time>
      </trkpt>
      <trkpt lat="44.93793" lon="4.40152">
        <ele>522.2</ele>
        <time>2026-05-06T06:23:54Z</time>
      </trkpt>
      <trkpt lat="44.93801" lon="4.40156">
        <ele>524.2</ele>
        <time>2026-05-06T06:23:59Z</time>
      </trkpt>
      <trkpt lat="44.93811" lon="4.40157">
        <ele>525.6</ele>
        <time>2026-05-06T06:24:04Z</time>
      </trkpt>
      <trkpt lat="44.93822" lon="4.40158">
        <ele>527.1</ele>
        <time>2026-05-06T06:24:09Z</time>
      </trkpt>
      <trkpt lat="44.9383" lon="4.40156">
        <ele>527.2</ele>
        <time>2026-05-06T06:24:14Z</time>
      </trkpt>
      <trkpt lat="44.93839" lon="4.40154">
        <ele>526.6</ele>
        <time>2026-05-06T06:24:19Z</time>
      </trkpt>
      <trkpt lat="44.93846" lon="4.40149">
        <ele>524.5</ele>
        <time>2026-05-06T06:24:24Z</time>
      </trkpt>
      <trkpt lat="44.93852" lon="4.40142">
        <ele>521.4</ele>
        <time>2026-05-06T06:24:29Z</time>
      </trkpt>
      <trkpt lat="44.9386" lon="4.40134">
        <ele>517.9</ele>
        <time>2026-05-06T06:24:34Z</time>
      </trkpt>
      <trkpt lat="44.93866" lon="4.40127">
        <ele>514.8</ele>
        <time>2026-05-06T06:24:39Z</time>
      </trkpt>
      <trkpt lat="44.93875" lon="4.40122">
        <ele>512.4</ele>
        <time>2026-05-06T06:24:44Z</time>
      </trkpt>
      <trkpt lat="44.93881" lon="4.40116">
        <ele>509.7</ele>
        <time>2026-05-06T06:24:49Z</time>
      </trkpt>
      <trkpt lat="44.93886" lon="4.40109">
        <ele>506.5</ele>
        <time>2026-05-06T06:24:54Z</time>
      </trkpt>
      <trkpt lat="44.9389" lon="4.40099">
        <ele>501.9</ele>
        <time>2026-05-06T06:24:59Z</time>
      </trkpt>
      <trkpt lat="44.93895" lon="4.4009">
        <ele>497.8</ele>
        <time>2026-05-06T06:25:04Z</time>
      </trkpt>
      <trkpt lat="44.93901" lon="4.40085">
        <ele>495.3</ele>
        <time>2026-05-06T06:25:09Z</time>
      </trkpt>
      <trkpt lat="44.93905" lon="4.40077">
        <ele>494.4</ele>
        <time>2026-05-06T06:25:14Z</time>
      </trkpt>
      <trkpt lat="44.9391" lon="4.40068">
        <ele>494.2</ele>
        <time>2026-05-06T06:25:19Z</time>
      </trkpt>
      <trkpt lat="44.93914" lon="4.40058">
        <ele>494.1</ele>
        <time>2026-05-06T06:25:24Z</time>
      </trkpt>
      <trkpt lat="44.93919" lon="4.4005">
        <ele>494.3</ele>
        <time>2026-05-06T06:25:29Z</time>
      </trkpt>
      <trkpt lat="44.93925" lon="4.40041">
        <ele>494.8</ele>
        <time>2026-05-06T06:25:34Z</time>
      </trkpt>
      <trkpt lat="44.93928" lon="4.40032">
        <ele>495</ele>
        <time>2026-05-06T06:25:39Z</time>
      </trkpt>
      <trkpt lat="44.93932" lon="4.40022">
        <ele>495.1</ele>
        <time>2026-05-06T06:25:44Z</time>
      </trkpt>
      <trkpt lat="44.93934" lon="4.40012">
        <ele>495</ele>
        <time>2026-05-06T06:25:49Z</time>
      </trkpt>
      <trkpt lat="44.93937" lon="4.40001">
        <ele>494.8</ele>
        <time>2026-05-06T06:25:54Z</time>
      </trkpt>
      <trkpt lat="44.93941" lon="4.39991">
        <ele>495</ele>
        <time>2026-05-06T06:25:59Z</time>
      </trkpt>
      <trkpt lat="44.93945" lon="4.39981">
        <ele>495.3</ele>
        <time>2026-05-06T06:26:04Z</time>
      </trkpt>
      <trkpt lat="44.93947" lon="4.39971">
        <ele>495.5</ele>
        <time>2026-05-06T06:26:09Z</time>
      </trkpt>
      <trkpt lat="44.9395" lon="4.3996">
        <ele>495.7</ele>
        <time>2026-05-06T06:26:14Z</time>
      </trkpt>
      <trkpt lat="44.93953" lon="4.3995">
        <ele>495.8</ele>
        <time>2026-05-06T06:26:19Z</time>
      </trkpt>
      <trkpt lat="44.93956" lon="4.39947">
        <ele>495.8</ele>
        <time>2026-05-06T06:26:24Z</time>
      </trkpt>
      <trkpt lat="44.93957" lon="4.39935">
        <ele>495.9</ele>
        <time>2026-05-06T06:26:29Z</time>
      </trkpt>
      <trkpt lat="44.93959" lon="4.3992">
        <ele>496</ele>
        <time>2026-05-06T06:26:34Z</time>
      </trkpt>
      <trkpt lat="44.93959" lon="4.39907">
        <ele>496.3</ele>
        <time>2026-05-06T06:26:39Z</time>
      </trkpt>
      <trkpt lat="44.9396" lon="4.39896">
        <ele>496.6</ele>
        <time>2026-05-06T06:26:44Z</time>
      </trkpt>
      <trkpt lat="44.93961" lon="4.39886">
        <ele>496.8</ele>
        <time>2026-05-06T06:26:49Z</time>
      </trkpt>
      <trkpt lat="44.93961" lon="4.39874">
        <ele>497.2</ele>
        <time>2026-05-06T06:26:54Z</time>
      </trkpt>
      <trkpt lat="44.9396" lon="4.39866">
        <ele>497.5</ele>
        <time>2026-05-06T06:26:59Z</time>
      </trkpt>
      <trkpt lat="44.93959" lon="4.39863">
        <ele>497.6</ele>
        <time>2026-05-06T06:27:04Z</time>
      </trkpt>
      <trkpt lat="44.93958" lon="4.3985">
        <ele>498</ele>
        <time>2026-05-06T06:27:09Z</time>
      </trkpt>
      <trkpt lat="44.93957" lon="4.39838">
        <ele>498.4</ele>
        <time>2026-05-06T06:27:14Z</time>
      </trkpt>
      <trkpt lat="44.93957" lon="4.39828">
        <ele>498.6</ele>
        <time>2026-05-06T06:27:19Z</time>
      </trkpt>
      <trkpt lat="44.93956" lon="4.39817">
        <ele>498.7</ele>
        <time>2026-05-06T06:27:24Z</time>
      </trkpt>
      <trkpt lat="44.93957" lon="4.39806">
        <ele>498.7</ele>
        <time>2026-05-06T06:27:29Z</time>
      </trkpt>
      <trkpt lat="44.93955" lon="4.39795">
        <ele>498.8</ele>
        <time>2026-05-06T06:27:34Z</time>
      </trkpt>
      <trkpt lat="44.93955" lon="4.39785">
        <ele>498.8</ele>
        <time>2026-05-06T06:27:39Z</time>
      </trkpt>
      <trkpt lat="44.93956" lon="4.39775">
        <ele>498.9</ele>
        <time>2026-05-06T06:27:44Z</time>
      </trkpt>
      <trkpt lat="44.93956" lon="4.39764">
        <ele>498.9</ele>
        <time>2026-05-06T06:27:49Z</time>
      </trkpt>
      <trkpt lat="44.93957" lon="4.39755">
        <ele>499</ele>
        <time>2026-05-06T06:27:54Z</time>
      </trkpt>
      <trkpt lat="44.93956" lon="4.39745">
        <ele>499</ele>
        <time>2026-05-06T06:27:59Z</time>
      </trkpt>
      <trkpt lat="44.93955" lon="4.39734">
        <ele>498.9</ele>
        <time>2026-05-06T06:28:04Z</time>
      </trkpt>
      <trkpt lat="44.93955" lon="4.39722">
        <ele>498.8</ele>
        <time>2026-05-06T06:28:09Z</time>
      </trkpt>
      <trkpt lat="44.93955" lon="4.39711">
        <ele>498.7</ele>
        <time>2026-05-06T06:28:14Z</time>
      </trkpt>
      <trkpt lat="44.93954" lon="4.39701">
        <ele>498.6</ele>
        <time>2026-05-06T06:28:19Z</time>
      </trkpt>
      <trkpt lat="44.93954" lon="4.3969">
        <ele>498.5</ele>
        <time>2026-05-06T06:28:24Z</time>
      </trkpt>
      <trkpt lat="44.93954" lon="4.3968">
        <ele>498.4</ele>
        <time>2026-05-06T06:28:29Z</time>
      </trkpt>
      <trkpt lat="44.93954" lon="4.39669">
        <ele>498.3</ele>
        <time>2026-05-06T06:28:34Z</time>
      </trkpt>
      <trkpt lat="44.93954" lon="4.39659">
        <ele>498.3</ele>
        <time>2026-05-06T06:28:39Z</time>
      </trkpt>
      <trkpt lat="44.93953" lon="4.39647">
        <ele>498.4</ele>
        <time>2026-05-06T06:28:44Z</time>
      </trkpt>
      <trkpt lat="44.93954" lon="4.39638">
        <ele>498.5</ele>
        <time>2026-05-06T06:28:49Z</time>
      </trkpt>
      <trkpt lat="44.93955" lon="4.39627">
        <ele>498.7</ele>
        <time>2026-05-06T06:28:54Z</time>
      </trkpt>
      <trkpt lat="44.93955" lon="4.39616">
        <ele>498.9</ele>
        <time>2026-05-06T06:28:59Z</time>
      </trkpt>
      <trkpt lat="44.93955" lon="4.39605">
        <ele>499</ele>
        <time>2026-05-06T06:29:04Z</time>
      </trkpt>
      <trkpt lat="44.93954" lon="4.39594">
        <ele>499</ele>
        <time>2026-05-06T06:29:09Z</time>
      </trkpt>
      <trkpt lat="44.93954" lon="4.39584">
        <ele>499.1</ele>
        <time>2026-05-06T06:29:14Z</time>
      </trkpt>
      <trkpt lat="44.93954" lon="4.39573">
        <ele>499.1</ele>
        <time>2026-05-06T06:29:19Z</time>
      </trkpt>
      <trkpt lat="44.93954" lon="4.39561">
        <ele>499</ele>
        <time>2026-05-06T06:29:24Z</time>
      </trkpt>
      <trkpt lat="44.93954" lon="4.3955">
        <ele>498.9</ele>
        <time>2026-05-06T06:29:29Z</time>
      </trkpt>
      <trkpt lat="44.93952" lon="4.39538">
        <ele>498.6</ele>
        <time>2026-05-06T06:29:34Z</time>
      </trkpt>
      <trkpt lat="44.93949" lon="4.39526">
        <ele>498.1</ele>
        <time>2026-05-06T06:29:39Z</time>
      </trkpt>
      <trkpt lat="44.93947" lon="4.39516">
        <ele>497.8</ele>
        <time>2026-05-06T06:29:44Z</time>
      </trkpt>
      <trkpt lat="44.93946" lon="4.39506">
        <ele>497.6</ele>
        <time>2026-05-06T06:29:49Z</time>
      </trkpt>
      <trkpt lat="44.93944" lon="4.39495">
        <ele>497.3</ele>
        <time>2026-05-06T06:29:54Z</time>
      </trkpt>
      <trkpt lat="44.93944" lon="4.39485">
        <ele>497.4</ele>
        <time>2026-05-06T06:29:59Z</time>
      </trkpt>
      <trkpt lat="44.93942" lon="4.39475">
        <ele>497.2</ele>
        <time>2026-05-06T06:30:04Z</time>
      </trkpt>
      <trkpt lat="44.9394" lon="4.3947">
        <ele>496.9</ele>
        <time>2026-05-06T06:30:09Z</time>
      </trkpt>
      <trkpt lat="44.9394" lon="4.3947">
        <ele>496.9</ele>
        <time>2026-05-06T06:30:14Z</time>
      </trkpt>
      <trkpt lat="44.93938" lon="4.39465">
        <ele>496.7</ele>
        <time>2026-05-06T06:30:19Z</time>
      </trkpt>
      <trkpt lat="44.93936" lon="4.39457">
        <ele>496.4</ele>
        <time>2026-05-06T06:30:24Z</time>
      </trkpt>
      <trkpt lat="44.93935" lon="4.39447">
        <ele>496.3</ele>
        <time>2026-05-06T06:30:29Z</time>
      </trkpt>
      <trkpt lat="44.93933" lon="4.39437">
        <ele>495.9</ele>
        <time>2026-05-06T06:30:34Z</time>
      </trkpt>
      <trkpt lat="44.9393" lon="4.39427">
        <ele>495.4</ele>
        <time>2026-05-06T06:30:39Z</time>
      </trkpt>
      <trkpt lat="44.93931" lon="4.39416">
        <ele>495.6</ele>
        <time>2026-05-06T06:30:44Z</time>
      </trkpt>
      <trkpt lat="44.93931" lon="4.39404">
        <ele>495.8</ele>
        <time>2026-05-06T06:30:49Z</time>
      </trkpt>
      <trkpt lat="44.9393" lon="4.39395">
        <ele>495.7</ele>
        <time>2026-05-06T06:30:54Z</time>
      </trkpt>
      <trkpt lat="44.93929" lon="4.39386">
        <ele>495.7</ele>
        <time>2026-05-06T06:30:59Z</time>
      </trkpt>
      <trkpt lat="44.93928" lon="4.39377">
        <ele>495.6</ele>
        <time>2026-05-06T06:31:04Z</time>
      </trkpt>
      <trkpt lat="44.93928" lon="4.39368">
        <ele>495.8</ele>
        <time>2026-05-06T06:31:09Z</time>
      </trkpt>
      <trkpt lat="44.93927" lon="4.39358">
        <ele>495.7</ele>
        <time>2026-05-06T06:31:14Z</time>
      </trkpt>
      <trkpt lat="44.93928" lon="4.39348">
        <ele>496.1</ele>
        <time>2026-05-06T06:31:19Z</time>
      </trkpt>
      <trkpt lat="44.93927" lon="4.39338">
        <ele>496</ele>
        <time>2026-05-06T06:31:24Z</time>
      </trkpt>
      <trkpt lat="44.93928" lon="4.39326">
        <ele>496.6</ele>
        <time>2026-05-06T06:31:29Z</time>
      </trkpt>
      <trkpt lat="44.93927" lon="4.39315">
        <ele>496.8</ele>
        <time>2026-05-06T06:31:34Z</time>
      </trkpt>
      <trkpt lat="44.93927" lon="4.39305">
        <ele>497.2</ele>
        <time>2026-05-06T06:31:39Z</time>
      </trkpt>
      <trkpt lat="44.93927" lon="4.39304">
        <ele>497.2</ele>
        <time>2026-05-06T06:31:44Z</time>
      </trkpt>
      <trkpt lat="44.93925" lon="4.39304">
        <ele>496.8</ele>
        <time>2026-05-06T06:31:49Z</time>
      </trkpt>
      <trkpt lat="44.93925" lon="4.39295">
        <ele>497.1</ele>
        <time>2026-05-06T06:31:54Z</time>
      </trkpt>
      <trkpt lat="44.93926" lon="4.39284">
        <ele>497.7</ele>
        <time>2026-05-06T06:31:59Z</time>
      </trkpt>
      <trkpt lat="44.93927" lon="4.39274">
        <ele>498.3</ele>
        <time>2026-05-06T06:32:04Z</time>
      </trkpt>
      <trkpt lat="44.93925" lon="4.39268">
        <ele>498.1</ele>
        <time>2026-05-06T06:32:09Z</time>
      </trkpt>
      <trkpt lat="44.93924" lon="4.39266">
        <ele>498</ele>
        <time>2026-05-06T06:32:14Z</time>
      </trkpt>
      <trkpt lat="44.93924" lon="4.39265">
        <ele>498</ele>
        <time>2026-05-06T06:32:19Z</time>
      </trkpt>
      <trkpt lat="44.93924" lon="4.39265">
        <ele>498</ele>
        <time>2026-05-06T06:32:24Z</time>
      </trkpt>
      <trkpt lat="44.93924" lon="4.39265">
        <ele>498</ele>
        <time>2026-05-06T06:32:29Z</time>
      </trkpt>
      <trkpt lat="44.93924" lon="4.39265">
        <ele>498</ele>
        <time>2026-05-06T06:32:34Z</time>
      </trkpt>
      <trkpt lat="44.93924" lon="4.39265">
        <ele>498</ele>
        <time>2026-05-06T06:32:39Z</time>
      </trkpt>
      <trkpt lat="44.93924" lon="4.39265">
        <ele>498</ele>
        <time>2026-05-06T06:32:44Z</time>
      </trkpt>
      <trkpt lat="44.93924" lon="4.39265">
        <ele>498</ele>
        <time>2026-05-06T06:32:49Z</time>
      </trkpt>
      <trkpt lat="44.93924" lon="4.39265">
        <ele>498</ele>
        <time>2026-05-06T06:32:54Z</time>
      </trkpt>
      <trkpt lat="44.93924" lon="4.39265">
        <ele>498</ele>
        <time>2026-05-06T06:32:59Z</time>
      </trkpt>
      <trkpt lat="44.93924" lon="4.39265">
        <ele>498</ele>
        <time>2026-05-06T06:33:04Z</time>
      </trkpt>
      <trkpt lat="44.93924" lon="4.39265">
        <ele>498</ele>
        <time>2026-05-06T06:33:09Z</time>
      </trkpt>
      <trkpt lat="44.93924" lon="4.39265">
        <ele>498</ele>
        <time>2026-05-06T06:33:14Z</time>
      </trkpt>
      <trkpt lat="44.93924" lon="4.39265">
        <ele>498</ele>
        <time>2026-05-06T06:33:19Z</time>
      </trkpt>
      <trkpt lat="44.93924" lon="4.39265">
        <ele>498</ele>
        <time>2026-05-06T06:33:24Z</time>
      </trkpt>
      <trkpt lat="44.93924" lon="4.39265">
        <ele>498</ele>
        <time>2026-05-06T06:33:29Z</time>
      </trkpt>
      <trkpt lat="44.93924" lon="4.39265">
        <ele>498</ele>
        <time>2026-05-06T06:33:34Z</time>
      </trkpt>
      <trkpt lat="44.93924" lon="4.39265">
        <ele>498</ele>
        <time>2026-05-06T06:33:39Z</time>
      </trkpt>
      <trkpt lat="44.93924" lon="4.39265">
        <ele>498</ele>
        <time>2026-05-06T06:33:44Z</time>
      </trkpt>
      <trkpt lat="44.93924" lon="4.39265">
        <ele>498</ele>
        <time>2026-05-06T06:33:49Z</time>
      </trkpt>
      <trkpt lat="44.93924" lon="4.39265">
        <ele>498</ele>
        <time>2026-05-06T06:33:54Z</time>
      </trkpt>
      <trkpt lat="44.93924" lon="4.39265">
        <ele>498</ele>
        <time>2026-05-06T06:33:59Z</time>
      </trkpt>
      <trkpt lat="44.93924" lon="4.39265">
        <ele>498</ele>
        <time>2026-05-06T06:34:04Z</time>
      </trkpt>
      <trkpt lat="44.93924" lon="4.39265">
        <ele>498</ele>
        <time>2026-05-06T06:34:09Z</time>
      </trkpt>
      <trkpt lat="44.93924" lon="4.39265">
        <ele>498</ele>
        <time>2026-05-06T06:34:14Z</time>
      </trkpt>
      <trkpt lat="44.9393" lon="4.3926">
        <ele>499.5</ele>
        <time>2026-05-06T06:34:19Z</time>
      </trkpt>
      <trkpt lat="44.93931" lon="4.39259">
        <ele>499.8</ele>
        <time>2026-05-06T06:34:24Z</time>
      </trkpt>
      <trkpt lat="44.93931" lon="4.39249">
        <ele>500.1</ele>
        <time>2026-05-06T06:34:29Z</time>
      </trkpt>
      <trkpt lat="44.93931" lon="4.39242">
        <ele>500.3</ele>
        <time>2026-05-06T06:34:34Z</time>
      </trkpt>
      <trkpt lat="44.9393" lon="4.39237">
        <ele>500.2</ele>
        <time>2026-05-06T06:34:39Z</time>
      </trkpt>
      <trkpt lat="44.93931" lon="4.39228">
        <ele>500.7</ele>
        <time>2026-05-06T06:34:44Z</time>
      </trkpt>
      <trkpt lat="44.9393" lon="4.39217">
        <ele>500.8</ele>
        <time>2026-05-06T06:34:49Z</time>
      </trkpt>
      <trkpt lat="44.9393" lon="4.39208">
        <ele>501</ele>
        <time>2026-05-06T06:34:54Z</time>
      </trkpt>
      <trkpt lat="44.93931" lon="4.39197">
        <ele>501.6</ele>
        <time>2026-05-06T06:34:59Z</time>
      </trkpt>
      <trkpt lat="44.93932" lon="4.39186">
        <ele>502.1</ele>
        <time>2026-05-06T06:35:04Z</time>
      </trkpt>
      <trkpt lat="44.93933" lon="4.39176">
        <ele>502.7</ele>
        <time>2026-05-06T06:35:09Z</time>
      </trkpt>
      <trkpt lat="44.93934" lon="4.39164">
        <ele>503.3</ele>
        <time>2026-05-06T06:35:14Z</time>
      </trkpt>
      <trkpt lat="44.93932" lon="4.39154">
        <ele>503.1</ele>
        <time>2026-05-06T06:35:19Z</time>
      </trkpt>
      <trkpt lat="44.93931" lon="4.39142">
        <ele>503.3</ele>
        <time>2026-05-06T06:35:24Z</time>
      </trkpt>
      <trkpt lat="44.9393" lon="4.39129">
        <ele>503.6</ele>
        <time>2026-05-06T06:35:29Z</time>
      </trkpt>
      <trkpt lat="44.93927" lon="4.39117">
        <ele>503.3</ele>
        <time>2026-05-06T06:35:34Z</time>
      </trkpt>
      <trkpt lat="44.93926" lon="4.39106">
        <ele>503.4</ele>
        <time>2026-05-06T06:35:39Z</time>
      </trkpt>
      <trkpt lat="44.93926" lon="4.39094">
        <ele>503.9</ele>
        <time>2026-05-06T06:35:44Z</time>
      </trkpt>
      <trkpt lat="44.93928" lon="4.39085">
        <ele>504.7</ele>
        <time>2026-05-06T06:35:49Z</time>
      </trkpt>
      <trkpt lat="44.93926" lon="4.39072">
        <ele>504.5</ele>
        <time>2026-05-06T06:35:54Z</time>
      </trkpt>
      <trkpt lat="44.93925" lon="4.39061">
        <ele>504.5</ele>
        <time>2026-05-06T06:35:59Z</time>
      </trkpt>
      <trkpt lat="44.93925" lon="4.39051">
        <ele>504.8</ele>
        <time>2026-05-06T06:36:04Z</time>
      </trkpt>
      <trkpt lat="44.93925" lon="4.39039">
        <ele>505.1</ele>
        <time>2026-05-06T06:36:09Z</time>
      </trkpt>
      <trkpt lat="44.93925" lon="4.39031">
        <ele>505.3</ele>
        <time>2026-05-06T06:36:14Z</time>
      </trkpt>
      <trkpt lat="44.93924" lon="4.39021">
        <ele>505.3</ele>
        <time>2026-05-06T06:36:19Z</time>
      </trkpt>
      <trkpt lat="44.93922" lon="4.39011">
        <ele>505</ele>
        <time>2026-05-06T06:36:24Z</time>
      </trkpt>
      <trkpt lat="44.9392" lon="4.39">
        <ele>504.8</ele>
        <time>2026-05-06T06:36:29Z</time>
      </trkpt>
      <trkpt lat="44.93919" lon="4.38986">
        <ele>504.9</ele>
        <time>2026-05-06T06:36:34Z</time>
      </trkpt>
      <trkpt lat="44.93917" lon="4.38975">
        <ele>504.7</ele>
        <time>2026-05-06T06:36:39Z</time>
      </trkpt>
      <trkpt lat="44.93917" lon="4.38964">
        <ele>505</ele>
        <time>2026-05-06T06:36:44Z</time>
      </trkpt>
      <trkpt lat="44.93916" lon="4.38954">
        <ele>505.1</ele>
        <time>2026-05-06T06:36:49Z</time>
      </trkpt>
      <trkpt lat="44.93915" lon="4.3894">
        <ele>505.3</ele>
        <time>2026-05-06T06:36:54Z</time>
      </trkpt>
      <trkpt lat="44.93914" lon="4.3893">
        <ele>505.5</ele>
        <time>2026-05-06T06:36:59Z</time>
      </trkpt>
      <trkpt lat="44.93911" lon="4.38919">
        <ele>505.6</ele>
        <time>2026-05-06T06:37:04Z</time>
      </trkpt>
      <trkpt lat="44.93907" lon="4.38908">
        <ele>505.4</ele>
        <time>2026-05-06T06:37:09Z</time>
      </trkpt>
      <trkpt lat="44.93906" lon="4.38899">
        <ele>505.3</ele>
        <time>2026-05-06T06:37:14Z</time>
      </trkpt>
      <trkpt lat="44.93905" lon="4.38889">
        <ele>505.2</ele>
        <time>2026-05-06T06:37:19Z</time>
      </trkpt>
      <trkpt lat="44.93904" lon="4.3888">
        <ele>505.1</ele>
        <time>2026-05-06T06:37:24Z</time>
      </trkpt>
      <trkpt lat="44.93902" lon="4.3887">
        <ele>505</ele>
        <time>2026-05-06T06:37:29Z</time>
      </trkpt>
      <trkpt lat="44.939" lon="4.3886">
        <ele>504.9</ele>
        <time>2026-05-06T06:37:34Z</time>
      </trkpt>
      <trkpt lat="44.93899" lon="4.38848">
        <ele>504.8</ele>
        <time>2026-05-06T06:37:39Z</time>
      </trkpt>
      <trkpt lat="44.93897" lon="4.38837">
        <ele>504.8</ele>
        <time>2026-05-06T06:37:44Z</time>
      </trkpt>
      <trkpt lat="44.93897" lon="4.38825">
        <ele>504.6</ele>
        <time>2026-05-06T06:37:49Z</time>
      </trkpt>
      <trkpt lat="44.93896" lon="4.38814">
        <ele>504.3</ele>
        <time>2026-05-06T06:37:54Z</time>
      </trkpt>
      <trkpt lat="44.93895" lon="4.38803">
        <ele>504</ele>
        <time>2026-05-06T06:37:59Z</time>
      </trkpt>
      <trkpt lat="44.93896" lon="4.38793">
        <ele>503.8</ele>
        <time>2026-05-06T06:38:04Z</time>
      </trkpt>
      <trkpt lat="44.939" lon="4.38784">
        <ele>503.5</ele>
        <time>2026-05-06T06:38:09Z</time>
      </trkpt>
      <trkpt lat="44.93902" lon="4.38774">
        <ele>503.2</ele>
        <time>2026-05-06T06:38:14Z</time>
      </trkpt>
      <trkpt lat="44.93905" lon="4.38765">
        <ele>502.9</ele>
        <time>2026-05-06T06:38:19Z</time>
      </trkpt>
      <trkpt lat="44.93908" lon="4.38754">
        <ele>502.4</ele>
        <time>2026-05-06T06:38:24Z</time>
      </trkpt>
      <trkpt lat="44.93912" lon="4.38747">
        <ele>502.3</ele>
        <time>2026-05-06T06:38:29Z</time>
      </trkpt>
      <trkpt lat="44.93919" lon="4.3874">
        <ele>502.9</ele>
        <time>2026-05-06T06:38:34Z</time>
      </trkpt>
      <trkpt lat="44.93922" lon="4.38731">
        <ele>503.8</ele>
        <time>2026-05-06T06:38:39Z</time>
      </trkpt>
      <trkpt lat="44.93927" lon="4.38722">
        <ele>505</ele>
        <time>2026-05-06T06:38:44Z</time>
      </trkpt>
      <trkpt lat="44.93932" lon="4.38711">
        <ele>505.9</ele>
        <time>2026-05-06T06:38:49Z</time>
      </trkpt>
      <trkpt lat="44.93936" lon="4.38704">
        <ele>506.4</ele>
        <time>2026-05-06T06:38:54Z</time>
      </trkpt>
      <trkpt lat="44.93941" lon="4.38696">
        <ele>506.9</ele>
        <time>2026-05-06T06:38:59Z</time>
      </trkpt>
      <trkpt lat="44.93948" lon="4.38689">
        <ele>507.5</ele>
        <time>2026-05-06T06:39:04Z</time>
      </trkpt>
      <trkpt lat="44.93956" lon="4.3868">
        <ele>507.6</ele>
        <time>2026-05-06T06:39:09Z</time>
      </trkpt>
      <trkpt lat="44.9396" lon="4.38671">
        <ele>507.1</ele>
        <time>2026-05-06T06:39:14Z</time>
      </trkpt>
      <trkpt lat="44.93963" lon="4.38661">
        <ele>506.7</ele>
        <time>2026-05-06T06:39:19Z</time>
      </trkpt>
      <trkpt lat="44.93967" lon="4.38652">
        <ele>506.8</ele>
        <time>2026-05-06T06:39:24Z</time>
      </trkpt>
      <trkpt lat="44.9397" lon="4.38641">
        <ele>506.7</ele>
        <time>2026-05-06T06:39:29Z</time>
      </trkpt>
      <trkpt lat="44.93973" lon="4.38632">
        <ele>506.5</ele>
        <time>2026-05-06T06:39:34Z</time>
      </trkpt>
      <trkpt lat="44.93975" lon="4.38621">
        <ele>506.2</ele>
        <time>2026-05-06T06:39:39Z</time>
      </trkpt>
      <trkpt lat="44.93979" lon="4.38611">
        <ele>505.9</ele>
        <time>2026-05-06T06:39:44Z</time>
      </trkpt>
      <trkpt lat="44.93981" lon="4.386">
        <ele>505.5</ele>
        <time>2026-05-06T06:39:49Z</time>
      </trkpt>
      <trkpt lat="44.93984" lon="4.3859">
        <ele>505</ele>
        <time>2026-05-06T06:39:54Z</time>
      </trkpt>
      <trkpt lat="44.93988" lon="4.38579">
        <ele>504.5</ele>
        <time>2026-05-06T06:39:59Z</time>
      </trkpt>
      <trkpt lat="44.9399" lon="4.38567">
        <ele>504.3</ele>
        <time>2026-05-06T06:40:04Z</time>
      </trkpt>
      <trkpt lat="44.93992" lon="4.38556">
        <ele>504.1</ele>
        <time>2026-05-06T06:40:09Z</time>
      </trkpt>
      <trkpt lat="44.93996" lon="4.38547">
        <ele>503.8</ele>
        <time>2026-05-06T06:40:14Z</time>
      </trkpt>
      <trkpt lat="44.93999" lon="4.38538">
        <ele>503.5</ele>
        <time>2026-05-06T06:40:19Z</time>
      </trkpt>
      <trkpt lat="44.94" lon="4.38525">
        <ele>503.3</ele>
        <time>2026-05-06T06:40:24Z</time>
      </trkpt>
      <trkpt lat="44.94003" lon="4.38514">
        <ele>504.1</ele>
        <time>2026-05-06T06:40:29Z</time>
      </trkpt>
      <trkpt lat="44.94005" lon="4.38504">
        <ele>504.6</ele>
        <time>2026-05-06T06:40:34Z</time>
      </trkpt>
      <trkpt lat="44.94006" lon="4.38493">
        <ele>504.9</ele>
        <time>2026-05-06T06:40:39Z</time>
      </trkpt>
      <trkpt lat="44.94007" lon="4.3848">
        <ele>505.3</ele>
        <time>2026-05-06T06:40:44Z</time>
      </trkpt>
      <trkpt lat="44.94007" lon="4.38468">
        <ele>505.4</ele>
        <time>2026-05-06T06:40:49Z</time>
      </trkpt>
      <trkpt lat="44.94008" lon="4.38456">
        <ele>505.8</ele>
        <time>2026-05-06T06:40:54Z</time>
      </trkpt>
      <trkpt lat="44.94008" lon="4.38446">
        <ele>505.9</ele>
        <time>2026-05-06T06:40:59Z</time>
      </trkpt>
      <trkpt lat="44.94008" lon="4.38439">
        <ele>505.9</ele>
        <time>2026-05-06T06:41:04Z</time>
      </trkpt>
      <trkpt lat="44.94008" lon="4.38439">
        <ele>505.9</ele>
        <time>2026-05-06T06:41:09Z</time>
      </trkpt>
      <trkpt lat="44.94008" lon="4.38439">
        <ele>505.9</ele>
        <time>2026-05-06T06:41:14Z</time>
      </trkpt>
      <trkpt lat="44.94008" lon="4.38439">
        <ele>505.9</ele>
        <time>2026-05-06T06:41:19Z</time>
      </trkpt>
      <trkpt lat="44.94008" lon="4.38435">
        <ele>506</ele>
        <time>2026-05-06T06:41:24Z</time>
      </trkpt>
      <trkpt lat="44.94009" lon="4.38426">
        <ele>506.3</ele>
        <time>2026-05-06T06:41:29Z</time>
      </trkpt>
      <trkpt lat="44.9401" lon="4.38421">
        <ele>506.6</ele>
        <time>2026-05-06T06:41:34Z</time>
      </trkpt>
      <trkpt lat="44.9401" lon="4.38417">
        <ele>506.6</ele>
        <time>2026-05-06T06:41:39Z</time>
      </trkpt>
      <trkpt lat="44.9401" lon="4.38407">
        <ele>506.5</ele>
        <time>2026-05-06T06:41:44Z</time>
      </trkpt>
      <trkpt lat="44.94011" lon="4.38398">
        <ele>506.7</ele>
        <time>2026-05-06T06:41:49Z</time>
      </trkpt>
      <trkpt lat="44.94014" lon="4.38386">
        <ele>507.3</ele>
        <time>2026-05-06T06:41:54Z</time>
      </trkpt>
      <trkpt lat="44.94014" lon="4.38375">
        <ele>507.1</ele>
        <time>2026-05-06T06:41:59Z</time>
      </trkpt>
      <trkpt lat="44.94015" lon="4.38364">
        <ele>507.2</ele>
        <time>2026-05-06T06:42:04Z</time>
      </trkpt>
      <trkpt lat="44.94015" lon="4.38353">
        <ele>507</ele>
        <time>2026-05-06T06:42:09Z</time>
      </trkpt>
      <trkpt lat="44.94016" lon="4.38343">
        <ele>507</ele>
        <time>2026-05-06T06:42:14Z</time>
      </trkpt>
      <trkpt lat="44.94019" lon="4.38337">
        <ele>507.5</ele>
        <time>2026-05-06T06:42:19Z</time>
      </trkpt>
      <trkpt lat="44.94023" lon="4.38331">
        <ele>508.1</ele>
        <time>2026-05-06T06:42:24Z</time>
      </trkpt>
      <trkpt lat="44.94022" lon="4.38327">
        <ele>508</ele>
        <time>2026-05-06T06:42:29Z</time>
      </trkpt>
      <trkpt lat="44.94023" lon="4.38325">
        <ele>508.1</ele>
        <time>2026-05-06T06:42:34Z</time>
      </trkpt>
      <trkpt lat="44.94024" lon="4.38324">
        <ele>508.3</ele>
        <time>2026-05-06T06:42:39Z</time>
      </trkpt>
      <trkpt lat="44.94022" lon="4.38318">
        <ele>508</ele>
        <time>2026-05-06T06:42:44Z</time>
      </trkpt>
      <trkpt lat="44.94025" lon="4.38306">
        <ele>508.5</ele>
        <time>2026-05-06T06:42:49Z</time>
      </trkpt>
      <trkpt lat="44.94029" lon="4.38297">
        <ele>509</ele>
        <time>2026-05-06T06:42:54Z</time>
      </trkpt>
      <trkpt lat="44.94033" lon="4.38289">
        <ele>509.5</ele>
        <time>2026-05-06T06:42:59Z</time>
      </trkpt>
      <trkpt lat="44.94035" lon="4.38279">
        <ele>509.7</ele>
        <time>2026-05-06T06:43:04Z</time>
      </trkpt>
      <trkpt lat="44.94036" lon="4.38271">
        <ele>509.7</ele>
        <time>2026-05-06T06:43:09Z</time>
      </trkpt>
      <trkpt lat="44.94035" lon="4.38261">
        <ele>509.5</ele>
        <time>2026-05-06T06:43:14Z</time>
      </trkpt>
      <trkpt lat="44.94036" lon="4.38251">
        <ele>509.5</ele>
        <time>2026-05-06T06:43:19Z</time>
      </trkpt>
      <trkpt lat="44.94038" lon="4.38241">
        <ele>509.7</ele>
        <time>2026-05-06T06:43:24Z</time>
      </trkpt>
      <trkpt lat="44.94038" lon="4.3823">
        <ele>509.8</ele>
        <time>2026-05-06T06:43:29Z</time>
      </trkpt>
      <trkpt lat="44.94038" lon="4.3822">
        <ele>509.9</ele>
        <time>2026-05-06T06:43:34Z</time>
      </trkpt>
      <trkpt lat="44.94038" lon="4.3822">
        <ele>509.9</ele>
        <time>2026-05-06T06:43:39Z</time>
      </trkpt>
      <trkpt lat="44.94038" lon="4.3822">
        <ele>509.9</ele>
        <time>2026-05-06T06:43:44Z</time>
      </trkpt>
      <trkpt lat="44.94036" lon="4.38208">
        <ele>509.8</ele>
        <time>2026-05-06T06:43:49Z</time>
      </trkpt>
      <trkpt lat="44.94034" lon="4.38192">
        <ele>509.8</ele>
        <time>2026-05-06T06:43:54Z</time>
      </trkpt>
      <trkpt lat="44.94035" lon="4.38182">
        <ele>510</ele>
        <time>2026-05-06T06:43:59Z</time>
      </trkpt>
      <trkpt lat="44.94035" lon="4.38171">
        <ele>510.1</ele>
        <time>2026-05-06T06:44:04Z</time>
      </trkpt>
      <trkpt lat="44.94033" lon="4.3816">
        <ele>510</ele>
        <time>2026-05-06T06:44:09Z</time>
      </trkpt>
      <trkpt lat="44.94032" lon="4.38148">
        <ele>509.9</ele>
        <time>2026-05-06T06:44:14Z</time>
      </trkpt>
      <trkpt lat="44.94031" lon="4.38136">
        <ele>509.8</ele>
        <time>2026-05-06T06:44:19Z</time>
      </trkpt>
      <trkpt lat="44.94029" lon="4.38125">
        <ele>509.6</ele>
        <time>2026-05-06T06:44:24Z</time>
      </trkpt>
      <trkpt lat="44.94027" lon="4.38113">
        <ele>509.4</ele>
        <time>2026-05-06T06:44:29Z</time>
      </trkpt>
      <trkpt lat="44.94026" lon="4.38101">
        <ele>509.2</ele>
        <time>2026-05-06T06:44:34Z</time>
      </trkpt>
      <trkpt lat="44.94026" lon="4.3809">
        <ele>509.2</ele>
        <time>2026-05-06T06:44:39Z</time>
      </trkpt>
      <trkpt lat="44.94026" lon="4.38078">
        <ele>509.5</ele>
        <time>2026-05-06T06:44:44Z</time>
      </trkpt>
      <trkpt lat="44.94025" lon="4.38066">
        <ele>510.1</ele>
        <time>2026-05-06T06:44:49Z</time>
      </trkpt>
      <trkpt lat="44.94025" lon="4.38057">
        <ele>510.7</ele>
        <time>2026-05-06T06:44:54Z</time>
      </trkpt>
      <trkpt lat="44.94022" lon="4.38046">
        <ele>510.9</ele>
        <time>2026-05-06T06:44:59Z</time>
      </trkpt>
      <trkpt lat="44.94019" lon="4.38034">
        <ele>511.1</ele>
        <time>2026-05-06T06:45:04Z</time>
      </trkpt>
      <trkpt lat="44.94017" lon="4.38022">
        <ele>511.4</ele>
        <time>2026-05-06T06:45:09Z</time>
      </trkpt>
      <trkpt lat="44.94011" lon="4.38013">
        <ele>510.7</ele>
        <time>2026-05-06T06:45:14Z</time>
      </trkpt>
      <trkpt lat="44.94008" lon="4.38004">
        <ele>510.5</ele>
        <time>2026-05-06T06:45:19Z</time>
      </trkpt>
      <trkpt lat="44.94004" lon="4.37994">
        <ele>510.1</ele>
        <time>2026-05-06T06:45:24Z</time>
      </trkpt>
      <trkpt lat="44.94001" lon="4.37983">
        <ele>509.9</ele>
        <time>2026-05-06T06:45:29Z</time>
      </trkpt>
      <trkpt lat="44.93998" lon="4.37972">
        <ele>510.1</ele>
        <time>2026-05-06T06:45:34Z</time>
      </trkpt>
      <trkpt lat="44.93993" lon="4.37961">
        <ele>510.8</ele>
        <time>2026-05-06T06:45:39Z</time>
      </trkpt>
      <trkpt lat="44.93989" lon="4.37954">
        <ele>511.1</ele>
        <time>2026-05-06T06:45:44Z</time>
      </trkpt>
      <trkpt lat="44.93985" lon="4.37944">
        <ele>511.6</ele>
        <time>2026-05-06T06:45:49Z</time>
      </trkpt>
      <trkpt lat="44.93981" lon="4.37934">
        <ele>511.9</ele>
        <time>2026-05-06T06:45:54Z</time>
      </trkpt>
      <trkpt lat="44.93975" lon="4.37925">
        <ele>512.2</ele>
        <time>2026-05-06T06:45:59Z</time>
      </trkpt>
      <trkpt lat="44.93968" lon="4.37916">
        <ele>512.4</ele>
        <time>2026-05-06T06:46:04Z</time>
      </trkpt>
      <trkpt lat="44.93964" lon="4.37907">
        <ele>512.4</ele>
        <time>2026-05-06T06:46:09Z</time>
      </trkpt>
      <trkpt lat="44.93959" lon="4.37897">
        <ele>512.3</ele>
        <time>2026-05-06T06:46:14Z</time>
      </trkpt>
      <trkpt lat="44.93957" lon="4.37887">
        <ele>512.1</ele>
        <time>2026-05-06T06:46:19Z</time>
      </trkpt>
      <trkpt lat="44.93953" lon="4.37876">
        <ele>511.9</ele>
        <time>2026-05-06T06:46:24Z</time>
      </trkpt>
      <trkpt lat="44.9395" lon="4.37865">
        <ele>511.6</ele>
        <time>2026-05-06T06:46:29Z</time>
      </trkpt>
      <trkpt lat="44.93947" lon="4.37854">
        <ele>511.3</ele>
        <time>2026-05-06T06:46:34Z</time>
      </trkpt>
      <trkpt lat="44.93945" lon="4.37847">
        <ele>511</ele>
        <time>2026-05-06T06:46:39Z</time>
      </trkpt>
      <trkpt lat="44.93944" lon="4.37843">
        <ele>510.9</ele>
        <time>2026-05-06T06:46:44Z</time>
      </trkpt>
      <trkpt lat="44.93944" lon="4.37834">
        <ele>510.7</ele>
        <time>2026-05-06T06:46:49Z</time>
      </trkpt>
      <trkpt lat="44.93943" lon="4.37821">
        <ele>510.9</ele>
        <time>2026-05-06T06:46:54Z</time>
      </trkpt>
      <trkpt lat="44.93942" lon="4.3781">
        <ele>511</ele>
        <time>2026-05-06T06:46:59Z</time>
      </trkpt>
      <trkpt lat="44.93941" lon="4.37798">
        <ele>511.2</ele>
        <time>2026-05-06T06:47:04Z</time>
      </trkpt>
      <trkpt lat="44.93941" lon="4.37787">
        <ele>511.4</ele>
        <time>2026-05-06T06:47:09Z</time>
      </trkpt>
      <trkpt lat="44.93939" lon="4.37776">
        <ele>511.3</ele>
        <time>2026-05-06T06:47:14Z</time>
      </trkpt>
      <trkpt lat="44.93937" lon="4.37765">
        <ele>511.2</ele>
        <time>2026-05-06T06:47:19Z</time>
      </trkpt>
      <trkpt lat="44.93936" lon="4.37753">
        <ele>511.2</ele>
        <time>2026-05-06T06:47:24Z</time>
      </trkpt>
      <trkpt lat="44.93932" lon="4.37742">
        <ele>511.4</ele>
        <time>2026-05-06T06:47:29Z</time>
      </trkpt>
      <trkpt lat="44.93929" lon="4.3773">
        <ele>511.9</ele>
        <time>2026-05-06T06:47:34Z</time>
      </trkpt>
      <trkpt lat="44.93924" lon="4.3772">
        <ele>511.8</ele>
        <time>2026-05-06T06:47:39Z</time>
      </trkpt>
      <trkpt lat="44.9392" lon="4.37711">
        <ele>511.6</ele>
        <time>2026-05-06T06:47:44Z</time>
      </trkpt>
      <trkpt lat="44.93915" lon="4.37704">
        <ele>511.3</ele>
        <time>2026-05-06T06:47:49Z</time>
      </trkpt>
      <trkpt lat="44.9391" lon="4.37698">
        <ele>511.6</ele>
        <time>2026-05-06T06:47:54Z</time>
      </trkpt>
      <trkpt lat="44.93904" lon="4.37689">
        <ele>512</ele>
        <time>2026-05-06T06:47:59Z</time>
      </trkpt>
      <trkpt lat="44.939" lon="4.37685">
        <ele>512.1</ele>
        <time>2026-05-06T06:48:04Z</time>
      </trkpt>
      <trkpt lat="44.93895" lon="4.37677">
        <ele>512.2</ele>
        <time>2026-05-06T06:48:09Z</time>
      </trkpt>
      <trkpt lat="44.93888" lon="4.3767">
        <ele>512.2</ele>
        <time>2026-05-06T06:48:14Z</time>
      </trkpt>
      <trkpt lat="44.9388" lon="4.37661">
        <ele>512.6</ele>
        <time>2026-05-06T06:48:19Z</time>
      </trkpt>
      <trkpt lat="44.93872" lon="4.37651">
        <ele>513.3</ele>
        <time>2026-05-06T06:48:24Z</time>
      </trkpt>
      <trkpt lat="44.93865" lon="4.37643">
        <ele>513.7</ele>
        <time>2026-05-06T06:48:29Z</time>
      </trkpt>
      <trkpt lat="44.93859" lon="4.37636">
        <ele>513.9</ele>
        <time>2026-05-06T06:48:34Z</time>
      </trkpt>
      <trkpt lat="44.93853" lon="4.3763">
        <ele>513.9</ele>
        <time>2026-05-06T06:48:39Z</time>
      </trkpt>
      <trkpt lat="44.93847" lon="4.37622">
        <ele>513.9</ele>
        <time>2026-05-06T06:48:44Z</time>
      </trkpt>
      <trkpt lat="44.93843" lon="4.37615">
        <ele>514</ele>
        <time>2026-05-06T06:48:49Z</time>
      </trkpt>
      <trkpt lat="44.93834" lon="4.37608">
        <ele>513.3</ele>
        <time>2026-05-06T06:48:54Z</time>
      </trkpt>
      <trkpt lat="44.93827" lon="4.37601">
        <ele>513.5</ele>
        <time>2026-05-06T06:48:59Z</time>
      </trkpt>
      <trkpt lat="44.9382" lon="4.37594">
        <ele>513.6</ele>
        <time>2026-05-06T06:49:04Z</time>
      </trkpt>
      <trkpt lat="44.93814" lon="4.37588">
        <ele>513.5</ele>
        <time>2026-05-06T06:49:09Z</time>
      </trkpt>
      <trkpt lat="44.93807" lon="4.37582">
        <ele>513.3</ele>
        <time>2026-05-06T06:49:14Z</time>
      </trkpt>
      <trkpt lat="44.938" lon="4.37576">
        <ele>513.6</ele>
        <time>2026-05-06T06:49:19Z</time>
      </trkpt>
      <trkpt lat="44.93794" lon="4.37571">
        <ele>513.8</ele>
        <time>2026-05-06T06:49:24Z</time>
      </trkpt>
      <trkpt lat="44.93787" lon="4.37565">
        <ele>513.9</ele>
        <time>2026-05-06T06:49:29Z</time>
      </trkpt>
      <trkpt lat="44.93781" lon="4.37558">
        <ele>514.2</ele>
        <time>2026-05-06T06:49:34Z</time>
      </trkpt>
      <trkpt lat="44.93774" lon="4.37553">
        <ele>514</ele>
        <time>2026-05-06T06:49:39Z</time>
      </trkpt>
      <trkpt lat="44.93768" lon="4.37549">
        <ele>513.8</ele>
        <time>2026-05-06T06:49:44Z</time>
      </trkpt>
      <trkpt lat="44.93761" lon="4.37544">
        <ele>513.5</ele>
        <time>2026-05-06T06:49:49Z</time>
      </trkpt>
      <trkpt lat="44.93754" lon="4.37538">
        <ele>513.3</ele>
        <time>2026-05-06T06:49:54Z</time>
      </trkpt>
      <trkpt lat="44.93746" lon="4.37534">
        <ele>513.6</ele>
        <time>2026-05-06T06:49:59Z</time>
      </trkpt>
      <trkpt lat="44.93739" lon="4.37529">
        <ele>514.7</ele>
        <time>2026-05-06T06:50:04Z</time>
      </trkpt>
      <trkpt lat="44.93732" lon="4.37522">
        <ele>515.5</ele>
        <time>2026-05-06T06:50:09Z</time>
      </trkpt>
      <trkpt lat="44.93727" lon="4.37518">
        <ele>515.9</ele>
        <time>2026-05-06T06:50:14Z</time>
      </trkpt>
      <trkpt lat="44.9372" lon="4.37514">
        <ele>516.3</ele>
        <time>2026-05-06T06:50:19Z</time>
      </trkpt>
      <trkpt lat="44.93714" lon="4.3751">
        <ele>516.4</ele>
        <time>2026-05-06T06:50:24Z</time>
      </trkpt>
      <trkpt lat="44.93707" lon="4.37506">
        <ele>516.4</ele>
        <time>2026-05-06T06:50:29Z</time>
      </trkpt>
      <trkpt lat="44.937" lon="4.375">
        <ele>516</ele>
        <time>2026-05-06T06:50:34Z</time>
      </trkpt>
      <trkpt lat="44.93698" lon="4.3749">
        <ele>516.6</ele>
        <time>2026-05-06T06:50:39Z</time>
      </trkpt>
      <trkpt lat="44.937" lon="4.37479">
        <ele>517.3</ele>
        <time>2026-05-06T06:50:44Z</time>
      </trkpt>
      <trkpt lat="44.93699" lon="4.37471">
        <ele>517.8</ele>
        <time>2026-05-06T06:50:49Z</time>
      </trkpt>
      <trkpt lat="44.93692" lon="4.37465">
        <ele>517.7</ele>
        <time>2026-05-06T06:50:54Z</time>
      </trkpt>
      <trkpt lat="44.93684" lon="4.37461">
        <ele>517.3</ele>
        <time>2026-05-06T06:50:59Z</time>
      </trkpt>
      <trkpt lat="44.93679" lon="4.37458">
        <ele>517</ele>
        <time>2026-05-06T06:51:04Z</time>
      </trkpt>
      <trkpt lat="44.93672" lon="4.37453">
        <ele>516.5</ele>
        <time>2026-05-06T06:51:09Z</time>
      </trkpt>
      <trkpt lat="44.93663" lon="4.37455">
        <ele>517.5</ele>
        <time>2026-05-06T06:51:14Z</time>
      </trkpt>
      <trkpt lat="44.93658" lon="4.37449">
        <ele>519.3</ele>
        <time>2026-05-06T06:51:19Z</time>
      </trkpt>
      <trkpt lat="44.93654" lon="4.37441">
        <ele>520.7</ele>
        <time>2026-05-06T06:51:24Z</time>
      </trkpt>
      <trkpt lat="44.93649" lon="4.37434">
        <ele>522.2</ele>
        <time>2026-05-06T06:51:29Z</time>
      </trkpt>
      <trkpt lat="44.93644" lon="4.37425">
        <ele>523.5</ele>
        <time>2026-05-06T06:51:34Z</time>
      </trkpt>
      <trkpt lat="44.9364" lon="4.37417">
        <ele>524.3</ele>
        <time>2026-05-06T06:51:39Z</time>
      </trkpt>
      <trkpt lat="44.93636" lon="4.37409">
        <ele>525.6</ele>
        <time>2026-05-06T06:51:44Z</time>
      </trkpt>
      <trkpt lat="44.93634" lon="4.37401">
        <ele>526.2</ele>
        <time>2026-05-06T06:51:49Z</time>
      </trkpt>
      <trkpt lat="44.93633" lon="4.37394">
        <ele>526.5</ele>
        <time>2026-05-06T06:51:54Z</time>
      </trkpt>
      <trkpt lat="44.93633" lon="4.37393">
        <ele>526.5</ele>
        <time>2026-05-06T06:51:59Z</time>
      </trkpt>
      <trkpt lat="44.93632" lon="4.37385">
        <ele>526.8</ele>
        <time>2026-05-06T06:52:04Z</time>
      </trkpt>
      <trkpt lat="44.93629" lon="4.37375">
        <ele>527.6</ele>
        <time>2026-05-06T06:52:09Z</time>
      </trkpt>
      <trkpt lat="44.93631" lon="4.37364">
        <ele>527</ele>
        <time>2026-05-06T06:52:14Z</time>
      </trkpt>
      <trkpt lat="44.93633" lon="4.37357">
        <ele>526.5</ele>
        <time>2026-05-06T06:52:19Z</time>
      </trkpt>
      <trkpt lat="44.93633" lon="4.37346">
        <ele>526.5</ele>
        <time>2026-05-06T06:52:24Z</time>
      </trkpt>
      <trkpt lat="44.93634" lon="4.37341">
        <ele>526.2</ele>
        <time>2026-05-06T06:52:29Z</time>
      </trkpt>
      <trkpt lat="44.93635" lon="4.3734">
        <ele>526</ele>
        <time>2026-05-06T06:52:34Z</time>
      </trkpt>
      <trkpt lat="44.93635" lon="4.37337">
        <ele>526</ele>
        <time>2026-05-06T06:52:39Z</time>
      </trkpt>
      <trkpt lat="44.93637" lon="4.37325">
        <ele>525.4</ele>
        <time>2026-05-06T06:52:44Z</time>
      </trkpt>
      <trkpt lat="44.93639" lon="4.37315">
        <ele>524.8</ele>
        <time>2026-05-06T06:52:49Z</time>
      </trkpt>
      <trkpt lat="44.93643" lon="4.37307">
        <ele>523.7</ele>
        <time>2026-05-06T06:52:54Z</time>
      </trkpt>
      <trkpt lat="44.93646" lon="4.37297">
        <ele>522.9</ele>
        <time>2026-05-06T06:52:59Z</time>
      </trkpt>
      <trkpt lat="44.93651" lon="4.37289">
        <ele>521.5</ele>
        <time>2026-05-06T06:53:04Z</time>
      </trkpt>
      <trkpt lat="44.93656" lon="4.37279">
        <ele>520.1</ele>
        <time>2026-05-06T06:53:09Z</time>
      </trkpt>
      <trkpt lat="44.93657" lon="4.37274">
        <ele>519.8</ele>
        <time>2026-05-06T06:53:14Z</time>
      </trkpt>
      <trkpt lat="44.93656" lon="4.37273">
        <ele>520.1</ele>
        <time>2026-05-06T06:53:19Z</time>
      </trkpt>
      <trkpt lat="44.93655" lon="4.37267">
        <ele>520.3</ele>
        <time>2026-05-06T06:53:24Z</time>
      </trkpt>
      <trkpt lat="44.93654" lon="4.37259">
        <ele>520.4</ele>
        <time>2026-05-06T06:53:29Z</time>
      </trkpt>
      <trkpt lat="44.93652" lon="4.37255">
        <ele>520.9</ele>
        <time>2026-05-06T06:53:34Z</time>
      </trkpt>
      <trkpt lat="44.9365" lon="4.37252">
        <ele>521.4</ele>
        <time>2026-05-06T06:53:39Z</time>
      </trkpt>
      <trkpt lat="44.93648" lon="4.37244">
        <ele>522.1</ele>
        <time>2026-05-06T06:53:44Z</time>
      </trkpt>
      <trkpt lat="44.93648" lon="4.37235">
        <ele>522.2</ele>
        <time>2026-05-06T06:53:49Z</time>
      </trkpt>
      <trkpt lat="44.93647" lon="4.37231">
        <ele>522.6</ele>
        <time>2026-05-06T06:53:54Z</time>
      </trkpt>
      <trkpt lat="44.93647" lon="4.3723">
        <ele>522.6</ele>
        <time>2026-05-06T06:53:59Z</time>
      </trkpt>
      <trkpt lat="44.93647" lon="4.3723">
        <ele>522.6</ele>
        <time>2026-05-06T06:54:04Z</time>
      </trkpt>
      <trkpt lat="44.93647" lon="4.3723">
        <ele>522.6</ele>
        <time>2026-05-06T06:54:09Z</time>
      </trkpt>
      <trkpt lat="44.93643" lon="4.37225">
        <ele>523.8</ele>
        <time>2026-05-06T06:54:14Z</time>
      </trkpt>
      <trkpt lat="44.93641" lon="4.37216">
        <ele>524.5</ele>
        <time>2026-05-06T06:54:19Z</time>
      </trkpt>
      <trkpt lat="44.93637" lon="4.37206">
        <ele>525.7</ele>
        <time>2026-05-06T06:54:24Z</time>
      </trkpt>
      <trkpt lat="44.93635" lon="4.37199">
        <ele>526.4</ele>
        <time>2026-05-06T06:54:29Z</time>
      </trkpt>
      <trkpt lat="44.93632" lon="4.3719">
        <ele>527.3</ele>
        <time>2026-05-06T06:54:34Z</time>
      </trkpt>
      <trkpt lat="44.93629" lon="4.37181">
        <ele>528.2</ele>
        <time>2026-05-06T06:54:39Z</time>
      </trkpt>
      <trkpt lat="44.93624" lon="4.37175">
        <ele>529.6</ele>
        <time>2026-05-06T06:54:44Z</time>
      </trkpt>
      <trkpt lat="44.93618" lon="4.37161">
        <ele>531.4</ele>
        <time>2026-05-06T06:54:49Z</time>
      </trkpt>
      <trkpt lat="44.93613" lon="4.3715">
        <ele>532.8</ele>
        <time>2026-05-06T06:54:54Z</time>
      </trkpt>
      <trkpt lat="44.93607" lon="4.37139">
        <ele>534.3</ele>
        <time>2026-05-06T06:54:59Z</time>
      </trkpt>
      <trkpt lat="44.93602" lon="4.37128">
        <ele>535.4</ele>
        <time>2026-05-06T06:55:04Z</time>
      </trkpt>
      <trkpt lat="44.93597" lon="4.37121">
        <ele>536.4</ele>
        <time>2026-05-06T06:55:09Z</time>
      </trkpt>
      <trkpt lat="44.93594" lon="4.37115">
        <ele>536.9</ele>
        <time>2026-05-06T06:55:14Z</time>
      </trkpt>
      <trkpt lat="44.93591" lon="4.3711">
        <ele>537.3</ele>
        <time>2026-05-06T06:55:19Z</time>
      </trkpt>
      <trkpt lat="44.93589" lon="4.371">
        <ele>537.5</ele>
        <time>2026-05-06T06:55:24Z</time>
      </trkpt>
      <trkpt lat="44.93587" lon="4.37093">
        <ele>537.7</ele>
        <time>2026-05-06T06:55:29Z</time>
      </trkpt>
      <trkpt lat="44.93585" lon="4.37085">
        <ele>537.8</ele>
        <time>2026-05-06T06:55:34Z</time>
      </trkpt>
      <trkpt lat="44.93583" lon="4.37079">
        <ele>538.6</ele>
        <time>2026-05-06T06:55:39Z</time>
      </trkpt>
      <trkpt lat="44.93583" lon="4.37073">
        <ele>539</ele>
        <time>2026-05-06T06:55:44Z</time>
      </trkpt>
      <trkpt lat="44.93581" lon="4.37071">
        <ele>540.8</ele>
        <time>2026-05-06T06:55:49Z</time>
      </trkpt>
      <trkpt lat="44.93581" lon="4.37065">
        <ele>541.2</ele>
        <time>2026-05-06T06:55:54Z</time>
      </trkpt>
      <trkpt lat="44.93582" lon="4.37057">
        <ele>541</ele>
        <time>2026-05-06T06:55:59Z</time>
      </trkpt>
      <trkpt lat="44.93581" lon="4.37048">
        <ele>542.3</ele>
        <time>2026-05-06T06:56:04Z</time>
      </trkpt>
      <trkpt lat="44.93584" lon="4.37041">
        <ele>541</ele>
        <time>2026-05-06T06:56:09Z</time>
      </trkpt>
      <trkpt lat="44.93587" lon="4.37035">
        <ele>541</ele>
        <time>2026-05-06T06:56:14Z</time>
      </trkpt>
      <trkpt lat="44.93591" lon="4.3703">
        <ele>540.8</ele>
        <time>2026-05-06T06:56:19Z</time>
      </trkpt>
      <trkpt lat="44.93591" lon="4.37025">
        <ele>541.2</ele>
        <time>2026-05-06T06:56:24Z</time>
      </trkpt>
      <trkpt lat="44.93595" lon="4.3702">
        <ele>541</ele>
        <time>2026-05-06T06:56:29Z</time>
      </trkpt>
      <trkpt lat="44.93596" lon="4.37014">
        <ele>541.3</ele>
        <time>2026-05-06T06:56:34Z</time>
      </trkpt>
      <trkpt lat="44.93598" lon="4.37006">
        <ele>541.6</ele>
        <time>2026-05-06T06:56:39Z</time>
      </trkpt>
      <trkpt lat="44.93601" lon="4.37">
        <ele>541.7</ele>
        <time>2026-05-06T06:56:44Z</time>
      </trkpt>
      <trkpt lat="44.93603" lon="4.36992">
        <ele>541.7</ele>
        <time>2026-05-06T06:56:49Z</time>
      </trkpt>
      <trkpt lat="44.93605" lon="4.36986">
        <ele>541.6</ele>
        <time>2026-05-06T06:56:54Z</time>
      </trkpt>
      <trkpt lat="44.93608" lon="4.3698">
        <ele>541.3</ele>
        <time>2026-05-06T06:56:59Z</time>
      </trkpt>
      <trkpt lat="44.93611" lon="4.36975">
        <ele>541</ele>
        <time>2026-05-06T06:57:04Z</time>
      </trkpt>
      <trkpt lat="44.93613" lon="4.36968">
        <ele>540.8</ele>
        <time>2026-05-06T06:57:09Z</time>
      </trkpt>
      <trkpt lat="44.93617" lon="4.36962">
        <ele>540.2</ele>
        <time>2026-05-06T06:57:14Z</time>
      </trkpt>
      <trkpt lat="44.93614" lon="4.36958">
        <ele>540.8</ele>
        <time>2026-05-06T06:57:19Z</time>
      </trkpt>
      <trkpt lat="44.93613" lon="4.36955">
        <ele>541.1</ele>
        <time>2026-05-06T06:57:24Z</time>
      </trkpt>
      <trkpt lat="44.93613" lon="4.36954">
        <ele>541.1</ele>
        <time>2026-05-06T06:57:29Z</time>
      </trkpt>
      <trkpt lat="44.93613" lon="4.36954">
        <ele>541.1</ele>
        <time>2026-05-06T06:57:34Z</time>
      </trkpt>
      <trkpt lat="44.93613" lon="4.36954">
        <ele>541.1</ele>
        <time>2026-05-06T06:57:39Z</time>
      </trkpt>
      <trkpt lat="44.93614" lon="4.36951">
        <ele>540.9</ele>
        <time>2026-05-06T06:57:44Z</time>
      </trkpt>
      <trkpt lat="44.93616" lon="4.36946">
        <ele>540.6</ele>
        <time>2026-05-06T06:57:49Z</time>
      </trkpt>
      <trkpt lat="44.93618" lon="4.3694">
        <ele>540.3</ele>
        <time>2026-05-06T06:57:54Z</time>
      </trkpt>
      <trkpt lat="44.93621" lon="4.36934">
        <ele>539.8</ele>
        <time>2026-05-06T06:57:59Z</time>
      </trkpt>
      <trkpt lat="44.93625" lon="4.36927">
        <ele>538.9</ele>
        <time>2026-05-06T06:58:04Z</time>
      </trkpt>
      <trkpt lat="44.93628" lon="4.36922">
        <ele>538.3</ele>
        <time>2026-05-06T06:58:09Z</time>
      </trkpt>
      <trkpt lat="44.9363" lon="4.36924">
        <ele>537.8</ele>
        <time>2026-05-06T06:58:14Z</time>
      </trkpt>
      <trkpt lat="44.93633" lon="4.3693">
        <ele>537.1</ele>
        <time>2026-05-06T06:58:19Z</time>
      </trkpt>
      <trkpt lat="44.93636" lon="4.36936">
        <ele>536.5</ele>
        <time>2026-05-06T06:58:24Z</time>
      </trkpt>
      <trkpt lat="44.93638" lon="4.36942">
        <ele>536.2</ele>
        <time>2026-05-06T06:58:29Z</time>
      </trkpt>
      <trkpt lat="44.93643" lon="4.36948">
        <ele>535.2</ele>
        <time>2026-05-06T06:58:34Z</time>
      </trkpt>
      <trkpt lat="44.93648" lon="4.36954">
        <ele>534.4</ele>
        <time>2026-05-06T06:58:39Z</time>
      </trkpt>
      <trkpt lat="44.93649" lon="4.36957">
        <ele>534.3</ele>
        <time>2026-05-06T06:58:44Z</time>
      </trkpt>
      <trkpt lat="44.93652" lon="4.36961">
        <ele>533.8</ele>
        <time>2026-05-06T06:58:49Z</time>
      </trkpt>
      <trkpt lat="44.93656" lon="4.36964">
        <ele>533.2</ele>
        <time>2026-05-06T06:58:54Z</time>
      </trkpt>
      <trkpt lat="44.93662" lon="4.36964">
        <ele>532.1</ele>
        <time>2026-05-06T06:58:59Z</time>
      </trkpt>
      <trkpt lat="44.93667" lon="4.36959">
        <ele>531.1</ele>
        <time>2026-05-06T06:59:04Z</time>
      </trkpt>
      <trkpt lat="44.93672" lon="4.36956">
        <ele>532</ele>
        <time>2026-05-06T06:59:09Z</time>
      </trkpt>
      <trkpt lat="44.93676" lon="4.36954">
        <ele>532.8</ele>
        <time>2026-05-06T06:59:14Z</time>
      </trkpt>
      <trkpt lat="44.93679" lon="4.36949">
        <ele>533.4</ele>
        <time>2026-05-06T06:59:19Z</time>
      </trkpt>
      <trkpt lat="44.93683" lon="4.36944">
        <ele>534.2</ele>
        <time>2026-05-06T06:59:24Z</time>
      </trkpt>
      <trkpt lat="44.93684" lon="4.36939">
        <ele>534.4</ele>
        <time>2026-05-06T06:59:29Z</time>
      </trkpt>
      <trkpt lat="44.93685" lon="4.36933">
        <ele>534.6</ele>
        <time>2026-05-06T06:59:34Z</time>
      </trkpt>
      <trkpt lat="44.93689" lon="4.36927">
        <ele>535.7</ele>
        <time>2026-05-06T06:59:39Z</time>
      </trkpt>
      <trkpt lat="44.93694" lon="4.36921">
        <ele>537.2</ele>
        <time>2026-05-06T06:59:44Z</time>
      </trkpt>
      <trkpt lat="44.93697" lon="4.36915">
        <ele>538.1</ele>
        <time>2026-05-06T06:59:49Z</time>
      </trkpt>
      <trkpt lat="44.93698" lon="4.36908">
        <ele>538.3</ele>
        <time>2026-05-06T06:59:54Z</time>
      </trkpt>
      <trkpt lat="44.93698" lon="4.36899">
        <ele>538.3</ele>
        <time>2026-05-06T06:59:59Z</time>
      </trkpt>
      <trkpt lat="44.93699" lon="4.36893">
        <ele>538.5</ele>
        <time>2026-05-06T07:00:04Z</time>
      </trkpt>
      <trkpt lat="44.93704" lon="4.3689">
        <ele>540</ele>
        <time>2026-05-06T07:00:09Z</time>
      </trkpt>
      <trkpt lat="44.93711" lon="4.36884">
        <ele>542.1</ele>
        <time>2026-05-06T07:00:14Z</time>
      </trkpt>
      <trkpt lat="44.93714" lon="4.36879">
        <ele>543</ele>
        <time>2026-05-06T07:00:19Z</time>
      </trkpt>
      <trkpt lat="44.93714" lon="4.36877">
        <ele>543</ele>
        <time>2026-05-06T07:00:24Z</time>
      </trkpt>
      <trkpt lat="44.93715" lon="4.36876">
        <ele>543.3</ele>
        <time>2026-05-06T07:00:29Z</time>
      </trkpt>
      <trkpt lat="44.93715" lon="4.36876">
        <ele>543.3</ele>
        <time>2026-05-06T07:00:34Z</time>
      </trkpt>
      <trkpt lat="44.93716" lon="4.36876">
        <ele>543.6</ele>
        <time>2026-05-06T07:00:39Z</time>
      </trkpt>
      <trkpt lat="44.93716" lon="4.36878">
        <ele>543.6</ele>
        <time>2026-05-06T07:00:44Z</time>
      </trkpt>
      <trkpt lat="44.93718" lon="4.36873">
        <ele>544.2</ele>
        <time>2026-05-06T07:00:49Z</time>
      </trkpt>
      <trkpt lat="44.9372" lon="4.3687">
        <ele>544.8</ele>
        <time>2026-05-06T07:00:54Z</time>
      </trkpt>
      <trkpt lat="44.93723" lon="4.36866">
        <ele>545.7</ele>
        <time>2026-05-06T07:00:59Z</time>
      </trkpt>
      <trkpt lat="44.93728" lon="4.3686">
        <ele>547.2</ele>
        <time>2026-05-06T07:01:04Z</time>
      </trkpt>
      <trkpt lat="44.9373" lon="4.36858">
        <ele>547.8</ele>
        <time>2026-05-06T07:01:09Z</time>
      </trkpt>
      <trkpt lat="44.93732" lon="4.36852">
        <ele>548.4</ele>
        <time>2026-05-06T07:01:14Z</time>
      </trkpt>
      <trkpt lat="44.93735" lon="4.36847">
        <ele>549.3</ele>
        <time>2026-05-06T07:01:19Z</time>
      </trkpt>
      <trkpt lat="44.93739" lon="4.36845">
        <ele>550.6</ele>
        <time>2026-05-06T07:01:24Z</time>
      </trkpt>
      <trkpt lat="44.93744" lon="4.36844">
        <ele>552.1</ele>
        <time>2026-05-06T07:01:29Z</time>
      </trkpt>
      <trkpt lat="44.93746" lon="4.36841">
        <ele>552.8</ele>
        <time>2026-05-06T07:01:34Z</time>
      </trkpt>
      <trkpt lat="44.93747" lon="4.36839">
        <ele>553.1</ele>
        <time>2026-05-06T07:01:39Z</time>
      </trkpt>
      <trkpt lat="44.93751" lon="4.36838">
        <ele>554.2</ele>
        <time>2026-05-06T07:01:44Z</time>
      </trkpt>
      <trkpt lat="44.93759" lon="4.36837">
        <ele>555.5</ele>
        <time>2026-05-06T07:01:49Z</time>
      </trkpt>
      <trkpt lat="44.93768" lon="4.36838">
        <ele>557</ele>
        <time>2026-05-06T07:01:54Z</time>
      </trkpt>
      <trkpt lat="44.93771" lon="4.36836">
        <ele>557.5</ele>
        <time>2026-05-06T07:01:59Z</time>
      </trkpt>
      <trkpt lat="44.93773" lon="4.36834">
        <ele>557.9</ele>
        <time>2026-05-06T07:02:04Z</time>
      </trkpt>
      <trkpt lat="44.93778" lon="4.36831">
        <ele>558.3</ele>
        <time>2026-05-06T07:02:10Z</time>
      </trkpt>
      <trkpt lat="44.93786" lon="4.36824">
        <ele>558.7</ele>
        <time>2026-05-06T07:02:15Z</time>
      </trkpt>
      <trkpt lat="44.93788" lon="4.36817">
        <ele>558.1</ele>
        <time>2026-05-06T07:02:20Z</time>
      </trkpt>
      <trkpt lat="44.93788" lon="4.36817">
        <ele>558.1</ele>
        <time>2026-05-06T07:02:25Z</time>
      </trkpt>
      <trkpt lat="44.93788" lon="4.36817">
        <ele>558.1</ele>
        <time>2026-05-06T07:02:30Z</time>
      </trkpt>
      <trkpt lat="44.93789" lon="4.36816">
        <ele>558.1</ele>
        <time>2026-05-06T07:02:35Z</time>
      </trkpt>
      <trkpt lat="44.93791" lon="4.3681">
        <ele>557.7</ele>
        <time>2026-05-06T07:02:40Z</time>
      </trkpt>
      <trkpt lat="44.93793" lon="4.36806">
        <ele>557.5</ele>
        <time>2026-05-06T07:02:45Z</time>
      </trkpt>
      <trkpt lat="44.93796" lon="4.36799">
        <ele>557.1</ele>
        <time>2026-05-06T07:02:50Z</time>
      </trkpt>
      <trkpt lat="44.93797" lon="4.36792">
        <ele>556.4</ele>
        <time>2026-05-06T07:02:55Z</time>
      </trkpt>
      <trkpt lat="44.93797" lon="4.36792">
        <ele>556.4</ele>
        <time>2026-05-06T07:02:55Z</time>
      </trkpt>
      <trkpt lat="44.93791" lon="4.36791">
        <ele>555</ele>
        <time>2026-05-06T07:03:29Z</time>
      </trkpt>
      <trkpt lat="44.93793" lon="4.36793">
        <ele>555.7</ele>
        <time>2026-05-06T07:03:34Z</time>
      </trkpt>
      <trkpt lat="44.93793" lon="4.36793">
        <ele>555.7</ele>
        <time>2026-05-06T07:03:39Z</time>
      </trkpt>
      <trkpt lat="44.93793" lon="4.36793">
        <ele>555.7</ele>
        <time>2026-05-06T07:03:44Z</time>
      </trkpt>
      <trkpt lat="44.938" lon="4.36792">
        <ele>557</ele>
        <time>2026-05-06T07:03:49Z</time>
      </trkpt>
      <trkpt lat="44.93804" lon="4.36786">
        <ele>557.1</ele>
        <time>2026-05-06T07:03:54Z</time>
      </trkpt>
      <trkpt lat="44.93808" lon="4.36778">
        <ele>557</ele>
        <time>2026-05-06T07:03:59Z</time>
      </trkpt>
      <trkpt lat="44.93812" lon="4.36772">
        <ele>557.2</ele>
        <time>2026-05-06T07:04:04Z</time>
      </trkpt>
      <trkpt lat="44.93813" lon="4.36764">
        <ele>556.5</ele>
        <time>2026-05-06T07:04:09Z</time>
      </trkpt>
      <trkpt lat="44.93815" lon="4.36757">
        <ele>556.2</ele>
        <time>2026-05-06T07:04:14Z</time>
      </trkpt>
      <trkpt lat="44.93819" lon="4.36749">
        <ele>556.3</ele>
        <time>2026-05-06T07:04:19Z</time>
      </trkpt>
      <trkpt lat="44.93822" lon="4.36743">
        <ele>556.5</ele>
        <time>2026-05-06T07:04:24Z</time>
      </trkpt>
      <trkpt lat="44.93825" lon="4.36735">
        <ele>556.6</ele>
        <time>2026-05-06T07:04:29Z</time>
      </trkpt>
      <trkpt lat="44.93828" lon="4.36727">
        <ele>556.7</ele>
        <time>2026-05-06T07:04:34Z</time>
      </trkpt>
      <trkpt lat="44.93831" lon="4.3672">
        <ele>556.9</ele>
        <time>2026-05-06T07:04:39Z</time>
      </trkpt>
      <trkpt lat="44.93834" lon="4.36714">
        <ele>557.2</ele>
        <time>2026-05-06T07:04:44Z</time>
      </trkpt>
      <trkpt lat="44.93837" lon="4.36708">
        <ele>557.7</ele>
        <time>2026-05-06T07:04:49Z</time>
      </trkpt>
      <trkpt lat="44.93839" lon="4.36701">
        <ele>557.9</ele>
        <time>2026-05-06T07:04:54Z</time>
      </trkpt>
      <trkpt lat="44.9384" lon="4.36693">
        <ele>557.6</ele>
        <time>2026-05-06T07:04:59Z</time>
      </trkpt>
      <trkpt lat="44.93843" lon="4.36685">
        <ele>558.1</ele>
        <time>2026-05-06T07:05:04Z</time>
      </trkpt>
      <trkpt lat="44.93845" lon="4.36679">
        <ele>558.4</ele>
        <time>2026-05-06T07:05:09Z</time>
      </trkpt>
      <trkpt lat="44.93849" lon="4.36672">
        <ele>559.4</ele>
        <time>2026-05-06T07:05:14Z</time>
      </trkpt>
      <trkpt lat="44.9385" lon="4.36664">
        <ele>559.4</ele>
        <time>2026-05-06T07:05:19Z</time>
      </trkpt>
      <trkpt lat="44.9385" lon="4.36662">
        <ele>559.5</ele>
        <time>2026-05-06T07:05:24Z</time>
      </trkpt>
      <trkpt lat="44.93849" lon="4.36661">
        <ele>559.1</ele>
        <time>2026-05-06T07:05:29Z</time>
      </trkpt>
      <trkpt lat="44.93853" lon="4.36657">
        <ele>560.7</ele>
        <time>2026-05-06T07:05:34Z</time>
      </trkpt>
      <trkpt lat="44.93856" lon="4.36649">
        <ele>561.9</ele>
        <time>2026-05-06T07:05:39Z</time>
      </trkpt>
      <trkpt lat="44.93858" lon="4.36639">
        <ele>562.8</ele>
        <time>2026-05-06T07:05:44Z</time>
      </trkpt>
      <trkpt lat="44.93859" lon="4.3663">
        <ele>563.3</ele>
        <time>2026-05-06T07:05:49Z</time>
      </trkpt>
      <trkpt lat="44.9386" lon="4.36624">
        <ele>563.8</ele>
        <time>2026-05-06T07:05:54Z</time>
      </trkpt>
      <trkpt lat="44.93861" lon="4.36616">
        <ele>564.2</ele>
        <time>2026-05-06T07:05:59Z</time>
      </trkpt>
      <trkpt lat="44.93864" lon="4.36609">
        <ele>565.5</ele>
        <time>2026-05-06T07:06:04Z</time>
      </trkpt>
      <trkpt lat="44.93866" lon="4.36601">
        <ele>566.3</ele>
        <time>2026-05-06T07:06:09Z</time>
      </trkpt>
      <trkpt lat="44.93868" lon="4.36593">
        <ele>567.2</ele>
        <time>2026-05-06T07:06:14Z</time>
      </trkpt>
      <trkpt lat="44.93869" lon="4.36586">
        <ele>567.7</ele>
        <time>2026-05-06T07:06:19Z</time>
      </trkpt>
      <trkpt lat="44.93871" lon="4.36578">
        <ele>569</ele>
        <time>2026-05-06T07:06:24Z</time>
      </trkpt>
      <trkpt lat="44.93873" lon="4.36572">
        <ele>570.4</ele>
        <time>2026-05-06T07:06:29Z</time>
      </trkpt>
      <trkpt lat="44.93876" lon="4.36565">
        <ele>572.2</ele>
        <time>2026-05-06T07:06:34Z</time>
      </trkpt>
      <trkpt lat="44.93879" lon="4.3656">
        <ele>573.8</ele>
        <time>2026-05-06T07:06:39Z</time>
      </trkpt>
      <trkpt lat="44.93881" lon="4.36556">
        <ele>575</ele>
        <time>2026-05-06T07:06:44Z</time>
      </trkpt>
      <trkpt lat="44.93884" lon="4.36552">
        <ele>576.4</ele>
        <time>2026-05-06T07:06:49Z</time>
      </trkpt>
      <trkpt lat="44.93886" lon="4.36546">
        <ele>577.7</ele>
        <time>2026-05-06T07:06:54Z</time>
      </trkpt>
      <trkpt lat="44.93888" lon="4.3654">
        <ele>579</ele>
        <time>2026-05-06T07:06:59Z</time>
      </trkpt>
      <trkpt lat="44.93889" lon="4.36531">
        <ele>580.2</ele>
        <time>2026-05-06T07:07:04Z</time>
      </trkpt>
      <trkpt lat="44.9389" lon="4.36524">
        <ele>581.2</ele>
        <time>2026-05-06T07:07:09Z</time>
      </trkpt>
      <trkpt lat="44.9389" lon="4.3652">
        <ele>581.5</ele>
        <time>2026-05-06T07:07:14Z</time>
      </trkpt>
      <trkpt lat="44.9389" lon="4.36518">
        <ele>581.7</ele>
        <time>2026-05-06T07:07:19Z</time>
      </trkpt>
      <trkpt lat="44.93892" lon="4.36514">
        <ele>582.8</ele>
        <time>2026-05-06T07:07:24Z</time>
      </trkpt>
      <trkpt lat="44.93894" lon="4.36509">
        <ele>583.9</ele>
        <time>2026-05-06T07:07:29Z</time>
      </trkpt>
      <trkpt lat="44.93897" lon="4.36504">
        <ele>585.3</ele>
        <time>2026-05-06T07:07:34Z</time>
      </trkpt>
      <trkpt lat="44.939" lon="4.36498">
        <ele>586.9</ele>
        <time>2026-05-06T07:07:39Z</time>
      </trkpt>
      <trkpt lat="44.93902" lon="4.36494">
        <ele>588.1</ele>
        <time>2026-05-06T07:07:44Z</time>
      </trkpt>
      <trkpt lat="44.93905" lon="4.36489">
        <ele>589.8</ele>
        <time>2026-05-06T07:07:49Z</time>
      </trkpt>
      <trkpt lat="44.93906" lon="4.36482">
        <ele>591.1</ele>
        <time>2026-05-06T07:07:54Z</time>
      </trkpt>
      <trkpt lat="44.93907" lon="4.36474">
        <ele>592.5</ele>
        <time>2026-05-06T07:07:59Z</time>
      </trkpt>
      <trkpt lat="44.93907" lon="4.36465">
        <ele>593.8</ele>
        <time>2026-05-06T07:08:04Z</time>
      </trkpt>
      <trkpt lat="44.93907" lon="4.36459">
        <ele>594.6</ele>
        <time>2026-05-06T07:08:09Z</time>
      </trkpt>
      <trkpt lat="44.93907" lon="4.36456">
        <ele>595</ele>
        <time>2026-05-06T07:08:14Z</time>
      </trkpt>
      <trkpt lat="44.93907" lon="4.36452">
        <ele>595.6</ele>
        <time>2026-05-06T07:08:19Z</time>
      </trkpt>
      <trkpt lat="44.93907" lon="4.36446">
        <ele>596.4</ele>
        <time>2026-05-06T07:08:24Z</time>
      </trkpt>
      <trkpt lat="44.93906" lon="4.36438">
        <ele>597.3</ele>
        <time>2026-05-06T07:08:29Z</time>
      </trkpt>
      <trkpt lat="44.93907" lon="4.36432">
        <ele>598.4</ele>
        <time>2026-05-06T07:08:34Z</time>
      </trkpt>
      <trkpt lat="44.93908" lon="4.36426">
        <ele>599.5</ele>
        <time>2026-05-06T07:08:39Z</time>
      </trkpt>
      <trkpt lat="44.93908" lon="4.36419">
        <ele>600.5</ele>
        <time>2026-05-06T07:08:44Z</time>
      </trkpt>
      <trkpt lat="44.93906" lon="4.3641">
        <ele>601.5</ele>
        <time>2026-05-06T07:08:49Z</time>
      </trkpt>
      <trkpt lat="44.93906" lon="4.36401">
        <ele>603.1</ele>
        <time>2026-05-06T07:08:54Z</time>
      </trkpt>
      <trkpt lat="44.93906" lon="4.36393">
        <ele>604.5</ele>
        <time>2026-05-06T07:08:59Z</time>
      </trkpt>
      <trkpt lat="44.93906" lon="4.36385">
        <ele>605.9</ele>
        <time>2026-05-06T07:09:04Z</time>
      </trkpt>
      <trkpt lat="44.93904" lon="4.36375">
        <ele>607.2</ele>
        <time>2026-05-06T07:09:09Z</time>
      </trkpt>
      <trkpt lat="44.93901" lon="4.36368">
        <ele>607.6</ele>
        <time>2026-05-06T07:09:14Z</time>
      </trkpt>
      <trkpt lat="44.93901" lon="4.36368">
        <ele>607.6</ele>
        <time>2026-05-06T07:09:19Z</time>
      </trkpt>
      <trkpt lat="44.939" lon="4.36363">
        <ele>608.2</ele>
        <time>2026-05-06T07:09:24Z</time>
      </trkpt>
      <trkpt lat="44.93896" lon="4.36358">
        <ele>608</ele>
        <time>2026-05-06T07:09:29Z</time>
      </trkpt>
      <trkpt lat="44.93892" lon="4.36354">
        <ele>607.6</ele>
        <time>2026-05-06T07:09:34Z</time>
      </trkpt>
      <trkpt lat="44.93889" lon="4.36351">
        <ele>607.3</ele>
        <time>2026-05-06T07:09:39Z</time>
      </trkpt>
      <trkpt lat="44.93884" lon="4.36346">
        <ele>606.8</ele>
        <time>2026-05-06T07:09:44Z</time>
      </trkpt>
      <trkpt lat="44.9388" lon="4.36342">
        <ele>606.4</ele>
        <time>2026-05-06T07:09:49Z</time>
      </trkpt>
      <trkpt lat="44.93877" lon="4.36336">
        <ele>606.6</ele>
        <time>2026-05-06T07:09:54Z</time>
      </trkpt>
      <trkpt lat="44.93874" lon="4.36336">
        <ele>605.8</ele>
        <time>2026-05-06T07:09:59Z</time>
      </trkpt>
      <trkpt lat="44.93874" lon="4.36336">
        <ele>605.8</ele>
        <time>2026-05-06T07:10:04Z</time>
      </trkpt>
      <trkpt lat="44.93874" lon="4.36336">
        <ele>605.8</ele>
        <time>2026-05-06T07:10:09Z</time>
      </trkpt>
      <trkpt lat="44.93874" lon="4.36336">
        <ele>605.8</ele>
        <time>2026-05-06T07:10:14Z</time>
      </trkpt>
      <trkpt lat="44.93874" lon="4.36336">
        <ele>605.8</ele>
        <time>2026-05-06T07:10:19Z</time>
      </trkpt>
      <trkpt lat="44.93873" lon="4.36335">
        <ele>605.7</ele>
        <time>2026-05-06T07:10:24Z</time>
      </trkpt>
      <trkpt lat="44.93874" lon="4.36331">
        <ele>606.7</ele>
        <time>2026-05-06T07:10:29Z</time>
      </trkpt>
      <trkpt lat="44.93874" lon="4.36324">
        <ele>608.1</ele>
        <time>2026-05-06T07:10:34Z</time>
      </trkpt>
      <trkpt lat="44.93873" lon="4.36319">
        <ele>608.7</ele>
        <time>2026-05-06T07:10:39Z</time>
      </trkpt>
      <trkpt lat="44.93872" lon="4.36312">
        <ele>609.8</ele>
        <time>2026-05-06T07:10:44Z</time>
      </trkpt>
      <trkpt lat="44.93871" lon="4.36307">
        <ele>610.5</ele>
        <time>2026-05-06T07:10:49Z</time>
      </trkpt>
      <trkpt lat="44.93871" lon="4.36298">
        <ele>612.2</ele>
        <time>2026-05-06T07:10:54Z</time>
      </trkpt>
      <trkpt lat="44.93872" lon="4.36291">
        <ele>613.9</ele>
        <time>2026-05-06T07:10:59Z</time>
      </trkpt>
      <trkpt lat="44.93874" lon="4.36285">
        <ele>615.7</ele>
        <time>2026-05-06T07:11:04Z</time>
      </trkpt>
      <trkpt lat="44.93877" lon="4.36279">
        <ele>618</ele>
        <time>2026-05-06T07:11:09Z</time>
      </trkpt>
      <trkpt lat="44.93877" lon="4.36273">
        <ele>619.2</ele>
        <time>2026-05-06T07:11:14Z</time>
      </trkpt>
      <trkpt lat="44.93877" lon="4.36268">
        <ele>620.2</ele>
        <time>2026-05-06T07:11:19Z</time>
      </trkpt>
      <trkpt lat="44.93877" lon="4.36262">
        <ele>621.4</ele>
        <time>2026-05-06T07:11:24Z</time>
      </trkpt>
      <trkpt lat="44.93877" lon="4.36257">
        <ele>622.4</ele>
        <time>2026-05-06T07:11:29Z</time>
      </trkpt>
      <trkpt lat="44.93877" lon="4.36252">
        <ele>623.4</ele>
        <time>2026-05-06T07:11:34Z</time>
      </trkpt>
      <trkpt lat="44.93877" lon="4.36247">
        <ele>624.1</ele>
        <time>2026-05-06T07:11:39Z</time>
      </trkpt>
      <trkpt lat="44.93876" lon="4.36241">
        <ele>624.4</ele>
        <time>2026-05-06T07:11:44Z</time>
      </trkpt>
      <trkpt lat="44.93876" lon="4.36239">
        <ele>624.6</ele>
        <time>2026-05-06T07:11:49Z</time>
      </trkpt>
      <trkpt lat="44.93875" lon="4.36236">
        <ele>624.6</ele>
        <time>2026-05-06T07:11:54Z</time>
      </trkpt>
      <trkpt lat="44.93875" lon="4.36236">
        <ele>624.6</ele>
        <time>2026-05-06T07:11:59Z</time>
      </trkpt>
      <trkpt lat="44.93875" lon="4.36236">
        <ele>624.6</ele>
        <time>2026-05-06T07:12:04Z</time>
      </trkpt>
      <trkpt lat="44.93875" lon="4.36236">
        <ele>624.6</ele>
        <time>2026-05-06T07:12:09Z</time>
      </trkpt>
      <trkpt lat="44.93874" lon="4.36236">
        <ele>624.2</ele>
        <time>2026-05-06T07:12:14Z</time>
      </trkpt>
      <trkpt lat="44.93874" lon="4.36228">
        <ele>625.1</ele>
        <time>2026-05-06T07:12:19Z</time>
      </trkpt>
      <trkpt lat="44.93873" lon="4.36221">
        <ele>625.5</ele>
        <time>2026-05-06T07:12:24Z</time>
      </trkpt>
      <trkpt lat="44.93873" lon="4.36215">
        <ele>626.2</ele>
        <time>2026-05-06T07:12:29Z</time>
      </trkpt>
      <trkpt lat="44.93872" lon="4.36207">
        <ele>626.8</ele>
        <time>2026-05-06T07:12:34Z</time>
      </trkpt>
      <trkpt lat="44.93872" lon="4.36201">
        <ele>627.5</ele>
        <time>2026-05-06T07:12:39Z</time>
      </trkpt>
      <trkpt lat="44.9387" lon="4.36194">
        <ele>627.5</ele>
        <time>2026-05-06T07:12:44Z</time>
      </trkpt>
      <trkpt lat="44.9387" lon="4.36187">
        <ele>628.3</ele>
        <time>2026-05-06T07:12:49Z</time>
      </trkpt>
      <trkpt lat="44.93869" lon="4.36181">
        <ele>628.6</ele>
        <time>2026-05-06T07:12:54Z</time>
      </trkpt>
      <trkpt lat="44.93869" lon="4.36175">
        <ele>629.3</ele>
        <time>2026-05-06T07:12:59Z</time>
      </trkpt>
      <trkpt lat="44.93869" lon="4.36167">
        <ele>630.2</ele>
        <time>2026-05-06T07:13:04Z</time>
      </trkpt>
      <trkpt lat="44.93869" lon="4.36161">
        <ele>630.8</ele>
        <time>2026-05-06T07:13:09Z</time>
      </trkpt>
      <trkpt lat="44.93869" lon="4.36154">
        <ele>631.5</ele>
        <time>2026-05-06T07:13:14Z</time>
      </trkpt>
      <trkpt lat="44.93869" lon="4.36145">
        <ele>632.4</ele>
        <time>2026-05-06T07:13:19Z</time>
      </trkpt>
      <trkpt lat="44.93869" lon="4.36135">
        <ele>633.4</ele>
        <time>2026-05-06T07:13:24Z</time>
      </trkpt>
      <trkpt lat="44.93869" lon="4.36126">
        <ele>634.2</ele>
        <time>2026-05-06T07:13:29Z</time>
      </trkpt>
      <trkpt lat="44.93867" lon="4.36124">
        <ele>633.7</ele>
        <time>2026-05-06T07:13:34Z</time>
      </trkpt>
      <trkpt lat="44.93865" lon="4.36126">
        <ele>632.8</ele>
        <time>2026-05-06T07:13:39Z</time>
      </trkpt>
      <trkpt lat="44.93865" lon="4.36126">
        <ele>632.8</ele>
        <time>2026-05-06T07:13:44Z</time>
      </trkpt>
      <trkpt lat="44.93865" lon="4.36126">
        <ele>632.8</ele>
        <time>2026-05-06T07:13:49Z</time>
      </trkpt>
      <trkpt lat="44.93865" lon="4.36126">
        <ele>632.8</ele>
        <time>2026-05-06T07:13:54Z</time>
      </trkpt>
      <trkpt lat="44.93868" lon="4.36117">
        <ele>634.8</ele>
        <time>2026-05-06T07:13:59Z</time>
      </trkpt>
      <trkpt lat="44.93868" lon="4.36108">
        <ele>635.6</ele>
        <time>2026-05-06T07:14:04Z</time>
      </trkpt>
      <trkpt lat="44.93867" lon="4.36099">
        <ele>636.2</ele>
        <time>2026-05-06T07:14:09Z</time>
      </trkpt>
      <trkpt lat="44.93867" lon="4.36091">
        <ele>637</ele>
        <time>2026-05-06T07:14:14Z</time>
      </trkpt>
      <trkpt lat="44.93864" lon="4.36083">
        <ele>636.7</ele>
        <time>2026-05-06T07:14:19Z</time>
      </trkpt>
      <trkpt lat="44.93862" lon="4.36074">
        <ele>636.8</ele>
        <time>2026-05-06T07:14:24Z</time>
      </trkpt>
      <trkpt lat="44.93861" lon="4.36063">
        <ele>637.5</ele>
        <time>2026-05-06T07:14:29Z</time>
      </trkpt>
      <trkpt lat="44.93861" lon="4.36055">
        <ele>638.2</ele>
        <time>2026-05-06T07:14:34Z</time>
      </trkpt>
      <trkpt lat="44.9386" lon="4.36048">
        <ele>638.6</ele>
        <time>2026-05-06T07:14:39Z</time>
      </trkpt>
      <trkpt lat="44.93861" lon="4.36039">
        <ele>639.7</ele>
        <time>2026-05-06T07:14:44Z</time>
      </trkpt>
      <trkpt lat="44.93861" lon="4.36032">
        <ele>640.4</ele>
        <time>2026-05-06T07:14:49Z</time>
      </trkpt>
      <trkpt lat="44.9386" lon="4.36021">
        <ele>641.1</ele>
        <time>2026-05-06T07:14:54Z</time>
      </trkpt>
      <trkpt lat="44.93861" lon="4.36011">
        <ele>642.3</ele>
        <time>2026-05-06T07:14:59Z</time>
      </trkpt>
      <trkpt lat="44.9386" lon="4.36002">
        <ele>642.9</ele>
        <time>2026-05-06T07:15:04Z</time>
      </trkpt>
      <trkpt lat="44.93859" lon="4.35992">
        <ele>644</ele>
        <time>2026-05-06T07:15:09Z</time>
      </trkpt>
      <trkpt lat="44.93859" lon="4.35983">
        <ele>645.5</ele>
        <time>2026-05-06T07:15:14Z</time>
      </trkpt>
      <trkpt lat="44.93858" lon="4.35975">
        <ele>646.5</ele>
        <time>2026-05-06T07:15:19Z</time>
      </trkpt>
      <trkpt lat="44.93857" lon="4.35968">
        <ele>647.4</ele>
        <time>2026-05-06T07:15:24Z</time>
      </trkpt>
      <trkpt lat="44.93855" lon="4.35964">
        <ele>647.5</ele>
        <time>2026-05-06T07:15:29Z</time>
      </trkpt>
      <trkpt lat="44.93855" lon="4.35962">
        <ele>647.8</ele>
        <time>2026-05-06T07:15:34Z</time>
      </trkpt>
      <trkpt lat="44.93855" lon="4.35962">
        <ele>647.8</ele>
        <time>2026-05-06T07:15:39Z</time>
      </trkpt>
      <trkpt lat="44.93852" lon="4.35956">
        <ele>648.1</ele>
        <time>2026-05-06T07:15:44Z</time>
      </trkpt>
      <trkpt lat="44.93852" lon="4.3595">
        <ele>649.1</ele>
        <time>2026-05-06T07:15:49Z</time>
      </trkpt>
      <trkpt lat="44.93853" lon="4.35942">
        <ele>650.6</ele>
        <time>2026-05-06T07:15:54Z</time>
      </trkpt>
      <trkpt lat="44.93853" lon="4.35937">
        <ele>651.5</ele>
        <time>2026-05-06T07:15:59Z</time>
      </trkpt>
      <trkpt lat="44.93851" lon="4.3593">
        <ele>652.2</ele>
        <time>2026-05-06T07:16:04Z</time>
      </trkpt>
      <trkpt lat="44.9385" lon="4.35923">
        <ele>653.2</ele>
        <time>2026-05-06T07:16:09Z</time>
      </trkpt>
      <trkpt lat="44.93851" lon="4.35914">
        <ele>655</ele>
        <time>2026-05-06T07:16:14Z</time>
      </trkpt>
      <trkpt lat="44.9385" lon="4.35904">
        <ele>656.9</ele>
        <time>2026-05-06T07:16:19Z</time>
      </trkpt>
      <trkpt lat="44.9385" lon="4.35894">
        <ele>659</ele>
        <time>2026-05-06T07:16:24Z</time>
      </trkpt>
      <trkpt lat="44.93848" lon="4.35885">
        <ele>660.5</ele>
        <time>2026-05-06T07:16:29Z</time>
      </trkpt>
      <trkpt lat="44.93846" lon="4.35875">
        <ele>662.3</ele>
        <time>2026-05-06T07:16:34Z</time>
      </trkpt>
      <trkpt lat="44.93844" lon="4.35866">
        <ele>663.8</ele>
        <time>2026-05-06T07:16:39Z</time>
      </trkpt>
      <trkpt lat="44.93843" lon="4.35858">
        <ele>665.4</ele>
        <time>2026-05-06T07:16:44Z</time>
      </trkpt>
      <trkpt lat="44.93841" lon="4.35851">
        <ele>666.5</ele>
        <time>2026-05-06T07:16:49Z</time>
      </trkpt>
      <trkpt lat="44.9384" lon="4.35843">
        <ele>668.1</ele>
        <time>2026-05-06T07:16:54Z</time>
      </trkpt>
      <trkpt lat="44.93838" lon="4.35836">
        <ele>669.2</ele>
        <time>2026-05-06T07:16:59Z</time>
      </trkpt>
      <trkpt lat="44.93837" lon="4.35833">
        <ele>669.7</ele>
        <time>2026-05-06T07:17:04Z</time>
      </trkpt>
      <trkpt lat="44.93836" lon="4.35828">
        <ele>670.3</ele>
        <time>2026-05-06T07:17:09Z</time>
      </trkpt>
      <trkpt lat="44.93832" lon="4.3582">
        <ele>671.5</ele>
        <time>2026-05-06T07:17:14Z</time>
      </trkpt>
      <trkpt lat="44.93827" lon="4.35814">
        <ele>673.4</ele>
        <time>2026-05-06T07:17:19Z</time>
      </trkpt>
      <trkpt lat="44.93822" lon="4.35808">
        <ele>675.2</ele>
        <time>2026-05-06T07:17:24Z</time>
      </trkpt>
      <trkpt lat="44.93816" lon="4.35807">
        <ele>676.4</ele>
        <time>2026-05-06T07:17:29Z</time>
      </trkpt>
      <trkpt lat="44.93809" lon="4.35805">
        <ele>677.8</ele>
        <time>2026-05-06T07:17:34Z</time>
      </trkpt>
      <trkpt lat="44.93807" lon="4.35802">
        <ele>678.6</ele>
        <time>2026-05-06T07:17:39Z</time>
      </trkpt>
      <trkpt lat="44.93804" lon="4.35802">
        <ele>679.1</ele>
        <time>2026-05-06T07:17:44Z</time>
      </trkpt>
      <trkpt lat="44.93798" lon="4.35801">
        <ele>680.2</ele>
        <time>2026-05-06T07:17:49Z</time>
      </trkpt>
      <trkpt lat="44.93792" lon="4.35803">
        <ele>680.9</ele>
        <time>2026-05-06T07:17:54Z</time>
      </trkpt>
      <trkpt lat="44.93783" lon="4.35811">
        <ele>681.6</ele>
        <time>2026-05-06T07:17:59Z</time>
      </trkpt>
      <trkpt lat="44.93777" lon="4.35812">
        <ele>682.5</ele>
        <time>2026-05-06T07:18:04Z</time>
      </trkpt>
      <trkpt lat="44.93777" lon="4.35813">
        <ele>682.4</ele>
        <time>2026-05-06T07:18:09Z</time>
      </trkpt>
      <trkpt lat="44.93777" lon="4.35812">
        <ele>682.5</ele>
        <time>2026-05-06T07:18:14Z</time>
      </trkpt>
      <trkpt lat="44.93777" lon="4.35812">
        <ele>682.5</ele>
        <time>2026-05-06T07:18:19Z</time>
      </trkpt>
      <trkpt lat="44.93778" lon="4.35808">
        <ele>682.7</ele>
        <time>2026-05-06T07:18:24Z</time>
      </trkpt>
      <trkpt lat="44.93772" lon="4.35802">
        <ele>684.3</ele>
        <time>2026-05-06T07:18:29Z</time>
      </trkpt>
      <trkpt lat="44.93767" lon="4.35797">
        <ele>685.5</ele>
        <time>2026-05-06T07:18:34Z</time>
      </trkpt>
      <trkpt lat="44.93767" lon="4.35794">
        <ele>685.8</ele>
        <time>2026-05-06T07:18:39Z</time>
      </trkpt>
      <trkpt lat="44.93767" lon="4.35794">
        <ele>685.8</ele>
        <time>2026-05-06T07:18:44Z</time>
      </trkpt>
      <trkpt lat="44.93767" lon="4.35794">
        <ele>685.8</ele>
        <time>2026-05-06T07:18:49Z</time>
      </trkpt>
      <trkpt lat="44.93767" lon="4.35794">
        <ele>685.8</ele>
        <time>2026-05-06T07:18:54Z</time>
      </trkpt>
      <trkpt lat="44.93767" lon="4.35793">
        <ele>685.8</ele>
        <time>2026-05-06T07:18:59Z</time>
      </trkpt>
      <trkpt lat="44.93762" lon="4.35785">
        <ele>687.2</ele>
        <time>2026-05-06T07:19:04Z</time>
      </trkpt>
      <trkpt lat="44.93759" lon="4.35779">
        <ele>688.1</ele>
        <time>2026-05-06T07:19:09Z</time>
      </trkpt>
      <trkpt lat="44.93755" lon="4.35772">
        <ele>689.1</ele>
        <time>2026-05-06T07:19:14Z</time>
      </trkpt>
      <trkpt lat="44.93748" lon="4.35761">
        <ele>690.7</ele>
        <time>2026-05-06T07:19:19Z</time>
      </trkpt>
      <trkpt lat="44.93741" lon="4.35755">
        <ele>692.4</ele>
        <time>2026-05-06T07:19:24Z</time>
      </trkpt>
      <trkpt lat="44.93736" lon="4.35752">
        <ele>693.6</ele>
        <time>2026-05-06T07:19:29Z</time>
      </trkpt>
      <trkpt lat="44.93734" lon="4.35747">
        <ele>694.9</ele>
        <time>2026-05-06T07:19:34Z</time>
      </trkpt>
      <trkpt lat="44.93731" lon="4.35744">
        <ele>696.2</ele>
        <time>2026-05-06T07:19:39Z</time>
      </trkpt>
      <trkpt lat="44.93725" lon="4.35741">
        <ele>698.1</ele>
        <time>2026-05-06T07:19:44Z</time>
      </trkpt>
      <trkpt lat="44.9372" lon="4.3574">
        <ele>699.2</ele>
        <time>2026-05-06T07:19:49Z</time>
      </trkpt>
      <trkpt lat="44.93716" lon="4.35739">
        <ele>700.2</ele>
        <time>2026-05-06T07:19:54Z</time>
      </trkpt>
      <trkpt lat="44.93712" lon="4.35739">
        <ele>700.9</ele>
        <time>2026-05-06T07:19:59Z</time>
      </trkpt>
      <trkpt lat="44.9371" lon="4.3574">
        <ele>701</ele>
        <time>2026-05-06T07:20:04Z</time>
      </trkpt>
      <trkpt lat="44.93706" lon="4.3574">
        <ele>701.7</ele>
        <time>2026-05-06T07:20:09Z</time>
      </trkpt>
      <trkpt lat="44.93702" lon="4.3574">
        <ele>702.4</ele>
        <time>2026-05-06T07:20:14Z</time>
      </trkpt>
      <trkpt lat="44.93696" lon="4.35741">
        <ele>703.3</ele>
        <time>2026-05-06T07:20:19Z</time>
      </trkpt>
      <trkpt lat="44.93693" lon="4.3574">
        <ele>704</ele>
        <time>2026-05-06T07:20:24Z</time>
      </trkpt>
      <trkpt lat="44.93688" lon="4.3574">
        <ele>704.9</ele>
        <time>2026-05-06T07:20:29Z</time>
      </trkpt>
      <trkpt lat="44.93683" lon="4.35741">
        <ele>705.6</ele>
        <time>2026-05-06T07:20:34Z</time>
      </trkpt>
      <trkpt lat="44.93678" lon="4.35742">
        <ele>706.3</ele>
        <time>2026-05-06T07:20:39Z</time>
      </trkpt>
      <trkpt lat="44.93675" lon="4.35742">
        <ele>706.8</ele>
        <time>2026-05-06T07:20:44Z</time>
      </trkpt>
      <trkpt lat="44.9367" lon="4.35742">
        <ele>707.7</ele>
        <time>2026-05-06T07:20:49Z</time>
      </trkpt>
      <trkpt lat="44.93667" lon="4.35743">
        <ele>708.1</ele>
        <time>2026-05-06T07:20:54Z</time>
      </trkpt>
      <trkpt lat="44.93663" lon="4.35741">
        <ele>708.2</ele>
        <time>2026-05-06T07:20:59Z</time>
      </trkpt>
      <trkpt lat="44.93658" lon="4.35741">
        <ele>707.8</ele>
        <time>2026-05-06T07:21:04Z</time>
      </trkpt>
      <trkpt lat="44.93655" lon="4.35743">
        <ele>707.3</ele>
        <time>2026-05-06T07:21:09Z</time>
      </trkpt>
      <trkpt lat="44.93652" lon="4.35743">
        <ele>707.1</ele>
        <time>2026-05-06T07:21:14Z</time>
      </trkpt>
      <trkpt lat="44.93652" lon="4.35743">
        <ele>707.1</ele>
        <time>2026-05-06T07:21:19Z</time>
      </trkpt>
      <trkpt lat="44.93652" lon="4.35743">
        <ele>707.1</ele>
        <time>2026-05-06T07:21:24Z</time>
      </trkpt>
      <trkpt lat="44.93652" lon="4.35743">
        <ele>707.1</ele>
        <time>2026-05-06T07:21:29Z</time>
      </trkpt>
      <trkpt lat="44.93643" lon="4.35747">
        <ele>705.9</ele>
        <time>2026-05-06T07:21:34Z</time>
      </trkpt>
      <trkpt lat="44.9364" lon="4.35751">
        <ele>705.3</ele>
        <time>2026-05-06T07:21:39Z</time>
      </trkpt>
      <trkpt lat="44.93639" lon="4.35752">
        <ele>705.1</ele>
        <time>2026-05-06T07:21:44Z</time>
      </trkpt>
      <trkpt lat="44.93636" lon="4.35752">
        <ele>704.9</ele>
        <time>2026-05-06T07:21:49Z</time>
      </trkpt>
      <trkpt lat="44.93632" lon="4.35754">
        <ele>704.4</ele>
        <time>2026-05-06T07:21:54Z</time>
      </trkpt>
      <trkpt lat="44.93628" lon="4.35756">
        <ele>703.9</ele>
        <time>2026-05-06T07:21:59Z</time>
      </trkpt>
      <trkpt lat="44.93623" lon="4.35759">
        <ele>703.2</ele>
        <time>2026-05-06T07:22:04Z</time>
      </trkpt>
      <trkpt lat="44.93622" lon="4.35762">
        <ele>702.8</ele>
        <time>2026-05-06T07:22:09Z</time>
      </trkpt>
      <trkpt lat="44.93619" lon="4.35766">
        <ele>702.1</ele>
        <time>2026-05-06T07:22:14Z</time>
      </trkpt>
      <trkpt lat="44.93616" lon="4.35768">
        <ele>701.6</ele>
        <time>2026-05-06T07:22:19Z</time>
      </trkpt>
      <trkpt lat="44.93613" lon="4.35771">
        <ele>701</ele>
        <time>2026-05-06T07:22:24Z</time>
      </trkpt>
      <trkpt lat="44.93611" lon="4.35774">
        <ele>700.4</ele>
        <time>2026-05-06T07:22:29Z</time>
      </trkpt>
      <trkpt lat="44.93607" lon="4.35778">
        <ele>699.5</ele>
        <time>2026-05-06T07:22:34Z</time>
      </trkpt>
      <trkpt lat="44.93604" lon="4.35781">
        <ele>698.9</ele>
        <time>2026-05-06T07:22:39Z</time>
      </trkpt>
      <trkpt lat="44.93602" lon="4.35785">
        <ele>698.1</ele>
        <time>2026-05-06T07:22:44Z</time>
      </trkpt>
      <trkpt lat="44.93599" lon="4.35788">
        <ele>697.4</ele>
        <time>2026-05-06T07:22:49Z</time>
      </trkpt>
      <trkpt lat="44.93595" lon="4.35791">
        <ele>696.6</ele>
        <time>2026-05-06T07:22:54Z</time>
      </trkpt>
      <trkpt lat="44.93591" lon="4.35794">
        <ele>695.8</ele>
        <time>2026-05-06T07:22:59Z</time>
      </trkpt>
      <trkpt lat="44.93588" lon="4.35798">
        <ele>695</ele>
        <time>2026-05-06T07:23:04Z</time>
      </trkpt>
      <trkpt lat="44.93584" lon="4.35801">
        <ele>694.1</ele>
        <time>2026-05-06T07:23:09Z</time>
      </trkpt>
      <trkpt lat="44.93579" lon="4.35802">
        <ele>692.7</ele>
        <time>2026-05-06T07:23:14Z</time>
      </trkpt>
      <trkpt lat="44.93575" lon="4.35803">
        <ele>691.5</ele>
        <time>2026-05-06T07:23:19Z</time>
      </trkpt>
      <trkpt lat="44.9357" lon="4.35802">
        <ele>690.2</ele>
        <time>2026-05-06T07:23:24Z</time>
      </trkpt>
      <trkpt lat="44.93568" lon="4.35799">
        <ele>690.1</ele>
        <time>2026-05-06T07:23:29Z</time>
      </trkpt>
      <trkpt lat="44.93568" lon="4.35794">
        <ele>690.8</ele>
        <time>2026-05-06T07:23:34Z</time>
      </trkpt>
      <trkpt lat="44.93568" lon="4.35789">
        <ele>691.4</ele>
        <time>2026-05-06T07:23:39Z</time>
      </trkpt>
      <trkpt lat="44.93568" lon="4.35784">
        <ele>692.1</ele>
        <time>2026-05-06T07:23:44Z</time>
      </trkpt>
      <trkpt lat="44.93568" lon="4.35778">
        <ele>692.9</ele>
        <time>2026-05-06T07:23:49Z</time>
      </trkpt>
      <trkpt lat="44.93567" lon="4.35773">
        <ele>693.3</ele>
        <time>2026-05-06T07:23:54Z</time>
      </trkpt>
      <trkpt lat="44.93567" lon="4.35767">
        <ele>694.1</ele>
        <time>2026-05-06T07:23:59Z</time>
      </trkpt>
      <trkpt lat="44.93568" lon="4.35763">
        <ele>694.9</ele>
        <time>2026-05-06T07:24:04Z</time>
      </trkpt>
      <trkpt lat="44.93568" lon="4.35758">
        <ele>695.6</ele>
        <time>2026-05-06T07:24:09Z</time>
      </trkpt>
      <trkpt lat="44.93567" lon="4.35753">
        <ele>695.9</ele>
        <time>2026-05-06T07:24:14Z</time>
      </trkpt>
      <trkpt lat="44.93566" lon="4.35747">
        <ele>695.8</ele>
        <time>2026-05-06T07:24:19Z</time>
      </trkpt>
      <trkpt lat="44.93567" lon="4.35742">
        <ele>696</ele>
        <time>2026-05-06T07:24:24Z</time>
      </trkpt>
      <trkpt lat="44.93568" lon="4.35736">
        <ele>696.1</ele>
        <time>2026-05-06T07:24:29Z</time>
      </trkpt>
      <trkpt lat="44.93568" lon="4.35731">
        <ele>695.9</ele>
        <time>2026-05-06T07:24:34Z</time>
      </trkpt>
      <trkpt lat="44.93567" lon="4.35726">
        <ele>695.3</ele>
        <time>2026-05-06T07:24:39Z</time>
      </trkpt>
      <trkpt lat="44.93567" lon="4.35722">
        <ele>695.2</ele>
        <time>2026-05-06T07:24:44Z</time>
      </trkpt>
      <trkpt lat="44.93566" lon="4.35717">
        <ele>694.6</ele>
        <time>2026-05-06T07:24:49Z</time>
      </trkpt>
      <trkpt lat="44.93565" lon="4.35712">
        <ele>694</ele>
        <time>2026-05-06T07:24:54Z</time>
      </trkpt>
      <trkpt lat="44.93563" lon="4.35707">
        <ele>693</ele>
        <time>2026-05-06T07:24:59Z</time>
      </trkpt>
      <trkpt lat="44.93561" lon="4.35704">
        <ele>692.1</ele>
        <time>2026-05-06T07:25:04Z</time>
      </trkpt>
      <trkpt lat="44.93558" lon="4.357">
        <ele>690.7</ele>
        <time>2026-05-06T07:25:09Z</time>
      </trkpt>
      <trkpt lat="44.93557" lon="4.35696">
        <ele>690.1</ele>
        <time>2026-05-06T07:25:14Z</time>
      </trkpt>
      <trkpt lat="44.93556" lon="4.35693">
        <ele>689.5</ele>
        <time>2026-05-06T07:25:19Z</time>
      </trkpt>
      <trkpt lat="44.93556" lon="4.35693">
        <ele>689.5</ele>
        <time>2026-05-06T07:25:24Z</time>
      </trkpt>
      <trkpt lat="44.93556" lon="4.35693">
        <ele>689.5</ele>
        <time>2026-05-06T07:25:29Z</time>
      </trkpt>
      <trkpt lat="44.93556" lon="4.35693">
        <ele>689.5</ele>
        <time>2026-05-06T07:25:34Z</time>
      </trkpt>
      <trkpt lat="44.93556" lon="4.35693">
        <ele>689.5</ele>
        <time>2026-05-06T07:25:39Z</time>
      </trkpt>
      <trkpt lat="44.93556" lon="4.35693">
        <ele>689.5</ele>
        <time>2026-05-06T07:25:44Z</time>
      </trkpt>
      <trkpt lat="44.93556" lon="4.35693">
        <ele>689.5</ele>
        <time>2026-05-06T07:25:49Z</time>
      </trkpt>
      <trkpt lat="44.93556" lon="4.35693">
        <ele>689.5</ele>
        <time>2026-05-06T07:25:54Z</time>
      </trkpt>
      <trkpt lat="44.93556" lon="4.35693">
        <ele>689.5</ele>
        <time>2026-05-06T07:25:59Z</time>
      </trkpt>
      <trkpt lat="44.93556" lon="4.35693">
        <ele>689.5</ele>
        <time>2026-05-06T07:26:04Z</time>
      </trkpt>
      <trkpt lat="44.93556" lon="4.35693">
        <ele>689.5</ele>
        <time>2026-05-06T07:26:09Z</time>
      </trkpt>
      <trkpt lat="44.93556" lon="4.35693">
        <ele>689.5</ele>
        <time>2026-05-06T07:26:14Z</time>
      </trkpt>
      <trkpt lat="44.93556" lon="4.35693">
        <ele>689.5</ele>
        <time>2026-05-06T07:26:19Z</time>
      </trkpt>
      <trkpt lat="44.93556" lon="4.35693">
        <ele>689.5</ele>
        <time>2026-05-06T07:26:24Z</time>
      </trkpt>
      <trkpt lat="44.93556" lon="4.35693">
        <ele>689.5</ele>
        <time>2026-05-06T07:26:29Z</time>
      </trkpt>
      <trkpt lat="44.93556" lon="4.35693">
        <ele>689.5</ele>
        <time>2026-05-06T07:26:34Z</time>
      </trkpt>
      <trkpt lat="44.93556" lon="4.35693">
        <ele>689.5</ele>
        <time>2026-05-06T07:26:39Z</time>
      </trkpt>
      <trkpt lat="44.93553" lon="4.35692">
        <ele>688.3</ele>
        <time>2026-05-06T07:26:44Z</time>
      </trkpt>
      <trkpt lat="44.93553" lon="4.35692">
        <ele>688.3</ele>
        <time>2026-05-06T07:26:49Z</time>
      </trkpt>
      <trkpt lat="44.93553" lon="4.35692">
        <ele>688.3</ele>
        <time>2026-05-06T07:26:54Z</time>
      </trkpt>
      <trkpt lat="44.93553" lon="4.35692">
        <ele>688.3</ele>
        <time>2026-05-06T07:26:59Z</time>
      </trkpt>
      <trkpt lat="44.93553" lon="4.35692">
        <ele>688.3</ele>
        <time>2026-05-06T07:27:04Z</time>
      </trkpt>
      <trkpt lat="44.93553" lon="4.35692">
        <ele>688.3</ele>
        <time>2026-05-06T07:27:09Z</time>
      </trkpt>
      <trkpt lat="44.93553" lon="4.35692">
        <ele>688.3</ele>
        <time>2026-05-06T07:27:14Z</time>
      </trkpt>
      <trkpt lat="44.93553" lon="4.35692">
        <ele>688.3</ele>
        <time>2026-05-06T07:27:19Z</time>
      </trkpt>
      <trkpt lat="44.93553" lon="4.35692">
        <ele>688.3</ele>
        <time>2026-05-06T07:27:24Z</time>
      </trkpt>
      <trkpt lat="44.93553" lon="4.35692">
        <ele>688.3</ele>
        <time>2026-05-06T07:27:29Z</time>
      </trkpt>
      <trkpt lat="44.93553" lon="4.35692">
        <ele>688.3</ele>
        <time>2026-05-06T07:27:34Z</time>
      </trkpt>
      <trkpt lat="44.93553" lon="4.35692">
        <ele>688.3</ele>
        <time>2026-05-06T07:27:39Z</time>
      </trkpt>
      <trkpt lat="44.93553" lon="4.35692">
        <ele>688.3</ele>
        <time>2026-05-06T07:27:44Z</time>
      </trkpt>
      <trkpt lat="44.93552" lon="4.35691">
        <ele>687.8</ele>
        <time>2026-05-06T07:27:49Z</time>
      </trkpt>
      <trkpt lat="44.93553" lon="4.35683">
        <ele>687.8</ele>
        <time>2026-05-06T07:27:54Z</time>
      </trkpt>
      <trkpt lat="44.93553" lon="4.35675">
        <ele>687.4</ele>
        <time>2026-05-06T07:27:59Z</time>
      </trkpt>
      <trkpt lat="44.93553" lon="4.35666">
        <ele>686.8</ele>
        <time>2026-05-06T07:28:04Z</time>
      </trkpt>
      <trkpt lat="44.93553" lon="4.35656">
        <ele>686.1</ele>
        <time>2026-05-06T07:28:09Z</time>
      </trkpt>
      <trkpt lat="44.93553" lon="4.35646">
        <ele>685.3</ele>
        <time>2026-05-06T07:28:14Z</time>
      </trkpt>
      <trkpt lat="44.93554" lon="4.35636">
        <ele>685</ele>
        <time>2026-05-06T07:28:19Z</time>
      </trkpt>
      <trkpt lat="44.93556" lon="4.35628">
        <ele>685.3</ele>
        <time>2026-05-06T07:28:24Z</time>
      </trkpt>
      <trkpt lat="44.93556" lon="4.3562">
        <ele>684.6</ele>
        <time>2026-05-06T07:28:29Z</time>
      </trkpt>
      <trkpt lat="44.93555" lon="4.35619">
        <ele>684.1</ele>
        <time>2026-05-06T07:28:34Z</time>
      </trkpt>
      <trkpt lat="44.93554" lon="4.35617">
        <ele>683.5</ele>
        <time>2026-05-06T07:28:39Z</time>
      </trkpt>
      <trkpt lat="44.93557" lon="4.35607">
        <ele>684.1</ele>
        <time>2026-05-06T07:28:44Z</time>
      </trkpt>
      <trkpt lat="44.9356" lon="4.35595">
        <ele>684.5</ele>
        <time>2026-05-06T07:28:49Z</time>
      </trkpt>
      <trkpt lat="44.93563" lon="4.35587">
        <ele>685.2</ele>
        <time>2026-05-06T07:28:54Z</time>
      </trkpt>
      <trkpt lat="44.93563" lon="4.35576">
        <ele>685.5</ele>
        <time>2026-05-06T07:28:59Z</time>
      </trkpt>
      <trkpt lat="44.93564" lon="4.35566">
        <ele>686.8</ele>
        <time>2026-05-06T07:29:04Z</time>
      </trkpt>
      <trkpt lat="44.93561" lon="4.35556">
        <ele>686.2</ele>
        <time>2026-05-06T07:29:09Z</time>
      </trkpt>
      <trkpt lat="44.93558" lon="4.35546">
        <ele>685.6</ele>
        <time>2026-05-06T07:29:14Z</time>
      </trkpt>
      <trkpt lat="44.93554" lon="4.35536">
        <ele>684.6</ele>
        <time>2026-05-06T07:29:19Z</time>
      </trkpt>
      <trkpt lat="44.9355" lon="4.35527">
        <ele>683.4</ele>
        <time>2026-05-06T07:29:24Z</time>
      </trkpt>
      <trkpt lat="44.93546" lon="4.35517">
        <ele>682.3</ele>
        <time>2026-05-06T07:29:29Z</time>
      </trkpt>
      <trkpt lat="44.93543" lon="4.3551">
        <ele>681.4</ele>
        <time>2026-05-06T07:29:34Z</time>
      </trkpt>
      <trkpt lat="44.9354" lon="4.35503">
        <ele>680.5</ele>
        <time>2026-05-06T07:29:39Z</time>
      </trkpt>
      <trkpt lat="44.93538" lon="4.35496">
        <ele>680.3</ele>
        <time>2026-05-06T07:29:44Z</time>
      </trkpt>
      <trkpt lat="44.93536" lon="4.35488">
        <ele>680.4</ele>
        <time>2026-05-06T07:29:49Z</time>
      </trkpt>
      <trkpt lat="44.93533" lon="4.35481">
        <ele>679.9</ele>
        <time>2026-05-06T07:29:54Z</time>
      </trkpt>
      <trkpt lat="44.93529" lon="4.35473">
        <ele>679</ele>
        <time>2026-05-06T07:29:59Z</time>
      </trkpt>
      <trkpt lat="44.93527" lon="4.35465">
        <ele>679.1</ele>
        <time>2026-05-06T07:30:04Z</time>
      </trkpt>
      <trkpt lat="44.93524" lon="4.35456">
        <ele>678.9</ele>
        <time>2026-05-06T07:30:09Z</time>
      </trkpt>
      <trkpt lat="44.93522" lon="4.35446">
        <ele>679.3</ele>
        <time>2026-05-06T07:30:14Z</time>
      </trkpt>
      <trkpt lat="44.93519" lon="4.35437">
        <ele>679</ele>
        <time>2026-05-06T07:30:19Z</time>
      </trkpt>
      <trkpt lat="44.93516" lon="4.35427">
        <ele>679</ele>
        <time>2026-05-06T07:30:24Z</time>
      </trkpt>
      <trkpt lat="44.93515" lon="4.35418">
        <ele>679.7</ele>
        <time>2026-05-06T07:30:29Z</time>
      </trkpt>
      <trkpt lat="44.93514" lon="4.35408">
        <ele>679</ele>
        <time>2026-05-06T07:30:34Z</time>
      </trkpt>
      <trkpt lat="44.93514" lon="4.35396">
        <ele>678.4</ele>
        <time>2026-05-06T07:30:39Z</time>
      </trkpt>
      <trkpt lat="44.93514" lon="4.35386">
        <ele>678</ele>
        <time>2026-05-06T07:30:44Z</time>
      </trkpt>
      <trkpt lat="44.93515" lon="4.35377">
        <ele>678</ele>
        <time>2026-05-06T07:30:49Z</time>
      </trkpt>
      <trkpt lat="44.93515" lon="4.35368">
        <ele>677.6</ele>
        <time>2026-05-06T07:30:54Z</time>
      </trkpt>
      <trkpt lat="44.93515" lon="4.35359">
        <ele>677.2</ele>
        <time>2026-05-06T07:30:59Z</time>
      </trkpt>
      <trkpt lat="44.93517" lon="4.3535">
        <ele>677.7</ele>
        <time>2026-05-06T07:31:04Z</time>
      </trkpt>
      <trkpt lat="44.93519" lon="4.35342">
        <ele>678.3</ele>
        <time>2026-05-06T07:31:09Z</time>
      </trkpt>
      <trkpt lat="44.93518" lon="4.3534">
        <ele>677.7</ele>
        <time>2026-05-06T07:31:14Z</time>
      </trkpt>
      <trkpt lat="44.93516" lon="4.35341">
        <ele>676.8</ele>
        <time>2026-05-06T07:31:19Z</time>
      </trkpt>
      <trkpt lat="44.93516" lon="4.35339">
        <ele>676.7</ele>
        <time>2026-05-06T07:31:24Z</time>
      </trkpt>
      <trkpt lat="44.93517" lon="4.35335">
        <ele>677</ele>
        <time>2026-05-06T07:31:29Z</time>
      </trkpt>
      <trkpt lat="44.93518" lon="4.35333">
        <ele>677.4</ele>
        <time>2026-05-06T07:31:34Z</time>
      </trkpt>
      <trkpt lat="44.9352" lon="4.35328">
        <ele>678.1</ele>
        <time>2026-05-06T07:31:39Z</time>
      </trkpt>
      <trkpt lat="44.93521" lon="4.35323">
        <ele>678.3</ele>
        <time>2026-05-06T07:31:44Z</time>
      </trkpt>
      <trkpt lat="44.9352" lon="4.35321">
        <ele>677.7</ele>
        <time>2026-05-06T07:31:49Z</time>
      </trkpt>
      <trkpt lat="44.93521" lon="4.3532">
        <ele>678.1</ele>
        <time>2026-05-06T07:31:54Z</time>
      </trkpt>
      <trkpt lat="44.93522" lon="4.35313">
        <ele>678.2</ele>
        <time>2026-05-06T07:31:59Z</time>
      </trkpt>
      <trkpt lat="44.93524" lon="4.35307">
        <ele>678.8</ele>
        <time>2026-05-06T07:32:04Z</time>
      </trkpt>
      <trkpt lat="44.93524" lon="4.353">
        <ele>678.5</ele>
        <time>2026-05-06T07:32:09Z</time>
      </trkpt>
      <trkpt lat="44.93525" lon="4.35292">
        <ele>678.5</ele>
        <time>2026-05-06T07:32:14Z</time>
      </trkpt>
      <trkpt lat="44.93525" lon="4.35284">
        <ele>678.1</ele>
        <time>2026-05-06T07:32:19Z</time>
      </trkpt>
      <trkpt lat="44.93528" lon="4.35276">
        <ele>679.1</ele>
        <time>2026-05-06T07:32:24Z</time>
      </trkpt>
      <trkpt lat="44.9353" lon="4.35268">
        <ele>679.7</ele>
        <time>2026-05-06T07:32:29Z</time>
      </trkpt>
      <trkpt lat="44.93531" lon="4.3526">
        <ele>679.8</ele>
        <time>2026-05-06T07:32:34Z</time>
      </trkpt>
      <trkpt lat="44.93533" lon="4.35253">
        <ele>680.4</ele>
        <time>2026-05-06T07:32:39Z</time>
      </trkpt>
      <trkpt lat="44.93534" lon="4.35244">
        <ele>680.7</ele>
        <time>2026-05-06T07:32:44Z</time>
      </trkpt>
      <trkpt lat="44.93534" lon="4.35236">
        <ele>680.7</ele>
        <time>2026-05-06T07:32:49Z</time>
      </trkpt>
      <trkpt lat="44.93534" lon="4.35227">
        <ele>680.7</ele>
        <time>2026-05-06T07:32:54Z</time>
      </trkpt>
      <trkpt lat="44.93535" lon="4.35218">
        <ele>681.1</ele>
        <time>2026-05-06T07:32:59Z</time>
      </trkpt>
      <trkpt lat="44.93537" lon="4.35212">
        <ele>682</ele>
        <time>2026-05-06T07:33:04Z</time>
      </trkpt>
      <trkpt lat="44.93539" lon="4.35204">
        <ele>682.8</ele>
        <time>2026-05-06T07:33:09Z</time>
      </trkpt>
      <trkpt lat="44.93539" lon="4.35193">
        <ele>682.7</ele>
        <time>2026-05-06T07:33:14Z</time>
      </trkpt>
      <trkpt lat="44.93539" lon="4.35183">
        <ele>682.6</ele>
        <time>2026-05-06T07:33:19Z</time>
      </trkpt>
      <trkpt lat="44.93542" lon="4.35176">
        <ele>683.7</ele>
        <time>2026-05-06T07:33:24Z</time>
      </trkpt>
      <trkpt lat="44.93543" lon="4.35168">
        <ele>684</ele>
        <time>2026-05-06T07:33:29Z</time>
      </trkpt>
      <trkpt lat="44.93544" lon="4.35159">
        <ele>685</ele>
        <time>2026-05-06T07:33:34Z</time>
      </trkpt>
      <trkpt lat="44.93546" lon="4.3515">
        <ele>686.5</ele>
        <time>2026-05-06T07:33:39Z</time>
      </trkpt>
      <trkpt lat="44.93547" lon="4.3514">
        <ele>687.7</ele>
        <time>2026-05-06T07:33:44Z</time>
      </trkpt>
      <trkpt lat="44.93547" lon="4.3513">
        <ele>688.5</ele>
        <time>2026-05-06T07:33:49Z</time>
      </trkpt>
      <trkpt lat="44.93548" lon="4.35119">
        <ele>689.8</ele>
        <time>2026-05-06T07:33:54Z</time>
      </trkpt>
      <trkpt lat="44.93548" lon="4.35109">
        <ele>690.6</ele>
        <time>2026-05-06T07:33:59Z</time>
      </trkpt>
      <trkpt lat="44.93548" lon="4.35099">
        <ele>691.4</ele>
        <time>2026-05-06T07:34:04Z</time>
      </trkpt>
      <trkpt lat="44.93548" lon="4.35092">
        <ele>692</ele>
        <time>2026-05-06T07:34:09Z</time>
      </trkpt>
      <trkpt lat="44.93547" lon="4.35087">
        <ele>692.1</ele>
        <time>2026-05-06T07:34:14Z</time>
      </trkpt>
      <trkpt lat="44.93544" lon="4.35081">
        <ele>692.2</ele>
        <time>2026-05-06T07:34:19Z</time>
      </trkpt>
      <trkpt lat="44.93541" lon="4.35072">
        <ele>693.8</ele>
        <time>2026-05-06T07:34:24Z</time>
      </trkpt>
      <trkpt lat="44.93538" lon="4.35062">
        <ele>695.8</ele>
        <time>2026-05-06T07:34:29Z</time>
      </trkpt>
      <trkpt lat="44.93536" lon="4.35052">
        <ele>698</ele>
        <time>2026-05-06T07:34:34Z</time>
      </trkpt>
      <trkpt lat="44.93539" lon="4.35049">
        <ele>699.5</ele>
        <time>2026-05-06T07:34:39Z</time>
      </trkpt>
      <trkpt lat="44.93541" lon="4.35045">
        <ele>701</ele>
        <time>2026-05-06T07:34:44Z</time>
      </trkpt>
      <trkpt lat="44.93542" lon="4.35041">
        <ele>702.2</ele>
        <time>2026-05-06T07:34:49Z</time>
      </trkpt>
      <trkpt lat="44.93545" lon="4.3504">
        <ele>703.1</ele>
        <time>2026-05-06T07:34:54Z</time>
      </trkpt>
      <trkpt lat="44.93547" lon="4.35043">
        <ele>702.7</ele>
        <time>2026-05-06T07:34:59Z</time>
      </trkpt>
      <trkpt lat="44.93547" lon="4.35043">
        <ele>702.7</ele>
        <time>2026-05-06T07:35:04Z</time>
      </trkpt>
      <trkpt lat="44.93547" lon="4.35043">
        <ele>702.7</ele>
        <time>2026-05-06T07:35:09Z</time>
      </trkpt>
      <trkpt lat="44.93547" lon="4.35043">
        <ele>702.7</ele>
        <time>2026-05-06T07:35:14Z</time>
      </trkpt>
      <trkpt lat="44.93547" lon="4.35043">
        <ele>702.7</ele>
        <time>2026-05-06T07:35:19Z</time>
      </trkpt>
      <trkpt lat="44.93547" lon="4.35043">
        <ele>702.7</ele>
        <time>2026-05-06T07:35:24Z</time>
      </trkpt>
      <trkpt lat="44.93547" lon="4.35043">
        <ele>702.7</ele>
        <time>2026-05-06T07:35:29Z</time>
      </trkpt>
      <trkpt lat="44.93547" lon="4.35043">
        <ele>702.7</ele>
        <time>2026-05-06T07:35:34Z</time>
      </trkpt>
      <trkpt lat="44.93547" lon="4.35043">
        <ele>702.7</ele>
        <time>2026-05-06T07:35:39Z</time>
      </trkpt>
      <trkpt lat="44.93541" lon="4.35037">
        <ele>703.1</ele>
        <time>2026-05-06T07:35:44Z</time>
      </trkpt>
      <trkpt lat="44.9354" lon="4.35033">
        <ele>704</ele>
        <time>2026-05-06T07:35:49Z</time>
      </trkpt>
      <trkpt lat="44.93538" lon="4.35027">
        <ele>705.2</ele>
        <time>2026-05-06T07:35:54Z</time>
      </trkpt>
      <trkpt lat="44.93536" lon="4.35019">
        <ele>707</ele>
        <time>2026-05-06T07:35:59Z</time>
      </trkpt>
      <trkpt lat="44.93533" lon="4.35014">
        <ele>707.9</ele>
        <time>2026-05-06T07:36:04Z</time>
      </trkpt>
      <trkpt lat="44.93532" lon="4.3501">
        <ele>708.8</ele>
        <time>2026-05-06T07:36:09Z</time>
      </trkpt>
      <trkpt lat="44.93529" lon="4.35005">
        <ele>709.8</ele>
        <time>2026-05-06T07:36:14Z</time>
      </trkpt>
      <trkpt lat="44.93527" lon="4.35001">
        <ele>710.6</ele>
        <time>2026-05-06T07:36:19Z</time>
      </trkpt>
      <trkpt lat="44.93527" lon="4.35001">
        <ele>710.6</ele>
        <time>2026-05-06T07:36:24Z</time>
      </trkpt>
      <trkpt lat="44.93527" lon="4.35001">
        <ele>710.6</ele>
        <time>2026-05-06T07:36:29Z</time>
      </trkpt>
      <trkpt lat="44.93527" lon="4.35001">
        <ele>710.6</ele>
        <time>2026-05-06T07:36:34Z</time>
      </trkpt>
      <trkpt lat="44.93527" lon="4.35001">
        <ele>710.6</ele>
        <time>2026-05-06T07:36:39Z</time>
      </trkpt>
      <trkpt lat="44.93527" lon="4.35001">
        <ele>710.6</ele>
        <time>2026-05-06T07:36:44Z</time>
      </trkpt>
      <trkpt lat="44.93526" lon="4.34997">
        <ele>711.8</ele>
        <time>2026-05-06T07:36:49Z</time>
      </trkpt>
      <trkpt lat="44.93525" lon="4.34994">
        <ele>712.8</ele>
        <time>2026-05-06T07:36:54Z</time>
      </trkpt>
      <trkpt lat="44.93525" lon="4.34992">
        <ele>713.5</ele>
        <time>2026-05-06T07:36:59Z</time>
      </trkpt>
      <trkpt lat="44.93525" lon="4.34992">
        <ele>713.5</ele>
        <time>2026-05-06T07:37:04Z</time>
      </trkpt>
      <trkpt lat="44.93524" lon="4.34987">
        <ele>715.3</ele>
        <time>2026-05-06T07:37:09Z</time>
      </trkpt>
      <trkpt lat="44.93524" lon="4.34986">
        <ele>715.7</ele>
        <time>2026-05-06T07:37:14Z</time>
      </trkpt>
      <trkpt lat="44.93523" lon="4.34982">
        <ele>717.1</ele>
        <time>2026-05-06T07:37:19Z</time>
      </trkpt>
      <trkpt lat="44.93524" lon="4.3498">
        <ele>717.9</ele>
        <time>2026-05-06T07:37:24Z</time>
      </trkpt>
      <trkpt lat="44.93525" lon="4.3498">
        <ele>718</ele>
        <time>2026-05-06T07:37:29Z</time>
      </trkpt>
      <trkpt lat="44.93525" lon="4.3498">
        <ele>718</ele>
        <time>2026-05-06T07:37:34Z</time>
      </trkpt>
      <trkpt lat="44.93525" lon="4.3498">
        <ele>718</ele>
        <time>2026-05-06T07:37:39Z</time>
      </trkpt>
      <trkpt lat="44.93525" lon="4.3498">
        <ele>718</ele>
        <time>2026-05-06T07:37:44Z</time>
      </trkpt>
      <trkpt lat="44.93525" lon="4.34979">
        <ele>718.3</ele>
        <time>2026-05-06T07:37:49Z</time>
      </trkpt>
      <trkpt lat="44.93524" lon="4.34976">
        <ele>719.4</ele>
        <time>2026-05-06T07:37:54Z</time>
      </trkpt>
      <trkpt lat="44.93523" lon="4.34973">
        <ele>720.4</ele>
        <time>2026-05-06T07:37:59Z</time>
      </trkpt>
      <trkpt lat="44.93522" lon="4.34972">
        <ele>720.7</ele>
        <time>2026-05-06T07:38:04Z</time>
      </trkpt>
      <trkpt lat="44.93522" lon="4.34967">
        <ele>722.6</ele>
        <time>2026-05-06T07:38:09Z</time>
      </trkpt>
      <trkpt lat="44.93522" lon="4.34963">
        <ele>724.1</ele>
        <time>2026-05-06T07:38:14Z</time>
      </trkpt>
      <trkpt lat="44.93522" lon="4.34959">
        <ele>725.6</ele>
        <time>2026-05-06T07:38:19Z</time>
      </trkpt>
      <trkpt lat="44.93522" lon="4.34957">
        <ele>726.4</ele>
        <time>2026-05-06T07:38:24Z</time>
      </trkpt>
      <trkpt lat="44.93523" lon="4.34954">
        <ele>727.5</ele>
        <time>2026-05-06T07:38:29Z</time>
      </trkpt>
      <trkpt lat="44.93523" lon="4.3495">
        <ele>729</ele>
        <time>2026-05-06T07:38:34Z</time>
      </trkpt>
      <trkpt lat="44.93523" lon="4.34947">
        <ele>730.2</ele>
        <time>2026-05-06T07:38:39Z</time>
      </trkpt>
      <trkpt lat="44.93523" lon="4.34943">
        <ele>731.7</ele>
        <time>2026-05-06T07:38:44Z</time>
      </trkpt>
      <trkpt lat="44.93524" lon="4.34939">
        <ele>733.1</ele>
        <time>2026-05-06T07:38:49Z</time>
      </trkpt>
      <trkpt lat="44.93523" lon="4.34936">
        <ele>734.3</ele>
        <time>2026-05-06T07:38:54Z</time>
      </trkpt>
      <trkpt lat="44.93522" lon="4.34934">
        <ele>735.1</ele>
        <time>2026-05-06T07:38:59Z</time>
      </trkpt>
      <trkpt lat="44.93521" lon="4.34927">
        <ele>737.8</ele>
        <time>2026-05-06T07:39:04Z</time>
      </trkpt>
      <trkpt lat="44.9352" lon="4.34921">
        <ele>740.2</ele>
        <time>2026-05-06T07:39:09Z</time>
      </trkpt>
      <trkpt lat="44.9352" lon="4.34916">
        <ele>742</ele>
        <time>2026-05-06T07:39:14Z</time>
      </trkpt>
      <trkpt lat="44.9352" lon="4.3491">
        <ele>743.8</ele>
        <time>2026-05-06T07:39:19Z</time>
      </trkpt>
      <trkpt lat="44.9352" lon="4.34904">
        <ele>745.7</ele>
        <time>2026-05-06T07:39:24Z</time>
      </trkpt>
      <trkpt lat="44.9352" lon="4.34897">
        <ele>747.8</ele>
        <time>2026-05-06T07:39:29Z</time>
      </trkpt>
      <trkpt lat="44.93519" lon="4.34892">
        <ele>749.4</ele>
        <time>2026-05-06T07:39:34Z</time>
      </trkpt>
      <trkpt lat="44.9352" lon="4.34888">
        <ele>750.5</ele>
        <time>2026-05-06T07:39:39Z</time>
      </trkpt>
      <trkpt lat="44.93518" lon="4.34884">
        <ele>752</ele>
        <time>2026-05-06T07:39:44Z</time>
      </trkpt>
      <trkpt lat="44.93517" lon="4.34882">
        <ele>752.7</ele>
        <time>2026-05-06T07:39:49Z</time>
      </trkpt>
      <trkpt lat="44.93517" lon="4.34882">
        <ele>752.7</ele>
        <time>2026-05-06T07:39:54Z</time>
      </trkpt>
      <trkpt lat="44.93517" lon="4.34882">
        <ele>752.7</ele>
        <time>2026-05-06T07:39:59Z</time>
      </trkpt>
      <trkpt lat="44.93517" lon="4.34882">
        <ele>752.7</ele>
        <time>2026-05-06T07:40:04Z</time>
      </trkpt>
      <trkpt lat="44.93516" lon="4.34878">
        <ele>754.1</ele>
        <time>2026-05-06T07:40:09Z</time>
      </trkpt>
      <trkpt lat="44.93514" lon="4.34875">
        <ele>755.3</ele>
        <time>2026-05-06T07:40:14Z</time>
      </trkpt>
      <trkpt lat="44.93513" lon="4.34871">
        <ele>756.7</ele>
        <time>2026-05-06T07:40:19Z</time>
      </trkpt>
      <trkpt lat="44.93513" lon="4.34867">
        <ele>757.9</ele>
        <time>2026-05-06T07:40:24Z</time>
      </trkpt>
      <trkpt lat="44.93512" lon="4.34864">
        <ele>759</ele>
        <time>2026-05-06T07:40:29Z</time>
      </trkpt>
      <trkpt lat="44.93513" lon="4.34862">
        <ele>759.5</ele>
        <time>2026-05-06T07:40:34Z</time>
      </trkpt>
      <trkpt lat="44.93514" lon="4.34858">
        <ele>760.5</ele>
        <time>2026-05-06T07:40:39Z</time>
      </trkpt>
      <trkpt lat="44.93513" lon="4.34856">
        <ele>761.3</ele>
        <time>2026-05-06T07:40:44Z</time>
      </trkpt>
      <trkpt lat="44.93513" lon="4.34856">
        <ele>761.3</ele>
        <time>2026-05-06T07:40:49Z</time>
      </trkpt>
      <trkpt lat="44.93513" lon="4.3485">
        <ele>763.2</ele>
        <time>2026-05-06T07:40:54Z</time>
      </trkpt>
      <trkpt lat="44.93513" lon="4.34849">
        <ele>763.5</ele>
        <time>2026-05-06T07:40:59Z</time>
      </trkpt>
      <trkpt lat="44.93513" lon="4.34843">
        <ele>765.4</ele>
        <time>2026-05-06T07:41:04Z</time>
      </trkpt>
      <trkpt lat="44.93513" lon="4.34842">
        <ele>765.7</ele>
        <time>2026-05-06T07:41:09Z</time>
      </trkpt>
      <trkpt lat="44.93516" lon="4.34836">
        <ele>766.9</ele>
        <time>2026-05-06T07:41:14Z</time>
      </trkpt>
      <trkpt lat="44.93516" lon="4.34833">
        <ele>767.8</ele>
        <time>2026-05-06T07:41:19Z</time>
      </trkpt>
      <trkpt lat="44.93516" lon="4.34829">
        <ele>768.6</ele>
        <time>2026-05-06T07:41:24Z</time>
      </trkpt>
      <trkpt lat="44.93517" lon="4.34823">
        <ele>769.5</ele>
        <time>2026-05-06T07:41:29Z</time>
      </trkpt>
      <trkpt lat="44.93518" lon="4.34819">
        <ele>770.1</ele>
        <time>2026-05-06T07:41:34Z</time>
      </trkpt>
      <trkpt lat="44.93518" lon="4.34819">
        <ele>770.1</ele>
        <time>2026-05-06T07:41:39Z</time>
      </trkpt>
      <trkpt lat="44.9352" lon="4.34806">
        <ele>772.2</ele>
        <time>2026-05-06T07:41:44Z</time>
      </trkpt>
      <trkpt lat="44.93521" lon="4.34802">
        <ele>772.7</ele>
        <time>2026-05-06T07:41:49Z</time>
      </trkpt>
      <trkpt lat="44.93521" lon="4.34799">
        <ele>773.3</ele>
        <time>2026-05-06T07:41:54Z</time>
      </trkpt>
      <trkpt lat="44.93519" lon="4.34798">
        <ele>773.9</ele>
        <time>2026-05-06T07:41:59Z</time>
      </trkpt>
      <trkpt lat="44.93519" lon="4.34798">
        <ele>773.9</ele>
        <time>2026-05-06T07:42:04Z</time>
      </trkpt>
      <trkpt lat="44.93519" lon="4.34798">
        <ele>773.9</ele>
        <time>2026-05-06T07:42:09Z</time>
      </trkpt>
      <trkpt lat="44.93519" lon="4.34798">
        <ele>773.9</ele>
        <time>2026-05-06T07:42:14Z</time>
      </trkpt>
      <trkpt lat="44.93519" lon="4.34798">
        <ele>773.9</ele>
        <time>2026-05-06T07:42:19Z</time>
      </trkpt>
      <trkpt lat="44.93519" lon="4.34798">
        <ele>773.9</ele>
        <time>2026-05-06T07:42:24Z</time>
      </trkpt>
      <trkpt lat="44.93519" lon="4.34798">
        <ele>773.9</ele>
        <time>2026-05-06T07:42:29Z</time>
      </trkpt>
      <trkpt lat="44.93519" lon="4.34798">
        <ele>773.9</ele>
        <time>2026-05-06T07:42:34Z</time>
      </trkpt>
      <trkpt lat="44.93519" lon="4.34798">
        <ele>773.9</ele>
        <time>2026-05-06T07:42:39Z</time>
      </trkpt>
      <trkpt lat="44.93519" lon="4.34798">
        <ele>773.9</ele>
        <time>2026-05-06T07:42:44Z</time>
      </trkpt>
      <trkpt lat="44.93519" lon="4.34798">
        <ele>773.9</ele>
        <time>2026-05-06T07:42:49Z</time>
      </trkpt>
      <trkpt lat="44.93514" lon="4.34785">
        <ele>777.2</ele>
        <time>2026-05-06T07:42:54Z</time>
      </trkpt>
      <trkpt lat="44.93515" lon="4.34781">
        <ele>777.8</ele>
        <time>2026-05-06T07:42:59Z</time>
      </trkpt>
      <trkpt lat="44.93515" lon="4.34781">
        <ele>777.8</ele>
        <time>2026-05-06T07:43:04Z</time>
      </trkpt>
      <trkpt lat="44.93517" lon="4.34775">
        <ele>778.6</ele>
        <time>2026-05-06T07:43:09Z</time>
      </trkpt>
      <trkpt lat="44.93518" lon="4.34771">
        <ele>779.2</ele>
        <time>2026-05-06T07:43:14Z</time>
      </trkpt>
      <trkpt lat="44.93518" lon="4.34768">
        <ele>779.8</ele>
        <time>2026-05-06T07:43:19Z</time>
      </trkpt>
      <trkpt lat="44.93517" lon="4.34765">
        <ele>780.5</ele>
        <time>2026-05-06T07:43:24Z</time>
      </trkpt>
      <trkpt lat="44.93515" lon="4.34765">
        <ele>780.8</ele>
        <time>2026-05-06T07:43:29Z</time>
      </trkpt>
      <trkpt lat="44.9351" lon="4.34772">
        <ele>780.4</ele>
        <time>2026-05-06T07:43:34Z</time>
      </trkpt>
      <trkpt lat="44.93507" lon="4.34775">
        <ele>780.3</ele>
        <time>2026-05-06T07:43:39Z</time>
      </trkpt>
      <trkpt lat="44.93504" lon="4.34777">
        <ele>780.5</ele>
        <time>2026-05-06T07:43:44Z</time>
      </trkpt>
      <trkpt lat="44.93504" lon="4.34777">
        <ele>780.5</ele>
        <time>2026-05-06T07:43:49Z</time>
      </trkpt>
      <trkpt lat="44.93504" lon="4.34777">
        <ele>780.5</ele>
        <time>2026-05-06T07:43:54Z</time>
      </trkpt>
      <trkpt lat="44.93504" lon="4.34777">
        <ele>780.5</ele>
        <time>2026-05-06T07:43:59Z</time>
      </trkpt>
      <trkpt lat="44.93504" lon="4.34777">
        <ele>780.5</ele>
        <time>2026-05-06T07:44:04Z</time>
      </trkpt>
      <trkpt lat="44.93505" lon="4.34763">
        <ele>782.8</ele>
        <time>2026-05-06T07:44:09Z</time>
      </trkpt>
      <trkpt lat="44.93506" lon="4.34759">
        <ele>783.4</ele>
        <time>2026-05-06T07:44:14Z</time>
      </trkpt>
      <trkpt lat="44.93506" lon="4.34759">
        <ele>783.4</ele>
        <time>2026-05-06T07:44:19Z</time>
      </trkpt>
      <trkpt lat="44.93506" lon="4.34759">
        <ele>783.4</ele>
        <time>2026-05-06T07:44:24Z</time>
      </trkpt>
      <trkpt lat="44.93506" lon="4.34759">
        <ele>783.4</ele>
        <time>2026-05-06T07:44:29Z</time>
      </trkpt>
      <trkpt lat="44.93506" lon="4.34759">
        <ele>783.4</ele>
        <time>2026-05-06T07:44:34Z</time>
      </trkpt>
      <trkpt lat="44.93496" lon="4.3476">
        <ele>783.4</ele>
        <time>2026-05-06T07:44:39Z</time>
      </trkpt>
      <trkpt lat="44.93496" lon="4.3476">
        <ele>783.4</ele>
        <time>2026-05-06T07:44:44Z</time>
      </trkpt>
      <trkpt lat="44.93492" lon="4.34753">
        <ele>783.9</ele>
        <time>2026-05-06T07:44:49Z</time>
      </trkpt>
      <trkpt lat="44.93491" lon="4.3475">
        <ele>784.2</ele>
        <time>2026-05-06T07:44:54Z</time>
      </trkpt>
      <trkpt lat="44.93491" lon="4.34747">
        <ele>784.2</ele>
        <time>2026-05-06T07:44:59Z</time>
      </trkpt>
      <trkpt lat="44.93491" lon="4.34747">
        <ele>784.2</ele>
        <time>2026-05-06T07:45:04Z</time>
      </trkpt>
      <trkpt lat="44.93491" lon="4.34747">
        <ele>784.2</ele>
        <time>2026-05-06T07:45:09Z</time>
      </trkpt>
      <trkpt lat="44.93491" lon="4.34747">
        <ele>784.2</ele>
        <time>2026-05-06T07:45:14Z</time>
      </trkpt>
      <trkpt lat="44.93487" lon="4.34734">
        <ele>783.5</ele>
        <time>2026-05-06T07:45:19Z</time>
      </trkpt>
      <trkpt lat="44.93487" lon="4.34734">
        <ele>783.5</ele>
        <time>2026-05-06T07:45:24Z</time>
      </trkpt>
      <trkpt lat="44.93487" lon="4.34734">
        <ele>783.5</ele>
        <time>2026-05-06T07:45:29Z</time>
      </trkpt>
      <trkpt lat="44.93487" lon="4.34734">
        <ele>783.5</ele>
        <time>2026-05-06T07:45:34Z</time>
      </trkpt>
      <trkpt lat="44.93487" lon="4.34734">
        <ele>783.5</ele>
        <time>2026-05-06T07:45:39Z</time>
      </trkpt>
      <trkpt lat="44.93489" lon="4.34719">
        <ele>784.1</ele>
        <time>2026-05-06T07:45:44Z</time>
      </trkpt>
      <trkpt lat="44.93489" lon="4.34719">
        <ele>784.1</ele>
        <time>2026-05-06T07:45:49Z</time>
      </trkpt>
      <trkpt lat="44.93484" lon="4.34713">
        <ele>782.9</ele>
        <time>2026-05-06T07:45:54Z</time>
      </trkpt>
      <trkpt lat="44.93483" lon="4.34709">
        <ele>782.6</ele>
        <time>2026-05-06T07:45:59Z</time>
      </trkpt>
      <trkpt lat="44.93484" lon="4.34705">
        <ele>782.9</ele>
        <time>2026-05-06T07:46:04Z</time>
      </trkpt>
      <trkpt lat="44.93484" lon="4.34701">
        <ele>782.9</ele>
        <time>2026-05-06T07:46:09Z</time>
      </trkpt>
      <trkpt lat="44.93484" lon="4.34697">
        <ele>782.9</ele>
        <time>2026-05-06T07:46:14Z</time>
      </trkpt>
      <trkpt lat="44.93483" lon="4.34692">
        <ele>782.6</ele>
        <time>2026-05-06T07:46:19Z</time>
      </trkpt>
      <trkpt lat="44.93483" lon="4.34687">
        <ele>782.7</ele>
        <time>2026-05-06T07:46:24Z</time>
      </trkpt>
      <trkpt lat="44.93482" lon="4.34685">
        <ele>782.4</ele>
        <time>2026-05-06T07:46:29Z</time>
      </trkpt>
      <trkpt lat="44.93482" lon="4.34685">
        <ele>782.4</ele>
        <time>2026-05-06T07:46:34Z</time>
      </trkpt>
      <trkpt lat="44.93482" lon="4.34685">
        <ele>782.4</ele>
        <time>2026-05-06T07:46:39Z</time>
      </trkpt>
      <trkpt lat="44.93482" lon="4.34685">
        <ele>782.4</ele>
        <time>2026-05-06T07:46:44Z</time>
      </trkpt>
      <trkpt lat="44.93482" lon="4.34685">
        <ele>782.4</ele>
        <time>2026-05-06T07:46:49Z</time>
      </trkpt>
      <trkpt lat="44.93482" lon="4.34685">
        <ele>782.4</ele>
        <time>2026-05-06T07:46:54Z</time>
      </trkpt>
      <trkpt lat="44.93482" lon="4.34685">
        <ele>782.4</ele>
        <time>2026-05-06T07:46:59Z</time>
      </trkpt>
      <trkpt lat="44.93482" lon="4.34685">
        <ele>782.4</ele>
        <time>2026-05-06T07:47:04Z</time>
      </trkpt>
      <trkpt lat="44.93482" lon="4.34685">
        <ele>782.4</ele>
        <time>2026-05-06T07:47:09Z</time>
      </trkpt>
      <trkpt lat="44.93482" lon="4.34685">
        <ele>782.4</ele>
        <time>2026-05-06T07:47:14Z</time>
      </trkpt>
      <trkpt lat="44.93482" lon="4.34685">
        <ele>782.4</ele>
        <time>2026-05-06T07:47:19Z</time>
      </trkpt>
      <trkpt lat="44.93482" lon="4.34685">
        <ele>782.4</ele>
        <time>2026-05-06T07:47:24Z</time>
      </trkpt>
      <trkpt lat="44.93482" lon="4.34685">
        <ele>782.4</ele>
        <time>2026-05-06T07:47:29Z</time>
      </trkpt>
      <trkpt lat="44.93482" lon="4.34685">
        <ele>782.4</ele>
        <time>2026-05-06T07:47:34Z</time>
      </trkpt>
      <trkpt lat="44.93482" lon="4.34685">
        <ele>782.4</ele>
        <time>2026-05-06T07:47:39Z</time>
      </trkpt>
      <trkpt lat="44.93482" lon="4.34685">
        <ele>782.4</ele>
        <time>2026-05-06T07:47:44Z</time>
      </trkpt>
      <trkpt lat="44.93482" lon="4.34685">
        <ele>782.4</ele>
        <time>2026-05-06T07:47:49Z</time>
      </trkpt>
      <trkpt lat="44.93478" lon="4.34675">
        <ele>781.2</ele>
        <time>2026-05-06T07:47:54Z</time>
      </trkpt>
      <trkpt lat="44.93481" lon="4.34667">
        <ele>782.1</ele>
        <time>2026-05-06T07:47:59Z</time>
      </trkpt>
      <trkpt lat="44.93482" lon="4.3466">
        <ele>781.3</ele>
        <time>2026-05-06T07:48:04Z</time>
      </trkpt>
      <trkpt lat="44.93482" lon="4.34656">
        <ele>780.7</ele>
        <time>2026-05-06T07:48:09Z</time>
      </trkpt>
      <trkpt lat="44.93482" lon="4.34651">
        <ele>779.9</ele>
        <time>2026-05-06T07:48:14Z</time>
      </trkpt>
      <trkpt lat="44.93482" lon="4.34649">
        <ele>779.6</ele>
        <time>2026-05-06T07:48:19Z</time>
      </trkpt>
      <trkpt lat="44.93482" lon="4.34649">
        <ele>779.6</ele>
        <time>2026-05-06T07:48:24Z</time>
      </trkpt>
      <trkpt lat="44.93482" lon="4.34649">
        <ele>779.6</ele>
        <time>2026-05-06T07:48:29Z</time>
      </trkpt>
      <trkpt lat="44.93482" lon="4.34649">
        <ele>779.6</ele>
        <time>2026-05-06T07:48:34Z</time>
      </trkpt>
      <trkpt lat="44.93482" lon="4.34635">
        <ele>777.3</ele>
        <time>2026-05-06T07:48:39Z</time>
      </trkpt>
      <trkpt lat="44.93483" lon="4.3463">
        <ele>776.9</ele>
        <time>2026-05-06T07:48:44Z</time>
      </trkpt>
      <trkpt lat="44.93483" lon="4.34625">
        <ele>776.1</ele>
        <time>2026-05-06T07:48:49Z</time>
      </trkpt>
      <trkpt lat="44.93482" lon="4.3462">
        <ele>774.9</ele>
        <time>2026-05-06T07:48:54Z</time>
      </trkpt>
      <trkpt lat="44.9348" lon="4.34614">
        <ele>773.3</ele>
        <time>2026-05-06T07:48:59Z</time>
      </trkpt>
      <trkpt lat="44.9348" lon="4.34607">
        <ele>772.1</ele>
        <time>2026-05-06T07:49:04Z</time>
      </trkpt>
      <trkpt lat="44.93477" lon="4.34601">
        <ele>770.1</ele>
        <time>2026-05-06T07:49:09Z</time>
      </trkpt>
      <trkpt lat="44.93473" lon="4.34597">
        <ele>767.9</ele>
        <time>2026-05-06T07:49:14Z</time>
      </trkpt>
      <trkpt lat="44.9347" lon="4.34589">
        <ele>765.4</ele>
        <time>2026-05-06T07:49:19Z</time>
      </trkpt>
      <trkpt lat="44.93469" lon="4.34582">
        <ele>763.9</ele>
        <time>2026-05-06T07:49:24Z</time>
      </trkpt>
      <trkpt lat="44.93468" lon="4.34576">
        <ele>762.6</ele>
        <time>2026-05-06T07:49:29Z</time>
      </trkpt>
      <trkpt lat="44.9347" lon="4.34574">
        <ele>763.1</ele>
        <time>2026-05-06T07:49:34Z</time>
      </trkpt>
      <trkpt lat="44.9347" lon="4.34574">
        <ele>763.1</ele>
        <time>2026-05-06T07:49:39Z</time>
      </trkpt>
      <trkpt lat="44.9347" lon="4.34574">
        <ele>763.1</ele>
        <time>2026-05-06T07:49:44Z</time>
      </trkpt>
      <trkpt lat="44.9347" lon="4.34574">
        <ele>763.1</ele>
        <time>2026-05-06T07:49:49Z</time>
      </trkpt>
      <trkpt lat="44.9347" lon="4.34574">
        <ele>763.1</ele>
        <time>2026-05-06T07:49:54Z</time>
      </trkpt>
      <trkpt lat="44.9347" lon="4.34574">
        <ele>763.1</ele>
        <time>2026-05-06T07:49:59Z</time>
      </trkpt>
      <trkpt lat="44.93467" lon="4.34565">
        <ele>760.5</ele>
        <time>2026-05-06T07:50:04Z</time>
      </trkpt>
      <trkpt lat="44.93465" lon="4.34558">
        <ele>758.5</ele>
        <time>2026-05-06T07:50:09Z</time>
      </trkpt>
      <trkpt lat="44.93466" lon="4.3455">
        <ele>757.7</ele>
        <time>2026-05-06T07:50:14Z</time>
      </trkpt>
      <trkpt lat="44.93467" lon="4.34545">
        <ele>757.4</ele>
        <time>2026-05-06T07:50:19Z</time>
      </trkpt>
      <trkpt lat="44.93465" lon="4.34543">
        <ele>756.2</ele>
        <time>2026-05-06T07:50:24Z</time>
      </trkpt>
      <trkpt lat="44.93463" lon="4.34545">
        <ele>755.6</ele>
        <time>2026-05-06T07:50:29Z</time>
      </trkpt>
      <trkpt lat="44.93463" lon="4.34545">
        <ele>755.6</ele>
        <time>2026-05-06T07:50:34Z</time>
      </trkpt>
      <trkpt lat="44.93463" lon="4.34545">
        <ele>755.6</ele>
        <time>2026-05-06T07:50:39Z</time>
      </trkpt>
      <trkpt lat="44.93463" lon="4.34545">
        <ele>755.6</ele>
        <time>2026-05-06T07:50:44Z</time>
      </trkpt>
      <trkpt lat="44.93463" lon="4.34546">
        <ele>755.8</ele>
        <time>2026-05-06T07:50:49Z</time>
      </trkpt>
      <trkpt lat="44.93463" lon="4.34545">
        <ele>755.6</ele>
        <time>2026-05-06T07:50:54Z</time>
      </trkpt>
      <trkpt lat="44.93463" lon="4.34545">
        <ele>755.6</ele>
        <time>2026-05-06T07:50:59Z</time>
      </trkpt>
      <trkpt lat="44.93463" lon="4.34545">
        <ele>755.6</ele>
        <time>2026-05-06T07:51:04Z</time>
      </trkpt>
      <trkpt lat="44.93467" lon="4.3454">
        <ele>756.6</ele>
        <time>2026-05-06T07:51:09Z</time>
      </trkpt>
      <trkpt lat="44.93469" lon="4.3453">
        <ele>756</ele>
        <time>2026-05-06T07:51:14Z</time>
      </trkpt>
      <trkpt lat="44.93473" lon="4.34524">
        <ele>756.9</ele>
        <time>2026-05-06T07:51:19Z</time>
      </trkpt>
      <trkpt lat="44.93475" lon="4.34519">
        <ele>757.1</ele>
        <time>2026-05-06T07:51:24Z</time>
      </trkpt>
      <trkpt lat="44.93477" lon="4.34515">
        <ele>757.5</ele>
        <time>2026-05-06T07:51:29Z</time>
      </trkpt>
      <trkpt lat="44.93478" lon="4.34507">
        <ele>756.9</ele>
        <time>2026-05-06T07:51:34Z</time>
      </trkpt>
      <trkpt lat="44.93476" lon="4.34499">
        <ele>754.9</ele>
        <time>2026-05-06T07:51:39Z</time>
      </trkpt>
      <trkpt lat="44.93476" lon="4.34491">
        <ele>755</ele>
        <time>2026-05-06T07:51:44Z</time>
      </trkpt>
      <trkpt lat="44.93474" lon="4.34482">
        <ele>754</ele>
        <time>2026-05-06T07:51:49Z</time>
      </trkpt>
      <trkpt lat="44.93473" lon="4.34474">
        <ele>753.5</ele>
        <time>2026-05-06T07:51:54Z</time>
      </trkpt>
      <trkpt lat="44.93472" lon="4.34466">
        <ele>753</ele>
        <time>2026-05-06T07:51:59Z</time>
      </trkpt>
      <trkpt lat="44.93472" lon="4.34459">
        <ele>753</ele>
        <time>2026-05-06T07:52:04Z</time>
      </trkpt>
      <trkpt lat="44.93473" lon="4.34451">
        <ele>753.6</ele>
        <time>2026-05-06T07:52:09Z</time>
      </trkpt>
      <trkpt lat="44.93471" lon="4.34443">
        <ele>752.6</ele>
        <time>2026-05-06T07:52:14Z</time>
      </trkpt>
      <trkpt lat="44.93471" lon="4.34435">
        <ele>752.6</ele>
        <time>2026-05-06T07:52:19Z</time>
      </trkpt>
      <trkpt lat="44.9347" lon="4.34427">
        <ele>752.1</ele>
        <time>2026-05-06T07:52:24Z</time>
      </trkpt>
      <trkpt lat="44.93469" lon="4.34425">
        <ele>751.5</ele>
        <time>2026-05-06T07:52:29Z</time>
      </trkpt>
      <trkpt lat="44.93469" lon="4.34425">
        <ele>751.5</ele>
        <time>2026-05-06T07:52:34Z</time>
      </trkpt>
      <trkpt lat="44.93469" lon="4.34425">
        <ele>751.5</ele>
        <time>2026-05-06T07:52:39Z</time>
      </trkpt>
      <trkpt lat="44.93469" lon="4.34425">
        <ele>751.5</ele>
        <time>2026-05-06T07:52:44Z</time>
      </trkpt>
      <trkpt lat="44.93469" lon="4.34425">
        <ele>751.5</ele>
        <time>2026-05-06T07:52:49Z</time>
      </trkpt>
      <trkpt lat="44.93469" lon="4.34425">
        <ele>751.5</ele>
        <time>2026-05-06T07:52:54Z</time>
      </trkpt>
      <trkpt lat="44.93469" lon="4.34425">
        <ele>751.5</ele>
        <time>2026-05-06T07:52:59Z</time>
      </trkpt>
      <trkpt lat="44.93469" lon="4.34425">
        <ele>751.5</ele>
        <time>2026-05-06T07:53:04Z</time>
      </trkpt>
      <trkpt lat="44.93469" lon="4.34425">
        <ele>751.5</ele>
        <time>2026-05-06T07:53:09Z</time>
      </trkpt>
      <trkpt lat="44.93469" lon="4.34425">
        <ele>751.5</ele>
        <time>2026-05-06T07:53:14Z</time>
      </trkpt>
      <trkpt lat="44.93469" lon="4.34425">
        <ele>751.5</ele>
        <time>2026-05-06T07:53:19Z</time>
      </trkpt>
      <trkpt lat="44.93463" lon="4.34412">
        <ele>749</ele>
        <time>2026-05-06T07:53:24Z</time>
      </trkpt>
      <trkpt lat="44.93461" lon="4.34404">
        <ele>749.3</ele>
        <time>2026-05-06T07:53:29Z</time>
      </trkpt>
      <trkpt lat="44.9346" lon="4.34395">
        <ele>750.4</ele>
        <time>2026-05-06T07:53:34Z</time>
      </trkpt>
      <trkpt lat="44.93457" lon="4.34388">
        <ele>749.9</ele>
        <time>2026-05-06T07:53:39Z</time>
      </trkpt>
      <trkpt lat="44.93455" lon="4.34379">
        <ele>750.3</ele>
        <time>2026-05-06T07:53:44Z</time>
      </trkpt>
      <trkpt lat="44.93452" lon="4.34371">
        <ele>750</ele>
        <time>2026-05-06T07:53:49Z</time>
      </trkpt>
      <trkpt lat="44.93448" lon="4.34362">
        <ele>749.2</ele>
        <time>2026-05-06T07:53:54Z</time>
      </trkpt>
      <trkpt lat="44.93444" lon="4.34355">
        <ele>748</ele>
        <time>2026-05-06T07:53:59Z</time>
      </trkpt>
      <trkpt lat="44.93443" lon="4.34349">
        <ele>748.4</ele>
        <time>2026-05-06T07:54:04Z</time>
      </trkpt>
      <trkpt lat="44.93441" lon="4.3434">
        <ele>748.8</ele>
        <time>2026-05-06T07:54:09Z</time>
      </trkpt>
      <trkpt lat="44.93439" lon="4.34332">
        <ele>748.9</ele>
        <time>2026-05-06T07:54:14Z</time>
      </trkpt>
      <trkpt lat="44.93437" lon="4.34326">
        <ele>748.6</ele>
        <time>2026-05-06T07:54:19Z</time>
      </trkpt>
      <trkpt lat="44.93433" lon="4.34319">
        <ele>747.3</ele>
        <time>2026-05-06T07:54:24Z</time>
      </trkpt>
      <trkpt lat="44.9343" lon="4.34311">
        <ele>746.9</ele>
        <time>2026-05-06T07:54:29Z</time>
      </trkpt>
      <trkpt lat="44.93429" lon="4.34303">
        <ele>747.6</ele>
        <time>2026-05-06T07:54:34Z</time>
      </trkpt>
      <trkpt lat="44.93427" lon="4.34295">
        <ele>747.8</ele>
        <time>2026-05-06T07:54:39Z</time>
      </trkpt>
      <trkpt lat="44.93426" lon="4.34287">
        <ele>748.6</ele>
        <time>2026-05-06T07:54:44Z</time>
      </trkpt>
      <trkpt lat="44.93426" lon="4.3428">
        <ele>749.8</ele>
        <time>2026-05-06T07:54:49Z</time>
      </trkpt>
      <trkpt lat="44.93425" lon="4.34272">
        <ele>750.6</ele>
        <time>2026-05-06T07:54:54Z</time>
      </trkpt>
      <trkpt lat="44.93424" lon="4.34261">
        <ele>752</ele>
        <time>2026-05-06T07:54:59Z</time>
      </trkpt>
      <trkpt lat="44.93422" lon="4.34249">
        <ele>752.9</ele>
        <time>2026-05-06T07:55:04Z</time>
      </trkpt>
      <trkpt lat="44.93421" lon="4.34239">
        <ele>753.5</ele>
        <time>2026-05-06T07:55:09Z</time>
      </trkpt>
      <trkpt lat="44.93421" lon="4.34231">
        <ele>754.4</ele>
        <time>2026-05-06T07:55:14Z</time>
      </trkpt>
      <trkpt lat="44.93422" lon="4.34223">
        <ele>755.8</ele>
        <time>2026-05-06T07:55:19Z</time>
      </trkpt>
      <trkpt lat="44.93422" lon="4.34215">
        <ele>756.7</ele>
        <time>2026-05-06T07:55:24Z</time>
      </trkpt>
      <trkpt lat="44.93421" lon="4.34206">
        <ele>757.2</ele>
        <time>2026-05-06T07:55:29Z</time>
      </trkpt>
      <trkpt lat="44.93421" lon="4.34199">
        <ele>758</ele>
        <time>2026-05-06T07:55:34Z</time>
      </trkpt>
      <trkpt lat="44.93421" lon="4.34191">
        <ele>758.9</ele>
        <time>2026-05-06T07:55:39Z</time>
      </trkpt>
      <trkpt lat="44.9342" lon="4.34185">
        <ele>759.2</ele>
        <time>2026-05-06T07:55:44Z</time>
      </trkpt>
      <trkpt lat="44.93418" lon="4.34176">
        <ele>759.4</ele>
        <time>2026-05-06T07:55:49Z</time>
      </trkpt>
      <trkpt lat="44.93419" lon="4.34163">
        <ele>761.6</ele>
        <time>2026-05-06T07:55:54Z</time>
      </trkpt>
      <trkpt lat="44.93418" lon="4.34155">
        <ele>762.7</ele>
        <time>2026-05-06T07:55:59Z</time>
      </trkpt>
      <trkpt lat="44.93417" lon="4.34145">
        <ele>764.3</ele>
        <time>2026-05-06T07:56:04Z</time>
      </trkpt>
      <trkpt lat="44.93416" lon="4.34135">
        <ele>765.9</ele>
        <time>2026-05-06T07:56:09Z</time>
      </trkpt>
      <trkpt lat="44.93412" lon="4.34125">
        <ele>766.8</ele>
        <time>2026-05-06T07:56:14Z</time>
      </trkpt>
      <trkpt lat="44.93409" lon="4.34118">
        <ele>767.4</ele>
        <time>2026-05-06T07:56:19Z</time>
      </trkpt>
      <trkpt lat="44.93405" lon="4.34109">
        <ele>768.1</ele>
        <time>2026-05-06T07:56:24Z</time>
      </trkpt>
      <trkpt lat="44.93402" lon="4.34101">
        <ele>768.9</ele>
        <time>2026-05-06T07:56:29Z</time>
      </trkpt>
      <trkpt lat="44.93398" lon="4.34095">
        <ele>769</ele>
        <time>2026-05-06T07:56:34Z</time>
      </trkpt>
      <trkpt lat="44.93395" lon="4.3409">
        <ele>769.2</ele>
        <time>2026-05-06T07:56:39Z</time>
      </trkpt>
      <trkpt lat="44.93394" lon="4.34086">
        <ele>769.8</ele>
        <time>2026-05-06T07:56:44Z</time>
      </trkpt>
      <trkpt lat="44.93391" lon="4.34083">
        <ele>769.6</ele>
        <time>2026-05-06T07:56:49Z</time>
      </trkpt>
      <trkpt lat="44.93388" lon="4.34076">
        <ele>770.1</ele>
        <time>2026-05-06T07:56:54Z</time>
      </trkpt>
      <trkpt lat="44.93386" lon="4.3407">
        <ele>770.8</ele>
        <time>2026-05-06T07:56:59Z</time>
      </trkpt>
      <trkpt lat="44.93384" lon="4.34065">
        <ele>771.3</ele>
        <time>2026-05-06T07:57:04Z</time>
      </trkpt>
      <trkpt lat="44.93383" lon="4.34059">
        <ele>772.2</ele>
        <time>2026-05-06T07:57:09Z</time>
      </trkpt>
      <trkpt lat="44.93381" lon="4.34052">
        <ele>773.1</ele>
        <time>2026-05-06T07:57:14Z</time>
      </trkpt>
      <trkpt lat="44.93379" lon="4.34046">
        <ele>773.9</ele>
        <time>2026-05-06T07:57:19Z</time>
      </trkpt>
      <trkpt lat="44.93376" lon="4.34039">
        <ele>774.7</ele>
        <time>2026-05-06T07:57:24Z</time>
      </trkpt>
      <trkpt lat="44.93373" lon="4.34035">
        <ele>775</ele>
        <time>2026-05-06T07:57:29Z</time>
      </trkpt>
      <trkpt lat="44.93371" lon="4.34031">
        <ele>775.5</ele>
        <time>2026-05-06T07:57:34Z</time>
      </trkpt>
      <trkpt lat="44.9337" lon="4.3403">
        <ele>775.5</ele>
        <time>2026-05-06T07:57:39Z</time>
      </trkpt>
      <trkpt lat="44.93369" lon="4.34026">
        <ele>776.2</ele>
        <time>2026-05-06T07:57:44Z</time>
      </trkpt>
      <trkpt lat="44.93368" lon="4.3402">
        <ele>777.3</ele>
        <time>2026-05-06T07:57:49Z</time>
      </trkpt>
      <trkpt lat="44.93363" lon="4.34014">
        <ele>777.8</ele>
        <time>2026-05-06T07:57:54Z</time>
      </trkpt>
      <trkpt lat="44.93359" lon="4.34009">
        <ele>778.3</ele>
        <time>2026-05-06T07:57:59Z</time>
      </trkpt>
      <trkpt lat="44.93356" lon="4.34003">
        <ele>779.3</ele>
        <time>2026-05-06T07:58:04Z</time>
      </trkpt>
      <trkpt lat="44.93355" lon="4.33997">
        <ele>780</ele>
        <time>2026-05-06T07:58:09Z</time>
      </trkpt>
      <trkpt lat="44.93354" lon="4.33991">
        <ele>780.2</ele>
        <time>2026-05-06T07:58:14Z</time>
      </trkpt>
      <trkpt lat="44.93354" lon="4.33985">
        <ele>780.4</ele>
        <time>2026-05-06T07:58:19Z</time>
      </trkpt>
      <trkpt lat="44.93354" lon="4.33979">
        <ele>780.7</ele>
        <time>2026-05-06T07:58:24Z</time>
      </trkpt>
      <trkpt lat="44.93354" lon="4.33977">
        <ele>780.8</ele>
        <time>2026-05-06T07:58:29Z</time>
      </trkpt>
      <trkpt lat="44.93354" lon="4.33976">
        <ele>780.9</ele>
        <time>2026-05-06T07:58:34Z</time>
      </trkpt>
      <trkpt lat="44.93354" lon="4.33976">
        <ele>780.9</ele>
        <time>2026-05-06T07:58:39Z</time>
      </trkpt>
      <trkpt lat="44.93354" lon="4.33976">
        <ele>780.9</ele>
        <time>2026-05-06T07:58:44Z</time>
      </trkpt>
      <trkpt lat="44.93354" lon="4.33976">
        <ele>780.9</ele>
        <time>2026-05-06T07:58:49Z</time>
      </trkpt>
      <trkpt lat="44.93354" lon="4.33976">
        <ele>780.9</ele>
        <time>2026-05-06T07:58:54Z</time>
      </trkpt>
      <trkpt lat="44.93354" lon="4.33976">
        <ele>780.9</ele>
        <time>2026-05-06T07:58:59Z</time>
      </trkpt>
      <trkpt lat="44.93354" lon="4.33976">
        <ele>780.9</ele>
        <time>2026-05-06T07:59:04Z</time>
      </trkpt>
      <trkpt lat="44.93354" lon="4.33976">
        <ele>780.9</ele>
        <time>2026-05-06T07:59:09Z</time>
      </trkpt>
      <trkpt lat="44.93354" lon="4.33976">
        <ele>780.9</ele>
        <time>2026-05-06T07:59:14Z</time>
      </trkpt>
      <trkpt lat="44.93354" lon="4.33976">
        <ele>780.9</ele>
        <time>2026-05-06T07:59:19Z</time>
      </trkpt>
      <trkpt lat="44.93354" lon="4.33972">
        <ele>781.1</ele>
        <time>2026-05-06T07:59:24Z</time>
      </trkpt>
      <trkpt lat="44.93357" lon="4.33966">
        <ele>781.7</ele>
        <time>2026-05-06T07:59:29Z</time>
      </trkpt>
      <trkpt lat="44.93357" lon="4.33965">
        <ele>781.7</ele>
        <time>2026-05-06T07:59:34Z</time>
      </trkpt>
      <trkpt lat="44.93357" lon="4.33965">
        <ele>781.7</ele>
        <time>2026-05-06T07:59:39Z</time>
      </trkpt>
      <trkpt lat="44.93357" lon="4.33965">
        <ele>781.7</ele>
        <time>2026-05-06T07:59:44Z</time>
      </trkpt>
      <trkpt lat="44.93357" lon="4.33965">
        <ele>781.7</ele>
        <time>2026-05-06T07:59:49Z</time>
      </trkpt>
      <trkpt lat="44.93357" lon="4.33965">
        <ele>781.7</ele>
        <time>2026-05-06T07:59:54Z</time>
      </trkpt>
      <trkpt lat="44.93357" lon="4.33965">
        <ele>781.7</ele>
        <time>2026-05-06T07:59:59Z</time>
      </trkpt>
      <trkpt lat="44.93357" lon="4.33965">
        <ele>781.7</ele>
        <time>2026-05-06T08:00:04Z</time>
      </trkpt>
      <trkpt lat="44.93357" lon="4.33965">
        <ele>781.7</ele>
        <time>2026-05-06T08:00:09Z</time>
      </trkpt>
      <trkpt lat="44.93357" lon="4.33965">
        <ele>781.7</ele>
        <time>2026-05-06T08:00:14Z</time>
      </trkpt>
      <trkpt lat="44.93357" lon="4.33965">
        <ele>781.7</ele>
        <time>2026-05-06T08:00:19Z</time>
      </trkpt>
      <trkpt lat="44.93357" lon="4.33965">
        <ele>781.7</ele>
        <time>2026-05-06T08:00:24Z</time>
      </trkpt>
      <trkpt lat="44.93357" lon="4.33965">
        <ele>781.7</ele>
        <time>2026-05-06T08:00:29Z</time>
      </trkpt>
      <trkpt lat="44.93357" lon="4.33965">
        <ele>781.7</ele>
        <time>2026-05-06T08:00:34Z</time>
      </trkpt>
      <trkpt lat="44.93357" lon="4.33965">
        <ele>781.7</ele>
        <time>2026-05-06T08:00:39Z</time>
      </trkpt>
      <trkpt lat="44.93357" lon="4.33965">
        <ele>781.7</ele>
        <time>2026-05-06T08:00:44Z</time>
      </trkpt>
      <trkpt lat="44.93357" lon="4.33965">
        <ele>781.7</ele>
        <time>2026-05-06T08:00:49Z</time>
      </trkpt>
      <trkpt lat="44.93357" lon="4.33965">
        <ele>781.7</ele>
        <time>2026-05-06T08:00:54Z</time>
      </trkpt>
      <trkpt lat="44.93357" lon="4.33965">
        <ele>781.7</ele>
        <time>2026-05-06T08:00:59Z</time>
      </trkpt>
      <trkpt lat="44.93357" lon="4.33965">
        <ele>781.7</ele>
        <time>2026-05-06T08:01:04Z</time>
      </trkpt>
      <trkpt lat="44.93357" lon="4.33965">
        <ele>781.7</ele>
        <time>2026-05-06T08:01:09Z</time>
      </trkpt>
      <trkpt lat="44.93357" lon="4.33965">
        <ele>781.7</ele>
        <time>2026-05-06T08:01:14Z</time>
      </trkpt>
      <trkpt lat="44.93357" lon="4.33965">
        <ele>781.7</ele>
        <time>2026-05-06T08:01:19Z</time>
      </trkpt>
      <trkpt lat="44.93357" lon="4.33965">
        <ele>781.7</ele>
        <time>2026-05-06T08:01:24Z</time>
      </trkpt>
      <trkpt lat="44.93357" lon="4.33965">
        <ele>781.7</ele>
        <time>2026-05-06T08:01:29Z</time>
      </trkpt>
      <trkpt lat="44.93357" lon="4.33965">
        <ele>781.7</ele>
        <time>2026-05-06T08:01:34Z</time>
      </trkpt>
      <trkpt lat="44.93357" lon="4.33965">
        <ele>781.7</ele>
        <time>2026-05-06T08:01:39Z</time>
      </trkpt>
      <trkpt lat="44.93357" lon="4.33965">
        <ele>781.7</ele>
        <time>2026-05-06T08:01:44Z</time>
      </trkpt>
      <trkpt lat="44.93357" lon="4.33965">
        <ele>781.7</ele>
        <time>2026-05-06T08:01:49Z</time>
      </trkpt>
      <trkpt lat="44.93357" lon="4.33965">
        <ele>781.7</ele>
        <time>2026-05-06T08:01:54Z</time>
      </trkpt>
      <trkpt lat="44.93357" lon="4.33965">
        <ele>781.7</ele>
        <time>2026-05-06T08:01:59Z</time>
      </trkpt>
      <trkpt lat="44.93361" lon="4.33959">
        <ele>782.5</ele>
        <time>2026-05-06T08:02:04Z</time>
      </trkpt>
      <trkpt lat="44.9336" lon="4.33952">
        <ele>782.7</ele>
        <time>2026-05-06T08:02:09Z</time>
      </trkpt>
      <trkpt lat="44.93356" lon="4.33945">
        <ele>782.6</ele>
        <time>2026-05-06T08:02:14Z</time>
      </trkpt>
      <trkpt lat="44.93353" lon="4.33938">
        <ele>782.6</ele>
        <time>2026-05-06T08:02:19Z</time>
      </trkpt>
      <trkpt lat="44.93348" lon="4.3393">
        <ele>782.5</ele>
        <time>2026-05-06T08:02:24Z</time>
      </trkpt>
      <trkpt lat="44.93344" lon="4.33924">
        <ele>782.5</ele>
        <time>2026-05-06T08:02:29Z</time>
      </trkpt>
      <trkpt lat="44.93341" lon="4.33917">
        <ele>782.6</ele>
        <time>2026-05-06T08:02:34Z</time>
      </trkpt>
      <trkpt lat="44.93335" lon="4.33908">
        <ele>782.1</ele>
        <time>2026-05-06T08:02:39Z</time>
      </trkpt>
      <trkpt lat="44.9333" lon="4.339">
        <ele>780.9</ele>
        <time>2026-05-06T08:02:44Z</time>
      </trkpt>
      <trkpt lat="44.93326" lon="4.33892">
        <ele>779.7</ele>
        <time>2026-05-06T08:02:49Z</time>
      </trkpt>
      <trkpt lat="44.93322" lon="4.33886">
        <ele>778.4</ele>
        <time>2026-05-06T08:02:54Z</time>
      </trkpt>
      <trkpt lat="44.93322" lon="4.33886">
        <ele>778.4</ele>
        <time>2026-05-06T08:02:59Z</time>
      </trkpt>
      <trkpt lat="44.93322" lon="4.33886">
        <ele>778.4</ele>
        <time>2026-05-06T08:03:04Z</time>
      </trkpt>
      <trkpt lat="44.93322" lon="4.33886">
        <ele>778.4</ele>
        <time>2026-05-06T08:03:09Z</time>
      </trkpt>
      <trkpt lat="44.93322" lon="4.33886">
        <ele>778.4</ele>
        <time>2026-05-06T08:03:14Z</time>
      </trkpt>
      <trkpt lat="44.93322" lon="4.33886">
        <ele>778.4</ele>
        <time>2026-05-06T08:03:19Z</time>
      </trkpt>
      <trkpt lat="44.93321" lon="4.33883">
        <ele>778.1</ele>
        <time>2026-05-06T08:03:24Z</time>
      </trkpt>
      <trkpt lat="44.93317" lon="4.33875">
        <ele>776.8</ele>
        <time>2026-05-06T08:03:29Z</time>
      </trkpt>
      <trkpt lat="44.93314" lon="4.33867">
        <ele>775.9</ele>
        <time>2026-05-06T08:03:34Z</time>
      </trkpt>
      <trkpt lat="44.9331" lon="4.33857">
        <ele>774.6</ele>
        <time>2026-05-06T08:03:39Z</time>
      </trkpt>
      <trkpt lat="44.93305" lon="4.3385">
        <ele>773.1</ele>
        <time>2026-05-06T08:03:44Z</time>
      </trkpt>
      <trkpt lat="44.93301" lon="4.33842">
        <ele>771.9</ele>
        <time>2026-05-06T08:03:49Z</time>
      </trkpt>
      <trkpt lat="44.93296" lon="4.33831">
        <ele>770.8</ele>
        <time>2026-05-06T08:03:54Z</time>
      </trkpt>
      <trkpt lat="44.93292" lon="4.33822">
        <ele>771.2</ele>
        <time>2026-05-06T08:03:59Z</time>
      </trkpt>
      <trkpt lat="44.93288" lon="4.33814">
        <ele>771.5</ele>
        <time>2026-05-06T08:04:04Z</time>
      </trkpt>
      <trkpt lat="44.93287" lon="4.33806">
        <ele>772.7</ele>
        <time>2026-05-06T08:04:09Z</time>
      </trkpt>
      <trkpt lat="44.93286" lon="4.33799">
        <ele>773.7</ele>
        <time>2026-05-06T08:04:14Z</time>
      </trkpt>
      <trkpt lat="44.93283" lon="4.33793">
        <ele>773.9</ele>
        <time>2026-05-06T08:04:19Z</time>
      </trkpt>
      <trkpt lat="44.93282" lon="4.33788">
        <ele>774.6</ele>
        <time>2026-05-06T08:04:24Z</time>
      </trkpt>
      <trkpt lat="44.93282" lon="4.33781">
        <ele>775.9</ele>
        <time>2026-05-06T08:04:29Z</time>
      </trkpt>
      <trkpt lat="44.9328" lon="4.33774">
        <ele>776.7</ele>
        <time>2026-05-06T08:04:34Z</time>
      </trkpt>
      <trkpt lat="44.93276" lon="4.33768">
        <ele>776.7</ele>
        <time>2026-05-06T08:04:39Z</time>
      </trkpt>
      <trkpt lat="44.93273" lon="4.33761">
        <ele>777.2</ele>
        <time>2026-05-06T08:04:44Z</time>
      </trkpt>
      <trkpt lat="44.93272" lon="4.33754">
        <ele>778.3</ele>
        <time>2026-05-06T08:04:49Z</time>
      </trkpt>
      <trkpt lat="44.93271" lon="4.33747">
        <ele>779.4</ele>
        <time>2026-05-06T08:04:54Z</time>
      </trkpt>
      <trkpt lat="44.9327" lon="4.33741">
        <ele>780.5</ele>
        <time>2026-05-06T08:04:59Z</time>
      </trkpt>
      <trkpt lat="44.9327" lon="4.33734">
        <ele>782</ele>
        <time>2026-05-06T08:05:04Z</time>
      </trkpt>
      <trkpt lat="44.93269" lon="4.33727">
        <ele>783.3</ele>
        <time>2026-05-06T08:05:09Z</time>
      </trkpt>
      <trkpt lat="44.93268" lon="4.33723">
        <ele>783.9</ele>
        <time>2026-05-06T08:05:14Z</time>
      </trkpt>
      <trkpt lat="44.93267" lon="4.33719">
        <ele>784.5</ele>
        <time>2026-05-06T08:05:19Z</time>
      </trkpt>
      <trkpt lat="44.93266" lon="4.33714">
        <ele>785.4</ele>
        <time>2026-05-06T08:05:24Z</time>
      </trkpt>
      <trkpt lat="44.93264" lon="4.3371">
        <ele>785.8</ele>
        <time>2026-05-06T08:05:29Z</time>
      </trkpt>
      <trkpt lat="44.93263" lon="4.33708">
        <ele>786</ele>
        <time>2026-05-06T08:05:34Z</time>
      </trkpt>
      <trkpt lat="44.93262" lon="4.33703">
        <ele>786.9</ele>
        <time>2026-05-06T08:05:39Z</time>
      </trkpt>
      <trkpt lat="44.93262" lon="4.33699">
        <ele>787.8</ele>
        <time>2026-05-06T08:05:44Z</time>
      </trkpt>
      <trkpt lat="44.93262" lon="4.33697">
        <ele>788.3</ele>
        <time>2026-05-06T08:05:49Z</time>
      </trkpt>
      <trkpt lat="44.93262" lon="4.33697">
        <ele>788.3</ele>
        <time>2026-05-06T08:05:54Z</time>
      </trkpt>
      <trkpt lat="44.93262" lon="4.33697">
        <ele>788.3</ele>
        <time>2026-05-06T08:05:59Z</time>
      </trkpt>
      <trkpt lat="44.93262" lon="4.33697">
        <ele>788.3</ele>
        <time>2026-05-06T08:06:04Z</time>
      </trkpt>
      <trkpt lat="44.93262" lon="4.33697">
        <ele>788.3</ele>
        <time>2026-05-06T08:06:09Z</time>
      </trkpt>
      <trkpt lat="44.93262" lon="4.33697">
        <ele>788.3</ele>
        <time>2026-05-06T08:06:14Z</time>
      </trkpt>
      <trkpt lat="44.93258" lon="4.33684">
        <ele>790.4</ele>
        <time>2026-05-06T08:06:19Z</time>
      </trkpt>
      <trkpt lat="44.93258" lon="4.33684">
        <ele>790.4</ele>
        <time>2026-05-06T08:06:24Z</time>
      </trkpt>
      <trkpt lat="44.93258" lon="4.33684">
        <ele>790.4</ele>
        <time>2026-05-06T08:06:29Z</time>
      </trkpt>
      <trkpt lat="44.93258" lon="4.33684">
        <ele>790.4</ele>
        <time>2026-05-06T08:06:34Z</time>
      </trkpt>
      <trkpt lat="44.93258" lon="4.33684">
        <ele>790.4</ele>
        <time>2026-05-06T08:06:39Z</time>
      </trkpt>
      <trkpt lat="44.93255" lon="4.33671">
        <ele>792.9</ele>
        <time>2026-05-06T08:06:44Z</time>
      </trkpt>
      <trkpt lat="44.93257" lon="4.33668">
        <ele>794</ele>
        <time>2026-05-06T08:06:49Z</time>
      </trkpt>
      <trkpt lat="44.9326" lon="4.33666">
        <ele>794.9</ele>
        <time>2026-05-06T08:06:54Z</time>
      </trkpt>
      <trkpt lat="44.9326" lon="4.33662">
        <ele>795.6</ele>
        <time>2026-05-06T08:06:59Z</time>
      </trkpt>
      <trkpt lat="44.93255" lon="4.3366">
        <ele>795.1</ele>
        <time>2026-05-06T08:07:04Z</time>
      </trkpt>
      <trkpt lat="44.93253" lon="4.33657">
        <ele>795.2</ele>
        <time>2026-05-06T08:07:09Z</time>
      </trkpt>
      <trkpt lat="44.93252" lon="4.33654">
        <ele>795.6</ele>
        <time>2026-05-06T08:07:14Z</time>
      </trkpt>
      <trkpt lat="44.9325" lon="4.33651">
        <ele>795.8</ele>
        <time>2026-05-06T08:07:19Z</time>
      </trkpt>
      <trkpt lat="44.9325" lon="4.33647">
        <ele>796.5</ele>
        <time>2026-05-06T08:07:24Z</time>
      </trkpt>
      <trkpt lat="44.9325" lon="4.33646">
        <ele>796.7</ele>
        <time>2026-05-06T08:07:29Z</time>
      </trkpt>
      <trkpt lat="44.9325" lon="4.33646">
        <ele>796.7</ele>
        <time>2026-05-06T08:07:34Z</time>
      </trkpt>
      <trkpt lat="44.93246" lon="4.33634">
        <ele>797.7</ele>
        <time>2026-05-06T08:07:39Z</time>
      </trkpt>
      <trkpt lat="44.93245" lon="4.33633">
        <ele>797.6</ele>
        <time>2026-05-06T08:07:44Z</time>
      </trkpt>
      <trkpt lat="44.93245" lon="4.33633">
        <ele>797.6</ele>
        <time>2026-05-06T08:07:49Z</time>
      </trkpt>
      <trkpt lat="44.93245" lon="4.33633">
        <ele>797.6</ele>
        <time>2026-05-06T08:07:54Z</time>
      </trkpt>
      <trkpt lat="44.93238" lon="4.33624">
        <ele>797</ele>
        <time>2026-05-06T08:07:59Z</time>
      </trkpt>
      <trkpt lat="44.93238" lon="4.33623">
        <ele>797.1</ele>
        <time>2026-05-06T08:08:04Z</time>
      </trkpt>
      <trkpt lat="44.93236" lon="4.33618">
        <ele>797.3</ele>
        <time>2026-05-06T08:08:09Z</time>
      </trkpt>
      <trkpt lat="44.93232" lon="4.33615">
        <ele>796.4</ele>
        <time>2026-05-06T08:08:14Z</time>
      </trkpt>
      <trkpt lat="44.9323" lon="4.33614">
        <ele>795.9</ele>
        <time>2026-05-06T08:08:19Z</time>
      </trkpt>
      <trkpt lat="44.93228" lon="4.33614">
        <ele>795.2</ele>
        <time>2026-05-06T08:08:24Z</time>
      </trkpt>
      <trkpt lat="44.93227" lon="4.33613">
        <ele>795</ele>
        <time>2026-05-06T08:08:29Z</time>
      </trkpt>
      <trkpt lat="44.93227" lon="4.33613">
        <ele>795</ele>
        <time>2026-05-06T08:08:34Z</time>
      </trkpt>
      <trkpt lat="44.93227" lon="4.33613">
        <ele>795</ele>
        <time>2026-05-06T08:08:39Z</time>
      </trkpt>
      <trkpt lat="44.93225" lon="4.33616">
        <ele>794</ele>
        <time>2026-05-06T08:08:44Z</time>
      </trkpt>
      <trkpt lat="44.9322" lon="4.33612">
        <ele>792.8</ele>
        <time>2026-05-06T08:08:49Z</time>
      </trkpt>
      <trkpt lat="44.93216" lon="4.33609">
        <ele>791.8</ele>
        <time>2026-05-06T08:08:54Z</time>
      </trkpt>
      <trkpt lat="44.93213" lon="4.33607">
        <ele>791</ele>
        <time>2026-05-06T08:08:59Z</time>
      </trkpt>
      <trkpt lat="44.93209" lon="4.33604">
        <ele>789.9</ele>
        <time>2026-05-06T08:09:04Z</time>
      </trkpt>
      <trkpt lat="44.93208" lon="4.33603">
        <ele>789.6</ele>
        <time>2026-05-06T08:09:09Z</time>
      </trkpt>
      <trkpt lat="44.93208" lon="4.33602">
        <ele>789.7</ele>
        <time>2026-05-06T08:09:14Z</time>
      </trkpt>
      <trkpt lat="44.93208" lon="4.33602">
        <ele>789.7</ele>
        <time>2026-05-06T08:09:19Z</time>
      </trkpt>
      <trkpt lat="44.93208" lon="4.33602">
        <ele>789.7</ele>
        <time>2026-05-06T08:09:24Z</time>
      </trkpt>
      <trkpt lat="44.93208" lon="4.33602">
        <ele>789.7</ele>
        <time>2026-05-06T08:09:29Z</time>
      </trkpt>
      <trkpt lat="44.93208" lon="4.33602">
        <ele>789.7</ele>
        <time>2026-05-06T08:09:34Z</time>
      </trkpt>
      <trkpt lat="44.93208" lon="4.33602">
        <ele>789.7</ele>
        <time>2026-05-06T08:09:39Z</time>
      </trkpt>
      <trkpt lat="44.93208" lon="4.33602">
        <ele>789.7</ele>
        <time>2026-05-06T08:09:44Z</time>
      </trkpt>
      <trkpt lat="44.93208" lon="4.33602">
        <ele>789.7</ele>
        <time>2026-05-06T08:09:49Z</time>
      </trkpt>
      <trkpt lat="44.93208" lon="4.33602">
        <ele>789.7</ele>
        <time>2026-05-06T08:09:54Z</time>
      </trkpt>
      <trkpt lat="44.93208" lon="4.33602">
        <ele>789.7</ele>
        <time>2026-05-06T08:09:59Z</time>
      </trkpt>
      <trkpt lat="44.93208" lon="4.33602">
        <ele>789.7</ele>
        <time>2026-05-06T08:10:04Z</time>
      </trkpt>
      <trkpt lat="44.93208" lon="4.33602">
        <ele>789.7</ele>
        <time>2026-05-06T08:10:09Z</time>
      </trkpt>
      <trkpt lat="44.93208" lon="4.33602">
        <ele>789.7</ele>
        <time>2026-05-06T08:10:14Z</time>
      </trkpt>
      <trkpt lat="44.93208" lon="4.33602">
        <ele>789.7</ele>
        <time>2026-05-06T08:10:19Z</time>
      </trkpt>
      <trkpt lat="44.93208" lon="4.33602">
        <ele>789.7</ele>
        <time>2026-05-06T08:10:24Z</time>
      </trkpt>
      <trkpt lat="44.93208" lon="4.33602">
        <ele>789.7</ele>
        <time>2026-05-06T08:10:29Z</time>
      </trkpt>
      <trkpt lat="44.93208" lon="4.33602">
        <ele>789.7</ele>
        <time>2026-05-06T08:10:34Z</time>
      </trkpt>
      <trkpt lat="44.93208" lon="4.33602">
        <ele>789.7</ele>
        <time>2026-05-06T08:10:39Z</time>
      </trkpt>
      <trkpt lat="44.93208" lon="4.33602">
        <ele>789.7</ele>
        <time>2026-05-06T08:10:44Z</time>
      </trkpt>
      <trkpt lat="44.93208" lon="4.33602">
        <ele>789.7</ele>
        <time>2026-05-06T08:10:49Z</time>
      </trkpt>
      <trkpt lat="44.93208" lon="4.33602">
        <ele>789.7</ele>
        <time>2026-05-06T08:10:54Z</time>
      </trkpt>
      <trkpt lat="44.93208" lon="4.33602">
        <ele>789.7</ele>
        <time>2026-05-06T08:10:59Z</time>
      </trkpt>
      <trkpt lat="44.93208" lon="4.33602">
        <ele>789.7</ele>
        <time>2026-05-06T08:11:04Z</time>
      </trkpt>
      <trkpt lat="44.93208" lon="4.33602">
        <ele>789.7</ele>
        <time>2026-05-06T08:11:09Z</time>
      </trkpt>
      <trkpt lat="44.93208" lon="4.33602">
        <ele>789.7</ele>
        <time>2026-05-06T08:11:14Z</time>
      </trkpt>
      <trkpt lat="44.93208" lon="4.33602">
        <ele>789.7</ele>
        <time>2026-05-06T08:11:19Z</time>
      </trkpt>
      <trkpt lat="44.93208" lon="4.33602">
        <ele>789.7</ele>
        <time>2026-05-06T08:11:24Z</time>
      </trkpt>
      <trkpt lat="44.93208" lon="4.33602">
        <ele>789.7</ele>
        <time>2026-05-06T08:11:29Z</time>
      </trkpt>
      <trkpt lat="44.93208" lon="4.33602">
        <ele>789.7</ele>
        <time>2026-05-06T08:11:34Z</time>
      </trkpt>
      <trkpt lat="44.93208" lon="4.33602">
        <ele>789.7</ele>
        <time>2026-05-06T08:11:39Z</time>
      </trkpt>
      <trkpt lat="44.93208" lon="4.33602">
        <ele>789.7</ele>
        <time>2026-05-06T08:11:44Z</time>
      </trkpt>
      <trkpt lat="44.93208" lon="4.33602">
        <ele>789.7</ele>
        <time>2026-05-06T08:11:49Z</time>
      </trkpt>
      <trkpt lat="44.93208" lon="4.33602">
        <ele>789.7</ele>
        <time>2026-05-06T08:11:54Z</time>
      </trkpt>
      <trkpt lat="44.93208" lon="4.33602">
        <ele>789.7</ele>
        <time>2026-05-06T08:11:59Z</time>
      </trkpt>
      <trkpt lat="44.93208" lon="4.33602">
        <ele>789.7</ele>
        <time>2026-05-06T08:12:04Z</time>
      </trkpt>
      <trkpt lat="44.93208" lon="4.33602">
        <ele>789.7</ele>
        <time>2026-05-06T08:12:09Z</time>
      </trkpt>
      <trkpt lat="44.93208" lon="4.33602">
        <ele>789.7</ele>
        <time>2026-05-06T08:12:14Z</time>
      </trkpt>
      <trkpt lat="44.93208" lon="4.33602">
        <ele>789.7</ele>
        <time>2026-05-06T08:12:19Z</time>
      </trkpt>
      <trkpt lat="44.93208" lon="4.33602">
        <ele>789.7</ele>
        <time>2026-05-06T08:12:24Z</time>
      </trkpt>
      <trkpt lat="44.93208" lon="4.33602">
        <ele>789.7</ele>
        <time>2026-05-06T08:12:29Z</time>
      </trkpt>
      <trkpt lat="44.93208" lon="4.33602">
        <ele>789.7</ele>
        <time>2026-05-06T08:12:34Z</time>
      </trkpt>
      <trkpt lat="44.93208" lon="4.33602">
        <ele>789.7</ele>
        <time>2026-05-06T08:12:39Z</time>
      </trkpt>
      <trkpt lat="44.93208" lon="4.33602">
        <ele>789.7</ele>
        <time>2026-05-06T08:12:44Z</time>
      </trkpt>
      <trkpt lat="44.93208" lon="4.33602">
        <ele>789.7</ele>
        <time>2026-05-06T08:12:49Z</time>
      </trkpt>
      <trkpt lat="44.93208" lon="4.33602">
        <ele>789.7</ele>
        <time>2026-05-06T08:12:54Z</time>
      </trkpt>
      <trkpt lat="44.93208" lon="4.33602">
        <ele>789.7</ele>
        <time>2026-05-06T08:12:59Z</time>
      </trkpt>
      <trkpt lat="44.93208" lon="4.33602">
        <ele>789.7</ele>
        <time>2026-05-06T08:13:04Z</time>
      </trkpt>
      <trkpt lat="44.93208" lon="4.33602">
        <ele>789.7</ele>
        <time>2026-05-06T08:13:09Z</time>
      </trkpt>
      <trkpt lat="44.93208" lon="4.33602">
        <ele>789.7</ele>
        <time>2026-05-06T08:13:14Z</time>
      </trkpt>
      <trkpt lat="44.93208" lon="4.33602">
        <ele>789.7</ele>
        <time>2026-05-06T08:13:19Z</time>
      </trkpt>
      <trkpt lat="44.93208" lon="4.33602">
        <ele>789.7</ele>
        <time>2026-05-06T08:13:24Z</time>
      </trkpt>
      <trkpt lat="44.93208" lon="4.33602">
        <ele>789.7</ele>
        <time>2026-05-06T08:13:29Z</time>
      </trkpt>
      <trkpt lat="44.93205" lon="4.33589">
        <ele>789.7</ele>
        <time>2026-05-06T08:13:34Z</time>
      </trkpt>
      <trkpt lat="44.93205" lon="4.33582">
        <ele>790.2</ele>
        <time>2026-05-06T08:13:39Z</time>
      </trkpt>
      <trkpt lat="44.93207" lon="4.33573">
        <ele>791.2</ele>
        <time>2026-05-06T08:13:44Z</time>
      </trkpt>
      <trkpt lat="44.93208" lon="4.33565">
        <ele>791.7</ele>
        <time>2026-05-06T08:13:49Z</time>
      </trkpt>
      <trkpt lat="44.93207" lon="4.33556">
        <ele>791.4</ele>
        <time>2026-05-06T08:13:54Z</time>
      </trkpt>
      <trkpt lat="44.93206" lon="4.33546">
        <ele>791.2</ele>
        <time>2026-05-06T08:13:59Z</time>
      </trkpt>
      <trkpt lat="44.93204" lon="4.33537">
        <ele>790.5</ele>
        <time>2026-05-06T08:14:04Z</time>
      </trkpt>
      <trkpt lat="44.93202" lon="4.33526">
        <ele>789.9</ele>
        <time>2026-05-06T08:14:09Z</time>
      </trkpt>
      <trkpt lat="44.932" lon="4.33517">
        <ele>789.2</ele>
        <time>2026-05-06T08:14:14Z</time>
      </trkpt>
      <trkpt lat="44.93199" lon="4.33513">
        <ele>788.8</ele>
        <time>2026-05-06T08:14:19Z</time>
      </trkpt>
      <trkpt lat="44.93199" lon="4.33513">
        <ele>788.8</ele>
        <time>2026-05-06T08:14:24Z</time>
      </trkpt>
      <trkpt lat="44.93199" lon="4.33513">
        <ele>788.8</ele>
        <time>2026-05-06T08:14:29Z</time>
      </trkpt>
      <trkpt lat="44.93199" lon="4.33513">
        <ele>788.8</ele>
        <time>2026-05-06T08:14:34Z</time>
      </trkpt>
      <trkpt lat="44.93199" lon="4.33513">
        <ele>788.8</ele>
        <time>2026-05-06T08:14:39Z</time>
      </trkpt>
      <trkpt lat="44.93199" lon="4.33513">
        <ele>788.8</ele>
        <time>2026-05-06T08:14:44Z</time>
      </trkpt>
      <trkpt lat="44.93199" lon="4.33513">
        <ele>788.8</ele>
        <time>2026-05-06T08:14:49Z</time>
      </trkpt>
      <trkpt lat="44.93199" lon="4.33513">
        <ele>788.8</ele>
        <time>2026-05-06T08:14:54Z</time>
      </trkpt>
      <trkpt lat="44.93199" lon="4.33513">
        <ele>788.8</ele>
        <time>2026-05-06T08:14:59Z</time>
      </trkpt>
      <trkpt lat="44.93199" lon="4.33513">
        <ele>788.8</ele>
        <time>2026-05-06T08:15:04Z</time>
      </trkpt>
      <trkpt lat="44.93199" lon="4.33513">
        <ele>788.8</ele>
        <time>2026-05-06T08:15:09Z</time>
      </trkpt>
      <trkpt lat="44.93199" lon="4.33513">
        <ele>788.8</ele>
        <time>2026-05-06T08:15:14Z</time>
      </trkpt>
      <trkpt lat="44.93199" lon="4.33513">
        <ele>788.8</ele>
        <time>2026-05-06T08:15:19Z</time>
      </trkpt>
      <trkpt lat="44.93199" lon="4.33513">
        <ele>788.8</ele>
        <time>2026-05-06T08:15:24Z</time>
      </trkpt>
      <trkpt lat="44.93199" lon="4.33504">
        <ele>788.9</ele>
        <time>2026-05-06T08:15:29Z</time>
      </trkpt>
      <trkpt lat="44.93197" lon="4.33495">
        <ele>788.4</ele>
        <time>2026-05-06T08:15:34Z</time>
      </trkpt>
      <trkpt lat="44.93194" lon="4.33488">
        <ele>787.5</ele>
        <time>2026-05-06T08:15:39Z</time>
      </trkpt>
      <trkpt lat="44.93192" lon="4.33476">
        <ele>787.3</ele>
        <time>2026-05-06T08:15:44Z</time>
      </trkpt>
      <trkpt lat="44.93191" lon="4.33465">
        <ele>787.4</ele>
        <time>2026-05-06T08:15:49Z</time>
      </trkpt>
      <trkpt lat="44.93188" lon="4.33457">
        <ele>786.5</ele>
        <time>2026-05-06T08:15:54Z</time>
      </trkpt>
      <trkpt lat="44.93186" lon="4.33448">
        <ele>786.1</ele>
        <time>2026-05-06T08:15:59Z</time>
      </trkpt>
      <trkpt lat="44.93184" lon="4.33437">
        <ele>785.8</ele>
        <time>2026-05-06T08:16:04Z</time>
      </trkpt>
      <trkpt lat="44.93184" lon="4.33428">
        <ele>786.3</ele>
        <time>2026-05-06T08:16:09Z</time>
      </trkpt>
      <trkpt lat="44.93182" lon="4.33418">
        <ele>785.9</ele>
        <time>2026-05-06T08:16:14Z</time>
      </trkpt>
      <trkpt lat="44.93181" lon="4.33409">
        <ele>786</ele>
        <time>2026-05-06T08:16:19Z</time>
      </trkpt>
      <trkpt lat="44.9318" lon="4.334">
        <ele>786.1</ele>
        <time>2026-05-06T08:16:24Z</time>
      </trkpt>
      <trkpt lat="44.93179" lon="4.33389">
        <ele>786.4</ele>
        <time>2026-05-06T08:16:29Z</time>
      </trkpt>
      <trkpt lat="44.93179" lon="4.33385">
        <ele>786.6</ele>
        <time>2026-05-06T08:16:34Z</time>
      </trkpt>
      <trkpt lat="44.93177" lon="4.33381">
        <ele>786</ele>
        <time>2026-05-06T08:16:39Z</time>
      </trkpt>
      <trkpt lat="44.93174" lon="4.33372">
        <ele>785.3</ele>
        <time>2026-05-06T08:16:44Z</time>
      </trkpt>
      <trkpt lat="44.93172" lon="4.33364">
        <ele>785</ele>
        <time>2026-05-06T08:16:49Z</time>
      </trkpt>
      <trkpt lat="44.93169" lon="4.33354">
        <ele>784.5</ele>
        <time>2026-05-06T08:16:54Z</time>
      </trkpt>
      <trkpt lat="44.93167" lon="4.33345">
        <ele>784.3</ele>
        <time>2026-05-06T08:16:59Z</time>
      </trkpt>
      <trkpt lat="44.93166" lon="4.33336">
        <ele>784.5</ele>
        <time>2026-05-06T08:17:04Z</time>
      </trkpt>
      <trkpt lat="44.93163" lon="4.33327">
        <ele>783.6</ele>
        <time>2026-05-06T08:17:09Z</time>
      </trkpt>
      <trkpt lat="44.93162" lon="4.33316">
        <ele>783.6</ele>
        <time>2026-05-06T08:17:14Z</time>
      </trkpt>
      <trkpt lat="44.93159" lon="4.33305">
        <ele>782.8</ele>
        <time>2026-05-06T08:17:19Z</time>
      </trkpt>
      <trkpt lat="44.93156" lon="4.33296">
        <ele>781.9</ele>
        <time>2026-05-06T08:17:24Z</time>
      </trkpt>
      <trkpt lat="44.93156" lon="4.33286">
        <ele>782.3</ele>
        <time>2026-05-06T08:17:29Z</time>
      </trkpt>
      <trkpt lat="44.93154" lon="4.33278">
        <ele>781.9</ele>
        <time>2026-05-06T08:17:34Z</time>
      </trkpt>
      <trkpt lat="44.93153" lon="4.33271">
        <ele>781.8</ele>
        <time>2026-05-06T08:17:39Z</time>
      </trkpt>
      <trkpt lat="44.93151" lon="4.33264">
        <ele>781.3</ele>
        <time>2026-05-06T08:17:44Z</time>
      </trkpt>
      <trkpt lat="44.9315" lon="4.33256">
        <ele>781.3</ele>
        <time>2026-05-06T08:17:49Z</time>
      </trkpt>
      <trkpt lat="44.93148" lon="4.33247">
        <ele>781.2</ele>
        <time>2026-05-06T08:17:54Z</time>
      </trkpt>
      <trkpt lat="44.93146" lon="4.33238">
        <ele>781.6</ele>
        <time>2026-05-06T08:17:59Z</time>
      </trkpt>
      <trkpt lat="44.93145" lon="4.33229">
        <ele>782.4</ele>
        <time>2026-05-06T08:18:04Z</time>
      </trkpt>
      <trkpt lat="44.93142" lon="4.33222">
        <ele>782.1</ele>
        <time>2026-05-06T08:18:09Z</time>
      </trkpt>
      <trkpt lat="44.93139" lon="4.33211">
        <ele>782.2</ele>
        <time>2026-05-06T08:18:14Z</time>
      </trkpt>
      <trkpt lat="44.93136" lon="4.33202">
        <ele>782.1</ele>
        <time>2026-05-06T08:18:19Z</time>
      </trkpt>
      <trkpt lat="44.93134" lon="4.33193">
        <ele>782.3</ele>
        <time>2026-05-06T08:18:24Z</time>
      </trkpt>
      <trkpt lat="44.93133" lon="4.33188">
        <ele>782.5</ele>
        <time>2026-05-06T08:18:29Z</time>
      </trkpt>
      <trkpt lat="44.93132" lon="4.33183">
        <ele>782.7</ele>
        <time>2026-05-06T08:18:34Z</time>
      </trkpt>
      <trkpt lat="44.9313" lon="4.33177">
        <ele>782.5</ele>
        <time>2026-05-06T08:18:39Z</time>
      </trkpt>
      <trkpt lat="44.93129" lon="4.3317">
        <ele>782.9</ele>
        <time>2026-05-06T08:18:44Z</time>
      </trkpt>
      <trkpt lat="44.93126" lon="4.33161">
        <ele>782.8</ele>
        <time>2026-05-06T08:18:49Z</time>
      </trkpt>
      <trkpt lat="44.93123" lon="4.33152">
        <ele>782.9</ele>
        <time>2026-05-06T08:18:54Z</time>
      </trkpt>
      <trkpt lat="44.93122" lon="4.33144">
        <ele>783.8</ele>
        <time>2026-05-06T08:18:59Z</time>
      </trkpt>
      <trkpt lat="44.93123" lon="4.33136">
        <ele>785.5</ele>
        <time>2026-05-06T08:19:04Z</time>
      </trkpt>
      <trkpt lat="44.93121" lon="4.33128">
        <ele>785.9</ele>
        <time>2026-05-06T08:19:09Z</time>
      </trkpt>
      <trkpt lat="44.93117" lon="4.3312">
        <ele>785.7</ele>
        <time>2026-05-06T08:19:14Z</time>
      </trkpt>
      <trkpt lat="44.93112" lon="4.33112">
        <ele>785.1</ele>
        <time>2026-05-06T08:19:19Z</time>
      </trkpt>
      <trkpt lat="44.93107" lon="4.33104">
        <ele>784.6</ele>
        <time>2026-05-06T08:19:24Z</time>
      </trkpt>
      <trkpt lat="44.93103" lon="4.33096">
        <ele>784.5</ele>
        <time>2026-05-06T08:19:29Z</time>
      </trkpt>
      <trkpt lat="44.931" lon="4.33088">
        <ele>784.9</ele>
        <time>2026-05-06T08:19:34Z</time>
      </trkpt>
      <trkpt lat="44.93101" lon="4.33085">
        <ele>785.8</ele>
        <time>2026-05-06T08:19:39Z</time>
      </trkpt>
      <trkpt lat="44.93101" lon="4.33085">
        <ele>785.8</ele>
        <time>2026-05-06T08:19:44Z</time>
      </trkpt>
      <trkpt lat="44.93101" lon="4.33085">
        <ele>785.8</ele>
        <time>2026-05-06T08:19:49Z</time>
      </trkpt>
      <trkpt lat="44.93101" lon="4.33085">
        <ele>785.8</ele>
        <time>2026-05-06T08:19:54Z</time>
      </trkpt>
      <trkpt lat="44.93101" lon="4.33085">
        <ele>785.8</ele>
        <time>2026-05-06T08:19:59Z</time>
      </trkpt>
      <trkpt lat="44.93096" lon="4.33078">
        <ele>785.4</ele>
        <time>2026-05-06T08:20:04Z</time>
      </trkpt>
      <trkpt lat="44.93096" lon="4.33077">
        <ele>785.6</ele>
        <time>2026-05-06T08:20:09Z</time>
      </trkpt>
      <trkpt lat="44.93096" lon="4.33075">
        <ele>786</ele>
        <time>2026-05-06T08:20:14Z</time>
      </trkpt>
      <trkpt lat="44.93092" lon="4.33069">
        <ele>785.7</ele>
        <time>2026-05-06T08:20:19Z</time>
      </trkpt>
      <trkpt lat="44.93087" lon="4.33065">
        <ele>784.8</ele>
        <time>2026-05-06T08:20:24Z</time>
      </trkpt>
      <trkpt lat="44.93081" lon="4.33058">
        <ele>784.3</ele>
        <time>2026-05-06T08:20:29Z</time>
      </trkpt>
      <trkpt lat="44.93077" lon="4.33051">
        <ele>784.8</ele>
        <time>2026-05-06T08:20:34Z</time>
      </trkpt>
      <trkpt lat="44.93072" lon="4.33045">
        <ele>784.9</ele>
        <time>2026-05-06T08:20:39Z</time>
      </trkpt>
      <trkpt lat="44.93068" lon="4.33039">
        <ele>785.2</ele>
        <time>2026-05-06T08:20:44Z</time>
      </trkpt>
      <trkpt lat="44.93065" lon="4.33034">
        <ele>785.6</ele>
        <time>2026-05-06T08:20:49Z</time>
      </trkpt>
      <trkpt lat="44.9306" lon="4.33027">
        <ele>785.9</ele>
        <time>2026-05-06T08:20:54Z</time>
      </trkpt>
      <trkpt lat="44.93054" lon="4.33021">
        <ele>785.8</ele>
        <time>2026-05-06T08:20:59Z</time>
      </trkpt>
      <trkpt lat="44.93048" lon="4.33015">
        <ele>785.8</ele>
        <time>2026-05-06T08:21:04Z</time>
      </trkpt>
      <trkpt lat="44.93043" lon="4.3301">
        <ele>785.7</ele>
        <time>2026-05-06T08:21:09Z</time>
      </trkpt>
      <trkpt lat="44.93039" lon="4.33004">
        <ele>786.1</ele>
        <time>2026-05-06T08:21:14Z</time>
      </trkpt>
      <trkpt lat="44.93034" lon="4.33001">
        <ele>785.7</ele>
        <time>2026-05-06T08:21:19Z</time>
      </trkpt>
      <trkpt lat="44.93027" lon="4.32995">
        <ele>785.3</ele>
        <time>2026-05-06T08:21:24Z</time>
      </trkpt>
      <trkpt lat="44.93021" lon="4.32988">
        <ele>785.2</ele>
        <time>2026-05-06T08:21:29Z</time>
      </trkpt>
      <trkpt lat="44.93015" lon="4.32981">
        <ele>785.2</ele>
        <time>2026-05-06T08:21:34Z</time>
      </trkpt>
      <trkpt lat="44.9301" lon="4.32975">
        <ele>785.3</ele>
        <time>2026-05-06T08:21:39Z</time>
      </trkpt>
      <trkpt lat="44.93005" lon="4.3297">
        <ele>785.2</ele>
        <time>2026-05-06T08:21:44Z</time>
      </trkpt>
      <trkpt lat="44.92999" lon="4.32963">
        <ele>785.6</ele>
        <time>2026-05-06T08:21:49Z</time>
      </trkpt>
      <trkpt lat="44.92993" lon="4.32956">
        <ele>786.5</ele>
        <time>2026-05-06T08:21:54Z</time>
      </trkpt>
      <trkpt lat="44.92988" lon="4.32949">
        <ele>787.5</ele>
        <time>2026-05-06T08:21:59Z</time>
      </trkpt>
      <trkpt lat="44.92983" lon="4.3294">
        <ele>789</ele>
        <time>2026-05-06T08:22:04Z</time>
      </trkpt>
      <trkpt lat="44.92978" lon="4.32933">
        <ele>790.1</ele>
        <time>2026-05-06T08:22:09Z</time>
      </trkpt>
      <trkpt lat="44.92975" lon="4.32926">
        <ele>791.3</ele>
        <time>2026-05-06T08:22:14Z</time>
      </trkpt>
      <trkpt lat="44.92971" lon="4.3292">
        <ele>792.3</ele>
        <time>2026-05-06T08:22:19Z</time>
      </trkpt>
      <trkpt lat="44.92968" lon="4.32913">
        <ele>793.2</ele>
        <time>2026-05-06T08:22:24Z</time>
      </trkpt>
      <trkpt lat="44.92963" lon="4.32907">
        <ele>793.6</ele>
        <time>2026-05-06T08:22:29Z</time>
      </trkpt>
      <trkpt lat="44.92958" lon="4.329">
        <ele>794.2</ele>
        <time>2026-05-06T08:22:34Z</time>
      </trkpt>
      <trkpt lat="44.92952" lon="4.32898">
        <ele>794.4</ele>
        <time>2026-05-06T08:22:39Z</time>
      </trkpt>
      <trkpt lat="44.92946" lon="4.32892">
        <ele>795.1</ele>
        <time>2026-05-06T08:22:44Z</time>
      </trkpt>
      <trkpt lat="44.92941" lon="4.32888">
        <ele>795.7</ele>
        <time>2026-05-06T08:22:49Z</time>
      </trkpt>
      <trkpt lat="44.9294" lon="4.32882">
        <ele>796.6</ele>
        <time>2026-05-06T08:22:54Z</time>
      </trkpt>
      <trkpt lat="44.9294" lon="4.32879">
        <ele>797</ele>
        <time>2026-05-06T08:22:59Z</time>
      </trkpt>
      <trkpt lat="44.9294" lon="4.32878">
        <ele>797.1</ele>
        <time>2026-05-06T08:23:04Z</time>
      </trkpt>
      <trkpt lat="44.9294" lon="4.32878">
        <ele>797.1</ele>
        <time>2026-05-06T08:23:09Z</time>
      </trkpt>
      <trkpt lat="44.92938" lon="4.32874">
        <ele>797.7</ele>
        <time>2026-05-06T08:23:14Z</time>
      </trkpt>
      <trkpt lat="44.92935" lon="4.32868">
        <ele>798.7</ele>
        <time>2026-05-06T08:23:19Z</time>
      </trkpt>
      <trkpt lat="44.92936" lon="4.32866">
        <ele>799</ele>
        <time>2026-05-06T08:23:24Z</time>
      </trkpt>
      <trkpt lat="44.92936" lon="4.32865">
        <ele>799.1</ele>
        <time>2026-05-06T08:23:29Z</time>
      </trkpt>
      <trkpt lat="44.92936" lon="4.32865">
        <ele>799.1</ele>
        <time>2026-05-06T08:23:34Z</time>
      </trkpt>
      <trkpt lat="44.92936" lon="4.32865">
        <ele>799.1</ele>
        <time>2026-05-06T08:23:39Z</time>
      </trkpt>
      <trkpt lat="44.92936" lon="4.32865">
        <ele>799.1</ele>
        <time>2026-05-06T08:23:44Z</time>
      </trkpt>
      <trkpt lat="44.92936" lon="4.32865">
        <ele>799.1</ele>
        <time>2026-05-06T08:23:49Z</time>
      </trkpt>
      <trkpt lat="44.92936" lon="4.32865">
        <ele>799.1</ele>
        <time>2026-05-06T08:23:54Z</time>
      </trkpt>
      <trkpt lat="44.92936" lon="4.32865">
        <ele>799.1</ele>
        <time>2026-05-06T08:23:59Z</time>
      </trkpt>
      <trkpt lat="44.92936" lon="4.32865">
        <ele>799.1</ele>
        <time>2026-05-06T08:24:04Z</time>
      </trkpt>
      <trkpt lat="44.92936" lon="4.32865">
        <ele>799.1</ele>
        <time>2026-05-06T08:24:09Z</time>
      </trkpt>
      <trkpt lat="44.92936" lon="4.32865">
        <ele>799.1</ele>
        <time>2026-05-06T08:24:14Z</time>
      </trkpt>
      <trkpt lat="44.92926" lon="4.32857">
        <ele>801</ele>
        <time>2026-05-06T08:24:19Z</time>
      </trkpt>
      <trkpt lat="44.92925" lon="4.32852">
        <ele>801.9</ele>
        <time>2026-05-06T08:24:24Z</time>
      </trkpt>
      <trkpt lat="44.92922" lon="4.32848">
        <ele>802.9</ele>
        <time>2026-05-06T08:24:29Z</time>
      </trkpt>
      <trkpt lat="44.92918" lon="4.32843">
        <ele>804.1</ele>
        <time>2026-05-06T08:24:34Z</time>
      </trkpt>
      <trkpt lat="44.92913" lon="4.32837">
        <ele>805.3</ele>
        <time>2026-05-06T08:24:39Z</time>
      </trkpt>
      <trkpt lat="44.92907" lon="4.32831">
        <ele>806</ele>
        <time>2026-05-06T08:24:44Z</time>
      </trkpt>
      <trkpt lat="44.92903" lon="4.32825">
        <ele>806.2</ele>
        <time>2026-05-06T08:24:49Z</time>
      </trkpt>
      <trkpt lat="44.92897" lon="4.32818">
        <ele>806.7</ele>
        <time>2026-05-06T08:24:54Z</time>
      </trkpt>
      <trkpt lat="44.92891" lon="4.3281">
        <ele>807.4</ele>
        <time>2026-05-06T08:24:59Z</time>
      </trkpt>
      <trkpt lat="44.92886" lon="4.32806">
        <ele>808</ele>
        <time>2026-05-06T08:25:04Z</time>
      </trkpt>
      <trkpt lat="44.92879" lon="4.32804">
        <ele>808.6</ele>
        <time>2026-05-06T08:25:09Z</time>
      </trkpt>
      <trkpt lat="44.92872" lon="4.328">
        <ele>809.5</ele>
        <time>2026-05-06T08:25:14Z</time>
      </trkpt>
      <trkpt lat="44.92865" lon="4.32796">
        <ele>810.5</ele>
        <time>2026-05-06T08:25:19Z</time>
      </trkpt>
      <trkpt lat="44.9286" lon="4.32791">
        <ele>811.7</ele>
        <time>2026-05-06T08:25:24Z</time>
      </trkpt>
      <trkpt lat="44.92856" lon="4.32785">
        <ele>813</ele>
        <time>2026-05-06T08:25:29Z</time>
      </trkpt>
      <trkpt lat="44.92852" lon="4.32777">
        <ele>814.8</ele>
        <time>2026-05-06T08:25:34Z</time>
      </trkpt>
      <trkpt lat="44.92849" lon="4.32768">
        <ele>816.8</ele>
        <time>2026-05-06T08:25:39Z</time>
      </trkpt>
      <trkpt lat="44.92843" lon="4.32761">
        <ele>819</ele>
        <time>2026-05-06T08:25:44Z</time>
      </trkpt>
      <trkpt lat="44.92838" lon="4.32752">
        <ele>821.7</ele>
        <time>2026-05-06T08:25:49Z</time>
      </trkpt>
      <trkpt lat="44.92833" lon="4.32744">
        <ele>823.1</ele>
        <time>2026-05-06T08:25:54Z</time>
      </trkpt>
      <trkpt lat="44.92828" lon="4.32737">
        <ele>823.9</ele>
        <time>2026-05-06T08:25:59Z</time>
      </trkpt>
      <trkpt lat="44.92823" lon="4.32733">
        <ele>824.7</ele>
        <time>2026-05-06T08:26:04Z</time>
      </trkpt>
      <trkpt lat="44.92819" lon="4.32729">
        <ele>825.4</ele>
        <time>2026-05-06T08:26:09Z</time>
      </trkpt>
      <trkpt lat="44.92819" lon="4.32729">
        <ele>825.4</ele>
        <time>2026-05-06T08:26:14Z</time>
      </trkpt>
      <trkpt lat="44.92819" lon="4.32729">
        <ele>825.4</ele>
        <time>2026-05-06T08:26:19Z</time>
      </trkpt>
      <trkpt lat="44.92817" lon="4.32728">
        <ele>825.8</ele>
        <time>2026-05-06T08:26:24Z</time>
      </trkpt>
      <trkpt lat="44.92812" lon="4.32723">
        <ele>826.8</ele>
        <time>2026-05-06T08:26:29Z</time>
      </trkpt>
      <trkpt lat="44.9281" lon="4.32719">
        <ele>827.4</ele>
        <time>2026-05-06T08:26:34Z</time>
      </trkpt>
      <trkpt lat="44.92807" lon="4.32715">
        <ele>828.1</ele>
        <time>2026-05-06T08:26:39Z</time>
      </trkpt>
      <trkpt lat="44.92803" lon="4.32711">
        <ele>829.1</ele>
        <time>2026-05-06T08:26:44Z</time>
      </trkpt>
      <trkpt lat="44.92799" lon="4.32707">
        <ele>830.2</ele>
        <time>2026-05-06T08:26:49Z</time>
      </trkpt>
      <trkpt lat="44.92797" lon="4.32703">
        <ele>830.9</ele>
        <time>2026-05-06T08:26:54Z</time>
      </trkpt>
      <trkpt lat="44.92795" lon="4.327">
        <ele>831.6</ele>
        <time>2026-05-06T08:26:59Z</time>
      </trkpt>
      <trkpt lat="44.92794" lon="4.32698">
        <ele>832</ele>
        <time>2026-05-06T08:27:04Z</time>
      </trkpt>
      <trkpt lat="44.92792" lon="4.32696">
        <ele>832.6</ele>
        <time>2026-05-06T08:27:09Z</time>
      </trkpt>
      <trkpt lat="44.92786" lon="4.32694">
        <ele>834.1</ele>
        <time>2026-05-06T08:27:14Z</time>
      </trkpt>
      <trkpt lat="44.92783" lon="4.32691">
        <ele>835.1</ele>
        <time>2026-05-06T08:27:19Z</time>
      </trkpt>
      <trkpt lat="44.9278" lon="4.32689">
        <ele>836.1</ele>
        <time>2026-05-06T08:27:24Z</time>
      </trkpt>
      <trkpt lat="44.9278" lon="4.32689">
        <ele>836.1</ele>
        <time>2026-05-06T08:27:29Z</time>
      </trkpt>
      <trkpt lat="44.9278" lon="4.32689">
        <ele>836.1</ele>
        <time>2026-05-06T08:27:34Z</time>
      </trkpt>
      <trkpt lat="44.92772" lon="4.32681">
        <ele>839</ele>
        <time>2026-05-06T08:27:39Z</time>
      </trkpt>
      <trkpt lat="44.92769" lon="4.32677">
        <ele>840.3</ele>
        <time>2026-05-06T08:27:44Z</time>
      </trkpt>
      <trkpt lat="44.92769" lon="4.32674">
        <ele>840.7</ele>
        <time>2026-05-06T08:27:49Z</time>
      </trkpt>
      <trkpt lat="44.92768" lon="4.32672">
        <ele>841.3</ele>
        <time>2026-05-06T08:27:54Z</time>
      </trkpt>
      <trkpt lat="44.92768" lon="4.32672">
        <ele>841.3</ele>
        <time>2026-05-06T08:27:59Z</time>
      </trkpt>
      <trkpt lat="44.92768" lon="4.32672">
        <ele>841.3</ele>
        <time>2026-05-06T08:28:04Z</time>
      </trkpt>
      <trkpt lat="44.9276" lon="4.32661">
        <ele>844.1</ele>
        <time>2026-05-06T08:28:09Z</time>
      </trkpt>
      <trkpt lat="44.92758" lon="4.32658">
        <ele>844.6</ele>
        <time>2026-05-06T08:28:14Z</time>
      </trkpt>
      <trkpt lat="44.92757" lon="4.32657">
        <ele>844.9</ele>
        <time>2026-05-06T08:28:19Z</time>
      </trkpt>
      <trkpt lat="44.92753" lon="4.3265">
        <ele>845.9</ele>
        <time>2026-05-06T08:28:24Z</time>
      </trkpt>
      <trkpt lat="44.92751" lon="4.32647">
        <ele>846.5</ele>
        <time>2026-05-06T08:28:29Z</time>
      </trkpt>
      <trkpt lat="44.92749" lon="4.32647">
        <ele>847.1</ele>
        <time>2026-05-06T08:28:34Z</time>
      </trkpt>
      <trkpt lat="44.92749" lon="4.32647">
        <ele>847.1</ele>
        <time>2026-05-06T08:28:39Z</time>
      </trkpt>
      <trkpt lat="44.92749" lon="4.32647">
        <ele>847.1</ele>
        <time>2026-05-06T08:28:44Z</time>
      </trkpt>
      <trkpt lat="44.92749" lon="4.32647">
        <ele>847.1</ele>
        <time>2026-05-06T08:28:49Z</time>
      </trkpt>
      <trkpt lat="44.92742" lon="4.32636">
        <ele>848.9</ele>
        <time>2026-05-06T08:28:54Z</time>
      </trkpt>
      <trkpt lat="44.92742" lon="4.32636">
        <ele>848.9</ele>
        <time>2026-05-06T08:28:59Z</time>
      </trkpt>
      <trkpt lat="44.92733" lon="4.3263">
        <ele>851.5</ele>
        <time>2026-05-06T08:29:04Z</time>
      </trkpt>
      <trkpt lat="44.92729" lon="4.32626">
        <ele>852.6</ele>
        <time>2026-05-06T08:29:09Z</time>
      </trkpt>
      <trkpt lat="44.92727" lon="4.32623">
        <ele>853.1</ele>
        <time>2026-05-06T08:29:14Z</time>
      </trkpt>
      <trkpt lat="44.92725" lon="4.3262">
        <ele>853.6</ele>
        <time>2026-05-06T08:29:19Z</time>
      </trkpt>
      <trkpt lat="44.92722" lon="4.32617">
        <ele>854.5</ele>
        <time>2026-05-06T08:29:24Z</time>
      </trkpt>
      <trkpt lat="44.9272" lon="4.32614">
        <ele>855</ele>
        <time>2026-05-06T08:29:29Z</time>
      </trkpt>
      <trkpt lat="44.92717" lon="4.32609">
        <ele>855.8</ele>
        <time>2026-05-06T08:29:34Z</time>
      </trkpt>
      <trkpt lat="44.92716" lon="4.32607">
        <ele>856.1</ele>
        <time>2026-05-06T08:29:39Z</time>
      </trkpt>
      <trkpt lat="44.92713" lon="4.32602">
        <ele>856.9</ele>
        <time>2026-05-06T08:29:44Z</time>
      </trkpt>
      <trkpt lat="44.9271" lon="4.32598">
        <ele>857.7</ele>
        <time>2026-05-06T08:29:49Z</time>
      </trkpt>
      <trkpt lat="44.92707" lon="4.32594">
        <ele>858.5</ele>
        <time>2026-05-06T08:29:54Z</time>
      </trkpt>
      <trkpt lat="44.92705" lon="4.3259">
        <ele>859</ele>
        <time>2026-05-06T08:29:59Z</time>
      </trkpt>
      <trkpt lat="44.92703" lon="4.32585">
        <ele>859.6</ele>
        <time>2026-05-06T08:30:04Z</time>
      </trkpt>
      <trkpt lat="44.92703" lon="4.3258">
        <ele>859.4</ele>
        <time>2026-05-06T08:30:09Z</time>
      </trkpt>
      <trkpt lat="44.92699" lon="4.32577">
        <ele>860.4</ele>
        <time>2026-05-06T08:30:14Z</time>
      </trkpt>
      <trkpt lat="44.92697" lon="4.32573">
        <ele>860.8</ele>
        <time>2026-05-06T08:30:19Z</time>
      </trkpt>
      <trkpt lat="44.92696" lon="4.32571">
        <ele>861</ele>
        <time>2026-05-06T08:30:24Z</time>
      </trkpt>
      <trkpt lat="44.92696" lon="4.32571">
        <ele>861</ele>
        <time>2026-05-06T08:30:29Z</time>
      </trkpt>
      <trkpt lat="44.92696" lon="4.32571">
        <ele>861</ele>
        <time>2026-05-06T08:30:34Z</time>
      </trkpt>
      <trkpt lat="44.92696" lon="4.32571">
        <ele>861</ele>
        <time>2026-05-06T08:30:39Z</time>
      </trkpt>
      <trkpt lat="44.92696" lon="4.32571">
        <ele>861</ele>
        <time>2026-05-06T08:30:44Z</time>
      </trkpt>
      <trkpt lat="44.9269" lon="4.32566">
        <ele>862.4</ele>
        <time>2026-05-06T08:30:49Z</time>
      </trkpt>
      <trkpt lat="44.92687" lon="4.3256">
        <ele>863</ele>
        <time>2026-05-06T08:30:54Z</time>
      </trkpt>
      <trkpt lat="44.92684" lon="4.32557">
        <ele>863.7</ele>
        <time>2026-05-06T08:30:59Z</time>
      </trkpt>
      <trkpt lat="44.92681" lon="4.32555">
        <ele>864.5</ele>
        <time>2026-05-06T08:31:04Z</time>
      </trkpt>
      <trkpt lat="44.92677" lon="4.32552">
        <ele>865.5</ele>
        <time>2026-05-06T08:31:09Z</time>
      </trkpt>
      <trkpt lat="44.92675" lon="4.32547">
        <ele>865.9</ele>
        <time>2026-05-06T08:31:14Z</time>
      </trkpt>
      <trkpt lat="44.92673" lon="4.32545">
        <ele>866.3</ele>
        <time>2026-05-06T08:31:19Z</time>
      </trkpt>
      <trkpt lat="44.92672" lon="4.32545">
        <ele>866.6</ele>
        <time>2026-05-06T08:31:24Z</time>
      </trkpt>
      <trkpt lat="44.92672" lon="4.32545">
        <ele>866.6</ele>
        <time>2026-05-06T08:31:29Z</time>
      </trkpt>
      <trkpt lat="44.92672" lon="4.32545">
        <ele>866.6</ele>
        <time>2026-05-06T08:31:34Z</time>
      </trkpt>
      <trkpt lat="44.92664" lon="4.32537">
        <ele>867.9</ele>
        <time>2026-05-06T08:31:39Z</time>
      </trkpt>
      <trkpt lat="44.92659" lon="4.32536">
        <ele>868.1</ele>
        <time>2026-05-06T08:31:44Z</time>
      </trkpt>
      <trkpt lat="44.92655" lon="4.32533">
        <ele>868.2</ele>
        <time>2026-05-06T08:31:49Z</time>
      </trkpt>
      <trkpt lat="44.92651" lon="4.3253">
        <ele>868.3</ele>
        <time>2026-05-06T08:31:54Z</time>
      </trkpt>
      <trkpt lat="44.92647" lon="4.32528">
        <ele>868.4</ele>
        <time>2026-05-06T08:31:59Z</time>
      </trkpt>
      <trkpt lat="44.92643" lon="4.32524">
        <ele>868.5</ele>
        <time>2026-05-06T08:32:04Z</time>
      </trkpt>
      <trkpt lat="44.9264" lon="4.3252">
        <ele>868.6</ele>
        <time>2026-05-06T08:32:09Z</time>
      </trkpt>
      <trkpt lat="44.92637" lon="4.32517">
        <ele>868.7</ele>
        <time>2026-05-06T08:32:14Z</time>
      </trkpt>
      <trkpt lat="44.92635" lon="4.32516">
        <ele>868.8</ele>
        <time>2026-05-06T08:32:19Z</time>
      </trkpt>
      <trkpt lat="44.92633" lon="4.32511">
        <ele>868.7</ele>
        <time>2026-05-06T08:32:24Z</time>
      </trkpt>
      <trkpt lat="44.9263" lon="4.32508">
        <ele>868.9</ele>
        <time>2026-05-06T08:32:29Z</time>
      </trkpt>
      <trkpt lat="44.92627" lon="4.32504">
        <ele>869</ele>
        <time>2026-05-06T08:32:34Z</time>
      </trkpt>
      <trkpt lat="44.92626" lon="4.32501">
        <ele>869</ele>
        <time>2026-05-06T08:32:39Z</time>
      </trkpt>
      <trkpt lat="44.92623" lon="4.32495">
        <ele>869.3</ele>
        <time>2026-05-06T08:32:44Z</time>
      </trkpt>
      <trkpt lat="44.92622" lon="4.32491">
        <ele>869.5</ele>
        <time>2026-05-06T08:32:49Z</time>
      </trkpt>
      <trkpt lat="44.9262" lon="4.32488">
        <ele>869.8</ele>
        <time>2026-05-06T08:32:54Z</time>
      </trkpt>
      <trkpt lat="44.92619" lon="4.32485">
        <ele>870</ele>
        <time>2026-05-06T08:32:59Z</time>
      </trkpt>
      <trkpt lat="44.92618" lon="4.32482">
        <ele>870.2</ele>
        <time>2026-05-06T08:33:04Z</time>
      </trkpt>
      <trkpt lat="44.92618" lon="4.32482">
        <ele>870.2</ele>
        <time>2026-05-06T08:33:09Z</time>
      </trkpt>
      <trkpt lat="44.92618" lon="4.32482">
        <ele>870.2</ele>
        <time>2026-05-06T08:33:14Z</time>
      </trkpt>
      <trkpt lat="44.92618" lon="4.32482">
        <ele>870.2</ele>
        <time>2026-05-06T08:33:19Z</time>
      </trkpt>
      <trkpt lat="44.92618" lon="4.32482">
        <ele>870.2</ele>
        <time>2026-05-06T08:33:24Z</time>
      </trkpt>
      <trkpt lat="44.92618" lon="4.32482">
        <ele>870.2</ele>
        <time>2026-05-06T08:33:29Z</time>
      </trkpt>
      <trkpt lat="44.92618" lon="4.32482">
        <ele>870.2</ele>
        <time>2026-05-06T08:33:34Z</time>
      </trkpt>
      <trkpt lat="44.92618" lon="4.32482">
        <ele>870.2</ele>
        <time>2026-05-06T08:33:39Z</time>
      </trkpt>
      <trkpt lat="44.92618" lon="4.32482">
        <ele>870.2</ele>
        <time>2026-05-06T08:33:44Z</time>
      </trkpt>
      <trkpt lat="44.92618" lon="4.32482">
        <ele>870.2</ele>
        <time>2026-05-06T08:33:49Z</time>
      </trkpt>
      <trkpt lat="44.92618" lon="4.32482">
        <ele>870.2</ele>
        <time>2026-05-06T08:33:54Z</time>
      </trkpt>
      <trkpt lat="44.92618" lon="4.32474">
        <ele>870.4</ele>
        <time>2026-05-06T08:33:59Z</time>
      </trkpt>
      <trkpt lat="44.92616" lon="4.32473">
        <ele>870.6</ele>
        <time>2026-05-06T08:34:04Z</time>
      </trkpt>
      <trkpt lat="44.92616" lon="4.32471">
        <ele>870.7</ele>
        <time>2026-05-06T08:34:09Z</time>
      </trkpt>
      <trkpt lat="44.92616" lon="4.32471">
        <ele>870.7</ele>
        <time>2026-05-06T08:34:14Z</time>
      </trkpt>
      <trkpt lat="44.92616" lon="4.32471">
        <ele>870.7</ele>
        <time>2026-05-06T08:34:19Z</time>
      </trkpt>
      <trkpt lat="44.92614" lon="4.32458">
        <ele>871.3</ele>
        <time>2026-05-06T08:34:24Z</time>
      </trkpt>
      <trkpt lat="44.92613" lon="4.32454">
        <ele>871.5</ele>
        <time>2026-05-06T08:34:29Z</time>
      </trkpt>
      <trkpt lat="44.92612" lon="4.32453">
        <ele>871.6</ele>
        <time>2026-05-06T08:34:34Z</time>
      </trkpt>
      <trkpt lat="44.92612" lon="4.32449">
        <ele>871.8</ele>
        <time>2026-05-06T08:34:39Z</time>
      </trkpt>
      <trkpt lat="44.92612" lon="4.32449">
        <ele>871.8</ele>
        <time>2026-05-06T08:34:44Z</time>
      </trkpt>
      <trkpt lat="44.92611" lon="4.32443">
        <ele>872.1</ele>
        <time>2026-05-06T08:34:49Z</time>
      </trkpt>
      <trkpt lat="44.92612" lon="4.32438">
        <ele>872.2</ele>
        <time>2026-05-06T08:34:54Z</time>
      </trkpt>
      <trkpt lat="44.92613" lon="4.32435">
        <ele>872.2</ele>
        <time>2026-05-06T08:34:59Z</time>
      </trkpt>
      <trkpt lat="44.92613" lon="4.32431">
        <ele>872.3</ele>
        <time>2026-05-06T08:35:04Z</time>
      </trkpt>
      <trkpt lat="44.92614" lon="4.32426">
        <ele>872.5</ele>
        <time>2026-05-06T08:35:09Z</time>
      </trkpt>
      <trkpt lat="44.92615" lon="4.32421">
        <ele>872.6</ele>
        <time>2026-05-06T08:35:14Z</time>
      </trkpt>
      <trkpt lat="44.92616" lon="4.32418">
        <ele>872.6</ele>
        <time>2026-05-06T08:35:19Z</time>
      </trkpt>
      <trkpt lat="44.92617" lon="4.32416">
        <ele>872.6</ele>
        <time>2026-05-06T08:35:24Z</time>
      </trkpt>
      <trkpt lat="44.92617" lon="4.32416">
        <ele>872.6</ele>
        <time>2026-05-06T08:35:29Z</time>
      </trkpt>
      <trkpt lat="44.92617" lon="4.32416">
        <ele>872.6</ele>
        <time>2026-05-06T08:35:34Z</time>
      </trkpt>
      <trkpt lat="44.92621" lon="4.32405">
        <ele>872.1</ele>
        <time>2026-05-06T08:35:39Z</time>
      </trkpt>
      <trkpt lat="44.92623" lon="4.32401">
        <ele>871.9</ele>
        <time>2026-05-06T08:35:44Z</time>
      </trkpt>
      <trkpt lat="44.92624" lon="4.32397">
        <ele>871.7</ele>
        <time>2026-05-06T08:35:49Z</time>
      </trkpt>
      <trkpt lat="44.92625" lon="4.32394">
        <ele>871.6</ele>
        <time>2026-05-06T08:35:54Z</time>
      </trkpt>
      <trkpt lat="44.92625" lon="4.32394">
        <ele>871.6</ele>
        <time>2026-05-06T08:35:59Z</time>
      </trkpt>
      <trkpt lat="44.92625" lon="4.32394">
        <ele>871.6</ele>
        <time>2026-05-06T08:36:04Z</time>
      </trkpt>
      <trkpt lat="44.92628" lon="4.32385">
        <ele>871.2</ele>
        <time>2026-05-06T08:36:09Z</time>
      </trkpt>
      <trkpt lat="44.92628" lon="4.32381">
        <ele>871.1</ele>
        <time>2026-05-06T08:36:14Z</time>
      </trkpt>
      <trkpt lat="44.92628" lon="4.32378">
        <ele>871</ele>
        <time>2026-05-06T08:36:19Z</time>
      </trkpt>
      <trkpt lat="44.92629" lon="4.32376">
        <ele>870.9</ele>
        <time>2026-05-06T08:36:24Z</time>
      </trkpt>
      <trkpt lat="44.92629" lon="4.32372">
        <ele>870.8</ele>
        <time>2026-05-06T08:36:29Z</time>
      </trkpt>
      <trkpt lat="44.92629" lon="4.3237">
        <ele>870.8</ele>
        <time>2026-05-06T08:36:34Z</time>
      </trkpt>
      <trkpt lat="44.92624" lon="4.32367">
        <ele>871.2</ele>
        <time>2026-05-06T08:36:39Z</time>
      </trkpt>
      <trkpt lat="44.92619" lon="4.32369">
        <ele>871.7</ele>
        <time>2026-05-06T08:36:44Z</time>
      </trkpt>
      <trkpt lat="44.92615" lon="4.32373">
        <ele>872.1</ele>
        <time>2026-05-06T08:36:49Z</time>
      </trkpt>
      <trkpt lat="44.92611" lon="4.32377">
        <ele>872.5</ele>
        <time>2026-05-06T08:36:54Z</time>
      </trkpt>
      <trkpt lat="44.92606" lon="4.32382">
        <ele>873</ele>
        <time>2026-05-06T08:36:59Z</time>
      </trkpt>
      <trkpt lat="44.92601" lon="4.32385">
        <ele>873.5</ele>
        <time>2026-05-06T08:37:04Z</time>
      </trkpt>
      <trkpt lat="44.92596" lon="4.32387">
        <ele>873.9</ele>
        <time>2026-05-06T08:37:09Z</time>
      </trkpt>
      <trkpt lat="44.92594" lon="4.32391">
        <ele>874.1</ele>
        <time>2026-05-06T08:37:14Z</time>
      </trkpt>
      <trkpt lat="44.92588" lon="4.32391">
        <ele>874.6</ele>
        <time>2026-05-06T08:37:19Z</time>
      </trkpt>
      <trkpt lat="44.92584" lon="4.32393">
        <ele>874.9</ele>
        <time>2026-05-06T08:37:24Z</time>
      </trkpt>
      <trkpt lat="44.92584" lon="4.32394">
        <ele>874.9</ele>
        <time>2026-05-06T08:37:29Z</time>
      </trkpt>
      <trkpt lat="44.9258" lon="4.32396">
        <ele>874.9</ele>
        <time>2026-05-06T08:37:34Z</time>
      </trkpt>
      <trkpt lat="44.92573" lon="4.32397">
        <ele>874.8</ele>
        <time>2026-05-06T08:37:39Z</time>
      </trkpt>
      <trkpt lat="44.92566" lon="4.32397">
        <ele>874.7</ele>
        <time>2026-05-06T08:37:44Z</time>
      </trkpt>
      <trkpt lat="44.92559" lon="4.32397">
        <ele>874.6</ele>
        <time>2026-05-06T08:37:49Z</time>
      </trkpt>
      <trkpt lat="44.92551" lon="4.32395">
        <ele>874.6</ele>
        <time>2026-05-06T08:37:54Z</time>
      </trkpt>
      <trkpt lat="44.92545" lon="4.32393">
        <ele>874.6</ele>
        <time>2026-05-06T08:37:59Z</time>
      </trkpt>
      <trkpt lat="44.92539" lon="4.3239">
        <ele>874.7</ele>
        <time>2026-05-06T08:38:04Z</time>
      </trkpt>
      <trkpt lat="44.92533" lon="4.32386">
        <ele>875</ele>
        <time>2026-05-06T08:38:09Z</time>
      </trkpt>
      <trkpt lat="44.92528" lon="4.3238">
        <ele>875.6</ele>
        <time>2026-05-06T08:38:14Z</time>
      </trkpt>
      <trkpt lat="44.92523" lon="4.32376">
        <ele>876</ele>
        <time>2026-05-06T08:38:19Z</time>
      </trkpt>
      <trkpt lat="44.92522" lon="4.32376">
        <ele>876</ele>
        <time>2026-05-06T08:38:24Z</time>
      </trkpt>
      <trkpt lat="44.92523" lon="4.32374">
        <ele>876.2</ele>
        <time>2026-05-06T08:38:29Z</time>
      </trkpt>
      <trkpt lat="44.92519" lon="4.32368">
        <ele>876.9</ele>
        <time>2026-05-06T08:38:34Z</time>
      </trkpt>
      <trkpt lat="44.92516" lon="4.32362">
        <ele>877.6</ele>
        <time>2026-05-06T08:38:39Z</time>
      </trkpt>
      <trkpt lat="44.92514" lon="4.32354">
        <ele>878.6</ele>
        <time>2026-05-06T08:38:44Z</time>
      </trkpt>
      <trkpt lat="44.92512" lon="4.32351">
        <ele>879</ele>
        <time>2026-05-06T08:38:49Z</time>
      </trkpt>
      <trkpt lat="44.9251" lon="4.32345">
        <ele>879.8</ele>
        <time>2026-05-06T08:38:54Z</time>
      </trkpt>
      <trkpt lat="44.92507" lon="4.32338">
        <ele>880.8</ele>
        <time>2026-05-06T08:38:59Z</time>
      </trkpt>
      <trkpt lat="44.92504" lon="4.32332">
        <ele>881.8</ele>
        <time>2026-05-06T08:39:04Z</time>
      </trkpt>
      <trkpt lat="44.92502" lon="4.32326">
        <ele>882.6</ele>
        <time>2026-05-06T08:39:09Z</time>
      </trkpt>
      <trkpt lat="44.92499" lon="4.32319">
        <ele>883.4</ele>
        <time>2026-05-06T08:39:14Z</time>
      </trkpt>
      <trkpt lat="44.92496" lon="4.32314">
        <ele>883.5</ele>
        <time>2026-05-06T08:39:19Z</time>
      </trkpt>
      <trkpt lat="44.92493" lon="4.32308">
        <ele>883.7</ele>
        <time>2026-05-06T08:39:24Z</time>
      </trkpt>
      <trkpt lat="44.9249" lon="4.32302">
        <ele>884</ele>
        <time>2026-05-06T08:39:29Z</time>
      </trkpt>
      <trkpt lat="44.92487" lon="4.32294">
        <ele>884.5</ele>
        <time>2026-05-06T08:39:34Z</time>
      </trkpt>
      <trkpt lat="44.92483" lon="4.32288">
        <ele>884.7</ele>
        <time>2026-05-06T08:39:39Z</time>
      </trkpt>
      <trkpt lat="44.9248" lon="4.32282">
        <ele>885</ele>
        <time>2026-05-06T08:39:44Z</time>
      </trkpt>
      <trkpt lat="44.92478" lon="4.32277">
        <ele>885.4</ele>
        <time>2026-05-06T08:39:49Z</time>
      </trkpt>
      <trkpt lat="44.92475" lon="4.32272">
        <ele>885.6</ele>
        <time>2026-05-06T08:39:54Z</time>
      </trkpt>
      <trkpt lat="44.92472" lon="4.32267">
        <ele>885.9</ele>
        <time>2026-05-06T08:39:59Z</time>
      </trkpt>
      <trkpt lat="44.92472" lon="4.32264">
        <ele>886.2</ele>
        <time>2026-05-06T08:40:04Z</time>
      </trkpt>
      <trkpt lat="44.92472" lon="4.32264">
        <ele>886.2</ele>
        <time>2026-05-06T08:40:09Z</time>
      </trkpt>
      <trkpt lat="44.92472" lon="4.32264">
        <ele>886.2</ele>
        <time>2026-05-06T08:40:14Z</time>
      </trkpt>
      <trkpt lat="44.92472" lon="4.32264">
        <ele>886.2</ele>
        <time>2026-05-06T08:40:19Z</time>
      </trkpt>
      <trkpt lat="44.92472" lon="4.32264">
        <ele>886.2</ele>
        <time>2026-05-06T08:40:24Z</time>
      </trkpt>
      <trkpt lat="44.92472" lon="4.32264">
        <ele>886.2</ele>
        <time>2026-05-06T08:40:29Z</time>
      </trkpt>
      <trkpt lat="44.92472" lon="4.32264">
        <ele>886.2</ele>
        <time>2026-05-06T08:40:34Z</time>
      </trkpt>
      <trkpt lat="44.92472" lon="4.32264">
        <ele>886.2</ele>
        <time>2026-05-06T08:40:39Z</time>
      </trkpt>
      <trkpt lat="44.92472" lon="4.32264">
        <ele>886.2</ele>
        <time>2026-05-06T08:40:44Z</time>
      </trkpt>
      <trkpt lat="44.92468" lon="4.32262">
        <ele>886</ele>
        <time>2026-05-06T08:40:49Z</time>
      </trkpt>
      <trkpt lat="44.92466" lon="4.32254">
        <ele>886.8</ele>
        <time>2026-05-06T08:40:54Z</time>
      </trkpt>
      <trkpt lat="44.92464" lon="4.32247">
        <ele>887.3</ele>
        <time>2026-05-06T08:40:59Z</time>
      </trkpt>
      <trkpt lat="44.92462" lon="4.32241">
        <ele>887.6</ele>
        <time>2026-05-06T08:41:04Z</time>
      </trkpt>
      <trkpt lat="44.9246" lon="4.32236">
        <ele>887.8</ele>
        <time>2026-05-06T08:41:09Z</time>
      </trkpt>
      <trkpt lat="44.92457" lon="4.3223">
        <ele>888.1</ele>
        <time>2026-05-06T08:41:14Z</time>
      </trkpt>
      <trkpt lat="44.92456" lon="4.32224">
        <ele>888.5</ele>
        <time>2026-05-06T08:41:19Z</time>
      </trkpt>
      <trkpt lat="44.92455" lon="4.32218">
        <ele>889</ele>
        <time>2026-05-06T08:41:24Z</time>
      </trkpt>
      <trkpt lat="44.92454" lon="4.32214">
        <ele>889.3</ele>
        <time>2026-05-06T08:41:29Z</time>
      </trkpt>
      <trkpt lat="44.92452" lon="4.3221">
        <ele>889.5</ele>
        <time>2026-05-06T08:41:34Z</time>
      </trkpt>
      <trkpt lat="44.92449" lon="4.32204">
        <ele>890</ele>
        <time>2026-05-06T08:41:39Z</time>
      </trkpt>
      <trkpt lat="44.92447" lon="4.32198">
        <ele>890.5</ele>
        <time>2026-05-06T08:41:44Z</time>
      </trkpt>
      <trkpt lat="44.92445" lon="4.32192">
        <ele>891</ele>
        <time>2026-05-06T08:41:49Z</time>
      </trkpt>
      <trkpt lat="44.92443" lon="4.32185">
        <ele>891.7</ele>
        <time>2026-05-06T08:41:54Z</time>
      </trkpt>
      <trkpt lat="44.9244" lon="4.32178">
        <ele>892.5</ele>
        <time>2026-05-06T08:41:59Z</time>
      </trkpt>
      <trkpt lat="44.92439" lon="4.32173">
        <ele>893</ele>
        <time>2026-05-06T08:42:04Z</time>
      </trkpt>
      <trkpt lat="44.92437" lon="4.32169">
        <ele>893.5</ele>
        <time>2026-05-06T08:42:09Z</time>
      </trkpt>
      <trkpt lat="44.92435" lon="4.32162">
        <ele>894.3</ele>
        <time>2026-05-06T08:42:14Z</time>
      </trkpt>
      <trkpt lat="44.92432" lon="4.32155">
        <ele>895.1</ele>
        <time>2026-05-06T08:42:19Z</time>
      </trkpt>
      <trkpt lat="44.92429" lon="4.32148">
        <ele>896.1</ele>
        <time>2026-05-06T08:42:24Z</time>
      </trkpt>
      <trkpt lat="44.92426" lon="4.32142">
        <ele>896.9</ele>
        <time>2026-05-06T08:42:29Z</time>
      </trkpt>
      <trkpt lat="44.92423" lon="4.32136">
        <ele>897.7</ele>
        <time>2026-05-06T08:42:34Z</time>
      </trkpt>
      <trkpt lat="44.92421" lon="4.32128">
        <ele>898.9</ele>
        <time>2026-05-06T08:42:39Z</time>
      </trkpt>
      <trkpt lat="44.92419" lon="4.3212">
        <ele>900</ele>
        <time>2026-05-06T08:42:44Z</time>
      </trkpt>
      <trkpt lat="44.92416" lon="4.32113">
        <ele>901.1</ele>
        <time>2026-05-06T08:42:49Z</time>
      </trkpt>
      <trkpt lat="44.92413" lon="4.32106">
        <ele>902</ele>
        <time>2026-05-06T08:42:54Z</time>
      </trkpt>
      <trkpt lat="44.92411" lon="4.32101">
        <ele>902.7</ele>
        <time>2026-05-06T08:42:59Z</time>
      </trkpt>
      <trkpt lat="44.92409" lon="4.32095">
        <ele>903.5</ele>
        <time>2026-05-06T08:43:04Z</time>
      </trkpt>
      <trkpt lat="44.92407" lon="4.3209">
        <ele>904.2</ele>
        <time>2026-05-06T08:43:09Z</time>
      </trkpt>
      <trkpt lat="44.92405" lon="4.32085">
        <ele>904.9</ele>
        <time>2026-05-06T08:43:14Z</time>
      </trkpt>
      <trkpt lat="44.92404" lon="4.3208">
        <ele>905.5</ele>
        <time>2026-05-06T08:43:19Z</time>
      </trkpt>
      <trkpt lat="44.92402" lon="4.32075">
        <ele>906.1</ele>
        <time>2026-05-06T08:43:24Z</time>
      </trkpt>
      <trkpt lat="44.92402" lon="4.32068">
        <ele>906.8</ele>
        <time>2026-05-06T08:43:29Z</time>
      </trkpt>
      <trkpt lat="44.92401" lon="4.32062">
        <ele>907.4</ele>
        <time>2026-05-06T08:43:34Z</time>
      </trkpt>
      <trkpt lat="44.924" lon="4.32057">
        <ele>908</ele>
        <time>2026-05-06T08:43:39Z</time>
      </trkpt>
      <trkpt lat="44.92399" lon="4.32052">
        <ele>908.5</ele>
        <time>2026-05-06T08:43:44Z</time>
      </trkpt>
      <trkpt lat="44.92398" lon="4.32047">
        <ele>909.1</ele>
        <time>2026-05-06T08:43:49Z</time>
      </trkpt>
      <trkpt lat="44.92397" lon="4.32042">
        <ele>909.6</ele>
        <time>2026-05-06T08:43:54Z</time>
      </trkpt>
      <trkpt lat="44.92396" lon="4.32038">
        <ele>910</ele>
        <time>2026-05-06T08:43:59Z</time>
      </trkpt>
      <trkpt lat="44.92395" lon="4.32032">
        <ele>910.6</ele>
        <time>2026-05-06T08:44:04Z</time>
      </trkpt>
      <trkpt lat="44.92394" lon="4.32031">
        <ele>910.8</ele>
        <time>2026-05-06T08:44:09Z</time>
      </trkpt>
      <trkpt lat="44.92393" lon="4.32029">
        <ele>911</ele>
        <time>2026-05-06T08:44:14Z</time>
      </trkpt>
      <trkpt lat="44.92392" lon="4.32023">
        <ele>911.6</ele>
        <time>2026-05-06T08:44:19Z</time>
      </trkpt>
      <trkpt lat="44.92391" lon="4.32018">
        <ele>912.1</ele>
        <time>2026-05-06T08:44:24Z</time>
      </trkpt>
      <trkpt lat="44.92389" lon="4.32011">
        <ele>912.9</ele>
        <time>2026-05-06T08:44:29Z</time>
      </trkpt>
      <trkpt lat="44.92387" lon="4.32005">
        <ele>913.5</ele>
        <time>2026-05-06T08:44:34Z</time>
      </trkpt>
      <trkpt lat="44.92386" lon="4.31999">
        <ele>914.1</ele>
        <time>2026-05-06T08:44:39Z</time>
      </trkpt>
      <trkpt lat="44.92384" lon="4.31995">
        <ele>914.3</ele>
        <time>2026-05-06T08:44:44Z</time>
      </trkpt>
      <trkpt lat="44.92381" lon="4.31989">
        <ele>914.7</ele>
        <time>2026-05-06T08:44:49Z</time>
      </trkpt>
      <trkpt lat="44.92379" lon="4.31983">
        <ele>915.1</ele>
        <time>2026-05-06T08:44:54Z</time>
      </trkpt>
      <trkpt lat="44.92377" lon="4.31979">
        <ele>915.4</ele>
        <time>2026-05-06T08:44:59Z</time>
      </trkpt>
      <trkpt lat="44.92377" lon="4.31976">
        <ele>915.6</ele>
        <time>2026-05-06T08:45:04Z</time>
      </trkpt>
      <trkpt lat="44.92376" lon="4.31971">
        <ele>915.9</ele>
        <time>2026-05-06T08:45:09Z</time>
      </trkpt>
      <trkpt lat="44.92374" lon="4.31966">
        <ele>916.2</ele>
        <time>2026-05-06T08:45:14Z</time>
      </trkpt>
      <trkpt lat="44.92371" lon="4.3196">
        <ele>916.7</ele>
        <time>2026-05-06T08:45:19Z</time>
      </trkpt>
      <trkpt lat="44.92369" lon="4.31953">
        <ele>917.1</ele>
        <time>2026-05-06T08:45:24Z</time>
      </trkpt>
      <trkpt lat="44.92367" lon="4.31947">
        <ele>917.6</ele>
        <time>2026-05-06T08:45:29Z</time>
      </trkpt>
      <trkpt lat="44.92366" lon="4.31942">
        <ele>917.9</ele>
        <time>2026-05-06T08:45:34Z</time>
      </trkpt>
      <trkpt lat="44.92364" lon="4.31934">
        <ele>918.5</ele>
        <time>2026-05-06T08:45:39Z</time>
      </trkpt>
      <trkpt lat="44.92362" lon="4.31927">
        <ele>919</ele>
        <time>2026-05-06T08:45:44Z</time>
      </trkpt>
      <trkpt lat="44.92359" lon="4.31922">
        <ele>919.3</ele>
        <time>2026-05-06T08:45:49Z</time>
      </trkpt>
      <trkpt lat="44.92357" lon="4.31915">
        <ele>919.8</ele>
        <time>2026-05-06T08:45:54Z</time>
      </trkpt>
      <trkpt lat="44.92355" lon="4.3191">
        <ele>920</ele>
        <time>2026-05-06T08:45:59Z</time>
      </trkpt>
      <trkpt lat="44.92352" lon="4.31906">
        <ele>920.2</ele>
        <time>2026-05-06T08:46:04Z</time>
      </trkpt>
      <trkpt lat="44.92352" lon="4.31903">
        <ele>920.4</ele>
        <time>2026-05-06T08:46:09Z</time>
      </trkpt>
      <trkpt lat="44.92351" lon="4.31899">
        <ele>920.5</ele>
        <time>2026-05-06T08:46:14Z</time>
      </trkpt>
      <trkpt lat="44.92349" lon="4.31891">
        <ele>920.9</ele>
        <time>2026-05-06T08:46:19Z</time>
      </trkpt>
      <trkpt lat="44.92347" lon="4.31882">
        <ele>921.4</ele>
        <time>2026-05-06T08:46:24Z</time>
      </trkpt>
      <trkpt lat="44.92345" lon="4.31876">
        <ele>921.7</ele>
        <time>2026-05-06T08:46:29Z</time>
      </trkpt>
      <trkpt lat="44.92342" lon="4.31869">
        <ele>922.1</ele>
        <time>2026-05-06T08:46:34Z</time>
      </trkpt>
      <trkpt lat="44.9234" lon="4.31862">
        <ele>922.4</ele>
        <time>2026-05-06T08:46:39Z</time>
      </trkpt>
      <trkpt lat="44.92337" lon="4.31852">
        <ele>923</ele>
        <time>2026-05-06T08:46:44Z</time>
      </trkpt>
      <trkpt lat="44.92336" lon="4.31849">
        <ele>923.2</ele>
        <time>2026-05-06T08:46:49Z</time>
      </trkpt>
      <trkpt lat="44.92335" lon="4.31849">
        <ele>923.2</ele>
        <time>2026-05-06T08:46:54Z</time>
      </trkpt>
      <trkpt lat="44.92335" lon="4.31849">
        <ele>923.2</ele>
        <time>2026-05-06T08:46:59Z</time>
      </trkpt>
      <trkpt lat="44.92335" lon="4.31849">
        <ele>923.2</ele>
        <time>2026-05-06T08:47:04Z</time>
      </trkpt>
      <trkpt lat="44.92335" lon="4.31849">
        <ele>923.2</ele>
        <time>2026-05-06T08:47:09Z</time>
      </trkpt>
      <trkpt lat="44.92335" lon="4.31849">
        <ele>923.2</ele>
        <time>2026-05-06T08:47:14Z</time>
      </trkpt>
      <trkpt lat="44.92335" lon="4.31849">
        <ele>923.2</ele>
        <time>2026-05-06T08:47:19Z</time>
      </trkpt>
      <trkpt lat="44.92335" lon="4.31849">
        <ele>923.2</ele>
        <time>2026-05-06T08:47:24Z</time>
      </trkpt>
      <trkpt lat="44.92335" lon="4.31849">
        <ele>923.2</ele>
        <time>2026-05-06T08:47:29Z</time>
      </trkpt>
      <trkpt lat="44.92334" lon="4.3185">
        <ele>923.2</ele>
        <time>2026-05-06T08:47:34Z</time>
      </trkpt>
      <trkpt lat="44.92334" lon="4.3185">
        <ele>923.2</ele>
        <time>2026-05-06T08:47:39Z</time>
      </trkpt>
      <trkpt lat="44.92334" lon="4.3185">
        <ele>923.2</ele>
        <time>2026-05-06T08:47:44Z</time>
      </trkpt>
      <trkpt lat="44.92334" lon="4.3185">
        <ele>923.2</ele>
        <time>2026-05-06T08:47:49Z</time>
      </trkpt>
      <trkpt lat="44.92334" lon="4.3185">
        <ele>923.2</ele>
        <time>2026-05-06T08:47:54Z</time>
      </trkpt>
      <trkpt lat="44.92334" lon="4.3185">
        <ele>923.2</ele>
        <time>2026-05-06T08:47:59Z</time>
      </trkpt>
      <trkpt lat="44.92334" lon="4.3185">
        <ele>923.2</ele>
        <time>2026-05-06T08:48:04Z</time>
      </trkpt>
      <trkpt lat="44.92334" lon="4.3185">
        <ele>923.2</ele>
        <time>2026-05-06T08:48:09Z</time>
      </trkpt>
      <trkpt lat="44.92334" lon="4.3185">
        <ele>923.2</ele>
        <time>2026-05-06T08:48:14Z</time>
      </trkpt>
      <trkpt lat="44.92334" lon="4.3185">
        <ele>923.2</ele>
        <time>2026-05-06T08:48:19Z</time>
      </trkpt>
      <trkpt lat="44.92334" lon="4.3185">
        <ele>923.2</ele>
        <time>2026-05-06T08:48:24Z</time>
      </trkpt>
      <trkpt lat="44.92334" lon="4.3185">
        <ele>923.2</ele>
        <time>2026-05-06T08:48:29Z</time>
      </trkpt>
      <trkpt lat="44.92334" lon="4.3185">
        <ele>923.2</ele>
        <time>2026-05-06T08:48:34Z</time>
      </trkpt>
      <trkpt lat="44.92334" lon="4.3185">
        <ele>923.2</ele>
        <time>2026-05-06T08:48:39Z</time>
      </trkpt>
      <trkpt lat="44.92334" lon="4.3185">
        <ele>923.2</ele>
        <time>2026-05-06T08:48:44Z</time>
      </trkpt>
      <trkpt lat="44.92334" lon="4.3185">
        <ele>923.2</ele>
        <time>2026-05-06T08:48:49Z</time>
      </trkpt>
      <trkpt lat="44.92334" lon="4.3185">
        <ele>923.2</ele>
        <time>2026-05-06T08:48:54Z</time>
      </trkpt>
      <trkpt lat="44.92334" lon="4.3185">
        <ele>923.2</ele>
        <time>2026-05-06T08:48:59Z</time>
      </trkpt>
      <trkpt lat="44.92334" lon="4.3185">
        <ele>923.2</ele>
        <time>2026-05-06T08:49:04Z</time>
      </trkpt>
      <trkpt lat="44.92334" lon="4.3185">
        <ele>923.2</ele>
        <time>2026-05-06T08:49:09Z</time>
      </trkpt>
      <trkpt lat="44.92334" lon="4.3185">
        <ele>923.2</ele>
        <time>2026-05-06T08:49:14Z</time>
      </trkpt>
      <trkpt lat="44.92334" lon="4.3185">
        <ele>923.2</ele>
        <time>2026-05-06T08:49:19Z</time>
      </trkpt>
      <trkpt lat="44.92334" lon="4.3185">
        <ele>923.2</ele>
        <time>2026-05-06T08:49:24Z</time>
      </trkpt>
      <trkpt lat="44.92334" lon="4.3185">
        <ele>923.2</ele>
        <time>2026-05-06T08:49:29Z</time>
      </trkpt>
      <trkpt lat="44.92334" lon="4.3185">
        <ele>923.2</ele>
        <time>2026-05-06T08:49:34Z</time>
      </trkpt>
      <trkpt lat="44.92333" lon="4.31842">
        <ele>923.6</ele>
        <time>2026-05-06T08:49:39Z</time>
      </trkpt>
      <trkpt lat="44.9233" lon="4.31832">
        <ele>924</ele>
        <time>2026-05-06T08:49:44Z</time>
      </trkpt>
      <trkpt lat="44.92327" lon="4.31824">
        <ele>924.2</ele>
        <time>2026-05-06T08:49:49Z</time>
      </trkpt>
      <trkpt lat="44.92325" lon="4.31818">
        <ele>924.4</ele>
        <time>2026-05-06T08:49:54Z</time>
      </trkpt>
      <trkpt lat="44.92321" lon="4.31811">
        <ele>924.7</ele>
        <time>2026-05-06T08:49:59Z</time>
      </trkpt>
      <trkpt lat="44.92316" lon="4.31802">
        <ele>925.1</ele>
        <time>2026-05-06T08:50:04Z</time>
      </trkpt>
      <trkpt lat="44.92311" lon="4.31795">
        <ele>925.5</ele>
        <time>2026-05-06T08:50:09Z</time>
      </trkpt>
      <trkpt lat="44.92307" lon="4.31787">
        <ele>925.9</ele>
        <time>2026-05-06T08:50:14Z</time>
      </trkpt>
      <trkpt lat="44.92303" lon="4.31778">
        <ele>926.5</ele>
        <time>2026-05-06T08:50:19Z</time>
      </trkpt>
      <trkpt lat="44.92298" lon="4.31771">
        <ele>927</ele>
        <time>2026-05-06T08:50:24Z</time>
      </trkpt>
      <trkpt lat="44.92295" lon="4.31764">
        <ele>927.5</ele>
        <time>2026-05-06T08:50:29Z</time>
      </trkpt>
      <trkpt lat="44.92291" lon="4.31756">
        <ele>928.1</ele>
        <time>2026-05-06T08:50:34Z</time>
      </trkpt>
      <trkpt lat="44.92286" lon="4.31747">
        <ele>928.9</ele>
        <time>2026-05-06T08:50:39Z</time>
      </trkpt>
      <trkpt lat="44.92284" lon="4.31744">
        <ele>929.1</ele>
        <time>2026-05-06T08:50:44Z</time>
      </trkpt>
      <trkpt lat="44.92284" lon="4.31744">
        <ele>929.1</ele>
        <time>2026-05-06T08:50:49Z</time>
      </trkpt>
      <trkpt lat="44.92284" lon="4.31744">
        <ele>929.1</ele>
        <time>2026-05-06T08:50:54Z</time>
      </trkpt>
      <trkpt lat="44.92284" lon="4.31744">
        <ele>929.1</ele>
        <time>2026-05-06T08:50:59Z</time>
      </trkpt>
      <trkpt lat="44.92284" lon="4.31744">
        <ele>929.1</ele>
        <time>2026-05-06T08:51:04Z</time>
      </trkpt>
      <trkpt lat="44.92284" lon="4.31744">
        <ele>929.1</ele>
        <time>2026-05-06T08:51:09Z</time>
      </trkpt>
      <trkpt lat="44.92284" lon="4.31744">
        <ele>929.1</ele>
        <time>2026-05-06T08:51:14Z</time>
      </trkpt>
      <trkpt lat="44.92284" lon="4.31744">
        <ele>929.1</ele>
        <time>2026-05-06T08:51:19Z</time>
      </trkpt>
      <trkpt lat="44.92284" lon="4.31744">
        <ele>929.1</ele>
        <time>2026-05-06T08:51:24Z</time>
      </trkpt>
      <trkpt lat="44.92284" lon="4.31744">
        <ele>929.1</ele>
        <time>2026-05-06T08:51:29Z</time>
      </trkpt>
      <trkpt lat="44.92284" lon="4.31744">
        <ele>929.1</ele>
        <time>2026-05-06T08:51:34Z</time>
      </trkpt>
      <trkpt lat="44.92284" lon="4.31744">
        <ele>929.1</ele>
        <time>2026-05-06T08:51:39Z</time>
      </trkpt>
      <trkpt lat="44.92284" lon="4.31744">
        <ele>929.1</ele>
        <time>2026-05-06T08:51:44Z</time>
      </trkpt>
      <trkpt lat="44.92284" lon="4.31744">
        <ele>929.1</ele>
        <time>2026-05-06T08:51:49Z</time>
      </trkpt>
      <trkpt lat="44.92284" lon="4.31744">
        <ele>929.1</ele>
        <time>2026-05-06T08:51:54Z</time>
      </trkpt>
      <trkpt lat="44.92284" lon="4.31744">
        <ele>929.1</ele>
        <time>2026-05-06T08:51:59Z</time>
      </trkpt>
      <trkpt lat="44.92284" lon="4.31744">
        <ele>929.1</ele>
        <time>2026-05-06T08:52:04Z</time>
      </trkpt>
      <trkpt lat="44.92284" lon="4.31744">
        <ele>929.1</ele>
        <time>2026-05-06T08:52:09Z</time>
      </trkpt>
      <trkpt lat="44.92284" lon="4.31744">
        <ele>929.1</ele>
        <time>2026-05-06T08:52:14Z</time>
      </trkpt>
      <trkpt lat="44.92284" lon="4.31744">
        <ele>929.1</ele>
        <time>2026-05-06T08:52:19Z</time>
      </trkpt>
      <trkpt lat="44.92278" lon="4.3173">
        <ele>930.1</ele>
        <time>2026-05-06T08:52:24Z</time>
      </trkpt>
      <trkpt lat="44.92278" lon="4.3173">
        <ele>930.1</ele>
        <time>2026-05-06T08:52:29Z</time>
      </trkpt>
      <trkpt lat="44.92278" lon="4.3173">
        <ele>930.1</ele>
        <time>2026-05-06T08:52:34Z</time>
      </trkpt>
      <trkpt lat="44.92278" lon="4.3173">
        <ele>930.1</ele>
        <time>2026-05-06T08:52:39Z</time>
      </trkpt>
      <trkpt lat="44.92278" lon="4.3173">
        <ele>930.1</ele>
        <time>2026-05-06T08:52:44Z</time>
      </trkpt>
      <trkpt lat="44.92278" lon="4.3173">
        <ele>930.1</ele>
        <time>2026-05-06T08:52:49Z</time>
      </trkpt>
      <trkpt lat="44.92276" lon="4.31727">
        <ele>930.4</ele>
        <time>2026-05-06T08:52:54Z</time>
      </trkpt>
      <trkpt lat="44.92276" lon="4.31725">
        <ele>930.5</ele>
        <time>2026-05-06T08:52:59Z</time>
      </trkpt>
      <trkpt lat="44.92276" lon="4.31725">
        <ele>930.5</ele>
        <time>2026-05-06T08:53:04Z</time>
      </trkpt>
      <trkpt lat="44.92276" lon="4.31725">
        <ele>930.5</ele>
        <time>2026-05-06T08:53:09Z</time>
      </trkpt>
      <trkpt lat="44.92276" lon="4.31725">
        <ele>930.5</ele>
        <time>2026-05-06T08:53:14Z</time>
      </trkpt>
      <trkpt lat="44.92276" lon="4.31725">
        <ele>930.5</ele>
        <time>2026-05-06T08:53:19Z</time>
      </trkpt>
      <trkpt lat="44.92276" lon="4.31725">
        <ele>930.5</ele>
        <time>2026-05-06T08:53:24Z</time>
      </trkpt>
      <trkpt lat="44.92276" lon="4.31725">
        <ele>930.5</ele>
        <time>2026-05-06T08:53:29Z</time>
      </trkpt>
      <trkpt lat="44.92276" lon="4.31725">
        <ele>930.5</ele>
        <time>2026-05-06T08:53:34Z</time>
      </trkpt>
      <trkpt lat="44.92276" lon="4.31725">
        <ele>930.5</ele>
        <time>2026-05-06T08:53:39Z</time>
      </trkpt>
      <trkpt lat="44.92276" lon="4.31725">
        <ele>930.5</ele>
        <time>2026-05-06T08:53:44Z</time>
      </trkpt>
      <trkpt lat="44.92276" lon="4.31725">
        <ele>930.5</ele>
        <time>2026-05-06T08:53:49Z</time>
      </trkpt>
      <trkpt lat="44.92276" lon="4.31725">
        <ele>930.5</ele>
        <time>2026-05-06T08:53:54Z</time>
      </trkpt>
      <trkpt lat="44.92276" lon="4.31725">
        <ele>930.5</ele>
        <time>2026-05-06T08:53:59Z</time>
      </trkpt>
      <trkpt lat="44.92276" lon="4.31725">
        <ele>930.5</ele>
        <time>2026-05-06T08:54:04Z</time>
      </trkpt>
      <trkpt lat="44.92276" lon="4.31725">
        <ele>930.5</ele>
        <time>2026-05-06T08:54:09Z</time>
      </trkpt>
      <trkpt lat="44.92276" lon="4.31725">
        <ele>930.5</ele>
        <time>2026-05-06T08:54:14Z</time>
      </trkpt>
      <trkpt lat="44.92276" lon="4.31725">
        <ele>930.5</ele>
        <time>2026-05-06T08:54:19Z</time>
      </trkpt>
      <trkpt lat="44.92276" lon="4.31725">
        <ele>930.5</ele>
        <time>2026-05-06T08:54:24Z</time>
      </trkpt>
      <trkpt lat="44.92276" lon="4.31725">
        <ele>930.5</ele>
        <time>2026-05-06T08:54:29Z</time>
      </trkpt>
      <trkpt lat="44.92276" lon="4.31725">
        <ele>930.5</ele>
        <time>2026-05-06T08:54:34Z</time>
      </trkpt>
      <trkpt lat="44.92276" lon="4.31725">
        <ele>930.5</ele>
        <time>2026-05-06T08:54:39Z</time>
      </trkpt>
      <trkpt lat="44.92276" lon="4.31725">
        <ele>930.5</ele>
        <time>2026-05-06T08:54:44Z</time>
      </trkpt>
      <trkpt lat="44.92276" lon="4.31725">
        <ele>930.5</ele>
        <time>2026-05-06T08:54:49Z</time>
      </trkpt>
      <trkpt lat="44.92276" lon="4.31725">
        <ele>930.5</ele>
        <time>2026-05-06T08:54:54Z</time>
      </trkpt>
      <trkpt lat="44.92276" lon="4.31725">
        <ele>930.5</ele>
        <time>2026-05-06T08:54:59Z</time>
      </trkpt>
      <trkpt lat="44.92276" lon="4.31725">
        <ele>930.5</ele>
        <time>2026-05-06T08:55:04Z</time>
      </trkpt>
      <trkpt lat="44.92276" lon="4.31725">
        <ele>930.5</ele>
        <time>2026-05-06T08:55:09Z</time>
      </trkpt>
      <trkpt lat="44.92276" lon="4.31725">
        <ele>930.5</ele>
        <time>2026-05-06T08:55:14Z</time>
      </trkpt>
      <trkpt lat="44.92276" lon="4.31725">
        <ele>930.5</ele>
        <time>2026-05-06T08:55:19Z</time>
      </trkpt>
      <trkpt lat="44.92276" lon="4.31725">
        <ele>930.5</ele>
        <time>2026-05-06T08:55:24Z</time>
      </trkpt>
      <trkpt lat="44.92276" lon="4.31725">
        <ele>930.5</ele>
        <time>2026-05-06T08:55:29Z</time>
      </trkpt>
      <trkpt lat="44.92271" lon="4.31715">
        <ele>931.3</ele>
        <time>2026-05-06T08:55:34Z</time>
      </trkpt>
      <trkpt lat="44.9227" lon="4.31714">
        <ele>931.5</ele>
        <time>2026-05-06T08:55:39Z</time>
      </trkpt>
      <trkpt lat="44.9227" lon="4.31714">
        <ele>931.5</ele>
        <time>2026-05-06T08:55:44Z</time>
      </trkpt>
      <trkpt lat="44.9227" lon="4.31714">
        <ele>931.5</ele>
        <time>2026-05-06T08:55:49Z</time>
      </trkpt>
      <trkpt lat="44.9227" lon="4.31714">
        <ele>931.5</ele>
        <time>2026-05-06T08:55:54Z</time>
      </trkpt>
      <trkpt lat="44.9227" lon="4.31714">
        <ele>931.5</ele>
        <time>2026-05-06T08:55:59Z</time>
      </trkpt>
      <trkpt lat="44.9227" lon="4.31714">
        <ele>931.5</ele>
        <time>2026-05-06T08:56:04Z</time>
      </trkpt>
      <trkpt lat="44.9227" lon="4.31714">
        <ele>931.5</ele>
        <time>2026-05-06T08:56:09Z</time>
      </trkpt>
      <trkpt lat="44.9227" lon="4.31714">
        <ele>931.5</ele>
        <time>2026-05-06T08:56:14Z</time>
      </trkpt>
      <trkpt lat="44.9227" lon="4.31714">
        <ele>931.5</ele>
        <time>2026-05-06T08:56:19Z</time>
      </trkpt>
      <trkpt lat="44.9227" lon="4.31714">
        <ele>931.5</ele>
        <time>2026-05-06T08:56:24Z</time>
      </trkpt>
      <trkpt lat="44.9227" lon="4.31714">
        <ele>931.5</ele>
        <time>2026-05-06T08:56:29Z</time>
      </trkpt>
      <trkpt lat="44.9227" lon="4.31714">
        <ele>931.5</ele>
        <time>2026-05-06T08:56:34Z</time>
      </trkpt>
      <trkpt lat="44.9227" lon="4.31714">
        <ele>931.5</ele>
        <time>2026-05-06T08:56:39Z</time>
      </trkpt>
      <trkpt lat="44.9227" lon="4.31714">
        <ele>931.5</ele>
        <time>2026-05-06T08:56:44Z</time>
      </trkpt>
      <trkpt lat="44.9227" lon="4.31714">
        <ele>931.5</ele>
        <time>2026-05-06T08:56:49Z</time>
      </trkpt>
      <trkpt lat="44.9227" lon="4.31714">
        <ele>931.5</ele>
        <time>2026-05-06T08:56:54Z</time>
      </trkpt>
      <trkpt lat="44.9227" lon="4.31714">
        <ele>931.5</ele>
        <time>2026-05-06T08:56:59Z</time>
      </trkpt>
      <trkpt lat="44.9227" lon="4.31714">
        <ele>931.5</ele>
        <time>2026-05-06T08:57:04Z</time>
      </trkpt>
      <trkpt lat="44.9227" lon="4.31714">
        <ele>931.5</ele>
        <time>2026-05-06T08:57:09Z</time>
      </trkpt>
      <trkpt lat="44.9227" lon="4.31714">
        <ele>931.5</ele>
        <time>2026-05-06T08:57:14Z</time>
      </trkpt>
      <trkpt lat="44.9227" lon="4.31714">
        <ele>931.5</ele>
        <time>2026-05-06T08:57:19Z</time>
      </trkpt>
      <trkpt lat="44.9227" lon="4.31714">
        <ele>931.5</ele>
        <time>2026-05-06T08:57:24Z</time>
      </trkpt>
      <trkpt lat="44.9227" lon="4.31714">
        <ele>931.5</ele>
        <time>2026-05-06T08:57:29Z</time>
      </trkpt>
      <trkpt lat="44.9227" lon="4.31714">
        <ele>931.5</ele>
        <time>2026-05-06T08:57:34Z</time>
      </trkpt>
      <trkpt lat="44.9227" lon="4.31714">
        <ele>931.5</ele>
        <time>2026-05-06T08:57:39Z</time>
      </trkpt>
      <trkpt lat="44.9227" lon="4.31714">
        <ele>931.5</ele>
        <time>2026-05-06T08:57:44Z</time>
      </trkpt>
      <trkpt lat="44.9227" lon="4.31714">
        <ele>931.5</ele>
        <time>2026-05-06T08:57:49Z</time>
      </trkpt>
      <trkpt lat="44.9227" lon="4.31714">
        <ele>931.5</ele>
        <time>2026-05-06T08:57:54Z</time>
      </trkpt>
      <trkpt lat="44.9227" lon="4.31714">
        <ele>931.5</ele>
        <time>2026-05-06T08:57:59Z</time>
      </trkpt>
      <trkpt lat="44.9227" lon="4.31714">
        <ele>931.5</ele>
        <time>2026-05-06T08:58:04Z</time>
      </trkpt>
      <trkpt lat="44.9227" lon="4.31714">
        <ele>931.5</ele>
        <time>2026-05-06T08:58:09Z</time>
      </trkpt>
      <trkpt lat="44.9227" lon="4.31714">
        <ele>931.5</ele>
        <time>2026-05-06T08:58:14Z</time>
      </trkpt>
      <trkpt lat="44.9227" lon="4.31714">
        <ele>931.5</ele>
        <time>2026-05-06T08:58:19Z</time>
      </trkpt>
      <trkpt lat="44.9227" lon="4.31714">
        <ele>931.5</ele>
        <time>2026-05-06T08:58:24Z</time>
      </trkpt>
      <trkpt lat="44.9227" lon="4.31714">
        <ele>931.5</ele>
        <time>2026-05-06T08:58:29Z</time>
      </trkpt>
      <trkpt lat="44.9227" lon="4.31714">
        <ele>931.5</ele>
        <time>2026-05-06T08:58:34Z</time>
      </trkpt>
      <trkpt lat="44.9227" lon="4.31714">
        <ele>931.5</ele>
        <time>2026-05-06T08:58:39Z</time>
      </trkpt>
      <trkpt lat="44.9227" lon="4.31714">
        <ele>931.5</ele>
        <time>2026-05-06T08:58:44Z</time>
      </trkpt>
      <trkpt lat="44.9227" lon="4.31714">
        <ele>931.5</ele>
        <time>2026-05-06T08:58:49Z</time>
      </trkpt>
      <trkpt lat="44.9227" lon="4.31714">
        <ele>931.5</ele>
        <time>2026-05-06T08:58:54Z</time>
      </trkpt>
      <trkpt lat="44.9227" lon="4.31714">
        <ele>931.5</ele>
        <time>2026-05-06T08:58:59Z</time>
      </trkpt>
      <trkpt lat="44.9227" lon="4.31714">
        <ele>931.5</ele>
        <time>2026-05-06T08:59:04Z</time>
      </trkpt>
      <trkpt lat="44.9227" lon="4.31714">
        <ele>931.5</ele>
        <time>2026-05-06T08:59:09Z</time>
      </trkpt>
      <trkpt lat="44.9227" lon="4.31714">
        <ele>931.5</ele>
        <time>2026-05-06T08:59:14Z</time>
      </trkpt>
      <trkpt lat="44.9227" lon="4.31714">
        <ele>931.5</ele>
        <time>2026-05-06T08:59:19Z</time>
      </trkpt>
      <trkpt lat="44.9227" lon="4.31714">
        <ele>931.5</ele>
        <time>2026-05-06T08:59:24Z</time>
      </trkpt>
      <trkpt lat="44.9227" lon="4.31714">
        <ele>931.5</ele>
        <time>2026-05-06T08:59:29Z</time>
      </trkpt>
      <trkpt lat="44.9227" lon="4.31714">
        <ele>931.5</ele>
        <time>2026-05-06T08:59:34Z</time>
      </trkpt>
      <trkpt lat="44.9227" lon="4.31714">
        <ele>931.5</ele>
        <time>2026-05-06T08:59:39Z</time>
      </trkpt>
      <trkpt lat="44.9227" lon="4.31714">
        <ele>931.5</ele>
        <time>2026-05-06T08:59:44Z</time>
      </trkpt>
      <trkpt lat="44.9227" lon="4.31714">
        <ele>931.5</ele>
        <time>2026-05-06T08:59:49Z</time>
      </trkpt>
      <trkpt lat="44.9227" lon="4.31714">
        <ele>931.5</ele>
        <time>2026-05-06T08:59:54Z</time>
      </trkpt>
      <trkpt lat="44.9227" lon="4.31714">
        <ele>931.5</ele>
        <time>2026-05-06T08:59:59Z</time>
      </trkpt>
      <trkpt lat="44.9227" lon="4.31714">
        <ele>931.5</ele>
        <time>2026-05-06T09:00:04Z</time>
      </trkpt>
      <trkpt lat="44.9227" lon="4.31714">
        <ele>931.5</ele>
        <time>2026-05-06T09:00:09Z</time>
      </trkpt>
      <trkpt lat="44.9227" lon="4.31714">
        <ele>931.5</ele>
        <time>2026-05-06T09:00:14Z</time>
      </trkpt>
      <trkpt lat="44.9227" lon="4.31714">
        <ele>931.5</ele>
        <time>2026-05-06T09:00:19Z</time>
      </trkpt>
      <trkpt lat="44.9227" lon="4.31714">
        <ele>931.5</ele>
        <time>2026-05-06T09:00:24Z</time>
      </trkpt>
      <trkpt lat="44.9227" lon="4.31714">
        <ele>931.5</ele>
        <time>2026-05-06T09:00:29Z</time>
      </trkpt>
      <trkpt lat="44.9227" lon="4.31714">
        <ele>931.5</ele>
        <time>2026-05-06T09:00:34Z</time>
      </trkpt>
      <trkpt lat="44.9227" lon="4.31714">
        <ele>931.5</ele>
        <time>2026-05-06T09:00:39Z</time>
      </trkpt>
      <trkpt lat="44.9227" lon="4.31714">
        <ele>931.5</ele>
        <time>2026-05-06T09:00:44Z</time>
      </trkpt>
      <trkpt lat="44.9227" lon="4.31714">
        <ele>931.5</ele>
        <time>2026-05-06T09:00:49Z</time>
      </trkpt>
      <trkpt lat="44.9227" lon="4.31714">
        <ele>931.5</ele>
        <time>2026-05-06T09:00:54Z</time>
      </trkpt>
      <trkpt lat="44.9227" lon="4.31714">
        <ele>931.5</ele>
        <time>2026-05-06T09:00:59Z</time>
      </trkpt>
      <trkpt lat="44.9227" lon="4.31714">
        <ele>931.5</ele>
        <time>2026-05-06T09:01:04Z</time>
      </trkpt>
      <trkpt lat="44.9227" lon="4.31714">
        <ele>931.5</ele>
        <time>2026-05-06T09:01:09Z</time>
      </trkpt>
      <trkpt lat="44.9227" lon="4.31714">
        <ele>931.5</ele>
        <time>2026-05-06T09:01:14Z</time>
      </trkpt>
      <trkpt lat="44.92263" lon="4.31703">
        <ele>932.6</ele>
        <time>2026-05-06T09:01:19Z</time>
      </trkpt>
      <trkpt lat="44.92263" lon="4.31703">
        <ele>932.6</ele>
        <time>2026-05-06T09:01:24Z</time>
      </trkpt>
      <trkpt lat="44.92263" lon="4.31703">
        <ele>932.6</ele>
        <time>2026-05-06T09:01:29Z</time>
      </trkpt>
      <trkpt lat="44.92263" lon="4.31703">
        <ele>932.6</ele>
        <time>2026-05-06T09:01:29Z</time>
      </trkpt>
      <trkpt lat="44.92262" lon="4.31703">
        <ele>932.6</ele>
        <time>2026-05-06T09:01:33Z</time>
      </trkpt>
      <trkpt lat="44.92258" lon="4.31704">
        <ele>932.8</ele>
        <time>2026-05-06T09:01:39Z</time>
      </trkpt>
      <trkpt lat="44.92256" lon="4.31699">
        <ele>933.3</ele>
        <time>2026-05-06T09:01:44Z</time>
      </trkpt>
      <trkpt lat="44.92252" lon="4.31696">
        <ele>933.8</ele>
        <time>2026-05-06T09:01:49Z</time>
      </trkpt>
      <trkpt lat="44.92248" lon="4.31691">
        <ele>934.3</ele>
        <time>2026-05-06T09:01:54Z</time>
      </trkpt>
      <trkpt lat="44.92246" lon="4.31687">
        <ele>934.7</ele>
        <time>2026-05-06T09:01:59Z</time>
      </trkpt>
      <trkpt lat="44.92244" lon="4.31683">
        <ele>935.1</ele>
        <time>2026-05-06T09:02:04Z</time>
      </trkpt>
      <trkpt lat="44.92242" lon="4.31678">
        <ele>935.6</ele>
        <time>2026-05-06T09:02:09Z</time>
      </trkpt>
      <trkpt lat="44.92238" lon="4.31668">
        <ele>936.6</ele>
        <time>2026-05-06T09:02:14Z</time>
      </trkpt>
      <trkpt lat="44.92234" lon="4.3166">
        <ele>937.3</ele>
        <time>2026-05-06T09:02:19Z</time>
      </trkpt>
      <trkpt lat="44.9223" lon="4.31652">
        <ele>937.9</ele>
        <time>2026-05-06T09:02:24Z</time>
      </trkpt>
      <trkpt lat="44.92226" lon="4.31649">
        <ele>938.3</ele>
        <time>2026-05-06T09:02:29Z</time>
      </trkpt>
      <trkpt lat="44.92222" lon="4.31645">
        <ele>938.8</ele>
        <time>2026-05-06T09:02:34Z</time>
      </trkpt>
      <trkpt lat="44.92217" lon="4.3164">
        <ele>939.4</ele>
        <time>2026-05-06T09:02:39Z</time>
      </trkpt>
      <trkpt lat="44.92213" lon="4.31634">
        <ele>940.1</ele>
        <time>2026-05-06T09:02:44Z</time>
      </trkpt>
      <trkpt lat="44.92208" lon="4.31628">
        <ele>940.8</ele>
        <time>2026-05-06T09:02:49Z</time>
      </trkpt>
      <trkpt lat="44.92206" lon="4.31624">
        <ele>941.3</ele>
        <time>2026-05-06T09:02:54Z</time>
      </trkpt>
      <trkpt lat="44.92203" lon="4.3162">
        <ele>941.8</ele>
        <time>2026-05-06T09:02:59Z</time>
      </trkpt>
      <trkpt lat="44.922" lon="4.31614">
        <ele>942.4</ele>
        <time>2026-05-06T09:03:04Z</time>
      </trkpt>
      <trkpt lat="44.92196" lon="4.31611">
        <ele>943</ele>
        <time>2026-05-06T09:03:09Z</time>
      </trkpt>
      <trkpt lat="44.92192" lon="4.31605">
        <ele>943.8</ele>
        <time>2026-05-06T09:03:14Z</time>
      </trkpt>
      <trkpt lat="44.92189" lon="4.31602">
        <ele>944.3</ele>
        <time>2026-05-06T09:03:19Z</time>
      </trkpt>
      <trkpt lat="44.92185" lon="4.31597">
        <ele>945</ele>
        <time>2026-05-06T09:03:24Z</time>
      </trkpt>
      <trkpt lat="44.92181" lon="4.31593">
        <ele>945.7</ele>
        <time>2026-05-06T09:03:29Z</time>
      </trkpt>
      <trkpt lat="44.92178" lon="4.31589">
        <ele>946.3</ele>
        <time>2026-05-06T09:03:34Z</time>
      </trkpt>
      <trkpt lat="44.92174" lon="4.31585">
        <ele>947.1</ele>
        <time>2026-05-06T09:03:39Z</time>
      </trkpt>
      <trkpt lat="44.9217" lon="4.31582">
        <ele>947.7</ele>
        <time>2026-05-06T09:03:44Z</time>
      </trkpt>
      <trkpt lat="44.92167" lon="4.31579">
        <ele>948.1</ele>
        <time>2026-05-06T09:03:49Z</time>
      </trkpt>
      <trkpt lat="44.92163" lon="4.31575">
        <ele>948.6</ele>
        <time>2026-05-06T09:03:54Z</time>
      </trkpt>
      <trkpt lat="44.92159" lon="4.3157">
        <ele>949.1</ele>
        <time>2026-05-06T09:03:59Z</time>
      </trkpt>
      <trkpt lat="44.92156" lon="4.31567">
        <ele>949.5</ele>
        <time>2026-05-06T09:04:04Z</time>
      </trkpt>
      <trkpt lat="44.92152" lon="4.31562">
        <ele>950</ele>
        <time>2026-05-06T09:04:09Z</time>
      </trkpt>
      <trkpt lat="44.92147" lon="4.31557">
        <ele>950.6</ele>
        <time>2026-05-06T09:04:14Z</time>
      </trkpt>
      <trkpt lat="44.92142" lon="4.31552">
        <ele>951.2</ele>
        <time>2026-05-06T09:04:19Z</time>
      </trkpt>
      <trkpt lat="44.92139" lon="4.31547">
        <ele>951.6</ele>
        <time>2026-05-06T09:04:24Z</time>
      </trkpt>
      <trkpt lat="44.92139" lon="4.31546">
        <ele>951.7</ele>
        <time>2026-05-06T09:04:29Z</time>
      </trkpt>
      <trkpt lat="44.92139" lon="4.31546">
        <ele>951.7</ele>
        <time>2026-05-06T09:04:34Z</time>
      </trkpt>
      <trkpt lat="44.92139" lon="4.31546">
        <ele>951.7</ele>
        <time>2026-05-06T09:04:39Z</time>
      </trkpt>
      <trkpt lat="44.92137" lon="4.3155">
        <ele>951.7</ele>
        <time>2026-05-06T09:04:44Z</time>
      </trkpt>
      <trkpt lat="44.92137" lon="4.3155">
        <ele>951.7</ele>
        <time>2026-05-06T09:04:49Z</time>
      </trkpt>
      <trkpt lat="44.92137" lon="4.3155">
        <ele>951.7</ele>
        <time>2026-05-06T09:04:54Z</time>
      </trkpt>
      <trkpt lat="44.92137" lon="4.3155">
        <ele>951.7</ele>
        <time>2026-05-06T09:04:59Z</time>
      </trkpt>
      <trkpt lat="44.92137" lon="4.3155">
        <ele>951.7</ele>
        <time>2026-05-06T09:05:04Z</time>
      </trkpt>
      <trkpt lat="44.92137" lon="4.3155">
        <ele>951.7</ele>
        <time>2026-05-06T09:05:09Z</time>
      </trkpt>
      <trkpt lat="44.92137" lon="4.3155">
        <ele>951.7</ele>
        <time>2026-05-06T09:05:14Z</time>
      </trkpt>
      <trkpt lat="44.92137" lon="4.3155">
        <ele>951.7</ele>
        <time>2026-05-06T09:05:19Z</time>
      </trkpt>
      <trkpt lat="44.92137" lon="4.3155">
        <ele>951.7</ele>
        <time>2026-05-06T09:05:24Z</time>
      </trkpt>
      <trkpt lat="44.92137" lon="4.3155">
        <ele>951.7</ele>
        <time>2026-05-06T09:05:29Z</time>
      </trkpt>
      <trkpt lat="44.92137" lon="4.3155">
        <ele>951.7</ele>
        <time>2026-05-06T09:05:34Z</time>
      </trkpt>
      <trkpt lat="44.92137" lon="4.3155">
        <ele>951.7</ele>
        <time>2026-05-06T09:05:39Z</time>
      </trkpt>
      <trkpt lat="44.92137" lon="4.3155">
        <ele>951.7</ele>
        <time>2026-05-06T09:05:44Z</time>
      </trkpt>
      <trkpt lat="44.92137" lon="4.3155">
        <ele>951.7</ele>
        <time>2026-05-06T09:05:49Z</time>
      </trkpt>
      <trkpt lat="44.92137" lon="4.3155">
        <ele>951.7</ele>
        <time>2026-05-06T09:05:54Z</time>
      </trkpt>
      <trkpt lat="44.92137" lon="4.3155">
        <ele>951.7</ele>
        <time>2026-05-06T09:05:59Z</time>
      </trkpt>
      <trkpt lat="44.92137" lon="4.3155">
        <ele>951.7</ele>
        <time>2026-05-06T09:06:04Z</time>
      </trkpt>
      <trkpt lat="44.92137" lon="4.3155">
        <ele>951.7</ele>
        <time>2026-05-06T09:06:09Z</time>
      </trkpt>
      <trkpt lat="44.92137" lon="4.3155">
        <ele>951.7</ele>
        <time>2026-05-06T09:06:14Z</time>
      </trkpt>
      <trkpt lat="44.92137" lon="4.3155">
        <ele>951.7</ele>
        <time>2026-05-06T09:06:19Z</time>
      </trkpt>
      <trkpt lat="44.92137" lon="4.3155">
        <ele>951.7</ele>
        <time>2026-05-06T09:06:24Z</time>
      </trkpt>
      <trkpt lat="44.92137" lon="4.3155">
        <ele>951.7</ele>
        <time>2026-05-06T09:06:29Z</time>
      </trkpt>
      <trkpt lat="44.92137" lon="4.3155">
        <ele>951.7</ele>
        <time>2026-05-06T09:06:34Z</time>
      </trkpt>
      <trkpt lat="44.92137" lon="4.3155">
        <ele>951.7</ele>
        <time>2026-05-06T09:06:39Z</time>
      </trkpt>
      <trkpt lat="44.92137" lon="4.3155">
        <ele>951.7</ele>
        <time>2026-05-06T09:06:44Z</time>
      </trkpt>
      <trkpt lat="44.92137" lon="4.3155">
        <ele>951.7</ele>
        <time>2026-05-06T09:06:49Z</time>
      </trkpt>
      <trkpt lat="44.92137" lon="4.3155">
        <ele>951.7</ele>
        <time>2026-05-06T09:06:54Z</time>
      </trkpt>
      <trkpt lat="44.92137" lon="4.3155">
        <ele>951.7</ele>
        <time>2026-05-06T09:06:59Z</time>
      </trkpt>
      <trkpt lat="44.92137" lon="4.3155">
        <ele>951.7</ele>
        <time>2026-05-06T09:07:04Z</time>
      </trkpt>
      <trkpt lat="44.92137" lon="4.3155">
        <ele>951.7</ele>
        <time>2026-05-06T09:07:09Z</time>
      </trkpt>
      <trkpt lat="44.92137" lon="4.3155">
        <ele>951.7</ele>
        <time>2026-05-06T09:07:14Z</time>
      </trkpt>
      <trkpt lat="44.92137" lon="4.3155">
        <ele>951.7</ele>
        <time>2026-05-06T09:07:19Z</time>
      </trkpt>
      <trkpt lat="44.92137" lon="4.3155">
        <ele>951.7</ele>
        <time>2026-05-06T09:07:24Z</time>
      </trkpt>
      <trkpt lat="44.92138" lon="4.3154">
        <ele>952</ele>
        <time>2026-05-06T09:07:29Z</time>
      </trkpt>
      <trkpt lat="44.92134" lon="4.31539">
        <ele>952.3</ele>
        <time>2026-05-06T09:07:34Z</time>
      </trkpt>
      <trkpt lat="44.9213" lon="4.31539">
        <ele>952.7</ele>
        <time>2026-05-06T09:07:39Z</time>
      </trkpt>
      <trkpt lat="44.92125" lon="4.3154">
        <ele>953.1</ele>
        <time>2026-05-06T09:07:44Z</time>
      </trkpt>
      <trkpt lat="44.92122" lon="4.31545">
        <ele>953.1</ele>
        <time>2026-05-06T09:07:49Z</time>
      </trkpt>
      <trkpt lat="44.9212" lon="4.31552">
        <ele>953</ele>
        <time>2026-05-06T09:07:54Z</time>
      </trkpt>
      <trkpt lat="44.92118" lon="4.31558">
        <ele>953</ele>
        <time>2026-05-06T09:07:59Z</time>
      </trkpt>
      <trkpt lat="44.92116" lon="4.31564">
        <ele>953</ele>
        <time>2026-05-06T09:08:04Z</time>
      </trkpt>
      <trkpt lat="44.92111" lon="4.3157">
        <ele>953.2</ele>
        <time>2026-05-06T09:08:09Z</time>
      </trkpt>
      <trkpt lat="44.92106" lon="4.31575">
        <ele>953.4</ele>
        <time>2026-05-06T09:08:14Z</time>
      </trkpt>
      <trkpt lat="44.92101" lon="4.31581">
        <ele>953.6</ele>
        <time>2026-05-06T09:08:19Z</time>
      </trkpt>
      <trkpt lat="44.92096" lon="4.31584">
        <ele>953.9</ele>
        <time>2026-05-06T09:08:24Z</time>
      </trkpt>
      <trkpt lat="44.92091" lon="4.31582">
        <ele>954.4</ele>
        <time>2026-05-06T09:08:29Z</time>
      </trkpt>
      <trkpt lat="44.92087" lon="4.3158">
        <ele>954.8</ele>
        <time>2026-05-06T09:08:34Z</time>
      </trkpt>
      <trkpt lat="44.92083" lon="4.31577">
        <ele>955.2</ele>
        <time>2026-05-06T09:08:39Z</time>
      </trkpt>
      <trkpt lat="44.92079" lon="4.31575">
        <ele>954.5</ele>
        <time>2026-05-06T09:08:44Z</time>
      </trkpt>
      <trkpt lat="44.92077" lon="4.3157">
        <ele>954.4</ele>
        <time>2026-05-06T09:08:49Z</time>
      </trkpt>
      <trkpt lat="44.92072" lon="4.31564">
        <ele>953.8</ele>
        <time>2026-05-06T09:08:54Z</time>
      </trkpt>
      <trkpt lat="44.92069" lon="4.31556">
        <ele>953.7</ele>
        <time>2026-05-06T09:08:59Z</time>
      </trkpt>
      <trkpt lat="44.92065" lon="4.31548">
        <ele>953.4</ele>
        <time>2026-05-06T09:09:04Z</time>
      </trkpt>
      <trkpt lat="44.92064" lon="4.31544">
        <ele>953.5</ele>
        <time>2026-05-06T09:09:09Z</time>
      </trkpt>
      <trkpt lat="44.92064" lon="4.31544">
        <ele>953.5</ele>
        <time>2026-05-06T09:09:14Z</time>
      </trkpt>
      <trkpt lat="44.92064" lon="4.31544">
        <ele>953.5</ele>
        <time>2026-05-06T09:09:19Z</time>
      </trkpt>
      <trkpt lat="44.92063" lon="4.31543">
        <ele>953.4</ele>
        <time>2026-05-06T09:09:24Z</time>
      </trkpt>
      <trkpt lat="44.92061" lon="4.3154">
        <ele>953.2</ele>
        <time>2026-05-06T09:09:29Z</time>
      </trkpt>
      <trkpt lat="44.92058" lon="4.31535">
        <ele>953.1</ele>
        <time>2026-05-06T09:09:34Z</time>
      </trkpt>
      <trkpt lat="44.92056" lon="4.3153">
        <ele>953</ele>
        <time>2026-05-06T09:09:39Z</time>
      </trkpt>
      <trkpt lat="44.92053" lon="4.31525">
        <ele>952.9</ele>
        <time>2026-05-06T09:09:44Z</time>
      </trkpt>
      <trkpt lat="44.92049" lon="4.3152">
        <ele>952.7</ele>
        <time>2026-05-06T09:09:49Z</time>
      </trkpt>
      <trkpt lat="44.92046" lon="4.31517">
        <ele>952.5</ele>
        <time>2026-05-06T09:09:54Z</time>
      </trkpt>
      <trkpt lat="44.92042" lon="4.31515">
        <ele>952.1</ele>
        <time>2026-05-06T09:09:59Z</time>
      </trkpt>
      <trkpt lat="44.92038" lon="4.31514">
        <ele>951.6</ele>
        <time>2026-05-06T09:10:04Z</time>
      </trkpt>
      <trkpt lat="44.92035" lon="4.31511">
        <ele>951.4</ele>
        <time>2026-05-06T09:10:09Z</time>
      </trkpt>
      <trkpt lat="44.92033" lon="4.31507">
        <ele>951.5</ele>
        <time>2026-05-06T09:10:14Z</time>
      </trkpt>
      <trkpt lat="44.9203" lon="4.31503">
        <ele>951.4</ele>
        <time>2026-05-06T09:10:19Z</time>
      </trkpt>
      <trkpt lat="44.92026" lon="4.31498">
        <ele>951.2</ele>
        <time>2026-05-06T09:10:24Z</time>
      </trkpt>
      <trkpt lat="44.92019" lon="4.31493">
        <ele>950.6</ele>
        <time>2026-05-06T09:10:29Z</time>
      </trkpt>
      <trkpt lat="44.92014" lon="4.31489">
        <ele>950.3</ele>
        <time>2026-05-06T09:10:34Z</time>
      </trkpt>
      <trkpt lat="44.92009" lon="4.31484">
        <ele>950.2</ele>
        <time>2026-05-06T09:10:39Z</time>
      </trkpt>
      <trkpt lat="44.92" lon="4.31476">
        <ele>950</ele>
        <time>2026-05-06T09:10:44Z</time>
      </trkpt>
      <trkpt lat="44.91995" lon="4.31466">
        <ele>950.5</ele>
        <time>2026-05-06T09:10:49Z</time>
      </trkpt>
      <trkpt lat="44.9199" lon="4.31462">
        <ele>950.5</ele>
        <time>2026-05-06T09:10:54Z</time>
      </trkpt>
      <trkpt lat="44.91982" lon="4.31453">
        <ele>951</ele>
        <time>2026-05-06T09:10:59Z</time>
      </trkpt>
      <trkpt lat="44.91973" lon="4.31448">
        <ele>951.2</ele>
        <time>2026-05-06T09:11:04Z</time>
      </trkpt>
      <trkpt lat="44.91968" lon="4.31445">
        <ele>951.4</ele>
        <time>2026-05-06T09:11:09Z</time>
      </trkpt>
      <trkpt lat="44.91962" lon="4.31444">
        <ele>951.4</ele>
        <time>2026-05-06T09:11:14Z</time>
      </trkpt>
      <trkpt lat="44.91954" lon="4.31442">
        <ele>951.4</ele>
        <time>2026-05-06T09:11:19Z</time>
      </trkpt>
      <trkpt lat="44.91947" lon="4.31438">
        <ele>951.9</ele>
        <time>2026-05-06T09:11:24Z</time>
      </trkpt>
      <trkpt lat="44.91943" lon="4.31432">
        <ele>952.9</ele>
        <time>2026-05-06T09:11:29Z</time>
      </trkpt>
      <trkpt lat="44.91936" lon="4.31429">
        <ele>953.4</ele>
        <time>2026-05-06T09:11:34Z</time>
      </trkpt>
      <trkpt lat="44.91928" lon="4.31424">
        <ele>954.3</ele>
        <time>2026-05-06T09:11:39Z</time>
      </trkpt>
      <trkpt lat="44.91922" lon="4.31422">
        <ele>954.8</ele>
        <time>2026-05-06T09:11:44Z</time>
      </trkpt>
      <trkpt lat="44.91918" lon="4.31419">
        <ele>955.5</ele>
        <time>2026-05-06T09:11:49Z</time>
      </trkpt>
      <trkpt lat="44.91915" lon="4.31417">
        <ele>956</ele>
        <time>2026-05-06T09:11:54Z</time>
      </trkpt>
      <trkpt lat="44.91915" lon="4.31417">
        <ele>956</ele>
        <time>2026-05-06T09:11:59Z</time>
      </trkpt>
      <trkpt lat="44.91915" lon="4.31417">
        <ele>956</ele>
        <time>2026-05-06T09:12:04Z</time>
      </trkpt>
      <trkpt lat="44.91914" lon="4.31413">
        <ele>956.4</ele>
        <time>2026-05-06T09:12:09Z</time>
      </trkpt>
      <trkpt lat="44.91913" lon="4.31407">
        <ele>957</ele>
        <time>2026-05-06T09:12:14Z</time>
      </trkpt>
      <trkpt lat="44.91912" lon="4.31402">
        <ele>957.5</ele>
        <time>2026-05-06T09:12:19Z</time>
      </trkpt>
      <trkpt lat="44.91911" lon="4.31395">
        <ele>958.2</ele>
        <time>2026-05-06T09:12:24Z</time>
      </trkpt>
      <trkpt lat="44.91911" lon="4.31389">
        <ele>958.7</ele>
        <time>2026-05-06T09:12:29Z</time>
      </trkpt>
      <trkpt lat="44.91909" lon="4.3138">
        <ele>959.6</ele>
        <time>2026-05-06T09:12:34Z</time>
      </trkpt>
      <trkpt lat="44.91907" lon="4.31369">
        <ele>960.7</ele>
        <time>2026-05-06T09:12:39Z</time>
      </trkpt>
      <trkpt lat="44.91903" lon="4.31361">
        <ele>961.5</ele>
        <time>2026-05-06T09:12:44Z</time>
      </trkpt>
      <trkpt lat="44.91899" lon="4.31354">
        <ele>962.1</ele>
        <time>2026-05-06T09:12:49Z</time>
      </trkpt>
      <trkpt lat="44.91893" lon="4.31347">
        <ele>962.8</ele>
        <time>2026-05-06T09:12:54Z</time>
      </trkpt>
      <trkpt lat="44.91886" lon="4.31343">
        <ele>963.2</ele>
        <time>2026-05-06T09:12:59Z</time>
      </trkpt>
      <trkpt lat="44.91883" lon="4.3134">
        <ele>963.4</ele>
        <time>2026-05-06T09:13:04Z</time>
      </trkpt>
      <trkpt lat="44.91879" lon="4.31338">
        <ele>963.6</ele>
        <time>2026-05-06T09:13:09Z</time>
      </trkpt>
      <trkpt lat="44.91875" lon="4.31335">
        <ele>963.9</ele>
        <time>2026-05-06T09:13:14Z</time>
      </trkpt>
      <trkpt lat="44.91869" lon="4.3133">
        <ele>964</ele>
        <time>2026-05-06T09:13:19Z</time>
      </trkpt>
      <trkpt lat="44.91864" lon="4.31324">
        <ele>964</ele>
        <time>2026-05-06T09:13:24Z</time>
      </trkpt>
      <trkpt lat="44.91858" lon="4.31319">
        <ele>964</ele>
        <time>2026-05-06T09:13:29Z</time>
      </trkpt>
      <trkpt lat="44.91852" lon="4.31312">
        <ele>964.2</ele>
        <time>2026-05-06T09:13:34Z</time>
      </trkpt>
      <trkpt lat="44.91848" lon="4.31305">
        <ele>964.3</ele>
        <time>2026-05-06T09:13:39Z</time>
      </trkpt>
      <trkpt lat="44.91843" lon="4.31299">
        <ele>964.5</ele>
        <time>2026-05-06T09:13:44Z</time>
      </trkpt>
      <trkpt lat="44.91838" lon="4.31292">
        <ele>964.8</ele>
        <time>2026-05-06T09:13:49Z</time>
      </trkpt>
      <trkpt lat="44.91834" lon="4.31289">
        <ele>965</ele>
        <time>2026-05-06T09:13:54Z</time>
      </trkpt>
      <trkpt lat="44.91831" lon="4.31288">
        <ele>965.3</ele>
        <time>2026-05-06T09:13:59Z</time>
      </trkpt>
      <trkpt lat="44.91828" lon="4.31283">
        <ele>965.7</ele>
        <time>2026-05-06T09:14:04Z</time>
      </trkpt>
      <trkpt lat="44.91823" lon="4.31277">
        <ele>966.4</ele>
        <time>2026-05-06T09:14:09Z</time>
      </trkpt>
      <trkpt lat="44.91818" lon="4.3127">
        <ele>967.2</ele>
        <time>2026-05-06T09:14:14Z</time>
      </trkpt>
      <trkpt lat="44.91813" lon="4.31264">
        <ele>968</ele>
        <time>2026-05-06T09:14:19Z</time>
      </trkpt>
      <trkpt lat="44.91808" lon="4.3126">
        <ele>968.8</ele>
        <time>2026-05-06T09:14:24Z</time>
      </trkpt>
      <trkpt lat="44.91802" lon="4.31255">
        <ele>969.8</ele>
        <time>2026-05-06T09:14:29Z</time>
      </trkpt>
      <trkpt lat="44.91795" lon="4.3125">
        <ele>971.1</ele>
        <time>2026-05-06T09:14:34Z</time>
      </trkpt>
      <trkpt lat="44.91788" lon="4.31246">
        <ele>972.1</ele>
        <time>2026-05-06T09:14:39Z</time>
      </trkpt>
      <trkpt lat="44.91785" lon="4.31246">
        <ele>972.5</ele>
        <time>2026-05-06T09:14:44Z</time>
      </trkpt>
      <trkpt lat="44.91783" lon="4.31245">
        <ele>972.8</ele>
        <time>2026-05-06T09:14:49Z</time>
      </trkpt>
      <trkpt lat="44.91778" lon="4.31244">
        <ele>973.5</ele>
        <time>2026-05-06T09:14:54Z</time>
      </trkpt>
      <trkpt lat="44.91769" lon="4.31243">
        <ele>974.7</ele>
        <time>2026-05-06T09:14:59Z</time>
      </trkpt>
      <trkpt lat="44.91762" lon="4.31248">
        <ele>975.5</ele>
        <time>2026-05-06T09:15:04Z</time>
      </trkpt>
      <trkpt lat="44.91759" lon="4.31255">
        <ele>975.3</ele>
        <time>2026-05-06T09:15:09Z</time>
      </trkpt>
      <trkpt lat="44.91756" lon="4.3126">
        <ele>975.1</ele>
        <time>2026-05-06T09:15:14Z</time>
      </trkpt>
      <trkpt lat="44.91753" lon="4.31264">
        <ele>975</ele>
        <time>2026-05-06T09:15:19Z</time>
      </trkpt>
      <trkpt lat="44.91749" lon="4.31267">
        <ele>975.3</ele>
        <time>2026-05-06T09:15:24Z</time>
      </trkpt>
      <trkpt lat="44.91748" lon="4.31274">
        <ele>974.7</ele>
        <time>2026-05-06T09:15:29Z</time>
      </trkpt>
      <trkpt lat="44.91747" lon="4.31278">
        <ele>974.5</ele>
        <time>2026-05-06T09:15:34Z</time>
      </trkpt>
      <trkpt lat="44.91742" lon="4.31283">
        <ele>975.1</ele>
        <time>2026-05-06T09:15:39Z</time>
      </trkpt>
      <trkpt lat="44.91736" lon="4.3129">
        <ele>975.5</ele>
        <time>2026-05-06T09:15:44Z</time>
      </trkpt>
      <trkpt lat="44.91731" lon="4.31298">
        <ele>975.4</ele>
        <time>2026-05-06T09:15:49Z</time>
      </trkpt>
      <trkpt lat="44.91726" lon="4.31305">
        <ele>975.1</ele>
        <time>2026-05-06T09:15:54Z</time>
      </trkpt>
      <trkpt lat="44.91727" lon="4.31307">
        <ele>974.6</ele>
        <time>2026-05-06T09:15:59Z</time>
      </trkpt>
      <trkpt lat="44.9173" lon="4.31301">
        <ele>975</ele>
        <time>2026-05-06T09:16:04Z</time>
      </trkpt>
      <trkpt lat="44.91736" lon="4.31293">
        <ele>975.1</ele>
        <time>2026-05-06T09:16:09Z</time>
      </trkpt>
      <trkpt lat="44.9174" lon="4.31286">
        <ele>975.2</ele>
        <time>2026-05-06T09:16:14Z</time>
      </trkpt>
      <trkpt lat="44.91745" lon="4.31279">
        <ele>974.9</ele>
        <time>2026-05-06T09:16:19Z</time>
      </trkpt>
      <trkpt lat="44.9175" lon="4.31275">
        <ele>974</ele>
        <time>2026-05-06T09:16:24Z</time>
      </trkpt>
      <trkpt lat="44.91753" lon="4.31269">
        <ele>974.4</ele>
        <time>2026-05-06T09:16:29Z</time>
      </trkpt>
      <trkpt lat="44.91758" lon="4.31262">
        <ele>974.6</ele>
        <time>2026-05-06T09:16:34Z</time>
      </trkpt>
      <trkpt lat="44.91764" lon="4.31254">
        <ele>974.7</ele>
        <time>2026-05-06T09:16:39Z</time>
      </trkpt>
      <trkpt lat="44.91768" lon="4.31248">
        <ele>974.7</ele>
        <time>2026-05-06T09:16:44Z</time>
      </trkpt>
      <trkpt lat="44.91773" lon="4.31243">
        <ele>974.2</ele>
        <time>2026-05-06T09:16:49Z</time>
      </trkpt>
      <trkpt lat="44.91777" lon="4.3124">
        <ele>973.8</ele>
        <time>2026-05-06T09:16:54Z</time>
      </trkpt>
      <trkpt lat="44.91781" lon="4.31238">
        <ele>973.3</ele>
        <time>2026-05-06T09:16:59Z</time>
      </trkpt>
      <trkpt lat="44.91782" lon="4.31235">
        <ele>973.3</ele>
        <time>2026-05-06T09:17:04Z</time>
      </trkpt>
      <trkpt lat="44.91782" lon="4.31235">
        <ele>973.3</ele>
        <time>2026-05-06T09:17:09Z</time>
      </trkpt>
      <trkpt lat="44.91783" lon="4.31236">
        <ele>973.1</ele>
        <time>2026-05-06T09:17:14Z</time>
      </trkpt>
      <trkpt lat="44.9178" lon="4.3123">
        <ele>973.8</ele>
        <time>2026-05-06T09:17:19Z</time>
      </trkpt>
      <trkpt lat="44.91777" lon="4.31225">
        <ele>974.3</ele>
        <time>2026-05-06T09:17:24Z</time>
      </trkpt>
      <trkpt lat="44.91773" lon="4.3122">
        <ele>975</ele>
        <time>2026-05-06T09:17:29Z</time>
      </trkpt>
      <trkpt lat="44.91768" lon="4.31214">
        <ele>975.9</ele>
        <time>2026-05-06T09:17:34Z</time>
      </trkpt>
      <trkpt lat="44.91763" lon="4.31208">
        <ele>976.8</ele>
        <time>2026-05-06T09:17:39Z</time>
      </trkpt>
      <trkpt lat="44.91758" lon="4.31204">
        <ele>977.6</ele>
        <time>2026-05-06T09:17:44Z</time>
      </trkpt>
      <trkpt lat="44.91751" lon="4.31197">
        <ele>978.8</ele>
        <time>2026-05-06T09:17:49Z</time>
      </trkpt>
      <trkpt lat="44.91748" lon="4.31192">
        <ele>979.8</ele>
        <time>2026-05-06T09:17:54Z</time>
      </trkpt>
      <trkpt lat="44.91744" lon="4.31189">
        <ele>981.3</ele>
        <time>2026-05-06T09:17:59Z</time>
      </trkpt>
      <trkpt lat="44.91739" lon="4.31183">
        <ele>983.2</ele>
        <time>2026-05-06T09:18:04Z</time>
      </trkpt>
      <trkpt lat="44.91735" lon="4.31174">
        <ele>985</ele>
        <time>2026-05-06T09:18:09Z</time>
      </trkpt>
      <trkpt lat="44.91731" lon="4.31166">
        <ele>986.6</ele>
        <time>2026-05-06T09:18:14Z</time>
      </trkpt>
      <trkpt lat="44.91726" lon="4.31159">
        <ele>988.1</ele>
        <time>2026-05-06T09:18:19Z</time>
      </trkpt>
      <trkpt lat="44.91722" lon="4.31156">
        <ele>989.4</ele>
        <time>2026-05-06T09:18:24Z</time>
      </trkpt>
      <trkpt lat="44.91713" lon="4.31154">
        <ele>992.5</ele>
        <time>2026-05-06T09:18:29Z</time>
      </trkpt>
      <trkpt lat="44.91706" lon="4.31152">
        <ele>994.9</ele>
        <time>2026-05-06T09:18:34Z</time>
      </trkpt>
      <trkpt lat="44.917" lon="4.31153">
        <ele>997</ele>
        <time>2026-05-06T09:18:39Z</time>
      </trkpt>
      <trkpt lat="44.91695" lon="4.3115">
        <ele>998.7</ele>
        <time>2026-05-06T09:18:44Z</time>
      </trkpt>
      <trkpt lat="44.91691" lon="4.31145">
        <ele>1000</ele>
        <time>2026-05-06T09:18:49Z</time>
      </trkpt>
      <trkpt lat="44.91687" lon="4.3114">
        <ele>1001.4</ele>
        <time>2026-05-06T09:18:54Z</time>
      </trkpt>
      <trkpt lat="44.91681" lon="4.31135">
        <ele>1003.4</ele>
        <time>2026-05-06T09:18:59Z</time>
      </trkpt>
      <trkpt lat="44.91677" lon="4.31136">
        <ele>1004.9</ele>
        <time>2026-05-06T09:19:04Z</time>
      </trkpt>
      <trkpt lat="44.91675" lon="4.31133">
        <ele>1005.6</ele>
        <time>2026-05-06T09:19:09Z</time>
      </trkpt>
      <trkpt lat="44.91675" lon="4.31129">
        <ele>1005.5</ele>
        <time>2026-05-06T09:19:14Z</time>
      </trkpt>
      <trkpt lat="44.91675" lon="4.31128">
        <ele>1005.5</ele>
        <time>2026-05-06T09:19:19Z</time>
      </trkpt>
      <trkpt lat="44.91675" lon="4.31128">
        <ele>1005.5</ele>
        <time>2026-05-06T09:19:24Z</time>
      </trkpt>
      <trkpt lat="44.91666" lon="4.3112">
        <ele>1008.6</ele>
        <time>2026-05-06T09:19:29Z</time>
      </trkpt>
      <trkpt lat="44.9166" lon="4.31119">
        <ele>1010</ele>
        <time>2026-05-06T09:19:34Z</time>
      </trkpt>
      <trkpt lat="44.91656" lon="4.31119">
        <ele>1010.9</ele>
        <time>2026-05-06T09:19:39Z</time>
      </trkpt>
      <trkpt lat="44.91653" lon="4.31121">
        <ele>1011.6</ele>
        <time>2026-05-06T09:19:44Z</time>
      </trkpt>
      <trkpt lat="44.91649" lon="4.3112">
        <ele>1012.5</ele>
        <time>2026-05-06T09:19:49Z</time>
      </trkpt>
      <trkpt lat="44.91648" lon="4.31117">
        <ele>1012.7</ele>
        <time>2026-05-06T09:19:54Z</time>
      </trkpt>
      <trkpt lat="44.91647" lon="4.31116">
        <ele>1012.9</ele>
        <time>2026-05-06T09:19:59Z</time>
      </trkpt>
      <trkpt lat="44.91647" lon="4.31116">
        <ele>1012.9</ele>
        <time>2026-05-06T09:20:04Z</time>
      </trkpt>
      <trkpt lat="44.91647" lon="4.31116">
        <ele>1012.9</ele>
        <time>2026-05-06T09:20:09Z</time>
      </trkpt>
      <trkpt lat="44.91641" lon="4.31103">
        <ele>1014</ele>
        <time>2026-05-06T09:20:14Z</time>
      </trkpt>
      <trkpt lat="44.91638" lon="4.31101">
        <ele>1014.6</ele>
        <time>2026-05-06T09:20:19Z</time>
      </trkpt>
      <trkpt lat="44.91637" lon="4.31096">
        <ele>1014.7</ele>
        <time>2026-05-06T09:20:24Z</time>
      </trkpt>
      <trkpt lat="44.91635" lon="4.31092">
        <ele>1015.1</ele>
        <time>2026-05-06T09:20:29Z</time>
      </trkpt>
      <trkpt lat="44.91633" lon="4.31089">
        <ele>1015.4</ele>
        <time>2026-05-06T09:20:34Z</time>
      </trkpt>
      <trkpt lat="44.91633" lon="4.31088">
        <ele>1015.4</ele>
        <time>2026-05-06T09:20:39Z</time>
      </trkpt>
      <trkpt lat="44.9163" lon="4.31082">
        <ele>1016.1</ele>
        <time>2026-05-06T09:20:44Z</time>
      </trkpt>
      <trkpt lat="44.9163" lon="4.31082">
        <ele>1016.1</ele>
        <time>2026-05-06T09:20:49Z</time>
      </trkpt>
      <trkpt lat="44.91626" lon="4.31074">
        <ele>1018.2</ele>
        <time>2026-05-06T09:20:54Z</time>
      </trkpt>
      <trkpt lat="44.91622" lon="4.31069">
        <ele>1019.9</ele>
        <time>2026-05-06T09:20:59Z</time>
      </trkpt>
      <trkpt lat="44.9162" lon="4.31065">
        <ele>1020.9</ele>
        <time>2026-05-06T09:21:04Z</time>
      </trkpt>
      <trkpt lat="44.91618" lon="4.31063">
        <ele>1021.6</ele>
        <time>2026-05-06T09:21:09Z</time>
      </trkpt>
      <trkpt lat="44.91616" lon="4.31059">
        <ele>1022.6</ele>
        <time>2026-05-06T09:21:14Z</time>
      </trkpt>
      <trkpt lat="44.91616" lon="4.31058">
        <ele>1022.8</ele>
        <time>2026-05-06T09:21:19Z</time>
      </trkpt>
      <trkpt lat="44.9161" lon="4.31052">
        <ele>1024.9</ele>
        <time>2026-05-06T09:21:24Z</time>
      </trkpt>
      <trkpt lat="44.91606" lon="4.31054">
        <ele>1025.4</ele>
        <time>2026-05-06T09:21:29Z</time>
      </trkpt>
      <trkpt lat="44.91607" lon="4.31061">
        <ele>1024.1</ele>
        <time>2026-05-06T09:21:34Z</time>
      </trkpt>
      <trkpt lat="44.91609" lon="4.31067">
        <ele>1022.9</ele>
        <time>2026-05-06T09:21:39Z</time>
      </trkpt>
      <trkpt lat="44.91608" lon="4.31074">
        <ele>1022</ele>
        <time>2026-05-06T09:21:44Z</time>
      </trkpt>
      <trkpt lat="44.91606" lon="4.31079">
        <ele>1021.7</ele>
        <time>2026-05-06T09:21:49Z</time>
      </trkpt>
      <trkpt lat="44.91604" lon="4.31085">
        <ele>1021.6</ele>
        <time>2026-05-06T09:21:54Z</time>
      </trkpt>
      <trkpt lat="44.91603" lon="4.3109">
        <ele>1022</ele>
        <time>2026-05-06T09:21:59Z</time>
      </trkpt>
      <trkpt lat="44.91603" lon="4.31096">
        <ele>1022.3</ele>
        <time>2026-05-06T09:22:04Z</time>
      </trkpt>
      <trkpt lat="44.91602" lon="4.31104">
        <ele>1022.8</ele>
        <time>2026-05-06T09:22:09Z</time>
      </trkpt>
      <trkpt lat="44.91603" lon="4.31113">
        <ele>1022.9</ele>
        <time>2026-05-06T09:22:14Z</time>
      </trkpt>
      <trkpt lat="44.91602" lon="4.3112">
        <ele>1023.4</ele>
        <time>2026-05-06T09:22:19Z</time>
      </trkpt>
      <trkpt lat="44.91601" lon="4.31123">
        <ele>1023.8</ele>
        <time>2026-05-06T09:22:24Z</time>
      </trkpt>
      <trkpt lat="44.91602" lon="4.31127">
        <ele>1023.7</ele>
        <time>2026-05-06T09:22:29Z</time>
      </trkpt>
      <trkpt lat="44.91602" lon="4.3113">
        <ele>1023.8</ele>
        <time>2026-05-06T09:22:34Z</time>
      </trkpt>
      <trkpt lat="44.91603" lon="4.31134">
        <ele>1023.8</ele>
        <time>2026-05-06T09:22:39Z</time>
      </trkpt>
      <trkpt lat="44.91604" lon="4.31138">
        <ele>1023.7</ele>
        <time>2026-05-06T09:22:44Z</time>
      </trkpt>
      <trkpt lat="44.91604" lon="4.31142">
        <ele>1023.8</ele>
        <time>2026-05-06T09:22:49Z</time>
      </trkpt>
      <trkpt lat="44.91604" lon="4.31146">
        <ele>1024</ele>
        <time>2026-05-06T09:22:54Z</time>
      </trkpt>
      <trkpt lat="44.91604" lon="4.3115">
        <ele>1024.1</ele>
        <time>2026-05-06T09:22:59Z</time>
      </trkpt>
      <trkpt lat="44.91604" lon="4.31151">
        <ele>1024.2</ele>
        <time>2026-05-06T09:23:04Z</time>
      </trkpt>
      <trkpt lat="44.91604" lon="4.31151">
        <ele>1024.2</ele>
        <time>2026-05-06T09:23:09Z</time>
      </trkpt>
      <trkpt lat="44.91604" lon="4.31151">
        <ele>1024.2</ele>
        <time>2026-05-06T09:23:14Z</time>
      </trkpt>
      <trkpt lat="44.91604" lon="4.31151">
        <ele>1024.2</ele>
        <time>2026-05-06T09:23:19Z</time>
      </trkpt>
      <trkpt lat="44.91604" lon="4.31151">
        <ele>1024.2</ele>
        <time>2026-05-06T09:23:24Z</time>
      </trkpt>
      <trkpt lat="44.91604" lon="4.31151">
        <ele>1024.2</ele>
        <time>2026-05-06T09:23:29Z</time>
      </trkpt>
      <trkpt lat="44.91604" lon="4.31151">
        <ele>1024.2</ele>
        <time>2026-05-06T09:23:34Z</time>
      </trkpt>
      <trkpt lat="44.91604" lon="4.31151">
        <ele>1024.2</ele>
        <time>2026-05-06T09:23:39Z</time>
      </trkpt>
      <trkpt lat="44.91604" lon="4.31151">
        <ele>1024.2</ele>
        <time>2026-05-06T09:23:44Z</time>
      </trkpt>
      <trkpt lat="44.91604" lon="4.31151">
        <ele>1024.2</ele>
        <time>2026-05-06T09:23:49Z</time>
      </trkpt>
      <trkpt lat="44.91604" lon="4.31151">
        <ele>1024.2</ele>
        <time>2026-05-06T09:23:54Z</time>
      </trkpt>
      <trkpt lat="44.91604" lon="4.31151">
        <ele>1024.2</ele>
        <time>2026-05-06T09:23:59Z</time>
      </trkpt>
      <trkpt lat="44.916" lon="4.31148">
        <ele>1025</ele>
        <time>2026-05-06T09:24:04Z</time>
      </trkpt>
      <trkpt lat="44.91596" lon="4.31143">
        <ele>1025.8</ele>
        <time>2026-05-06T09:24:09Z</time>
      </trkpt>
      <trkpt lat="44.91594" lon="4.31139">
        <ele>1026.1</ele>
        <time>2026-05-06T09:24:14Z</time>
      </trkpt>
      <trkpt lat="44.91593" lon="4.31134">
        <ele>1026.1</ele>
        <time>2026-05-06T09:24:19Z</time>
      </trkpt>
      <trkpt lat="44.91591" lon="4.3113">
        <ele>1026.4</ele>
        <time>2026-05-06T09:24:24Z</time>
      </trkpt>
      <trkpt lat="44.91588" lon="4.31126">
        <ele>1027</ele>
        <time>2026-05-06T09:24:29Z</time>
      </trkpt>
      <trkpt lat="44.91588" lon="4.31124">
        <ele>1026.9</ele>
        <time>2026-05-06T09:24:34Z</time>
      </trkpt>
      <trkpt lat="44.91588" lon="4.31124">
        <ele>1026.9</ele>
        <time>2026-05-06T09:24:39Z</time>
      </trkpt>
      <trkpt lat="44.91588" lon="4.31124">
        <ele>1026.9</ele>
        <time>2026-05-06T09:24:44Z</time>
      </trkpt>
      <trkpt lat="44.91588" lon="4.31124">
        <ele>1026.9</ele>
        <time>2026-05-06T09:24:49Z</time>
      </trkpt>
      <trkpt lat="44.91588" lon="4.31124">
        <ele>1026.9</ele>
        <time>2026-05-06T09:24:54Z</time>
      </trkpt>
      <trkpt lat="44.91588" lon="4.31124">
        <ele>1026.9</ele>
        <time>2026-05-06T09:24:59Z</time>
      </trkpt>
      <trkpt lat="44.91588" lon="4.31124">
        <ele>1026.9</ele>
        <time>2026-05-06T09:25:04Z</time>
      </trkpt>
      <trkpt lat="44.91588" lon="4.31124">
        <ele>1026.9</ele>
        <time>2026-05-06T09:25:09Z</time>
      </trkpt>
      <trkpt lat="44.91588" lon="4.31124">
        <ele>1026.9</ele>
        <time>2026-05-06T09:25:14Z</time>
      </trkpt>
      <trkpt lat="44.91588" lon="4.31124">
        <ele>1026.9</ele>
        <time>2026-05-06T09:25:19Z</time>
      </trkpt>
      <trkpt lat="44.91588" lon="4.31124">
        <ele>1026.9</ele>
        <time>2026-05-06T09:25:24Z</time>
      </trkpt>
      <trkpt lat="44.91588" lon="4.31124">
        <ele>1026.9</ele>
        <time>2026-05-06T09:25:29Z</time>
      </trkpt>
      <trkpt lat="44.91587" lon="4.31116">
        <ele>1026.7</ele>
        <time>2026-05-06T09:25:34Z</time>
      </trkpt>
      <trkpt lat="44.91586" lon="4.31112">
        <ele>1026.8</ele>
        <time>2026-05-06T09:25:39Z</time>
      </trkpt>
      <trkpt lat="44.91582" lon="4.31111">
        <ele>1026.9</ele>
        <time>2026-05-06T09:25:44Z</time>
      </trkpt>
      <trkpt lat="44.91579" lon="4.3111">
        <ele>1026</ele>
        <time>2026-05-06T09:25:49Z</time>
      </trkpt>
      <trkpt lat="44.91576" lon="4.31107">
        <ele>1025.1</ele>
        <time>2026-05-06T09:25:54Z</time>
      </trkpt>
      <trkpt lat="44.91572" lon="4.31105">
        <ele>1023.9</ele>
        <time>2026-05-06T09:25:59Z</time>
      </trkpt>
      <trkpt lat="44.9157" lon="4.31102">
        <ele>1023.2</ele>
        <time>2026-05-06T09:26:04Z</time>
      </trkpt>
      <trkpt lat="44.91568" lon="4.31099">
        <ele>1022.6</ele>
        <time>2026-05-06T09:26:09Z</time>
      </trkpt>
      <trkpt lat="44.91566" lon="4.31096">
        <ele>1022</ele>
        <time>2026-05-06T09:26:14Z</time>
      </trkpt>
      <trkpt lat="44.91564" lon="4.31092">
        <ele>1021.3</ele>
        <time>2026-05-06T09:26:19Z</time>
      </trkpt>
      <trkpt lat="44.91563" lon="4.31091">
        <ele>1021</ele>
        <time>2026-05-06T09:26:24Z</time>
      </trkpt>
      <trkpt lat="44.91563" lon="4.31091">
        <ele>1021</ele>
        <time>2026-05-06T09:26:29Z</time>
      </trkpt>
      <trkpt lat="44.91556" lon="4.31087">
        <ele>1019.2</ele>
        <time>2026-05-06T09:26:34Z</time>
      </trkpt>
      <trkpt lat="44.91552" lon="4.31086">
        <ele>1018.1</ele>
        <time>2026-05-06T09:26:39Z</time>
      </trkpt>
      <trkpt lat="44.91548" lon="4.31084">
        <ele>1017.1</ele>
        <time>2026-05-06T09:26:44Z</time>
      </trkpt>
      <trkpt lat="44.91544" lon="4.31082">
        <ele>1016.2</ele>
        <time>2026-05-06T09:26:49Z</time>
      </trkpt>
      <trkpt lat="44.9154" lon="4.3108">
        <ele>1015.4</ele>
        <time>2026-05-06T09:26:54Z</time>
      </trkpt>
      <trkpt lat="44.91536" lon="4.31078">
        <ele>1014.6</ele>
        <time>2026-05-06T09:26:59Z</time>
      </trkpt>
      <trkpt lat="44.91533" lon="4.31077">
        <ele>1013.9</ele>
        <time>2026-05-06T09:27:04Z</time>
      </trkpt>
      <trkpt lat="44.91528" lon="4.31074">
        <ele>1012.9</ele>
        <time>2026-05-06T09:27:09Z</time>
      </trkpt>
      <trkpt lat="44.91527" lon="4.31073">
        <ele>1012.7</ele>
        <time>2026-05-06T09:27:14Z</time>
      </trkpt>
      <trkpt lat="44.91527" lon="4.31073">
        <ele>1012.7</ele>
        <time>2026-05-06T09:27:19Z</time>
      </trkpt>
      <trkpt lat="44.91519" lon="4.31067">
        <ele>1011.2</ele>
        <time>2026-05-06T09:27:24Z</time>
      </trkpt>
      <trkpt lat="44.91515" lon="4.31068">
        <ele>1010</ele>
        <time>2026-05-06T09:27:29Z</time>
      </trkpt>
      <trkpt lat="44.9151" lon="4.31066">
        <ele>1008.9</ele>
        <time>2026-05-06T09:27:34Z</time>
      </trkpt>
      <trkpt lat="44.91507" lon="4.31064">
        <ele>1008.3</ele>
        <time>2026-05-06T09:27:39Z</time>
      </trkpt>
      <trkpt lat="44.91504" lon="4.31063">
        <ele>1007.5</ele>
        <time>2026-05-06T09:27:44Z</time>
      </trkpt>
      <trkpt lat="44.91504" lon="4.31063">
        <ele>1007.5</ele>
        <time>2026-05-06T09:27:49Z</time>
      </trkpt>
      <trkpt lat="44.91498" lon="4.31067">
        <ele>1005.3</ele>
        <time>2026-05-06T09:27:54Z</time>
      </trkpt>
      <trkpt lat="44.91496" lon="4.31065">
        <ele>1004.6</ele>
        <time>2026-05-06T09:27:59Z</time>
      </trkpt>
      <trkpt lat="44.91489" lon="4.31058">
        <ele>1002.2</ele>
        <time>2026-05-06T09:28:04Z</time>
      </trkpt>
      <trkpt lat="44.91486" lon="4.31052">
        <ele>1001.5</ele>
        <time>2026-05-06T09:28:09Z</time>
      </trkpt>
      <trkpt lat="44.91481" lon="4.3105">
        <ele>999.6</ele>
        <time>2026-05-06T09:28:14Z</time>
      </trkpt>
      <trkpt lat="44.91475" lon="4.31049">
        <ele>997.2</ele>
        <time>2026-05-06T09:28:19Z</time>
      </trkpt>
      <trkpt lat="44.91472" lon="4.31047">
        <ele>996.1</ele>
        <time>2026-05-06T09:28:24Z</time>
      </trkpt>
      <trkpt lat="44.91471" lon="4.31046">
        <ele>995.8</ele>
        <time>2026-05-06T09:28:29Z</time>
      </trkpt>
      <trkpt lat="44.91471" lon="4.31046">
        <ele>995.8</ele>
        <time>2026-05-06T09:28:34Z</time>
      </trkpt>
      <trkpt lat="44.91471" lon="4.31046">
        <ele>995.8</ele>
        <time>2026-05-06T09:28:39Z</time>
      </trkpt>
      <trkpt lat="44.91471" lon="4.31046">
        <ele>995.8</ele>
        <time>2026-05-06T09:28:44Z</time>
      </trkpt>
      <trkpt lat="44.91465" lon="4.31043">
        <ele>993.6</ele>
        <time>2026-05-06T09:28:49Z</time>
      </trkpt>
      <trkpt lat="44.91457" lon="4.3104">
        <ele>990.6</ele>
        <time>2026-05-06T09:28:54Z</time>
      </trkpt>
      <trkpt lat="44.91451" lon="4.31034">
        <ele>988.8</ele>
        <time>2026-05-06T09:28:59Z</time>
      </trkpt>
      <trkpt lat="44.91448" lon="4.31031">
        <ele>987.9</ele>
        <time>2026-05-06T09:29:04Z</time>
      </trkpt>
      <trkpt lat="44.91446" lon="4.31028">
        <ele>987.4</ele>
        <time>2026-05-06T09:29:09Z</time>
      </trkpt>
      <trkpt lat="44.91444" lon="4.31021">
        <ele>987.3</ele>
        <time>2026-05-06T09:29:14Z</time>
      </trkpt>
      <trkpt lat="44.91441" lon="4.31012">
        <ele>987.1</ele>
        <time>2026-05-06T09:29:19Z</time>
      </trkpt>
      <trkpt lat="44.91438" lon="4.31004">
        <ele>986.8</ele>
        <time>2026-05-06T09:29:24Z</time>
      </trkpt>
      <trkpt lat="44.91436" lon="4.30998">
        <ele>986.6</ele>
        <time>2026-05-06T09:29:29Z</time>
      </trkpt>
      <trkpt lat="44.91432" lon="4.30989">
        <ele>986</ele>
        <time>2026-05-06T09:29:34Z</time>
      </trkpt>
      <trkpt lat="44.91425" lon="4.30978">
        <ele>984.4</ele>
        <time>2026-05-06T09:29:39Z</time>
      </trkpt>
      <trkpt lat="44.91422" lon="4.3097">
        <ele>984</ele>
        <time>2026-05-06T09:29:44Z</time>
      </trkpt>
      <trkpt lat="44.91418" lon="4.30961">
        <ele>983.3</ele>
        <time>2026-05-06T09:29:49Z</time>
      </trkpt>
      <trkpt lat="44.91416" lon="4.30955">
        <ele>983.2</ele>
        <time>2026-05-06T09:29:54Z</time>
      </trkpt>
      <trkpt lat="44.9141" lon="4.3095">
        <ele>982.3</ele>
        <time>2026-05-06T09:29:59Z</time>
      </trkpt>
      <trkpt lat="44.91403" lon="4.30947">
        <ele>981.1</ele>
        <time>2026-05-06T09:30:04Z</time>
      </trkpt>
      <trkpt lat="44.91396" lon="4.30943">
        <ele>979.9</ele>
        <time>2026-05-06T09:30:09Z</time>
      </trkpt>
      <trkpt lat="44.91389" lon="4.30937">
        <ele>979</ele>
        <time>2026-05-06T09:30:14Z</time>
      </trkpt>
      <trkpt lat="44.91385" lon="4.30935">
        <ele>978.3</ele>
        <time>2026-05-06T09:30:19Z</time>
      </trkpt>
      <trkpt lat="44.9138" lon="4.30931">
        <ele>977.6</ele>
        <time>2026-05-06T09:30:24Z</time>
      </trkpt>
      <trkpt lat="44.91375" lon="4.30925">
        <ele>977.1</ele>
        <time>2026-05-06T09:30:29Z</time>
      </trkpt>
      <trkpt lat="44.91371" lon="4.30922">
        <ele>976.6</ele>
        <time>2026-05-06T09:30:34Z</time>
      </trkpt>
      <trkpt lat="44.91372" lon="4.3092">
        <ele>977</ele>
        <time>2026-05-06T09:30:39Z</time>
      </trkpt>
      <trkpt lat="44.91372" lon="4.3092">
        <ele>977</ele>
        <time>2026-05-06T09:30:44Z</time>
      </trkpt>
      <trkpt lat="44.91372" lon="4.3092">
        <ele>977</ele>
        <time>2026-05-06T09:30:49Z</time>
      </trkpt>
      <trkpt lat="44.91366" lon="4.3091">
        <ele>976.7</ele>
        <time>2026-05-06T09:30:54Z</time>
      </trkpt>
      <trkpt lat="44.91359" lon="4.30904">
        <ele>975.7</ele>
        <time>2026-05-06T09:30:59Z</time>
      </trkpt>
      <trkpt lat="44.91356" lon="4.309">
        <ele>975.5</ele>
        <time>2026-05-06T09:31:04Z</time>
      </trkpt>
      <trkpt lat="44.91351" lon="4.30895">
        <ele>974.8</ele>
        <time>2026-05-06T09:31:09Z</time>
      </trkpt>
      <trkpt lat="44.91344" lon="4.3089">
        <ele>973.7</ele>
        <time>2026-05-06T09:31:14Z</time>
      </trkpt>
      <trkpt lat="44.91342" lon="4.30888">
        <ele>973.4</ele>
        <time>2026-05-06T09:31:19Z</time>
      </trkpt>
      <trkpt lat="44.91339" lon="4.30882">
        <ele>973.2</ele>
        <time>2026-05-06T09:31:24Z</time>
      </trkpt>
      <trkpt lat="44.91337" lon="4.30876">
        <ele>973.3</ele>
        <time>2026-05-06T09:31:29Z</time>
      </trkpt>
      <trkpt lat="44.91336" lon="4.30869">
        <ele>973.6</ele>
        <time>2026-05-06T09:31:34Z</time>
      </trkpt>
      <trkpt lat="44.91335" lon="4.30864">
        <ele>973.8</ele>
        <time>2026-05-06T09:31:39Z</time>
      </trkpt>
      <trkpt lat="44.91335" lon="4.30863">
        <ele>973.9</ele>
        <time>2026-05-06T09:31:44Z</time>
      </trkpt>
      <trkpt lat="44.91335" lon="4.30857">
        <ele>974.4</ele>
        <time>2026-05-06T09:31:49Z</time>
      </trkpt>
      <trkpt lat="44.91333" lon="4.30853">
        <ele>974.3</ele>
        <time>2026-05-06T09:31:54Z</time>
      </trkpt>
      <trkpt lat="44.91331" lon="4.30849">
        <ele>974.4</ele>
        <time>2026-05-06T09:31:59Z</time>
      </trkpt>
      <trkpt lat="44.91331" lon="4.30848">
        <ele>974.5</ele>
        <time>2026-05-06T09:32:04Z</time>
      </trkpt>
      <trkpt lat="44.91329" lon="4.30838">
        <ele>975.1</ele>
        <time>2026-05-06T09:32:09Z</time>
      </trkpt>
      <trkpt lat="44.91327" lon="4.30832">
        <ele>975.5</ele>
        <time>2026-05-06T09:32:14Z</time>
      </trkpt>
      <trkpt lat="44.91325" lon="4.3083">
        <ele>975.6</ele>
        <time>2026-05-06T09:32:19Z</time>
      </trkpt>
      <trkpt lat="44.91324" lon="4.3083">
        <ele>975.5</ele>
        <time>2026-05-06T09:32:24Z</time>
      </trkpt>
      <trkpt lat="44.91325" lon="4.30823">
        <ele>976.6</ele>
        <time>2026-05-06T09:32:29Z</time>
      </trkpt>
      <trkpt lat="44.91323" lon="4.30816">
        <ele>977.4</ele>
        <time>2026-05-06T09:32:34Z</time>
      </trkpt>
      <trkpt lat="44.91322" lon="4.30811">
        <ele>978</ele>
        <time>2026-05-06T09:32:39Z</time>
      </trkpt>
      <trkpt lat="44.91322" lon="4.30805">
        <ele>978.8</ele>
        <time>2026-05-06T09:32:44Z</time>
      </trkpt>
      <trkpt lat="44.91321" lon="4.30797">
        <ele>979.9</ele>
        <time>2026-05-06T09:32:49Z</time>
      </trkpt>
      <trkpt lat="44.91321" lon="4.30791">
        <ele>980.8</ele>
        <time>2026-05-06T09:32:54Z</time>
      </trkpt>
      <trkpt lat="44.9132" lon="4.30785">
        <ele>981.6</ele>
        <time>2026-05-06T09:32:59Z</time>
      </trkpt>
      <trkpt lat="44.91319" lon="4.30779">
        <ele>982.4</ele>
        <time>2026-05-06T09:33:04Z</time>
      </trkpt>
      <trkpt lat="44.91319" lon="4.30771">
        <ele>983.6</ele>
        <time>2026-05-06T09:33:09Z</time>
      </trkpt>
      <trkpt lat="44.91321" lon="4.30763">
        <ele>984.8</ele>
        <time>2026-05-06T09:33:14Z</time>
      </trkpt>
      <trkpt lat="44.9132" lon="4.30755">
        <ele>986</ele>
        <time>2026-05-06T09:33:19Z</time>
      </trkpt>
      <trkpt lat="44.9132" lon="4.30748">
        <ele>987</ele>
        <time>2026-05-06T09:33:24Z</time>
      </trkpt>
      <trkpt lat="44.9132" lon="4.30741">
        <ele>987.9</ele>
        <time>2026-05-06T09:33:29Z</time>
      </trkpt>
      <trkpt lat="44.91319" lon="4.30733">
        <ele>989</ele>
        <time>2026-05-06T09:33:34Z</time>
      </trkpt>
      <trkpt lat="44.91318" lon="4.30725">
        <ele>990.2</ele>
        <time>2026-05-06T09:33:39Z</time>
      </trkpt>
      <trkpt lat="44.91315" lon="4.30717">
        <ele>991.4</ele>
        <time>2026-05-06T09:33:44Z</time>
      </trkpt>
      <trkpt lat="44.91309" lon="4.30715">
        <ele>991.8</ele>
        <time>2026-05-06T09:33:49Z</time>
      </trkpt>
      <trkpt lat="44.91303" lon="4.30713">
        <ele>992.3</ele>
        <time>2026-05-06T09:33:54Z</time>
      </trkpt>
      <trkpt lat="44.91296" lon="4.3071">
        <ele>993.1</ele>
        <time>2026-05-06T09:33:59Z</time>
      </trkpt>
      <trkpt lat="44.91291" lon="4.30709">
        <ele>993.4</ele>
        <time>2026-05-06T09:34:04Z</time>
      </trkpt>
      <trkpt lat="44.91286" lon="4.30704">
        <ele>994.5</ele>
        <time>2026-05-06T09:34:09Z</time>
      </trkpt>
      <trkpt lat="44.91283" lon="4.30699">
        <ele>995.6</ele>
        <time>2026-05-06T09:34:14Z</time>
      </trkpt>
      <trkpt lat="44.91279" lon="4.30689">
        <ele>997.8</ele>
        <time>2026-05-06T09:34:19Z</time>
      </trkpt>
      <trkpt lat="44.91272" lon="4.30683">
        <ele>999.5</ele>
        <time>2026-05-06T09:34:24Z</time>
      </trkpt>
      <trkpt lat="44.91265" lon="4.30679">
        <ele>1000.9</ele>
        <time>2026-05-06T09:34:29Z</time>
      </trkpt>
      <trkpt lat="44.91259" lon="4.30675">
        <ele>1002.2</ele>
        <time>2026-05-06T09:34:34Z</time>
      </trkpt>
      <trkpt lat="44.91254" lon="4.3067">
        <ele>1003.8</ele>
        <time>2026-05-06T09:34:39Z</time>
      </trkpt>
      <trkpt lat="44.9125" lon="4.30667">
        <ele>1004.9</ele>
        <time>2026-05-06T09:34:44Z</time>
      </trkpt>
      <trkpt lat="44.91249" lon="4.30666">
        <ele>1005.2</ele>
        <time>2026-05-06T09:34:49Z</time>
      </trkpt>
      <trkpt lat="44.91249" lon="4.30666">
        <ele>1005.2</ele>
        <time>2026-05-06T09:34:54Z</time>
      </trkpt>
      <trkpt lat="44.91249" lon="4.30666">
        <ele>1005.2</ele>
        <time>2026-05-06T09:34:59Z</time>
      </trkpt>
      <trkpt lat="44.91249" lon="4.30666">
        <ele>1005.2</ele>
        <time>2026-05-06T09:35:04Z</time>
      </trkpt>
      <trkpt lat="44.91249" lon="4.30666">
        <ele>1005.2</ele>
        <time>2026-05-06T09:35:09Z</time>
      </trkpt>
      <trkpt lat="44.91249" lon="4.30666">
        <ele>1005.2</ele>
        <time>2026-05-06T09:35:14Z</time>
      </trkpt>
      <trkpt lat="44.91249" lon="4.30666">
        <ele>1005.2</ele>
        <time>2026-05-06T09:35:19Z</time>
      </trkpt>
      <trkpt lat="44.91249" lon="4.30666">
        <ele>1005.2</ele>
        <time>2026-05-06T09:35:24Z</time>
      </trkpt>
      <trkpt lat="44.91249" lon="4.30666">
        <ele>1005.2</ele>
        <time>2026-05-06T09:35:29Z</time>
      </trkpt>
      <trkpt lat="44.91249" lon="4.30666">
        <ele>1005.2</ele>
        <time>2026-05-06T09:35:34Z</time>
      </trkpt>
      <trkpt lat="44.91249" lon="4.30666">
        <ele>1005.2</ele>
        <time>2026-05-06T09:35:39Z</time>
      </trkpt>
      <trkpt lat="44.91248" lon="4.30663">
        <ele>1005.7</ele>
        <time>2026-05-06T09:35:44Z</time>
      </trkpt>
      <trkpt lat="44.91245" lon="4.30656">
        <ele>1007</ele>
        <time>2026-05-06T09:35:49Z</time>
      </trkpt>
      <trkpt lat="44.91243" lon="4.30648">
        <ele>1008.5</ele>
        <time>2026-05-06T09:35:54Z</time>
      </trkpt>
      <trkpt lat="44.91243" lon="4.30641">
        <ele>1009.6</ele>
        <time>2026-05-06T09:35:59Z</time>
      </trkpt>
      <trkpt lat="44.9124" lon="4.30636">
        <ele>1010.8</ele>
        <time>2026-05-06T09:36:04Z</time>
      </trkpt>
      <trkpt lat="44.91237" lon="4.30629">
        <ele>1012.4</ele>
        <time>2026-05-06T09:36:09Z</time>
      </trkpt>
      <trkpt lat="44.91235" lon="4.30623">
        <ele>1013.8</ele>
        <time>2026-05-06T09:36:14Z</time>
      </trkpt>
      <trkpt lat="44.91235" lon="4.30621">
        <ele>1014.1</ele>
        <time>2026-05-06T09:36:19Z</time>
      </trkpt>
      <trkpt lat="44.91233" lon="4.30615">
        <ele>1015.6</ele>
        <time>2026-05-06T09:36:24Z</time>
      </trkpt>
      <trkpt lat="44.91232" lon="4.30611">
        <ele>1016.5</ele>
        <time>2026-05-06T09:36:29Z</time>
      </trkpt>
      <trkpt lat="44.9123" lon="4.30606">
        <ele>1017.8</ele>
        <time>2026-05-06T09:36:34Z</time>
      </trkpt>
      <trkpt lat="44.91228" lon="4.30603">
        <ele>1018.8</ele>
        <time>2026-05-06T09:36:39Z</time>
      </trkpt>
      <trkpt lat="44.91224" lon="4.30601">
        <ele>1020</ele>
        <time>2026-05-06T09:36:44Z</time>
      </trkpt>
      <trkpt lat="44.91221" lon="4.30598">
        <ele>1021.3</ele>
        <time>2026-05-06T09:36:49Z</time>
      </trkpt>
      <trkpt lat="44.91219" lon="4.30595">
        <ele>1022.4</ele>
        <time>2026-05-06T09:36:54Z</time>
      </trkpt>
      <trkpt lat="44.91218" lon="4.3059">
        <ele>1023.6</ele>
        <time>2026-05-06T09:36:59Z</time>
      </trkpt>
      <trkpt lat="44.91217" lon="4.30588">
        <ele>1024.3</ele>
        <time>2026-05-06T09:37:04Z</time>
      </trkpt>
      <trkpt lat="44.91218" lon="4.30588">
        <ele>1024.1</ele>
        <time>2026-05-06T09:37:09Z</time>
      </trkpt>
      <trkpt lat="44.91218" lon="4.30588">
        <ele>1024.1</ele>
        <time>2026-05-06T09:37:14Z</time>
      </trkpt>
      <trkpt lat="44.91218" lon="4.30588">
        <ele>1024.1</ele>
        <time>2026-05-06T09:37:19Z</time>
      </trkpt>
      <trkpt lat="44.91218" lon="4.30588">
        <ele>1024.1</ele>
        <time>2026-05-06T09:37:24Z</time>
      </trkpt>
      <trkpt lat="44.91218" lon="4.30588">
        <ele>1024.1</ele>
        <time>2026-05-06T09:37:29Z</time>
      </trkpt>
      <trkpt lat="44.91218" lon="4.30588">
        <ele>1024.1</ele>
        <time>2026-05-06T09:37:34Z</time>
      </trkpt>
      <trkpt lat="44.91216" lon="4.30584">
        <ele>1025.4</ele>
        <time>2026-05-06T09:37:39Z</time>
      </trkpt>
      <trkpt lat="44.91216" lon="4.30584">
        <ele>1025.4</ele>
        <time>2026-05-06T09:37:44Z</time>
      </trkpt>
      <trkpt lat="44.91216" lon="4.30584">
        <ele>1025.4</ele>
        <time>2026-05-06T09:37:49Z</time>
      </trkpt>
      <trkpt lat="44.91216" lon="4.30584">
        <ele>1025.4</ele>
        <time>2026-05-06T09:37:54Z</time>
      </trkpt>
      <trkpt lat="44.91216" lon="4.30584">
        <ele>1025.4</ele>
        <time>2026-05-06T09:37:59Z</time>
      </trkpt>
      <trkpt lat="44.91216" lon="4.30584">
        <ele>1025.4</ele>
        <time>2026-05-06T09:38:04Z</time>
      </trkpt>
      <trkpt lat="44.91216" lon="4.30584">
        <ele>1025.4</ele>
        <time>2026-05-06T09:38:09Z</time>
      </trkpt>
      <trkpt lat="44.91216" lon="4.30584">
        <ele>1025.4</ele>
        <time>2026-05-06T09:38:14Z</time>
      </trkpt>
      <trkpt lat="44.91216" lon="4.30584">
        <ele>1025.4</ele>
        <time>2026-05-06T09:38:19Z</time>
      </trkpt>
      <trkpt lat="44.91216" lon="4.30584">
        <ele>1025.4</ele>
        <time>2026-05-06T09:38:24Z</time>
      </trkpt>
      <trkpt lat="44.91216" lon="4.30584">
        <ele>1025.4</ele>
        <time>2026-05-06T09:38:29Z</time>
      </trkpt>
      <trkpt lat="44.91216" lon="4.30584">
        <ele>1025.4</ele>
        <time>2026-05-06T09:38:34Z</time>
      </trkpt>
      <trkpt lat="44.91216" lon="4.30584">
        <ele>1025.4</ele>
        <time>2026-05-06T09:38:39Z</time>
      </trkpt>
      <trkpt lat="44.91216" lon="4.30584">
        <ele>1025.4</ele>
        <time>2026-05-06T09:38:44Z</time>
      </trkpt>
      <trkpt lat="44.91216" lon="4.30584">
        <ele>1025.4</ele>
        <time>2026-05-06T09:38:49Z</time>
      </trkpt>
      <trkpt lat="44.91216" lon="4.30584">
        <ele>1025.4</ele>
        <time>2026-05-06T09:38:54Z</time>
      </trkpt>
      <trkpt lat="44.91216" lon="4.30584">
        <ele>1025.4</ele>
        <time>2026-05-06T09:38:59Z</time>
      </trkpt>
      <trkpt lat="44.91216" lon="4.30584">
        <ele>1025.4</ele>
        <time>2026-05-06T09:39:04Z</time>
      </trkpt>
      <trkpt lat="44.91216" lon="4.30584">
        <ele>1025.4</ele>
        <time>2026-05-06T09:39:09Z</time>
      </trkpt>
      <trkpt lat="44.91216" lon="4.30584">
        <ele>1025.4</ele>
        <time>2026-05-06T09:39:14Z</time>
      </trkpt>
      <trkpt lat="44.91216" lon="4.30584">
        <ele>1025.4</ele>
        <time>2026-05-06T09:39:19Z</time>
      </trkpt>
      <trkpt lat="44.91216" lon="4.30584">
        <ele>1025.4</ele>
        <time>2026-05-06T09:39:24Z</time>
      </trkpt>
      <trkpt lat="44.91216" lon="4.30584">
        <ele>1025.4</ele>
        <time>2026-05-06T09:39:29Z</time>
      </trkpt>
      <trkpt lat="44.91216" lon="4.30584">
        <ele>1025.4</ele>
        <time>2026-05-06T09:39:34Z</time>
      </trkpt>
      <trkpt lat="44.91216" lon="4.30584">
        <ele>1025.4</ele>
        <time>2026-05-06T09:39:39Z</time>
      </trkpt>
      <trkpt lat="44.91216" lon="4.30584">
        <ele>1025.4</ele>
        <time>2026-05-06T09:39:44Z</time>
      </trkpt>
      <trkpt lat="44.91216" lon="4.30584">
        <ele>1025.4</ele>
        <time>2026-05-06T09:39:49Z</time>
      </trkpt>
      <trkpt lat="44.91216" lon="4.30584">
        <ele>1025.4</ele>
        <time>2026-05-06T09:39:54Z</time>
      </trkpt>
      <trkpt lat="44.91216" lon="4.30584">
        <ele>1025.4</ele>
        <time>2026-05-06T09:39:59Z</time>
      </trkpt>
      <trkpt lat="44.91216" lon="4.30584">
        <ele>1025.4</ele>
        <time>2026-05-06T09:40:04Z</time>
      </trkpt>
      <trkpt lat="44.91216" lon="4.30584">
        <ele>1025.4</ele>
        <time>2026-05-06T09:40:09Z</time>
      </trkpt>
      <trkpt lat="44.91216" lon="4.30584">
        <ele>1025.4</ele>
        <time>2026-05-06T09:40:14Z</time>
      </trkpt>
      <trkpt lat="44.91216" lon="4.30584">
        <ele>1025.4</ele>
        <time>2026-05-06T09:40:19Z</time>
      </trkpt>
      <trkpt lat="44.91216" lon="4.30584">
        <ele>1025.4</ele>
        <time>2026-05-06T09:40:24Z</time>
      </trkpt>
      <trkpt lat="44.91216" lon="4.30584">
        <ele>1025.4</ele>
        <time>2026-05-06T09:40:29Z</time>
      </trkpt>
      <trkpt lat="44.91216" lon="4.30584">
        <ele>1025.4</ele>
        <time>2026-05-06T09:40:34Z</time>
      </trkpt>
      <trkpt lat="44.91216" lon="4.30584">
        <ele>1025.4</ele>
        <time>2026-05-06T09:40:39Z</time>
      </trkpt>
      <trkpt lat="44.91216" lon="4.30584">
        <ele>1025.4</ele>
        <time>2026-05-06T09:40:44Z</time>
      </trkpt>
      <trkpt lat="44.91216" lon="4.30584">
        <ele>1025.4</ele>
        <time>2026-05-06T09:40:49Z</time>
      </trkpt>
      <trkpt lat="44.91216" lon="4.30584">
        <ele>1025.4</ele>
        <time>2026-05-06T09:40:54Z</time>
      </trkpt>
      <trkpt lat="44.91216" lon="4.30584">
        <ele>1025.4</ele>
        <time>2026-05-06T09:40:59Z</time>
      </trkpt>
      <trkpt lat="44.91216" lon="4.30584">
        <ele>1025.4</ele>
        <time>2026-05-06T09:41:04Z</time>
      </trkpt>
      <trkpt lat="44.91216" lon="4.30584">
        <ele>1025.4</ele>
        <time>2026-05-06T09:41:09Z</time>
      </trkpt>
      <trkpt lat="44.91216" lon="4.30584">
        <ele>1025.4</ele>
        <time>2026-05-06T09:41:14Z</time>
      </trkpt>
      <trkpt lat="44.91216" lon="4.30584">
        <ele>1025.4</ele>
        <time>2026-05-06T09:41:19Z</time>
      </trkpt>
      <trkpt lat="44.91216" lon="4.30584">
        <ele>1025.4</ele>
        <time>2026-05-06T09:41:24Z</time>
      </trkpt>
      <trkpt lat="44.91216" lon="4.30584">
        <ele>1025.4</ele>
        <time>2026-05-06T09:41:29Z</time>
      </trkpt>
      <trkpt lat="44.91216" lon="4.30584">
        <ele>1025.4</ele>
        <time>2026-05-06T09:41:34Z</time>
      </trkpt>
      <trkpt lat="44.91216" lon="4.30584">
        <ele>1025.4</ele>
        <time>2026-05-06T09:41:39Z</time>
      </trkpt>
      <trkpt lat="44.91216" lon="4.30584">
        <ele>1025.4</ele>
        <time>2026-05-06T09:41:44Z</time>
      </trkpt>
      <trkpt lat="44.91216" lon="4.30584">
        <ele>1025.4</ele>
        <time>2026-05-06T09:41:49Z</time>
      </trkpt>
      <trkpt lat="44.91216" lon="4.30584">
        <ele>1025.4</ele>
        <time>2026-05-06T09:41:54Z</time>
      </trkpt>
      <trkpt lat="44.91216" lon="4.30584">
        <ele>1025.4</ele>
        <time>2026-05-06T09:41:59Z</time>
      </trkpt>
      <trkpt lat="44.91216" lon="4.30584">
        <ele>1025.4</ele>
        <time>2026-05-06T09:42:04Z</time>
      </trkpt>
      <trkpt lat="44.91216" lon="4.30584">
        <ele>1025.4</ele>
        <time>2026-05-06T09:42:09Z</time>
      </trkpt>
      <trkpt lat="44.91216" lon="4.30584">
        <ele>1025.4</ele>
        <time>2026-05-06T09:42:14Z</time>
      </trkpt>
      <trkpt lat="44.91216" lon="4.30584">
        <ele>1025.4</ele>
        <time>2026-05-06T09:42:19Z</time>
      </trkpt>
      <trkpt lat="44.91215" lon="4.3058">
        <ele>1026.2</ele>
        <time>2026-05-06T09:42:24Z</time>
      </trkpt>
      <trkpt lat="44.91214" lon="4.30576">
        <ele>1027</ele>
        <time>2026-05-06T09:42:29Z</time>
      </trkpt>
      <trkpt lat="44.91214" lon="4.30574">
        <ele>1027.3</ele>
        <time>2026-05-06T09:42:34Z</time>
      </trkpt>
      <trkpt lat="44.91214" lon="4.30569">
        <ele>1027.9</ele>
        <time>2026-05-06T09:42:39Z</time>
      </trkpt>
      <trkpt lat="44.91214" lon="4.30567">
        <ele>1028.1</ele>
        <time>2026-05-06T09:42:44Z</time>
      </trkpt>
      <trkpt lat="44.91214" lon="4.30567">
        <ele>1028.1</ele>
        <time>2026-05-06T09:42:49Z</time>
      </trkpt>
      <trkpt lat="44.91214" lon="4.30567">
        <ele>1028.1</ele>
        <time>2026-05-06T09:42:54Z</time>
      </trkpt>
      <trkpt lat="44.91214" lon="4.30567">
        <ele>1028.1</ele>
        <time>2026-05-06T09:42:59Z</time>
      </trkpt>
      <trkpt lat="44.91214" lon="4.30567">
        <ele>1028.1</ele>
        <time>2026-05-06T09:43:04Z</time>
      </trkpt>
      <trkpt lat="44.91214" lon="4.30567">
        <ele>1028.1</ele>
        <time>2026-05-06T09:43:09Z</time>
      </trkpt>
      <trkpt lat="44.91214" lon="4.30567">
        <ele>1028.1</ele>
        <time>2026-05-06T09:43:14Z</time>
      </trkpt>
      <trkpt lat="44.91213" lon="4.30559">
        <ele>1029.4</ele>
        <time>2026-05-06T09:43:19Z</time>
      </trkpt>
      <trkpt lat="44.91212" lon="4.30552">
        <ele>1030.6</ele>
        <time>2026-05-06T09:43:24Z</time>
      </trkpt>
      <trkpt lat="44.91212" lon="4.30545">
        <ele>1031.5</ele>
        <time>2026-05-06T09:43:29Z</time>
      </trkpt>
      <trkpt lat="44.91212" lon="4.30537">
        <ele>1032.5</ele>
        <time>2026-05-06T09:43:34Z</time>
      </trkpt>
      <trkpt lat="44.91212" lon="4.30529">
        <ele>1033.6</ele>
        <time>2026-05-06T09:43:39Z</time>
      </trkpt>
      <trkpt lat="44.91211" lon="4.30522">
        <ele>1034.8</ele>
        <time>2026-05-06T09:43:44Z</time>
      </trkpt>
      <trkpt lat="44.91213" lon="4.30518">
        <ele>1034.7</ele>
        <time>2026-05-06T09:43:49Z</time>
      </trkpt>
      <trkpt lat="44.91212" lon="4.30509">
        <ele>1036.2</ele>
        <time>2026-05-06T09:43:54Z</time>
      </trkpt>
      <trkpt lat="44.91212" lon="4.305">
        <ele>1037.3</ele>
        <time>2026-05-06T09:43:59Z</time>
      </trkpt>
      <trkpt lat="44.91211" lon="4.30492">
        <ele>1038.3</ele>
        <time>2026-05-06T09:44:04Z</time>
      </trkpt>
      <trkpt lat="44.91211" lon="4.30484">
        <ele>1039</ele>
        <time>2026-05-06T09:44:09Z</time>
      </trkpt>
      <trkpt lat="44.91212" lon="4.30476">
        <ele>1039.3</ele>
        <time>2026-05-06T09:44:14Z</time>
      </trkpt>
      <trkpt lat="44.91212" lon="4.30468">
        <ele>1039.9</ele>
        <time>2026-05-06T09:44:19Z</time>
      </trkpt>
      <trkpt lat="44.91212" lon="4.30461">
        <ele>1040.5</ele>
        <time>2026-05-06T09:44:24Z</time>
      </trkpt>
      <trkpt lat="44.91213" lon="4.30454">
        <ele>1040.7</ele>
        <time>2026-05-06T09:44:29Z</time>
      </trkpt>
      <trkpt lat="44.91214" lon="4.30446">
        <ele>1041</ele>
        <time>2026-05-06T09:44:34Z</time>
      </trkpt>
      <trkpt lat="44.91214" lon="4.30438">
        <ele>1041.7</ele>
        <time>2026-05-06T09:44:39Z</time>
      </trkpt>
      <trkpt lat="44.91214" lon="4.3043">
        <ele>1042.3</ele>
        <time>2026-05-06T09:44:44Z</time>
      </trkpt>
      <trkpt lat="44.91215" lon="4.30427">
        <ele>1042.2</ele>
        <time>2026-05-06T09:44:49Z</time>
      </trkpt>
      <trkpt lat="44.91215" lon="4.30422">
        <ele>1042.6</ele>
        <time>2026-05-06T09:44:54Z</time>
      </trkpt>
      <trkpt lat="44.91216" lon="4.30418">
        <ele>1042.5</ele>
        <time>2026-05-06T09:44:59Z</time>
      </trkpt>
      <trkpt lat="44.91216" lon="4.30418">
        <ele>1042.5</ele>
        <time>2026-05-06T09:45:04Z</time>
      </trkpt>
      <trkpt lat="44.91216" lon="4.30418">
        <ele>1042.5</ele>
        <time>2026-05-06T09:45:09Z</time>
      </trkpt>
      <trkpt lat="44.91216" lon="4.30418">
        <ele>1042.5</ele>
        <time>2026-05-06T09:45:14Z</time>
      </trkpt>
      <trkpt lat="44.91216" lon="4.30416">
        <ele>1042.7</ele>
        <time>2026-05-06T09:45:19Z</time>
      </trkpt>
      <trkpt lat="44.91216" lon="4.3041">
        <ele>1043.3</ele>
        <time>2026-05-06T09:45:24Z</time>
      </trkpt>
      <trkpt lat="44.91218" lon="4.30402">
        <ele>1043.3</ele>
        <time>2026-05-06T09:45:29Z</time>
      </trkpt>
      <trkpt lat="44.91218" lon="4.30399">
        <ele>1043.6</ele>
        <time>2026-05-06T09:45:34Z</time>
      </trkpt>
      <trkpt lat="44.91219" lon="4.30394">
        <ele>1043.7</ele>
        <time>2026-05-06T09:45:39Z</time>
      </trkpt>
      <trkpt lat="44.91222" lon="4.30387">
        <ele>1043.3</ele>
        <time>2026-05-06T09:45:44Z</time>
      </trkpt>
      <trkpt lat="44.91224" lon="4.30379">
        <ele>1043.3</ele>
        <time>2026-05-06T09:45:49Z</time>
      </trkpt>
      <trkpt lat="44.91227" lon="4.30371">
        <ele>1042.9</ele>
        <time>2026-05-06T09:45:54Z</time>
      </trkpt>
      <trkpt lat="44.91229" lon="4.30364">
        <ele>1042.9</ele>
        <time>2026-05-06T09:45:59Z</time>
      </trkpt>
      <trkpt lat="44.91229" lon="4.3036">
        <ele>1043.3</ele>
        <time>2026-05-06T09:46:04Z</time>
      </trkpt>
      <trkpt lat="44.91229" lon="4.30357">
        <ele>1043.5</ele>
        <time>2026-05-06T09:46:09Z</time>
      </trkpt>
      <trkpt lat="44.91231" lon="4.30348">
        <ele>1043.7</ele>
        <time>2026-05-06T09:46:14Z</time>
      </trkpt>
      <trkpt lat="44.91232" lon="4.30342">
        <ele>1043.9</ele>
        <time>2026-05-06T09:46:19Z</time>
      </trkpt>
      <trkpt lat="44.91235" lon="4.30335">
        <ele>1043.4</ele>
        <time>2026-05-06T09:46:24Z</time>
      </trkpt>
      <trkpt lat="44.91237" lon="4.30328">
        <ele>1043.5</ele>
        <time>2026-05-06T09:46:29Z</time>
      </trkpt>
      <trkpt lat="44.91239" lon="4.30319">
        <ele>1043.9</ele>
        <time>2026-05-06T09:46:34Z</time>
      </trkpt>
      <trkpt lat="44.9124" lon="4.30311">
        <ele>1044.6</ele>
        <time>2026-05-06T09:46:39Z</time>
      </trkpt>
      <trkpt lat="44.9124" lon="4.30304">
        <ele>1045.5</ele>
        <time>2026-05-06T09:46:44Z</time>
      </trkpt>
      <trkpt lat="44.91241" lon="4.30297">
        <ele>1046</ele>
        <time>2026-05-06T09:46:49Z</time>
      </trkpt>
      <trkpt lat="44.91241" lon="4.30288">
        <ele>1047.2</ele>
        <time>2026-05-06T09:46:54Z</time>
      </trkpt>
      <trkpt lat="44.91243" lon="4.30281">
        <ele>1047.4</ele>
        <time>2026-05-06T09:46:59Z</time>
      </trkpt>
      <trkpt lat="44.91244" lon="4.30276">
        <ele>1047.7</ele>
        <time>2026-05-06T09:47:04Z</time>
      </trkpt>
      <trkpt lat="44.91243" lon="4.30271">
        <ele>1048.6</ele>
        <time>2026-05-06T09:47:09Z</time>
      </trkpt>
      <trkpt lat="44.91243" lon="4.30267">
        <ele>1049.2</ele>
        <time>2026-05-06T09:47:14Z</time>
      </trkpt>
      <trkpt lat="44.91243" lon="4.30267">
        <ele>1049.2</ele>
        <time>2026-05-06T09:47:19Z</time>
      </trkpt>
      <trkpt lat="44.91243" lon="4.30267">
        <ele>1049.2</ele>
        <time>2026-05-06T09:47:24Z</time>
      </trkpt>
      <trkpt lat="44.91243" lon="4.30267">
        <ele>1049.2</ele>
        <time>2026-05-06T09:47:29Z</time>
      </trkpt>
      <trkpt lat="44.91243" lon="4.30267">
        <ele>1049.2</ele>
        <time>2026-05-06T09:47:34Z</time>
      </trkpt>
      <trkpt lat="44.91243" lon="4.30267">
        <ele>1049.2</ele>
        <time>2026-05-06T09:47:39Z</time>
      </trkpt>
      <trkpt lat="44.91243" lon="4.30267">
        <ele>1049.2</ele>
        <time>2026-05-06T09:47:44Z</time>
      </trkpt>
      <trkpt lat="44.91243" lon="4.30267">
        <ele>1049.2</ele>
        <time>2026-05-06T09:47:49Z</time>
      </trkpt>
      <trkpt lat="44.91244" lon="4.30257">
        <ele>1050.1</ele>
        <time>2026-05-06T09:47:54Z</time>
      </trkpt>
      <trkpt lat="44.91244" lon="4.30249">
        <ele>1051.1</ele>
        <time>2026-05-06T09:47:59Z</time>
      </trkpt>
      <trkpt lat="44.91244" lon="4.30243">
        <ele>1051.6</ele>
        <time>2026-05-06T09:48:04Z</time>
      </trkpt>
      <trkpt lat="44.91244" lon="4.30234">
        <ele>1052.3</ele>
        <time>2026-05-06T09:48:09Z</time>
      </trkpt>
      <trkpt lat="44.91244" lon="4.30228">
        <ele>1052.7</ele>
        <time>2026-05-06T09:48:14Z</time>
      </trkpt>
      <trkpt lat="44.91244" lon="4.3022">
        <ele>1053.4</ele>
        <time>2026-05-06T09:48:19Z</time>
      </trkpt>
      <trkpt lat="44.91245" lon="4.30212">
        <ele>1053.7</ele>
        <time>2026-05-06T09:48:24Z</time>
      </trkpt>
      <trkpt lat="44.91244" lon="4.30205">
        <ele>1054.6</ele>
        <time>2026-05-06T09:48:29Z</time>
      </trkpt>
      <trkpt lat="44.91245" lon="4.30196">
        <ele>1055</ele>
        <time>2026-05-06T09:48:34Z</time>
      </trkpt>
      <trkpt lat="44.91245" lon="4.30186">
        <ele>1055.8</ele>
        <time>2026-05-06T09:48:39Z</time>
      </trkpt>
      <trkpt lat="44.91245" lon="4.30178">
        <ele>1056.4</ele>
        <time>2026-05-06T09:48:44Z</time>
      </trkpt>
      <trkpt lat="44.91244" lon="4.30169">
        <ele>1057.4</ele>
        <time>2026-05-06T09:48:49Z</time>
      </trkpt>
      <trkpt lat="44.91242" lon="4.30162">
        <ele>1057.8</ele>
        <time>2026-05-06T09:48:54Z</time>
      </trkpt>
      <trkpt lat="44.91241" lon="4.30154">
        <ele>1057.4</ele>
        <time>2026-05-06T09:48:59Z</time>
      </trkpt>
      <trkpt lat="44.91241" lon="4.30153">
        <ele>1057.4</ele>
        <time>2026-05-06T09:49:04Z</time>
      </trkpt>
      <trkpt lat="44.91241" lon="4.30148">
        <ele>1057</ele>
        <time>2026-05-06T09:49:09Z</time>
      </trkpt>
      <trkpt lat="44.9124" lon="4.3014">
        <ele>1056.6</ele>
        <time>2026-05-06T09:49:14Z</time>
      </trkpt>
      <trkpt lat="44.91238" lon="4.30132">
        <ele>1056.6</ele>
        <time>2026-05-06T09:49:19Z</time>
      </trkpt>
      <trkpt lat="44.91236" lon="4.30123">
        <ele>1056.4</ele>
        <time>2026-05-06T09:49:24Z</time>
      </trkpt>
      <trkpt lat="44.91234" lon="4.30117">
        <ele>1056.4</ele>
        <time>2026-05-06T09:49:29Z</time>
      </trkpt>
      <trkpt lat="44.91231" lon="4.3011">
        <ele>1056.6</ele>
        <time>2026-05-06T09:49:34Z</time>
      </trkpt>
      <trkpt lat="44.91227" lon="4.30104">
        <ele>1057.1</ele>
        <time>2026-05-06T09:49:39Z</time>
      </trkpt>
      <trkpt lat="44.91226" lon="4.30099">
        <ele>1057</ele>
        <time>2026-05-06T09:49:44Z</time>
      </trkpt>
      <trkpt lat="44.91224" lon="4.30093">
        <ele>1057</ele>
        <time>2026-05-06T09:49:49Z</time>
      </trkpt>
      <trkpt lat="44.91221" lon="4.30087">
        <ele>1057.3</ele>
        <time>2026-05-06T09:49:54Z</time>
      </trkpt>
      <trkpt lat="44.91216" lon="4.30081">
        <ele>1058.1</ele>
        <time>2026-05-06T09:49:59Z</time>
      </trkpt>
      <trkpt lat="44.91214" lon="4.30075">
        <ele>1058.4</ele>
        <time>2026-05-06T09:50:04Z</time>
      </trkpt>
      <trkpt lat="44.91214" lon="4.30074">
        <ele>1058.3</ele>
        <time>2026-05-06T09:50:09Z</time>
      </trkpt>
      <trkpt lat="44.91214" lon="4.30074">
        <ele>1058.3</ele>
        <time>2026-05-06T09:50:14Z</time>
      </trkpt>
      <trkpt lat="44.91214" lon="4.30074">
        <ele>1058.3</ele>
        <time>2026-05-06T09:50:19Z</time>
      </trkpt>
      <trkpt lat="44.91214" lon="4.30074">
        <ele>1058.3</ele>
        <time>2026-05-06T09:50:24Z</time>
      </trkpt>
      <trkpt lat="44.91214" lon="4.30074">
        <ele>1058.3</ele>
        <time>2026-05-06T09:50:29Z</time>
      </trkpt>
      <trkpt lat="44.91214" lon="4.30074">
        <ele>1058.3</ele>
        <time>2026-05-06T09:50:34Z</time>
      </trkpt>
      <trkpt lat="44.91214" lon="4.30074">
        <ele>1058.3</ele>
        <time>2026-05-06T09:50:39Z</time>
      </trkpt>
      <trkpt lat="44.91214" lon="4.30074">
        <ele>1058.3</ele>
        <time>2026-05-06T09:50:44Z</time>
      </trkpt>
      <trkpt lat="44.91214" lon="4.30074">
        <ele>1058.3</ele>
        <time>2026-05-06T09:50:49Z</time>
      </trkpt>
      <trkpt lat="44.91214" lon="4.30074">
        <ele>1058.3</ele>
        <time>2026-05-06T09:50:54Z</time>
      </trkpt>
      <trkpt lat="44.91214" lon="4.30074">
        <ele>1058.3</ele>
        <time>2026-05-06T09:50:59Z</time>
      </trkpt>
      <trkpt lat="44.91214" lon="4.30074">
        <ele>1058.3</ele>
        <time>2026-05-06T09:51:04Z</time>
      </trkpt>
      <trkpt lat="44.91214" lon="4.30074">
        <ele>1058.3</ele>
        <time>2026-05-06T09:51:09Z</time>
      </trkpt>
      <trkpt lat="44.91214" lon="4.30074">
        <ele>1058.3</ele>
        <time>2026-05-06T09:51:14Z</time>
      </trkpt>
      <trkpt lat="44.91214" lon="4.30074">
        <ele>1058.3</ele>
        <time>2026-05-06T09:51:19Z</time>
      </trkpt>
      <trkpt lat="44.91214" lon="4.30074">
        <ele>1058.3</ele>
        <time>2026-05-06T09:51:24Z</time>
      </trkpt>
      <trkpt lat="44.91214" lon="4.30074">
        <ele>1058.3</ele>
        <time>2026-05-06T09:51:29Z</time>
      </trkpt>
      <trkpt lat="44.91214" lon="4.30074">
        <ele>1058.3</ele>
        <time>2026-05-06T09:51:34Z</time>
      </trkpt>
      <trkpt lat="44.91214" lon="4.30074">
        <ele>1058.3</ele>
        <time>2026-05-06T09:51:39Z</time>
      </trkpt>
      <trkpt lat="44.91212" lon="4.30069">
        <ele>1058.7</ele>
        <time>2026-05-06T09:51:44Z</time>
      </trkpt>
      <trkpt lat="44.9121" lon="4.30066">
        <ele>1059.1</ele>
        <time>2026-05-06T09:51:49Z</time>
      </trkpt>
      <trkpt lat="44.91208" lon="4.30061">
        <ele>1059.4</ele>
        <time>2026-05-06T09:51:54Z</time>
      </trkpt>
      <trkpt lat="44.91206" lon="4.30056">
        <ele>1059.8</ele>
        <time>2026-05-06T09:51:59Z</time>
      </trkpt>
      <trkpt lat="44.91203" lon="4.3005">
        <ele>1060.4</ele>
        <time>2026-05-06T09:52:04Z</time>
      </trkpt>
      <trkpt lat="44.91202" lon="4.30044">
        <ele>1060.4</ele>
        <time>2026-05-06T09:52:09Z</time>
      </trkpt>
      <trkpt lat="44.91199" lon="4.30038">
        <ele>1061.1</ele>
        <time>2026-05-06T09:52:14Z</time>
      </trkpt>
      <trkpt lat="44.91195" lon="4.30031">
        <ele>1061.9</ele>
        <time>2026-05-06T09:52:19Z</time>
      </trkpt>
      <trkpt lat="44.91192" lon="4.30026">
        <ele>1062.6</ele>
        <time>2026-05-06T09:52:24Z</time>
      </trkpt>
      <trkpt lat="44.91189" lon="4.30022">
        <ele>1063.3</ele>
        <time>2026-05-06T09:52:29Z</time>
      </trkpt>
      <trkpt lat="44.91186" lon="4.30015">
        <ele>1064</ele>
        <time>2026-05-06T09:52:34Z</time>
      </trkpt>
      <trkpt lat="44.91186" lon="4.30006">
        <ele>1063.8</ele>
        <time>2026-05-06T09:52:39Z</time>
      </trkpt>
      <trkpt lat="44.91184" lon="4.29998">
        <ele>1064.2</ele>
        <time>2026-05-06T09:52:44Z</time>
      </trkpt>
      <trkpt lat="44.91185" lon="4.29997">
        <ele>1063.9</ele>
        <time>2026-05-06T09:52:49Z</time>
      </trkpt>
      <trkpt lat="44.91185" lon="4.29998">
        <ele>1063.9</ele>
        <time>2026-05-06T09:52:54Z</time>
      </trkpt>
      <trkpt lat="44.91185" lon="4.29998">
        <ele>1063.9</ele>
        <time>2026-05-06T09:52:59Z</time>
      </trkpt>
      <trkpt lat="44.91185" lon="4.29998">
        <ele>1063.9</ele>
        <time>2026-05-06T09:53:04Z</time>
      </trkpt>
      <trkpt lat="44.91183" lon="4.29992">
        <ele>1064.4</ele>
        <time>2026-05-06T09:53:09Z</time>
      </trkpt>
      <trkpt lat="44.91182" lon="4.29984">
        <ele>1064.5</ele>
        <time>2026-05-06T09:53:14Z</time>
      </trkpt>
      <trkpt lat="44.91183" lon="4.29976">
        <ele>1064.1</ele>
        <time>2026-05-06T09:53:19Z</time>
      </trkpt>
      <trkpt lat="44.91184" lon="4.29968">
        <ele>1063.8</ele>
        <time>2026-05-06T09:53:24Z</time>
      </trkpt>
      <trkpt lat="44.91184" lon="4.29958">
        <ele>1063.6</ele>
        <time>2026-05-06T09:53:29Z</time>
      </trkpt>
      <trkpt lat="44.91185" lon="4.29948">
        <ele>1063.2</ele>
        <time>2026-05-06T09:53:34Z</time>
      </trkpt>
      <trkpt lat="44.91187" lon="4.29939">
        <ele>1062.5</ele>
        <time>2026-05-06T09:53:39Z</time>
      </trkpt>
      <trkpt lat="44.91187" lon="4.2993">
        <ele>1062.3</ele>
        <time>2026-05-06T09:53:44Z</time>
      </trkpt>
      <trkpt lat="44.91187" lon="4.29921">
        <ele>1062.2</ele>
        <time>2026-05-06T09:53:49Z</time>
      </trkpt>
      <trkpt lat="44.91188" lon="4.29912">
        <ele>1060.7</ele>
        <time>2026-05-06T09:53:54Z</time>
      </trkpt>
      <trkpt lat="44.9119" lon="4.29904">
        <ele>1058.3</ele>
        <time>2026-05-06T09:53:59Z</time>
      </trkpt>
      <trkpt lat="44.9119" lon="4.29895">
        <ele>1056.2</ele>
        <time>2026-05-06T09:54:04Z</time>
      </trkpt>
      <trkpt lat="44.91191" lon="4.29883">
        <ele>1053.1</ele>
        <time>2026-05-06T09:54:09Z</time>
      </trkpt>
      <trkpt lat="44.91194" lon="4.29874">
        <ele>1050.4</ele>
        <time>2026-05-06T09:54:14Z</time>
      </trkpt>
      <trkpt lat="44.91193" lon="4.29866">
        <ele>1048.7</ele>
        <time>2026-05-06T09:54:19Z</time>
      </trkpt>
      <trkpt lat="44.91192" lon="4.29857">
        <ele>1046.8</ele>
        <time>2026-05-06T09:54:24Z</time>
      </trkpt>
      <trkpt lat="44.91188" lon="4.29848">
        <ele>1045.4</ele>
        <time>2026-05-06T09:54:29Z</time>
      </trkpt>
      <trkpt lat="44.91181" lon="4.2984">
        <ele>1044.6</ele>
        <time>2026-05-06T09:54:34Z</time>
      </trkpt>
      <trkpt lat="44.91175" lon="4.29834">
        <ele>1044</ele>
        <time>2026-05-06T09:54:39Z</time>
      </trkpt>
      <trkpt lat="44.91168" lon="4.29829">
        <ele>1043.1</ele>
        <time>2026-05-06T09:54:44Z</time>
      </trkpt>
      <trkpt lat="44.91161" lon="4.29825">
        <ele>1042.2</ele>
        <time>2026-05-06T09:54:49Z</time>
      </trkpt>
      <trkpt lat="44.91154" lon="4.29822">
        <ele>1041.6</ele>
        <time>2026-05-06T09:54:54Z</time>
      </trkpt>
      <trkpt lat="44.91148" lon="4.29818">
        <ele>1040.7</ele>
        <time>2026-05-06T09:54:59Z</time>
      </trkpt>
      <trkpt lat="44.91144" lon="4.29815">
        <ele>1040</ele>
        <time>2026-05-06T09:55:04Z</time>
      </trkpt>
      <trkpt lat="44.91142" lon="4.29813">
        <ele>1039.4</ele>
        <time>2026-05-06T09:55:09Z</time>
      </trkpt>
      <trkpt lat="44.91139" lon="4.29812">
        <ele>1039.4</ele>
        <time>2026-05-06T09:55:14Z</time>
      </trkpt>
      <trkpt lat="44.91136" lon="4.2981">
        <ele>1039</ele>
        <time>2026-05-06T09:55:19Z</time>
      </trkpt>
      <trkpt lat="44.91136" lon="4.2981">
        <ele>1039</ele>
        <time>2026-05-06T09:55:24Z</time>
      </trkpt>
      <trkpt lat="44.91136" lon="4.2981">
        <ele>1039</ele>
        <time>2026-05-06T09:55:29Z</time>
      </trkpt>
      <trkpt lat="44.91136" lon="4.2981">
        <ele>1039</ele>
        <time>2026-05-06T09:55:34Z</time>
      </trkpt>
      <trkpt lat="44.91136" lon="4.2981">
        <ele>1039</ele>
        <time>2026-05-06T09:55:39Z</time>
      </trkpt>
      <trkpt lat="44.91136" lon="4.2981">
        <ele>1039</ele>
        <time>2026-05-06T09:55:44Z</time>
      </trkpt>
      <trkpt lat="44.91136" lon="4.2981">
        <ele>1039</ele>
        <time>2026-05-06T09:55:49Z</time>
      </trkpt>
      <trkpt lat="44.91136" lon="4.2981">
        <ele>1039</ele>
        <time>2026-05-06T09:55:54Z</time>
      </trkpt>
      <trkpt lat="44.91136" lon="4.2981">
        <ele>1039</ele>
        <time>2026-05-06T09:55:59Z</time>
      </trkpt>
      <trkpt lat="44.91136" lon="4.2981">
        <ele>1039</ele>
        <time>2026-05-06T09:56:04Z</time>
      </trkpt>
      <trkpt lat="44.91135" lon="4.2981">
        <ele>1039.1</ele>
        <time>2026-05-06T09:56:09Z</time>
      </trkpt>
      <trkpt lat="44.91128" lon="4.29807">
        <ele>1038.8</ele>
        <time>2026-05-06T09:56:14Z</time>
      </trkpt>
      <trkpt lat="44.91121" lon="4.29805">
        <ele>1038.9</ele>
        <time>2026-05-06T09:56:19Z</time>
      </trkpt>
      <trkpt lat="44.91114" lon="4.29803">
        <ele>1039.1</ele>
        <time>2026-05-06T09:56:24Z</time>
      </trkpt>
      <trkpt lat="44.91106" lon="4.29802">
        <ele>1039.7</ele>
        <time>2026-05-06T09:56:29Z</time>
      </trkpt>
      <trkpt lat="44.91099" lon="4.29799">
        <ele>1039.6</ele>
        <time>2026-05-06T09:56:34Z</time>
      </trkpt>
      <trkpt lat="44.91094" lon="4.29799">
        <ele>1040.2</ele>
        <time>2026-05-06T09:56:39Z</time>
      </trkpt>
      <trkpt lat="44.91087" lon="4.29798">
        <ele>1040.8</ele>
        <time>2026-05-06T09:56:44Z</time>
      </trkpt>
      <trkpt lat="44.9108" lon="4.29795">
        <ele>1040.1</ele>
        <time>2026-05-06T09:56:49Z</time>
      </trkpt>
      <trkpt lat="44.91074" lon="4.29793">
        <ele>1039</ele>
        <time>2026-05-06T09:56:54Z</time>
      </trkpt>
      <trkpt lat="44.91067" lon="4.29791">
        <ele>1037.9</ele>
        <time>2026-05-06T09:56:59Z</time>
      </trkpt>
      <trkpt lat="44.9106" lon="4.29788">
        <ele>1036.7</ele>
        <time>2026-05-06T09:57:04Z</time>
      </trkpt>
      <trkpt lat="44.91054" lon="4.29786">
        <ele>1035.9</ele>
        <time>2026-05-06T09:57:09Z</time>
      </trkpt>
      <trkpt lat="44.91047" lon="4.29784">
        <ele>1035.1</ele>
        <time>2026-05-06T09:57:14Z</time>
      </trkpt>
      <trkpt lat="44.91039" lon="4.29782">
        <ele>1034.4</ele>
        <time>2026-05-06T09:57:19Z</time>
      </trkpt>
      <trkpt lat="44.91031" lon="4.2978">
        <ele>1033.8</ele>
        <time>2026-05-06T09:57:24Z</time>
      </trkpt>
      <trkpt lat="44.91025" lon="4.29779">
        <ele>1033.4</ele>
        <time>2026-05-06T09:57:29Z</time>
      </trkpt>
      <trkpt lat="44.91019" lon="4.29779">
        <ele>1033.1</ele>
        <time>2026-05-06T09:57:34Z</time>
      </trkpt>
      <trkpt lat="44.91015" lon="4.29778">
        <ele>1032.9</ele>
        <time>2026-05-06T09:57:39Z</time>
      </trkpt>
      <trkpt lat="44.9101" lon="4.29777">
        <ele>1032.7</ele>
        <time>2026-05-06T09:57:44Z</time>
      </trkpt>
      <trkpt lat="44.91006" lon="4.29778">
        <ele>1032.6</ele>
        <time>2026-05-06T09:57:49Z</time>
      </trkpt>
      <trkpt lat="44.91" lon="4.29779">
        <ele>1032.3</ele>
        <time>2026-05-06T09:57:54Z</time>
      </trkpt>
      <trkpt lat="44.90993" lon="4.29779">
        <ele>1030.1</ele>
        <time>2026-05-06T09:57:59Z</time>
      </trkpt>
      <trkpt lat="44.90987" lon="4.29776">
        <ele>1028.2</ele>
        <time>2026-05-06T09:58:04Z</time>
      </trkpt>
      <trkpt lat="44.90981" lon="4.29773">
        <ele>1026.5</ele>
        <time>2026-05-06T09:58:09Z</time>
      </trkpt>
      <trkpt lat="44.90976" lon="4.29772">
        <ele>1025</ele>
        <time>2026-05-06T09:58:14Z</time>
      </trkpt>
      <trkpt lat="44.90972" lon="4.29772">
        <ele>1023.7</ele>
        <time>2026-05-06T09:58:19Z</time>
      </trkpt>
      <trkpt lat="44.90969" lon="4.29771">
        <ele>1022.8</ele>
        <time>2026-05-06T09:58:24Z</time>
      </trkpt>
      <trkpt lat="44.90965" lon="4.2977">
        <ele>1021.6</ele>
        <time>2026-05-06T09:58:29Z</time>
      </trkpt>
      <trkpt lat="44.9096" lon="4.29767">
        <ele>1020.3</ele>
        <time>2026-05-06T09:58:34Z</time>
      </trkpt>
      <trkpt lat="44.90954" lon="4.29768">
        <ele>1018.4</ele>
        <time>2026-05-06T09:58:39Z</time>
      </trkpt>
      <trkpt lat="44.90946" lon="4.2977">
        <ele>1015.7</ele>
        <time>2026-05-06T09:58:44Z</time>
      </trkpt>
      <trkpt lat="44.90942" lon="4.29772">
        <ele>1014.3</ele>
        <time>2026-05-06T09:58:49Z</time>
      </trkpt>
      <trkpt lat="44.90937" lon="4.29775">
        <ele>1012.4</ele>
        <time>2026-05-06T09:58:54Z</time>
      </trkpt>
      <trkpt lat="44.90932" lon="4.29776">
        <ele>1010.8</ele>
        <time>2026-05-06T09:58:59Z</time>
      </trkpt>
      <trkpt lat="44.90925" lon="4.29775">
        <ele>1008.6</ele>
        <time>2026-05-06T09:59:04Z</time>
      </trkpt>
      <trkpt lat="44.90918" lon="4.29772">
        <ele>1006.8</ele>
        <time>2026-05-06T09:59:09Z</time>
      </trkpt>
      <trkpt lat="44.90912" lon="4.2977">
        <ele>1005.4</ele>
        <time>2026-05-06T09:59:14Z</time>
      </trkpt>
      <trkpt lat="44.90907" lon="4.29765">
        <ele>1004.7</ele>
        <time>2026-05-06T09:59:19Z</time>
      </trkpt>
      <trkpt lat="44.90901" lon="4.29761">
        <ele>1003.6</ele>
        <time>2026-05-06T09:59:24Z</time>
      </trkpt>
      <trkpt lat="44.90894" lon="4.29762">
        <ele>1001.7</ele>
        <time>2026-05-06T09:59:29Z</time>
      </trkpt>
      <trkpt lat="44.90891" lon="4.29764">
        <ele>1000.6</ele>
        <time>2026-05-06T09:59:34Z</time>
      </trkpt>
      <trkpt lat="44.9089" lon="4.29765">
        <ele>1000.3</ele>
        <time>2026-05-06T09:59:39Z</time>
      </trkpt>
      <trkpt lat="44.9089" lon="4.29765">
        <ele>1000.3</ele>
        <time>2026-05-06T09:59:44Z</time>
      </trkpt>
      <trkpt lat="44.9089" lon="4.29765">
        <ele>1000.3</ele>
        <time>2026-05-06T09:59:49Z</time>
      </trkpt>
      <trkpt lat="44.9089" lon="4.29765">
        <ele>1000.3</ele>
        <time>2026-05-06T09:59:54Z</time>
      </trkpt>
      <trkpt lat="44.9089" lon="4.29765">
        <ele>1000.3</ele>
        <time>2026-05-06T09:59:59Z</time>
      </trkpt>
      <trkpt lat="44.9089" lon="4.29765">
        <ele>1000.3</ele>
        <time>2026-05-06T10:00:04Z</time>
      </trkpt>
      <trkpt lat="44.9089" lon="4.29765">
        <ele>1000.3</ele>
        <time>2026-05-06T10:00:09Z</time>
      </trkpt>
      <trkpt lat="44.9089" lon="4.29765">
        <ele>1000.3</ele>
        <time>2026-05-06T10:00:14Z</time>
      </trkpt>
      <trkpt lat="44.9089" lon="4.29765">
        <ele>1000.3</ele>
        <time>2026-05-06T10:00:19Z</time>
      </trkpt>
      <trkpt lat="44.9089" lon="4.29765">
        <ele>1000.3</ele>
        <time>2026-05-06T10:00:24Z</time>
      </trkpt>
      <trkpt lat="44.9089" lon="4.29765">
        <ele>1000.3</ele>
        <time>2026-05-06T10:00:29Z</time>
      </trkpt>
      <trkpt lat="44.9089" lon="4.29765">
        <ele>1000.3</ele>
        <time>2026-05-06T10:00:34Z</time>
      </trkpt>
      <trkpt lat="44.9089" lon="4.29765">
        <ele>1000.3</ele>
        <time>2026-05-06T10:00:39Z</time>
      </trkpt>
      <trkpt lat="44.9089" lon="4.29765">
        <ele>1000.3</ele>
        <time>2026-05-06T10:00:44Z</time>
      </trkpt>
      <trkpt lat="44.90891" lon="4.29764">
        <ele>1000.6</ele>
        <time>2026-05-06T10:00:49Z</time>
      </trkpt>
      <trkpt lat="44.90893" lon="4.29757">
        <ele>1002</ele>
        <time>2026-05-06T10:00:54Z</time>
      </trkpt>
      <trkpt lat="44.90891" lon="4.2975">
        <ele>1002.2</ele>
        <time>2026-05-06T10:00:59Z</time>
      </trkpt>
      <trkpt lat="44.90888" lon="4.29743">
        <ele>1002.3</ele>
        <time>2026-05-06T10:01:04Z</time>
      </trkpt>
      <trkpt lat="44.90885" lon="4.29738">
        <ele>1002.1</ele>
        <time>2026-05-06T10:01:09Z</time>
      </trkpt>
      <trkpt lat="44.90881" lon="4.2973">
        <ele>1002</ele>
        <time>2026-05-06T10:01:14Z</time>
      </trkpt>
      <trkpt lat="44.90877" lon="4.29721">
        <ele>1002</ele>
        <time>2026-05-06T10:01:19Z</time>
      </trkpt>
      <trkpt lat="44.90876" lon="4.29714">
        <ele>1002.6</ele>
        <time>2026-05-06T10:01:24Z</time>
      </trkpt>
      <trkpt lat="44.90874" lon="4.29706">
        <ele>1003</ele>
        <time>2026-05-06T10:01:29Z</time>
      </trkpt>
      <trkpt lat="44.90871" lon="4.29697">
        <ele>1003.3</ele>
        <time>2026-05-06T10:01:34Z</time>
      </trkpt>
      <trkpt lat="44.90869" lon="4.29689">
        <ele>1003.7</ele>
        <time>2026-05-06T10:01:39Z</time>
      </trkpt>
      <trkpt lat="44.90866" lon="4.2968">
        <ele>1004</ele>
        <time>2026-05-06T10:01:44Z</time>
      </trkpt>
      <trkpt lat="44.90863" lon="4.29671">
        <ele>1004.3</ele>
        <time>2026-05-06T10:01:49Z</time>
      </trkpt>
      <trkpt lat="44.90861" lon="4.29662">
        <ele>1004.9</ele>
        <time>2026-05-06T10:01:54Z</time>
      </trkpt>
      <trkpt lat="44.90857" lon="4.29655">
        <ele>1004.9</ele>
        <time>2026-05-06T10:01:59Z</time>
      </trkpt>
      <trkpt lat="44.90854" lon="4.29647">
        <ele>1005.2</ele>
        <time>2026-05-06T10:02:04Z</time>
      </trkpt>
      <trkpt lat="44.9085" lon="4.29638">
        <ele>1005.6</ele>
        <time>2026-05-06T10:02:09Z</time>
      </trkpt>
      <trkpt lat="44.90845" lon="4.29631">
        <ele>1005.5</ele>
        <time>2026-05-06T10:02:14Z</time>
      </trkpt>
      <trkpt lat="44.90842" lon="4.29624">
        <ele>1006</ele>
        <time>2026-05-06T10:02:19Z</time>
      </trkpt>
      <trkpt lat="44.90842" lon="4.29618">
        <ele>1006.9</ele>
        <time>2026-05-06T10:02:24Z</time>
      </trkpt>
      <trkpt lat="44.90839" lon="4.29612">
        <ele>1007.3</ele>
        <time>2026-05-06T10:02:29Z</time>
      </trkpt>
      <trkpt lat="44.90835" lon="4.29605">
        <ele>1007.7</ele>
        <time>2026-05-06T10:02:34Z</time>
      </trkpt>
      <trkpt lat="44.90832" lon="4.29597">
        <ele>1008.4</ele>
        <time>2026-05-06T10:02:39Z</time>
      </trkpt>
      <trkpt lat="44.90829" lon="4.29591">
        <ele>1008.8</ele>
        <time>2026-05-06T10:02:44Z</time>
      </trkpt>
      <trkpt lat="44.90826" lon="4.29582">
        <ele>1009.7</ele>
        <time>2026-05-06T10:02:49Z</time>
      </trkpt>
      <trkpt lat="44.90824" lon="4.29579">
        <ele>1009.8</ele>
        <time>2026-05-06T10:02:54Z</time>
      </trkpt>
      <trkpt lat="44.90823" lon="4.29578">
        <ele>1009.8</ele>
        <time>2026-05-06T10:02:59Z</time>
      </trkpt>
      <trkpt lat="44.90822" lon="4.29571">
        <ele>1011</ele>
        <time>2026-05-06T10:03:04Z</time>
      </trkpt>
      <trkpt lat="44.90818" lon="4.29562">
        <ele>1011.9</ele>
        <time>2026-05-06T10:03:09Z</time>
      </trkpt>
      <trkpt lat="44.90815" lon="4.29554">
        <ele>1012.8</ele>
        <time>2026-05-06T10:03:14Z</time>
      </trkpt>
      <trkpt lat="44.90813" lon="4.29546">
        <ele>1014</ele>
        <time>2026-05-06T10:03:19Z</time>
      </trkpt>
      <trkpt lat="44.9081" lon="4.29537">
        <ele>1015.2</ele>
        <time>2026-05-06T10:03:24Z</time>
      </trkpt>
      <trkpt lat="44.90805" lon="4.2953">
        <ele>1015.6</ele>
        <time>2026-05-06T10:03:29Z</time>
      </trkpt>
      <trkpt lat="44.90802" lon="4.29521">
        <ele>1016.8</ele>
        <time>2026-05-06T10:03:34Z</time>
      </trkpt>
      <trkpt lat="44.90798" lon="4.29513">
        <ele>1017.6</ele>
        <time>2026-05-06T10:03:39Z</time>
      </trkpt>
      <trkpt lat="44.90795" lon="4.29504">
        <ele>1018.8</ele>
        <time>2026-05-06T10:03:44Z</time>
      </trkpt>
      <trkpt lat="44.90792" lon="4.29497">
        <ele>1019.7</ele>
        <time>2026-05-06T10:03:49Z</time>
      </trkpt>
      <trkpt lat="44.90788" lon="4.29486">
        <ele>1021.2</ele>
        <time>2026-05-06T10:03:54Z</time>
      </trkpt>
      <trkpt lat="44.90785" lon="4.29477">
        <ele>1022.6</ele>
        <time>2026-05-06T10:03:59Z</time>
      </trkpt>
      <trkpt lat="44.90781" lon="4.2947">
        <ele>1023.5</ele>
        <time>2026-05-06T10:04:04Z</time>
      </trkpt>
      <trkpt lat="44.90777" lon="4.29462">
        <ele>1024.7</ele>
        <time>2026-05-06T10:04:09Z</time>
      </trkpt>
      <trkpt lat="44.90774" lon="4.29455">
        <ele>1025.9</ele>
        <time>2026-05-06T10:04:14Z</time>
      </trkpt>
      <trkpt lat="44.9077" lon="4.29447">
        <ele>1027.3</ele>
        <time>2026-05-06T10:04:19Z</time>
      </trkpt>
      <trkpt lat="44.90767" lon="4.29438">
        <ele>1029.1</ele>
        <time>2026-05-06T10:04:24Z</time>
      </trkpt>
      <trkpt lat="44.90765" lon="4.29431">
        <ele>1030.6</ele>
        <time>2026-05-06T10:04:29Z</time>
      </trkpt>
      <trkpt lat="44.90761" lon="4.29425">
        <ele>1031.7</ele>
        <time>2026-05-06T10:04:34Z</time>
      </trkpt>
      <trkpt lat="44.90756" lon="4.29419">
        <ele>1032.8</ele>
        <time>2026-05-06T10:04:39Z</time>
      </trkpt>
      <trkpt lat="44.90752" lon="4.29416">
        <ele>1033.3</ele>
        <time>2026-05-06T10:04:44Z</time>
      </trkpt>
      <trkpt lat="44.90749" lon="4.2941">
        <ele>1034</ele>
        <time>2026-05-06T10:04:49Z</time>
      </trkpt>
      <trkpt lat="44.90746" lon="4.29406">
        <ele>1034.2</ele>
        <time>2026-05-06T10:04:54Z</time>
      </trkpt>
      <trkpt lat="44.90743" lon="4.29401">
        <ele>1034.6</ele>
        <time>2026-05-06T10:04:59Z</time>
      </trkpt>
      <trkpt lat="44.90742" lon="4.29395">
        <ele>1035.6</ele>
        <time>2026-05-06T10:05:04Z</time>
      </trkpt>
      <trkpt lat="44.90739" lon="4.29388">
        <ele>1036.4</ele>
        <time>2026-05-06T10:05:09Z</time>
      </trkpt>
      <trkpt lat="44.90737" lon="4.29381">
        <ele>1037.5</ele>
        <time>2026-05-06T10:05:14Z</time>
      </trkpt>
      <trkpt lat="44.90736" lon="4.29375">
        <ele>1038.5</ele>
        <time>2026-05-06T10:05:19Z</time>
      </trkpt>
      <trkpt lat="44.90735" lon="4.29368">
        <ele>1039.7</ele>
        <time>2026-05-06T10:05:24Z</time>
      </trkpt>
      <trkpt lat="44.90732" lon="4.29362">
        <ele>1040.5</ele>
        <time>2026-05-06T10:05:29Z</time>
      </trkpt>
      <trkpt lat="44.90729" lon="4.29356">
        <ele>1041.4</ele>
        <time>2026-05-06T10:05:34Z</time>
      </trkpt>
      <trkpt lat="44.90725" lon="4.29351">
        <ele>1041.9</ele>
        <time>2026-05-06T10:05:39Z</time>
      </trkpt>
      <trkpt lat="44.9072" lon="4.29348">
        <ele>1042</ele>
        <time>2026-05-06T10:05:44Z</time>
      </trkpt>
      <trkpt lat="44.90716" lon="4.29345">
        <ele>1042.2</ele>
        <time>2026-05-06T10:05:49Z</time>
      </trkpt>
      <trkpt lat="44.90712" lon="4.29343">
        <ele>1042.2</ele>
        <time>2026-05-06T10:05:54Z</time>
      </trkpt>
      <trkpt lat="44.90707" lon="4.2934">
        <ele>1042.3</ele>
        <time>2026-05-06T10:05:59Z</time>
      </trkpt>
      <trkpt lat="44.90703" lon="4.29336">
        <ele>1042.9</ele>
        <time>2026-05-06T10:06:04Z</time>
      </trkpt>
      <trkpt lat="44.907" lon="4.2933">
        <ele>1043.7</ele>
        <time>2026-05-06T10:06:09Z</time>
      </trkpt>
      <trkpt lat="44.90696" lon="4.29326">
        <ele>1044</ele>
        <time>2026-05-06T10:06:14Z</time>
      </trkpt>
      <trkpt lat="44.90693" lon="4.29322">
        <ele>1044.4</ele>
        <time>2026-05-06T10:06:19Z</time>
      </trkpt>
      <trkpt lat="44.90692" lon="4.29323">
        <ele>1044.1</ele>
        <time>2026-05-06T10:06:24Z</time>
      </trkpt>
      <trkpt lat="44.90691" lon="4.29324">
        <ele>1043.9</ele>
        <time>2026-05-06T10:06:29Z</time>
      </trkpt>
      <trkpt lat="44.90691" lon="4.29324">
        <ele>1043.9</ele>
        <time>2026-05-06T10:06:34Z</time>
      </trkpt>
      <trkpt lat="44.90691" lon="4.29324">
        <ele>1043.9</ele>
        <time>2026-05-06T10:06:39Z</time>
      </trkpt>
      <trkpt lat="44.90691" lon="4.29324">
        <ele>1043.9</ele>
        <time>2026-05-06T10:06:44Z</time>
      </trkpt>
      <trkpt lat="44.90691" lon="4.29324">
        <ele>1043.9</ele>
        <time>2026-05-06T10:06:49Z</time>
      </trkpt>
      <trkpt lat="44.90691" lon="4.29314">
        <ele>1045.5</ele>
        <time>2026-05-06T10:06:54Z</time>
      </trkpt>
      <trkpt lat="44.90688" lon="4.29306">
        <ele>1046.5</ele>
        <time>2026-05-06T10:06:59Z</time>
      </trkpt>
      <trkpt lat="44.90683" lon="4.293">
        <ele>1047.2</ele>
        <time>2026-05-06T10:07:04Z</time>
      </trkpt>
      <trkpt lat="44.90677" lon="4.29293">
        <ele>1048</ele>
        <time>2026-05-06T10:07:09Z</time>
      </trkpt>
      <trkpt lat="44.90672" lon="4.29288">
        <ele>1048.5</ele>
        <time>2026-05-06T10:07:14Z</time>
      </trkpt>
      <trkpt lat="44.90666" lon="4.29282">
        <ele>1049.2</ele>
        <time>2026-05-06T10:07:19Z</time>
      </trkpt>
      <trkpt lat="44.90662" lon="4.2928">
        <ele>1049.4</ele>
        <time>2026-05-06T10:07:24Z</time>
      </trkpt>
      <trkpt lat="44.90661" lon="4.2928">
        <ele>1049.3</ele>
        <time>2026-05-06T10:07:29Z</time>
      </trkpt>
      <trkpt lat="44.9066" lon="4.29281">
        <ele>1049.1</ele>
        <time>2026-05-06T10:07:34Z</time>
      </trkpt>
      <trkpt lat="44.9066" lon="4.29281">
        <ele>1049.1</ele>
        <time>2026-05-06T10:07:39Z</time>
      </trkpt>
      <trkpt lat="44.90661" lon="4.2928">
        <ele>1049.3</ele>
        <time>2026-05-06T10:07:44Z</time>
      </trkpt>
      <trkpt lat="44.90658" lon="4.29274">
        <ele>1050.3</ele>
        <time>2026-05-06T10:07:49Z</time>
      </trkpt>
      <trkpt lat="44.90656" lon="4.29272">
        <ele>1050.6</ele>
        <time>2026-05-06T10:07:54Z</time>
      </trkpt>
      <trkpt lat="44.90653" lon="4.29269">
        <ele>1051.1</ele>
        <time>2026-05-06T10:07:59Z</time>
      </trkpt>
      <trkpt lat="44.90647" lon="4.29263">
        <ele>1052</ele>
        <time>2026-05-06T10:08:04Z</time>
      </trkpt>
      <trkpt lat="44.90641" lon="4.29257">
        <ele>1053</ele>
        <time>2026-05-06T10:08:09Z</time>
      </trkpt>
      <trkpt lat="44.90636" lon="4.29253">
        <ele>1053.7</ele>
        <time>2026-05-06T10:08:14Z</time>
      </trkpt>
      <trkpt lat="44.9063" lon="4.29249">
        <ele>1054.2</ele>
        <time>2026-05-06T10:08:19Z</time>
      </trkpt>
      <trkpt lat="44.90624" lon="4.29245">
        <ele>1054.1</ele>
        <time>2026-05-06T10:08:24Z</time>
      </trkpt>
      <trkpt lat="44.90622" lon="4.29245">
        <ele>1054.1</ele>
        <time>2026-05-06T10:08:29Z</time>
      </trkpt>
      <trkpt lat="44.90621" lon="4.29244">
        <ele>1054</ele>
        <time>2026-05-06T10:08:34Z</time>
      </trkpt>
      <trkpt lat="44.90617" lon="4.29241">
        <ele>1054</ele>
        <time>2026-05-06T10:08:39Z</time>
      </trkpt>
      <trkpt lat="44.9061" lon="4.29237">
        <ele>1053.7</ele>
        <time>2026-05-06T10:08:44Z</time>
      </trkpt>
      <trkpt lat="44.90605" lon="4.29232">
        <ele>1053.5</ele>
        <time>2026-05-06T10:08:49Z</time>
      </trkpt>
      <trkpt lat="44.90599" lon="4.29226">
        <ele>1053.1</ele>
        <time>2026-05-06T10:08:54Z</time>
      </trkpt>
      <trkpt lat="44.90594" lon="4.2922">
        <ele>1052.7</ele>
        <time>2026-05-06T10:08:59Z</time>
      </trkpt>
      <trkpt lat="44.90588" lon="4.29214">
        <ele>1052.1</ele>
        <time>2026-05-06T10:09:04Z</time>
      </trkpt>
      <trkpt lat="44.90582" lon="4.29208">
        <ele>1051.4</ele>
        <time>2026-05-06T10:09:09Z</time>
      </trkpt>
      <trkpt lat="44.90576" lon="4.29202">
        <ele>1050.5</ele>
        <time>2026-05-06T10:09:14Z</time>
      </trkpt>
      <trkpt lat="44.90572" lon="4.29199">
        <ele>1050</ele>
        <time>2026-05-06T10:09:19Z</time>
      </trkpt>
      <trkpt lat="44.90569" lon="4.29197">
        <ele>1049.6</ele>
        <time>2026-05-06T10:09:24Z</time>
      </trkpt>
      <trkpt lat="44.90564" lon="4.29192">
        <ele>1048.8</ele>
        <time>2026-05-06T10:09:29Z</time>
      </trkpt>
      <trkpt lat="44.90561" lon="4.29184">
        <ele>1048</ele>
        <time>2026-05-06T10:09:34Z</time>
      </trkpt>
      <trkpt lat="44.90559" lon="4.2918">
        <ele>1047.5</ele>
        <time>2026-05-06T10:09:39Z</time>
      </trkpt>
      <trkpt lat="44.90558" lon="4.2918">
        <ele>1047.4</ele>
        <time>2026-05-06T10:09:44Z</time>
      </trkpt>
      <trkpt lat="44.90558" lon="4.2918">
        <ele>1047.4</ele>
        <time>2026-05-06T10:09:49Z</time>
      </trkpt>
      <trkpt lat="44.90558" lon="4.2918">
        <ele>1047.4</ele>
        <time>2026-05-06T10:09:54Z</time>
      </trkpt>
      <trkpt lat="44.90558" lon="4.2918">
        <ele>1047.4</ele>
        <time>2026-05-06T10:09:59Z</time>
      </trkpt>
      <trkpt lat="44.90558" lon="4.2918">
        <ele>1047.4</ele>
        <time>2026-05-06T10:10:04Z</time>
      </trkpt>
      <trkpt lat="44.90558" lon="4.2918">
        <ele>1047.4</ele>
        <time>2026-05-06T10:10:09Z</time>
      </trkpt>
      <trkpt lat="44.90558" lon="4.2918">
        <ele>1047.4</ele>
        <time>2026-05-06T10:10:14Z</time>
      </trkpt>
      <trkpt lat="44.90558" lon="4.2918">
        <ele>1047.4</ele>
        <time>2026-05-06T10:10:19Z</time>
      </trkpt>
      <trkpt lat="44.90558" lon="4.2918">
        <ele>1047.4</ele>
        <time>2026-05-06T10:10:24Z</time>
      </trkpt>
      <trkpt lat="44.90558" lon="4.2918">
        <ele>1047.4</ele>
        <time>2026-05-06T10:10:29Z</time>
      </trkpt>
      <trkpt lat="44.90558" lon="4.2918">
        <ele>1047.4</ele>
        <time>2026-05-06T10:10:34Z</time>
      </trkpt>
      <trkpt lat="44.90558" lon="4.2918">
        <ele>1047.4</ele>
        <time>2026-05-06T10:10:39Z</time>
      </trkpt>
      <trkpt lat="44.90558" lon="4.2918">
        <ele>1047.4</ele>
        <time>2026-05-06T10:10:44Z</time>
      </trkpt>
      <trkpt lat="44.90558" lon="4.2918">
        <ele>1047.4</ele>
        <time>2026-05-06T10:10:49Z</time>
      </trkpt>
      <trkpt lat="44.90558" lon="4.2918">
        <ele>1047.4</ele>
        <time>2026-05-06T10:10:54Z</time>
      </trkpt>
      <trkpt lat="44.90558" lon="4.2918">
        <ele>1047.4</ele>
        <time>2026-05-06T10:10:59Z</time>
      </trkpt>
      <trkpt lat="44.90558" lon="4.2918">
        <ele>1047.4</ele>
        <time>2026-05-06T10:11:04Z</time>
      </trkpt>
      <trkpt lat="44.90558" lon="4.2918">
        <ele>1047.4</ele>
        <time>2026-05-06T10:11:09Z</time>
      </trkpt>
      <trkpt lat="44.90558" lon="4.2918">
        <ele>1047.4</ele>
        <time>2026-05-06T10:11:14Z</time>
      </trkpt>
      <trkpt lat="44.90558" lon="4.2918">
        <ele>1047.4</ele>
        <time>2026-05-06T10:11:19Z</time>
      </trkpt>
      <trkpt lat="44.90558" lon="4.2918">
        <ele>1047.4</ele>
        <time>2026-05-06T10:11:24Z</time>
      </trkpt>
      <trkpt lat="44.90558" lon="4.2918">
        <ele>1047.4</ele>
        <time>2026-05-06T10:11:29Z</time>
      </trkpt>
      <trkpt lat="44.90558" lon="4.2918">
        <ele>1047.4</ele>
        <time>2026-05-06T10:11:34Z</time>
      </trkpt>
      <trkpt lat="44.90557" lon="4.29177">
        <ele>1047.1</ele>
        <time>2026-05-06T10:11:39Z</time>
      </trkpt>
      <trkpt lat="44.90554" lon="4.29175">
        <ele>1046.6</ele>
        <time>2026-05-06T10:11:44Z</time>
      </trkpt>
      <trkpt lat="44.90551" lon="4.29176">
        <ele>1046.3</ele>
        <time>2026-05-06T10:11:49Z</time>
      </trkpt>
      <trkpt lat="44.90544" lon="4.29176">
        <ele>1045.5</ele>
        <time>2026-05-06T10:11:54Z</time>
      </trkpt>
      <trkpt lat="44.90538" lon="4.29177">
        <ele>1044.8</ele>
        <time>2026-05-06T10:11:59Z</time>
      </trkpt>
      <trkpt lat="44.90536" lon="4.29178">
        <ele>1044.6</ele>
        <time>2026-05-06T10:12:04Z</time>
      </trkpt>
      <trkpt lat="44.90535" lon="4.29178">
        <ele>1044.5</ele>
        <time>2026-05-06T10:12:09Z</time>
      </trkpt>
      <trkpt lat="44.90535" lon="4.29178">
        <ele>1044.5</ele>
        <time>2026-05-06T10:12:14Z</time>
      </trkpt>
      <trkpt lat="44.90535" lon="4.29178">
        <ele>1044.5</ele>
        <time>2026-05-06T10:12:19Z</time>
      </trkpt>
      <trkpt lat="44.90535" lon="4.29178">
        <ele>1044.5</ele>
        <time>2026-05-06T10:12:24Z</time>
      </trkpt>
      <trkpt lat="44.90527" lon="4.29183">
        <ele>1043.9</ele>
        <time>2026-05-06T10:12:29Z</time>
      </trkpt>
      <trkpt lat="44.9052" lon="4.29179">
        <ele>1042.8</ele>
        <time>2026-05-06T10:12:34Z</time>
      </trkpt>
      <trkpt lat="44.90515" lon="4.29179">
        <ele>1042.2</ele>
        <time>2026-05-06T10:12:39Z</time>
      </trkpt>
      <trkpt lat="44.90507" lon="4.29183">
        <ele>1041.6</ele>
        <time>2026-05-06T10:12:44Z</time>
      </trkpt>
      <trkpt lat="44.90499" lon="4.29186">
        <ele>1041.2</ele>
        <time>2026-05-06T10:12:49Z</time>
      </trkpt>
      <trkpt lat="44.90492" lon="4.29185">
        <ele>1041.6</ele>
        <time>2026-05-06T10:12:54Z</time>
      </trkpt>
      <trkpt lat="44.90485" lon="4.2919">
        <ele>1042.7</ele>
        <time>2026-05-06T10:12:59Z</time>
      </trkpt>
      <trkpt lat="44.90477" lon="4.29195">
        <ele>1044.1</ele>
        <time>2026-05-06T10:13:04Z</time>
      </trkpt>
      <trkpt lat="44.90472" lon="4.29197">
        <ele>1044.8</ele>
        <time>2026-05-06T10:13:09Z</time>
      </trkpt>
      <trkpt lat="44.90466" lon="4.29204">
        <ele>1046.5</ele>
        <time>2026-05-06T10:13:14Z</time>
      </trkpt>
      <trkpt lat="44.90459" lon="4.2921">
        <ele>1048.2</ele>
        <time>2026-05-06T10:13:19Z</time>
      </trkpt>
      <trkpt lat="44.90451" lon="4.29216">
        <ele>1050.2</ele>
        <time>2026-05-06T10:13:24Z</time>
      </trkpt>
      <trkpt lat="44.90445" lon="4.29222">
        <ele>1052</ele>
        <time>2026-05-06T10:13:29Z</time>
      </trkpt>
      <trkpt lat="44.90437" lon="4.29227">
        <ele>1054</ele>
        <time>2026-05-06T10:13:34Z</time>
      </trkpt>
      <trkpt lat="44.90429" lon="4.29231">
        <ele>1055.9</ele>
        <time>2026-05-06T10:13:39Z</time>
      </trkpt>
      <trkpt lat="44.90422" lon="4.29237">
        <ele>1058.2</ele>
        <time>2026-05-06T10:13:44Z</time>
      </trkpt>
      <trkpt lat="44.90415" lon="4.29241">
        <ele>1060.1</ele>
        <time>2026-05-06T10:13:49Z</time>
      </trkpt>
      <trkpt lat="44.90409" lon="4.29245">
        <ele>1061.6</ele>
        <time>2026-05-06T10:13:54Z</time>
      </trkpt>
      <trkpt lat="44.90403" lon="4.29248">
        <ele>1062.8</ele>
        <time>2026-05-06T10:13:59Z</time>
      </trkpt>
      <trkpt lat="44.90396" lon="4.29252">
        <ele>1064.3</ele>
        <time>2026-05-06T10:14:04Z</time>
      </trkpt>
      <trkpt lat="44.90392" lon="4.29255">
        <ele>1065.2</ele>
        <time>2026-05-06T10:14:09Z</time>
      </trkpt>
      <trkpt lat="44.90387" lon="4.29257">
        <ele>1066.1</ele>
        <time>2026-05-06T10:14:14Z</time>
      </trkpt>
      <trkpt lat="44.90381" lon="4.29261">
        <ele>1067.5</ele>
        <time>2026-05-06T10:14:19Z</time>
      </trkpt>
      <trkpt lat="44.90376" lon="4.29262">
        <ele>1068.3</ele>
        <time>2026-05-06T10:14:24Z</time>
      </trkpt>
      <trkpt lat="44.90371" lon="4.29264">
        <ele>1069.3</ele>
        <time>2026-05-06T10:14:29Z</time>
      </trkpt>
      <trkpt lat="44.90366" lon="4.29266">
        <ele>1070.3</ele>
        <time>2026-05-06T10:14:34Z</time>
      </trkpt>
      <trkpt lat="44.90362" lon="4.29266">
        <ele>1070.9</ele>
        <time>2026-05-06T10:14:39Z</time>
      </trkpt>
      <trkpt lat="44.90357" lon="4.29267">
        <ele>1071.8</ele>
        <time>2026-05-06T10:14:44Z</time>
      </trkpt>
      <trkpt lat="44.90355" lon="4.29265">
        <ele>1071.5</ele>
        <time>2026-05-06T10:14:49Z</time>
      </trkpt>
      <trkpt lat="44.90355" lon="4.29268">
        <ele>1072.3</ele>
        <time>2026-05-06T10:14:54Z</time>
      </trkpt>
      <trkpt lat="44.90356" lon="4.29274">
        <ele>1073.6</ele>
        <time>2026-05-06T10:14:59Z</time>
      </trkpt>
      <trkpt lat="44.90355" lon="4.29279">
        <ele>1074.9</ele>
        <time>2026-05-06T10:15:04Z</time>
      </trkpt>
      <trkpt lat="44.90353" lon="4.29283">
        <ele>1076.2</ele>
        <time>2026-05-06T10:15:09Z</time>
      </trkpt>
      <trkpt lat="44.90351" lon="4.29287">
        <ele>1077.5</ele>
        <time>2026-05-06T10:15:14Z</time>
      </trkpt>
      <trkpt lat="44.90349" lon="4.29288">
        <ele>1078.2</ele>
        <time>2026-05-06T10:15:19Z</time>
      </trkpt>
      <trkpt lat="44.90349" lon="4.29288">
        <ele>1078.2</ele>
        <time>2026-05-06T10:15:24Z</time>
      </trkpt>
      <trkpt lat="44.90345" lon="4.29295">
        <ele>1080.7</ele>
        <time>2026-05-06T10:15:29Z</time>
      </trkpt>
      <trkpt lat="44.90345" lon="4.29299">
        <ele>1081.8</ele>
        <time>2026-05-06T10:15:34Z</time>
      </trkpt>
      <trkpt lat="44.90341" lon="4.29305">
        <ele>1084.2</ele>
        <time>2026-05-06T10:15:39Z</time>
      </trkpt>
      <trkpt lat="44.90338" lon="4.29306">
        <ele>1085.1</ele>
        <time>2026-05-06T10:15:44Z</time>
      </trkpt>
      <trkpt lat="44.90337" lon="4.29308">
        <ele>1085.9</ele>
        <time>2026-05-06T10:15:49Z</time>
      </trkpt>
      <trkpt lat="44.90335" lon="4.2932">
        <ele>1089.7</ele>
        <time>2026-05-06T10:15:54Z</time>
      </trkpt>
      <trkpt lat="44.90333" lon="4.29324">
        <ele>1091.3</ele>
        <time>2026-05-06T10:15:59Z</time>
      </trkpt>
      <trkpt lat="44.90333" lon="4.29329">
        <ele>1092.7</ele>
        <time>2026-05-06T10:16:04Z</time>
      </trkpt>
      <trkpt lat="44.90331" lon="4.29332">
        <ele>1093.4</ele>
        <time>2026-05-06T10:16:09Z</time>
      </trkpt>
      <trkpt lat="44.9033" lon="4.29336">
        <ele>1093.7</ele>
        <time>2026-05-06T10:16:14Z</time>
      </trkpt>
      <trkpt lat="44.90327" lon="4.29339">
        <ele>1093.4</ele>
        <time>2026-05-06T10:16:19Z</time>
      </trkpt>
      <trkpt lat="44.90325" lon="4.29342">
        <ele>1093.2</ele>
        <time>2026-05-06T10:16:24Z</time>
      </trkpt>
      <trkpt lat="44.90323" lon="4.29346">
        <ele>1093</ele>
        <time>2026-05-06T10:16:29Z</time>
      </trkpt>
      <trkpt lat="44.90321" lon="4.2935">
        <ele>1092.8</ele>
        <time>2026-05-06T10:16:34Z</time>
      </trkpt>
      <trkpt lat="44.9032" lon="4.29354">
        <ele>1092.7</ele>
        <time>2026-05-06T10:16:39Z</time>
      </trkpt>
      <trkpt lat="44.90319" lon="4.29358">
        <ele>1092.6</ele>
        <time>2026-05-06T10:16:44Z</time>
      </trkpt>
      <trkpt lat="44.90316" lon="4.29361">
        <ele>1092.6</ele>
        <time>2026-05-06T10:16:49Z</time>
      </trkpt>
      <trkpt lat="44.90314" lon="4.29367">
        <ele>1092.6</ele>
        <time>2026-05-06T10:16:54Z</time>
      </trkpt>
      <trkpt lat="44.90311" lon="4.29373">
        <ele>1092.7</ele>
        <time>2026-05-06T10:16:59Z</time>
      </trkpt>
      <trkpt lat="44.90307" lon="4.29376">
        <ele>1092.8</ele>
        <time>2026-05-06T10:17:04Z</time>
      </trkpt>
      <trkpt lat="44.90302" lon="4.29381">
        <ele>1093.1</ele>
        <time>2026-05-06T10:17:09Z</time>
      </trkpt>
      <trkpt lat="44.90299" lon="4.29385">
        <ele>1093.4</ele>
        <time>2026-05-06T10:17:14Z</time>
      </trkpt>
      <trkpt lat="44.90296" lon="4.29386">
        <ele>1093.6</ele>
        <time>2026-05-06T10:17:19Z</time>
      </trkpt>
      <trkpt lat="44.90297" lon="4.2938">
        <ele>1093.3</ele>
        <time>2026-05-06T10:17:24Z</time>
      </trkpt>
      <trkpt lat="44.90299" lon="4.29375">
        <ele>1093</ele>
        <time>2026-05-06T10:17:29Z</time>
      </trkpt>
      <trkpt lat="44.90301" lon="4.2937">
        <ele>1092.8</ele>
        <time>2026-05-06T10:17:34Z</time>
      </trkpt>
      <trkpt lat="44.903" lon="4.29369">
        <ele>1092.8</ele>
        <time>2026-05-06T10:17:39Z</time>
      </trkpt>
      <trkpt lat="44.90299" lon="4.2937">
        <ele>1092.8</ele>
        <time>2026-05-06T10:17:44Z</time>
      </trkpt>
      <trkpt lat="44.90299" lon="4.2937">
        <ele>1092.8</ele>
        <time>2026-05-06T10:17:49Z</time>
      </trkpt>
      <trkpt lat="44.90299" lon="4.2937">
        <ele>1092.8</ele>
        <time>2026-05-06T10:17:54Z</time>
      </trkpt>
      <trkpt lat="44.90299" lon="4.2937">
        <ele>1092.8</ele>
        <time>2026-05-06T10:17:59Z</time>
      </trkpt>
      <trkpt lat="44.90299" lon="4.2937">
        <ele>1092.8</ele>
        <time>2026-05-06T10:18:04Z</time>
      </trkpt>
      <trkpt lat="44.90299" lon="4.2937">
        <ele>1092.8</ele>
        <time>2026-05-06T10:18:09Z</time>
      </trkpt>
      <trkpt lat="44.90299" lon="4.2937">
        <ele>1092.8</ele>
        <time>2026-05-06T10:18:14Z</time>
      </trkpt>
      <trkpt lat="44.90299" lon="4.2937">
        <ele>1092.8</ele>
        <time>2026-05-06T10:18:19Z</time>
      </trkpt>
      <trkpt lat="44.90299" lon="4.2937">
        <ele>1092.8</ele>
        <time>2026-05-06T10:18:24Z</time>
      </trkpt>
      <trkpt lat="44.90299" lon="4.2937">
        <ele>1092.8</ele>
        <time>2026-05-06T10:18:29Z</time>
      </trkpt>
      <trkpt lat="44.90299" lon="4.2937">
        <ele>1092.8</ele>
        <time>2026-05-06T10:18:34Z</time>
      </trkpt>
      <trkpt lat="44.90299" lon="4.2937">
        <ele>1092.8</ele>
        <time>2026-05-06T10:18:39Z</time>
      </trkpt>
      <trkpt lat="44.90299" lon="4.2937">
        <ele>1092.8</ele>
        <time>2026-05-06T10:18:44Z</time>
      </trkpt>
      <trkpt lat="44.90299" lon="4.2937">
        <ele>1092.8</ele>
        <time>2026-05-06T10:18:49Z</time>
      </trkpt>
      <trkpt lat="44.90299" lon="4.2937">
        <ele>1092.8</ele>
        <time>2026-05-06T10:18:54Z</time>
      </trkpt>
      <trkpt lat="44.90299" lon="4.2937">
        <ele>1092.8</ele>
        <time>2026-05-06T10:18:59Z</time>
      </trkpt>
      <trkpt lat="44.90299" lon="4.2937">
        <ele>1092.8</ele>
        <time>2026-05-06T10:19:04Z</time>
      </trkpt>
      <trkpt lat="44.90299" lon="4.2937">
        <ele>1092.8</ele>
        <time>2026-05-06T10:19:09Z</time>
      </trkpt>
      <trkpt lat="44.90299" lon="4.2937">
        <ele>1092.8</ele>
        <time>2026-05-06T10:19:14Z</time>
      </trkpt>
      <trkpt lat="44.90299" lon="4.2937">
        <ele>1092.8</ele>
        <time>2026-05-06T10:19:19Z</time>
      </trkpt>
      <trkpt lat="44.90299" lon="4.2937">
        <ele>1092.8</ele>
        <time>2026-05-06T10:19:24Z</time>
      </trkpt>
      <trkpt lat="44.90299" lon="4.2937">
        <ele>1092.8</ele>
        <time>2026-05-06T10:19:29Z</time>
      </trkpt>
      <trkpt lat="44.90299" lon="4.2937">
        <ele>1092.8</ele>
        <time>2026-05-06T10:19:34Z</time>
      </trkpt>
      <trkpt lat="44.90299" lon="4.2937">
        <ele>1092.8</ele>
        <time>2026-05-06T10:19:39Z</time>
      </trkpt>
      <trkpt lat="44.90307" lon="4.29369">
        <ele>1092.7</ele>
        <time>2026-05-06T10:19:44Z</time>
      </trkpt>
      <trkpt lat="44.90306" lon="4.29361">
        <ele>1092.6</ele>
        <time>2026-05-06T10:19:49Z</time>
      </trkpt>
      <trkpt lat="44.90306" lon="4.29354">
        <ele>1092.4</ele>
        <time>2026-05-06T10:19:54Z</time>
      </trkpt>
      <trkpt lat="44.90304" lon="4.29349">
        <ele>1092.3</ele>
        <time>2026-05-06T10:19:59Z</time>
      </trkpt>
      <trkpt lat="44.90301" lon="4.29343">
        <ele>1092</ele>
        <time>2026-05-06T10:20:04Z</time>
      </trkpt>
      <trkpt lat="44.903" lon="4.29338">
        <ele>1091.8</ele>
        <time>2026-05-06T10:20:09Z</time>
      </trkpt>
      <trkpt lat="44.90298" lon="4.29333">
        <ele>1091.3</ele>
        <time>2026-05-06T10:20:14Z</time>
      </trkpt>
      <trkpt lat="44.90297" lon="4.29329">
        <ele>1089.9</ele>
        <time>2026-05-06T10:20:19Z</time>
      </trkpt>
      <trkpt lat="44.90295" lon="4.29326">
        <ele>1088.7</ele>
        <time>2026-05-06T10:20:24Z</time>
      </trkpt>
      <trkpt lat="44.90292" lon="4.29322">
        <ele>1087</ele>
        <time>2026-05-06T10:20:29Z</time>
      </trkpt>
      <trkpt lat="44.9029" lon="4.29319">
        <ele>1085.8</ele>
        <time>2026-05-06T10:20:34Z</time>
      </trkpt>
      <trkpt lat="44.90285" lon="4.29319">
        <ele>1085.3</ele>
        <time>2026-05-06T10:20:39Z</time>
      </trkpt>
      <trkpt lat="44.90281" lon="4.29323">
        <ele>1086.4</ele>
        <time>2026-05-06T10:20:44Z</time>
      </trkpt>
      <trkpt lat="44.90277" lon="4.29326">
        <ele>1087.2</ele>
        <time>2026-05-06T10:20:49Z</time>
      </trkpt>
      <trkpt lat="44.90272" lon="4.29327">
        <ele>1087.1</ele>
        <time>2026-05-06T10:20:54Z</time>
      </trkpt>
      <trkpt lat="44.90268" lon="4.29328">
        <ele>1087.2</ele>
        <time>2026-05-06T10:20:59Z</time>
      </trkpt>
      <trkpt lat="44.90265" lon="4.2933">
        <ele>1087.8</ele>
        <time>2026-05-06T10:21:04Z</time>
      </trkpt>
      <trkpt lat="44.9026" lon="4.29332">
        <ele>1088.2</ele>
        <time>2026-05-06T10:21:09Z</time>
      </trkpt>
      <trkpt lat="44.90257" lon="4.29335">
        <ele>1088.7</ele>
        <time>2026-05-06T10:21:14Z</time>
      </trkpt>
      <trkpt lat="44.90254" lon="4.29338">
        <ele>1089</ele>
        <time>2026-05-06T10:21:19Z</time>
      </trkpt>
      <trkpt lat="44.90249" lon="4.29341">
        <ele>1088.6</ele>
        <time>2026-05-06T10:21:24Z</time>
      </trkpt>
      <trkpt lat="44.90246" lon="4.2934">
        <ele>1086.5</ele>
        <time>2026-05-06T10:21:29Z</time>
      </trkpt>
      <trkpt lat="44.90244" lon="4.29339">
        <ele>1085</ele>
        <time>2026-05-06T10:21:34Z</time>
      </trkpt>
      <trkpt lat="44.90242" lon="4.29336">
        <ele>1083.2</ele>
        <time>2026-05-06T10:21:39Z</time>
      </trkpt>
      <trkpt lat="44.90241" lon="4.29335">
        <ele>1082.4</ele>
        <time>2026-05-06T10:21:44Z</time>
      </trkpt>
      <trkpt lat="44.90237" lon="4.29331">
        <ele>1078.5</ele>
        <time>2026-05-06T10:21:49Z</time>
      </trkpt>
      <trkpt lat="44.90235" lon="4.29329">
        <ele>1076.5</ele>
        <time>2026-05-06T10:21:54Z</time>
      </trkpt>
      <trkpt lat="44.90234" lon="4.29325">
        <ele>1074.3</ele>
        <time>2026-05-06T10:21:59Z</time>
      </trkpt>
      <trkpt lat="44.90232" lon="4.29325">
        <ele>1073</ele>
        <time>2026-05-06T10:22:04Z</time>
      </trkpt>
      <trkpt lat="44.90229" lon="4.29325">
        <ele>1071.1</ele>
        <time>2026-05-06T10:22:09Z</time>
      </trkpt>
      <trkpt lat="44.90226" lon="4.29324">
        <ele>1068.9</ele>
        <time>2026-05-06T10:22:14Z</time>
      </trkpt>
      <trkpt lat="44.90223" lon="4.29324">
        <ele>1066.9</ele>
        <time>2026-05-06T10:22:19Z</time>
      </trkpt>
      <trkpt lat="44.90221" lon="4.29324">
        <ele>1065.7</ele>
        <time>2026-05-06T10:22:24Z</time>
      </trkpt>
      <trkpt lat="44.90221" lon="4.29325">
        <ele>1066</ele>
        <time>2026-05-06T10:22:29Z</time>
      </trkpt>
      <trkpt lat="44.90221" lon="4.29325">
        <ele>1066</ele>
        <time>2026-05-06T10:22:34Z</time>
      </trkpt>
      <trkpt lat="44.9022" lon="4.29332">
        <ele>1067.7</ele>
        <time>2026-05-06T10:22:39Z</time>
      </trkpt>
      <trkpt lat="44.90219" lon="4.29335">
        <ele>1068</ele>
        <time>2026-05-06T10:22:44Z</time>
      </trkpt>
      <trkpt lat="44.90217" lon="4.29334">
        <ele>1066.4</ele>
        <time>2026-05-06T10:22:49Z</time>
      </trkpt>
      <trkpt lat="44.90216" lon="4.29335">
        <ele>1066</ele>
        <time>2026-05-06T10:22:54Z</time>
      </trkpt>
      <trkpt lat="44.90213" lon="4.29334">
        <ele>1063.8</ele>
        <time>2026-05-06T10:22:59Z</time>
      </trkpt>
      <trkpt lat="44.90212" lon="4.29333">
        <ele>1062.8</ele>
        <time>2026-05-06T10:23:04Z</time>
      </trkpt>
      <trkpt lat="44.90212" lon="4.29333">
        <ele>1062.8</ele>
        <time>2026-05-06T10:23:09Z</time>
      </trkpt>
      <trkpt lat="44.90212" lon="4.29339">
        <ele>1064.5</ele>
        <time>2026-05-06T10:23:14Z</time>
      </trkpt>
      <trkpt lat="44.90211" lon="4.29343">
        <ele>1065</ele>
        <time>2026-05-06T10:23:19Z</time>
      </trkpt>
      <trkpt lat="44.90209" lon="4.29346">
        <ele>1064.6</ele>
        <time>2026-05-06T10:23:24Z</time>
      </trkpt>
      <trkpt lat="44.90206" lon="4.29349">
        <ele>1063.6</ele>
        <time>2026-05-06T10:23:29Z</time>
      </trkpt>
      <trkpt lat="44.90205" lon="4.29355">
        <ele>1064.8</ele>
        <time>2026-05-06T10:23:34Z</time>
      </trkpt>
      <trkpt lat="44.90204" lon="4.29359">
        <ele>1065.4</ele>
        <time>2026-05-06T10:23:39Z</time>
      </trkpt>
      <trkpt lat="44.90202" lon="4.29364">
        <ele>1065.8</ele>
        <time>2026-05-06T10:23:44Z</time>
      </trkpt>
      <trkpt lat="44.90199" lon="4.29367">
        <ele>1065</ele>
        <time>2026-05-06T10:23:49Z</time>
      </trkpt>
      <trkpt lat="44.90197" lon="4.2937">
        <ele>1064.9</ele>
        <time>2026-05-06T10:23:54Z</time>
      </trkpt>
      <trkpt lat="44.90193" lon="4.29373">
        <ele>1063.7</ele>
        <time>2026-05-06T10:23:59Z</time>
      </trkpt>
      <trkpt lat="44.90192" lon="4.29376">
        <ele>1064.2</ele>
        <time>2026-05-06T10:24:04Z</time>
      </trkpt>
      <trkpt lat="44.90191" lon="4.29378">
        <ele>1064.4</ele>
        <time>2026-05-06T10:24:09Z</time>
      </trkpt>
      <trkpt lat="44.90191" lon="4.29378">
        <ele>1064.4</ele>
        <time>2026-05-06T10:24:14Z</time>
      </trkpt>
      <trkpt lat="44.90191" lon="4.29378">
        <ele>1064.4</ele>
        <time>2026-05-06T10:24:19Z</time>
      </trkpt>
      <trkpt lat="44.90191" lon="4.29378">
        <ele>1064.4</ele>
        <time>2026-05-06T10:24:24Z</time>
      </trkpt>
      <trkpt lat="44.90191" lon="4.29378">
        <ele>1064.4</ele>
        <time>2026-05-06T10:24:29Z</time>
      </trkpt>
      <trkpt lat="44.90191" lon="4.29378">
        <ele>1064.4</ele>
        <time>2026-05-06T10:24:34Z</time>
      </trkpt>
      <trkpt lat="44.90191" lon="4.29378">
        <ele>1064.4</ele>
        <time>2026-05-06T10:24:39Z</time>
      </trkpt>
      <trkpt lat="44.90191" lon="4.29378">
        <ele>1064.4</ele>
        <time>2026-05-06T10:24:44Z</time>
      </trkpt>
      <trkpt lat="44.90186" lon="4.29382">
        <ele>1063.2</ele>
        <time>2026-05-06T10:24:49Z</time>
      </trkpt>
      <trkpt lat="44.90183" lon="4.29383">
        <ele>1062.1</ele>
        <time>2026-05-06T10:24:54Z</time>
      </trkpt>
      <trkpt lat="44.90181" lon="4.29386">
        <ele>1062.2</ele>
        <time>2026-05-06T10:24:59Z</time>
      </trkpt>
      <trkpt lat="44.9018" lon="4.29389">
        <ele>1062.8</ele>
        <time>2026-05-06T10:25:04Z</time>
      </trkpt>
      <trkpt lat="44.90177" lon="4.2939">
        <ele>1061.8</ele>
        <time>2026-05-06T10:25:09Z</time>
      </trkpt>
      <trkpt lat="44.90175" lon="4.29391">
        <ele>1061.2</ele>
        <time>2026-05-06T10:25:14Z</time>
      </trkpt>
      <trkpt lat="44.90174" lon="4.29393">
        <ele>1061.5</ele>
        <time>2026-05-06T10:25:19Z</time>
      </trkpt>
      <trkpt lat="44.90173" lon="4.29394">
        <ele>1061.4</ele>
        <time>2026-05-06T10:25:24Z</time>
      </trkpt>
      <trkpt lat="44.90173" lon="4.29394">
        <ele>1061.4</ele>
        <time>2026-05-06T10:25:29Z</time>
      </trkpt>
      <trkpt lat="44.90173" lon="4.29394">
        <ele>1061.4</ele>
        <time>2026-05-06T10:25:34Z</time>
      </trkpt>
      <trkpt lat="44.90173" lon="4.29394">
        <ele>1061.4</ele>
        <time>2026-05-06T10:25:39Z</time>
      </trkpt>
      <trkpt lat="44.90173" lon="4.29394">
        <ele>1061.4</ele>
        <time>2026-05-06T10:25:44Z</time>
      </trkpt>
      <trkpt lat="44.90173" lon="4.29394">
        <ele>1061.4</ele>
        <time>2026-05-06T10:25:49Z</time>
      </trkpt>
      <trkpt lat="44.90173" lon="4.29394">
        <ele>1061.4</ele>
        <time>2026-05-06T10:25:54Z</time>
      </trkpt>
      <trkpt lat="44.90173" lon="4.29394">
        <ele>1061.4</ele>
        <time>2026-05-06T10:25:59Z</time>
      </trkpt>
      <trkpt lat="44.90173" lon="4.29394">
        <ele>1061.4</ele>
        <time>2026-05-06T10:26:04Z</time>
      </trkpt>
      <trkpt lat="44.90173" lon="4.29394">
        <ele>1061.4</ele>
        <time>2026-05-06T10:26:09Z</time>
      </trkpt>
      <trkpt lat="44.90173" lon="4.29394">
        <ele>1061.4</ele>
        <time>2026-05-06T10:26:14Z</time>
      </trkpt>
      <trkpt lat="44.90173" lon="4.29394">
        <ele>1061.4</ele>
        <time>2026-05-06T10:26:19Z</time>
      </trkpt>
      <trkpt lat="44.90173" lon="4.29394">
        <ele>1061.4</ele>
        <time>2026-05-06T10:26:24Z</time>
      </trkpt>
      <trkpt lat="44.90173" lon="4.29394">
        <ele>1061.4</ele>
        <time>2026-05-06T10:26:29Z</time>
      </trkpt>
      <trkpt lat="44.90173" lon="4.29394">
        <ele>1061.4</ele>
        <time>2026-05-06T10:26:34Z</time>
      </trkpt>
      <trkpt lat="44.90173" lon="4.29394">
        <ele>1061.4</ele>
        <time>2026-05-06T10:26:39Z</time>
      </trkpt>
      <trkpt lat="44.90173" lon="4.29394">
        <ele>1061.4</ele>
        <time>2026-05-06T10:26:44Z</time>
      </trkpt>
      <trkpt lat="44.90173" lon="4.29394">
        <ele>1061.4</ele>
        <time>2026-05-06T10:26:49Z</time>
      </trkpt>
      <trkpt lat="44.90169" lon="4.294">
        <ele>1062</ele>
        <time>2026-05-06T10:26:54Z</time>
      </trkpt>
      <trkpt lat="44.90168" lon="4.29401">
        <ele>1062</ele>
        <time>2026-05-06T10:26:59Z</time>
      </trkpt>
      <trkpt lat="44.90168" lon="4.29401">
        <ele>1062</ele>
        <time>2026-05-06T10:27:04Z</time>
      </trkpt>
      <trkpt lat="44.90168" lon="4.29401">
        <ele>1062</ele>
        <time>2026-05-06T10:27:09Z</time>
      </trkpt>
      <trkpt lat="44.90168" lon="4.29401">
        <ele>1062</ele>
        <time>2026-05-06T10:27:14Z</time>
      </trkpt>
      <trkpt lat="44.90168" lon="4.29401">
        <ele>1062</ele>
        <time>2026-05-06T10:27:19Z</time>
      </trkpt>
      <trkpt lat="44.90168" lon="4.29401">
        <ele>1062</ele>
        <time>2026-05-06T10:27:24Z</time>
      </trkpt>
      <trkpt lat="44.90168" lon="4.29401">
        <ele>1062</ele>
        <time>2026-05-06T10:27:29Z</time>
      </trkpt>
      <trkpt lat="44.90168" lon="4.29401">
        <ele>1062</ele>
        <time>2026-05-06T10:27:34Z</time>
      </trkpt>
      <trkpt lat="44.90168" lon="4.29401">
        <ele>1062</ele>
        <time>2026-05-06T10:27:39Z</time>
      </trkpt>
      <trkpt lat="44.90168" lon="4.29401">
        <ele>1062</ele>
        <time>2026-05-06T10:27:44Z</time>
      </trkpt>
      <trkpt lat="44.90168" lon="4.29401">
        <ele>1062</ele>
        <time>2026-05-06T10:27:49Z</time>
      </trkpt>
      <trkpt lat="44.90168" lon="4.29401">
        <ele>1062</ele>
        <time>2026-05-06T10:27:54Z</time>
      </trkpt>
      <trkpt lat="44.90168" lon="4.29401">
        <ele>1062</ele>
        <time>2026-05-06T10:27:59Z</time>
      </trkpt>
      <trkpt lat="44.90164" lon="4.29405">
        <ele>1061.3</ele>
        <time>2026-05-06T10:28:04Z</time>
      </trkpt>
      <trkpt lat="44.90161" lon="4.29407">
        <ele>1060.1</ele>
        <time>2026-05-06T10:28:09Z</time>
      </trkpt>
      <trkpt lat="44.9016" lon="4.29409">
        <ele>1060.2</ele>
        <time>2026-05-06T10:28:14Z</time>
      </trkpt>
      <trkpt lat="44.90159" lon="4.2941">
        <ele>1059.9</ele>
        <time>2026-05-06T10:28:19Z</time>
      </trkpt>
      <trkpt lat="44.90159" lon="4.29414">
        <ele>1061.4</ele>
        <time>2026-05-06T10:28:24Z</time>
      </trkpt>
      <trkpt lat="44.90159" lon="4.29414">
        <ele>1061.4</ele>
        <time>2026-05-06T10:28:29Z</time>
      </trkpt>
      <trkpt lat="44.90159" lon="4.29414">
        <ele>1061.4</ele>
        <time>2026-05-06T10:28:34Z</time>
      </trkpt>
      <trkpt lat="44.90159" lon="4.29414">
        <ele>1061.4</ele>
        <time>2026-05-06T10:28:39Z</time>
      </trkpt>
      <trkpt lat="44.90159" lon="4.29414">
        <ele>1061.4</ele>
        <time>2026-05-06T10:28:44Z</time>
      </trkpt>
      <trkpt lat="44.90159" lon="4.29414">
        <ele>1061.4</ele>
        <time>2026-05-06T10:28:49Z</time>
      </trkpt>
      <trkpt lat="44.90159" lon="4.29414">
        <ele>1061.4</ele>
        <time>2026-05-06T10:28:54Z</time>
      </trkpt>
      <trkpt lat="44.90159" lon="4.29414">
        <ele>1061.4</ele>
        <time>2026-05-06T10:28:59Z</time>
      </trkpt>
      <trkpt lat="44.90159" lon="4.29414">
        <ele>1061.4</ele>
        <time>2026-05-06T10:29:04Z</time>
      </trkpt>
      <trkpt lat="44.90159" lon="4.29414">
        <ele>1061.4</ele>
        <time>2026-05-06T10:29:09Z</time>
      </trkpt>
      <trkpt lat="44.90159" lon="4.29414">
        <ele>1061.4</ele>
        <time>2026-05-06T10:29:14Z</time>
      </trkpt>
      <trkpt lat="44.90159" lon="4.29414">
        <ele>1061.4</ele>
        <time>2026-05-06T10:29:19Z</time>
      </trkpt>
      <trkpt lat="44.90159" lon="4.29414">
        <ele>1061.4</ele>
        <time>2026-05-06T10:29:24Z</time>
      </trkpt>
      <trkpt lat="44.90159" lon="4.29414">
        <ele>1061.4</ele>
        <time>2026-05-06T10:29:29Z</time>
      </trkpt>
      <trkpt lat="44.90159" lon="4.29414">
        <ele>1061.4</ele>
        <time>2026-05-06T10:29:34Z</time>
      </trkpt>
      <trkpt lat="44.90159" lon="4.29414">
        <ele>1061.4</ele>
        <time>2026-05-06T10:29:39Z</time>
      </trkpt>
      <trkpt lat="44.90159" lon="4.29414">
        <ele>1061.4</ele>
        <time>2026-05-06T10:29:44Z</time>
      </trkpt>
      <trkpt lat="44.90159" lon="4.29414">
        <ele>1061.4</ele>
        <time>2026-05-06T10:29:49Z</time>
      </trkpt>
      <trkpt lat="44.90159" lon="4.29414">
        <ele>1061.4</ele>
        <time>2026-05-06T10:29:54Z</time>
      </trkpt>
      <trkpt lat="44.90159" lon="4.29414">
        <ele>1061.4</ele>
        <time>2026-05-06T10:29:59Z</time>
      </trkpt>
      <trkpt lat="44.90159" lon="4.29414">
        <ele>1061.4</ele>
        <time>2026-05-06T10:30:04Z</time>
      </trkpt>
      <trkpt lat="44.90159" lon="4.29414">
        <ele>1061.4</ele>
        <time>2026-05-06T10:30:09Z</time>
      </trkpt>
      <trkpt lat="44.90159" lon="4.29414">
        <ele>1061.4</ele>
        <time>2026-05-06T10:30:14Z</time>
      </trkpt>
      <trkpt lat="44.90159" lon="4.29414">
        <ele>1061.4</ele>
        <time>2026-05-06T10:30:19Z</time>
      </trkpt>
      <trkpt lat="44.90159" lon="4.29414">
        <ele>1061.4</ele>
        <time>2026-05-06T10:30:24Z</time>
      </trkpt>
      <trkpt lat="44.90159" lon="4.29414">
        <ele>1061.4</ele>
        <time>2026-05-06T10:30:29Z</time>
      </trkpt>
      <trkpt lat="44.90159" lon="4.29414">
        <ele>1061.4</ele>
        <time>2026-05-06T10:30:34Z</time>
      </trkpt>
      <trkpt lat="44.90159" lon="4.29414">
        <ele>1061.4</ele>
        <time>2026-05-06T10:30:39Z</time>
      </trkpt>
      <trkpt lat="44.90159" lon="4.29414">
        <ele>1061.4</ele>
        <time>2026-05-06T10:30:44Z</time>
      </trkpt>
      <trkpt lat="44.90159" lon="4.29414">
        <ele>1061.4</ele>
        <time>2026-05-06T10:30:49Z</time>
      </trkpt>
      <trkpt lat="44.90159" lon="4.29414">
        <ele>1061.4</ele>
        <time>2026-05-06T10:30:54Z</time>
      </trkpt>
      <trkpt lat="44.90159" lon="4.29414">
        <ele>1061.4</ele>
        <time>2026-05-06T10:30:59Z</time>
      </trkpt>
      <trkpt lat="44.90159" lon="4.29414">
        <ele>1061.4</ele>
        <time>2026-05-06T10:31:04Z</time>
      </trkpt>
      <trkpt lat="44.90159" lon="4.29414">
        <ele>1061.4</ele>
        <time>2026-05-06T10:31:09Z</time>
      </trkpt>
      <trkpt lat="44.90159" lon="4.29414">
        <ele>1061.4</ele>
        <time>2026-05-06T10:31:14Z</time>
      </trkpt>
      <trkpt lat="44.90159" lon="4.29414">
        <ele>1061.4</ele>
        <time>2026-05-06T10:31:19Z</time>
      </trkpt>
      <trkpt lat="44.90159" lon="4.29414">
        <ele>1061.4</ele>
        <time>2026-05-06T10:31:24Z</time>
      </trkpt>
      <trkpt lat="44.90159" lon="4.29414">
        <ele>1061.4</ele>
        <time>2026-05-06T10:31:29Z</time>
      </trkpt>
      <trkpt lat="44.90159" lon="4.29414">
        <ele>1061.4</ele>
        <time>2026-05-06T10:31:34Z</time>
      </trkpt>
      <trkpt lat="44.90159" lon="4.29414">
        <ele>1061.4</ele>
        <time>2026-05-06T10:31:39Z</time>
      </trkpt>
      <trkpt lat="44.90161" lon="4.29408">
        <ele>1060.5</ele>
        <time>2026-05-06T10:31:44Z</time>
      </trkpt>
      <trkpt lat="44.90161" lon="4.29407">
        <ele>1060.1</ele>
        <time>2026-05-06T10:31:49Z</time>
      </trkpt>
      <trkpt lat="44.90161" lon="4.29407">
        <ele>1060.1</ele>
        <time>2026-05-06T10:31:54Z</time>
      </trkpt>
      <trkpt lat="44.90161" lon="4.29407">
        <ele>1060.1</ele>
        <time>2026-05-06T10:31:59Z</time>
      </trkpt>
      <trkpt lat="44.90165" lon="4.29403">
        <ele>1061.2</ele>
        <time>2026-05-06T10:32:04Z</time>
      </trkpt>
      <trkpt lat="44.90166" lon="4.29402">
        <ele>1061.4</ele>
        <time>2026-05-06T10:32:09Z</time>
      </trkpt>
      <trkpt lat="44.90166" lon="4.29402">
        <ele>1061.4</ele>
        <time>2026-05-06T10:32:14Z</time>
      </trkpt>
      <trkpt lat="44.90166" lon="4.29402">
        <ele>1061.4</ele>
        <time>2026-05-06T10:32:19Z</time>
      </trkpt>
      <trkpt lat="44.90166" lon="4.29402">
        <ele>1061.4</ele>
        <time>2026-05-06T10:32:24Z</time>
      </trkpt>
      <trkpt lat="44.90167" lon="4.29404">
        <ele>1062.8</ele>
        <time>2026-05-06T10:32:29Z</time>
      </trkpt>
      <trkpt lat="44.90169" lon="4.29399">
        <ele>1061.6</ele>
        <time>2026-05-06T10:32:34Z</time>
      </trkpt>
      <trkpt lat="44.90169" lon="4.29395">
        <ele>1060</ele>
        <time>2026-05-06T10:32:39Z</time>
      </trkpt>
      <trkpt lat="44.9017" lon="4.29394">
        <ele>1060</ele>
        <time>2026-05-06T10:32:44Z</time>
      </trkpt>
      <trkpt lat="44.90171" lon="4.29394">
        <ele>1060.5</ele>
        <time>2026-05-06T10:32:49Z</time>
      </trkpt>
      <trkpt lat="44.90174" lon="4.29389">
        <ele>1059.9</ele>
        <time>2026-05-06T10:32:54Z</time>
      </trkpt>
      <trkpt lat="44.90177" lon="4.29387">
        <ele>1060.6</ele>
        <time>2026-05-06T10:32:59Z</time>
      </trkpt>
      <trkpt lat="44.90178" lon="4.29386">
        <ele>1060.7</ele>
        <time>2026-05-06T10:33:04Z</time>
      </trkpt>
      <trkpt lat="44.90181" lon="4.29385">
        <ele>1061.8</ele>
        <time>2026-05-06T10:33:09Z</time>
      </trkpt>
      <trkpt lat="44.90183" lon="4.29385">
        <ele>1062.8</ele>
        <time>2026-05-06T10:33:14Z</time>
      </trkpt>
      <trkpt lat="44.90184" lon="4.29384">
        <ele>1062.9</ele>
        <time>2026-05-06T10:33:19Z</time>
      </trkpt>
      <trkpt lat="44.90188" lon="4.29381">
        <ele>1063.9</ele>
        <time>2026-05-06T10:33:24Z</time>
      </trkpt>
      <trkpt lat="44.90192" lon="4.2938">
        <ele>1065.6</ele>
        <time>2026-05-06T10:33:29Z</time>
      </trkpt>
      <trkpt lat="44.90194" lon="4.29378">
        <ele>1065.9</ele>
        <time>2026-05-06T10:33:34Z</time>
      </trkpt>
      <trkpt lat="44.90196" lon="4.29375">
        <ele>1066</ele>
        <time>2026-05-06T10:33:39Z</time>
      </trkpt>
      <trkpt lat="44.90198" lon="4.29373">
        <ele>1066.4</ele>
        <time>2026-05-06T10:33:44Z</time>
      </trkpt>
      <trkpt lat="44.902" lon="4.2937">
        <ele>1066.5</ele>
        <time>2026-05-06T10:33:49Z</time>
      </trkpt>
      <trkpt lat="44.90204" lon="4.29366">
        <ele>1067.5</ele>
        <time>2026-05-06T10:33:54Z</time>
      </trkpt>
      <trkpt lat="44.90207" lon="4.29361">
        <ele>1067.7</ele>
        <time>2026-05-06T10:33:59Z</time>
      </trkpt>
      <trkpt lat="44.90208" lon="4.29357">
        <ele>1067.1</ele>
        <time>2026-05-06T10:34:04Z</time>
      </trkpt>
      <trkpt lat="44.90208" lon="4.29352">
        <ele>1065.7</ele>
        <time>2026-05-06T10:34:09Z</time>
      </trkpt>
      <trkpt lat="44.90211" lon="4.29346">
        <ele>1065.8</ele>
        <time>2026-05-06T10:34:14Z</time>
      </trkpt>
      <trkpt lat="44.90213" lon="4.29341">
        <ele>1065.7</ele>
        <time>2026-05-06T10:34:19Z</time>
      </trkpt>
      <trkpt lat="44.90213" lon="4.29338">
        <ele>1064.9</ele>
        <time>2026-05-06T10:34:24Z</time>
      </trkpt>
      <trkpt lat="44.90213" lon="4.29337">
        <ele>1064.6</ele>
        <time>2026-05-06T10:34:29Z</time>
      </trkpt>
      <trkpt lat="44.90213" lon="4.29337">
        <ele>1064.6</ele>
        <time>2026-05-06T10:34:34Z</time>
      </trkpt>
      <trkpt lat="44.90215" lon="4.29334">
        <ele>1065.1</ele>
        <time>2026-05-06T10:34:39Z</time>
      </trkpt>
      <trkpt lat="44.90216" lon="4.29335">
        <ele>1066</ele>
        <time>2026-05-06T10:34:44Z</time>
      </trkpt>
      <trkpt lat="44.9022" lon="4.29335">
        <ele>1068.6</ele>
        <time>2026-05-06T10:34:49Z</time>
      </trkpt>
      <trkpt lat="44.90221" lon="4.29335">
        <ele>1069.3</ele>
        <time>2026-05-06T10:34:54Z</time>
      </trkpt>
      <trkpt lat="44.90222" lon="4.2933">
        <ele>1068.4</ele>
        <time>2026-05-06T10:34:59Z</time>
      </trkpt>
      <trkpt lat="44.90222" lon="4.2933">
        <ele>1068.4</ele>
        <time>2026-05-06T10:35:04Z</time>
      </trkpt>
      <trkpt lat="44.90222" lon="4.2933">
        <ele>1068.4</ele>
        <time>2026-05-06T10:35:09Z</time>
      </trkpt>
      <trkpt lat="44.90224" lon="4.29324">
        <ele>1067.6</ele>
        <time>2026-05-06T10:35:14Z</time>
      </trkpt>
      <trkpt lat="44.90225" lon="4.29324">
        <ele>1068.2</ele>
        <time>2026-05-06T10:35:19Z</time>
      </trkpt>
      <trkpt lat="44.90225" lon="4.29324">
        <ele>1068.2</ele>
        <time>2026-05-06T10:35:24Z</time>
      </trkpt>
      <trkpt lat="44.90225" lon="4.29324">
        <ele>1068.2</ele>
        <time>2026-05-06T10:35:29Z</time>
      </trkpt>
      <trkpt lat="44.90225" lon="4.29324">
        <ele>1068.2</ele>
        <time>2026-05-06T10:35:34Z</time>
      </trkpt>
      <trkpt lat="44.90235" lon="4.29333">
        <ele>1078</ele>
        <time>2026-05-06T10:35:39Z</time>
      </trkpt>
      <trkpt lat="44.90239" lon="4.29336">
        <ele>1081.2</ele>
        <time>2026-05-06T10:35:44Z</time>
      </trkpt>
      <trkpt lat="44.90242" lon="4.2934">
        <ele>1083.9</ele>
        <time>2026-05-06T10:35:49Z</time>
      </trkpt>
      <trkpt lat="44.90245" lon="4.29345">
        <ele>1086.7</ele>
        <time>2026-05-06T10:35:54Z</time>
      </trkpt>
      <trkpt lat="44.9025" lon="4.29345">
        <ele>1089.8</ele>
        <time>2026-05-06T10:35:59Z</time>
      </trkpt>
      <trkpt lat="44.90255" lon="4.2934">
        <ele>1089.3</ele>
        <time>2026-05-06T10:36:04Z</time>
      </trkpt>
      <trkpt lat="44.9026" lon="4.29337">
        <ele>1089.2</ele>
        <time>2026-05-06T10:36:09Z</time>
      </trkpt>
      <trkpt lat="44.90264" lon="4.29335">
        <ele>1089.2</ele>
        <time>2026-05-06T10:36:14Z</time>
      </trkpt>
      <trkpt lat="44.9027" lon="4.29331">
        <ele>1088.5</ele>
        <time>2026-05-06T10:36:19Z</time>
      </trkpt>
      <trkpt lat="44.90277" lon="4.29328">
        <ele>1087.9</ele>
        <time>2026-05-06T10:36:24Z</time>
      </trkpt>
      <trkpt lat="44.90284" lon="4.29324">
        <ele>1087</ele>
        <time>2026-05-06T10:36:29Z</time>
      </trkpt>
      <trkpt lat="44.90288" lon="4.29325">
        <ele>1087.7</ele>
        <time>2026-05-06T10:36:34Z</time>
      </trkpt>
      <trkpt lat="44.90291" lon="4.2933">
        <ele>1089.8</ele>
        <time>2026-05-06T10:36:39Z</time>
      </trkpt>
      <trkpt lat="44.90293" lon="4.29334">
        <ele>1091.1</ele>
        <time>2026-05-06T10:36:44Z</time>
      </trkpt>
      <trkpt lat="44.90298" lon="4.29337">
        <ele>1091.6</ele>
        <time>2026-05-06T10:36:49Z</time>
      </trkpt>
      <trkpt lat="44.90299" lon="4.29343">
        <ele>1091.9</ele>
        <time>2026-05-06T10:36:54Z</time>
      </trkpt>
      <trkpt lat="44.90299" lon="4.29347">
        <ele>1092</ele>
        <time>2026-05-06T10:36:59Z</time>
      </trkpt>
      <trkpt lat="44.90301" lon="4.29352">
        <ele>1092.3</ele>
        <time>2026-05-06T10:37:04Z</time>
      </trkpt>
      <trkpt lat="44.90303" lon="4.29356">
        <ele>1092.4</ele>
        <time>2026-05-06T10:37:09Z</time>
      </trkpt>
      <trkpt lat="44.90303" lon="4.29356">
        <ele>1092.4</ele>
        <time>2026-05-06T10:37:14Z</time>
      </trkpt>
      <trkpt lat="44.90299" lon="4.29367">
        <ele>1092.7</ele>
        <time>2026-05-06T10:37:19Z</time>
      </trkpt>
      <trkpt lat="44.90297" lon="4.29367">
        <ele>1092.8</ele>
        <time>2026-05-06T10:37:24Z</time>
      </trkpt>
      <trkpt lat="44.90297" lon="4.29368">
        <ele>1092.8</ele>
        <time>2026-05-06T10:37:29Z</time>
      </trkpt>
      <trkpt lat="44.90297" lon="4.29368">
        <ele>1092.8</ele>
        <time>2026-05-06T10:37:34Z</time>
      </trkpt>
      <trkpt lat="44.90297" lon="4.29368">
        <ele>1092.8</ele>
        <time>2026-05-06T10:37:39Z</time>
      </trkpt>
      <trkpt lat="44.90297" lon="4.29368">
        <ele>1092.8</ele>
        <time>2026-05-06T10:37:44Z</time>
      </trkpt>
      <trkpt lat="44.90297" lon="4.29368">
        <ele>1092.8</ele>
        <time>2026-05-06T10:37:49Z</time>
      </trkpt>
      <trkpt lat="44.90297" lon="4.29368">
        <ele>1092.8</ele>
        <time>2026-05-06T10:37:54Z</time>
      </trkpt>
      <trkpt lat="44.90297" lon="4.29368">
        <ele>1092.8</ele>
        <time>2026-05-06T10:37:59Z</time>
      </trkpt>
      <trkpt lat="44.90297" lon="4.29368">
        <ele>1092.8</ele>
        <time>2026-05-06T10:38:04Z</time>
      </trkpt>
      <trkpt lat="44.90297" lon="4.29368">
        <ele>1092.8</ele>
        <time>2026-05-06T10:38:09Z</time>
      </trkpt>
      <trkpt lat="44.90297" lon="4.29368">
        <ele>1092.8</ele>
        <time>2026-05-06T10:38:14Z</time>
      </trkpt>
      <trkpt lat="44.90297" lon="4.29368">
        <ele>1092.8</ele>
        <time>2026-05-06T10:38:19Z</time>
      </trkpt>
      <trkpt lat="44.90297" lon="4.29368">
        <ele>1092.8</ele>
        <time>2026-05-06T10:38:24Z</time>
      </trkpt>
      <trkpt lat="44.90297" lon="4.29368">
        <ele>1092.8</ele>
        <time>2026-05-06T10:38:29Z</time>
      </trkpt>
      <trkpt lat="44.90297" lon="4.29368">
        <ele>1092.8</ele>
        <time>2026-05-06T10:38:34Z</time>
      </trkpt>
      <trkpt lat="44.90297" lon="4.29368">
        <ele>1092.8</ele>
        <time>2026-05-06T10:38:39Z</time>
      </trkpt>
      <trkpt lat="44.90297" lon="4.29368">
        <ele>1092.8</ele>
        <time>2026-05-06T10:38:44Z</time>
      </trkpt>
      <trkpt lat="44.90297" lon="4.29368">
        <ele>1092.8</ele>
        <time>2026-05-06T10:38:49Z</time>
      </trkpt>
      <trkpt lat="44.90297" lon="4.29368">
        <ele>1092.8</ele>
        <time>2026-05-06T10:38:54Z</time>
      </trkpt>
      <trkpt lat="44.90297" lon="4.29368">
        <ele>1092.8</ele>
        <time>2026-05-06T10:38:59Z</time>
      </trkpt>
      <trkpt lat="44.90297" lon="4.29368">
        <ele>1092.8</ele>
        <time>2026-05-06T10:39:04Z</time>
      </trkpt>
      <trkpt lat="44.90297" lon="4.29368">
        <ele>1092.8</ele>
        <time>2026-05-06T10:39:09Z</time>
      </trkpt>
      <trkpt lat="44.90297" lon="4.29368">
        <ele>1092.8</ele>
        <time>2026-05-06T10:39:14Z</time>
      </trkpt>
      <trkpt lat="44.90297" lon="4.29368">
        <ele>1092.8</ele>
        <time>2026-05-06T10:39:19Z</time>
      </trkpt>
      <trkpt lat="44.90297" lon="4.29368">
        <ele>1092.8</ele>
        <time>2026-05-06T10:39:24Z</time>
      </trkpt>
      <trkpt lat="44.90297" lon="4.29368">
        <ele>1092.8</ele>
        <time>2026-05-06T10:39:29Z</time>
      </trkpt>
      <trkpt lat="44.90297" lon="4.29368">
        <ele>1092.8</ele>
        <time>2026-05-06T10:39:34Z</time>
      </trkpt>
      <trkpt lat="44.90297" lon="4.29368">
        <ele>1092.8</ele>
        <time>2026-05-06T10:39:39Z</time>
      </trkpt>
      <trkpt lat="44.90297" lon="4.29368">
        <ele>1092.8</ele>
        <time>2026-05-06T10:39:44Z</time>
      </trkpt>
      <trkpt lat="44.90297" lon="4.29368">
        <ele>1092.8</ele>
        <time>2026-05-06T10:39:49Z</time>
      </trkpt>
      <trkpt lat="44.90297" lon="4.29368">
        <ele>1092.8</ele>
        <time>2026-05-06T10:39:54Z</time>
      </trkpt>
      <trkpt lat="44.90297" lon="4.29368">
        <ele>1092.8</ele>
        <time>2026-05-06T10:39:59Z</time>
      </trkpt>
      <trkpt lat="44.90297" lon="4.29368">
        <ele>1092.8</ele>
        <time>2026-05-06T10:40:04Z</time>
      </trkpt>
      <trkpt lat="44.90297" lon="4.29368">
        <ele>1092.8</ele>
        <time>2026-05-06T10:40:09Z</time>
      </trkpt>
      <trkpt lat="44.90297" lon="4.29368">
        <ele>1092.8</ele>
        <time>2026-05-06T10:40:14Z</time>
      </trkpt>
      <trkpt lat="44.90297" lon="4.29368">
        <ele>1092.8</ele>
        <time>2026-05-06T10:40:19Z</time>
      </trkpt>
      <trkpt lat="44.90297" lon="4.29368">
        <ele>1092.8</ele>
        <time>2026-05-06T10:40:24Z</time>
      </trkpt>
      <trkpt lat="44.90297" lon="4.29368">
        <ele>1092.8</ele>
        <time>2026-05-06T10:40:29Z</time>
      </trkpt>
      <trkpt lat="44.90297" lon="4.29368">
        <ele>1092.8</ele>
        <time>2026-05-06T10:40:34Z</time>
      </trkpt>
      <trkpt lat="44.90297" lon="4.29368">
        <ele>1092.8</ele>
        <time>2026-05-06T10:40:39Z</time>
      </trkpt>
      <trkpt lat="44.90297" lon="4.29368">
        <ele>1092.8</ele>
        <time>2026-05-06T10:40:44Z</time>
      </trkpt>
      <trkpt lat="44.90297" lon="4.29368">
        <ele>1092.8</ele>
        <time>2026-05-06T10:40:49Z</time>
      </trkpt>
      <trkpt lat="44.90297" lon="4.29368">
        <ele>1092.8</ele>
        <time>2026-05-06T10:40:54Z</time>
      </trkpt>
      <trkpt lat="44.90297" lon="4.29368">
        <ele>1092.8</ele>
        <time>2026-05-06T10:40:59Z</time>
      </trkpt>
      <trkpt lat="44.90297" lon="4.29368">
        <ele>1092.8</ele>
        <time>2026-05-06T10:41:04Z</time>
      </trkpt>
      <trkpt lat="44.90297" lon="4.29368">
        <ele>1092.8</ele>
        <time>2026-05-06T10:41:09Z</time>
      </trkpt>
      <trkpt lat="44.90297" lon="4.29368">
        <ele>1092.8</ele>
        <time>2026-05-06T10:41:14Z</time>
      </trkpt>
      <trkpt lat="44.90297" lon="4.29368">
        <ele>1092.8</ele>
        <time>2026-05-06T10:41:19Z</time>
      </trkpt>
      <trkpt lat="44.90297" lon="4.29368">
        <ele>1092.8</ele>
        <time>2026-05-06T10:41:24Z</time>
      </trkpt>
      <trkpt lat="44.90296" lon="4.29383">
        <ele>1093.5</ele>
        <time>2026-05-06T10:41:29Z</time>
      </trkpt>
      <trkpt lat="44.90296" lon="4.29383">
        <ele>1093.5</ele>
        <time>2026-05-06T10:41:34Z</time>
      </trkpt>
      <trkpt lat="44.90296" lon="4.29383">
        <ele>1093.5</ele>
        <time>2026-05-06T10:41:39Z</time>
      </trkpt>
      <trkpt lat="44.90296" lon="4.29383">
        <ele>1093.5</ele>
        <time>2026-05-06T10:41:44Z</time>
      </trkpt>
      <trkpt lat="44.90296" lon="4.29383">
        <ele>1093.5</ele>
        <time>2026-05-06T10:41:49Z</time>
      </trkpt>
      <trkpt lat="44.90296" lon="4.29383">
        <ele>1093.5</ele>
        <time>2026-05-06T10:41:54Z</time>
      </trkpt>
      <trkpt lat="44.90306" lon="4.29383">
        <ele>1093</ele>
        <time>2026-05-06T10:41:59Z</time>
      </trkpt>
      <trkpt lat="44.90313" lon="4.29374">
        <ele>1092.6</ele>
        <time>2026-05-06T10:42:04Z</time>
      </trkpt>
      <trkpt lat="44.90318" lon="4.29367">
        <ele>1092.5</ele>
        <time>2026-05-06T10:42:09Z</time>
      </trkpt>
      <trkpt lat="44.90321" lon="4.29359">
        <ele>1092.7</ele>
        <time>2026-05-06T10:42:14Z</time>
      </trkpt>
      <trkpt lat="44.90322" lon="4.29349">
        <ele>1092.9</ele>
        <time>2026-05-06T10:42:19Z</time>
      </trkpt>
      <trkpt lat="44.90325" lon="4.29342">
        <ele>1093.2</ele>
        <time>2026-05-06T10:42:24Z</time>
      </trkpt>
      <trkpt lat="44.90328" lon="4.29336">
        <ele>1093.5</ele>
        <time>2026-05-06T10:42:29Z</time>
      </trkpt>
      <trkpt lat="44.90332" lon="4.29334">
        <ele>1093.9</ele>
        <time>2026-05-06T10:42:34Z</time>
      </trkpt>
      <trkpt lat="44.90336" lon="4.29328">
        <ele>1091.8</ele>
        <time>2026-05-06T10:42:39Z</time>
      </trkpt>
      <trkpt lat="44.9034" lon="4.29322">
        <ele>1089.1</ele>
        <time>2026-05-06T10:42:44Z</time>
      </trkpt>
      <trkpt lat="44.90342" lon="4.29315">
        <ele>1086.7</ele>
        <time>2026-05-06T10:42:49Z</time>
      </trkpt>
      <trkpt lat="44.90347" lon="4.29309">
        <ele>1083.9</ele>
        <time>2026-05-06T10:42:54Z</time>
      </trkpt>
      <trkpt lat="44.9035" lon="4.29302">
        <ele>1081.5</ele>
        <time>2026-05-06T10:42:59Z</time>
      </trkpt>
      <trkpt lat="44.90352" lon="4.29296">
        <ele>1079.6</ele>
        <time>2026-05-06T10:43:04Z</time>
      </trkpt>
      <trkpt lat="44.90355" lon="4.29292">
        <ele>1078.1</ele>
        <time>2026-05-06T10:43:09Z</time>
      </trkpt>
      <trkpt lat="44.90357" lon="4.29286">
        <ele>1076.3</ele>
        <time>2026-05-06T10:43:14Z</time>
      </trkpt>
      <trkpt lat="44.9036" lon="4.29282">
        <ele>1074.8</ele>
        <time>2026-05-06T10:43:19Z</time>
      </trkpt>
      <trkpt lat="44.90364" lon="4.29279">
        <ele>1073.5</ele>
        <time>2026-05-06T10:43:24Z</time>
      </trkpt>
      <trkpt lat="44.90368" lon="4.29271">
        <ele>1071.1</ele>
        <time>2026-05-06T10:43:29Z</time>
      </trkpt>
      <trkpt lat="44.90371" lon="4.29267">
        <ele>1069.9</ele>
        <time>2026-05-06T10:43:34Z</time>
      </trkpt>
      <trkpt lat="44.90375" lon="4.29267">
        <ele>1069.4</ele>
        <time>2026-05-06T10:43:39Z</time>
      </trkpt>
      <trkpt lat="44.90381" lon="4.29264">
        <ele>1068</ele>
        <time>2026-05-06T10:43:44Z</time>
      </trkpt>
      <trkpt lat="44.90388" lon="4.2926">
        <ele>1066.5</ele>
        <time>2026-05-06T10:43:49Z</time>
      </trkpt>
      <trkpt lat="44.90396" lon="4.29254">
        <ele>1064.6</ele>
        <time>2026-05-06T10:43:54Z</time>
      </trkpt>
      <trkpt lat="44.90403" lon="4.2925">
        <ele>1063.3</ele>
        <time>2026-05-06T10:43:59Z</time>
      </trkpt>
      <trkpt lat="44.9041" lon="4.29247">
        <ele>1061.9</ele>
        <time>2026-05-06T10:44:04Z</time>
      </trkpt>
      <trkpt lat="44.90416" lon="4.29242">
        <ele>1060.2</ele>
        <time>2026-05-06T10:44:09Z</time>
      </trkpt>
      <trkpt lat="44.90422" lon="4.29239">
        <ele>1058.7</ele>
        <time>2026-05-06T10:44:14Z</time>
      </trkpt>
      <trkpt lat="44.90427" lon="4.29236">
        <ele>1057.3</ele>
        <time>2026-05-06T10:44:19Z</time>
      </trkpt>
      <trkpt lat="44.90432" lon="4.2923">
        <ele>1055.3</ele>
        <time>2026-05-06T10:44:24Z</time>
      </trkpt>
      <trkpt lat="44.90438" lon="4.29227">
        <ele>1053.9</ele>
        <time>2026-05-06T10:44:29Z</time>
      </trkpt>
      <trkpt lat="44.90441" lon="4.29222">
        <ele>1052.5</ele>
        <time>2026-05-06T10:44:34Z</time>
      </trkpt>
      <trkpt lat="44.90446" lon="4.29217">
        <ele>1050.9</ele>
        <time>2026-05-06T10:44:39Z</time>
      </trkpt>
      <trkpt lat="44.90451" lon="4.29214">
        <ele>1049.8</ele>
        <time>2026-05-06T10:44:44Z</time>
      </trkpt>
      <trkpt lat="44.90456" lon="4.29209">
        <ele>1048.4</ele>
        <time>2026-05-06T10:44:49Z</time>
      </trkpt>
      <trkpt lat="44.90461" lon="4.29205">
        <ele>1047.2</ele>
        <time>2026-05-06T10:44:54Z</time>
      </trkpt>
      <trkpt lat="44.90466" lon="4.29202">
        <ele>1046.2</ele>
        <time>2026-05-06T10:44:59Z</time>
      </trkpt>
      <trkpt lat="44.90471" lon="4.29197">
        <ele>1044.9</ele>
        <time>2026-05-06T10:45:04Z</time>
      </trkpt>
      <trkpt lat="44.90475" lon="4.29194">
        <ele>1044.1</ele>
        <time>2026-05-06T10:45:09Z</time>
      </trkpt>
      <trkpt lat="44.9048" lon="4.2919">
        <ele>1043.2</ele>
        <time>2026-05-06T10:45:14Z</time>
      </trkpt>
      <trkpt lat="44.90484" lon="4.29189">
        <ele>1042.7</ele>
        <time>2026-05-06T10:45:19Z</time>
      </trkpt>
      <trkpt lat="44.9049" lon="4.29187">
        <ele>1042</ele>
        <time>2026-05-06T10:45:24Z</time>
      </trkpt>
      <trkpt lat="44.90495" lon="4.29184">
        <ele>1041.2</ele>
        <time>2026-05-06T10:45:29Z</time>
      </trkpt>
      <trkpt lat="44.90501" lon="4.29182">
        <ele>1040.8</ele>
        <time>2026-05-06T10:45:34Z</time>
      </trkpt>
      <trkpt lat="44.90507" lon="4.29182">
        <ele>1041.5</ele>
        <time>2026-05-06T10:45:39Z</time>
      </trkpt>
      <trkpt lat="44.90513" lon="4.2918">
        <ele>1042</ele>
        <time>2026-05-06T10:45:44Z</time>
      </trkpt>
      <trkpt lat="44.90519" lon="4.2918">
        <ele>1042.7</ele>
        <time>2026-05-06T10:45:49Z</time>
      </trkpt>
      <trkpt lat="44.90525" lon="4.29178">
        <ele>1043.3</ele>
        <time>2026-05-06T10:45:54Z</time>
      </trkpt>
      <trkpt lat="44.90531" lon="4.29177">
        <ele>1043.9</ele>
        <time>2026-05-06T10:45:59Z</time>
      </trkpt>
      <trkpt lat="44.90537" lon="4.29178">
        <ele>1044.7</ele>
        <time>2026-05-06T10:46:04Z</time>
      </trkpt>
      <trkpt lat="44.90544" lon="4.29177">
        <ele>1045.5</ele>
        <time>2026-05-06T10:46:09Z</time>
      </trkpt>
      <trkpt lat="44.9055" lon="4.29179">
        <ele>1046.4</ele>
        <time>2026-05-06T10:46:14Z</time>
      </trkpt>
      <trkpt lat="44.90556" lon="4.29177">
        <ele>1047</ele>
        <time>2026-05-06T10:46:19Z</time>
      </trkpt>
      <trkpt lat="44.90558" lon="4.2918">
        <ele>1047.4</ele>
        <time>2026-05-06T10:46:24Z</time>
      </trkpt>
      <trkpt lat="44.90559" lon="4.29183">
        <ele>1047.7</ele>
        <time>2026-05-06T10:46:29Z</time>
      </trkpt>
      <trkpt lat="44.90559" lon="4.29183">
        <ele>1047.7</ele>
        <time>2026-05-06T10:46:34Z</time>
      </trkpt>
      <trkpt lat="44.90559" lon="4.29186">
        <ele>1047.9</ele>
        <time>2026-05-06T10:46:39Z</time>
      </trkpt>
      <trkpt lat="44.90559" lon="4.29186">
        <ele>1047.9</ele>
        <time>2026-05-06T10:46:44Z</time>
      </trkpt>
      <trkpt lat="44.90559" lon="4.29186">
        <ele>1047.9</ele>
        <time>2026-05-06T10:46:49Z</time>
      </trkpt>
      <trkpt lat="44.90559" lon="4.29186">
        <ele>1047.9</ele>
        <time>2026-05-06T10:46:54Z</time>
      </trkpt>
      <trkpt lat="44.90559" lon="4.29186">
        <ele>1047.9</ele>
        <time>2026-05-06T10:46:59Z</time>
      </trkpt>
      <trkpt lat="44.90559" lon="4.29186">
        <ele>1047.9</ele>
        <time>2026-05-06T10:47:04Z</time>
      </trkpt>
      <trkpt lat="44.90559" lon="4.29186">
        <ele>1047.9</ele>
        <time>2026-05-06T10:47:09Z</time>
      </trkpt>
      <trkpt lat="44.90562" lon="4.29181">
        <ele>1048</ele>
        <time>2026-05-06T10:47:14Z</time>
      </trkpt>
      <trkpt lat="44.90566" lon="4.29174">
        <ele>1048.1</ele>
        <time>2026-05-06T10:47:19Z</time>
      </trkpt>
      <trkpt lat="44.90569" lon="4.29169">
        <ele>1048.2</ele>
        <time>2026-05-06T10:47:24Z</time>
      </trkpt>
      <trkpt lat="44.90572" lon="4.29162">
        <ele>1047.4</ele>
        <time>2026-05-06T10:47:29Z</time>
      </trkpt>
      <trkpt lat="44.90576" lon="4.29155">
        <ele>1046.1</ele>
        <time>2026-05-06T10:47:34Z</time>
      </trkpt>
      <trkpt lat="44.9058" lon="4.29148">
        <ele>1044.9</ele>
        <time>2026-05-06T10:47:39Z</time>
      </trkpt>
      <trkpt lat="44.90584" lon="4.2914">
        <ele>1043.4</ele>
        <time>2026-05-06T10:47:44Z</time>
      </trkpt>
      <trkpt lat="44.90588" lon="4.29134">
        <ele>1042.6</ele>
        <time>2026-05-06T10:47:49Z</time>
      </trkpt>
      <trkpt lat="44.90594" lon="4.29128">
        <ele>1042.2</ele>
        <time>2026-05-06T10:47:54Z</time>
      </trkpt>
      <trkpt lat="44.90599" lon="4.29123">
        <ele>1041.9</ele>
        <time>2026-05-06T10:47:59Z</time>
      </trkpt>
      <trkpt lat="44.90605" lon="4.29119">
        <ele>1042.1</ele>
        <time>2026-05-06T10:48:04Z</time>
      </trkpt>
      <trkpt lat="44.90611" lon="4.29114">
        <ele>1042.1</ele>
        <time>2026-05-06T10:48:09Z</time>
      </trkpt>
      <trkpt lat="44.90617" lon="4.29112">
        <ele>1042.8</ele>
        <time>2026-05-06T10:48:14Z</time>
      </trkpt>
      <trkpt lat="44.90624" lon="4.29108">
        <ele>1043.3</ele>
        <time>2026-05-06T10:48:19Z</time>
      </trkpt>
      <trkpt lat="44.90631" lon="4.29105">
        <ele>1044</ele>
        <time>2026-05-06T10:48:24Z</time>
      </trkpt>
      <trkpt lat="44.90637" lon="4.29101">
        <ele>1044.4</ele>
        <time>2026-05-06T10:48:29Z</time>
      </trkpt>
      <trkpt lat="44.90642" lon="4.29095">
        <ele>1044.1</ele>
        <time>2026-05-06T10:48:34Z</time>
      </trkpt>
      <trkpt lat="44.90647" lon="4.29089">
        <ele>1043.9</ele>
        <time>2026-05-06T10:48:39Z</time>
      </trkpt>
      <trkpt lat="44.90652" lon="4.29082">
        <ele>1043.5</ele>
        <time>2026-05-06T10:48:44Z</time>
      </trkpt>
      <trkpt lat="44.90658" lon="4.29074">
        <ele>1043</ele>
        <time>2026-05-06T10:48:49Z</time>
      </trkpt>
      <trkpt lat="44.90662" lon="4.29066">
        <ele>1042</ele>
        <time>2026-05-06T10:48:54Z</time>
      </trkpt>
      <trkpt lat="44.90666" lon="4.29059">
        <ele>1041.3</ele>
        <time>2026-05-06T10:48:59Z</time>
      </trkpt>
      <trkpt lat="44.90669" lon="4.29051">
        <ele>1040.1</ele>
        <time>2026-05-06T10:49:04Z</time>
      </trkpt>
      <trkpt lat="44.90673" lon="4.29044">
        <ele>1039.3</ele>
        <time>2026-05-06T10:49:09Z</time>
      </trkpt>
      <trkpt lat="44.90673" lon="4.29044">
        <ele>1039.3</ele>
        <time>2026-05-06T10:49:14Z</time>
      </trkpt>
      <trkpt lat="44.90672" lon="4.29044">
        <ele>1039.1</ele>
        <time>2026-05-06T10:49:19Z</time>
      </trkpt>
      <trkpt lat="44.90672" lon="4.29044">
        <ele>1039.1</ele>
        <time>2026-05-06T10:49:24Z</time>
      </trkpt>
      <trkpt lat="44.90672" lon="4.29044">
        <ele>1039.1</ele>
        <time>2026-05-06T10:49:29Z</time>
      </trkpt>
      <trkpt lat="44.90672" lon="4.29044">
        <ele>1039.1</ele>
        <time>2026-05-06T10:49:34Z</time>
      </trkpt>
      <trkpt lat="44.90672" lon="4.29044">
        <ele>1039.1</ele>
        <time>2026-05-06T10:49:39Z</time>
      </trkpt>
      <trkpt lat="44.9067" lon="4.29047">
        <ele>1039.4</ele>
        <time>2026-05-06T10:49:44Z</time>
      </trkpt>
      <trkpt lat="44.90669" lon="4.29049">
        <ele>1039.6</ele>
        <time>2026-05-06T10:49:49Z</time>
      </trkpt>
      <trkpt lat="44.90669" lon="4.29049">
        <ele>1039.6</ele>
        <time>2026-05-06T10:49:54Z</time>
      </trkpt>
      <trkpt lat="44.90669" lon="4.29049">
        <ele>1039.6</ele>
        <time>2026-05-06T10:49:59Z</time>
      </trkpt>
      <trkpt lat="44.90669" lon="4.29049">
        <ele>1039.6</ele>
        <time>2026-05-06T10:50:04Z</time>
      </trkpt>
      <trkpt lat="44.90669" lon="4.29049">
        <ele>1039.6</ele>
        <time>2026-05-06T10:50:09Z</time>
      </trkpt>
      <trkpt lat="44.90669" lon="4.29049">
        <ele>1039.6</ele>
        <time>2026-05-06T10:50:14Z</time>
      </trkpt>
      <trkpt lat="44.90669" lon="4.29049">
        <ele>1039.6</ele>
        <time>2026-05-06T10:50:19Z</time>
      </trkpt>
      <trkpt lat="44.90669" lon="4.29049">
        <ele>1039.6</ele>
        <time>2026-05-06T10:50:24Z</time>
      </trkpt>
      <trkpt lat="44.90669" lon="4.29049">
        <ele>1039.6</ele>
        <time>2026-05-06T10:50:29Z</time>
      </trkpt>
      <trkpt lat="44.90669" lon="4.29049">
        <ele>1039.6</ele>
        <time>2026-05-06T10:50:34Z</time>
      </trkpt>
      <trkpt lat="44.90669" lon="4.29049">
        <ele>1039.6</ele>
        <time>2026-05-06T10:50:39Z</time>
      </trkpt>
      <trkpt lat="44.90669" lon="4.29049">
        <ele>1039.6</ele>
        <time>2026-05-06T10:50:44Z</time>
      </trkpt>
      <trkpt lat="44.90669" lon="4.29049">
        <ele>1039.6</ele>
        <time>2026-05-06T10:50:49Z</time>
      </trkpt>
      <trkpt lat="44.9067" lon="4.29048">
        <ele>1039.6</ele>
        <time>2026-05-06T10:50:54Z</time>
      </trkpt>
      <trkpt lat="44.90674" lon="4.2904">
        <ele>1038.6</ele>
        <time>2026-05-06T10:50:59Z</time>
      </trkpt>
      <trkpt lat="44.90678" lon="4.29032">
        <ele>1037.8</ele>
        <time>2026-05-06T10:51:04Z</time>
      </trkpt>
      <trkpt lat="44.90682" lon="4.29025">
        <ele>1037.2</ele>
        <time>2026-05-06T10:51:09Z</time>
      </trkpt>
      <trkpt lat="44.90685" lon="4.29016">
        <ele>1036.1</ele>
        <time>2026-05-06T10:51:14Z</time>
      </trkpt>
      <trkpt lat="44.90688" lon="4.29006">
        <ele>1034.8</ele>
        <time>2026-05-06T10:51:19Z</time>
      </trkpt>
      <trkpt lat="44.90689" lon="4.28996">
        <ele>1033.4</ele>
        <time>2026-05-06T10:51:24Z</time>
      </trkpt>
      <trkpt lat="44.90692" lon="4.28986">
        <ele>1033</ele>
        <time>2026-05-06T10:51:29Z</time>
      </trkpt>
      <trkpt lat="44.90693" lon="4.28977">
        <ele>1032.2</ele>
        <time>2026-05-06T10:51:34Z</time>
      </trkpt>
      <trkpt lat="44.90694" lon="4.28967">
        <ele>1031.2</ele>
        <time>2026-05-06T10:51:39Z</time>
      </trkpt>
      <trkpt lat="44.90696" lon="4.28954">
        <ele>1030.3</ele>
        <time>2026-05-06T10:51:44Z</time>
      </trkpt>
      <trkpt lat="44.90697" lon="4.28943">
        <ele>1029.3</ele>
        <time>2026-05-06T10:51:49Z</time>
      </trkpt>
      <trkpt lat="44.90699" lon="4.28933">
        <ele>1028.8</ele>
        <time>2026-05-06T10:51:54Z</time>
      </trkpt>
      <trkpt lat="44.90702" lon="4.28922">
        <ele>1028.5</ele>
        <time>2026-05-06T10:51:59Z</time>
      </trkpt>
      <trkpt lat="44.90703" lon="4.28911">
        <ele>1028.1</ele>
        <time>2026-05-06T10:52:04Z</time>
      </trkpt>
      <trkpt lat="44.90703" lon="4.28902">
        <ele>1028</ele>
        <time>2026-05-06T10:52:09Z</time>
      </trkpt>
      <trkpt lat="44.90703" lon="4.28891">
        <ele>1027.8</ele>
        <time>2026-05-06T10:52:14Z</time>
      </trkpt>
      <trkpt lat="44.90703" lon="4.28879">
        <ele>1027.6</ele>
        <time>2026-05-06T10:52:19Z</time>
      </trkpt>
      <trkpt lat="44.90703" lon="4.28867">
        <ele>1027.4</ele>
        <time>2026-05-06T10:52:24Z</time>
      </trkpt>
      <trkpt lat="44.90701" lon="4.28856">
        <ele>1026.5</ele>
        <time>2026-05-06T10:52:29Z</time>
      </trkpt>
      <trkpt lat="44.90701" lon="4.28847">
        <ele>1026.4</ele>
        <time>2026-05-06T10:52:34Z</time>
      </trkpt>
      <trkpt lat="44.90702" lon="4.28837">
        <ele>1026.5</ele>
        <time>2026-05-06T10:52:39Z</time>
      </trkpt>
      <trkpt lat="44.90702" lon="4.28826">
        <ele>1027.2</ele>
        <time>2026-05-06T10:52:44Z</time>
      </trkpt>
      <trkpt lat="44.90701" lon="4.28815">
        <ele>1028</ele>
        <time>2026-05-06T10:52:49Z</time>
      </trkpt>
      <trkpt lat="44.90701" lon="4.28804">
        <ele>1029.1</ele>
        <time>2026-05-06T10:52:54Z</time>
      </trkpt>
      <trkpt lat="44.907" lon="4.28793">
        <ele>1030</ele>
        <time>2026-05-06T10:52:59Z</time>
      </trkpt>
      <trkpt lat="44.90701" lon="4.28784">
        <ele>1031.1</ele>
        <time>2026-05-06T10:53:04Z</time>
      </trkpt>
      <trkpt lat="44.90702" lon="4.28773">
        <ele>1032.5</ele>
        <time>2026-05-06T10:53:09Z</time>
      </trkpt>
      <trkpt lat="44.90702" lon="4.28762">
        <ele>1033.6</ele>
        <time>2026-05-06T10:53:14Z</time>
      </trkpt>
      <trkpt lat="44.90703" lon="4.28754">
        <ele>1034.6</ele>
        <time>2026-05-06T10:53:19Z</time>
      </trkpt>
      <trkpt lat="44.90702" lon="4.28742">
        <ele>1036.2</ele>
        <time>2026-05-06T10:53:24Z</time>
      </trkpt>
      <trkpt lat="44.90699" lon="4.28734">
        <ele>1037</ele>
        <time>2026-05-06T10:53:29Z</time>
      </trkpt>
      <trkpt lat="44.90698" lon="4.28735">
        <ele>1036.7</ele>
        <time>2026-05-06T10:53:34Z</time>
      </trkpt>
      <trkpt lat="44.90697" lon="4.28735">
        <ele>1036.5</ele>
        <time>2026-05-06T10:53:39Z</time>
      </trkpt>
      <trkpt lat="44.90697" lon="4.28735">
        <ele>1036.5</ele>
        <time>2026-05-06T10:53:44Z</time>
      </trkpt>
      <trkpt lat="44.90697" lon="4.28735">
        <ele>1036.5</ele>
        <time>2026-05-06T10:53:49Z</time>
      </trkpt>
      <trkpt lat="44.90697" lon="4.28735">
        <ele>1036.5</ele>
        <time>2026-05-06T10:53:54Z</time>
      </trkpt>
      <trkpt lat="44.90697" lon="4.28735">
        <ele>1036.5</ele>
        <time>2026-05-06T10:53:59Z</time>
      </trkpt>
      <trkpt lat="44.90697" lon="4.28734">
        <ele>1036.7</ele>
        <time>2026-05-06T10:54:04Z</time>
      </trkpt>
      <trkpt lat="44.90697" lon="4.28734">
        <ele>1036.7</ele>
        <time>2026-05-06T10:54:09Z</time>
      </trkpt>
      <trkpt lat="44.90697" lon="4.28734">
        <ele>1036.7</ele>
        <time>2026-05-06T10:54:14Z</time>
      </trkpt>
      <trkpt lat="44.90697" lon="4.28734">
        <ele>1036.7</ele>
        <time>2026-05-06T10:54:19Z</time>
      </trkpt>
      <trkpt lat="44.90697" lon="4.28734">
        <ele>1036.7</ele>
        <time>2026-05-06T10:54:24Z</time>
      </trkpt>
      <trkpt lat="44.90697" lon="4.28734">
        <ele>1036.7</ele>
        <time>2026-05-06T10:54:29Z</time>
      </trkpt>
      <trkpt lat="44.90697" lon="4.28734">
        <ele>1036.7</ele>
        <time>2026-05-06T10:54:34Z</time>
      </trkpt>
      <trkpt lat="44.90696" lon="4.28722">
        <ele>1038.7</ele>
        <time>2026-05-06T10:54:39Z</time>
      </trkpt>
      <trkpt lat="44.90694" lon="4.28713">
        <ele>1040.1</ele>
        <time>2026-05-06T10:54:44Z</time>
      </trkpt>
      <trkpt lat="44.90692" lon="4.28704">
        <ele>1041.5</ele>
        <time>2026-05-06T10:54:49Z</time>
      </trkpt>
      <trkpt lat="44.9069" lon="4.28694">
        <ele>1043.2</ele>
        <time>2026-05-06T10:54:54Z</time>
      </trkpt>
      <trkpt lat="44.90688" lon="4.28683">
        <ele>1045.1</ele>
        <time>2026-05-06T10:54:59Z</time>
      </trkpt>
      <trkpt lat="44.90685" lon="4.28672">
        <ele>1047</ele>
        <time>2026-05-06T10:55:04Z</time>
      </trkpt>
      <trkpt lat="44.90684" lon="4.28662">
        <ele>1049.1</ele>
        <time>2026-05-06T10:55:09Z</time>
      </trkpt>
      <trkpt lat="44.9068" lon="4.28652">
        <ele>1051.3</ele>
        <time>2026-05-06T10:55:14Z</time>
      </trkpt>
      <trkpt lat="44.90674" lon="4.28644">
        <ele>1053.1</ele>
        <time>2026-05-06T10:55:19Z</time>
      </trkpt>
      <trkpt lat="44.90672" lon="4.28635">
        <ele>1055.4</ele>
        <time>2026-05-06T10:55:24Z</time>
      </trkpt>
      <trkpt lat="44.90667" lon="4.28626">
        <ele>1057.7</ele>
        <time>2026-05-06T10:55:29Z</time>
      </trkpt>
      <trkpt lat="44.90663" lon="4.28617">
        <ele>1059.6</ele>
        <time>2026-05-06T10:55:34Z</time>
      </trkpt>
      <trkpt lat="44.90661" lon="4.28609">
        <ele>1061.4</ele>
        <time>2026-05-06T10:55:39Z</time>
      </trkpt>
      <trkpt lat="44.90659" lon="4.286">
        <ele>1063.6</ele>
        <time>2026-05-06T10:55:44Z</time>
      </trkpt>
      <trkpt lat="44.90657" lon="4.28591">
        <ele>1065.8</ele>
        <time>2026-05-06T10:55:49Z</time>
      </trkpt>
      <trkpt lat="44.90657" lon="4.28583">
        <ele>1067.9</ele>
        <time>2026-05-06T10:55:54Z</time>
      </trkpt>
      <trkpt lat="44.90657" lon="4.28574">
        <ele>1069</ele>
        <time>2026-05-06T10:55:59Z</time>
      </trkpt>
      <trkpt lat="44.90657" lon="4.28566">
        <ele>1070</ele>
        <time>2026-05-06T10:56:04Z</time>
      </trkpt>
      <trkpt lat="44.90659" lon="4.28554">
        <ele>1071.6</ele>
        <time>2026-05-06T10:56:09Z</time>
      </trkpt>
      <trkpt lat="44.90658" lon="4.28544">
        <ele>1072.7</ele>
        <time>2026-05-06T10:56:14Z</time>
      </trkpt>
      <trkpt lat="44.90656" lon="4.28537">
        <ele>1073.5</ele>
        <time>2026-05-06T10:56:19Z</time>
      </trkpt>
      <trkpt lat="44.90654" lon="4.28527">
        <ele>1074.7</ele>
        <time>2026-05-06T10:56:24Z</time>
      </trkpt>
      <trkpt lat="44.90651" lon="4.28516">
        <ele>1076.1</ele>
        <time>2026-05-06T10:56:29Z</time>
      </trkpt>
      <trkpt lat="44.90648" lon="4.28503">
        <ele>1077.8</ele>
        <time>2026-05-06T10:56:34Z</time>
      </trkpt>
      <trkpt lat="44.90645" lon="4.28494">
        <ele>1078.2</ele>
        <time>2026-05-06T10:56:39Z</time>
      </trkpt>
      <trkpt lat="44.90643" lon="4.28484">
        <ele>1078.1</ele>
        <time>2026-05-06T10:56:44Z</time>
      </trkpt>
      <trkpt lat="44.9064" lon="4.28475">
        <ele>1078.2</ele>
        <time>2026-05-06T10:56:49Z</time>
      </trkpt>
      <trkpt lat="44.90636" lon="4.28466">
        <ele>1078.3</ele>
        <time>2026-05-06T10:56:54Z</time>
      </trkpt>
      <trkpt lat="44.90632" lon="4.28458">
        <ele>1078.6</ele>
        <time>2026-05-06T10:56:59Z</time>
      </trkpt>
      <trkpt lat="44.90629" lon="4.28449">
        <ele>1078.8</ele>
        <time>2026-05-06T10:57:04Z</time>
      </trkpt>
      <trkpt lat="44.90625" lon="4.28439">
        <ele>1079.2</ele>
        <time>2026-05-06T10:57:09Z</time>
      </trkpt>
      <trkpt lat="44.90622" lon="4.2843">
        <ele>1079.6</ele>
        <time>2026-05-06T10:57:14Z</time>
      </trkpt>
      <trkpt lat="44.90618" lon="4.28421">
        <ele>1080.2</ele>
        <time>2026-05-06T10:57:19Z</time>
      </trkpt>
      <trkpt lat="44.90616" lon="4.28411">
        <ele>1079.9</ele>
        <time>2026-05-06T10:57:24Z</time>
      </trkpt>
      <trkpt lat="44.90612" lon="4.28402">
        <ele>1079.4</ele>
        <time>2026-05-06T10:57:29Z</time>
      </trkpt>
      <trkpt lat="44.90609" lon="4.28392">
        <ele>1078.7</ele>
        <time>2026-05-06T10:57:34Z</time>
      </trkpt>
      <trkpt lat="44.90605" lon="4.28381">
        <ele>1078</ele>
        <time>2026-05-06T10:57:39Z</time>
      </trkpt>
      <trkpt lat="44.90601" lon="4.28373">
        <ele>1077.6</ele>
        <time>2026-05-06T10:57:44Z</time>
      </trkpt>
      <trkpt lat="44.90598" lon="4.28363">
        <ele>1076.8</ele>
        <time>2026-05-06T10:57:49Z</time>
      </trkpt>
      <trkpt lat="44.90594" lon="4.28353">
        <ele>1076.2</ele>
        <time>2026-05-06T10:57:54Z</time>
      </trkpt>
      <trkpt lat="44.90591" lon="4.28342">
        <ele>1075.3</ele>
        <time>2026-05-06T10:57:59Z</time>
      </trkpt>
      <trkpt lat="44.90588" lon="4.28331">
        <ele>1074.3</ele>
        <time>2026-05-06T10:58:04Z</time>
      </trkpt>
      <trkpt lat="44.90587" lon="4.28319">
        <ele>1072.7</ele>
        <time>2026-05-06T10:58:09Z</time>
      </trkpt>
      <trkpt lat="44.90584" lon="4.28309">
        <ele>1071.5</ele>
        <time>2026-05-06T10:58:14Z</time>
      </trkpt>
      <trkpt lat="44.90581" lon="4.28299">
        <ele>1069.5</ele>
        <time>2026-05-06T10:58:19Z</time>
      </trkpt>
      <trkpt lat="44.90579" lon="4.2829">
        <ele>1067.8</ele>
        <time>2026-05-06T10:58:24Z</time>
      </trkpt>
      <trkpt lat="44.90577" lon="4.28278">
        <ele>1065.7</ele>
        <time>2026-05-06T10:58:29Z</time>
      </trkpt>
      <trkpt lat="44.90576" lon="4.28267">
        <ele>1064</ele>
        <time>2026-05-06T10:58:34Z</time>
      </trkpt>
      <trkpt lat="44.90573" lon="4.28258">
        <ele>1062.2</ele>
        <time>2026-05-06T10:58:39Z</time>
      </trkpt>
      <trkpt lat="44.90568" lon="4.28246">
        <ele>1060</ele>
        <time>2026-05-06T10:58:44Z</time>
      </trkpt>
      <trkpt lat="44.90564" lon="4.28234">
        <ele>1058.5</ele>
        <time>2026-05-06T10:58:49Z</time>
      </trkpt>
      <trkpt lat="44.90561" lon="4.28223">
        <ele>1057.4</ele>
        <time>2026-05-06T10:58:54Z</time>
      </trkpt>
      <trkpt lat="44.90558" lon="4.28212">
        <ele>1056.3</ele>
        <time>2026-05-06T10:58:59Z</time>
      </trkpt>
      <trkpt lat="44.90555" lon="4.28199">
        <ele>1055.1</ele>
        <time>2026-05-06T10:59:04Z</time>
      </trkpt>
      <trkpt lat="44.90552" lon="4.28189">
        <ele>1054.1</ele>
        <time>2026-05-06T10:59:09Z</time>
      </trkpt>
      <trkpt lat="44.90548" lon="4.28179">
        <ele>1053</ele>
        <time>2026-05-06T10:59:14Z</time>
      </trkpt>
      <trkpt lat="44.90546" lon="4.28173">
        <ele>1052.4</ele>
        <time>2026-05-06T10:59:19Z</time>
      </trkpt>
      <trkpt lat="44.90545" lon="4.28167">
        <ele>1052</ele>
        <time>2026-05-06T10:59:24Z</time>
      </trkpt>
      <trkpt lat="44.90542" lon="4.28161">
        <ele>1051.7</ele>
        <time>2026-05-06T10:59:29Z</time>
      </trkpt>
      <trkpt lat="44.9054" lon="4.28153">
        <ele>1051.8</ele>
        <time>2026-05-06T10:59:34Z</time>
      </trkpt>
      <trkpt lat="44.90537" lon="4.28145">
        <ele>1051.8</ele>
        <time>2026-05-06T10:59:39Z</time>
      </trkpt>
      <trkpt lat="44.90534" lon="4.28133">
        <ele>1052</ele>
        <time>2026-05-06T10:59:44Z</time>
      </trkpt>
      <trkpt lat="44.90534" lon="4.28123">
        <ele>1052.4</ele>
        <time>2026-05-06T10:59:49Z</time>
      </trkpt>
      <trkpt lat="44.90533" lon="4.28116">
        <ele>1052.7</ele>
        <time>2026-05-06T10:59:54Z</time>
      </trkpt>
      <trkpt lat="44.90529" lon="4.28105">
        <ele>1052.9</ele>
        <time>2026-05-06T10:59:59Z</time>
      </trkpt>
      <trkpt lat="44.90526" lon="4.28094">
        <ele>1053.4</ele>
        <time>2026-05-06T11:00:04Z</time>
      </trkpt>
      <trkpt lat="44.90523" lon="4.28084">
        <ele>1053.8</ele>
        <time>2026-05-06T11:00:09Z</time>
      </trkpt>
      <trkpt lat="44.90523" lon="4.28076">
        <ele>1055.2</ele>
        <time>2026-05-06T11:00:14Z</time>
      </trkpt>
      <trkpt lat="44.9052" lon="4.28069">
        <ele>1056.5</ele>
        <time>2026-05-06T11:00:19Z</time>
      </trkpt>
      <trkpt lat="44.90519" lon="4.28059">
        <ele>1058.4</ele>
        <time>2026-05-06T11:00:24Z</time>
      </trkpt>
      <trkpt lat="44.90517" lon="4.2805">
        <ele>1060.2</ele>
        <time>2026-05-06T11:00:29Z</time>
      </trkpt>
      <trkpt lat="44.90516" lon="4.28041">
        <ele>1061.9</ele>
        <time>2026-05-06T11:00:34Z</time>
      </trkpt>
      <trkpt lat="44.90514" lon="4.28033">
        <ele>1063.6</ele>
        <time>2026-05-06T11:00:39Z</time>
      </trkpt>
      <trkpt lat="44.90511" lon="4.28025">
        <ele>1065.3</ele>
        <time>2026-05-06T11:00:44Z</time>
      </trkpt>
      <trkpt lat="44.9051" lon="4.28019">
        <ele>1066.5</ele>
        <time>2026-05-06T11:00:49Z</time>
      </trkpt>
      <trkpt lat="44.90507" lon="4.2801">
        <ele>1068.5</ele>
        <time>2026-05-06T11:00:54Z</time>
      </trkpt>
      <trkpt lat="44.90507" lon="4.28004">
        <ele>1069.7</ele>
        <time>2026-05-06T11:00:59Z</time>
      </trkpt>
      <trkpt lat="44.90505" lon="4.28">
        <ele>1070.7</ele>
        <time>2026-05-06T11:01:04Z</time>
      </trkpt>
      <trkpt lat="44.90503" lon="4.27997">
        <ele>1071.6</ele>
        <time>2026-05-06T11:01:09Z</time>
      </trkpt>
      <trkpt lat="44.905" lon="4.27992">
        <ele>1073.1</ele>
        <time>2026-05-06T11:01:14Z</time>
      </trkpt>
      <trkpt lat="44.905" lon="4.27988">
        <ele>1074.2</ele>
        <time>2026-05-06T11:01:19Z</time>
      </trkpt>
      <trkpt lat="44.90499" lon="4.27985">
        <ele>1074.9</ele>
        <time>2026-05-06T11:01:24Z</time>
      </trkpt>
      <trkpt lat="44.90498" lon="4.27982">
        <ele>1075.7</ele>
        <time>2026-05-06T11:01:29Z</time>
      </trkpt>
      <trkpt lat="44.90498" lon="4.27982">
        <ele>1075.7</ele>
        <time>2026-05-06T11:01:34Z</time>
      </trkpt>
      <trkpt lat="44.90498" lon="4.27982">
        <ele>1075.7</ele>
        <time>2026-05-06T11:01:39Z</time>
      </trkpt>
      <trkpt lat="44.90498" lon="4.27982">
        <ele>1075.7</ele>
        <time>2026-05-06T11:01:44Z</time>
      </trkpt>
      <trkpt lat="44.90498" lon="4.27982">
        <ele>1075.7</ele>
        <time>2026-05-06T11:01:49Z</time>
      </trkpt>
      <trkpt lat="44.90498" lon="4.27982">
        <ele>1075.7</ele>
        <time>2026-05-06T11:01:54Z</time>
      </trkpt>
      <trkpt lat="44.90498" lon="4.27982">
        <ele>1075.7</ele>
        <time>2026-05-06T11:01:59Z</time>
      </trkpt>
      <trkpt lat="44.90498" lon="4.27982">
        <ele>1075.7</ele>
        <time>2026-05-06T11:02:04Z</time>
      </trkpt>
      <trkpt lat="44.90498" lon="4.27982">
        <ele>1075.7</ele>
        <time>2026-05-06T11:02:09Z</time>
      </trkpt>
      <trkpt lat="44.90498" lon="4.27982">
        <ele>1075.7</ele>
        <time>2026-05-06T11:02:14Z</time>
      </trkpt>
      <trkpt lat="44.90498" lon="4.27982">
        <ele>1075.7</ele>
        <time>2026-05-06T11:02:19Z</time>
      </trkpt>
      <trkpt lat="44.90498" lon="4.27982">
        <ele>1075.7</ele>
        <time>2026-05-06T11:02:24Z</time>
      </trkpt>
      <trkpt lat="44.90494" lon="4.27982">
        <ele>1075.5</ele>
        <time>2026-05-06T11:02:29Z</time>
      </trkpt>
      <trkpt lat="44.90491" lon="4.27977">
        <ele>1076.8</ele>
        <time>2026-05-06T11:02:34Z</time>
      </trkpt>
      <trkpt lat="44.90486" lon="4.27969">
        <ele>1078.8</ele>
        <time>2026-05-06T11:02:39Z</time>
      </trkpt>
      <trkpt lat="44.90482" lon="4.27962">
        <ele>1080.7</ele>
        <time>2026-05-06T11:02:44Z</time>
      </trkpt>
      <trkpt lat="44.90479" lon="4.27957">
        <ele>1082.1</ele>
        <time>2026-05-06T11:02:49Z</time>
      </trkpt>
      <trkpt lat="44.90477" lon="4.27951">
        <ele>1083.9</ele>
        <time>2026-05-06T11:02:54Z</time>
      </trkpt>
      <trkpt lat="44.90476" lon="4.27945">
        <ele>1085.6</ele>
        <time>2026-05-06T11:02:59Z</time>
      </trkpt>
      <trkpt lat="44.90474" lon="4.2794">
        <ele>1087.1</ele>
        <time>2026-05-06T11:03:04Z</time>
      </trkpt>
      <trkpt lat="44.90473" lon="4.27934">
        <ele>1088.9</ele>
        <time>2026-05-06T11:03:09Z</time>
      </trkpt>
      <trkpt lat="44.90473" lon="4.27928">
        <ele>1090.6</ele>
        <time>2026-05-06T11:03:14Z</time>
      </trkpt>
      <trkpt lat="44.90474" lon="4.27921">
        <ele>1092.7</ele>
        <time>2026-05-06T11:03:19Z</time>
      </trkpt>
      <trkpt lat="44.90476" lon="4.27915">
        <ele>1094.2</ele>
        <time>2026-05-06T11:03:24Z</time>
      </trkpt>
      <trkpt lat="44.90478" lon="4.27909">
        <ele>1095.4</ele>
        <time>2026-05-06T11:03:29Z</time>
      </trkpt>
      <trkpt lat="44.9048" lon="4.27903">
        <ele>1096.5</ele>
        <time>2026-05-06T11:03:34Z</time>
      </trkpt>
      <trkpt lat="44.90483" lon="4.27897">
        <ele>1097.5</ele>
        <time>2026-05-06T11:03:39Z</time>
      </trkpt>
      <trkpt lat="44.90486" lon="4.27892">
        <ele>1098.3</ele>
        <time>2026-05-06T11:03:44Z</time>
      </trkpt>
      <trkpt lat="44.90488" lon="4.27887">
        <ele>1099.2</ele>
        <time>2026-05-06T11:03:49Z</time>
      </trkpt>
      <trkpt lat="44.90492" lon="4.27881">
        <ele>1100</ele>
        <time>2026-05-06T11:03:54Z</time>
      </trkpt>
      <trkpt lat="44.90494" lon="4.27876">
        <ele>1100.8</ele>
        <time>2026-05-06T11:03:59Z</time>
      </trkpt>
      <trkpt lat="44.90497" lon="4.27872">
        <ele>1101.3</ele>
        <time>2026-05-06T11:04:04Z</time>
      </trkpt>
      <trkpt lat="44.905" lon="4.27866">
        <ele>1102.1</ele>
        <time>2026-05-06T11:04:09Z</time>
      </trkpt>
      <trkpt lat="44.90502" lon="4.2786">
        <ele>1102.8</ele>
        <time>2026-05-06T11:04:14Z</time>
      </trkpt>
      <trkpt lat="44.90503" lon="4.27854">
        <ele>1103.6</ele>
        <time>2026-05-06T11:04:19Z</time>
      </trkpt>
      <trkpt lat="44.90502" lon="4.27849">
        <ele>1104.7</ele>
        <time>2026-05-06T11:04:24Z</time>
      </trkpt>
      <trkpt lat="44.90499" lon="4.27843">
        <ele>1106.4</ele>
        <time>2026-05-06T11:04:29Z</time>
      </trkpt>
      <trkpt lat="44.90498" lon="4.27836">
        <ele>1107.8</ele>
        <time>2026-05-06T11:04:34Z</time>
      </trkpt>
      <trkpt lat="44.90497" lon="4.27829">
        <ele>1108.7</ele>
        <time>2026-05-06T11:04:39Z</time>
      </trkpt>
      <trkpt lat="44.90496" lon="4.27822">
        <ele>1109.3</ele>
        <time>2026-05-06T11:04:44Z</time>
      </trkpt>
      <trkpt lat="44.90493" lon="4.27815">
        <ele>1110.2</ele>
        <time>2026-05-06T11:04:49Z</time>
      </trkpt>
      <trkpt lat="44.90491" lon="4.27808">
        <ele>1111</ele>
        <time>2026-05-06T11:04:54Z</time>
      </trkpt>
      <trkpt lat="44.90491" lon="4.27801">
        <ele>1111.5</ele>
        <time>2026-05-06T11:04:59Z</time>
      </trkpt>
      <trkpt lat="44.90491" lon="4.27795">
        <ele>1112</ele>
        <time>2026-05-06T11:05:04Z</time>
      </trkpt>
      <trkpt lat="44.90489" lon="4.2779">
        <ele>1112.7</ele>
        <time>2026-05-06T11:05:09Z</time>
      </trkpt>
      <trkpt lat="44.90486" lon="4.27785">
        <ele>1113.7</ele>
        <time>2026-05-06T11:05:14Z</time>
      </trkpt>
      <trkpt lat="44.90483" lon="4.27776">
        <ele>1115.1</ele>
        <time>2026-05-06T11:05:19Z</time>
      </trkpt>
      <trkpt lat="44.9048" lon="4.27771">
        <ele>1116.2</ele>
        <time>2026-05-06T11:05:24Z</time>
      </trkpt>
      <trkpt lat="44.90478" lon="4.27763">
        <ele>1117.4</ele>
        <time>2026-05-06T11:05:29Z</time>
      </trkpt>
      <trkpt lat="44.90477" lon="4.27756">
        <ele>1118.2</ele>
        <time>2026-05-06T11:05:34Z</time>
      </trkpt>
      <trkpt lat="44.90476" lon="4.27749">
        <ele>1119.2</ele>
        <time>2026-05-06T11:05:39Z</time>
      </trkpt>
      <trkpt lat="44.90474" lon="4.27741">
        <ele>1120.5</ele>
        <time>2026-05-06T11:05:44Z</time>
      </trkpt>
      <trkpt lat="44.90473" lon="4.27733">
        <ele>1121.7</ele>
        <time>2026-05-06T11:05:49Z</time>
      </trkpt>
      <trkpt lat="44.90472" lon="4.27727">
        <ele>1122.6</ele>
        <time>2026-05-06T11:05:54Z</time>
      </trkpt>
      <trkpt lat="44.90472" lon="4.2772">
        <ele>1123.4</ele>
        <time>2026-05-06T11:05:59Z</time>
      </trkpt>
      <trkpt lat="44.90469" lon="4.27714">
        <ele>1125</ele>
        <time>2026-05-06T11:06:04Z</time>
      </trkpt>
      <trkpt lat="44.90468" lon="4.27708">
        <ele>1125.9</ele>
        <time>2026-05-06T11:06:09Z</time>
      </trkpt>
      <trkpt lat="44.90467" lon="4.27703">
        <ele>1126.8</ele>
        <time>2026-05-06T11:06:14Z</time>
      </trkpt>
      <trkpt lat="44.90465" lon="4.27697">
        <ele>1128.1</ele>
        <time>2026-05-06T11:06:19Z</time>
      </trkpt>
      <trkpt lat="44.90464" lon="4.2769">
        <ele>1129.3</ele>
        <time>2026-05-06T11:06:24Z</time>
      </trkpt>
      <trkpt lat="44.90463" lon="4.27683">
        <ele>1130.5</ele>
        <time>2026-05-06T11:06:29Z</time>
      </trkpt>
      <trkpt lat="44.90462" lon="4.27675">
        <ele>1131.7</ele>
        <time>2026-05-06T11:06:34Z</time>
      </trkpt>
      <trkpt lat="44.90461" lon="4.27668">
        <ele>1132.9</ele>
        <time>2026-05-06T11:06:39Z</time>
      </trkpt>
      <trkpt lat="44.90461" lon="4.27659">
        <ele>1133.7</ele>
        <time>2026-05-06T11:06:44Z</time>
      </trkpt>
      <trkpt lat="44.90461" lon="4.27652">
        <ele>1134.3</ele>
        <time>2026-05-06T11:06:49Z</time>
      </trkpt>
      <trkpt lat="44.90461" lon="4.27645">
        <ele>1134.9</ele>
        <time>2026-05-06T11:06:54Z</time>
      </trkpt>
      <trkpt lat="44.9046" lon="4.27637">
        <ele>1135.9</ele>
        <time>2026-05-06T11:06:59Z</time>
      </trkpt>
      <trkpt lat="44.90459" lon="4.27628">
        <ele>1137</ele>
        <time>2026-05-06T11:07:04Z</time>
      </trkpt>
      <trkpt lat="44.90461" lon="4.27618">
        <ele>1137.1</ele>
        <time>2026-05-06T11:07:09Z</time>
      </trkpt>
      <trkpt lat="44.90462" lon="4.27611">
        <ele>1137.3</ele>
        <time>2026-05-06T11:07:14Z</time>
      </trkpt>
      <trkpt lat="44.90463" lon="4.27602">
        <ele>1137.7</ele>
        <time>2026-05-06T11:07:19Z</time>
      </trkpt>
      <trkpt lat="44.90463" lon="4.27595">
        <ele>1138.3</ele>
        <time>2026-05-06T11:07:24Z</time>
      </trkpt>
      <trkpt lat="44.90463" lon="4.27588">
        <ele>1138.8</ele>
        <time>2026-05-06T11:07:29Z</time>
      </trkpt>
      <trkpt lat="44.90462" lon="4.27581">
        <ele>1139.7</ele>
        <time>2026-05-06T11:07:34Z</time>
      </trkpt>
      <trkpt lat="44.90462" lon="4.27572">
        <ele>1139.9</ele>
        <time>2026-05-06T11:07:39Z</time>
      </trkpt>
      <trkpt lat="44.90463" lon="4.27564">
        <ele>1139.8</ele>
        <time>2026-05-06T11:07:44Z</time>
      </trkpt>
      <trkpt lat="44.90464" lon="4.27556">
        <ele>1139.7</ele>
        <time>2026-05-06T11:07:49Z</time>
      </trkpt>
      <trkpt lat="44.90466" lon="4.27548">
        <ele>1139.2</ele>
        <time>2026-05-06T11:07:54Z</time>
      </trkpt>
      <trkpt lat="44.90464" lon="4.27538">
        <ele>1140.2</ele>
        <time>2026-05-06T11:07:59Z</time>
      </trkpt>
      <trkpt lat="44.90463" lon="4.27532">
        <ele>1140.8</ele>
        <time>2026-05-06T11:08:04Z</time>
      </trkpt>
      <trkpt lat="44.90463" lon="4.27524">
        <ele>1141</ele>
        <time>2026-05-06T11:08:09Z</time>
      </trkpt>
      <trkpt lat="44.90463" lon="4.27516">
        <ele>1141.3</ele>
        <time>2026-05-06T11:08:14Z</time>
      </trkpt>
      <trkpt lat="44.90463" lon="4.27506">
        <ele>1141.6</ele>
        <time>2026-05-06T11:08:19Z</time>
      </trkpt>
      <trkpt lat="44.90462" lon="4.27498">
        <ele>1142.1</ele>
        <time>2026-05-06T11:08:24Z</time>
      </trkpt>
      <trkpt lat="44.9046" lon="4.27489">
        <ele>1142.6</ele>
        <time>2026-05-06T11:08:29Z</time>
      </trkpt>
      <trkpt lat="44.90457" lon="4.27483">
        <ele>1143.6</ele>
        <time>2026-05-06T11:08:34Z</time>
      </trkpt>
      <trkpt lat="44.90456" lon="4.27473">
        <ele>1143.7</ele>
        <time>2026-05-06T11:08:39Z</time>
      </trkpt>
      <trkpt lat="44.90454" lon="4.27465">
        <ele>1144.3</ele>
        <time>2026-05-06T11:08:44Z</time>
      </trkpt>
      <trkpt lat="44.90452" lon="4.27458">
        <ele>1144.8</ele>
        <time>2026-05-06T11:08:49Z</time>
      </trkpt>
      <trkpt lat="44.90451" lon="4.27449">
        <ele>1145</ele>
        <time>2026-05-06T11:08:54Z</time>
      </trkpt>
      <trkpt lat="44.90449" lon="4.27442">
        <ele>1145.6</ele>
        <time>2026-05-06T11:08:59Z</time>
      </trkpt>
      <trkpt lat="44.90446" lon="4.27435">
        <ele>1146.5</ele>
        <time>2026-05-06T11:09:04Z</time>
      </trkpt>
      <trkpt lat="44.90442" lon="4.27428">
        <ele>1147.8</ele>
        <time>2026-05-06T11:09:09Z</time>
      </trkpt>
      <trkpt lat="44.90439" lon="4.2742">
        <ele>1148.8</ele>
        <time>2026-05-06T11:09:14Z</time>
      </trkpt>
      <trkpt lat="44.90437" lon="4.27413">
        <ele>1149.1</ele>
        <time>2026-05-06T11:09:19Z</time>
      </trkpt>
      <trkpt lat="44.90435" lon="4.27404">
        <ele>1149.1</ele>
        <time>2026-05-06T11:09:24Z</time>
      </trkpt>
      <trkpt lat="44.90433" lon="4.27398">
        <ele>1149.3</ele>
        <time>2026-05-06T11:09:29Z</time>
      </trkpt>
      <trkpt lat="44.90431" lon="4.27391">
        <ele>1149.4</ele>
        <time>2026-05-06T11:09:34Z</time>
      </trkpt>
      <trkpt lat="44.90428" lon="4.27384">
        <ele>1149.8</ele>
        <time>2026-05-06T11:09:39Z</time>
      </trkpt>
      <trkpt lat="44.90424" lon="4.27378">
        <ele>1150.7</ele>
        <time>2026-05-06T11:09:44Z</time>
      </trkpt>
      <trkpt lat="44.90419" lon="4.27367">
        <ele>1151.4</ele>
        <time>2026-05-06T11:09:49Z</time>
      </trkpt>
      <trkpt lat="44.90414" lon="4.27359">
        <ele>1151.8</ele>
        <time>2026-05-06T11:09:54Z</time>
      </trkpt>
      <trkpt lat="44.90411" lon="4.27351">
        <ele>1151.4</ele>
        <time>2026-05-06T11:09:59Z</time>
      </trkpt>
      <trkpt lat="44.90407" lon="4.27345">
        <ele>1151.3</ele>
        <time>2026-05-06T11:10:04Z</time>
      </trkpt>
      <trkpt lat="44.90404" lon="4.27337">
        <ele>1150.9</ele>
        <time>2026-05-06T11:10:09Z</time>
      </trkpt>
      <trkpt lat="44.90402" lon="4.2733">
        <ele>1150.5</ele>
        <time>2026-05-06T11:10:14Z</time>
      </trkpt>
      <trkpt lat="44.904" lon="4.27322">
        <ele>1150.1</ele>
        <time>2026-05-06T11:10:19Z</time>
      </trkpt>
      <trkpt lat="44.90396" lon="4.27316">
        <ele>1150.1</ele>
        <time>2026-05-06T11:10:24Z</time>
      </trkpt>
      <trkpt lat="44.90394" lon="4.27308">
        <ele>1149.7</ele>
        <time>2026-05-06T11:10:29Z</time>
      </trkpt>
      <trkpt lat="44.90391" lon="4.27301">
        <ele>1149.5</ele>
        <time>2026-05-06T11:10:34Z</time>
      </trkpt>
      <trkpt lat="44.90388" lon="4.27292">
        <ele>1149.1</ele>
        <time>2026-05-06T11:10:39Z</time>
      </trkpt>
      <trkpt lat="44.90384" lon="4.27287">
        <ele>1149.1</ele>
        <time>2026-05-06T11:10:44Z</time>
      </trkpt>
      <trkpt lat="44.90384" lon="4.2728">
        <ele>1148.6</ele>
        <time>2026-05-06T11:10:49Z</time>
      </trkpt>
      <trkpt lat="44.90384" lon="4.27271">
        <ele>1147.8</ele>
        <time>2026-05-06T11:10:54Z</time>
      </trkpt>
      <trkpt lat="44.90384" lon="4.27263">
        <ele>1147.2</ele>
        <time>2026-05-06T11:10:59Z</time>
      </trkpt>
      <trkpt lat="44.90383" lon="4.27253">
        <ele>1146.5</ele>
        <time>2026-05-06T11:11:04Z</time>
      </trkpt>
      <trkpt lat="44.90381" lon="4.27243">
        <ele>1145.8</ele>
        <time>2026-05-06T11:11:09Z</time>
      </trkpt>
      <trkpt lat="44.9038" lon="4.27231">
        <ele>1144.8</ele>
        <time>2026-05-06T11:11:14Z</time>
      </trkpt>
      <trkpt lat="44.90378" lon="4.27223">
        <ele>1144.3</ele>
        <time>2026-05-06T11:11:19Z</time>
      </trkpt>
      <trkpt lat="44.90377" lon="4.27214">
        <ele>1143.6</ele>
        <time>2026-05-06T11:11:24Z</time>
      </trkpt>
      <trkpt lat="44.90375" lon="4.27205">
        <ele>1143</ele>
        <time>2026-05-06T11:11:29Z</time>
      </trkpt>
      <trkpt lat="44.90374" lon="4.27198">
        <ele>1142.4</ele>
        <time>2026-05-06T11:11:34Z</time>
      </trkpt>
      <trkpt lat="44.90375" lon="4.27189">
        <ele>1141.5</ele>
        <time>2026-05-06T11:11:39Z</time>
      </trkpt>
      <trkpt lat="44.90375" lon="4.27183">
        <ele>1141</ele>
        <time>2026-05-06T11:11:44Z</time>
      </trkpt>
      <trkpt lat="44.90376" lon="4.27176">
        <ele>1140.3</ele>
        <time>2026-05-06T11:11:49Z</time>
      </trkpt>
      <trkpt lat="44.90376" lon="4.27167">
        <ele>1139.4</ele>
        <time>2026-05-06T11:11:54Z</time>
      </trkpt>
      <trkpt lat="44.90375" lon="4.27163">
        <ele>1139</ele>
        <time>2026-05-06T11:11:59Z</time>
      </trkpt>
      <trkpt lat="44.90372" lon="4.27158">
        <ele>1138.6</ele>
        <time>2026-05-06T11:12:04Z</time>
      </trkpt>
      <trkpt lat="44.90369" lon="4.27153">
        <ele>1138.2</ele>
        <time>2026-05-06T11:12:09Z</time>
      </trkpt>
      <trkpt lat="44.90367" lon="4.27147">
        <ele>1137.6</ele>
        <time>2026-05-06T11:12:14Z</time>
      </trkpt>
      <trkpt lat="44.90364" lon="4.27141">
        <ele>1137</ele>
        <time>2026-05-06T11:12:19Z</time>
      </trkpt>
      <trkpt lat="44.90359" lon="4.27139">
        <ele>1137.2</ele>
        <time>2026-05-06T11:12:24Z</time>
      </trkpt>
      <trkpt lat="44.90353" lon="4.27136">
        <ele>1137.3</ele>
        <time>2026-05-06T11:12:29Z</time>
      </trkpt>
      <trkpt lat="44.90348" lon="4.27134">
        <ele>1137.5</ele>
        <time>2026-05-06T11:12:34Z</time>
      </trkpt>
      <trkpt lat="44.90343" lon="4.27132">
        <ele>1137.6</ele>
        <time>2026-05-06T11:12:39Z</time>
      </trkpt>
      <trkpt lat="44.90337" lon="4.2713">
        <ele>1137.9</ele>
        <time>2026-05-06T11:12:44Z</time>
      </trkpt>
      <trkpt lat="44.90331" lon="4.27126">
        <ele>1137.8</ele>
        <time>2026-05-06T11:12:49Z</time>
      </trkpt>
      <trkpt lat="44.90325" lon="4.27122">
        <ele>1137.8</ele>
        <time>2026-05-06T11:12:54Z</time>
      </trkpt>
      <trkpt lat="44.90319" lon="4.27121">
        <ele>1138.2</ele>
        <time>2026-05-06T11:12:59Z</time>
      </trkpt>
      <trkpt lat="44.90313" lon="4.27117">
        <ele>1138.3</ele>
        <time>2026-05-06T11:13:04Z</time>
      </trkpt>
      <trkpt lat="44.90307" lon="4.27113">
        <ele>1138.5</ele>
        <time>2026-05-06T11:13:09Z</time>
      </trkpt>
      <trkpt lat="44.90302" lon="4.2711">
        <ele>1138.7</ele>
        <time>2026-05-06T11:13:14Z</time>
      </trkpt>
      <trkpt lat="44.90296" lon="4.27104">
        <ele>1138.8</ele>
        <time>2026-05-06T11:13:19Z</time>
      </trkpt>
      <trkpt lat="44.9029" lon="4.27098">
        <ele>1138.9</ele>
        <time>2026-05-06T11:13:24Z</time>
      </trkpt>
      <trkpt lat="44.90284" lon="4.27093">
        <ele>1139.2</ele>
        <time>2026-05-06T11:13:29Z</time>
      </trkpt>
      <trkpt lat="44.90277" lon="4.27086">
        <ele>1139.6</ele>
        <time>2026-05-06T11:13:34Z</time>
      </trkpt>
      <trkpt lat="44.90271" lon="4.27082">
        <ele>1140.2</ele>
        <time>2026-05-06T11:13:39Z</time>
      </trkpt>
      <trkpt lat="44.90265" lon="4.27077">
        <ele>1141</ele>
        <time>2026-05-06T11:13:44Z</time>
      </trkpt>
      <trkpt lat="44.9026" lon="4.27069">
        <ele>1141.8</ele>
        <time>2026-05-06T11:13:49Z</time>
      </trkpt>
      <trkpt lat="44.90256" lon="4.27063">
        <ele>1142.5</ele>
        <time>2026-05-06T11:13:54Z</time>
      </trkpt>
      <trkpt lat="44.90252" lon="4.27055">
        <ele>1143.3</ele>
        <time>2026-05-06T11:13:59Z</time>
      </trkpt>
      <trkpt lat="44.90247" lon="4.27044">
        <ele>1144.5</ele>
        <time>2026-05-06T11:14:04Z</time>
      </trkpt>
      <trkpt lat="44.90243" lon="4.27032">
        <ele>1145.5</ele>
        <time>2026-05-06T11:14:09Z</time>
      </trkpt>
      <trkpt lat="44.9024" lon="4.2702">
        <ele>1146.2</ele>
        <time>2026-05-06T11:14:14Z</time>
      </trkpt>
      <trkpt lat="44.90239" lon="4.27011">
        <ele>1146.5</ele>
        <time>2026-05-06T11:14:19Z</time>
      </trkpt>
      <trkpt lat="44.90237" lon="4.27003">
        <ele>1147</ele>
        <time>2026-05-06T11:14:24Z</time>
      </trkpt>
      <trkpt lat="44.90236" lon="4.26993">
        <ele>1146.9</ele>
        <time>2026-05-06T11:14:29Z</time>
      </trkpt>
      <trkpt lat="44.90233" lon="4.26984">
        <ele>1147</ele>
        <time>2026-05-06T11:14:34Z</time>
      </trkpt>
      <trkpt lat="44.90233" lon="4.26973">
        <ele>1146.5</ele>
        <time>2026-05-06T11:14:39Z</time>
      </trkpt>
      <trkpt lat="44.90231" lon="4.26963">
        <ele>1146.3</ele>
        <time>2026-05-06T11:14:44Z</time>
      </trkpt>
      <trkpt lat="44.9023" lon="4.26954">
        <ele>1146</ele>
        <time>2026-05-06T11:14:49Z</time>
      </trkpt>
      <trkpt lat="44.90229" lon="4.26945">
        <ele>1145.6</ele>
        <time>2026-05-06T11:14:54Z</time>
      </trkpt>
      <trkpt lat="44.9023" lon="4.26935">
        <ele>1145.1</ele>
        <time>2026-05-06T11:14:59Z</time>
      </trkpt>
      <trkpt lat="44.90229" lon="4.26923">
        <ele>1144.6</ele>
        <time>2026-05-06T11:15:04Z</time>
      </trkpt>
      <trkpt lat="44.90229" lon="4.26913">
        <ele>1144</ele>
        <time>2026-05-06T11:15:09Z</time>
      </trkpt>
      <trkpt lat="44.90229" lon="4.26903">
        <ele>1143.3</ele>
        <time>2026-05-06T11:15:14Z</time>
      </trkpt>
      <trkpt lat="44.90229" lon="4.26893">
        <ele>1142.6</ele>
        <time>2026-05-06T11:15:19Z</time>
      </trkpt>
      <trkpt lat="44.90228" lon="4.26884">
        <ele>1141.9</ele>
        <time>2026-05-06T11:15:24Z</time>
      </trkpt>
      <trkpt lat="44.90227" lon="4.26875">
        <ele>1141.3</ele>
        <time>2026-05-06T11:15:29Z</time>
      </trkpt>
      <trkpt lat="44.90227" lon="4.26864">
        <ele>1140.5</ele>
        <time>2026-05-06T11:15:34Z</time>
      </trkpt>
      <trkpt lat="44.90226" lon="4.26857">
        <ele>1140</ele>
        <time>2026-05-06T11:15:39Z</time>
      </trkpt>
      <trkpt lat="44.90225" lon="4.26848">
        <ele>1139.4</ele>
        <time>2026-05-06T11:15:44Z</time>
      </trkpt>
      <trkpt lat="44.90225" lon="4.2684">
        <ele>1138.8</ele>
        <time>2026-05-06T11:15:49Z</time>
      </trkpt>
      <trkpt lat="44.90223" lon="4.26832">
        <ele>1138.3</ele>
        <time>2026-05-06T11:15:54Z</time>
      </trkpt>
      <trkpt lat="44.90221" lon="4.26829">
        <ele>1138.2</ele>
        <time>2026-05-06T11:15:59Z</time>
      </trkpt>
      <trkpt lat="44.90219" lon="4.26831">
        <ele>1138.3</ele>
        <time>2026-05-06T11:16:04Z</time>
      </trkpt>
      <trkpt lat="44.90218" lon="4.26836">
        <ele>1138.6</ele>
        <time>2026-05-06T11:16:09Z</time>
      </trkpt>
      <trkpt lat="44.90216" lon="4.26843">
        <ele>1139.2</ele>
        <time>2026-05-06T11:16:14Z</time>
      </trkpt>
      <trkpt lat="44.90214" lon="4.26852">
        <ele>1139.9</ele>
        <time>2026-05-06T11:16:19Z</time>
      </trkpt>
      <trkpt lat="44.90213" lon="4.26861">
        <ele>1140.7</ele>
        <time>2026-05-06T11:16:24Z</time>
      </trkpt>
      <trkpt lat="44.9021" lon="4.26871">
        <ele>1141.6</ele>
        <time>2026-05-06T11:16:29Z</time>
      </trkpt>
      <trkpt lat="44.90209" lon="4.2688">
        <ele>1142.4</ele>
        <time>2026-05-06T11:16:34Z</time>
      </trkpt>
      <trkpt lat="44.90206" lon="4.26888">
        <ele>1143.2</ele>
        <time>2026-05-06T11:16:39Z</time>
      </trkpt>
      <trkpt lat="44.90205" lon="4.26897">
        <ele>1144</ele>
        <time>2026-05-06T11:16:44Z</time>
      </trkpt>
      <trkpt lat="44.90203" lon="4.26906">
        <ele>1144.9</ele>
        <time>2026-05-06T11:16:49Z</time>
      </trkpt>
      <trkpt lat="44.90201" lon="4.26915">
        <ele>1145.8</ele>
        <time>2026-05-06T11:16:54Z</time>
      </trkpt>
      <trkpt lat="44.90198" lon="4.26924">
        <ele>1146.7</ele>
        <time>2026-05-06T11:16:59Z</time>
      </trkpt>
      <trkpt lat="44.90196" lon="4.26933">
        <ele>1147.6</ele>
        <time>2026-05-06T11:17:04Z</time>
      </trkpt>
      <trkpt lat="44.90193" lon="4.2694">
        <ele>1148.5</ele>
        <time>2026-05-06T11:17:09Z</time>
      </trkpt>
      <trkpt lat="44.90191" lon="4.26948">
        <ele>1149.4</ele>
        <time>2026-05-06T11:17:14Z</time>
      </trkpt>
      <trkpt lat="44.90188" lon="4.26957">
        <ele>1150.6</ele>
        <time>2026-05-06T11:17:19Z</time>
      </trkpt>
      <trkpt lat="44.90185" lon="4.26964">
        <ele>1151.6</ele>
        <time>2026-05-06T11:17:24Z</time>
      </trkpt>
      <trkpt lat="44.90183" lon="4.26971">
        <ele>1152.5</ele>
        <time>2026-05-06T11:17:29Z</time>
      </trkpt>
      <trkpt lat="44.90179" lon="4.26979">
        <ele>1153.9</ele>
        <time>2026-05-06T11:17:34Z</time>
      </trkpt>
      <trkpt lat="44.90176" lon="4.26985">
        <ele>1154.9</ele>
        <time>2026-05-06T11:17:39Z</time>
      </trkpt>
      <trkpt lat="44.90173" lon="4.26992">
        <ele>1156.1</ele>
        <time>2026-05-06T11:17:44Z</time>
      </trkpt>
      <trkpt lat="44.9017" lon="4.27">
        <ele>1157.5</ele>
        <time>2026-05-06T11:17:49Z</time>
      </trkpt>
      <trkpt lat="44.90168" lon="4.27008">
        <ele>1158.1</ele>
        <time>2026-05-06T11:17:54Z</time>
      </trkpt>
      <trkpt lat="44.90165" lon="4.27016">
        <ele>1158.7</ele>
        <time>2026-05-06T11:17:59Z</time>
      </trkpt>
      <trkpt lat="44.90164" lon="4.27024">
        <ele>1159</ele>
        <time>2026-05-06T11:18:04Z</time>
      </trkpt>
      <trkpt lat="44.90162" lon="4.27033">
        <ele>1159.5</ele>
        <time>2026-05-06T11:18:09Z</time>
      </trkpt>
      <trkpt lat="44.90162" lon="4.27043">
        <ele>1159.8</ele>
        <time>2026-05-06T11:18:14Z</time>
      </trkpt>
      <trkpt lat="44.90161" lon="4.27052">
        <ele>1160.2</ele>
        <time>2026-05-06T11:18:19Z</time>
      </trkpt>
      <trkpt lat="44.9016" lon="4.27061">
        <ele>1160.6</ele>
        <time>2026-05-06T11:18:24Z</time>
      </trkpt>
      <trkpt lat="44.90159" lon="4.2707">
        <ele>1161</ele>
        <time>2026-05-06T11:18:29Z</time>
      </trkpt>
      <trkpt lat="44.90157" lon="4.27078">
        <ele>1161.5</ele>
        <time>2026-05-06T11:18:34Z</time>
      </trkpt>
      <trkpt lat="44.90156" lon="4.27087">
        <ele>1161.5</ele>
        <time>2026-05-06T11:18:39Z</time>
      </trkpt>
      <trkpt lat="44.90155" lon="4.27095">
        <ele>1161</ele>
        <time>2026-05-06T11:18:44Z</time>
      </trkpt>
      <trkpt lat="44.90154" lon="4.27105">
        <ele>1160.4</ele>
        <time>2026-05-06T11:18:49Z</time>
      </trkpt>
      <trkpt lat="44.90152" lon="4.27114">
        <ele>1159.8</ele>
        <time>2026-05-06T11:18:54Z</time>
      </trkpt>
      <trkpt lat="44.9015" lon="4.27123">
        <ele>1159.3</ele>
        <time>2026-05-06T11:18:59Z</time>
      </trkpt>
      <trkpt lat="44.90147" lon="4.27133">
        <ele>1158.8</ele>
        <time>2026-05-06T11:19:04Z</time>
      </trkpt>
      <trkpt lat="44.90143" lon="4.27141">
        <ele>1158.6</ele>
        <time>2026-05-06T11:19:09Z</time>
      </trkpt>
      <trkpt lat="44.9014" lon="4.27148">
        <ele>1158.3</ele>
        <time>2026-05-06T11:19:14Z</time>
      </trkpt>
      <trkpt lat="44.90138" lon="4.27158">
        <ele>1157.7</ele>
        <time>2026-05-06T11:19:19Z</time>
      </trkpt>
      <trkpt lat="44.90135" lon="4.27166">
        <ele>1157.3</ele>
        <time>2026-05-06T11:19:24Z</time>
      </trkpt>
      <trkpt lat="44.90133" lon="4.27177">
        <ele>1156.3</ele>
        <time>2026-05-06T11:19:29Z</time>
      </trkpt>
      <trkpt lat="44.90131" lon="4.27186">
        <ele>1155.4</ele>
        <time>2026-05-06T11:19:34Z</time>
      </trkpt>
      <trkpt lat="44.90129" lon="4.27195">
        <ele>1154.5</ele>
        <time>2026-05-06T11:19:39Z</time>
      </trkpt>
      <trkpt lat="44.90128" lon="4.27205">
        <ele>1153.5</ele>
        <time>2026-05-06T11:19:44Z</time>
      </trkpt>
      <trkpt lat="44.90126" lon="4.27215">
        <ele>1152.4</ele>
        <time>2026-05-06T11:19:49Z</time>
      </trkpt>
      <trkpt lat="44.90123" lon="4.27223">
        <ele>1151.7</ele>
        <time>2026-05-06T11:19:54Z</time>
      </trkpt>
      <trkpt lat="44.90121" lon="4.2723">
        <ele>1151</ele>
        <time>2026-05-06T11:19:59Z</time>
      </trkpt>
      <trkpt lat="44.9012" lon="4.27234">
        <ele>1150.5</ele>
        <time>2026-05-06T11:20:04Z</time>
      </trkpt>
      <trkpt lat="44.9012" lon="4.27234">
        <ele>1150.5</ele>
        <time>2026-05-06T11:20:09Z</time>
      </trkpt>
      <trkpt lat="44.90119" lon="4.27234">
        <ele>1150.6</ele>
        <time>2026-05-06T11:20:14Z</time>
      </trkpt>
      <trkpt lat="44.90119" lon="4.27234">
        <ele>1150.6</ele>
        <time>2026-05-06T11:20:19Z</time>
      </trkpt>
      <trkpt lat="44.9012" lon="4.27233">
        <ele>1150.7</ele>
        <time>2026-05-06T11:20:24Z</time>
      </trkpt>
      <trkpt lat="44.90123" lon="4.2723">
        <ele>1150.9</ele>
        <time>2026-05-06T11:20:29Z</time>
      </trkpt>
      <trkpt lat="44.90124" lon="4.27228">
        <ele>1151.1</ele>
        <time>2026-05-06T11:20:34Z</time>
      </trkpt>
      <trkpt lat="44.90124" lon="4.27222">
        <ele>1151.7</ele>
        <time>2026-05-06T11:20:39Z</time>
      </trkpt>
      <trkpt lat="44.90125" lon="4.27213">
        <ele>1152.7</ele>
        <time>2026-05-06T11:20:44Z</time>
      </trkpt>
      <trkpt lat="44.90125" lon="4.27208">
        <ele>1153.3</ele>
        <time>2026-05-06T11:20:49Z</time>
      </trkpt>
      <trkpt lat="44.90124" lon="4.27208">
        <ele>1153.3</ele>
        <time>2026-05-06T11:20:54Z</time>
      </trkpt>
      <trkpt lat="44.90124" lon="4.27208">
        <ele>1153.3</ele>
        <time>2026-05-06T11:20:59Z</time>
      </trkpt>
      <trkpt lat="44.90124" lon="4.27208">
        <ele>1153.3</ele>
        <time>2026-05-06T11:21:04Z</time>
      </trkpt>
      <trkpt lat="44.90124" lon="4.27208">
        <ele>1153.3</ele>
        <time>2026-05-06T11:21:09Z</time>
      </trkpt>
      <trkpt lat="44.90124" lon="4.27208">
        <ele>1153.3</ele>
        <time>2026-05-06T11:21:14Z</time>
      </trkpt>
      <trkpt lat="44.90124" lon="4.27208">
        <ele>1153.3</ele>
        <time>2026-05-06T11:21:19Z</time>
      </trkpt>
      <trkpt lat="44.90124" lon="4.27208">
        <ele>1153.3</ele>
        <time>2026-05-06T11:21:24Z</time>
      </trkpt>
      <trkpt lat="44.90124" lon="4.27208">
        <ele>1153.3</ele>
        <time>2026-05-06T11:21:29Z</time>
      </trkpt>
      <trkpt lat="44.90124" lon="4.27208">
        <ele>1153.3</ele>
        <time>2026-05-06T11:21:34Z</time>
      </trkpt>
      <trkpt lat="44.90124" lon="4.27208">
        <ele>1153.3</ele>
        <time>2026-05-06T11:21:39Z</time>
      </trkpt>
      <trkpt lat="44.90124" lon="4.27208">
        <ele>1153.3</ele>
        <time>2026-05-06T11:21:44Z</time>
      </trkpt>
      <trkpt lat="44.90124" lon="4.27208">
        <ele>1153.3</ele>
        <time>2026-05-06T11:21:49Z</time>
      </trkpt>
      <trkpt lat="44.90124" lon="4.27208">
        <ele>1153.3</ele>
        <time>2026-05-06T11:21:54Z</time>
      </trkpt>
      <trkpt lat="44.90124" lon="4.27208">
        <ele>1153.3</ele>
        <time>2026-05-06T11:21:59Z</time>
      </trkpt>
      <trkpt lat="44.90124" lon="4.27208">
        <ele>1153.3</ele>
        <time>2026-05-06T11:22:04Z</time>
      </trkpt>
      <trkpt lat="44.90124" lon="4.27208">
        <ele>1153.3</ele>
        <time>2026-05-06T11:22:09Z</time>
      </trkpt>
      <trkpt lat="44.90124" lon="4.27208">
        <ele>1153.3</ele>
        <time>2026-05-06T11:22:14Z</time>
      </trkpt>
      <trkpt lat="44.90124" lon="4.27208">
        <ele>1153.3</ele>
        <time>2026-05-06T11:22:19Z</time>
      </trkpt>
      <trkpt lat="44.90124" lon="4.27208">
        <ele>1153.3</ele>
        <time>2026-05-06T11:22:24Z</time>
      </trkpt>
      <trkpt lat="44.90124" lon="4.27208">
        <ele>1153.3</ele>
        <time>2026-05-06T11:22:29Z</time>
      </trkpt>
      <trkpt lat="44.90129" lon="4.27195">
        <ele>1154.5</ele>
        <time>2026-05-06T11:22:34Z</time>
      </trkpt>
      <trkpt lat="44.9013" lon="4.27181">
        <ele>1156</ele>
        <time>2026-05-06T11:22:39Z</time>
      </trkpt>
      <trkpt lat="44.90132" lon="4.27173">
        <ele>1156.8</ele>
        <time>2026-05-06T11:22:44Z</time>
      </trkpt>
      <trkpt lat="44.90134" lon="4.27164">
        <ele>1157.5</ele>
        <time>2026-05-06T11:22:49Z</time>
      </trkpt>
      <trkpt lat="44.90137" lon="4.27154">
        <ele>1158</ele>
        <time>2026-05-06T11:22:54Z</time>
      </trkpt>
      <trkpt lat="44.9014" lon="4.27145">
        <ele>1158.5</ele>
        <time>2026-05-06T11:22:59Z</time>
      </trkpt>
      <trkpt lat="44.90142" lon="4.27136">
        <ele>1159</ele>
        <time>2026-05-06T11:23:04Z</time>
      </trkpt>
      <trkpt lat="44.90147" lon="4.27125">
        <ele>1159.4</ele>
        <time>2026-05-06T11:23:09Z</time>
      </trkpt>
      <trkpt lat="44.90151" lon="4.27115">
        <ele>1159.8</ele>
        <time>2026-05-06T11:23:14Z</time>
      </trkpt>
      <trkpt lat="44.90155" lon="4.27106">
        <ele>1160.2</ele>
        <time>2026-05-06T11:23:19Z</time>
      </trkpt>
      <trkpt lat="44.90157" lon="4.27095">
        <ele>1160.9</ele>
        <time>2026-05-06T11:23:24Z</time>
      </trkpt>
      <trkpt lat="44.90159" lon="4.27085">
        <ele>1161.4</ele>
        <time>2026-05-06T11:23:29Z</time>
      </trkpt>
      <trkpt lat="44.90159" lon="4.27075">
        <ele>1161.2</ele>
        <time>2026-05-06T11:23:34Z</time>
      </trkpt>
      <trkpt lat="44.90161" lon="4.27067">
        <ele>1160.8</ele>
        <time>2026-05-06T11:23:39Z</time>
      </trkpt>
      <trkpt lat="44.90161" lon="4.27055">
        <ele>1160.3</ele>
        <time>2026-05-06T11:23:44Z</time>
      </trkpt>
      <trkpt lat="44.90162" lon="4.27045">
        <ele>1159.9</ele>
        <time>2026-05-06T11:23:49Z</time>
      </trkpt>
      <trkpt lat="44.90164" lon="4.27033">
        <ele>1159.3</ele>
        <time>2026-05-06T11:23:54Z</time>
      </trkpt>
      <trkpt lat="44.90163" lon="4.27029">
        <ele>1159.3</ele>
        <time>2026-05-06T11:23:59Z</time>
      </trkpt>
      <trkpt lat="44.90163" lon="4.27029">
        <ele>1159.3</ele>
        <time>2026-05-06T11:24:04Z</time>
      </trkpt>
      <trkpt lat="44.90163" lon="4.27029">
        <ele>1159.3</ele>
        <time>2026-05-06T11:24:09Z</time>
      </trkpt>
      <trkpt lat="44.90163" lon="4.27029">
        <ele>1159.3</ele>
        <time>2026-05-06T11:24:14Z</time>
      </trkpt>
      <trkpt lat="44.90163" lon="4.27029">
        <ele>1159.3</ele>
        <time>2026-05-06T11:24:19Z</time>
      </trkpt>
      <trkpt lat="44.90163" lon="4.27029">
        <ele>1159.3</ele>
        <time>2026-05-06T11:24:24Z</time>
      </trkpt>
      <trkpt lat="44.90163" lon="4.27029">
        <ele>1159.3</ele>
        <time>2026-05-06T11:24:29Z</time>
      </trkpt>
      <trkpt lat="44.90163" lon="4.27019">
        <ele>1158.9</ele>
        <time>2026-05-06T11:24:34Z</time>
      </trkpt>
      <trkpt lat="44.90164" lon="4.27013">
        <ele>1158.6</ele>
        <time>2026-05-06T11:24:39Z</time>
      </trkpt>
      <trkpt lat="44.90164" lon="4.27009">
        <ele>1158.5</ele>
        <time>2026-05-06T11:24:44Z</time>
      </trkpt>
      <trkpt lat="44.90168" lon="4.27001">
        <ele>1157.8</ele>
        <time>2026-05-06T11:24:49Z</time>
      </trkpt>
      <trkpt lat="44.90171" lon="4.26992">
        <ele>1156.4</ele>
        <time>2026-05-06T11:24:54Z</time>
      </trkpt>
      <trkpt lat="44.90176" lon="4.26983">
        <ele>1154.7</ele>
        <time>2026-05-06T11:24:59Z</time>
      </trkpt>
      <trkpt lat="44.9018" lon="4.26973">
        <ele>1153.1</ele>
        <time>2026-05-06T11:25:04Z</time>
      </trkpt>
      <trkpt lat="44.90183" lon="4.26963">
        <ele>1151.7</ele>
        <time>2026-05-06T11:25:09Z</time>
      </trkpt>
      <trkpt lat="44.90191" lon="4.26955">
        <ele>1150.1</ele>
        <time>2026-05-06T11:25:14Z</time>
      </trkpt>
      <trkpt lat="44.90194" lon="4.26945">
        <ele>1148.9</ele>
        <time>2026-05-06T11:25:19Z</time>
      </trkpt>
      <trkpt lat="44.90197" lon="4.26935">
        <ele>1147.7</ele>
        <time>2026-05-06T11:25:24Z</time>
      </trkpt>
      <trkpt lat="44.90201" lon="4.26926">
        <ele>1146.7</ele>
        <time>2026-05-06T11:25:29Z</time>
      </trkpt>
      <trkpt lat="44.90203" lon="4.26916">
        <ele>1145.8</ele>
        <time>2026-05-06T11:25:34Z</time>
      </trkpt>
      <trkpt lat="44.90203" lon="4.26903">
        <ele>1144.6</ele>
        <time>2026-05-06T11:25:39Z</time>
      </trkpt>
      <trkpt lat="44.90205" lon="4.26893">
        <ele>1143.7</ele>
        <time>2026-05-06T11:25:44Z</time>
      </trkpt>
      <trkpt lat="44.90206" lon="4.26883">
        <ele>1142.8</ele>
        <time>2026-05-06T11:25:49Z</time>
      </trkpt>
      <trkpt lat="44.9021" lon="4.26873">
        <ele>1141.8</ele>
        <time>2026-05-06T11:25:54Z</time>
      </trkpt>
      <trkpt lat="44.90213" lon="4.26862">
        <ele>1140.8</ele>
        <time>2026-05-06T11:25:59Z</time>
      </trkpt>
      <trkpt lat="44.90214" lon="4.26854">
        <ele>1140.1</ele>
        <time>2026-05-06T11:26:04Z</time>
      </trkpt>
      <trkpt lat="44.90217" lon="4.26844">
        <ele>1139.2</ele>
        <time>2026-05-06T11:26:09Z</time>
      </trkpt>
      <trkpt lat="44.90219" lon="4.26835">
        <ele>1138.5</ele>
        <time>2026-05-06T11:26:14Z</time>
      </trkpt>
      <trkpt lat="44.90222" lon="4.26822">
        <ele>1137.8</ele>
        <time>2026-05-06T11:26:19Z</time>
      </trkpt>
      <trkpt lat="44.90223" lon="4.26812">
        <ele>1137.4</ele>
        <time>2026-05-06T11:26:24Z</time>
      </trkpt>
      <trkpt lat="44.90224" lon="4.26802">
        <ele>1136.9</ele>
        <time>2026-05-06T11:26:29Z</time>
      </trkpt>
      <trkpt lat="44.90226" lon="4.2679">
        <ele>1136.4</ele>
        <time>2026-05-06T11:26:34Z</time>
      </trkpt>
      <trkpt lat="44.90224" lon="4.26779">
        <ele>1135.9</ele>
        <time>2026-05-06T11:26:39Z</time>
      </trkpt>
      <trkpt lat="44.90222" lon="4.26769">
        <ele>1135.5</ele>
        <time>2026-05-06T11:26:44Z</time>
      </trkpt>
      <trkpt lat="44.90221" lon="4.26758">
        <ele>1135</ele>
        <time>2026-05-06T11:26:49Z</time>
      </trkpt>
      <trkpt lat="44.90219" lon="4.26746">
        <ele>1134.6</ele>
        <time>2026-05-06T11:26:54Z</time>
      </trkpt>
      <trkpt lat="44.90219" lon="4.26735">
        <ele>1134.3</ele>
        <time>2026-05-06T11:26:59Z</time>
      </trkpt>
      <trkpt lat="44.90219" lon="4.26723">
        <ele>1134</ele>
        <time>2026-05-06T11:27:04Z</time>
      </trkpt>
      <trkpt lat="44.90217" lon="4.26713">
        <ele>1133.7</ele>
        <time>2026-05-06T11:27:09Z</time>
      </trkpt>
      <trkpt lat="44.90217" lon="4.26704">
        <ele>1133.5</ele>
        <time>2026-05-06T11:27:14Z</time>
      </trkpt>
      <trkpt lat="44.90217" lon="4.26692">
        <ele>1133.1</ele>
        <time>2026-05-06T11:27:19Z</time>
      </trkpt>
      <trkpt lat="44.90216" lon="4.2668">
        <ele>1132.8</ele>
        <time>2026-05-06T11:27:24Z</time>
      </trkpt>
      <trkpt lat="44.90213" lon="4.2667">
        <ele>1132.5</ele>
        <time>2026-05-06T11:27:29Z</time>
      </trkpt>
      <trkpt lat="44.90211" lon="4.26659">
        <ele>1132.2</ele>
        <time>2026-05-06T11:27:34Z</time>
      </trkpt>
      <trkpt lat="44.90208" lon="4.26648">
        <ele>1131.9</ele>
        <time>2026-05-06T11:27:39Z</time>
      </trkpt>
      <trkpt lat="44.90205" lon="4.26639">
        <ele>1131.7</ele>
        <time>2026-05-06T11:27:44Z</time>
      </trkpt>
      <trkpt lat="44.90203" lon="4.2663">
        <ele>1131.5</ele>
        <time>2026-05-06T11:27:49Z</time>
      </trkpt>
      <trkpt lat="44.90201" lon="4.26618">
        <ele>1131.2</ele>
        <time>2026-05-06T11:27:54Z</time>
      </trkpt>
      <trkpt lat="44.90202" lon="4.26607">
        <ele>1130.8</ele>
        <time>2026-05-06T11:27:59Z</time>
      </trkpt>
      <trkpt lat="44.90203" lon="4.26596">
        <ele>1130.5</ele>
        <time>2026-05-06T11:28:04Z</time>
      </trkpt>
      <trkpt lat="44.90206" lon="4.26586">
        <ele>1130.1</ele>
        <time>2026-05-06T11:28:09Z</time>
      </trkpt>
      <trkpt lat="44.90206" lon="4.26575">
        <ele>1130.1</ele>
        <time>2026-05-06T11:28:14Z</time>
      </trkpt>
      <trkpt lat="44.90206" lon="4.26564">
        <ele>1130.1</ele>
        <time>2026-05-06T11:28:19Z</time>
      </trkpt>
      <trkpt lat="44.90207" lon="4.26552">
        <ele>1130</ele>
        <time>2026-05-06T11:28:24Z</time>
      </trkpt>
      <trkpt lat="44.90209" lon="4.26541">
        <ele>1130</ele>
        <time>2026-05-06T11:28:29Z</time>
      </trkpt>
      <trkpt lat="44.90209" lon="4.26532">
        <ele>1130</ele>
        <time>2026-05-06T11:28:34Z</time>
      </trkpt>
      <trkpt lat="44.9021" lon="4.2652">
        <ele>1130</ele>
        <time>2026-05-06T11:28:39Z</time>
      </trkpt>
      <trkpt lat="44.9021" lon="4.2651">
        <ele>1130</ele>
        <time>2026-05-06T11:28:44Z</time>
      </trkpt>
      <trkpt lat="44.90213" lon="4.26495">
        <ele>1129.8</ele>
        <time>2026-05-06T11:28:49Z</time>
      </trkpt>
      <trkpt lat="44.90214" lon="4.26484">
        <ele>1129.7</ele>
        <time>2026-05-06T11:28:54Z</time>
      </trkpt>
      <trkpt lat="44.90215" lon="4.26474">
        <ele>1129.5</ele>
        <time>2026-05-06T11:28:59Z</time>
      </trkpt>
      <trkpt lat="44.90216" lon="4.26463">
        <ele>1129.4</ele>
        <time>2026-05-06T11:29:04Z</time>
      </trkpt>
      <trkpt lat="44.90216" lon="4.26453">
        <ele>1129.3</ele>
        <time>2026-05-06T11:29:09Z</time>
      </trkpt>
      <trkpt lat="44.90217" lon="4.26442">
        <ele>1129.1</ele>
        <time>2026-05-06T11:29:14Z</time>
      </trkpt>
      <trkpt lat="44.90217" lon="4.26432">
        <ele>1129</ele>
        <time>2026-05-06T11:29:19Z</time>
      </trkpt>
      <trkpt lat="44.90218" lon="4.26421">
        <ele>1128.8</ele>
        <time>2026-05-06T11:29:24Z</time>
      </trkpt>
      <trkpt lat="44.90219" lon="4.26409">
        <ele>1128.8</ele>
        <time>2026-05-06T11:29:29Z</time>
      </trkpt>
      <trkpt lat="44.9022" lon="4.26398">
        <ele>1128.9</ele>
        <time>2026-05-06T11:29:34Z</time>
      </trkpt>
      <trkpt lat="44.90221" lon="4.26387">
        <ele>1129.1</ele>
        <time>2026-05-06T11:29:39Z</time>
      </trkpt>
      <trkpt lat="44.90221" lon="4.26378">
        <ele>1129.2</ele>
        <time>2026-05-06T11:29:44Z</time>
      </trkpt>
      <trkpt lat="44.90222" lon="4.26368">
        <ele>1129.3</ele>
        <time>2026-05-06T11:29:49Z</time>
      </trkpt>
      <trkpt lat="44.90223" lon="4.26356">
        <ele>1129.4</ele>
        <time>2026-05-06T11:29:54Z</time>
      </trkpt>
      <trkpt lat="44.90223" lon="4.26345">
        <ele>1129.5</ele>
        <time>2026-05-06T11:29:59Z</time>
      </trkpt>
      <trkpt lat="44.90224" lon="4.26334">
        <ele>1129.6</ele>
        <time>2026-05-06T11:30:04Z</time>
      </trkpt>
      <trkpt lat="44.90224" lon="4.26324">
        <ele>1129.7</ele>
        <time>2026-05-06T11:30:09Z</time>
      </trkpt>
      <trkpt lat="44.90226" lon="4.26314">
        <ele>1129.7</ele>
        <time>2026-05-06T11:30:14Z</time>
      </trkpt>
      <trkpt lat="44.90226" lon="4.26302">
        <ele>1129.8</ele>
        <time>2026-05-06T11:30:19Z</time>
      </trkpt>
      <trkpt lat="44.90228" lon="4.26291">
        <ele>1129.9</ele>
        <time>2026-05-06T11:30:24Z</time>
      </trkpt>
      <trkpt lat="44.9023" lon="4.26281">
        <ele>1130</ele>
        <time>2026-05-06T11:30:29Z</time>
      </trkpt>
      <trkpt lat="44.90231" lon="4.26272">
        <ele>1130</ele>
        <time>2026-05-06T11:30:34Z</time>
      </trkpt>
      <trkpt lat="44.9023" lon="4.26259">
        <ele>1130.2</ele>
        <time>2026-05-06T11:30:39Z</time>
      </trkpt>
      <trkpt lat="44.90232" lon="4.26249">
        <ele>1130.2</ele>
        <time>2026-05-06T11:30:44Z</time>
      </trkpt>
      <trkpt lat="44.90232" lon="4.26241">
        <ele>1130.4</ele>
        <time>2026-05-06T11:30:49Z</time>
      </trkpt>
      <trkpt lat="44.90231" lon="4.26233">
        <ele>1130.6</ele>
        <time>2026-05-06T11:30:54Z</time>
      </trkpt>
      <trkpt lat="44.9023" lon="4.26224">
        <ele>1130.8</ele>
        <time>2026-05-06T11:30:59Z</time>
      </trkpt>
      <trkpt lat="44.90231" lon="4.26218">
        <ele>1130.9</ele>
        <time>2026-05-06T11:31:04Z</time>
      </trkpt>
      <trkpt lat="44.90231" lon="4.26218">
        <ele>1130.9</ele>
        <time>2026-05-06T11:31:09Z</time>
      </trkpt>
      <trkpt lat="44.90232" lon="4.26212">
        <ele>1131</ele>
        <time>2026-05-06T11:31:14Z</time>
      </trkpt>
      <trkpt lat="44.90228" lon="4.26201">
        <ele>1131.3</ele>
        <time>2026-05-06T11:31:19Z</time>
      </trkpt>
      <trkpt lat="44.90227" lon="4.26193">
        <ele>1131.5</ele>
        <time>2026-05-06T11:31:24Z</time>
      </trkpt>
      <trkpt lat="44.90227" lon="4.26189">
        <ele>1131.5</ele>
        <time>2026-05-06T11:31:29Z</time>
      </trkpt>
      <trkpt lat="44.90227" lon="4.26185">
        <ele>1131.6</ele>
        <time>2026-05-06T11:31:34Z</time>
      </trkpt>
      <trkpt lat="44.90229" lon="4.26179">
        <ele>1131.7</ele>
        <time>2026-05-06T11:31:39Z</time>
      </trkpt>
      <trkpt lat="44.90228" lon="4.26176">
        <ele>1131.8</ele>
        <time>2026-05-06T11:31:44Z</time>
      </trkpt>
      <trkpt lat="44.90227" lon="4.26174">
        <ele>1131.8</ele>
        <time>2026-05-06T11:31:49Z</time>
      </trkpt>
      <trkpt lat="44.90227" lon="4.26174">
        <ele>1131.8</ele>
        <time>2026-05-06T11:31:54Z</time>
      </trkpt>
      <trkpt lat="44.90228" lon="4.2617">
        <ele>1131.9</ele>
        <time>2026-05-06T11:31:59Z</time>
      </trkpt>
      <trkpt lat="44.90231" lon="4.26163">
        <ele>1132.1</ele>
        <time>2026-05-06T11:32:04Z</time>
      </trkpt>
      <trkpt lat="44.90233" lon="4.26155">
        <ele>1132.3</ele>
        <time>2026-05-06T11:32:09Z</time>
      </trkpt>
      <trkpt lat="44.90235" lon="4.26149">
        <ele>1132.5</ele>
        <time>2026-05-06T11:32:14Z</time>
      </trkpt>
      <trkpt lat="44.90238" lon="4.26141">
        <ele>1132.7</ele>
        <time>2026-05-06T11:32:19Z</time>
      </trkpt>
      <trkpt lat="44.9024" lon="4.26133">
        <ele>1132.9</ele>
        <time>2026-05-06T11:32:24Z</time>
      </trkpt>
      <trkpt lat="44.90242" lon="4.26131">
        <ele>1132.9</ele>
        <time>2026-05-06T11:32:29Z</time>
      </trkpt>
      <trkpt lat="44.90241" lon="4.26131">
        <ele>1132.9</ele>
        <time>2026-05-06T11:32:34Z</time>
      </trkpt>
      <trkpt lat="44.90239" lon="4.26131">
        <ele>1132.9</ele>
        <time>2026-05-06T11:32:39Z</time>
      </trkpt>
      <trkpt lat="44.90233" lon="4.2613">
        <ele>1133</ele>
        <time>2026-05-06T11:32:44Z</time>
      </trkpt>
      <trkpt lat="44.9023" lon="4.26123">
        <ele>1133.2</ele>
        <time>2026-05-06T11:32:49Z</time>
      </trkpt>
      <trkpt lat="44.90227" lon="4.26116">
        <ele>1133.4</ele>
        <time>2026-05-06T11:32:54Z</time>
      </trkpt>
      <trkpt lat="44.90225" lon="4.26107">
        <ele>1133.6</ele>
        <time>2026-05-06T11:32:59Z</time>
      </trkpt>
      <trkpt lat="44.9022" lon="4.26102">
        <ele>1133.8</ele>
        <time>2026-05-06T11:33:04Z</time>
      </trkpt>
      <trkpt lat="44.90216" lon="4.26094">
        <ele>1134.1</ele>
        <time>2026-05-06T11:33:09Z</time>
      </trkpt>
      <trkpt lat="44.90212" lon="4.26086">
        <ele>1134.4</ele>
        <time>2026-05-06T11:33:14Z</time>
      </trkpt>
      <trkpt lat="44.90207" lon="4.26078">
        <ele>1134.7</ele>
        <time>2026-05-06T11:33:19Z</time>
      </trkpt>
      <trkpt lat="44.90203" lon="4.26072">
        <ele>1134.9</ele>
        <time>2026-05-06T11:33:24Z</time>
      </trkpt>
      <trkpt lat="44.90199" lon="4.26065">
        <ele>1135.1</ele>
        <time>2026-05-06T11:33:29Z</time>
      </trkpt>
      <trkpt lat="44.90195" lon="4.2606">
        <ele>1135.3</ele>
        <time>2026-05-06T11:33:34Z</time>
      </trkpt>
      <trkpt lat="44.90191" lon="4.26052">
        <ele>1135.6</ele>
        <time>2026-05-06T11:33:39Z</time>
      </trkpt>
      <trkpt lat="44.90186" lon="4.26045">
        <ele>1135.8</ele>
        <time>2026-05-06T11:33:44Z</time>
      </trkpt>
      <trkpt lat="44.90181" lon="4.26039">
        <ele>1136</ele>
        <time>2026-05-06T11:33:49Z</time>
      </trkpt>
      <trkpt lat="44.90176" lon="4.26031">
        <ele>1136.2</ele>
        <time>2026-05-06T11:33:54Z</time>
      </trkpt>
      <trkpt lat="44.90173" lon="4.26024">
        <ele>1136.4</ele>
        <time>2026-05-06T11:33:59Z</time>
      </trkpt>
      <trkpt lat="44.90167" lon="4.26016">
        <ele>1136.6</ele>
        <time>2026-05-06T11:34:04Z</time>
      </trkpt>
      <trkpt lat="44.90162" lon="4.26009">
        <ele>1136.9</ele>
        <time>2026-05-06T11:34:09Z</time>
      </trkpt>
      <trkpt lat="44.90158" lon="4.26002">
        <ele>1137.2</ele>
        <time>2026-05-06T11:34:14Z</time>
      </trkpt>
      <trkpt lat="44.90153" lon="4.25996">
        <ele>1137.4</ele>
        <time>2026-05-06T11:34:19Z</time>
      </trkpt>
      <trkpt lat="44.90148" lon="4.25989">
        <ele>1137.7</ele>
        <time>2026-05-06T11:34:24Z</time>
      </trkpt>
      <trkpt lat="44.90143" lon="4.25983">
        <ele>1138</ele>
        <time>2026-05-06T11:34:29Z</time>
      </trkpt>
      <trkpt lat="44.90138" lon="4.25978">
        <ele>1138.2</ele>
        <time>2026-05-06T11:34:34Z</time>
      </trkpt>
      <trkpt lat="44.90132" lon="4.25974">
        <ele>1138.5</ele>
        <time>2026-05-06T11:34:39Z</time>
      </trkpt>
      <trkpt lat="44.90126" lon="4.25969">
        <ele>1138.7</ele>
        <time>2026-05-06T11:34:44Z</time>
      </trkpt>
      <trkpt lat="44.90121" lon="4.25965">
        <ele>1138.9</ele>
        <time>2026-05-06T11:34:49Z</time>
      </trkpt>
      <trkpt lat="44.90115" lon="4.25959">
        <ele>1139.2</ele>
        <time>2026-05-06T11:34:54Z</time>
      </trkpt>
      <trkpt lat="44.90111" lon="4.25954">
        <ele>1139.4</ele>
        <time>2026-05-06T11:34:59Z</time>
      </trkpt>
      <trkpt lat="44.90106" lon="4.25948">
        <ele>1139.7</ele>
        <time>2026-05-06T11:35:04Z</time>
      </trkpt>
      <trkpt lat="44.901" lon="4.25942">
        <ele>1140</ele>
        <time>2026-05-06T11:35:09Z</time>
      </trkpt>
      <trkpt lat="44.90096" lon="4.25935">
        <ele>1140.3</ele>
        <time>2026-05-06T11:35:14Z</time>
      </trkpt>
      <trkpt lat="44.9009" lon="4.25929">
        <ele>1140.5</ele>
        <time>2026-05-06T11:35:19Z</time>
      </trkpt>
      <trkpt lat="44.90086" lon="4.25923">
        <ele>1140.8</ele>
        <time>2026-05-06T11:35:24Z</time>
      </trkpt>
      <trkpt lat="44.90084" lon="4.2592">
        <ele>1140.9</ele>
        <time>2026-05-06T11:35:29Z</time>
      </trkpt>
      <trkpt lat="44.9008" lon="4.25917">
        <ele>1141</ele>
        <time>2026-05-06T11:35:34Z</time>
      </trkpt>
      <trkpt lat="44.90076" lon="4.25912">
        <ele>1141.3</ele>
        <time>2026-05-06T11:35:39Z</time>
      </trkpt>
      <trkpt lat="44.90071" lon="4.25907">
        <ele>1141.5</ele>
        <time>2026-05-06T11:35:44Z</time>
      </trkpt>
      <trkpt lat="44.90064" lon="4.25901">
        <ele>1141.8</ele>
        <time>2026-05-06T11:35:49Z</time>
      </trkpt>
      <trkpt lat="44.90057" lon="4.25897">
        <ele>1142</ele>
        <time>2026-05-06T11:35:54Z</time>
      </trkpt>
      <trkpt lat="44.90051" lon="4.25892">
        <ele>1142.3</ele>
        <time>2026-05-06T11:35:59Z</time>
      </trkpt>
      <trkpt lat="44.90043" lon="4.25888">
        <ele>1142.5</ele>
        <time>2026-05-06T11:36:04Z</time>
      </trkpt>
      <trkpt lat="44.90038" lon="4.25884">
        <ele>1142.7</ele>
        <time>2026-05-06T11:36:09Z</time>
      </trkpt>
      <trkpt lat="44.90032" lon="4.25881">
        <ele>1142.9</ele>
        <time>2026-05-06T11:36:14Z</time>
      </trkpt>
      <trkpt lat="44.90026" lon="4.25878">
        <ele>1143.1</ele>
        <time>2026-05-06T11:36:19Z</time>
      </trkpt>
      <trkpt lat="44.90019" lon="4.25875">
        <ele>1143.3</ele>
        <time>2026-05-06T11:36:24Z</time>
      </trkpt>
      <trkpt lat="44.90012" lon="4.25872">
        <ele>1143.5</ele>
        <time>2026-05-06T11:36:29Z</time>
      </trkpt>
      <trkpt lat="44.90005" lon="4.25869">
        <ele>1143.7</ele>
        <time>2026-05-06T11:36:34Z</time>
      </trkpt>
      <trkpt lat="44.89998" lon="4.25866">
        <ele>1143.8</ele>
        <time>2026-05-06T11:36:39Z</time>
      </trkpt>
      <trkpt lat="44.89991" lon="4.25862">
        <ele>1143.8</ele>
        <time>2026-05-06T11:36:44Z</time>
      </trkpt>
      <trkpt lat="44.89984" lon="4.25858">
        <ele>1143.7</ele>
        <time>2026-05-06T11:36:49Z</time>
      </trkpt>
      <trkpt lat="44.89979" lon="4.25854">
        <ele>1143.8</ele>
        <time>2026-05-06T11:36:54Z</time>
      </trkpt>
      <trkpt lat="44.89975" lon="4.2585">
        <ele>1143.8</ele>
        <time>2026-05-06T11:36:59Z</time>
      </trkpt>
      <trkpt lat="44.89969" lon="4.25845">
        <ele>1143.8</ele>
        <time>2026-05-06T11:37:04Z</time>
      </trkpt>
      <trkpt lat="44.89963" lon="4.25841">
        <ele>1143.8</ele>
        <time>2026-05-06T11:37:09Z</time>
      </trkpt>
      <trkpt lat="44.89958" lon="4.25838">
        <ele>1143.8</ele>
        <time>2026-05-06T11:37:14Z</time>
      </trkpt>
      <trkpt lat="44.89952" lon="4.25834">
        <ele>1143.8</ele>
        <time>2026-05-06T11:37:19Z</time>
      </trkpt>
      <trkpt lat="44.89946" lon="4.25829">
        <ele>1143.8</ele>
        <time>2026-05-06T11:37:24Z</time>
      </trkpt>
      <trkpt lat="44.89941" lon="4.25824">
        <ele>1143.8</ele>
        <time>2026-05-06T11:37:29Z</time>
      </trkpt>
      <trkpt lat="44.89936" lon="4.25817">
        <ele>1143.9</ele>
        <time>2026-05-06T11:37:34Z</time>
      </trkpt>
      <trkpt lat="44.89931" lon="4.25812">
        <ele>1144</ele>
        <time>2026-05-06T11:37:39Z</time>
      </trkpt>
      <trkpt lat="44.89926" lon="4.25807">
        <ele>1144.1</ele>
        <time>2026-05-06T11:37:44Z</time>
      </trkpt>
      <trkpt lat="44.89922" lon="4.258">
        <ele>1144.3</ele>
        <time>2026-05-06T11:37:49Z</time>
      </trkpt>
      <trkpt lat="44.89918" lon="4.25792">
        <ele>1144.5</ele>
        <time>2026-05-06T11:37:54Z</time>
      </trkpt>
      <trkpt lat="44.89913" lon="4.25785">
        <ele>1144.8</ele>
        <time>2026-05-06T11:37:59Z</time>
      </trkpt>
      <trkpt lat="44.89909" lon="4.25777">
        <ele>1145.1</ele>
        <time>2026-05-06T11:38:04Z</time>
      </trkpt>
      <trkpt lat="44.89904" lon="4.25769">
        <ele>1145.5</ele>
        <time>2026-05-06T11:38:09Z</time>
      </trkpt>
      <trkpt lat="44.899" lon="4.25762">
        <ele>1145.8</ele>
        <time>2026-05-06T11:38:14Z</time>
      </trkpt>
      <trkpt lat="44.89896" lon="4.25754">
        <ele>1146.1</ele>
        <time>2026-05-06T11:38:19Z</time>
      </trkpt>
      <trkpt lat="44.89893" lon="4.25747">
        <ele>1146.4</ele>
        <time>2026-05-06T11:38:24Z</time>
      </trkpt>
      <trkpt lat="44.8989" lon="4.25738">
        <ele>1146.9</ele>
        <time>2026-05-06T11:38:29Z</time>
      </trkpt>
      <trkpt lat="44.89887" lon="4.25729">
        <ele>1147.5</ele>
        <time>2026-05-06T11:38:34Z</time>
      </trkpt>
      <trkpt lat="44.89884" lon="4.25721">
        <ele>1147.9</ele>
        <time>2026-05-06T11:38:39Z</time>
      </trkpt>
      <trkpt lat="44.89881" lon="4.25712">
        <ele>1148.4</ele>
        <time>2026-05-06T11:38:44Z</time>
      </trkpt>
      <trkpt lat="44.89879" lon="4.25705">
        <ele>1148.9</ele>
        <time>2026-05-06T11:38:49Z</time>
      </trkpt>
      <trkpt lat="44.89877" lon="4.25696">
        <ele>1149.4</ele>
        <time>2026-05-06T11:38:54Z</time>
      </trkpt>
      <trkpt lat="44.89875" lon="4.25688">
        <ele>1149.8</ele>
        <time>2026-05-06T11:38:59Z</time>
      </trkpt>
      <trkpt lat="44.89875" lon="4.2568">
        <ele>1150.3</ele>
        <time>2026-05-06T11:39:04Z</time>
      </trkpt>
      <trkpt lat="44.89874" lon="4.25671">
        <ele>1150.8</ele>
        <time>2026-05-06T11:39:09Z</time>
      </trkpt>
      <trkpt lat="44.89871" lon="4.25663">
        <ele>1151.4</ele>
        <time>2026-05-06T11:39:14Z</time>
      </trkpt>
      <trkpt lat="44.89868" lon="4.25657">
        <ele>1152</ele>
        <time>2026-05-06T11:39:19Z</time>
      </trkpt>
      <trkpt lat="44.89866" lon="4.25651">
        <ele>1152.6</ele>
        <time>2026-05-06T11:39:24Z</time>
      </trkpt>
      <trkpt lat="44.89863" lon="4.25644">
        <ele>1153.4</ele>
        <time>2026-05-06T11:39:29Z</time>
      </trkpt>
      <trkpt lat="44.8986" lon="4.25638">
        <ele>1154</ele>
        <time>2026-05-06T11:39:34Z</time>
      </trkpt>
      <trkpt lat="44.89856" lon="4.25631">
        <ele>1154.8</ele>
        <time>2026-05-06T11:39:39Z</time>
      </trkpt>
      <trkpt lat="44.89854" lon="4.25624">
        <ele>1155.5</ele>
        <time>2026-05-06T11:39:44Z</time>
      </trkpt>
      <trkpt lat="44.8985" lon="4.25616">
        <ele>1156.3</ele>
        <time>2026-05-06T11:39:49Z</time>
      </trkpt>
      <trkpt lat="44.89847" lon="4.25609">
        <ele>1157.1</ele>
        <time>2026-05-06T11:39:54Z</time>
      </trkpt>
      <trkpt lat="44.89847" lon="4.25608">
        <ele>1157.2</ele>
        <time>2026-05-06T11:39:59Z</time>
      </trkpt>
      <trkpt lat="44.89845" lon="4.25605">
        <ele>1157.5</ele>
        <time>2026-05-06T11:40:04Z</time>
      </trkpt>
      <trkpt lat="44.89842" lon="4.25599">
        <ele>1158.2</ele>
        <time>2026-05-06T11:40:09Z</time>
      </trkpt>
      <trkpt lat="44.8984" lon="4.25593">
        <ele>1158.8</ele>
        <time>2026-05-06T11:40:14Z</time>
      </trkpt>
      <trkpt lat="44.89838" lon="4.25587">
        <ele>1159.5</ele>
        <time>2026-05-06T11:40:19Z</time>
      </trkpt>
      <trkpt lat="44.89837" lon="4.25579">
        <ele>1160.3</ele>
        <time>2026-05-06T11:40:24Z</time>
      </trkpt>
      <trkpt lat="44.89835" lon="4.25575">
        <ele>1160.7</ele>
        <time>2026-05-06T11:40:29Z</time>
      </trkpt>
      <trkpt lat="44.89832" lon="4.25571">
        <ele>1161.3</ele>
        <time>2026-05-06T11:40:34Z</time>
      </trkpt>
      <trkpt lat="44.8983" lon="4.25566">
        <ele>1162</ele>
        <time>2026-05-06T11:40:39Z</time>
      </trkpt>
      <trkpt lat="44.89829" lon="4.25561">
        <ele>1162.6</ele>
        <time>2026-05-06T11:40:44Z</time>
      </trkpt>
      <trkpt lat="44.89827" lon="4.25555">
        <ele>1163.4</ele>
        <time>2026-05-06T11:40:49Z</time>
      </trkpt>
      <trkpt lat="44.89824" lon="4.2555">
        <ele>1164.3</ele>
        <time>2026-05-06T11:40:54Z</time>
      </trkpt>
      <trkpt lat="44.89822" lon="4.25546">
        <ele>1164.9</ele>
        <time>2026-05-06T11:40:59Z</time>
      </trkpt>
      <trkpt lat="44.8982" lon="4.2554">
        <ele>1165.7</ele>
        <time>2026-05-06T11:41:04Z</time>
      </trkpt>
      <trkpt lat="44.89817" lon="4.25534">
        <ele>1166.6</ele>
        <time>2026-05-06T11:41:09Z</time>
      </trkpt>
      <trkpt lat="44.89813" lon="4.2553">
        <ele>1167.5</ele>
        <time>2026-05-06T11:41:14Z</time>
      </trkpt>
      <trkpt lat="44.89811" lon="4.25524">
        <ele>1168.3</ele>
        <time>2026-05-06T11:41:19Z</time>
      </trkpt>
      <trkpt lat="44.89808" lon="4.25518">
        <ele>1169.2</ele>
        <time>2026-05-06T11:41:24Z</time>
      </trkpt>
      <trkpt lat="44.89805" lon="4.25514">
        <ele>1170</ele>
        <time>2026-05-06T11:41:29Z</time>
      </trkpt>
      <trkpt lat="44.89803" lon="4.25508">
        <ele>1170.8</ele>
        <time>2026-05-06T11:41:34Z</time>
      </trkpt>
      <trkpt lat="44.898" lon="4.25502">
        <ele>1171.8</ele>
        <time>2026-05-06T11:41:39Z</time>
      </trkpt>
      <trkpt lat="44.89796" lon="4.25498">
        <ele>1172.6</ele>
        <time>2026-05-06T11:41:44Z</time>
      </trkpt>
      <trkpt lat="44.89792" lon="4.25491">
        <ele>1173.3</ele>
        <time>2026-05-06T11:41:49Z</time>
      </trkpt>
      <trkpt lat="44.89787" lon="4.25485">
        <ele>1174.1</ele>
        <time>2026-05-06T11:41:54Z</time>
      </trkpt>
      <trkpt lat="44.89783" lon="4.25479">
        <ele>1174.7</ele>
        <time>2026-05-06T11:41:59Z</time>
      </trkpt>
      <trkpt lat="44.89779" lon="4.25471">
        <ele>1175.5</ele>
        <time>2026-05-06T11:42:04Z</time>
      </trkpt>
      <trkpt lat="44.89776" lon="4.25465">
        <ele>1176</ele>
        <time>2026-05-06T11:42:09Z</time>
      </trkpt>
      <trkpt lat="44.89774" lon="4.25458">
        <ele>1176.4</ele>
        <time>2026-05-06T11:42:14Z</time>
      </trkpt>
      <trkpt lat="44.89774" lon="4.25451">
        <ele>1176.6</ele>
        <time>2026-05-06T11:42:19Z</time>
      </trkpt>
      <trkpt lat="44.89771" lon="4.25444">
        <ele>1177.2</ele>
        <time>2026-05-06T11:42:24Z</time>
      </trkpt>
      <trkpt lat="44.89769" lon="4.25438">
        <ele>1177.5</ele>
        <time>2026-05-06T11:42:29Z</time>
      </trkpt>
      <trkpt lat="44.89767" lon="4.25432">
        <ele>1177.9</ele>
        <time>2026-05-06T11:42:34Z</time>
      </trkpt>
      <trkpt lat="44.89764" lon="4.25426">
        <ele>1178.4</ele>
        <time>2026-05-06T11:42:39Z</time>
      </trkpt>
      <trkpt lat="44.89761" lon="4.25419">
        <ele>1178.9</ele>
        <time>2026-05-06T11:42:44Z</time>
      </trkpt>
      <trkpt lat="44.89759" lon="4.25413">
        <ele>1179.2</ele>
        <time>2026-05-06T11:42:49Z</time>
      </trkpt>
      <trkpt lat="44.89757" lon="4.25406">
        <ele>1179.5</ele>
        <time>2026-05-06T11:42:54Z</time>
      </trkpt>
      <trkpt lat="44.89755" lon="4.254">
        <ele>1179.8</ele>
        <time>2026-05-06T11:42:59Z</time>
      </trkpt>
      <trkpt lat="44.89752" lon="4.25393">
        <ele>1180.1</ele>
        <time>2026-05-06T11:43:04Z</time>
      </trkpt>
      <trkpt lat="44.8975" lon="4.25388">
        <ele>1180.3</ele>
        <time>2026-05-06T11:43:09Z</time>
      </trkpt>
      <trkpt lat="44.89749" lon="4.25382">
        <ele>1180.6</ele>
        <time>2026-05-06T11:43:14Z</time>
      </trkpt>
      <trkpt lat="44.89747" lon="4.25375">
        <ele>1181</ele>
        <time>2026-05-06T11:43:19Z</time>
      </trkpt>
      <trkpt lat="44.89744" lon="4.2537">
        <ele>1181.6</ele>
        <time>2026-05-06T11:43:24Z</time>
      </trkpt>
      <trkpt lat="44.89742" lon="4.25362">
        <ele>1182</ele>
        <time>2026-05-06T11:43:29Z</time>
      </trkpt>
      <trkpt lat="44.89741" lon="4.25351">
        <ele>1182.3</ele>
        <time>2026-05-06T11:43:34Z</time>
      </trkpt>
      <trkpt lat="44.8974" lon="4.25343">
        <ele>1182.6</ele>
        <time>2026-05-06T11:43:39Z</time>
      </trkpt>
      <trkpt lat="44.89738" lon="4.25335">
        <ele>1183</ele>
        <time>2026-05-06T11:43:44Z</time>
      </trkpt>
      <trkpt lat="44.89736" lon="4.25326">
        <ele>1183.8</ele>
        <time>2026-05-06T11:43:49Z</time>
      </trkpt>
      <trkpt lat="44.89735" lon="4.25315">
        <ele>1184.6</ele>
        <time>2026-05-06T11:43:54Z</time>
      </trkpt>
      <trkpt lat="44.89732" lon="4.25307">
        <ele>1185.4</ele>
        <time>2026-05-06T11:43:59Z</time>
      </trkpt>
      <trkpt lat="44.89732" lon="4.25299">
        <ele>1185.9</ele>
        <time>2026-05-06T11:44:04Z</time>
      </trkpt>
      <trkpt lat="44.89731" lon="4.25292">
        <ele>1186.4</ele>
        <time>2026-05-06T11:44:09Z</time>
      </trkpt>
      <trkpt lat="44.89729" lon="4.25284">
        <ele>1187</ele>
        <time>2026-05-06T11:44:14Z</time>
      </trkpt>
      <trkpt lat="44.89726" lon="4.25278">
        <ele>1187.7</ele>
        <time>2026-05-06T11:44:19Z</time>
      </trkpt>
      <trkpt lat="44.89724" lon="4.25271">
        <ele>1188.2</ele>
        <time>2026-05-06T11:44:24Z</time>
      </trkpt>
      <trkpt lat="44.89723" lon="4.25265">
        <ele>1188.6</ele>
        <time>2026-05-06T11:44:29Z</time>
      </trkpt>
      <trkpt lat="44.89722" lon="4.25257">
        <ele>1189</ele>
        <time>2026-05-06T11:44:34Z</time>
      </trkpt>
      <trkpt lat="44.89721" lon="4.25248">
        <ele>1189.5</ele>
        <time>2026-05-06T11:44:39Z</time>
      </trkpt>
      <trkpt lat="44.89721" lon="4.25247">
        <ele>1189.5</ele>
        <time>2026-05-06T11:44:44Z</time>
      </trkpt>
      <trkpt lat="44.89719" lon="4.2524">
        <ele>1189.7</ele>
        <time>2026-05-06T11:44:49Z</time>
      </trkpt>
      <trkpt lat="44.89718" lon="4.25232">
        <ele>1189.9</ele>
        <time>2026-05-06T11:44:54Z</time>
      </trkpt>
      <trkpt lat="44.89715" lon="4.25225">
        <ele>1190.1</ele>
        <time>2026-05-06T11:44:59Z</time>
      </trkpt>
      <trkpt lat="44.8971" lon="4.25219">
        <ele>1190.4</ele>
        <time>2026-05-06T11:45:04Z</time>
      </trkpt>
      <trkpt lat="44.89707" lon="4.25213">
        <ele>1190.6</ele>
        <time>2026-05-06T11:45:09Z</time>
      </trkpt>
      <trkpt lat="44.89702" lon="4.25206">
        <ele>1190.7</ele>
        <time>2026-05-06T11:45:14Z</time>
      </trkpt>
      <trkpt lat="44.89698" lon="4.25198">
        <ele>1190.7</ele>
        <time>2026-05-06T11:45:19Z</time>
      </trkpt>
      <trkpt lat="44.89694" lon="4.2519">
        <ele>1190.7</ele>
        <time>2026-05-06T11:45:24Z</time>
      </trkpt>
      <trkpt lat="44.89692" lon="4.25181">
        <ele>1190.6</ele>
        <time>2026-05-06T11:45:29Z</time>
      </trkpt>
      <trkpt lat="44.89689" lon="4.25172">
        <ele>1190.4</ele>
        <time>2026-05-06T11:45:34Z</time>
      </trkpt>
      <trkpt lat="44.89688" lon="4.25162">
        <ele>1189.9</ele>
        <time>2026-05-06T11:45:39Z</time>
      </trkpt>
      <trkpt lat="44.89686" lon="4.25152">
        <ele>1189.3</ele>
        <time>2026-05-06T11:45:44Z</time>
      </trkpt>
      <trkpt lat="44.89685" lon="4.25144">
        <ele>1188.7</ele>
        <time>2026-05-06T11:45:49Z</time>
      </trkpt>
      <trkpt lat="44.89684" lon="4.25131">
        <ele>1187.8</ele>
        <time>2026-05-06T11:45:54Z</time>
      </trkpt>
      <trkpt lat="44.89682" lon="4.2512">
        <ele>1187</ele>
        <time>2026-05-06T11:45:59Z</time>
      </trkpt>
      <trkpt lat="44.8968" lon="4.25111">
        <ele>1186.4</ele>
        <time>2026-05-06T11:46:04Z</time>
      </trkpt>
      <trkpt lat="44.89678" lon="4.25102">
        <ele>1185.7</ele>
        <time>2026-05-06T11:46:09Z</time>
      </trkpt>
      <trkpt lat="44.89678" lon="4.25092">
        <ele>1185</ele>
        <time>2026-05-06T11:46:14Z</time>
      </trkpt>
      <trkpt lat="44.89676" lon="4.25082">
        <ele>1184.3</ele>
        <time>2026-05-06T11:46:19Z</time>
      </trkpt>
      <trkpt lat="44.89673" lon="4.2507">
        <ele>1184</ele>
        <time>2026-05-06T11:46:24Z</time>
      </trkpt>
      <trkpt lat="44.89671" lon="4.2506">
        <ele>1183.8</ele>
        <time>2026-05-06T11:46:29Z</time>
      </trkpt>
      <trkpt lat="44.8967" lon="4.25049">
        <ele>1183.7</ele>
        <time>2026-05-06T11:46:34Z</time>
      </trkpt>
      <trkpt lat="44.8967" lon="4.25039">
        <ele>1183.5</ele>
        <time>2026-05-06T11:46:39Z</time>
      </trkpt>
      <trkpt lat="44.89665" lon="4.2503">
        <ele>1183.5</ele>
        <time>2026-05-06T11:46:44Z</time>
      </trkpt>
      <trkpt lat="44.89664" lon="4.25023">
        <ele>1183.5</ele>
        <time>2026-05-06T11:46:49Z</time>
      </trkpt>
      <trkpt lat="44.89662" lon="4.25013">
        <ele>1183.5</ele>
        <time>2026-05-06T11:46:54Z</time>
      </trkpt>
      <trkpt lat="44.89663" lon="4.25004">
        <ele>1183.3</ele>
        <time>2026-05-06T11:46:59Z</time>
      </trkpt>
      <trkpt lat="44.89662" lon="4.24996">
        <ele>1183.2</ele>
        <time>2026-05-06T11:47:04Z</time>
      </trkpt>
      <trkpt lat="44.8966" lon="4.24988">
        <ele>1183.2</ele>
        <time>2026-05-06T11:47:09Z</time>
      </trkpt>
      <trkpt lat="44.89656" lon="4.24979">
        <ele>1183.3</ele>
        <time>2026-05-06T11:47:14Z</time>
      </trkpt>
      <trkpt lat="44.89653" lon="4.24968">
        <ele>1183.2</ele>
        <time>2026-05-06T11:47:19Z</time>
      </trkpt>
      <trkpt lat="44.89653" lon="4.24964">
        <ele>1183.2</ele>
        <time>2026-05-06T11:47:24Z</time>
      </trkpt>
      <trkpt lat="44.89653" lon="4.24963">
        <ele>1183.2</ele>
        <time>2026-05-06T11:47:29Z</time>
      </trkpt>
      <trkpt lat="44.89649" lon="4.24955">
        <ele>1183.2</ele>
        <time>2026-05-06T11:47:34Z</time>
      </trkpt>
      <trkpt lat="44.89645" lon="4.24946">
        <ele>1183.1</ele>
        <time>2026-05-06T11:47:39Z</time>
      </trkpt>
      <trkpt lat="44.89641" lon="4.24937">
        <ele>1183.1</ele>
        <time>2026-05-06T11:47:44Z</time>
      </trkpt>
      <trkpt lat="44.89636" lon="4.24928">
        <ele>1183</ele>
        <time>2026-05-06T11:47:49Z</time>
      </trkpt>
      <trkpt lat="44.89634" lon="4.24918">
        <ele>1182.8</ele>
        <time>2026-05-06T11:47:54Z</time>
      </trkpt>
      <trkpt lat="44.8963" lon="4.24909">
        <ele>1182.4</ele>
        <time>2026-05-06T11:47:59Z</time>
      </trkpt>
      <trkpt lat="44.89628" lon="4.24899">
        <ele>1181.9</ele>
        <time>2026-05-06T11:48:04Z</time>
      </trkpt>
      <trkpt lat="44.89626" lon="4.24889">
        <ele>1181.3</ele>
        <time>2026-05-06T11:48:09Z</time>
      </trkpt>
      <trkpt lat="44.89625" lon="4.24878">
        <ele>1180.7</ele>
        <time>2026-05-06T11:48:14Z</time>
      </trkpt>
      <trkpt lat="44.89625" lon="4.24869">
        <ele>1180.1</ele>
        <time>2026-05-06T11:48:19Z</time>
      </trkpt>
      <trkpt lat="44.89624" lon="4.24864">
        <ele>1179.8</ele>
        <time>2026-05-06T11:48:24Z</time>
      </trkpt>
      <trkpt lat="44.89625" lon="4.24861">
        <ele>1179.7</ele>
        <time>2026-05-06T11:48:29Z</time>
      </trkpt>
      <trkpt lat="44.89625" lon="4.24855">
        <ele>1179.3</ele>
        <time>2026-05-06T11:48:34Z</time>
      </trkpt>
      <trkpt lat="44.89624" lon="4.24853">
        <ele>1179.2</ele>
        <time>2026-05-06T11:48:39Z</time>
      </trkpt>
      <trkpt lat="44.89624" lon="4.24853">
        <ele>1179.2</ele>
        <time>2026-05-06T11:48:44Z</time>
      </trkpt>
      <trkpt lat="44.89624" lon="4.2485">
        <ele>1179</ele>
        <time>2026-05-06T11:48:49Z</time>
      </trkpt>
      <trkpt lat="44.89628" lon="4.24841">
        <ele>1178.5</ele>
        <time>2026-05-06T11:48:54Z</time>
      </trkpt>
      <trkpt lat="44.8963" lon="4.24831">
        <ele>1178</ele>
        <time>2026-05-06T11:48:59Z</time>
      </trkpt>
      <trkpt lat="44.89632" lon="4.24822">
        <ele>1177.6</ele>
        <time>2026-05-06T11:49:04Z</time>
      </trkpt>
      <trkpt lat="44.89636" lon="4.24813">
        <ele>1177.2</ele>
        <time>2026-05-06T11:49:09Z</time>
      </trkpt>
      <trkpt lat="44.8964" lon="4.24802">
        <ele>1176.7</ele>
        <time>2026-05-06T11:49:14Z</time>
      </trkpt>
      <trkpt lat="44.89643" lon="4.24793">
        <ele>1176.3</ele>
        <time>2026-05-06T11:49:19Z</time>
      </trkpt>
      <trkpt lat="44.89646" lon="4.24783">
        <ele>1175.8</ele>
        <time>2026-05-06T11:49:24Z</time>
      </trkpt>
      <trkpt lat="44.89649" lon="4.24774">
        <ele>1175.3</ele>
        <time>2026-05-06T11:49:29Z</time>
      </trkpt>
      <trkpt lat="44.89652" lon="4.24764">
        <ele>1174.8</ele>
        <time>2026-05-06T11:49:34Z</time>
      </trkpt>
      <trkpt lat="44.89656" lon="4.24754">
        <ele>1174.2</ele>
        <time>2026-05-06T11:49:39Z</time>
      </trkpt>
      <trkpt lat="44.8966" lon="4.24745">
        <ele>1173.5</ele>
        <time>2026-05-06T11:49:44Z</time>
      </trkpt>
      <trkpt lat="44.89663" lon="4.24736">
        <ele>1172.5</ele>
        <time>2026-05-06T11:49:49Z</time>
      </trkpt>
      <trkpt lat="44.89667" lon="4.24729">
        <ele>1171.7</ele>
        <time>2026-05-06T11:49:54Z</time>
      </trkpt>
      <trkpt lat="44.89669" lon="4.24724">
        <ele>1171.3</ele>
        <time>2026-05-06T11:49:59Z</time>
      </trkpt>
      <trkpt lat="44.89669" lon="4.24724">
        <ele>1171.3</ele>
        <time>2026-05-06T11:50:04Z</time>
      </trkpt>
      <trkpt lat="44.89668" lon="4.24728">
        <ele>1171.7</ele>
        <time>2026-05-06T11:50:09Z</time>
      </trkpt>
      <trkpt lat="44.89665" lon="4.2473">
        <ele>1171.8</ele>
        <time>2026-05-06T11:50:14Z</time>
      </trkpt>
      <trkpt lat="44.89662" lon="4.24728">
        <ele>1171.6</ele>
        <time>2026-05-06T11:50:19Z</time>
      </trkpt>
      <trkpt lat="44.89661" lon="4.24728">
        <ele>1171.6</ele>
        <time>2026-05-06T11:50:24Z</time>
      </trkpt>
      <trkpt lat="44.8966" lon="4.24728">
        <ele>1171.6</ele>
        <time>2026-05-06T11:50:29Z</time>
      </trkpt>
      <trkpt lat="44.89657" lon="4.24729">
        <ele>1171.7</ele>
        <time>2026-05-06T11:50:34Z</time>
      </trkpt>
      <trkpt lat="44.89651" lon="4.24732">
        <ele>1172</ele>
        <time>2026-05-06T11:50:39Z</time>
      </trkpt>
      <trkpt lat="44.89645" lon="4.24729">
        <ele>1171.6</ele>
        <time>2026-05-06T11:50:44Z</time>
      </trkpt>
      <trkpt lat="44.89641" lon="4.24726">
        <ele>1171.2</ele>
        <time>2026-05-06T11:50:49Z</time>
      </trkpt>
      <trkpt lat="44.89639" lon="4.24724">
        <ele>1171</ele>
        <time>2026-05-06T11:50:54Z</time>
      </trkpt>
      <trkpt lat="44.89641" lon="4.24723">
        <ele>1170.9</ele>
        <time>2026-05-06T11:50:59Z</time>
      </trkpt>
      <trkpt lat="44.89641" lon="4.24723">
        <ele>1170.9</ele>
        <time>2026-05-06T11:51:04Z</time>
      </trkpt>
      <trkpt lat="44.89643" lon="4.24722">
        <ele>1170.8</ele>
        <time>2026-05-06T11:51:09Z</time>
      </trkpt>
      <trkpt lat="44.89643" lon="4.24722">
        <ele>1170.8</ele>
        <time>2026-05-06T11:51:14Z</time>
      </trkpt>
      <trkpt lat="44.89643" lon="4.24722">
        <ele>1170.8</ele>
        <time>2026-05-06T11:51:19Z</time>
      </trkpt>
      <trkpt lat="44.89649" lon="4.24727">
        <ele>1171.4</ele>
        <time>2026-05-06T11:51:24Z</time>
      </trkpt>
      <trkpt lat="44.89655" lon="4.24728">
        <ele>1171.6</ele>
        <time>2026-05-06T11:51:29Z</time>
      </trkpt>
      <trkpt lat="44.89661" lon="4.2473">
        <ele>1171.8</ele>
        <time>2026-05-06T11:51:34Z</time>
      </trkpt>
      <trkpt lat="44.89665" lon="4.24732">
        <ele>1172</ele>
        <time>2026-05-06T11:51:39Z</time>
      </trkpt>
      <trkpt lat="44.89669" lon="4.24727">
        <ele>1171.6</ele>
        <time>2026-05-06T11:51:44Z</time>
      </trkpt>
      <trkpt lat="44.89672" lon="4.24721">
        <ele>1171.1</ele>
        <time>2026-05-06T11:51:49Z</time>
      </trkpt>
      <trkpt lat="44.89672" lon="4.24721">
        <ele>1171.1</ele>
        <time>2026-05-06T11:51:54Z</time>
      </trkpt>
      <trkpt lat="44.89672" lon="4.24721">
        <ele>1171.1</ele>
        <time>2026-05-06T11:51:59Z</time>
      </trkpt>
      <trkpt lat="44.89672" lon="4.24721">
        <ele>1171.1</ele>
        <time>2026-05-06T11:52:04Z</time>
      </trkpt>
      <trkpt lat="44.89672" lon="4.24721">
        <ele>1171.1</ele>
        <time>2026-05-06T11:52:09Z</time>
      </trkpt>
      <trkpt lat="44.89672" lon="4.24721">
        <ele>1171.1</ele>
        <time>2026-05-06T11:52:14Z</time>
      </trkpt>
      <trkpt lat="44.89672" lon="4.24721">
        <ele>1171.1</ele>
        <time>2026-05-06T11:52:19Z</time>
      </trkpt>
      <trkpt lat="44.89672" lon="4.24721">
        <ele>1171.1</ele>
        <time>2026-05-06T11:52:24Z</time>
      </trkpt>
      <trkpt lat="44.89672" lon="4.24721">
        <ele>1171.1</ele>
        <time>2026-05-06T11:52:29Z</time>
      </trkpt>
      <trkpt lat="44.89672" lon="4.24721">
        <ele>1171.1</ele>
        <time>2026-05-06T11:52:34Z</time>
      </trkpt>
      <trkpt lat="44.89672" lon="4.24721">
        <ele>1171.1</ele>
        <time>2026-05-06T11:52:39Z</time>
      </trkpt>
      <trkpt lat="44.89672" lon="4.24721">
        <ele>1171.1</ele>
        <time>2026-05-06T11:52:44Z</time>
      </trkpt>
      <trkpt lat="44.89672" lon="4.24721">
        <ele>1171.1</ele>
        <time>2026-05-06T11:52:49Z</time>
      </trkpt>
      <trkpt lat="44.89672" lon="4.24721">
        <ele>1171.1</ele>
        <time>2026-05-06T11:52:54Z</time>
      </trkpt>
      <trkpt lat="44.89672" lon="4.24721">
        <ele>1171.1</ele>
        <time>2026-05-06T11:52:59Z</time>
      </trkpt>
      <trkpt lat="44.89672" lon="4.24721">
        <ele>1171.1</ele>
        <time>2026-05-06T11:53:04Z</time>
      </trkpt>
      <trkpt lat="44.89672" lon="4.24721">
        <ele>1171.1</ele>
        <time>2026-05-06T11:53:09Z</time>
      </trkpt>
      <trkpt lat="44.89672" lon="4.24721">
        <ele>1171.1</ele>
        <time>2026-05-06T11:53:14Z</time>
      </trkpt>
      <trkpt lat="44.89672" lon="4.24721">
        <ele>1171.1</ele>
        <time>2026-05-06T11:53:19Z</time>
      </trkpt>
      <trkpt lat="44.89672" lon="4.24721">
        <ele>1171.1</ele>
        <time>2026-05-06T11:53:24Z</time>
      </trkpt>
      <trkpt lat="44.89672" lon="4.24721">
        <ele>1171.1</ele>
        <time>2026-05-06T11:53:29Z</time>
      </trkpt>
      <trkpt lat="44.89672" lon="4.24721">
        <ele>1171.1</ele>
        <time>2026-05-06T11:53:34Z</time>
      </trkpt>
      <trkpt lat="44.89672" lon="4.24721">
        <ele>1171.1</ele>
        <time>2026-05-06T11:53:39Z</time>
      </trkpt>
      <trkpt lat="44.89672" lon="4.24721">
        <ele>1171.1</ele>
        <time>2026-05-06T11:53:44Z</time>
      </trkpt>
      <trkpt lat="44.89672" lon="4.24721">
        <ele>1171.1</ele>
        <time>2026-05-06T11:53:49Z</time>
      </trkpt>
      <trkpt lat="44.89672" lon="4.24721">
        <ele>1171.1</ele>
        <time>2026-05-06T11:53:54Z</time>
      </trkpt>
      <trkpt lat="44.89672" lon="4.24721">
        <ele>1171.1</ele>
        <time>2026-05-06T11:53:59Z</time>
      </trkpt>
      <trkpt lat="44.89672" lon="4.24721">
        <ele>1171.1</ele>
        <time>2026-05-06T11:54:04Z</time>
      </trkpt>
      <trkpt lat="44.89672" lon="4.24721">
        <ele>1171.1</ele>
        <time>2026-05-06T11:54:09Z</time>
      </trkpt>
      <trkpt lat="44.89672" lon="4.24721">
        <ele>1171.1</ele>
        <time>2026-05-06T11:54:14Z</time>
      </trkpt>
      <trkpt lat="44.89672" lon="4.24721">
        <ele>1171.1</ele>
        <time>2026-05-06T11:54:19Z</time>
      </trkpt>
      <trkpt lat="44.89672" lon="4.24721">
        <ele>1171.1</ele>
        <time>2026-05-06T11:54:24Z</time>
      </trkpt>
      <trkpt lat="44.89672" lon="4.24721">
        <ele>1171.1</ele>
        <time>2026-05-06T11:54:29Z</time>
      </trkpt>
      <trkpt lat="44.89672" lon="4.24721">
        <ele>1171.1</ele>
        <time>2026-05-06T11:54:34Z</time>
      </trkpt>
      <trkpt lat="44.89672" lon="4.24721">
        <ele>1171.1</ele>
        <time>2026-05-06T11:54:39Z</time>
      </trkpt>
      <trkpt lat="44.89672" lon="4.24721">
        <ele>1171.1</ele>
        <time>2026-05-06T11:54:44Z</time>
      </trkpt>
      <trkpt lat="44.89672" lon="4.24721">
        <ele>1171.1</ele>
        <time>2026-05-06T11:54:49Z</time>
      </trkpt>
      <trkpt lat="44.89672" lon="4.24721">
        <ele>1171.1</ele>
        <time>2026-05-06T11:54:54Z</time>
      </trkpt>
      <trkpt lat="44.89672" lon="4.24721">
        <ele>1171.1</ele>
        <time>2026-05-06T11:54:59Z</time>
      </trkpt>
      <trkpt lat="44.89672" lon="4.24721">
        <ele>1171.1</ele>
        <time>2026-05-06T11:55:04Z</time>
      </trkpt>
      <trkpt lat="44.89672" lon="4.24721">
        <ele>1171.1</ele>
        <time>2026-05-06T11:55:09Z</time>
      </trkpt>
      <trkpt lat="44.89672" lon="4.24721">
        <ele>1171.1</ele>
        <time>2026-05-06T11:55:14Z</time>
      </trkpt>
      <trkpt lat="44.89672" lon="4.24721">
        <ele>1171.1</ele>
        <time>2026-05-06T11:55:19Z</time>
      </trkpt>
      <trkpt lat="44.89672" lon="4.24721">
        <ele>1171.1</ele>
        <time>2026-05-06T11:55:24Z</time>
      </trkpt>
      <trkpt lat="44.89672" lon="4.24721">
        <ele>1171.1</ele>
        <time>2026-05-06T11:55:29Z</time>
      </trkpt>
      <trkpt lat="44.89672" lon="4.24721">
        <ele>1171.1</ele>
        <time>2026-05-06T11:55:34Z</time>
      </trkpt>
      <trkpt lat="44.89672" lon="4.24721">
        <ele>1171.1</ele>
        <time>2026-05-06T11:55:39Z</time>
      </trkpt>
      <trkpt lat="44.89672" lon="4.24721">
        <ele>1171.1</ele>
        <time>2026-05-06T11:55:44Z</time>
      </trkpt>
      <trkpt lat="44.89672" lon="4.24721">
        <ele>1171.1</ele>
        <time>2026-05-06T11:55:49Z</time>
      </trkpt>
      <trkpt lat="44.89672" lon="4.24721">
        <ele>1171.1</ele>
        <time>2026-05-06T11:55:54Z</time>
      </trkpt>
      <trkpt lat="44.89672" lon="4.24721">
        <ele>1171.1</ele>
        <time>2026-05-06T11:55:59Z</time>
      </trkpt>
      <trkpt lat="44.89672" lon="4.24721">
        <ele>1171.1</ele>
        <time>2026-05-06T11:56:04Z</time>
      </trkpt>
      <trkpt lat="44.89672" lon="4.24721">
        <ele>1171.1</ele>
        <time>2026-05-06T11:56:09Z</time>
      </trkpt>
      <trkpt lat="44.89672" lon="4.24721">
        <ele>1171.1</ele>
        <time>2026-05-06T11:56:14Z</time>
      </trkpt>
      <trkpt lat="44.89672" lon="4.24721">
        <ele>1171.1</ele>
        <time>2026-05-06T11:56:19Z</time>
      </trkpt>
      <trkpt lat="44.89672" lon="4.24721">
        <ele>1171.1</ele>
        <time>2026-05-06T11:56:24Z</time>
      </trkpt>
      <trkpt lat="44.89672" lon="4.24721">
        <ele>1171.1</ele>
        <time>2026-05-06T11:56:29Z</time>
      </trkpt>
      <trkpt lat="44.89672" lon="4.24721">
        <ele>1171.1</ele>
        <time>2026-05-06T11:56:34Z</time>
      </trkpt>
      <trkpt lat="44.89672" lon="4.24721">
        <ele>1171.1</ele>
        <time>2026-05-06T11:56:39Z</time>
      </trkpt>
      <trkpt lat="44.89672" lon="4.24721">
        <ele>1171.1</ele>
        <time>2026-05-06T11:56:44Z</time>
      </trkpt>
      <trkpt lat="44.89672" lon="4.24721">
        <ele>1171.1</ele>
        <time>2026-05-06T11:56:49Z</time>
      </trkpt>
      <trkpt lat="44.89672" lon="4.24721">
        <ele>1171.1</ele>
        <time>2026-05-06T11:56:54Z</time>
      </trkpt>
      <trkpt lat="44.89672" lon="4.24721">
        <ele>1171.1</ele>
        <time>2026-05-06T11:56:59Z</time>
      </trkpt>
      <trkpt lat="44.89672" lon="4.24721">
        <ele>1171.1</ele>
        <time>2026-05-06T11:57:04Z</time>
      </trkpt>
      <trkpt lat="44.89672" lon="4.24721">
        <ele>1171.1</ele>
        <time>2026-05-06T11:57:09Z</time>
      </trkpt>
      <trkpt lat="44.89672" lon="4.24721">
        <ele>1171.1</ele>
        <time>2026-05-06T11:57:14Z</time>
      </trkpt>
      <trkpt lat="44.89672" lon="4.24721">
        <ele>1171.1</ele>
        <time>2026-05-06T11:57:19Z</time>
      </trkpt>
      <trkpt lat="44.89672" lon="4.24721">
        <ele>1171.1</ele>
        <time>2026-05-06T11:57:24Z</time>
      </trkpt>
      <trkpt lat="44.89672" lon="4.24721">
        <ele>1171.1</ele>
        <time>2026-05-06T11:57:29Z</time>
      </trkpt>
      <trkpt lat="44.89672" lon="4.24721">
        <ele>1171.1</ele>
        <time>2026-05-06T11:57:34Z</time>
      </trkpt>
      <trkpt lat="44.89672" lon="4.24721">
        <ele>1171.1</ele>
        <time>2026-05-06T11:57:39Z</time>
      </trkpt>
      <trkpt lat="44.89672" lon="4.24721">
        <ele>1171.1</ele>
        <time>2026-05-06T11:57:44Z</time>
      </trkpt>
      <trkpt lat="44.89672" lon="4.24721">
        <ele>1171.1</ele>
        <time>2026-05-06T11:57:49Z</time>
      </trkpt>
      <trkpt lat="44.89674" lon="4.24719">
        <ele>1170.9</ele>
        <time>2026-05-06T11:57:54Z</time>
      </trkpt>
      <trkpt lat="44.89681" lon="4.24717">
        <ele>1171</ele>
        <time>2026-05-06T11:57:59Z</time>
      </trkpt>
      <trkpt lat="44.89687" lon="4.24712">
        <ele>1170.6</ele>
        <time>2026-05-06T11:58:04Z</time>
      </trkpt>
      <trkpt lat="44.89692" lon="4.24706">
        <ele>1170.2</ele>
        <time>2026-05-06T11:58:09Z</time>
      </trkpt>
      <trkpt lat="44.89696" lon="4.24706">
        <ele>1170.3</ele>
        <time>2026-05-06T11:58:14Z</time>
      </trkpt>
      <trkpt lat="44.89696" lon="4.24706">
        <ele>1170.3</ele>
        <time>2026-05-06T11:58:19Z</time>
      </trkpt>
      <trkpt lat="44.89696" lon="4.24706">
        <ele>1170.3</ele>
        <time>2026-05-06T11:58:24Z</time>
      </trkpt>
      <trkpt lat="44.89696" lon="4.24706">
        <ele>1170.3</ele>
        <time>2026-05-06T11:58:29Z</time>
      </trkpt>
      <trkpt lat="44.89697" lon="4.24702">
        <ele>1169.9</ele>
        <time>2026-05-06T11:58:34Z</time>
      </trkpt>
      <trkpt lat="44.89702" lon="4.24695">
        <ele>1169.3</ele>
        <time>2026-05-06T11:58:39Z</time>
      </trkpt>
      <trkpt lat="44.89709" lon="4.24693">
        <ele>1169.4</ele>
        <time>2026-05-06T11:58:44Z</time>
      </trkpt>
      <trkpt lat="44.89716" lon="4.24689">
        <ele>1169.2</ele>
        <time>2026-05-06T11:58:49Z</time>
      </trkpt>
      <trkpt lat="44.89723" lon="4.24684">
        <ele>1168.9</ele>
        <time>2026-05-06T11:58:54Z</time>
      </trkpt>
      <trkpt lat="44.89729" lon="4.2468">
        <ele>1168.7</ele>
        <time>2026-05-06T11:58:59Z</time>
      </trkpt>
      <trkpt lat="44.89737" lon="4.24678">
        <ele>1168.8</ele>
        <time>2026-05-06T11:59:04Z</time>
      </trkpt>
      <trkpt lat="44.89743" lon="4.24673">
        <ele>1168.4</ele>
        <time>2026-05-06T11:59:09Z</time>
      </trkpt>
      <trkpt lat="44.89749" lon="4.24668">
        <ele>1168.1</ele>
        <time>2026-05-06T11:59:14Z</time>
      </trkpt>
      <trkpt lat="44.89755" lon="4.24664">
        <ele>1167.9</ele>
        <time>2026-05-06T11:59:19Z</time>
      </trkpt>
      <trkpt lat="44.89761" lon="4.24657">
        <ele>1167</ele>
        <time>2026-05-06T11:59:24Z</time>
      </trkpt>
      <trkpt lat="44.8977" lon="4.24652">
        <ele>1166.6</ele>
        <time>2026-05-06T11:59:29Z</time>
      </trkpt>
      <trkpt lat="44.89777" lon="4.24647">
        <ele>1166.1</ele>
        <time>2026-05-06T11:59:34Z</time>
      </trkpt>
      <trkpt lat="44.89783" lon="4.24644">
        <ele>1165.9</ele>
        <time>2026-05-06T11:59:39Z</time>
      </trkpt>
      <trkpt lat="44.8979" lon="4.24643">
        <ele>1166.1</ele>
        <time>2026-05-06T11:59:44Z</time>
      </trkpt>
      <trkpt lat="44.89798" lon="4.24641">
        <ele>1166.1</ele>
        <time>2026-05-06T11:59:49Z</time>
      </trkpt>
      <trkpt lat="44.89805" lon="4.24639">
        <ele>1166.1</ele>
        <time>2026-05-06T11:59:54Z</time>
      </trkpt>
      <trkpt lat="44.89812" lon="4.24634">
        <ele>1165.4</ele>
        <time>2026-05-06T11:59:59Z</time>
      </trkpt>
      <trkpt lat="44.89819" lon="4.24629">
        <ele>1164.7</ele>
        <time>2026-05-06T12:00:04Z</time>
      </trkpt>
      <trkpt lat="44.89821" lon="4.24627">
        <ele>1164.3</ele>
        <time>2026-05-06T12:00:09Z</time>
      </trkpt>
      <trkpt lat="44.8982" lon="4.24627">
        <ele>1164.3</ele>
        <time>2026-05-06T12:00:14Z</time>
      </trkpt>
      <trkpt lat="44.8982" lon="4.24626">
        <ele>1164.1</ele>
        <time>2026-05-06T12:00:19Z</time>
      </trkpt>
      <trkpt lat="44.8982" lon="4.24626">
        <ele>1164.1</ele>
        <time>2026-05-06T12:00:24Z</time>
      </trkpt>
      <trkpt lat="44.89828" lon="4.24619">
        <ele>1162.9</ele>
        <time>2026-05-06T12:00:29Z</time>
      </trkpt>
      <trkpt lat="44.89835" lon="4.24614">
        <ele>1162</ele>
        <time>2026-05-06T12:00:34Z</time>
      </trkpt>
      <trkpt lat="44.89839" lon="4.24609">
        <ele>1161.1</ele>
        <time>2026-05-06T12:00:39Z</time>
      </trkpt>
      <trkpt lat="44.89843" lon="4.24602">
        <ele>1159.6</ele>
        <time>2026-05-06T12:00:44Z</time>
      </trkpt>
      <trkpt lat="44.8985" lon="4.24595">
        <ele>1158.4</ele>
        <time>2026-05-06T12:00:49Z</time>
      </trkpt>
      <trkpt lat="44.89854" lon="4.24587">
        <ele>1156.8</ele>
        <time>2026-05-06T12:00:54Z</time>
      </trkpt>
      <trkpt lat="44.8986" lon="4.24579">
        <ele>1155.7</ele>
        <time>2026-05-06T12:00:59Z</time>
      </trkpt>
      <trkpt lat="44.89865" lon="4.24572">
        <ele>1155.1</ele>
        <time>2026-05-06T12:01:04Z</time>
      </trkpt>
      <trkpt lat="44.89869" lon="4.24567">
        <ele>1154.6</ele>
        <time>2026-05-06T12:01:09Z</time>
      </trkpt>
      <trkpt lat="44.89869" lon="4.24567">
        <ele>1154.6</ele>
        <time>2026-05-06T12:01:14Z</time>
      </trkpt>
      <trkpt lat="44.89871" lon="4.24564">
        <ele>1154.4</ele>
        <time>2026-05-06T12:01:19Z</time>
      </trkpt>
      <trkpt lat="44.89868" lon="4.24569">
        <ele>1154.8</ele>
        <time>2026-05-06T12:01:24Z</time>
      </trkpt>
      <trkpt lat="44.89864" lon="4.24575">
        <ele>1155.4</ele>
        <time>2026-05-06T12:01:29Z</time>
      </trkpt>
      <trkpt lat="44.8986" lon="4.24581">
        <ele>1156</ele>
        <time>2026-05-06T12:01:34Z</time>
      </trkpt>
      <trkpt lat="44.89855" lon="4.24587">
        <ele>1156.8</ele>
        <time>2026-05-06T12:01:39Z</time>
      </trkpt>
      <trkpt lat="44.89851" lon="4.24595">
        <ele>1158.4</ele>
        <time>2026-05-06T12:01:44Z</time>
      </trkpt>
      <trkpt lat="44.89846" lon="4.246">
        <ele>1159.3</ele>
        <time>2026-05-06T12:01:49Z</time>
      </trkpt>
      <trkpt lat="44.8984" lon="4.24605">
        <ele>1160.2</ele>
        <time>2026-05-06T12:01:54Z</time>
      </trkpt>
      <trkpt lat="44.89836" lon="4.2461">
        <ele>1161.2</ele>
        <time>2026-05-06T12:01:59Z</time>
      </trkpt>
      <trkpt lat="44.8983" lon="4.24615">
        <ele>1162.1</ele>
        <time>2026-05-06T12:02:04Z</time>
      </trkpt>
      <trkpt lat="44.89826" lon="4.2462">
        <ele>1163</ele>
        <time>2026-05-06T12:02:09Z</time>
      </trkpt>
      <trkpt lat="44.89821" lon="4.24625">
        <ele>1163.9</ele>
        <time>2026-05-06T12:02:14Z</time>
      </trkpt>
      <trkpt lat="44.89815" lon="4.24629">
        <ele>1164.5</ele>
        <time>2026-05-06T12:02:19Z</time>
      </trkpt>
      <trkpt lat="44.8981" lon="4.24634">
        <ele>1165.3</ele>
        <time>2026-05-06T12:02:24Z</time>
      </trkpt>
      <trkpt lat="44.89804" lon="4.24636">
        <ele>1165.4</ele>
        <time>2026-05-06T12:02:29Z</time>
      </trkpt>
      <trkpt lat="44.89797" lon="4.24638">
        <ele>1165.4</ele>
        <time>2026-05-06T12:02:34Z</time>
      </trkpt>
      <trkpt lat="44.8979" lon="4.24638">
        <ele>1165.1</ele>
        <time>2026-05-06T12:02:39Z</time>
      </trkpt>
      <trkpt lat="44.89784" lon="4.24641">
        <ele>1165.3</ele>
        <time>2026-05-06T12:02:44Z</time>
      </trkpt>
      <trkpt lat="44.89778" lon="4.24644">
        <ele>1165.6</ele>
        <time>2026-05-06T12:02:49Z</time>
      </trkpt>
      <trkpt lat="44.89772" lon="4.24645">
        <ele>1165.4</ele>
        <time>2026-05-06T12:02:54Z</time>
      </trkpt>
      <trkpt lat="44.89767" lon="4.2465">
        <ele>1166.1</ele>
        <time>2026-05-06T12:02:59Z</time>
      </trkpt>
      <trkpt lat="44.89762" lon="4.24653">
        <ele>1166.3</ele>
        <time>2026-05-06T12:03:04Z</time>
      </trkpt>
      <trkpt lat="44.89757" lon="4.24659">
        <ele>1167.1</ele>
        <time>2026-05-06T12:03:09Z</time>
      </trkpt>
      <trkpt lat="44.89751" lon="4.24662">
        <ele>1167.2</ele>
        <time>2026-05-06T12:03:14Z</time>
      </trkpt>
      <trkpt lat="44.89747" lon="4.24666">
        <ele>1167.8</ele>
        <time>2026-05-06T12:03:19Z</time>
      </trkpt>
      <trkpt lat="44.89742" lon="4.24669">
        <ele>1168</ele>
        <time>2026-05-06T12:03:24Z</time>
      </trkpt>
      <trkpt lat="44.89742" lon="4.24667">
        <ele>1167.7</ele>
        <time>2026-05-06T12:03:29Z</time>
      </trkpt>
      <trkpt lat="44.89742" lon="4.24664">
        <ele>1167.2</ele>
        <time>2026-05-06T12:03:34Z</time>
      </trkpt>
      <trkpt lat="44.89742" lon="4.24664">
        <ele>1167.2</ele>
        <time>2026-05-06T12:03:39Z</time>
      </trkpt>
      <trkpt lat="44.89743" lon="4.2466">
        <ele>1166.5</ele>
        <time>2026-05-06T12:03:44Z</time>
      </trkpt>
      <trkpt lat="44.89745" lon="4.24657">
        <ele>1166.1</ele>
        <time>2026-05-06T12:03:49Z</time>
      </trkpt>
      <trkpt lat="44.89746" lon="4.24652">
        <ele>1165.2</ele>
        <time>2026-05-06T12:03:54Z</time>
      </trkpt>
      <trkpt lat="44.89747" lon="4.24648">
        <ele>1164.5</ele>
        <time>2026-05-06T12:03:59Z</time>
      </trkpt>
      <trkpt lat="44.89748" lon="4.24644">
        <ele>1163.8</ele>
        <time>2026-05-06T12:04:04Z</time>
      </trkpt>
      <trkpt lat="44.8975" lon="4.24639">
        <ele>1163</ele>
        <time>2026-05-06T12:04:09Z</time>
      </trkpt>
      <trkpt lat="44.89751" lon="4.24634">
        <ele>1162.2</ele>
        <time>2026-05-06T12:04:14Z</time>
      </trkpt>
      <trkpt lat="44.89752" lon="4.24627">
        <ele>1161</ele>
        <time>2026-05-06T12:04:19Z</time>
      </trkpt>
      <trkpt lat="44.89754" lon="4.24621">
        <ele>1160</ele>
        <time>2026-05-06T12:04:24Z</time>
      </trkpt>
      <trkpt lat="44.89756" lon="4.2462">
        <ele>1159.9</ele>
        <time>2026-05-06T12:04:29Z</time>
      </trkpt>
      <trkpt lat="44.89759" lon="4.24617">
        <ele>1159.5</ele>
        <time>2026-05-06T12:04:34Z</time>
      </trkpt>
      <trkpt lat="44.89759" lon="4.24612">
        <ele>1158.5</ele>
        <time>2026-05-06T12:04:39Z</time>
      </trkpt>
      <trkpt lat="44.8976" lon="4.24607">
        <ele>1157.6</ele>
        <time>2026-05-06T12:04:44Z</time>
      </trkpt>
      <trkpt lat="44.89763" lon="4.24602">
        <ele>1156.8</ele>
        <time>2026-05-06T12:04:49Z</time>
      </trkpt>
      <trkpt lat="44.89767" lon="4.24597">
        <ele>1156</ele>
        <time>2026-05-06T12:04:54Z</time>
      </trkpt>
      <trkpt lat="44.8977" lon="4.24589">
        <ele>1154.6</ele>
        <time>2026-05-06T12:04:59Z</time>
      </trkpt>
      <trkpt lat="44.89773" lon="4.24582">
        <ele>1153.3</ele>
        <time>2026-05-06T12:05:04Z</time>
      </trkpt>
      <trkpt lat="44.89777" lon="4.24576">
        <ele>1152.4</ele>
        <time>2026-05-06T12:05:09Z</time>
      </trkpt>
      <trkpt lat="44.8978" lon="4.2457">
        <ele>1151.6</ele>
        <time>2026-05-06T12:05:14Z</time>
      </trkpt>
      <trkpt lat="44.89783" lon="4.24563">
        <ele>1150.5</ele>
        <time>2026-05-06T12:05:19Z</time>
      </trkpt>
      <trkpt lat="44.89789" lon="4.24556">
        <ele>1149.6</ele>
        <time>2026-05-06T12:05:24Z</time>
      </trkpt>
      <trkpt lat="44.89792" lon="4.24546">
        <ele>1148.2</ele>
        <time>2026-05-06T12:05:29Z</time>
      </trkpt>
      <trkpt lat="44.89799" lon="4.24536">
        <ele>1147</ele>
        <time>2026-05-06T12:05:34Z</time>
      </trkpt>
      <trkpt lat="44.89804" lon="4.24527">
        <ele>1145.9</ele>
        <time>2026-05-06T12:05:39Z</time>
      </trkpt>
      <trkpt lat="44.89809" lon="4.24516">
        <ele>1144.6</ele>
        <time>2026-05-06T12:05:44Z</time>
      </trkpt>
      <trkpt lat="44.89813" lon="4.24507">
        <ele>1143.5</ele>
        <time>2026-05-06T12:05:49Z</time>
      </trkpt>
      <trkpt lat="44.89817" lon="4.24498">
        <ele>1142.6</ele>
        <time>2026-05-06T12:05:54Z</time>
      </trkpt>
      <trkpt lat="44.89822" lon="4.24489">
        <ele>1141.9</ele>
        <time>2026-05-06T12:05:59Z</time>
      </trkpt>
      <trkpt lat="44.89825" lon="4.24481">
        <ele>1141.2</ele>
        <time>2026-05-06T12:06:04Z</time>
      </trkpt>
      <trkpt lat="44.89828" lon="4.24473">
        <ele>1140.6</ele>
        <time>2026-05-06T12:06:09Z</time>
      </trkpt>
      <trkpt lat="44.89831" lon="4.24465">
        <ele>1140</ele>
        <time>2026-05-06T12:06:14Z</time>
      </trkpt>
      <trkpt lat="44.89834" lon="4.24457">
        <ele>1139.4</ele>
        <time>2026-05-06T12:06:19Z</time>
      </trkpt>
      <trkpt lat="44.89834" lon="4.24446">
        <ele>1138.2</ele>
        <time>2026-05-06T12:06:24Z</time>
      </trkpt>
      <trkpt lat="44.89837" lon="4.24437">
        <ele>1137.5</ele>
        <time>2026-05-06T12:06:29Z</time>
      </trkpt>
      <trkpt lat="44.89839" lon="4.24428">
        <ele>1136.8</ele>
        <time>2026-05-06T12:06:34Z</time>
      </trkpt>
      <trkpt lat="44.89841" lon="4.24417">
        <ele>1135.9</ele>
        <time>2026-05-06T12:06:39Z</time>
      </trkpt>
      <trkpt lat="44.89841" lon="4.24405">
        <ele>1135.3</ele>
        <time>2026-05-06T12:06:44Z</time>
      </trkpt>
      <trkpt lat="44.89842" lon="4.24394">
        <ele>1134.9</ele>
        <time>2026-05-06T12:06:49Z</time>
      </trkpt>
      <trkpt lat="44.89844" lon="4.24385">
        <ele>1134.8</ele>
        <time>2026-05-06T12:06:54Z</time>
      </trkpt>
      <trkpt lat="44.89848" lon="4.24375">
        <ele>1134.8</ele>
        <time>2026-05-06T12:06:59Z</time>
      </trkpt>
      <trkpt lat="44.89852" lon="4.24365">
        <ele>1135</ele>
        <time>2026-05-06T12:07:04Z</time>
      </trkpt>
      <trkpt lat="44.89856" lon="4.24355">
        <ele>1135.1</ele>
        <time>2026-05-06T12:07:09Z</time>
      </trkpt>
      <trkpt lat="44.8986" lon="4.24345">
        <ele>1135.3</ele>
        <time>2026-05-06T12:07:14Z</time>
      </trkpt>
      <trkpt lat="44.89861" lon="4.24336">
        <ele>1135.1</ele>
        <time>2026-05-06T12:07:19Z</time>
      </trkpt>
      <trkpt lat="44.89862" lon="4.24325">
        <ele>1134.9</ele>
        <time>2026-05-06T12:07:24Z</time>
      </trkpt>
      <trkpt lat="44.89861" lon="4.24313">
        <ele>1134.3</ele>
        <time>2026-05-06T12:07:29Z</time>
      </trkpt>
      <trkpt lat="44.89862" lon="4.24303">
        <ele>1134.2</ele>
        <time>2026-05-06T12:07:34Z</time>
      </trkpt>
      <trkpt lat="44.89861" lon="4.24298">
        <ele>1133.9</ele>
        <time>2026-05-06T12:07:39Z</time>
      </trkpt>
      <trkpt lat="44.89861" lon="4.24298">
        <ele>1133.9</ele>
        <time>2026-05-06T12:07:44Z</time>
      </trkpt>
      <trkpt lat="44.89861" lon="4.24298">
        <ele>1133.9</ele>
        <time>2026-05-06T12:07:49Z</time>
      </trkpt>
      <trkpt lat="44.89859" lon="4.24298">
        <ele>1133.6</ele>
        <time>2026-05-06T12:07:54Z</time>
      </trkpt>
      <trkpt lat="44.89853" lon="4.24297">
        <ele>1132.6</ele>
        <time>2026-05-06T12:07:59Z</time>
      </trkpt>
      <trkpt lat="44.89847" lon="4.24297">
        <ele>1131.7</ele>
        <time>2026-05-06T12:08:04Z</time>
      </trkpt>
      <trkpt lat="44.89842" lon="4.24297">
        <ele>1131</ele>
        <time>2026-05-06T12:08:09Z</time>
      </trkpt>
      <trkpt lat="44.89836" lon="4.24298">
        <ele>1130.1</ele>
        <time>2026-05-06T12:08:14Z</time>
      </trkpt>
      <trkpt lat="44.89829" lon="4.24298">
        <ele>1129.1</ele>
        <time>2026-05-06T12:08:19Z</time>
      </trkpt>
      <trkpt lat="44.89823" lon="4.24298">
        <ele>1128.2</ele>
        <time>2026-05-06T12:08:24Z</time>
      </trkpt>
      <trkpt lat="44.89821" lon="4.24297">
        <ele>1127.9</ele>
        <time>2026-05-06T12:08:29Z</time>
      </trkpt>
      <trkpt lat="44.89815" lon="4.24298">
        <ele>1127</ele>
        <time>2026-05-06T12:08:34Z</time>
      </trkpt>
      <trkpt lat="44.89809" lon="4.24297">
        <ele>1126.1</ele>
        <time>2026-05-06T12:08:39Z</time>
      </trkpt>
      <trkpt lat="44.89804" lon="4.24294">
        <ele>1125.2</ele>
        <time>2026-05-06T12:08:44Z</time>
      </trkpt>
      <trkpt lat="44.898" lon="4.24292">
        <ele>1124.5</ele>
        <time>2026-05-06T12:08:49Z</time>
      </trkpt>
      <trkpt lat="44.89795" lon="4.24289">
        <ele>1123.6</ele>
        <time>2026-05-06T12:08:54Z</time>
      </trkpt>
      <trkpt lat="44.89791" lon="4.24286">
        <ele>1122.9</ele>
        <time>2026-05-06T12:08:59Z</time>
      </trkpt>
      <trkpt lat="44.89787" lon="4.24283">
        <ele>1122.2</ele>
        <time>2026-05-06T12:09:04Z</time>
      </trkpt>
      <trkpt lat="44.89782" lon="4.24281">
        <ele>1121.3</ele>
        <time>2026-05-06T12:09:09Z</time>
      </trkpt>
      <trkpt lat="44.89777" lon="4.24276">
        <ele>1120.4</ele>
        <time>2026-05-06T12:09:14Z</time>
      </trkpt>
      <trkpt lat="44.8977" lon="4.24271">
        <ele>1119.1</ele>
        <time>2026-05-06T12:09:19Z</time>
      </trkpt>
      <trkpt lat="44.89766" lon="4.24269">
        <ele>1118.4</ele>
        <time>2026-05-06T12:09:24Z</time>
      </trkpt>
      <trkpt lat="44.8976" lon="4.24267">
        <ele>1117.4</ele>
        <time>2026-05-06T12:09:29Z</time>
      </trkpt>
      <trkpt lat="44.89758" lon="4.24262">
        <ele>1116.8</ele>
        <time>2026-05-06T12:09:34Z</time>
      </trkpt>
      <trkpt lat="44.89758" lon="4.24261">
        <ele>1116.8</ele>
        <time>2026-05-06T12:09:39Z</time>
      </trkpt>
      <trkpt lat="44.89758" lon="4.24259">
        <ele>1116.7</ele>
        <time>2026-05-06T12:09:44Z</time>
      </trkpt>
      <trkpt lat="44.89755" lon="4.24256">
        <ele>1116.1</ele>
        <time>2026-05-06T12:09:49Z</time>
      </trkpt>
      <trkpt lat="44.89755" lon="4.24255">
        <ele>1116</ele>
        <time>2026-05-06T12:09:54Z</time>
      </trkpt>
      <trkpt lat="44.89761" lon="4.24255">
        <ele>1116.9</ele>
        <time>2026-05-06T12:09:59Z</time>
      </trkpt>
      <trkpt lat="44.89764" lon="4.2425">
        <ele>1117.2</ele>
        <time>2026-05-06T12:10:04Z</time>
      </trkpt>
      <trkpt lat="44.89766" lon="4.24241">
        <ele>1117.8</ele>
        <time>2026-05-06T12:10:09Z</time>
      </trkpt>
      <trkpt lat="44.89766" lon="4.24232">
        <ele>1118.1</ele>
        <time>2026-05-06T12:10:14Z</time>
      </trkpt>
      <trkpt lat="44.89765" lon="4.24222">
        <ele>1118.2</ele>
        <time>2026-05-06T12:10:19Z</time>
      </trkpt>
      <trkpt lat="44.89763" lon="4.24213">
        <ele>1118.1</ele>
        <time>2026-05-06T12:10:24Z</time>
      </trkpt>
      <trkpt lat="44.89761" lon="4.24204">
        <ele>1118</ele>
        <time>2026-05-06T12:10:29Z</time>
      </trkpt>
      <trkpt lat="44.89757" lon="4.24197">
        <ele>1117.5</ele>
        <time>2026-05-06T12:10:34Z</time>
      </trkpt>
      <trkpt lat="44.89755" lon="4.24189">
        <ele>1117.4</ele>
        <time>2026-05-06T12:10:39Z</time>
      </trkpt>
      <trkpt lat="44.89753" lon="4.24181">
        <ele>1117.2</ele>
        <time>2026-05-06T12:10:44Z</time>
      </trkpt>
      <trkpt lat="44.8975" lon="4.24173">
        <ele>1116.8</ele>
        <time>2026-05-06T12:10:49Z</time>
      </trkpt>
      <trkpt lat="44.89748" lon="4.24165">
        <ele>1116.8</ele>
        <time>2026-05-06T12:10:54Z</time>
      </trkpt>
      <trkpt lat="44.89747" lon="4.24158">
        <ele>1117.3</ele>
        <time>2026-05-06T12:10:59Z</time>
      </trkpt>
      <trkpt lat="44.89743" lon="4.24149">
        <ele>1117.5</ele>
        <time>2026-05-06T12:11:04Z</time>
      </trkpt>
      <trkpt lat="44.8974" lon="4.2414">
        <ele>1117.9</ele>
        <time>2026-05-06T12:11:09Z</time>
      </trkpt>
      <trkpt lat="44.89738" lon="4.24131">
        <ele>1118.4</ele>
        <time>2026-05-06T12:11:14Z</time>
      </trkpt>
      <trkpt lat="44.89736" lon="4.24123">
        <ele>1118.8</ele>
        <time>2026-05-06T12:11:19Z</time>
      </trkpt>
      <trkpt lat="44.89733" lon="4.24114">
        <ele>1119.2</ele>
        <time>2026-05-06T12:11:24Z</time>
      </trkpt>
      <trkpt lat="44.89731" lon="4.24108">
        <ele>1119.4</ele>
        <time>2026-05-06T12:11:29Z</time>
      </trkpt>
      <trkpt lat="44.8973" lon="4.24098">
        <ele>1120.2</ele>
        <time>2026-05-06T12:11:34Z</time>
      </trkpt>
      <trkpt lat="44.89727" lon="4.24089">
        <ele>1120.6</ele>
        <time>2026-05-06T12:11:39Z</time>
      </trkpt>
      <trkpt lat="44.89725" lon="4.24081">
        <ele>1121.2</ele>
        <time>2026-05-06T12:11:44Z</time>
      </trkpt>
      <trkpt lat="44.89723" lon="4.24072">
        <ele>1122.4</ele>
        <time>2026-05-06T12:11:49Z</time>
      </trkpt>
      <trkpt lat="44.8972" lon="4.24063">
        <ele>1123.4</ele>
        <time>2026-05-06T12:11:54Z</time>
      </trkpt>
      <trkpt lat="44.89718" lon="4.24055">
        <ele>1124.5</ele>
        <time>2026-05-06T12:11:59Z</time>
      </trkpt>
      <trkpt lat="44.89715" lon="4.24049">
        <ele>1125</ele>
        <time>2026-05-06T12:12:04Z</time>
      </trkpt>
      <trkpt lat="44.89712" lon="4.24041">
        <ele>1125.8</ele>
        <time>2026-05-06T12:12:09Z</time>
      </trkpt>
      <trkpt lat="44.8971" lon="4.24036">
        <ele>1126.3</ele>
        <time>2026-05-06T12:12:14Z</time>
      </trkpt>
      <trkpt lat="44.89709" lon="4.24029">
        <ele>1127.3</ele>
        <time>2026-05-06T12:12:19Z</time>
      </trkpt>
      <trkpt lat="44.89706" lon="4.24021">
        <ele>1128</ele>
        <time>2026-05-06T12:12:24Z</time>
      </trkpt>
      <trkpt lat="44.89706" lon="4.24021">
        <ele>1128</ele>
        <time>2026-05-06T12:12:29Z</time>
      </trkpt>
      <trkpt lat="44.89706" lon="4.24021">
        <ele>1128</ele>
        <time>2026-05-06T12:12:34Z</time>
      </trkpt>
      <trkpt lat="44.89706" lon="4.24021">
        <ele>1128</ele>
        <time>2026-05-06T12:12:39Z</time>
      </trkpt>
      <trkpt lat="44.89703" lon="4.24023">
        <ele>1127.1</ele>
        <time>2026-05-06T12:12:44Z</time>
      </trkpt>
      <trkpt lat="44.89697" lon="4.24017">
        <ele>1127</ele>
        <time>2026-05-06T12:12:49Z</time>
      </trkpt>
      <trkpt lat="44.89694" lon="4.24014">
        <ele>1127</ele>
        <time>2026-05-06T12:12:54Z</time>
      </trkpt>
      <trkpt lat="44.89691" lon="4.24013">
        <ele>1126.6</ele>
        <time>2026-05-06T12:12:59Z</time>
      </trkpt>
      <trkpt lat="44.89684" lon="4.24008">
        <ele>1126</ele>
        <time>2026-05-06T12:13:04Z</time>
      </trkpt>
      <trkpt lat="44.89678" lon="4.24005">
        <ele>1125.4</ele>
        <time>2026-05-06T12:13:09Z</time>
      </trkpt>
      <trkpt lat="44.89672" lon="4.24002">
        <ele>1124.7</ele>
        <time>2026-05-06T12:13:14Z</time>
      </trkpt>
      <trkpt lat="44.89666" lon="4.23997">
        <ele>1124.3</ele>
        <time>2026-05-06T12:13:19Z</time>
      </trkpt>
      <trkpt lat="44.8966" lon="4.23995">
        <ele>1123.3</ele>
        <time>2026-05-06T12:13:24Z</time>
      </trkpt>
      <trkpt lat="44.89654" lon="4.23991">
        <ele>1122.6</ele>
        <time>2026-05-06T12:13:29Z</time>
      </trkpt>
      <trkpt lat="44.89648" lon="4.23986">
        <ele>1122</ele>
        <time>2026-05-06T12:13:34Z</time>
      </trkpt>
      <trkpt lat="44.89646" lon="4.23988">
        <ele>1121.3</ele>
        <time>2026-05-06T12:13:39Z</time>
      </trkpt>
      <trkpt lat="44.89652" lon="4.23989">
        <ele>1122.4</ele>
        <time>2026-05-06T12:13:44Z</time>
      </trkpt>
      <trkpt lat="44.89656" lon="4.23993">
        <ele>1122.7</ele>
        <time>2026-05-06T12:13:49Z</time>
      </trkpt>
      <trkpt lat="44.89661" lon="4.23998">
        <ele>1123.1</ele>
        <time>2026-05-06T12:13:54Z</time>
      </trkpt>
      <trkpt lat="44.89664" lon="4.24003">
        <ele>1123</ele>
        <time>2026-05-06T12:13:59Z</time>
      </trkpt>
      <trkpt lat="44.89662" lon="4.24004">
        <ele>1122.4</ele>
        <time>2026-05-06T12:14:04Z</time>
      </trkpt>
      <trkpt lat="44.89657" lon="4.24004">
        <ele>1121.4</ele>
        <time>2026-05-06T12:14:09Z</time>
      </trkpt>
      <trkpt lat="44.89654" lon="4.24003">
        <ele>1121</ele>
        <time>2026-05-06T12:14:14Z</time>
      </trkpt>
      <trkpt lat="44.89651" lon="4.24002">
        <ele>1120.5</ele>
        <time>2026-05-06T12:14:19Z</time>
      </trkpt>
      <trkpt lat="44.89646" lon="4.24001">
        <ele>1119.6</ele>
        <time>2026-05-06T12:14:24Z</time>
      </trkpt>
      <trkpt lat="44.89642" lon="4.23998">
        <ele>1119.2</ele>
        <time>2026-05-06T12:14:29Z</time>
      </trkpt>
      <trkpt lat="44.89638" lon="4.23996">
        <ele>1118.6</ele>
        <time>2026-05-06T12:14:34Z</time>
      </trkpt>
      <trkpt lat="44.89632" lon="4.23995">
        <ele>1117.5</ele>
        <time>2026-05-06T12:14:39Z</time>
      </trkpt>
      <trkpt lat="44.89628" lon="4.23994">
        <ele>1116.8</ele>
        <time>2026-05-06T12:14:44Z</time>
      </trkpt>
      <trkpt lat="44.89624" lon="4.23994">
        <ele>1116</ele>
        <time>2026-05-06T12:14:49Z</time>
      </trkpt>
      <trkpt lat="44.89618" lon="4.23992">
        <ele>1115</ele>
        <time>2026-05-06T12:14:54Z</time>
      </trkpt>
      <trkpt lat="44.8961" lon="4.23991">
        <ele>1113.5</ele>
        <time>2026-05-06T12:14:59Z</time>
      </trkpt>
      <trkpt lat="44.89604" lon="4.2399">
        <ele>1112.4</ele>
        <time>2026-05-06T12:15:04Z</time>
      </trkpt>
      <trkpt lat="44.89599" lon="4.23988">
        <ele>1111.5</ele>
        <time>2026-05-06T12:15:09Z</time>
      </trkpt>
      <trkpt lat="44.89593" lon="4.23985">
        <ele>1110.6</ele>
        <time>2026-05-06T12:15:14Z</time>
      </trkpt>
      <trkpt lat="44.89587" lon="4.2398">
        <ele>1109.9</ele>
        <time>2026-05-06T12:15:19Z</time>
      </trkpt>
      <trkpt lat="44.89581" lon="4.23977">
        <ele>1108.9</ele>
        <time>2026-05-06T12:15:24Z</time>
      </trkpt>
      <trkpt lat="44.89574" lon="4.23973">
        <ele>1107.8</ele>
        <time>2026-05-06T12:15:29Z</time>
      </trkpt>
      <trkpt lat="44.89567" lon="4.2397">
        <ele>1106.4</ele>
        <time>2026-05-06T12:15:34Z</time>
      </trkpt>
      <trkpt lat="44.89559" lon="4.23968">
        <ele>1104.8</ele>
        <time>2026-05-06T12:15:39Z</time>
      </trkpt>
      <trkpt lat="44.89553" lon="4.23965">
        <ele>1103.7</ele>
        <time>2026-05-06T12:15:44Z</time>
      </trkpt>
      <trkpt lat="44.89546" lon="4.23962">
        <ele>1102.4</ele>
        <time>2026-05-06T12:15:49Z</time>
      </trkpt>
      <trkpt lat="44.89538" lon="4.23959">
        <ele>1100.8</ele>
        <time>2026-05-06T12:15:54Z</time>
      </trkpt>
      <trkpt lat="44.89532" lon="4.23956">
        <ele>1099.7</ele>
        <time>2026-05-06T12:15:59Z</time>
      </trkpt>
      <trkpt lat="44.89526" lon="4.2395">
        <ele>1098.9</ele>
        <time>2026-05-06T12:16:04Z</time>
      </trkpt>
      <trkpt lat="44.89521" lon="4.23943">
        <ele>1098.4</ele>
        <time>2026-05-06T12:16:09Z</time>
      </trkpt>
      <trkpt lat="44.89517" lon="4.23938">
        <ele>1098</ele>
        <time>2026-05-06T12:16:14Z</time>
      </trkpt>
      <trkpt lat="44.89512" lon="4.23933">
        <ele>1097.3</ele>
        <time>2026-05-06T12:16:19Z</time>
      </trkpt>
      <trkpt lat="44.89504" lon="4.23927">
        <ele>1096</ele>
        <time>2026-05-06T12:16:24Z</time>
      </trkpt>
      <trkpt lat="44.89498" lon="4.23923">
        <ele>1094.8</ele>
        <time>2026-05-06T12:16:29Z</time>
      </trkpt>
      <trkpt lat="44.89492" lon="4.23917">
        <ele>1093.7</ele>
        <time>2026-05-06T12:16:34Z</time>
      </trkpt>
      <trkpt lat="44.89486" lon="4.23913">
        <ele>1092.3</ele>
        <time>2026-05-06T12:16:39Z</time>
      </trkpt>
      <trkpt lat="44.89481" lon="4.2391">
        <ele>1091.1</ele>
        <time>2026-05-06T12:16:44Z</time>
      </trkpt>
      <trkpt lat="44.89476" lon="4.23906">
        <ele>1089.9</ele>
        <time>2026-05-06T12:16:49Z</time>
      </trkpt>
      <trkpt lat="44.89471" lon="4.23902">
        <ele>1088.8</ele>
        <time>2026-05-06T12:16:54Z</time>
      </trkpt>
      <trkpt lat="44.89465" lon="4.23898">
        <ele>1087.3</ele>
        <time>2026-05-06T12:16:59Z</time>
      </trkpt>
      <trkpt lat="44.89459" lon="4.23894">
        <ele>1085.8</ele>
        <time>2026-05-06T12:17:04Z</time>
      </trkpt>
      <trkpt lat="44.89454" lon="4.2389">
        <ele>1084.6</ele>
        <time>2026-05-06T12:17:09Z</time>
      </trkpt>
      <trkpt lat="44.8945" lon="4.23886">
        <ele>1083.7</ele>
        <time>2026-05-06T12:17:14Z</time>
      </trkpt>
      <trkpt lat="44.89444" lon="4.23881">
        <ele>1082.3</ele>
        <time>2026-05-06T12:17:19Z</time>
      </trkpt>
      <trkpt lat="44.8944" lon="4.23876">
        <ele>1081.4</ele>
        <time>2026-05-06T12:17:24Z</time>
      </trkpt>
      <trkpt lat="44.89436" lon="4.2387">
        <ele>1080.6</ele>
        <time>2026-05-06T12:17:29Z</time>
      </trkpt>
      <trkpt lat="44.89431" lon="4.23864">
        <ele>1079.5</ele>
        <time>2026-05-06T12:17:34Z</time>
      </trkpt>
      <trkpt lat="44.89427" lon="4.23859">
        <ele>1078.6</ele>
        <time>2026-05-06T12:17:39Z</time>
      </trkpt>
      <trkpt lat="44.89423" lon="4.23854">
        <ele>1077.7</ele>
        <time>2026-05-06T12:17:44Z</time>
      </trkpt>
      <trkpt lat="44.8942" lon="4.23846">
        <ele>1077.3</ele>
        <time>2026-05-06T12:17:49Z</time>
      </trkpt>
      <trkpt lat="44.89417" lon="4.23839">
        <ele>1076.8</ele>
        <time>2026-05-06T12:17:54Z</time>
      </trkpt>
      <trkpt lat="44.89412" lon="4.23836">
        <ele>1075.3</ele>
        <time>2026-05-06T12:17:59Z</time>
      </trkpt>
      <trkpt lat="44.89408" lon="4.23833">
        <ele>1074.2</ele>
        <time>2026-05-06T12:18:04Z</time>
      </trkpt>
      <trkpt lat="44.89403" lon="4.2383">
        <ele>1072.6</ele>
        <time>2026-05-06T12:18:09Z</time>
      </trkpt>
      <trkpt lat="44.894" lon="4.23825">
        <ele>1071.7</ele>
        <time>2026-05-06T12:18:14Z</time>
      </trkpt>
      <trkpt lat="44.89396" lon="4.2382">
        <ele>1070.4</ele>
        <time>2026-05-06T12:18:19Z</time>
      </trkpt>
      <trkpt lat="44.89392" lon="4.23815">
        <ele>1069.1</ele>
        <time>2026-05-06T12:18:24Z</time>
      </trkpt>
      <trkpt lat="44.89387" lon="4.2381">
        <ele>1067.5</ele>
        <time>2026-05-06T12:18:29Z</time>
      </trkpt>
      <trkpt lat="44.89383" lon="4.23807">
        <ele>1066.2</ele>
        <time>2026-05-06T12:18:34Z</time>
      </trkpt>
      <trkpt lat="44.89379" lon="4.23803">
        <ele>1064.8</ele>
        <time>2026-05-06T12:18:39Z</time>
      </trkpt>
      <trkpt lat="44.89376" lon="4.23798">
        <ele>1063.8</ele>
        <time>2026-05-06T12:18:44Z</time>
      </trkpt>
      <trkpt lat="44.89371" lon="4.23796">
        <ele>1062.2</ele>
        <time>2026-05-06T12:18:49Z</time>
      </trkpt>
      <trkpt lat="44.89369" lon="4.23793">
        <ele>1061.5</ele>
        <time>2026-05-06T12:18:54Z</time>
      </trkpt>
      <trkpt lat="44.89366" lon="4.23788">
        <ele>1060.5</ele>
        <time>2026-05-06T12:18:59Z</time>
      </trkpt>
      <trkpt lat="44.89363" lon="4.23783">
        <ele>1059.4</ele>
        <time>2026-05-06T12:19:04Z</time>
      </trkpt>
      <trkpt lat="44.89359" lon="4.23779">
        <ele>1058.1</ele>
        <time>2026-05-06T12:19:09Z</time>
      </trkpt>
      <trkpt lat="44.89355" lon="4.23774">
        <ele>1056.7</ele>
        <time>2026-05-06T12:19:14Z</time>
      </trkpt>
      <trkpt lat="44.89351" lon="4.2377">
        <ele>1055.3</ele>
        <time>2026-05-06T12:19:19Z</time>
      </trkpt>
      <trkpt lat="44.89349" lon="4.23764">
        <ele>1054.6</ele>
        <time>2026-05-06T12:19:24Z</time>
      </trkpt>
      <trkpt lat="44.89346" lon="4.23759">
        <ele>1053.5</ele>
        <time>2026-05-06T12:19:29Z</time>
      </trkpt>
      <trkpt lat="44.89342" lon="4.23752">
        <ele>1052</ele>
        <time>2026-05-06T12:19:34Z</time>
      </trkpt>
      <trkpt lat="44.8934" lon="4.23747">
        <ele>1051.3</ele>
        <time>2026-05-06T12:19:39Z</time>
      </trkpt>
      <trkpt lat="44.89336" lon="4.23741">
        <ele>1049.8</ele>
        <time>2026-05-06T12:19:44Z</time>
      </trkpt>
      <trkpt lat="44.89333" lon="4.23736">
        <ele>1048.7</ele>
        <time>2026-05-06T12:19:49Z</time>
      </trkpt>
      <trkpt lat="44.8933" lon="4.23731">
        <ele>1047.9</ele>
        <time>2026-05-06T12:19:54Z</time>
      </trkpt>
      <trkpt lat="44.89326" lon="4.23726">
        <ele>1046.7</ele>
        <time>2026-05-06T12:19:59Z</time>
      </trkpt>
      <trkpt lat="44.89324" lon="4.23721">
        <ele>1046.1</ele>
        <time>2026-05-06T12:20:04Z</time>
      </trkpt>
      <trkpt lat="44.89323" lon="4.23715">
        <ele>1045.7</ele>
        <time>2026-05-06T12:20:09Z</time>
      </trkpt>
      <trkpt lat="44.8932" lon="4.2371">
        <ele>1044.8</ele>
        <time>2026-05-06T12:20:14Z</time>
      </trkpt>
      <trkpt lat="44.89319" lon="4.23705">
        <ele>1044.4</ele>
        <time>2026-05-06T12:20:19Z</time>
      </trkpt>
      <trkpt lat="44.89315" lon="4.23699">
        <ele>1043.1</ele>
        <time>2026-05-06T12:20:24Z</time>
      </trkpt>
      <trkpt lat="44.89312" lon="4.23694">
        <ele>1042.2</ele>
        <time>2026-05-06T12:20:29Z</time>
      </trkpt>
      <trkpt lat="44.89309" lon="4.23688">
        <ele>1041.2</ele>
        <time>2026-05-06T12:20:34Z</time>
      </trkpt>
      <trkpt lat="44.89304" lon="4.23684">
        <ele>1039.6</ele>
        <time>2026-05-06T12:20:39Z</time>
      </trkpt>
      <trkpt lat="44.89298" lon="4.23681">
        <ele>1037.8</ele>
        <time>2026-05-06T12:20:44Z</time>
      </trkpt>
      <trkpt lat="44.89296" lon="4.2368">
        <ele>1037.2</ele>
        <time>2026-05-06T12:20:49Z</time>
      </trkpt>
      <trkpt lat="44.89296" lon="4.2368">
        <ele>1037.2</ele>
        <time>2026-05-06T12:20:54Z</time>
      </trkpt>
      <trkpt lat="44.89296" lon="4.2368">
        <ele>1037.2</ele>
        <time>2026-05-06T12:20:59Z</time>
      </trkpt>
      <trkpt lat="44.89296" lon="4.2368">
        <ele>1037.2</ele>
        <time>2026-05-06T12:21:04Z</time>
      </trkpt>
      <trkpt lat="44.89296" lon="4.2368">
        <ele>1037.2</ele>
        <time>2026-05-06T12:21:09Z</time>
      </trkpt>
      <trkpt lat="44.89296" lon="4.2368">
        <ele>1037.2</ele>
        <time>2026-05-06T12:21:14Z</time>
      </trkpt>
      <trkpt lat="44.89292" lon="4.23675">
        <ele>1035.8</ele>
        <time>2026-05-06T12:21:19Z</time>
      </trkpt>
      <trkpt lat="44.89291" lon="4.23669">
        <ele>1035.4</ele>
        <time>2026-05-06T12:21:24Z</time>
      </trkpt>
      <trkpt lat="44.8929" lon="4.23664">
        <ele>1035.1</ele>
        <time>2026-05-06T12:21:29Z</time>
      </trkpt>
      <trkpt lat="44.89288" lon="4.2366">
        <ele>1034.6</ele>
        <time>2026-05-06T12:21:34Z</time>
      </trkpt>
      <trkpt lat="44.89286" lon="4.23655">
        <ele>1034.1</ele>
        <time>2026-05-06T12:21:39Z</time>
      </trkpt>
      <trkpt lat="44.89284" lon="4.23651">
        <ele>1033.6</ele>
        <time>2026-05-06T12:21:44Z</time>
      </trkpt>
      <trkpt lat="44.89281" lon="4.23646">
        <ele>1032.8</ele>
        <time>2026-05-06T12:21:49Z</time>
      </trkpt>
      <trkpt lat="44.89278" lon="4.2364">
        <ele>1032</ele>
        <time>2026-05-06T12:21:54Z</time>
      </trkpt>
      <trkpt lat="44.89276" lon="4.23632">
        <ele>1031.6</ele>
        <time>2026-05-06T12:21:59Z</time>
      </trkpt>
      <trkpt lat="44.89274" lon="4.23623">
        <ele>1031.2</ele>
        <time>2026-05-06T12:22:04Z</time>
      </trkpt>
      <trkpt lat="44.8927" lon="4.23613">
        <ele>1030.3</ele>
        <time>2026-05-06T12:22:09Z</time>
      </trkpt>
      <trkpt lat="44.89268" lon="4.23604">
        <ele>1029.9</ele>
        <time>2026-05-06T12:22:14Z</time>
      </trkpt>
      <trkpt lat="44.89263" lon="4.23595">
        <ele>1028.6</ele>
        <time>2026-05-06T12:22:19Z</time>
      </trkpt>
      <trkpt lat="44.89261" lon="4.23588">
        <ele>1028.2</ele>
        <time>2026-05-06T12:22:24Z</time>
      </trkpt>
      <trkpt lat="44.89258" lon="4.2358">
        <ele>1027.4</ele>
        <time>2026-05-06T12:22:29Z</time>
      </trkpt>
      <trkpt lat="44.89255" lon="4.23572">
        <ele>1026.6</ele>
        <time>2026-05-06T12:22:34Z</time>
      </trkpt>
      <trkpt lat="44.89253" lon="4.23565">
        <ele>1026.1</ele>
        <time>2026-05-06T12:22:39Z</time>
      </trkpt>
      <trkpt lat="44.89249" lon="4.23555">
        <ele>1025.1</ele>
        <time>2026-05-06T12:22:44Z</time>
      </trkpt>
      <trkpt lat="44.89245" lon="4.23548">
        <ele>1024</ele>
        <time>2026-05-06T12:22:49Z</time>
      </trkpt>
      <trkpt lat="44.8924" lon="4.2354">
        <ele>1022.8</ele>
        <time>2026-05-06T12:22:54Z</time>
      </trkpt>
      <trkpt lat="44.89237" lon="4.23532">
        <ele>1022</ele>
        <time>2026-05-06T12:22:59Z</time>
      </trkpt>
      <trkpt lat="44.89233" lon="4.23525">
        <ele>1021</ele>
        <time>2026-05-06T12:23:04Z</time>
      </trkpt>
      <trkpt lat="44.89229" lon="4.23516">
        <ele>1020</ele>
        <time>2026-05-06T12:23:09Z</time>
      </trkpt>
      <trkpt lat="44.89226" lon="4.23509">
        <ele>1019.3</ele>
        <time>2026-05-06T12:23:14Z</time>
      </trkpt>
      <trkpt lat="44.89221" lon="4.23503">
        <ele>1018</ele>
        <time>2026-05-06T12:23:19Z</time>
      </trkpt>
      <trkpt lat="44.89218" lon="4.23496">
        <ele>1017.3</ele>
        <time>2026-05-06T12:23:24Z</time>
      </trkpt>
      <trkpt lat="44.89213" lon="4.2349">
        <ele>1016.2</ele>
        <time>2026-05-06T12:23:29Z</time>
      </trkpt>
      <trkpt lat="44.89209" lon="4.23481">
        <ele>1015.5</ele>
        <time>2026-05-06T12:23:34Z</time>
      </trkpt>
      <trkpt lat="44.89204" lon="4.23474">
        <ele>1014.4</ele>
        <time>2026-05-06T12:23:39Z</time>
      </trkpt>
      <trkpt lat="44.89199" lon="4.23472">
        <ele>1013.1</ele>
        <time>2026-05-06T12:23:44Z</time>
      </trkpt>
      <trkpt lat="44.89196" lon="4.23474">
        <ele>1012.1</ele>
        <time>2026-05-06T12:23:49Z</time>
      </trkpt>
      <trkpt lat="44.89196" lon="4.23478">
        <ele>1012</ele>
        <time>2026-05-06T12:23:54Z</time>
      </trkpt>
      <trkpt lat="44.89195" lon="4.23486">
        <ele>1011.4</ele>
        <time>2026-05-06T12:23:59Z</time>
      </trkpt>
      <trkpt lat="44.89193" lon="4.23493">
        <ele>1010.5</ele>
        <time>2026-05-06T12:24:04Z</time>
      </trkpt>
      <trkpt lat="44.89191" lon="4.23501">
        <ele>1009.7</ele>
        <time>2026-05-06T12:24:09Z</time>
      </trkpt>
      <trkpt lat="44.89188" lon="4.23508">
        <ele>1008.8</ele>
        <time>2026-05-06T12:24:14Z</time>
      </trkpt>
      <trkpt lat="44.89184" lon="4.23515">
        <ele>1007.6</ele>
        <time>2026-05-06T12:24:19Z</time>
      </trkpt>
      <trkpt lat="44.89182" lon="4.23524">
        <ele>1006.9</ele>
        <time>2026-05-06T12:24:24Z</time>
      </trkpt>
      <trkpt lat="44.89179" lon="4.23534">
        <ele>1006</ele>
        <time>2026-05-06T12:24:29Z</time>
      </trkpt>
      <trkpt lat="44.89178" lon="4.23542">
        <ele>1005.6</ele>
        <time>2026-05-06T12:24:34Z</time>
      </trkpt>
      <trkpt lat="44.89176" lon="4.2355">
        <ele>1005</ele>
        <time>2026-05-06T12:24:39Z</time>
      </trkpt>
      <trkpt lat="44.89172" lon="4.23559">
        <ele>1003.8</ele>
        <time>2026-05-06T12:24:44Z</time>
      </trkpt>
      <trkpt lat="44.89169" lon="4.23564">
        <ele>1002.9</ele>
        <time>2026-05-06T12:24:49Z</time>
      </trkpt>
      <trkpt lat="44.89168" lon="4.23571">
        <ele>1002.5</ele>
        <time>2026-05-06T12:24:54Z</time>
      </trkpt>
      <trkpt lat="44.89167" lon="4.23573">
        <ele>1002.2</ele>
        <time>2026-05-06T12:24:59Z</time>
      </trkpt>
      <trkpt lat="44.89168" lon="4.23574">
        <ele>1002.5</ele>
        <time>2026-05-06T12:25:04Z</time>
      </trkpt>
      <trkpt lat="44.89168" lon="4.23574">
        <ele>1002.5</ele>
        <time>2026-05-06T12:25:09Z</time>
      </trkpt>
      <trkpt lat="44.89168" lon="4.23574">
        <ele>1002.5</ele>
        <time>2026-05-06T12:25:14Z</time>
      </trkpt>
      <trkpt lat="44.89168" lon="4.23574">
        <ele>1002.5</ele>
        <time>2026-05-06T12:25:19Z</time>
      </trkpt>
      <trkpt lat="44.89168" lon="4.23574">
        <ele>1002.5</ele>
        <time>2026-05-06T12:25:24Z</time>
      </trkpt>
      <trkpt lat="44.89168" lon="4.23574">
        <ele>1002.5</ele>
        <time>2026-05-06T12:25:29Z</time>
      </trkpt>
      <trkpt lat="44.89168" lon="4.23574">
        <ele>1002.5</ele>
        <time>2026-05-06T12:25:34Z</time>
      </trkpt>
      <trkpt lat="44.89168" lon="4.23574">
        <ele>1002.5</ele>
        <time>2026-05-06T12:25:39Z</time>
      </trkpt>
      <trkpt lat="44.89165" lon="4.23579">
        <ele>1001.7</ele>
        <time>2026-05-06T12:25:44Z</time>
      </trkpt>
      <trkpt lat="44.89164" lon="4.23583">
        <ele>1001.4</ele>
        <time>2026-05-06T12:25:49Z</time>
      </trkpt>
      <trkpt lat="44.89163" lon="4.23588">
        <ele>1001.1</ele>
        <time>2026-05-06T12:25:54Z</time>
      </trkpt>
      <trkpt lat="44.8916" lon="4.23597">
        <ele>1000.4</ele>
        <time>2026-05-06T12:25:59Z</time>
      </trkpt>
      <trkpt lat="44.89158" lon="4.23605">
        <ele>999.9</ele>
        <time>2026-05-06T12:26:04Z</time>
      </trkpt>
      <trkpt lat="44.89157" lon="4.23608">
        <ele>999.6</ele>
        <time>2026-05-06T12:26:09Z</time>
      </trkpt>
      <trkpt lat="44.89157" lon="4.23608">
        <ele>999.6</ele>
        <time>2026-05-06T12:26:14Z</time>
      </trkpt>
      <trkpt lat="44.89155" lon="4.23612">
        <ele>999.2</ele>
        <time>2026-05-06T12:26:19Z</time>
      </trkpt>
      <trkpt lat="44.89152" lon="4.2362">
        <ele>998.5</ele>
        <time>2026-05-06T12:26:24Z</time>
      </trkpt>
      <trkpt lat="44.8915" lon="4.23629">
        <ele>998.1</ele>
        <time>2026-05-06T12:26:29Z</time>
      </trkpt>
      <trkpt lat="44.89147" lon="4.23637">
        <ele>997.5</ele>
        <time>2026-05-06T12:26:34Z</time>
      </trkpt>
      <trkpt lat="44.89142" lon="4.23645">
        <ele>996.5</ele>
        <time>2026-05-06T12:26:39Z</time>
      </trkpt>
      <trkpt lat="44.89137" lon="4.23651">
        <ele>995.6</ele>
        <time>2026-05-06T12:26:44Z</time>
      </trkpt>
      <trkpt lat="44.89132" lon="4.23648">
        <ele>994.6</ele>
        <time>2026-05-06T12:26:49Z</time>
      </trkpt>
      <trkpt lat="44.89128" lon="4.23638">
        <ele>993.7</ele>
        <time>2026-05-06T12:26:54Z</time>
      </trkpt>
      <trkpt lat="44.89127" lon="4.23629">
        <ele>993.5</ele>
        <time>2026-05-06T12:26:59Z</time>
      </trkpt>
      <trkpt lat="44.89127" lon="4.23629">
        <ele>993.5</ele>
        <time>2026-05-06T12:27:04Z</time>
      </trkpt>
      <trkpt lat="44.89127" lon="4.23629">
        <ele>993.5</ele>
        <time>2026-05-06T12:27:09Z</time>
      </trkpt>
      <trkpt lat="44.89123" lon="4.23628">
        <ele>992.6</ele>
        <time>2026-05-06T12:27:14Z</time>
      </trkpt>
      <trkpt lat="44.8912" lon="4.23627">
        <ele>992</ele>
        <time>2026-05-06T12:27:19Z</time>
      </trkpt>
      <trkpt lat="44.89119" lon="4.23626">
        <ele>991.8</ele>
        <time>2026-05-06T12:27:24Z</time>
      </trkpt>
      <trkpt lat="44.89117" lon="4.23621">
        <ele>991.3</ele>
        <time>2026-05-06T12:27:29Z</time>
      </trkpt>
      <trkpt lat="44.89115" lon="4.23615">
        <ele>990.8</ele>
        <time>2026-05-06T12:27:34Z</time>
      </trkpt>
      <trkpt lat="44.89113" lon="4.23609">
        <ele>990.2</ele>
        <time>2026-05-06T12:27:39Z</time>
      </trkpt>
      <trkpt lat="44.89114" lon="4.2361">
        <ele>990.5</ele>
        <time>2026-05-06T12:27:44Z</time>
      </trkpt>
      <trkpt lat="44.89114" lon="4.23611">
        <ele>990.5</ele>
        <time>2026-05-06T12:27:49Z</time>
      </trkpt>
      <trkpt lat="44.89114" lon="4.23611">
        <ele>990.5</ele>
        <time>2026-05-06T12:27:54Z</time>
      </trkpt>
      <trkpt lat="44.89115" lon="4.23614">
        <ele>990.8</ele>
        <time>2026-05-06T12:27:59Z</time>
      </trkpt>
      <trkpt lat="44.89115" lon="4.23622">
        <ele>990.9</ele>
        <time>2026-05-06T12:28:04Z</time>
      </trkpt>
      <trkpt lat="44.89118" lon="4.23627">
        <ele>991.6</ele>
        <time>2026-05-06T12:28:09Z</time>
      </trkpt>
      <trkpt lat="44.89124" lon="4.23626">
        <ele>992.8</ele>
        <time>2026-05-06T12:28:14Z</time>
      </trkpt>
      <trkpt lat="44.89125" lon="4.2362">
        <ele>992.9</ele>
        <time>2026-05-06T12:28:19Z</time>
      </trkpt>
      <trkpt lat="44.89126" lon="4.2361">
        <ele>993</ele>
        <time>2026-05-06T12:28:24Z</time>
      </trkpt>
      <trkpt lat="44.89126" lon="4.23601">
        <ele>992.9</ele>
        <time>2026-05-06T12:28:29Z</time>
      </trkpt>
      <trkpt lat="44.89126" lon="4.23591">
        <ele>992.8</ele>
        <time>2026-05-06T12:28:34Z</time>
      </trkpt>
      <trkpt lat="44.89126" lon="4.2358">
        <ele>992.7</ele>
        <time>2026-05-06T12:28:39Z</time>
      </trkpt>
      <trkpt lat="44.89126" lon="4.2357">
        <ele>992.8</ele>
        <time>2026-05-06T12:28:44Z</time>
      </trkpt>
      <trkpt lat="44.89126" lon="4.23562">
        <ele>992.9</ele>
        <time>2026-05-06T12:28:49Z</time>
      </trkpt>
      <trkpt lat="44.89126" lon="4.23564">
        <ele>992.8</ele>
        <time>2026-05-06T12:28:54Z</time>
      </trkpt>
      <trkpt lat="44.89126" lon="4.23571">
        <ele>992.8</ele>
        <time>2026-05-06T12:28:59Z</time>
      </trkpt>
      <trkpt lat="44.89127" lon="4.23579">
        <ele>993</ele>
        <time>2026-05-06T12:29:04Z</time>
      </trkpt>
      <trkpt lat="44.89127" lon="4.23588">
        <ele>993</ele>
        <time>2026-05-06T12:29:09Z</time>
      </trkpt>
      <trkpt lat="44.89127" lon="4.23596">
        <ele>993.1</ele>
        <time>2026-05-06T12:29:14Z</time>
      </trkpt>
      <trkpt lat="44.89126" lon="4.23604">
        <ele>993</ele>
        <time>2026-05-06T12:29:19Z</time>
      </trkpt>
      <trkpt lat="44.89121" lon="4.23604">
        <ele>991.9</ele>
        <time>2026-05-06T12:29:24Z</time>
      </trkpt>
      <trkpt lat="44.89117" lon="4.23601">
        <ele>991</ele>
        <time>2026-05-06T12:29:29Z</time>
      </trkpt>
      <trkpt lat="44.89113" lon="4.23596">
        <ele>990</ele>
        <time>2026-05-06T12:29:34Z</time>
      </trkpt>
      <trkpt lat="44.89111" lon="4.23589">
        <ele>989.4</ele>
        <time>2026-05-06T12:29:39Z</time>
      </trkpt>
      <trkpt lat="44.89111" lon="4.23583">
        <ele>989.3</ele>
        <time>2026-05-06T12:29:44Z</time>
      </trkpt>
      <trkpt lat="44.89112" lon="4.23578">
        <ele>989.6</ele>
        <time>2026-05-06T12:29:49Z</time>
      </trkpt>
      <trkpt lat="44.89108" lon="4.23575">
        <ele>988.7</ele>
        <time>2026-05-06T12:29:54Z</time>
      </trkpt>
      <trkpt lat="44.89107" lon="4.23575">
        <ele>988.4</ele>
        <time>2026-05-06T12:29:59Z</time>
      </trkpt>
      <trkpt lat="44.89107" lon="4.23575">
        <ele>988.4</ele>
        <time>2026-05-06T12:30:04Z</time>
      </trkpt>
      <trkpt lat="44.89107" lon="4.23575">
        <ele>988.4</ele>
        <time>2026-05-06T12:30:09Z</time>
      </trkpt>
      <trkpt lat="44.89101" lon="4.23564">
        <ele>987.1</ele>
        <time>2026-05-06T12:30:14Z</time>
      </trkpt>
      <trkpt lat="44.891" lon="4.23564">
        <ele>986.8</ele>
        <time>2026-05-06T12:30:19Z</time>
      </trkpt>
      <trkpt lat="44.89094" lon="4.2356">
        <ele>985.5</ele>
        <time>2026-05-06T12:30:24Z</time>
      </trkpt>
      <trkpt lat="44.89091" lon="4.23553">
        <ele>984.8</ele>
        <time>2026-05-06T12:30:29Z</time>
      </trkpt>
      <trkpt lat="44.89088" lon="4.23548">
        <ele>984.1</ele>
        <time>2026-05-06T12:30:34Z</time>
      </trkpt>
      <trkpt lat="44.89086" lon="4.23544">
        <ele>983.6</ele>
        <time>2026-05-06T12:30:39Z</time>
      </trkpt>
      <trkpt lat="44.89083" lon="4.23541">
        <ele>982.9</ele>
        <time>2026-05-06T12:30:44Z</time>
      </trkpt>
      <trkpt lat="44.8908" lon="4.23538">
        <ele>982.3</ele>
        <time>2026-05-06T12:30:49Z</time>
      </trkpt>
      <trkpt lat="44.89076" lon="4.23537">
        <ele>981.4</ele>
        <time>2026-05-06T12:30:54Z</time>
      </trkpt>
      <trkpt lat="44.8907" lon="4.23536">
        <ele>980.1</ele>
        <time>2026-05-06T12:30:59Z</time>
      </trkpt>
      <trkpt lat="44.89064" lon="4.23534">
        <ele>978.8</ele>
        <time>2026-05-06T12:31:04Z</time>
      </trkpt>
      <trkpt lat="44.89058" lon="4.23529">
        <ele>977.4</ele>
        <time>2026-05-06T12:31:09Z</time>
      </trkpt>
      <trkpt lat="44.89054" lon="4.23523">
        <ele>976.5</ele>
        <time>2026-05-06T12:31:14Z</time>
      </trkpt>
      <trkpt lat="44.89052" lon="4.23515">
        <ele>976</ele>
        <time>2026-05-06T12:31:19Z</time>
      </trkpt>
      <trkpt lat="44.89048" lon="4.23512">
        <ele>975.1</ele>
        <time>2026-05-06T12:31:24Z</time>
      </trkpt>
      <trkpt lat="44.89045" lon="4.2352">
        <ele>974.5</ele>
        <time>2026-05-06T12:31:29Z</time>
      </trkpt>
      <trkpt lat="44.89043" lon="4.23527">
        <ele>974.1</ele>
        <time>2026-05-06T12:31:34Z</time>
      </trkpt>
      <trkpt lat="44.8904" lon="4.23536">
        <ele>973.6</ele>
        <time>2026-05-06T12:31:39Z</time>
      </trkpt>
      <trkpt lat="44.89039" lon="4.23544">
        <ele>973.5</ele>
        <time>2026-05-06T12:31:44Z</time>
      </trkpt>
      <trkpt lat="44.89039" lon="4.23556">
        <ele>973.6</ele>
        <time>2026-05-06T12:31:49Z</time>
      </trkpt>
      <trkpt lat="44.8904" lon="4.23566">
        <ele>973.9</ele>
        <time>2026-05-06T12:31:54Z</time>
      </trkpt>
      <trkpt lat="44.89038" lon="4.23578">
        <ele>973.7</ele>
        <time>2026-05-06T12:31:59Z</time>
      </trkpt>
      <trkpt lat="44.89034" lon="4.23586">
        <ele>973</ele>
        <time>2026-05-06T12:32:04Z</time>
      </trkpt>
      <trkpt lat="44.89032" lon="4.23591">
        <ele>972.6</ele>
        <time>2026-05-06T12:32:09Z</time>
      </trkpt>
      <trkpt lat="44.89027" lon="4.23595">
        <ele>971.6</ele>
        <time>2026-05-06T12:32:14Z</time>
      </trkpt>
      <trkpt lat="44.89025" lon="4.23603">
        <ele>971.3</ele>
        <time>2026-05-06T12:32:19Z</time>
      </trkpt>
      <trkpt lat="44.89023" lon="4.23613">
        <ele>971</ele>
        <time>2026-05-06T12:32:24Z</time>
      </trkpt>
      <trkpt lat="44.89023" lon="4.23622">
        <ele>971.1</ele>
        <time>2026-05-06T12:32:29Z</time>
      </trkpt>
      <trkpt lat="44.89023" lon="4.23624">
        <ele>971.1</ele>
        <time>2026-05-06T12:32:34Z</time>
      </trkpt>
      <trkpt lat="44.89023" lon="4.23624">
        <ele>971.1</ele>
        <time>2026-05-06T12:32:39Z</time>
      </trkpt>
      <trkpt lat="44.89023" lon="4.23624">
        <ele>971.1</ele>
        <time>2026-05-06T12:32:44Z</time>
      </trkpt>
      <trkpt lat="44.89023" lon="4.23619">
        <ele>971</ele>
        <time>2026-05-06T12:32:49Z</time>
      </trkpt>
      <trkpt lat="44.89023" lon="4.23615">
        <ele>971</ele>
        <time>2026-05-06T12:32:54Z</time>
      </trkpt>
      <trkpt lat="44.89023" lon="4.23614">
        <ele>971</ele>
        <time>2026-05-06T12:32:59Z</time>
      </trkpt>
      <trkpt lat="44.89025" lon="4.23607">
        <ele>971.4</ele>
        <time>2026-05-06T12:33:04Z</time>
      </trkpt>
      <trkpt lat="44.89026" lon="4.23602">
        <ele>971.5</ele>
        <time>2026-05-06T12:33:09Z</time>
      </trkpt>
      <trkpt lat="44.89026" lon="4.23595">
        <ele>971.4</ele>
        <time>2026-05-06T12:33:14Z</time>
      </trkpt>
      <trkpt lat="44.89027" lon="4.23593">
        <ele>971.6</ele>
        <time>2026-05-06T12:33:19Z</time>
      </trkpt>
      <trkpt lat="44.89029" lon="4.23589">
        <ele>972</ele>
        <time>2026-05-06T12:33:24Z</time>
      </trkpt>
      <trkpt lat="44.89032" lon="4.23585">
        <ele>972.6</ele>
        <time>2026-05-06T12:33:29Z</time>
      </trkpt>
      <trkpt lat="44.89036" lon="4.23582">
        <ele>973.3</ele>
        <time>2026-05-06T12:33:34Z</time>
      </trkpt>
      <trkpt lat="44.89037" lon="4.23575">
        <ele>973.4</ele>
        <time>2026-05-06T12:33:39Z</time>
      </trkpt>
      <trkpt lat="44.89038" lon="4.23568">
        <ele>973.6</ele>
        <time>2026-05-06T12:33:44Z</time>
      </trkpt>
      <trkpt lat="44.89039" lon="4.23559">
        <ele>973.6</ele>
        <time>2026-05-06T12:33:49Z</time>
      </trkpt>
      <trkpt lat="44.89039" lon="4.23552">
        <ele>973.6</ele>
        <time>2026-05-06T12:33:54Z</time>
      </trkpt>
      <trkpt lat="44.89042" lon="4.2354">
        <ele>974.1</ele>
        <time>2026-05-06T12:33:59Z</time>
      </trkpt>
      <trkpt lat="44.89044" lon="4.2353">
        <ele>974.4</ele>
        <time>2026-05-06T12:34:04Z</time>
      </trkpt>
      <trkpt lat="44.89046" lon="4.23522">
        <ele>974.7</ele>
        <time>2026-05-06T12:34:09Z</time>
      </trkpt>
      <trkpt lat="44.89048" lon="4.23516">
        <ele>975.1</ele>
        <time>2026-05-06T12:34:14Z</time>
      </trkpt>
      <trkpt lat="44.89051" lon="4.23511">
        <ele>975.7</ele>
        <time>2026-05-06T12:34:19Z</time>
      </trkpt>
      <trkpt lat="44.89054" lon="4.23515">
        <ele>976.4</ele>
        <time>2026-05-06T12:34:24Z</time>
      </trkpt>
      <trkpt lat="44.89055" lon="4.23523">
        <ele>976.7</ele>
        <time>2026-05-06T12:34:29Z</time>
      </trkpt>
      <trkpt lat="44.89056" lon="4.23528">
        <ele>977</ele>
        <time>2026-05-06T12:34:34Z</time>
      </trkpt>
      <trkpt lat="44.89058" lon="4.2353">
        <ele>977.4</ele>
        <time>2026-05-06T12:34:39Z</time>
      </trkpt>
      <trkpt lat="44.89061" lon="4.23533">
        <ele>978.1</ele>
        <time>2026-05-06T12:34:44Z</time>
      </trkpt>
      <trkpt lat="44.8906" lon="4.23531">
        <ele>977.9</ele>
        <time>2026-05-06T12:34:49Z</time>
      </trkpt>
      <trkpt lat="44.89056" lon="4.23525">
        <ele>977</ele>
        <time>2026-05-06T12:34:54Z</time>
      </trkpt>
      <trkpt lat="44.89053" lon="4.23518">
        <ele>976.2</ele>
        <time>2026-05-06T12:34:59Z</time>
      </trkpt>
      <trkpt lat="44.89051" lon="4.23512">
        <ele>975.7</ele>
        <time>2026-05-06T12:35:04Z</time>
      </trkpt>
      <trkpt lat="44.89051" lon="4.23502">
        <ele>975.6</ele>
        <time>2026-05-06T12:35:09Z</time>
      </trkpt>
      <trkpt lat="44.89052" lon="4.23493">
        <ele>976.3</ele>
        <time>2026-05-06T12:35:14Z</time>
      </trkpt>
      <trkpt lat="44.89055" lon="4.23488">
        <ele>977.3</ele>
        <time>2026-05-06T12:35:19Z</time>
      </trkpt>
      <trkpt lat="44.89058" lon="4.23483">
        <ele>978.3</ele>
        <time>2026-05-06T12:35:24Z</time>
      </trkpt>
      <trkpt lat="44.89061" lon="4.23482">
        <ele>979</ele>
        <time>2026-05-06T12:35:29Z</time>
      </trkpt>
      <trkpt lat="44.89063" lon="4.23487">
        <ele>979.2</ele>
        <time>2026-05-06T12:35:34Z</time>
      </trkpt>
      <trkpt lat="44.89062" lon="4.23495">
        <ele>978.5</ele>
        <time>2026-05-06T12:35:39Z</time>
      </trkpt>
      <trkpt lat="44.8906" lon="4.23497">
        <ele>977.9</ele>
        <time>2026-05-06T12:35:44Z</time>
      </trkpt>
      <trkpt lat="44.89059" lon="4.23499">
        <ele>977.5</ele>
        <time>2026-05-06T12:35:49Z</time>
      </trkpt>
      <trkpt lat="44.8906" lon="4.23506">
        <ele>977.7</ele>
        <time>2026-05-06T12:35:54Z</time>
      </trkpt>
      <trkpt lat="44.89061" lon="4.23512">
        <ele>978</ele>
        <time>2026-05-06T12:35:59Z</time>
      </trkpt>
      <trkpt lat="44.89064" lon="4.23519">
        <ele>978.7</ele>
        <time>2026-05-06T12:36:04Z</time>
      </trkpt>
      <trkpt lat="44.89067" lon="4.23521">
        <ele>979.4</ele>
        <time>2026-05-06T12:36:09Z</time>
      </trkpt>
      <trkpt lat="44.89068" lon="4.23517">
        <ele>979.6</ele>
        <time>2026-05-06T12:36:14Z</time>
      </trkpt>
      <trkpt lat="44.89068" lon="4.23511">
        <ele>979.6</ele>
        <time>2026-05-06T12:36:19Z</time>
        <extensions>
          <visugpx:TrkExtension xmlns:visugpx="https://www.visugpx.com/editgpx/">
            <visugpx:node>1</visugpx:node>
            </visugpx:TrkExtension>
        </extensions>
      </trkpt>
      <trkpt lat="44.89065" lon="4.23497">
        <ele>979</ele>
        <time>2026-05-07T05:21:12Z</time>
      </trkpt>
      <trkpt lat="44.89067" lon="4.2351">
        <ele>979.3</ele>
        <time>2026-05-07T05:21:18Z</time>
      </trkpt>
      <trkpt lat="44.89067" lon="4.2351">
        <ele>979.3</ele>
        <time>2026-05-07T05:21:23Z</time>
      </trkpt>
      <trkpt lat="44.89067" lon="4.2351">
        <ele>979.3</ele>
        <time>2026-05-07T05:21:28Z</time>
      </trkpt>
      <trkpt lat="44.89067" lon="4.2351">
        <ele>979.3</ele>
        <time>2026-05-07T05:21:33Z</time>
      </trkpt>
      <trkpt lat="44.89067" lon="4.2351">
        <ele>979.3</ele>
        <time>2026-05-07T05:21:38Z</time>
      </trkpt>
      <trkpt lat="44.89067" lon="4.2351">
        <ele>979.3</ele>
        <time>2026-05-07T05:21:43Z</time>
      </trkpt>
      <trkpt lat="44.89065" lon="4.23514">
        <ele>978.9</ele>
        <time>2026-05-07T05:21:49Z</time>
      </trkpt>
      <trkpt lat="44.89065" lon="4.23524">
        <ele>978.9</ele>
        <time>2026-05-07T05:21:54Z</time>
      </trkpt>
      <trkpt lat="44.89062" lon="4.23533">
        <ele>978.3</ele>
        <time>2026-05-07T05:21:59Z</time>
      </trkpt>
      <trkpt lat="44.89062" lon="4.23537">
        <ele>978.4</ele>
        <time>2026-05-07T05:22:04Z</time>
      </trkpt>
      <trkpt lat="44.89064" lon="4.23539">
        <ele>978.8</ele>
        <time>2026-05-07T05:22:09Z</time>
      </trkpt>
      <trkpt lat="44.8907" lon="4.23539">
        <ele>980.1</ele>
        <time>2026-05-07T05:22:14Z</time>
      </trkpt>
      <trkpt lat="44.89072" lon="4.23539">
        <ele>980.5</ele>
        <time>2026-05-07T05:22:19Z</time>
      </trkpt>
      <trkpt lat="44.89072" lon="4.23538">
        <ele>980.5</ele>
        <time>2026-05-07T05:22:24Z</time>
      </trkpt>
      <trkpt lat="44.89073" lon="4.23538">
        <ele>980.8</ele>
        <time>2026-05-07T05:22:29Z</time>
      </trkpt>
      <trkpt lat="44.89073" lon="4.23538">
        <ele>980.8</ele>
        <time>2026-05-07T05:22:34Z</time>
      </trkpt>
      <trkpt lat="44.89073" lon="4.23538">
        <ele>980.8</ele>
        <time>2026-05-07T05:22:39Z</time>
      </trkpt>
      <trkpt lat="44.89073" lon="4.23538">
        <ele>980.8</ele>
        <time>2026-05-07T05:22:44Z</time>
      </trkpt>
      <trkpt lat="44.89073" lon="4.23538">
        <ele>980.8</ele>
        <time>2026-05-07T05:22:49Z</time>
      </trkpt>
      <trkpt lat="44.89078" lon="4.23539">
        <ele>981.8</ele>
        <time>2026-05-07T05:22:54Z</time>
      </trkpt>
      <trkpt lat="44.89082" lon="4.2354">
        <ele>982.7</ele>
        <time>2026-05-07T05:22:59Z</time>
      </trkpt>
      <trkpt lat="44.89084" lon="4.23537">
        <ele>983.2</ele>
        <time>2026-05-07T05:23:04Z</time>
      </trkpt>
      <trkpt lat="44.89083" lon="4.23529">
        <ele>982.9</ele>
        <time>2026-05-07T05:23:09Z</time>
      </trkpt>
      <trkpt lat="44.89086" lon="4.23523">
        <ele>983.6</ele>
        <time>2026-05-07T05:23:14Z</time>
      </trkpt>
      <trkpt lat="44.89089" lon="4.23521">
        <ele>984.3</ele>
        <time>2026-05-07T05:23:19Z</time>
      </trkpt>
      <trkpt lat="44.89092" lon="4.23517">
        <ele>985.1</ele>
        <time>2026-05-07T05:23:24Z</time>
      </trkpt>
      <trkpt lat="44.89094" lon="4.23512">
        <ele>985.5</ele>
        <time>2026-05-07T05:23:29Z</time>
      </trkpt>
      <trkpt lat="44.89096" lon="4.23505">
        <ele>986</ele>
        <time>2026-05-07T05:23:34Z</time>
      </trkpt>
      <trkpt lat="44.89097" lon="4.23497">
        <ele>986.4</ele>
        <time>2026-05-07T05:23:39Z</time>
      </trkpt>
      <trkpt lat="44.89099" lon="4.23489">
        <ele>987.4</ele>
        <time>2026-05-07T05:23:44Z</time>
      </trkpt>
      <trkpt lat="44.891" lon="4.23482">
        <ele>988</ele>
        <time>2026-05-07T05:23:49Z</time>
      </trkpt>
      <trkpt lat="44.89102" lon="4.23474">
        <ele>988.9</ele>
        <time>2026-05-07T05:23:54Z</time>
      </trkpt>
      <trkpt lat="44.89105" lon="4.2347">
        <ele>989.8</ele>
        <time>2026-05-07T05:23:59Z</time>
      </trkpt>
      <trkpt lat="44.89106" lon="4.23468">
        <ele>990.2</ele>
        <time>2026-05-07T05:24:04Z</time>
      </trkpt>
      <trkpt lat="44.89108" lon="4.23461">
        <ele>991</ele>
        <time>2026-05-07T05:24:09Z</time>
      </trkpt>
      <trkpt lat="44.89109" lon="4.23455">
        <ele>991.5</ele>
        <time>2026-05-07T05:24:14Z</time>
      </trkpt>
      <trkpt lat="44.89108" lon="4.23448">
        <ele>991.7</ele>
        <time>2026-05-07T05:24:19Z</time>
      </trkpt>
      <trkpt lat="44.8911" lon="4.23439">
        <ele>992.6</ele>
        <time>2026-05-07T05:24:24Z</time>
      </trkpt>
      <trkpt lat="44.8911" lon="4.23431">
        <ele>993</ele>
        <time>2026-05-07T05:24:29Z</time>
      </trkpt>
      <trkpt lat="44.89114" lon="4.2343">
        <ele>993.9</ele>
        <time>2026-05-07T05:24:34Z</time>
      </trkpt>
      <trkpt lat="44.89117" lon="4.2344">
        <ele>994.1</ele>
        <time>2026-05-07T05:24:39Z</time>
      </trkpt>
      <trkpt lat="44.89118" lon="4.2345">
        <ele>993.8</ele>
        <time>2026-05-07T05:24:44Z</time>
      </trkpt>
      <trkpt lat="44.89118" lon="4.23458">
        <ele>993.4</ele>
        <time>2026-05-07T05:24:49Z</time>
      </trkpt>
      <trkpt lat="44.89119" lon="4.23466">
        <ele>993.3</ele>
        <time>2026-05-07T05:24:54Z</time>
      </trkpt>
      <trkpt lat="44.8912" lon="4.23475">
        <ele>993</ele>
        <time>2026-05-07T05:24:59Z</time>
      </trkpt>
      <trkpt lat="44.89121" lon="4.23484">
        <ele>992.8</ele>
        <time>2026-05-07T05:25:04Z</time>
      </trkpt>
      <trkpt lat="44.89122" lon="4.23493">
        <ele>992.6</ele>
        <time>2026-05-07T05:25:09Z</time>
      </trkpt>
      <trkpt lat="44.89125" lon="4.23502">
        <ele>993</ele>
        <time>2026-05-07T05:25:14Z</time>
      </trkpt>
      <trkpt lat="44.89125" lon="4.23511">
        <ele>992.9</ele>
        <time>2026-05-07T05:25:19Z</time>
      </trkpt>
      <trkpt lat="44.89126" lon="4.23522">
        <ele>993.1</ele>
        <time>2026-05-07T05:25:24Z</time>
      </trkpt>
      <trkpt lat="44.89126" lon="4.23532">
        <ele>993</ele>
        <time>2026-05-07T05:25:29Z</time>
      </trkpt>
      <trkpt lat="44.89127" lon="4.23542">
        <ele>993.2</ele>
        <time>2026-05-07T05:25:34Z</time>
      </trkpt>
      <trkpt lat="44.89127" lon="4.23551">
        <ele>993.2</ele>
        <time>2026-05-07T05:25:39Z</time>
      </trkpt>
      <trkpt lat="44.89127" lon="4.2356">
        <ele>993.1</ele>
        <time>2026-05-07T05:25:44Z</time>
      </trkpt>
      <trkpt lat="44.89127" lon="4.23569">
        <ele>993</ele>
        <time>2026-05-07T05:25:49Z</time>
      </trkpt>
      <trkpt lat="44.89128" lon="4.23577">
        <ele>993.2</ele>
        <time>2026-05-07T05:25:54Z</time>
      </trkpt>
      <trkpt lat="44.89128" lon="4.23586">
        <ele>993.2</ele>
        <time>2026-05-07T05:25:59Z</time>
      </trkpt>
      <trkpt lat="44.89127" lon="4.23594">
        <ele>993.1</ele>
        <time>2026-05-07T05:26:04Z</time>
      </trkpt>
      <trkpt lat="44.89127" lon="4.23604">
        <ele>993.2</ele>
        <time>2026-05-07T05:26:09Z</time>
      </trkpt>
      <trkpt lat="44.89128" lon="4.23614">
        <ele>993.5</ele>
        <time>2026-05-07T05:26:14Z</time>
      </trkpt>
      <trkpt lat="44.89128" lon="4.23624">
        <ele>993.6</ele>
        <time>2026-05-07T05:26:19Z</time>
      </trkpt>
      <trkpt lat="44.89129" lon="4.23634">
        <ele>993.9</ele>
        <time>2026-05-07T05:26:24Z</time>
      </trkpt>
      <trkpt lat="44.8913" lon="4.2364">
        <ele>994.2</ele>
        <time>2026-05-07T05:26:29Z</time>
      </trkpt>
      <trkpt lat="44.8913" lon="4.23644">
        <ele>994.2</ele>
        <time>2026-05-07T05:26:34Z</time>
      </trkpt>
      <trkpt lat="44.89131" lon="4.23653">
        <ele>994.5</ele>
        <time>2026-05-07T05:26:39Z</time>
      </trkpt>
      <trkpt lat="44.89137" lon="4.23652">
        <ele>995.6</ele>
        <time>2026-05-07T05:26:44Z</time>
      </trkpt>
      <trkpt lat="44.89141" lon="4.23646">
        <ele>996.3</ele>
        <time>2026-05-07T05:26:49Z</time>
      </trkpt>
      <trkpt lat="44.89145" lon="4.23639">
        <ele>997.1</ele>
        <time>2026-05-07T05:26:54Z</time>
      </trkpt>
      <trkpt lat="44.89148" lon="4.23632">
        <ele>997.7</ele>
        <time>2026-05-07T05:26:59Z</time>
      </trkpt>
      <trkpt lat="44.89151" lon="4.23626">
        <ele>998.3</ele>
        <time>2026-05-07T05:27:04Z</time>
      </trkpt>
      <trkpt lat="44.89152" lon="4.2362">
        <ele>998.5</ele>
        <time>2026-05-07T05:27:09Z</time>
      </trkpt>
      <trkpt lat="44.89154" lon="4.23614">
        <ele>999</ele>
        <time>2026-05-07T05:27:14Z</time>
      </trkpt>
      <trkpt lat="44.89157" lon="4.23608">
        <ele>999.6</ele>
        <time>2026-05-07T05:27:19Z</time>
      </trkpt>
      <trkpt lat="44.89158" lon="4.23603">
        <ele>999.9</ele>
        <time>2026-05-07T05:27:24Z</time>
      </trkpt>
      <trkpt lat="44.8916" lon="4.23597">
        <ele>1000.4</ele>
        <time>2026-05-07T05:27:29Z</time>
      </trkpt>
      <trkpt lat="44.89161" lon="4.23591">
        <ele>1000.6</ele>
        <time>2026-05-07T05:27:34Z</time>
      </trkpt>
      <trkpt lat="44.89162" lon="4.23586">
        <ele>1000.9</ele>
        <time>2026-05-07T05:27:39Z</time>
      </trkpt>
      <trkpt lat="44.89164" lon="4.2358">
        <ele>1001.4</ele>
        <time>2026-05-07T05:27:44Z</time>
      </trkpt>
      <trkpt lat="44.89167" lon="4.23573">
        <ele>1002.2</ele>
        <time>2026-05-07T05:27:49Z</time>
      </trkpt>
      <trkpt lat="44.89169" lon="4.23568">
        <ele>1002.8</ele>
        <time>2026-05-07T05:27:54Z</time>
      </trkpt>
      <trkpt lat="44.89172" lon="4.23563">
        <ele>1003.7</ele>
        <time>2026-05-07T05:27:59Z</time>
      </trkpt>
      <trkpt lat="44.89173" lon="4.23556">
        <ele>1004.1</ele>
        <time>2026-05-07T05:28:04Z</time>
      </trkpt>
      <trkpt lat="44.89175" lon="4.23549">
        <ele>1004.7</ele>
        <time>2026-05-07T05:28:09Z</time>
      </trkpt>
      <trkpt lat="44.89176" lon="4.23545">
        <ele>1005</ele>
        <time>2026-05-07T05:28:14Z</time>
      </trkpt>
      <trkpt lat="44.89177" lon="4.23539">
        <ele>1005.4</ele>
        <time>2026-05-07T05:28:19Z</time>
      </trkpt>
      <trkpt lat="44.89179" lon="4.23534">
        <ele>1006</ele>
        <time>2026-05-07T05:28:24Z</time>
      </trkpt>
      <trkpt lat="44.8918" lon="4.2353">
        <ele>1006.3</ele>
        <time>2026-05-07T05:28:29Z</time>
      </trkpt>
      <trkpt lat="44.89182" lon="4.23524">
        <ele>1006.9</ele>
        <time>2026-05-07T05:28:34Z</time>
      </trkpt>
      <trkpt lat="44.89184" lon="4.23519">
        <ele>1007.6</ele>
        <time>2026-05-07T05:28:39Z</time>
      </trkpt>
      <trkpt lat="44.89187" lon="4.23513">
        <ele>1008.5</ele>
        <time>2026-05-07T05:28:44Z</time>
      </trkpt>
      <trkpt lat="44.89189" lon="4.23508">
        <ele>1009.1</ele>
        <time>2026-05-07T05:28:49Z</time>
      </trkpt>
      <trkpt lat="44.8919" lon="4.23502">
        <ele>1009.4</ele>
        <time>2026-05-07T05:28:54Z</time>
      </trkpt>
      <trkpt lat="44.89191" lon="4.23497">
        <ele>1009.8</ele>
        <time>2026-05-07T05:28:59Z</time>
      </trkpt>
      <trkpt lat="44.89192" lon="4.2349">
        <ele>1010.4</ele>
        <time>2026-05-07T05:29:04Z</time>
      </trkpt>
      <trkpt lat="44.89194" lon="4.23483">
        <ele>1011.2</ele>
        <time>2026-05-07T05:29:09Z</time>
      </trkpt>
      <trkpt lat="44.89197" lon="4.23477">
        <ele>1012.3</ele>
        <time>2026-05-07T05:29:14Z</time>
      </trkpt>
      <trkpt lat="44.89201" lon="4.23477">
        <ele>1013.4</ele>
        <time>2026-05-07T05:29:19Z</time>
      </trkpt>
      <trkpt lat="44.89205" lon="4.2348">
        <ele>1014.4</ele>
        <time>2026-05-07T05:29:24Z</time>
      </trkpt>
      <trkpt lat="44.89207" lon="4.23484">
        <ele>1014.8</ele>
        <time>2026-05-07T05:29:29Z</time>
      </trkpt>
      <trkpt lat="44.89209" lon="4.23489">
        <ele>1015.1</ele>
        <time>2026-05-07T05:29:34Z</time>
      </trkpt>
      <trkpt lat="44.89211" lon="4.23492">
        <ele>1015.6</ele>
        <time>2026-05-07T05:29:39Z</time>
      </trkpt>
      <trkpt lat="44.89213" lon="4.23496">
        <ele>1016</ele>
        <time>2026-05-07T05:29:44Z</time>
      </trkpt>
      <trkpt lat="44.89216" lon="4.235">
        <ele>1016.6</ele>
        <time>2026-05-07T05:29:49Z</time>
      </trkpt>
      <trkpt lat="44.89219" lon="4.23504">
        <ele>1017.4</ele>
        <time>2026-05-07T05:29:54Z</time>
      </trkpt>
      <trkpt lat="44.89221" lon="4.23508">
        <ele>1017.9</ele>
        <time>2026-05-07T05:29:59Z</time>
      </trkpt>
      <trkpt lat="44.89224" lon="4.23512">
        <ele>1018.7</ele>
        <time>2026-05-07T05:30:04Z</time>
      </trkpt>
      <trkpt lat="44.89226" lon="4.23517">
        <ele>1019.2</ele>
        <time>2026-05-07T05:30:09Z</time>
      </trkpt>
      <trkpt lat="44.89228" lon="4.23522">
        <ele>1019.7</ele>
        <time>2026-05-07T05:30:14Z</time>
      </trkpt>
      <trkpt lat="44.8923" lon="4.23527">
        <ele>1020.2</ele>
        <time>2026-05-07T05:30:19Z</time>
      </trkpt>
      <trkpt lat="44.89231" lon="4.23531">
        <ele>1020.4</ele>
        <time>2026-05-07T05:30:24Z</time>
      </trkpt>
      <trkpt lat="44.89234" lon="4.23536">
        <ele>1021.2</ele>
        <time>2026-05-07T05:30:29Z</time>
      </trkpt>
      <trkpt lat="44.89237" lon="4.23539">
        <ele>1021.9</ele>
        <time>2026-05-07T05:30:34Z</time>
      </trkpt>
      <trkpt lat="44.8924" lon="4.23542">
        <ele>1022.7</ele>
        <time>2026-05-07T05:30:39Z</time>
      </trkpt>
      <trkpt lat="44.89241" lon="4.23547">
        <ele>1023</ele>
        <time>2026-05-07T05:30:44Z</time>
      </trkpt>
      <trkpt lat="44.89242" lon="4.23551">
        <ele>1023.2</ele>
        <time>2026-05-07T05:30:49Z</time>
      </trkpt>
      <trkpt lat="44.89244" lon="4.23556">
        <ele>1023.7</ele>
        <time>2026-05-07T05:30:54Z</time>
      </trkpt>
      <trkpt lat="44.89247" lon="4.23562">
        <ele>1024.4</ele>
        <time>2026-05-07T05:30:59Z</time>
      </trkpt>
      <trkpt lat="44.89251" lon="4.23567">
        <ele>1025.5</ele>
        <time>2026-05-07T05:31:04Z</time>
      </trkpt>
      <trkpt lat="44.89254" lon="4.23571">
        <ele>1026.4</ele>
        <time>2026-05-07T05:31:09Z</time>
      </trkpt>
      <trkpt lat="44.89256" lon="4.23575">
        <ele>1026.9</ele>
        <time>2026-05-07T05:31:14Z</time>
      </trkpt>
      <trkpt lat="44.89259" lon="4.2358">
        <ele>1027.7</ele>
        <time>2026-05-07T05:31:19Z</time>
      </trkpt>
      <trkpt lat="44.89259" lon="4.23588">
        <ele>1027.6</ele>
        <time>2026-05-07T05:31:24Z</time>
      </trkpt>
      <trkpt lat="44.8926" lon="4.23595">
        <ele>1027.7</ele>
        <time>2026-05-07T05:31:29Z</time>
      </trkpt>
      <trkpt lat="44.8926" lon="4.23596">
        <ele>1027.7</ele>
        <time>2026-05-07T05:31:34Z</time>
      </trkpt>
      <trkpt lat="44.89263" lon="4.23599">
        <ele>1028.5</ele>
        <time>2026-05-07T05:31:39Z</time>
      </trkpt>
      <trkpt lat="44.89265" lon="4.23607">
        <ele>1028.9</ele>
        <time>2026-05-07T05:31:44Z</time>
      </trkpt>
      <trkpt lat="44.89266" lon="4.23611">
        <ele>1029.1</ele>
        <time>2026-05-07T05:31:49Z</time>
      </trkpt>
      <trkpt lat="44.89266" lon="4.23617">
        <ele>1029</ele>
        <time>2026-05-07T05:31:54Z</time>
      </trkpt>
      <trkpt lat="44.89267" lon="4.23623">
        <ele>1029.1</ele>
        <time>2026-05-07T05:31:59Z</time>
      </trkpt>
      <trkpt lat="44.89269" lon="4.23627">
        <ele>1029.7</ele>
        <time>2026-05-07T05:32:04Z</time>
      </trkpt>
      <trkpt lat="44.89272" lon="4.23631">
        <ele>1030.5</ele>
        <time>2026-05-07T05:32:09Z</time>
      </trkpt>
      <trkpt lat="44.89273" lon="4.23635">
        <ele>1030.7</ele>
        <time>2026-05-07T05:32:14Z</time>
      </trkpt>
      <trkpt lat="44.89275" lon="4.23637">
        <ele>1031.2</ele>
        <time>2026-05-07T05:32:19Z</time>
      </trkpt>
      <trkpt lat="44.89276" lon="4.2364">
        <ele>1031.4</ele>
        <time>2026-05-07T05:32:24Z</time>
      </trkpt>
      <trkpt lat="44.89277" lon="4.23643">
        <ele>1031.7</ele>
        <time>2026-05-07T05:32:29Z</time>
      </trkpt>
      <trkpt lat="44.89279" lon="4.23647">
        <ele>1032.2</ele>
        <time>2026-05-07T05:32:34Z</time>
      </trkpt>
      <trkpt lat="44.8928" lon="4.23646">
        <ele>1032.5</ele>
        <time>2026-05-07T05:32:39Z</time>
      </trkpt>
      <trkpt lat="44.8928" lon="4.23641">
        <ele>1032.6</ele>
        <time>2026-05-07T05:32:44Z</time>
      </trkpt>
      <trkpt lat="44.89281" lon="4.23636">
        <ele>1033</ele>
        <time>2026-05-07T05:32:49Z</time>
      </trkpt>
      <trkpt lat="44.89283" lon="4.2363">
        <ele>1033.8</ele>
        <time>2026-05-07T05:32:54Z</time>
      </trkpt>
      <trkpt lat="44.89285" lon="4.23624">
        <ele>1034.5</ele>
        <time>2026-05-07T05:32:59Z</time>
      </trkpt>
      <trkpt lat="44.89285" lon="4.23623">
        <ele>1034.5</ele>
        <time>2026-05-07T05:33:04Z</time>
      </trkpt>
      <trkpt lat="44.89285" lon="4.23622">
        <ele>1034.6</ele>
        <time>2026-05-07T05:33:09Z</time>
      </trkpt>
      <trkpt lat="44.89285" lon="4.23619">
        <ele>1034.6</ele>
        <time>2026-05-07T05:33:14Z</time>
      </trkpt>
      <trkpt lat="44.89286" lon="4.23615">
        <ele>1035</ele>
        <time>2026-05-07T05:33:19Z</time>
      </trkpt>
      <trkpt lat="44.89286" lon="4.23615">
        <ele>1035</ele>
        <time>2026-05-07T05:33:24Z</time>
      </trkpt>
      <trkpt lat="44.89286" lon="4.23615">
        <ele>1035</ele>
        <time>2026-05-07T05:33:29Z</time>
      </trkpt>
      <trkpt lat="44.89286" lon="4.23615">
        <ele>1035</ele>
        <time>2026-05-07T05:33:34Z</time>
      </trkpt>
      <trkpt lat="44.89286" lon="4.23615">
        <ele>1035</ele>
        <time>2026-05-07T05:33:39Z</time>
      </trkpt>
      <trkpt lat="44.89288" lon="4.23609">
        <ele>1035.8</ele>
        <time>2026-05-07T05:33:44Z</time>
      </trkpt>
      <trkpt lat="44.89289" lon="4.23604">
        <ele>1036.2</ele>
        <time>2026-05-07T05:33:49Z</time>
      </trkpt>
      <trkpt lat="44.8929" lon="4.23601">
        <ele>1036.6</ele>
        <time>2026-05-07T05:33:54Z</time>
      </trkpt>
      <trkpt lat="44.89295" lon="4.23597">
        <ele>1038.2</ele>
        <time>2026-05-07T05:33:59Z</time>
      </trkpt>
      <trkpt lat="44.89297" lon="4.23594">
        <ele>1038.8</ele>
        <time>2026-05-07T05:34:04Z</time>
      </trkpt>
      <trkpt lat="44.89299" lon="4.23592">
        <ele>1039.5</ele>
        <time>2026-05-07T05:34:09Z</time>
      </trkpt>
      <trkpt lat="44.89302" lon="4.23592">
        <ele>1040.4</ele>
        <time>2026-05-07T05:34:14Z</time>
      </trkpt>
      <trkpt lat="44.89304" lon="4.2359">
        <ele>1041</ele>
        <time>2026-05-07T05:34:19Z</time>
      </trkpt>
      <trkpt lat="44.89306" lon="4.23587">
        <ele>1041.7</ele>
        <time>2026-05-07T05:34:24Z</time>
      </trkpt>
      <trkpt lat="44.89308" lon="4.23587">
        <ele>1042.3</ele>
        <time>2026-05-07T05:34:29Z</time>
      </trkpt>
      <trkpt lat="44.89311" lon="4.23584">
        <ele>1043.3</ele>
        <time>2026-05-07T05:34:34Z</time>
      </trkpt>
      <trkpt lat="44.89312" lon="4.2358">
        <ele>1043.7</ele>
        <time>2026-05-07T05:34:39Z</time>
      </trkpt>
      <trkpt lat="44.89312" lon="4.2358">
        <ele>1043.7</ele>
        <time>2026-05-07T05:34:44Z</time>
      </trkpt>
      <trkpt lat="44.89312" lon="4.2358">
        <ele>1043.7</ele>
        <time>2026-05-07T05:34:49Z</time>
      </trkpt>
      <trkpt lat="44.89312" lon="4.2358">
        <ele>1043.7</ele>
        <time>2026-05-07T05:34:54Z</time>
      </trkpt>
      <trkpt lat="44.89312" lon="4.2358">
        <ele>1043.7</ele>
        <time>2026-05-07T05:34:59Z</time>
      </trkpt>
      <trkpt lat="44.89312" lon="4.2358">
        <ele>1043.7</ele>
        <time>2026-05-07T05:35:04Z</time>
      </trkpt>
      <trkpt lat="44.89312" lon="4.2358">
        <ele>1043.7</ele>
        <time>2026-05-07T05:35:09Z</time>
      </trkpt>
      <trkpt lat="44.89312" lon="4.2358">
        <ele>1043.7</ele>
        <time>2026-05-07T05:35:14Z</time>
      </trkpt>
      <trkpt lat="44.89312" lon="4.2358">
        <ele>1043.7</ele>
        <time>2026-05-07T05:35:19Z</time>
      </trkpt>
      <trkpt lat="44.89313" lon="4.23568">
        <ele>1044.2</ele>
        <time>2026-05-07T05:35:24Z</time>
      </trkpt>
      <trkpt lat="44.8931" lon="4.23565">
        <ele>1043.4</ele>
        <time>2026-05-07T05:35:29Z</time>
      </trkpt>
      <trkpt lat="44.89308" lon="4.23563">
        <ele>1042.8</ele>
        <time>2026-05-07T05:35:34Z</time>
      </trkpt>
      <trkpt lat="44.89306" lon="4.2356">
        <ele>1042.3</ele>
        <time>2026-05-07T05:35:39Z</time>
      </trkpt>
      <trkpt lat="44.89305" lon="4.23555">
        <ele>1042.1</ele>
        <time>2026-05-07T05:35:44Z</time>
      </trkpt>
      <trkpt lat="44.89303" lon="4.23553">
        <ele>1041.5</ele>
        <time>2026-05-07T05:35:49Z</time>
      </trkpt>
      <trkpt lat="44.893" lon="4.23548">
        <ele>1040.7</ele>
        <time>2026-05-07T05:35:54Z</time>
      </trkpt>
      <trkpt lat="44.89299" lon="4.23544">
        <ele>1040.4</ele>
        <time>2026-05-07T05:35:59Z</time>
      </trkpt>
      <trkpt lat="44.89298" lon="4.23542">
        <ele>1040.2</ele>
        <time>2026-05-07T05:36:04Z</time>
      </trkpt>
      <trkpt lat="44.89296" lon="4.23538">
        <ele>1039.6</ele>
        <time>2026-05-07T05:36:09Z</time>
      </trkpt>
      <trkpt lat="44.89295" lon="4.23534">
        <ele>1039.4</ele>
        <time>2026-05-07T05:36:14Z</time>
      </trkpt>
      <trkpt lat="44.89292" lon="4.2353">
        <ele>1038.6</ele>
        <time>2026-05-07T05:36:19Z</time>
      </trkpt>
      <trkpt lat="44.8929" lon="4.23527">
        <ele>1038</ele>
        <time>2026-05-07T05:36:24Z</time>
      </trkpt>
      <trkpt lat="44.89288" lon="4.23523">
        <ele>1037.5</ele>
        <time>2026-05-07T05:36:29Z</time>
      </trkpt>
      <trkpt lat="44.89287" lon="4.2352">
        <ele>1037.2</ele>
        <time>2026-05-07T05:36:34Z</time>
      </trkpt>
      <trkpt lat="44.89287" lon="4.2352">
        <ele>1037.2</ele>
        <time>2026-05-07T05:36:39Z</time>
      </trkpt>
      <trkpt lat="44.89287" lon="4.2352">
        <ele>1037.2</ele>
        <time>2026-05-07T05:36:44Z</time>
      </trkpt>
      <trkpt lat="44.89281" lon="4.2351">
        <ele>1035.5</ele>
        <time>2026-05-07T05:36:49Z</time>
      </trkpt>
      <trkpt lat="44.89279" lon="4.23505">
        <ele>1035</ele>
        <time>2026-05-07T05:36:54Z</time>
      </trkpt>
      <trkpt lat="44.89276" lon="4.23499">
        <ele>1034.2</ele>
        <time>2026-05-07T05:36:59Z</time>
      </trkpt>
      <trkpt lat="44.89273" lon="4.23493">
        <ele>1033.5</ele>
        <time>2026-05-07T05:37:04Z</time>
      </trkpt>
      <trkpt lat="44.89271" lon="4.23491">
        <ele>1033</ele>
        <time>2026-05-07T05:37:09Z</time>
      </trkpt>
      <trkpt lat="44.89268" lon="4.23487">
        <ele>1032.2</ele>
        <time>2026-05-07T05:37:14Z</time>
      </trkpt>
      <trkpt lat="44.89268" lon="4.23487">
        <ele>1032.2</ele>
        <time>2026-05-07T05:37:19Z</time>
      </trkpt>
      <trkpt lat="44.89268" lon="4.23487">
        <ele>1032.2</ele>
        <time>2026-05-07T05:37:24Z</time>
      </trkpt>
      <trkpt lat="44.89265" lon="4.23487">
        <ele>1031.3</ele>
        <time>2026-05-07T05:37:29Z</time>
      </trkpt>
      <trkpt lat="44.89263" lon="4.23484">
        <ele>1030.8</ele>
        <time>2026-05-07T05:37:34Z</time>
      </trkpt>
      <trkpt lat="44.89261" lon="4.23478">
        <ele>1030.5</ele>
        <time>2026-05-07T05:37:39Z</time>
      </trkpt>
      <trkpt lat="44.8926" lon="4.23472">
        <ele>1030.4</ele>
        <time>2026-05-07T05:37:44Z</time>
      </trkpt>
      <trkpt lat="44.89258" lon="4.23466">
        <ele>1030.1</ele>
        <time>2026-05-07T05:37:49Z</time>
      </trkpt>
      <trkpt lat="44.89258" lon="4.2346">
        <ele>1030.4</ele>
        <time>2026-05-07T05:37:54Z</time>
      </trkpt>
      <trkpt lat="44.89258" lon="4.23454">
        <ele>1030.7</ele>
        <time>2026-05-07T05:37:59Z</time>
      </trkpt>
      <trkpt lat="44.89257" lon="4.23446">
        <ele>1030.7</ele>
        <time>2026-05-07T05:38:04Z</time>
      </trkpt>
      <trkpt lat="44.89253" lon="4.23438">
        <ele>1029.9</ele>
        <time>2026-05-07T05:38:09Z</time>
      </trkpt>
      <trkpt lat="44.89252" lon="4.23431">
        <ele>1029.9</ele>
        <time>2026-05-07T05:38:14Z</time>
      </trkpt>
      <trkpt lat="44.89253" lon="4.23425">
        <ele>1030.5</ele>
        <time>2026-05-07T05:38:19Z</time>
      </trkpt>
      <trkpt lat="44.89255" lon="4.23418">
        <ele>1031.4</ele>
        <time>2026-05-07T05:38:24Z</time>
      </trkpt>
      <trkpt lat="44.89256" lon="4.23413">
        <ele>1032.2</ele>
        <time>2026-05-07T05:38:29Z</time>
      </trkpt>
      <trkpt lat="44.89258" lon="4.23408">
        <ele>1033.4</ele>
        <time>2026-05-07T05:38:34Z</time>
      </trkpt>
      <trkpt lat="44.89258" lon="4.23402">
        <ele>1034</ele>
        <time>2026-05-07T05:38:39Z</time>
      </trkpt>
      <trkpt lat="44.89259" lon="4.23397">
        <ele>1034.9</ele>
        <time>2026-05-07T05:38:44Z</time>
      </trkpt>
      <trkpt lat="44.8926" lon="4.23392">
        <ele>1035.7</ele>
        <time>2026-05-07T05:38:49Z</time>
      </trkpt>
      <trkpt lat="44.89261" lon="4.23387">
        <ele>1036.6</ele>
        <time>2026-05-07T05:38:54Z</time>
      </trkpt>
      <trkpt lat="44.89262" lon="4.23382">
        <ele>1037.5</ele>
        <time>2026-05-07T05:38:59Z</time>
      </trkpt>
      <trkpt lat="44.89262" lon="4.23376">
        <ele>1038.1</ele>
        <time>2026-05-07T05:39:04Z</time>
      </trkpt>
      <trkpt lat="44.89264" lon="4.23369">
        <ele>1039.5</ele>
        <time>2026-05-07T05:39:09Z</time>
      </trkpt>
      <trkpt lat="44.89263" lon="4.23363">
        <ele>1039.9</ele>
        <time>2026-05-07T05:39:14Z</time>
      </trkpt>
      <trkpt lat="44.89262" lon="4.23356">
        <ele>1040.4</ele>
        <time>2026-05-07T05:39:19Z</time>
      </trkpt>
      <trkpt lat="44.8926" lon="4.23349">
        <ele>1040.5</ele>
        <time>2026-05-07T05:39:24Z</time>
      </trkpt>
      <trkpt lat="44.89259" lon="4.23342">
        <ele>1041</ele>
        <time>2026-05-07T05:39:29Z</time>
      </trkpt>
      <trkpt lat="44.89256" lon="4.23337">
        <ele>1040.5</ele>
        <time>2026-05-07T05:39:34Z</time>
      </trkpt>
      <trkpt lat="44.89255" lon="4.23331">
        <ele>1040.7</ele>
        <time>2026-05-07T05:39:39Z</time>
      </trkpt>
      <trkpt lat="44.89252" lon="4.23328">
        <ele>1039.9</ele>
        <time>2026-05-07T05:39:44Z</time>
      </trkpt>
      <trkpt lat="44.8925" lon="4.23324">
        <ele>1039.4</ele>
        <time>2026-05-07T05:39:49Z</time>
      </trkpt>
      <trkpt lat="44.89248" lon="4.23318">
        <ele>1039.1</ele>
        <time>2026-05-07T05:39:54Z</time>
      </trkpt>
      <trkpt lat="44.89247" lon="4.23314">
        <ele>1039</ele>
        <time>2026-05-07T05:39:59Z</time>
      </trkpt>
      <trkpt lat="44.89246" lon="4.23309">
        <ele>1038.9</ele>
        <time>2026-05-07T05:40:04Z</time>
      </trkpt>
      <trkpt lat="44.89245" lon="4.23305">
        <ele>1038.8</ele>
        <time>2026-05-07T05:40:09Z</time>
      </trkpt>
      <trkpt lat="44.89246" lon="4.23299">
        <ele>1039.4</ele>
        <time>2026-05-07T05:40:14Z</time>
      </trkpt>
      <trkpt lat="44.89245" lon="4.23295">
        <ele>1039.3</ele>
        <time>2026-05-07T05:40:19Z</time>
      </trkpt>
      <trkpt lat="44.89245" lon="4.23292">
        <ele>1039.4</ele>
        <time>2026-05-07T05:40:24Z</time>
      </trkpt>
      <trkpt lat="44.89247" lon="4.23288">
        <ele>1040.2</ele>
        <time>2026-05-07T05:40:29Z</time>
      </trkpt>
      <trkpt lat="44.89248" lon="4.23285">
        <ele>1040.7</ele>
        <time>2026-05-07T05:40:34Z</time>
      </trkpt>
      <trkpt lat="44.89249" lon="4.23282">
        <ele>1041.1</ele>
        <time>2026-05-07T05:40:39Z</time>
      </trkpt>
      <trkpt lat="44.89249" lon="4.23282">
        <ele>1041.1</ele>
        <time>2026-05-07T05:40:44Z</time>
      </trkpt>
      <trkpt lat="44.89249" lon="4.23282">
        <ele>1041.1</ele>
        <time>2026-05-07T05:40:49Z</time>
      </trkpt>
      <trkpt lat="44.89249" lon="4.23282">
        <ele>1041.1</ele>
        <time>2026-05-07T05:40:54Z</time>
      </trkpt>
      <trkpt lat="44.89256" lon="4.23276">
        <ele>1043.7</ele>
        <time>2026-05-07T05:40:59Z</time>
      </trkpt>
      <trkpt lat="44.8926" lon="4.23274">
        <ele>1045.1</ele>
        <time>2026-05-07T05:41:04Z</time>
      </trkpt>
      <trkpt lat="44.89265" lon="4.23272">
        <ele>1046.8</ele>
        <time>2026-05-07T05:41:09Z</time>
      </trkpt>
      <trkpt lat="44.89268" lon="4.23271">
        <ele>1047.8</ele>
        <time>2026-05-07T05:41:14Z</time>
      </trkpt>
      <trkpt lat="44.89271" lon="4.23271">
        <ele>1048.8</ele>
        <time>2026-05-07T05:41:19Z</time>
      </trkpt>
      <trkpt lat="44.89275" lon="4.23269">
        <ele>1050.2</ele>
        <time>2026-05-07T05:41:24Z</time>
      </trkpt>
      <trkpt lat="44.89278" lon="4.23265">
        <ele>1051.4</ele>
        <time>2026-05-07T05:41:29Z</time>
      </trkpt>
      <trkpt lat="44.89278" lon="4.23259">
        <ele>1051.6</ele>
        <time>2026-05-07T05:41:34Z</time>
      </trkpt>
      <trkpt lat="44.89279" lon="4.23254">
        <ele>1052.2</ele>
        <time>2026-05-07T05:41:39Z</time>
      </trkpt>
      <trkpt lat="44.8928" lon="4.2325">
        <ele>1052.7</ele>
        <time>2026-05-07T05:41:44Z</time>
      </trkpt>
      <trkpt lat="44.89282" lon="4.23245">
        <ele>1053.2</ele>
        <time>2026-05-07T05:41:49Z</time>
      </trkpt>
      <trkpt lat="44.89283" lon="4.23239">
        <ele>1053.3</ele>
        <time>2026-05-07T05:41:54Z</time>
      </trkpt>
      <trkpt lat="44.89285" lon="4.23234">
        <ele>1053.7</ele>
        <time>2026-05-07T05:41:59Z</time>
      </trkpt>
      <trkpt lat="44.89288" lon="4.23228">
        <ele>1054.4</ele>
        <time>2026-05-07T05:42:04Z</time>
      </trkpt>
      <trkpt lat="44.89291" lon="4.23226">
        <ele>1055.3</ele>
        <time>2026-05-07T05:42:09Z</time>
      </trkpt>
      <trkpt lat="44.89296" lon="4.23225">
        <ele>1056.8</ele>
        <time>2026-05-07T05:42:14Z</time>
      </trkpt>
      <trkpt lat="44.89301" lon="4.23223">
        <ele>1058.3</ele>
        <time>2026-05-07T05:42:19Z</time>
      </trkpt>
      <trkpt lat="44.89304" lon="4.23222">
        <ele>1059.2</ele>
        <time>2026-05-07T05:42:24Z</time>
      </trkpt>
      <trkpt lat="44.89304" lon="4.23222">
        <ele>1059.2</ele>
        <time>2026-05-07T05:42:29Z</time>
      </trkpt>
      <trkpt lat="44.89304" lon="4.23222">
        <ele>1059.2</ele>
        <time>2026-05-07T05:42:34Z</time>
      </trkpt>
      <trkpt lat="44.89304" lon="4.23222">
        <ele>1059.2</ele>
        <time>2026-05-07T05:42:39Z</time>
      </trkpt>
      <trkpt lat="44.89304" lon="4.23222">
        <ele>1059.2</ele>
        <time>2026-05-07T05:42:44Z</time>
      </trkpt>
      <trkpt lat="44.89304" lon="4.23222">
        <ele>1059.2</ele>
        <time>2026-05-07T05:42:49Z</time>
      </trkpt>
      <trkpt lat="44.89304" lon="4.23222">
        <ele>1059.2</ele>
        <time>2026-05-07T05:42:54Z</time>
      </trkpt>
      <trkpt lat="44.89304" lon="4.23222">
        <ele>1059.2</ele>
        <time>2026-05-07T05:42:59Z</time>
      </trkpt>
      <trkpt lat="44.89304" lon="4.23222">
        <ele>1059.2</ele>
        <time>2026-05-07T05:43:04Z</time>
      </trkpt>
      <trkpt lat="44.89304" lon="4.23222">
        <ele>1059.2</ele>
        <time>2026-05-07T05:43:09Z</time>
      </trkpt>
      <trkpt lat="44.89304" lon="4.23222">
        <ele>1059.2</ele>
        <time>2026-05-07T05:43:14Z</time>
      </trkpt>
      <trkpt lat="44.89304" lon="4.23222">
        <ele>1059.2</ele>
        <time>2026-05-07T05:43:19Z</time>
      </trkpt>
      <trkpt lat="44.89304" lon="4.23222">
        <ele>1059.2</ele>
        <time>2026-05-07T05:43:24Z</time>
      </trkpt>
      <trkpt lat="44.89304" lon="4.23222">
        <ele>1059.2</ele>
        <time>2026-05-07T05:43:29Z</time>
      </trkpt>
      <trkpt lat="44.89304" lon="4.23222">
        <ele>1059.2</ele>
        <time>2026-05-07T05:43:34Z</time>
      </trkpt>
      <trkpt lat="44.89304" lon="4.23222">
        <ele>1059.2</ele>
        <time>2026-05-07T05:43:39Z</time>
      </trkpt>
      <trkpt lat="44.89304" lon="4.23222">
        <ele>1059.2</ele>
        <time>2026-05-07T05:43:44Z</time>
      </trkpt>
      <trkpt lat="44.89304" lon="4.23222">
        <ele>1059.2</ele>
        <time>2026-05-07T05:43:49Z</time>
      </trkpt>
      <trkpt lat="44.89304" lon="4.23222">
        <ele>1059.2</ele>
        <time>2026-05-07T05:43:54Z</time>
      </trkpt>
      <trkpt lat="44.89304" lon="4.23222">
        <ele>1059.2</ele>
        <time>2026-05-07T05:43:59Z</time>
      </trkpt>
      <trkpt lat="44.89304" lon="4.23222">
        <ele>1059.2</ele>
        <time>2026-05-07T05:44:04Z</time>
      </trkpt>
      <trkpt lat="44.89304" lon="4.23222">
        <ele>1059.2</ele>
        <time>2026-05-07T05:44:09Z</time>
      </trkpt>
      <trkpt lat="44.89304" lon="4.23222">
        <ele>1059.2</ele>
        <time>2026-05-07T05:44:14Z</time>
      </trkpt>
      <trkpt lat="44.89304" lon="4.2321">
        <ele>1058.6</ele>
        <time>2026-05-07T05:44:19Z</time>
      </trkpt>
      <trkpt lat="44.89308" lon="4.23204">
        <ele>1059.5</ele>
        <time>2026-05-07T05:44:24Z</time>
      </trkpt>
      <trkpt lat="44.89309" lon="4.23196">
        <ele>1059.4</ele>
        <time>2026-05-07T05:44:29Z</time>
      </trkpt>
      <trkpt lat="44.89313" lon="4.2319">
        <ele>1060.3</ele>
        <time>2026-05-07T05:44:34Z</time>
      </trkpt>
      <trkpt lat="44.89315" lon="4.23183">
        <ele>1060.6</ele>
        <time>2026-05-07T05:44:39Z</time>
      </trkpt>
      <trkpt lat="44.89316" lon="4.23177">
        <ele>1060.6</ele>
        <time>2026-05-07T05:44:44Z</time>
      </trkpt>
      <trkpt lat="44.89317" lon="4.23173">
        <ele>1060.6</ele>
        <time>2026-05-07T05:44:49Z</time>
      </trkpt>
      <trkpt lat="44.89318" lon="4.23165">
        <ele>1060.5</ele>
        <time>2026-05-07T05:44:54Z</time>
      </trkpt>
      <trkpt lat="44.8932" lon="4.23159">
        <ele>1060.9</ele>
        <time>2026-05-07T05:44:59Z</time>
      </trkpt>
      <trkpt lat="44.8932" lon="4.23153">
        <ele>1060.8</ele>
        <time>2026-05-07T05:45:04Z</time>
      </trkpt>
      <trkpt lat="44.89321" lon="4.23147">
        <ele>1060.9</ele>
        <time>2026-05-07T05:45:09Z</time>
      </trkpt>
      <trkpt lat="44.89322" lon="4.23141">
        <ele>1061</ele>
        <time>2026-05-07T05:45:14Z</time>
      </trkpt>
      <trkpt lat="44.89325" lon="4.23136">
        <ele>1061.6</ele>
        <time>2026-05-07T05:45:19Z</time>
      </trkpt>
      <trkpt lat="44.89328" lon="4.23129">
        <ele>1062.2</ele>
        <time>2026-05-07T05:45:24Z</time>
      </trkpt>
      <trkpt lat="44.89331" lon="4.23124">
        <ele>1062.8</ele>
        <time>2026-05-07T05:45:29Z</time>
      </trkpt>
      <trkpt lat="44.89334" lon="4.23118">
        <ele>1063.5</ele>
        <time>2026-05-07T05:45:34Z</time>
      </trkpt>
      <trkpt lat="44.89336" lon="4.23113">
        <ele>1064</ele>
        <time>2026-05-07T05:45:39Z</time>
      </trkpt>
      <trkpt lat="44.89339" lon="4.2311">
        <ele>1064.9</ele>
        <time>2026-05-07T05:45:44Z</time>
      </trkpt>
      <trkpt lat="44.89343" lon="4.23107">
        <ele>1066.1</ele>
        <time>2026-05-07T05:45:49Z</time>
      </trkpt>
      <trkpt lat="44.89347" lon="4.23103">
        <ele>1067.3</ele>
        <time>2026-05-07T05:45:54Z</time>
      </trkpt>
      <trkpt lat="44.89349" lon="4.23098">
        <ele>1067.8</ele>
        <time>2026-05-07T05:45:59Z</time>
      </trkpt>
      <trkpt lat="44.89352" lon="4.23093">
        <ele>1068.6</ele>
        <time>2026-05-07T05:46:04Z</time>
      </trkpt>
      <trkpt lat="44.89354" lon="4.23089">
        <ele>1069.1</ele>
        <time>2026-05-07T05:46:09Z</time>
      </trkpt>
      <trkpt lat="44.89355" lon="4.23084">
        <ele>1069.3</ele>
        <time>2026-05-07T05:46:14Z</time>
      </trkpt>
      <trkpt lat="44.89357" lon="4.23079">
        <ele>1070</ele>
        <time>2026-05-07T05:46:19Z</time>
      </trkpt>
      <trkpt lat="44.89358" lon="4.23073">
        <ele>1070.4</ele>
        <time>2026-05-07T05:46:24Z</time>
      </trkpt>
      <trkpt lat="44.89357" lon="4.23066">
        <ele>1070.2</ele>
        <time>2026-05-07T05:46:29Z</time>
      </trkpt>
      <trkpt lat="44.89358" lon="4.23061">
        <ele>1070.6</ele>
        <time>2026-05-07T05:46:34Z</time>
      </trkpt>
      <trkpt lat="44.89358" lon="4.23055">
        <ele>1070.7</ele>
        <time>2026-05-07T05:46:39Z</time>
      </trkpt>
      <trkpt lat="44.8936" lon="4.23048">
        <ele>1071.4</ele>
        <time>2026-05-07T05:46:44Z</time>
      </trkpt>
      <trkpt lat="44.89363" lon="4.23041">
        <ele>1072.4</ele>
        <time>2026-05-07T05:46:49Z</time>
      </trkpt>
      <trkpt lat="44.89365" lon="4.23034">
        <ele>1073.1</ele>
        <time>2026-05-07T05:46:54Z</time>
      </trkpt>
      <trkpt lat="44.89367" lon="4.23028">
        <ele>1073.8</ele>
        <time>2026-05-07T05:46:59Z</time>
      </trkpt>
      <trkpt lat="44.89369" lon="4.23022">
        <ele>1074.5</ele>
        <time>2026-05-07T05:47:04Z</time>
      </trkpt>
      <trkpt lat="44.89371" lon="4.23016">
        <ele>1075.2</ele>
        <time>2026-05-07T05:47:09Z</time>
      </trkpt>
      <trkpt lat="44.89373" lon="4.23009">
        <ele>1075.8</ele>
        <time>2026-05-07T05:47:14Z</time>
      </trkpt>
      <trkpt lat="44.89378" lon="4.23003">
        <ele>1077.4</ele>
        <time>2026-05-07T05:47:19Z</time>
      </trkpt>
      <trkpt lat="44.89379" lon="4.22997">
        <ele>1077.8</ele>
        <time>2026-05-07T05:47:24Z</time>
      </trkpt>
      <trkpt lat="44.89383" lon="4.22992">
        <ele>1079.2</ele>
        <time>2026-05-07T05:47:29Z</time>
      </trkpt>
      <trkpt lat="44.89385" lon="4.22985">
        <ele>1080</ele>
        <time>2026-05-07T05:47:34Z</time>
      </trkpt>
      <trkpt lat="44.89389" lon="4.22979">
        <ele>1081.3</ele>
        <time>2026-05-07T05:47:39Z</time>
      </trkpt>
      <trkpt lat="44.89393" lon="4.22974">
        <ele>1082.5</ele>
        <time>2026-05-07T05:47:44Z</time>
      </trkpt>
      <trkpt lat="44.89395" lon="4.22968">
        <ele>1083.2</ele>
        <time>2026-05-07T05:47:49Z</time>
      </trkpt>
      <trkpt lat="44.89397" lon="4.22962">
        <ele>1083.9</ele>
        <time>2026-05-07T05:47:54Z</time>
      </trkpt>
      <trkpt lat="44.89399" lon="4.22956">
        <ele>1084.5</ele>
        <time>2026-05-07T05:47:59Z</time>
      </trkpt>
      <trkpt lat="44.89402" lon="4.22952">
        <ele>1085.3</ele>
        <time>2026-05-07T05:48:04Z</time>
      </trkpt>
      <trkpt lat="44.89407" lon="4.22947">
        <ele>1086.6</ele>
        <time>2026-05-07T05:48:09Z</time>
      </trkpt>
      <trkpt lat="44.89411" lon="4.22942">
        <ele>1087.6</ele>
        <time>2026-05-07T05:48:14Z</time>
      </trkpt>
      <trkpt lat="44.89413" lon="4.22938">
        <ele>1088.1</ele>
        <time>2026-05-07T05:48:19Z</time>
      </trkpt>
      <trkpt lat="44.89416" lon="4.22933">
        <ele>1088.8</ele>
        <time>2026-05-07T05:48:24Z</time>
      </trkpt>
      <trkpt lat="44.89419" lon="4.22928">
        <ele>1089.5</ele>
        <time>2026-05-07T05:48:29Z</time>
      </trkpt>
      <trkpt lat="44.89423" lon="4.22922">
        <ele>1090.2</ele>
        <time>2026-05-07T05:48:34Z</time>
      </trkpt>
      <trkpt lat="44.89425" lon="4.2292">
        <ele>1090.6</ele>
        <time>2026-05-07T05:48:39Z</time>
      </trkpt>
      <trkpt lat="44.89425" lon="4.22918">
        <ele>1090.6</ele>
        <time>2026-05-07T05:48:44Z</time>
      </trkpt>
      <trkpt lat="44.89425" lon="4.22918">
        <ele>1090.6</ele>
        <time>2026-05-07T05:48:49Z</time>
      </trkpt>
      <trkpt lat="44.89425" lon="4.22918">
        <ele>1090.6</ele>
        <time>2026-05-07T05:48:54Z</time>
      </trkpt>
      <trkpt lat="44.89425" lon="4.22918">
        <ele>1090.6</ele>
        <time>2026-05-07T05:48:59Z</time>
      </trkpt>
      <trkpt lat="44.89425" lon="4.22917">
        <ele>1090.6</ele>
        <time>2026-05-07T05:49:04Z</time>
      </trkpt>
      <trkpt lat="44.89428" lon="4.2291">
        <ele>1091.4</ele>
        <time>2026-05-07T05:49:09Z</time>
      </trkpt>
      <trkpt lat="44.8943" lon="4.22904">
        <ele>1091.9</ele>
        <time>2026-05-07T05:49:14Z</time>
      </trkpt>
      <trkpt lat="44.89433" lon="4.22896">
        <ele>1092.7</ele>
        <time>2026-05-07T05:49:19Z</time>
      </trkpt>
      <trkpt lat="44.89436" lon="4.22889">
        <ele>1093.4</ele>
        <time>2026-05-07T05:49:24Z</time>
      </trkpt>
      <trkpt lat="44.89439" lon="4.22882">
        <ele>1094.1</ele>
        <time>2026-05-07T05:49:29Z</time>
      </trkpt>
      <trkpt lat="44.89444" lon="4.22875">
        <ele>1095.1</ele>
        <time>2026-05-07T05:49:34Z</time>
      </trkpt>
      <trkpt lat="44.89447" lon="4.22869">
        <ele>1095.7</ele>
        <time>2026-05-07T05:49:39Z</time>
      </trkpt>
      <trkpt lat="44.8945" lon="4.22862">
        <ele>1096.3</ele>
        <time>2026-05-07T05:49:44Z</time>
      </trkpt>
      <trkpt lat="44.89454" lon="4.22855">
        <ele>1097.1</ele>
        <time>2026-05-07T05:49:49Z</time>
      </trkpt>
      <trkpt lat="44.89458" lon="4.2285">
        <ele>1097.7</ele>
        <time>2026-05-07T05:49:54Z</time>
      </trkpt>
      <trkpt lat="44.89462" lon="4.22846">
        <ele>1098.4</ele>
        <time>2026-05-07T05:49:59Z</time>
      </trkpt>
      <trkpt lat="44.89466" lon="4.22842">
        <ele>1099</ele>
        <time>2026-05-07T05:50:04Z</time>
      </trkpt>
      <trkpt lat="44.8947" lon="4.22838">
        <ele>1099.7</ele>
        <time>2026-05-07T05:50:09Z</time>
      </trkpt>
      <trkpt lat="44.89474" lon="4.22836">
        <ele>1100.2</ele>
        <time>2026-05-07T05:50:14Z</time>
      </trkpt>
      <trkpt lat="44.89478" lon="4.22832">
        <ele>1101</ele>
        <time>2026-05-07T05:50:19Z</time>
      </trkpt>
      <trkpt lat="44.89482" lon="4.22828">
        <ele>1102</ele>
        <time>2026-05-07T05:50:24Z</time>
      </trkpt>
      <trkpt lat="44.89486" lon="4.22824">
        <ele>1103</ele>
        <time>2026-05-07T05:50:29Z</time>
      </trkpt>
      <trkpt lat="44.89491" lon="4.22818">
        <ele>1104.4</ele>
        <time>2026-05-07T05:50:34Z</time>
      </trkpt>
      <trkpt lat="44.89494" lon="4.22813">
        <ele>1105.4</ele>
        <time>2026-05-07T05:50:39Z</time>
      </trkpt>
      <trkpt lat="44.89497" lon="4.22808">
        <ele>1106.3</ele>
        <time>2026-05-07T05:50:44Z</time>
      </trkpt>
      <trkpt lat="44.89498" lon="4.22804">
        <ele>1106.9</ele>
        <time>2026-05-07T05:50:49Z</time>
      </trkpt>
      <trkpt lat="44.89501" lon="4.228">
        <ele>1107.7</ele>
        <time>2026-05-07T05:50:54Z</time>
      </trkpt>
      <trkpt lat="44.89503" lon="4.22798">
        <ele>1108.1</ele>
        <time>2026-05-07T05:50:59Z</time>
      </trkpt>
      <trkpt lat="44.89506" lon="4.22796">
        <ele>1108.6</ele>
        <time>2026-05-07T05:51:04Z</time>
      </trkpt>
      <trkpt lat="44.8951" lon="4.22794">
        <ele>1109.1</ele>
        <time>2026-05-07T05:51:09Z</time>
      </trkpt>
      <trkpt lat="44.89515" lon="4.22791">
        <ele>1109.8</ele>
        <time>2026-05-07T05:51:14Z</time>
      </trkpt>
      <trkpt lat="44.89518" lon="4.22788">
        <ele>1110.3</ele>
        <time>2026-05-07T05:51:19Z</time>
      </trkpt>
      <trkpt lat="44.89522" lon="4.22786">
        <ele>1110.8</ele>
        <time>2026-05-07T05:51:24Z</time>
      </trkpt>
      <trkpt lat="44.89523" lon="4.22786">
        <ele>1110.9</ele>
        <time>2026-05-07T05:51:29Z</time>
      </trkpt>
      <trkpt lat="44.89523" lon="4.22787">
        <ele>1110.8</ele>
        <time>2026-05-07T05:51:34Z</time>
      </trkpt>
      <trkpt lat="44.89528" lon="4.22783">
        <ele>1111.5</ele>
        <time>2026-05-07T05:51:39Z</time>
      </trkpt>
      <trkpt lat="44.89534" lon="4.22779">
        <ele>1112.2</ele>
        <time>2026-05-07T05:51:44Z</time>
      </trkpt>
      <trkpt lat="44.89539" lon="4.22775">
        <ele>1112.8</ele>
        <time>2026-05-07T05:51:49Z</time>
      </trkpt>
      <trkpt lat="44.89543" lon="4.2277">
        <ele>1113.4</ele>
        <time>2026-05-07T05:51:54Z</time>
      </trkpt>
      <trkpt lat="44.89548" lon="4.22767">
        <ele>1113.8</ele>
        <time>2026-05-07T05:51:59Z</time>
      </trkpt>
      <trkpt lat="44.89551" lon="4.22764">
        <ele>1114.1</ele>
        <time>2026-05-07T05:52:04Z</time>
      </trkpt>
      <trkpt lat="44.89556" lon="4.22761">
        <ele>1114.5</ele>
        <time>2026-05-07T05:52:09Z</time>
      </trkpt>
      <trkpt lat="44.89561" lon="4.22759">
        <ele>1114.9</ele>
        <time>2026-05-07T05:52:14Z</time>
      </trkpt>
      <trkpt lat="44.89566" lon="4.22758">
        <ele>1115.1</ele>
        <time>2026-05-07T05:52:19Z</time>
      </trkpt>
      <trkpt lat="44.89566" lon="4.22758">
        <ele>1115.1</ele>
        <time>2026-05-07T05:52:24Z</time>
      </trkpt>
      <trkpt lat="44.89566" lon="4.22758">
        <ele>1115.1</ele>
        <time>2026-05-07T05:52:29Z</time>
      </trkpt>
      <trkpt lat="44.89567" lon="4.22756">
        <ele>1115.2</ele>
        <time>2026-05-07T05:52:34Z</time>
      </trkpt>
      <trkpt lat="44.8957" lon="4.22755">
        <ele>1115.4</ele>
        <time>2026-05-07T05:52:39Z</time>
      </trkpt>
      <trkpt lat="44.89573" lon="4.22753">
        <ele>1115.6</ele>
        <time>2026-05-07T05:52:44Z</time>
      </trkpt>
      <trkpt lat="44.89576" lon="4.22749">
        <ele>1115.9</ele>
        <time>2026-05-07T05:52:49Z</time>
      </trkpt>
      <trkpt lat="44.89579" lon="4.22749">
        <ele>1116</ele>
        <time>2026-05-07T05:52:54Z</time>
      </trkpt>
      <trkpt lat="44.89579" lon="4.22749">
        <ele>1116</ele>
        <time>2026-05-07T05:52:59Z</time>
      </trkpt>
      <trkpt lat="44.89579" lon="4.22749">
        <ele>1116</ele>
        <time>2026-05-07T05:53:04Z</time>
      </trkpt>
      <trkpt lat="44.89579" lon="4.22749">
        <ele>1116</ele>
        <time>2026-05-07T05:53:09Z</time>
      </trkpt>
      <trkpt lat="44.89579" lon="4.22749">
        <ele>1116</ele>
        <time>2026-05-07T05:53:14Z</time>
      </trkpt>
      <trkpt lat="44.89579" lon="4.22749">
        <ele>1116</ele>
        <time>2026-05-07T05:53:19Z</time>
      </trkpt>
      <trkpt lat="44.89579" lon="4.22749">
        <ele>1116</ele>
        <time>2026-05-07T05:53:24Z</time>
      </trkpt>
      <trkpt lat="44.89579" lon="4.22749">
        <ele>1116</ele>
        <time>2026-05-07T05:53:29Z</time>
      </trkpt>
      <trkpt lat="44.89579" lon="4.22749">
        <ele>1116</ele>
        <time>2026-05-07T05:53:34Z</time>
      </trkpt>
      <trkpt lat="44.89579" lon="4.22749">
        <ele>1116</ele>
        <time>2026-05-07T05:53:39Z</time>
      </trkpt>
      <trkpt lat="44.89579" lon="4.22749">
        <ele>1116</ele>
        <time>2026-05-07T05:53:44Z</time>
      </trkpt>
      <trkpt lat="44.89579" lon="4.22749">
        <ele>1116</ele>
        <time>2026-05-07T05:53:49Z</time>
      </trkpt>
      <trkpt lat="44.89579" lon="4.22749">
        <ele>1116</ele>
        <time>2026-05-07T05:53:54Z</time>
      </trkpt>
      <trkpt lat="44.89579" lon="4.22749">
        <ele>1116</ele>
        <time>2026-05-07T05:53:59Z</time>
      </trkpt>
      <trkpt lat="44.89579" lon="4.22749">
        <ele>1116</ele>
        <time>2026-05-07T05:54:04Z</time>
      </trkpt>
      <trkpt lat="44.89579" lon="4.22749">
        <ele>1116</ele>
        <time>2026-05-07T05:54:09Z</time>
      </trkpt>
      <trkpt lat="44.89579" lon="4.22749">
        <ele>1116</ele>
        <time>2026-05-07T05:54:14Z</time>
      </trkpt>
      <trkpt lat="44.89579" lon="4.22749">
        <ele>1116</ele>
        <time>2026-05-07T05:54:19Z</time>
      </trkpt>
      <trkpt lat="44.89579" lon="4.22749">
        <ele>1116</ele>
        <time>2026-05-07T05:54:24Z</time>
      </trkpt>
      <trkpt lat="44.89579" lon="4.22749">
        <ele>1116</ele>
        <time>2026-05-07T05:54:29Z</time>
      </trkpt>
      <trkpt lat="44.89579" lon="4.22749">
        <ele>1116</ele>
        <time>2026-05-07T05:54:34Z</time>
      </trkpt>
      <trkpt lat="44.89579" lon="4.22749">
        <ele>1116</ele>
        <time>2026-05-07T05:54:39Z</time>
      </trkpt>
      <trkpt lat="44.89579" lon="4.22749">
        <ele>1116</ele>
        <time>2026-05-07T05:54:44Z</time>
      </trkpt>
      <trkpt lat="44.89579" lon="4.22749">
        <ele>1116</ele>
        <time>2026-05-07T05:54:49Z</time>
      </trkpt>
      <trkpt lat="44.89579" lon="4.22749">
        <ele>1116</ele>
        <time>2026-05-07T05:54:54Z</time>
      </trkpt>
      <trkpt lat="44.89579" lon="4.22749">
        <ele>1116</ele>
        <time>2026-05-07T05:54:59Z</time>
      </trkpt>
      <trkpt lat="44.89579" lon="4.22749">
        <ele>1116</ele>
        <time>2026-05-07T05:55:04Z</time>
      </trkpt>
      <trkpt lat="44.89579" lon="4.22749">
        <ele>1116</ele>
        <time>2026-05-07T05:55:09Z</time>
      </trkpt>
      <trkpt lat="44.89585" lon="4.22744">
        <ele>1116.8</ele>
        <time>2026-05-07T05:55:14Z</time>
      </trkpt>
      <trkpt lat="44.89591" lon="4.22739">
        <ele>1117.7</ele>
        <time>2026-05-07T05:55:19Z</time>
      </trkpt>
      <trkpt lat="44.89595" lon="4.22735">
        <ele>1118.4</ele>
        <time>2026-05-07T05:55:24Z</time>
      </trkpt>
      <trkpt lat="44.896" lon="4.2273">
        <ele>1119.2</ele>
        <time>2026-05-07T05:55:29Z</time>
      </trkpt>
      <trkpt lat="44.89606" lon="4.22723">
        <ele>1120.2</ele>
        <time>2026-05-07T05:55:34Z</time>
      </trkpt>
      <trkpt lat="44.89611" lon="4.22717">
        <ele>1121</ele>
        <time>2026-05-07T05:55:39Z</time>
      </trkpt>
      <trkpt lat="44.89614" lon="4.22717">
        <ele>1121.1</ele>
        <time>2026-05-07T05:55:44Z</time>
      </trkpt>
      <trkpt lat="44.89614" lon="4.22717">
        <ele>1121.1</ele>
        <time>2026-05-07T05:55:49Z</time>
      </trkpt>
      <trkpt lat="44.89616" lon="4.22717">
        <ele>1121.1</ele>
        <time>2026-05-07T05:55:54Z</time>
      </trkpt>
      <trkpt lat="44.89621" lon="4.22717">
        <ele>1121.3</ele>
        <time>2026-05-07T05:55:59Z</time>
      </trkpt>
      <trkpt lat="44.89626" lon="4.22717">
        <ele>1121.5</ele>
        <time>2026-05-07T05:56:04Z</time>
      </trkpt>
      <trkpt lat="44.89629" lon="4.22718">
        <ele>1121.5</ele>
        <time>2026-05-07T05:56:09Z</time>
      </trkpt>
      <trkpt lat="44.89632" lon="4.22718">
        <ele>1121.6</ele>
        <time>2026-05-07T05:56:14Z</time>
      </trkpt>
      <trkpt lat="44.89634" lon="4.22717">
        <ele>1121.8</ele>
        <time>2026-05-07T05:56:19Z</time>
      </trkpt>
      <trkpt lat="44.89639" lon="4.22717">
        <ele>1122</ele>
        <time>2026-05-07T05:56:24Z</time>
      </trkpt>
      <trkpt lat="44.89643" lon="4.22718">
        <ele>1122</ele>
        <time>2026-05-07T05:56:29Z</time>
      </trkpt>
      <trkpt lat="44.89647" lon="4.22717">
        <ele>1122.3</ele>
        <time>2026-05-07T05:56:34Z</time>
      </trkpt>
      <trkpt lat="44.89654" lon="4.22718">
        <ele>1122.5</ele>
        <time>2026-05-07T05:56:39Z</time>
      </trkpt>
      <trkpt lat="44.89662" lon="4.22717">
        <ele>1122.8</ele>
        <time>2026-05-07T05:56:44Z</time>
      </trkpt>
      <trkpt lat="44.8967" lon="4.22716">
        <ele>1122.6</ele>
        <time>2026-05-07T05:56:49Z</time>
      </trkpt>
      <trkpt lat="44.89677" lon="4.22716">
        <ele>1121.6</ele>
        <time>2026-05-07T05:56:54Z</time>
      </trkpt>
      <trkpt lat="44.89683" lon="4.22717">
        <ele>1120.7</ele>
        <time>2026-05-07T05:56:59Z</time>
      </trkpt>
      <trkpt lat="44.8969" lon="4.22716">
        <ele>1119.7</ele>
        <time>2026-05-07T05:57:04Z</time>
      </trkpt>
      <trkpt lat="44.89697" lon="4.22715">
        <ele>1118.8</ele>
        <time>2026-05-07T05:57:09Z</time>
      </trkpt>
      <trkpt lat="44.89702" lon="4.22713">
        <ele>1118.1</ele>
        <time>2026-05-07T05:57:14Z</time>
      </trkpt>
      <trkpt lat="44.8971" lon="4.2271">
        <ele>1117</ele>
        <time>2026-05-07T05:57:19Z</time>
      </trkpt>
      <trkpt lat="44.89716" lon="4.2271">
        <ele>1116.1</ele>
        <time>2026-05-07T05:57:24Z</time>
      </trkpt>
      <trkpt lat="44.89721" lon="4.22709">
        <ele>1115.3</ele>
        <time>2026-05-07T05:57:29Z</time>
      </trkpt>
      <trkpt lat="44.89727" lon="4.22709">
        <ele>1114.5</ele>
        <time>2026-05-07T05:57:34Z</time>
      </trkpt>
      <trkpt lat="44.89733" lon="4.2271">
        <ele>1113.6</ele>
        <time>2026-05-07T05:57:39Z</time>
      </trkpt>
      <trkpt lat="44.8974" lon="4.22714">
        <ele>1112.6</ele>
        <time>2026-05-07T05:57:44Z</time>
      </trkpt>
      <trkpt lat="44.89745" lon="4.22718">
        <ele>1111.9</ele>
        <time>2026-05-07T05:57:49Z</time>
      </trkpt>
      <trkpt lat="44.89748" lon="4.22726">
        <ele>1111.7</ele>
        <time>2026-05-07T05:57:54Z</time>
      </trkpt>
      <trkpt lat="44.89752" lon="4.22733">
        <ele>1111.3</ele>
        <time>2026-05-07T05:57:59Z</time>
      </trkpt>
      <trkpt lat="44.89756" lon="4.22741">
        <ele>1111</ele>
        <time>2026-05-07T05:58:04Z</time>
      </trkpt>
      <trkpt lat="44.89761" lon="4.2275">
        <ele>1110.7</ele>
        <time>2026-05-07T05:58:09Z</time>
      </trkpt>
      <trkpt lat="44.89764" lon="4.22758">
        <ele>1110.8</ele>
        <time>2026-05-07T05:58:14Z</time>
      </trkpt>
      <trkpt lat="44.89769" lon="4.22764">
        <ele>1110.6</ele>
        <time>2026-05-07T05:58:19Z</time>
      </trkpt>
      <trkpt lat="44.89774" lon="4.22771">
        <ele>1110.5</ele>
        <time>2026-05-07T05:58:24Z</time>
      </trkpt>
      <trkpt lat="44.89778" lon="4.22778">
        <ele>1110.5</ele>
        <time>2026-05-07T05:58:29Z</time>
      </trkpt>
      <trkpt lat="44.89781" lon="4.22777">
        <ele>1110.1</ele>
        <time>2026-05-07T05:58:34Z</time>
      </trkpt>
      <trkpt lat="44.89781" lon="4.22777">
        <ele>1110.1</ele>
        <time>2026-05-07T05:58:39Z</time>
      </trkpt>
      <trkpt lat="44.89781" lon="4.22777">
        <ele>1110.1</ele>
        <time>2026-05-07T05:58:44Z</time>
      </trkpt>
      <trkpt lat="44.89781" lon="4.22777">
        <ele>1110.1</ele>
        <time>2026-05-07T05:58:49Z</time>
      </trkpt>
      <trkpt lat="44.89781" lon="4.22777">
        <ele>1110.1</ele>
        <time>2026-05-07T05:58:54Z</time>
      </trkpt>
      <trkpt lat="44.89781" lon="4.22774">
        <ele>1109.9</ele>
        <time>2026-05-07T05:58:59Z</time>
      </trkpt>
      <trkpt lat="44.89782" lon="4.22774">
        <ele>1109.8</ele>
        <time>2026-05-07T05:59:04Z</time>
      </trkpt>
      <trkpt lat="44.89782" lon="4.22774">
        <ele>1109.8</ele>
        <time>2026-05-07T05:59:09Z</time>
      </trkpt>
      <trkpt lat="44.89787" lon="4.22784">
        <ele>1110</ele>
        <time>2026-05-07T05:59:14Z</time>
      </trkpt>
      <trkpt lat="44.89792" lon="4.22791">
        <ele>1109.9</ele>
        <time>2026-05-07T05:59:19Z</time>
      </trkpt>
      <trkpt lat="44.89798" lon="4.22797">
        <ele>1109.7</ele>
        <time>2026-05-07T05:59:24Z</time>
      </trkpt>
      <trkpt lat="44.89804" lon="4.22801">
        <ele>1109.4</ele>
        <time>2026-05-07T05:59:29Z</time>
      </trkpt>
      <trkpt lat="44.89809" lon="4.22806">
        <ele>1109.2</ele>
        <time>2026-05-07T05:59:34Z</time>
      </trkpt>
      <trkpt lat="44.89815" lon="4.22811">
        <ele>1109</ele>
        <time>2026-05-07T05:59:39Z</time>
      </trkpt>
      <trkpt lat="44.89821" lon="4.22816">
        <ele>1108.8</ele>
        <time>2026-05-07T05:59:44Z</time>
      </trkpt>
      <trkpt lat="44.89827" lon="4.22822">
        <ele>1108.7</ele>
        <time>2026-05-07T05:59:49Z</time>
      </trkpt>
      <trkpt lat="44.89834" lon="4.22827">
        <ele>1108.4</ele>
        <time>2026-05-07T05:59:54Z</time>
      </trkpt>
      <trkpt lat="44.89839" lon="4.22833">
        <ele>1108.2</ele>
        <time>2026-05-07T05:59:59Z</time>
      </trkpt>
      <trkpt lat="44.89844" lon="4.22839">
        <ele>1108.3</ele>
        <time>2026-05-07T06:00:04Z</time>
      </trkpt>
      <trkpt lat="44.8985" lon="4.22847">
        <ele>1108.5</ele>
        <time>2026-05-07T06:00:09Z</time>
      </trkpt>
      <trkpt lat="44.89856" lon="4.22853">
        <ele>1108.4</ele>
        <time>2026-05-07T06:00:14Z</time>
      </trkpt>
      <trkpt lat="44.89861" lon="4.22858">
        <ele>1108.4</ele>
        <time>2026-05-07T06:00:19Z</time>
      </trkpt>
      <trkpt lat="44.89866" lon="4.22864">
        <ele>1108.5</ele>
        <time>2026-05-07T06:00:24Z</time>
      </trkpt>
      <trkpt lat="44.89872" lon="4.22871">
        <ele>1108.6</ele>
        <time>2026-05-07T06:00:29Z</time>
      </trkpt>
      <trkpt lat="44.89878" lon="4.22878">
        <ele>1108.8</ele>
        <time>2026-05-07T06:00:34Z</time>
      </trkpt>
      <trkpt lat="44.89884" lon="4.22885">
        <ele>1108.9</ele>
        <time>2026-05-07T06:00:39Z</time>
      </trkpt>
      <trkpt lat="44.8989" lon="4.22893">
        <ele>1109.2</ele>
        <time>2026-05-07T06:00:44Z</time>
      </trkpt>
      <trkpt lat="44.89894" lon="4.22894">
        <ele>1108.8</ele>
        <time>2026-05-07T06:00:49Z</time>
      </trkpt>
      <trkpt lat="44.89894" lon="4.22894">
        <ele>1108.8</ele>
        <time>2026-05-07T06:00:54Z</time>
      </trkpt>
      <trkpt lat="44.89894" lon="4.22894">
        <ele>1108.8</ele>
        <time>2026-05-07T06:00:59Z</time>
      </trkpt>
      <trkpt lat="44.89894" lon="4.22894">
        <ele>1108.8</ele>
        <time>2026-05-07T06:01:04Z</time>
      </trkpt>
      <trkpt lat="44.89897" lon="4.22893">
        <ele>1108.3</ele>
        <time>2026-05-07T06:01:09Z</time>
      </trkpt>
      <trkpt lat="44.89898" lon="4.22893">
        <ele>1108.2</ele>
        <time>2026-05-07T06:01:14Z</time>
      </trkpt>
      <trkpt lat="44.89903" lon="4.22902">
        <ele>1108.7</ele>
        <time>2026-05-07T06:01:19Z</time>
      </trkpt>
      <trkpt lat="44.89906" lon="4.2291">
        <ele>1109.4</ele>
        <time>2026-05-07T06:01:24Z</time>
      </trkpt>
      <trkpt lat="44.8991" lon="4.22916">
        <ele>1109.7</ele>
        <time>2026-05-07T06:01:29Z</time>
      </trkpt>
      <trkpt lat="44.89914" lon="4.2292">
        <ele>1110</ele>
        <time>2026-05-07T06:01:34Z</time>
      </trkpt>
      <trkpt lat="44.8992" lon="4.22929">
        <ele>1110.6</ele>
        <time>2026-05-07T06:01:39Z</time>
      </trkpt>
      <trkpt lat="44.89925" lon="4.22937">
        <ele>1111</ele>
        <time>2026-05-07T06:01:44Z</time>
      </trkpt>
      <trkpt lat="44.89929" lon="4.22943">
        <ele>1111.2</ele>
        <time>2026-05-07T06:01:49Z</time>
      </trkpt>
      <trkpt lat="44.89932" lon="4.2295">
        <ele>1111.8</ele>
        <time>2026-05-07T06:01:54Z</time>
      </trkpt>
      <trkpt lat="44.89934" lon="4.22954">
        <ele>1112.1</ele>
        <time>2026-05-07T06:01:59Z</time>
      </trkpt>
      <trkpt lat="44.89939" lon="4.22958">
        <ele>1111.6</ele>
        <time>2026-05-07T06:02:04Z</time>
      </trkpt>
      <trkpt lat="44.89944" lon="4.22959">
        <ele>1110.6</ele>
        <time>2026-05-07T06:02:09Z</time>
      </trkpt>
      <trkpt lat="44.8995" lon="4.22958">
        <ele>1108.9</ele>
        <time>2026-05-07T06:02:14Z</time>
      </trkpt>
      <trkpt lat="44.89956" lon="4.2296">
        <ele>1107.8</ele>
        <time>2026-05-07T06:02:19Z</time>
      </trkpt>
      <trkpt lat="44.89962" lon="4.22965">
        <ele>1107.2</ele>
        <time>2026-05-07T06:02:24Z</time>
      </trkpt>
      <trkpt lat="44.89968" lon="4.22971">
        <ele>1106.7</ele>
        <time>2026-05-07T06:02:29Z</time>
      </trkpt>
      <trkpt lat="44.89969" lon="4.22971">
        <ele>1106.5</ele>
        <time>2026-05-07T06:02:34Z</time>
      </trkpt>
      <trkpt lat="44.89971" lon="4.22978">
        <ele>1107.1</ele>
        <time>2026-05-07T06:02:39Z</time>
      </trkpt>
      <trkpt lat="44.89977" lon="4.22987">
        <ele>1107</ele>
        <time>2026-05-07T06:02:44Z</time>
      </trkpt>
      <trkpt lat="44.89982" lon="4.22994">
        <ele>1106.8</ele>
        <time>2026-05-07T06:02:49Z</time>
      </trkpt>
      <trkpt lat="44.89986" lon="4.22997">
        <ele>1106.2</ele>
        <time>2026-05-07T06:02:54Z</time>
      </trkpt>
      <trkpt lat="44.89991" lon="4.23002">
        <ele>1105.8</ele>
        <time>2026-05-07T06:02:59Z</time>
      </trkpt>
      <trkpt lat="44.89998" lon="4.23006">
        <ele>1105</ele>
        <time>2026-05-07T06:03:04Z</time>
      </trkpt>
      <trkpt lat="44.90005" lon="4.23011">
        <ele>1104.8</ele>
        <time>2026-05-07T06:03:09Z</time>
      </trkpt>
      <trkpt lat="44.90013" lon="4.23016">
        <ele>1104.6</ele>
        <time>2026-05-07T06:03:14Z</time>
      </trkpt>
      <trkpt lat="44.9002" lon="4.2302">
        <ele>1104.3</ele>
        <time>2026-05-07T06:03:19Z</time>
      </trkpt>
      <trkpt lat="44.90028" lon="4.23023">
        <ele>1103.5</ele>
        <time>2026-05-07T06:03:24Z</time>
      </trkpt>
      <trkpt lat="44.90036" lon="4.23027">
        <ele>1103</ele>
        <time>2026-05-07T06:03:29Z</time>
      </trkpt>
      <trkpt lat="44.90042" lon="4.2303">
        <ele>1102.6</ele>
        <time>2026-05-07T06:03:34Z</time>
      </trkpt>
      <trkpt lat="44.9005" lon="4.23034">
        <ele>1102</ele>
        <time>2026-05-07T06:03:39Z</time>
      </trkpt>
      <trkpt lat="44.90057" lon="4.23038">
        <ele>1101.6</ele>
        <time>2026-05-07T06:03:44Z</time>
      </trkpt>
      <trkpt lat="44.90064" lon="4.23043">
        <ele>1101.4</ele>
        <time>2026-05-07T06:03:49Z</time>
      </trkpt>
      <trkpt lat="44.9007" lon="4.23048">
        <ele>1101.3</ele>
        <time>2026-05-07T06:03:54Z</time>
      </trkpt>
      <trkpt lat="44.90076" lon="4.23053">
        <ele>1101.2</ele>
        <time>2026-05-07T06:03:59Z</time>
      </trkpt>
      <trkpt lat="44.90083" lon="4.23059">
        <ele>1101.1</ele>
        <time>2026-05-07T06:04:04Z</time>
      </trkpt>
      <trkpt lat="44.90088" lon="4.23063">
        <ele>1100.5</ele>
        <time>2026-05-07T06:04:09Z</time>
      </trkpt>
      <trkpt lat="44.90094" lon="4.23069">
        <ele>1099.8</ele>
        <time>2026-05-07T06:04:14Z</time>
      </trkpt>
      <trkpt lat="44.90098" lon="4.23076">
        <ele>1100</ele>
        <time>2026-05-07T06:04:19Z</time>
      </trkpt>
      <trkpt lat="44.90102" lon="4.23083">
        <ele>1100.1</ele>
        <time>2026-05-07T06:04:24Z</time>
      </trkpt>
      <trkpt lat="44.90103" lon="4.23085">
        <ele>1100.2</ele>
        <time>2026-05-07T06:04:29Z</time>
      </trkpt>
      <trkpt lat="44.90103" lon="4.23087">
        <ele>1100.6</ele>
        <time>2026-05-07T06:04:34Z</time>
      </trkpt>
      <trkpt lat="44.90103" lon="4.23089">
        <ele>1101</ele>
        <time>2026-05-07T06:04:39Z</time>
      </trkpt>
      <trkpt lat="44.90105" lon="4.23091">
        <ele>1100.8</ele>
        <time>2026-05-07T06:04:44Z</time>
      </trkpt>
      <trkpt lat="44.90106" lon="4.23091">
        <ele>1100.5</ele>
        <time>2026-05-07T06:04:49Z</time>
      </trkpt>
      <trkpt lat="44.90106" lon="4.23091">
        <ele>1100.5</ele>
        <time>2026-05-07T06:04:54Z</time>
      </trkpt>
      <trkpt lat="44.90106" lon="4.23091">
        <ele>1100.5</ele>
        <time>2026-05-07T06:04:59Z</time>
      </trkpt>
      <trkpt lat="44.90106" lon="4.23091">
        <ele>1100.5</ele>
        <time>2026-05-07T06:05:04Z</time>
      </trkpt>
      <trkpt lat="44.9011" lon="4.23099">
        <ele>1100.9</ele>
        <time>2026-05-07T06:05:09Z</time>
      </trkpt>
      <trkpt lat="44.90113" lon="4.23105">
        <ele>1101.2</ele>
        <time>2026-05-07T06:05:14Z</time>
      </trkpt>
      <trkpt lat="44.90117" lon="4.23111">
        <ele>1101.1</ele>
        <time>2026-05-07T06:05:19Z</time>
      </trkpt>
      <trkpt lat="44.90121" lon="4.23118">
        <ele>1101.3</ele>
        <time>2026-05-07T06:05:24Z</time>
      </trkpt>
      <trkpt lat="44.90124" lon="4.23124">
        <ele>1101.6</ele>
        <time>2026-05-07T06:05:29Z</time>
      </trkpt>
      <trkpt lat="44.90129" lon="4.2313">
        <ele>1101.3</ele>
        <time>2026-05-07T06:05:34Z</time>
      </trkpt>
      <trkpt lat="44.90133" lon="4.23136">
        <ele>1101.2</ele>
        <time>2026-05-07T06:05:39Z</time>
      </trkpt>
      <trkpt lat="44.90136" lon="4.23143">
        <ele>1101.7</ele>
        <time>2026-05-07T06:05:44Z</time>
      </trkpt>
      <trkpt lat="44.9014" lon="4.23149">
        <ele>1101.7</ele>
        <time>2026-05-07T06:05:49Z</time>
      </trkpt>
      <trkpt lat="44.90145" lon="4.23156">
        <ele>1101.6</ele>
        <time>2026-05-07T06:05:54Z</time>
      </trkpt>
      <trkpt lat="44.9015" lon="4.23161">
        <ele>1101</ele>
        <time>2026-05-07T06:05:59Z</time>
      </trkpt>
      <trkpt lat="44.90155" lon="4.23167">
        <ele>1100.7</ele>
        <time>2026-05-07T06:06:04Z</time>
      </trkpt>
      <trkpt lat="44.9016" lon="4.23174">
        <ele>1100.7</ele>
        <time>2026-05-07T06:06:09Z</time>
      </trkpt>
      <trkpt lat="44.90164" lon="4.23181">
        <ele>1101</ele>
        <time>2026-05-07T06:06:14Z</time>
      </trkpt>
      <trkpt lat="44.90168" lon="4.23187">
        <ele>1100.9</ele>
        <time>2026-05-07T06:06:19Z</time>
      </trkpt>
      <trkpt lat="44.90172" lon="4.23194">
        <ele>1100.8</ele>
        <time>2026-05-07T06:06:24Z</time>
      </trkpt>
      <trkpt lat="44.90177" lon="4.232">
        <ele>1100.1</ele>
        <time>2026-05-07T06:06:29Z</time>
      </trkpt>
      <trkpt lat="44.90182" lon="4.23208">
        <ele>1099.8</ele>
        <time>2026-05-07T06:06:34Z</time>
      </trkpt>
      <trkpt lat="44.90187" lon="4.23214">
        <ele>1099</ele>
        <time>2026-05-07T06:06:39Z</time>
      </trkpt>
      <trkpt lat="44.90192" lon="4.23222">
        <ele>1098.5</ele>
        <time>2026-05-07T06:06:44Z</time>
      </trkpt>
      <trkpt lat="44.90196" lon="4.23229">
        <ele>1098.2</ele>
        <time>2026-05-07T06:06:49Z</time>
      </trkpt>
      <trkpt lat="44.902" lon="4.23235">
        <ele>1097.7</ele>
        <time>2026-05-07T06:06:54Z</time>
      </trkpt>
      <trkpt lat="44.90205" lon="4.23242">
        <ele>1096.9</ele>
        <time>2026-05-07T06:06:59Z</time>
      </trkpt>
      <trkpt lat="44.90208" lon="4.23249">
        <ele>1097</ele>
        <time>2026-05-07T06:07:04Z</time>
      </trkpt>
      <trkpt lat="44.90213" lon="4.23256">
        <ele>1095.9</ele>
        <time>2026-05-07T06:07:09Z</time>
      </trkpt>
      <trkpt lat="44.90216" lon="4.23262">
        <ele>1095.4</ele>
        <time>2026-05-07T06:07:14Z</time>
      </trkpt>
      <trkpt lat="44.9022" lon="4.23268">
        <ele>1094.4</ele>
        <time>2026-05-07T06:07:19Z</time>
      </trkpt>
      <trkpt lat="44.90226" lon="4.23274">
        <ele>1092.5</ele>
        <time>2026-05-07T06:07:24Z</time>
      </trkpt>
      <trkpt lat="44.90231" lon="4.2328">
        <ele>1091</ele>
        <time>2026-05-07T06:07:29Z</time>
      </trkpt>
      <trkpt lat="44.90236" lon="4.23285">
        <ele>1089.3</ele>
        <time>2026-05-07T06:07:34Z</time>
      </trkpt>
      <trkpt lat="44.90242" lon="4.23291">
        <ele>1087.2</ele>
        <time>2026-05-07T06:07:39Z</time>
      </trkpt>
      <trkpt lat="44.90247" lon="4.23297">
        <ele>1085.5</ele>
        <time>2026-05-07T06:07:44Z</time>
      </trkpt>
      <trkpt lat="44.90252" lon="4.23304">
        <ele>1084.2</ele>
        <time>2026-05-07T06:07:49Z</time>
      </trkpt>
      <trkpt lat="44.90257" lon="4.2331">
        <ele>1083.3</ele>
        <time>2026-05-07T06:07:54Z</time>
      </trkpt>
      <trkpt lat="44.90263" lon="4.23318">
        <ele>1082.3</ele>
        <time>2026-05-07T06:07:59Z</time>
      </trkpt>
      <trkpt lat="44.90268" lon="4.23325">
        <ele>1081.5</ele>
        <time>2026-05-07T06:08:04Z</time>
      </trkpt>
      <trkpt lat="44.90273" lon="4.23332">
        <ele>1080.7</ele>
        <time>2026-05-07T06:08:09Z</time>
      </trkpt>
      <trkpt lat="44.90278" lon="4.23339">
        <ele>1080.1</ele>
        <time>2026-05-07T06:08:14Z</time>
      </trkpt>
      <trkpt lat="44.9028" lon="4.23346">
        <ele>1080.4</ele>
        <time>2026-05-07T06:08:19Z</time>
      </trkpt>
      <trkpt lat="44.90285" lon="4.23352">
        <ele>1079.6</ele>
        <time>2026-05-07T06:08:24Z</time>
      </trkpt>
      <trkpt lat="44.90289" lon="4.2336">
        <ele>1079.4</ele>
        <time>2026-05-07T06:08:29Z</time>
      </trkpt>
      <trkpt lat="44.90295" lon="4.23368">
        <ele>1078.5</ele>
        <time>2026-05-07T06:08:34Z</time>
      </trkpt>
      <trkpt lat="44.903" lon="4.23373">
        <ele>1077.4</ele>
        <time>2026-05-07T06:08:39Z</time>
      </trkpt>
      <trkpt lat="44.90305" lon="4.23379">
        <ele>1076.5</ele>
        <time>2026-05-07T06:08:44Z</time>
      </trkpt>
      <trkpt lat="44.90311" lon="4.23385">
        <ele>1075.2</ele>
        <time>2026-05-07T06:08:49Z</time>
      </trkpt>
      <trkpt lat="44.90316" lon="4.2339">
        <ele>1074.1</ele>
        <time>2026-05-07T06:08:54Z</time>
      </trkpt>
      <trkpt lat="44.90322" lon="4.23395">
        <ele>1072.6</ele>
        <time>2026-05-07T06:08:59Z</time>
      </trkpt>
      <trkpt lat="44.90328" lon="4.23401">
        <ele>1071.2</ele>
        <time>2026-05-07T06:09:04Z</time>
      </trkpt>
      <trkpt lat="44.90335" lon="4.23406">
        <ele>1069.4</ele>
        <time>2026-05-07T06:09:09Z</time>
      </trkpt>
      <trkpt lat="44.9034" lon="4.23411">
        <ele>1068.6</ele>
        <time>2026-05-07T06:09:14Z</time>
      </trkpt>
      <trkpt lat="44.90345" lon="4.23419">
        <ele>1068.1</ele>
        <time>2026-05-07T06:09:19Z</time>
      </trkpt>
      <trkpt lat="44.9035" lon="4.23425">
        <ele>1067.7</ele>
        <time>2026-05-07T06:09:24Z</time>
      </trkpt>
      <trkpt lat="44.90355" lon="4.23432">
        <ele>1067.3</ele>
        <time>2026-05-07T06:09:29Z</time>
      </trkpt>
      <trkpt lat="44.9036" lon="4.2344">
        <ele>1067.1</ele>
        <time>2026-05-07T06:09:34Z</time>
      </trkpt>
      <trkpt lat="44.90363" lon="4.23449">
        <ele>1067.6</ele>
        <time>2026-05-07T06:09:39Z</time>
      </trkpt>
      <trkpt lat="44.90366" lon="4.23456">
        <ele>1067.7</ele>
        <time>2026-05-07T06:09:44Z</time>
      </trkpt>
      <trkpt lat="44.90371" lon="4.23465">
        <ele>1067.6</ele>
        <time>2026-05-07T06:09:49Z</time>
      </trkpt>
      <trkpt lat="44.90374" lon="4.23473">
        <ele>1067.9</ele>
        <time>2026-05-07T06:09:54Z</time>
      </trkpt>
      <trkpt lat="44.90376" lon="4.23481">
        <ele>1068.5</ele>
        <time>2026-05-07T06:09:59Z</time>
      </trkpt>
      <trkpt lat="44.90377" lon="4.23482">
        <ele>1068.3</ele>
        <time>2026-05-07T06:10:04Z</time>
      </trkpt>
      <trkpt lat="44.90377" lon="4.23482">
        <ele>1068.3</ele>
        <time>2026-05-07T06:10:09Z</time>
      </trkpt>
      <trkpt lat="44.90377" lon="4.23482">
        <ele>1068.3</ele>
        <time>2026-05-07T06:10:14Z</time>
      </trkpt>
      <trkpt lat="44.90377" lon="4.23482">
        <ele>1068.3</ele>
        <time>2026-05-07T06:10:19Z</time>
      </trkpt>
      <trkpt lat="44.90377" lon="4.23482">
        <ele>1068.3</ele>
        <time>2026-05-07T06:10:24Z</time>
      </trkpt>
      <trkpt lat="44.90377" lon="4.23482">
        <ele>1068.3</ele>
        <time>2026-05-07T06:10:29Z</time>
      </trkpt>
      <trkpt lat="44.90381" lon="4.23493">
        <ele>1068.7</ele>
        <time>2026-05-07T06:10:34Z</time>
      </trkpt>
      <trkpt lat="44.90381" lon="4.23493">
        <ele>1068.7</ele>
        <time>2026-05-07T06:10:39Z</time>
      </trkpt>
      <trkpt lat="44.90381" lon="4.23493">
        <ele>1068.7</ele>
        <time>2026-05-07T06:10:44Z</time>
      </trkpt>
      <trkpt lat="44.90381" lon="4.23493">
        <ele>1068.7</ele>
        <time>2026-05-07T06:10:49Z</time>
      </trkpt>
      <trkpt lat="44.90381" lon="4.23493">
        <ele>1068.7</ele>
        <time>2026-05-07T06:10:54Z</time>
      </trkpt>
      <trkpt lat="44.90381" lon="4.23493">
        <ele>1068.7</ele>
        <time>2026-05-07T06:10:59Z</time>
      </trkpt>
      <trkpt lat="44.90381" lon="4.23493">
        <ele>1068.7</ele>
        <time>2026-05-07T06:11:04Z</time>
      </trkpt>
      <trkpt lat="44.90381" lon="4.23493">
        <ele>1068.7</ele>
        <time>2026-05-07T06:11:09Z</time>
      </trkpt>
      <trkpt lat="44.90381" lon="4.23498">
        <ele>1069.4</ele>
        <time>2026-05-07T06:11:14Z</time>
      </trkpt>
      <trkpt lat="44.90382" lon="4.23502">
        <ele>1069.7</ele>
        <time>2026-05-07T06:11:19Z</time>
      </trkpt>
      <trkpt lat="44.90382" lon="4.23503">
        <ele>1069.8</ele>
        <time>2026-05-07T06:11:24Z</time>
      </trkpt>
      <trkpt lat="44.90382" lon="4.23503">
        <ele>1069.8</ele>
        <time>2026-05-07T06:11:29Z</time>
      </trkpt>
      <trkpt lat="44.90382" lon="4.23503">
        <ele>1069.8</ele>
        <time>2026-05-07T06:11:34Z</time>
      </trkpt>
      <trkpt lat="44.90382" lon="4.23503">
        <ele>1069.8</ele>
        <time>2026-05-07T06:11:39Z</time>
      </trkpt>
      <trkpt lat="44.90383" lon="4.23506">
        <ele>1069.9</ele>
        <time>2026-05-07T06:11:44Z</time>
      </trkpt>
      <trkpt lat="44.90384" lon="4.23507">
        <ele>1069.7</ele>
        <time>2026-05-07T06:11:49Z</time>
      </trkpt>
      <trkpt lat="44.90384" lon="4.23507">
        <ele>1069.7</ele>
        <time>2026-05-07T06:11:54Z</time>
      </trkpt>
      <trkpt lat="44.90384" lon="4.23507">
        <ele>1069.7</ele>
        <time>2026-05-07T06:11:59Z</time>
      </trkpt>
      <trkpt lat="44.90384" lon="4.23507">
        <ele>1069.7</ele>
        <time>2026-05-07T06:12:04Z</time>
      </trkpt>
      <trkpt lat="44.90384" lon="4.23507">
        <ele>1069.7</ele>
        <time>2026-05-07T06:12:09Z</time>
      </trkpt>
      <trkpt lat="44.90384" lon="4.23507">
        <ele>1069.7</ele>
        <time>2026-05-07T06:12:14Z</time>
      </trkpt>
      <trkpt lat="44.90384" lon="4.23507">
        <ele>1069.7</ele>
        <time>2026-05-07T06:12:19Z</time>
      </trkpt>
      <trkpt lat="44.90384" lon="4.23507">
        <ele>1069.7</ele>
        <time>2026-05-07T06:12:24Z</time>
      </trkpt>
      <trkpt lat="44.90384" lon="4.23507">
        <ele>1069.7</ele>
        <time>2026-05-07T06:12:29Z</time>
      </trkpt>
      <trkpt lat="44.90384" lon="4.23507">
        <ele>1069.7</ele>
        <time>2026-05-07T06:12:34Z</time>
      </trkpt>
      <trkpt lat="44.90384" lon="4.23507">
        <ele>1069.7</ele>
        <time>2026-05-07T06:12:39Z</time>
      </trkpt>
      <trkpt lat="44.90384" lon="4.23507">
        <ele>1069.7</ele>
        <time>2026-05-07T06:12:44Z</time>
      </trkpt>
      <trkpt lat="44.90384" lon="4.23507">
        <ele>1069.7</ele>
        <time>2026-05-07T06:12:49Z</time>
      </trkpt>
      <trkpt lat="44.90384" lon="4.23507">
        <ele>1069.7</ele>
        <time>2026-05-07T06:12:54Z</time>
      </trkpt>
      <trkpt lat="44.90384" lon="4.23507">
        <ele>1069.7</ele>
        <time>2026-05-07T06:12:59Z</time>
      </trkpt>
      <trkpt lat="44.90384" lon="4.23507">
        <ele>1069.7</ele>
        <time>2026-05-07T06:13:04Z</time>
      </trkpt>
      <trkpt lat="44.90384" lon="4.23507">
        <ele>1069.7</ele>
        <time>2026-05-07T06:13:09Z</time>
      </trkpt>
      <trkpt lat="44.90384" lon="4.23507">
        <ele>1069.7</ele>
        <time>2026-05-07T06:13:14Z</time>
      </trkpt>
      <trkpt lat="44.90384" lon="4.23507">
        <ele>1069.7</ele>
        <time>2026-05-07T06:13:19Z</time>
      </trkpt>
      <trkpt lat="44.90384" lon="4.23507">
        <ele>1069.7</ele>
        <time>2026-05-07T06:13:24Z</time>
      </trkpt>
      <trkpt lat="44.90384" lon="4.23507">
        <ele>1069.7</ele>
        <time>2026-05-07T06:13:29Z</time>
      </trkpt>
      <trkpt lat="44.90384" lon="4.23507">
        <ele>1069.7</ele>
        <time>2026-05-07T06:13:34Z</time>
      </trkpt>
      <trkpt lat="44.90384" lon="4.23507">
        <ele>1069.7</ele>
        <time>2026-05-07T06:13:39Z</time>
      </trkpt>
      <trkpt lat="44.90388" lon="4.23515">
        <ele>1069.6</ele>
        <time>2026-05-07T06:13:44Z</time>
      </trkpt>
      <trkpt lat="44.90394" lon="4.23514">
        <ele>1067.6</ele>
        <time>2026-05-07T06:13:49Z</time>
      </trkpt>
      <trkpt lat="44.90399" lon="4.23507">
        <ele>1065.2</ele>
        <time>2026-05-07T06:13:54Z</time>
      </trkpt>
      <trkpt lat="44.904" lon="4.23504">
        <ele>1064.5</ele>
        <time>2026-05-07T06:13:59Z</time>
      </trkpt>
      <trkpt lat="44.904" lon="4.23504">
        <ele>1064.5</ele>
        <time>2026-05-07T06:14:04Z</time>
      </trkpt>
      <trkpt lat="44.904" lon="4.235">
        <ele>1064</ele>
        <time>2026-05-07T06:14:09Z</time>
      </trkpt>
      <trkpt lat="44.90396" lon="4.23489">
        <ele>1063.7</ele>
        <time>2026-05-07T06:14:14Z</time>
      </trkpt>
      <trkpt lat="44.90392" lon="4.23481">
        <ele>1063.8</ele>
        <time>2026-05-07T06:14:19Z</time>
      </trkpt>
      <trkpt lat="44.90388" lon="4.23471">
        <ele>1063.5</ele>
        <time>2026-05-07T06:14:24Z</time>
      </trkpt>
      <trkpt lat="44.90386" lon="4.23462">
        <ele>1062.8</ele>
        <time>2026-05-07T06:14:29Z</time>
      </trkpt>
      <trkpt lat="44.90384" lon="4.23452">
        <ele>1062</ele>
        <time>2026-05-07T06:14:34Z</time>
      </trkpt>
      <trkpt lat="44.90383" lon="4.23444">
        <ele>1061.2</ele>
        <time>2026-05-07T06:14:39Z</time>
      </trkpt>
      <trkpt lat="44.90382" lon="4.23434">
        <ele>1060</ele>
        <time>2026-05-07T06:14:44Z</time>
      </trkpt>
      <trkpt lat="44.90379" lon="4.23424">
        <ele>1059.4</ele>
        <time>2026-05-07T06:14:49Z</time>
      </trkpt>
      <trkpt lat="44.90378" lon="4.23412">
        <ele>1058.3</ele>
        <time>2026-05-07T06:14:54Z</time>
      </trkpt>
      <trkpt lat="44.90376" lon="4.23402">
        <ele>1058.1</ele>
        <time>2026-05-07T06:14:59Z</time>
      </trkpt>
      <trkpt lat="44.90375" lon="4.23392">
        <ele>1057.6</ele>
        <time>2026-05-07T06:15:04Z</time>
      </trkpt>
      <trkpt lat="44.90374" lon="4.23382">
        <ele>1057</ele>
        <time>2026-05-07T06:15:09Z</time>
      </trkpt>
      <trkpt lat="44.90378" lon="4.23374">
        <ele>1055.4</ele>
        <time>2026-05-07T06:15:14Z</time>
      </trkpt>
      <trkpt lat="44.90385" lon="4.23373">
        <ele>1053.6</ele>
        <time>2026-05-07T06:15:19Z</time>
      </trkpt>
      <trkpt lat="44.90391" lon="4.23378">
        <ele>1052.5</ele>
        <time>2026-05-07T06:15:24Z</time>
      </trkpt>
      <trkpt lat="44.90395" lon="4.2339">
        <ele>1052.3</ele>
        <time>2026-05-07T06:15:29Z</time>
      </trkpt>
      <trkpt lat="44.90401" lon="4.23399">
        <ele>1051.3</ele>
        <time>2026-05-07T06:15:34Z</time>
      </trkpt>
      <trkpt lat="44.90406" lon="4.23404">
        <ele>1050.2</ele>
        <time>2026-05-07T06:15:39Z</time>
      </trkpt>
      <trkpt lat="44.90411" lon="4.23413">
        <ele>1049.4</ele>
        <time>2026-05-07T06:15:44Z</time>
      </trkpt>
      <trkpt lat="44.90417" lon="4.23422">
        <ele>1048.6</ele>
        <time>2026-05-07T06:15:49Z</time>
      </trkpt>
      <trkpt lat="44.90422" lon="4.23431">
        <ele>1048.7</ele>
        <time>2026-05-07T06:15:54Z</time>
      </trkpt>
      <trkpt lat="44.90427" lon="4.2344">
        <ele>1048.7</ele>
        <time>2026-05-07T06:15:59Z</time>
      </trkpt>
      <trkpt lat="44.90432" lon="4.23447">
        <ele>1048.4</ele>
        <time>2026-05-07T06:16:04Z</time>
      </trkpt>
      <trkpt lat="44.90437" lon="4.23453">
        <ele>1047.9</ele>
        <time>2026-05-07T06:16:09Z</time>
      </trkpt>
      <trkpt lat="44.90442" lon="4.23462">
        <ele>1047.7</ele>
        <time>2026-05-07T06:16:14Z</time>
      </trkpt>
      <trkpt lat="44.90445" lon="4.23472">
        <ele>1048.1</ele>
        <time>2026-05-07T06:16:19Z</time>
      </trkpt>
      <trkpt lat="44.90448" lon="4.2348">
        <ele>1048.2</ele>
        <time>2026-05-07T06:16:24Z</time>
      </trkpt>
      <trkpt lat="44.90451" lon="4.2349">
        <ele>1048.5</ele>
        <time>2026-05-07T06:16:29Z</time>
      </trkpt>
      <trkpt lat="44.90455" lon="4.235">
        <ele>1048.4</ele>
        <time>2026-05-07T06:16:34Z</time>
      </trkpt>
      <trkpt lat="44.90457" lon="4.23511">
        <ele>1048.7</ele>
        <time>2026-05-07T06:16:39Z</time>
      </trkpt>
      <trkpt lat="44.90459" lon="4.23521">
        <ele>1048.9</ele>
        <time>2026-05-07T06:16:44Z</time>
      </trkpt>
      <trkpt lat="44.90461" lon="4.2353">
        <ele>1049</ele>
        <time>2026-05-07T06:16:49Z</time>
      </trkpt>
      <trkpt lat="44.90465" lon="4.23539">
        <ele>1048.4</ele>
        <time>2026-05-07T06:16:54Z</time>
      </trkpt>
      <trkpt lat="44.90469" lon="4.23549">
        <ele>1047.9</ele>
        <time>2026-05-07T06:16:59Z</time>
      </trkpt>
      <trkpt lat="44.9047" lon="4.2356">
        <ele>1048.3</ele>
        <time>2026-05-07T06:17:04Z</time>
      </trkpt>
      <trkpt lat="44.90471" lon="4.23569">
        <ele>1048.5</ele>
        <time>2026-05-07T06:17:09Z</time>
      </trkpt>
      <trkpt lat="44.90471" lon="4.23579">
        <ele>1049.2</ele>
        <time>2026-05-07T06:17:14Z</time>
      </trkpt>
      <trkpt lat="44.90475" lon="4.23587">
        <ele>1048.1</ele>
        <time>2026-05-07T06:17:19Z</time>
      </trkpt>
      <trkpt lat="44.90478" lon="4.23598">
        <ele>1047.3</ele>
        <time>2026-05-07T06:17:24Z</time>
      </trkpt>
      <trkpt lat="44.90481" lon="4.2361">
        <ele>1046.5</ele>
        <time>2026-05-07T06:17:29Z</time>
      </trkpt>
      <trkpt lat="44.90485" lon="4.23623">
        <ele>1045.3</ele>
        <time>2026-05-07T06:17:34Z</time>
      </trkpt>
      <trkpt lat="44.9049" lon="4.23634">
        <ele>1043.6</ele>
        <time>2026-05-07T06:17:39Z</time>
      </trkpt>
      <trkpt lat="44.90492" lon="4.23643">
        <ele>1042.9</ele>
        <time>2026-05-07T06:17:44Z</time>
      </trkpt>
      <trkpt lat="44.90492" lon="4.23653">
        <ele>1043.1</ele>
        <time>2026-05-07T06:17:49Z</time>
      </trkpt>
      <trkpt lat="44.90495" lon="4.23658">
        <ele>1042</ele>
        <time>2026-05-07T06:17:54Z</time>
      </trkpt>
      <trkpt lat="44.90496" lon="4.2366">
        <ele>1041.6</ele>
        <time>2026-05-07T06:17:59Z</time>
      </trkpt>
      <trkpt lat="44.90496" lon="4.23662">
        <ele>1041.6</ele>
        <time>2026-05-07T06:18:04Z</time>
      </trkpt>
      <trkpt lat="44.90498" lon="4.2367">
        <ele>1041</ele>
        <time>2026-05-07T06:18:09Z</time>
      </trkpt>
      <trkpt lat="44.90501" lon="4.23679">
        <ele>1040.2</ele>
        <time>2026-05-07T06:18:14Z</time>
      </trkpt>
      <trkpt lat="44.90504" lon="4.23684">
        <ele>1039.6</ele>
        <time>2026-05-07T06:18:19Z</time>
      </trkpt>
      <trkpt lat="44.90505" lon="4.2369">
        <ele>1039.6</ele>
        <time>2026-05-07T06:18:24Z</time>
      </trkpt>
      <trkpt lat="44.90506" lon="4.23698">
        <ele>1039.6</ele>
        <time>2026-05-07T06:18:29Z</time>
      </trkpt>
      <trkpt lat="44.90512" lon="4.23705">
        <ele>1038.3</ele>
        <time>2026-05-07T06:18:34Z</time>
      </trkpt>
      <trkpt lat="44.90513" lon="4.2371">
        <ele>1038.2</ele>
        <time>2026-05-07T06:18:39Z</time>
      </trkpt>
      <trkpt lat="44.90513" lon="4.2371">
        <ele>1038.2</ele>
        <time>2026-05-07T06:18:44Z</time>
      </trkpt>
      <trkpt lat="44.90513" lon="4.2371">
        <ele>1038.2</ele>
        <time>2026-05-07T06:18:49Z</time>
      </trkpt>
      <trkpt lat="44.90513" lon="4.2371">
        <ele>1038.2</ele>
        <time>2026-05-07T06:18:54Z</time>
      </trkpt>
      <trkpt lat="44.90513" lon="4.2371">
        <ele>1038.2</ele>
        <time>2026-05-07T06:18:59Z</time>
      </trkpt>
      <trkpt lat="44.90513" lon="4.2371">
        <ele>1038.2</ele>
        <time>2026-05-07T06:19:04Z</time>
      </trkpt>
      <trkpt lat="44.90513" lon="4.2371">
        <ele>1038.2</ele>
        <time>2026-05-07T06:19:09Z</time>
      </trkpt>
      <trkpt lat="44.90513" lon="4.2371">
        <ele>1038.2</ele>
        <time>2026-05-07T06:19:14Z</time>
      </trkpt>
      <trkpt lat="44.90513" lon="4.2371">
        <ele>1038.2</ele>
        <time>2026-05-07T06:19:19Z</time>
      </trkpt>
      <trkpt lat="44.90517" lon="4.23718">
        <ele>1037.4</ele>
        <time>2026-05-07T06:19:24Z</time>
      </trkpt>
      <trkpt lat="44.90524" lon="4.23721">
        <ele>1035.7</ele>
        <time>2026-05-07T06:19:29Z</time>
      </trkpt>
      <trkpt lat="44.9053" lon="4.23725">
        <ele>1034.3</ele>
        <time>2026-05-07T06:19:34Z</time>
      </trkpt>
      <trkpt lat="44.90536" lon="4.23729">
        <ele>1032.8</ele>
        <time>2026-05-07T06:19:39Z</time>
      </trkpt>
      <trkpt lat="44.9054" lon="4.2373">
        <ele>1031.8</ele>
        <time>2026-05-07T06:19:44Z</time>
      </trkpt>
      <trkpt lat="44.90546" lon="4.2373">
        <ele>1030.3</ele>
        <time>2026-05-07T06:19:49Z</time>
      </trkpt>
      <trkpt lat="44.90552" lon="4.23729">
        <ele>1028.7</ele>
        <time>2026-05-07T06:19:54Z</time>
      </trkpt>
      <trkpt lat="44.90559" lon="4.23729">
        <ele>1026.8</ele>
        <time>2026-05-07T06:19:59Z</time>
      </trkpt>
      <trkpt lat="44.90564" lon="4.23728">
        <ele>1025.5</ele>
        <time>2026-05-07T06:20:04Z</time>
      </trkpt>
      <trkpt lat="44.90567" lon="4.23728">
        <ele>1024.7</ele>
        <time>2026-05-07T06:20:09Z</time>
      </trkpt>
      <trkpt lat="44.9057" lon="4.23729">
        <ele>1024</ele>
        <time>2026-05-07T06:20:14Z</time>
      </trkpt>
      <trkpt lat="44.90576" lon="4.2373">
        <ele>1022.4</ele>
        <time>2026-05-07T06:20:19Z</time>
      </trkpt>
      <trkpt lat="44.90581" lon="4.23731">
        <ele>1021.2</ele>
        <time>2026-05-07T06:20:24Z</time>
      </trkpt>
      <trkpt lat="44.90586" lon="4.23734">
        <ele>1020.1</ele>
        <time>2026-05-07T06:20:29Z</time>
      </trkpt>
      <trkpt lat="44.90593" lon="4.23734">
        <ele>1018.7</ele>
        <time>2026-05-07T06:20:34Z</time>
      </trkpt>
      <trkpt lat="44.90601" lon="4.23736">
        <ele>1017.3</ele>
        <time>2026-05-07T06:20:39Z</time>
      </trkpt>
      <trkpt lat="44.90606" lon="4.23738">
        <ele>1016.4</ele>
        <time>2026-05-07T06:20:44Z</time>
      </trkpt>
      <trkpt lat="44.90612" lon="4.23739">
        <ele>1015.3</ele>
        <time>2026-05-07T06:20:49Z</time>
      </trkpt>
      <trkpt lat="44.90614" lon="4.23741">
        <ele>1015</ele>
        <time>2026-05-07T06:20:54Z</time>
      </trkpt>
      <trkpt lat="44.9062" lon="4.23742">
        <ele>1014</ele>
        <time>2026-05-07T06:20:59Z</time>
      </trkpt>
      <trkpt lat="44.90626" lon="4.23743">
        <ele>1012.9</ele>
        <time>2026-05-07T06:21:04Z</time>
      </trkpt>
      <trkpt lat="44.90631" lon="4.23746">
        <ele>1012.2</ele>
        <time>2026-05-07T06:21:09Z</time>
      </trkpt>
      <trkpt lat="44.90635" lon="4.23746">
        <ele>1011.4</ele>
        <time>2026-05-07T06:21:14Z</time>
      </trkpt>
      <trkpt lat="44.90641" lon="4.23749">
        <ele>1010.5</ele>
        <time>2026-05-07T06:21:19Z</time>
      </trkpt>
      <trkpt lat="44.90647" lon="4.23756">
        <ele>1009.8</ele>
        <time>2026-05-07T06:21:24Z</time>
      </trkpt>
      <trkpt lat="44.90651" lon="4.23764">
        <ele>1009.5</ele>
        <time>2026-05-07T06:21:29Z</time>
      </trkpt>
      <trkpt lat="44.90654" lon="4.23765">
        <ele>1009</ele>
        <time>2026-05-07T06:21:34Z</time>
      </trkpt>
      <trkpt lat="44.90658" lon="4.23763">
        <ele>1008.2</ele>
        <time>2026-05-07T06:21:39Z</time>
      </trkpt>
      <trkpt lat="44.90659" lon="4.23762">
        <ele>1007.9</ele>
        <time>2026-05-07T06:21:44Z</time>
      </trkpt>
      <trkpt lat="44.90659" lon="4.23762">
        <ele>1007.9</ele>
        <time>2026-05-07T06:21:49Z</time>
      </trkpt>
      <trkpt lat="44.90659" lon="4.23762">
        <ele>1007.9</ele>
        <time>2026-05-07T06:21:54Z</time>
      </trkpt>
      <trkpt lat="44.90659" lon="4.23762">
        <ele>1007.9</ele>
        <time>2026-05-07T06:21:59Z</time>
      </trkpt>
      <trkpt lat="44.90659" lon="4.23762">
        <ele>1007.9</ele>
        <time>2026-05-07T06:22:04Z</time>
      </trkpt>
      <trkpt lat="44.90657" lon="4.23748">
        <ele>1007.6</ele>
        <time>2026-05-07T06:22:09Z</time>
      </trkpt>
      <trkpt lat="44.90656" lon="4.23743">
        <ele>1007.3</ele>
        <time>2026-05-07T06:22:14Z</time>
      </trkpt>
      <trkpt lat="44.90654" lon="4.23738">
        <ele>1007.3</ele>
        <time>2026-05-07T06:22:19Z</time>
      </trkpt>
      <trkpt lat="44.90654" lon="4.23738">
        <ele>1007.3</ele>
        <time>2026-05-07T06:22:24Z</time>
      </trkpt>
      <trkpt lat="44.90654" lon="4.23738">
        <ele>1007.3</ele>
        <time>2026-05-07T06:22:29Z</time>
      </trkpt>
      <trkpt lat="44.90654" lon="4.23738">
        <ele>1007.3</ele>
        <time>2026-05-07T06:22:34Z</time>
      </trkpt>
      <trkpt lat="44.90662" lon="4.23738">
        <ele>1005.7</ele>
        <time>2026-05-07T06:22:39Z</time>
      </trkpt>
      <trkpt lat="44.90662" lon="4.23744">
        <ele>1006.3</ele>
        <time>2026-05-07T06:22:44Z</time>
      </trkpt>
      <trkpt lat="44.90663" lon="4.23749">
        <ele>1006.6</ele>
        <time>2026-05-07T06:22:49Z</time>
      </trkpt>
      <trkpt lat="44.90662" lon="4.23754">
        <ele>1007</ele>
        <time>2026-05-07T06:22:54Z</time>
      </trkpt>
      <trkpt lat="44.90662" lon="4.23758">
        <ele>1007.2</ele>
        <time>2026-05-07T06:22:59Z</time>
      </trkpt>
      <trkpt lat="44.90663" lon="4.23766">
        <ele>1007.4</ele>
        <time>2026-05-07T06:23:04Z</time>
      </trkpt>
      <trkpt lat="44.90665" lon="4.23769">
        <ele>1007.2</ele>
        <time>2026-05-07T06:23:09Z</time>
      </trkpt>
      <trkpt lat="44.90667" lon="4.23765">
        <ele>1006.6</ele>
        <time>2026-05-07T06:23:14Z</time>
      </trkpt>
      <trkpt lat="44.90668" lon="4.2376">
        <ele>1006.2</ele>
        <time>2026-05-07T06:23:19Z</time>
      </trkpt>
      <trkpt lat="44.9067" lon="4.23758">
        <ele>1005.6</ele>
        <time>2026-05-07T06:23:24Z</time>
      </trkpt>
      <trkpt lat="44.9067" lon="4.23753">
        <ele>1005.3</ele>
        <time>2026-05-07T06:23:29Z</time>
      </trkpt>
      <trkpt lat="44.90671" lon="4.2375">
        <ele>1005</ele>
        <time>2026-05-07T06:23:34Z</time>
      </trkpt>
      <trkpt lat="44.90673" lon="4.23749">
        <ele>1004.4</ele>
        <time>2026-05-07T06:23:39Z</time>
      </trkpt>
      <trkpt lat="44.90675" lon="4.23753">
        <ele>1004.1</ele>
        <time>2026-05-07T06:23:44Z</time>
      </trkpt>
      <trkpt lat="44.90676" lon="4.23751">
        <ele>1003.8</ele>
        <time>2026-05-07T06:23:49Z</time>
      </trkpt>
      <trkpt lat="44.9068" lon="4.23747">
        <ele>1002.5</ele>
        <time>2026-05-07T06:23:54Z</time>
      </trkpt>
      <trkpt lat="44.90684" lon="4.23745">
        <ele>1001.4</ele>
        <time>2026-05-07T06:23:59Z</time>
      </trkpt>
      <trkpt lat="44.90686" lon="4.23747">
        <ele>1001.1</ele>
        <time>2026-05-07T06:24:04Z</time>
      </trkpt>
      <trkpt lat="44.90689" lon="4.23753">
        <ele>1000.8</ele>
        <time>2026-05-07T06:24:09Z</time>
      </trkpt>
      <trkpt lat="44.90693" lon="4.23757">
        <ele>999.9</ele>
        <time>2026-05-07T06:24:14Z</time>
      </trkpt>
      <trkpt lat="44.90698" lon="4.23755">
        <ele>998.7</ele>
        <time>2026-05-07T06:24:19Z</time>
      </trkpt>
      <trkpt lat="44.90703" lon="4.23753">
        <ele>997.4</ele>
        <time>2026-05-07T06:24:24Z</time>
      </trkpt>
      <trkpt lat="44.90707" lon="4.23749">
        <ele>996.2</ele>
        <time>2026-05-07T06:24:29Z</time>
      </trkpt>
      <trkpt lat="44.9071" lon="4.23748">
        <ele>995.4</ele>
        <time>2026-05-07T06:24:34Z</time>
      </trkpt>
      <trkpt lat="44.90714" lon="4.23748">
        <ele>994.5</ele>
        <time>2026-05-07T06:24:39Z</time>
      </trkpt>
      <trkpt lat="44.90717" lon="4.23747">
        <ele>993.7</ele>
        <time>2026-05-07T06:24:44Z</time>
      </trkpt>
      <trkpt lat="44.90717" lon="4.23747">
        <ele>993.7</ele>
        <time>2026-05-07T06:24:49Z</time>
      </trkpt>
      <trkpt lat="44.90721" lon="4.23744">
        <ele>992.4</ele>
        <time>2026-05-07T06:24:54Z</time>
      </trkpt>
      <trkpt lat="44.90726" lon="4.23742">
        <ele>991.1</ele>
        <time>2026-05-07T06:24:59Z</time>
      </trkpt>
      <trkpt lat="44.90729" lon="4.23738">
        <ele>990</ele>
        <time>2026-05-07T06:25:04Z</time>
      </trkpt>
      <trkpt lat="44.90728" lon="4.23735">
        <ele>990</ele>
        <time>2026-05-07T06:25:09Z</time>
      </trkpt>
      <trkpt lat="44.9073" lon="4.23729">
        <ele>989</ele>
        <time>2026-05-07T06:25:14Z</time>
      </trkpt>
      <trkpt lat="44.90731" lon="4.23723">
        <ele>988.2</ele>
        <time>2026-05-07T06:25:19Z</time>
      </trkpt>
      <trkpt lat="44.90731" lon="4.23716">
        <ele>987.6</ele>
        <time>2026-05-07T06:25:24Z</time>
      </trkpt>
      <trkpt lat="44.90729" lon="4.23709">
        <ele>987.5</ele>
        <time>2026-05-07T06:25:29Z</time>
      </trkpt>
      <trkpt lat="44.90727" lon="4.23706">
        <ele>987.7</ele>
        <time>2026-05-07T06:25:34Z</time>
      </trkpt>
      <trkpt lat="44.90728" lon="4.23708">
        <ele>987.6</ele>
        <time>2026-05-07T06:25:39Z</time>
      </trkpt>
      <trkpt lat="44.9073" lon="4.23715">
        <ele>987.8</ele>
        <time>2026-05-07T06:25:44Z</time>
      </trkpt>
      <trkpt lat="44.90731" lon="4.23722">
        <ele>988.1</ele>
        <time>2026-05-07T06:25:49Z</time>
      </trkpt>
      <trkpt lat="44.90731" lon="4.23728">
        <ele>988.7</ele>
        <time>2026-05-07T06:25:54Z</time>
      </trkpt>
      <trkpt lat="44.90729" lon="4.23733">
        <ele>989.6</ele>
        <time>2026-05-07T06:25:59Z</time>
      </trkpt>
      <trkpt lat="44.90727" lon="4.23738">
        <ele>990.5</ele>
        <time>2026-05-07T06:26:04Z</time>
      </trkpt>
      <trkpt lat="44.90728" lon="4.23741">
        <ele>990.5</ele>
        <time>2026-05-07T06:26:09Z</time>
      </trkpt>
      <trkpt lat="44.90728" lon="4.23743">
        <ele>990.7</ele>
        <time>2026-05-07T06:26:14Z</time>
      </trkpt>
      <trkpt lat="44.9073" lon="4.23741">
        <ele>990</ele>
        <time>2026-05-07T06:26:19Z</time>
      </trkpt>
      <trkpt lat="44.90732" lon="4.23741">
        <ele>989.5</ele>
        <time>2026-05-07T06:26:24Z</time>
      </trkpt>
      <trkpt lat="44.90736" lon="4.23744">
        <ele>988.8</ele>
        <time>2026-05-07T06:26:29Z</time>
      </trkpt>
      <trkpt lat="44.90743" lon="4.23745">
        <ele>987.3</ele>
        <time>2026-05-07T06:26:34Z</time>
      </trkpt>
      <trkpt lat="44.90748" lon="4.23749">
        <ele>986.4</ele>
        <time>2026-05-07T06:26:39Z</time>
      </trkpt>
      <trkpt lat="44.90753" lon="4.23751">
        <ele>985.3</ele>
        <time>2026-05-07T06:26:44Z</time>
      </trkpt>
      <trkpt lat="44.90758" lon="4.23747">
        <ele>983.8</ele>
        <time>2026-05-07T06:26:49Z</time>
      </trkpt>
      <trkpt lat="44.90761" lon="4.23747">
        <ele>983.1</ele>
        <time>2026-05-07T06:26:54Z</time>
      </trkpt>
      <trkpt lat="44.90761" lon="4.23747">
        <ele>983.1</ele>
        <time>2026-05-07T06:26:59Z</time>
      </trkpt>
      <trkpt lat="44.90761" lon="4.23747">
        <ele>983.1</ele>
        <time>2026-05-07T06:27:04Z</time>
      </trkpt>
      <trkpt lat="44.90763" lon="4.23744">
        <ele>982.4</ele>
        <time>2026-05-07T06:27:09Z</time>
      </trkpt>
      <trkpt lat="44.90767" lon="4.23745">
        <ele>981.5</ele>
        <time>2026-05-07T06:27:14Z</time>
      </trkpt>
      <trkpt lat="44.90772" lon="4.23749">
        <ele>980.6</ele>
        <time>2026-05-07T06:27:19Z</time>
      </trkpt>
      <trkpt lat="44.90778" lon="4.2375">
        <ele>979.3</ele>
        <time>2026-05-07T06:27:24Z</time>
      </trkpt>
      <trkpt lat="44.90786" lon="4.23748">
        <ele>977.2</ele>
        <time>2026-05-07T06:27:29Z</time>
      </trkpt>
      <trkpt lat="44.90789" lon="4.2375">
        <ele>976.6</ele>
        <time>2026-05-07T06:27:34Z</time>
      </trkpt>
      <trkpt lat="44.90788" lon="4.23749">
        <ele>976.8</ele>
        <time>2026-05-07T06:27:39Z</time>
      </trkpt>
      <trkpt lat="44.90787" lon="4.23748">
        <ele>977</ele>
        <time>2026-05-07T06:27:44Z</time>
      </trkpt>
      <trkpt lat="44.90787" lon="4.23748">
        <ele>977</ele>
        <time>2026-05-07T06:27:49Z</time>
      </trkpt>
      <trkpt lat="44.90781" lon="4.23752">
        <ele>978.6</ele>
        <time>2026-05-07T06:27:54Z</time>
      </trkpt>
      <trkpt lat="44.90775" lon="4.23754">
        <ele>980.1</ele>
        <time>2026-05-07T06:27:59Z</time>
      </trkpt>
      <trkpt lat="44.90769" lon="4.23754">
        <ele>981.6</ele>
        <time>2026-05-07T06:28:04Z</time>
      </trkpt>
      <trkpt lat="44.90766" lon="4.23755">
        <ele>982.3</ele>
        <time>2026-05-07T06:28:09Z</time>
      </trkpt>
      <trkpt lat="44.90768" lon="4.23757">
        <ele>981.9</ele>
        <time>2026-05-07T06:28:14Z</time>
      </trkpt>
      <trkpt lat="44.90774" lon="4.23759">
        <ele>980.5</ele>
        <time>2026-05-07T06:28:19Z</time>
      </trkpt>
      <trkpt lat="44.90781" lon="4.23757">
        <ele>978.8</ele>
        <time>2026-05-07T06:28:24Z</time>
      </trkpt>
      <trkpt lat="44.90785" lon="4.23756">
        <ele>977.9</ele>
        <time>2026-05-07T06:28:29Z</time>
      </trkpt>
      <trkpt lat="44.90788" lon="4.23759">
        <ele>977.3</ele>
        <time>2026-05-07T06:28:34Z</time>
      </trkpt>
      <trkpt lat="44.90789" lon="4.2376">
        <ele>977.1</ele>
        <time>2026-05-07T06:28:39Z</time>
      </trkpt>
      <trkpt lat="44.90789" lon="4.2376">
        <ele>977.1</ele>
        <time>2026-05-07T06:28:44Z</time>
      </trkpt>
      <trkpt lat="44.90789" lon="4.2376">
        <ele>977.1</ele>
        <time>2026-05-07T06:28:49Z</time>
      </trkpt>
      <trkpt lat="44.90789" lon="4.2376">
        <ele>977.1</ele>
        <time>2026-05-07T06:28:54Z</time>
      </trkpt>
      <trkpt lat="44.90789" lon="4.2376">
        <ele>977.1</ele>
        <time>2026-05-07T06:28:59Z</time>
      </trkpt>
      <trkpt lat="44.90789" lon="4.2376">
        <ele>977.1</ele>
        <time>2026-05-07T06:29:04Z</time>
      </trkpt>
      <trkpt lat="44.90789" lon="4.2376">
        <ele>977.1</ele>
        <time>2026-05-07T06:29:09Z</time>
      </trkpt>
      <trkpt lat="44.90789" lon="4.2376">
        <ele>977.1</ele>
        <time>2026-05-07T06:29:14Z</time>
      </trkpt>
      <trkpt lat="44.90786" lon="4.23773">
        <ele>978.4</ele>
        <time>2026-05-07T06:29:19Z</time>
      </trkpt>
      <trkpt lat="44.90786" lon="4.23773">
        <ele>978.4</ele>
        <time>2026-05-07T06:29:24Z</time>
      </trkpt>
      <trkpt lat="44.90786" lon="4.23773">
        <ele>978.4</ele>
        <time>2026-05-07T06:29:29Z</time>
      </trkpt>
      <trkpt lat="44.90786" lon="4.23773">
        <ele>978.4</ele>
        <time>2026-05-07T06:29:34Z</time>
      </trkpt>
      <trkpt lat="44.90786" lon="4.23773">
        <ele>978.4</ele>
        <time>2026-05-07T06:29:39Z</time>
      </trkpt>
      <trkpt lat="44.90786" lon="4.23773">
        <ele>978.4</ele>
        <time>2026-05-07T06:29:44Z</time>
      </trkpt>
      <trkpt lat="44.90786" lon="4.23773">
        <ele>978.4</ele>
        <time>2026-05-07T06:29:49Z</time>
      </trkpt>
      <trkpt lat="44.90786" lon="4.23773">
        <ele>978.4</ele>
        <time>2026-05-07T06:29:54Z</time>
      </trkpt>
      <trkpt lat="44.90786" lon="4.23773">
        <ele>978.4</ele>
        <time>2026-05-07T06:29:59Z</time>
      </trkpt>
      <trkpt lat="44.90786" lon="4.23773">
        <ele>978.4</ele>
        <time>2026-05-07T06:30:04Z</time>
      </trkpt>
      <trkpt lat="44.90786" lon="4.23773">
        <ele>978.4</ele>
        <time>2026-05-07T06:30:09Z</time>
      </trkpt>
      <trkpt lat="44.90786" lon="4.23773">
        <ele>978.4</ele>
        <time>2026-05-07T06:30:14Z</time>
      </trkpt>
      <trkpt lat="44.90786" lon="4.23773">
        <ele>978.4</ele>
        <time>2026-05-07T06:30:19Z</time>
      </trkpt>
      <trkpt lat="44.90786" lon="4.23773">
        <ele>978.4</ele>
        <time>2026-05-07T06:30:24Z</time>
      </trkpt>
      <trkpt lat="44.90786" lon="4.23773">
        <ele>978.4</ele>
        <time>2026-05-07T06:30:29Z</time>
      </trkpt>
      <trkpt lat="44.90789" lon="4.23775">
        <ele>977.8</ele>
        <time>2026-05-07T06:30:34Z</time>
      </trkpt>
      <trkpt lat="44.90794" lon="4.23774">
        <ele>976.6</ele>
        <time>2026-05-07T06:30:39Z</time>
      </trkpt>
      <trkpt lat="44.90798" lon="4.23776">
        <ele>975.9</ele>
        <time>2026-05-07T06:30:44Z</time>
      </trkpt>
      <trkpt lat="44.90798" lon="4.23778">
        <ele>976</ele>
        <time>2026-05-07T06:30:49Z</time>
      </trkpt>
      <trkpt lat="44.90798" lon="4.23779">
        <ele>976</ele>
        <time>2026-05-07T06:30:54Z</time>
      </trkpt>
      <trkpt lat="44.90798" lon="4.23779">
        <ele>976</ele>
        <time>2026-05-07T06:30:59Z</time>
      </trkpt>
      <trkpt lat="44.90803" lon="4.23784">
        <ele>975.2</ele>
        <time>2026-05-07T06:31:04Z</time>
      </trkpt>
      <trkpt lat="44.90805" lon="4.23785">
        <ele>974.9</ele>
        <time>2026-05-07T06:31:09Z</time>
      </trkpt>
      <trkpt lat="44.90805" lon="4.23785">
        <ele>974.9</ele>
        <time>2026-05-07T06:31:14Z</time>
      </trkpt>
      <trkpt lat="44.9081" lon="4.23781">
        <ele>973.6</ele>
        <time>2026-05-07T06:31:19Z</time>
      </trkpt>
      <trkpt lat="44.9081" lon="4.23781">
        <ele>973.6</ele>
        <time>2026-05-07T06:31:24Z</time>
      </trkpt>
      <trkpt lat="44.9081" lon="4.23781">
        <ele>973.6</ele>
        <time>2026-05-07T06:31:29Z</time>
      </trkpt>
      <trkpt lat="44.9081" lon="4.23781">
        <ele>973.6</ele>
        <time>2026-05-07T06:31:34Z</time>
      </trkpt>
      <trkpt lat="44.9081" lon="4.23781">
        <ele>973.6</ele>
        <time>2026-05-07T06:31:39Z</time>
      </trkpt>
      <trkpt lat="44.90821" lon="4.2378">
        <ele>971.2</ele>
        <time>2026-05-07T06:31:44Z</time>
      </trkpt>
      <trkpt lat="44.90826" lon="4.23781">
        <ele>970.2</ele>
        <time>2026-05-07T06:31:49Z</time>
      </trkpt>
      <trkpt lat="44.9083" lon="4.23782">
        <ele>969.4</ele>
        <time>2026-05-07T06:31:54Z</time>
      </trkpt>
      <trkpt lat="44.90834" lon="4.23784">
        <ele>968.8</ele>
        <time>2026-05-07T06:31:59Z</time>
      </trkpt>
      <trkpt lat="44.90837" lon="4.23784">
        <ele>968.7</ele>
        <time>2026-05-07T06:32:04Z</time>
      </trkpt>
      <trkpt lat="44.9084" lon="4.23788">
        <ele>968.9</ele>
        <time>2026-05-07T06:32:09Z</time>
      </trkpt>
      <trkpt lat="44.90842" lon="4.23791">
        <ele>969.1</ele>
        <time>2026-05-07T06:32:14Z</time>
      </trkpt>
      <trkpt lat="44.90845" lon="4.23793">
        <ele>969.1</ele>
        <time>2026-05-07T06:32:19Z</time>
      </trkpt>
      <trkpt lat="44.90848" lon="4.23797">
        <ele>969.5</ele>
        <time>2026-05-07T06:32:24Z</time>
      </trkpt>
      <trkpt lat="44.90851" lon="4.23802">
        <ele>969.9</ele>
        <time>2026-05-07T06:32:29Z</time>
      </trkpt>
      <trkpt lat="44.90852" lon="4.2381">
        <ele>970.8</ele>
        <time>2026-05-07T06:32:34Z</time>
      </trkpt>
      <trkpt lat="44.90851" lon="4.23817">
        <ele>971.6</ele>
        <time>2026-05-07T06:32:39Z</time>
      </trkpt>
      <trkpt lat="44.9085" lon="4.23825">
        <ele>972.5</ele>
        <time>2026-05-07T06:32:44Z</time>
      </trkpt>
      <trkpt lat="44.90851" lon="4.2383">
        <ele>973.1</ele>
        <time>2026-05-07T06:32:49Z</time>
      </trkpt>
      <trkpt lat="44.90853" lon="4.23835">
        <ele>973.8</ele>
        <time>2026-05-07T06:32:54Z</time>
      </trkpt>
      <trkpt lat="44.90854" lon="4.23839">
        <ele>974.8</ele>
        <time>2026-05-07T06:32:59Z</time>
      </trkpt>
      <trkpt lat="44.90856" lon="4.23841">
        <ele>975.3</ele>
        <time>2026-05-07T06:33:04Z</time>
      </trkpt>
      <trkpt lat="44.9086" lon="4.23839">
        <ele>974.9</ele>
        <time>2026-05-07T06:33:09Z</time>
      </trkpt>
      <trkpt lat="44.90865" lon="4.23837">
        <ele>974.6</ele>
        <time>2026-05-07T06:33:14Z</time>
      </trkpt>
      <trkpt lat="44.9087" lon="4.23834">
        <ele>974</ele>
        <time>2026-05-07T06:33:19Z</time>
      </trkpt>
      <trkpt lat="44.90871" lon="4.23834">
        <ele>974.1</ele>
        <time>2026-05-07T06:33:24Z</time>
      </trkpt>
      <trkpt lat="44.90871" lon="4.23835">
        <ele>974.3</ele>
        <time>2026-05-07T06:33:29Z</time>
      </trkpt>
      <trkpt lat="44.90868" lon="4.23838">
        <ele>974.9</ele>
        <time>2026-05-07T06:33:34Z</time>
      </trkpt>
      <trkpt lat="44.90866" lon="4.23839">
        <ele>975.1</ele>
        <time>2026-05-07T06:33:39Z</time>
      </trkpt>
      <trkpt lat="44.90867" lon="4.2384">
        <ele>975.3</ele>
        <time>2026-05-07T06:33:44Z</time>
      </trkpt>
      <trkpt lat="44.90869" lon="4.23841">
        <ele>975.6</ele>
        <time>2026-05-07T06:33:49Z</time>
      </trkpt>
      <trkpt lat="44.90871" lon="4.23841">
        <ele>975.6</ele>
        <time>2026-05-07T06:33:54Z</time>
      </trkpt>
      <trkpt lat="44.90873" lon="4.23842">
        <ele>975.9</ele>
        <time>2026-05-07T06:33:59Z</time>
      </trkpt>
      <trkpt lat="44.90875" lon="4.23842">
        <ele>976</ele>
        <time>2026-05-07T06:34:04Z</time>
      </trkpt>
      <trkpt lat="44.90877" lon="4.23841">
        <ele>975.8</ele>
        <time>2026-05-07T06:34:09Z</time>
      </trkpt>
      <trkpt lat="44.90879" lon="4.23841">
        <ele>975.9</ele>
        <time>2026-05-07T06:34:14Z</time>
      </trkpt>
      <trkpt lat="44.90882" lon="4.23841">
        <ele>975.9</ele>
        <time>2026-05-07T06:34:19Z</time>
      </trkpt>
      <trkpt lat="44.90883" lon="4.23844">
        <ele>976.6</ele>
        <time>2026-05-07T06:34:24Z</time>
      </trkpt>
      <trkpt lat="44.90884" lon="4.23847">
        <ele>977.4</ele>
        <time>2026-05-07T06:34:29Z</time>
      </trkpt>
      <trkpt lat="44.90886" lon="4.23851">
        <ele>978.3</ele>
        <time>2026-05-07T06:34:34Z</time>
      </trkpt>
      <trkpt lat="44.90885" lon="4.23854">
        <ele>979</ele>
        <time>2026-05-07T06:34:39Z</time>
      </trkpt>
      <trkpt lat="44.90883" lon="4.23858">
        <ele>979.9</ele>
        <time>2026-05-07T06:34:44Z</time>
      </trkpt>
      <trkpt lat="44.90884" lon="4.23863">
        <ele>981.1</ele>
        <time>2026-05-07T06:34:49Z</time>
      </trkpt>
      <trkpt lat="44.90887" lon="4.23865">
        <ele>981.6</ele>
        <time>2026-05-07T06:34:54Z</time>
      </trkpt>
      <trkpt lat="44.90891" lon="4.23867">
        <ele>982.2</ele>
        <time>2026-05-07T06:34:59Z</time>
      </trkpt>
      <trkpt lat="44.90894" lon="4.23869">
        <ele>982.8</ele>
        <time>2026-05-07T06:35:04Z</time>
      </trkpt>
      <trkpt lat="44.90898" lon="4.23874">
        <ele>984.1</ele>
        <time>2026-05-07T06:35:09Z</time>
      </trkpt>
      <trkpt lat="44.90904" lon="4.2388">
        <ele>985.7</ele>
        <time>2026-05-07T06:35:14Z</time>
      </trkpt>
      <trkpt lat="44.90908" lon="4.23883">
        <ele>986.6</ele>
        <time>2026-05-07T06:35:19Z</time>
      </trkpt>
      <trkpt lat="44.90913" lon="4.23888">
        <ele>988</ele>
        <time>2026-05-07T06:35:24Z</time>
      </trkpt>
      <trkpt lat="44.90916" lon="4.23895">
        <ele>989.8</ele>
        <time>2026-05-07T06:35:29Z</time>
      </trkpt>
      <trkpt lat="44.90919" lon="4.23903">
        <ele>991.5</ele>
        <time>2026-05-07T06:35:34Z</time>
      </trkpt>
      <trkpt lat="44.90922" lon="4.2391">
        <ele>992.9</ele>
        <time>2026-05-07T06:35:39Z</time>
      </trkpt>
      <trkpt lat="44.90926" lon="4.23917">
        <ele>994.3</ele>
        <time>2026-05-07T06:35:44Z</time>
      </trkpt>
      <trkpt lat="44.90927" lon="4.23926">
        <ele>996.7</ele>
        <time>2026-05-07T06:35:49Z</time>
      </trkpt>
      <trkpt lat="44.9093" lon="4.23935">
        <ele>998.9</ele>
        <time>2026-05-07T06:35:54Z</time>
      </trkpt>
      <trkpt lat="44.90935" lon="4.2394">
        <ele>999.8</ele>
        <time>2026-05-07T06:35:59Z</time>
      </trkpt>
      <trkpt lat="44.90941" lon="4.23943">
        <ele>1000</ele>
        <time>2026-05-07T06:36:04Z</time>
      </trkpt>
      <trkpt lat="44.90949" lon="4.23947">
        <ele>1000.4</ele>
        <time>2026-05-07T06:36:09Z</time>
      </trkpt>
      <trkpt lat="44.90957" lon="4.23952">
        <ele>1001</ele>
        <time>2026-05-07T06:36:14Z</time>
      </trkpt>
      <trkpt lat="44.90962" lon="4.23956">
        <ele>1001.5</ele>
        <time>2026-05-07T06:36:19Z</time>
      </trkpt>
      <trkpt lat="44.90968" lon="4.23961">
        <ele>1002.3</ele>
        <time>2026-05-07T06:36:24Z</time>
      </trkpt>
      <trkpt lat="44.90972" lon="4.23967">
        <ele>1003.4</ele>
        <time>2026-05-07T06:36:29Z</time>
      </trkpt>
      <trkpt lat="44.90974" lon="4.23976">
        <ele>1005.6</ele>
        <time>2026-05-07T06:36:34Z</time>
      </trkpt>
      <trkpt lat="44.90979" lon="4.23984">
        <ele>1007.1</ele>
        <time>2026-05-07T06:36:39Z</time>
      </trkpt>
      <trkpt lat="44.90984" lon="4.2399">
        <ele>1008.2</ele>
        <time>2026-05-07T06:36:44Z</time>
      </trkpt>
      <trkpt lat="44.90991" lon="4.23995">
        <ele>1008.7</ele>
        <time>2026-05-07T06:36:49Z</time>
      </trkpt>
      <trkpt lat="44.90998" lon="4.24001">
        <ele>1009.5</ele>
        <time>2026-05-07T06:36:54Z</time>
      </trkpt>
      <trkpt lat="44.91003" lon="4.24005">
        <ele>1009.3</ele>
        <time>2026-05-07T06:36:59Z</time>
      </trkpt>
      <trkpt lat="44.91008" lon="4.24004">
        <ele>1007.4</ele>
        <time>2026-05-07T06:37:04Z</time>
      </trkpt>
      <trkpt lat="44.91013" lon="4.24001">
        <ele>1004.9</ele>
        <time>2026-05-07T06:37:09Z</time>
      </trkpt>
      <trkpt lat="44.91019" lon="4.23997">
        <ele>1001.9</ele>
        <time>2026-05-07T06:37:14Z</time>
      </trkpt>
      <trkpt lat="44.91024" lon="4.23995">
        <ele>999.7</ele>
        <time>2026-05-07T06:37:19Z</time>
      </trkpt>
      <trkpt lat="44.91027" lon="4.23993">
        <ele>998.2</ele>
        <time>2026-05-07T06:37:24Z</time>
      </trkpt>
      <trkpt lat="44.91027" lon="4.23993">
        <ele>998.2</ele>
        <time>2026-05-07T06:37:29Z</time>
      </trkpt>
      <trkpt lat="44.91027" lon="4.23993">
        <ele>998.2</ele>
        <time>2026-05-07T06:37:34Z</time>
      </trkpt>
      <trkpt lat="44.91039" lon="4.23989">
        <ele>993.2</ele>
        <time>2026-05-07T06:37:39Z</time>
      </trkpt>
      <trkpt lat="44.91043" lon="4.23989">
        <ele>991.8</ele>
        <time>2026-05-07T06:37:44Z</time>
      </trkpt>
      <trkpt lat="44.91048" lon="4.23991">
        <ele>990.7</ele>
        <time>2026-05-07T06:37:49Z</time>
      </trkpt>
      <trkpt lat="44.91051" lon="4.23993">
        <ele>990.2</ele>
        <time>2026-05-07T06:37:54Z</time>
      </trkpt>
      <trkpt lat="44.91053" lon="4.23994">
        <ele>989.7</ele>
        <time>2026-05-07T06:37:59Z</time>
      </trkpt>
      <trkpt lat="44.91058" lon="4.23996">
        <ele>988.5</ele>
        <time>2026-05-07T06:38:04Z</time>
      </trkpt>
      <trkpt lat="44.91061" lon="4.24001">
        <ele>988.8</ele>
        <time>2026-05-07T06:38:09Z</time>
      </trkpt>
      <trkpt lat="44.91065" lon="4.24007">
        <ele>989.5</ele>
        <time>2026-05-07T06:38:14Z</time>
      </trkpt>
      <trkpt lat="44.91069" lon="4.24012">
        <ele>989.8</ele>
        <time>2026-05-07T06:38:19Z</time>
      </trkpt>
      <trkpt lat="44.91074" lon="4.24018">
        <ele>990.2</ele>
        <time>2026-05-07T06:38:24Z</time>
      </trkpt>
      <trkpt lat="44.91079" lon="4.2402">
        <ele>989.3</ele>
        <time>2026-05-07T06:38:29Z</time>
      </trkpt>
      <trkpt lat="44.91085" lon="4.24023">
        <ele>988.8</ele>
        <time>2026-05-07T06:38:34Z</time>
      </trkpt>
      <trkpt lat="44.91091" lon="4.24027">
        <ele>989.7</ele>
        <time>2026-05-07T06:38:39Z</time>
      </trkpt>
      <trkpt lat="44.91095" lon="4.2403">
        <ele>990.3</ele>
        <time>2026-05-07T06:38:44Z</time>
      </trkpt>
      <trkpt lat="44.91099" lon="4.24035">
        <ele>991.8</ele>
        <time>2026-05-07T06:38:49Z</time>
      </trkpt>
      <trkpt lat="44.91105" lon="4.24036">
        <ele>991.6</ele>
        <time>2026-05-07T06:38:54Z</time>
      </trkpt>
      <trkpt lat="44.91114" lon="4.24041">
        <ele>992.7</ele>
        <time>2026-05-07T06:38:59Z</time>
      </trkpt>
      <trkpt lat="44.91122" lon="4.24044">
        <ele>993.1</ele>
        <time>2026-05-07T06:39:04Z</time>
      </trkpt>
      <trkpt lat="44.91126" lon="4.24045">
        <ele>993.2</ele>
        <time>2026-05-07T06:39:09Z</time>
      </trkpt>
      <trkpt lat="44.91132" lon="4.24042">
        <ele>991.5</ele>
        <time>2026-05-07T06:39:14Z</time>
      </trkpt>
      <trkpt lat="44.91135" lon="4.2404">
        <ele>990.5</ele>
        <time>2026-05-07T06:39:19Z</time>
      </trkpt>
      <trkpt lat="44.9114" lon="4.24039">
        <ele>989.7</ele>
        <time>2026-05-07T06:39:24Z</time>
      </trkpt>
      <trkpt lat="44.91146" lon="4.24039">
        <ele>989.2</ele>
        <time>2026-05-07T06:39:29Z</time>
      </trkpt>
      <trkpt lat="44.91151" lon="4.2404">
        <ele>989.1</ele>
        <time>2026-05-07T06:39:34Z</time>
      </trkpt>
      <trkpt lat="44.91156" lon="4.24043">
        <ele>989.9</ele>
        <time>2026-05-07T06:39:39Z</time>
      </trkpt>
      <trkpt lat="44.91161" lon="4.24048">
        <ele>991.6</ele>
        <time>2026-05-07T06:39:44Z</time>
      </trkpt>
      <trkpt lat="44.91167" lon="4.24051">
        <ele>992.3</ele>
        <time>2026-05-07T06:39:49Z</time>
      </trkpt>
      <trkpt lat="44.91173" lon="4.2405">
        <ele>990.5</ele>
        <time>2026-05-07T06:39:54Z</time>
      </trkpt>
      <trkpt lat="44.91182" lon="4.24048">
        <ele>987.6</ele>
        <time>2026-05-07T06:39:59Z</time>
      </trkpt>
      <trkpt lat="44.91189" lon="4.24048">
        <ele>986</ele>
        <time>2026-05-07T06:40:04Z</time>
      </trkpt>
      <trkpt lat="44.91195" lon="4.2405">
        <ele>985.4</ele>
        <time>2026-05-07T06:40:09Z</time>
      </trkpt>
      <trkpt lat="44.91199" lon="4.24054">
        <ele>986.1</ele>
        <time>2026-05-07T06:40:14Z</time>
      </trkpt>
      <trkpt lat="44.91205" lon="4.24058">
        <ele>986.3</ele>
        <time>2026-05-07T06:40:19Z</time>
      </trkpt>
      <trkpt lat="44.9121" lon="4.24061">
        <ele>986.3</ele>
        <time>2026-05-07T06:40:24Z</time>
      </trkpt>
      <trkpt lat="44.91214" lon="4.24061">
        <ele>985.3</ele>
        <time>2026-05-07T06:40:29Z</time>
      </trkpt>
      <trkpt lat="44.9122" lon="4.24061">
        <ele>983.9</ele>
        <time>2026-05-07T06:40:34Z</time>
      </trkpt>
      <trkpt lat="44.91224" lon="4.24061">
        <ele>982.9</ele>
        <time>2026-05-07T06:40:39Z</time>
      </trkpt>
      <trkpt lat="44.91229" lon="4.24061">
        <ele>981.7</ele>
        <time>2026-05-07T06:40:44Z</time>
      </trkpt>
      <trkpt lat="44.91234" lon="4.24062">
        <ele>980.9</ele>
        <time>2026-05-07T06:40:49Z</time>
      </trkpt>
      <trkpt lat="44.91239" lon="4.24063">
        <ele>980.1</ele>
        <time>2026-05-07T06:40:54Z</time>
      </trkpt>
      <trkpt lat="44.91244" lon="4.24064">
        <ele>979.3</ele>
        <time>2026-05-07T06:40:59Z</time>
      </trkpt>
      <trkpt lat="44.91248" lon="4.24066">
        <ele>979</ele>
        <time>2026-05-07T06:41:04Z</time>
      </trkpt>
      <trkpt lat="44.91254" lon="4.24066">
        <ele>977.7</ele>
        <time>2026-05-07T06:41:09Z</time>
      </trkpt>
      <trkpt lat="44.91259" lon="4.24066">
        <ele>976.7</ele>
        <time>2026-05-07T06:41:14Z</time>
      </trkpt>
      <trkpt lat="44.91264" lon="4.24065">
        <ele>975.4</ele>
        <time>2026-05-07T06:41:19Z</time>
      </trkpt>
      <trkpt lat="44.9127" lon="4.24066">
        <ele>974.5</ele>
        <time>2026-05-07T06:41:24Z</time>
      </trkpt>
      <trkpt lat="44.91276" lon="4.24066">
        <ele>973.3</ele>
        <time>2026-05-07T06:41:29Z</time>
      </trkpt>
      <trkpt lat="44.91283" lon="4.24068">
        <ele>972.6</ele>
        <time>2026-05-07T06:41:34Z</time>
      </trkpt>
      <trkpt lat="44.91288" lon="4.24071">
        <ele>972.7</ele>
        <time>2026-05-07T06:41:39Z</time>
      </trkpt>
      <trkpt lat="44.91293" lon="4.24074">
        <ele>972.8</ele>
        <time>2026-05-07T06:41:44Z</time>
      </trkpt>
      <trkpt lat="44.91298" lon="4.24076">
        <ele>972.5</ele>
        <time>2026-05-07T06:41:49Z</time>
      </trkpt>
      <trkpt lat="44.91305" lon="4.24078">
        <ele>971.8</ele>
        <time>2026-05-07T06:41:54Z</time>
      </trkpt>
      <trkpt lat="44.9131" lon="4.24081">
        <ele>971.9</ele>
        <time>2026-05-07T06:41:59Z</time>
      </trkpt>
      <trkpt lat="44.91316" lon="4.24083">
        <ele>971.4</ele>
        <time>2026-05-07T06:42:04Z</time>
      </trkpt>
      <trkpt lat="44.91323" lon="4.24086">
        <ele>971.4</ele>
        <time>2026-05-07T06:42:09Z</time>
      </trkpt>
      <trkpt lat="44.91329" lon="4.24089">
        <ele>971.6</ele>
        <time>2026-05-07T06:42:14Z</time>
      </trkpt>
      <trkpt lat="44.91337" lon="4.2409">
        <ele>970.3</ele>
        <time>2026-05-07T06:42:19Z</time>
      </trkpt>
      <trkpt lat="44.91344" lon="4.2409">
        <ele>968.6</ele>
        <time>2026-05-07T06:42:24Z</time>
      </trkpt>
      <trkpt lat="44.9135" lon="4.24092">
        <ele>968.1</ele>
        <time>2026-05-07T06:42:29Z</time>
      </trkpt>
      <trkpt lat="44.91356" lon="4.24093">
        <ele>967.2</ele>
        <time>2026-05-07T06:42:34Z</time>
      </trkpt>
      <trkpt lat="44.91362" lon="4.24096">
        <ele>967.1</ele>
        <time>2026-05-07T06:42:39Z</time>
      </trkpt>
      <trkpt lat="44.91368" lon="4.24099">
        <ele>967.1</ele>
        <time>2026-05-07T06:42:44Z</time>
      </trkpt>
      <trkpt lat="44.91373" lon="4.24102">
        <ele>967.3</ele>
        <time>2026-05-07T06:42:49Z</time>
      </trkpt>
      <trkpt lat="44.91378" lon="4.24105">
        <ele>967.5</ele>
        <time>2026-05-07T06:42:54Z</time>
      </trkpt>
      <trkpt lat="44.91383" lon="4.24107">
        <ele>967.3</ele>
        <time>2026-05-07T06:42:59Z</time>
      </trkpt>
      <trkpt lat="44.91387" lon="4.24109">
        <ele>967.2</ele>
        <time>2026-05-07T06:43:04Z</time>
      </trkpt>
      <trkpt lat="44.91391" lon="4.2411">
        <ele>966.7</ele>
        <time>2026-05-07T06:43:09Z</time>
      </trkpt>
      <trkpt lat="44.91397" lon="4.24113">
        <ele>966.7</ele>
        <time>2026-05-07T06:43:14Z</time>
      </trkpt>
      <trkpt lat="44.91402" lon="4.24116">
        <ele>966.9</ele>
        <time>2026-05-07T06:43:19Z</time>
      </trkpt>
      <trkpt lat="44.91407" lon="4.24118">
        <ele>966.6</ele>
        <time>2026-05-07T06:43:24Z</time>
      </trkpt>
      <trkpt lat="44.91409" lon="4.24115">
        <ele>964.7</ele>
        <time>2026-05-07T06:43:29Z</time>
      </trkpt>
      <trkpt lat="44.9141" lon="4.24115">
        <ele>964.5</ele>
        <time>2026-05-07T06:43:34Z</time>
      </trkpt>
      <trkpt lat="44.9141" lon="4.24115">
        <ele>964.5</ele>
        <time>2026-05-07T06:43:39Z</time>
      </trkpt>
      <trkpt lat="44.9141" lon="4.24115">
        <ele>964.5</ele>
        <time>2026-05-07T06:43:44Z</time>
      </trkpt>
      <trkpt lat="44.9141" lon="4.24115">
        <ele>964.5</ele>
        <time>2026-05-07T06:43:49Z</time>
      </trkpt>
      <trkpt lat="44.9141" lon="4.24115">
        <ele>964.5</ele>
        <time>2026-05-07T06:43:54Z</time>
      </trkpt>
      <trkpt lat="44.9141" lon="4.24115">
        <ele>964.5</ele>
        <time>2026-05-07T06:43:59Z</time>
      </trkpt>
      <trkpt lat="44.9141" lon="4.24115">
        <ele>964.5</ele>
        <time>2026-05-07T06:44:04Z</time>
      </trkpt>
      <trkpt lat="44.9141" lon="4.24115">
        <ele>964.5</ele>
        <time>2026-05-07T06:44:09Z</time>
      </trkpt>
      <trkpt lat="44.9141" lon="4.24115">
        <ele>964.5</ele>
        <time>2026-05-07T06:44:14Z</time>
      </trkpt>
      <trkpt lat="44.9141" lon="4.24115">
        <ele>964.5</ele>
        <time>2026-05-07T06:44:19Z</time>
      </trkpt>
      <trkpt lat="44.9141" lon="4.24115">
        <ele>964.5</ele>
        <time>2026-05-07T06:44:24Z</time>
      </trkpt>
      <trkpt lat="44.9141" lon="4.24115">
        <ele>964.5</ele>
        <time>2026-05-07T06:44:29Z</time>
      </trkpt>
      <trkpt lat="44.9141" lon="4.24115">
        <ele>964.5</ele>
        <time>2026-05-07T06:44:34Z</time>
      </trkpt>
      <trkpt lat="44.91412" lon="4.24115">
        <ele>964</ele>
        <time>2026-05-07T06:44:39Z</time>
      </trkpt>
      <trkpt lat="44.91419" lon="4.24118">
        <ele>963.5</ele>
        <time>2026-05-07T06:44:44Z</time>
      </trkpt>
      <trkpt lat="44.91424" lon="4.24123">
        <ele>964.3</ele>
        <time>2026-05-07T06:44:49Z</time>
      </trkpt>
      <trkpt lat="44.91428" lon="4.24129">
        <ele>965.7</ele>
        <time>2026-05-07T06:44:54Z</time>
      </trkpt>
      <trkpt lat="44.91432" lon="4.24132">
        <ele>965.8</ele>
        <time>2026-05-07T06:44:59Z</time>
      </trkpt>
      <trkpt lat="44.91437" lon="4.24132">
        <ele>964.1</ele>
        <time>2026-05-07T06:45:04Z</time>
      </trkpt>
      <trkpt lat="44.91441" lon="4.24129">
        <ele>961.5</ele>
        <time>2026-05-07T06:45:09Z</time>
      </trkpt>
      <trkpt lat="44.91446" lon="4.24124">
        <ele>957.7</ele>
        <time>2026-05-07T06:45:14Z</time>
      </trkpt>
      <trkpt lat="44.91451" lon="4.24121">
        <ele>954.9</ele>
        <time>2026-05-07T06:45:19Z</time>
      </trkpt>
      <trkpt lat="44.91457" lon="4.24119">
        <ele>952.2</ele>
        <time>2026-05-07T06:45:24Z</time>
      </trkpt>
      <trkpt lat="44.91465" lon="4.24116">
        <ele>948.5</ele>
        <time>2026-05-07T06:45:29Z</time>
      </trkpt>
      <trkpt lat="44.91471" lon="4.24112">
        <ele>945.1</ele>
        <time>2026-05-07T06:45:34Z</time>
      </trkpt>
      <trkpt lat="44.91476" lon="4.2411">
        <ele>942.8</ele>
        <time>2026-05-07T06:45:39Z</time>
      </trkpt>
      <trkpt lat="44.91481" lon="4.24111">
        <ele>941.7</ele>
        <time>2026-05-07T06:45:44Z</time>
      </trkpt>
      <trkpt lat="44.91487" lon="4.24114">
        <ele>941</ele>
        <time>2026-05-07T06:45:49Z</time>
      </trkpt>
      <trkpt lat="44.91494" lon="4.24118">
        <ele>940.3</ele>
        <time>2026-05-07T06:45:54Z</time>
      </trkpt>
      <trkpt lat="44.91496" lon="4.24124">
        <ele>941.9</ele>
        <time>2026-05-07T06:45:59Z</time>
      </trkpt>
      <trkpt lat="44.91499" lon="4.24131">
        <ele>943.5</ele>
        <time>2026-05-07T06:46:04Z</time>
      </trkpt>
      <trkpt lat="44.91504" lon="4.24138">
        <ele>944.8</ele>
        <time>2026-05-07T06:46:09Z</time>
      </trkpt>
      <trkpt lat="44.91509" lon="4.24145">
        <ele>946.1</ele>
        <time>2026-05-07T06:46:14Z</time>
      </trkpt>
      <trkpt lat="44.91513" lon="4.24155">
        <ele>948.5</ele>
        <time>2026-05-07T06:46:19Z</time>
      </trkpt>
      <trkpt lat="44.91513" lon="4.24161">
        <ele>950.5</ele>
        <time>2026-05-07T06:46:24Z</time>
      </trkpt>
      <trkpt lat="44.91513" lon="4.24168">
        <ele>952.8</ele>
        <time>2026-05-07T06:46:29Z</time>
      </trkpt>
      <trkpt lat="44.91513" lon="4.24177">
        <ele>955.5</ele>
        <time>2026-05-07T06:46:34Z</time>
      </trkpt>
      <trkpt lat="44.91516" lon="4.24187">
        <ele>957.6</ele>
        <time>2026-05-07T06:46:39Z</time>
      </trkpt>
      <trkpt lat="44.91518" lon="4.24196">
        <ele>959.6</ele>
        <time>2026-05-07T06:46:44Z</time>
      </trkpt>
      <trkpt lat="44.91521" lon="4.24205">
        <ele>961.2</ele>
        <time>2026-05-07T06:46:49Z</time>
      </trkpt>
      <trkpt lat="44.91523" lon="4.24212">
        <ele>962.6</ele>
        <time>2026-05-07T06:46:54Z</time>
      </trkpt>
      <trkpt lat="44.91528" lon="4.24219">
        <ele>962.9</ele>
        <time>2026-05-07T06:46:59Z</time>
      </trkpt>
      <trkpt lat="44.91533" lon="4.24222">
        <ele>962.1</ele>
        <time>2026-05-07T06:47:04Z</time>
      </trkpt>
      <trkpt lat="44.91538" lon="4.24226">
        <ele>961.4</ele>
        <time>2026-05-07T06:47:09Z</time>
      </trkpt>
      <trkpt lat="44.91542" lon="4.24229">
        <ele>960.8</ele>
        <time>2026-05-07T06:47:14Z</time>
      </trkpt>
      <trkpt lat="44.91547" lon="4.24235">
        <ele>960.6</ele>
        <time>2026-05-07T06:47:19Z</time>
      </trkpt>
      <trkpt lat="44.9155" lon="4.24236">
        <ele>959.8</ele>
        <time>2026-05-07T06:47:24Z</time>
      </trkpt>
      <trkpt lat="44.9155" lon="4.24236">
        <ele>959.8</ele>
        <time>2026-05-07T06:47:29Z</time>
      </trkpt>
      <trkpt lat="44.9155" lon="4.24236">
        <ele>959.8</ele>
        <time>2026-05-07T06:47:34Z</time>
      </trkpt>
      <trkpt lat="44.9155" lon="4.24239">
        <ele>960.6</ele>
        <time>2026-05-07T06:47:39Z</time>
      </trkpt>
      <trkpt lat="44.91557" lon="4.24243">
        <ele>959.1</ele>
        <time>2026-05-07T06:47:44Z</time>
      </trkpt>
      <trkpt lat="44.91565" lon="4.24246">
        <ele>956.9</ele>
        <time>2026-05-07T06:47:49Z</time>
      </trkpt>
      <trkpt lat="44.91569" lon="4.2425">
        <ele>956.3</ele>
        <time>2026-05-07T06:47:54Z</time>
      </trkpt>
      <trkpt lat="44.91572" lon="4.2425">
        <ele>955.2</ele>
        <time>2026-05-07T06:47:59Z</time>
      </trkpt>
      <trkpt lat="44.91568" lon="4.24241">
        <ele>954.6</ele>
        <time>2026-05-07T06:48:04Z</time>
      </trkpt>
      <trkpt lat="44.91563" lon="4.24232">
        <ele>954.3</ele>
        <time>2026-05-07T06:48:09Z</time>
      </trkpt>
      <trkpt lat="44.91556" lon="4.24223">
        <ele>954.5</ele>
        <time>2026-05-07T06:48:14Z</time>
      </trkpt>
      <trkpt lat="44.91549" lon="4.24217">
        <ele>955.3</ele>
        <time>2026-05-07T06:48:19Z</time>
      </trkpt>
      <trkpt lat="44.91545" lon="4.24212">
        <ele>955.4</ele>
        <time>2026-05-07T06:48:24Z</time>
      </trkpt>
      <trkpt lat="44.91545" lon="4.24212">
        <ele>955.4</ele>
        <time>2026-05-07T06:48:29Z</time>
      </trkpt>
      <trkpt lat="44.91545" lon="4.24212">
        <ele>955.4</ele>
        <time>2026-05-07T06:48:34Z</time>
      </trkpt>
      <trkpt lat="44.91545" lon="4.24212">
        <ele>955.4</ele>
        <time>2026-05-07T06:48:39Z</time>
      </trkpt>
      <trkpt lat="44.9154" lon="4.24197">
        <ele>953</ele>
        <time>2026-05-07T06:48:44Z</time>
      </trkpt>
      <trkpt lat="44.91536" lon="4.24186">
        <ele>951.3</ele>
        <time>2026-05-07T06:48:49Z</time>
      </trkpt>
      <trkpt lat="44.91534" lon="4.24177">
        <ele>949.4</ele>
        <time>2026-05-07T06:48:54Z</time>
      </trkpt>
      <trkpt lat="44.91532" lon="4.24167">
        <ele>947.3</ele>
        <time>2026-05-07T06:48:59Z</time>
      </trkpt>
      <trkpt lat="44.91532" lon="4.24156">
        <ele>944</ele>
        <time>2026-05-07T06:49:04Z</time>
      </trkpt>
      <trkpt lat="44.91535" lon="4.24147">
        <ele>940.6</ele>
        <time>2026-05-07T06:49:09Z</time>
      </trkpt>
      <trkpt lat="44.9154" lon="4.24139">
        <ele>937.2</ele>
        <time>2026-05-07T06:49:14Z</time>
      </trkpt>
      <trkpt lat="44.91548" lon="4.24135">
        <ele>934.4</ele>
        <time>2026-05-07T06:49:19Z</time>
      </trkpt>
      <trkpt lat="44.91552" lon="4.24136">
        <ele>933.8</ele>
        <time>2026-05-07T06:49:24Z</time>
      </trkpt>
      <trkpt lat="44.91556" lon="4.24134">
        <ele>932.5</ele>
        <time>2026-05-07T06:49:29Z</time>
      </trkpt>
      <trkpt lat="44.91558" lon="4.24134">
        <ele>932.1</ele>
        <time>2026-05-07T06:49:34Z</time>
      </trkpt>
      <trkpt lat="44.91558" lon="4.24134">
        <ele>932.1</ele>
        <time>2026-05-07T06:49:39Z</time>
      </trkpt>
      <trkpt lat="44.91558" lon="4.24134">
        <ele>932.1</ele>
        <time>2026-05-07T06:49:44Z</time>
      </trkpt>
      <trkpt lat="44.91558" lon="4.24134">
        <ele>932.1</ele>
        <time>2026-05-07T06:49:49Z</time>
      </trkpt>
      <trkpt lat="44.91558" lon="4.24134">
        <ele>932.1</ele>
        <time>2026-05-07T06:49:54Z</time>
      </trkpt>
      <trkpt lat="44.91558" lon="4.24134">
        <ele>932.1</ele>
        <time>2026-05-07T06:49:59Z</time>
      </trkpt>
      <trkpt lat="44.91558" lon="4.24134">
        <ele>932.1</ele>
        <time>2026-05-07T06:50:04Z</time>
      </trkpt>
      <trkpt lat="44.91557" lon="4.24129">
        <ele>931</ele>
        <time>2026-05-07T06:50:09Z</time>
      </trkpt>
      <trkpt lat="44.91561" lon="4.24127">
        <ele>929.8</ele>
        <time>2026-05-07T06:50:14Z</time>
      </trkpt>
      <trkpt lat="44.91564" lon="4.24123">
        <ele>928.3</ele>
        <time>2026-05-07T06:50:19Z</time>
      </trkpt>
      <trkpt lat="44.91564" lon="4.24112">
        <ele>925.7</ele>
        <time>2026-05-07T06:50:24Z</time>
      </trkpt>
      <trkpt lat="44.91557" lon="4.241">
        <ele>923.9</ele>
        <time>2026-05-07T06:50:29Z</time>
      </trkpt>
      <trkpt lat="44.91553" lon="4.24095">
        <ele>923.2</ele>
        <time>2026-05-07T06:50:34Z</time>
      </trkpt>
      <trkpt lat="44.91553" lon="4.24098">
        <ele>924</ele>
        <time>2026-05-07T06:50:39Z</time>
      </trkpt>
      <trkpt lat="44.91554" lon="4.24099">
        <ele>924.1</ele>
        <time>2026-05-07T06:50:44Z</time>
      </trkpt>
      <trkpt lat="44.91554" lon="4.24101">
        <ele>924.6</ele>
        <time>2026-05-07T06:50:49Z</time>
      </trkpt>
      <trkpt lat="44.91554" lon="4.24101">
        <ele>924.6</ele>
        <time>2026-05-07T06:50:54Z</time>
      </trkpt>
      <trkpt lat="44.91554" lon="4.24101">
        <ele>924.6</ele>
        <time>2026-05-07T06:50:59Z</time>
      </trkpt>
      <trkpt lat="44.91554" lon="4.24101">
        <ele>924.6</ele>
        <time>2026-05-07T06:51:04Z</time>
      </trkpt>
      <trkpt lat="44.91554" lon="4.24101">
        <ele>924.6</ele>
        <time>2026-05-07T06:51:09Z</time>
      </trkpt>
      <trkpt lat="44.91554" lon="4.24101">
        <ele>924.6</ele>
        <time>2026-05-07T06:51:14Z</time>
      </trkpt>
      <trkpt lat="44.91554" lon="4.24101">
        <ele>924.6</ele>
        <time>2026-05-07T06:51:19Z</time>
      </trkpt>
      <trkpt lat="44.91554" lon="4.24101">
        <ele>924.6</ele>
        <time>2026-05-07T06:51:24Z</time>
      </trkpt>
      <trkpt lat="44.91554" lon="4.24101">
        <ele>924.6</ele>
        <time>2026-05-07T06:51:29Z</time>
      </trkpt>
      <trkpt lat="44.91554" lon="4.24101">
        <ele>924.6</ele>
        <time>2026-05-07T06:51:34Z</time>
      </trkpt>
      <trkpt lat="44.91554" lon="4.24101">
        <ele>924.6</ele>
        <time>2026-05-07T06:51:39Z</time>
      </trkpt>
      <trkpt lat="44.91554" lon="4.24101">
        <ele>924.6</ele>
        <time>2026-05-07T06:51:44Z</time>
      </trkpt>
      <trkpt lat="44.91554" lon="4.24101">
        <ele>924.6</ele>
        <time>2026-05-07T06:51:49Z</time>
      </trkpt>
      <trkpt lat="44.91554" lon="4.24101">
        <ele>924.6</ele>
        <time>2026-05-07T06:51:54Z</time>
      </trkpt>
      <trkpt lat="44.91554" lon="4.24101">
        <ele>924.6</ele>
        <time>2026-05-07T06:51:59Z</time>
      </trkpt>
      <trkpt lat="44.91559" lon="4.24109">
        <ele>925.8</ele>
        <time>2026-05-07T06:52:04Z</time>
      </trkpt>
      <trkpt lat="44.91566" lon="4.24112">
        <ele>925.4</ele>
        <time>2026-05-07T06:52:09Z</time>
      </trkpt>
      <trkpt lat="44.91574" lon="4.24116">
        <ele>924.9</ele>
        <time>2026-05-07T06:52:14Z</time>
      </trkpt>
      <trkpt lat="44.91577" lon="4.24119">
        <ele>925</ele>
        <time>2026-05-07T06:52:19Z</time>
      </trkpt>
      <trkpt lat="44.91581" lon="4.24123">
        <ele>925.1</ele>
        <time>2026-05-07T06:52:24Z</time>
      </trkpt>
      <trkpt lat="44.91587" lon="4.24125">
        <ele>924.5</ele>
        <time>2026-05-07T06:52:29Z</time>
      </trkpt>
      <trkpt lat="44.91595" lon="4.2413">
        <ele>924.3</ele>
        <time>2026-05-07T06:52:34Z</time>
      </trkpt>
      <trkpt lat="44.91599" lon="4.24137">
        <ele>924.7</ele>
        <time>2026-05-07T06:52:39Z</time>
      </trkpt>
      <trkpt lat="44.91604" lon="4.24144">
        <ele>924.7</ele>
        <time>2026-05-07T06:52:44Z</time>
      </trkpt>
      <trkpt lat="44.91607" lon="4.24152">
        <ele>925.1</ele>
        <time>2026-05-07T06:52:49Z</time>
      </trkpt>
      <trkpt lat="44.9161" lon="4.24158">
        <ele>925.1</ele>
        <time>2026-05-07T06:52:54Z</time>
      </trkpt>
      <trkpt lat="44.91617" lon="4.24161">
        <ele>923.7</ele>
        <time>2026-05-07T06:52:59Z</time>
      </trkpt>
      <trkpt lat="44.91625" lon="4.24158">
        <ele>921.5</ele>
        <time>2026-05-07T06:53:04Z</time>
      </trkpt>
      <trkpt lat="44.91632" lon="4.24154">
        <ele>919.8</ele>
        <time>2026-05-07T06:53:09Z</time>
      </trkpt>
      <trkpt lat="44.91636" lon="4.24153">
        <ele>918.9</ele>
        <time>2026-05-07T06:53:14Z</time>
      </trkpt>
      <trkpt lat="44.91642" lon="4.24149">
        <ele>917.6</ele>
        <time>2026-05-07T06:53:19Z</time>
      </trkpt>
      <trkpt lat="44.91646" lon="4.24145">
        <ele>916.8</ele>
        <time>2026-05-07T06:53:24Z</time>
      </trkpt>
      <trkpt lat="44.9165" lon="4.2414">
        <ele>916.2</ele>
        <time>2026-05-07T06:53:29Z</time>
      </trkpt>
      <trkpt lat="44.91655" lon="4.24135">
        <ele>915.5</ele>
        <time>2026-05-07T06:53:34Z</time>
      </trkpt>
      <trkpt lat="44.91662" lon="4.24132">
        <ele>914.6</ele>
        <time>2026-05-07T06:53:39Z</time>
      </trkpt>
      <trkpt lat="44.9167" lon="4.24127">
        <ele>914.6</ele>
        <time>2026-05-07T06:53:44Z</time>
      </trkpt>
      <trkpt lat="44.91679" lon="4.24123">
        <ele>915.7</ele>
        <time>2026-05-07T06:53:49Z</time>
      </trkpt>
      <trkpt lat="44.91686" lon="4.24118">
        <ele>916.9</ele>
        <time>2026-05-07T06:53:54Z</time>
      </trkpt>
      <trkpt lat="44.91693" lon="4.24113">
        <ele>918.1</ele>
        <time>2026-05-07T06:53:59Z</time>
      </trkpt>
      <trkpt lat="44.91698" lon="4.2411">
        <ele>918.9</ele>
        <time>2026-05-07T06:54:04Z</time>
      </trkpt>
      <trkpt lat="44.91703" lon="4.24107">
        <ele>919.8</ele>
        <time>2026-05-07T06:54:09Z</time>
      </trkpt>
      <trkpt lat="44.91708" lon="4.24105">
        <ele>920.6</ele>
        <time>2026-05-07T06:54:14Z</time>
      </trkpt>
      <trkpt lat="44.91715" lon="4.24103">
        <ele>921.6</ele>
        <time>2026-05-07T06:54:19Z</time>
      </trkpt>
      <trkpt lat="44.91721" lon="4.24101">
        <ele>922.6</ele>
        <time>2026-05-07T06:54:24Z</time>
      </trkpt>
      <trkpt lat="44.91728" lon="4.24099">
        <ele>923.7</ele>
        <time>2026-05-07T06:54:29Z</time>
      </trkpt>
      <trkpt lat="44.91732" lon="4.24094">
        <ele>924.9</ele>
        <time>2026-05-07T06:54:34Z</time>
      </trkpt>
      <trkpt lat="44.91732" lon="4.24094">
        <ele>924.9</ele>
        <time>2026-05-07T06:54:39Z</time>
      </trkpt>
      <trkpt lat="44.91735" lon="4.24092">
        <ele>925.6</ele>
        <time>2026-05-07T06:54:44Z</time>
      </trkpt>
      <trkpt lat="44.91741" lon="4.24091">
        <ele>926.5</ele>
        <time>2026-05-07T06:54:49Z</time>
      </trkpt>
      <trkpt lat="44.91747" lon="4.24089">
        <ele>927.6</ele>
        <time>2026-05-07T06:54:54Z</time>
      </trkpt>
      <trkpt lat="44.91755" lon="4.2409">
        <ele>927.9</ele>
        <time>2026-05-07T06:54:59Z</time>
      </trkpt>
      <trkpt lat="44.91762" lon="4.24092">
        <ele>927.7</ele>
        <time>2026-05-07T06:55:04Z</time>
      </trkpt>
      <trkpt lat="44.91771" lon="4.24096">
        <ele>927.1</ele>
        <time>2026-05-07T06:55:09Z</time>
      </trkpt>
      <trkpt lat="44.91777" lon="4.241">
        <ele>926.3</ele>
        <time>2026-05-07T06:55:14Z</time>
      </trkpt>
      <trkpt lat="44.91783" lon="4.24105">
        <ele>925.3</ele>
        <time>2026-05-07T06:55:19Z</time>
      </trkpt>
      <trkpt lat="44.9179" lon="4.2411">
        <ele>924.1</ele>
        <time>2026-05-07T06:55:24Z</time>
      </trkpt>
      <trkpt lat="44.91795" lon="4.24116">
        <ele>922.6</ele>
        <time>2026-05-07T06:55:29Z</time>
      </trkpt>
      <trkpt lat="44.91803" lon="4.24121">
        <ele>921.3</ele>
        <time>2026-05-07T06:55:34Z</time>
      </trkpt>
      <trkpt lat="44.91809" lon="4.24127">
        <ele>919.6</ele>
        <time>2026-05-07T06:55:39Z</time>
      </trkpt>
      <trkpt lat="44.91816" lon="4.24132">
        <ele>918</ele>
        <time>2026-05-07T06:55:44Z</time>
      </trkpt>
      <trkpt lat="44.91822" lon="4.24137">
        <ele>916.4</ele>
        <time>2026-05-07T06:55:49Z</time>
      </trkpt>
      <trkpt lat="44.91828" lon="4.2414">
        <ele>915.2</ele>
        <time>2026-05-07T06:55:54Z</time>
      </trkpt>
      <trkpt lat="44.91834" lon="4.24145">
        <ele>913.6</ele>
        <time>2026-05-07T06:55:59Z</time>
      </trkpt>
      <trkpt lat="44.91841" lon="4.24153">
        <ele>912.1</ele>
        <time>2026-05-07T06:56:04Z</time>
      </trkpt>
      <trkpt lat="44.91848" lon="4.2416">
        <ele>911</ele>
        <time>2026-05-07T06:56:09Z</time>
      </trkpt>
      <trkpt lat="44.91855" lon="4.24165">
        <ele>910.4</ele>
        <time>2026-05-07T06:56:14Z</time>
      </trkpt>
      <trkpt lat="44.91859" lon="4.2417">
        <ele>910</ele>
        <time>2026-05-07T06:56:19Z</time>
      </trkpt>
      <trkpt lat="44.91864" lon="4.24175">
        <ele>910.1</ele>
        <time>2026-05-07T06:56:24Z</time>
      </trkpt>
      <trkpt lat="44.91867" lon="4.24178">
        <ele>910.1</ele>
        <time>2026-05-07T06:56:29Z</time>
      </trkpt>
      <trkpt lat="44.91867" lon="4.24178">
        <ele>910.1</ele>
        <time>2026-05-07T06:56:34Z</time>
      </trkpt>
      <trkpt lat="44.91872" lon="4.24183">
        <ele>910</ele>
        <time>2026-05-07T06:56:39Z</time>
      </trkpt>
      <trkpt lat="44.91872" lon="4.24184">
        <ele>909.9</ele>
        <time>2026-05-07T06:56:44Z</time>
      </trkpt>
      <trkpt lat="44.91876" lon="4.24185">
        <ele>910.2</ele>
        <time>2026-05-07T06:56:49Z</time>
      </trkpt>
      <trkpt lat="44.91878" lon="4.24181">
        <ele>910.9</ele>
        <time>2026-05-07T06:56:54Z</time>
      </trkpt>
      <trkpt lat="44.91878" lon="4.24181">
        <ele>910.9</ele>
        <time>2026-05-07T06:56:59Z</time>
      </trkpt>
      <trkpt lat="44.91881" lon="4.24185">
        <ele>910.7</ele>
        <time>2026-05-07T06:57:04Z</time>
      </trkpt>
      <trkpt lat="44.91889" lon="4.24187">
        <ele>911.3</ele>
        <time>2026-05-07T06:57:09Z</time>
      </trkpt>
      <trkpt lat="44.91897" lon="4.24189">
        <ele>911.7</ele>
        <time>2026-05-07T06:57:14Z</time>
      </trkpt>
      <trkpt lat="44.91903" lon="4.24187">
        <ele>912.7</ele>
        <time>2026-05-07T06:57:19Z</time>
      </trkpt>
      <trkpt lat="44.91911" lon="4.24188">
        <ele>913.3</ele>
        <time>2026-05-07T06:57:24Z</time>
      </trkpt>
      <trkpt lat="44.91918" lon="4.24188">
        <ele>914</ele>
        <time>2026-05-07T06:57:29Z</time>
      </trkpt>
      <trkpt lat="44.91924" lon="4.24188">
        <ele>914.6</ele>
        <time>2026-05-07T06:57:34Z</time>
      </trkpt>
      <trkpt lat="44.9193" lon="4.24192">
        <ele>914.4</ele>
        <time>2026-05-07T06:57:39Z</time>
      </trkpt>
      <trkpt lat="44.91941" lon="4.24195">
        <ele>914.8</ele>
        <time>2026-05-07T06:57:44Z</time>
      </trkpt>
      <trkpt lat="44.91949" lon="4.24199">
        <ele>914.8</ele>
        <time>2026-05-07T06:57:49Z</time>
      </trkpt>
      <trkpt lat="44.91958" lon="4.24201">
        <ele>915.3</ele>
        <time>2026-05-07T06:57:54Z</time>
      </trkpt>
      <trkpt lat="44.91965" lon="4.24202">
        <ele>915.8</ele>
        <time>2026-05-07T06:57:59Z</time>
      </trkpt>
      <trkpt lat="44.91973" lon="4.24205">
        <ele>916</ele>
        <time>2026-05-07T06:58:04Z</time>
      </trkpt>
      <trkpt lat="44.91979" lon="4.24208">
        <ele>916</ele>
        <time>2026-05-07T06:58:09Z</time>
      </trkpt>
      <trkpt lat="44.91984" lon="4.24211">
        <ele>916</ele>
        <time>2026-05-07T06:58:14Z</time>
      </trkpt>
      <trkpt lat="44.9199" lon="4.24216">
        <ele>915.7</ele>
        <time>2026-05-07T06:58:19Z</time>
      </trkpt>
      <trkpt lat="44.91991" lon="4.24219">
        <ele>915.3</ele>
        <time>2026-05-07T06:58:24Z</time>
      </trkpt>
      <trkpt lat="44.9199" lon="4.24221">
        <ele>914.9</ele>
        <time>2026-05-07T06:58:29Z</time>
      </trkpt>
      <trkpt lat="44.91991" lon="4.24226">
        <ele>914.1</ele>
        <time>2026-05-07T06:58:34Z</time>
      </trkpt>
      <trkpt lat="44.91993" lon="4.24233">
        <ele>913.1</ele>
        <time>2026-05-07T06:58:39Z</time>
      </trkpt>
      <trkpt lat="44.91993" lon="4.24242">
        <ele>911.6</ele>
        <time>2026-05-07T06:58:44Z</time>
      </trkpt>
      <trkpt lat="44.91992" lon="4.24252">
        <ele>909.9</ele>
        <time>2026-05-07T06:58:49Z</time>
      </trkpt>
      <trkpt lat="44.91989" lon="4.2426">
        <ele>908.6</ele>
        <time>2026-05-07T06:58:54Z</time>
      </trkpt>
      <trkpt lat="44.91984" lon="4.24264">
        <ele>907.7</ele>
        <time>2026-05-07T06:58:59Z</time>
      </trkpt>
      <trkpt lat="44.91978" lon="4.24271">
        <ele>906.4</ele>
        <time>2026-05-07T06:59:04Z</time>
      </trkpt>
      <trkpt lat="44.91973" lon="4.24277">
        <ele>905.4</ele>
        <time>2026-05-07T06:59:09Z</time>
      </trkpt>
      <trkpt lat="44.9197" lon="4.24285">
        <ele>904.3</ele>
        <time>2026-05-07T06:59:14Z</time>
      </trkpt>
      <trkpt lat="44.91964" lon="4.24294">
        <ele>903.1</ele>
        <time>2026-05-07T06:59:19Z</time>
      </trkpt>
      <trkpt lat="44.91958" lon="4.24301">
        <ele>902.2</ele>
        <time>2026-05-07T06:59:24Z</time>
      </trkpt>
      <trkpt lat="44.91953" lon="4.2431">
        <ele>901.3</ele>
        <time>2026-05-07T06:59:29Z</time>
      </trkpt>
      <trkpt lat="44.91947" lon="4.2432">
        <ele>900.3</ele>
        <time>2026-05-07T06:59:34Z</time>
      </trkpt>
      <trkpt lat="44.91942" lon="4.24332">
        <ele>899.4</ele>
        <time>2026-05-07T06:59:39Z</time>
      </trkpt>
      <trkpt lat="44.9194" lon="4.24344">
        <ele>899.7</ele>
        <time>2026-05-07T06:59:44Z</time>
      </trkpt>
      <trkpt lat="44.9194" lon="4.24351">
        <ele>900</ele>
        <time>2026-05-07T06:59:49Z</time>
      </trkpt>
      <trkpt lat="44.91939" lon="4.24352">
        <ele>900</ele>
        <time>2026-05-07T06:59:54Z</time>
      </trkpt>
      <trkpt lat="44.91939" lon="4.24356">
        <ele>900.2</ele>
        <time>2026-05-07T06:59:59Z</time>
      </trkpt>
      <trkpt lat="44.91939" lon="4.24356">
        <ele>900.2</ele>
        <time>2026-05-07T07:00:04Z</time>
      </trkpt>
      <trkpt lat="44.91939" lon="4.24356">
        <ele>900.2</ele>
        <time>2026-05-07T07:00:09Z</time>
      </trkpt>
      <trkpt lat="44.91939" lon="4.24356">
        <ele>900.2</ele>
        <time>2026-05-07T07:00:14Z</time>
      </trkpt>
      <trkpt lat="44.91939" lon="4.24356">
        <ele>900.2</ele>
        <time>2026-05-07T07:00:19Z</time>
      </trkpt>
      <trkpt lat="44.91939" lon="4.24356">
        <ele>900.2</ele>
        <time>2026-05-07T07:00:24Z</time>
      </trkpt>
      <trkpt lat="44.91939" lon="4.24356">
        <ele>900.2</ele>
        <time>2026-05-07T07:00:29Z</time>
      </trkpt>
      <trkpt lat="44.91939" lon="4.24356">
        <ele>900.2</ele>
        <time>2026-05-07T07:00:34Z</time>
      </trkpt>
      <trkpt lat="44.91939" lon="4.24356">
        <ele>900.2</ele>
        <time>2026-05-07T07:00:39Z</time>
      </trkpt>
      <trkpt lat="44.91949" lon="4.24358">
        <ele>899.8</ele>
        <time>2026-05-07T07:00:44Z</time>
      </trkpt>
      <trkpt lat="44.91955" lon="4.24356">
        <ele>899.5</ele>
        <time>2026-05-07T07:00:49Z</time>
      </trkpt>
      <trkpt lat="44.91959" lon="4.24356">
        <ele>899.3</ele>
        <time>2026-05-07T07:00:54Z</time>
      </trkpt>
      <trkpt lat="44.91968" lon="4.24354">
        <ele>899</ele>
        <time>2026-05-07T07:00:59Z</time>
      </trkpt>
      <trkpt lat="44.91974" lon="4.24353">
        <ele>898.8</ele>
        <time>2026-05-07T07:01:04Z</time>
      </trkpt>
      <trkpt lat="44.9198" lon="4.24352">
        <ele>898.7</ele>
        <time>2026-05-07T07:01:09Z</time>
      </trkpt>
      <trkpt lat="44.91987" lon="4.24352">
        <ele>898.4</ele>
        <time>2026-05-07T07:01:14Z</time>
      </trkpt>
      <trkpt lat="44.91993" lon="4.24354">
        <ele>898</ele>
        <time>2026-05-07T07:01:19Z</time>
      </trkpt>
      <trkpt lat="44.92" lon="4.24357">
        <ele>897.4</ele>
        <time>2026-05-07T07:01:24Z</time>
      </trkpt>
      <trkpt lat="44.92007" lon="4.24362">
        <ele>897.5</ele>
        <time>2026-05-07T07:01:29Z</time>
      </trkpt>
      <trkpt lat="44.92014" lon="4.24365">
        <ele>897.8</ele>
        <time>2026-05-07T07:01:34Z</time>
      </trkpt>
      <trkpt lat="44.92023" lon="4.24371">
        <ele>897.6</ele>
        <time>2026-05-07T07:01:39Z</time>
      </trkpt>
      <trkpt lat="44.92031" lon="4.24376">
        <ele>897.4</ele>
        <time>2026-05-07T07:01:44Z</time>
      </trkpt>
      <trkpt lat="44.92039" lon="4.24377">
        <ele>897.7</ele>
        <time>2026-05-07T07:01:49Z</time>
      </trkpt>
      <trkpt lat="44.92045" lon="4.24379">
        <ele>897.7</ele>
        <time>2026-05-07T07:01:54Z</time>
      </trkpt>
      <trkpt lat="44.92052" lon="4.24381">
        <ele>897.7</ele>
        <time>2026-05-07T07:01:59Z</time>
      </trkpt>
      <trkpt lat="44.92061" lon="4.24381">
        <ele>898.2</ele>
        <time>2026-05-07T07:02:04Z</time>
      </trkpt>
      <trkpt lat="44.92069" lon="4.24385">
        <ele>897.7</ele>
        <time>2026-05-07T07:02:09Z</time>
      </trkpt>
      <trkpt lat="44.92076" lon="4.24387">
        <ele>897.5</ele>
        <time>2026-05-07T07:02:14Z</time>
      </trkpt>
      <trkpt lat="44.92084" lon="4.24391">
        <ele>896.8</ele>
        <time>2026-05-07T07:02:19Z</time>
      </trkpt>
      <trkpt lat="44.92091" lon="4.24394">
        <ele>896.5</ele>
        <time>2026-05-07T07:02:24Z</time>
      </trkpt>
      <trkpt lat="44.92097" lon="4.24397">
        <ele>896</ele>
        <time>2026-05-07T07:02:29Z</time>
      </trkpt>
      <trkpt lat="44.92099" lon="4.24403">
        <ele>894.4</ele>
        <time>2026-05-07T07:02:34Z</time>
      </trkpt>
      <trkpt lat="44.92101" lon="4.24406">
        <ele>893.7</ele>
        <time>2026-05-07T07:02:39Z</time>
      </trkpt>
      <trkpt lat="44.92108" lon="4.24411">
        <ele>892.5</ele>
        <time>2026-05-07T07:02:44Z</time>
      </trkpt>
      <trkpt lat="44.92115" lon="4.24419">
        <ele>891.1</ele>
        <time>2026-05-07T07:02:49Z</time>
      </trkpt>
      <trkpt lat="44.9212" lon="4.24426">
        <ele>891</ele>
        <time>2026-05-07T07:02:54Z</time>
      </trkpt>
      <trkpt lat="44.92127" lon="4.24431">
        <ele>890.9</ele>
        <time>2026-05-07T07:02:59Z</time>
      </trkpt>
      <trkpt lat="44.92134" lon="4.24434">
        <ele>890.8</ele>
        <time>2026-05-07T07:03:04Z</time>
      </trkpt>
      <trkpt lat="44.92141" lon="4.24436">
        <ele>890.7</ele>
        <time>2026-05-07T07:03:09Z</time>
      </trkpt>
      <trkpt lat="44.92148" lon="4.24442">
        <ele>890.2</ele>
        <time>2026-05-07T07:03:14Z</time>
      </trkpt>
      <trkpt lat="44.92155" lon="4.24449">
        <ele>889.4</ele>
        <time>2026-05-07T07:03:19Z</time>
      </trkpt>
      <trkpt lat="44.92162" lon="4.24453">
        <ele>888.8</ele>
        <time>2026-05-07T07:03:24Z</time>
      </trkpt>
      <trkpt lat="44.92168" lon="4.24459">
        <ele>888.1</ele>
        <time>2026-05-07T07:03:29Z</time>
      </trkpt>
      <trkpt lat="44.92174" lon="4.24468">
        <ele>887.5</ele>
        <time>2026-05-07T07:03:34Z</time>
      </trkpt>
      <trkpt lat="44.92179" lon="4.24476">
        <ele>886.9</ele>
        <time>2026-05-07T07:03:39Z</time>
      </trkpt>
      <trkpt lat="44.92183" lon="4.24487">
        <ele>885.6</ele>
        <time>2026-05-07T07:03:44Z</time>
      </trkpt>
      <trkpt lat="44.92187" lon="4.24497">
        <ele>884.4</ele>
        <time>2026-05-07T07:03:49Z</time>
      </trkpt>
      <trkpt lat="44.9219" lon="4.24507">
        <ele>885</ele>
        <time>2026-05-07T07:03:54Z</time>
      </trkpt>
      <trkpt lat="44.92194" lon="4.24517">
        <ele>886.2</ele>
        <time>2026-05-07T07:03:59Z</time>
      </trkpt>
      <trkpt lat="44.92197" lon="4.24525">
        <ele>887</ele>
        <time>2026-05-07T07:04:04Z</time>
      </trkpt>
      <trkpt lat="44.92201" lon="4.24534">
        <ele>887.6</ele>
        <time>2026-05-07T07:04:09Z</time>
      </trkpt>
      <trkpt lat="44.92205" lon="4.24543">
        <ele>888.1</ele>
        <time>2026-05-07T07:04:14Z</time>
      </trkpt>
      <trkpt lat="44.92209" lon="4.24552">
        <ele>888.4</ele>
        <time>2026-05-07T07:04:19Z</time>
      </trkpt>
      <trkpt lat="44.92213" lon="4.24563">
        <ele>888.5</ele>
        <time>2026-05-07T07:04:24Z</time>
      </trkpt>
      <trkpt lat="44.92217" lon="4.24574">
        <ele>888.4</ele>
        <time>2026-05-07T07:04:29Z</time>
      </trkpt>
      <trkpt lat="44.92222" lon="4.24583">
        <ele>887.7</ele>
        <time>2026-05-07T07:04:34Z</time>
      </trkpt>
      <trkpt lat="44.92226" lon="4.24591">
        <ele>887.3</ele>
        <time>2026-05-07T07:04:39Z</time>
      </trkpt>
      <trkpt lat="44.92229" lon="4.24601">
        <ele>887.2</ele>
        <time>2026-05-07T07:04:44Z</time>
      </trkpt>
      <trkpt lat="44.92231" lon="4.24613">
        <ele>887.3</ele>
        <time>2026-05-07T07:04:49Z</time>
      </trkpt>
      <trkpt lat="44.92234" lon="4.24625">
        <ele>886.9</ele>
        <time>2026-05-07T07:04:54Z</time>
      </trkpt>
      <trkpt lat="44.92237" lon="4.24634">
        <ele>886.3</ele>
        <time>2026-05-07T07:04:59Z</time>
      </trkpt>
      <trkpt lat="44.92244" lon="4.24638">
        <ele>884</ele>
        <time>2026-05-07T07:05:04Z</time>
      </trkpt>
      <trkpt lat="44.92249" lon="4.24644">
        <ele>882.4</ele>
        <time>2026-05-07T07:05:09Z</time>
      </trkpt>
      <trkpt lat="44.92255" lon="4.24647">
        <ele>881.9</ele>
        <time>2026-05-07T07:05:14Z</time>
      </trkpt>
      <trkpt lat="44.92261" lon="4.24652">
        <ele>881.7</ele>
        <time>2026-05-07T07:05:19Z</time>
      </trkpt>
      <trkpt lat="44.92267" lon="4.24656">
        <ele>881.4</ele>
        <time>2026-05-07T07:05:24Z</time>
      </trkpt>
      <trkpt lat="44.92275" lon="4.24658">
        <ele>881</ele>
        <time>2026-05-07T07:05:29Z</time>
      </trkpt>
      <trkpt lat="44.92282" lon="4.24664">
        <ele>880.3</ele>
        <time>2026-05-07T07:05:34Z</time>
      </trkpt>
      <trkpt lat="44.92289" lon="4.24667">
        <ele>879.7</ele>
        <time>2026-05-07T07:05:39Z</time>
      </trkpt>
      <trkpt lat="44.92294" lon="4.24668">
        <ele>879.4</ele>
        <time>2026-05-07T07:05:44Z</time>
      </trkpt>
      <trkpt lat="44.92302" lon="4.24672">
        <ele>879</ele>
        <time>2026-05-07T07:05:49Z</time>
      </trkpt>
      <trkpt lat="44.9231" lon="4.24675">
        <ele>878.4</ele>
        <time>2026-05-07T07:05:54Z</time>
      </trkpt>
      <trkpt lat="44.92318" lon="4.24678">
        <ele>877.7</ele>
        <time>2026-05-07T07:05:59Z</time>
      </trkpt>
      <trkpt lat="44.92325" lon="4.24679">
        <ele>877</ele>
        <time>2026-05-07T07:06:04Z</time>
      </trkpt>
      <trkpt lat="44.92332" lon="4.24682">
        <ele>876.2</ele>
        <time>2026-05-07T07:06:09Z</time>
      </trkpt>
      <trkpt lat="44.92339" lon="4.24684">
        <ele>876</ele>
        <time>2026-05-07T07:06:14Z</time>
      </trkpt>
      <trkpt lat="44.92347" lon="4.24686">
        <ele>875.9</ele>
        <time>2026-05-07T07:06:19Z</time>
      </trkpt>
      <trkpt lat="44.92352" lon="4.24687">
        <ele>875.8</ele>
        <time>2026-05-07T07:06:24Z</time>
      </trkpt>
      <trkpt lat="44.92358" lon="4.24687">
        <ele>875.9</ele>
        <time>2026-05-07T07:06:29Z</time>
      </trkpt>
      <trkpt lat="44.92365" lon="4.24688">
        <ele>875.8</ele>
        <time>2026-05-07T07:06:34Z</time>
      </trkpt>
      <trkpt lat="44.92371" lon="4.24692">
        <ele>875.4</ele>
        <time>2026-05-07T07:06:39Z</time>
      </trkpt>
      <trkpt lat="44.92378" lon="4.24692">
        <ele>875.4</ele>
        <time>2026-05-07T07:06:44Z</time>
      </trkpt>
      <trkpt lat="44.92387" lon="4.24693">
        <ele>875.3</ele>
        <time>2026-05-07T07:06:49Z</time>
      </trkpt>
      <trkpt lat="44.92394" lon="4.24694">
        <ele>875.1</ele>
        <time>2026-05-07T07:06:54Z</time>
      </trkpt>
      <trkpt lat="44.92401" lon="4.24697">
        <ele>874.7</ele>
        <time>2026-05-07T07:06:59Z</time>
      </trkpt>
      <trkpt lat="44.92409" lon="4.24698">
        <ele>874.5</ele>
        <time>2026-05-07T07:07:04Z</time>
      </trkpt>
      <trkpt lat="44.92416" lon="4.24699">
        <ele>874.3</ele>
        <time>2026-05-07T07:07:09Z</time>
      </trkpt>
      <trkpt lat="44.92424" lon="4.24699">
        <ele>874.1</ele>
        <time>2026-05-07T07:07:14Z</time>
      </trkpt>
      <trkpt lat="44.92433" lon="4.247">
        <ele>873.7</ele>
        <time>2026-05-07T07:07:19Z</time>
      </trkpt>
      <trkpt lat="44.92439" lon="4.24703">
        <ele>873.1</ele>
        <time>2026-05-07T07:07:24Z</time>
      </trkpt>
      <trkpt lat="44.92447" lon="4.24703">
        <ele>872.9</ele>
        <time>2026-05-07T07:07:29Z</time>
      </trkpt>
      <trkpt lat="44.92455" lon="4.24706">
        <ele>872.2</ele>
        <time>2026-05-07T07:07:34Z</time>
      </trkpt>
      <trkpt lat="44.92463" lon="4.24707">
        <ele>871.8</ele>
        <time>2026-05-07T07:07:39Z</time>
      </trkpt>
      <trkpt lat="44.92471" lon="4.24711">
        <ele>871</ele>
        <time>2026-05-07T07:07:44Z</time>
      </trkpt>
      <trkpt lat="44.92478" lon="4.24713">
        <ele>870.4</ele>
        <time>2026-05-07T07:07:49Z</time>
      </trkpt>
      <trkpt lat="44.92486" lon="4.24715">
        <ele>869.9</ele>
        <time>2026-05-07T07:07:54Z</time>
      </trkpt>
      <trkpt lat="44.92494" lon="4.24715">
        <ele>869.6</ele>
        <time>2026-05-07T07:07:59Z</time>
      </trkpt>
      <trkpt lat="44.92501" lon="4.24718">
        <ele>869</ele>
        <time>2026-05-07T07:08:04Z</time>
      </trkpt>
      <trkpt lat="44.92509" lon="4.24719">
        <ele>868.8</ele>
        <time>2026-05-07T07:08:09Z</time>
      </trkpt>
      <trkpt lat="44.92516" lon="4.24719">
        <ele>868.7</ele>
        <time>2026-05-07T07:08:14Z</time>
      </trkpt>
      <trkpt lat="44.92524" lon="4.24718">
        <ele>868.9</ele>
        <time>2026-05-07T07:08:19Z</time>
      </trkpt>
      <trkpt lat="44.92531" lon="4.24717">
        <ele>869</ele>
        <time>2026-05-07T07:08:24Z</time>
      </trkpt>
      <trkpt lat="44.92538" lon="4.24714">
        <ele>869.5</ele>
        <time>2026-05-07T07:08:29Z</time>
      </trkpt>
      <trkpt lat="44.92545" lon="4.2471">
        <ele>870.2</ele>
        <time>2026-05-07T07:08:34Z</time>
      </trkpt>
      <trkpt lat="44.92552" lon="4.24709">
        <ele>870.4</ele>
        <time>2026-05-07T07:08:39Z</time>
      </trkpt>
      <trkpt lat="44.92559" lon="4.2471">
        <ele>870.2</ele>
        <time>2026-05-07T07:08:44Z</time>
      </trkpt>
      <trkpt lat="44.92565" lon="4.24712">
        <ele>869.8</ele>
        <time>2026-05-07T07:08:49Z</time>
      </trkpt>
      <trkpt lat="44.92571" lon="4.24713">
        <ele>869.6</ele>
        <time>2026-05-07T07:08:54Z</time>
      </trkpt>
      <trkpt lat="44.92578" lon="4.24716">
        <ele>869</ele>
        <time>2026-05-07T07:08:59Z</time>
      </trkpt>
      <trkpt lat="44.9258" lon="4.24717">
        <ele>868.7</ele>
        <time>2026-05-07T07:09:04Z</time>
      </trkpt>
      <trkpt lat="44.92581" lon="4.24718">
        <ele>868.5</ele>
        <time>2026-05-07T07:09:09Z</time>
      </trkpt>
      <trkpt lat="44.92581" lon="4.24718">
        <ele>868.5</ele>
        <time>2026-05-07T07:09:14Z</time>
      </trkpt>
      <trkpt lat="44.92581" lon="4.24718">
        <ele>868.5</ele>
        <time>2026-05-07T07:09:19Z</time>
      </trkpt>
      <trkpt lat="44.92581" lon="4.24718">
        <ele>868.5</ele>
        <time>2026-05-07T07:09:24Z</time>
      </trkpt>
      <trkpt lat="44.92581" lon="4.24718">
        <ele>868.5</ele>
        <time>2026-05-07T07:09:29Z</time>
      </trkpt>
      <trkpt lat="44.92588" lon="4.24721">
        <ele>868</ele>
        <time>2026-05-07T07:09:34Z</time>
      </trkpt>
      <trkpt lat="44.92592" lon="4.24724">
        <ele>867.4</ele>
        <time>2026-05-07T07:09:39Z</time>
      </trkpt>
      <trkpt lat="44.92598" lon="4.24728">
        <ele>866.6</ele>
        <time>2026-05-07T07:09:44Z</time>
      </trkpt>
      <trkpt lat="44.92603" lon="4.24732">
        <ele>865.8</ele>
        <time>2026-05-07T07:09:49Z</time>
      </trkpt>
      <trkpt lat="44.92609" lon="4.24739">
        <ele>864.3</ele>
        <time>2026-05-07T07:09:54Z</time>
      </trkpt>
      <trkpt lat="44.92615" lon="4.24747">
        <ele>862.6</ele>
        <time>2026-05-07T07:09:59Z</time>
      </trkpt>
      <trkpt lat="44.9262" lon="4.24756">
        <ele>861.7</ele>
        <time>2026-05-07T07:10:04Z</time>
      </trkpt>
      <trkpt lat="44.92625" lon="4.2476">
        <ele>861.5</ele>
        <time>2026-05-07T07:10:09Z</time>
      </trkpt>
      <trkpt lat="44.92631" lon="4.24761">
        <ele>861.4</ele>
        <time>2026-05-07T07:10:14Z</time>
      </trkpt>
      <trkpt lat="44.92637" lon="4.24755">
        <ele>861.7</ele>
        <time>2026-05-07T07:10:19Z</time>
      </trkpt>
      <trkpt lat="44.92642" lon="4.24749">
        <ele>862.2</ele>
        <time>2026-05-07T07:10:24Z</time>
      </trkpt>
      <trkpt lat="44.92646" lon="4.24742">
        <ele>863.8</ele>
        <time>2026-05-07T07:10:29Z</time>
      </trkpt>
      <trkpt lat="44.92647" lon="4.24733">
        <ele>865.8</ele>
        <time>2026-05-07T07:10:34Z</time>
      </trkpt>
      <trkpt lat="44.92651" lon="4.24726">
        <ele>867.4</ele>
        <time>2026-05-07T07:10:39Z</time>
      </trkpt>
      <trkpt lat="44.92655" lon="4.24718">
        <ele>869.2</ele>
        <time>2026-05-07T07:10:44Z</time>
      </trkpt>
      <trkpt lat="44.92658" lon="4.24707">
        <ele>871.7</ele>
        <time>2026-05-07T07:10:49Z</time>
      </trkpt>
      <trkpt lat="44.92664" lon="4.24698">
        <ele>873.8</ele>
        <time>2026-05-07T07:10:54Z</time>
      </trkpt>
      <trkpt lat="44.92671" lon="4.24695">
        <ele>874.4</ele>
        <time>2026-05-07T07:10:59Z</time>
      </trkpt>
      <trkpt lat="44.92674" lon="4.24696">
        <ele>874</ele>
        <time>2026-05-07T07:11:04Z</time>
      </trkpt>
      <trkpt lat="44.92674" lon="4.24696">
        <ele>874</ele>
        <time>2026-05-07T07:11:09Z</time>
      </trkpt>
      <trkpt lat="44.92674" lon="4.24696">
        <ele>874</ele>
        <time>2026-05-07T07:11:14Z</time>
      </trkpt>
      <trkpt lat="44.9268" lon="4.24697">
        <ele>873.6</ele>
        <time>2026-05-07T07:11:19Z</time>
      </trkpt>
      <trkpt lat="44.92683" lon="4.24704">
        <ele>871.9</ele>
        <time>2026-05-07T07:11:24Z</time>
      </trkpt>
      <trkpt lat="44.92687" lon="4.24712">
        <ele>870.1</ele>
        <time>2026-05-07T07:11:29Z</time>
      </trkpt>
      <trkpt lat="44.92689" lon="4.24719">
        <ele>868.6</ele>
        <time>2026-05-07T07:11:34Z</time>
      </trkpt>
      <trkpt lat="44.92692" lon="4.24725">
        <ele>867.2</ele>
        <time>2026-05-07T07:11:39Z</time>
      </trkpt>
      <trkpt lat="44.92695" lon="4.24733">
        <ele>865.5</ele>
        <time>2026-05-07T07:11:44Z</time>
      </trkpt>
      <trkpt lat="44.92697" lon="4.24743">
        <ele>863.4</ele>
        <time>2026-05-07T07:11:49Z</time>
      </trkpt>
      <trkpt lat="44.92699" lon="4.2475">
        <ele>862</ele>
        <time>2026-05-07T07:11:54Z</time>
      </trkpt>
      <trkpt lat="44.92702" lon="4.24758">
        <ele>861.2</ele>
        <time>2026-05-07T07:11:59Z</time>
      </trkpt>
      <trkpt lat="44.92705" lon="4.24765">
        <ele>860.4</ele>
        <time>2026-05-07T07:12:04Z</time>
      </trkpt>
      <trkpt lat="44.92709" lon="4.24771">
        <ele>859.7</ele>
        <time>2026-05-07T07:12:09Z</time>
      </trkpt>
      <trkpt lat="44.92714" lon="4.24777">
        <ele>859</ele>
        <time>2026-05-07T07:12:14Z</time>
      </trkpt>
      <trkpt lat="44.92718" lon="4.24782">
        <ele>858.4</ele>
        <time>2026-05-07T07:12:19Z</time>
      </trkpt>
      <trkpt lat="44.92723" lon="4.24785">
        <ele>857.9</ele>
        <time>2026-05-07T07:12:24Z</time>
      </trkpt>
      <trkpt lat="44.92728" lon="4.24787">
        <ele>857.6</ele>
        <time>2026-05-07T07:12:29Z</time>
      </trkpt>
      <trkpt lat="44.92733" lon="4.2479">
        <ele>857.1</ele>
        <time>2026-05-07T07:12:34Z</time>
      </trkpt>
      <trkpt lat="44.92739" lon="4.24793">
        <ele>856.6</ele>
        <time>2026-05-07T07:12:39Z</time>
      </trkpt>
      <trkpt lat="44.92744" lon="4.24797">
        <ele>856</ele>
        <time>2026-05-07T07:12:44Z</time>
      </trkpt>
      <trkpt lat="44.92749" lon="4.248">
        <ele>855.4</ele>
        <time>2026-05-07T07:12:49Z</time>
      </trkpt>
      <trkpt lat="44.92754" lon="4.24803">
        <ele>855.9</ele>
        <time>2026-05-07T07:12:54Z</time>
      </trkpt>
      <trkpt lat="44.9276" lon="4.24807">
        <ele>856.5</ele>
        <time>2026-05-07T07:12:59Z</time>
      </trkpt>
      <trkpt lat="44.92768" lon="4.24807">
        <ele>858.2</ele>
        <time>2026-05-07T07:13:04Z</time>
      </trkpt>
      <trkpt lat="44.92773" lon="4.24811">
        <ele>858.5</ele>
        <time>2026-05-07T07:13:09Z</time>
      </trkpt>
      <trkpt lat="44.92779" lon="4.24812">
        <ele>859.5</ele>
        <time>2026-05-07T07:13:14Z</time>
      </trkpt>
      <trkpt lat="44.92784" lon="4.24813">
        <ele>860.3</ele>
        <time>2026-05-07T07:13:19Z</time>
      </trkpt>
      <trkpt lat="44.92789" lon="4.24815">
        <ele>860.8</ele>
        <time>2026-05-07T07:13:24Z</time>
      </trkpt>
      <trkpt lat="44.92793" lon="4.24817">
        <ele>861.2</ele>
        <time>2026-05-07T07:13:29Z</time>
      </trkpt>
      <trkpt lat="44.92799" lon="4.24827">
        <ele>860.1</ele>
        <time>2026-05-07T07:13:34Z</time>
      </trkpt>
      <trkpt lat="44.92807" lon="4.24831">
        <ele>860.4</ele>
        <time>2026-05-07T07:13:39Z</time>
      </trkpt>
      <trkpt lat="44.92813" lon="4.24835">
        <ele>860.6</ele>
        <time>2026-05-07T07:13:44Z</time>
      </trkpt>
      <trkpt lat="44.92819" lon="4.24838">
        <ele>861.1</ele>
        <time>2026-05-07T07:13:49Z</time>
      </trkpt>
      <trkpt lat="44.92824" lon="4.24841">
        <ele>861.3</ele>
        <time>2026-05-07T07:13:54Z</time>
      </trkpt>
      <trkpt lat="44.9283" lon="4.24844">
        <ele>861.6</ele>
        <time>2026-05-07T07:13:59Z</time>
      </trkpt>
      <trkpt lat="44.92837" lon="4.24847">
        <ele>862.3</ele>
        <time>2026-05-07T07:14:04Z</time>
      </trkpt>
      <trkpt lat="44.92843" lon="4.24851">
        <ele>862.7</ele>
        <time>2026-05-07T07:14:09Z</time>
      </trkpt>
      <trkpt lat="44.92848" lon="4.24855">
        <ele>862.9</ele>
        <time>2026-05-07T07:14:14Z</time>
      </trkpt>
      <trkpt lat="44.92853" lon="4.2486">
        <ele>862.8</ele>
        <time>2026-05-07T07:14:19Z</time>
      </trkpt>
      <trkpt lat="44.92857" lon="4.24864">
        <ele>862.6</ele>
        <time>2026-05-07T07:14:24Z</time>
      </trkpt>
      <trkpt lat="44.92861" lon="4.2487">
        <ele>862</ele>
        <time>2026-05-07T07:14:29Z</time>
      </trkpt>
      <trkpt lat="44.92865" lon="4.24876">
        <ele>861.2</ele>
        <time>2026-05-07T07:14:34Z</time>
      </trkpt>
      <trkpt lat="44.92869" lon="4.24881">
        <ele>860.6</ele>
        <time>2026-05-07T07:14:39Z</time>
      </trkpt>
      <trkpt lat="44.92874" lon="4.24884">
        <ele>860.6</ele>
        <time>2026-05-07T07:14:44Z</time>
      </trkpt>
      <trkpt lat="44.92879" lon="4.24885">
        <ele>861</ele>
        <time>2026-05-07T07:14:49Z</time>
      </trkpt>
      <trkpt lat="44.92884" lon="4.24883">
        <ele>862.3</ele>
        <time>2026-05-07T07:14:54Z</time>
      </trkpt>
      <trkpt lat="44.9289" lon="4.24879">
        <ele>864.2</ele>
        <time>2026-05-07T07:14:59Z</time>
      </trkpt>
      <trkpt lat="44.92895" lon="4.24876">
        <ele>865.8</ele>
        <time>2026-05-07T07:15:04Z</time>
      </trkpt>
      <trkpt lat="44.92899" lon="4.24872">
        <ele>867.6</ele>
        <time>2026-05-07T07:15:09Z</time>
      </trkpt>
      <trkpt lat="44.92904" lon="4.24868">
        <ele>869.6</ele>
        <time>2026-05-07T07:15:14Z</time>
      </trkpt>
      <trkpt lat="44.92908" lon="4.24865">
        <ele>871.2</ele>
        <time>2026-05-07T07:15:19Z</time>
      </trkpt>
      <trkpt lat="44.92913" lon="4.2486">
        <ele>873.7</ele>
        <time>2026-05-07T07:15:24Z</time>
      </trkpt>
      <trkpt lat="44.92918" lon="4.24853">
        <ele>876.7</ele>
        <time>2026-05-07T07:15:29Z</time>
      </trkpt>
      <trkpt lat="44.92921" lon="4.24848">
        <ele>878.6</ele>
        <time>2026-05-07T07:15:34Z</time>
      </trkpt>
      <trkpt lat="44.92925" lon="4.24841">
        <ele>881.2</ele>
        <time>2026-05-07T07:15:39Z</time>
      </trkpt>
      <trkpt lat="44.9293" lon="4.24834">
        <ele>883.7</ele>
        <time>2026-05-07T07:15:44Z</time>
      </trkpt>
      <trkpt lat="44.92933" lon="4.24826">
        <ele>886.4</ele>
        <time>2026-05-07T07:15:49Z</time>
      </trkpt>
      <trkpt lat="44.92937" lon="4.24818">
        <ele>889.2</ele>
        <time>2026-05-07T07:15:54Z</time>
      </trkpt>
      <trkpt lat="44.9294" lon="4.24812">
        <ele>891.2</ele>
        <time>2026-05-07T07:15:59Z</time>
      </trkpt>
      <trkpt lat="44.92943" lon="4.24806">
        <ele>893.1</ele>
        <time>2026-05-07T07:16:04Z</time>
      </trkpt>
      <trkpt lat="44.92946" lon="4.248">
        <ele>895.1</ele>
        <time>2026-05-07T07:16:09Z</time>
      </trkpt>
      <trkpt lat="44.9295" lon="4.24793">
        <ele>897.3</ele>
        <time>2026-05-07T07:16:14Z</time>
      </trkpt>
      <trkpt lat="44.92952" lon="4.24785">
        <ele>899.7</ele>
        <time>2026-05-07T07:16:19Z</time>
      </trkpt>
      <trkpt lat="44.92956" lon="4.24779">
        <ele>901.6</ele>
        <time>2026-05-07T07:16:24Z</time>
      </trkpt>
      <trkpt lat="44.92959" lon="4.24771">
        <ele>904</ele>
        <time>2026-05-07T07:16:29Z</time>
      </trkpt>
      <trkpt lat="44.92963" lon="4.24764">
        <ele>906</ele>
        <time>2026-05-07T07:16:34Z</time>
      </trkpt>
      <trkpt lat="44.92966" lon="4.24756">
        <ele>908.3</ele>
        <time>2026-05-07T07:16:39Z</time>
      </trkpt>
      <trkpt lat="44.92973" lon="4.2475">
        <ele>910</ele>
        <time>2026-05-07T07:16:44Z</time>
      </trkpt>
      <trkpt lat="44.92977" lon="4.24743">
        <ele>912.2</ele>
        <time>2026-05-07T07:16:49Z</time>
      </trkpt>
      <trkpt lat="44.92982" lon="4.24737">
        <ele>913.9</ele>
        <time>2026-05-07T07:16:54Z</time>
      </trkpt>
      <trkpt lat="44.92987" lon="4.24732">
        <ele>915.4</ele>
        <time>2026-05-07T07:16:59Z</time>
      </trkpt>
      <trkpt lat="44.92992" lon="4.24726">
        <ele>917.1</ele>
        <time>2026-05-07T07:17:04Z</time>
      </trkpt>
      <trkpt lat="44.92996" lon="4.2472">
        <ele>918.7</ele>
        <time>2026-05-07T07:17:09Z</time>
      </trkpt>
      <trkpt lat="44.93001" lon="4.24715">
        <ele>919.8</ele>
        <time>2026-05-07T07:17:14Z</time>
      </trkpt>
      <trkpt lat="44.93006" lon="4.24708">
        <ele>920.4</ele>
        <time>2026-05-07T07:17:19Z</time>
      </trkpt>
      <trkpt lat="44.9301" lon="4.24703">
        <ele>920.6</ele>
        <time>2026-05-07T07:17:24Z</time>
      </trkpt>
      <trkpt lat="44.93015" lon="4.24697">
        <ele>920.8</ele>
        <time>2026-05-07T07:17:29Z</time>
      </trkpt>
      <trkpt lat="44.93019" lon="4.24691">
        <ele>921.2</ele>
        <time>2026-05-07T07:17:34Z</time>
      </trkpt>
      <trkpt lat="44.93023" lon="4.24684">
        <ele>921.9</ele>
        <time>2026-05-07T07:17:39Z</time>
      </trkpt>
      <trkpt lat="44.93028" lon="4.24677">
        <ele>922.2</ele>
        <time>2026-05-07T07:17:44Z</time>
      </trkpt>
      <trkpt lat="44.93032" lon="4.2467">
        <ele>922.8</ele>
        <time>2026-05-07T07:17:49Z</time>
      </trkpt>
      <trkpt lat="44.93035" lon="4.24662">
        <ele>923.9</ele>
        <time>2026-05-07T07:17:54Z</time>
      </trkpt>
      <trkpt lat="44.9304" lon="4.24657">
        <ele>923.6</ele>
        <time>2026-05-07T07:17:59Z</time>
      </trkpt>
      <trkpt lat="44.93044" lon="4.2465">
        <ele>924.1</ele>
        <time>2026-05-07T07:18:04Z</time>
      </trkpt>
      <trkpt lat="44.93046" lon="4.24641">
        <ele>925.9</ele>
        <time>2026-05-07T07:18:09Z</time>
      </trkpt>
      <trkpt lat="44.93048" lon="4.24631">
        <ele>927.9</ele>
        <time>2026-05-07T07:18:14Z</time>
      </trkpt>
      <trkpt lat="44.93049" lon="4.24622">
        <ele>929.9</ele>
        <time>2026-05-07T07:18:19Z</time>
      </trkpt>
      <trkpt lat="44.93051" lon="4.24613">
        <ele>931.6</ele>
        <time>2026-05-07T07:18:24Z</time>
      </trkpt>
      <trkpt lat="44.93052" lon="4.24604">
        <ele>933.7</ele>
        <time>2026-05-07T07:18:29Z</time>
      </trkpt>
      <trkpt lat="44.93053" lon="4.24595">
        <ele>935.7</ele>
        <time>2026-05-07T07:18:34Z</time>
      </trkpt>
      <trkpt lat="44.93055" lon="4.24587">
        <ele>937.2</ele>
        <time>2026-05-07T07:18:39Z</time>
      </trkpt>
      <trkpt lat="44.93057" lon="4.24577">
        <ele>939.2</ele>
        <time>2026-05-07T07:18:44Z</time>
      </trkpt>
      <trkpt lat="44.93058" lon="4.24566">
        <ele>941.7</ele>
        <time>2026-05-07T07:18:49Z</time>
      </trkpt>
      <trkpt lat="44.9306" lon="4.24557">
        <ele>943.5</ele>
        <time>2026-05-07T07:18:54Z</time>
      </trkpt>
      <trkpt lat="44.93062" lon="4.24554">
        <ele>943.6</ele>
        <time>2026-05-07T07:18:59Z</time>
      </trkpt>
      <trkpt lat="44.93065" lon="4.24554">
        <ele>942.7</ele>
        <time>2026-05-07T07:19:04Z</time>
      </trkpt>
      <trkpt lat="44.93066" lon="4.24554">
        <ele>942.4</ele>
        <time>2026-05-07T07:19:09Z</time>
      </trkpt>
      <trkpt lat="44.93066" lon="4.24554">
        <ele>942.4</ele>
        <time>2026-05-07T07:19:14Z</time>
      </trkpt>
      <trkpt lat="44.93066" lon="4.24554">
        <ele>942.4</ele>
        <time>2026-05-07T07:19:19Z</time>
      </trkpt>
      <trkpt lat="44.93066" lon="4.24554">
        <ele>942.4</ele>
        <time>2026-05-07T07:19:24Z</time>
      </trkpt>
      <trkpt lat="44.93066" lon="4.24554">
        <ele>942.4</ele>
        <time>2026-05-07T07:19:29Z</time>
      </trkpt>
      <trkpt lat="44.93066" lon="4.24554">
        <ele>942.4</ele>
        <time>2026-05-07T07:19:34Z</time>
      </trkpt>
      <trkpt lat="44.93066" lon="4.24554">
        <ele>942.4</ele>
        <time>2026-05-07T07:19:39Z</time>
      </trkpt>
      <trkpt lat="44.93066" lon="4.24554">
        <ele>942.4</ele>
        <time>2026-05-07T07:19:44Z</time>
      </trkpt>
      <trkpt lat="44.93066" lon="4.24554">
        <ele>942.4</ele>
        <time>2026-05-07T07:19:49Z</time>
      </trkpt>
      <trkpt lat="44.93066" lon="4.24554">
        <ele>942.4</ele>
        <time>2026-05-07T07:19:54Z</time>
      </trkpt>
      <trkpt lat="44.93066" lon="4.24554">
        <ele>942.4</ele>
        <time>2026-05-07T07:19:59Z</time>
      </trkpt>
      <trkpt lat="44.93066" lon="4.24554">
        <ele>942.4</ele>
        <time>2026-05-07T07:20:04Z</time>
      </trkpt>
      <trkpt lat="44.93066" lon="4.24554">
        <ele>942.4</ele>
        <time>2026-05-07T07:20:09Z</time>
      </trkpt>
      <trkpt lat="44.93066" lon="4.24554">
        <ele>942.4</ele>
        <time>2026-05-07T07:20:14Z</time>
      </trkpt>
      <trkpt lat="44.93066" lon="4.24554">
        <ele>942.4</ele>
        <time>2026-05-07T07:20:19Z</time>
      </trkpt>
      <trkpt lat="44.93066" lon="4.24554">
        <ele>942.4</ele>
        <time>2026-05-07T07:20:24Z</time>
      </trkpt>
      <trkpt lat="44.93066" lon="4.24554">
        <ele>942.4</ele>
        <time>2026-05-07T07:20:29Z</time>
      </trkpt>
      <trkpt lat="44.93066" lon="4.24554">
        <ele>942.4</ele>
        <time>2026-05-07T07:20:34Z</time>
      </trkpt>
      <trkpt lat="44.93066" lon="4.24554">
        <ele>942.4</ele>
        <time>2026-05-07T07:20:39Z</time>
      </trkpt>
      <trkpt lat="44.93066" lon="4.24554">
        <ele>942.4</ele>
        <time>2026-05-07T07:20:44Z</time>
      </trkpt>
      <trkpt lat="44.93066" lon="4.24554">
        <ele>942.4</ele>
        <time>2026-05-07T07:20:49Z</time>
      </trkpt>
      <trkpt lat="44.93066" lon="4.24554">
        <ele>942.4</ele>
        <time>2026-05-07T07:20:54Z</time>
      </trkpt>
      <trkpt lat="44.93066" lon="4.24554">
        <ele>942.4</ele>
        <time>2026-05-07T07:20:59Z</time>
      </trkpt>
      <trkpt lat="44.93066" lon="4.24554">
        <ele>942.4</ele>
        <time>2026-05-07T07:21:04Z</time>
      </trkpt>
      <trkpt lat="44.93066" lon="4.24554">
        <ele>942.4</ele>
        <time>2026-05-07T07:21:09Z</time>
      </trkpt>
      <trkpt lat="44.93066" lon="4.24554">
        <ele>942.4</ele>
        <time>2026-05-07T07:21:14Z</time>
      </trkpt>
      <trkpt lat="44.93066" lon="4.24554">
        <ele>942.4</ele>
        <time>2026-05-07T07:21:19Z</time>
      </trkpt>
      <trkpt lat="44.93066" lon="4.24554">
        <ele>942.4</ele>
        <time>2026-05-07T07:21:24Z</time>
      </trkpt>
      <trkpt lat="44.93066" lon="4.24554">
        <ele>942.4</ele>
        <time>2026-05-07T07:21:29Z</time>
      </trkpt>
      <trkpt lat="44.93066" lon="4.24554">
        <ele>942.4</ele>
        <time>2026-05-07T07:21:34Z</time>
      </trkpt>
      <trkpt lat="44.93066" lon="4.24554">
        <ele>942.4</ele>
        <time>2026-05-07T07:21:39Z</time>
      </trkpt>
      <trkpt lat="44.93066" lon="4.24554">
        <ele>942.4</ele>
        <time>2026-05-07T07:21:44Z</time>
      </trkpt>
      <trkpt lat="44.93066" lon="4.24554">
        <ele>942.4</ele>
        <time>2026-05-07T07:21:49Z</time>
      </trkpt>
      <trkpt lat="44.93066" lon="4.24554">
        <ele>942.4</ele>
        <time>2026-05-07T07:21:54Z</time>
      </trkpt>
      <trkpt lat="44.93066" lon="4.24554">
        <ele>942.4</ele>
        <time>2026-05-07T07:21:59Z</time>
      </trkpt>
      <trkpt lat="44.93066" lon="4.24554">
        <ele>942.4</ele>
        <time>2026-05-07T07:22:04Z</time>
      </trkpt>
      <trkpt lat="44.93066" lon="4.24554">
        <ele>942.4</ele>
        <time>2026-05-07T07:22:09Z</time>
      </trkpt>
      <trkpt lat="44.93066" lon="4.24554">
        <ele>942.4</ele>
        <time>2026-05-07T07:22:14Z</time>
      </trkpt>
      <trkpt lat="44.93066" lon="4.24554">
        <ele>942.4</ele>
        <time>2026-05-07T07:22:19Z</time>
      </trkpt>
      <trkpt lat="44.93076" lon="4.24556">
        <ele>938.8</ele>
        <time>2026-05-07T07:22:24Z</time>
      </trkpt>
      <trkpt lat="44.9308" lon="4.24559">
        <ele>936.7</ele>
        <time>2026-05-07T07:22:29Z</time>
      </trkpt>
      <trkpt lat="44.93083" lon="4.24563">
        <ele>934.7</ele>
        <time>2026-05-07T07:22:34Z</time>
      </trkpt>
      <trkpt lat="44.93088" lon="4.24565">
        <ele>933.1</ele>
        <time>2026-05-07T07:22:39Z</time>
      </trkpt>
      <trkpt lat="44.93094" lon="4.24567">
        <ele>931.2</ele>
        <time>2026-05-07T07:22:44Z</time>
      </trkpt>
      <trkpt lat="44.93094" lon="4.2457">
        <ele>930.4</ele>
        <time>2026-05-07T07:22:49Z</time>
      </trkpt>
      <trkpt lat="44.93099" lon="4.24574">
        <ele>928.2</ele>
        <time>2026-05-07T07:22:54Z</time>
      </trkpt>
      <trkpt lat="44.93104" lon="4.24575">
        <ele>926.8</ele>
        <time>2026-05-07T07:22:59Z</time>
      </trkpt>
      <trkpt lat="44.93109" lon="4.24576">
        <ele>925.5</ele>
        <time>2026-05-07T07:23:04Z</time>
      </trkpt>
      <trkpt lat="44.93112" lon="4.24575">
        <ele>925.1</ele>
        <time>2026-05-07T07:23:09Z</time>
      </trkpt>
      <trkpt lat="44.93116" lon="4.24574">
        <ele>924.5</ele>
        <time>2026-05-07T07:23:14Z</time>
      </trkpt>
      <trkpt lat="44.93118" lon="4.24575">
        <ele>923.8</ele>
        <time>2026-05-07T07:23:19Z</time>
      </trkpt>
      <trkpt lat="44.93123" lon="4.24575">
        <ele>922.7</ele>
        <time>2026-05-07T07:23:24Z</time>
      </trkpt>
      <trkpt lat="44.9313" lon="4.24572">
        <ele>922</ele>
        <time>2026-05-07T07:23:29Z</time>
      </trkpt>
      <trkpt lat="44.93137" lon="4.24571">
        <ele>920.8</ele>
        <time>2026-05-07T07:23:34Z</time>
      </trkpt>
      <trkpt lat="44.93143" lon="4.24569">
        <ele>920.1</ele>
        <time>2026-05-07T07:23:39Z</time>
      </trkpt>
      <trkpt lat="44.93147" lon="4.2457">
        <ele>918.9</ele>
        <time>2026-05-07T07:23:44Z</time>
      </trkpt>
      <trkpt lat="44.93149" lon="4.24568">
        <ele>919</ele>
        <time>2026-05-07T07:23:49Z</time>
      </trkpt>
      <trkpt lat="44.93155" lon="4.24565">
        <ele>918.6</ele>
        <time>2026-05-07T07:23:54Z</time>
      </trkpt>
      <trkpt lat="44.93161" lon="4.24564">
        <ele>917.6</ele>
        <time>2026-05-07T07:23:59Z</time>
      </trkpt>
      <trkpt lat="44.93165" lon="4.24563">
        <ele>917</ele>
        <time>2026-05-07T07:24:04Z</time>
      </trkpt>
      <trkpt lat="44.93165" lon="4.24563">
        <ele>917</ele>
        <time>2026-05-07T07:24:09Z</time>
      </trkpt>
      <trkpt lat="44.93165" lon="4.24563">
        <ele>917</ele>
        <time>2026-05-07T07:24:14Z</time>
      </trkpt>
      <trkpt lat="44.93168" lon="4.24559">
        <ele>917.8</ele>
        <time>2026-05-07T07:24:19Z</time>
      </trkpt>
      <trkpt lat="44.93174" lon="4.24557">
        <ele>918.7</ele>
        <time>2026-05-07T07:24:24Z</time>
      </trkpt>
      <trkpt lat="44.93181" lon="4.24556">
        <ele>919.5</ele>
        <time>2026-05-07T07:24:29Z</time>
      </trkpt>
      <trkpt lat="44.93188" lon="4.24556">
        <ele>919.9</ele>
        <time>2026-05-07T07:24:34Z</time>
      </trkpt>
      <trkpt lat="44.93193" lon="4.24562">
        <ele>918.3</ele>
        <time>2026-05-07T07:24:39Z</time>
      </trkpt>
      <trkpt lat="44.93197" lon="4.24564">
        <ele>917.9</ele>
        <time>2026-05-07T07:24:44Z</time>
      </trkpt>
      <trkpt lat="44.93203" lon="4.24566">
        <ele>917.6</ele>
        <time>2026-05-07T07:24:49Z</time>
      </trkpt>
      <trkpt lat="44.93209" lon="4.24568">
        <ele>917.2</ele>
        <time>2026-05-07T07:24:54Z</time>
      </trkpt>
      <trkpt lat="44.93215" lon="4.24572">
        <ele>916.1</ele>
        <time>2026-05-07T07:24:59Z</time>
      </trkpt>
      <trkpt lat="44.93221" lon="4.24576">
        <ele>914.9</ele>
        <time>2026-05-07T07:25:04Z</time>
      </trkpt>
      <trkpt lat="44.93226" lon="4.24579">
        <ele>914</ele>
        <time>2026-05-07T07:25:09Z</time>
      </trkpt>
      <trkpt lat="44.93232" lon="4.24582">
        <ele>913.1</ele>
        <time>2026-05-07T07:25:14Z</time>
      </trkpt>
      <trkpt lat="44.93237" lon="4.24585">
        <ele>912.2</ele>
        <time>2026-05-07T07:25:19Z</time>
      </trkpt>
      <trkpt lat="44.93243" lon="4.24584">
        <ele>912.6</ele>
        <time>2026-05-07T07:25:24Z</time>
      </trkpt>
      <trkpt lat="44.93248" lon="4.24582">
        <ele>913.5</ele>
        <time>2026-05-07T07:25:29Z</time>
      </trkpt>
      <trkpt lat="44.93252" lon="4.24582">
        <ele>913.9</ele>
        <time>2026-05-07T07:25:34Z</time>
      </trkpt>
      <trkpt lat="44.93257" lon="4.2458">
        <ele>915.6</ele>
        <time>2026-05-07T07:25:39Z</time>
      </trkpt>
      <trkpt lat="44.93264" lon="4.24581">
        <ele>916.4</ele>
        <time>2026-05-07T07:25:44Z</time>
      </trkpt>
      <trkpt lat="44.93269" lon="4.24583">
        <ele>916.6</ele>
        <time>2026-05-07T07:25:49Z</time>
      </trkpt>
      <trkpt lat="44.93274" lon="4.24588">
        <ele>915.8</ele>
        <time>2026-05-07T07:25:54Z</time>
      </trkpt>
      <trkpt lat="44.9328" lon="4.2459">
        <ele>916.1</ele>
        <time>2026-05-07T07:25:59Z</time>
      </trkpt>
      <trkpt lat="44.93285" lon="4.24594">
        <ele>915.6</ele>
        <time>2026-05-07T07:26:04Z</time>
      </trkpt>
      <trkpt lat="44.9329" lon="4.24597">
        <ele>915.5</ele>
        <time>2026-05-07T07:26:09Z</time>
      </trkpt>
      <trkpt lat="44.93296" lon="4.24601">
        <ele>915.1</ele>
        <time>2026-05-07T07:26:14Z</time>
      </trkpt>
      <trkpt lat="44.93302" lon="4.24604">
        <ele>915</ele>
        <time>2026-05-07T07:26:19Z</time>
      </trkpt>
      <trkpt lat="44.93308" lon="4.24608">
        <ele>914.5</ele>
        <time>2026-05-07T07:26:24Z</time>
      </trkpt>
      <trkpt lat="44.93314" lon="4.24611">
        <ele>914.4</ele>
        <time>2026-05-07T07:26:29Z</time>
      </trkpt>
      <trkpt lat="44.9332" lon="4.24615">
        <ele>913.8</ele>
        <time>2026-05-07T07:26:34Z</time>
      </trkpt>
      <trkpt lat="44.93325" lon="4.24619">
        <ele>913.1</ele>
        <time>2026-05-07T07:26:39Z</time>
      </trkpt>
      <trkpt lat="44.93331" lon="4.2462">
        <ele>913.6</ele>
        <time>2026-05-07T07:26:44Z</time>
      </trkpt>
      <trkpt lat="44.93336" lon="4.24623">
        <ele>913.3</ele>
        <time>2026-05-07T07:26:49Z</time>
      </trkpt>
      <trkpt lat="44.93342" lon="4.24623">
        <ele>914.4</ele>
        <time>2026-05-07T07:26:54Z</time>
      </trkpt>
      <trkpt lat="44.93349" lon="4.24622">
        <ele>916</ele>
        <time>2026-05-07T07:26:59Z</time>
      </trkpt>
      <trkpt lat="44.93354" lon="4.24622">
        <ele>917</ele>
        <time>2026-05-07T07:27:04Z</time>
      </trkpt>
      <trkpt lat="44.93361" lon="4.24617">
        <ele>920.1</ele>
        <time>2026-05-07T07:27:09Z</time>
      </trkpt>
      <trkpt lat="44.93367" lon="4.24613">
        <ele>922.7</ele>
        <time>2026-05-07T07:27:14Z</time>
      </trkpt>
      <trkpt lat="44.93373" lon="4.24609">
        <ele>925.2</ele>
        <time>2026-05-07T07:27:19Z</time>
      </trkpt>
      <trkpt lat="44.93377" lon="4.24604">
        <ele>927.8</ele>
        <time>2026-05-07T07:27:24Z</time>
      </trkpt>
      <trkpt lat="44.93381" lon="4.24598">
        <ele>930.7</ele>
        <time>2026-05-07T07:27:29Z</time>
      </trkpt>
      <trkpt lat="44.93386" lon="4.24592">
        <ele>933.7</ele>
        <time>2026-05-07T07:27:34Z</time>
      </trkpt>
      <trkpt lat="44.9339" lon="4.24588">
        <ele>935.8</ele>
        <time>2026-05-07T07:27:39Z</time>
      </trkpt>
      <trkpt lat="44.93395" lon="4.24582">
        <ele>938.9</ele>
        <time>2026-05-07T07:27:44Z</time>
      </trkpt>
      <trkpt lat="44.93399" lon="4.24574">
        <ele>943.1</ele>
        <time>2026-05-07T07:27:49Z</time>
      </trkpt>
      <trkpt lat="44.93404" lon="4.24568">
        <ele>946.7</ele>
        <time>2026-05-07T07:27:54Z</time>
      </trkpt>
      <trkpt lat="44.93407" lon="4.24561">
        <ele>950.4</ele>
        <time>2026-05-07T07:27:59Z</time>
      </trkpt>
      <trkpt lat="44.93407" lon="4.24555">
        <ele>953.1</ele>
        <time>2026-05-07T07:28:04Z</time>
      </trkpt>
      <trkpt lat="44.93411" lon="4.24548">
        <ele>957</ele>
        <time>2026-05-07T07:28:09Z</time>
      </trkpt>
      <trkpt lat="44.93414" lon="4.2454">
        <ele>961.2</ele>
        <time>2026-05-07T07:28:14Z</time>
      </trkpt>
      <trkpt lat="44.93419" lon="4.24532">
        <ele>965</ele>
        <time>2026-05-07T07:28:19Z</time>
      </trkpt>
      <trkpt lat="44.93425" lon="4.24524">
        <ele>967.5</ele>
        <time>2026-05-07T07:28:24Z</time>
      </trkpt>
      <trkpt lat="44.93429" lon="4.24515">
        <ele>970.7</ele>
        <time>2026-05-07T07:28:29Z</time>
      </trkpt>
      <trkpt lat="44.93432" lon="4.24506">
        <ele>973.9</ele>
        <time>2026-05-07T07:28:34Z</time>
      </trkpt>
      <trkpt lat="44.93438" lon="4.24499">
        <ele>975.6</ele>
        <time>2026-05-07T07:28:39Z</time>
      </trkpt>
      <trkpt lat="44.93443" lon="4.24491">
        <ele>977.8</ele>
        <time>2026-05-07T07:28:44Z</time>
      </trkpt>
      <trkpt lat="44.93447" lon="4.24484">
        <ele>980</ele>
        <time>2026-05-07T07:28:49Z</time>
      </trkpt>
      <trkpt lat="44.93452" lon="4.2448">
        <ele>980.6</ele>
        <time>2026-05-07T07:28:54Z</time>
      </trkpt>
      <trkpt lat="44.93456" lon="4.24476">
        <ele>981.5</ele>
        <time>2026-05-07T07:28:59Z</time>
      </trkpt>
      <trkpt lat="44.9346" lon="4.24477">
        <ele>980.2</ele>
        <time>2026-05-07T07:29:04Z</time>
      </trkpt>
      <trkpt lat="44.9346" lon="4.24476">
        <ele>980.7</ele>
        <time>2026-05-07T07:29:09Z</time>
      </trkpt>
      <trkpt lat="44.93463" lon="4.24469">
        <ele>983.1</ele>
        <time>2026-05-07T07:29:14Z</time>
      </trkpt>
      <trkpt lat="44.93465" lon="4.24464">
        <ele>984.9</ele>
        <time>2026-05-07T07:29:19Z</time>
      </trkpt>
      <trkpt lat="44.93469" lon="4.24459">
        <ele>986.3</ele>
        <time>2026-05-07T07:29:24Z</time>
      </trkpt>
      <trkpt lat="44.93472" lon="4.24455">
        <ele>987.5</ele>
        <time>2026-05-07T07:29:29Z</time>
      </trkpt>
      <trkpt lat="44.93477" lon="4.24452">
        <ele>987.9</ele>
        <time>2026-05-07T07:29:34Z</time>
      </trkpt>
      <trkpt lat="44.93481" lon="4.24449">
        <ele>988.5</ele>
        <time>2026-05-07T07:29:39Z</time>
      </trkpt>
      <trkpt lat="44.93484" lon="4.24449">
        <ele>987.9</ele>
        <time>2026-05-07T07:29:44Z</time>
      </trkpt>
      <trkpt lat="44.93487" lon="4.24448">
        <ele>987.8</ele>
        <time>2026-05-07T07:29:49Z</time>
      </trkpt>
      <trkpt lat="44.93488" lon="4.24447">
        <ele>988.1</ele>
        <time>2026-05-07T07:29:54Z</time>
      </trkpt>
      <trkpt lat="44.9349" lon="4.24448">
        <ele>987.2</ele>
        <time>2026-05-07T07:29:59Z</time>
      </trkpt>
      <trkpt lat="44.93494" lon="4.24447">
        <ele>986.9</ele>
        <time>2026-05-07T07:30:04Z</time>
      </trkpt>
      <trkpt lat="44.93495" lon="4.24447">
        <ele>986.8</ele>
        <time>2026-05-07T07:30:09Z</time>
      </trkpt>
      <trkpt lat="44.93502" lon="4.24446">
        <ele>985.6</ele>
        <time>2026-05-07T07:30:14Z</time>
      </trkpt>
      <trkpt lat="44.93507" lon="4.24444">
        <ele>984.9</ele>
        <time>2026-05-07T07:30:19Z</time>
      </trkpt>
      <trkpt lat="44.93511" lon="4.24442">
        <ele>984.5</ele>
        <time>2026-05-07T07:30:24Z</time>
      </trkpt>
      <trkpt lat="44.93516" lon="4.2444">
        <ele>983.7</ele>
        <time>2026-05-07T07:30:29Z</time>
      </trkpt>
      <trkpt lat="44.9352" lon="4.24439">
        <ele>982.7</ele>
        <time>2026-05-07T07:30:34Z</time>
      </trkpt>
      <trkpt lat="44.93523" lon="4.24439">
        <ele>981.7</ele>
        <time>2026-05-07T07:30:39Z</time>
      </trkpt>
      <trkpt lat="44.93526" lon="4.24435">
        <ele>982.3</ele>
        <time>2026-05-07T07:30:44Z</time>
      </trkpt>
      <trkpt lat="44.93529" lon="4.24432">
        <ele>982.4</ele>
        <time>2026-05-07T07:30:49Z</time>
      </trkpt>
      <trkpt lat="44.93532" lon="4.24429">
        <ele>982.5</ele>
        <time>2026-05-07T07:30:54Z</time>
      </trkpt>
      <trkpt lat="44.93536" lon="4.24423">
        <ele>983.3</ele>
        <time>2026-05-07T07:30:59Z</time>
      </trkpt>
      <trkpt lat="44.93539" lon="4.24419">
        <ele>983.7</ele>
        <time>2026-05-07T07:31:04Z</time>
      </trkpt>
      <trkpt lat="44.93541" lon="4.24415">
        <ele>984.4</ele>
        <time>2026-05-07T07:31:09Z</time>
      </trkpt>
      <trkpt lat="44.93542" lon="4.2441">
        <ele>986.1</ele>
        <time>2026-05-07T07:31:14Z</time>
      </trkpt>
      <trkpt lat="44.93545" lon="4.24408">
        <ele>985.7</ele>
        <time>2026-05-07T07:31:19Z</time>
      </trkpt>
      <trkpt lat="44.93546" lon="4.24403">
        <ele>987.4</ele>
        <time>2026-05-07T07:31:24Z</time>
      </trkpt>
      <trkpt lat="44.93548" lon="4.244">
        <ele>987.8</ele>
        <time>2026-05-07T07:31:29Z</time>
      </trkpt>
      <trkpt lat="44.93552" lon="4.24396">
        <ele>987.9</ele>
        <time>2026-05-07T07:31:34Z</time>
      </trkpt>
      <trkpt lat="44.93555" lon="4.24393">
        <ele>988</ele>
        <time>2026-05-07T07:31:39Z</time>
      </trkpt>
      <trkpt lat="44.93561" lon="4.2439">
        <ele>986.9</ele>
        <time>2026-05-07T07:31:44Z</time>
      </trkpt>
      <trkpt lat="44.93565" lon="4.24387">
        <ele>986.6</ele>
        <time>2026-05-07T07:31:49Z</time>
      </trkpt>
      <trkpt lat="44.93569" lon="4.24384">
        <ele>986.3</ele>
        <time>2026-05-07T07:31:54Z</time>
      </trkpt>
      <trkpt lat="44.93571" lon="4.24381">
        <ele>986.7</ele>
        <time>2026-05-07T07:31:59Z</time>
      </trkpt>
      <trkpt lat="44.93577" lon="4.24377">
        <ele>986.1</ele>
        <time>2026-05-07T07:32:04Z</time>
      </trkpt>
      <trkpt lat="44.93583" lon="4.24375">
        <ele>984.6</ele>
        <time>2026-05-07T07:32:09Z</time>
      </trkpt>
      <trkpt lat="44.93588" lon="4.24371">
        <ele>985.5</ele>
        <time>2026-05-07T07:32:14Z</time>
      </trkpt>
      <trkpt lat="44.93592" lon="4.24367">
        <ele>986.6</ele>
        <time>2026-05-07T07:32:19Z</time>
      </trkpt>
      <trkpt lat="44.93594" lon="4.24362">
        <ele>988.3</ele>
        <time>2026-05-07T07:32:24Z</time>
      </trkpt>
      <trkpt lat="44.93599" lon="4.24356">
        <ele>989.8</ele>
        <time>2026-05-07T07:32:29Z</time>
      </trkpt>
      <trkpt lat="44.93599" lon="4.24352">
        <ele>991.4</ele>
        <time>2026-05-07T07:32:34Z</time>
      </trkpt>
      <trkpt lat="44.93598" lon="4.24348">
        <ele>993.1</ele>
        <time>2026-05-07T07:32:39Z</time>
      </trkpt>
      <trkpt lat="44.93601" lon="4.24341">
        <ele>995.2</ele>
        <time>2026-05-07T07:32:44Z</time>
      </trkpt>
      <trkpt lat="44.93603" lon="4.24333">
        <ele>997.8</ele>
        <time>2026-05-07T07:32:49Z</time>
      </trkpt>
      <trkpt lat="44.93602" lon="4.24324">
        <ele>1000.3</ele>
        <time>2026-05-07T07:32:54Z</time>
      </trkpt>
      <trkpt lat="44.93602" lon="4.24316">
        <ele>1002.4</ele>
        <time>2026-05-07T07:32:59Z</time>
      </trkpt>
      <trkpt lat="44.93602" lon="4.2431">
        <ele>1003.9</ele>
        <time>2026-05-07T07:33:04Z</time>
      </trkpt>
      <trkpt lat="44.93602" lon="4.24302">
        <ele>1005.9</ele>
        <time>2026-05-07T07:33:09Z</time>
      </trkpt>
      <trkpt lat="44.93603" lon="4.24293">
        <ele>1007.9</ele>
        <time>2026-05-07T07:33:14Z</time>
      </trkpt>
      <trkpt lat="44.93604" lon="4.24285">
        <ele>1009.6</ele>
        <time>2026-05-07T07:33:19Z</time>
      </trkpt>
      <trkpt lat="44.93606" lon="4.24278">
        <ele>1010.7</ele>
        <time>2026-05-07T07:33:24Z</time>
      </trkpt>
      <trkpt lat="44.93607" lon="4.24271">
        <ele>1012.1</ele>
        <time>2026-05-07T07:33:29Z</time>
      </trkpt>
      <trkpt lat="44.9361" lon="4.24264">
        <ele>1012.7</ele>
        <time>2026-05-07T07:33:34Z</time>
      </trkpt>
      <trkpt lat="44.93612" lon="4.24256">
        <ele>1013.9</ele>
        <time>2026-05-07T07:33:39Z</time>
      </trkpt>
      <trkpt lat="44.93615" lon="4.24247">
        <ele>1014.6</ele>
        <time>2026-05-07T07:33:44Z</time>
      </trkpt>
      <trkpt lat="44.9362" lon="4.24237">
        <ele>1014</ele>
        <time>2026-05-07T07:33:49Z</time>
      </trkpt>
      <trkpt lat="44.9362" lon="4.24227">
        <ele>1015.3</ele>
        <time>2026-05-07T07:33:54Z</time>
      </trkpt>
      <trkpt lat="44.93619" lon="4.24221">
        <ele>1016.5</ele>
        <time>2026-05-07T07:33:59Z</time>
      </trkpt>
      <trkpt lat="44.93617" lon="4.24214">
        <ele>1018.2</ele>
        <time>2026-05-07T07:34:04Z</time>
      </trkpt>
      <trkpt lat="44.93618" lon="4.24202">
        <ele>1019.4</ele>
        <time>2026-05-07T07:34:09Z</time>
      </trkpt>
      <trkpt lat="44.93614" lon="4.2419">
        <ele>1022.6</ele>
        <time>2026-05-07T07:34:14Z</time>
      </trkpt>
      <trkpt lat="44.93612" lon="4.24179">
        <ele>1024.9</ele>
        <time>2026-05-07T07:34:19Z</time>
      </trkpt>
      <trkpt lat="44.93609" lon="4.24167">
        <ele>1027.9</ele>
        <time>2026-05-07T07:34:24Z</time>
      </trkpt>
      <trkpt lat="44.93607" lon="4.24159">
        <ele>1029.5</ele>
        <time>2026-05-07T07:34:29Z</time>
      </trkpt>
      <trkpt lat="44.93609" lon="4.2415">
        <ele>1029.5</ele>
        <time>2026-05-07T07:34:34Z</time>
      </trkpt>
      <trkpt lat="44.93613" lon="4.24141">
        <ele>1028.7</ele>
        <time>2026-05-07T07:34:39Z</time>
      </trkpt>
      <trkpt lat="44.93618" lon="4.24132">
        <ele>1027.5</ele>
        <time>2026-05-07T07:34:44Z</time>
      </trkpt>
      <trkpt lat="44.93621" lon="4.24125">
        <ele>1026.9</ele>
        <time>2026-05-07T07:34:49Z</time>
      </trkpt>
      <trkpt lat="44.93624" lon="4.24117">
        <ele>1026.5</ele>
        <time>2026-05-07T07:34:54Z</time>
      </trkpt>
      <trkpt lat="44.93624" lon="4.24109">
        <ele>1027.3</ele>
        <time>2026-05-07T07:34:59Z</time>
      </trkpt>
      <trkpt lat="44.93626" lon="4.24102">
        <ele>1027.2</ele>
        <time>2026-05-07T07:35:04Z</time>
      </trkpt>
      <trkpt lat="44.93628" lon="4.24095">
        <ele>1027.1</ele>
        <time>2026-05-07T07:35:09Z</time>
      </trkpt>
      <trkpt lat="44.93629" lon="4.24088">
        <ele>1027.4</ele>
        <time>2026-05-07T07:35:14Z</time>
      </trkpt>
      <trkpt lat="44.93629" lon="4.24082">
        <ele>1028</ele>
        <time>2026-05-07T07:35:19Z</time>
      </trkpt>
      <trkpt lat="44.93629" lon="4.24076">
        <ele>1028.1</ele>
        <time>2026-05-07T07:35:24Z</time>
      </trkpt>
      <trkpt lat="44.9363" lon="4.2407">
        <ele>1027.9</ele>
        <time>2026-05-07T07:35:29Z</time>
      </trkpt>
      <trkpt lat="44.93635" lon="4.24065">
        <ele>1026.1</ele>
        <time>2026-05-07T07:35:34Z</time>
      </trkpt>
      <trkpt lat="44.9364" lon="4.2406">
        <ele>1024.3</ele>
        <time>2026-05-07T07:35:39Z</time>
      </trkpt>
      <trkpt lat="44.93646" lon="4.24057">
        <ele>1022.1</ele>
        <time>2026-05-07T07:35:44Z</time>
      </trkpt>
      <trkpt lat="44.9365" lon="4.24056">
        <ele>1020.5</ele>
        <time>2026-05-07T07:35:49Z</time>
      </trkpt>
      <trkpt lat="44.93655" lon="4.24056">
        <ele>1018.6</ele>
        <time>2026-05-07T07:35:54Z</time>
      </trkpt>
      <trkpt lat="44.93661" lon="4.24058">
        <ele>1016.1</ele>
        <time>2026-05-07T07:35:59Z</time>
      </trkpt>
      <trkpt lat="44.93667" lon="4.24061">
        <ele>1013.7</ele>
        <time>2026-05-07T07:36:04Z</time>
      </trkpt>
      <trkpt lat="44.93668" lon="4.24067">
        <ele>1013.3</ele>
        <time>2026-05-07T07:36:09Z</time>
      </trkpt>
      <trkpt lat="44.93668" lon="4.24074">
        <ele>1013.1</ele>
        <time>2026-05-07T07:36:14Z</time>
      </trkpt>
      <trkpt lat="44.93666" lon="4.2408">
        <ele>1013.4</ele>
        <time>2026-05-07T07:36:19Z</time>
      </trkpt>
      <trkpt lat="44.93662" lon="4.24085">
        <ele>1014.7</ele>
        <time>2026-05-07T07:36:24Z</time>
      </trkpt>
      <trkpt lat="44.93661" lon="4.24092">
        <ele>1014.2</ele>
        <time>2026-05-07T07:36:29Z</time>
      </trkpt>
      <trkpt lat="44.93662" lon="4.24098">
        <ele>1013.1</ele>
        <time>2026-05-07T07:36:34Z</time>
      </trkpt>
      <trkpt lat="44.93663" lon="4.24105">
        <ele>1011.9</ele>
        <time>2026-05-07T07:36:39Z</time>
      </trkpt>
      <trkpt lat="44.93665" lon="4.24111">
        <ele>1010.4</ele>
        <time>2026-05-07T07:36:44Z</time>
      </trkpt>
      <trkpt lat="44.93668" lon="4.24116">
        <ele>1008.8</ele>
        <time>2026-05-07T07:36:49Z</time>
      </trkpt>
      <trkpt lat="44.9367" lon="4.24121">
        <ele>1007.8</ele>
        <time>2026-05-07T07:36:54Z</time>
      </trkpt>
      <trkpt lat="44.93672" lon="4.24127">
        <ele>1006.7</ele>
        <time>2026-05-07T07:36:59Z</time>
      </trkpt>
      <trkpt lat="44.93675" lon="4.24133">
        <ele>1005.5</ele>
        <time>2026-05-07T07:37:04Z</time>
      </trkpt>
      <trkpt lat="44.93676" lon="4.24139">
        <ele>1004.6</ele>
        <time>2026-05-07T07:37:09Z</time>
      </trkpt>
      <trkpt lat="44.93679" lon="4.24144">
        <ele>1003.5</ele>
        <time>2026-05-07T07:37:14Z</time>
      </trkpt>
      <trkpt lat="44.93683" lon="4.24146">
        <ele>1002.5</ele>
        <time>2026-05-07T07:37:19Z</time>
      </trkpt>
      <trkpt lat="44.93688" lon="4.24145">
        <ele>1001.7</ele>
        <time>2026-05-07T07:37:24Z</time>
      </trkpt>
      <trkpt lat="44.93691" lon="4.24142">
        <ele>1001.5</ele>
        <time>2026-05-07T07:37:29Z</time>
      </trkpt>
      <trkpt lat="44.93692" lon="4.24137">
        <ele>1001.9</ele>
        <time>2026-05-07T07:37:34Z</time>
      </trkpt>
      <trkpt lat="44.93692" lon="4.2413">
        <ele>1002.6</ele>
        <time>2026-05-07T07:37:39Z</time>
      </trkpt>
      <trkpt lat="44.93694" lon="4.24126">
        <ele>1002.6</ele>
        <time>2026-05-07T07:37:44Z</time>
      </trkpt>
      <trkpt lat="44.93695" lon="4.2412">
        <ele>1003.1</ele>
        <time>2026-05-07T07:37:49Z</time>
      </trkpt>
      <trkpt lat="44.93696" lon="4.24114">
        <ele>1003.5</ele>
        <time>2026-05-07T07:37:54Z</time>
      </trkpt>
      <trkpt lat="44.93697" lon="4.24108">
        <ele>1003.9</ele>
        <time>2026-05-07T07:37:59Z</time>
      </trkpt>
      <trkpt lat="44.93697" lon="4.24104">
        <ele>1004.3</ele>
        <time>2026-05-07T07:38:04Z</time>
      </trkpt>
      <trkpt lat="44.93698" lon="4.24099">
        <ele>1004.6</ele>
        <time>2026-05-07T07:38:09Z</time>
      </trkpt>
      <trkpt lat="44.937" lon="4.24094">
        <ele>1004.7</ele>
        <time>2026-05-07T07:38:14Z</time>
      </trkpt>
      <trkpt lat="44.93703" lon="4.2409">
        <ele>1004.5</ele>
        <time>2026-05-07T07:38:19Z</time>
      </trkpt>
      <trkpt lat="44.93702" lon="4.24087">
        <ele>1005</ele>
        <time>2026-05-07T07:38:24Z</time>
      </trkpt>
      <trkpt lat="44.93702" lon="4.24083">
        <ele>1005.4</ele>
        <time>2026-05-07T07:38:29Z</time>
      </trkpt>
      <trkpt lat="44.93704" lon="4.2408">
        <ele>1005.1</ele>
        <time>2026-05-07T07:38:34Z</time>
      </trkpt>
      <trkpt lat="44.93705" lon="4.24076">
        <ele>1005.1</ele>
        <time>2026-05-07T07:38:39Z</time>
      </trkpt>
      <trkpt lat="44.93706" lon="4.24069">
        <ele>1005.3</ele>
        <time>2026-05-07T07:38:44Z</time>
      </trkpt>
      <trkpt lat="44.93707" lon="4.24066">
        <ele>1005.3</ele>
        <time>2026-05-07T07:38:49Z</time>
      </trkpt>
      <trkpt lat="44.93707" lon="4.24058">
        <ele>1005.8</ele>
        <time>2026-05-07T07:38:54Z</time>
      </trkpt>
      <trkpt lat="44.93712" lon="4.24055">
        <ele>1005</ele>
        <time>2026-05-07T07:38:59Z</time>
      </trkpt>
      <trkpt lat="44.93712" lon="4.24064">
        <ele>1004.4</ele>
        <time>2026-05-07T07:39:04Z</time>
      </trkpt>
      <trkpt lat="44.93711" lon="4.24073">
        <ele>1004.1</ele>
        <time>2026-05-07T07:39:09Z</time>
      </trkpt>
      <trkpt lat="44.9371" lon="4.24081">
        <ele>1003.8</ele>
        <time>2026-05-07T07:39:14Z</time>
      </trkpt>
      <trkpt lat="44.93709" lon="4.24084">
        <ele>1003.8</ele>
        <time>2026-05-07T07:39:19Z</time>
      </trkpt>
      <trkpt lat="44.93709" lon="4.24086">
        <ele>1003.6</ele>
        <time>2026-05-07T07:39:24Z</time>
      </trkpt>
      <trkpt lat="44.9371" lon="4.24093">
        <ele>1002.7</ele>
        <time>2026-05-07T07:39:29Z</time>
      </trkpt>
      <trkpt lat="44.93711" lon="4.241">
        <ele>1001.8</ele>
        <time>2026-05-07T07:39:34Z</time>
      </trkpt>
      <trkpt lat="44.93712" lon="4.24106">
        <ele>1001.1</ele>
        <time>2026-05-07T07:39:39Z</time>
      </trkpt>
      <trkpt lat="44.93713" lon="4.24111">
        <ele>1000.4</ele>
        <time>2026-05-07T07:39:44Z</time>
      </trkpt>
      <trkpt lat="44.93715" lon="4.24117">
        <ele>999.5</ele>
        <time>2026-05-07T07:39:49Z</time>
      </trkpt>
      <trkpt lat="44.93717" lon="4.24123">
        <ele>998.5</ele>
        <time>2026-05-07T07:39:54Z</time>
      </trkpt>
      <trkpt lat="44.93719" lon="4.24129">
        <ele>997.6</ele>
        <time>2026-05-07T07:39:59Z</time>
      </trkpt>
      <trkpt lat="44.93721" lon="4.24134">
        <ele>996.8</ele>
        <time>2026-05-07T07:40:04Z</time>
      </trkpt>
      <trkpt lat="44.93722" lon="4.24141">
        <ele>996</ele>
        <time>2026-05-07T07:40:09Z</time>
      </trkpt>
      <trkpt lat="44.93723" lon="4.24145">
        <ele>995.4</ele>
        <time>2026-05-07T07:40:14Z</time>
      </trkpt>
      <trkpt lat="44.93723" lon="4.24146">
        <ele>995.3</ele>
        <time>2026-05-07T07:40:19Z</time>
      </trkpt>
      <trkpt lat="44.93723" lon="4.24147">
        <ele>995.3</ele>
        <time>2026-05-07T07:40:24Z</time>
      </trkpt>
      <trkpt lat="44.93725" lon="4.24151">
        <ele>994.6</ele>
        <time>2026-05-07T07:40:29Z</time>
      </trkpt>
      <trkpt lat="44.93727" lon="4.24156">
        <ele>993.8</ele>
        <time>2026-05-07T07:40:34Z</time>
      </trkpt>
      <trkpt lat="44.93729" lon="4.24161">
        <ele>993</ele>
        <time>2026-05-07T07:40:39Z</time>
      </trkpt>
      <trkpt lat="44.9373" lon="4.24165">
        <ele>992.5</ele>
        <time>2026-05-07T07:40:44Z</time>
      </trkpt>
      <trkpt lat="44.9373" lon="4.24172">
        <ele>992</ele>
        <time>2026-05-07T07:40:49Z</time>
      </trkpt>
      <trkpt lat="44.93733" lon="4.24178">
        <ele>991.1</ele>
        <time>2026-05-07T07:40:54Z</time>
      </trkpt>
      <trkpt lat="44.93735" lon="4.24181">
        <ele>990.6</ele>
        <time>2026-05-07T07:40:59Z</time>
      </trkpt>
      <trkpt lat="44.93735" lon="4.24183">
        <ele>990.4</ele>
        <time>2026-05-07T07:41:04Z</time>
      </trkpt>
      <trkpt lat="44.93735" lon="4.24183">
        <ele>990.4</ele>
        <time>2026-05-07T07:41:09Z</time>
      </trkpt>
      <trkpt lat="44.93735" lon="4.24183">
        <ele>990.4</ele>
        <time>2026-05-07T07:41:14Z</time>
      </trkpt>
      <trkpt lat="44.93737" lon="4.24189">
        <ele>989.7</ele>
        <time>2026-05-07T07:41:19Z</time>
      </trkpt>
      <trkpt lat="44.93739" lon="4.24192">
        <ele>989.2</ele>
        <time>2026-05-07T07:41:24Z</time>
      </trkpt>
      <trkpt lat="44.93739" lon="4.24196">
        <ele>988.9</ele>
        <time>2026-05-07T07:41:29Z</time>
      </trkpt>
      <trkpt lat="44.93741" lon="4.24201">
        <ele>988.3</ele>
        <time>2026-05-07T07:41:34Z</time>
      </trkpt>
      <trkpt lat="44.93743" lon="4.24206">
        <ele>987.7</ele>
        <time>2026-05-07T07:41:39Z</time>
      </trkpt>
      <trkpt lat="44.93747" lon="4.24207">
        <ele>987</ele>
        <time>2026-05-07T07:41:44Z</time>
      </trkpt>
      <trkpt lat="44.93751" lon="4.24205">
        <ele>987.2</ele>
        <time>2026-05-07T07:41:49Z</time>
      </trkpt>
      <trkpt lat="44.93753" lon="4.24201">
        <ele>988.5</ele>
        <time>2026-05-07T07:41:54Z</time>
      </trkpt>
      <trkpt lat="44.93755" lon="4.24199">
        <ele>989.6</ele>
        <time>2026-05-07T07:41:59Z</time>
      </trkpt>
      <trkpt lat="44.93758" lon="4.24198">
        <ele>991.2</ele>
        <time>2026-05-07T07:42:04Z</time>
      </trkpt>
      <trkpt lat="44.93761" lon="4.24198">
        <ele>992.7</ele>
        <time>2026-05-07T07:42:09Z</time>
      </trkpt>
      <trkpt lat="44.93761" lon="4.24199">
        <ele>992.7</ele>
        <time>2026-05-07T07:42:14Z</time>
      </trkpt>
      <trkpt lat="44.93764" lon="4.24207">
        <ele>993.6</ele>
        <time>2026-05-07T07:42:19Z</time>
      </trkpt>
      <trkpt lat="44.93764" lon="4.2421">
        <ele>993.4</ele>
        <time>2026-05-07T07:42:24Z</time>
      </trkpt>
      <trkpt lat="44.93765" lon="4.24211">
        <ele>993.9</ele>
        <time>2026-05-07T07:42:29Z</time>
      </trkpt>
      <trkpt lat="44.93768" lon="4.24217">
        <ele>995</ele>
        <time>2026-05-07T07:42:34Z</time>
      </trkpt>
      <trkpt lat="44.93769" lon="4.24219">
        <ele>995.3</ele>
        <time>2026-05-07T07:42:39Z</time>
      </trkpt>
      <trkpt lat="44.93771" lon="4.24222">
        <ele>996.1</ele>
        <time>2026-05-07T07:42:44Z</time>
      </trkpt>
      <trkpt lat="44.93773" lon="4.24227">
        <ele>996.7</ele>
        <time>2026-05-07T07:42:49Z</time>
      </trkpt>
      <trkpt lat="44.93774" lon="4.24232">
        <ele>996.8</ele>
        <time>2026-05-07T07:42:54Z</time>
      </trkpt>
      <trkpt lat="44.93774" lon="4.24235">
        <ele>996.6</ele>
        <time>2026-05-07T07:42:59Z</time>
      </trkpt>
      <trkpt lat="44.93775" lon="4.24238">
        <ele>996.9</ele>
        <time>2026-05-07T07:43:04Z</time>
      </trkpt>
      <trkpt lat="44.93775" lon="4.24239">
        <ele>996.8</ele>
        <time>2026-05-07T07:43:09Z</time>
      </trkpt>
      <trkpt lat="44.93775" lon="4.24239">
        <ele>996.8</ele>
        <time>2026-05-07T07:43:14Z</time>
      </trkpt>
      <trkpt lat="44.93775" lon="4.24239">
        <ele>996.8</ele>
        <time>2026-05-07T07:43:19Z</time>
      </trkpt>
      <trkpt lat="44.93779" lon="4.24253">
        <ele>997.6</ele>
        <time>2026-05-07T07:43:24Z</time>
      </trkpt>
      <trkpt lat="44.9378" lon="4.24256">
        <ele>997.8</ele>
        <time>2026-05-07T07:43:29Z</time>
      </trkpt>
      <trkpt lat="44.93781" lon="4.24259">
        <ele>997.9</ele>
        <time>2026-05-07T07:43:34Z</time>
      </trkpt>
      <trkpt lat="44.93782" lon="4.24262">
        <ele>998.1</ele>
        <time>2026-05-07T07:43:39Z</time>
      </trkpt>
      <trkpt lat="44.93783" lon="4.24267">
        <ele>998</ele>
        <time>2026-05-07T07:43:44Z</time>
      </trkpt>
      <trkpt lat="44.93785" lon="4.24271">
        <ele>998.5</ele>
        <time>2026-05-07T07:43:49Z</time>
      </trkpt>
      <trkpt lat="44.93787" lon="4.24274">
        <ele>999.1</ele>
        <time>2026-05-07T07:43:54Z</time>
      </trkpt>
      <trkpt lat="44.93788" lon="4.24276">
        <ele>999.3</ele>
        <time>2026-05-07T07:43:59Z</time>
      </trkpt>
      <trkpt lat="44.9379" lon="4.24279">
        <ele>999.9</ele>
        <time>2026-05-07T07:44:04Z</time>
      </trkpt>
      <trkpt lat="44.93792" lon="4.24282">
        <ele>1000.5</ele>
        <time>2026-05-07T07:44:09Z</time>
      </trkpt>
      <trkpt lat="44.93795" lon="4.24283">
        <ele>1001.8</ele>
        <time>2026-05-07T07:44:14Z</time>
      </trkpt>
      <trkpt lat="44.93797" lon="4.24287">
        <ele>1002.2</ele>
        <time>2026-05-07T07:44:19Z</time>
      </trkpt>
      <trkpt lat="44.93797" lon="4.2429">
        <ele>1001.8</ele>
        <time>2026-05-07T07:44:24Z</time>
      </trkpt>
      <trkpt lat="44.93799" lon="4.24295">
        <ele>1002.2</ele>
        <time>2026-05-07T07:44:29Z</time>
      </trkpt>
      <trkpt lat="44.938" lon="4.24293">
        <ele>1002.8</ele>
        <time>2026-05-07T07:44:34Z</time>
      </trkpt>
      <trkpt lat="44.938" lon="4.24293">
        <ele>1002.8</ele>
        <time>2026-05-07T07:44:39Z</time>
      </trkpt>
      <trkpt lat="44.938" lon="4.24293">
        <ele>1002.8</ele>
        <time>2026-05-07T07:44:44Z</time>
      </trkpt>
      <trkpt lat="44.938" lon="4.24293">
        <ele>1002.8</ele>
        <time>2026-05-07T07:44:49Z</time>
      </trkpt>
      <trkpt lat="44.938" lon="4.24293">
        <ele>1002.8</ele>
        <time>2026-05-07T07:44:54Z</time>
      </trkpt>
      <trkpt lat="44.93803" lon="4.24283">
        <ele>1005.4</ele>
        <time>2026-05-07T07:44:59Z</time>
      </trkpt>
      <trkpt lat="44.93802" lon="4.24278">
        <ele>1005.6</ele>
        <time>2026-05-07T07:45:04Z</time>
      </trkpt>
      <trkpt lat="44.93803" lon="4.24272">
        <ele>1006.8</ele>
        <time>2026-05-07T07:45:09Z</time>
      </trkpt>
      <trkpt lat="44.93803" lon="4.24268">
        <ele>1007.2</ele>
        <time>2026-05-07T07:45:14Z</time>
      </trkpt>
      <trkpt lat="44.93804" lon="4.24263">
        <ele>1008.3</ele>
        <time>2026-05-07T07:45:19Z</time>
      </trkpt>
      <trkpt lat="44.93805" lon="4.24258">
        <ele>1009.4</ele>
        <time>2026-05-07T07:45:24Z</time>
      </trkpt>
      <trkpt lat="44.93806" lon="4.24253">
        <ele>1010.5</ele>
        <time>2026-05-07T07:45:29Z</time>
      </trkpt>
      <trkpt lat="44.93808" lon="4.2425">
        <ele>1011.8</ele>
        <time>2026-05-07T07:45:34Z</time>
      </trkpt>
      <trkpt lat="44.93811" lon="4.24251">
        <ele>1013.2</ele>
        <time>2026-05-07T07:45:39Z</time>
      </trkpt>
      <trkpt lat="44.93813" lon="4.24254">
        <ele>1013.7</ele>
        <time>2026-05-07T07:45:44Z</time>
      </trkpt>
      <trkpt lat="44.93813" lon="4.24256">
        <ele>1013.5</ele>
        <time>2026-05-07T07:45:49Z</time>
      </trkpt>
      <trkpt lat="44.93816" lon="4.24262">
        <ele>1014.1</ele>
        <time>2026-05-07T07:45:54Z</time>
      </trkpt>
      <trkpt lat="44.93818" lon="4.24266">
        <ele>1014.5</ele>
        <time>2026-05-07T07:45:59Z</time>
      </trkpt>
      <trkpt lat="44.9382" lon="4.2427">
        <ele>1014.9</ele>
        <time>2026-05-07T07:46:04Z</time>
      </trkpt>
      <trkpt lat="44.93821" lon="4.24269">
        <ele>1015.5</ele>
        <time>2026-05-07T07:46:09Z</time>
      </trkpt>
      <trkpt lat="44.93821" lon="4.24269">
        <ele>1015.5</ele>
        <time>2026-05-07T07:46:14Z</time>
      </trkpt>
      <trkpt lat="44.93821" lon="4.24269">
        <ele>1015.5</ele>
        <time>2026-05-07T07:46:19Z</time>
      </trkpt>
      <trkpt lat="44.93821" lon="4.24269">
        <ele>1015.5</ele>
        <time>2026-05-07T07:46:24Z</time>
      </trkpt>
      <trkpt lat="44.93821" lon="4.24269">
        <ele>1015.5</ele>
        <time>2026-05-07T07:46:29Z</time>
      </trkpt>
      <trkpt lat="44.93829" lon="4.2427">
        <ele>1019.1</ele>
        <time>2026-05-07T07:46:34Z</time>
      </trkpt>
      <trkpt lat="44.9383" lon="4.24264">
        <ele>1020.4</ele>
        <time>2026-05-07T07:46:39Z</time>
      </trkpt>
      <trkpt lat="44.93828" lon="4.24258">
        <ele>1020.3</ele>
        <time>2026-05-07T07:46:44Z</time>
      </trkpt>
      <trkpt lat="44.93827" lon="4.24253">
        <ele>1020.5</ele>
        <time>2026-05-07T07:46:49Z</time>
      </trkpt>
      <trkpt lat="44.93825" lon="4.24248">
        <ele>1020.2</ele>
        <time>2026-05-07T07:46:54Z</time>
      </trkpt>
      <trkpt lat="44.93825" lon="4.24242">
        <ele>1020.8</ele>
        <time>2026-05-07T07:46:59Z</time>
      </trkpt>
      <trkpt lat="44.93826" lon="4.24237">
        <ele>1021.8</ele>
        <time>2026-05-07T07:47:04Z</time>
      </trkpt>
      <trkpt lat="44.93829" lon="4.24235">
        <ele>1023.5</ele>
        <time>2026-05-07T07:47:09Z</time>
      </trkpt>
      <trkpt lat="44.9383" lon="4.24233">
        <ele>1024.2</ele>
        <time>2026-05-07T07:47:14Z</time>
      </trkpt>
      <trkpt lat="44.9383" lon="4.24233">
        <ele>1024.2</ele>
        <time>2026-05-07T07:47:19Z</time>
      </trkpt>
      <trkpt lat="44.93828" lon="4.24224">
        <ele>1024.2</ele>
        <time>2026-05-07T07:47:24Z</time>
      </trkpt>
      <trkpt lat="44.93827" lon="4.24219">
        <ele>1024.2</ele>
        <time>2026-05-07T07:47:29Z</time>
      </trkpt>
      <trkpt lat="44.93827" lon="4.24218">
        <ele>1024.3</ele>
        <time>2026-05-07T07:47:34Z</time>
      </trkpt>
      <trkpt lat="44.93827" lon="4.24211">
        <ele>1025</ele>
        <time>2026-05-07T07:47:39Z</time>
      </trkpt>
      <trkpt lat="44.93828" lon="4.24211">
        <ele>1025.5</ele>
        <time>2026-05-07T07:47:44Z</time>
      </trkpt>
      <trkpt lat="44.93828" lon="4.24211">
        <ele>1025.5</ele>
        <time>2026-05-07T07:47:49Z</time>
      </trkpt>
      <trkpt lat="44.93828" lon="4.24211">
        <ele>1025.5</ele>
        <time>2026-05-07T07:47:54Z</time>
      </trkpt>
      <trkpt lat="44.93828" lon="4.24211">
        <ele>1025.5</ele>
        <time>2026-05-07T07:47:59Z</time>
      </trkpt>
      <trkpt lat="44.93838" lon="4.24211">
        <ele>1030.4</ele>
        <time>2026-05-07T07:48:04Z</time>
      </trkpt>
      <trkpt lat="44.93839" lon="4.24207">
        <ele>1031.4</ele>
        <time>2026-05-07T07:48:09Z</time>
      </trkpt>
      <trkpt lat="44.93838" lon="4.24203">
        <ele>1031.4</ele>
        <time>2026-05-07T07:48:14Z</time>
      </trkpt>
      <trkpt lat="44.93838" lon="4.24199">
        <ele>1031.8</ele>
        <time>2026-05-07T07:48:19Z</time>
      </trkpt>
      <trkpt lat="44.93839" lon="4.24194">
        <ele>1032.9</ele>
        <time>2026-05-07T07:48:24Z</time>
      </trkpt>
      <trkpt lat="44.93839" lon="4.24194">
        <ele>1032.9</ele>
        <time>2026-05-07T07:48:29Z</time>
      </trkpt>
      <trkpt lat="44.93839" lon="4.24194">
        <ele>1032.9</ele>
        <time>2026-05-07T07:48:34Z</time>
      </trkpt>
      <trkpt lat="44.93845" lon="4.24199">
        <ele>1035.3</ele>
        <time>2026-05-07T07:48:39Z</time>
      </trkpt>
      <trkpt lat="44.93846" lon="4.24202">
        <ele>1035.4</ele>
        <time>2026-05-07T07:48:44Z</time>
      </trkpt>
      <trkpt lat="44.93847" lon="4.24206">
        <ele>1035.4</ele>
        <time>2026-05-07T07:48:49Z</time>
      </trkpt>
      <trkpt lat="44.93848" lon="4.24206">
        <ele>1035.8</ele>
        <time>2026-05-07T07:48:54Z</time>
      </trkpt>
      <trkpt lat="44.93848" lon="4.24206">
        <ele>1035.8</ele>
        <time>2026-05-07T07:48:59Z</time>
      </trkpt>
      <trkpt lat="44.93848" lon="4.24206">
        <ele>1035.8</ele>
        <time>2026-05-07T07:49:04Z</time>
      </trkpt>
      <trkpt lat="44.93857" lon="4.24207">
        <ele>1040</ele>
        <time>2026-05-07T07:49:09Z</time>
      </trkpt>
      <trkpt lat="44.93857" lon="4.24207">
        <ele>1040</ele>
        <time>2026-05-07T07:49:14Z</time>
      </trkpt>
      <trkpt lat="44.93857" lon="4.24207">
        <ele>1040</ele>
        <time>2026-05-07T07:49:19Z</time>
      </trkpt>
      <trkpt lat="44.93856" lon="4.24192">
        <ele>1041.7</ele>
        <time>2026-05-07T07:49:24Z</time>
      </trkpt>
      <trkpt lat="44.93856" lon="4.24189">
        <ele>1042.1</ele>
        <time>2026-05-07T07:49:29Z</time>
      </trkpt>
      <trkpt lat="44.93856" lon="4.24184">
        <ele>1042.8</ele>
        <time>2026-05-07T07:49:34Z</time>
      </trkpt>
      <trkpt lat="44.93856" lon="4.24184">
        <ele>1042.8</ele>
        <time>2026-05-07T07:49:39Z</time>
      </trkpt>
      <trkpt lat="44.93856" lon="4.24184">
        <ele>1042.8</ele>
        <time>2026-05-07T07:49:44Z</time>
      </trkpt>
      <trkpt lat="44.93856" lon="4.24184">
        <ele>1042.8</ele>
        <time>2026-05-07T07:49:49Z</time>
      </trkpt>
      <trkpt lat="44.93856" lon="4.24184">
        <ele>1042.8</ele>
        <time>2026-05-07T07:49:54Z</time>
      </trkpt>
      <trkpt lat="44.93856" lon="4.24184">
        <ele>1042.8</ele>
        <time>2026-05-07T07:49:59Z</time>
      </trkpt>
      <trkpt lat="44.93859" lon="4.24169">
        <ele>1046.5</ele>
        <time>2026-05-07T07:50:04Z</time>
      </trkpt>
      <trkpt lat="44.93859" lon="4.24169">
        <ele>1046.5</ele>
        <time>2026-05-07T07:50:09Z</time>
      </trkpt>
      <trkpt lat="44.93859" lon="4.24169">
        <ele>1046.5</ele>
        <time>2026-05-07T07:50:14Z</time>
      </trkpt>
      <trkpt lat="44.93859" lon="4.24169">
        <ele>1046.5</ele>
        <time>2026-05-07T07:50:19Z</time>
      </trkpt>
      <trkpt lat="44.93859" lon="4.24169">
        <ele>1046.5</ele>
        <time>2026-05-07T07:50:24Z</time>
      </trkpt>
      <trkpt lat="44.93859" lon="4.24169">
        <ele>1046.5</ele>
        <time>2026-05-07T07:50:29Z</time>
      </trkpt>
      <trkpt lat="44.93859" lon="4.24169">
        <ele>1046.5</ele>
        <time>2026-05-07T07:50:34Z</time>
      </trkpt>
      <trkpt lat="44.93859" lon="4.24169">
        <ele>1046.5</ele>
        <time>2026-05-07T07:50:39Z</time>
      </trkpt>
      <trkpt lat="44.93864" lon="4.24159">
        <ele>1050</ele>
        <time>2026-05-07T07:50:44Z</time>
      </trkpt>
      <trkpt lat="44.93867" lon="4.24161">
        <ele>1051.5</ele>
        <time>2026-05-07T07:50:49Z</time>
      </trkpt>
      <trkpt lat="44.93869" lon="4.2416">
        <ele>1052.7</ele>
        <time>2026-05-07T07:50:54Z</time>
      </trkpt>
      <trkpt lat="44.9387" lon="4.2416">
        <ele>1053.2</ele>
        <time>2026-05-07T07:50:59Z</time>
      </trkpt>
      <trkpt lat="44.9387" lon="4.2416">
        <ele>1053.2</ele>
        <time>2026-05-07T07:51:04Z</time>
      </trkpt>
      <trkpt lat="44.9387" lon="4.2416">
        <ele>1053.2</ele>
        <time>2026-05-07T07:51:09Z</time>
      </trkpt>
      <trkpt lat="44.9387" lon="4.2416">
        <ele>1053.2</ele>
        <time>2026-05-07T07:51:14Z</time>
      </trkpt>
      <trkpt lat="44.93871" lon="4.24147">
        <ele>1054.6</ele>
        <time>2026-05-07T07:51:19Z</time>
      </trkpt>
      <trkpt lat="44.93871" lon="4.24146">
        <ele>1054.6</ele>
        <time>2026-05-07T07:51:24Z</time>
      </trkpt>
      <trkpt lat="44.93871" lon="4.24146">
        <ele>1054.6</ele>
        <time>2026-05-07T07:51:29Z</time>
      </trkpt>
      <trkpt lat="44.93871" lon="4.24146">
        <ele>1054.6</ele>
        <time>2026-05-07T07:51:34Z</time>
      </trkpt>
      <trkpt lat="44.93871" lon="4.24146">
        <ele>1054.6</ele>
        <time>2026-05-07T07:51:39Z</time>
      </trkpt>
      <trkpt lat="44.93871" lon="4.24129">
        <ele>1055.7</ele>
        <time>2026-05-07T07:51:44Z</time>
      </trkpt>
      <trkpt lat="44.93872" lon="4.24123">
        <ele>1056.7</ele>
        <time>2026-05-07T07:51:49Z</time>
      </trkpt>
      <trkpt lat="44.93873" lon="4.2412">
        <ele>1057.4</ele>
        <time>2026-05-07T07:51:54Z</time>
      </trkpt>
      <trkpt lat="44.93873" lon="4.2412">
        <ele>1057.4</ele>
        <time>2026-05-07T07:51:59Z</time>
      </trkpt>
      <trkpt lat="44.93873" lon="4.2412">
        <ele>1057.4</ele>
        <time>2026-05-07T07:52:04Z</time>
      </trkpt>
      <trkpt lat="44.93873" lon="4.2412">
        <ele>1057.4</ele>
        <time>2026-05-07T07:52:09Z</time>
      </trkpt>
      <trkpt lat="44.93879" lon="4.24117">
        <ele>1061.1</ele>
        <time>2026-05-07T07:52:14Z</time>
      </trkpt>
      <trkpt lat="44.93881" lon="4.24122">
        <ele>1061.9</ele>
        <time>2026-05-07T07:52:19Z</time>
      </trkpt>
      <trkpt lat="44.93882" lon="4.24126">
        <ele>1062.2</ele>
        <time>2026-05-07T07:52:24Z</time>
      </trkpt>
      <trkpt lat="44.93883" lon="4.2413">
        <ele>1062.5</ele>
        <time>2026-05-07T07:52:29Z</time>
      </trkpt>
      <trkpt lat="44.93886" lon="4.24133">
        <ele>1063.9</ele>
        <time>2026-05-07T07:52:34Z</time>
      </trkpt>
      <trkpt lat="44.93887" lon="4.24137">
        <ele>1064.2</ele>
        <time>2026-05-07T07:52:39Z</time>
      </trkpt>
      <trkpt lat="44.9389" lon="4.2414">
        <ele>1065.6</ele>
        <time>2026-05-07T07:52:44Z</time>
      </trkpt>
      <trkpt lat="44.93893" lon="4.24142">
        <ele>1067.2</ele>
        <time>2026-05-07T07:52:49Z</time>
      </trkpt>
      <trkpt lat="44.93897" lon="4.24142">
        <ele>1069.4</ele>
        <time>2026-05-07T07:52:54Z</time>
      </trkpt>
      <trkpt lat="44.939" lon="4.24143">
        <ele>1071</ele>
        <time>2026-05-07T07:52:59Z</time>
      </trkpt>
      <trkpt lat="44.93904" lon="4.24141">
        <ele>1073.4</ele>
        <time>2026-05-07T07:53:04Z</time>
      </trkpt>
      <trkpt lat="44.93907" lon="4.24142">
        <ele>1075</ele>
        <time>2026-05-07T07:53:09Z</time>
      </trkpt>
      <trkpt lat="44.9391" lon="4.24142">
        <ele>1076.6</ele>
        <time>2026-05-07T07:53:14Z</time>
      </trkpt>
      <trkpt lat="44.93911" lon="4.2414">
        <ele>1077.4</ele>
        <time>2026-05-07T07:53:19Z</time>
      </trkpt>
      <trkpt lat="44.93911" lon="4.2414">
        <ele>1077.4</ele>
        <time>2026-05-07T07:53:24Z</time>
      </trkpt>
      <trkpt lat="44.93911" lon="4.2414">
        <ele>1077.4</ele>
        <time>2026-05-07T07:53:29Z</time>
      </trkpt>
      <trkpt lat="44.93918" lon="4.24131">
        <ele>1081.8</ele>
        <time>2026-05-07T07:53:34Z</time>
      </trkpt>
      <trkpt lat="44.9392" lon="4.24128">
        <ele>1082.8</ele>
        <time>2026-05-07T07:53:39Z</time>
      </trkpt>
      <trkpt lat="44.9392" lon="4.24124">
        <ele>1083.2</ele>
        <time>2026-05-07T07:53:44Z</time>
      </trkpt>
      <trkpt lat="44.93921" lon="4.24121">
        <ele>1083.8</ele>
        <time>2026-05-07T07:53:49Z</time>
      </trkpt>
      <trkpt lat="44.93921" lon="4.2412">
        <ele>1083.9</ele>
        <time>2026-05-07T07:53:54Z</time>
      </trkpt>
      <trkpt lat="44.93921" lon="4.2412">
        <ele>1083.9</ele>
        <time>2026-05-07T07:53:59Z</time>
      </trkpt>
      <trkpt lat="44.93921" lon="4.2412">
        <ele>1083.9</ele>
        <time>2026-05-07T07:54:04Z</time>
      </trkpt>
      <trkpt lat="44.93921" lon="4.2412">
        <ele>1083.9</ele>
        <time>2026-05-07T07:54:09Z</time>
      </trkpt>
      <trkpt lat="44.93921" lon="4.2412">
        <ele>1083.9</ele>
        <time>2026-05-07T07:54:14Z</time>
      </trkpt>
      <trkpt lat="44.93921" lon="4.2412">
        <ele>1083.9</ele>
        <time>2026-05-07T07:54:19Z</time>
      </trkpt>
      <trkpt lat="44.93919" lon="4.24118">
        <ele>1083.5</ele>
        <time>2026-05-07T07:54:24Z</time>
      </trkpt>
      <trkpt lat="44.93917" lon="4.24113">
        <ele>1083.3</ele>
        <time>2026-05-07T07:54:29Z</time>
      </trkpt>
      <trkpt lat="44.93917" lon="4.24111">
        <ele>1083.5</ele>
        <time>2026-05-07T07:54:34Z</time>
      </trkpt>
      <trkpt lat="44.93918" lon="4.24107">
        <ele>1084.2</ele>
        <time>2026-05-07T07:54:39Z</time>
      </trkpt>
      <trkpt lat="44.93918" lon="4.24105">
        <ele>1084.4</ele>
        <time>2026-05-07T07:54:44Z</time>
      </trkpt>
      <trkpt lat="44.93918" lon="4.24102">
        <ele>1084.7</ele>
        <time>2026-05-07T07:54:49Z</time>
      </trkpt>
      <trkpt lat="44.93918" lon="4.24102">
        <ele>1084.7</ele>
        <time>2026-05-07T07:54:54Z</time>
      </trkpt>
      <trkpt lat="44.93918" lon="4.24102">
        <ele>1084.7</ele>
        <time>2026-05-07T07:54:59Z</time>
      </trkpt>
      <trkpt lat="44.93918" lon="4.24102">
        <ele>1084.7</ele>
        <time>2026-05-07T07:55:04Z</time>
      </trkpt>
      <trkpt lat="44.93921" lon="4.24088">
        <ele>1087.3</ele>
        <time>2026-05-07T07:55:09Z</time>
      </trkpt>
      <trkpt lat="44.93921" lon="4.24088">
        <ele>1087.3</ele>
        <time>2026-05-07T07:55:14Z</time>
      </trkpt>
      <trkpt lat="44.93921" lon="4.24088">
        <ele>1087.3</ele>
        <time>2026-05-07T07:55:19Z</time>
      </trkpt>
      <trkpt lat="44.93921" lon="4.24088">
        <ele>1087.3</ele>
        <time>2026-05-07T07:55:24Z</time>
      </trkpt>
      <trkpt lat="44.93921" lon="4.24088">
        <ele>1087.3</ele>
        <time>2026-05-07T07:55:29Z</time>
      </trkpt>
      <trkpt lat="44.93921" lon="4.24088">
        <ele>1087.3</ele>
        <time>2026-05-07T07:55:34Z</time>
      </trkpt>
      <trkpt lat="44.93921" lon="4.24088">
        <ele>1087.3</ele>
        <time>2026-05-07T07:55:39Z</time>
      </trkpt>
      <trkpt lat="44.93926" lon="4.24072">
        <ele>1090</ele>
        <time>2026-05-07T07:55:44Z</time>
      </trkpt>
      <trkpt lat="44.93928" lon="4.24068">
        <ele>1090.9</ele>
        <time>2026-05-07T07:55:49Z</time>
      </trkpt>
      <trkpt lat="44.9393" lon="4.24066">
        <ele>1091.8</ele>
        <time>2026-05-07T07:55:54Z</time>
      </trkpt>
      <trkpt lat="44.9393" lon="4.24066">
        <ele>1091.8</ele>
        <time>2026-05-07T07:55:59Z</time>
      </trkpt>
      <trkpt lat="44.9393" lon="4.24066">
        <ele>1091.8</ele>
        <time>2026-05-07T07:56:04Z</time>
      </trkpt>
      <trkpt lat="44.93935" lon="4.2406">
        <ele>1094.2</ele>
        <time>2026-05-07T07:56:09Z</time>
      </trkpt>
      <trkpt lat="44.93937" lon="4.24056">
        <ele>1095.3</ele>
        <time>2026-05-07T07:56:14Z</time>
      </trkpt>
      <trkpt lat="44.93938" lon="4.24054">
        <ele>1095.8</ele>
        <time>2026-05-07T07:56:19Z</time>
      </trkpt>
      <trkpt lat="44.93938" lon="4.24054">
        <ele>1095.8</ele>
        <time>2026-05-07T07:56:24Z</time>
      </trkpt>
      <trkpt lat="44.93938" lon="4.24054">
        <ele>1095.8</ele>
        <time>2026-05-07T07:56:29Z</time>
      </trkpt>
      <trkpt lat="44.93938" lon="4.24054">
        <ele>1095.8</ele>
        <time>2026-05-07T07:56:34Z</time>
      </trkpt>
      <trkpt lat="44.93941" lon="4.24037">
        <ele>1097.9</ele>
        <time>2026-05-07T07:56:39Z</time>
      </trkpt>
      <trkpt lat="44.9394" lon="4.24032">
        <ele>1097.6</ele>
        <time>2026-05-07T07:56:44Z</time>
      </trkpt>
      <trkpt lat="44.93939" lon="4.24028">
        <ele>1097.2</ele>
        <time>2026-05-07T07:56:49Z</time>
      </trkpt>
      <trkpt lat="44.93939" lon="4.24028">
        <ele>1097.2</ele>
        <time>2026-05-07T07:56:54Z</time>
      </trkpt>
      <trkpt lat="44.93939" lon="4.24028">
        <ele>1097.2</ele>
        <time>2026-05-07T07:56:59Z</time>
      </trkpt>
      <trkpt lat="44.93939" lon="4.24028">
        <ele>1097.2</ele>
        <time>2026-05-07T07:57:04Z</time>
      </trkpt>
      <trkpt lat="44.93939" lon="4.24028">
        <ele>1097.2</ele>
        <time>2026-05-07T07:57:09Z</time>
      </trkpt>
      <trkpt lat="44.93939" lon="4.24028">
        <ele>1097.2</ele>
        <time>2026-05-07T07:57:14Z</time>
      </trkpt>
      <trkpt lat="44.93944" lon="4.24013">
        <ele>1100.5</ele>
        <time>2026-05-07T07:57:19Z</time>
      </trkpt>
      <trkpt lat="44.93947" lon="4.2401">
        <ele>1102.2</ele>
        <time>2026-05-07T07:57:24Z</time>
      </trkpt>
      <trkpt lat="44.93949" lon="4.24007">
        <ele>1103.5</ele>
        <time>2026-05-07T07:57:29Z</time>
      </trkpt>
      <trkpt lat="44.93952" lon="4.24004">
        <ele>1105.3</ele>
        <time>2026-05-07T07:57:34Z</time>
      </trkpt>
      <trkpt lat="44.93954" lon="4.24001">
        <ele>1106.5</ele>
        <time>2026-05-07T07:57:39Z</time>
      </trkpt>
      <trkpt lat="44.93956" lon="4.23999">
        <ele>1107.7</ele>
        <time>2026-05-07T07:57:44Z</time>
      </trkpt>
      <trkpt lat="44.93959" lon="4.23995">
        <ele>1109.2</ele>
        <time>2026-05-07T07:57:49Z</time>
      </trkpt>
      <trkpt lat="44.93961" lon="4.23991">
        <ele>1110.3</ele>
        <time>2026-05-07T07:57:54Z</time>
      </trkpt>
      <trkpt lat="44.93963" lon="4.23988">
        <ele>1111.3</ele>
        <time>2026-05-07T07:57:59Z</time>
      </trkpt>
      <trkpt lat="44.93963" lon="4.23985">
        <ele>1111.2</ele>
        <time>2026-05-07T07:58:04Z</time>
      </trkpt>
      <trkpt lat="44.93963" lon="4.23985">
        <ele>1111.2</ele>
        <time>2026-05-07T07:58:09Z</time>
      </trkpt>
      <trkpt lat="44.93963" lon="4.23985">
        <ele>1111.2</ele>
        <time>2026-05-07T07:58:14Z</time>
      </trkpt>
      <trkpt lat="44.93963" lon="4.23985">
        <ele>1111.2</ele>
        <time>2026-05-07T07:58:19Z</time>
      </trkpt>
      <trkpt lat="44.93963" lon="4.23985">
        <ele>1111.2</ele>
        <time>2026-05-07T07:58:24Z</time>
      </trkpt>
      <trkpt lat="44.93963" lon="4.23985">
        <ele>1111.2</ele>
        <time>2026-05-07T07:58:29Z</time>
      </trkpt>
      <trkpt lat="44.93963" lon="4.23985">
        <ele>1111.2</ele>
        <time>2026-05-07T07:58:34Z</time>
      </trkpt>
      <trkpt lat="44.93963" lon="4.23985">
        <ele>1111.2</ele>
        <time>2026-05-07T07:58:39Z</time>
      </trkpt>
      <trkpt lat="44.93963" lon="4.23985">
        <ele>1111.2</ele>
        <time>2026-05-07T07:58:44Z</time>
      </trkpt>
      <trkpt lat="44.93963" lon="4.23985">
        <ele>1111.2</ele>
        <time>2026-05-07T07:58:49Z</time>
      </trkpt>
      <trkpt lat="44.93963" lon="4.23985">
        <ele>1111.2</ele>
        <time>2026-05-07T07:58:54Z</time>
      </trkpt>
      <trkpt lat="44.93963" lon="4.23985">
        <ele>1111.2</ele>
        <time>2026-05-07T07:58:59Z</time>
      </trkpt>
      <trkpt lat="44.93963" lon="4.23985">
        <ele>1111.2</ele>
        <time>2026-05-07T07:59:04Z</time>
      </trkpt>
      <trkpt lat="44.93963" lon="4.23985">
        <ele>1111.2</ele>
        <time>2026-05-07T07:59:09Z</time>
      </trkpt>
      <trkpt lat="44.93963" lon="4.23985">
        <ele>1111.2</ele>
        <time>2026-05-07T07:59:14Z</time>
      </trkpt>
      <trkpt lat="44.93963" lon="4.23985">
        <ele>1111.2</ele>
        <time>2026-05-07T07:59:19Z</time>
      </trkpt>
      <trkpt lat="44.93963" lon="4.23985">
        <ele>1111.2</ele>
        <time>2026-05-07T07:59:24Z</time>
      </trkpt>
      <trkpt lat="44.93963" lon="4.23985">
        <ele>1111.2</ele>
        <time>2026-05-07T07:59:29Z</time>
      </trkpt>
      <trkpt lat="44.93963" lon="4.23985">
        <ele>1111.2</ele>
        <time>2026-05-07T07:59:34Z</time>
      </trkpt>
      <trkpt lat="44.93963" lon="4.23985">
        <ele>1111.2</ele>
        <time>2026-05-07T07:59:39Z</time>
      </trkpt>
      <trkpt lat="44.93963" lon="4.23985">
        <ele>1111.2</ele>
        <time>2026-05-07T07:59:44Z</time>
      </trkpt>
      <trkpt lat="44.93963" lon="4.23985">
        <ele>1111.2</ele>
        <time>2026-05-07T07:59:49Z</time>
      </trkpt>
      <trkpt lat="44.93963" lon="4.23985">
        <ele>1111.2</ele>
        <time>2026-05-07T07:59:54Z</time>
      </trkpt>
      <trkpt lat="44.93963" lon="4.23985">
        <ele>1111.2</ele>
        <time>2026-05-07T07:59:59Z</time>
      </trkpt>
      <trkpt lat="44.93963" lon="4.23985">
        <ele>1111.2</ele>
        <time>2026-05-07T08:00:04Z</time>
      </trkpt>
      <trkpt lat="44.93963" lon="4.23985">
        <ele>1111.2</ele>
        <time>2026-05-07T08:00:09Z</time>
      </trkpt>
      <trkpt lat="44.93963" lon="4.23985">
        <ele>1111.2</ele>
        <time>2026-05-07T08:00:14Z</time>
      </trkpt>
      <trkpt lat="44.93963" lon="4.23985">
        <ele>1111.2</ele>
        <time>2026-05-07T08:00:19Z</time>
      </trkpt>
      <trkpt lat="44.93963" lon="4.23985">
        <ele>1111.2</ele>
        <time>2026-05-07T08:00:24Z</time>
      </trkpt>
      <trkpt lat="44.93963" lon="4.23985">
        <ele>1111.2</ele>
        <time>2026-05-07T08:00:29Z</time>
      </trkpt>
      <trkpt lat="44.93963" lon="4.23985">
        <ele>1111.2</ele>
        <time>2026-05-07T08:00:34Z</time>
      </trkpt>
      <trkpt lat="44.93963" lon="4.23985">
        <ele>1111.2</ele>
        <time>2026-05-07T08:00:39Z</time>
      </trkpt>
      <trkpt lat="44.93963" lon="4.23985">
        <ele>1111.2</ele>
        <time>2026-05-07T08:00:44Z</time>
      </trkpt>
      <trkpt lat="44.93963" lon="4.23985">
        <ele>1111.2</ele>
        <time>2026-05-07T08:00:49Z</time>
      </trkpt>
      <trkpt lat="44.93963" lon="4.23985">
        <ele>1111.2</ele>
        <time>2026-05-07T08:00:54Z</time>
      </trkpt>
      <trkpt lat="44.93963" lon="4.23985">
        <ele>1111.2</ele>
        <time>2026-05-07T08:00:59Z</time>
      </trkpt>
      <trkpt lat="44.93972" lon="4.23973">
        <ele>1116</ele>
        <time>2026-05-07T08:01:04Z</time>
      </trkpt>
      <trkpt lat="44.93974" lon="4.23967">
        <ele>1117</ele>
        <time>2026-05-07T08:01:09Z</time>
      </trkpt>
      <trkpt lat="44.93975" lon="4.23963">
        <ele>1117.5</ele>
        <time>2026-05-07T08:01:14Z</time>
      </trkpt>
      <trkpt lat="44.93976" lon="4.23958">
        <ele>1118</ele>
        <time>2026-05-07T08:01:19Z</time>
      </trkpt>
      <trkpt lat="44.93979" lon="4.2395">
        <ele>1119.5</ele>
        <time>2026-05-07T08:01:24Z</time>
      </trkpt>
      <trkpt lat="44.9398" lon="4.23942">
        <ele>1119.9</ele>
        <time>2026-05-07T08:01:29Z</time>
      </trkpt>
      <trkpt lat="44.93982" lon="4.23938">
        <ele>1121</ele>
        <time>2026-05-07T08:01:34Z</time>
      </trkpt>
      <trkpt lat="44.93982" lon="4.23938">
        <ele>1121</ele>
        <time>2026-05-07T08:01:39Z</time>
      </trkpt>
      <trkpt lat="44.93982" lon="4.23938">
        <ele>1121</ele>
        <time>2026-05-07T08:01:44Z</time>
      </trkpt>
      <trkpt lat="44.93982" lon="4.23938">
        <ele>1121</ele>
        <time>2026-05-07T08:01:49Z</time>
      </trkpt>
      <trkpt lat="44.93982" lon="4.23938">
        <ele>1121</ele>
        <time>2026-05-07T08:01:54Z</time>
      </trkpt>
      <trkpt lat="44.93985" lon="4.2393">
        <ele>1122.6</ele>
        <time>2026-05-07T08:01:59Z</time>
      </trkpt>
      <trkpt lat="44.93989" lon="4.23924">
        <ele>1124.8</ele>
        <time>2026-05-07T08:02:04Z</time>
      </trkpt>
      <trkpt lat="44.93993" lon="4.23919">
        <ele>1127</ele>
        <time>2026-05-07T08:02:09Z</time>
      </trkpt>
      <trkpt lat="44.93996" lon="4.23915">
        <ele>1128.4</ele>
        <time>2026-05-07T08:02:14Z</time>
      </trkpt>
      <trkpt lat="44.93998" lon="4.23909">
        <ele>1128.5</ele>
        <time>2026-05-07T08:02:19Z</time>
      </trkpt>
      <trkpt lat="44.94" lon="4.23905">
        <ele>1128.9</ele>
        <time>2026-05-07T08:02:24Z</time>
      </trkpt>
      <trkpt lat="44.94002" lon="4.23901">
        <ele>1128.7</ele>
        <time>2026-05-07T08:02:29Z</time>
      </trkpt>
      <trkpt lat="44.94005" lon="4.23898">
        <ele>1129.1</ele>
        <time>2026-05-07T08:02:34Z</time>
      </trkpt>
      <trkpt lat="44.94008" lon="4.23894">
        <ele>1129.3</ele>
        <time>2026-05-07T08:02:39Z</time>
      </trkpt>
      <trkpt lat="44.94013" lon="4.23893">
        <ele>1130.7</ele>
        <time>2026-05-07T08:02:44Z</time>
      </trkpt>
      <trkpt lat="44.94018" lon="4.2389">
        <ele>1131.8</ele>
        <time>2026-05-07T08:02:49Z</time>
      </trkpt>
      <trkpt lat="44.9402" lon="4.23889">
        <ele>1132.3</ele>
        <time>2026-05-07T08:02:54Z</time>
      </trkpt>
      <trkpt lat="44.9402" lon="4.23889">
        <ele>1132.3</ele>
        <time>2026-05-07T08:02:59Z</time>
      </trkpt>
      <trkpt lat="44.9402" lon="4.23889">
        <ele>1132.3</ele>
        <time>2026-05-07T08:03:04Z</time>
      </trkpt>
      <trkpt lat="44.9402" lon="4.23889">
        <ele>1132.3</ele>
        <time>2026-05-07T08:03:09Z</time>
      </trkpt>
      <trkpt lat="44.94022" lon="4.23891">
        <ele>1133.1</ele>
        <time>2026-05-07T08:03:14Z</time>
      </trkpt>
      <trkpt lat="44.94025" lon="4.23893">
        <ele>1134.3</ele>
        <time>2026-05-07T08:03:19Z</time>
      </trkpt>
      <trkpt lat="44.94029" lon="4.23893">
        <ele>1135.5</ele>
        <time>2026-05-07T08:03:24Z</time>
      </trkpt>
      <trkpt lat="44.94034" lon="4.23893">
        <ele>1137</ele>
        <time>2026-05-07T08:03:29Z</time>
      </trkpt>
      <trkpt lat="44.94039" lon="4.23892">
        <ele>1138.4</ele>
        <time>2026-05-07T08:03:34Z</time>
      </trkpt>
      <trkpt lat="44.94043" lon="4.2389">
        <ele>1139.5</ele>
        <time>2026-05-07T08:03:39Z</time>
      </trkpt>
      <trkpt lat="44.94047" lon="4.23888">
        <ele>1140.6</ele>
        <time>2026-05-07T08:03:44Z</time>
      </trkpt>
      <trkpt lat="44.9405" lon="4.23887">
        <ele>1141.5</ele>
        <time>2026-05-07T08:03:49Z</time>
      </trkpt>
      <trkpt lat="44.94052" lon="4.23885">
        <ele>1142</ele>
        <time>2026-05-07T08:03:54Z</time>
      </trkpt>
      <trkpt lat="44.94055" lon="4.23882">
        <ele>1142.9</ele>
        <time>2026-05-07T08:03:59Z</time>
      </trkpt>
      <trkpt lat="44.9406" lon="4.23878">
        <ele>1144.5</ele>
        <time>2026-05-07T08:04:04Z</time>
      </trkpt>
      <trkpt lat="44.94064" lon="4.23875">
        <ele>1145.8</ele>
        <time>2026-05-07T08:04:09Z</time>
      </trkpt>
      <trkpt lat="44.94067" lon="4.23873">
        <ele>1146.8</ele>
        <time>2026-05-07T08:04:14Z</time>
      </trkpt>
      <trkpt lat="44.94069" lon="4.23873">
        <ele>1147.5</ele>
        <time>2026-05-07T08:04:19Z</time>
      </trkpt>
      <trkpt lat="44.94072" lon="4.2387">
        <ele>1148.6</ele>
        <time>2026-05-07T08:04:24Z</time>
      </trkpt>
      <trkpt lat="44.94075" lon="4.23867">
        <ele>1149.7</ele>
        <time>2026-05-07T08:04:29Z</time>
      </trkpt>
      <trkpt lat="44.94079" lon="4.23863">
        <ele>1151.3</ele>
        <time>2026-05-07T08:04:34Z</time>
      </trkpt>
      <trkpt lat="44.94082" lon="4.23862">
        <ele>1152.5</ele>
        <time>2026-05-07T08:04:39Z</time>
      </trkpt>
      <trkpt lat="44.94083" lon="4.23861">
        <ele>1152.9</ele>
        <time>2026-05-07T08:04:44Z</time>
      </trkpt>
      <trkpt lat="44.94084" lon="4.23858">
        <ele>1153.2</ele>
        <time>2026-05-07T08:04:49Z</time>
      </trkpt>
      <trkpt lat="44.94085" lon="4.23855">
        <ele>1153.4</ele>
        <time>2026-05-07T08:04:54Z</time>
      </trkpt>
      <trkpt lat="44.94088" lon="4.23854">
        <ele>1153.9</ele>
        <time>2026-05-07T08:04:59Z</time>
      </trkpt>
      <trkpt lat="44.9409" lon="4.23851">
        <ele>1154.3</ele>
        <time>2026-05-07T08:05:04Z</time>
      </trkpt>
      <trkpt lat="44.94092" lon="4.2385">
        <ele>1154.6</ele>
        <time>2026-05-07T08:05:09Z</time>
      </trkpt>
      <trkpt lat="44.94094" lon="4.23848">
        <ele>1155</ele>
        <time>2026-05-07T08:05:14Z</time>
      </trkpt>
      <trkpt lat="44.94095" lon="4.23844">
        <ele>1155.4</ele>
        <time>2026-05-07T08:05:19Z</time>
      </trkpt>
      <trkpt lat="44.94094" lon="4.23844">
        <ele>1155.3</ele>
        <time>2026-05-07T08:05:24Z</time>
      </trkpt>
      <trkpt lat="44.94093" lon="4.23845">
        <ele>1155</ele>
        <time>2026-05-07T08:05:29Z</time>
      </trkpt>
      <trkpt lat="44.9409" lon="4.23849">
        <ele>1154.4</ele>
        <time>2026-05-07T08:05:34Z</time>
      </trkpt>
      <trkpt lat="44.94087" lon="4.23854">
        <ele>1153.7</ele>
        <time>2026-05-07T08:05:39Z</time>
      </trkpt>
      <trkpt lat="44.94088" lon="4.23856">
        <ele>1153.8</ele>
        <time>2026-05-07T08:05:44Z</time>
      </trkpt>
      <trkpt lat="44.94085" lon="4.23859">
        <ele>1153.3</ele>
        <time>2026-05-07T08:05:49Z</time>
      </trkpt>
      <trkpt lat="44.94083" lon="4.2386">
        <ele>1152.9</ele>
        <time>2026-05-07T08:05:54Z</time>
      </trkpt>
      <trkpt lat="44.94086" lon="4.23861">
        <ele>1153.3</ele>
        <time>2026-05-07T08:05:59Z</time>
      </trkpt>
      <trkpt lat="44.9409" lon="4.23857">
        <ele>1154</ele>
        <time>2026-05-07T08:06:04Z</time>
      </trkpt>
      <trkpt lat="44.94093" lon="4.23856">
        <ele>1154.4</ele>
        <time>2026-05-07T08:06:09Z</time>
      </trkpt>
      <trkpt lat="44.94095" lon="4.23855">
        <ele>1154.7</ele>
        <time>2026-05-07T08:06:14Z</time>
      </trkpt>
      <trkpt lat="44.94099" lon="4.23854">
        <ele>1155.3</ele>
        <time>2026-05-07T08:06:19Z</time>
      </trkpt>
      <trkpt lat="44.94104" lon="4.23853">
        <ele>1156</ele>
        <time>2026-05-07T08:06:24Z</time>
      </trkpt>
      <trkpt lat="44.94109" lon="4.23853">
        <ele>1156.7</ele>
        <time>2026-05-07T08:06:29Z</time>
      </trkpt>
      <trkpt lat="44.94112" lon="4.23852">
        <ele>1157.2</ele>
        <time>2026-05-07T08:06:34Z</time>
      </trkpt>
      <trkpt lat="44.94112" lon="4.2385">
        <ele>1157.4</ele>
        <time>2026-05-07T08:06:39Z</time>
      </trkpt>
      <trkpt lat="44.94112" lon="4.2385">
        <ele>1157.4</ele>
        <time>2026-05-07T08:06:44Z</time>
      </trkpt>
      <trkpt lat="44.94114" lon="4.23849">
        <ele>1157.8</ele>
        <time>2026-05-07T08:06:49Z</time>
      </trkpt>
      <trkpt lat="44.94115" lon="4.2385">
        <ele>1157.8</ele>
        <time>2026-05-07T08:06:54Z</time>
      </trkpt>
      <trkpt lat="44.94114" lon="4.23851">
        <ele>1157.6</ele>
        <time>2026-05-07T08:06:59Z</time>
      </trkpt>
      <trkpt lat="44.94111" lon="4.23853">
        <ele>1156.9</ele>
        <time>2026-05-07T08:07:04Z</time>
      </trkpt>
      <trkpt lat="44.94104" lon="4.23855">
        <ele>1155.8</ele>
        <time>2026-05-07T08:07:09Z</time>
      </trkpt>
      <trkpt lat="44.941" lon="4.23856">
        <ele>1155.3</ele>
        <time>2026-05-07T08:07:14Z</time>
      </trkpt>
      <trkpt lat="44.94101" lon="4.23856">
        <ele>1155.4</ele>
        <time>2026-05-07T08:07:19Z</time>
      </trkpt>
      <trkpt lat="44.94102" lon="4.23855">
        <ele>1155.6</ele>
        <time>2026-05-07T08:07:24Z</time>
      </trkpt>
      <trkpt lat="44.94102" lon="4.23853">
        <ele>1155.8</ele>
        <time>2026-05-07T08:07:29Z</time>
      </trkpt>
      <trkpt lat="44.94099" lon="4.23853">
        <ele>1155.4</ele>
        <time>2026-05-07T08:07:34Z</time>
      </trkpt>
      <trkpt lat="44.94099" lon="4.23853">
        <ele>1155.4</ele>
        <time>2026-05-07T08:07:39Z</time>
      </trkpt>
      <trkpt lat="44.94096" lon="4.23854">
        <ele>1154.9</ele>
        <time>2026-05-07T08:07:44Z</time>
      </trkpt>
      <trkpt lat="44.94093" lon="4.23854">
        <ele>1154.5</ele>
        <time>2026-05-07T08:07:49Z</time>
      </trkpt>
      <trkpt lat="44.94089" lon="4.23856">
        <ele>1153.9</ele>
        <time>2026-05-07T08:07:54Z</time>
      </trkpt>
      <trkpt lat="44.94086" lon="4.23858">
        <ele>1153.4</ele>
        <time>2026-05-07T08:07:59Z</time>
      </trkpt>
      <trkpt lat="44.94084" lon="4.2386">
        <ele>1153.1</ele>
        <time>2026-05-07T08:08:04Z</time>
      </trkpt>
      <trkpt lat="44.94082" lon="4.23863">
        <ele>1152.4</ele>
        <time>2026-05-07T08:08:09Z</time>
      </trkpt>
      <trkpt lat="44.94082" lon="4.23863">
        <ele>1152.4</ele>
        <time>2026-05-07T08:08:14Z</time>
      </trkpt>
      <trkpt lat="44.94082" lon="4.23863">
        <ele>1152.4</ele>
        <time>2026-05-07T08:08:19Z</time>
      </trkpt>
      <trkpt lat="44.94082" lon="4.23863">
        <ele>1152.4</ele>
        <time>2026-05-07T08:08:24Z</time>
      </trkpt>
      <trkpt lat="44.94082" lon="4.23863">
        <ele>1152.4</ele>
        <time>2026-05-07T08:08:29Z</time>
      </trkpt>
      <trkpt lat="44.94086" lon="4.23849">
        <ele>1153.8</ele>
        <time>2026-05-07T08:08:34Z</time>
      </trkpt>
      <trkpt lat="44.94087" lon="4.23847">
        <ele>1154</ele>
        <time>2026-05-07T08:08:39Z</time>
      </trkpt>
      <trkpt lat="44.94089" lon="4.23846">
        <ele>1154.4</ele>
        <time>2026-05-07T08:08:44Z</time>
      </trkpt>
      <trkpt lat="44.9409" lon="4.23843">
        <ele>1154.7</ele>
        <time>2026-05-07T08:08:49Z</time>
      </trkpt>
      <trkpt lat="44.94093" lon="4.2384">
        <ele>1155.3</ele>
        <time>2026-05-07T08:08:54Z</time>
      </trkpt>
      <trkpt lat="44.94095" lon="4.23838">
        <ele>1155.8</ele>
        <time>2026-05-07T08:08:59Z</time>
      </trkpt>
      <trkpt lat="44.94096" lon="4.23834">
        <ele>1156.2</ele>
        <time>2026-05-07T08:09:04Z</time>
      </trkpt>
      <trkpt lat="44.94099" lon="4.23831">
        <ele>1156.9</ele>
        <time>2026-05-07T08:09:09Z</time>
      </trkpt>
      <trkpt lat="44.941" lon="4.23827">
        <ele>1157.3</ele>
        <time>2026-05-07T08:09:14Z</time>
      </trkpt>
      <trkpt lat="44.94101" lon="4.23828">
        <ele>1157.4</ele>
        <time>2026-05-07T08:09:19Z</time>
      </trkpt>
      <trkpt lat="44.94101" lon="4.23827">
        <ele>1157.5</ele>
        <time>2026-05-07T08:09:24Z</time>
      </trkpt>
      <trkpt lat="44.94101" lon="4.23827">
        <ele>1157.5</ele>
        <time>2026-05-07T08:09:29Z</time>
      </trkpt>
      <trkpt lat="44.94101" lon="4.23827">
        <ele>1157.5</ele>
        <time>2026-05-07T08:09:34Z</time>
      </trkpt>
      <trkpt lat="44.941" lon="4.23826">
        <ele>1157.3</ele>
        <time>2026-05-07T08:09:39Z</time>
      </trkpt>
      <trkpt lat="44.94101" lon="4.23819">
        <ele>1157.8</ele>
        <time>2026-05-07T08:09:44Z</time>
      </trkpt>
      <trkpt lat="44.94103" lon="4.23816">
        <ele>1158.4</ele>
        <time>2026-05-07T08:09:49Z</time>
      </trkpt>
      <trkpt lat="44.94106" lon="4.23814">
        <ele>1159.2</ele>
        <time>2026-05-07T08:09:54Z</time>
      </trkpt>
      <trkpt lat="44.94107" lon="4.23812">
        <ele>1159.5</ele>
        <time>2026-05-07T08:09:59Z</time>
      </trkpt>
      <trkpt lat="44.94108" lon="4.23809">
        <ele>1159.9</ele>
        <time>2026-05-07T08:10:04Z</time>
      </trkpt>
      <trkpt lat="44.94109" lon="4.23805">
        <ele>1160.4</ele>
        <time>2026-05-07T08:10:09Z</time>
      </trkpt>
      <trkpt lat="44.9411" lon="4.23803">
        <ele>1160.8</ele>
        <time>2026-05-07T08:10:14Z</time>
      </trkpt>
      <trkpt lat="44.94111" lon="4.238">
        <ele>1161.2</ele>
        <time>2026-05-07T08:10:19Z</time>
      </trkpt>
      <trkpt lat="44.94111" lon="4.23796">
        <ele>1161.5</ele>
        <time>2026-05-07T08:10:24Z</time>
      </trkpt>
      <trkpt lat="44.94112" lon="4.23795">
        <ele>1161.9</ele>
        <time>2026-05-07T08:10:29Z</time>
      </trkpt>
      <trkpt lat="44.94113" lon="4.23793">
        <ele>1162.3</ele>
        <time>2026-05-07T08:10:34Z</time>
      </trkpt>
      <trkpt lat="44.94113" lon="4.2379">
        <ele>1162.5</ele>
        <time>2026-05-07T08:10:39Z</time>
      </trkpt>
      <trkpt lat="44.94115" lon="4.23787">
        <ele>1163.3</ele>
        <time>2026-05-07T08:10:44Z</time>
      </trkpt>
      <trkpt lat="44.94117" lon="4.23786">
        <ele>1164</ele>
        <time>2026-05-07T08:10:49Z</time>
      </trkpt>
      <trkpt lat="44.94119" lon="4.23785">
        <ele>1164.6</ele>
        <time>2026-05-07T08:10:54Z</time>
      </trkpt>
      <trkpt lat="44.94119" lon="4.23785">
        <ele>1164.6</ele>
        <time>2026-05-07T08:10:59Z</time>
      </trkpt>
      <trkpt lat="44.94119" lon="4.23785">
        <ele>1164.6</ele>
        <time>2026-05-07T08:11:04Z</time>
      </trkpt>
      <trkpt lat="44.94119" lon="4.23785">
        <ele>1164.6</ele>
        <time>2026-05-07T08:11:09Z</time>
      </trkpt>
      <trkpt lat="44.94119" lon="4.23785">
        <ele>1164.6</ele>
        <time>2026-05-07T08:11:14Z</time>
      </trkpt>
      <trkpt lat="44.94119" lon="4.23785">
        <ele>1164.6</ele>
        <time>2026-05-07T08:11:19Z</time>
      </trkpt>
      <trkpt lat="44.94119" lon="4.23785">
        <ele>1164.6</ele>
        <time>2026-05-07T08:11:24Z</time>
      </trkpt>
      <trkpt lat="44.94119" lon="4.23785">
        <ele>1164.6</ele>
        <time>2026-05-07T08:11:29Z</time>
      </trkpt>
      <trkpt lat="44.94119" lon="4.23785">
        <ele>1164.6</ele>
        <time>2026-05-07T08:11:34Z</time>
      </trkpt>
      <trkpt lat="44.94119" lon="4.23785">
        <ele>1164.6</ele>
        <time>2026-05-07T08:11:39Z</time>
      </trkpt>
      <trkpt lat="44.94119" lon="4.23785">
        <ele>1164.6</ele>
        <time>2026-05-07T08:11:44Z</time>
      </trkpt>
      <trkpt lat="44.94119" lon="4.23785">
        <ele>1164.6</ele>
        <time>2026-05-07T08:11:49Z</time>
      </trkpt>
      <trkpt lat="44.94119" lon="4.23785">
        <ele>1164.6</ele>
        <time>2026-05-07T08:11:54Z</time>
      </trkpt>
      <trkpt lat="44.94119" lon="4.23785">
        <ele>1164.6</ele>
        <time>2026-05-07T08:11:59Z</time>
      </trkpt>
      <trkpt lat="44.94124" lon="4.23781">
        <ele>1166.5</ele>
        <time>2026-05-07T08:12:04Z</time>
      </trkpt>
      <trkpt lat="44.9413" lon="4.23782">
        <ele>1168.3</ele>
        <time>2026-05-07T08:12:09Z</time>
      </trkpt>
      <trkpt lat="44.94136" lon="4.23784">
        <ele>1169.8</ele>
        <time>2026-05-07T08:12:14Z</time>
      </trkpt>
      <trkpt lat="44.94141" lon="4.23789">
        <ele>1170.6</ele>
        <time>2026-05-07T08:12:19Z</time>
      </trkpt>
      <trkpt lat="44.94147" lon="4.23794">
        <ele>1171.6</ele>
        <time>2026-05-07T08:12:24Z</time>
      </trkpt>
      <trkpt lat="44.94153" lon="4.23802">
        <ele>1171.9</ele>
        <time>2026-05-07T08:12:29Z</time>
      </trkpt>
      <trkpt lat="44.94159" lon="4.23809">
        <ele>1172.1</ele>
        <time>2026-05-07T08:12:34Z</time>
      </trkpt>
      <trkpt lat="44.94165" lon="4.23813">
        <ele>1172.8</ele>
        <time>2026-05-07T08:12:39Z</time>
      </trkpt>
      <trkpt lat="44.94171" lon="4.23816">
        <ele>1173.1</ele>
        <time>2026-05-07T08:12:44Z</time>
      </trkpt>
      <trkpt lat="44.94176" lon="4.23822">
        <ele>1172.5</ele>
        <time>2026-05-07T08:12:49Z</time>
      </trkpt>
      <trkpt lat="44.94182" lon="4.23826">
        <ele>1172.4</ele>
        <time>2026-05-07T08:12:54Z</time>
      </trkpt>
      <trkpt lat="44.94186" lon="4.2383">
        <ele>1172</ele>
        <time>2026-05-07T08:12:59Z</time>
      </trkpt>
      <trkpt lat="44.9419" lon="4.23835">
        <ele>1171.4</ele>
        <time>2026-05-07T08:13:04Z</time>
      </trkpt>
      <trkpt lat="44.94194" lon="4.23841">
        <ele>1170.5</ele>
        <time>2026-05-07T08:13:09Z</time>
      </trkpt>
      <trkpt lat="44.94199" lon="4.23847">
        <ele>1169.7</ele>
        <time>2026-05-07T08:13:14Z</time>
      </trkpt>
      <trkpt lat="44.94204" lon="4.23852">
        <ele>1169.2</ele>
        <time>2026-05-07T08:13:19Z</time>
      </trkpt>
      <trkpt lat="44.94209" lon="4.23857">
        <ele>1168.7</ele>
        <time>2026-05-07T08:13:24Z</time>
      </trkpt>
      <trkpt lat="44.94213" lon="4.23863">
        <ele>1167.8</ele>
        <time>2026-05-07T08:13:29Z</time>
      </trkpt>
      <trkpt lat="44.94218" lon="4.2387">
        <ele>1166.9</ele>
        <time>2026-05-07T08:13:34Z</time>
      </trkpt>
      <trkpt lat="44.94222" lon="4.23875">
        <ele>1166.3</ele>
        <time>2026-05-07T08:13:39Z</time>
      </trkpt>
      <trkpt lat="44.94227" lon="4.23885">
        <ele>1164.7</ele>
        <time>2026-05-07T08:13:44Z</time>
      </trkpt>
      <trkpt lat="44.94231" lon="4.23894">
        <ele>1163.3</ele>
        <time>2026-05-07T08:13:49Z</time>
      </trkpt>
      <trkpt lat="44.94236" lon="4.23902">
        <ele>1162.2</ele>
        <time>2026-05-07T08:13:54Z</time>
      </trkpt>
      <trkpt lat="44.94241" lon="4.23908">
        <ele>1161.6</ele>
        <time>2026-05-07T08:13:59Z</time>
      </trkpt>
      <trkpt lat="44.94243" lon="4.23911">
        <ele>1161.2</ele>
        <time>2026-05-07T08:14:04Z</time>
      </trkpt>
      <trkpt lat="44.94243" lon="4.23911">
        <ele>1161.2</ele>
        <time>2026-05-07T08:14:09Z</time>
      </trkpt>
      <trkpt lat="44.94244" lon="4.23912">
        <ele>1161.2</ele>
        <time>2026-05-07T08:14:14Z</time>
      </trkpt>
      <trkpt lat="44.94248" lon="4.2392">
        <ele>1159.9</ele>
        <time>2026-05-07T08:14:19Z</time>
      </trkpt>
      <trkpt lat="44.94253" lon="4.23928">
        <ele>1159.2</ele>
        <time>2026-05-07T08:14:24Z</time>
      </trkpt>
      <trkpt lat="44.94257" lon="4.23935">
        <ele>1158.8</ele>
        <time>2026-05-07T08:14:29Z</time>
      </trkpt>
      <trkpt lat="44.94261" lon="4.23942">
        <ele>1158.3</ele>
        <time>2026-05-07T08:14:34Z</time>
      </trkpt>
      <trkpt lat="44.94262" lon="4.23944">
        <ele>1158.1</ele>
        <time>2026-05-07T08:14:39Z</time>
      </trkpt>
      <trkpt lat="44.94262" lon="4.23945">
        <ele>1157.9</ele>
        <time>2026-05-07T08:14:44Z</time>
      </trkpt>
      <trkpt lat="44.94262" lon="4.23945">
        <ele>1157.9</ele>
        <time>2026-05-07T08:14:49Z</time>
      </trkpt>
      <trkpt lat="44.94264" lon="4.23945">
        <ele>1158.5</ele>
        <time>2026-05-07T08:14:54Z</time>
      </trkpt>
      <trkpt lat="44.94264" lon="4.23945">
        <ele>1158.5</ele>
        <time>2026-05-07T08:14:59Z</time>
      </trkpt>
      <trkpt lat="44.94265" lon="4.23947">
        <ele>1158.3</ele>
        <time>2026-05-07T08:15:04Z</time>
      </trkpt>
      <trkpt lat="44.94269" lon="4.23954">
        <ele>1157.9</ele>
        <time>2026-05-07T08:15:09Z</time>
      </trkpt>
      <trkpt lat="44.94274" lon="4.23963">
        <ele>1157.2</ele>
        <time>2026-05-07T08:15:14Z</time>
      </trkpt>
      <trkpt lat="44.94279" lon="4.23969">
        <ele>1157.3</ele>
        <time>2026-05-07T08:15:19Z</time>
      </trkpt>
      <trkpt lat="44.94285" lon="4.23976">
        <ele>1157.4</ele>
        <time>2026-05-07T08:15:24Z</time>
      </trkpt>
      <trkpt lat="44.9429" lon="4.23981">
        <ele>1157.7</ele>
        <time>2026-05-07T08:15:29Z</time>
      </trkpt>
      <trkpt lat="44.9429" lon="4.23984">
        <ele>1156.9</ele>
        <time>2026-05-07T08:15:34Z</time>
      </trkpt>
      <trkpt lat="44.9429" lon="4.23986">
        <ele>1156.4</ele>
        <time>2026-05-07T08:15:39Z</time>
      </trkpt>
      <trkpt lat="44.94291" lon="4.23988">
        <ele>1156.3</ele>
        <time>2026-05-07T08:15:44Z</time>
      </trkpt>
      <trkpt lat="44.94291" lon="4.23988">
        <ele>1156.3</ele>
        <time>2026-05-07T08:15:49Z</time>
      </trkpt>
      <trkpt lat="44.94292" lon="4.2399">
        <ele>1156.1</ele>
        <time>2026-05-07T08:15:54Z</time>
      </trkpt>
      <trkpt lat="44.94296" lon="4.23993">
        <ele>1156.5</ele>
        <time>2026-05-07T08:15:59Z</time>
      </trkpt>
      <trkpt lat="44.94301" lon="4.23996">
        <ele>1157.3</ele>
        <time>2026-05-07T08:16:04Z</time>
      </trkpt>
      <trkpt lat="44.94306" lon="4.24">
        <ele>1157.8</ele>
        <time>2026-05-07T08:16:09Z</time>
      </trkpt>
      <trkpt lat="44.94312" lon="4.24005">
        <ele>1158.3</ele>
        <time>2026-05-07T08:16:14Z</time>
      </trkpt>
      <trkpt lat="44.94317" lon="4.24012">
        <ele>1157.9</ele>
        <time>2026-05-07T08:16:19Z</time>
      </trkpt>
      <trkpt lat="44.94323" lon="4.24017">
        <ele>1158.2</ele>
        <time>2026-05-07T08:16:24Z</time>
      </trkpt>
      <trkpt lat="44.94328" lon="4.24022">
        <ele>1158.2</ele>
        <time>2026-05-07T08:16:29Z</time>
      </trkpt>
      <trkpt lat="44.94333" lon="4.24027">
        <ele>1158.1</ele>
        <time>2026-05-07T08:16:34Z</time>
      </trkpt>
      <trkpt lat="44.94338" lon="4.24032">
        <ele>1158</ele>
        <time>2026-05-07T08:16:39Z</time>
      </trkpt>
      <trkpt lat="44.94343" lon="4.24037">
        <ele>1157.9</ele>
        <time>2026-05-07T08:16:44Z</time>
      </trkpt>
      <trkpt lat="44.94349" lon="4.24041">
        <ele>1158.4</ele>
        <time>2026-05-07T08:16:49Z</time>
      </trkpt>
      <trkpt lat="44.94355" lon="4.24044">
        <ele>1159.2</ele>
        <time>2026-05-07T08:16:54Z</time>
      </trkpt>
      <trkpt lat="44.94363" lon="4.24047">
        <ele>1160.5</ele>
        <time>2026-05-07T08:16:59Z</time>
      </trkpt>
      <trkpt lat="44.94368" lon="4.24051">
        <ele>1160.7</ele>
        <time>2026-05-07T08:17:04Z</time>
      </trkpt>
      <trkpt lat="44.94375" lon="4.24054">
        <ele>1161.8</ele>
        <time>2026-05-07T08:17:09Z</time>
      </trkpt>
      <trkpt lat="44.94379" lon="4.2406">
        <ele>1161.2</ele>
        <time>2026-05-07T08:17:14Z</time>
      </trkpt>
      <trkpt lat="44.94383" lon="4.24068">
        <ele>1160</ele>
        <time>2026-05-07T08:17:19Z</time>
      </trkpt>
      <trkpt lat="44.94385" lon="4.24078">
        <ele>1157.8</ele>
        <time>2026-05-07T08:17:24Z</time>
      </trkpt>
      <trkpt lat="44.94388" lon="4.24088">
        <ele>1156</ele>
        <time>2026-05-07T08:17:29Z</time>
      </trkpt>
      <trkpt lat="44.94391" lon="4.24097">
        <ele>1154.7</ele>
        <time>2026-05-07T08:17:34Z</time>
      </trkpt>
      <trkpt lat="44.94393" lon="4.24107">
        <ele>1153</ele>
        <time>2026-05-07T08:17:39Z</time>
      </trkpt>
      <trkpt lat="44.94395" lon="4.24116">
        <ele>1151.5</ele>
        <time>2026-05-07T08:17:44Z</time>
      </trkpt>
      <trkpt lat="44.94395" lon="4.2412">
        <ele>1150.6</ele>
        <time>2026-05-07T08:17:49Z</time>
      </trkpt>
      <trkpt lat="44.94396" lon="4.24127">
        <ele>1149.3</ele>
        <time>2026-05-07T08:17:54Z</time>
      </trkpt>
      <trkpt lat="44.94398" lon="4.24133">
        <ele>1148.6</ele>
        <time>2026-05-07T08:17:59Z</time>
      </trkpt>
      <trkpt lat="44.944" lon="4.24141">
        <ele>1147.5</ele>
        <time>2026-05-07T08:18:04Z</time>
      </trkpt>
      <trkpt lat="44.94403" lon="4.24148">
        <ele>1147</ele>
        <time>2026-05-07T08:18:09Z</time>
      </trkpt>
      <trkpt lat="44.94403" lon="4.2415">
        <ele>1146.6</ele>
        <time>2026-05-07T08:18:14Z</time>
      </trkpt>
      <trkpt lat="44.94404" lon="4.24151">
        <ele>1146.7</ele>
        <time>2026-05-07T08:18:19Z</time>
      </trkpt>
      <trkpt lat="44.94404" lon="4.24151">
        <ele>1146.7</ele>
        <time>2026-05-07T08:18:24Z</time>
      </trkpt>
      <trkpt lat="44.94404" lon="4.24151">
        <ele>1146.7</ele>
        <time>2026-05-07T08:18:29Z</time>
      </trkpt>
      <trkpt lat="44.94404" lon="4.24151">
        <ele>1146.7</ele>
        <time>2026-05-07T08:18:34Z</time>
      </trkpt>
      <trkpt lat="44.94404" lon="4.24151">
        <ele>1146.7</ele>
        <time>2026-05-07T08:18:39Z</time>
      </trkpt>
      <trkpt lat="44.94404" lon="4.24151">
        <ele>1146.7</ele>
        <time>2026-05-07T08:18:44Z</time>
      </trkpt>
      <trkpt lat="44.94404" lon="4.24151">
        <ele>1146.7</ele>
        <time>2026-05-07T08:18:49Z</time>
      </trkpt>
      <trkpt lat="44.94404" lon="4.24151">
        <ele>1146.7</ele>
        <time>2026-05-07T08:18:54Z</time>
      </trkpt>
      <trkpt lat="44.94404" lon="4.24151">
        <ele>1146.7</ele>
        <time>2026-05-07T08:18:59Z</time>
      </trkpt>
      <trkpt lat="44.94404" lon="4.24151">
        <ele>1146.7</ele>
        <time>2026-05-07T08:19:04Z</time>
      </trkpt>
      <trkpt lat="44.94404" lon="4.24151">
        <ele>1146.7</ele>
        <time>2026-05-07T08:19:09Z</time>
      </trkpt>
      <trkpt lat="44.94404" lon="4.24151">
        <ele>1146.7</ele>
        <time>2026-05-07T08:19:14Z</time>
      </trkpt>
      <trkpt lat="44.94404" lon="4.24151">
        <ele>1146.7</ele>
        <time>2026-05-07T08:19:19Z</time>
      </trkpt>
      <trkpt lat="44.94404" lon="4.24151">
        <ele>1146.7</ele>
        <time>2026-05-07T08:19:24Z</time>
      </trkpt>
      <trkpt lat="44.94404" lon="4.24151">
        <ele>1146.7</ele>
        <time>2026-05-07T08:19:29Z</time>
      </trkpt>
      <trkpt lat="44.94404" lon="4.24151">
        <ele>1146.7</ele>
        <time>2026-05-07T08:19:34Z</time>
      </trkpt>
      <trkpt lat="44.94407" lon="4.24155">
        <ele>1146.9</ele>
        <time>2026-05-07T08:19:39Z</time>
      </trkpt>
      <trkpt lat="44.94411" lon="4.24162">
        <ele>1146.9</ele>
        <time>2026-05-07T08:19:44Z</time>
      </trkpt>
      <trkpt lat="44.94415" lon="4.24169">
        <ele>1147.2</ele>
        <time>2026-05-07T08:19:49Z</time>
      </trkpt>
      <trkpt lat="44.94418" lon="4.24177">
        <ele>1147.8</ele>
        <time>2026-05-07T08:19:54Z</time>
      </trkpt>
      <trkpt lat="44.9442" lon="4.24186">
        <ele>1148.1</ele>
        <time>2026-05-07T08:19:59Z</time>
      </trkpt>
      <trkpt lat="44.94422" lon="4.24197">
        <ele>1148.2</ele>
        <time>2026-05-07T08:20:04Z</time>
      </trkpt>
      <trkpt lat="44.94424" lon="4.24205">
        <ele>1148.5</ele>
        <time>2026-05-07T08:20:09Z</time>
      </trkpt>
      <trkpt lat="44.94425" lon="4.24215">
        <ele>1148.2</ele>
        <time>2026-05-07T08:20:14Z</time>
      </trkpt>
      <trkpt lat="44.94428" lon="4.24222">
        <ele>1149</ele>
        <time>2026-05-07T08:20:19Z</time>
      </trkpt>
      <trkpt lat="44.9443" lon="4.2423">
        <ele>1149.2</ele>
        <time>2026-05-07T08:20:24Z</time>
      </trkpt>
      <trkpt lat="44.9443" lon="4.2424">
        <ele>1148.5</ele>
        <time>2026-05-07T08:20:29Z</time>
      </trkpt>
      <trkpt lat="44.9443" lon="4.24248">
        <ele>1147.9</ele>
        <time>2026-05-07T08:20:34Z</time>
      </trkpt>
      <trkpt lat="44.94431" lon="4.24258">
        <ele>1147.7</ele>
        <time>2026-05-07T08:20:39Z</time>
      </trkpt>
      <trkpt lat="44.94434" lon="4.24268">
        <ele>1148.3</ele>
        <time>2026-05-07T08:20:44Z</time>
      </trkpt>
      <trkpt lat="44.94436" lon="4.24277">
        <ele>1148.6</ele>
        <time>2026-05-07T08:20:49Z</time>
      </trkpt>
      <trkpt lat="44.94438" lon="4.24286">
        <ele>1148.8</ele>
        <time>2026-05-07T08:20:54Z</time>
      </trkpt>
      <trkpt lat="44.94441" lon="4.24295">
        <ele>1149.5</ele>
        <time>2026-05-07T08:20:59Z</time>
      </trkpt>
      <trkpt lat="44.94444" lon="4.24303">
        <ele>1150.2</ele>
        <time>2026-05-07T08:21:04Z</time>
      </trkpt>
      <trkpt lat="44.94446" lon="4.24312">
        <ele>1150.4</ele>
        <time>2026-05-07T08:21:09Z</time>
      </trkpt>
      <trkpt lat="44.94449" lon="4.24321">
        <ele>1151</ele>
        <time>2026-05-07T08:21:14Z</time>
      </trkpt>
      <trkpt lat="44.94451" lon="4.2433">
        <ele>1151.2</ele>
        <time>2026-05-07T08:21:19Z</time>
      </trkpt>
      <trkpt lat="44.94453" lon="4.2434">
        <ele>1151.7</ele>
        <time>2026-05-07T08:21:24Z</time>
      </trkpt>
      <trkpt lat="44.94455" lon="4.24349">
        <ele>1152.4</ele>
        <time>2026-05-07T08:21:29Z</time>
      </trkpt>
      <trkpt lat="44.94456" lon="4.2436">
        <ele>1152.6</ele>
        <time>2026-05-07T08:21:34Z</time>
      </trkpt>
      <trkpt lat="44.94459" lon="4.24369">
        <ele>1153.6</ele>
        <time>2026-05-07T08:21:39Z</time>
      </trkpt>
      <trkpt lat="44.94463" lon="4.24377">
        <ele>1155</ele>
        <time>2026-05-07T08:21:44Z</time>
      </trkpt>
      <trkpt lat="44.94465" lon="4.24386">
        <ele>1155.5</ele>
        <time>2026-05-07T08:21:49Z</time>
      </trkpt>
      <trkpt lat="44.94467" lon="4.24396">
        <ele>1156</ele>
        <time>2026-05-07T08:21:54Z</time>
      </trkpt>
      <trkpt lat="44.94469" lon="4.24406">
        <ele>1156.5</ele>
        <time>2026-05-07T08:21:59Z</time>
      </trkpt>
      <trkpt lat="44.94471" lon="4.24415">
        <ele>1157</ele>
        <time>2026-05-07T08:22:04Z</time>
      </trkpt>
      <trkpt lat="44.94472" lon="4.24419">
        <ele>1157</ele>
        <time>2026-05-07T08:22:09Z</time>
      </trkpt>
      <trkpt lat="44.94472" lon="4.24421">
        <ele>1156.8</ele>
        <time>2026-05-07T08:22:14Z</time>
      </trkpt>
      <trkpt lat="44.94474" lon="4.24423">
        <ele>1157.3</ele>
        <time>2026-05-07T08:22:19Z</time>
      </trkpt>
      <trkpt lat="44.94473" lon="4.24428">
        <ele>1156.4</ele>
        <time>2026-05-07T08:22:24Z</time>
      </trkpt>
      <trkpt lat="44.94473" lon="4.24428">
        <ele>1156.4</ele>
        <time>2026-05-07T08:22:29Z</time>
      </trkpt>
      <trkpt lat="44.94473" lon="4.24428">
        <ele>1156.4</ele>
        <time>2026-05-07T08:22:34Z</time>
      </trkpt>
      <trkpt lat="44.94473" lon="4.24428">
        <ele>1156.4</ele>
        <time>2026-05-07T08:22:39Z</time>
      </trkpt>
      <trkpt lat="44.94476" lon="4.24435">
        <ele>1156.7</ele>
        <time>2026-05-07T08:22:44Z</time>
      </trkpt>
      <trkpt lat="44.94479" lon="4.24445">
        <ele>1156.8</ele>
        <time>2026-05-07T08:22:49Z</time>
      </trkpt>
      <trkpt lat="44.94483" lon="4.24452">
        <ele>1157.6</ele>
        <time>2026-05-07T08:22:54Z</time>
      </trkpt>
      <trkpt lat="44.94486" lon="4.2446">
        <ele>1158</ele>
        <time>2026-05-07T08:22:59Z</time>
      </trkpt>
      <trkpt lat="44.94489" lon="4.24465">
        <ele>1158.7</ele>
        <time>2026-05-07T08:23:04Z</time>
      </trkpt>
      <trkpt lat="44.94488" lon="4.24468">
        <ele>1158</ele>
        <time>2026-05-07T08:23:09Z</time>
      </trkpt>
      <trkpt lat="44.94487" lon="4.24468">
        <ele>1157.6</ele>
        <time>2026-05-07T08:23:14Z</time>
      </trkpt>
      <trkpt lat="44.94487" lon="4.24468">
        <ele>1157.6</ele>
        <time>2026-05-07T08:23:19Z</time>
      </trkpt>
      <trkpt lat="44.94487" lon="4.24468">
        <ele>1157.6</ele>
        <time>2026-05-07T08:23:24Z</time>
      </trkpt>
      <trkpt lat="44.94491" lon="4.24473">
        <ele>1158.7</ele>
        <time>2026-05-07T08:23:29Z</time>
      </trkpt>
      <trkpt lat="44.94496" lon="4.24481">
        <ele>1160</ele>
        <time>2026-05-07T08:23:34Z</time>
      </trkpt>
      <trkpt lat="44.94501" lon="4.24489">
        <ele>1161.1</ele>
        <time>2026-05-07T08:23:39Z</time>
      </trkpt>
      <trkpt lat="44.94506" lon="4.24496">
        <ele>1161.5</ele>
        <time>2026-05-07T08:23:44Z</time>
      </trkpt>
      <trkpt lat="44.94511" lon="4.24503">
        <ele>1161.8</ele>
        <time>2026-05-07T08:23:49Z</time>
      </trkpt>
      <trkpt lat="44.94516" lon="4.24509">
        <ele>1162.2</ele>
        <time>2026-05-07T08:23:54Z</time>
      </trkpt>
      <trkpt lat="44.94522" lon="4.24516">
        <ele>1162.5</ele>
        <time>2026-05-07T08:23:59Z</time>
      </trkpt>
      <trkpt lat="44.94529" lon="4.24523">
        <ele>1163</ele>
        <time>2026-05-07T08:24:04Z</time>
      </trkpt>
      <trkpt lat="44.94534" lon="4.24529">
        <ele>1163.1</ele>
        <time>2026-05-07T08:24:09Z</time>
      </trkpt>
      <trkpt lat="44.94539" lon="4.24535">
        <ele>1163.2</ele>
        <time>2026-05-07T08:24:14Z</time>
      </trkpt>
      <trkpt lat="44.94544" lon="4.24543">
        <ele>1162.9</ele>
        <time>2026-05-07T08:24:19Z</time>
      </trkpt>
      <trkpt lat="44.94548" lon="4.24551">
        <ele>1162.5</ele>
        <time>2026-05-07T08:24:24Z</time>
      </trkpt>
      <trkpt lat="44.94553" lon="4.24555">
        <ele>1162.6</ele>
        <time>2026-05-07T08:24:29Z</time>
      </trkpt>
      <trkpt lat="44.94556" lon="4.24562">
        <ele>1162</ele>
        <time>2026-05-07T08:24:34Z</time>
      </trkpt>
      <trkpt lat="44.94561" lon="4.2457">
        <ele>1161.5</ele>
        <time>2026-05-07T08:24:39Z</time>
      </trkpt>
      <trkpt lat="44.94562" lon="4.24577">
        <ele>1160.6</ele>
        <time>2026-05-07T08:24:44Z</time>
      </trkpt>
      <trkpt lat="44.94566" lon="4.24585">
        <ele>1159.9</ele>
        <time>2026-05-07T08:24:49Z</time>
      </trkpt>
      <trkpt lat="44.9457" lon="4.24594">
        <ele>1159.3</ele>
        <time>2026-05-07T08:24:54Z</time>
      </trkpt>
      <trkpt lat="44.94574" lon="4.24601">
        <ele>1158.9</ele>
        <time>2026-05-07T08:24:59Z</time>
      </trkpt>
      <trkpt lat="44.94579" lon="4.24607">
        <ele>1158.7</ele>
        <time>2026-05-07T08:25:04Z</time>
      </trkpt>
      <trkpt lat="44.94582" lon="4.24611">
        <ele>1158.5</ele>
        <time>2026-05-07T08:25:09Z</time>
      </trkpt>
      <trkpt lat="44.94583" lon="4.24618">
        <ele>1157.8</ele>
        <time>2026-05-07T08:25:14Z</time>
      </trkpt>
      <trkpt lat="44.94583" lon="4.24623">
        <ele>1157.2</ele>
        <time>2026-05-07T08:25:19Z</time>
      </trkpt>
      <trkpt lat="44.94589" lon="4.24624">
        <ele>1158.4</ele>
        <time>2026-05-07T08:25:24Z</time>
      </trkpt>
      <trkpt lat="44.94595" lon="4.24623">
        <ele>1159.8</ele>
        <time>2026-05-07T08:25:29Z</time>
      </trkpt>
      <trkpt lat="44.94596" lon="4.24621">
        <ele>1160.3</ele>
        <time>2026-05-07T08:25:34Z</time>
      </trkpt>
      <trkpt lat="44.94596" lon="4.24621">
        <ele>1160.3</ele>
        <time>2026-05-07T08:25:39Z</time>
      </trkpt>
      <trkpt lat="44.94596" lon="4.24621">
        <ele>1160.3</ele>
        <time>2026-05-07T08:25:44Z</time>
      </trkpt>
      <trkpt lat="44.94596" lon="4.24621">
        <ele>1160.3</ele>
        <time>2026-05-07T08:25:49Z</time>
      </trkpt>
      <trkpt lat="44.94596" lon="4.24621">
        <ele>1160.3</ele>
        <time>2026-05-07T08:25:54Z</time>
      </trkpt>
      <trkpt lat="44.94596" lon="4.24621">
        <ele>1160.3</ele>
        <time>2026-05-07T08:25:59Z</time>
      </trkpt>
      <trkpt lat="44.94596" lon="4.24625">
        <ele>1159.8</ele>
        <time>2026-05-07T08:26:04Z</time>
      </trkpt>
      <trkpt lat="44.94601" lon="4.24629">
        <ele>1160.5</ele>
        <time>2026-05-07T08:26:09Z</time>
      </trkpt>
      <trkpt lat="44.94606" lon="4.24635">
        <ele>1160.9</ele>
        <time>2026-05-07T08:26:14Z</time>
      </trkpt>
      <trkpt lat="44.9461" lon="4.24642">
        <ele>1160.9</ele>
        <time>2026-05-07T08:26:19Z</time>
      </trkpt>
      <trkpt lat="44.94614" lon="4.24647">
        <ele>1161.3</ele>
        <time>2026-05-07T08:26:24Z</time>
      </trkpt>
      <trkpt lat="44.94618" lon="4.24653">
        <ele>1161.5</ele>
        <time>2026-05-07T08:26:29Z</time>
      </trkpt>
      <trkpt lat="44.94622" lon="4.2466">
        <ele>1161.6</ele>
        <time>2026-05-07T08:26:34Z</time>
      </trkpt>
      <trkpt lat="44.94626" lon="4.24666">
        <ele>1161.8</ele>
        <time>2026-05-07T08:26:39Z</time>
      </trkpt>
      <trkpt lat="44.9463" lon="4.24673">
        <ele>1162.1</ele>
        <time>2026-05-07T08:26:44Z</time>
      </trkpt>
      <trkpt lat="44.94634" lon="4.24679">
        <ele>1162.5</ele>
        <time>2026-05-07T08:26:49Z</time>
      </trkpt>
      <trkpt lat="44.94638" lon="4.24683">
        <ele>1163.1</ele>
        <time>2026-05-07T08:26:54Z</time>
      </trkpt>
      <trkpt lat="44.9464" lon="4.24688">
        <ele>1163.1</ele>
        <time>2026-05-07T08:26:59Z</time>
      </trkpt>
      <trkpt lat="44.94643" lon="4.24692">
        <ele>1163.5</ele>
        <time>2026-05-07T08:27:04Z</time>
      </trkpt>
      <trkpt lat="44.94648" lon="4.24695">
        <ele>1164.5</ele>
        <time>2026-05-07T08:27:09Z</time>
      </trkpt>
      <trkpt lat="44.94653" lon="4.24698">
        <ele>1165.4</ele>
        <time>2026-05-07T08:27:14Z</time>
      </trkpt>
      <trkpt lat="44.94655" lon="4.24699">
        <ele>1165.8</ele>
        <time>2026-05-07T08:27:19Z</time>
      </trkpt>
      <trkpt lat="44.94658" lon="4.24698">
        <ele>1166.7</ele>
        <time>2026-05-07T08:27:24Z</time>
      </trkpt>
      <trkpt lat="44.94662" lon="4.24705">
        <ele>1167.1</ele>
        <time>2026-05-07T08:27:29Z</time>
      </trkpt>
      <trkpt lat="44.94666" lon="4.24713">
        <ele>1167.5</ele>
        <time>2026-05-07T08:27:34Z</time>
      </trkpt>
      <trkpt lat="44.9467" lon="4.24718">
        <ele>1167.9</ele>
        <time>2026-05-07T08:27:39Z</time>
      </trkpt>
      <trkpt lat="44.94675" lon="4.24724">
        <ele>1168.4</ele>
        <time>2026-05-07T08:27:44Z</time>
      </trkpt>
      <trkpt lat="44.9468" lon="4.24727">
        <ele>1169.1</ele>
        <time>2026-05-07T08:27:49Z</time>
      </trkpt>
      <trkpt lat="44.94685" lon="4.24729">
        <ele>1169.9</ele>
        <time>2026-05-07T08:27:54Z</time>
      </trkpt>
      <trkpt lat="44.94691" lon="4.24735">
        <ele>1170.6</ele>
        <time>2026-05-07T08:27:59Z</time>
      </trkpt>
      <trkpt lat="44.94693" lon="4.24736">
        <ele>1170.9</ele>
        <time>2026-05-07T08:28:04Z</time>
      </trkpt>
      <trkpt lat="44.94694" lon="4.24736">
        <ele>1171</ele>
        <time>2026-05-07T08:28:09Z</time>
      </trkpt>
      <trkpt lat="44.94697" lon="4.24736">
        <ele>1171.6</ele>
        <time>2026-05-07T08:28:14Z</time>
      </trkpt>
      <trkpt lat="44.94702" lon="4.24742">
        <ele>1172</ele>
        <time>2026-05-07T08:28:19Z</time>
      </trkpt>
      <trkpt lat="44.94706" lon="4.24748">
        <ele>1172.2</ele>
        <time>2026-05-07T08:28:24Z</time>
      </trkpt>
      <trkpt lat="44.94712" lon="4.24754">
        <ele>1172.8</ele>
        <time>2026-05-07T08:28:29Z</time>
      </trkpt>
      <trkpt lat="44.94712" lon="4.24759">
        <ele>1172.3</ele>
        <time>2026-05-07T08:28:34Z</time>
      </trkpt>
      <trkpt lat="44.94711" lon="4.2476">
        <ele>1172.1</ele>
        <time>2026-05-07T08:28:39Z</time>
      </trkpt>
      <trkpt lat="44.94711" lon="4.24761">
        <ele>1172</ele>
        <time>2026-05-07T08:28:44Z</time>
      </trkpt>
      <trkpt lat="44.94711" lon="4.24761">
        <ele>1172</ele>
        <time>2026-05-07T08:28:49Z</time>
      </trkpt>
      <trkpt lat="44.94711" lon="4.24761">
        <ele>1172</ele>
        <time>2026-05-07T08:28:54Z</time>
      </trkpt>
      <trkpt lat="44.94711" lon="4.24761">
        <ele>1172</ele>
        <time>2026-05-07T08:28:59Z</time>
      </trkpt>
      <trkpt lat="44.94713" lon="4.24763">
        <ele>1172.1</ele>
        <time>2026-05-07T08:29:04Z</time>
      </trkpt>
      <trkpt lat="44.9472" lon="4.24772">
        <ele>1172.5</ele>
        <time>2026-05-07T08:29:09Z</time>
      </trkpt>
      <trkpt lat="44.94723" lon="4.24782">
        <ele>1172.1</ele>
        <time>2026-05-07T08:29:14Z</time>
      </trkpt>
      <trkpt lat="44.94727" lon="4.24791">
        <ele>1171.8</ele>
        <time>2026-05-07T08:29:19Z</time>
      </trkpt>
      <trkpt lat="44.94732" lon="4.248">
        <ele>1171.7</ele>
        <time>2026-05-07T08:29:24Z</time>
      </trkpt>
      <trkpt lat="44.94736" lon="4.2481">
        <ele>1171.4</ele>
        <time>2026-05-07T08:29:29Z</time>
      </trkpt>
      <trkpt lat="44.94741" lon="4.24819">
        <ele>1171.2</ele>
        <time>2026-05-07T08:29:34Z</time>
      </trkpt>
      <trkpt lat="44.94745" lon="4.24829">
        <ele>1170.7</ele>
        <time>2026-05-07T08:29:39Z</time>
      </trkpt>
      <trkpt lat="44.94748" lon="4.24837">
        <ele>1170.4</ele>
        <time>2026-05-07T08:29:44Z</time>
      </trkpt>
      <trkpt lat="44.94752" lon="4.24846">
        <ele>1170.3</ele>
        <time>2026-05-07T08:29:49Z</time>
      </trkpt>
      <trkpt lat="44.94756" lon="4.24854">
        <ele>1170.5</ele>
        <time>2026-05-07T08:29:54Z</time>
      </trkpt>
      <trkpt lat="44.94759" lon="4.24864">
        <ele>1170.3</ele>
        <time>2026-05-07T08:29:59Z</time>
      </trkpt>
      <trkpt lat="44.94762" lon="4.24873">
        <ele>1170.1</ele>
        <time>2026-05-07T08:30:04Z</time>
      </trkpt>
      <trkpt lat="44.94765" lon="4.24883">
        <ele>1169.9</ele>
        <time>2026-05-07T08:30:09Z</time>
      </trkpt>
      <trkpt lat="44.94768" lon="4.24893">
        <ele>1169.7</ele>
        <time>2026-05-07T08:30:14Z</time>
      </trkpt>
      <trkpt lat="44.9477" lon="4.24902">
        <ele>1169.3</ele>
        <time>2026-05-07T08:30:19Z</time>
      </trkpt>
      <trkpt lat="44.94771" lon="4.24911">
        <ele>1168.8</ele>
        <time>2026-05-07T08:30:24Z</time>
      </trkpt>
      <trkpt lat="44.94772" lon="4.2492">
        <ele>1168.3</ele>
        <time>2026-05-07T08:30:29Z</time>
      </trkpt>
      <trkpt lat="44.94772" lon="4.2493">
        <ele>1167.8</ele>
        <time>2026-05-07T08:30:34Z</time>
      </trkpt>
      <trkpt lat="44.94774" lon="4.24941">
        <ele>1167.7</ele>
        <time>2026-05-07T08:30:39Z</time>
      </trkpt>
      <trkpt lat="44.94775" lon="4.24952">
        <ele>1167.4</ele>
        <time>2026-05-07T08:30:44Z</time>
      </trkpt>
      <trkpt lat="44.94776" lon="4.24962">
        <ele>1167.1</ele>
        <time>2026-05-07T08:30:49Z</time>
      </trkpt>
      <trkpt lat="44.94777" lon="4.24971">
        <ele>1166.9</ele>
        <time>2026-05-07T08:30:54Z</time>
      </trkpt>
      <trkpt lat="44.94776" lon="4.24973">
        <ele>1166.6</ele>
        <time>2026-05-07T08:30:59Z</time>
      </trkpt>
      <trkpt lat="44.94777" lon="4.24974">
        <ele>1166.8</ele>
        <time>2026-05-07T08:31:04Z</time>
      </trkpt>
      <trkpt lat="44.94779" lon="4.24984">
        <ele>1166.7</ele>
        <time>2026-05-07T08:31:09Z</time>
      </trkpt>
      <trkpt lat="44.9478" lon="4.24994">
        <ele>1166.4</ele>
        <time>2026-05-07T08:31:14Z</time>
      </trkpt>
      <trkpt lat="44.94781" lon="4.25004">
        <ele>1166.2</ele>
        <time>2026-05-07T08:31:19Z</time>
      </trkpt>
      <trkpt lat="44.94783" lon="4.2501">
        <ele>1166.3</ele>
        <time>2026-05-07T08:31:24Z</time>
      </trkpt>
      <trkpt lat="44.94785" lon="4.2502">
        <ele>1166.4</ele>
        <time>2026-05-07T08:31:29Z</time>
      </trkpt>
      <trkpt lat="44.94787" lon="4.25029">
        <ele>1166.5</ele>
        <time>2026-05-07T08:31:34Z</time>
      </trkpt>
      <trkpt lat="44.94788" lon="4.25038">
        <ele>1166.3</ele>
        <time>2026-05-07T08:31:39Z</time>
      </trkpt>
      <trkpt lat="44.94789" lon="4.25048">
        <ele>1166.2</ele>
        <time>2026-05-07T08:31:44Z</time>
      </trkpt>
      <trkpt lat="44.94788" lon="4.2506">
        <ele>1165.5</ele>
        <time>2026-05-07T08:31:49Z</time>
      </trkpt>
      <trkpt lat="44.94787" lon="4.25071">
        <ele>1164.9</ele>
        <time>2026-05-07T08:31:54Z</time>
      </trkpt>
      <trkpt lat="44.94787" lon="4.25083">
        <ele>1164.4</ele>
        <time>2026-05-07T08:31:59Z</time>
      </trkpt>
      <trkpt lat="44.94786" lon="4.25094">
        <ele>1164.4</ele>
        <time>2026-05-07T08:32:04Z</time>
      </trkpt>
      <trkpt lat="44.94786" lon="4.25105">
        <ele>1164.7</ele>
        <time>2026-05-07T08:32:09Z</time>
      </trkpt>
      <trkpt lat="44.94786" lon="4.25114">
        <ele>1164.8</ele>
        <time>2026-05-07T08:32:14Z</time>
      </trkpt>
      <trkpt lat="44.94785" lon="4.25124">
        <ele>1164.8</ele>
        <time>2026-05-07T08:32:19Z</time>
      </trkpt>
      <trkpt lat="44.94784" lon="4.25137">
        <ele>1164.8</ele>
        <time>2026-05-07T08:32:24Z</time>
      </trkpt>
      <trkpt lat="44.94783" lon="4.25146">
        <ele>1164.7</ele>
        <time>2026-05-07T08:32:29Z</time>
      </trkpt>
      <trkpt lat="44.94783" lon="4.25156">
        <ele>1164.9</ele>
        <time>2026-05-07T08:32:34Z</time>
      </trkpt>
      <trkpt lat="44.94782" lon="4.25166">
        <ele>1164.8</ele>
        <time>2026-05-07T08:32:39Z</time>
      </trkpt>
      <trkpt lat="44.94781" lon="4.25175">
        <ele>1164.7</ele>
        <time>2026-05-07T08:32:44Z</time>
      </trkpt>
      <trkpt lat="44.9478" lon="4.25184">
        <ele>1164.5</ele>
        <time>2026-05-07T08:32:49Z</time>
      </trkpt>
      <trkpt lat="44.94778" lon="4.25194">
        <ele>1164.1</ele>
        <time>2026-05-07T08:32:54Z</time>
      </trkpt>
      <trkpt lat="44.94777" lon="4.25202">
        <ele>1163.9</ele>
        <time>2026-05-07T08:32:59Z</time>
      </trkpt>
      <trkpt lat="44.94776" lon="4.25209">
        <ele>1163.7</ele>
        <time>2026-05-07T08:33:04Z</time>
      </trkpt>
      <trkpt lat="44.94774" lon="4.25218">
        <ele>1163.2</ele>
        <time>2026-05-07T08:33:09Z</time>
      </trkpt>
      <trkpt lat="44.94772" lon="4.25228">
        <ele>1162.7</ele>
        <time>2026-05-07T08:33:14Z</time>
      </trkpt>
      <trkpt lat="44.94772" lon="4.25238">
        <ele>1162.7</ele>
        <time>2026-05-07T08:33:19Z</time>
      </trkpt>
      <trkpt lat="44.94771" lon="4.25246">
        <ele>1162.5</ele>
        <time>2026-05-07T08:33:24Z</time>
      </trkpt>
      <trkpt lat="44.9477" lon="4.25256">
        <ele>1162.4</ele>
        <time>2026-05-07T08:33:29Z</time>
      </trkpt>
      <trkpt lat="44.94769" lon="4.25265">
        <ele>1162.3</ele>
        <time>2026-05-07T08:33:34Z</time>
      </trkpt>
      <trkpt lat="44.94768" lon="4.25275">
        <ele>1162.3</ele>
        <time>2026-05-07T08:33:39Z</time>
      </trkpt>
      <trkpt lat="44.94768" lon="4.25285">
        <ele>1162.5</ele>
        <time>2026-05-07T08:33:44Z</time>
      </trkpt>
      <trkpt lat="44.94767" lon="4.25293">
        <ele>1162.4</ele>
        <time>2026-05-07T08:33:49Z</time>
      </trkpt>
      <trkpt lat="44.94768" lon="4.25301">
        <ele>1163</ele>
        <time>2026-05-07T08:33:54Z</time>
      </trkpt>
      <trkpt lat="44.94768" lon="4.2531">
        <ele>1163.2</ele>
        <time>2026-05-07T08:33:59Z</time>
      </trkpt>
      <trkpt lat="44.9477" lon="4.25317">
        <ele>1164</ele>
        <time>2026-05-07T08:34:04Z</time>
      </trkpt>
      <trkpt lat="44.94771" lon="4.25325">
        <ele>1164.6</ele>
        <time>2026-05-07T08:34:09Z</time>
      </trkpt>
      <trkpt lat="44.94773" lon="4.25334">
        <ele>1165.5</ele>
        <time>2026-05-07T08:34:14Z</time>
      </trkpt>
      <trkpt lat="44.94778" lon="4.25341">
        <ele>1167.4</ele>
        <time>2026-05-07T08:34:19Z</time>
      </trkpt>
      <trkpt lat="44.94782" lon="4.25347">
        <ele>1169</ele>
        <time>2026-05-07T08:34:24Z</time>
      </trkpt>
      <trkpt lat="44.94788" lon="4.25351">
        <ele>1171.1</ele>
        <time>2026-05-07T08:34:29Z</time>
      </trkpt>
      <trkpt lat="44.94792" lon="4.25357">
        <ele>1172.6</ele>
        <time>2026-05-07T08:34:34Z</time>
      </trkpt>
      <trkpt lat="44.94799" lon="4.25364">
        <ele>1175.1</ele>
        <time>2026-05-07T08:34:39Z</time>
      </trkpt>
      <trkpt lat="44.94804" lon="4.25371">
        <ele>1176.9</ele>
        <time>2026-05-07T08:34:44Z</time>
      </trkpt>
      <trkpt lat="44.94809" lon="4.25378">
        <ele>1178.7</ele>
        <time>2026-05-07T08:34:49Z</time>
      </trkpt>
      <trkpt lat="44.94816" lon="4.25384">
        <ele>1181</ele>
        <time>2026-05-07T08:34:54Z</time>
      </trkpt>
      <trkpt lat="44.94822" lon="4.25389">
        <ele>1182.9</ele>
        <time>2026-05-07T08:34:59Z</time>
      </trkpt>
      <trkpt lat="44.94828" lon="4.25396">
        <ele>1184.9</ele>
        <time>2026-05-07T08:35:04Z</time>
      </trkpt>
      <trkpt lat="44.94834" lon="4.25402">
        <ele>1186.7</ele>
        <time>2026-05-07T08:35:09Z</time>
      </trkpt>
      <trkpt lat="44.94839" lon="4.25408">
        <ele>1187.5</ele>
        <time>2026-05-07T08:35:14Z</time>
      </trkpt>
      <trkpt lat="44.94845" lon="4.25413">
        <ele>1188.2</ele>
        <time>2026-05-07T08:35:19Z</time>
      </trkpt>
      <trkpt lat="44.94853" lon="4.25418">
        <ele>1189.1</ele>
        <time>2026-05-07T08:35:24Z</time>
      </trkpt>
      <trkpt lat="44.9486" lon="4.25421">
        <ele>1189.8</ele>
        <time>2026-05-07T08:35:29Z</time>
      </trkpt>
      <trkpt lat="44.94867" lon="4.25425">
        <ele>1190.5</ele>
        <time>2026-05-07T08:35:34Z</time>
      </trkpt>
      <trkpt lat="44.94875" lon="4.25428">
        <ele>1191.2</ele>
        <time>2026-05-07T08:35:39Z</time>
      </trkpt>
      <trkpt lat="44.94882" lon="4.2543">
        <ele>1191.8</ele>
        <time>2026-05-07T08:35:44Z</time>
      </trkpt>
      <trkpt lat="44.9489" lon="4.25434">
        <ele>1192.3</ele>
        <time>2026-05-07T08:35:49Z</time>
      </trkpt>
      <trkpt lat="44.94897" lon="4.25438">
        <ele>1192.8</ele>
        <time>2026-05-07T08:35:54Z</time>
      </trkpt>
      <trkpt lat="44.94904" lon="4.25443">
        <ele>1193.1</ele>
        <time>2026-05-07T08:35:59Z</time>
      </trkpt>
      <trkpt lat="44.94911" lon="4.2545">
        <ele>1193.2</ele>
        <time>2026-05-07T08:36:04Z</time>
      </trkpt>
      <trkpt lat="44.94917" lon="4.25457">
        <ele>1193.1</ele>
        <time>2026-05-07T08:36:09Z</time>
      </trkpt>
      <trkpt lat="44.94923" lon="4.25464">
        <ele>1192.7</ele>
        <time>2026-05-07T08:36:14Z</time>
      </trkpt>
      <trkpt lat="44.94928" lon="4.2547">
        <ele>1192.4</ele>
        <time>2026-05-07T08:36:19Z</time>
      </trkpt>
      <trkpt lat="44.94934" lon="4.25478">
        <ele>1191.9</ele>
        <time>2026-05-07T08:36:24Z</time>
      </trkpt>
      <trkpt lat="44.9494" lon="4.25485">
        <ele>1191.5</ele>
        <time>2026-05-07T08:36:29Z</time>
      </trkpt>
      <trkpt lat="44.94945" lon="4.25493">
        <ele>1190.9</ele>
        <time>2026-05-07T08:36:34Z</time>
      </trkpt>
      <trkpt lat="44.94952" lon="4.25501">
        <ele>1190.2</ele>
        <time>2026-05-07T08:36:39Z</time>
      </trkpt>
      <trkpt lat="44.94957" lon="4.25508">
        <ele>1188.8</ele>
        <time>2026-05-07T08:36:44Z</time>
      </trkpt>
      <trkpt lat="44.94962" lon="4.25515">
        <ele>1187.4</ele>
        <time>2026-05-07T08:36:49Z</time>
      </trkpt>
      <trkpt lat="44.94968" lon="4.25523">
        <ele>1185.9</ele>
        <time>2026-05-07T08:36:54Z</time>
      </trkpt>
      <trkpt lat="44.94973" lon="4.25531">
        <ele>1184.4</ele>
        <time>2026-05-07T08:36:59Z</time>
      </trkpt>
      <trkpt lat="44.94978" lon="4.25541">
        <ele>1182.5</ele>
        <time>2026-05-07T08:37:04Z</time>
      </trkpt>
      <trkpt lat="44.94983" lon="4.2555">
        <ele>1180.8</ele>
        <time>2026-05-07T08:37:09Z</time>
      </trkpt>
      <trkpt lat="44.94988" lon="4.25559">
        <ele>1179.2</ele>
        <time>2026-05-07T08:37:14Z</time>
      </trkpt>
      <trkpt lat="44.94992" lon="4.25568">
        <ele>1177.6</ele>
        <time>2026-05-07T08:37:19Z</time>
      </trkpt>
      <trkpt lat="44.94997" lon="4.25576">
        <ele>1176.3</ele>
        <time>2026-05-07T08:37:24Z</time>
      </trkpt>
      <trkpt lat="44.95003" lon="4.25583">
        <ele>1175.6</ele>
        <time>2026-05-07T08:37:29Z</time>
      </trkpt>
      <trkpt lat="44.95009" lon="4.2559">
        <ele>1174.8</ele>
        <time>2026-05-07T08:37:34Z</time>
      </trkpt>
      <trkpt lat="44.95013" lon="4.25594">
        <ele>1174.6</ele>
        <time>2026-05-07T08:37:39Z</time>
      </trkpt>
      <trkpt lat="44.95014" lon="4.25595">
        <ele>1174.5</ele>
        <time>2026-05-07T08:37:44Z</time>
      </trkpt>
      <trkpt lat="44.95014" lon="4.25595">
        <ele>1174.5</ele>
        <time>2026-05-07T08:37:49Z</time>
      </trkpt>
      <trkpt lat="44.95014" lon="4.25595">
        <ele>1174.5</ele>
        <time>2026-05-07T08:37:54Z</time>
      </trkpt>
      <trkpt lat="44.95016" lon="4.25601">
        <ele>1173.4</ele>
        <time>2026-05-07T08:37:59Z</time>
      </trkpt>
      <trkpt lat="44.95018" lon="4.25609">
        <ele>1171.8</ele>
        <time>2026-05-07T08:38:04Z</time>
      </trkpt>
      <trkpt lat="44.95019" lon="4.25618">
        <ele>1169.9</ele>
        <time>2026-05-07T08:38:09Z</time>
      </trkpt>
      <trkpt lat="44.95018" lon="4.25627">
        <ele>1167.4</ele>
        <time>2026-05-07T08:38:14Z</time>
      </trkpt>
      <trkpt lat="44.95016" lon="4.25631">
        <ele>1165.8</ele>
        <time>2026-05-07T08:38:19Z</time>
      </trkpt>
      <trkpt lat="44.95017" lon="4.25633">
        <ele>1165.6</ele>
        <time>2026-05-07T08:38:24Z</time>
      </trkpt>
      <trkpt lat="44.95019" lon="4.25632">
        <ele>1166.4</ele>
        <time>2026-05-07T08:38:29Z</time>
      </trkpt>
      <trkpt lat="44.9502" lon="4.25636">
        <ele>1165.7</ele>
        <time>2026-05-07T08:38:34Z</time>
      </trkpt>
      <trkpt lat="44.95022" lon="4.25645">
        <ele>1164.1</ele>
        <time>2026-05-07T08:38:39Z</time>
      </trkpt>
      <trkpt lat="44.95022" lon="4.25655">
        <ele>1161.7</ele>
        <time>2026-05-07T08:38:44Z</time>
      </trkpt>
      <trkpt lat="44.95024" lon="4.25666">
        <ele>1159.8</ele>
        <time>2026-05-07T08:38:49Z</time>
      </trkpt>
      <trkpt lat="44.95025" lon="4.25677">
        <ele>1157.6</ele>
        <time>2026-05-07T08:38:54Z</time>
      </trkpt>
      <trkpt lat="44.95027" lon="4.25687">
        <ele>1156.1</ele>
        <time>2026-05-07T08:38:59Z</time>
      </trkpt>
      <trkpt lat="44.9503" lon="4.25695">
        <ele>1155.4</ele>
        <time>2026-05-07T08:39:04Z</time>
      </trkpt>
      <trkpt lat="44.95034" lon="4.25706">
        <ele>1154.6</ele>
        <time>2026-05-07T08:39:09Z</time>
      </trkpt>
      <trkpt lat="44.95038" lon="4.25714">
        <ele>1154.5</ele>
        <time>2026-05-07T08:39:14Z</time>
      </trkpt>
      <trkpt lat="44.95044" lon="4.25721">
        <ele>1155.6</ele>
        <time>2026-05-07T08:39:19Z</time>
      </trkpt>
      <trkpt lat="44.9505" lon="4.2573">
        <ele>1156.4</ele>
        <time>2026-05-07T08:39:24Z</time>
      </trkpt>
      <trkpt lat="44.95056" lon="4.25736">
        <ele>1157.9</ele>
        <time>2026-05-07T08:39:29Z</time>
      </trkpt>
      <trkpt lat="44.95063" lon="4.25742">
        <ele>1159.9</ele>
        <time>2026-05-07T08:39:34Z</time>
      </trkpt>
      <trkpt lat="44.95069" lon="4.2575">
        <ele>1161.3</ele>
        <time>2026-05-07T08:39:39Z</time>
      </trkpt>
      <trkpt lat="44.95075" lon="4.25757">
        <ele>1162.7</ele>
        <time>2026-05-07T08:39:44Z</time>
      </trkpt>
      <trkpt lat="44.95078" lon="4.25766">
        <ele>1162.4</ele>
        <time>2026-05-07T08:39:49Z</time>
      </trkpt>
      <trkpt lat="44.95077" lon="4.25769">
        <ele>1161.4</ele>
        <time>2026-05-07T08:39:54Z</time>
      </trkpt>
      <trkpt lat="44.95077" lon="4.25769">
        <ele>1161.4</ele>
        <time>2026-05-07T08:39:59Z</time>
      </trkpt>
      <trkpt lat="44.95077" lon="4.25769">
        <ele>1161.4</ele>
        <time>2026-05-07T08:40:04Z</time>
      </trkpt>
      <trkpt lat="44.95077" lon="4.25769">
        <ele>1161.4</ele>
        <time>2026-05-07T08:40:09Z</time>
      </trkpt>
      <trkpt lat="44.95077" lon="4.25769">
        <ele>1161.4</ele>
        <time>2026-05-07T08:40:14Z</time>
      </trkpt>
      <trkpt lat="44.95077" lon="4.25769">
        <ele>1161.4</ele>
        <time>2026-05-07T08:40:19Z</time>
      </trkpt>
      <trkpt lat="44.95077" lon="4.25769">
        <ele>1161.4</ele>
        <time>2026-05-07T08:40:24Z</time>
      </trkpt>
      <trkpt lat="44.95085" lon="4.25772">
        <ele>1164.1</ele>
        <time>2026-05-07T08:40:29Z</time>
      </trkpt>
      <trkpt lat="44.95092" lon="4.25778">
        <ele>1164.1</ele>
        <time>2026-05-07T08:40:34Z</time>
      </trkpt>
      <trkpt lat="44.95097" lon="4.25787">
        <ele>1163.3</ele>
        <time>2026-05-07T08:40:39Z</time>
      </trkpt>
      <trkpt lat="44.95099" lon="4.2579">
        <ele>1163</ele>
        <time>2026-05-07T08:40:44Z</time>
      </trkpt>
      <trkpt lat="44.95104" lon="4.25798">
        <ele>1162.4</ele>
        <time>2026-05-07T08:40:49Z</time>
      </trkpt>
      <trkpt lat="44.95108" lon="4.25808">
        <ele>1161.1</ele>
        <time>2026-05-07T08:40:54Z</time>
      </trkpt>
      <trkpt lat="44.95113" lon="4.25817">
        <ele>1160.2</ele>
        <time>2026-05-07T08:40:59Z</time>
      </trkpt>
      <trkpt lat="44.95116" lon="4.25825">
        <ele>1159.1</ele>
        <time>2026-05-07T08:41:04Z</time>
      </trkpt>
      <trkpt lat="44.95119" lon="4.25835">
        <ele>1157.6</ele>
        <time>2026-05-07T08:41:09Z</time>
      </trkpt>
      <trkpt lat="44.95124" lon="4.25844">
        <ele>1156.3</ele>
        <time>2026-05-07T08:41:14Z</time>
      </trkpt>
      <trkpt lat="44.95127" lon="4.25852">
        <ele>1154.9</ele>
        <time>2026-05-07T08:41:19Z</time>
      </trkpt>
      <trkpt lat="44.9513" lon="4.25863">
        <ele>1153</ele>
        <time>2026-05-07T08:41:24Z</time>
      </trkpt>
      <trkpt lat="44.95133" lon="4.25874">
        <ele>1151.1</ele>
        <time>2026-05-07T08:41:29Z</time>
      </trkpt>
      <trkpt lat="44.95136" lon="4.25885">
        <ele>1149.4</ele>
        <time>2026-05-07T08:41:34Z</time>
      </trkpt>
      <trkpt lat="44.95138" lon="4.25896">
        <ele>1147.6</ele>
        <time>2026-05-07T08:41:39Z</time>
      </trkpt>
      <trkpt lat="44.95139" lon="4.25907">
        <ele>1145.5</ele>
        <time>2026-05-07T08:41:44Z</time>
      </trkpt>
      <trkpt lat="44.9514" lon="4.25919">
        <ele>1143.2</ele>
        <time>2026-05-07T08:41:49Z</time>
      </trkpt>
      <trkpt lat="44.95141" lon="4.25928">
        <ele>1141.8</ele>
        <time>2026-05-07T08:41:54Z</time>
      </trkpt>
      <trkpt lat="44.95142" lon="4.2594">
        <ele>1139.9</ele>
        <time>2026-05-07T08:41:59Z</time>
      </trkpt>
      <trkpt lat="44.95143" lon="4.25953">
        <ele>1137.9</ele>
        <time>2026-05-07T08:42:04Z</time>
      </trkpt>
      <trkpt lat="44.95144" lon="4.25962">
        <ele>1136.7</ele>
        <time>2026-05-07T08:42:09Z</time>
      </trkpt>
      <trkpt lat="44.95145" lon="4.25973">
        <ele>1135.1</ele>
        <time>2026-05-07T08:42:14Z</time>
      </trkpt>
      <trkpt lat="44.95146" lon="4.25984">
        <ele>1133.7</ele>
        <time>2026-05-07T08:42:19Z</time>
      </trkpt>
      <trkpt lat="44.95147" lon="4.25996">
        <ele>1132.1</ele>
        <time>2026-05-07T08:42:24Z</time>
      </trkpt>
      <trkpt lat="44.95148" lon="4.26006">
        <ele>1131.4</ele>
        <time>2026-05-07T08:42:29Z</time>
      </trkpt>
      <trkpt lat="44.95149" lon="4.26018">
        <ele>1130.9</ele>
        <time>2026-05-07T08:42:34Z</time>
      </trkpt>
      <trkpt lat="44.95149" lon="4.26032">
        <ele>1129.7</ele>
        <time>2026-05-07T08:42:39Z</time>
      </trkpt>
      <trkpt lat="44.9515" lon="4.26042">
        <ele>1129.5</ele>
        <time>2026-05-07T08:42:44Z</time>
      </trkpt>
      <trkpt lat="44.95151" lon="4.26054">
        <ele>1129</ele>
        <time>2026-05-07T08:42:49Z</time>
      </trkpt>
      <trkpt lat="44.95152" lon="4.26065">
        <ele>1128.7</ele>
        <time>2026-05-07T08:42:54Z</time>
      </trkpt>
      <trkpt lat="44.95154" lon="4.26075">
        <ele>1129.1</ele>
        <time>2026-05-07T08:42:59Z</time>
      </trkpt>
      <trkpt lat="44.95156" lon="4.26087">
        <ele>1129.4</ele>
        <time>2026-05-07T08:43:04Z</time>
      </trkpt>
      <trkpt lat="44.95157" lon="4.26098">
        <ele>1129.3</ele>
        <time>2026-05-07T08:43:09Z</time>
      </trkpt>
      <trkpt lat="44.95159" lon="4.2611">
        <ele>1129.8</ele>
        <time>2026-05-07T08:43:14Z</time>
      </trkpt>
      <trkpt lat="44.95161" lon="4.2612">
        <ele>1130.4</ele>
        <time>2026-05-07T08:43:19Z</time>
      </trkpt>
      <trkpt lat="44.95163" lon="4.26129">
        <ele>1131.1</ele>
        <time>2026-05-07T08:43:24Z</time>
      </trkpt>
      <trkpt lat="44.95165" lon="4.26139">
        <ele>1131.7</ele>
        <time>2026-05-07T08:43:29Z</time>
      </trkpt>
      <trkpt lat="44.95167" lon="4.26149">
        <ele>1132.2</ele>
        <time>2026-05-07T08:43:34Z</time>
      </trkpt>
      <trkpt lat="44.95169" lon="4.26161">
        <ele>1132.2</ele>
        <time>2026-05-07T08:43:39Z</time>
      </trkpt>
      <trkpt lat="44.9517" lon="4.26171">
        <ele>1132.1</ele>
        <time>2026-05-07T08:43:44Z</time>
      </trkpt>
      <trkpt lat="44.95171" lon="4.26182">
        <ele>1132.1</ele>
        <time>2026-05-07T08:43:49Z</time>
      </trkpt>
      <trkpt lat="44.95173" lon="4.26193">
        <ele>1132.4</ele>
        <time>2026-05-07T08:43:54Z</time>
      </trkpt>
      <trkpt lat="44.95174" lon="4.26204">
        <ele>1132.4</ele>
        <time>2026-05-07T08:43:59Z</time>
      </trkpt>
      <trkpt lat="44.95176" lon="4.26213">
        <ele>1132.7</ele>
        <time>2026-05-07T08:44:04Z</time>
      </trkpt>
      <trkpt lat="44.95179" lon="4.26226">
        <ele>1133.3</ele>
        <time>2026-05-07T08:44:09Z</time>
      </trkpt>
      <trkpt lat="44.95181" lon="4.26236">
        <ele>1133.6</ele>
        <time>2026-05-07T08:44:14Z</time>
      </trkpt>
      <trkpt lat="44.95183" lon="4.26247">
        <ele>1133.8</ele>
        <time>2026-05-07T08:44:19Z</time>
      </trkpt>
      <trkpt lat="44.95184" lon="4.26257">
        <ele>1133</ele>
        <time>2026-05-07T08:44:24Z</time>
      </trkpt>
      <trkpt lat="44.95186" lon="4.26268">
        <ele>1132.1</ele>
        <time>2026-05-07T08:44:29Z</time>
      </trkpt>
      <trkpt lat="44.95188" lon="4.26278">
        <ele>1131.3</ele>
        <time>2026-05-07T08:44:34Z</time>
      </trkpt>
      <trkpt lat="44.95192" lon="4.26285">
        <ele>1131.8</ele>
        <time>2026-05-07T08:44:39Z</time>
      </trkpt>
      <trkpt lat="44.95196" lon="4.26296">
        <ele>1131.8</ele>
        <time>2026-05-07T08:44:44Z</time>
      </trkpt>
      <trkpt lat="44.95201" lon="4.26307">
        <ele>1132.3</ele>
        <time>2026-05-07T08:44:49Z</time>
      </trkpt>
      <trkpt lat="44.95206" lon="4.26315">
        <ele>1133.3</ele>
        <time>2026-05-07T08:44:54Z</time>
      </trkpt>
      <trkpt lat="44.95211" lon="4.26321">
        <ele>1134.7</ele>
        <time>2026-05-07T08:44:59Z</time>
      </trkpt>
      <trkpt lat="44.95215" lon="4.2633">
        <ele>1135.3</ele>
        <time>2026-05-07T08:45:04Z</time>
      </trkpt>
      <trkpt lat="44.9522" lon="4.26339">
        <ele>1136.9</ele>
        <time>2026-05-07T08:45:09Z</time>
      </trkpt>
      <trkpt lat="44.95224" lon="4.26347">
        <ele>1138.4</ele>
        <time>2026-05-07T08:45:14Z</time>
      </trkpt>
      <trkpt lat="44.95225" lon="4.2635">
        <ele>1138.8</ele>
        <time>2026-05-07T08:45:19Z</time>
      </trkpt>
      <trkpt lat="44.95224" lon="4.26352">
        <ele>1138.3</ele>
        <time>2026-05-07T08:45:24Z</time>
      </trkpt>
      <trkpt lat="44.95219" lon="4.26352">
        <ele>1136.1</ele>
        <time>2026-05-07T08:45:29Z</time>
      </trkpt>
      <trkpt lat="44.95213" lon="4.26357">
        <ele>1133.2</ele>
        <time>2026-05-07T08:45:34Z</time>
      </trkpt>
      <trkpt lat="44.9521" lon="4.26364">
        <ele>1131.6</ele>
        <time>2026-05-07T08:45:39Z</time>
      </trkpt>
      <trkpt lat="44.95205" lon="4.26369">
        <ele>1129.2</ele>
        <time>2026-05-07T08:45:44Z</time>
      </trkpt>
      <trkpt lat="44.95201" lon="4.2637">
        <ele>1127.4</ele>
        <time>2026-05-07T08:45:49Z</time>
      </trkpt>
      <trkpt lat="44.95206" lon="4.26376">
        <ele>1129.4</ele>
        <time>2026-05-07T08:45:54Z</time>
      </trkpt>
      <trkpt lat="44.95208" lon="4.26378">
        <ele>1130.2</ele>
        <time>2026-05-07T08:45:59Z</time>
      </trkpt>
      <trkpt lat="44.9521" lon="4.26381">
        <ele>1131</ele>
        <time>2026-05-07T08:46:04Z</time>
      </trkpt>
      <trkpt lat="44.95212" lon="4.26385">
        <ele>1131.8</ele>
        <time>2026-05-07T08:46:09Z</time>
      </trkpt>
      <trkpt lat="44.95208" lon="4.26387">
        <ele>1129.9</ele>
        <time>2026-05-07T08:46:14Z</time>
      </trkpt>
      <trkpt lat="44.95204" lon="4.26386">
        <ele>1128.1</ele>
        <time>2026-05-07T08:46:19Z</time>
      </trkpt>
      <trkpt lat="44.952" lon="4.26386">
        <ele>1126.3</ele>
        <time>2026-05-07T08:46:24Z</time>
      </trkpt>
      <trkpt lat="44.95198" lon="4.26386">
        <ele>1125.3</ele>
        <time>2026-05-07T08:46:29Z</time>
      </trkpt>
      <trkpt lat="44.95196" lon="4.26389">
        <ele>1124.3</ele>
        <time>2026-05-07T08:46:34Z</time>
      </trkpt>
      <trkpt lat="44.95194" lon="4.26394">
        <ele>1123.1</ele>
        <time>2026-05-07T08:46:39Z</time>
      </trkpt>
      <trkpt lat="44.95196" lon="4.26396">
        <ele>1124</ele>
        <time>2026-05-07T08:46:44Z</time>
      </trkpt>
      <trkpt lat="44.95196" lon="4.26396">
        <ele>1124</ele>
        <time>2026-05-07T08:46:44Z</time>
      </trkpt>
      <trkpt lat="44.95204" lon="4.264">
        <ele>1127.6</ele>
        <time>2026-05-07T08:47:50Z</time>
      </trkpt>
      <trkpt lat="44.952" lon="4.26398">
        <ele>1125.8</ele>
        <time>2026-05-07T08:47:52Z</time>
      </trkpt>
      <trkpt lat="44.95196" lon="4.26398">
        <ele>1123.9</ele>
        <time>2026-05-07T08:47:57Z</time>
      </trkpt>
      <trkpt lat="44.95193" lon="4.26401">
        <ele>1122.3</ele>
        <time>2026-05-07T08:48:02Z</time>
      </trkpt>
      <trkpt lat="44.95192" lon="4.26402">
        <ele>1121.8</ele>
        <time>2026-05-07T08:48:07Z</time>
      </trkpt>
      <trkpt lat="44.95187" lon="4.26404">
        <ele>1119.4</ele>
        <time>2026-05-07T08:48:12Z</time>
      </trkpt>
      <trkpt lat="44.95182" lon="4.26405">
        <ele>1117</ele>
        <time>2026-05-07T08:48:17Z</time>
      </trkpt>
      <trkpt lat="44.95182" lon="4.26405">
        <ele>1117</ele>
        <time>2026-05-07T08:48:22Z</time>
      </trkpt>
      <trkpt lat="44.95182" lon="4.26405">
        <ele>1117</ele>
        <time>2026-05-07T08:48:27Z</time>
      </trkpt>
      <trkpt lat="44.95182" lon="4.26405">
        <ele>1117</ele>
        <time>2026-05-07T08:48:32Z</time>
      </trkpt>
      <trkpt lat="44.95182" lon="4.26405">
        <ele>1117</ele>
        <time>2026-05-07T08:48:37Z</time>
      </trkpt>
      <trkpt lat="44.95182" lon="4.26405">
        <ele>1117</ele>
        <time>2026-05-07T08:48:42Z</time>
      </trkpt>
      <trkpt lat="44.95182" lon="4.26405">
        <ele>1117</ele>
        <time>2026-05-07T08:48:47Z</time>
      </trkpt>
      <trkpt lat="44.95182" lon="4.26405">
        <ele>1117</ele>
        <time>2026-05-07T08:48:52Z</time>
      </trkpt>
      <trkpt lat="44.95192" lon="4.26409">
        <ele>1121.5</ele>
        <time>2026-05-07T08:48:57Z</time>
      </trkpt>
      <trkpt lat="44.95193" lon="4.26418">
        <ele>1121.7</ele>
        <time>2026-05-07T08:49:02Z</time>
      </trkpt>
      <trkpt lat="44.95198" lon="4.26425">
        <ele>1124.1</ele>
        <time>2026-05-07T08:49:07Z</time>
      </trkpt>
      <trkpt lat="44.95204" lon="4.26429">
        <ele>1126.8</ele>
        <time>2026-05-07T08:49:12Z</time>
      </trkpt>
      <trkpt lat="44.95208" lon="4.26429">
        <ele>1128.7</ele>
        <time>2026-05-07T08:49:17Z</time>
      </trkpt>
      <trkpt lat="44.95208" lon="4.26429">
        <ele>1128.7</ele>
        <time>2026-05-07T08:49:22Z</time>
      </trkpt>
      <trkpt lat="44.95209" lon="4.2643">
        <ele>1129.1</ele>
        <time>2026-05-07T08:49:27Z</time>
      </trkpt>
      <trkpt lat="44.95209" lon="4.2643">
        <ele>1129.1</ele>
        <time>2026-05-07T08:49:32Z</time>
      </trkpt>
      <trkpt lat="44.95212" lon="4.26432">
        <ele>1130.5</ele>
        <time>2026-05-07T08:49:37Z</time>
      </trkpt>
      <trkpt lat="44.95219" lon="4.26434">
        <ele>1133.6</ele>
        <time>2026-05-07T08:49:42Z</time>
      </trkpt>
      <trkpt lat="44.95225" lon="4.26439">
        <ele>1136.2</ele>
        <time>2026-05-07T08:49:47Z</time>
      </trkpt>
      <trkpt lat="44.95232" lon="4.26444">
        <ele>1139.1</ele>
        <time>2026-05-07T08:49:52Z</time>
      </trkpt>
      <trkpt lat="44.9524" lon="4.2645">
        <ele>1142.3</ele>
        <time>2026-05-07T08:49:57Z</time>
      </trkpt>
      <trkpt lat="44.95245" lon="4.26454">
        <ele>1144.2</ele>
        <time>2026-05-07T08:50:02Z</time>
      </trkpt>
      <trkpt lat="44.95251" lon="4.26459">
        <ele>1146</ele>
        <time>2026-05-07T08:50:07Z</time>
      </trkpt>
      <trkpt lat="44.95257" lon="4.26462">
        <ele>1146.3</ele>
        <time>2026-05-07T08:50:12Z</time>
      </trkpt>
      <trkpt lat="44.95263" lon="4.26463">
        <ele>1146.8</ele>
        <time>2026-05-07T08:50:17Z</time>
      </trkpt>
      <trkpt lat="44.9527" lon="4.26463">
        <ele>1147.4</ele>
        <time>2026-05-07T08:50:22Z</time>
      </trkpt>
      <trkpt lat="44.95276" lon="4.26465">
        <ele>1147.8</ele>
        <time>2026-05-07T08:50:27Z</time>
      </trkpt>
      <trkpt lat="44.95281" lon="4.26467">
        <ele>1148.1</ele>
        <time>2026-05-07T08:50:32Z</time>
      </trkpt>
      <trkpt lat="44.95287" lon="4.26469">
        <ele>1148.5</ele>
        <time>2026-05-07T08:50:37Z</time>
      </trkpt>
      <trkpt lat="44.95293" lon="4.26471">
        <ele>1148.9</ele>
        <time>2026-05-07T08:50:42Z</time>
      </trkpt>
      <trkpt lat="44.95295" lon="4.26472">
        <ele>1149</ele>
        <time>2026-05-07T08:50:47Z</time>
      </trkpt>
      <trkpt lat="44.95296" lon="4.26473">
        <ele>1149</ele>
        <time>2026-05-07T08:50:52Z</time>
      </trkpt>
      <trkpt lat="44.95295" lon="4.26473">
        <ele>1148.9</ele>
        <time>2026-05-07T08:50:57Z</time>
      </trkpt>
      <trkpt lat="44.95295" lon="4.26473">
        <ele>1148.9</ele>
        <time>2026-05-07T08:51:02Z</time>
      </trkpt>
      <trkpt lat="44.95299" lon="4.2647">
        <ele>1149.4</ele>
        <time>2026-05-07T08:51:07Z</time>
      </trkpt>
      <trkpt lat="44.95302" lon="4.26468">
        <ele>1149.8</ele>
        <time>2026-05-07T08:51:12Z</time>
      </trkpt>
      <trkpt lat="44.95301" lon="4.2646">
        <ele>1150.2</ele>
        <time>2026-05-07T08:51:17Z</time>
      </trkpt>
      <trkpt lat="44.95301" lon="4.26452">
        <ele>1150.6</ele>
        <time>2026-05-07T08:51:22Z</time>
      </trkpt>
      <trkpt lat="44.95305" lon="4.26448">
        <ele>1151.2</ele>
        <time>2026-05-07T08:51:27Z</time>
      </trkpt>
      <trkpt lat="44.95308" lon="4.26443">
        <ele>1151.7</ele>
        <time>2026-05-07T08:51:32Z</time>
      </trkpt>
      <trkpt lat="44.95311" lon="4.26436">
        <ele>1152.3</ele>
        <time>2026-05-07T08:51:37Z</time>
      </trkpt>
      <trkpt lat="44.95314" lon="4.26428">
        <ele>1153</ele>
        <time>2026-05-07T08:51:42Z</time>
      </trkpt>
      <trkpt lat="44.95316" lon="4.26419">
        <ele>1153.6</ele>
        <time>2026-05-07T08:51:47Z</time>
      </trkpt>
      <trkpt lat="44.95318" lon="4.26412">
        <ele>1154.1</ele>
        <time>2026-05-07T08:51:52Z</time>
      </trkpt>
      <trkpt lat="44.95319" lon="4.26404">
        <ele>1154.6</ele>
        <time>2026-05-07T08:51:57Z</time>
      </trkpt>
      <trkpt lat="44.95322" lon="4.26396">
        <ele>1155.3</ele>
        <time>2026-05-07T08:52:02Z</time>
      </trkpt>
      <trkpt lat="44.95324" lon="4.2639">
        <ele>1155.8</ele>
        <time>2026-05-07T08:52:07Z</time>
      </trkpt>
      <trkpt lat="44.95327" lon="4.26382">
        <ele>1156.5</ele>
        <time>2026-05-07T08:52:12Z</time>
      </trkpt>
      <trkpt lat="44.95329" lon="4.26375">
        <ele>1157.1</ele>
        <time>2026-05-07T08:52:17Z</time>
      </trkpt>
      <trkpt lat="44.95332" lon="4.26365">
        <ele>1158</ele>
        <time>2026-05-07T08:52:22Z</time>
      </trkpt>
      <trkpt lat="44.95334" lon="4.26357">
        <ele>1158.6</ele>
        <time>2026-05-07T08:52:27Z</time>
      </trkpt>
      <trkpt lat="44.95336" lon="4.26348">
        <ele>1159.2</ele>
        <time>2026-05-07T08:52:32Z</time>
      </trkpt>
      <trkpt lat="44.95339" lon="4.26342">
        <ele>1159.7</ele>
        <time>2026-05-07T08:52:37Z</time>
      </trkpt>
      <trkpt lat="44.9534" lon="4.26336">
        <ele>1160.1</ele>
        <time>2026-05-07T08:52:42Z</time>
      </trkpt>
      <trkpt lat="44.95342" lon="4.26327">
        <ele>1160.5</ele>
        <time>2026-05-07T08:52:47Z</time>
      </trkpt>
      <trkpt lat="44.95343" lon="4.26318">
        <ele>1160.9</ele>
        <time>2026-05-07T08:52:52Z</time>
      </trkpt>
      <trkpt lat="44.95345" lon="4.2631">
        <ele>1161.2</ele>
        <time>2026-05-07T08:52:57Z</time>
      </trkpt>
      <trkpt lat="44.95348" lon="4.26303">
        <ele>1161.6</ele>
        <time>2026-05-07T08:53:02Z</time>
      </trkpt>
      <trkpt lat="44.95352" lon="4.26294">
        <ele>1162</ele>
        <time>2026-05-07T08:53:07Z</time>
      </trkpt>
      <trkpt lat="44.95355" lon="4.26287">
        <ele>1162.3</ele>
        <time>2026-05-07T08:53:12Z</time>
      </trkpt>
      <trkpt lat="44.95359" lon="4.26279">
        <ele>1162.7</ele>
        <time>2026-05-07T08:53:17Z</time>
      </trkpt>
      <trkpt lat="44.95362" lon="4.26272">
        <ele>1163</ele>
        <time>2026-05-07T08:53:22Z</time>
      </trkpt>
      <trkpt lat="44.95366" lon="4.26265">
        <ele>1163.3</ele>
        <time>2026-05-07T08:53:27Z</time>
      </trkpt>
      <trkpt lat="44.9537" lon="4.26258">
        <ele>1163.6</ele>
        <time>2026-05-07T08:53:32Z</time>
      </trkpt>
      <trkpt lat="44.95374" lon="4.2625">
        <ele>1164</ele>
        <time>2026-05-07T08:53:37Z</time>
      </trkpt>
      <trkpt lat="44.95376" lon="4.26242">
        <ele>1164.4</ele>
        <time>2026-05-07T08:53:42Z</time>
      </trkpt>
      <trkpt lat="44.9538" lon="4.26233">
        <ele>1164.8</ele>
        <time>2026-05-07T08:53:47Z</time>
      </trkpt>
      <trkpt lat="44.95383" lon="4.26225">
        <ele>1165.2</ele>
        <time>2026-05-07T08:53:52Z</time>
      </trkpt>
      <trkpt lat="44.95388" lon="4.26218">
        <ele>1165.6</ele>
        <time>2026-05-07T08:53:57Z</time>
      </trkpt>
      <trkpt lat="44.95393" lon="4.26211">
        <ele>1166</ele>
        <time>2026-05-07T08:54:02Z</time>
      </trkpt>
      <trkpt lat="44.95396" lon="4.26204">
        <ele>1166.3</ele>
        <time>2026-05-07T08:54:07Z</time>
      </trkpt>
      <trkpt lat="44.95401" lon="4.26197">
        <ele>1166.7</ele>
        <time>2026-05-07T08:54:12Z</time>
      </trkpt>
      <trkpt lat="44.95406" lon="4.2619">
        <ele>1167</ele>
        <time>2026-05-07T08:54:17Z</time>
      </trkpt>
      <trkpt lat="44.95412" lon="4.26185">
        <ele>1167.3</ele>
        <time>2026-05-07T08:54:22Z</time>
      </trkpt>
      <trkpt lat="44.95418" lon="4.26181">
        <ele>1167.4</ele>
        <time>2026-05-07T08:54:27Z</time>
      </trkpt>
      <trkpt lat="44.95426" lon="4.26177">
        <ele>1167.3</ele>
        <time>2026-05-07T08:54:32Z</time>
      </trkpt>
      <trkpt lat="44.95433" lon="4.26177">
        <ele>1167</ele>
        <time>2026-05-07T08:54:37Z</time>
      </trkpt>
      <trkpt lat="44.95439" lon="4.26177">
        <ele>1166.8</ele>
        <time>2026-05-07T08:54:42Z</time>
      </trkpt>
      <trkpt lat="44.95447" lon="4.26175">
        <ele>1166.6</ele>
        <time>2026-05-07T08:54:47Z</time>
      </trkpt>
      <trkpt lat="44.95452" lon="4.26175">
        <ele>1166.4</ele>
        <time>2026-05-07T08:54:52Z</time>
      </trkpt>
      <trkpt lat="44.95459" lon="4.26172">
        <ele>1166.3</ele>
        <time>2026-05-07T08:54:57Z</time>
      </trkpt>
      <trkpt lat="44.95465" lon="4.26169">
        <ele>1166.2</ele>
        <time>2026-05-07T08:55:02Z</time>
      </trkpt>
      <trkpt lat="44.95471" lon="4.26167">
        <ele>1166</ele>
        <time>2026-05-07T08:55:07Z</time>
      </trkpt>
      <trkpt lat="44.95479" lon="4.26164">
        <ele>1165.9</ele>
        <time>2026-05-07T08:55:12Z</time>
      </trkpt>
      <trkpt lat="44.95485" lon="4.26161">
        <ele>1165.9</ele>
        <time>2026-05-07T08:55:17Z</time>
      </trkpt>
      <trkpt lat="44.95489" lon="4.26159">
        <ele>1165.9</ele>
        <time>2026-05-07T08:55:22Z</time>
      </trkpt>
      <trkpt lat="44.95495" lon="4.26156">
        <ele>1165.9</ele>
        <time>2026-05-07T08:55:27Z</time>
      </trkpt>
      <trkpt lat="44.95503" lon="4.26152">
        <ele>1166.1</ele>
        <time>2026-05-07T08:55:32Z</time>
      </trkpt>
      <trkpt lat="44.95509" lon="4.26148">
        <ele>1166.4</ele>
        <time>2026-05-07T08:55:37Z</time>
      </trkpt>
      <trkpt lat="44.95515" lon="4.26145">
        <ele>1166.7</ele>
        <time>2026-05-07T08:55:42Z</time>
      </trkpt>
      <trkpt lat="44.95521" lon="4.26141">
        <ele>1167</ele>
        <time>2026-05-07T08:55:47Z</time>
      </trkpt>
      <trkpt lat="44.95527" lon="4.26137">
        <ele>1167.4</ele>
        <time>2026-05-07T08:55:52Z</time>
      </trkpt>
      <trkpt lat="44.95534" lon="4.26131">
        <ele>1167.9</ele>
        <time>2026-05-07T08:55:57Z</time>
      </trkpt>
      <trkpt lat="44.9554" lon="4.26126">
        <ele>1168.4</ele>
        <time>2026-05-07T08:56:02Z</time>
      </trkpt>
      <trkpt lat="44.95547" lon="4.2612">
        <ele>1169</ele>
        <time>2026-05-07T08:56:07Z</time>
      </trkpt>
      <trkpt lat="44.95553" lon="4.26115">
        <ele>1169.5</ele>
        <time>2026-05-07T08:56:12Z</time>
      </trkpt>
      <trkpt lat="44.95558" lon="4.26112">
        <ele>1169.8</ele>
        <time>2026-05-07T08:56:17Z</time>
      </trkpt>
      <trkpt lat="44.95563" lon="4.26105">
        <ele>1170.6</ele>
        <time>2026-05-07T08:56:22Z</time>
      </trkpt>
      <trkpt lat="44.9557" lon="4.26101">
        <ele>1171.1</ele>
        <time>2026-05-07T08:56:27Z</time>
      </trkpt>
      <trkpt lat="44.95575" lon="4.26096">
        <ele>1171.6</ele>
        <time>2026-05-07T08:56:32Z</time>
      </trkpt>
      <trkpt lat="44.95579" lon="4.2609">
        <ele>1172.3</ele>
        <time>2026-05-07T08:56:37Z</time>
      </trkpt>
      <trkpt lat="44.95583" lon="4.26085">
        <ele>1172.8</ele>
        <time>2026-05-07T08:56:42Z</time>
      </trkpt>
      <trkpt lat="44.95588" lon="4.2608">
        <ele>1172.6</ele>
        <time>2026-05-07T08:56:47Z</time>
      </trkpt>
      <trkpt lat="44.95593" lon="4.26075">
        <ele>1172.3</ele>
        <time>2026-05-07T08:56:52Z</time>
      </trkpt>
      <trkpt lat="44.95599" lon="4.2607">
        <ele>1172</ele>
        <time>2026-05-07T08:56:57Z</time>
      </trkpt>
      <trkpt lat="44.95604" lon="4.26065">
        <ele>1171.7</ele>
        <time>2026-05-07T08:57:02Z</time>
      </trkpt>
      <trkpt lat="44.95607" lon="4.26058">
        <ele>1172</ele>
        <time>2026-05-07T08:57:07Z</time>
      </trkpt>
      <trkpt lat="44.9561" lon="4.26051">
        <ele>1172.2</ele>
        <time>2026-05-07T08:57:12Z</time>
      </trkpt>
      <trkpt lat="44.95614" lon="4.26045">
        <ele>1172.3</ele>
        <time>2026-05-07T08:57:17Z</time>
      </trkpt>
      <trkpt lat="44.95619" lon="4.26037">
        <ele>1172.5</ele>
        <time>2026-05-07T08:57:22Z</time>
      </trkpt>
      <trkpt lat="44.95622" lon="4.26031">
        <ele>1172.7</ele>
        <time>2026-05-07T08:57:27Z</time>
      </trkpt>
      <trkpt lat="44.95627" lon="4.26023">
        <ele>1172.9</ele>
        <time>2026-05-07T08:57:32Z</time>
      </trkpt>
      <trkpt lat="44.95633" lon="4.26015">
        <ele>1173.1</ele>
        <time>2026-05-07T08:57:37Z</time>
      </trkpt>
      <trkpt lat="44.95639" lon="4.26008">
        <ele>1173.1</ele>
        <time>2026-05-07T08:57:42Z</time>
      </trkpt>
      <trkpt lat="44.95644" lon="4.26002">
        <ele>1173.2</ele>
        <time>2026-05-07T08:57:47Z</time>
      </trkpt>
      <trkpt lat="44.95644" lon="4.25998">
        <ele>1173.6</ele>
        <time>2026-05-07T08:57:52Z</time>
      </trkpt>
      <trkpt lat="44.95643" lon="4.25997">
        <ele>1173.8</ele>
        <time>2026-05-07T08:57:57Z</time>
      </trkpt>
      <trkpt lat="44.95643" lon="4.25996">
        <ele>1173.8</ele>
        <time>2026-05-07T08:58:02Z</time>
      </trkpt>
      <trkpt lat="44.95643" lon="4.25996">
        <ele>1173.8</ele>
        <time>2026-05-07T08:58:07Z</time>
      </trkpt>
      <trkpt lat="44.95643" lon="4.25996">
        <ele>1173.8</ele>
        <time>2026-05-07T08:58:12Z</time>
      </trkpt>
      <trkpt lat="44.95643" lon="4.25996">
        <ele>1173.8</ele>
        <time>2026-05-07T08:58:17Z</time>
      </trkpt>
      <trkpt lat="44.95643" lon="4.25996">
        <ele>1173.8</ele>
        <time>2026-05-07T08:58:22Z</time>
      </trkpt>
      <trkpt lat="44.95647" lon="4.25993">
        <ele>1173.6</ele>
        <time>2026-05-07T08:58:27Z</time>
      </trkpt>
      <trkpt lat="44.9565" lon="4.25986">
        <ele>1173.8</ele>
        <time>2026-05-07T08:58:32Z</time>
      </trkpt>
      <trkpt lat="44.95655" lon="4.2598">
        <ele>1173.8</ele>
        <time>2026-05-07T08:58:37Z</time>
      </trkpt>
      <trkpt lat="44.95655" lon="4.25973">
        <ele>1174.3</ele>
        <time>2026-05-07T08:58:42Z</time>
      </trkpt>
      <trkpt lat="44.95655" lon="4.25966">
        <ele>1174.9</ele>
        <time>2026-05-07T08:58:47Z</time>
      </trkpt>
      <trkpt lat="44.95655" lon="4.25958">
        <ele>1175.5</ele>
        <time>2026-05-07T08:58:52Z</time>
      </trkpt>
      <trkpt lat="44.95655" lon="4.25952">
        <ele>1176</ele>
        <time>2026-05-07T08:58:57Z</time>
      </trkpt>
      <trkpt lat="44.95657" lon="4.25946">
        <ele>1176.3</ele>
        <time>2026-05-07T08:59:02Z</time>
      </trkpt>
      <trkpt lat="44.95661" lon="4.25938">
        <ele>1176.6</ele>
        <time>2026-05-07T08:59:07Z</time>
      </trkpt>
      <trkpt lat="44.95663" lon="4.25931">
        <ele>1177</ele>
        <time>2026-05-07T08:59:12Z</time>
      </trkpt>
      <trkpt lat="44.95667" lon="4.25924">
        <ele>1177.3</ele>
        <time>2026-05-07T08:59:17Z</time>
      </trkpt>
      <trkpt lat="44.95671" lon="4.25917">
        <ele>1176.5</ele>
        <time>2026-05-07T08:59:22Z</time>
      </trkpt>
      <trkpt lat="44.95674" lon="4.25909">
        <ele>1176.1</ele>
        <time>2026-05-07T08:59:27Z</time>
      </trkpt>
      <trkpt lat="44.95678" lon="4.25902">
        <ele>1175.2</ele>
        <time>2026-05-07T08:59:32Z</time>
      </trkpt>
      <trkpt lat="44.95682" lon="4.25896">
        <ele>1174.3</ele>
        <time>2026-05-07T08:59:37Z</time>
      </trkpt>
      <trkpt lat="44.95684" lon="4.25888">
        <ele>1174.2</ele>
        <time>2026-05-07T08:59:42Z</time>
      </trkpt>
      <trkpt lat="44.95686" lon="4.25883">
        <ele>1173.9</ele>
        <time>2026-05-07T08:59:47Z</time>
      </trkpt>
      <trkpt lat="44.95688" lon="4.25875">
        <ele>1173.8</ele>
        <time>2026-05-07T08:59:52Z</time>
      </trkpt>
      <trkpt lat="44.9569" lon="4.25866">
        <ele>1173.8</ele>
        <time>2026-05-07T08:59:57Z</time>
      </trkpt>
      <trkpt lat="44.9569" lon="4.25854">
        <ele>1174.7</ele>
        <time>2026-05-07T09:00:02Z</time>
      </trkpt>
      <trkpt lat="44.95691" lon="4.25843">
        <ele>1175.2</ele>
        <time>2026-05-07T09:00:07Z</time>
      </trkpt>
      <trkpt lat="44.95694" lon="4.25833">
        <ele>1174.9</ele>
        <time>2026-05-07T09:00:12Z</time>
      </trkpt>
      <trkpt lat="44.95697" lon="4.25824">
        <ele>1174.5</ele>
        <time>2026-05-07T09:00:17Z</time>
      </trkpt>
      <trkpt lat="44.957" lon="4.25817">
        <ele>1174.1</ele>
        <time>2026-05-07T09:00:22Z</time>
      </trkpt>
      <trkpt lat="44.95705" lon="4.2581">
        <ele>1172.8</ele>
        <time>2026-05-07T09:00:27Z</time>
      </trkpt>
      <trkpt lat="44.95709" lon="4.25804">
        <ele>1171.9</ele>
        <time>2026-05-07T09:00:32Z</time>
      </trkpt>
      <trkpt lat="44.95714" lon="4.25799">
        <ele>1170.5</ele>
        <time>2026-05-07T09:00:37Z</time>
      </trkpt>
      <trkpt lat="44.95718" lon="4.25792">
        <ele>1169.7</ele>
        <time>2026-05-07T09:00:42Z</time>
      </trkpt>
      <trkpt lat="44.9572" lon="4.25785">
        <ele>1169.6</ele>
        <time>2026-05-07T09:00:47Z</time>
      </trkpt>
      <trkpt lat="44.95723" lon="4.25778">
        <ele>1169.1</ele>
        <time>2026-05-07T09:00:52Z</time>
      </trkpt>
      <trkpt lat="44.95726" lon="4.2577">
        <ele>1168.8</ele>
        <time>2026-05-07T09:00:57Z</time>
      </trkpt>
      <trkpt lat="44.95729" lon="4.2576">
        <ele>1168.6</ele>
        <time>2026-05-07T09:01:02Z</time>
      </trkpt>
      <trkpt lat="44.95732" lon="4.25753">
        <ele>1168.2</ele>
        <time>2026-05-07T09:01:07Z</time>
      </trkpt>
      <trkpt lat="44.95732" lon="4.25745">
        <ele>1168.5</ele>
        <time>2026-05-07T09:01:12Z</time>
      </trkpt>
      <trkpt lat="44.95735" lon="4.25736">
        <ele>1167.6</ele>
        <time>2026-05-07T09:01:17Z</time>
      </trkpt>
      <trkpt lat="44.95739" lon="4.25728">
        <ele>1166.2</ele>
        <time>2026-05-07T09:01:22Z</time>
      </trkpt>
      <trkpt lat="44.95742" lon="4.2572">
        <ele>1165.2</ele>
        <time>2026-05-07T09:01:27Z</time>
      </trkpt>
      <trkpt lat="44.95743" lon="4.25712">
        <ele>1165</ele>
        <time>2026-05-07T09:01:32Z</time>
      </trkpt>
      <trkpt lat="44.95747" lon="4.25705">
        <ele>1163.6</ele>
        <time>2026-05-07T09:01:37Z</time>
      </trkpt>
      <trkpt lat="44.95749" lon="4.25697">
        <ele>1163</ele>
        <time>2026-05-07T09:01:42Z</time>
      </trkpt>
      <trkpt lat="44.95752" lon="4.25691">
        <ele>1161.7</ele>
        <time>2026-05-07T09:01:47Z</time>
      </trkpt>
      <trkpt lat="44.95753" lon="4.25686">
        <ele>1161.3</ele>
        <time>2026-05-07T09:01:52Z</time>
      </trkpt>
      <trkpt lat="44.95755" lon="4.25677">
        <ele>1160.4</ele>
        <time>2026-05-07T09:01:57Z</time>
      </trkpt>
      <trkpt lat="44.95757" lon="4.25668">
        <ele>1159.5</ele>
        <time>2026-05-07T09:02:02Z</time>
      </trkpt>
      <trkpt lat="44.95758" lon="4.25664">
        <ele>1158.7</ele>
        <time>2026-05-07T09:02:07Z</time>
      </trkpt>
      <trkpt lat="44.95761" lon="4.25659">
        <ele>1156.6</ele>
        <time>2026-05-07T09:02:12Z</time>
      </trkpt>
      <trkpt lat="44.95765" lon="4.25655">
        <ele>1154.1</ele>
        <time>2026-05-07T09:02:17Z</time>
      </trkpt>
      <trkpt lat="44.95765" lon="4.25646">
        <ele>1153</ele>
        <time>2026-05-07T09:02:22Z</time>
      </trkpt>
      <trkpt lat="44.95766" lon="4.25637">
        <ele>1151.3</ele>
        <time>2026-05-07T09:02:27Z</time>
      </trkpt>
      <trkpt lat="44.95764" lon="4.2563">
        <ele>1151.4</ele>
        <time>2026-05-07T09:02:32Z</time>
      </trkpt>
      <trkpt lat="44.95762" lon="4.25622">
        <ele>1151.4</ele>
        <time>2026-05-07T09:02:37Z</time>
      </trkpt>
      <trkpt lat="44.95762" lon="4.25616">
        <ele>1150.6</ele>
        <time>2026-05-07T09:02:42Z</time>
      </trkpt>
      <trkpt lat="44.9576" lon="4.2561">
        <ele>1150.8</ele>
        <time>2026-05-07T09:02:47Z</time>
      </trkpt>
      <trkpt lat="44.95756" lon="4.25606">
        <ele>1152.1</ele>
        <time>2026-05-07T09:02:52Z</time>
      </trkpt>
      <trkpt lat="44.95755" lon="4.25602">
        <ele>1152.1</ele>
        <time>2026-05-07T09:02:57Z</time>
      </trkpt>
      <trkpt lat="44.95755" lon="4.25602">
        <ele>1152.1</ele>
        <time>2026-05-07T09:03:02Z</time>
      </trkpt>
      <trkpt lat="44.95755" lon="4.25602">
        <ele>1152.1</ele>
        <time>2026-05-07T09:03:07Z</time>
      </trkpt>
      <trkpt lat="44.95755" lon="4.25602">
        <ele>1152.1</ele>
        <time>2026-05-07T09:03:12Z</time>
      </trkpt>
      <trkpt lat="44.95755" lon="4.25602">
        <ele>1152.1</ele>
        <time>2026-05-07T09:03:17Z</time>
      </trkpt>
      <trkpt lat="44.95757" lon="4.2559">
        <ele>1149.6</ele>
        <time>2026-05-07T09:03:22Z</time>
      </trkpt>
      <trkpt lat="44.95757" lon="4.2559">
        <ele>1149.6</ele>
        <time>2026-05-07T09:03:27Z</time>
      </trkpt>
      <trkpt lat="44.95753" lon="4.25584">
        <ele>1150.7</ele>
        <time>2026-05-07T09:03:32Z</time>
      </trkpt>
      <trkpt lat="44.95747" lon="4.25581">
        <ele>1152.3</ele>
        <time>2026-05-07T09:03:37Z</time>
      </trkpt>
      <trkpt lat="44.95746" lon="4.25577">
        <ele>1151.5</ele>
        <time>2026-05-07T09:03:42Z</time>
      </trkpt>
      <trkpt lat="44.95746" lon="4.25572">
        <ele>1150.3</ele>
        <time>2026-05-07T09:03:47Z</time>
      </trkpt>
      <trkpt lat="44.95745" lon="4.25567">
        <ele>1149.3</ele>
        <time>2026-05-07T09:03:52Z</time>
      </trkpt>
      <trkpt lat="44.95744" lon="4.25567">
        <ele>1149.5</ele>
        <time>2026-05-07T09:03:57Z</time>
      </trkpt>
      <trkpt lat="44.9574" lon="4.25558">
        <ele>1148.1</ele>
        <time>2026-05-07T09:04:02Z</time>
      </trkpt>
      <trkpt lat="44.95739" lon="4.25554">
        <ele>1147.3</ele>
        <time>2026-05-07T09:04:07Z</time>
      </trkpt>
      <trkpt lat="44.95739" lon="4.25554">
        <ele>1147.3</ele>
        <time>2026-05-07T09:04:12Z</time>
      </trkpt>
      <trkpt lat="44.95734" lon="4.25544">
        <ele>1145.5</ele>
        <time>2026-05-07T09:04:17Z</time>
      </trkpt>
      <trkpt lat="44.95735" lon="4.25535">
        <ele>1142.9</ele>
        <time>2026-05-07T09:04:22Z</time>
      </trkpt>
      <trkpt lat="44.95739" lon="4.25528">
        <ele>1140.4</ele>
        <time>2026-05-07T09:04:27Z</time>
      </trkpt>
      <trkpt lat="44.95745" lon="4.25519">
        <ele>1137.2</ele>
        <time>2026-05-07T09:04:32Z</time>
      </trkpt>
      <trkpt lat="44.95751" lon="4.25513">
        <ele>1134.8</ele>
        <time>2026-05-07T09:04:37Z</time>
      </trkpt>
      <trkpt lat="44.95757" lon="4.25507">
        <ele>1131.2</ele>
        <time>2026-05-07T09:04:42Z</time>
      </trkpt>
      <trkpt lat="44.95761" lon="4.25503">
        <ele>1128.8</ele>
        <time>2026-05-07T09:04:47Z</time>
      </trkpt>
      <trkpt lat="44.95763" lon="4.25499">
        <ele>1127.1</ele>
        <time>2026-05-07T09:04:52Z</time>
      </trkpt>
      <trkpt lat="44.95765" lon="4.25496">
        <ele>1125.4</ele>
        <time>2026-05-07T09:04:57Z</time>
      </trkpt>
      <trkpt lat="44.95765" lon="4.25496">
        <ele>1125.4</ele>
        <time>2026-05-07T09:05:02Z</time>
      </trkpt>
      <trkpt lat="44.95769" lon="4.25486">
        <ele>1120.6</ele>
        <time>2026-05-07T09:05:07Z</time>
      </trkpt>
      <trkpt lat="44.95771" lon="4.25481">
        <ele>1118.3</ele>
        <time>2026-05-07T09:05:12Z</time>
      </trkpt>
      <trkpt lat="44.95773" lon="4.25477">
        <ele>1116.4</ele>
        <time>2026-05-07T09:05:17Z</time>
      </trkpt>
      <trkpt lat="44.95773" lon="4.25474">
        <ele>1115.4</ele>
        <time>2026-05-07T09:05:22Z</time>
      </trkpt>
      <trkpt lat="44.95773" lon="4.25468">
        <ele>1113.4</ele>
        <time>2026-05-07T09:05:27Z</time>
      </trkpt>
      <trkpt lat="44.95775" lon="4.25461">
        <ele>1110.6</ele>
        <time>2026-05-07T09:05:32Z</time>
      </trkpt>
      <trkpt lat="44.95777" lon="4.25455">
        <ele>1108.1</ele>
        <time>2026-05-07T09:05:37Z</time>
      </trkpt>
      <trkpt lat="44.95778" lon="4.25451">
        <ele>1106.6</ele>
        <time>2026-05-07T09:05:42Z</time>
      </trkpt>
      <trkpt lat="44.95778" lon="4.25444">
        <ele>1104.4</ele>
        <time>2026-05-07T09:05:47Z</time>
      </trkpt>
      <trkpt lat="44.95779" lon="4.25439">
        <ele>1102.6</ele>
        <time>2026-05-07T09:05:52Z</time>
      </trkpt>
      <trkpt lat="44.95779" lon="4.25433">
        <ele>1100.7</ele>
        <time>2026-05-07T09:05:57Z</time>
      </trkpt>
      <trkpt lat="44.9578" lon="4.25427">
        <ele>1098.6</ele>
        <time>2026-05-07T09:06:02Z</time>
      </trkpt>
      <trkpt lat="44.95779" lon="4.2542">
        <ele>1096.5</ele>
        <time>2026-05-07T09:06:07Z</time>
      </trkpt>
      <trkpt lat="44.95777" lon="4.25414">
        <ele>1095.1</ele>
        <time>2026-05-07T09:06:12Z</time>
      </trkpt>
      <trkpt lat="44.95773" lon="4.25412">
        <ele>1095.1</ele>
        <time>2026-05-07T09:06:17Z</time>
      </trkpt>
      <trkpt lat="44.95766" lon="4.25413">
        <ele>1096.5</ele>
        <time>2026-05-07T09:06:22Z</time>
      </trkpt>
      <trkpt lat="44.9576" lon="4.25414">
        <ele>1097.7</ele>
        <time>2026-05-07T09:06:27Z</time>
      </trkpt>
      <trkpt lat="44.95754" lon="4.25412">
        <ele>1098</ele>
        <time>2026-05-07T09:06:32Z</time>
      </trkpt>
      <trkpt lat="44.95749" lon="4.25407">
        <ele>1097.3</ele>
        <time>2026-05-07T09:06:37Z</time>
      </trkpt>
      <trkpt lat="44.95746" lon="4.25403">
        <ele>1096.5</ele>
        <time>2026-05-07T09:06:42Z</time>
      </trkpt>
      <trkpt lat="44.95743" lon="4.254">
        <ele>1096</ele>
        <time>2026-05-07T09:06:47Z</time>
      </trkpt>
      <trkpt lat="44.9574" lon="4.25395">
        <ele>1095</ele>
        <time>2026-05-07T09:06:52Z</time>
      </trkpt>
      <trkpt lat="44.95739" lon="4.25391">
        <ele>1094.1</ele>
        <time>2026-05-07T09:06:57Z</time>
      </trkpt>
      <trkpt lat="44.9574" lon="4.25385">
        <ele>1092.3</ele>
        <time>2026-05-07T09:07:02Z</time>
      </trkpt>
      <trkpt lat="44.95746" lon="4.25382">
        <ele>1090.6</ele>
        <time>2026-05-07T09:07:07Z</time>
      </trkpt>
      <trkpt lat="44.95751" lon="4.25383">
        <ele>1090.2</ele>
        <time>2026-05-07T09:07:12Z</time>
      </trkpt>
      <trkpt lat="44.95756" lon="4.25382">
        <ele>1089.2</ele>
        <time>2026-05-07T09:07:17Z</time>
      </trkpt>
      <trkpt lat="44.95759" lon="4.25381">
        <ele>1088.5</ele>
        <time>2026-05-07T09:07:22Z</time>
      </trkpt>
      <trkpt lat="44.95763" lon="4.25377">
        <ele>1086.8</ele>
        <time>2026-05-07T09:07:27Z</time>
      </trkpt>
      <trkpt lat="44.95766" lon="4.25373">
        <ele>1085.2</ele>
        <time>2026-05-07T09:07:32Z</time>
      </trkpt>
      <trkpt lat="44.9577" lon="4.2537">
        <ele>1083.8</ele>
        <time>2026-05-07T09:07:37Z</time>
      </trkpt>
      <trkpt lat="44.95773" lon="4.25368">
        <ele>1082.9</ele>
        <time>2026-05-07T09:07:42Z</time>
      </trkpt>
      <trkpt lat="44.95776" lon="4.25366">
        <ele>1081.9</ele>
        <time>2026-05-07T09:07:47Z</time>
      </trkpt>
      <trkpt lat="44.95778" lon="4.25362">
        <ele>1080.5</ele>
        <time>2026-05-07T09:07:52Z</time>
      </trkpt>
      <trkpt lat="44.95782" lon="4.25358">
        <ele>1078.9</ele>
        <time>2026-05-07T09:07:57Z</time>
      </trkpt>
      <trkpt lat="44.95786" lon="4.25356">
        <ele>1077.9</ele>
        <time>2026-05-07T09:08:02Z</time>
      </trkpt>
      <trkpt lat="44.95785" lon="4.25351">
        <ele>1076.6</ele>
        <time>2026-05-07T09:08:07Z</time>
      </trkpt>
      <trkpt lat="44.95782" lon="4.25347">
        <ele>1075.9</ele>
        <time>2026-05-07T09:08:12Z</time>
      </trkpt>
      <trkpt lat="44.95778" lon="4.25344">
        <ele>1075.6</ele>
        <time>2026-05-07T09:08:17Z</time>
      </trkpt>
      <trkpt lat="44.95774" lon="4.25344">
        <ele>1076.1</ele>
        <time>2026-05-07T09:08:22Z</time>
      </trkpt>
      <trkpt lat="44.95773" lon="4.25344">
        <ele>1076.2</ele>
        <time>2026-05-07T09:08:27Z</time>
      </trkpt>
      <trkpt lat="44.95768" lon="4.25343">
        <ele>1076.5</ele>
        <time>2026-05-07T09:08:32Z</time>
      </trkpt>
      <trkpt lat="44.95765" lon="4.2534">
        <ele>1076.1</ele>
        <time>2026-05-07T09:08:37Z</time>
      </trkpt>
      <trkpt lat="44.95763" lon="4.25336">
        <ele>1075.2</ele>
        <time>2026-05-07T09:08:42Z</time>
      </trkpt>
      <trkpt lat="44.95759" lon="4.25338">
        <ele>1076.2</ele>
        <time>2026-05-07T09:08:47Z</time>
      </trkpt>
      <trkpt lat="44.95755" lon="4.25339">
        <ele>1077</ele>
        <time>2026-05-07T09:08:52Z</time>
      </trkpt>
      <trkpt lat="44.95751" lon="4.25336">
        <ele>1076.6</ele>
        <time>2026-05-07T09:08:57Z</time>
      </trkpt>
      <trkpt lat="44.95747" lon="4.25331">
        <ele>1076.4</ele>
        <time>2026-05-07T09:09:02Z</time>
      </trkpt>
      <trkpt lat="44.95745" lon="4.25325">
        <ele>1076</ele>
        <time>2026-05-07T09:09:07Z</time>
      </trkpt>
      <trkpt lat="44.95743" lon="4.25318">
        <ele>1075.6</ele>
        <time>2026-05-07T09:09:12Z</time>
      </trkpt>
      <trkpt lat="44.95742" lon="4.25311">
        <ele>1075</ele>
        <time>2026-05-07T09:09:17Z</time>
      </trkpt>
      <trkpt lat="44.9574" lon="4.25306">
        <ele>1074.9</ele>
        <time>2026-05-07T09:09:22Z</time>
      </trkpt>
      <trkpt lat="44.95738" lon="4.253">
        <ele>1074.8</ele>
        <time>2026-05-07T09:09:27Z</time>
      </trkpt>
      <trkpt lat="44.95736" lon="4.25298">
        <ele>1075.1</ele>
        <time>2026-05-07T09:09:32Z</time>
      </trkpt>
      <trkpt lat="44.95734" lon="4.25293">
        <ele>1075.1</ele>
        <time>2026-05-07T09:09:37Z</time>
      </trkpt>
      <trkpt lat="44.95733" lon="4.25291">
        <ele>1075.1</ele>
        <time>2026-05-07T09:09:42Z</time>
      </trkpt>
      <trkpt lat="44.95733" lon="4.25291">
        <ele>1075.1</ele>
        <time>2026-05-07T09:09:47Z</time>
      </trkpt>
      <trkpt lat="44.95728" lon="4.25279">
        <ele>1075.3</ele>
        <time>2026-05-07T09:09:52Z</time>
      </trkpt>
      <trkpt lat="44.95726" lon="4.25273">
        <ele>1075.3</ele>
        <time>2026-05-07T09:09:57Z</time>
      </trkpt>
      <trkpt lat="44.95723" lon="4.2527">
        <ele>1075.9</ele>
        <time>2026-05-07T09:10:02Z</time>
      </trkpt>
      <trkpt lat="44.95719" lon="4.25267">
        <ele>1076.9</ele>
        <time>2026-05-07T09:10:07Z</time>
      </trkpt>
      <trkpt lat="44.95719" lon="4.25267">
        <ele>1076.9</ele>
        <time>2026-05-07T09:10:12Z</time>
      </trkpt>
      <trkpt lat="44.95719" lon="4.25257">
        <ele>1076</ele>
        <time>2026-05-07T09:10:17Z</time>
      </trkpt>
      <trkpt lat="44.95717" lon="4.25251">
        <ele>1076.2</ele>
        <time>2026-05-07T09:10:22Z</time>
      </trkpt>
      <trkpt lat="44.95717" lon="4.25251">
        <ele>1076.2</ele>
        <time>2026-05-07T09:10:27Z</time>
      </trkpt>
      <trkpt lat="44.95717" lon="4.25251">
        <ele>1076.2</ele>
        <time>2026-05-07T09:10:32Z</time>
      </trkpt>
      <trkpt lat="44.95718" lon="4.25233">
        <ele>1077.8</ele>
        <time>2026-05-07T09:10:37Z</time>
      </trkpt>
      <trkpt lat="44.95721" lon="4.25226">
        <ele>1077.7</ele>
        <time>2026-05-07T09:10:42Z</time>
      </trkpt>
      <trkpt lat="44.95722" lon="4.25226">
        <ele>1077.4</ele>
        <time>2026-05-07T09:10:47Z</time>
      </trkpt>
      <trkpt lat="44.95727" lon="4.25219">
        <ele>1076.6</ele>
        <time>2026-05-07T09:10:52Z</time>
      </trkpt>
      <trkpt lat="44.95731" lon="4.25215">
        <ele>1075.8</ele>
        <time>2026-05-07T09:10:57Z</time>
      </trkpt>
      <trkpt lat="44.95739" lon="4.2521">
        <ele>1073.8</ele>
        <time>2026-05-07T09:11:02Z</time>
      </trkpt>
      <trkpt lat="44.95744" lon="4.25204">
        <ele>1073</ele>
        <time>2026-05-07T09:11:07Z</time>
      </trkpt>
      <trkpt lat="44.95749" lon="4.25198">
        <ele>1072.2</ele>
        <time>2026-05-07T09:11:12Z</time>
      </trkpt>
      <trkpt lat="44.95754" lon="4.25193">
        <ele>1071.7</ele>
        <time>2026-05-07T09:11:17Z</time>
      </trkpt>
      <trkpt lat="44.95759" lon="4.25188">
        <ele>1071.2</ele>
        <time>2026-05-07T09:11:22Z</time>
      </trkpt>
      <trkpt lat="44.95767" lon="4.25178">
        <ele>1070.7</ele>
        <time>2026-05-07T09:11:27Z</time>
      </trkpt>
      <trkpt lat="44.95776" lon="4.2517">
        <ele>1069.7</ele>
        <time>2026-05-07T09:11:32Z</time>
      </trkpt>
      <trkpt lat="44.95781" lon="4.25165">
        <ele>1069.4</ele>
        <time>2026-05-07T09:11:37Z</time>
      </trkpt>
      <trkpt lat="44.95781" lon="4.25156">
        <ele>1072</ele>
        <time>2026-05-07T09:11:42Z</time>
      </trkpt>
      <trkpt lat="44.95782" lon="4.25152">
        <ele>1072.9</ele>
        <time>2026-05-07T09:11:47Z</time>
      </trkpt>
      <trkpt lat="44.95785" lon="4.25146">
        <ele>1073.9</ele>
        <time>2026-05-07T09:11:52Z</time>
      </trkpt>
      <trkpt lat="44.9579" lon="4.2514">
        <ele>1074.3</ele>
        <time>2026-05-07T09:11:57Z</time>
      </trkpt>
      <trkpt lat="44.95794" lon="4.2513">
        <ele>1076</ele>
        <time>2026-05-07T09:12:02Z</time>
      </trkpt>
      <trkpt lat="44.958" lon="4.25121">
        <ele>1076.8</ele>
        <time>2026-05-07T09:12:07Z</time>
      </trkpt>
      <trkpt lat="44.95803" lon="4.25111">
        <ele>1078.6</ele>
        <time>2026-05-07T09:12:12Z</time>
      </trkpt>
      <trkpt lat="44.95807" lon="4.25102">
        <ele>1079.7</ele>
        <time>2026-05-07T09:12:17Z</time>
      </trkpt>
      <trkpt lat="44.95809" lon="4.25093">
        <ele>1081.4</ele>
        <time>2026-05-07T09:12:22Z</time>
      </trkpt>
      <trkpt lat="44.95811" lon="4.25086">
        <ele>1082.6</ele>
        <time>2026-05-07T09:12:27Z</time>
      </trkpt>
      <trkpt lat="44.95815" lon="4.25081">
        <ele>1082.3</ele>
        <time>2026-05-07T09:12:32Z</time>
      </trkpt>
      <trkpt lat="44.9582" lon="4.25075">
        <ele>1081.6</ele>
        <time>2026-05-07T09:12:37Z</time>
      </trkpt>
      <trkpt lat="44.95825" lon="4.25068">
        <ele>1081</ele>
        <time>2026-05-07T09:12:42Z</time>
      </trkpt>
      <trkpt lat="44.95831" lon="4.2506">
        <ele>1080.1</ele>
        <time>2026-05-07T09:12:47Z</time>
      </trkpt>
      <trkpt lat="44.95839" lon="4.25055">
        <ele>1077.2</ele>
        <time>2026-05-07T09:12:52Z</time>
      </trkpt>
      <trkpt lat="44.95844" lon="4.25052">
        <ele>1075.1</ele>
        <time>2026-05-07T09:12:57Z</time>
      </trkpt>
      <trkpt lat="44.95849" lon="4.25048">
        <ele>1073.1</ele>
        <time>2026-05-07T09:13:02Z</time>
      </trkpt>
      <trkpt lat="44.95857" lon="4.2504">
        <ele>1070.2</ele>
        <time>2026-05-07T09:13:07Z</time>
      </trkpt>
      <trkpt lat="44.95866" lon="4.25033">
        <ele>1066.5</ele>
        <time>2026-05-07T09:13:12Z</time>
      </trkpt>
      <trkpt lat="44.95873" lon="4.25027">
        <ele>1063.8</ele>
        <time>2026-05-07T09:13:17Z</time>
      </trkpt>
      <trkpt lat="44.95879" lon="4.25032">
        <ele>1060</ele>
        <time>2026-05-07T09:13:22Z</time>
      </trkpt>
      <trkpt lat="44.95881" lon="4.25042">
        <ele>1057.6</ele>
        <time>2026-05-07T09:13:27Z</time>
      </trkpt>
      <trkpt lat="44.95884" lon="4.25051">
        <ele>1054.9</ele>
        <time>2026-05-07T09:13:32Z</time>
      </trkpt>
      <trkpt lat="44.95889" lon="4.25055">
        <ele>1051.8</ele>
        <time>2026-05-07T09:13:37Z</time>
      </trkpt>
      <trkpt lat="44.95889" lon="4.25055">
        <ele>1051.8</ele>
        <time>2026-05-07T09:13:42Z</time>
      </trkpt>
      <trkpt lat="44.95889" lon="4.25055">
        <ele>1051.8</ele>
        <time>2026-05-07T09:13:47Z</time>
      </trkpt>
      <trkpt lat="44.95889" lon="4.25055">
        <ele>1051.8</ele>
        <time>2026-05-07T09:13:52Z</time>
      </trkpt>
      <trkpt lat="44.95895" lon="4.25052">
        <ele>1049.2</ele>
        <time>2026-05-07T09:13:57Z</time>
      </trkpt>
      <trkpt lat="44.95901" lon="4.25058">
        <ele>1045.3</ele>
        <time>2026-05-07T09:14:02Z</time>
      </trkpt>
      <trkpt lat="44.95904" lon="4.25065">
        <ele>1042.8</ele>
        <time>2026-05-07T09:14:07Z</time>
      </trkpt>
      <trkpt lat="44.9591" lon="4.25068">
        <ele>1039.4</ele>
        <time>2026-05-07T09:14:12Z</time>
      </trkpt>
      <trkpt lat="44.95915" lon="4.25068">
        <ele>1036.9</ele>
        <time>2026-05-07T09:14:17Z</time>
      </trkpt>
      <trkpt lat="44.95919" lon="4.25068">
        <ele>1035.9</ele>
        <time>2026-05-07T09:14:22Z</time>
      </trkpt>
      <trkpt lat="44.95922" lon="4.25066">
        <ele>1036.1</ele>
        <time>2026-05-07T09:14:27Z</time>
      </trkpt>
      <trkpt lat="44.95927" lon="4.25066">
        <ele>1035.9</ele>
        <time>2026-05-07T09:14:32Z</time>
      </trkpt>
      <trkpt lat="44.9593" lon="4.25068">
        <ele>1035.6</ele>
        <time>2026-05-07T09:14:37Z</time>
      </trkpt>
      <trkpt lat="44.95933" lon="4.25069">
        <ele>1035.4</ele>
        <time>2026-05-07T09:14:42Z</time>
      </trkpt>
      <trkpt lat="44.95933" lon="4.2507">
        <ele>1035.2</ele>
        <time>2026-05-07T09:14:47Z</time>
      </trkpt>
      <trkpt lat="44.95933" lon="4.2507">
        <ele>1035.2</ele>
        <time>2026-05-07T09:14:52Z</time>
      </trkpt>
      <trkpt lat="44.95933" lon="4.25071">
        <ele>1035.1</ele>
        <time>2026-05-07T09:14:57Z</time>
      </trkpt>
      <trkpt lat="44.95933" lon="4.25071">
        <ele>1035.1</ele>
        <time>2026-05-07T09:15:02Z</time>
      </trkpt>
      <trkpt lat="44.95936" lon="4.25072">
        <ele>1034.9</ele>
        <time>2026-05-07T09:15:07Z</time>
      </trkpt>
      <trkpt lat="44.95939" lon="4.25076">
        <ele>1034.3</ele>
        <time>2026-05-07T09:15:12Z</time>
      </trkpt>
      <trkpt lat="44.95941" lon="4.25083">
        <ele>1033.5</ele>
        <time>2026-05-07T09:15:17Z</time>
      </trkpt>
      <trkpt lat="44.95943" lon="4.25088">
        <ele>1033.1</ele>
        <time>2026-05-07T09:15:22Z</time>
      </trkpt>
      <trkpt lat="44.95946" lon="4.25092">
        <ele>1032.9</ele>
        <time>2026-05-07T09:15:27Z</time>
      </trkpt>
      <trkpt lat="44.95948" lon="4.25093">
        <ele>1032.8</ele>
        <time>2026-05-07T09:15:32Z</time>
      </trkpt>
      <trkpt lat="44.95948" lon="4.25093">
        <ele>1032.8</ele>
        <time>2026-05-07T09:15:37Z</time>
      </trkpt>
      <trkpt lat="44.95949" lon="4.25096">
        <ele>1032.6</ele>
        <time>2026-05-07T09:15:42Z</time>
      </trkpt>
      <trkpt lat="44.95952" lon="4.25098">
        <ele>1032.5</ele>
        <time>2026-05-07T09:15:47Z</time>
      </trkpt>
      <trkpt lat="44.95953" lon="4.251">
        <ele>1032.4</ele>
        <time>2026-05-07T09:15:52Z</time>
      </trkpt>
      <trkpt lat="44.95953" lon="4.25103">
        <ele>1032.3</ele>
        <time>2026-05-07T09:15:57Z</time>
      </trkpt>
      <trkpt lat="44.95954" lon="4.25104">
        <ele>1032.2</ele>
        <time>2026-05-07T09:16:02Z</time>
      </trkpt>
      <trkpt lat="44.95951" lon="4.25107">
        <ele>1032.1</ele>
        <time>2026-05-07T09:16:07Z</time>
      </trkpt>
      <trkpt lat="44.95949" lon="4.25112">
        <ele>1031.9</ele>
        <time>2026-05-07T09:16:12Z</time>
      </trkpt>
      <trkpt lat="44.95948" lon="4.25113">
        <ele>1031.9</ele>
        <time>2026-05-07T09:16:17Z</time>
      </trkpt>
      <trkpt lat="44.95947" lon="4.25111">
        <ele>1032</ele>
        <time>2026-05-07T09:16:22Z</time>
      </trkpt>
      <trkpt lat="44.95947" lon="4.25111">
        <ele>1032</ele>
        <time>2026-05-07T09:16:27Z</time>
      </trkpt>
      <trkpt lat="44.95947" lon="4.25111">
        <ele>1032</ele>
        <time>2026-05-07T09:16:32Z</time>
      </trkpt>
      <trkpt lat="44.95945" lon="4.25116">
        <ele>1031.8</ele>
        <time>2026-05-07T09:16:37Z</time>
      </trkpt>
      <trkpt lat="44.95944" lon="4.25121">
        <ele>1031.5</ele>
        <time>2026-05-07T09:16:42Z</time>
      </trkpt>
      <trkpt lat="44.95943" lon="4.25128">
        <ele>1031.2</ele>
        <time>2026-05-07T09:16:47Z</time>
      </trkpt>
      <trkpt lat="44.95943" lon="4.25137">
        <ele>1030.8</ele>
        <time>2026-05-07T09:16:52Z</time>
      </trkpt>
      <trkpt lat="44.95945" lon="4.25143">
        <ele>1030.5</ele>
        <time>2026-05-07T09:16:57Z</time>
      </trkpt>
      <trkpt lat="44.95946" lon="4.2515">
        <ele>1030.1</ele>
        <time>2026-05-07T09:17:02Z</time>
      </trkpt>
      <trkpt lat="44.95948" lon="4.25155">
        <ele>1029.9</ele>
        <time>2026-05-07T09:17:07Z</time>
      </trkpt>
      <trkpt lat="44.95951" lon="4.25158">
        <ele>1029.8</ele>
        <time>2026-05-07T09:17:12Z</time>
      </trkpt>
      <trkpt lat="44.95952" lon="4.25157">
        <ele>1029.9</ele>
        <time>2026-05-07T09:17:17Z</time>
      </trkpt>
      <trkpt lat="44.95953" lon="4.25154">
        <ele>1030</ele>
        <time>2026-05-07T09:17:22Z</time>
      </trkpt>
      <trkpt lat="44.95954" lon="4.25148">
        <ele>1030.3</ele>
        <time>2026-05-07T09:17:27Z</time>
      </trkpt>
      <trkpt lat="44.95956" lon="4.25144">
        <ele>1030.4</ele>
        <time>2026-05-07T09:17:32Z</time>
      </trkpt>
      <trkpt lat="44.95959" lon="4.25138">
        <ele>1030.7</ele>
        <time>2026-05-07T09:17:37Z</time>
      </trkpt>
      <trkpt lat="44.95961" lon="4.25132">
        <ele>1030.9</ele>
        <time>2026-05-07T09:17:42Z</time>
      </trkpt>
      <trkpt lat="44.95962" lon="4.25128">
        <ele>1031.1</ele>
        <time>2026-05-07T09:17:47Z</time>
      </trkpt>
      <trkpt lat="44.95964" lon="4.25123">
        <ele>1031.3</ele>
        <time>2026-05-07T09:17:52Z</time>
      </trkpt>
      <trkpt lat="44.95966" lon="4.25118">
        <ele>1031.5</ele>
        <time>2026-05-07T09:17:57Z</time>
      </trkpt>
      <trkpt lat="44.95967" lon="4.25112">
        <ele>1031.7</ele>
        <time>2026-05-07T09:18:02Z</time>
      </trkpt>
      <trkpt lat="44.9597" lon="4.25113">
        <ele>1031.6</ele>
        <time>2026-05-07T09:18:07Z</time>
      </trkpt>
      <trkpt lat="44.95972" lon="4.25115">
        <ele>1031.5</ele>
        <time>2026-05-07T09:18:12Z</time>
      </trkpt>
      <trkpt lat="44.95972" lon="4.25121">
        <ele>1031.3</ele>
        <time>2026-05-07T09:18:17Z</time>
      </trkpt>
      <trkpt lat="44.95973" lon="4.25125">
        <ele>1031.2</ele>
        <time>2026-05-07T09:18:22Z</time>
      </trkpt>
      <trkpt lat="44.95973" lon="4.2513">
        <ele>1031</ele>
        <time>2026-05-07T09:18:27Z</time>
      </trkpt>
      <trkpt lat="44.95973" lon="4.25134">
        <ele>1030.8</ele>
        <time>2026-05-07T09:18:32Z</time>
      </trkpt>
      <trkpt lat="44.95975" lon="4.25137">
        <ele>1030.7</ele>
        <time>2026-05-07T09:18:37Z</time>
      </trkpt>
      <trkpt lat="44.95976" lon="4.25143">
        <ele>1030.5</ele>
        <time>2026-05-07T09:18:42Z</time>
      </trkpt>
      <trkpt lat="44.95977" lon="4.25149">
        <ele>1030.3</ele>
        <time>2026-05-07T09:18:47Z</time>
      </trkpt>
      <trkpt lat="44.95978" lon="4.25153">
        <ele>1030.2</ele>
        <time>2026-05-07T09:18:52Z</time>
      </trkpt>
      <trkpt lat="44.95979" lon="4.25159">
        <ele>1030</ele>
        <time>2026-05-07T09:18:57Z</time>
      </trkpt>
      <trkpt lat="44.9598" lon="4.25164">
        <ele>1029.8</ele>
        <time>2026-05-07T09:19:02Z</time>
      </trkpt>
      <trkpt lat="44.95981" lon="4.25169">
        <ele>1029.7</ele>
        <time>2026-05-07T09:19:07Z</time>
      </trkpt>
      <trkpt lat="44.95982" lon="4.25174">
        <ele>1029.6</ele>
        <time>2026-05-07T09:19:12Z</time>
      </trkpt>
      <trkpt lat="44.95983" lon="4.2518">
        <ele>1029.4</ele>
        <time>2026-05-07T09:19:17Z</time>
      </trkpt>
      <trkpt lat="44.95983" lon="4.25184">
        <ele>1029.3</ele>
        <time>2026-05-07T09:19:22Z</time>
      </trkpt>
      <trkpt lat="44.95983" lon="4.25184">
        <ele>1029.3</ele>
        <time>2026-05-07T09:19:27Z</time>
      </trkpt>
      <trkpt lat="44.95983" lon="4.25184">
        <ele>1029.3</ele>
        <time>2026-05-07T09:19:32Z</time>
      </trkpt>
      <trkpt lat="44.95983" lon="4.25184">
        <ele>1029.3</ele>
        <time>2026-05-07T09:19:37Z</time>
      </trkpt>
      <trkpt lat="44.95983" lon="4.25184">
        <ele>1029.3</ele>
        <time>2026-05-07T09:19:42Z</time>
      </trkpt>
      <trkpt lat="44.95983" lon="4.25184">
        <ele>1029.3</ele>
        <time>2026-05-07T09:19:47Z</time>
      </trkpt>
      <trkpt lat="44.95983" lon="4.25184">
        <ele>1029.3</ele>
        <time>2026-05-07T09:19:52Z</time>
      </trkpt>
      <trkpt lat="44.95983" lon="4.25184">
        <ele>1029.3</ele>
        <time>2026-05-07T09:19:57Z</time>
      </trkpt>
      <trkpt lat="44.95983" lon="4.25184">
        <ele>1029.3</ele>
        <time>2026-05-07T09:20:02Z</time>
      </trkpt>
      <trkpt lat="44.95983" lon="4.25184">
        <ele>1029.3</ele>
        <time>2026-05-07T09:20:07Z</time>
      </trkpt>
      <trkpt lat="44.95983" lon="4.25184">
        <ele>1029.3</ele>
        <time>2026-05-07T09:20:12Z</time>
      </trkpt>
      <trkpt lat="44.95983" lon="4.25184">
        <ele>1029.3</ele>
        <time>2026-05-07T09:20:17Z</time>
      </trkpt>
      <trkpt lat="44.95983" lon="4.25184">
        <ele>1029.3</ele>
        <time>2026-05-07T09:20:22Z</time>
      </trkpt>
      <trkpt lat="44.95983" lon="4.25184">
        <ele>1029.3</ele>
        <time>2026-05-07T09:20:27Z</time>
      </trkpt>
      <trkpt lat="44.95983" lon="4.25184">
        <ele>1029.3</ele>
        <time>2026-05-07T09:20:32Z</time>
      </trkpt>
      <trkpt lat="44.95983" lon="4.25184">
        <ele>1029.3</ele>
        <time>2026-05-07T09:20:37Z</time>
      </trkpt>
      <trkpt lat="44.95983" lon="4.25184">
        <ele>1029.3</ele>
        <time>2026-05-07T09:20:42Z</time>
      </trkpt>
      <trkpt lat="44.95986" lon="4.25188">
        <ele>1029.2</ele>
        <time>2026-05-07T09:20:47Z</time>
      </trkpt>
      <trkpt lat="44.95988" lon="4.25196">
        <ele>1029</ele>
        <time>2026-05-07T09:20:52Z</time>
      </trkpt>
      <trkpt lat="44.95991" lon="4.25202">
        <ele>1028.8</ele>
        <time>2026-05-07T09:20:57Z</time>
      </trkpt>
      <trkpt lat="44.95994" lon="4.25207">
        <ele>1028.6</ele>
        <time>2026-05-07T09:21:02Z</time>
      </trkpt>
      <trkpt lat="44.95997" lon="4.25213">
        <ele>1028.4</ele>
        <time>2026-05-07T09:21:07Z</time>
      </trkpt>
      <trkpt lat="44.96001" lon="4.25218">
        <ele>1028.5</ele>
        <time>2026-05-07T09:21:12Z</time>
      </trkpt>
      <trkpt lat="44.96004" lon="4.25223">
        <ele>1029.3</ele>
        <time>2026-05-07T09:21:17Z</time>
      </trkpt>
      <trkpt lat="44.96007" lon="4.25229">
        <ele>1030</ele>
        <time>2026-05-07T09:21:22Z</time>
      </trkpt>
      <trkpt lat="44.96011" lon="4.25236">
        <ele>1031</ele>
        <time>2026-05-07T09:21:27Z</time>
      </trkpt>
      <trkpt lat="44.96014" lon="4.2524">
        <ele>1031.8</ele>
        <time>2026-05-07T09:21:32Z</time>
      </trkpt>
      <trkpt lat="44.96018" lon="4.25245">
        <ele>1032.8</ele>
        <time>2026-05-07T09:21:37Z</time>
      </trkpt>
      <trkpt lat="44.96021" lon="4.25251">
        <ele>1033.4</ele>
        <time>2026-05-07T09:21:42Z</time>
      </trkpt>
      <trkpt lat="44.96023" lon="4.25255">
        <ele>1033.6</ele>
        <time>2026-05-07T09:21:47Z</time>
      </trkpt>
      <trkpt lat="44.96026" lon="4.25258">
        <ele>1034.3</ele>
        <time>2026-05-07T09:21:52Z</time>
      </trkpt>
      <trkpt lat="44.9603" lon="4.25263">
        <ele>1034.9</ele>
        <time>2026-05-07T09:21:57Z</time>
      </trkpt>
      <trkpt lat="44.96034" lon="4.25268">
        <ele>1035.6</ele>
        <time>2026-05-07T09:22:02Z</time>
      </trkpt>
      <trkpt lat="44.96037" lon="4.25273">
        <ele>1036</ele>
        <time>2026-05-07T09:22:07Z</time>
      </trkpt>
      <trkpt lat="44.96041" lon="4.25277">
        <ele>1036.7</ele>
        <time>2026-05-07T09:22:12Z</time>
      </trkpt>
      <trkpt lat="44.96043" lon="4.25282">
        <ele>1036.7</ele>
        <time>2026-05-07T09:22:17Z</time>
      </trkpt>
      <trkpt lat="44.96045" lon="4.25287">
        <ele>1036.8</ele>
        <time>2026-05-07T09:22:22Z</time>
      </trkpt>
      <trkpt lat="44.96048" lon="4.2529">
        <ele>1037.3</ele>
        <time>2026-05-07T09:22:27Z</time>
      </trkpt>
      <trkpt lat="44.96051" lon="4.25294">
        <ele>1037.7</ele>
        <time>2026-05-07T09:22:32Z</time>
      </trkpt>
      <trkpt lat="44.96052" lon="4.25298">
        <ele>1037.5</ele>
        <time>2026-05-07T09:22:37Z</time>
      </trkpt>
      <trkpt lat="44.96054" lon="4.25303">
        <ele>1037.5</ele>
        <time>2026-05-07T09:22:42Z</time>
      </trkpt>
      <trkpt lat="44.96058" lon="4.2531">
        <ele>1037.8</ele>
        <time>2026-05-07T09:22:47Z</time>
      </trkpt>
      <trkpt lat="44.96061" lon="4.25314">
        <ele>1038.2</ele>
        <time>2026-05-07T09:22:52Z</time>
      </trkpt>
      <trkpt lat="44.96061" lon="4.25317">
        <ele>1037.8</ele>
        <time>2026-05-07T09:22:57Z</time>
      </trkpt>
      <trkpt lat="44.96061" lon="4.25318">
        <ele>1037.7</ele>
        <time>2026-05-07T09:23:02Z</time>
      </trkpt>
      <trkpt lat="44.96061" lon="4.25318">
        <ele>1037.7</ele>
        <time>2026-05-07T09:23:07Z</time>
      </trkpt>
      <trkpt lat="44.96061" lon="4.25318">
        <ele>1037.7</ele>
        <time>2026-05-07T09:23:12Z</time>
      </trkpt>
      <trkpt lat="44.96062" lon="4.25319">
        <ele>1037.9</ele>
        <time>2026-05-07T09:23:17Z</time>
      </trkpt>
      <trkpt lat="44.96066" lon="4.25323">
        <ele>1038.5</ele>
        <time>2026-05-07T09:23:22Z</time>
      </trkpt>
      <trkpt lat="44.96068" lon="4.25321">
        <ele>1039.3</ele>
        <time>2026-05-07T09:23:27Z</time>
      </trkpt>
      <trkpt lat="44.96068" lon="4.25315">
        <ele>1040.1</ele>
        <time>2026-05-07T09:23:32Z</time>
      </trkpt>
      <trkpt lat="44.96066" lon="4.25309">
        <ele>1040.2</ele>
        <time>2026-05-07T09:23:37Z</time>
      </trkpt>
      <trkpt lat="44.96065" lon="4.25305">
        <ele>1040.5</ele>
        <time>2026-05-07T09:23:42Z</time>
      </trkpt>
      <trkpt lat="44.96064" lon="4.25299">
        <ele>1040.9</ele>
        <time>2026-05-07T09:23:47Z</time>
      </trkpt>
      <trkpt lat="44.96062" lon="4.25293">
        <ele>1041.1</ele>
        <time>2026-05-07T09:23:52Z</time>
      </trkpt>
      <trkpt lat="44.96061" lon="4.25285">
        <ele>1041.7</ele>
        <time>2026-05-07T09:23:57Z</time>
      </trkpt>
      <trkpt lat="44.96061" lon="4.25278">
        <ele>1042.6</ele>
        <time>2026-05-07T09:24:02Z</time>
      </trkpt>
      <trkpt lat="44.96061" lon="4.25271">
        <ele>1043.5</ele>
        <time>2026-05-07T09:24:07Z</time>
      </trkpt>
      <trkpt lat="44.96061" lon="4.25264">
        <ele>1044.3</ele>
        <time>2026-05-07T09:24:12Z</time>
      </trkpt>
      <trkpt lat="44.96061" lon="4.25257">
        <ele>1045.2</ele>
        <time>2026-05-07T09:24:17Z</time>
      </trkpt>
      <trkpt lat="44.96061" lon="4.25251">
        <ele>1045.9</ele>
        <time>2026-05-07T09:24:22Z</time>
      </trkpt>
      <trkpt lat="44.96061" lon="4.25245">
        <ele>1046.3</ele>
        <time>2026-05-07T09:24:27Z</time>
      </trkpt>
      <trkpt lat="44.9606" lon="4.2524">
        <ele>1046.3</ele>
        <time>2026-05-07T09:24:32Z</time>
      </trkpt>
      <trkpt lat="44.9606" lon="4.25235">
        <ele>1046.5</ele>
        <time>2026-05-07T09:24:37Z</time>
      </trkpt>
      <trkpt lat="44.9606" lon="4.2523">
        <ele>1046.8</ele>
        <time>2026-05-07T09:24:42Z</time>
      </trkpt>
      <trkpt lat="44.96059" lon="4.25224">
        <ele>1046.8</ele>
        <time>2026-05-07T09:24:47Z</time>
      </trkpt>
      <trkpt lat="44.96059" lon="4.2522">
        <ele>1047</ele>
        <time>2026-05-07T09:24:52Z</time>
      </trkpt>
      <trkpt lat="44.9606" lon="4.25215">
        <ele>1047.6</ele>
        <time>2026-05-07T09:24:57Z</time>
      </trkpt>
      <trkpt lat="44.96061" lon="4.25212">
        <ele>1048.1</ele>
        <time>2026-05-07T09:25:02Z</time>
      </trkpt>
      <trkpt lat="44.96061" lon="4.25207">
        <ele>1048.3</ele>
        <time>2026-05-07T09:25:07Z</time>
      </trkpt>
      <trkpt lat="44.96063" lon="4.25201">
        <ele>1049.3</ele>
        <time>2026-05-07T09:25:12Z</time>
      </trkpt>
      <trkpt lat="44.96063" lon="4.25198">
        <ele>1049.5</ele>
        <time>2026-05-07T09:25:17Z</time>
      </trkpt>
      <trkpt lat="44.96064" lon="4.25192">
        <ele>1050.1</ele>
        <time>2026-05-07T09:25:22Z</time>
      </trkpt>
      <trkpt lat="44.96066" lon="4.25187">
        <ele>1051.1</ele>
        <time>2026-05-07T09:25:27Z</time>
      </trkpt>
      <trkpt lat="44.96067" lon="4.25181">
        <ele>1051.7</ele>
        <time>2026-05-07T09:25:32Z</time>
      </trkpt>
      <trkpt lat="44.96067" lon="4.25176">
        <ele>1052</ele>
        <time>2026-05-07T09:25:37Z</time>
      </trkpt>
      <trkpt lat="44.96068" lon="4.25172">
        <ele>1052.6</ele>
        <time>2026-05-07T09:25:42Z</time>
      </trkpt>
      <trkpt lat="44.96069" lon="4.25168">
        <ele>1053.1</ele>
        <time>2026-05-07T09:25:47Z</time>
      </trkpt>
      <trkpt lat="44.9607" lon="4.25162">
        <ele>1053.6</ele>
        <time>2026-05-07T09:25:52Z</time>
      </trkpt>
      <trkpt lat="44.96071" lon="4.25156">
        <ele>1054</ele>
        <time>2026-05-07T09:25:57Z</time>
      </trkpt>
      <trkpt lat="44.96072" lon="4.25151">
        <ele>1054.4</ele>
        <time>2026-05-07T09:26:02Z</time>
      </trkpt>
      <trkpt lat="44.96073" lon="4.25146">
        <ele>1054.8</ele>
        <time>2026-05-07T09:26:07Z</time>
      </trkpt>
      <trkpt lat="44.96074" lon="4.25141">
        <ele>1055.2</ele>
        <time>2026-05-07T09:26:12Z</time>
      </trkpt>
      <trkpt lat="44.96075" lon="4.25137">
        <ele>1055.6</ele>
        <time>2026-05-07T09:26:17Z</time>
      </trkpt>
      <trkpt lat="44.96077" lon="4.25133">
        <ele>1056.3</ele>
        <time>2026-05-07T09:26:22Z</time>
      </trkpt>
      <trkpt lat="44.96079" lon="4.25131">
        <ele>1057</ele>
        <time>2026-05-07T09:26:27Z</time>
      </trkpt>
      <trkpt lat="44.9608" lon="4.25129">
        <ele>1057.4</ele>
        <time>2026-05-07T09:26:32Z</time>
      </trkpt>
      <trkpt lat="44.96082" lon="4.25125">
        <ele>1058.1</ele>
        <time>2026-05-07T09:26:37Z</time>
      </trkpt>
      <trkpt lat="44.96084" lon="4.25121">
        <ele>1058.8</ele>
        <time>2026-05-07T09:26:42Z</time>
      </trkpt>
      <trkpt lat="44.96085" lon="4.25115">
        <ele>1059.3</ele>
        <time>2026-05-07T09:26:47Z</time>
      </trkpt>
      <trkpt lat="44.96087" lon="4.2511">
        <ele>1060.1</ele>
        <time>2026-05-07T09:26:52Z</time>
      </trkpt>
      <trkpt lat="44.96087" lon="4.25105">
        <ele>1060.2</ele>
        <time>2026-05-07T09:26:57Z</time>
      </trkpt>
      <trkpt lat="44.96088" lon="4.25102">
        <ele>1060.6</ele>
        <time>2026-05-07T09:27:02Z</time>
      </trkpt>
      <trkpt lat="44.96087" lon="4.25101">
        <ele>1060.2</ele>
        <time>2026-05-07T09:27:07Z</time>
      </trkpt>
      <trkpt lat="44.96087" lon="4.25101">
        <ele>1060.2</ele>
        <time>2026-05-07T09:27:12Z</time>
      </trkpt>
      <trkpt lat="44.96087" lon="4.25101">
        <ele>1060.2</ele>
        <time>2026-05-07T09:27:17Z</time>
      </trkpt>
      <trkpt lat="44.96087" lon="4.25101">
        <ele>1060.2</ele>
        <time>2026-05-07T09:27:22Z</time>
      </trkpt>
      <trkpt lat="44.96087" lon="4.25101">
        <ele>1060.2</ele>
        <time>2026-05-07T09:27:27Z</time>
      </trkpt>
      <trkpt lat="44.96087" lon="4.25101">
        <ele>1060.2</ele>
        <time>2026-05-07T09:27:32Z</time>
      </trkpt>
      <trkpt lat="44.96091" lon="4.25099">
        <ele>1061.8</ele>
        <time>2026-05-07T09:27:37Z</time>
      </trkpt>
      <trkpt lat="44.96092" lon="4.25101">
        <ele>1062.2</ele>
        <time>2026-05-07T09:27:42Z</time>
      </trkpt>
      <trkpt lat="44.96094" lon="4.25104">
        <ele>1062.9</ele>
        <time>2026-05-07T09:27:47Z</time>
      </trkpt>
      <trkpt lat="44.96094" lon="4.25108">
        <ele>1062.9</ele>
        <time>2026-05-07T09:27:52Z</time>
      </trkpt>
      <trkpt lat="44.96094" lon="4.25112">
        <ele>1062.8</ele>
        <time>2026-05-07T09:27:57Z</time>
      </trkpt>
      <trkpt lat="44.96094" lon="4.25118">
        <ele>1062.7</ele>
        <time>2026-05-07T09:28:02Z</time>
      </trkpt>
      <trkpt lat="44.96094" lon="4.25124">
        <ele>1062.6</ele>
        <time>2026-05-07T09:28:07Z</time>
      </trkpt>
      <trkpt lat="44.96096" lon="4.25131">
        <ele>1063.3</ele>
        <time>2026-05-07T09:28:12Z</time>
      </trkpt>
      <trkpt lat="44.96099" lon="4.25137">
        <ele>1064.3</ele>
        <time>2026-05-07T09:28:17Z</time>
      </trkpt>
      <trkpt lat="44.96102" lon="4.25143">
        <ele>1065.4</ele>
        <time>2026-05-07T09:28:22Z</time>
      </trkpt>
      <trkpt lat="44.96105" lon="4.25147">
        <ele>1066.4</ele>
        <time>2026-05-07T09:28:27Z</time>
      </trkpt>
      <trkpt lat="44.96107" lon="4.25151">
        <ele>1067.1</ele>
        <time>2026-05-07T09:28:32Z</time>
      </trkpt>
      <trkpt lat="44.96108" lon="4.25153">
        <ele>1067.4</ele>
        <time>2026-05-07T09:28:37Z</time>
      </trkpt>
      <trkpt lat="44.96108" lon="4.25153">
        <ele>1067.4</ele>
        <time>2026-05-07T09:28:42Z</time>
      </trkpt>
      <trkpt lat="44.96108" lon="4.25153">
        <ele>1067.4</ele>
        <time>2026-05-07T09:28:47Z</time>
      </trkpt>
      <trkpt lat="44.96108" lon="4.25153">
        <ele>1067.4</ele>
        <time>2026-05-07T09:28:52Z</time>
      </trkpt>
      <trkpt lat="44.96108" lon="4.25153">
        <ele>1067.4</ele>
        <time>2026-05-07T09:28:57Z</time>
      </trkpt>
      <trkpt lat="44.96108" lon="4.25153">
        <ele>1067.4</ele>
        <time>2026-05-07T09:29:02Z</time>
      </trkpt>
      <trkpt lat="44.96108" lon="4.25153">
        <ele>1067.4</ele>
        <time>2026-05-07T09:29:07Z</time>
      </trkpt>
      <trkpt lat="44.9611" lon="4.25158">
        <ele>1068.1</ele>
        <time>2026-05-07T09:29:12Z</time>
      </trkpt>
      <trkpt lat="44.96112" lon="4.25163">
        <ele>1068.7</ele>
        <time>2026-05-07T09:29:17Z</time>
      </trkpt>
      <trkpt lat="44.96114" lon="4.25166">
        <ele>1069.4</ele>
        <time>2026-05-07T09:29:22Z</time>
      </trkpt>
      <trkpt lat="44.96117" lon="4.2517">
        <ele>1070.4</ele>
        <time>2026-05-07T09:29:27Z</time>
      </trkpt>
      <trkpt lat="44.96119" lon="4.25173">
        <ele>1071</ele>
        <time>2026-05-07T09:29:32Z</time>
      </trkpt>
      <trkpt lat="44.96122" lon="4.25178">
        <ele>1071.8</ele>
        <time>2026-05-07T09:29:37Z</time>
      </trkpt>
      <trkpt lat="44.96125" lon="4.25182">
        <ele>1072.8</ele>
        <time>2026-05-07T09:29:42Z</time>
      </trkpt>
      <trkpt lat="44.96128" lon="4.25186">
        <ele>1073.7</ele>
        <time>2026-05-07T09:29:47Z</time>
      </trkpt>
      <trkpt lat="44.9613" lon="4.25192">
        <ele>1074.2</ele>
        <time>2026-05-07T09:29:52Z</time>
      </trkpt>
      <trkpt lat="44.9613" lon="4.25197">
        <ele>1073.9</ele>
        <time>2026-05-07T09:29:57Z</time>
      </trkpt>
      <trkpt lat="44.96131" lon="4.25202">
        <ele>1074.1</ele>
        <time>2026-05-07T09:30:02Z</time>
      </trkpt>
      <trkpt lat="44.96133" lon="4.25208">
        <ele>1074.6</ele>
        <time>2026-05-07T09:30:07Z</time>
      </trkpt>
      <trkpt lat="44.96134" lon="4.25215">
        <ele>1074.7</ele>
        <time>2026-05-07T09:30:12Z</time>
      </trkpt>
      <trkpt lat="44.96136" lon="4.25219">
        <ele>1075.2</ele>
        <time>2026-05-07T09:30:17Z</time>
      </trkpt>
      <trkpt lat="44.96137" lon="4.25223">
        <ele>1075.5</ele>
        <time>2026-05-07T09:30:22Z</time>
      </trkpt>
      <trkpt lat="44.96139" lon="4.25228">
        <ele>1076</ele>
        <time>2026-05-07T09:30:27Z</time>
      </trkpt>
      <trkpt lat="44.96139" lon="4.25233">
        <ele>1075.8</ele>
        <time>2026-05-07T09:30:32Z</time>
      </trkpt>
      <trkpt lat="44.9614" lon="4.25238">
        <ele>1076</ele>
        <time>2026-05-07T09:30:37Z</time>
      </trkpt>
      <trkpt lat="44.96141" lon="4.25242">
        <ele>1076.2</ele>
        <time>2026-05-07T09:30:42Z</time>
      </trkpt>
      <trkpt lat="44.96142" lon="4.25247">
        <ele>1076.4</ele>
        <time>2026-05-07T09:30:47Z</time>
      </trkpt>
      <trkpt lat="44.96143" lon="4.25254">
        <ele>1076.2</ele>
        <time>2026-05-07T09:30:52Z</time>
      </trkpt>
      <trkpt lat="44.96145" lon="4.25261">
        <ele>1076.2</ele>
        <time>2026-05-07T09:30:57Z</time>
      </trkpt>
      <trkpt lat="44.96146" lon="4.25268">
        <ele>1075.8</ele>
        <time>2026-05-07T09:31:02Z</time>
      </trkpt>
      <trkpt lat="44.96147" lon="4.25274">
        <ele>1075.5</ele>
        <time>2026-05-07T09:31:07Z</time>
      </trkpt>
      <trkpt lat="44.96149" lon="4.25282">
        <ele>1075.4</ele>
        <time>2026-05-07T09:31:12Z</time>
      </trkpt>
      <trkpt lat="44.96149" lon="4.25287">
        <ele>1074.8</ele>
        <time>2026-05-07T09:31:17Z</time>
      </trkpt>
      <trkpt lat="44.96149" lon="4.25287">
        <ele>1074.8</ele>
        <time>2026-05-07T09:31:22Z</time>
      </trkpt>
      <trkpt lat="44.96148" lon="4.25288">
        <ele>1074.3</ele>
        <time>2026-05-07T09:31:27Z</time>
      </trkpt>
      <trkpt lat="44.96148" lon="4.25288">
        <ele>1074.3</ele>
        <time>2026-05-07T09:31:32Z</time>
      </trkpt>
      <trkpt lat="44.96148" lon="4.25288">
        <ele>1074.3</ele>
        <time>2026-05-07T09:31:37Z</time>
      </trkpt>
      <trkpt lat="44.96149" lon="4.25291">
        <ele>1074.4</ele>
        <time>2026-05-07T09:31:42Z</time>
      </trkpt>
      <trkpt lat="44.96149" lon="4.25295">
        <ele>1073.9</ele>
        <time>2026-05-07T09:31:47Z</time>
      </trkpt>
      <trkpt lat="44.9615" lon="4.25302">
        <ele>1073.5</ele>
        <time>2026-05-07T09:31:52Z</time>
      </trkpt>
      <trkpt lat="44.9615" lon="4.2531">
        <ele>1072.6</ele>
        <time>2026-05-07T09:31:57Z</time>
      </trkpt>
      <trkpt lat="44.96152" lon="4.25317">
        <ele>1072.7</ele>
        <time>2026-05-07T09:32:02Z</time>
      </trkpt>
      <trkpt lat="44.96154" lon="4.25324">
        <ele>1072.7</ele>
        <time>2026-05-07T09:32:07Z</time>
      </trkpt>
      <trkpt lat="44.96155" lon="4.25331">
        <ele>1072.4</ele>
        <time>2026-05-07T09:32:12Z</time>
      </trkpt>
      <trkpt lat="44.96157" lon="4.25337">
        <ele>1072.6</ele>
        <time>2026-05-07T09:32:17Z</time>
      </trkpt>
      <trkpt lat="44.9616" lon="4.25343">
        <ele>1073.4</ele>
        <time>2026-05-07T09:32:22Z</time>
      </trkpt>
      <trkpt lat="44.96162" lon="4.25349">
        <ele>1073.7</ele>
        <time>2026-05-07T09:32:27Z</time>
      </trkpt>
      <trkpt lat="44.96164" lon="4.25356">
        <ele>1073.9</ele>
        <time>2026-05-07T09:32:32Z</time>
      </trkpt>
      <trkpt lat="44.96166" lon="4.25362">
        <ele>1074.3</ele>
        <time>2026-05-07T09:32:37Z</time>
      </trkpt>
      <trkpt lat="44.96168" lon="4.25368">
        <ele>1074.7</ele>
        <time>2026-05-07T09:32:42Z</time>
      </trkpt>
      <trkpt lat="44.9617" lon="4.25374">
        <ele>1075.2</ele>
        <time>2026-05-07T09:32:47Z</time>
      </trkpt>
      <trkpt lat="44.96173" lon="4.2538">
        <ele>1076.1</ele>
        <time>2026-05-07T09:32:52Z</time>
      </trkpt>
      <trkpt lat="44.96174" lon="4.25382">
        <ele>1076.4</ele>
        <time>2026-05-07T09:32:57Z</time>
      </trkpt>
      <trkpt lat="44.96174" lon="4.25383">
        <ele>1076.3</ele>
        <time>2026-05-07T09:33:02Z</time>
      </trkpt>
      <trkpt lat="44.96174" lon="4.25383">
        <ele>1076.3</ele>
        <time>2026-05-07T09:33:07Z</time>
      </trkpt>
      <trkpt lat="44.96175" lon="4.25385">
        <ele>1076.6</ele>
        <time>2026-05-07T09:33:12Z</time>
      </trkpt>
      <trkpt lat="44.96178" lon="4.2539">
        <ele>1077.6</ele>
        <time>2026-05-07T09:33:17Z</time>
      </trkpt>
      <trkpt lat="44.9618" lon="4.25396">
        <ele>1078.1</ele>
        <time>2026-05-07T09:33:22Z</time>
      </trkpt>
      <trkpt lat="44.96183" lon="4.25403">
        <ele>1078.9</ele>
        <time>2026-05-07T09:33:27Z</time>
      </trkpt>
      <trkpt lat="44.96185" lon="4.25409">
        <ele>1079.3</ele>
        <time>2026-05-07T09:33:32Z</time>
      </trkpt>
      <trkpt lat="44.96188" lon="4.25416">
        <ele>1080</ele>
        <time>2026-05-07T09:33:37Z</time>
      </trkpt>
      <trkpt lat="44.96191" lon="4.25424">
        <ele>1080.5</ele>
        <time>2026-05-07T09:33:42Z</time>
      </trkpt>
      <trkpt lat="44.96193" lon="4.25431">
        <ele>1080.6</ele>
        <time>2026-05-07T09:33:47Z</time>
      </trkpt>
      <trkpt lat="44.96195" lon="4.25438">
        <ele>1080.6</ele>
        <time>2026-05-07T09:33:52Z</time>
      </trkpt>
      <trkpt lat="44.96198" lon="4.25446">
        <ele>1081</ele>
        <time>2026-05-07T09:33:57Z</time>
      </trkpt>
      <trkpt lat="44.96201" lon="4.25451">
        <ele>1081.7</ele>
        <time>2026-05-07T09:34:02Z</time>
      </trkpt>
      <trkpt lat="44.96205" lon="4.25456">
        <ele>1082.8</ele>
        <time>2026-05-07T09:34:07Z</time>
      </trkpt>
      <trkpt lat="44.96205" lon="4.25457">
        <ele>1082.7</ele>
        <time>2026-05-07T09:34:12Z</time>
      </trkpt>
      <trkpt lat="44.96206" lon="4.25458">
        <ele>1083</ele>
        <time>2026-05-07T09:34:17Z</time>
      </trkpt>
      <trkpt lat="44.96206" lon="4.25458">
        <ele>1083</ele>
        <time>2026-05-07T09:34:22Z</time>
      </trkpt>
      <trkpt lat="44.96206" lon="4.25458">
        <ele>1083</ele>
        <time>2026-05-07T09:34:27Z</time>
      </trkpt>
      <trkpt lat="44.96207" lon="4.2546">
        <ele>1083.2</ele>
        <time>2026-05-07T09:34:32Z</time>
      </trkpt>
      <trkpt lat="44.96213" lon="4.25464">
        <ele>1085.3</ele>
        <time>2026-05-07T09:34:37Z</time>
      </trkpt>
      <trkpt lat="44.96219" lon="4.2547">
        <ele>1087.1</ele>
        <time>2026-05-07T09:34:42Z</time>
      </trkpt>
      <trkpt lat="44.96225" lon="4.25476">
        <ele>1088.9</ele>
        <time>2026-05-07T09:34:47Z</time>
      </trkpt>
      <trkpt lat="44.96231" lon="4.25481">
        <ele>1090.8</ele>
        <time>2026-05-07T09:34:52Z</time>
      </trkpt>
      <trkpt lat="44.96235" lon="4.25486">
        <ele>1091.8</ele>
        <time>2026-05-07T09:34:57Z</time>
      </trkpt>
      <trkpt lat="44.96241" lon="4.25489">
        <ele>1093.9</ele>
        <time>2026-05-07T09:35:02Z</time>
      </trkpt>
      <trkpt lat="44.96247" lon="4.2549">
        <ele>1096.3</ele>
        <time>2026-05-07T09:35:07Z</time>
      </trkpt>
      <trkpt lat="44.96252" lon="4.25491">
        <ele>1098.2</ele>
        <time>2026-05-07T09:35:12Z</time>
      </trkpt>
      <trkpt lat="44.96253" lon="4.25496">
        <ele>1097.8</ele>
        <time>2026-05-07T09:35:17Z</time>
      </trkpt>
      <trkpt lat="44.96254" lon="4.25502">
        <ele>1097.2</ele>
        <time>2026-05-07T09:35:22Z</time>
      </trkpt>
      <trkpt lat="44.96255" lon="4.25508">
        <ele>1096.3</ele>
        <time>2026-05-07T09:35:27Z</time>
      </trkpt>
      <trkpt lat="44.96255" lon="4.25516">
        <ele>1094.6</ele>
        <time>2026-05-07T09:35:32Z</time>
      </trkpt>
      <trkpt lat="44.96255" lon="4.25522">
        <ele>1093.3</ele>
        <time>2026-05-07T09:35:37Z</time>
      </trkpt>
      <trkpt lat="44.96255" lon="4.25528">
        <ele>1092.1</ele>
        <time>2026-05-07T09:35:42Z</time>
      </trkpt>
      <trkpt lat="44.96254" lon="4.25534">
        <ele>1090.4</ele>
        <time>2026-05-07T09:35:47Z</time>
      </trkpt>
      <trkpt lat="44.96255" lon="4.2554">
        <ele>1089.5</ele>
        <time>2026-05-07T09:35:52Z</time>
      </trkpt>
      <trkpt lat="44.96256" lon="4.25547">
        <ele>1088.5</ele>
        <time>2026-05-07T09:35:57Z</time>
      </trkpt>
      <trkpt lat="44.96258" lon="4.25552">
        <ele>1088.3</ele>
        <time>2026-05-07T09:36:02Z</time>
      </trkpt>
      <trkpt lat="44.96259" lon="4.25556">
        <ele>1087.9</ele>
        <time>2026-05-07T09:36:07Z</time>
      </trkpt>
      <trkpt lat="44.96262" lon="4.2556">
        <ele>1088.4</ele>
        <time>2026-05-07T09:36:12Z</time>
      </trkpt>
      <trkpt lat="44.96265" lon="4.25563">
        <ele>1089.1</ele>
        <time>2026-05-07T09:36:17Z</time>
      </trkpt>
      <trkpt lat="44.96267" lon="4.25567">
        <ele>1089.2</ele>
        <time>2026-05-07T09:36:22Z</time>
      </trkpt>
      <trkpt lat="44.9627" lon="4.25571">
        <ele>1089.8</ele>
        <time>2026-05-07T09:36:27Z</time>
      </trkpt>
      <trkpt lat="44.96273" lon="4.25576">
        <ele>1090.2</ele>
        <time>2026-05-07T09:36:32Z</time>
      </trkpt>
      <trkpt lat="44.96276" lon="4.25579">
        <ele>1091</ele>
        <time>2026-05-07T09:36:37Z</time>
      </trkpt>
      <trkpt lat="44.9628" lon="4.25581">
        <ele>1092.5</ele>
        <time>2026-05-07T09:36:42Z</time>
      </trkpt>
      <trkpt lat="44.96283" lon="4.25584">
        <ele>1093.3</ele>
        <time>2026-05-07T09:36:47Z</time>
      </trkpt>
      <trkpt lat="44.96288" lon="4.25587">
        <ele>1095.2</ele>
        <time>2026-05-07T09:36:52Z</time>
      </trkpt>
      <trkpt lat="44.96292" lon="4.25591">
        <ele>1096.3</ele>
        <time>2026-05-07T09:36:57Z</time>
      </trkpt>
      <trkpt lat="44.96296" lon="4.25594">
        <ele>1097.7</ele>
        <time>2026-05-07T09:37:02Z</time>
      </trkpt>
      <trkpt lat="44.96301" lon="4.25598">
        <ele>1099.3</ele>
        <time>2026-05-07T09:37:07Z</time>
      </trkpt>
      <trkpt lat="44.96304" lon="4.25601">
        <ele>1100.1</ele>
        <time>2026-05-07T09:37:12Z</time>
      </trkpt>
      <trkpt lat="44.96309" lon="4.25604">
        <ele>1101.9</ele>
        <time>2026-05-07T09:37:17Z</time>
      </trkpt>
      <trkpt lat="44.96313" lon="4.25606">
        <ele>1103.3</ele>
        <time>2026-05-07T09:37:22Z</time>
      </trkpt>
      <trkpt lat="44.96317" lon="4.25609">
        <ele>1104.6</ele>
        <time>2026-05-07T09:37:27Z</time>
      </trkpt>
      <trkpt lat="44.96321" lon="4.25612">
        <ele>1105.9</ele>
        <time>2026-05-07T09:37:32Z</time>
      </trkpt>
      <trkpt lat="44.96324" lon="4.25616">
        <ele>1106.5</ele>
        <time>2026-05-07T09:37:37Z</time>
      </trkpt>
      <trkpt lat="44.96328" lon="4.25619">
        <ele>1107.7</ele>
        <time>2026-05-07T09:37:42Z</time>
      </trkpt>
      <trkpt lat="44.96332" lon="4.25623">
        <ele>1108.8</ele>
        <time>2026-05-07T09:37:47Z</time>
      </trkpt>
      <trkpt lat="44.96336" lon="4.25628">
        <ele>1109.4</ele>
        <time>2026-05-07T09:37:52Z</time>
      </trkpt>
      <trkpt lat="44.96339" lon="4.25633">
        <ele>1109.6</ele>
        <time>2026-05-07T09:37:57Z</time>
      </trkpt>
      <trkpt lat="44.96343" lon="4.25637">
        <ele>1110.3</ele>
        <time>2026-05-07T09:38:02Z</time>
      </trkpt>
      <trkpt lat="44.96346" lon="4.25642">
        <ele>1110.5</ele>
        <time>2026-05-07T09:38:07Z</time>
      </trkpt>
      <trkpt lat="44.9635" lon="4.25647">
        <ele>1111.2</ele>
        <time>2026-05-07T09:38:12Z</time>
      </trkpt>
      <trkpt lat="44.96354" lon="4.25652">
        <ele>1111.9</ele>
        <time>2026-05-07T09:38:17Z</time>
      </trkpt>
      <trkpt lat="44.96357" lon="4.25657">
        <ele>1112.2</ele>
        <time>2026-05-07T09:38:22Z</time>
      </trkpt>
      <trkpt lat="44.9636" lon="4.25661">
        <ele>1112.8</ele>
        <time>2026-05-07T09:38:27Z</time>
      </trkpt>
      <trkpt lat="44.96363" lon="4.25666">
        <ele>1113.2</ele>
        <time>2026-05-07T09:38:32Z</time>
      </trkpt>
      <trkpt lat="44.96365" lon="4.25671">
        <ele>1113.2</ele>
        <time>2026-05-07T09:38:37Z</time>
      </trkpt>
      <trkpt lat="44.96368" lon="4.25676">
        <ele>1113.6</ele>
        <time>2026-05-07T09:38:42Z</time>
      </trkpt>
      <trkpt lat="44.9637" lon="4.2568">
        <ele>1113.8</ele>
        <time>2026-05-07T09:38:47Z</time>
      </trkpt>
      <trkpt lat="44.96373" lon="4.25685">
        <ele>1114.3</ele>
        <time>2026-05-07T09:38:52Z</time>
      </trkpt>
      <trkpt lat="44.96376" lon="4.25689">
        <ele>1114.9</ele>
        <time>2026-05-07T09:38:57Z</time>
      </trkpt>
      <trkpt lat="44.96378" lon="4.25692">
        <ele>1115.4</ele>
        <time>2026-05-07T09:39:02Z</time>
      </trkpt>
      <trkpt lat="44.9638" lon="4.25695">
        <ele>1115.8</ele>
        <time>2026-05-07T09:39:07Z</time>
      </trkpt>
      <trkpt lat="44.9638" lon="4.25696">
        <ele>1115.6</ele>
        <time>2026-05-07T09:39:12Z</time>
      </trkpt>
      <trkpt lat="44.9638" lon="4.25696">
        <ele>1115.6</ele>
        <time>2026-05-07T09:39:17Z</time>
      </trkpt>
      <trkpt lat="44.96382" lon="4.25701">
        <ele>1115.8</ele>
        <time>2026-05-07T09:39:22Z</time>
      </trkpt>
      <trkpt lat="44.96384" lon="4.25705">
        <ele>1116.1</ele>
        <time>2026-05-07T09:39:27Z</time>
      </trkpt>
      <trkpt lat="44.96386" lon="4.2571">
        <ele>1116.3</ele>
        <time>2026-05-07T09:39:32Z</time>
      </trkpt>
      <trkpt lat="44.96389" lon="4.25712">
        <ele>1117.4</ele>
        <time>2026-05-07T09:39:37Z</time>
      </trkpt>
      <trkpt lat="44.9639" lon="4.25715">
        <ele>1117.4</ele>
        <time>2026-05-07T09:39:42Z</time>
      </trkpt>
      <trkpt lat="44.9639" lon="4.25715">
        <ele>1117.4</ele>
        <time>2026-05-07T09:39:47Z</time>
      </trkpt>
      <trkpt lat="44.9639" lon="4.25715">
        <ele>1117.4</ele>
        <time>2026-05-07T09:39:52Z</time>
      </trkpt>
      <trkpt lat="44.96392" lon="4.25718">
        <ele>1117.9</ele>
        <time>2026-05-07T09:39:57Z</time>
      </trkpt>
      <trkpt lat="44.96393" lon="4.25723">
        <ele>1117.7</ele>
        <time>2026-05-07T09:40:02Z</time>
      </trkpt>
      <trkpt lat="44.96397" lon="4.25727">
        <ele>1119.1</ele>
        <time>2026-05-07T09:40:07Z</time>
      </trkpt>
      <trkpt lat="44.964" lon="4.2573">
        <ele>1120.1</ele>
        <time>2026-05-07T09:40:12Z</time>
      </trkpt>
      <trkpt lat="44.96401" lon="4.25731">
        <ele>1120.5</ele>
        <time>2026-05-07T09:40:17Z</time>
      </trkpt>
      <trkpt lat="44.96403" lon="4.25733">
        <ele>1121.2</ele>
        <time>2026-05-07T09:40:22Z</time>
      </trkpt>
      <trkpt lat="44.96407" lon="4.25737">
        <ele>1122.7</ele>
        <time>2026-05-07T09:40:27Z</time>
      </trkpt>
      <trkpt lat="44.96411" lon="4.2574">
        <ele>1124.3</ele>
        <time>2026-05-07T09:40:32Z</time>
      </trkpt>
      <trkpt lat="44.96415" lon="4.25743">
        <ele>1125.9</ele>
        <time>2026-05-07T09:40:37Z</time>
      </trkpt>
      <trkpt lat="44.96421" lon="4.25745">
        <ele>1128</ele>
        <time>2026-05-07T09:40:42Z</time>
      </trkpt>
      <trkpt lat="44.96427" lon="4.25746">
        <ele>1129.9</ele>
        <time>2026-05-07T09:40:47Z</time>
      </trkpt>
      <trkpt lat="44.96431" lon="4.25749">
        <ele>1130.9</ele>
        <time>2026-05-07T09:40:52Z</time>
      </trkpt>
      <trkpt lat="44.96437" lon="4.25751">
        <ele>1132.7</ele>
        <time>2026-05-07T09:40:57Z</time>
      </trkpt>
      <trkpt lat="44.96441" lon="4.25752">
        <ele>1134</ele>
        <time>2026-05-07T09:41:02Z</time>
      </trkpt>
      <trkpt lat="44.96443" lon="4.25749">
        <ele>1134.9</ele>
        <time>2026-05-07T09:41:07Z</time>
      </trkpt>
      <trkpt lat="44.96441" lon="4.25745">
        <ele>1134.7</ele>
        <time>2026-05-07T09:41:12Z</time>
      </trkpt>
      <trkpt lat="44.96437" lon="4.25741">
        <ele>1133.8</ele>
        <time>2026-05-07T09:41:17Z</time>
      </trkpt>
      <trkpt lat="44.96435" lon="4.25739">
        <ele>1133.3</ele>
        <time>2026-05-07T09:41:22Z</time>
      </trkpt>
      <trkpt lat="44.9643" lon="4.25734">
        <ele>1132.1</ele>
        <time>2026-05-07T09:41:27Z</time>
      </trkpt>
      <trkpt lat="44.96427" lon="4.25728">
        <ele>1131.8</ele>
        <time>2026-05-07T09:41:32Z</time>
      </trkpt>
      <trkpt lat="44.96425" lon="4.25721">
        <ele>1131.9</ele>
        <time>2026-05-07T09:41:37Z</time>
      </trkpt>
      <trkpt lat="44.96424" lon="4.25719">
        <ele>1131.7</ele>
        <time>2026-05-07T09:41:42Z</time>
      </trkpt>
      <trkpt lat="44.96422" lon="4.25717">
        <ele>1131.3</ele>
        <time>2026-05-07T09:41:47Z</time>
      </trkpt>
      <trkpt lat="44.96421" lon="4.25708">
        <ele>1131.9</ele>
        <time>2026-05-07T09:41:52Z</time>
      </trkpt>
      <trkpt lat="44.96418" lon="4.25697">
        <ele>1132.2</ele>
        <time>2026-05-07T09:41:57Z</time>
      </trkpt>
      <trkpt lat="44.96416" lon="4.25688">
        <ele>1132.4</ele>
        <time>2026-05-07T09:42:02Z</time>
      </trkpt>
      <trkpt lat="44.96415" lon="4.25679">
        <ele>1133</ele>
        <time>2026-05-07T09:42:07Z</time>
      </trkpt>
      <trkpt lat="44.96414" lon="4.2567">
        <ele>1133.5</ele>
        <time>2026-05-07T09:42:12Z</time>
      </trkpt>
      <trkpt lat="44.96413" lon="4.2566">
        <ele>1134.2</ele>
        <time>2026-05-07T09:42:17Z</time>
      </trkpt>
      <trkpt lat="44.96412" lon="4.25652">
        <ele>1134.6</ele>
        <time>2026-05-07T09:42:22Z</time>
      </trkpt>
      <trkpt lat="44.96412" lon="4.25644">
        <ele>1135.4</ele>
        <time>2026-05-07T09:42:27Z</time>
      </trkpt>
      <trkpt lat="44.96411" lon="4.25633">
        <ele>1136.1</ele>
        <time>2026-05-07T09:42:32Z</time>
      </trkpt>
      <trkpt lat="44.96412" lon="4.25624">
        <ele>1137.4</ele>
        <time>2026-05-07T09:42:37Z</time>
      </trkpt>
      <trkpt lat="44.96411" lon="4.25615">
        <ele>1138</ele>
        <time>2026-05-07T09:42:42Z</time>
      </trkpt>
      <trkpt lat="44.96409" lon="4.25604">
        <ele>1138.4</ele>
        <time>2026-05-07T09:42:47Z</time>
      </trkpt>
      <trkpt lat="44.96407" lon="4.25596">
        <ele>1138.6</ele>
        <time>2026-05-07T09:42:52Z</time>
      </trkpt>
      <trkpt lat="44.96407" lon="4.25588">
        <ele>1139.5</ele>
        <time>2026-05-07T09:42:57Z</time>
      </trkpt>
      <trkpt lat="44.96405" lon="4.25579">
        <ele>1139.8</ele>
        <time>2026-05-07T09:43:02Z</time>
      </trkpt>
      <trkpt lat="44.96404" lon="4.25569">
        <ele>1140.4</ele>
        <time>2026-05-07T09:43:07Z</time>
      </trkpt>
      <trkpt lat="44.96404" lon="4.25558">
        <ele>1141.4</ele>
        <time>2026-05-07T09:43:12Z</time>
      </trkpt>
      <trkpt lat="44.96403" lon="4.25549">
        <ele>1142</ele>
        <time>2026-05-07T09:43:17Z</time>
      </trkpt>
      <trkpt lat="44.96402" lon="4.25541">
        <ele>1142.4</ele>
        <time>2026-05-07T09:43:22Z</time>
      </trkpt>
      <trkpt lat="44.96401" lon="4.25531">
        <ele>1143.1</ele>
        <time>2026-05-07T09:43:27Z</time>
      </trkpt>
      <trkpt lat="44.964" lon="4.25519">
        <ele>1144</ele>
        <time>2026-05-07T09:43:32Z</time>
      </trkpt>
      <trkpt lat="44.96399" lon="4.25508">
        <ele>1144.8</ele>
        <time>2026-05-07T09:43:37Z</time>
      </trkpt>
      <trkpt lat="44.964" lon="4.255">
        <ele>1145.8</ele>
        <time>2026-05-07T09:43:42Z</time>
      </trkpt>
      <trkpt lat="44.96399" lon="4.25491">
        <ele>1146.4</ele>
        <time>2026-05-07T09:43:47Z</time>
      </trkpt>
      <trkpt lat="44.96399" lon="4.25482">
        <ele>1147.2</ele>
        <time>2026-05-07T09:43:52Z</time>
      </trkpt>
      <trkpt lat="44.96398" lon="4.25472">
        <ele>1147.8</ele>
        <time>2026-05-07T09:43:57Z</time>
      </trkpt>
      <trkpt lat="44.96398" lon="4.25461">
        <ele>1148.8</ele>
        <time>2026-05-07T09:44:02Z</time>
      </trkpt>
      <trkpt lat="44.96396" lon="4.25449">
        <ele>1149.5</ele>
        <time>2026-05-07T09:44:07Z</time>
      </trkpt>
      <trkpt lat="44.96393" lon="4.25439">
        <ele>1149.9</ele>
        <time>2026-05-07T09:44:12Z</time>
      </trkpt>
      <trkpt lat="44.96393" lon="4.25428">
        <ele>1150.9</ele>
        <time>2026-05-07T09:44:17Z</time>
      </trkpt>
      <trkpt lat="44.96392" lon="4.25417">
        <ele>1151.8</ele>
        <time>2026-05-07T09:44:22Z</time>
      </trkpt>
      <trkpt lat="44.9639" lon="4.25408">
        <ele>1152.2</ele>
        <time>2026-05-07T09:44:27Z</time>
      </trkpt>
      <trkpt lat="44.96387" lon="4.25399">
        <ele>1152.5</ele>
        <time>2026-05-07T09:44:32Z</time>
      </trkpt>
      <trkpt lat="44.96385" lon="4.25389">
        <ele>1153</ele>
        <time>2026-05-07T09:44:37Z</time>
      </trkpt>
      <trkpt lat="44.96384" lon="4.2538">
        <ele>1153.6</ele>
        <time>2026-05-07T09:44:42Z</time>
      </trkpt>
      <trkpt lat="44.96383" lon="4.2537">
        <ele>1154.3</ele>
        <time>2026-05-07T09:44:47Z</time>
      </trkpt>
      <trkpt lat="44.96381" lon="4.25363">
        <ele>1154.5</ele>
        <time>2026-05-07T09:44:52Z</time>
      </trkpt>
      <trkpt lat="44.96379" lon="4.25353">
        <ele>1155</ele>
        <time>2026-05-07T09:44:57Z</time>
      </trkpt>
      <trkpt lat="44.96376" lon="4.25344">
        <ele>1155.3</ele>
        <time>2026-05-07T09:45:02Z</time>
      </trkpt>
      <trkpt lat="44.96372" lon="4.25336">
        <ele>1155.3</ele>
        <time>2026-05-07T09:45:07Z</time>
      </trkpt>
      <trkpt lat="44.96369" lon="4.25331">
        <ele>1155</ele>
        <time>2026-05-07T09:45:12Z</time>
      </trkpt>
      <trkpt lat="44.96366" lon="4.25327">
        <ele>1154.6</ele>
        <time>2026-05-07T09:45:17Z</time>
      </trkpt>
      <trkpt lat="44.96362" lon="4.25321">
        <ele>1154.1</ele>
        <time>2026-05-07T09:45:22Z</time>
      </trkpt>
      <trkpt lat="44.96358" lon="4.25315">
        <ele>1153.5</ele>
        <time>2026-05-07T09:45:27Z</time>
      </trkpt>
      <trkpt lat="44.96357" lon="4.25308">
        <ele>1153.5</ele>
        <time>2026-05-07T09:45:32Z</time>
      </trkpt>
      <trkpt lat="44.96355" lon="4.25301">
        <ele>1153.2</ele>
        <time>2026-05-07T09:45:37Z</time>
      </trkpt>
      <trkpt lat="44.96352" lon="4.25294">
        <ele>1152.8</ele>
        <time>2026-05-07T09:45:42Z</time>
      </trkpt>
      <trkpt lat="44.9635" lon="4.25286">
        <ele>1152.6</ele>
        <time>2026-05-07T09:45:47Z</time>
      </trkpt>
      <trkpt lat="44.96349" lon="4.25277">
        <ele>1152.6</ele>
        <time>2026-05-07T09:45:52Z</time>
      </trkpt>
      <trkpt lat="44.96348" lon="4.25269">
        <ele>1152.5</ele>
        <time>2026-05-07T09:45:57Z</time>
      </trkpt>
      <trkpt lat="44.96346" lon="4.2526">
        <ele>1152.3</ele>
        <time>2026-05-07T09:46:02Z</time>
      </trkpt>
      <trkpt lat="44.96344" lon="4.2525">
        <ele>1152</ele>
        <time>2026-05-07T09:46:07Z</time>
      </trkpt>
      <trkpt lat="44.96344" lon="4.25242">
        <ele>1152</ele>
        <time>2026-05-07T09:46:12Z</time>
      </trkpt>
      <trkpt lat="44.96345" lon="4.25232">
        <ele>1152</ele>
        <time>2026-05-07T09:46:17Z</time>
      </trkpt>
      <trkpt lat="44.96347" lon="4.25224">
        <ele>1152.3</ele>
        <time>2026-05-07T09:46:22Z</time>
      </trkpt>
      <trkpt lat="44.96349" lon="4.25215">
        <ele>1152.6</ele>
        <time>2026-05-07T09:46:27Z</time>
      </trkpt>
      <trkpt lat="44.96352" lon="4.25208">
        <ele>1153.1</ele>
        <time>2026-05-07T09:46:32Z</time>
      </trkpt>
      <trkpt lat="44.96356" lon="4.25202">
        <ele>1153.8</ele>
        <time>2026-05-07T09:46:37Z</time>
      </trkpt>
      <trkpt lat="44.96359" lon="4.25196">
        <ele>1154.3</ele>
        <time>2026-05-07T09:46:42Z</time>
      </trkpt>
      <trkpt lat="44.96362" lon="4.2519">
        <ele>1154.8</ele>
        <time>2026-05-07T09:46:47Z</time>
      </trkpt>
      <trkpt lat="44.96364" lon="4.25182">
        <ele>1155.1</ele>
        <time>2026-05-07T09:46:52Z</time>
      </trkpt>
      <trkpt lat="44.96367" lon="4.25175">
        <ele>1155.6</ele>
        <time>2026-05-07T09:46:57Z</time>
      </trkpt>
      <trkpt lat="44.9637" lon="4.25167">
        <ele>1156</ele>
        <time>2026-05-07T09:47:02Z</time>
      </trkpt>
      <trkpt lat="44.96372" lon="4.25162">
        <ele>1156.4</ele>
        <time>2026-05-07T09:47:07Z</time>
      </trkpt>
      <trkpt lat="44.96372" lon="4.25157">
        <ele>1156.4</ele>
        <time>2026-05-07T09:47:12Z</time>
      </trkpt>
      <trkpt lat="44.96372" lon="4.25157">
        <ele>1156.4</ele>
        <time>2026-05-07T09:47:17Z</time>
      </trkpt>
      <trkpt lat="44.96374" lon="4.2515">
        <ele>1156.8</ele>
        <time>2026-05-07T09:47:22Z</time>
      </trkpt>
      <trkpt lat="44.96375" lon="4.25143">
        <ele>1157</ele>
        <time>2026-05-07T09:47:27Z</time>
      </trkpt>
      <trkpt lat="44.96374" lon="4.2514">
        <ele>1156.8</ele>
        <time>2026-05-07T09:47:32Z</time>
      </trkpt>
      <trkpt lat="44.96374" lon="4.2514">
        <ele>1156.8</ele>
        <time>2026-05-07T09:47:37Z</time>
      </trkpt>
      <trkpt lat="44.96375" lon="4.25139">
        <ele>1157</ele>
        <time>2026-05-07T09:47:42Z</time>
      </trkpt>
      <trkpt lat="44.96377" lon="4.25135">
        <ele>1157.4</ele>
        <time>2026-05-07T09:47:47Z</time>
      </trkpt>
      <trkpt lat="44.96379" lon="4.25128">
        <ele>1157.8</ele>
        <time>2026-05-07T09:47:52Z</time>
      </trkpt>
      <trkpt lat="44.96381" lon="4.25124">
        <ele>1158.2</ele>
        <time>2026-05-07T09:47:57Z</time>
      </trkpt>
      <trkpt lat="44.96382" lon="4.25118">
        <ele>1158.3</ele>
        <time>2026-05-07T09:48:02Z</time>
      </trkpt>
      <trkpt lat="44.96383" lon="4.25116">
        <ele>1158.5</ele>
        <time>2026-05-07T09:48:07Z</time>
      </trkpt>
      <trkpt lat="44.96382" lon="4.25116">
        <ele>1158.3</ele>
        <time>2026-05-07T09:48:12Z</time>
      </trkpt>
      <trkpt lat="44.96382" lon="4.25116">
        <ele>1158.3</ele>
        <time>2026-05-07T09:48:17Z</time>
      </trkpt>
      <trkpt lat="44.96382" lon="4.25116">
        <ele>1158.3</ele>
        <time>2026-05-07T09:48:22Z</time>
      </trkpt>
      <trkpt lat="44.96382" lon="4.25116">
        <ele>1158.3</ele>
        <time>2026-05-07T09:48:27Z</time>
      </trkpt>
      <trkpt lat="44.96382" lon="4.25116">
        <ele>1158.3</ele>
        <time>2026-05-07T09:48:32Z</time>
      </trkpt>
      <trkpt lat="44.96382" lon="4.25116">
        <ele>1158.3</ele>
        <time>2026-05-07T09:48:37Z</time>
      </trkpt>
      <trkpt lat="44.96382" lon="4.25116">
        <ele>1158.3</ele>
        <time>2026-05-07T09:48:42Z</time>
      </trkpt>
      <trkpt lat="44.96382" lon="4.25116">
        <ele>1158.3</ele>
        <time>2026-05-07T09:48:47Z</time>
      </trkpt>
      <trkpt lat="44.96382" lon="4.25116">
        <ele>1158.3</ele>
        <time>2026-05-07T09:48:52Z</time>
      </trkpt>
      <trkpt lat="44.96382" lon="4.25116">
        <ele>1158.3</ele>
        <time>2026-05-07T09:48:57Z</time>
      </trkpt>
      <trkpt lat="44.96382" lon="4.25116">
        <ele>1158.3</ele>
        <time>2026-05-07T09:49:02Z</time>
      </trkpt>
      <trkpt lat="44.96382" lon="4.25116">
        <ele>1158.3</ele>
        <time>2026-05-07T09:49:07Z</time>
      </trkpt>
      <trkpt lat="44.96382" lon="4.25116">
        <ele>1158.3</ele>
        <time>2026-05-07T09:49:12Z</time>
      </trkpt>
      <trkpt lat="44.96382" lon="4.25116">
        <ele>1158.3</ele>
        <time>2026-05-07T09:49:17Z</time>
      </trkpt>
      <trkpt lat="44.96382" lon="4.25116">
        <ele>1158.3</ele>
        <time>2026-05-07T09:49:22Z</time>
      </trkpt>
      <trkpt lat="44.96382" lon="4.25116">
        <ele>1158.3</ele>
        <time>2026-05-07T09:49:27Z</time>
      </trkpt>
      <trkpt lat="44.96383" lon="4.25112">
        <ele>1158.5</ele>
        <time>2026-05-07T09:49:32Z</time>
      </trkpt>
      <trkpt lat="44.96385" lon="4.25107">
        <ele>1158.9</ele>
        <time>2026-05-07T09:49:37Z</time>
      </trkpt>
      <trkpt lat="44.96387" lon="4.25104">
        <ele>1159.3</ele>
        <time>2026-05-07T09:49:42Z</time>
      </trkpt>
      <trkpt lat="44.9639" lon="4.25096">
        <ele>1159.9</ele>
        <time>2026-05-07T09:49:47Z</time>
      </trkpt>
      <trkpt lat="44.9639" lon="4.25094">
        <ele>1159.9</ele>
        <time>2026-05-07T09:49:52Z</time>
      </trkpt>
      <trkpt lat="44.9639" lon="4.25094">
        <ele>1159.9</ele>
        <time>2026-05-07T09:49:57Z</time>
      </trkpt>
      <trkpt lat="44.9639" lon="4.25093">
        <ele>1159.9</ele>
        <time>2026-05-07T09:50:02Z</time>
      </trkpt>
      <trkpt lat="44.96393" lon="4.25088">
        <ele>1160.5</ele>
        <time>2026-05-07T09:50:07Z</time>
      </trkpt>
      <trkpt lat="44.96395" lon="4.25084">
        <ele>1160.8</ele>
        <time>2026-05-07T09:50:12Z</time>
      </trkpt>
      <trkpt lat="44.96397" lon="4.2508">
        <ele>1160.9</ele>
        <time>2026-05-07T09:50:17Z</time>
      </trkpt>
      <trkpt lat="44.96401" lon="4.25076">
        <ele>1161.3</ele>
        <time>2026-05-07T09:50:22Z</time>
      </trkpt>
      <trkpt lat="44.96404" lon="4.25073">
        <ele>1161.6</ele>
        <time>2026-05-07T09:50:27Z</time>
      </trkpt>
      <trkpt lat="44.96405" lon="4.25069">
        <ele>1161.4</ele>
        <time>2026-05-07T09:50:32Z</time>
      </trkpt>
      <trkpt lat="44.96407" lon="4.25066">
        <ele>1161.5</ele>
        <time>2026-05-07T09:50:37Z</time>
      </trkpt>
      <trkpt lat="44.9641" lon="4.25063">
        <ele>1161.8</ele>
        <time>2026-05-07T09:50:42Z</time>
      </trkpt>
      <trkpt lat="44.96412" lon="4.25059">
        <ele>1161.8</ele>
        <time>2026-05-07T09:50:47Z</time>
      </trkpt>
      <trkpt lat="44.96414" lon="4.25055">
        <ele>1161.8</ele>
        <time>2026-05-07T09:50:52Z</time>
      </trkpt>
      <trkpt lat="44.96417" lon="4.25051">
        <ele>1162</ele>
        <time>2026-05-07T09:50:57Z</time>
      </trkpt>
      <trkpt lat="44.9642" lon="4.25045">
        <ele>1161.9</ele>
        <time>2026-05-07T09:51:02Z</time>
      </trkpt>
      <trkpt lat="44.96422" lon="4.2504">
        <ele>1161.8</ele>
        <time>2026-05-07T09:51:07Z</time>
      </trkpt>
      <trkpt lat="44.96424" lon="4.25035">
        <ele>1161.7</ele>
        <time>2026-05-07T09:51:12Z</time>
      </trkpt>
      <trkpt lat="44.96426" lon="4.25029">
        <ele>1161.5</ele>
        <time>2026-05-07T09:51:17Z</time>
      </trkpt>
      <trkpt lat="44.96428" lon="4.25027">
        <ele>1161.7</ele>
        <time>2026-05-07T09:51:22Z</time>
      </trkpt>
      <trkpt lat="44.9643" lon="4.25022">
        <ele>1161.6</ele>
        <time>2026-05-07T09:51:27Z</time>
      </trkpt>
      <trkpt lat="44.96431" lon="4.25017">
        <ele>1161.3</ele>
        <time>2026-05-07T09:51:32Z</time>
      </trkpt>
      <trkpt lat="44.96433" lon="4.25012">
        <ele>1161.2</ele>
        <time>2026-05-07T09:51:37Z</time>
      </trkpt>
      <trkpt lat="44.96435" lon="4.25009">
        <ele>1161.3</ele>
        <time>2026-05-07T09:51:42Z</time>
      </trkpt>
      <trkpt lat="44.96434" lon="4.25008">
        <ele>1161.1</ele>
        <time>2026-05-07T09:51:47Z</time>
      </trkpt>
      <trkpt lat="44.96435" lon="4.25005">
        <ele>1161</ele>
        <time>2026-05-07T09:51:52Z</time>
      </trkpt>
      <trkpt lat="44.96438" lon="4.24998">
        <ele>1160.9</ele>
        <time>2026-05-07T09:51:57Z</time>
      </trkpt>
      <trkpt lat="44.96441" lon="4.24993">
        <ele>1161</ele>
        <time>2026-05-07T09:52:02Z</time>
      </trkpt>
      <trkpt lat="44.96443" lon="4.24987">
        <ele>1160.8</ele>
        <time>2026-05-07T09:52:07Z</time>
      </trkpt>
      <trkpt lat="44.96446" lon="4.24982">
        <ele>1161</ele>
        <time>2026-05-07T09:52:12Z</time>
      </trkpt>
      <trkpt lat="44.96448" lon="4.24978">
        <ele>1161</ele>
        <time>2026-05-07T09:52:17Z</time>
      </trkpt>
      <trkpt lat="44.96452" lon="4.24975">
        <ele>1161.6</ele>
        <time>2026-05-07T09:52:22Z</time>
      </trkpt>
      <trkpt lat="44.96456" lon="4.24972">
        <ele>1162.2</ele>
        <time>2026-05-07T09:52:27Z</time>
      </trkpt>
      <trkpt lat="44.96459" lon="4.24968">
        <ele>1162.5</ele>
        <time>2026-05-07T09:52:32Z</time>
      </trkpt>
      <trkpt lat="44.96463" lon="4.24965">
        <ele>1163.1</ele>
        <time>2026-05-07T09:52:37Z</time>
      </trkpt>
      <trkpt lat="44.96467" lon="4.24963">
        <ele>1163.7</ele>
        <time>2026-05-07T09:52:42Z</time>
      </trkpt>
      <trkpt lat="44.96472" lon="4.24961">
        <ele>1164.7</ele>
        <time>2026-05-07T09:52:47Z</time>
      </trkpt>
      <trkpt lat="44.96476" lon="4.24959">
        <ele>1165.4</ele>
        <time>2026-05-07T09:52:52Z</time>
      </trkpt>
      <trkpt lat="44.96479" lon="4.24958">
        <ele>1165.9</ele>
        <time>2026-05-07T09:52:57Z</time>
      </trkpt>
      <trkpt lat="44.96483" lon="4.24957">
        <ele>1166.7</ele>
        <time>2026-05-07T09:53:02Z</time>
      </trkpt>
      <trkpt lat="44.96486" lon="4.24955">
        <ele>1167.2</ele>
        <time>2026-05-07T09:53:07Z</time>
      </trkpt>
      <trkpt lat="44.96489" lon="4.24953">
        <ele>1167.8</ele>
        <time>2026-05-07T09:53:12Z</time>
      </trkpt>
      <trkpt lat="44.96492" lon="4.24953">
        <ele>1168.4</ele>
        <time>2026-05-07T09:53:17Z</time>
      </trkpt>
      <trkpt lat="44.96495" lon="4.24952">
        <ele>1169</ele>
        <time>2026-05-07T09:53:22Z</time>
      </trkpt>
      <trkpt lat="44.96498" lon="4.24951">
        <ele>1169.6</ele>
        <time>2026-05-07T09:53:27Z</time>
      </trkpt>
      <trkpt lat="44.96502" lon="4.2495">
        <ele>1170.4</ele>
        <time>2026-05-07T09:53:32Z</time>
      </trkpt>
      <trkpt lat="44.96506" lon="4.24948">
        <ele>1171</ele>
        <time>2026-05-07T09:53:37Z</time>
      </trkpt>
      <trkpt lat="44.9651" lon="4.24946">
        <ele>1171.7</ele>
        <time>2026-05-07T09:53:42Z</time>
      </trkpt>
      <trkpt lat="44.96513" lon="4.24946">
        <ele>1172.2</ele>
        <time>2026-05-07T09:53:47Z</time>
      </trkpt>
      <trkpt lat="44.96517" lon="4.24945">
        <ele>1173</ele>
        <time>2026-05-07T09:53:52Z</time>
      </trkpt>
      <trkpt lat="44.9652" lon="4.24944">
        <ele>1173.5</ele>
        <time>2026-05-07T09:53:57Z</time>
      </trkpt>
      <trkpt lat="44.96524" lon="4.24944">
        <ele>1174.3</ele>
        <time>2026-05-07T09:54:02Z</time>
      </trkpt>
      <trkpt lat="44.96526" lon="4.24942">
        <ele>1174.5</ele>
        <time>2026-05-07T09:54:07Z</time>
      </trkpt>
      <trkpt lat="44.96526" lon="4.24942">
        <ele>1174.5</ele>
        <time>2026-05-07T09:54:12Z</time>
      </trkpt>
      <trkpt lat="44.96526" lon="4.24942">
        <ele>1174.5</ele>
        <time>2026-05-07T09:54:17Z</time>
      </trkpt>
      <trkpt lat="44.96526" lon="4.24942">
        <ele>1174.5</ele>
        <time>2026-05-07T09:54:22Z</time>
      </trkpt>
      <trkpt lat="44.96526" lon="4.24942">
        <ele>1174.5</ele>
        <time>2026-05-07T09:54:27Z</time>
      </trkpt>
      <trkpt lat="44.96526" lon="4.24942">
        <ele>1174.5</ele>
        <time>2026-05-07T09:54:32Z</time>
      </trkpt>
      <trkpt lat="44.96526" lon="4.24942">
        <ele>1174.5</ele>
        <time>2026-05-07T09:54:37Z</time>
      </trkpt>
      <trkpt lat="44.96526" lon="4.24942">
        <ele>1174.5</ele>
        <time>2026-05-07T09:54:42Z</time>
      </trkpt>
      <trkpt lat="44.96529" lon="4.24943">
        <ele>1175.2</ele>
        <time>2026-05-07T09:54:47Z</time>
      </trkpt>
      <trkpt lat="44.96532" lon="4.24942">
        <ele>1175.7</ele>
        <time>2026-05-07T09:54:52Z</time>
      </trkpt>
      <trkpt lat="44.96536" lon="4.24941">
        <ele>1176.4</ele>
        <time>2026-05-07T09:54:57Z</time>
      </trkpt>
      <trkpt lat="44.96539" lon="4.24939">
        <ele>1176.9</ele>
        <time>2026-05-07T09:55:02Z</time>
      </trkpt>
      <trkpt lat="44.96542" lon="4.24938">
        <ele>1177.5</ele>
        <time>2026-05-07T09:55:07Z</time>
      </trkpt>
      <trkpt lat="44.96546" lon="4.24936">
        <ele>1178.2</ele>
        <time>2026-05-07T09:55:12Z</time>
      </trkpt>
      <trkpt lat="44.9655" lon="4.24936">
        <ele>1178.9</ele>
        <time>2026-05-07T09:55:17Z</time>
      </trkpt>
      <trkpt lat="44.96553" lon="4.24935">
        <ele>1179.5</ele>
        <time>2026-05-07T09:55:22Z</time>
      </trkpt>
      <trkpt lat="44.96555" lon="4.24932">
        <ele>1179.8</ele>
        <time>2026-05-07T09:55:27Z</time>
      </trkpt>
      <trkpt lat="44.96558" lon="4.24928">
        <ele>1180.2</ele>
        <time>2026-05-07T09:55:32Z</time>
      </trkpt>
      <trkpt lat="44.96561" lon="4.24925">
        <ele>1180.7</ele>
        <time>2026-05-07T09:55:37Z</time>
      </trkpt>
      <trkpt lat="44.96563" lon="4.24923">
        <ele>1181.1</ele>
        <time>2026-05-07T09:55:42Z</time>
      </trkpt>
      <trkpt lat="44.96565" lon="4.2492">
        <ele>1181.4</ele>
        <time>2026-05-07T09:55:47Z</time>
      </trkpt>
      <trkpt lat="44.96568" lon="4.24917">
        <ele>1181.9</ele>
        <time>2026-05-07T09:55:52Z</time>
      </trkpt>
      <trkpt lat="44.96571" lon="4.24914">
        <ele>1182.4</ele>
        <time>2026-05-07T09:55:57Z</time>
      </trkpt>
      <trkpt lat="44.96574" lon="4.24911">
        <ele>1183</ele>
        <time>2026-05-07T09:56:02Z</time>
      </trkpt>
      <trkpt lat="44.96576" lon="4.24908">
        <ele>1183.3</ele>
        <time>2026-05-07T09:56:07Z</time>
      </trkpt>
      <trkpt lat="44.96579" lon="4.24903">
        <ele>1183.8</ele>
        <time>2026-05-07T09:56:12Z</time>
      </trkpt>
      <trkpt lat="44.96582" lon="4.249">
        <ele>1184.3</ele>
        <time>2026-05-07T09:56:17Z</time>
      </trkpt>
      <trkpt lat="44.96585" lon="4.24895">
        <ele>1184.7</ele>
        <time>2026-05-07T09:56:22Z</time>
      </trkpt>
      <trkpt lat="44.96588" lon="4.2489">
        <ele>1185</ele>
        <time>2026-05-07T09:56:27Z</time>
      </trkpt>
      <trkpt lat="44.9659" lon="4.24885">
        <ele>1185.2</ele>
        <time>2026-05-07T09:56:32Z</time>
      </trkpt>
      <trkpt lat="44.96594" lon="4.24881">
        <ele>1185.7</ele>
        <time>2026-05-07T09:56:37Z</time>
      </trkpt>
      <trkpt lat="44.96597" lon="4.24876">
        <ele>1186</ele>
        <time>2026-05-07T09:56:42Z</time>
      </trkpt>
      <trkpt lat="44.966" lon="4.24871">
        <ele>1186.3</ele>
        <time>2026-05-07T09:56:47Z</time>
      </trkpt>
      <trkpt lat="44.96603" lon="4.24865">
        <ele>1186.6</ele>
        <time>2026-05-07T09:56:52Z</time>
      </trkpt>
      <trkpt lat="44.96606" lon="4.24859">
        <ele>1186.9</ele>
        <time>2026-05-07T09:56:57Z</time>
      </trkpt>
      <trkpt lat="44.96609" lon="4.24854">
        <ele>1187.2</ele>
        <time>2026-05-07T09:57:02Z</time>
      </trkpt>
      <trkpt lat="44.96612" lon="4.24847">
        <ele>1187.5</ele>
        <time>2026-05-07T09:57:07Z</time>
      </trkpt>
      <trkpt lat="44.96614" lon="4.24841">
        <ele>1187.6</ele>
        <time>2026-05-07T09:57:12Z</time>
      </trkpt>
      <trkpt lat="44.96617" lon="4.24835">
        <ele>1187.9</ele>
        <time>2026-05-07T09:57:17Z</time>
      </trkpt>
      <trkpt lat="44.9662" lon="4.24829">
        <ele>1188.3</ele>
        <time>2026-05-07T09:57:22Z</time>
      </trkpt>
      <trkpt lat="44.96623" lon="4.24824">
        <ele>1188.7</ele>
        <time>2026-05-07T09:57:27Z</time>
      </trkpt>
      <trkpt lat="44.96626" lon="4.24818">
        <ele>1189.1</ele>
        <time>2026-05-07T09:57:32Z</time>
      </trkpt>
      <trkpt lat="44.96629" lon="4.24813">
        <ele>1189.6</ele>
        <time>2026-05-07T09:57:37Z</time>
      </trkpt>
      <trkpt lat="44.96632" lon="4.24807">
        <ele>1190.1</ele>
        <time>2026-05-07T09:57:42Z</time>
      </trkpt>
      <trkpt lat="44.96635" lon="4.24802">
        <ele>1190.5</ele>
        <time>2026-05-07T09:57:47Z</time>
      </trkpt>
      <trkpt lat="44.96638" lon="4.24796">
        <ele>1191</ele>
        <time>2026-05-07T09:57:52Z</time>
      </trkpt>
      <trkpt lat="44.96641" lon="4.24789">
        <ele>1191.5</ele>
        <time>2026-05-07T09:57:57Z</time>
      </trkpt>
      <trkpt lat="44.96644" lon="4.24783">
        <ele>1192</ele>
        <time>2026-05-07T09:58:02Z</time>
      </trkpt>
      <trkpt lat="44.96646" lon="4.24777">
        <ele>1192.4</ele>
        <time>2026-05-07T09:58:07Z</time>
      </trkpt>
      <trkpt lat="44.96649" lon="4.24769">
        <ele>1192.9</ele>
        <time>2026-05-07T09:58:12Z</time>
      </trkpt>
      <trkpt lat="44.9665" lon="4.24763">
        <ele>1193.1</ele>
        <time>2026-05-07T09:58:17Z</time>
      </trkpt>
      <trkpt lat="44.9665" lon="4.24763">
        <ele>1193.1</ele>
        <time>2026-05-07T09:58:22Z</time>
      </trkpt>
      <trkpt lat="44.9665" lon="4.24763">
        <ele>1193.1</ele>
        <time>2026-05-07T09:58:27Z</time>
      </trkpt>
      <trkpt lat="44.9665" lon="4.24763">
        <ele>1193.1</ele>
        <time>2026-05-07T09:58:32Z</time>
      </trkpt>
      <trkpt lat="44.9665" lon="4.24763">
        <ele>1193.1</ele>
        <time>2026-05-07T09:58:37Z</time>
      </trkpt>
      <trkpt lat="44.9665" lon="4.24763">
        <ele>1193.1</ele>
        <time>2026-05-07T09:58:42Z</time>
      </trkpt>
      <trkpt lat="44.9665" lon="4.24763">
        <ele>1193.1</ele>
        <time>2026-05-07T09:58:47Z</time>
      </trkpt>
      <trkpt lat="44.96652" lon="4.24756">
        <ele>1193.5</ele>
        <time>2026-05-07T09:58:52Z</time>
      </trkpt>
      <trkpt lat="44.96652" lon="4.24753">
        <ele>1193.5</ele>
        <time>2026-05-07T09:58:57Z</time>
      </trkpt>
      <trkpt lat="44.96652" lon="4.24753">
        <ele>1193.5</ele>
        <time>2026-05-07T09:59:02Z</time>
      </trkpt>
      <trkpt lat="44.96652" lon="4.24753">
        <ele>1193.5</ele>
        <time>2026-05-07T09:59:07Z</time>
      </trkpt>
      <trkpt lat="44.96652" lon="4.24753">
        <ele>1193.5</ele>
        <time>2026-05-07T09:59:12Z</time>
      </trkpt>
      <trkpt lat="44.96653" lon="4.24745">
        <ele>1193.8</ele>
        <time>2026-05-07T09:59:17Z</time>
      </trkpt>
      <trkpt lat="44.96654" lon="4.24738">
        <ele>1194</ele>
        <time>2026-05-07T09:59:22Z</time>
      </trkpt>
      <trkpt lat="44.96654" lon="4.2473">
        <ele>1194.1</ele>
        <time>2026-05-07T09:59:27Z</time>
      </trkpt>
      <trkpt lat="44.96656" lon="4.24721">
        <ele>1194.6</ele>
        <time>2026-05-07T09:59:32Z</time>
      </trkpt>
      <trkpt lat="44.96657" lon="4.24712">
        <ele>1194.8</ele>
        <time>2026-05-07T09:59:37Z</time>
      </trkpt>
      <trkpt lat="44.96655" lon="4.24702">
        <ele>1194.6</ele>
        <time>2026-05-07T09:59:42Z</time>
      </trkpt>
      <trkpt lat="44.96654" lon="4.24692">
        <ele>1194.6</ele>
        <time>2026-05-07T09:59:47Z</time>
      </trkpt>
      <trkpt lat="44.96652" lon="4.24682">
        <ele>1194.4</ele>
        <time>2026-05-07T09:59:52Z</time>
      </trkpt>
      <trkpt lat="44.96651" lon="4.24673">
        <ele>1194.3</ele>
        <time>2026-05-07T09:59:57Z</time>
      </trkpt>
      <trkpt lat="44.96649" lon="4.24664">
        <ele>1194.1</ele>
        <time>2026-05-07T10:00:02Z</time>
      </trkpt>
      <trkpt lat="44.96648" lon="4.24654">
        <ele>1194</ele>
        <time>2026-05-07T10:00:07Z</time>
      </trkpt>
      <trkpt lat="44.96648" lon="4.24643">
        <ele>1194.1</ele>
        <time>2026-05-07T10:00:12Z</time>
      </trkpt>
      <trkpt lat="44.96647" lon="4.24633">
        <ele>1194.1</ele>
        <time>2026-05-07T10:00:17Z</time>
      </trkpt>
      <trkpt lat="44.96646" lon="4.24623">
        <ele>1194.1</ele>
        <time>2026-05-07T10:00:22Z</time>
      </trkpt>
      <trkpt lat="44.96645" lon="4.24612">
        <ele>1194</ele>
        <time>2026-05-07T10:00:27Z</time>
      </trkpt>
      <trkpt lat="44.96645" lon="4.24601">
        <ele>1194.1</ele>
        <time>2026-05-07T10:00:32Z</time>
      </trkpt>
      <trkpt lat="44.96645" lon="4.24591">
        <ele>1194.3</ele>
        <time>2026-05-07T10:00:37Z</time>
      </trkpt>
      <trkpt lat="44.96645" lon="4.24581">
        <ele>1194.4</ele>
        <time>2026-05-07T10:00:42Z</time>
      </trkpt>
      <trkpt lat="44.96645" lon="4.2457">
        <ele>1194.7</ele>
        <time>2026-05-07T10:00:47Z</time>
      </trkpt>
      <trkpt lat="44.96645" lon="4.24559">
        <ele>1195</ele>
        <time>2026-05-07T10:00:52Z</time>
      </trkpt>
      <trkpt lat="44.96646" lon="4.24549">
        <ele>1195.3</ele>
        <time>2026-05-07T10:00:57Z</time>
      </trkpt>
      <trkpt lat="44.96645" lon="4.24539">
        <ele>1195.4</ele>
        <time>2026-05-07T10:01:02Z</time>
      </trkpt>
      <trkpt lat="44.96644" lon="4.24529">
        <ele>1195.6</ele>
        <time>2026-05-07T10:01:07Z</time>
      </trkpt>
      <trkpt lat="44.96644" lon="4.24519">
        <ele>1195.8</ele>
        <time>2026-05-07T10:01:12Z</time>
      </trkpt>
      <trkpt lat="44.96643" lon="4.24508">
        <ele>1196</ele>
        <time>2026-05-07T10:01:17Z</time>
      </trkpt>
      <trkpt lat="44.96643" lon="4.24499">
        <ele>1196.2</ele>
        <time>2026-05-07T10:01:22Z</time>
      </trkpt>
      <trkpt lat="44.96643" lon="4.24487">
        <ele>1197</ele>
        <time>2026-05-07T10:01:27Z</time>
      </trkpt>
      <trkpt lat="44.96643" lon="4.24477">
        <ele>1197.7</ele>
        <time>2026-05-07T10:01:32Z</time>
      </trkpt>
      <trkpt lat="44.96643" lon="4.24466">
        <ele>1198.5</ele>
        <time>2026-05-07T10:01:37Z</time>
      </trkpt>
      <trkpt lat="44.96643" lon="4.24456">
        <ele>1199.2</ele>
        <time>2026-05-07T10:01:42Z</time>
      </trkpt>
      <trkpt lat="44.96643" lon="4.24446">
        <ele>1199.9</ele>
        <time>2026-05-07T10:01:47Z</time>
      </trkpt>
      <trkpt lat="44.96643" lon="4.24435">
        <ele>1200.6</ele>
        <time>2026-05-07T10:01:52Z</time>
      </trkpt>
      <trkpt lat="44.96643" lon="4.24425">
        <ele>1201.3</ele>
        <time>2026-05-07T10:01:57Z</time>
      </trkpt>
      <trkpt lat="44.96643" lon="4.24415">
        <ele>1201.9</ele>
        <time>2026-05-07T10:02:02Z</time>
      </trkpt>
      <trkpt lat="44.96644" lon="4.24405">
        <ele>1202.5</ele>
        <time>2026-05-07T10:02:07Z</time>
      </trkpt>
      <trkpt lat="44.96645" lon="4.24394">
        <ele>1203.1</ele>
        <time>2026-05-07T10:02:12Z</time>
      </trkpt>
      <trkpt lat="44.96645" lon="4.24384">
        <ele>1203.5</ele>
        <time>2026-05-07T10:02:17Z</time>
      </trkpt>
      <trkpt lat="44.96645" lon="4.24373">
        <ele>1204.1</ele>
        <time>2026-05-07T10:02:22Z</time>
      </trkpt>
      <trkpt lat="44.96646" lon="4.24363">
        <ele>1204.6</ele>
        <time>2026-05-07T10:02:27Z</time>
      </trkpt>
      <trkpt lat="44.96646" lon="4.24354">
        <ele>1205</ele>
        <time>2026-05-07T10:02:32Z</time>
      </trkpt>
      <trkpt lat="44.96645" lon="4.24348">
        <ele>1205.3</ele>
        <time>2026-05-07T10:02:37Z</time>
      </trkpt>
      <trkpt lat="44.96645" lon="4.2434">
        <ele>1205.7</ele>
        <time>2026-05-07T10:02:42Z</time>
      </trkpt>
      <trkpt lat="44.96645" lon="4.24332">
        <ele>1206</ele>
        <time>2026-05-07T10:02:47Z</time>
      </trkpt>
      <trkpt lat="44.96644" lon="4.24323">
        <ele>1206.4</ele>
        <time>2026-05-07T10:02:52Z</time>
      </trkpt>
      <trkpt lat="44.96641" lon="4.24315">
        <ele>1206.7</ele>
        <time>2026-05-07T10:02:57Z</time>
      </trkpt>
      <trkpt lat="44.96637" lon="4.24309">
        <ele>1206.9</ele>
        <time>2026-05-07T10:03:02Z</time>
      </trkpt>
      <trkpt lat="44.96632" lon="4.24301">
        <ele>1207.2</ele>
        <time>2026-05-07T10:03:07Z</time>
      </trkpt>
      <trkpt lat="44.96629" lon="4.24292">
        <ele>1207.5</ele>
        <time>2026-05-07T10:03:12Z</time>
      </trkpt>
      <trkpt lat="44.96624" lon="4.24285">
        <ele>1207.7</ele>
        <time>2026-05-07T10:03:17Z</time>
      </trkpt>
      <trkpt lat="44.96621" lon="4.24276">
        <ele>1208.1</ele>
        <time>2026-05-07T10:03:22Z</time>
      </trkpt>
      <trkpt lat="44.96617" lon="4.24269">
        <ele>1208.3</ele>
        <time>2026-05-07T10:03:27Z</time>
      </trkpt>
      <trkpt lat="44.96612" lon="4.24261">
        <ele>1208.6</ele>
        <time>2026-05-07T10:03:32Z</time>
      </trkpt>
      <trkpt lat="44.96609" lon="4.24253">
        <ele>1208.9</ele>
        <time>2026-05-07T10:03:37Z</time>
      </trkpt>
      <trkpt lat="44.96605" lon="4.24247">
        <ele>1209.1</ele>
        <time>2026-05-07T10:03:42Z</time>
      </trkpt>
      <trkpt lat="44.96601" lon="4.24241">
        <ele>1209.3</ele>
        <time>2026-05-07T10:03:47Z</time>
      </trkpt>
      <trkpt lat="44.96598" lon="4.24233">
        <ele>1209.6</ele>
        <time>2026-05-07T10:03:52Z</time>
      </trkpt>
      <trkpt lat="44.966" lon="4.2423">
        <ele>1209.7</ele>
        <time>2026-05-07T10:03:57Z</time>
      </trkpt>
      <trkpt lat="44.966" lon="4.2423">
        <ele>1209.7</ele>
        <time>2026-05-07T10:04:02Z</time>
      </trkpt>
      <trkpt lat="44.96599" lon="4.2423">
        <ele>1209.7</ele>
        <time>2026-05-07T10:04:07Z</time>
      </trkpt>
      <trkpt lat="44.96599" lon="4.2423">
        <ele>1209.7</ele>
        <time>2026-05-07T10:04:12Z</time>
      </trkpt>
      <trkpt lat="44.96599" lon="4.2423">
        <ele>1209.7</ele>
        <time>2026-05-07T10:04:17Z</time>
      </trkpt>
      <trkpt lat="44.96599" lon="4.2423">
        <ele>1209.7</ele>
        <time>2026-05-07T10:04:22Z</time>
      </trkpt>
      <trkpt lat="44.96599" lon="4.2423">
        <ele>1209.7</ele>
        <time>2026-05-07T10:04:27Z</time>
      </trkpt>
      <trkpt lat="44.96599" lon="4.2423">
        <ele>1209.7</ele>
        <time>2026-05-07T10:04:32Z</time>
      </trkpt>
      <trkpt lat="44.96599" lon="4.2423">
        <ele>1209.7</ele>
        <time>2026-05-07T10:04:37Z</time>
      </trkpt>
      <trkpt lat="44.96599" lon="4.2423">
        <ele>1209.7</ele>
        <time>2026-05-07T10:04:42Z</time>
      </trkpt>
      <trkpt lat="44.96599" lon="4.2423">
        <ele>1209.7</ele>
        <time>2026-05-07T10:04:47Z</time>
      </trkpt>
      <trkpt lat="44.96599" lon="4.2423">
        <ele>1209.7</ele>
        <time>2026-05-07T10:04:52Z</time>
      </trkpt>
      <trkpt lat="44.96599" lon="4.2423">
        <ele>1209.7</ele>
        <time>2026-05-07T10:04:57Z</time>
      </trkpt>
      <trkpt lat="44.96599" lon="4.2423">
        <ele>1209.7</ele>
        <time>2026-05-07T10:05:02Z</time>
      </trkpt>
      <trkpt lat="44.96599" lon="4.2423">
        <ele>1209.7</ele>
        <time>2026-05-07T10:05:07Z</time>
      </trkpt>
      <trkpt lat="44.96599" lon="4.2423">
        <ele>1209.7</ele>
        <time>2026-05-07T10:05:12Z</time>
      </trkpt>
      <trkpt lat="44.96599" lon="4.2423">
        <ele>1209.7</ele>
        <time>2026-05-07T10:05:17Z</time>
      </trkpt>
      <trkpt lat="44.96599" lon="4.2423">
        <ele>1209.7</ele>
        <time>2026-05-07T10:05:22Z</time>
      </trkpt>
      <trkpt lat="44.96599" lon="4.2423">
        <ele>1209.7</ele>
        <time>2026-05-07T10:05:22Z</time>
      </trkpt>
      <trkpt lat="44.96595" lon="4.24224">
        <ele>1209.9</ele>
        <time>2026-05-07T10:05:30Z</time>
      </trkpt>
      <trkpt lat="44.96594" lon="4.24223">
        <ele>1209.9</ele>
        <time>2026-05-07T10:05:35Z</time>
      </trkpt>
      <trkpt lat="44.96594" lon="4.24223">
        <ele>1209.9</ele>
        <time>2026-05-07T10:05:40Z</time>
      </trkpt>
      <trkpt lat="44.96591" lon="4.2422">
        <ele>1210</ele>
        <time>2026-05-07T10:05:45Z</time>
      </trkpt>
      <trkpt lat="44.96586" lon="4.24212">
        <ele>1210.4</ele>
        <time>2026-05-07T10:05:50Z</time>
      </trkpt>
      <trkpt lat="44.96581" lon="4.24206">
        <ele>1210.7</ele>
        <time>2026-05-07T10:05:55Z</time>
      </trkpt>
      <trkpt lat="44.96576" lon="4.24198">
        <ele>1211.1</ele>
        <time>2026-05-07T10:06:00Z</time>
      </trkpt>
      <trkpt lat="44.9657" lon="4.2419">
        <ele>1211.6</ele>
        <time>2026-05-07T10:06:05Z</time>
      </trkpt>
      <trkpt lat="44.96565" lon="4.24184">
        <ele>1212</ele>
        <time>2026-05-07T10:06:10Z</time>
      </trkpt>
      <trkpt lat="44.96561" lon="4.24178">
        <ele>1212.4</ele>
        <time>2026-05-07T10:06:15Z</time>
      </trkpt>
      <trkpt lat="44.96557" lon="4.24171">
        <ele>1212.8</ele>
        <time>2026-05-07T10:06:20Z</time>
      </trkpt>
      <trkpt lat="44.96553" lon="4.24163">
        <ele>1213.3</ele>
        <time>2026-05-07T10:06:25Z</time>
      </trkpt>
      <trkpt lat="44.96549" lon="4.24157">
        <ele>1213.7</ele>
        <time>2026-05-07T10:06:30Z</time>
      </trkpt>
      <trkpt lat="44.96545" lon="4.2415">
        <ele>1214.1</ele>
        <time>2026-05-07T10:06:35Z</time>
      </trkpt>
      <trkpt lat="44.96541" lon="4.24143">
        <ele>1214.5</ele>
        <time>2026-05-07T10:06:40Z</time>
      </trkpt>
      <trkpt lat="44.96538" lon="4.24137">
        <ele>1214.9</ele>
        <time>2026-05-07T10:06:45Z</time>
      </trkpt>
      <trkpt lat="44.96533" lon="4.2413">
        <ele>1215.3</ele>
        <time>2026-05-07T10:06:50Z</time>
      </trkpt>
      <trkpt lat="44.96528" lon="4.24124">
        <ele>1215.7</ele>
        <time>2026-05-07T10:06:55Z</time>
      </trkpt>
      <trkpt lat="44.96523" lon="4.24116">
        <ele>1216.2</ele>
        <time>2026-05-07T10:07:00Z</time>
      </trkpt>
      <trkpt lat="44.96518" lon="4.24111">
        <ele>1216.5</ele>
        <time>2026-05-07T10:07:05Z</time>
      </trkpt>
      <trkpt lat="44.96514" lon="4.24105">
        <ele>1216.8</ele>
        <time>2026-05-07T10:07:10Z</time>
      </trkpt>
      <trkpt lat="44.9651" lon="4.24098">
        <ele>1217.2</ele>
        <time>2026-05-07T10:07:15Z</time>
      </trkpt>
      <trkpt lat="44.96505" lon="4.24094">
        <ele>1217.5</ele>
        <time>2026-05-07T10:07:20Z</time>
      </trkpt>
      <trkpt lat="44.96501" lon="4.24088">
        <ele>1217.8</ele>
        <time>2026-05-07T10:07:25Z</time>
      </trkpt>
      <trkpt lat="44.96497" lon="4.24083">
        <ele>1218</ele>
        <time>2026-05-07T10:07:30Z</time>
      </trkpt>
      <trkpt lat="44.96492" lon="4.24077">
        <ele>1218.2</ele>
        <time>2026-05-07T10:07:35Z</time>
      </trkpt>
      <trkpt lat="44.96487" lon="4.24071">
        <ele>1218.4</ele>
        <time>2026-05-07T10:07:40Z</time>
      </trkpt>
      <trkpt lat="44.96483" lon="4.24063">
        <ele>1218.7</ele>
        <time>2026-05-07T10:07:45Z</time>
      </trkpt>
      <trkpt lat="44.9648" lon="4.24057">
        <ele>1218.9</ele>
        <time>2026-05-07T10:07:50Z</time>
      </trkpt>
      <trkpt lat="44.96476" lon="4.2405">
        <ele>1219.1</ele>
        <time>2026-05-07T10:07:55Z</time>
      </trkpt>
      <trkpt lat="44.9647" lon="4.24044">
        <ele>1219.2</ele>
        <time>2026-05-07T10:08:00Z</time>
      </trkpt>
      <trkpt lat="44.96466" lon="4.24038">
        <ele>1219.4</ele>
        <time>2026-05-07T10:08:05Z</time>
      </trkpt>
      <trkpt lat="44.96463" lon="4.24032">
        <ele>1219.6</ele>
        <time>2026-05-07T10:08:10Z</time>
      </trkpt>
      <trkpt lat="44.96459" lon="4.24025">
        <ele>1219.8</ele>
        <time>2026-05-07T10:08:15Z</time>
      </trkpt>
      <trkpt lat="44.96456" lon="4.24018">
        <ele>1219.9</ele>
        <time>2026-05-07T10:08:20Z</time>
      </trkpt>
      <trkpt lat="44.96452" lon="4.2401">
        <ele>1220.1</ele>
        <time>2026-05-07T10:08:25Z</time>
      </trkpt>
      <trkpt lat="44.96449" lon="4.24003">
        <ele>1220.3</ele>
        <time>2026-05-07T10:08:30Z</time>
      </trkpt>
      <trkpt lat="44.96444" lon="4.23996">
        <ele>1220.5</ele>
        <time>2026-05-07T10:08:35Z</time>
      </trkpt>
      <trkpt lat="44.9644" lon="4.2399">
        <ele>1220.6</ele>
        <time>2026-05-07T10:08:40Z</time>
      </trkpt>
      <trkpt lat="44.96435" lon="4.23983">
        <ele>1220.7</ele>
        <time>2026-05-07T10:08:45Z</time>
      </trkpt>
      <trkpt lat="44.96431" lon="4.23975">
        <ele>1220.9</ele>
        <time>2026-05-07T10:08:50Z</time>
      </trkpt>
      <trkpt lat="44.96426" lon="4.23968">
        <ele>1221</ele>
        <time>2026-05-07T10:08:55Z</time>
      </trkpt>
      <trkpt lat="44.96422" lon="4.23961">
        <ele>1221.1</ele>
        <time>2026-05-07T10:09:00Z</time>
      </trkpt>
      <trkpt lat="44.96417" lon="4.23956">
        <ele>1221.1</ele>
        <time>2026-05-07T10:09:05Z</time>
      </trkpt>
      <trkpt lat="44.96413" lon="4.23951">
        <ele>1221.2</ele>
        <time>2026-05-07T10:09:10Z</time>
      </trkpt>
      <trkpt lat="44.96408" lon="4.23947">
        <ele>1221.2</ele>
        <time>2026-05-07T10:09:15Z</time>
      </trkpt>
      <trkpt lat="44.96403" lon="4.2394">
        <ele>1221.4</ele>
        <time>2026-05-07T10:09:20Z</time>
      </trkpt>
      <trkpt lat="44.96399" lon="4.23934">
        <ele>1221.5</ele>
        <time>2026-05-07T10:09:25Z</time>
      </trkpt>
      <trkpt lat="44.96394" lon="4.23928">
        <ele>1221.7</ele>
        <time>2026-05-07T10:09:30Z</time>
      </trkpt>
      <trkpt lat="44.96391" lon="4.23921">
        <ele>1221.9</ele>
        <time>2026-05-07T10:09:35Z</time>
      </trkpt>
      <trkpt lat="44.96387" lon="4.23914">
        <ele>1222.1</ele>
        <time>2026-05-07T10:09:40Z</time>
      </trkpt>
      <trkpt lat="44.96382" lon="4.23907">
        <ele>1222.3</ele>
        <time>2026-05-07T10:09:45Z</time>
      </trkpt>
      <trkpt lat="44.96377" lon="4.23901">
        <ele>1222.6</ele>
        <time>2026-05-07T10:09:50Z</time>
      </trkpt>
      <trkpt lat="44.96373" lon="4.23896">
        <ele>1222.7</ele>
        <time>2026-05-07T10:09:55Z</time>
      </trkpt>
      <trkpt lat="44.96369" lon="4.23891">
        <ele>1222.9</ele>
        <time>2026-05-07T10:10:00Z</time>
      </trkpt>
      <trkpt lat="44.96363" lon="4.23884">
        <ele>1223.2</ele>
        <time>2026-05-07T10:10:05Z</time>
      </trkpt>
      <trkpt lat="44.96359" lon="4.23876">
        <ele>1223.5</ele>
        <time>2026-05-07T10:10:10Z</time>
      </trkpt>
      <trkpt lat="44.96353" lon="4.23871">
        <ele>1223.6</ele>
        <time>2026-05-07T10:10:15Z</time>
      </trkpt>
      <trkpt lat="44.9635" lon="4.23867">
        <ele>1223.8</ele>
        <time>2026-05-07T10:10:20Z</time>
      </trkpt>
      <trkpt lat="44.96346" lon="4.23861">
        <ele>1224</ele>
        <time>2026-05-07T10:10:25Z</time>
      </trkpt>
      <trkpt lat="44.96341" lon="4.23854">
        <ele>1224.3</ele>
        <time>2026-05-07T10:10:30Z</time>
      </trkpt>
      <trkpt lat="44.96338" lon="4.23848">
        <ele>1224.5</ele>
        <time>2026-05-07T10:10:35Z</time>
      </trkpt>
      <trkpt lat="44.96333" lon="4.23841">
        <ele>1224.7</ele>
        <time>2026-05-07T10:10:40Z</time>
      </trkpt>
      <trkpt lat="44.96329" lon="4.23834">
        <ele>1224.9</ele>
        <time>2026-05-07T10:10:45Z</time>
      </trkpt>
      <trkpt lat="44.96324" lon="4.23827">
        <ele>1225</ele>
        <time>2026-05-07T10:10:50Z</time>
      </trkpt>
      <trkpt lat="44.96319" lon="4.23819">
        <ele>1225.1</ele>
        <time>2026-05-07T10:10:55Z</time>
      </trkpt>
      <trkpt lat="44.96315" lon="4.23813">
        <ele>1225.2</ele>
        <time>2026-05-07T10:11:00Z</time>
      </trkpt>
      <trkpt lat="44.9631" lon="4.23808">
        <ele>1225.2</ele>
        <time>2026-05-07T10:11:05Z</time>
      </trkpt>
      <trkpt lat="44.96305" lon="4.23801">
        <ele>1225.2</ele>
        <time>2026-05-07T10:11:10Z</time>
      </trkpt>
      <trkpt lat="44.96298" lon="4.23795">
        <ele>1225.1</ele>
        <time>2026-05-07T10:11:15Z</time>
      </trkpt>
      <trkpt lat="44.96292" lon="4.2379">
        <ele>1225.1</ele>
        <time>2026-05-07T10:11:20Z</time>
      </trkpt>
      <trkpt lat="44.96287" lon="4.23784">
        <ele>1225</ele>
        <time>2026-05-07T10:11:25Z</time>
      </trkpt>
      <trkpt lat="44.96282" lon="4.23778">
        <ele>1224.9</ele>
        <time>2026-05-07T10:11:30Z</time>
      </trkpt>
      <trkpt lat="44.96277" lon="4.2377">
        <ele>1224.9</ele>
        <time>2026-05-07T10:11:35Z</time>
      </trkpt>
      <trkpt lat="44.96273" lon="4.23763">
        <ele>1224.9</ele>
        <time>2026-05-07T10:11:40Z</time>
      </trkpt>
      <trkpt lat="44.96268" lon="4.23757">
        <ele>1224.7</ele>
        <time>2026-05-07T10:11:45Z</time>
      </trkpt>
      <trkpt lat="44.96263" lon="4.2375">
        <ele>1224.6</ele>
        <time>2026-05-07T10:11:50Z</time>
      </trkpt>
      <trkpt lat="44.96258" lon="4.23743">
        <ele>1224.9</ele>
        <time>2026-05-07T10:11:55Z</time>
      </trkpt>
      <trkpt lat="44.96252" lon="4.23737">
        <ele>1225</ele>
        <time>2026-05-07T10:12:00Z</time>
      </trkpt>
      <trkpt lat="44.96246" lon="4.2373">
        <ele>1225.3</ele>
        <time>2026-05-07T10:12:05Z</time>
      </trkpt>
      <trkpt lat="44.96242" lon="4.23723">
        <ele>1225.7</ele>
        <time>2026-05-07T10:12:10Z</time>
      </trkpt>
      <trkpt lat="44.96236" lon="4.23718">
        <ele>1225.8</ele>
        <time>2026-05-07T10:12:15Z</time>
      </trkpt>
      <trkpt lat="44.96232" lon="4.23711">
        <ele>1226.2</ele>
        <time>2026-05-07T10:12:20Z</time>
      </trkpt>
      <trkpt lat="44.96227" lon="4.23702">
        <ele>1226.6</ele>
        <time>2026-05-07T10:12:25Z</time>
      </trkpt>
      <trkpt lat="44.96223" lon="4.23695">
        <ele>1227</ele>
        <time>2026-05-07T10:12:30Z</time>
      </trkpt>
      <trkpt lat="44.96219" lon="4.23689">
        <ele>1227.3</ele>
        <time>2026-05-07T10:12:35Z</time>
      </trkpt>
      <trkpt lat="44.96214" lon="4.23683">
        <ele>1227.5</ele>
        <time>2026-05-07T10:12:40Z</time>
      </trkpt>
      <trkpt lat="44.96211" lon="4.23675">
        <ele>1228</ele>
        <time>2026-05-07T10:12:45Z</time>
      </trkpt>
      <trkpt lat="44.96207" lon="4.23671">
        <ele>1228.1</ele>
        <time>2026-05-07T10:12:50Z</time>
      </trkpt>
      <trkpt lat="44.96202" lon="4.23664">
        <ele>1228.4</ele>
        <time>2026-05-07T10:12:55Z</time>
      </trkpt>
      <trkpt lat="44.96196" lon="4.23658">
        <ele>1228.6</ele>
        <time>2026-05-07T10:13:00Z</time>
      </trkpt>
      <trkpt lat="44.96191" lon="4.23653">
        <ele>1228.7</ele>
        <time>2026-05-07T10:13:05Z</time>
      </trkpt>
      <trkpt lat="44.96186" lon="4.23649">
        <ele>1228.8</ele>
        <time>2026-05-07T10:13:10Z</time>
      </trkpt>
      <trkpt lat="44.96181" lon="4.23642">
        <ele>1229.1</ele>
        <time>2026-05-07T10:13:15Z</time>
      </trkpt>
      <trkpt lat="44.96175" lon="4.23632">
        <ele>1229.7</ele>
        <time>2026-05-07T10:13:20Z</time>
      </trkpt>
      <trkpt lat="44.96168" lon="4.23625">
        <ele>1230</ele>
        <time>2026-05-07T10:13:25Z</time>
      </trkpt>
      <trkpt lat="44.96163" lon="4.23617">
        <ele>1230.5</ele>
        <time>2026-05-07T10:13:30Z</time>
      </trkpt>
      <trkpt lat="44.96158" lon="4.2361">
        <ele>1231</ele>
        <time>2026-05-07T10:13:35Z</time>
      </trkpt>
      <trkpt lat="44.96153" lon="4.23601">
        <ele>1231.7</ele>
        <time>2026-05-07T10:13:40Z</time>
      </trkpt>
      <trkpt lat="44.96148" lon="4.23594">
        <ele>1232.2</ele>
        <time>2026-05-07T10:13:45Z</time>
      </trkpt>
      <trkpt lat="44.96142" lon="4.23587">
        <ele>1232.7</ele>
        <time>2026-05-07T10:13:50Z</time>
      </trkpt>
      <trkpt lat="44.96137" lon="4.23578">
        <ele>1233.3</ele>
        <time>2026-05-07T10:13:55Z</time>
      </trkpt>
      <trkpt lat="44.96131" lon="4.23571">
        <ele>1233.7</ele>
        <time>2026-05-07T10:14:00Z</time>
      </trkpt>
      <trkpt lat="44.96127" lon="4.23562">
        <ele>1234.3</ele>
        <time>2026-05-07T10:14:05Z</time>
      </trkpt>
      <trkpt lat="44.9612" lon="4.23554">
        <ele>1234.8</ele>
        <time>2026-05-07T10:14:10Z</time>
      </trkpt>
      <trkpt lat="44.96115" lon="4.23547">
        <ele>1235.2</ele>
        <time>2026-05-07T10:14:15Z</time>
      </trkpt>
      <trkpt lat="44.96109" lon="4.23544">
        <ele>1235.4</ele>
        <time>2026-05-07T10:14:20Z</time>
      </trkpt>
      <trkpt lat="44.96104" lon="4.23541">
        <ele>1235.5</ele>
        <time>2026-05-07T10:14:25Z</time>
      </trkpt>
      <trkpt lat="44.96097" lon="4.23537">
        <ele>1235.8</ele>
        <time>2026-05-07T10:14:30Z</time>
      </trkpt>
      <trkpt lat="44.96089" lon="4.23533">
        <ele>1236</ele>
        <time>2026-05-07T10:14:35Z</time>
      </trkpt>
      <trkpt lat="44.96084" lon="4.23528">
        <ele>1236.3</ele>
        <time>2026-05-07T10:14:40Z</time>
      </trkpt>
      <trkpt lat="44.96079" lon="4.23525">
        <ele>1236</ele>
        <time>2026-05-07T10:14:45Z</time>
      </trkpt>
      <trkpt lat="44.96077" lon="4.23521">
        <ele>1236</ele>
        <time>2026-05-07T10:14:50Z</time>
      </trkpt>
      <trkpt lat="44.96076" lon="4.23519">
        <ele>1236</ele>
        <time>2026-05-07T10:14:55Z</time>
      </trkpt>
      <trkpt lat="44.96076" lon="4.23519">
        <ele>1236</ele>
        <time>2026-05-07T10:15:00Z</time>
      </trkpt>
      <trkpt lat="44.96076" lon="4.23519">
        <ele>1236</ele>
        <time>2026-05-07T10:15:05Z</time>
      </trkpt>
      <trkpt lat="44.96076" lon="4.23519">
        <ele>1236</ele>
        <time>2026-05-07T10:15:10Z</time>
      </trkpt>
      <trkpt lat="44.96076" lon="4.23519">
        <ele>1236</ele>
        <time>2026-05-07T10:15:15Z</time>
      </trkpt>
      <trkpt lat="44.96076" lon="4.23519">
        <ele>1236</ele>
        <time>2026-05-07T10:15:20Z</time>
      </trkpt>
      <trkpt lat="44.96073" lon="4.23505">
        <ele>1236.5</ele>
        <time>2026-05-07T10:15:25Z</time>
      </trkpt>
      <trkpt lat="44.96073" lon="4.23505">
        <ele>1236.5</ele>
        <time>2026-05-07T10:15:30Z</time>
      </trkpt>
      <trkpt lat="44.96073" lon="4.23505">
        <ele>1236.5</ele>
        <time>2026-05-07T10:15:35Z</time>
      </trkpt>
      <trkpt lat="44.96073" lon="4.23505">
        <ele>1236.5</ele>
        <time>2026-05-07T10:15:40Z</time>
      </trkpt>
      <trkpt lat="44.96073" lon="4.23505">
        <ele>1236.5</ele>
        <time>2026-05-07T10:15:45Z</time>
      </trkpt>
      <trkpt lat="44.96073" lon="4.23505">
        <ele>1236.5</ele>
        <time>2026-05-07T10:15:50Z</time>
      </trkpt>
      <trkpt lat="44.9607" lon="4.23512">
        <ele>1235.7</ele>
        <time>2026-05-07T10:15:55Z</time>
      </trkpt>
      <trkpt lat="44.96065" lon="4.23511">
        <ele>1235.1</ele>
        <time>2026-05-07T10:16:00Z</time>
      </trkpt>
      <trkpt lat="44.96059" lon="4.23505">
        <ele>1234.8</ele>
        <time>2026-05-07T10:16:05Z</time>
      </trkpt>
      <trkpt lat="44.96054" lon="4.235">
        <ele>1234.5</ele>
        <time>2026-05-07T10:16:10Z</time>
      </trkpt>
      <trkpt lat="44.9605" lon="4.23497">
        <ele>1234.1</ele>
        <time>2026-05-07T10:16:15Z</time>
      </trkpt>
      <trkpt lat="44.96045" lon="4.23492">
        <ele>1233.7</ele>
        <time>2026-05-07T10:16:20Z</time>
      </trkpt>
      <trkpt lat="44.96042" lon="4.23488">
        <ele>1233.5</ele>
        <time>2026-05-07T10:16:25Z</time>
      </trkpt>
      <trkpt lat="44.96037" lon="4.23483">
        <ele>1233.2</ele>
        <time>2026-05-07T10:16:30Z</time>
      </trkpt>
      <trkpt lat="44.96032" lon="4.23476">
        <ele>1232.9</ele>
        <time>2026-05-07T10:16:35Z</time>
      </trkpt>
      <trkpt lat="44.96026" lon="4.2347">
        <ele>1232.6</ele>
        <time>2026-05-07T10:16:40Z</time>
      </trkpt>
      <trkpt lat="44.9602" lon="4.23464">
        <ele>1232.2</ele>
        <time>2026-05-07T10:16:45Z</time>
      </trkpt>
      <trkpt lat="44.96014" lon="4.2346">
        <ele>1231.8</ele>
        <time>2026-05-07T10:16:50Z</time>
      </trkpt>
      <trkpt lat="44.96009" lon="4.23453">
        <ele>1231.7</ele>
        <time>2026-05-07T10:16:55Z</time>
      </trkpt>
      <trkpt lat="44.96005" lon="4.23451">
        <ele>1231.4</ele>
        <time>2026-05-07T10:17:00Z</time>
      </trkpt>
      <trkpt lat="44.95999" lon="4.23444">
        <ele>1231.3</ele>
        <time>2026-05-07T10:17:05Z</time>
      </trkpt>
      <trkpt lat="44.95995" lon="4.23437">
        <ele>1231.4</ele>
        <time>2026-05-07T10:17:10Z</time>
      </trkpt>
      <trkpt lat="44.9599" lon="4.23433">
        <ele>1231.3</ele>
        <time>2026-05-07T10:17:15Z</time>
      </trkpt>
      <trkpt lat="44.95986" lon="4.23427">
        <ele>1231.3</ele>
        <time>2026-05-07T10:17:20Z</time>
      </trkpt>
      <trkpt lat="44.95983" lon="4.23422">
        <ele>1231.4</ele>
        <time>2026-05-07T10:17:25Z</time>
      </trkpt>
      <trkpt lat="44.9598" lon="4.23417">
        <ele>1231.5</ele>
        <time>2026-05-07T10:17:30Z</time>
      </trkpt>
      <trkpt lat="44.95976" lon="4.2341">
        <ele>1231.7</ele>
        <time>2026-05-07T10:17:35Z</time>
      </trkpt>
      <trkpt lat="44.95974" lon="4.23403">
        <ele>1232</ele>
        <time>2026-05-07T10:17:40Z</time>
      </trkpt>
      <trkpt lat="44.95971" lon="4.23397">
        <ele>1232.2</ele>
        <time>2026-05-07T10:17:45Z</time>
      </trkpt>
      <trkpt lat="44.95968" lon="4.2339">
        <ele>1232.4</ele>
        <time>2026-05-07T10:17:50Z</time>
      </trkpt>
      <trkpt lat="44.95965" lon="4.23381">
        <ele>1232.8</ele>
        <time>2026-05-07T10:17:55Z</time>
      </trkpt>
      <trkpt lat="44.95962" lon="4.23374">
        <ele>1233.1</ele>
        <time>2026-05-07T10:18:00Z</time>
      </trkpt>
      <trkpt lat="44.95958" lon="4.23367">
        <ele>1233.3</ele>
        <time>2026-05-07T10:18:05Z</time>
      </trkpt>
      <trkpt lat="44.95955" lon="4.23361">
        <ele>1233.5</ele>
        <time>2026-05-07T10:18:10Z</time>
      </trkpt>
      <trkpt lat="44.95953" lon="4.23357">
        <ele>1233.6</ele>
        <time>2026-05-07T10:18:15Z</time>
      </trkpt>
      <trkpt lat="44.95952" lon="4.23355">
        <ele>1233.7</ele>
        <time>2026-05-07T10:18:20Z</time>
      </trkpt>
      <trkpt lat="44.95952" lon="4.23349">
        <ele>1234.1</ele>
        <time>2026-05-07T10:18:25Z</time>
      </trkpt>
      <trkpt lat="44.9595" lon="4.23345">
        <ele>1234.2</ele>
        <time>2026-05-07T10:18:30Z</time>
      </trkpt>
      <trkpt lat="44.95947" lon="4.23339">
        <ele>1234.4</ele>
        <time>2026-05-07T10:18:35Z</time>
      </trkpt>
      <trkpt lat="44.95945" lon="4.23331">
        <ele>1234.8</ele>
        <time>2026-05-07T10:18:40Z</time>
      </trkpt>
      <trkpt lat="44.95943" lon="4.23324">
        <ele>1235</ele>
        <time>2026-05-07T10:18:45Z</time>
      </trkpt>
      <trkpt lat="44.95942" lon="4.23317">
        <ele>1235.3</ele>
        <time>2026-05-07T10:18:50Z</time>
      </trkpt>
      <trkpt lat="44.95942" lon="4.23311">
        <ele>1235.5</ele>
        <time>2026-05-07T10:18:55Z</time>
      </trkpt>
      <trkpt lat="44.95939" lon="4.23309">
        <ele>1235.5</ele>
        <time>2026-05-07T10:19:00Z</time>
      </trkpt>
      <trkpt lat="44.95937" lon="4.23303">
        <ele>1235.7</ele>
        <time>2026-05-07T10:19:05Z</time>
      </trkpt>
      <trkpt lat="44.95936" lon="4.233">
        <ele>1235.8</ele>
        <time>2026-05-07T10:19:10Z</time>
      </trkpt>
      <trkpt lat="44.95934" lon="4.23296">
        <ele>1235.9</ele>
        <time>2026-05-07T10:19:15Z</time>
      </trkpt>
      <trkpt lat="44.95932" lon="4.23289">
        <ele>1236.2</ele>
        <time>2026-05-07T10:19:20Z</time>
      </trkpt>
      <trkpt lat="44.95931" lon="4.23283">
        <ele>1236.5</ele>
        <time>2026-05-07T10:19:25Z</time>
      </trkpt>
      <trkpt lat="44.95931" lon="4.2328">
        <ele>1236.6</ele>
        <time>2026-05-07T10:19:30Z</time>
      </trkpt>
      <trkpt lat="44.95931" lon="4.2328">
        <ele>1236.6</ele>
        <time>2026-05-07T10:19:35Z</time>
      </trkpt>
      <trkpt lat="44.95931" lon="4.2328">
        <ele>1236.6</ele>
        <time>2026-05-07T10:19:40Z</time>
      </trkpt>
      <trkpt lat="44.95929" lon="4.23269">
        <ele>1237.1</ele>
        <time>2026-05-07T10:19:45Z</time>
      </trkpt>
      <trkpt lat="44.95929" lon="4.23263">
        <ele>1237.5</ele>
        <time>2026-05-07T10:19:50Z</time>
      </trkpt>
      <trkpt lat="44.95929" lon="4.2326">
        <ele>1237.6</ele>
        <time>2026-05-07T10:19:55Z</time>
      </trkpt>
      <trkpt lat="44.95929" lon="4.23259">
        <ele>1237.7</ele>
        <time>2026-05-07T10:20:00Z</time>
      </trkpt>
      <trkpt lat="44.95929" lon="4.23259">
        <ele>1237.7</ele>
        <time>2026-05-07T10:20:05Z</time>
      </trkpt>
      <trkpt lat="44.95929" lon="4.23259">
        <ele>1237.7</ele>
        <time>2026-05-07T10:20:10Z</time>
      </trkpt>
      <trkpt lat="44.95929" lon="4.23259">
        <ele>1237.7</ele>
        <time>2026-05-07T10:20:15Z</time>
      </trkpt>
      <trkpt lat="44.95929" lon="4.23259">
        <ele>1237.7</ele>
        <time>2026-05-07T10:20:20Z</time>
      </trkpt>
      <trkpt lat="44.95929" lon="4.23259">
        <ele>1237.7</ele>
        <time>2026-05-07T10:20:25Z</time>
      </trkpt>
      <trkpt lat="44.95927" lon="4.23247">
        <ele>1238.2</ele>
        <time>2026-05-07T10:20:30Z</time>
      </trkpt>
      <trkpt lat="44.95924" lon="4.23241">
        <ele>1238.3</ele>
        <time>2026-05-07T10:20:35Z</time>
      </trkpt>
      <trkpt lat="44.95921" lon="4.23234">
        <ele>1238.4</ele>
        <time>2026-05-07T10:20:40Z</time>
      </trkpt>
      <trkpt lat="44.95918" lon="4.23228">
        <ele>1238.5</ele>
        <time>2026-05-07T10:20:45Z</time>
      </trkpt>
      <trkpt lat="44.95916" lon="4.23219">
        <ele>1238.8</ele>
        <time>2026-05-07T10:20:50Z</time>
      </trkpt>
      <trkpt lat="44.95921" lon="4.23211">
        <ele>1238.9</ele>
        <time>2026-05-07T10:20:55Z</time>
      </trkpt>
      <trkpt lat="44.95926" lon="4.23204">
        <ele>1239</ele>
        <time>2026-05-07T10:21:00Z</time>
      </trkpt>
      <trkpt lat="44.9593" lon="4.23198">
        <ele>1239</ele>
        <time>2026-05-07T10:21:05Z</time>
      </trkpt>
      <trkpt lat="44.95933" lon="4.23192">
        <ele>1239</ele>
        <time>2026-05-07T10:21:10Z</time>
      </trkpt>
      <trkpt lat="44.95933" lon="4.23191">
        <ele>1239.1</ele>
        <time>2026-05-07T10:21:15Z</time>
      </trkpt>
      <trkpt lat="44.95932" lon="4.23191">
        <ele>1239.1</ele>
        <time>2026-05-07T10:21:20Z</time>
      </trkpt>
      <trkpt lat="44.95932" lon="4.23191">
        <ele>1239.1</ele>
        <time>2026-05-07T10:21:25Z</time>
      </trkpt>
      <trkpt lat="44.95932" lon="4.23191">
        <ele>1239.1</ele>
        <time>2026-05-07T10:21:30Z</time>
      </trkpt>
      <trkpt lat="44.95932" lon="4.23191">
        <ele>1239.1</ele>
        <time>2026-05-07T10:21:35Z</time>
      </trkpt>
      <trkpt lat="44.95932" lon="4.23191">
        <ele>1239.1</ele>
        <time>2026-05-07T10:21:40Z</time>
      </trkpt>
      <trkpt lat="44.95927" lon="4.23196">
        <ele>1239.1</ele>
        <time>2026-05-07T10:21:45Z</time>
      </trkpt>
      <trkpt lat="44.95922" lon="4.23202">
        <ele>1239.1</ele>
        <time>2026-05-07T10:21:50Z</time>
      </trkpt>
      <trkpt lat="44.95917" lon="4.23208">
        <ele>1239</ele>
        <time>2026-05-07T10:21:55Z</time>
      </trkpt>
      <trkpt lat="44.95911" lon="4.23213">
        <ele>1239.2</ele>
        <time>2026-05-07T10:22:00Z</time>
      </trkpt>
      <trkpt lat="44.95906" lon="4.23212">
        <ele>1239.5</ele>
        <time>2026-05-07T10:22:05Z</time>
      </trkpt>
      <trkpt lat="44.959" lon="4.23209">
        <ele>1240</ele>
        <time>2026-05-07T10:22:10Z</time>
      </trkpt>
      <trkpt lat="44.95893" lon="4.23205">
        <ele>1240.6</ele>
        <time>2026-05-07T10:22:15Z</time>
      </trkpt>
      <trkpt lat="44.95886" lon="4.232">
        <ele>1241.3</ele>
        <time>2026-05-07T10:22:20Z</time>
      </trkpt>
      <trkpt lat="44.95879" lon="4.23198">
        <ele>1241.8</ele>
        <time>2026-05-07T10:22:25Z</time>
      </trkpt>
      <trkpt lat="44.95872" lon="4.23197">
        <ele>1242.4</ele>
        <time>2026-05-07T10:22:30Z</time>
      </trkpt>
      <trkpt lat="44.95865" lon="4.23195">
        <ele>1243</ele>
        <time>2026-05-07T10:22:35Z</time>
      </trkpt>
      <trkpt lat="44.95859" lon="4.23195">
        <ele>1243.4</ele>
        <time>2026-05-07T10:22:40Z</time>
      </trkpt>
      <trkpt lat="44.95852" lon="4.23193">
        <ele>1244.1</ele>
        <time>2026-05-07T10:22:45Z</time>
      </trkpt>
      <trkpt lat="44.95846" lon="4.23193">
        <ele>1244.5</ele>
        <time>2026-05-07T10:22:50Z</time>
      </trkpt>
      <trkpt lat="44.95838" lon="4.23192">
        <ele>1245.2</ele>
        <time>2026-05-07T10:22:55Z</time>
      </trkpt>
      <trkpt lat="44.95833" lon="4.23189">
        <ele>1245.9</ele>
        <time>2026-05-07T10:23:00Z</time>
      </trkpt>
      <trkpt lat="44.95825" lon="4.2319">
        <ele>1246.5</ele>
        <time>2026-05-07T10:23:05Z</time>
      </trkpt>
      <trkpt lat="44.95822" lon="4.2319">
        <ele>1246.8</ele>
        <time>2026-05-07T10:23:10Z</time>
      </trkpt>
      <trkpt lat="44.95822" lon="4.2319">
        <ele>1246.8</ele>
        <time>2026-05-07T10:23:15Z</time>
      </trkpt>
      <trkpt lat="44.95822" lon="4.2319">
        <ele>1246.8</ele>
        <time>2026-05-07T10:23:20Z</time>
      </trkpt>
      <trkpt lat="44.95822" lon="4.2319">
        <ele>1246.8</ele>
        <time>2026-05-07T10:23:25Z</time>
      </trkpt>
      <trkpt lat="44.95822" lon="4.2319">
        <ele>1246.8</ele>
        <time>2026-05-07T10:23:30Z</time>
      </trkpt>
      <trkpt lat="44.95822" lon="4.2319">
        <ele>1246.8</ele>
        <time>2026-05-07T10:23:35Z</time>
      </trkpt>
      <trkpt lat="44.9581" lon="4.23187">
        <ele>1248.1</ele>
        <time>2026-05-07T10:23:40Z</time>
      </trkpt>
      <trkpt lat="44.95808" lon="4.23186">
        <ele>1248.3</ele>
        <time>2026-05-07T10:23:45Z</time>
      </trkpt>
      <trkpt lat="44.95803" lon="4.23179">
        <ele>1249.4</ele>
        <time>2026-05-07T10:23:50Z</time>
      </trkpt>
      <trkpt lat="44.95799" lon="4.23171">
        <ele>1250.5</ele>
        <time>2026-05-07T10:23:55Z</time>
      </trkpt>
      <trkpt lat="44.95795" lon="4.23163">
        <ele>1251.3</ele>
        <time>2026-05-07T10:24:00Z</time>
      </trkpt>
      <trkpt lat="44.95792" lon="4.23155">
        <ele>1251.7</ele>
        <time>2026-05-07T10:24:05Z</time>
      </trkpt>
      <trkpt lat="44.95788" lon="4.23148">
        <ele>1252.2</ele>
        <time>2026-05-07T10:24:10Z</time>
      </trkpt>
      <trkpt lat="44.95786" lon="4.2314">
        <ele>1252.5</ele>
        <time>2026-05-07T10:24:15Z</time>
      </trkpt>
      <trkpt lat="44.95782" lon="4.23132">
        <ele>1253</ele>
        <time>2026-05-07T10:24:20Z</time>
      </trkpt>
      <trkpt lat="44.95778" lon="4.23126">
        <ele>1253.5</ele>
        <time>2026-05-07T10:24:25Z</time>
      </trkpt>
      <trkpt lat="44.95774" lon="4.23119">
        <ele>1254</ele>
        <time>2026-05-07T10:24:30Z</time>
      </trkpt>
      <trkpt lat="44.9577" lon="4.23113">
        <ele>1254.5</ele>
        <time>2026-05-07T10:24:35Z</time>
      </trkpt>
      <trkpt lat="44.95768" lon="4.23109">
        <ele>1254.7</ele>
        <time>2026-05-07T10:24:40Z</time>
      </trkpt>
      <trkpt lat="44.95764" lon="4.23102">
        <ele>1255.2</ele>
        <time>2026-05-07T10:24:45Z</time>
      </trkpt>
      <trkpt lat="44.9576" lon="4.23096">
        <ele>1255.8</ele>
        <time>2026-05-07T10:24:50Z</time>
      </trkpt>
      <trkpt lat="44.95756" lon="4.23089">
        <ele>1256.3</ele>
        <time>2026-05-07T10:24:55Z</time>
      </trkpt>
      <trkpt lat="44.95751" lon="4.23083">
        <ele>1256.9</ele>
        <time>2026-05-07T10:25:00Z</time>
      </trkpt>
      <trkpt lat="44.95747" lon="4.23077">
        <ele>1257.1</ele>
        <time>2026-05-07T10:25:05Z</time>
      </trkpt>
      <trkpt lat="44.95743" lon="4.2307">
        <ele>1257.3</ele>
        <time>2026-05-07T10:25:10Z</time>
      </trkpt>
      <trkpt lat="44.95739" lon="4.23065">
        <ele>1257.6</ele>
        <time>2026-05-07T10:25:15Z</time>
      </trkpt>
      <trkpt lat="44.95734" lon="4.23059">
        <ele>1257.9</ele>
        <time>2026-05-07T10:25:20Z</time>
      </trkpt>
      <trkpt lat="44.95731" lon="4.23052">
        <ele>1258.1</ele>
        <time>2026-05-07T10:25:25Z</time>
      </trkpt>
      <trkpt lat="44.95726" lon="4.23045">
        <ele>1258.5</ele>
        <time>2026-05-07T10:25:30Z</time>
      </trkpt>
      <trkpt lat="44.95722" lon="4.23039">
        <ele>1258.9</ele>
        <time>2026-05-07T10:25:35Z</time>
      </trkpt>
      <trkpt lat="44.95718" lon="4.23033">
        <ele>1259.2</ele>
        <time>2026-05-07T10:25:40Z</time>
      </trkpt>
      <trkpt lat="44.95714" lon="4.23027">
        <ele>1259.7</ele>
        <time>2026-05-07T10:25:45Z</time>
      </trkpt>
      <trkpt lat="44.95709" lon="4.2302">
        <ele>1260.2</ele>
        <time>2026-05-07T10:25:50Z</time>
      </trkpt>
      <trkpt lat="44.95706" lon="4.23015">
        <ele>1260.6</ele>
        <time>2026-05-07T10:25:55Z</time>
      </trkpt>
      <trkpt lat="44.95702" lon="4.23009">
        <ele>1261</ele>
        <time>2026-05-07T10:26:00Z</time>
      </trkpt>
      <trkpt lat="44.95699" lon="4.23002">
        <ele>1261.5</ele>
        <time>2026-05-07T10:26:05Z</time>
      </trkpt>
      <trkpt lat="44.95694" lon="4.22996">
        <ele>1262</ele>
        <time>2026-05-07T10:26:10Z</time>
      </trkpt>
      <trkpt lat="44.95691" lon="4.22989">
        <ele>1262.1</ele>
        <time>2026-05-07T10:26:15Z</time>
      </trkpt>
      <trkpt lat="44.95687" lon="4.22982">
        <ele>1262.4</ele>
        <time>2026-05-07T10:26:20Z</time>
      </trkpt>
      <trkpt lat="44.95684" lon="4.22974">
        <ele>1262.6</ele>
        <time>2026-05-07T10:26:25Z</time>
      </trkpt>
      <trkpt lat="44.95681" lon="4.22967">
        <ele>1262.7</ele>
        <time>2026-05-07T10:26:30Z</time>
      </trkpt>
      <trkpt lat="44.95677" lon="4.22959">
        <ele>1263</ele>
        <time>2026-05-07T10:26:35Z</time>
      </trkpt>
      <trkpt lat="44.95673" lon="4.22953">
        <ele>1263.2</ele>
        <time>2026-05-07T10:26:40Z</time>
      </trkpt>
      <trkpt lat="44.9567" lon="4.22945">
        <ele>1263.3</ele>
        <time>2026-05-07T10:26:45Z</time>
      </trkpt>
      <trkpt lat="44.95667" lon="4.22937">
        <ele>1263.5</ele>
        <time>2026-05-07T10:26:50Z</time>
      </trkpt>
      <trkpt lat="44.95663" lon="4.22929">
        <ele>1263.6</ele>
        <time>2026-05-07T10:26:55Z</time>
      </trkpt>
      <trkpt lat="44.95659" lon="4.22922">
        <ele>1263.8</ele>
        <time>2026-05-07T10:27:00Z</time>
      </trkpt>
      <trkpt lat="44.95654" lon="4.22916">
        <ele>1264.2</ele>
        <time>2026-05-07T10:27:05Z</time>
      </trkpt>
      <trkpt lat="44.9565" lon="4.22909">
        <ele>1264.3</ele>
        <time>2026-05-07T10:27:10Z</time>
      </trkpt>
      <trkpt lat="44.95646" lon="4.22903">
        <ele>1264.5</ele>
        <time>2026-05-07T10:27:15Z</time>
      </trkpt>
      <trkpt lat="44.95641" lon="4.22896">
        <ele>1264.8</ele>
        <time>2026-05-07T10:27:20Z</time>
      </trkpt>
      <trkpt lat="44.95636" lon="4.2289">
        <ele>1265.1</ele>
        <time>2026-05-07T10:27:25Z</time>
      </trkpt>
      <trkpt lat="44.95631" lon="4.22886">
        <ele>1265.5</ele>
        <time>2026-05-07T10:27:30Z</time>
      </trkpt>
      <trkpt lat="44.95626" lon="4.22881">
        <ele>1265.8</ele>
        <time>2026-05-07T10:27:35Z</time>
      </trkpt>
      <trkpt lat="44.95625" lon="4.22879">
        <ele>1265.9</ele>
        <time>2026-05-07T10:27:40Z</time>
      </trkpt>
      <trkpt lat="44.95625" lon="4.22879">
        <ele>1265.9</ele>
        <time>2026-05-07T10:27:45Z</time>
      </trkpt>
      <trkpt lat="44.95625" lon="4.22879">
        <ele>1265.9</ele>
        <time>2026-05-07T10:27:50Z</time>
      </trkpt>
      <trkpt lat="44.95625" lon="4.22879">
        <ele>1265.9</ele>
        <time>2026-05-07T10:27:55Z</time>
      </trkpt>
      <trkpt lat="44.95623" lon="4.22875">
        <ele>1266</ele>
        <time>2026-05-07T10:28:00Z</time>
      </trkpt>
      <trkpt lat="44.95617" lon="4.2287">
        <ele>1266.4</ele>
        <time>2026-05-07T10:28:05Z</time>
      </trkpt>
      <trkpt lat="44.95613" lon="4.22863">
        <ele>1266.6</ele>
        <time>2026-05-07T10:28:10Z</time>
      </trkpt>
      <trkpt lat="44.95609" lon="4.22858">
        <ele>1266.9</ele>
        <time>2026-05-07T10:28:15Z</time>
      </trkpt>
      <trkpt lat="44.95603" lon="4.22855">
        <ele>1267.5</ele>
        <time>2026-05-07T10:28:20Z</time>
      </trkpt>
      <trkpt lat="44.95599" lon="4.22848">
        <ele>1267.7</ele>
        <time>2026-05-07T10:28:25Z</time>
      </trkpt>
      <trkpt lat="44.95593" lon="4.2284">
        <ele>1268.1</ele>
        <time>2026-05-07T10:28:30Z</time>
      </trkpt>
      <trkpt lat="44.9559" lon="4.22833">
        <ele>1268.3</ele>
        <time>2026-05-07T10:28:35Z</time>
      </trkpt>
      <trkpt lat="44.95585" lon="4.22827">
        <ele>1268.6</ele>
        <time>2026-05-07T10:28:40Z</time>
      </trkpt>
      <trkpt lat="44.9558" lon="4.22821">
        <ele>1268.8</ele>
        <time>2026-05-07T10:28:45Z</time>
      </trkpt>
      <trkpt lat="44.95575" lon="4.22815">
        <ele>1268.9</ele>
        <time>2026-05-07T10:28:50Z</time>
      </trkpt>
      <trkpt lat="44.95572" lon="4.2281">
        <ele>1269</ele>
        <time>2026-05-07T10:28:55Z</time>
      </trkpt>
      <trkpt lat="44.95567" lon="4.228">
        <ele>1269</ele>
        <time>2026-05-07T10:29:00Z</time>
      </trkpt>
      <trkpt lat="44.95563" lon="4.22792">
        <ele>1269.1</ele>
        <time>2026-05-07T10:29:05Z</time>
      </trkpt>
      <trkpt lat="44.95559" lon="4.22785">
        <ele>1269.2</ele>
        <time>2026-05-07T10:29:10Z</time>
      </trkpt>
      <trkpt lat="44.95553" lon="4.22776">
        <ele>1269.5</ele>
        <time>2026-05-07T10:29:15Z</time>
      </trkpt>
      <trkpt lat="44.95549" lon="4.22769">
        <ele>1269.7</ele>
        <time>2026-05-07T10:29:20Z</time>
      </trkpt>
      <trkpt lat="44.95545" lon="4.22761">
        <ele>1269.9</ele>
        <time>2026-05-07T10:29:25Z</time>
      </trkpt>
      <trkpt lat="44.95542" lon="4.22754">
        <ele>1270</ele>
        <time>2026-05-07T10:29:30Z</time>
      </trkpt>
      <trkpt lat="44.95537" lon="4.22745">
        <ele>1270.2</ele>
        <time>2026-05-07T10:29:35Z</time>
      </trkpt>
      <trkpt lat="44.95533" lon="4.22736">
        <ele>1270.3</ele>
        <time>2026-05-07T10:29:40Z</time>
      </trkpt>
      <trkpt lat="44.95528" lon="4.22727">
        <ele>1270.5</ele>
        <time>2026-05-07T10:29:45Z</time>
      </trkpt>
      <trkpt lat="44.95525" lon="4.22718">
        <ele>1270.5</ele>
        <time>2026-05-07T10:29:50Z</time>
      </trkpt>
      <trkpt lat="44.95521" lon="4.22709">
        <ele>1270.6</ele>
        <time>2026-05-07T10:29:55Z</time>
      </trkpt>
      <trkpt lat="44.95518" lon="4.22699">
        <ele>1270.7</ele>
        <time>2026-05-07T10:30:00Z</time>
      </trkpt>
      <trkpt lat="44.95514" lon="4.22692">
        <ele>1270.9</ele>
        <time>2026-05-07T10:30:05Z</time>
      </trkpt>
      <trkpt lat="44.95514" lon="4.22688">
        <ele>1270.8</ele>
        <time>2026-05-07T10:30:10Z</time>
      </trkpt>
      <trkpt lat="44.95514" lon="4.22685">
        <ele>1270.7</ele>
        <time>2026-05-07T10:30:15Z</time>
      </trkpt>
      <trkpt lat="44.95515" lon="4.22684">
        <ele>1270.5</ele>
        <time>2026-05-07T10:30:20Z</time>
      </trkpt>
      <trkpt lat="44.95515" lon="4.22684">
        <ele>1270.5</ele>
        <time>2026-05-07T10:30:25Z</time>
      </trkpt>
      <trkpt lat="44.95508" lon="4.22676">
        <ele>1271.2</ele>
        <time>2026-05-07T10:30:30Z</time>
      </trkpt>
      <trkpt lat="44.95505" lon="4.22668">
        <ele>1271.4</ele>
        <time>2026-05-07T10:30:35Z</time>
      </trkpt>
      <trkpt lat="44.95502" lon="4.22658">
        <ele>1271.5</ele>
        <time>2026-05-07T10:30:40Z</time>
      </trkpt>
      <trkpt lat="44.95498" lon="4.22649">
        <ele>1271.7</ele>
        <time>2026-05-07T10:30:45Z</time>
      </trkpt>
      <trkpt lat="44.95494" lon="4.22639">
        <ele>1271.9</ele>
        <time>2026-05-07T10:30:50Z</time>
      </trkpt>
      <trkpt lat="44.95491" lon="4.22631">
        <ele>1271.9</ele>
        <time>2026-05-07T10:30:55Z</time>
      </trkpt>
      <trkpt lat="44.95489" lon="4.22623">
        <ele>1271.9</ele>
        <time>2026-05-07T10:31:00Z</time>
      </trkpt>
      <trkpt lat="44.95487" lon="4.22614">
        <ele>1271.9</ele>
        <time>2026-05-07T10:31:05Z</time>
      </trkpt>
      <trkpt lat="44.95487" lon="4.22603">
        <ele>1271.7</ele>
        <time>2026-05-07T10:31:10Z</time>
      </trkpt>
      <trkpt lat="44.95487" lon="4.22598">
        <ele>1271.6</ele>
        <time>2026-05-07T10:31:15Z</time>
      </trkpt>
      <trkpt lat="44.95487" lon="4.2259">
        <ele>1271.4</ele>
        <time>2026-05-07T10:31:20Z</time>
      </trkpt>
      <trkpt lat="44.95487" lon="4.22581">
        <ele>1271.2</ele>
        <time>2026-05-07T10:31:25Z</time>
      </trkpt>
      <trkpt lat="44.95487" lon="4.22574">
        <ele>1271.2</ele>
        <time>2026-05-07T10:31:30Z</time>
      </trkpt>
      <trkpt lat="44.95487" lon="4.22568">
        <ele>1271.2</ele>
        <time>2026-05-07T10:31:35Z</time>
      </trkpt>
      <trkpt lat="44.95486" lon="4.22561">
        <ele>1271.3</ele>
        <time>2026-05-07T10:31:40Z</time>
      </trkpt>
      <trkpt lat="44.95484" lon="4.22553">
        <ele>1271.5</ele>
        <time>2026-05-07T10:31:45Z</time>
      </trkpt>
      <trkpt lat="44.95484" lon="4.22549">
        <ele>1271.5</ele>
        <time>2026-05-07T10:31:50Z</time>
      </trkpt>
      <trkpt lat="44.95484" lon="4.22546">
        <ele>1271.4</ele>
        <time>2026-05-07T10:31:55Z</time>
      </trkpt>
      <trkpt lat="44.95484" lon="4.22546">
        <ele>1271.4</ele>
        <time>2026-05-07T10:32:00Z</time>
      </trkpt>
      <trkpt lat="44.95481" lon="4.2254">
        <ele>1271.7</ele>
        <time>2026-05-07T10:32:05Z</time>
      </trkpt>
      <trkpt lat="44.95479" lon="4.22537">
        <ele>1271.9</ele>
        <time>2026-05-07T10:32:10Z</time>
      </trkpt>
      <trkpt lat="44.95478" lon="4.22533">
        <ele>1272</ele>
        <time>2026-05-07T10:32:15Z</time>
      </trkpt>
      <trkpt lat="44.95475" lon="4.22526">
        <ele>1272.2</ele>
        <time>2026-05-07T10:32:20Z</time>
      </trkpt>
      <trkpt lat="44.95472" lon="4.2252">
        <ele>1272.4</ele>
        <time>2026-05-07T10:32:25Z</time>
      </trkpt>
      <trkpt lat="44.95471" lon="4.22509">
        <ele>1272.5</ele>
        <time>2026-05-07T10:32:30Z</time>
      </trkpt>
      <trkpt lat="44.95471" lon="4.22503">
        <ele>1272.4</ele>
        <time>2026-05-07T10:32:35Z</time>
      </trkpt>
      <trkpt lat="44.95472" lon="4.22498">
        <ele>1272.4</ele>
        <time>2026-05-07T10:32:40Z</time>
      </trkpt>
      <trkpt lat="44.95474" lon="4.22494">
        <ele>1272.3</ele>
        <time>2026-05-07T10:32:45Z</time>
      </trkpt>
      <trkpt lat="44.95478" lon="4.2249">
        <ele>1272.1</ele>
        <time>2026-05-07T10:32:50Z</time>
      </trkpt>
      <trkpt lat="44.95482" lon="4.22486">
        <ele>1271.8</ele>
        <time>2026-05-07T10:32:55Z</time>
      </trkpt>
      <trkpt lat="44.95486" lon="4.22482">
        <ele>1271.6</ele>
        <time>2026-05-07T10:33:00Z</time>
      </trkpt>
      <trkpt lat="44.95492" lon="4.22476">
        <ele>1271.2</ele>
        <time>2026-05-07T10:33:05Z</time>
      </trkpt>
      <trkpt lat="44.95497" lon="4.2247">
        <ele>1271</ele>
        <time>2026-05-07T10:33:10Z</time>
      </trkpt>
      <trkpt lat="44.95502" lon="4.22464">
        <ele>1270.8</ele>
        <time>2026-05-07T10:33:15Z</time>
      </trkpt>
      <trkpt lat="44.95507" lon="4.22458">
        <ele>1270.7</ele>
        <time>2026-05-07T10:33:20Z</time>
      </trkpt>
      <trkpt lat="44.9551" lon="4.22456">
        <ele>1270.6</ele>
        <time>2026-05-07T10:33:25Z</time>
      </trkpt>
      <trkpt lat="44.95511" lon="4.22456">
        <ele>1270.5</ele>
        <time>2026-05-07T10:33:30Z</time>
      </trkpt>
      <trkpt lat="44.95513" lon="4.22451">
        <ele>1270.6</ele>
        <time>2026-05-07T10:33:35Z</time>
      </trkpt>
      <trkpt lat="44.95515" lon="4.22443">
        <ele>1270.7</ele>
        <time>2026-05-07T10:33:40Z</time>
      </trkpt>
      <trkpt lat="44.95517" lon="4.22437">
        <ele>1270.8</ele>
        <time>2026-05-07T10:33:45Z</time>
      </trkpt>
      <trkpt lat="44.95519" lon="4.22433">
        <ele>1270.8</ele>
        <time>2026-05-07T10:33:50Z</time>
      </trkpt>
      <trkpt lat="44.95521" lon="4.22425">
        <ele>1271</ele>
        <time>2026-05-07T10:33:55Z</time>
      </trkpt>
      <trkpt lat="44.95524" lon="4.22416">
        <ele>1271.2</ele>
        <time>2026-05-07T10:34:00Z</time>
      </trkpt>
      <trkpt lat="44.95528" lon="4.22407">
        <ele>1271.6</ele>
        <time>2026-05-07T10:34:05Z</time>
      </trkpt>
      <trkpt lat="44.9553" lon="4.22401">
        <ele>1272</ele>
        <time>2026-05-07T10:34:10Z</time>
      </trkpt>
      <trkpt lat="44.95534" lon="4.22394">
        <ele>1272.4</ele>
        <time>2026-05-07T10:34:15Z</time>
      </trkpt>
      <trkpt lat="44.95537" lon="4.22386">
        <ele>1272.8</ele>
        <time>2026-05-07T10:34:20Z</time>
      </trkpt>
      <trkpt lat="44.9554" lon="4.22381">
        <ele>1273.1</ele>
        <time>2026-05-07T10:34:25Z</time>
      </trkpt>
      <trkpt lat="44.95544" lon="4.22375">
        <ele>1273.4</ele>
        <time>2026-05-07T10:34:30Z</time>
      </trkpt>
      <trkpt lat="44.95548" lon="4.2237">
        <ele>1273.7</ele>
        <time>2026-05-07T10:34:35Z</time>
      </trkpt>
      <trkpt lat="44.95554" lon="4.22366">
        <ele>1273.9</ele>
        <time>2026-05-07T10:34:40Z</time>
      </trkpt>
      <trkpt lat="44.95559" lon="4.22363">
        <ele>1274</ele>
        <time>2026-05-07T10:34:45Z</time>
      </trkpt>
      <trkpt lat="44.95563" lon="4.22362">
        <ele>1274</ele>
        <time>2026-05-07T10:34:50Z</time>
      </trkpt>
      <trkpt lat="44.95569" lon="4.2236">
        <ele>1274</ele>
        <time>2026-05-07T10:34:55Z</time>
      </trkpt>
      <trkpt lat="44.95574" lon="4.22358">
        <ele>1274.1</ele>
        <time>2026-05-07T10:35:00Z</time>
      </trkpt>
      <trkpt lat="44.95581" lon="4.22356">
        <ele>1274.1</ele>
        <time>2026-05-07T10:35:05Z</time>
      </trkpt>
      <trkpt lat="44.9559" lon="4.22352">
        <ele>1274</ele>
        <time>2026-05-07T10:35:10Z</time>
      </trkpt>
      <trkpt lat="44.95596" lon="4.2235">
        <ele>1273.8</ele>
        <time>2026-05-07T10:35:15Z</time>
      </trkpt>
      <trkpt lat="44.95602" lon="4.22348">
        <ele>1273.6</ele>
        <time>2026-05-07T10:35:20Z</time>
      </trkpt>
      <trkpt lat="44.95611" lon="4.22345">
        <ele>1273.2</ele>
        <time>2026-05-07T10:35:25Z</time>
      </trkpt>
      <trkpt lat="44.95619" lon="4.2234">
        <ele>1273</ele>
        <time>2026-05-07T10:35:30Z</time>
      </trkpt>
      <trkpt lat="44.95627" lon="4.22334">
        <ele>1272.8</ele>
        <time>2026-05-07T10:35:35Z</time>
      </trkpt>
      <trkpt lat="44.95635" lon="4.22329">
        <ele>1272.5</ele>
        <time>2026-05-07T10:35:40Z</time>
      </trkpt>
      <trkpt lat="44.9564" lon="4.22324">
        <ele>1272.5</ele>
        <time>2026-05-07T10:35:45Z</time>
      </trkpt>
      <trkpt lat="44.95647" lon="4.22318">
        <ele>1272.3</ele>
        <time>2026-05-07T10:35:50Z</time>
      </trkpt>
      <trkpt lat="44.95653" lon="4.22315">
        <ele>1272.1</ele>
        <time>2026-05-07T10:35:55Z</time>
      </trkpt>
      <trkpt lat="44.95655" lon="4.22315">
        <ele>1271.9</ele>
        <time>2026-05-07T10:36:00Z</time>
      </trkpt>
      <trkpt lat="44.95656" lon="4.22316">
        <ele>1271.8</ele>
        <time>2026-05-07T10:36:05Z</time>
      </trkpt>
      <trkpt lat="44.95656" lon="4.22316">
        <ele>1271.8</ele>
        <time>2026-05-07T10:36:10Z</time>
      </trkpt>
      <trkpt lat="44.95656" lon="4.22316">
        <ele>1271.8</ele>
        <time>2026-05-07T10:36:15Z</time>
      </trkpt>
      <trkpt lat="44.95656" lon="4.22316">
        <ele>1271.8</ele>
        <time>2026-05-07T10:36:20Z</time>
      </trkpt>
      <trkpt lat="44.95656" lon="4.22316">
        <ele>1271.8</ele>
        <time>2026-05-07T10:36:25Z</time>
      </trkpt>
      <trkpt lat="44.95656" lon="4.22316">
        <ele>1271.8</ele>
        <time>2026-05-07T10:36:30Z</time>
      </trkpt>
      <trkpt lat="44.95656" lon="4.22316">
        <ele>1271.8</ele>
        <time>2026-05-07T10:36:35Z</time>
      </trkpt>
      <trkpt lat="44.95656" lon="4.22316">
        <ele>1271.8</ele>
        <time>2026-05-07T10:36:40Z</time>
      </trkpt>
      <trkpt lat="44.95656" lon="4.22316">
        <ele>1271.8</ele>
        <time>2026-05-07T10:36:45Z</time>
      </trkpt>
      <trkpt lat="44.95656" lon="4.22316">
        <ele>1271.8</ele>
        <time>2026-05-07T10:36:50Z</time>
      </trkpt>
      <trkpt lat="44.95656" lon="4.22316">
        <ele>1271.8</ele>
        <time>2026-05-07T10:36:55Z</time>
      </trkpt>
      <trkpt lat="44.95656" lon="4.22316">
        <ele>1271.8</ele>
        <time>2026-05-07T10:37:00Z</time>
      </trkpt>
      <trkpt lat="44.95656" lon="4.22316">
        <ele>1271.8</ele>
        <time>2026-05-07T10:37:05Z</time>
      </trkpt>
      <trkpt lat="44.95656" lon="4.22316">
        <ele>1271.8</ele>
        <time>2026-05-07T10:37:10Z</time>
      </trkpt>
      <trkpt lat="44.95656" lon="4.22316">
        <ele>1271.8</ele>
        <time>2026-05-07T10:37:15Z</time>
      </trkpt>
      <trkpt lat="44.95656" lon="4.22316">
        <ele>1271.8</ele>
        <time>2026-05-07T10:37:20Z</time>
      </trkpt>
      <trkpt lat="44.95656" lon="4.22316">
        <ele>1271.8</ele>
        <time>2026-05-07T10:37:25Z</time>
      </trkpt>
      <trkpt lat="44.95656" lon="4.22316">
        <ele>1271.8</ele>
        <time>2026-05-07T10:37:30Z</time>
      </trkpt>
      <trkpt lat="44.95656" lon="4.22316">
        <ele>1271.8</ele>
        <time>2026-05-07T10:37:35Z</time>
      </trkpt>
      <trkpt lat="44.95656" lon="4.22316">
        <ele>1271.8</ele>
        <time>2026-05-07T10:37:40Z</time>
      </trkpt>
      <trkpt lat="44.95656" lon="4.22316">
        <ele>1271.8</ele>
        <time>2026-05-07T10:37:45Z</time>
      </trkpt>
      <trkpt lat="44.95656" lon="4.22316">
        <ele>1271.8</ele>
        <time>2026-05-07T10:37:50Z</time>
      </trkpt>
      <trkpt lat="44.95656" lon="4.22316">
        <ele>1271.8</ele>
        <time>2026-05-07T10:37:55Z</time>
      </trkpt>
      <trkpt lat="44.95656" lon="4.22316">
        <ele>1271.8</ele>
        <time>2026-05-07T10:38:00Z</time>
      </trkpt>
      <trkpt lat="44.95656" lon="4.22316">
        <ele>1271.8</ele>
        <time>2026-05-07T10:38:05Z</time>
      </trkpt>
      <trkpt lat="44.95656" lon="4.22316">
        <ele>1271.8</ele>
        <time>2026-05-07T10:38:10Z</time>
      </trkpt>
      <trkpt lat="44.95656" lon="4.22316">
        <ele>1271.8</ele>
        <time>2026-05-07T10:38:15Z</time>
      </trkpt>
      <trkpt lat="44.95656" lon="4.22316">
        <ele>1271.8</ele>
        <time>2026-05-07T10:38:20Z</time>
      </trkpt>
      <trkpt lat="44.95656" lon="4.22316">
        <ele>1271.8</ele>
        <time>2026-05-07T10:38:25Z</time>
      </trkpt>
      <trkpt lat="44.95656" lon="4.22316">
        <ele>1271.8</ele>
        <time>2026-05-07T10:38:30Z</time>
      </trkpt>
      <trkpt lat="44.95656" lon="4.22316">
        <ele>1271.8</ele>
        <time>2026-05-07T10:38:35Z</time>
      </trkpt>
      <trkpt lat="44.95656" lon="4.22316">
        <ele>1271.8</ele>
        <time>2026-05-07T10:38:40Z</time>
      </trkpt>
      <trkpt lat="44.95656" lon="4.22316">
        <ele>1271.8</ele>
        <time>2026-05-07T10:38:45Z</time>
      </trkpt>
      <trkpt lat="44.95656" lon="4.22316">
        <ele>1271.8</ele>
        <time>2026-05-07T10:38:50Z</time>
      </trkpt>
      <trkpt lat="44.95656" lon="4.22316">
        <ele>1271.8</ele>
        <time>2026-05-07T10:38:55Z</time>
      </trkpt>
      <trkpt lat="44.95656" lon="4.22316">
        <ele>1271.8</ele>
        <time>2026-05-07T10:39:00Z</time>
      </trkpt>
      <trkpt lat="44.95656" lon="4.22316">
        <ele>1271.8</ele>
        <time>2026-05-07T10:39:05Z</time>
      </trkpt>
      <trkpt lat="44.95656" lon="4.22316">
        <ele>1271.8</ele>
        <time>2026-05-07T10:39:10Z</time>
      </trkpt>
      <trkpt lat="44.95656" lon="4.22316">
        <ele>1271.8</ele>
        <time>2026-05-07T10:39:15Z</time>
      </trkpt>
      <trkpt lat="44.95656" lon="4.22316">
        <ele>1271.8</ele>
        <time>2026-05-07T10:39:20Z</time>
      </trkpt>
      <trkpt lat="44.95656" lon="4.22316">
        <ele>1271.8</ele>
        <time>2026-05-07T10:39:25Z</time>
      </trkpt>
      <trkpt lat="44.95656" lon="4.22316">
        <ele>1271.8</ele>
        <time>2026-05-07T10:39:30Z</time>
      </trkpt>
      <trkpt lat="44.95656" lon="4.22316">
        <ele>1271.8</ele>
        <time>2026-05-07T10:39:35Z</time>
      </trkpt>
      <trkpt lat="44.95656" lon="4.22316">
        <ele>1271.8</ele>
        <time>2026-05-07T10:39:40Z</time>
      </trkpt>
      <trkpt lat="44.95656" lon="4.22316">
        <ele>1271.8</ele>
        <time>2026-05-07T10:39:45Z</time>
      </trkpt>
      <trkpt lat="44.95656" lon="4.22316">
        <ele>1271.8</ele>
        <time>2026-05-07T10:39:50Z</time>
      </trkpt>
      <trkpt lat="44.95656" lon="4.22316">
        <ele>1271.8</ele>
        <time>2026-05-07T10:39:55Z</time>
      </trkpt>
      <trkpt lat="44.95656" lon="4.22316">
        <ele>1271.8</ele>
        <time>2026-05-07T10:40:00Z</time>
      </trkpt>
      <trkpt lat="44.95656" lon="4.22316">
        <ele>1271.8</ele>
        <time>2026-05-07T10:40:05Z</time>
      </trkpt>
      <trkpt lat="44.95656" lon="4.22316">
        <ele>1271.8</ele>
        <time>2026-05-07T10:40:10Z</time>
      </trkpt>
      <trkpt lat="44.95656" lon="4.22316">
        <ele>1271.8</ele>
        <time>2026-05-07T10:40:15Z</time>
      </trkpt>
      <trkpt lat="44.95656" lon="4.22316">
        <ele>1271.8</ele>
        <time>2026-05-07T10:40:20Z</time>
      </trkpt>
      <trkpt lat="44.95656" lon="4.22316">
        <ele>1271.8</ele>
        <time>2026-05-07T10:40:25Z</time>
      </trkpt>
      <trkpt lat="44.95656" lon="4.22316">
        <ele>1271.8</ele>
        <time>2026-05-07T10:40:30Z</time>
      </trkpt>
      <trkpt lat="44.95656" lon="4.22316">
        <ele>1271.8</ele>
        <time>2026-05-07T10:40:35Z</time>
      </trkpt>
      <trkpt lat="44.95656" lon="4.22316">
        <ele>1271.8</ele>
        <time>2026-05-07T10:40:40Z</time>
      </trkpt>
      <trkpt lat="44.95656" lon="4.22316">
        <ele>1271.8</ele>
        <time>2026-05-07T10:40:45Z</time>
      </trkpt>
      <trkpt lat="44.95656" lon="4.22316">
        <ele>1271.8</ele>
        <time>2026-05-07T10:40:50Z</time>
      </trkpt>
      <trkpt lat="44.95656" lon="4.22316">
        <ele>1271.8</ele>
        <time>2026-05-07T10:40:55Z</time>
      </trkpt>
      <trkpt lat="44.95656" lon="4.22316">
        <ele>1271.8</ele>
        <time>2026-05-07T10:41:00Z</time>
      </trkpt>
      <trkpt lat="44.9566" lon="4.22307">
        <ele>1272.1</ele>
        <time>2026-05-07T10:41:05Z</time>
      </trkpt>
      <trkpt lat="44.9566" lon="4.22297">
        <ele>1272.7</ele>
        <time>2026-05-07T10:41:10Z</time>
      </trkpt>
      <trkpt lat="44.95661" lon="4.22287">
        <ele>1273.2</ele>
        <time>2026-05-07T10:41:15Z</time>
      </trkpt>
      <trkpt lat="44.95662" lon="4.22282">
        <ele>1273.4</ele>
        <time>2026-05-07T10:41:20Z</time>
      </trkpt>
      <trkpt lat="44.95662" lon="4.22279">
        <ele>1273.6</ele>
        <time>2026-05-07T10:41:25Z</time>
      </trkpt>
      <trkpt lat="44.95662" lon="4.22279">
        <ele>1273.6</ele>
        <time>2026-05-07T10:41:30Z</time>
      </trkpt>
      <trkpt lat="44.95662" lon="4.22279">
        <ele>1273.6</ele>
        <time>2026-05-07T10:41:35Z</time>
      </trkpt>
      <trkpt lat="44.95662" lon="4.22279">
        <ele>1273.6</ele>
        <time>2026-05-07T10:41:40Z</time>
      </trkpt>
      <trkpt lat="44.95662" lon="4.22279">
        <ele>1273.6</ele>
        <time>2026-05-07T10:41:45Z</time>
      </trkpt>
      <trkpt lat="44.95662" lon="4.22279">
        <ele>1273.6</ele>
        <time>2026-05-07T10:41:50Z</time>
      </trkpt>
      <trkpt lat="44.95662" lon="4.22279">
        <ele>1273.6</ele>
        <time>2026-05-07T10:41:55Z</time>
      </trkpt>
      <trkpt lat="44.95666" lon="4.22271">
        <ele>1273.8</ele>
        <time>2026-05-07T10:42:00Z</time>
      </trkpt>
      <trkpt lat="44.95665" lon="4.22261">
        <ele>1274.5</ele>
        <time>2026-05-07T10:42:05Z</time>
      </trkpt>
      <trkpt lat="44.95665" lon="4.22252">
        <ele>1275</ele>
        <time>2026-05-07T10:42:10Z</time>
      </trkpt>
      <trkpt lat="44.95665" lon="4.22246">
        <ele>1275</ele>
        <time>2026-05-07T10:42:15Z</time>
      </trkpt>
      <trkpt lat="44.95664" lon="4.22237">
        <ele>1274.9</ele>
        <time>2026-05-07T10:42:20Z</time>
      </trkpt>
      <trkpt lat="44.95665" lon="4.22227">
        <ele>1274.6</ele>
        <time>2026-05-07T10:42:25Z</time>
      </trkpt>
      <trkpt lat="44.95667" lon="4.22216">
        <ele>1274.1</ele>
        <time>2026-05-07T10:42:30Z</time>
      </trkpt>
      <trkpt lat="44.95667" lon="4.22208">
        <ele>1273.9</ele>
        <time>2026-05-07T10:42:35Z</time>
      </trkpt>
      <trkpt lat="44.95666" lon="4.22198">
        <ele>1273.8</ele>
        <time>2026-05-07T10:42:40Z</time>
      </trkpt>
      <trkpt lat="44.95663" lon="4.2219">
        <ele>1274</ele>
        <time>2026-05-07T10:42:45Z</time>
      </trkpt>
      <trkpt lat="44.95661" lon="4.22181">
        <ele>1274.1</ele>
        <time>2026-05-07T10:42:50Z</time>
      </trkpt>
      <trkpt lat="44.9566" lon="4.22172">
        <ele>1274.1</ele>
        <time>2026-05-07T10:42:55Z</time>
      </trkpt>
      <trkpt lat="44.9566" lon="4.22167">
        <ele>1274</ele>
        <time>2026-05-07T10:43:00Z</time>
      </trkpt>
      <trkpt lat="44.9566" lon="4.22166">
        <ele>1273.9</ele>
        <time>2026-05-07T10:43:05Z</time>
      </trkpt>
      <trkpt lat="44.9566" lon="4.22166">
        <ele>1273.9</ele>
        <time>2026-05-07T10:43:10Z</time>
      </trkpt>
      <trkpt lat="44.9566" lon="4.22166">
        <ele>1273.9</ele>
        <time>2026-05-07T10:43:15Z</time>
      </trkpt>
      <trkpt lat="44.9566" lon="4.22166">
        <ele>1273.9</ele>
        <time>2026-05-07T10:43:20Z</time>
      </trkpt>
      <trkpt lat="44.9566" lon="4.22166">
        <ele>1273.9</ele>
        <time>2026-05-07T10:43:25Z</time>
      </trkpt>
      <trkpt lat="44.9566" lon="4.22166">
        <ele>1273.9</ele>
        <time>2026-05-07T10:43:30Z</time>
      </trkpt>
      <trkpt lat="44.95662" lon="4.22154">
        <ele>1272.3</ele>
        <time>2026-05-07T10:43:35Z</time>
      </trkpt>
      <trkpt lat="44.95658" lon="4.22146">
        <ele>1272.1</ele>
        <time>2026-05-07T10:43:40Z</time>
      </trkpt>
      <trkpt lat="44.95654" lon="4.22138">
        <ele>1271.9</ele>
        <time>2026-05-07T10:43:45Z</time>
      </trkpt>
      <trkpt lat="44.95649" lon="4.22131">
        <ele>1272.1</ele>
        <time>2026-05-07T10:43:50Z</time>
      </trkpt>
      <trkpt lat="44.95645" lon="4.22123">
        <ele>1271.9</ele>
        <time>2026-05-07T10:43:55Z</time>
      </trkpt>
      <trkpt lat="44.9564" lon="4.22117">
        <ele>1272.2</ele>
        <time>2026-05-07T10:44:00Z</time>
      </trkpt>
      <trkpt lat="44.95636" lon="4.22109">
        <ele>1272.2</ele>
        <time>2026-05-07T10:44:05Z</time>
      </trkpt>
      <trkpt lat="44.95632" lon="4.22103">
        <ele>1272.4</ele>
        <time>2026-05-07T10:44:10Z</time>
      </trkpt>
      <trkpt lat="44.95626" lon="4.22096">
        <ele>1272.9</ele>
        <time>2026-05-07T10:44:15Z</time>
      </trkpt>
      <trkpt lat="44.9562" lon="4.2209">
        <ele>1273.5</ele>
        <time>2026-05-07T10:44:20Z</time>
      </trkpt>
      <trkpt lat="44.95614" lon="4.22083">
        <ele>1274.1</ele>
        <time>2026-05-07T10:44:25Z</time>
      </trkpt>
      <trkpt lat="44.9561" lon="4.22078">
        <ele>1275.1</ele>
        <time>2026-05-07T10:44:30Z</time>
      </trkpt>
      <trkpt lat="44.95605" lon="4.22075">
        <ele>1276.2</ele>
        <time>2026-05-07T10:44:35Z</time>
      </trkpt>
      <trkpt lat="44.956" lon="4.22072">
        <ele>1277.3</ele>
        <time>2026-05-07T10:44:40Z</time>
      </trkpt>
      <trkpt lat="44.95594" lon="4.22068">
        <ele>1278.7</ele>
        <time>2026-05-07T10:44:45Z</time>
      </trkpt>
      <trkpt lat="44.95589" lon="4.22063">
        <ele>1280</ele>
        <time>2026-05-07T10:44:50Z</time>
      </trkpt>
      <trkpt lat="44.95584" lon="4.22058">
        <ele>1281.4</ele>
        <time>2026-05-07T10:44:55Z</time>
      </trkpt>
      <trkpt lat="44.95582" lon="4.22053">
        <ele>1282</ele>
        <time>2026-05-07T10:45:00Z</time>
      </trkpt>
      <trkpt lat="44.95584" lon="4.22045">
        <ele>1282.1</ele>
        <time>2026-05-07T10:45:05Z</time>
      </trkpt>
      <trkpt lat="44.95585" lon="4.22035">
        <ele>1282.5</ele>
        <time>2026-05-07T10:45:10Z</time>
      </trkpt>
      <trkpt lat="44.95587" lon="4.22029">
        <ele>1282.4</ele>
        <time>2026-05-07T10:45:15Z</time>
      </trkpt>
      <trkpt lat="44.95589" lon="4.22024">
        <ele>1282.1</ele>
        <time>2026-05-07T10:45:20Z</time>
      </trkpt>
      <trkpt lat="44.95591" lon="4.22017">
        <ele>1282</ele>
        <time>2026-05-07T10:45:25Z</time>
      </trkpt>
      <trkpt lat="44.95593" lon="4.22015">
        <ele>1281.6</ele>
        <time>2026-05-07T10:45:30Z</time>
      </trkpt>
      <trkpt lat="44.95593" lon="4.22014">
        <ele>1281.6</ele>
        <time>2026-05-07T10:45:35Z</time>
      </trkpt>
      <trkpt lat="44.95593" lon="4.22014">
        <ele>1281.6</ele>
        <time>2026-05-07T10:45:40Z</time>
      </trkpt>
      <trkpt lat="44.95593" lon="4.22014">
        <ele>1281.6</ele>
        <time>2026-05-07T10:45:45Z</time>
      </trkpt>
      <trkpt lat="44.95593" lon="4.22014">
        <ele>1281.6</ele>
        <time>2026-05-07T10:45:50Z</time>
      </trkpt>
      <trkpt lat="44.95593" lon="4.22014">
        <ele>1281.6</ele>
        <time>2026-05-07T10:45:55Z</time>
      </trkpt>
      <trkpt lat="44.95593" lon="4.22014">
        <ele>1281.6</ele>
        <time>2026-05-07T10:46:00Z</time>
      </trkpt>
      <trkpt lat="44.95593" lon="4.22014">
        <ele>1281.6</ele>
        <time>2026-05-07T10:46:05Z</time>
      </trkpt>
      <trkpt lat="44.956" lon="4.22">
        <ele>1280.4</ele>
        <time>2026-05-07T10:46:10Z</time>
      </trkpt>
      <trkpt lat="44.956" lon="4.22">
        <ele>1280.4</ele>
        <time>2026-05-07T10:46:15Z</time>
      </trkpt>
      <trkpt lat="44.95602" lon="4.21997">
        <ele>1280.4</ele>
        <time>2026-05-07T10:46:20Z</time>
      </trkpt>
      <trkpt lat="44.95605" lon="4.21988">
        <ele>1281.1</ele>
        <time>2026-05-07T10:46:25Z</time>
      </trkpt>
      <trkpt lat="44.95608" lon="4.2198">
        <ele>1281.7</ele>
        <time>2026-05-07T10:46:30Z</time>
      </trkpt>
      <trkpt lat="44.9561" lon="4.21972">
        <ele>1282.6</ele>
        <time>2026-05-07T10:46:35Z</time>
      </trkpt>
      <trkpt lat="44.95614" lon="4.21965">
        <ele>1282.7</ele>
        <time>2026-05-07T10:46:40Z</time>
      </trkpt>
      <trkpt lat="44.95619" lon="4.21957">
        <ele>1282.7</ele>
        <time>2026-05-07T10:46:45Z</time>
      </trkpt>
      <trkpt lat="44.95622" lon="4.21949">
        <ele>1283.2</ele>
        <time>2026-05-07T10:46:50Z</time>
      </trkpt>
      <trkpt lat="44.95628" lon="4.21944">
        <ele>1282.4</ele>
        <time>2026-05-07T10:46:55Z</time>
      </trkpt>
      <trkpt lat="44.95632" lon="4.21936">
        <ele>1282.6</ele>
        <time>2026-05-07T10:47:00Z</time>
      </trkpt>
      <trkpt lat="44.95636" lon="4.21929">
        <ele>1282.7</ele>
        <time>2026-05-07T10:47:05Z</time>
      </trkpt>
      <trkpt lat="44.95641" lon="4.21921">
        <ele>1282.6</ele>
        <time>2026-05-07T10:47:10Z</time>
      </trkpt>
      <trkpt lat="44.95647" lon="4.21913">
        <ele>1282.2</ele>
        <time>2026-05-07T10:47:15Z</time>
      </trkpt>
      <trkpt lat="44.95651" lon="4.21907">
        <ele>1282</ele>
        <time>2026-05-07T10:47:20Z</time>
      </trkpt>
      <trkpt lat="44.95658" lon="4.21901">
        <ele>1280.9</ele>
        <time>2026-05-07T10:47:25Z</time>
      </trkpt>
      <trkpt lat="44.95664" lon="4.21894">
        <ele>1280.3</ele>
        <time>2026-05-07T10:47:30Z</time>
      </trkpt>
      <trkpt lat="44.95669" lon="4.21887">
        <ele>1280.1</ele>
        <time>2026-05-07T10:47:35Z</time>
      </trkpt>
      <trkpt lat="44.95675" lon="4.21881">
        <ele>1279.5</ele>
        <time>2026-05-07T10:47:40Z</time>
      </trkpt>
      <trkpt lat="44.95681" lon="4.21874">
        <ele>1279</ele>
        <time>2026-05-07T10:47:45Z</time>
      </trkpt>
      <trkpt lat="44.95687" lon="4.21868">
        <ele>1278.4</ele>
        <time>2026-05-07T10:47:50Z</time>
      </trkpt>
      <trkpt lat="44.95693" lon="4.21862">
        <ele>1277.7</ele>
        <time>2026-05-07T10:47:55Z</time>
      </trkpt>
      <trkpt lat="44.957" lon="4.21857">
        <ele>1276.6</ele>
        <time>2026-05-07T10:48:00Z</time>
      </trkpt>
      <trkpt lat="44.95704" lon="4.2185">
        <ele>1276.5</ele>
        <time>2026-05-07T10:48:05Z</time>
      </trkpt>
      <trkpt lat="44.9571" lon="4.21842">
        <ele>1275.9</ele>
        <time>2026-05-07T10:48:10Z</time>
      </trkpt>
      <trkpt lat="44.95715" lon="4.21835">
        <ele>1275.4</ele>
        <time>2026-05-07T10:48:15Z</time>
      </trkpt>
      <trkpt lat="44.95719" lon="4.2183">
        <ele>1275.1</ele>
        <time>2026-05-07T10:48:20Z</time>
      </trkpt>
      <trkpt lat="44.95724" lon="4.21821">
        <ele>1275.1</ele>
        <time>2026-05-07T10:48:25Z</time>
      </trkpt>
      <trkpt lat="44.9573" lon="4.21814">
        <ele>1274.4</ele>
        <time>2026-05-07T10:48:30Z</time>
      </trkpt>
      <trkpt lat="44.95736" lon="4.21808">
        <ele>1273.5</ele>
        <time>2026-05-07T10:48:35Z</time>
      </trkpt>
      <trkpt lat="44.95742" lon="4.218">
        <ele>1272.8</ele>
        <time>2026-05-07T10:48:40Z</time>
      </trkpt>
      <trkpt lat="44.95748" lon="4.21794">
        <ele>1271.8</ele>
        <time>2026-05-07T10:48:45Z</time>
      </trkpt>
      <trkpt lat="44.95755" lon="4.21785">
        <ele>1271.2</ele>
        <time>2026-05-07T10:48:50Z</time>
      </trkpt>
      <trkpt lat="44.9576" lon="4.21776">
        <ele>1271.1</ele>
        <time>2026-05-07T10:48:55Z</time>
      </trkpt>
      <trkpt lat="44.95764" lon="4.21767">
        <ele>1271.2</ele>
        <time>2026-05-07T10:49:00Z</time>
      </trkpt>
      <trkpt lat="44.95767" lon="4.21759">
        <ele>1271.3</ele>
        <time>2026-05-07T10:49:05Z</time>
      </trkpt>
      <trkpt lat="44.95771" lon="4.21752">
        <ele>1271</ele>
        <time>2026-05-07T10:49:10Z</time>
      </trkpt>
      <trkpt lat="44.95776" lon="4.21743">
        <ele>1271.1</ele>
        <time>2026-05-07T10:49:15Z</time>
      </trkpt>
      <trkpt lat="44.9578" lon="4.21734">
        <ele>1271.6</ele>
        <time>2026-05-07T10:49:20Z</time>
      </trkpt>
      <trkpt lat="44.95783" lon="4.21731">
        <ele>1271.3</ele>
        <time>2026-05-07T10:49:25Z</time>
      </trkpt>
      <trkpt lat="44.95787" lon="4.21724">
        <ele>1271.3</ele>
        <time>2026-05-07T10:49:30Z</time>
      </trkpt>
      <trkpt lat="44.95791" lon="4.21715">
        <ele>1271.6</ele>
        <time>2026-05-07T10:49:35Z</time>
      </trkpt>
      <trkpt lat="44.95797" lon="4.21707">
        <ele>1271</ele>
        <time>2026-05-07T10:49:40Z</time>
      </trkpt>
      <trkpt lat="44.95803" lon="4.217">
        <ele>1270.1</ele>
        <time>2026-05-07T10:49:45Z</time>
      </trkpt>
      <trkpt lat="44.95807" lon="4.21693">
        <ele>1269.8</ele>
        <time>2026-05-07T10:49:50Z</time>
      </trkpt>
      <trkpt lat="44.95812" lon="4.21686">
        <ele>1269.1</ele>
        <time>2026-05-07T10:49:55Z</time>
      </trkpt>
      <trkpt lat="44.95815" lon="4.21678">
        <ele>1269.2</ele>
        <time>2026-05-07T10:50:00Z</time>
      </trkpt>
      <trkpt lat="44.9582" lon="4.2167">
        <ele>1268.5</ele>
        <time>2026-05-07T10:50:05Z</time>
      </trkpt>
      <trkpt lat="44.95825" lon="4.21662">
        <ele>1268.4</ele>
        <time>2026-05-07T10:50:10Z</time>
      </trkpt>
      <trkpt lat="44.9583" lon="4.21654">
        <ele>1268.9</ele>
        <time>2026-05-07T10:50:15Z</time>
      </trkpt>
      <trkpt lat="44.95834" lon="4.21646">
        <ele>1269.8</ele>
        <time>2026-05-07T10:50:20Z</time>
      </trkpt>
      <trkpt lat="44.95839" lon="4.21639">
        <ele>1270.5</ele>
        <time>2026-05-07T10:50:25Z</time>
      </trkpt>
      <trkpt lat="44.95844" lon="4.21632">
        <ele>1271.2</ele>
        <time>2026-05-07T10:50:30Z</time>
      </trkpt>
      <trkpt lat="44.9585" lon="4.21624">
        <ele>1271.7</ele>
        <time>2026-05-07T10:50:35Z</time>
      </trkpt>
      <trkpt lat="44.95853" lon="4.21614">
        <ele>1273.4</ele>
        <time>2026-05-07T10:50:40Z</time>
      </trkpt>
      <trkpt lat="44.95857" lon="4.21607">
        <ele>1273.9</ele>
        <time>2026-05-07T10:50:45Z</time>
      </trkpt>
      <trkpt lat="44.95861" lon="4.216">
        <ele>1274.4</ele>
        <time>2026-05-07T10:50:50Z</time>
      </trkpt>
      <trkpt lat="44.95866" lon="4.21592">
        <ele>1274.6</ele>
        <time>2026-05-07T10:50:55Z</time>
      </trkpt>
      <trkpt lat="44.9587" lon="4.21584">
        <ele>1275.1</ele>
        <time>2026-05-07T10:51:00Z</time>
      </trkpt>
      <trkpt lat="44.95876" lon="4.21578">
        <ele>1274.5</ele>
        <time>2026-05-07T10:51:05Z</time>
      </trkpt>
      <trkpt lat="44.95879" lon="4.21572">
        <ele>1275.1</ele>
        <time>2026-05-07T10:51:10Z</time>
      </trkpt>
      <trkpt lat="44.95885" lon="4.21564">
        <ele>1275.1</ele>
        <time>2026-05-07T10:51:15Z</time>
      </trkpt>
      <trkpt lat="44.95891" lon="4.21558">
        <ele>1274.6</ele>
        <time>2026-05-07T10:51:20Z</time>
      </trkpt>
      <trkpt lat="44.95896" lon="4.21552">
        <ele>1274.6</ele>
        <time>2026-05-07T10:51:25Z</time>
      </trkpt>
      <trkpt lat="44.95902" lon="4.21545">
        <ele>1274.4</ele>
        <time>2026-05-07T10:51:30Z</time>
      </trkpt>
      <trkpt lat="44.95909" lon="4.21538">
        <ele>1274</ele>
        <time>2026-05-07T10:51:35Z</time>
      </trkpt>
      <trkpt lat="44.95915" lon="4.21533">
        <ele>1273.4</ele>
        <time>2026-05-07T10:51:40Z</time>
      </trkpt>
      <trkpt lat="44.9592" lon="4.21526">
        <ele>1273.9</ele>
        <time>2026-05-07T10:51:45Z</time>
      </trkpt>
      <trkpt lat="44.95925" lon="4.21519">
        <ele>1274.3</ele>
        <time>2026-05-07T10:51:50Z</time>
      </trkpt>
      <trkpt lat="44.95934" lon="4.21512">
        <ele>1273.3</ele>
        <time>2026-05-07T10:51:55Z</time>
      </trkpt>
      <trkpt lat="44.9594" lon="4.21504">
        <ele>1273.5</ele>
        <time>2026-05-07T10:52:00Z</time>
      </trkpt>
      <trkpt lat="44.95946" lon="4.21496">
        <ele>1273.2</ele>
        <time>2026-05-07T10:52:05Z</time>
      </trkpt>
      <trkpt lat="44.95952" lon="4.21491">
        <ele>1272.2</ele>
        <time>2026-05-07T10:52:10Z</time>
      </trkpt>
      <trkpt lat="44.95957" lon="4.21485">
        <ele>1271.6</ele>
        <time>2026-05-07T10:52:15Z</time>
      </trkpt>
      <trkpt lat="44.95958" lon="4.21485">
        <ele>1271.3</ele>
        <time>2026-05-07T10:52:20Z</time>
      </trkpt>
      <trkpt lat="44.95958" lon="4.21485">
        <ele>1271.3</ele>
        <time>2026-05-07T10:52:25Z</time>
      </trkpt>
      <trkpt lat="44.95962" lon="4.2148">
        <ele>1270.9</ele>
        <time>2026-05-07T10:52:30Z</time>
      </trkpt>
      <trkpt lat="44.95966" lon="4.21474">
        <ele>1270.6</ele>
        <time>2026-05-07T10:52:35Z</time>
      </trkpt>
      <trkpt lat="44.95972" lon="4.21468">
        <ele>1269.7</ele>
        <time>2026-05-07T10:52:40Z</time>
      </trkpt>
      <trkpt lat="44.95978" lon="4.21461">
        <ele>1268.9</ele>
        <time>2026-05-07T10:52:45Z</time>
      </trkpt>
      <trkpt lat="44.95984" lon="4.21454">
        <ele>1268.1</ele>
        <time>2026-05-07T10:52:50Z</time>
      </trkpt>
      <trkpt lat="44.95989" lon="4.21448">
        <ele>1267.5</ele>
        <time>2026-05-07T10:52:55Z</time>
      </trkpt>
      <trkpt lat="44.95996" lon="4.21441">
        <ele>1266.3</ele>
        <time>2026-05-07T10:53:00Z</time>
      </trkpt>
      <trkpt lat="44.96003" lon="4.21434">
        <ele>1265.5</ele>
        <time>2026-05-07T10:53:05Z</time>
      </trkpt>
      <trkpt lat="44.96008" lon="4.21427">
        <ele>1265.6</ele>
        <time>2026-05-07T10:53:10Z</time>
      </trkpt>
      <trkpt lat="44.96015" lon="4.2142">
        <ele>1265.2</ele>
        <time>2026-05-07T10:53:15Z</time>
      </trkpt>
      <trkpt lat="44.96021" lon="4.21414">
        <ele>1264.7</ele>
        <time>2026-05-07T10:53:20Z</time>
      </trkpt>
      <trkpt lat="44.96027" lon="4.21407">
        <ele>1264.2</ele>
        <time>2026-05-07T10:53:25Z</time>
      </trkpt>
      <trkpt lat="44.96033" lon="4.214">
        <ele>1263.6</ele>
        <time>2026-05-07T10:53:30Z</time>
      </trkpt>
      <trkpt lat="44.96038" lon="4.21392">
        <ele>1263.3</ele>
        <time>2026-05-07T10:53:35Z</time>
      </trkpt>
      <trkpt lat="44.96043" lon="4.21386">
        <ele>1262.8</ele>
        <time>2026-05-07T10:53:40Z</time>
      </trkpt>
      <trkpt lat="44.96049" lon="4.21378">
        <ele>1262.3</ele>
        <time>2026-05-07T10:53:45Z</time>
      </trkpt>
      <trkpt lat="44.96057" lon="4.21372">
        <ele>1261.1</ele>
        <time>2026-05-07T10:53:50Z</time>
      </trkpt>
      <trkpt lat="44.96062" lon="4.21365">
        <ele>1260.7</ele>
        <time>2026-05-07T10:53:55Z</time>
      </trkpt>
      <trkpt lat="44.96066" lon="4.21358">
        <ele>1260.5</ele>
        <time>2026-05-07T10:54:00Z</time>
      </trkpt>
      <trkpt lat="44.96072" lon="4.21351">
        <ele>1259.9</ele>
        <time>2026-05-07T10:54:05Z</time>
      </trkpt>
      <trkpt lat="44.96077" lon="4.21344">
        <ele>1259.4</ele>
        <time>2026-05-07T10:54:10Z</time>
      </trkpt>
      <trkpt lat="44.96083" lon="4.21338">
        <ele>1258.6</ele>
        <time>2026-05-07T10:54:15Z</time>
      </trkpt>
      <trkpt lat="44.96087" lon="4.2133">
        <ele>1258.5</ele>
        <time>2026-05-07T10:54:20Z</time>
      </trkpt>
      <trkpt lat="44.96092" lon="4.21323">
        <ele>1257.9</ele>
        <time>2026-05-07T10:54:25Z</time>
      </trkpt>
      <trkpt lat="44.96093" lon="4.21322">
        <ele>1257.8</ele>
        <time>2026-05-07T10:54:30Z</time>
      </trkpt>
      <trkpt lat="44.96093" lon="4.21322">
        <ele>1257.8</ele>
        <time>2026-05-07T10:54:35Z</time>
      </trkpt>
      <trkpt lat="44.96093" lon="4.21322">
        <ele>1257.8</ele>
        <time>2026-05-07T10:54:40Z</time>
      </trkpt>
      <trkpt lat="44.96093" lon="4.21322">
        <ele>1257.8</ele>
        <time>2026-05-07T10:54:45Z</time>
      </trkpt>
      <trkpt lat="44.96093" lon="4.21322">
        <ele>1257.8</ele>
        <time>2026-05-07T10:54:50Z</time>
      </trkpt>
      <trkpt lat="44.9609" lon="4.21313">
        <ele>1258.7</ele>
        <time>2026-05-07T10:54:55Z</time>
      </trkpt>
      <trkpt lat="44.96088" lon="4.21304">
        <ele>1259.5</ele>
        <time>2026-05-07T10:55:00Z</time>
      </trkpt>
      <trkpt lat="44.96086" lon="4.21294">
        <ele>1260.4</ele>
        <time>2026-05-07T10:55:05Z</time>
      </trkpt>
      <trkpt lat="44.96084" lon="4.21284">
        <ele>1261.2</ele>
        <time>2026-05-07T10:55:10Z</time>
      </trkpt>
      <trkpt lat="44.96084" lon="4.21276">
        <ele>1261.6</ele>
        <time>2026-05-07T10:55:15Z</time>
      </trkpt>
      <trkpt lat="44.96083" lon="4.21268">
        <ele>1262.2</ele>
        <time>2026-05-07T10:55:20Z</time>
      </trkpt>
      <trkpt lat="44.96082" lon="4.2126">
        <ele>1262.8</ele>
        <time>2026-05-07T10:55:25Z</time>
      </trkpt>
      <trkpt lat="44.96082" lon="4.21251">
        <ele>1263.2</ele>
        <time>2026-05-07T10:55:30Z</time>
      </trkpt>
      <trkpt lat="44.96081" lon="4.21242">
        <ele>1263.5</ele>
        <time>2026-05-07T10:55:35Z</time>
      </trkpt>
      <trkpt lat="44.9608" lon="4.21233">
        <ele>1263.8</ele>
        <time>2026-05-07T10:55:40Z</time>
      </trkpt>
      <trkpt lat="44.96078" lon="4.21224">
        <ele>1264.2</ele>
        <time>2026-05-07T10:55:45Z</time>
      </trkpt>
      <trkpt lat="44.96078" lon="4.21215">
        <ele>1264.3</ele>
        <time>2026-05-07T10:55:50Z</time>
      </trkpt>
      <trkpt lat="44.96077" lon="4.21213">
        <ele>1264.5</ele>
        <time>2026-05-07T10:55:55Z</time>
      </trkpt>
      <trkpt lat="44.96076" lon="4.21206">
        <ele>1264.8</ele>
        <time>2026-05-07T10:56:00Z</time>
      </trkpt>
      <trkpt lat="44.96075" lon="4.21198">
        <ele>1265</ele>
        <time>2026-05-07T10:56:05Z</time>
      </trkpt>
      <trkpt lat="44.96073" lon="4.2119">
        <ele>1265.6</ele>
        <time>2026-05-07T10:56:10Z</time>
      </trkpt>
      <trkpt lat="44.96071" lon="4.21181">
        <ele>1266.2</ele>
        <time>2026-05-07T10:56:15Z</time>
      </trkpt>
      <trkpt lat="44.96069" lon="4.21173">
        <ele>1266.7</ele>
        <time>2026-05-07T10:56:20Z</time>
      </trkpt>
      <trkpt lat="44.96067" lon="4.21165">
        <ele>1267.3</ele>
        <time>2026-05-07T10:56:25Z</time>
      </trkpt>
      <trkpt lat="44.96064" lon="4.21155">
        <ele>1268.3</ele>
        <time>2026-05-07T10:56:30Z</time>
      </trkpt>
      <trkpt lat="44.96062" lon="4.21146">
        <ele>1269.1</ele>
        <time>2026-05-07T10:56:35Z</time>
      </trkpt>
      <trkpt lat="44.9606" lon="4.21137">
        <ele>1269.8</ele>
        <time>2026-05-07T10:56:40Z</time>
      </trkpt>
      <trkpt lat="44.96058" lon="4.21128">
        <ele>1270.6</ele>
        <time>2026-05-07T10:56:45Z</time>
      </trkpt>
      <trkpt lat="44.96055" lon="4.2112">
        <ele>1271.6</ele>
        <time>2026-05-07T10:56:50Z</time>
      </trkpt>
      <trkpt lat="44.96053" lon="4.21112">
        <ele>1272.4</ele>
        <time>2026-05-07T10:56:55Z</time>
      </trkpt>
      <trkpt lat="44.96051" lon="4.21103">
        <ele>1273.2</ele>
        <time>2026-05-07T10:57:00Z</time>
      </trkpt>
      <trkpt lat="44.96048" lon="4.21094">
        <ele>1274.3</ele>
        <time>2026-05-07T10:57:05Z</time>
      </trkpt>
      <trkpt lat="44.96046" lon="4.21086">
        <ele>1275.1</ele>
        <time>2026-05-07T10:57:10Z</time>
      </trkpt>
      <trkpt lat="44.96043" lon="4.21076">
        <ele>1276.3</ele>
        <time>2026-05-07T10:57:15Z</time>
      </trkpt>
      <trkpt lat="44.96042" lon="4.21067">
        <ele>1276.8</ele>
        <time>2026-05-07T10:57:20Z</time>
      </trkpt>
      <trkpt lat="44.96038" lon="4.21058">
        <ele>1278.3</ele>
        <time>2026-05-07T10:57:25Z</time>
      </trkpt>
      <trkpt lat="44.96035" lon="4.21048">
        <ele>1279.6</ele>
        <time>2026-05-07T10:57:30Z</time>
      </trkpt>
      <trkpt lat="44.96033" lon="4.2104">
        <ele>1280.6</ele>
        <time>2026-05-07T10:57:35Z</time>
      </trkpt>
      <trkpt lat="44.9603" lon="4.2103">
        <ele>1282</ele>
        <time>2026-05-07T10:57:40Z</time>
      </trkpt>
      <trkpt lat="44.96027" lon="4.2102">
        <ele>1283.5</ele>
        <time>2026-05-07T10:57:45Z</time>
      </trkpt>
      <trkpt lat="44.96024" lon="4.21012">
        <ele>1285</ele>
        <time>2026-05-07T10:57:50Z</time>
      </trkpt>
      <trkpt lat="44.96022" lon="4.21002">
        <ele>1286.2</ele>
        <time>2026-05-07T10:57:55Z</time>
      </trkpt>
      <trkpt lat="44.96019" lon="4.20992">
        <ele>1287.4</ele>
        <time>2026-05-07T10:58:00Z</time>
      </trkpt>
      <trkpt lat="44.96017" lon="4.20984">
        <ele>1288.1</ele>
        <time>2026-05-07T10:58:05Z</time>
      </trkpt>
      <trkpt lat="44.96015" lon="4.20976">
        <ele>1288.8</ele>
        <time>2026-05-07T10:58:10Z</time>
      </trkpt>
      <trkpt lat="44.96012" lon="4.20967">
        <ele>1289.9</ele>
        <time>2026-05-07T10:58:15Z</time>
      </trkpt>
      <trkpt lat="44.9601" lon="4.2096">
        <ele>1290.6</ele>
        <time>2026-05-07T10:58:20Z</time>
      </trkpt>
      <trkpt lat="44.96007" lon="4.20952">
        <ele>1291.7</ele>
        <time>2026-05-07T10:58:25Z</time>
      </trkpt>
      <trkpt lat="44.96005" lon="4.20943">
        <ele>1292.4</ele>
        <time>2026-05-07T10:58:30Z</time>
      </trkpt>
      <trkpt lat="44.96002" lon="4.20934">
        <ele>1293.4</ele>
        <time>2026-05-07T10:58:35Z</time>
      </trkpt>
      <trkpt lat="44.95999" lon="4.20925">
        <ele>1294.4</ele>
        <time>2026-05-07T10:58:40Z</time>
      </trkpt>
      <trkpt lat="44.95997" lon="4.20917">
        <ele>1295</ele>
        <time>2026-05-07T10:58:45Z</time>
      </trkpt>
      <trkpt lat="44.95995" lon="4.20909">
        <ele>1295</ele>
        <time>2026-05-07T10:58:50Z</time>
      </trkpt>
      <trkpt lat="44.95994" lon="4.20907">
        <ele>1295.1</ele>
        <time>2026-05-07T10:58:55Z</time>
      </trkpt>
      <trkpt lat="44.95993" lon="4.20915">
        <ele>1296.1</ele>
        <time>2026-05-07T10:59:00Z</time>
      </trkpt>
      <trkpt lat="44.95989" lon="4.20916">
        <ele>1297.5</ele>
        <time>2026-05-07T10:59:05Z</time>
      </trkpt>
      <trkpt lat="44.95985" lon="4.20913">
        <ele>1298.5</ele>
        <time>2026-05-07T10:59:10Z</time>
      </trkpt>
      <trkpt lat="44.95982" lon="4.20907">
        <ele>1299</ele>
        <time>2026-05-07T10:59:15Z</time>
      </trkpt>
      <trkpt lat="44.95979" lon="4.20902">
        <ele>1299.5</ele>
        <time>2026-05-07T10:59:20Z</time>
      </trkpt>
      <trkpt lat="44.95976" lon="4.20897">
        <ele>1300.1</ele>
        <time>2026-05-07T10:59:25Z</time>
      </trkpt>
      <trkpt lat="44.95973" lon="4.20892">
        <ele>1300.6</ele>
        <time>2026-05-07T10:59:30Z</time>
      </trkpt>
      <trkpt lat="44.95969" lon="4.20886">
        <ele>1301.3</ele>
        <time>2026-05-07T10:59:35Z</time>
      </trkpt>
      <trkpt lat="44.95965" lon="4.2088">
        <ele>1302.1</ele>
        <time>2026-05-07T10:59:40Z</time>
      </trkpt>
      <trkpt lat="44.95961" lon="4.20873">
        <ele>1302.7</ele>
        <time>2026-05-07T10:59:45Z</time>
      </trkpt>
      <trkpt lat="44.95957" lon="4.20866">
        <ele>1303.4</ele>
        <time>2026-05-07T10:59:50Z</time>
      </trkpt>
      <trkpt lat="44.95953" lon="4.20862">
        <ele>1304.3</ele>
        <time>2026-05-07T10:59:55Z</time>
      </trkpt>
      <trkpt lat="44.95948" lon="4.20857">
        <ele>1305.4</ele>
        <time>2026-05-07T11:00:00Z</time>
      </trkpt>
      <trkpt lat="44.95944" lon="4.20852">
        <ele>1306.2</ele>
        <time>2026-05-07T11:00:05Z</time>
      </trkpt>
      <trkpt lat="44.9594" lon="4.20847">
        <ele>1307</ele>
        <time>2026-05-07T11:00:10Z</time>
      </trkpt>
      <trkpt lat="44.95937" lon="4.20842">
        <ele>1307.5</ele>
        <time>2026-05-07T11:00:15Z</time>
      </trkpt>
      <trkpt lat="44.95933" lon="4.20836">
        <ele>1308.2</ele>
        <time>2026-05-07T11:00:20Z</time>
      </trkpt>
      <trkpt lat="44.9593" lon="4.20831">
        <ele>1308.5</ele>
        <time>2026-05-07T11:00:25Z</time>
      </trkpt>
      <trkpt lat="44.95925" lon="4.20824">
        <ele>1308.9</ele>
        <time>2026-05-07T11:00:30Z</time>
      </trkpt>
      <trkpt lat="44.95921" lon="4.20818">
        <ele>1309.1</ele>
        <time>2026-05-07T11:00:35Z</time>
      </trkpt>
      <trkpt lat="44.95918" lon="4.20812">
        <ele>1309</ele>
        <time>2026-05-07T11:00:40Z</time>
      </trkpt>
      <trkpt lat="44.95914" lon="4.20806">
        <ele>1308.9</ele>
        <time>2026-05-07T11:00:45Z</time>
      </trkpt>
      <trkpt lat="44.9591" lon="4.208">
        <ele>1308.7</ele>
        <time>2026-05-07T11:00:50Z</time>
      </trkpt>
      <trkpt lat="44.95906" lon="4.20794">
        <ele>1308.4</ele>
        <time>2026-05-07T11:00:55Z</time>
      </trkpt>
      <trkpt lat="44.95901" lon="4.2079">
        <ele>1308.7</ele>
        <time>2026-05-07T11:01:00Z</time>
      </trkpt>
      <trkpt lat="44.95899" lon="4.20786">
        <ele>1308.4</ele>
        <time>2026-05-07T11:01:05Z</time>
      </trkpt>
      <trkpt lat="44.95897" lon="4.20783">
        <ele>1308.3</ele>
        <time>2026-05-07T11:01:10Z</time>
      </trkpt>
      <trkpt lat="44.95893" lon="4.20779">
        <ele>1308.4</ele>
        <time>2026-05-07T11:01:15Z</time>
      </trkpt>
      <trkpt lat="44.95891" lon="4.20775">
        <ele>1308.1</ele>
        <time>2026-05-07T11:01:20Z</time>
      </trkpt>
      <trkpt lat="44.95887" lon="4.20771">
        <ele>1308.2</ele>
        <time>2026-05-07T11:01:25Z</time>
      </trkpt>
      <trkpt lat="44.95884" lon="4.20766">
        <ele>1308</ele>
        <time>2026-05-07T11:01:30Z</time>
      </trkpt>
      <trkpt lat="44.9588" lon="4.20761">
        <ele>1307.9</ele>
        <time>2026-05-07T11:01:35Z</time>
      </trkpt>
      <trkpt lat="44.95876" lon="4.20757">
        <ele>1308</ele>
        <time>2026-05-07T11:01:40Z</time>
      </trkpt>
      <trkpt lat="44.95872" lon="4.2075">
        <ele>1307.6</ele>
        <time>2026-05-07T11:01:45Z</time>
      </trkpt>
      <trkpt lat="44.9587" lon="4.20745">
        <ele>1307.7</ele>
        <time>2026-05-07T11:01:50Z</time>
      </trkpt>
      <trkpt lat="44.95865" lon="4.20741">
        <ele>1308.5</ele>
        <time>2026-05-07T11:01:55Z</time>
      </trkpt>
      <trkpt lat="44.95862" lon="4.20737">
        <ele>1308.9</ele>
        <time>2026-05-07T11:02:00Z</time>
      </trkpt>
      <trkpt lat="44.95859" lon="4.20733">
        <ele>1309.3</ele>
        <time>2026-05-07T11:02:05Z</time>
      </trkpt>
      <trkpt lat="44.95855" lon="4.20728">
        <ele>1309.8</ele>
        <time>2026-05-07T11:02:10Z</time>
      </trkpt>
      <trkpt lat="44.95852" lon="4.20722">
        <ele>1310.1</ele>
        <time>2026-05-07T11:02:15Z</time>
      </trkpt>
      <trkpt lat="44.95848" lon="4.20718">
        <ele>1310.6</ele>
        <time>2026-05-07T11:02:20Z</time>
      </trkpt>
      <trkpt lat="44.95845" lon="4.20712">
        <ele>1310.9</ele>
        <time>2026-05-07T11:02:25Z</time>
      </trkpt>
      <trkpt lat="44.95841" lon="4.20708">
        <ele>1311.5</ele>
        <time>2026-05-07T11:02:30Z</time>
      </trkpt>
      <trkpt lat="44.95837" lon="4.20701">
        <ele>1311.9</ele>
        <time>2026-05-07T11:02:35Z</time>
      </trkpt>
      <trkpt lat="44.95832" lon="4.20695">
        <ele>1312.6</ele>
        <time>2026-05-07T11:02:40Z</time>
      </trkpt>
      <trkpt lat="44.95828" lon="4.2069">
        <ele>1312.9</ele>
        <time>2026-05-07T11:02:45Z</time>
      </trkpt>
      <trkpt lat="44.95824" lon="4.20684">
        <ele>1313.2</ele>
        <time>2026-05-07T11:02:50Z</time>
      </trkpt>
      <trkpt lat="44.95819" lon="4.20679">
        <ele>1313.6</ele>
        <time>2026-05-07T11:02:55Z</time>
      </trkpt>
      <trkpt lat="44.95814" lon="4.20673">
        <ele>1313.9</ele>
        <time>2026-05-07T11:03:00Z</time>
      </trkpt>
      <trkpt lat="44.9581" lon="4.20667">
        <ele>1314.1</ele>
        <time>2026-05-07T11:03:05Z</time>
      </trkpt>
      <trkpt lat="44.95805" lon="4.20661">
        <ele>1314.2</ele>
        <time>2026-05-07T11:03:10Z</time>
      </trkpt>
      <trkpt lat="44.958" lon="4.20656">
        <ele>1314.5</ele>
        <time>2026-05-07T11:03:15Z</time>
      </trkpt>
      <trkpt lat="44.95796" lon="4.20653">
        <ele>1314.7</ele>
        <time>2026-05-07T11:03:20Z</time>
      </trkpt>
      <trkpt lat="44.95796" lon="4.2065">
        <ele>1314.4</ele>
        <time>2026-05-07T11:03:25Z</time>
      </trkpt>
      <trkpt lat="44.95797" lon="4.2065">
        <ele>1314.3</ele>
        <time>2026-05-07T11:03:30Z</time>
      </trkpt>
      <trkpt lat="44.95797" lon="4.2065">
        <ele>1314.3</ele>
        <time>2026-05-07T11:03:35Z</time>
      </trkpt>
      <trkpt lat="44.95796" lon="4.2065">
        <ele>1314.4</ele>
        <time>2026-05-07T11:03:40Z</time>
      </trkpt>
      <trkpt lat="44.9579" lon="4.20646">
        <ele>1314.9</ele>
        <time>2026-05-07T11:03:45Z</time>
      </trkpt>
      <trkpt lat="44.95785" lon="4.20642">
        <ele>1315.1</ele>
        <time>2026-05-07T11:03:50Z</time>
      </trkpt>
      <trkpt lat="44.95781" lon="4.20638">
        <ele>1315.3</ele>
        <time>2026-05-07T11:03:55Z</time>
      </trkpt>
      <trkpt lat="44.95776" lon="4.20633">
        <ele>1315.5</ele>
        <time>2026-05-07T11:04:00Z</time>
      </trkpt>
      <trkpt lat="44.95771" lon="4.20628">
        <ele>1315.6</ele>
        <time>2026-05-07T11:04:05Z</time>
      </trkpt>
      <trkpt lat="44.95767" lon="4.20624">
        <ele>1315.8</ele>
        <time>2026-05-07T11:04:10Z</time>
      </trkpt>
      <trkpt lat="44.95762" lon="4.20618">
        <ele>1315.8</ele>
        <time>2026-05-07T11:04:15Z</time>
      </trkpt>
      <trkpt lat="44.95756" lon="4.20614">
        <ele>1316.2</ele>
        <time>2026-05-07T11:04:20Z</time>
      </trkpt>
      <trkpt lat="44.95751" lon="4.2061">
        <ele>1316.4</ele>
        <time>2026-05-07T11:04:25Z</time>
      </trkpt>
      <trkpt lat="44.95745" lon="4.20605">
        <ele>1316.6</ele>
        <time>2026-05-07T11:04:30Z</time>
      </trkpt>
      <trkpt lat="44.95741" lon="4.20603">
        <ele>1316.9</ele>
        <time>2026-05-07T11:04:35Z</time>
      </trkpt>
      <trkpt lat="44.95741" lon="4.20603">
        <ele>1316.9</ele>
        <time>2026-05-07T11:04:40Z</time>
      </trkpt>
      <trkpt lat="44.9574" lon="4.20601">
        <ele>1316.8</ele>
        <time>2026-05-07T11:04:45Z</time>
      </trkpt>
      <trkpt lat="44.95737" lon="4.206">
        <ele>1317</ele>
        <time>2026-05-07T11:04:50Z</time>
      </trkpt>
      <trkpt lat="44.95732" lon="4.20597">
        <ele>1317.2</ele>
        <time>2026-05-07T11:04:55Z</time>
      </trkpt>
      <trkpt lat="44.95725" lon="4.20594">
        <ele>1317.6</ele>
        <time>2026-05-07T11:05:00Z</time>
      </trkpt>
      <trkpt lat="44.9572" lon="4.2059">
        <ele>1317.6</ele>
        <time>2026-05-07T11:05:05Z</time>
      </trkpt>
      <trkpt lat="44.95713" lon="4.20586">
        <ele>1317.9</ele>
        <time>2026-05-07T11:05:10Z</time>
      </trkpt>
      <trkpt lat="44.95708" lon="4.20584">
        <ele>1318.1</ele>
        <time>2026-05-07T11:05:15Z</time>
      </trkpt>
      <trkpt lat="44.957" lon="4.2058">
        <ele>1318.5</ele>
        <time>2026-05-07T11:05:20Z</time>
      </trkpt>
      <trkpt lat="44.95694" lon="4.20576">
        <ele>1318.6</ele>
        <time>2026-05-07T11:05:25Z</time>
      </trkpt>
      <trkpt lat="44.95688" lon="4.20572">
        <ele>1318.8</ele>
        <time>2026-05-07T11:05:30Z</time>
      </trkpt>
      <trkpt lat="44.95683" lon="4.2057">
        <ele>1319</ele>
        <time>2026-05-07T11:05:35Z</time>
      </trkpt>
      <trkpt lat="44.95683" lon="4.2057">
        <ele>1319</ele>
        <time>2026-05-07T11:05:40Z</time>
      </trkpt>
      <trkpt lat="44.95683" lon="4.2057">
        <ele>1319</ele>
        <time>2026-05-07T11:05:45Z</time>
      </trkpt>
      <trkpt lat="44.95676" lon="4.20565">
        <ele>1319.1</ele>
        <time>2026-05-07T11:05:50Z</time>
      </trkpt>
      <trkpt lat="44.95669" lon="4.20561">
        <ele>1319.4</ele>
        <time>2026-05-07T11:05:55Z</time>
      </trkpt>
      <trkpt lat="44.95662" lon="4.20556">
        <ele>1319.7</ele>
        <time>2026-05-07T11:06:00Z</time>
      </trkpt>
      <trkpt lat="44.95656" lon="4.20552">
        <ele>1320.1</ele>
        <time>2026-05-07T11:06:05Z</time>
      </trkpt>
      <trkpt lat="44.95649" lon="4.20546">
        <ele>1320.4</ele>
        <time>2026-05-07T11:06:10Z</time>
      </trkpt>
      <trkpt lat="44.95643" lon="4.20543">
        <ele>1320.8</ele>
        <time>2026-05-07T11:06:15Z</time>
      </trkpt>
      <trkpt lat="44.95637" lon="4.20538">
        <ele>1320.9</ele>
        <time>2026-05-07T11:06:20Z</time>
      </trkpt>
      <trkpt lat="44.95631" lon="4.20533">
        <ele>1321</ele>
        <time>2026-05-07T11:06:25Z</time>
      </trkpt>
      <trkpt lat="44.95624" lon="4.20529">
        <ele>1321.3</ele>
        <time>2026-05-07T11:06:30Z</time>
      </trkpt>
      <trkpt lat="44.95618" lon="4.20524">
        <ele>1321.3</ele>
        <time>2026-05-07T11:06:35Z</time>
      </trkpt>
      <trkpt lat="44.95611" lon="4.20519">
        <ele>1321.3</ele>
        <time>2026-05-07T11:06:40Z</time>
      </trkpt>
      <trkpt lat="44.95604" lon="4.20513">
        <ele>1321.1</ele>
        <time>2026-05-07T11:06:45Z</time>
      </trkpt>
      <trkpt lat="44.956" lon="4.20509">
        <ele>1320.9</ele>
        <time>2026-05-07T11:06:50Z</time>
      </trkpt>
      <trkpt lat="44.95597" lon="4.20506">
        <ele>1320.7</ele>
        <time>2026-05-07T11:06:55Z</time>
      </trkpt>
      <trkpt lat="44.95591" lon="4.20503">
        <ele>1320.8</ele>
        <time>2026-05-07T11:07:00Z</time>
      </trkpt>
      <trkpt lat="44.95584" lon="4.20499">
        <ele>1320.8</ele>
        <time>2026-05-07T11:07:05Z</time>
      </trkpt>
      <trkpt lat="44.95578" lon="4.20494">
        <ele>1320.8</ele>
        <time>2026-05-07T11:07:10Z</time>
      </trkpt>
      <trkpt lat="44.95571" lon="4.2049">
        <ele>1321.1</ele>
        <time>2026-05-07T11:07:15Z</time>
      </trkpt>
      <trkpt lat="44.95565" lon="4.20486">
        <ele>1321.2</ele>
        <time>2026-05-07T11:07:20Z</time>
      </trkpt>
      <trkpt lat="44.95559" lon="4.20482">
        <ele>1321.2</ele>
        <time>2026-05-07T11:07:25Z</time>
      </trkpt>
      <trkpt lat="44.95553" lon="4.20477">
        <ele>1321.1</ele>
        <time>2026-05-07T11:07:30Z</time>
      </trkpt>
      <trkpt lat="44.95546" lon="4.20471">
        <ele>1320.9</ele>
        <time>2026-05-07T11:07:35Z</time>
      </trkpt>
      <trkpt lat="44.95539" lon="4.20467">
        <ele>1321</ele>
        <time>2026-05-07T11:07:40Z</time>
      </trkpt>
      <trkpt lat="44.95533" lon="4.20461">
        <ele>1320.6</ele>
        <time>2026-05-07T11:07:45Z</time>
      </trkpt>
      <trkpt lat="44.95526" lon="4.20456">
        <ele>1320.5</ele>
        <time>2026-05-07T11:07:50Z</time>
      </trkpt>
      <trkpt lat="44.95519" lon="4.20452">
        <ele>1320.4</ele>
        <time>2026-05-07T11:07:55Z</time>
      </trkpt>
      <trkpt lat="44.95512" lon="4.20448">
        <ele>1320.3</ele>
        <time>2026-05-07T11:08:00Z</time>
      </trkpt>
      <trkpt lat="44.95505" lon="4.20444">
        <ele>1320.2</ele>
        <time>2026-05-07T11:08:05Z</time>
      </trkpt>
      <trkpt lat="44.95498" lon="4.20439">
        <ele>1320</ele>
        <time>2026-05-07T11:08:10Z</time>
      </trkpt>
      <trkpt lat="44.95492" lon="4.20436">
        <ele>1320</ele>
        <time>2026-05-07T11:08:15Z</time>
      </trkpt>
      <trkpt lat="44.95485" lon="4.20433">
        <ele>1320.2</ele>
        <time>2026-05-07T11:08:20Z</time>
      </trkpt>
      <trkpt lat="44.9548" lon="4.2043">
        <ele>1320.2</ele>
        <time>2026-05-07T11:08:25Z</time>
      </trkpt>
      <trkpt lat="44.95474" lon="4.20426">
        <ele>1320.1</ele>
        <time>2026-05-07T11:08:30Z</time>
      </trkpt>
      <trkpt lat="44.95468" lon="4.20423">
        <ele>1320.2</ele>
        <time>2026-05-07T11:08:35Z</time>
      </trkpt>
      <trkpt lat="44.95461" lon="4.20418">
        <ele>1320</ele>
        <time>2026-05-07T11:08:40Z</time>
      </trkpt>
      <trkpt lat="44.95454" lon="4.20415">
        <ele>1320.2</ele>
        <time>2026-05-07T11:08:45Z</time>
      </trkpt>
      <trkpt lat="44.95448" lon="4.20413">
        <ele>1320.6</ele>
        <time>2026-05-07T11:08:50Z</time>
      </trkpt>
      <trkpt lat="44.95441" lon="4.2041">
        <ele>1321</ele>
        <time>2026-05-07T11:08:55Z</time>
      </trkpt>
      <trkpt lat="44.95434" lon="4.20408">
        <ele>1321.4</ele>
        <time>2026-05-07T11:09:00Z</time>
      </trkpt>
      <trkpt lat="44.95428" lon="4.20405">
        <ele>1321.7</ele>
        <time>2026-05-07T11:09:05Z</time>
      </trkpt>
      <trkpt lat="44.9542" lon="4.204">
        <ele>1321.9</ele>
        <time>2026-05-07T11:09:10Z</time>
      </trkpt>
      <trkpt lat="44.95413" lon="4.20395">
        <ele>1322</ele>
        <time>2026-05-07T11:09:15Z</time>
      </trkpt>
      <trkpt lat="44.95406" lon="4.2039">
        <ele>1322</ele>
        <time>2026-05-07T11:09:20Z</time>
      </trkpt>
      <trkpt lat="44.95398" lon="4.20385">
        <ele>1322.1</ele>
        <time>2026-05-07T11:09:25Z</time>
      </trkpt>
      <trkpt lat="44.95391" lon="4.2038">
        <ele>1322.2</ele>
        <time>2026-05-07T11:09:30Z</time>
      </trkpt>
      <trkpt lat="44.95384" lon="4.20376">
        <ele>1322.4</ele>
        <time>2026-05-07T11:09:35Z</time>
      </trkpt>
      <trkpt lat="44.95377" lon="4.20372">
        <ele>1322.5</ele>
        <time>2026-05-07T11:09:40Z</time>
      </trkpt>
      <trkpt lat="44.95369" lon="4.20367">
        <ele>1322.6</ele>
        <time>2026-05-07T11:09:45Z</time>
      </trkpt>
      <trkpt lat="44.95362" lon="4.20363">
        <ele>1322.8</ele>
        <time>2026-05-07T11:09:50Z</time>
      </trkpt>
      <trkpt lat="44.95355" lon="4.2036">
        <ele>1323.1</ele>
        <time>2026-05-07T11:09:55Z</time>
      </trkpt>
      <trkpt lat="44.95348" lon="4.20356">
        <ele>1323.2</ele>
        <time>2026-05-07T11:10:00Z</time>
      </trkpt>
      <trkpt lat="44.95342" lon="4.20353">
        <ele>1323.4</ele>
        <time>2026-05-07T11:10:05Z</time>
      </trkpt>
      <trkpt lat="44.95335" lon="4.20351">
        <ele>1323.8</ele>
        <time>2026-05-07T11:10:10Z</time>
      </trkpt>
      <trkpt lat="44.95328" lon="4.20349">
        <ele>1323.8</ele>
        <time>2026-05-07T11:10:15Z</time>
      </trkpt>
      <trkpt lat="44.95323" lon="4.20344">
        <ele>1323.4</ele>
        <time>2026-05-07T11:10:20Z</time>
      </trkpt>
      <trkpt lat="44.95316" lon="4.20341">
        <ele>1323.2</ele>
        <time>2026-05-07T11:10:25Z</time>
      </trkpt>
      <trkpt lat="44.95309" lon="4.20336">
        <ele>1322.9</ele>
        <time>2026-05-07T11:10:30Z</time>
      </trkpt>
      <trkpt lat="44.95302" lon="4.20333">
        <ele>1322.7</ele>
        <time>2026-05-07T11:10:35Z</time>
      </trkpt>
      <trkpt lat="44.95295" lon="4.20329">
        <ele>1322.6</ele>
        <time>2026-05-07T11:10:40Z</time>
      </trkpt>
      <trkpt lat="44.95288" lon="4.20325">
        <ele>1322.4</ele>
        <time>2026-05-07T11:10:45Z</time>
      </trkpt>
      <trkpt lat="44.95282" lon="4.20322">
        <ele>1322.4</ele>
        <time>2026-05-07T11:10:50Z</time>
      </trkpt>
      <trkpt lat="44.95276" lon="4.20318">
        <ele>1322.2</ele>
        <time>2026-05-07T11:10:55Z</time>
      </trkpt>
      <trkpt lat="44.9527" lon="4.20315">
        <ele>1322.1</ele>
        <time>2026-05-07T11:11:00Z</time>
      </trkpt>
      <trkpt lat="44.95265" lon="4.20313">
        <ele>1322.1</ele>
        <time>2026-05-07T11:11:05Z</time>
      </trkpt>
      <trkpt lat="44.95258" lon="4.20312">
        <ele>1322.2</ele>
        <time>2026-05-07T11:11:10Z</time>
      </trkpt>
      <trkpt lat="44.95254" lon="4.20308">
        <ele>1322.1</ele>
        <time>2026-05-07T11:11:15Z</time>
      </trkpt>
      <trkpt lat="44.95248" lon="4.20305">
        <ele>1321.6</ele>
        <time>2026-05-07T11:11:20Z</time>
      </trkpt>
      <trkpt lat="44.95243" lon="4.20303">
        <ele>1320.6</ele>
        <time>2026-05-07T11:11:25Z</time>
      </trkpt>
      <trkpt lat="44.95237" lon="4.20299">
        <ele>1319.3</ele>
        <time>2026-05-07T11:11:30Z</time>
      </trkpt>
      <trkpt lat="44.95232" lon="4.20296">
        <ele>1318.2</ele>
        <time>2026-05-07T11:11:35Z</time>
      </trkpt>
      <trkpt lat="44.95224" lon="4.20292">
        <ele>1316.5</ele>
        <time>2026-05-07T11:11:40Z</time>
      </trkpt>
      <trkpt lat="44.95219" lon="4.20289">
        <ele>1315.4</ele>
        <time>2026-05-07T11:11:45Z</time>
      </trkpt>
      <trkpt lat="44.95212" lon="4.20284">
        <ele>1313.9</ele>
        <time>2026-05-07T11:11:50Z</time>
      </trkpt>
      <trkpt lat="44.95205" lon="4.2028">
        <ele>1312.4</ele>
        <time>2026-05-07T11:11:55Z</time>
      </trkpt>
      <trkpt lat="44.95197" lon="4.20277">
        <ele>1310.8</ele>
        <time>2026-05-07T11:12:00Z</time>
      </trkpt>
      <trkpt lat="44.95189" lon="4.20273">
        <ele>1309.2</ele>
        <time>2026-05-07T11:12:05Z</time>
      </trkpt>
      <trkpt lat="44.95183" lon="4.20271">
        <ele>1308.1</ele>
        <time>2026-05-07T11:12:10Z</time>
      </trkpt>
      <trkpt lat="44.95183" lon="4.20271">
        <ele>1308.1</ele>
        <time>2026-05-07T11:12:15Z</time>
      </trkpt>
      <trkpt lat="44.95183" lon="4.20271">
        <ele>1308.1</ele>
        <time>2026-05-07T11:12:20Z</time>
      </trkpt>
      <trkpt lat="44.95183" lon="4.20271">
        <ele>1308.1</ele>
        <time>2026-05-07T11:12:25Z</time>
      </trkpt>
      <trkpt lat="44.95183" lon="4.20271">
        <ele>1308.1</ele>
        <time>2026-05-07T11:12:30Z</time>
      </trkpt>
      <trkpt lat="44.95183" lon="4.20271">
        <ele>1308.1</ele>
        <time>2026-05-07T11:12:35Z</time>
      </trkpt>
      <trkpt lat="44.95182" lon="4.20272">
        <ele>1307.9</ele>
        <time>2026-05-07T11:12:40Z</time>
      </trkpt>
      <trkpt lat="44.95179" lon="4.20271">
        <ele>1307.4</ele>
        <time>2026-05-07T11:12:45Z</time>
      </trkpt>
      <trkpt lat="44.95179" lon="4.20271">
        <ele>1307.4</ele>
        <time>2026-05-07T11:12:50Z</time>
      </trkpt>
      <trkpt lat="44.95179" lon="4.20271">
        <ele>1307.4</ele>
        <time>2026-05-07T11:12:55Z</time>
      </trkpt>
      <trkpt lat="44.95179" lon="4.20271">
        <ele>1307.4</ele>
        <time>2026-05-07T11:13:00Z</time>
      </trkpt>
      <trkpt lat="44.95174" lon="4.2027">
        <ele>1306.5</ele>
        <time>2026-05-07T11:13:05Z</time>
      </trkpt>
      <trkpt lat="44.95169" lon="4.2027">
        <ele>1305.6</ele>
        <time>2026-05-07T11:13:10Z</time>
      </trkpt>
      <trkpt lat="44.95168" lon="4.20271">
        <ele>1305.5</ele>
        <time>2026-05-07T11:13:15Z</time>
      </trkpt>
      <trkpt lat="44.95162" lon="4.2027">
        <ele>1304.4</ele>
        <time>2026-05-07T11:13:20Z</time>
      </trkpt>
      <trkpt lat="44.95155" lon="4.20272">
        <ele>1303.3</ele>
        <time>2026-05-07T11:13:25Z</time>
      </trkpt>
      <trkpt lat="44.95147" lon="4.20274">
        <ele>1302</ele>
        <time>2026-05-07T11:13:30Z</time>
      </trkpt>
      <trkpt lat="44.95139" lon="4.20277">
        <ele>1300.7</ele>
        <time>2026-05-07T11:13:35Z</time>
      </trkpt>
      <trkpt lat="44.95134" lon="4.20277">
        <ele>1299.9</ele>
        <time>2026-05-07T11:13:40Z</time>
      </trkpt>
      <trkpt lat="44.95134" lon="4.20281">
        <ele>1300.1</ele>
        <time>2026-05-07T11:13:45Z</time>
      </trkpt>
      <trkpt lat="44.95129" lon="4.20285">
        <ele>1299.5</ele>
        <time>2026-05-07T11:13:50Z</time>
      </trkpt>
      <trkpt lat="44.95121" lon="4.20287">
        <ele>1298.2</ele>
        <time>2026-05-07T11:13:55Z</time>
      </trkpt>
      <trkpt lat="44.95116" lon="4.2029">
        <ele>1297.6</ele>
        <time>2026-05-07T11:14:00Z</time>
      </trkpt>
      <trkpt lat="44.95112" lon="4.20294">
        <ele>1297.1</ele>
        <time>2026-05-07T11:14:05Z</time>
      </trkpt>
      <trkpt lat="44.95112" lon="4.20294">
        <ele>1297.1</ele>
        <time>2026-05-07T11:14:10Z</time>
      </trkpt>
      <trkpt lat="44.95112" lon="4.20294">
        <ele>1297.1</ele>
        <time>2026-05-07T11:14:15Z</time>
      </trkpt>
      <trkpt lat="44.95112" lon="4.20294">
        <ele>1297.1</ele>
        <time>2026-05-07T11:14:20Z</time>
      </trkpt>
      <trkpt lat="44.95112" lon="4.20294">
        <ele>1297.1</ele>
        <time>2026-05-07T11:14:25Z</time>
      </trkpt>
      <trkpt lat="44.95112" lon="4.20294">
        <ele>1297.1</ele>
        <time>2026-05-07T11:14:30Z</time>
      </trkpt>
      <trkpt lat="44.95112" lon="4.20294">
        <ele>1297.1</ele>
        <time>2026-05-07T11:14:35Z</time>
      </trkpt>
      <trkpt lat="44.95112" lon="4.20294">
        <ele>1297.1</ele>
        <time>2026-05-07T11:14:40Z</time>
      </trkpt>
      <trkpt lat="44.95112" lon="4.20294">
        <ele>1297.1</ele>
        <time>2026-05-07T11:14:45Z</time>
      </trkpt>
      <trkpt lat="44.95112" lon="4.20294">
        <ele>1297.1</ele>
        <time>2026-05-07T11:14:50Z</time>
      </trkpt>
      <trkpt lat="44.95112" lon="4.20294">
        <ele>1297.1</ele>
        <time>2026-05-07T11:14:55Z</time>
      </trkpt>
      <trkpt lat="44.95112" lon="4.20294">
        <ele>1297.1</ele>
        <time>2026-05-07T11:15:00Z</time>
      </trkpt>
      <trkpt lat="44.95112" lon="4.20294">
        <ele>1297.1</ele>
        <time>2026-05-07T11:15:05Z</time>
      </trkpt>
      <trkpt lat="44.9511" lon="4.20303">
        <ele>1297.4</ele>
        <time>2026-05-07T11:15:10Z</time>
      </trkpt>
      <trkpt lat="44.95108" lon="4.20311">
        <ele>1297.6</ele>
        <time>2026-05-07T11:15:15Z</time>
      </trkpt>
      <trkpt lat="44.95106" lon="4.20316">
        <ele>1297.6</ele>
        <time>2026-05-07T11:15:20Z</time>
      </trkpt>
      <trkpt lat="44.95105" lon="4.20316">
        <ele>1297.4</ele>
        <time>2026-05-07T11:15:25Z</time>
      </trkpt>
      <trkpt lat="44.95105" lon="4.20317">
        <ele>1297.5</ele>
        <time>2026-05-07T11:15:30Z</time>
      </trkpt>
      <trkpt lat="44.95103" lon="4.20322">
        <ele>1297.5</ele>
        <time>2026-05-07T11:15:35Z</time>
      </trkpt>
      <trkpt lat="44.95104" lon="4.20318">
        <ele>1297.4</ele>
        <time>2026-05-07T11:15:40Z</time>
      </trkpt>
      <trkpt lat="44.95107" lon="4.2031">
        <ele>1297.4</ele>
        <time>2026-05-07T11:15:45Z</time>
      </trkpt>
      <trkpt lat="44.9511" lon="4.20304">
        <ele>1297.5</ele>
        <time>2026-05-07T11:15:50Z</time>
      </trkpt>
      <trkpt lat="44.95111" lon="4.20304">
        <ele>1297.7</ele>
        <time>2026-05-07T11:15:55Z</time>
      </trkpt>
      <trkpt lat="44.95111" lon="4.20303">
        <ele>1297.6</ele>
        <time>2026-05-07T11:16:00Z</time>
      </trkpt>
      <trkpt lat="44.95111" lon="4.20303">
        <ele>1297.6</ele>
        <time>2026-05-07T11:16:05Z</time>
      </trkpt>
      <trkpt lat="44.95111" lon="4.20303">
        <ele>1297.6</ele>
        <time>2026-05-07T11:16:10Z</time>
      </trkpt>
      <trkpt lat="44.95115" lon="4.20296">
        <ele>1297.8</ele>
        <time>2026-05-07T11:16:15Z</time>
      </trkpt>
      <trkpt lat="44.95119" lon="4.2029">
        <ele>1298.1</ele>
        <time>2026-05-07T11:16:20Z</time>
      </trkpt>
      <trkpt lat="44.95125" lon="4.20285">
        <ele>1298.8</ele>
        <time>2026-05-07T11:16:25Z</time>
      </trkpt>
      <trkpt lat="44.95131" lon="4.20282">
        <ele>1299.7</ele>
        <time>2026-05-07T11:16:30Z</time>
      </trkpt>
      <trkpt lat="44.95136" lon="4.20279">
        <ele>1300.3</ele>
        <time>2026-05-07T11:16:35Z</time>
      </trkpt>
      <trkpt lat="44.95139" lon="4.20273">
        <ele>1300.5</ele>
        <time>2026-05-07T11:16:40Z</time>
      </trkpt>
      <trkpt lat="44.9514" lon="4.20266">
        <ele>1300.2</ele>
        <time>2026-05-07T11:16:45Z</time>
      </trkpt>
      <trkpt lat="44.95139" lon="4.20263">
        <ele>1299.9</ele>
        <time>2026-05-07T11:16:50Z</time>
      </trkpt>
      <trkpt lat="44.95137" lon="4.2026">
        <ele>1299.3</ele>
        <time>2026-05-07T11:16:55Z</time>
      </trkpt>
      <trkpt lat="44.95137" lon="4.2026">
        <ele>1299.3</ele>
        <time>2026-05-07T11:17:00Z</time>
      </trkpt>
      <trkpt lat="44.95137" lon="4.2026">
        <ele>1299.3</ele>
        <time>2026-05-07T11:17:05Z</time>
      </trkpt>
      <trkpt lat="44.95135" lon="4.20252">
        <ele>1298.4</ele>
        <time>2026-05-07T11:17:10Z</time>
      </trkpt>
      <trkpt lat="44.95137" lon="4.20246">
        <ele>1298.4</ele>
        <time>2026-05-07T11:17:15Z</time>
      </trkpt>
      <trkpt lat="44.95139" lon="4.20239">
        <ele>1298.2</ele>
        <time>2026-05-07T11:17:20Z</time>
      </trkpt>
      <trkpt lat="44.9514" lon="4.2023">
        <ele>1297.8</ele>
        <time>2026-05-07T11:17:25Z</time>
      </trkpt>
      <trkpt lat="44.9514" lon="4.20221">
        <ele>1297.1</ele>
        <time>2026-05-07T11:17:30Z</time>
      </trkpt>
      <trkpt lat="44.95142" lon="4.20212">
        <ele>1296.9</ele>
        <time>2026-05-07T11:17:35Z</time>
      </trkpt>
      <trkpt lat="44.95142" lon="4.20204">
        <ele>1296.3</ele>
        <time>2026-05-07T11:17:40Z</time>
      </trkpt>
      <trkpt lat="44.95142" lon="4.20196">
        <ele>1295.7</ele>
        <time>2026-05-07T11:17:45Z</time>
      </trkpt>
      <trkpt lat="44.95139" lon="4.20188">
        <ele>1294.6</ele>
        <time>2026-05-07T11:17:50Z</time>
      </trkpt>
      <trkpt lat="44.95135" lon="4.20186">
        <ele>1293.6</ele>
        <time>2026-05-07T11:17:55Z</time>
      </trkpt>
      <trkpt lat="44.95129" lon="4.20186">
        <ele>1292.3</ele>
        <time>2026-05-07T11:18:00Z</time>
      </trkpt>
      <trkpt lat="44.95124" lon="4.20186">
        <ele>1291.3</ele>
        <time>2026-05-07T11:18:05Z</time>
      </trkpt>
      <trkpt lat="44.95118" lon="4.20187">
        <ele>1290.1</ele>
        <time>2026-05-07T11:18:10Z</time>
      </trkpt>
      <trkpt lat="44.95113" lon="4.2019">
        <ele>1289.3</ele>
        <time>2026-05-07T11:18:15Z</time>
      </trkpt>
      <trkpt lat="44.95109" lon="4.20191">
        <ele>1288.6</ele>
        <time>2026-05-07T11:18:20Z</time>
      </trkpt>
      <trkpt lat="44.95104" lon="4.20194">
        <ele>1287.8</ele>
        <time>2026-05-07T11:18:25Z</time>
      </trkpt>
      <trkpt lat="44.95098" lon="4.20196">
        <ele>1286.8</ele>
        <time>2026-05-07T11:18:30Z</time>
      </trkpt>
      <trkpt lat="44.95093" lon="4.202">
        <ele>1286.1</ele>
        <time>2026-05-07T11:18:35Z</time>
      </trkpt>
      <trkpt lat="44.9509" lon="4.20204">
        <ele>1285.9</ele>
        <time>2026-05-07T11:18:40Z</time>
      </trkpt>
      <trkpt lat="44.95087" lon="4.2021">
        <ele>1285.9</ele>
        <time>2026-05-07T11:18:45Z</time>
      </trkpt>
      <trkpt lat="44.95083" lon="4.20218">
        <ele>1285.9</ele>
        <time>2026-05-07T11:18:50Z</time>
      </trkpt>
      <trkpt lat="44.9508" lon="4.20224">
        <ele>1286</ele>
        <time>2026-05-07T11:18:55Z</time>
      </trkpt>
      <trkpt lat="44.95077" lon="4.20231">
        <ele>1286.2</ele>
        <time>2026-05-07T11:19:00Z</time>
      </trkpt>
      <trkpt lat="44.95071" lon="4.20239">
        <ele>1286.1</ele>
        <time>2026-05-07T11:19:05Z</time>
      </trkpt>
      <trkpt lat="44.95065" lon="4.20245">
        <ele>1285.7</ele>
        <time>2026-05-07T11:19:10Z</time>
      </trkpt>
      <trkpt lat="44.95061" lon="4.20253">
        <ele>1285.7</ele>
        <time>2026-05-07T11:19:15Z</time>
      </trkpt>
      <trkpt lat="44.95056" lon="4.20262">
        <ele>1285.6</ele>
        <time>2026-05-07T11:19:20Z</time>
      </trkpt>
      <trkpt lat="44.95051" lon="4.20266">
        <ele>1285.2</ele>
        <time>2026-05-07T11:19:25Z</time>
      </trkpt>
      <trkpt lat="44.95046" lon="4.20267">
        <ele>1284.5</ele>
        <time>2026-05-07T11:19:30Z</time>
      </trkpt>
      <trkpt lat="44.95039" lon="4.20265">
        <ele>1283.3</ele>
        <time>2026-05-07T11:19:35Z</time>
      </trkpt>
      <trkpt lat="44.95036" lon="4.20263">
        <ele>1282.6</ele>
        <time>2026-05-07T11:19:40Z</time>
      </trkpt>
      <trkpt lat="44.9503" lon="4.20264">
        <ele>1281.8</ele>
        <time>2026-05-07T11:19:45Z</time>
      </trkpt>
      <trkpt lat="44.9503" lon="4.20264">
        <ele>1281.8</ele>
        <time>2026-05-07T11:19:50Z</time>
      </trkpt>
      <trkpt lat="44.9503" lon="4.20264">
        <ele>1281.8</ele>
        <time>2026-05-07T11:19:55Z</time>
      </trkpt>
      <trkpt lat="44.9503" lon="4.20264">
        <ele>1281.8</ele>
        <time>2026-05-07T11:20:00Z</time>
      </trkpt>
      <trkpt lat="44.95031" lon="4.20274">
        <ele>1282.7</ele>
        <time>2026-05-07T11:20:05Z</time>
      </trkpt>
      <trkpt lat="44.95028" lon="4.2028">
        <ele>1282.8</ele>
        <time>2026-05-07T11:20:10Z</time>
      </trkpt>
      <trkpt lat="44.95025" lon="4.20289">
        <ele>1283</ele>
        <time>2026-05-07T11:20:15Z</time>
      </trkpt>
      <trkpt lat="44.9502" lon="4.20293">
        <ele>1282.6</ele>
        <time>2026-05-07T11:20:20Z</time>
      </trkpt>
      <trkpt lat="44.95014" lon="4.20293">
        <ele>1281.7</ele>
        <time>2026-05-07T11:20:25Z</time>
      </trkpt>
      <trkpt lat="44.95012" lon="4.20299">
        <ele>1281.9</ele>
        <time>2026-05-07T11:20:30Z</time>
      </trkpt>
      <trkpt lat="44.95012" lon="4.20299">
        <ele>1281.9</ele>
        <time>2026-05-07T11:20:35Z</time>
      </trkpt>
      <trkpt lat="44.95012" lon="4.20299">
        <ele>1281.9</ele>
        <time>2026-05-07T11:20:40Z</time>
      </trkpt>
      <trkpt lat="44.95012" lon="4.20299">
        <ele>1281.9</ele>
        <time>2026-05-07T11:20:45Z</time>
      </trkpt>
      <trkpt lat="44.95012" lon="4.20299">
        <ele>1281.9</ele>
        <time>2026-05-07T11:20:50Z</time>
      </trkpt>
      <trkpt lat="44.95012" lon="4.20299">
        <ele>1281.9</ele>
        <time>2026-05-07T11:20:55Z</time>
      </trkpt>
      <trkpt lat="44.95012" lon="4.20299">
        <ele>1281.9</ele>
        <time>2026-05-07T11:21:00Z</time>
      </trkpt>
      <trkpt lat="44.95012" lon="4.20299">
        <ele>1281.9</ele>
        <time>2026-05-07T11:21:05Z</time>
      </trkpt>
      <trkpt lat="44.95012" lon="4.20299">
        <ele>1281.9</ele>
        <time>2026-05-07T11:21:10Z</time>
      </trkpt>
      <trkpt lat="44.95012" lon="4.20299">
        <ele>1281.9</ele>
        <time>2026-05-07T11:21:15Z</time>
      </trkpt>
      <trkpt lat="44.95012" lon="4.20299">
        <ele>1281.9</ele>
        <time>2026-05-07T11:21:20Z</time>
      </trkpt>
      <trkpt lat="44.95012" lon="4.20299">
        <ele>1281.9</ele>
        <time>2026-05-07T11:21:25Z</time>
      </trkpt>
      <trkpt lat="44.95012" lon="4.20299">
        <ele>1281.9</ele>
        <time>2026-05-07T11:21:30Z</time>
      </trkpt>
      <trkpt lat="44.95012" lon="4.20299">
        <ele>1281.9</ele>
        <time>2026-05-07T11:21:35Z</time>
      </trkpt>
      <trkpt lat="44.95012" lon="4.20299">
        <ele>1281.9</ele>
        <time>2026-05-07T11:21:40Z</time>
      </trkpt>
      <trkpt lat="44.95012" lon="4.20299">
        <ele>1281.9</ele>
        <time>2026-05-07T11:21:45Z</time>
      </trkpt>
      <trkpt lat="44.95014" lon="4.20303">
        <ele>1282.5</ele>
        <time>2026-05-07T11:21:50Z</time>
      </trkpt>
      <trkpt lat="44.9501" lon="4.20311">
        <ele>1282.6</ele>
        <time>2026-05-07T11:21:55Z</time>
      </trkpt>
      <trkpt lat="44.95006" lon="4.20318">
        <ele>1282.6</ele>
        <time>2026-05-07T11:22:00Z</time>
      </trkpt>
      <trkpt lat="44.95002" lon="4.20324">
        <ele>1282.5</ele>
        <time>2026-05-07T11:22:05Z</time>
      </trkpt>
      <trkpt lat="44.95001" lon="4.20333">
        <ele>1283.1</ele>
        <time>2026-05-07T11:22:10Z</time>
      </trkpt>
      <trkpt lat="44.94998" lon="4.2034">
        <ele>1283.6</ele>
        <time>2026-05-07T11:22:15Z</time>
      </trkpt>
      <trkpt lat="44.94994" lon="4.2035">
        <ele>1284.5</ele>
        <time>2026-05-07T11:22:20Z</time>
      </trkpt>
      <trkpt lat="44.9499" lon="4.20355">
        <ele>1284.8</ele>
        <time>2026-05-07T11:22:25Z</time>
      </trkpt>
      <trkpt lat="44.94986" lon="4.20362">
        <ele>1285.4</ele>
        <time>2026-05-07T11:22:30Z</time>
      </trkpt>
      <trkpt lat="44.94981" lon="4.20367">
        <ele>1285.6</ele>
        <time>2026-05-07T11:22:35Z</time>
      </trkpt>
      <trkpt lat="44.94977" lon="4.20375">
        <ele>1286.3</ele>
        <time>2026-05-07T11:22:40Z</time>
      </trkpt>
      <trkpt lat="44.94973" lon="4.20382">
        <ele>1287</ele>
        <time>2026-05-07T11:22:45Z</time>
      </trkpt>
      <trkpt lat="44.94969" lon="4.2039">
        <ele>1287.7</ele>
        <time>2026-05-07T11:22:50Z</time>
      </trkpt>
      <trkpt lat="44.94965" lon="4.20396">
        <ele>1288.2</ele>
        <time>2026-05-07T11:22:55Z</time>
      </trkpt>
      <trkpt lat="44.94965" lon="4.20396">
        <ele>1288.2</ele>
        <time>2026-05-07T11:23:00Z</time>
      </trkpt>
      <trkpt lat="44.94965" lon="4.20396">
        <ele>1288.2</ele>
        <time>2026-05-07T11:23:05Z</time>
      </trkpt>
      <trkpt lat="44.94964" lon="4.204">
        <ele>1288.7</ele>
        <time>2026-05-07T11:23:10Z</time>
      </trkpt>
      <trkpt lat="44.94961" lon="4.20409">
        <ele>1289.7</ele>
        <time>2026-05-07T11:23:15Z</time>
      </trkpt>
      <trkpt lat="44.94957" lon="4.20417">
        <ele>1290.5</ele>
        <time>2026-05-07T11:23:20Z</time>
      </trkpt>
      <trkpt lat="44.94955" lon="4.20423">
        <ele>1291.2</ele>
        <time>2026-05-07T11:23:25Z</time>
      </trkpt>
      <trkpt lat="44.94952" lon="4.20428">
        <ele>1291.8</ele>
        <time>2026-05-07T11:23:30Z</time>
      </trkpt>
      <trkpt lat="44.94949" lon="4.20433">
        <ele>1292.3</ele>
        <time>2026-05-07T11:23:35Z</time>
      </trkpt>
      <trkpt lat="44.94945" lon="4.20442">
        <ele>1293.5</ele>
        <time>2026-05-07T11:23:40Z</time>
      </trkpt>
      <trkpt lat="44.94941" lon="4.20452">
        <ele>1295</ele>
        <time>2026-05-07T11:23:45Z</time>
      </trkpt>
      <trkpt lat="44.94939" lon="4.20462">
        <ele>1296.5</ele>
        <time>2026-05-07T11:23:50Z</time>
      </trkpt>
      <trkpt lat="44.94937" lon="4.20469">
        <ele>1297.6</ele>
        <time>2026-05-07T11:23:55Z</time>
      </trkpt>
      <trkpt lat="44.94937" lon="4.20478">
        <ele>1299</ele>
        <time>2026-05-07T11:24:00Z</time>
      </trkpt>
      <trkpt lat="44.94935" lon="4.20485">
        <ele>1300.1</ele>
        <time>2026-05-07T11:24:05Z</time>
      </trkpt>
      <trkpt lat="44.94933" lon="4.20493">
        <ele>1301.5</ele>
        <time>2026-05-07T11:24:10Z</time>
      </trkpt>
      <trkpt lat="44.94932" lon="4.20502">
        <ele>1302.9</ele>
        <time>2026-05-07T11:24:15Z</time>
      </trkpt>
      <trkpt lat="44.9493" lon="4.20509">
        <ele>1303.9</ele>
        <time>2026-05-07T11:24:20Z</time>
      </trkpt>
      <trkpt lat="44.94926" lon="4.20516">
        <ele>1304.9</ele>
        <time>2026-05-07T11:24:25Z</time>
      </trkpt>
      <trkpt lat="44.94923" lon="4.20525">
        <ele>1306.1</ele>
        <time>2026-05-07T11:24:30Z</time>
      </trkpt>
      <trkpt lat="44.9492" lon="4.20533">
        <ele>1307.3</ele>
        <time>2026-05-07T11:24:35Z</time>
      </trkpt>
      <trkpt lat="44.94917" lon="4.20541">
        <ele>1308.4</ele>
        <time>2026-05-07T11:24:40Z</time>
      </trkpt>
      <trkpt lat="44.94915" lon="4.20548">
        <ele>1309.5</ele>
        <time>2026-05-07T11:24:45Z</time>
      </trkpt>
      <trkpt lat="44.94911" lon="4.20555">
        <ele>1310.9</ele>
        <time>2026-05-07T11:24:50Z</time>
      </trkpt>
      <trkpt lat="44.94909" lon="4.20561">
        <ele>1312</ele>
        <time>2026-05-07T11:24:55Z</time>
      </trkpt>
      <trkpt lat="44.94906" lon="4.20568">
        <ele>1313.3</ele>
        <time>2026-05-07T11:25:00Z</time>
      </trkpt>
      <trkpt lat="44.94903" lon="4.20574">
        <ele>1314.5</ele>
        <time>2026-05-07T11:25:05Z</time>
      </trkpt>
      <trkpt lat="44.94901" lon="4.20581">
        <ele>1315.7</ele>
        <time>2026-05-07T11:25:10Z</time>
      </trkpt>
      <trkpt lat="44.94898" lon="4.20587">
        <ele>1316.9</ele>
        <time>2026-05-07T11:25:15Z</time>
      </trkpt>
      <trkpt lat="44.94895" lon="4.20593">
        <ele>1318</ele>
        <time>2026-05-07T11:25:20Z</time>
      </trkpt>
      <trkpt lat="44.94892" lon="4.20599">
        <ele>1319.1</ele>
        <time>2026-05-07T11:25:25Z</time>
      </trkpt>
      <trkpt lat="44.94888" lon="4.20606">
        <ele>1320.5</ele>
        <time>2026-05-07T11:25:30Z</time>
      </trkpt>
      <trkpt lat="44.94885" lon="4.20612">
        <ele>1321.7</ele>
        <time>2026-05-07T11:25:35Z</time>
      </trkpt>
      <trkpt lat="44.94881" lon="4.20618">
        <ele>1323</ele>
        <time>2026-05-07T11:25:40Z</time>
      </trkpt>
      <trkpt lat="44.94878" lon="4.20624">
        <ele>1324.2</ele>
        <time>2026-05-07T11:25:45Z</time>
      </trkpt>
      <trkpt lat="44.94875" lon="4.20629">
        <ele>1325.3</ele>
        <time>2026-05-07T11:25:50Z</time>
      </trkpt>
      <trkpt lat="44.94872" lon="4.20635">
        <ele>1326.5</ele>
        <time>2026-05-07T11:25:55Z</time>
      </trkpt>
      <trkpt lat="44.94869" lon="4.20639">
        <ele>1327.5</ele>
        <time>2026-05-07T11:26:00Z</time>
      </trkpt>
      <trkpt lat="44.94866" lon="4.20644">
        <ele>1328.6</ele>
        <time>2026-05-07T11:26:05Z</time>
      </trkpt>
      <trkpt lat="44.94863" lon="4.20648">
        <ele>1329.6</ele>
        <time>2026-05-07T11:26:10Z</time>
      </trkpt>
      <trkpt lat="44.9486" lon="4.20653">
        <ele>1330.7</ele>
        <time>2026-05-07T11:26:15Z</time>
      </trkpt>
      <trkpt lat="44.94857" lon="4.20658">
        <ele>1331.9</ele>
        <time>2026-05-07T11:26:20Z</time>
      </trkpt>
      <trkpt lat="44.94854" lon="4.20662">
        <ele>1332.9</ele>
        <time>2026-05-07T11:26:25Z</time>
      </trkpt>
      <trkpt lat="44.94852" lon="4.20666">
        <ele>1333.8</ele>
        <time>2026-05-07T11:26:30Z</time>
      </trkpt>
      <trkpt lat="44.9485" lon="4.20672">
        <ele>1334.5</ele>
        <time>2026-05-07T11:26:35Z</time>
      </trkpt>
      <trkpt lat="44.94848" lon="4.20677">
        <ele>1335.1</ele>
        <time>2026-05-07T11:26:40Z</time>
      </trkpt>
      <trkpt lat="44.94846" lon="4.20683">
        <ele>1335.8</ele>
        <time>2026-05-07T11:26:45Z</time>
      </trkpt>
      <trkpt lat="44.94844" lon="4.20688">
        <ele>1336.4</ele>
        <time>2026-05-07T11:26:50Z</time>
      </trkpt>
      <trkpt lat="44.94842" lon="4.20693">
        <ele>1336.9</ele>
        <time>2026-05-07T11:26:55Z</time>
      </trkpt>
      <trkpt lat="44.9484" lon="4.20698">
        <ele>1337.5</ele>
        <time>2026-05-07T11:27:00Z</time>
      </trkpt>
      <trkpt lat="44.94838" lon="4.20703">
        <ele>1338.1</ele>
        <time>2026-05-07T11:27:05Z</time>
      </trkpt>
      <trkpt lat="44.94836" lon="4.20708">
        <ele>1338.6</ele>
        <time>2026-05-07T11:27:10Z</time>
      </trkpt>
      <trkpt lat="44.94834" lon="4.20713">
        <ele>1339.1</ele>
        <time>2026-05-07T11:27:15Z</time>
      </trkpt>
      <trkpt lat="44.94832" lon="4.20719">
        <ele>1339.5</ele>
        <time>2026-05-07T11:27:20Z</time>
      </trkpt>
      <trkpt lat="44.94831" lon="4.20723">
        <ele>1339.7</ele>
        <time>2026-05-07T11:27:25Z</time>
      </trkpt>
      <trkpt lat="44.94829" lon="4.20727">
        <ele>1340</ele>
        <time>2026-05-07T11:27:30Z</time>
      </trkpt>
      <trkpt lat="44.94827" lon="4.20733">
        <ele>1340.3</ele>
        <time>2026-05-07T11:27:35Z</time>
      </trkpt>
      <trkpt lat="44.94825" lon="4.20739">
        <ele>1340.7</ele>
        <time>2026-05-07T11:27:40Z</time>
      </trkpt>
      <trkpt lat="44.94822" lon="4.20745">
        <ele>1341.1</ele>
        <time>2026-05-07T11:27:45Z</time>
      </trkpt>
      <trkpt lat="44.9482" lon="4.2075">
        <ele>1341.5</ele>
        <time>2026-05-07T11:27:50Z</time>
      </trkpt>
      <trkpt lat="44.94818" lon="4.20755">
        <ele>1341.7</ele>
        <time>2026-05-07T11:27:55Z</time>
      </trkpt>
      <trkpt lat="44.94816" lon="4.20761">
        <ele>1342</ele>
        <time>2026-05-07T11:28:00Z</time>
      </trkpt>
      <trkpt lat="44.94813" lon="4.20767">
        <ele>1342.3</ele>
        <time>2026-05-07T11:28:05Z</time>
      </trkpt>
      <trkpt lat="44.9481" lon="4.20773">
        <ele>1342.7</ele>
        <time>2026-05-07T11:28:10Z</time>
      </trkpt>
      <trkpt lat="44.94807" lon="4.20779">
        <ele>1343.1</ele>
        <time>2026-05-07T11:28:15Z</time>
      </trkpt>
      <trkpt lat="44.94804" lon="4.20784">
        <ele>1343.4</ele>
        <time>2026-05-07T11:28:20Z</time>
      </trkpt>
      <trkpt lat="44.94801" lon="4.2079">
        <ele>1343.9</ele>
        <time>2026-05-07T11:28:25Z</time>
      </trkpt>
      <trkpt lat="44.94798" lon="4.20795">
        <ele>1344.3</ele>
        <time>2026-05-07T11:28:30Z</time>
      </trkpt>
      <trkpt lat="44.94795" lon="4.208">
        <ele>1344.7</ele>
        <time>2026-05-07T11:28:35Z</time>
      </trkpt>
      <trkpt lat="44.94792" lon="4.20806">
        <ele>1345.2</ele>
        <time>2026-05-07T11:28:40Z</time>
      </trkpt>
      <trkpt lat="44.9479" lon="4.20811">
        <ele>1345.5</ele>
        <time>2026-05-07T11:28:45Z</time>
      </trkpt>
      <trkpt lat="44.94787" lon="4.20817">
        <ele>1346.1</ele>
        <time>2026-05-07T11:28:50Z</time>
      </trkpt>
      <trkpt lat="44.94784" lon="4.20823">
        <ele>1346.6</ele>
        <time>2026-05-07T11:28:55Z</time>
      </trkpt>
      <trkpt lat="44.94781" lon="4.20829">
        <ele>1347.2</ele>
        <time>2026-05-07T11:29:00Z</time>
      </trkpt>
      <trkpt lat="44.94779" lon="4.20835">
        <ele>1347.6</ele>
        <time>2026-05-07T11:29:05Z</time>
      </trkpt>
      <trkpt lat="44.94775" lon="4.20841">
        <ele>1348.3</ele>
        <time>2026-05-07T11:29:10Z</time>
      </trkpt>
      <trkpt lat="44.94772" lon="4.20848">
        <ele>1348.9</ele>
        <time>2026-05-07T11:29:15Z</time>
      </trkpt>
      <trkpt lat="44.94769" lon="4.20852">
        <ele>1349.3</ele>
        <time>2026-05-07T11:29:20Z</time>
      </trkpt>
      <trkpt lat="44.94765" lon="4.20856">
        <ele>1349.8</ele>
        <time>2026-05-07T11:29:25Z</time>
      </trkpt>
      <trkpt lat="44.94761" lon="4.20857">
        <ele>1350.2</ele>
        <time>2026-05-07T11:29:30Z</time>
      </trkpt>
      <trkpt lat="44.94759" lon="4.2086">
        <ele>1350.5</ele>
        <time>2026-05-07T11:29:35Z</time>
      </trkpt>
      <trkpt lat="44.94756" lon="4.20862">
        <ele>1350.9</ele>
        <time>2026-05-07T11:29:40Z</time>
      </trkpt>
      <trkpt lat="44.94752" lon="4.20864">
        <ele>1351.3</ele>
        <time>2026-05-07T11:29:45Z</time>
      </trkpt>
      <trkpt lat="44.94748" lon="4.20867">
        <ele>1351.6</ele>
        <time>2026-05-07T11:29:50Z</time>
      </trkpt>
      <trkpt lat="44.94744" lon="4.20871">
        <ele>1351.9</ele>
        <time>2026-05-07T11:29:55Z</time>
      </trkpt>
      <trkpt lat="44.94739" lon="4.20874">
        <ele>1352.1</ele>
        <time>2026-05-07T11:30:00Z</time>
      </trkpt>
      <trkpt lat="44.94735" lon="4.20878">
        <ele>1352.3</ele>
        <time>2026-05-07T11:30:05Z</time>
      </trkpt>
      <trkpt lat="44.94732" lon="4.20879">
        <ele>1352.4</ele>
        <time>2026-05-07T11:30:10Z</time>
      </trkpt>
      <trkpt lat="44.94732" lon="4.2088">
        <ele>1352.5</ele>
        <time>2026-05-07T11:30:15Z</time>
      </trkpt>
      <trkpt lat="44.94728" lon="4.20883">
        <ele>1352.7</ele>
        <time>2026-05-07T11:30:20Z</time>
      </trkpt>
      <trkpt lat="44.94724" lon="4.20887">
        <ele>1353</ele>
        <time>2026-05-07T11:30:25Z</time>
      </trkpt>
      <trkpt lat="44.94719" lon="4.20891">
        <ele>1353.3</ele>
        <time>2026-05-07T11:30:30Z</time>
      </trkpt>
      <trkpt lat="44.94714" lon="4.20895">
        <ele>1353.6</ele>
        <time>2026-05-07T11:30:35Z</time>
      </trkpt>
      <trkpt lat="44.9471" lon="4.20899">
        <ele>1353.9</ele>
        <time>2026-05-07T11:30:40Z</time>
      </trkpt>
      <trkpt lat="44.94705" lon="4.20902">
        <ele>1354.2</ele>
        <time>2026-05-07T11:30:45Z</time>
      </trkpt>
      <trkpt lat="44.947" lon="4.20906">
        <ele>1354.5</ele>
        <time>2026-05-07T11:30:50Z</time>
      </trkpt>
      <trkpt lat="44.94695" lon="4.2091">
        <ele>1354.9</ele>
        <time>2026-05-07T11:30:55Z</time>
      </trkpt>
      <trkpt lat="44.94691" lon="4.20913">
        <ele>1355.2</ele>
        <time>2026-05-07T11:31:00Z</time>
      </trkpt>
      <trkpt lat="44.94687" lon="4.20918">
        <ele>1355.6</ele>
        <time>2026-05-07T11:31:05Z</time>
      </trkpt>
      <trkpt lat="44.94682" lon="4.20921">
        <ele>1355.9</ele>
        <time>2026-05-07T11:31:10Z</time>
      </trkpt>
      <trkpt lat="44.94678" lon="4.20925">
        <ele>1356.3</ele>
        <time>2026-05-07T11:31:15Z</time>
      </trkpt>
      <trkpt lat="44.94674" lon="4.2093">
        <ele>1356.8</ele>
        <time>2026-05-07T11:31:20Z</time>
      </trkpt>
      <trkpt lat="44.94669" lon="4.20934">
        <ele>1357.2</ele>
        <time>2026-05-07T11:31:25Z</time>
      </trkpt>
      <trkpt lat="44.94665" lon="4.20938">
        <ele>1357.5</ele>
        <time>2026-05-07T11:31:30Z</time>
      </trkpt>
      <trkpt lat="44.9466" lon="4.20941">
        <ele>1357.5</ele>
        <time>2026-05-07T11:31:35Z</time>
      </trkpt>
      <trkpt lat="44.94656" lon="4.20944">
        <ele>1357.5</ele>
        <time>2026-05-07T11:31:40Z</time>
      </trkpt>
      <trkpt lat="44.9465" lon="4.20948">
        <ele>1357.6</ele>
        <time>2026-05-07T11:31:45Z</time>
      </trkpt>
      <trkpt lat="44.94646" lon="4.20952">
        <ele>1357.8</ele>
        <time>2026-05-07T11:31:50Z</time>
      </trkpt>
      <trkpt lat="44.94641" lon="4.20955">
        <ele>1357.8</ele>
        <time>2026-05-07T11:31:55Z</time>
      </trkpt>
      <trkpt lat="44.94638" lon="4.20958">
        <ele>1357.9</ele>
        <time>2026-05-07T11:32:00Z</time>
      </trkpt>
      <trkpt lat="44.94633" lon="4.20962">
        <ele>1358.1</ele>
        <time>2026-05-07T11:32:05Z</time>
      </trkpt>
      <trkpt lat="44.94629" lon="4.20967">
        <ele>1358.4</ele>
        <time>2026-05-07T11:32:10Z</time>
      </trkpt>
      <trkpt lat="44.94624" lon="4.20971">
        <ele>1358.5</ele>
        <time>2026-05-07T11:32:15Z</time>
      </trkpt>
      <trkpt lat="44.94619" lon="4.20975">
        <ele>1358.7</ele>
        <time>2026-05-07T11:32:20Z</time>
      </trkpt>
      <trkpt lat="44.94614" lon="4.20979">
        <ele>1358.9</ele>
        <time>2026-05-07T11:32:25Z</time>
      </trkpt>
      <trkpt lat="44.94609" lon="4.20982">
        <ele>1359</ele>
        <time>2026-05-07T11:32:30Z</time>
      </trkpt>
      <trkpt lat="44.94604" lon="4.20985">
        <ele>1359.1</ele>
        <time>2026-05-07T11:32:35Z</time>
      </trkpt>
      <trkpt lat="44.94599" lon="4.20989">
        <ele>1359.4</ele>
        <time>2026-05-07T11:32:40Z</time>
      </trkpt>
      <trkpt lat="44.94594" lon="4.20993">
        <ele>1359.6</ele>
        <time>2026-05-07T11:32:45Z</time>
      </trkpt>
      <trkpt lat="44.94589" lon="4.20995">
        <ele>1359.7</ele>
        <time>2026-05-07T11:32:50Z</time>
      </trkpt>
      <trkpt lat="44.94584" lon="4.20998">
        <ele>1359.8</ele>
        <time>2026-05-07T11:32:55Z</time>
      </trkpt>
      <trkpt lat="44.9458" lon="4.20998">
        <ele>1359.9</ele>
        <time>2026-05-07T11:33:00Z</time>
      </trkpt>
      <trkpt lat="44.94579" lon="4.20998">
        <ele>1359.9</ele>
        <time>2026-05-07T11:33:05Z</time>
      </trkpt>
      <trkpt lat="44.94579" lon="4.20998">
        <ele>1359.9</ele>
        <time>2026-05-07T11:33:10Z</time>
      </trkpt>
      <trkpt lat="44.94579" lon="4.20998">
        <ele>1359.9</ele>
        <time>2026-05-07T11:33:15Z</time>
      </trkpt>
      <trkpt lat="44.94579" lon="4.20998">
        <ele>1359.9</ele>
        <time>2026-05-07T11:33:20Z</time>
      </trkpt>
      <trkpt lat="44.94579" lon="4.20998">
        <ele>1359.9</ele>
        <time>2026-05-07T11:33:25Z</time>
      </trkpt>
      <trkpt lat="44.94579" lon="4.20998">
        <ele>1359.9</ele>
        <time>2026-05-07T11:33:30Z</time>
      </trkpt>
      <trkpt lat="44.94577" lon="4.21003">
        <ele>1360.4</ele>
        <time>2026-05-07T11:33:35Z</time>
      </trkpt>
      <trkpt lat="44.94572" lon="4.21007">
        <ele>1360.9</ele>
        <time>2026-05-07T11:33:40Z</time>
      </trkpt>
      <trkpt lat="44.94568" lon="4.2101">
        <ele>1361.3</ele>
        <time>2026-05-07T11:33:45Z</time>
      </trkpt>
      <trkpt lat="44.94563" lon="4.21013">
        <ele>1361.7</ele>
        <time>2026-05-07T11:33:50Z</time>
      </trkpt>
      <trkpt lat="44.9456" lon="4.21016">
        <ele>1362</ele>
        <time>2026-05-07T11:33:55Z</time>
      </trkpt>
      <trkpt lat="44.94556" lon="4.21019">
        <ele>1362.4</ele>
        <time>2026-05-07T11:34:00Z</time>
      </trkpt>
      <trkpt lat="44.9455" lon="4.21022">
        <ele>1362.9</ele>
        <time>2026-05-07T11:34:05Z</time>
      </trkpt>
      <trkpt lat="44.94544" lon="4.21025">
        <ele>1363.3</ele>
        <time>2026-05-07T11:34:10Z</time>
      </trkpt>
      <trkpt lat="44.94539" lon="4.21028">
        <ele>1363.8</ele>
        <time>2026-05-07T11:34:15Z</time>
      </trkpt>
      <trkpt lat="44.94533" lon="4.21032">
        <ele>1364.4</ele>
        <time>2026-05-07T11:34:20Z</time>
      </trkpt>
      <trkpt lat="44.94526" lon="4.21035">
        <ele>1364.9</ele>
        <time>2026-05-07T11:34:25Z</time>
      </trkpt>
      <trkpt lat="44.94521" lon="4.21038">
        <ele>1365.4</ele>
        <time>2026-05-07T11:34:30Z</time>
      </trkpt>
      <trkpt lat="44.94516" lon="4.21041">
        <ele>1365.9</ele>
        <time>2026-05-07T11:34:35Z</time>
      </trkpt>
      <trkpt lat="44.9451" lon="4.21044">
        <ele>1366.4</ele>
        <time>2026-05-07T11:34:40Z</time>
      </trkpt>
      <trkpt lat="44.94503" lon="4.21048">
        <ele>1367.1</ele>
        <time>2026-05-07T11:34:45Z</time>
      </trkpt>
      <trkpt lat="44.94498" lon="4.21052">
        <ele>1367.8</ele>
        <time>2026-05-07T11:34:50Z</time>
      </trkpt>
      <trkpt lat="44.94492" lon="4.21055">
        <ele>1368.6</ele>
        <time>2026-05-07T11:34:55Z</time>
      </trkpt>
      <trkpt lat="44.9449" lon="4.21054">
        <ele>1368.6</ele>
        <time>2026-05-07T11:35:00Z</time>
      </trkpt>
      <trkpt lat="44.9449" lon="4.21054">
        <ele>1368.6</ele>
        <time>2026-05-07T11:35:05Z</time>
      </trkpt>
      <trkpt lat="44.9449" lon="4.21054">
        <ele>1368.6</ele>
        <time>2026-05-07T11:35:10Z</time>
      </trkpt>
      <trkpt lat="44.9449" lon="4.21054">
        <ele>1368.6</ele>
        <time>2026-05-07T11:35:15Z</time>
      </trkpt>
      <trkpt lat="44.9449" lon="4.21054">
        <ele>1368.6</ele>
        <time>2026-05-07T11:35:20Z</time>
      </trkpt>
      <trkpt lat="44.9449" lon="4.21054">
        <ele>1368.6</ele>
        <time>2026-05-07T11:35:25Z</time>
      </trkpt>
      <trkpt lat="44.9449" lon="4.21054">
        <ele>1368.6</ele>
        <time>2026-05-07T11:35:30Z</time>
      </trkpt>
      <trkpt lat="44.94483" lon="4.21058">
        <ele>1369.6</ele>
        <time>2026-05-07T11:35:35Z</time>
      </trkpt>
      <trkpt lat="44.94477" lon="4.2106">
        <ele>1370.2</ele>
        <time>2026-05-07T11:35:40Z</time>
      </trkpt>
      <trkpt lat="44.94471" lon="4.21062">
        <ele>1370.9</ele>
        <time>2026-05-07T11:35:45Z</time>
      </trkpt>
      <trkpt lat="44.94465" lon="4.21064">
        <ele>1371.5</ele>
        <time>2026-05-07T11:35:50Z</time>
      </trkpt>
      <trkpt lat="44.94458" lon="4.21066">
        <ele>1372.2</ele>
        <time>2026-05-07T11:35:55Z</time>
      </trkpt>
      <trkpt lat="44.94453" lon="4.21068">
        <ele>1372.7</ele>
        <time>2026-05-07T11:36:00Z</time>
      </trkpt>
      <trkpt lat="44.94447" lon="4.2107">
        <ele>1373.2</ele>
        <time>2026-05-07T11:36:05Z</time>
      </trkpt>
      <trkpt lat="44.94445" lon="4.2107">
        <ele>1373.4</ele>
        <time>2026-05-07T11:36:10Z</time>
      </trkpt>
      <trkpt lat="44.94444" lon="4.2107">
        <ele>1373.5</ele>
        <time>2026-05-07T11:36:15Z</time>
      </trkpt>
      <trkpt lat="44.94441" lon="4.21071">
        <ele>1373.7</ele>
        <time>2026-05-07T11:36:20Z</time>
      </trkpt>
      <trkpt lat="44.94435" lon="4.21073">
        <ele>1374.3</ele>
        <time>2026-05-07T11:36:25Z</time>
      </trkpt>
      <trkpt lat="44.9443" lon="4.21074">
        <ele>1374.7</ele>
        <time>2026-05-07T11:36:30Z</time>
      </trkpt>
      <trkpt lat="44.94424" lon="4.21074">
        <ele>1375.1</ele>
        <time>2026-05-07T11:36:35Z</time>
      </trkpt>
      <trkpt lat="44.94419" lon="4.21075">
        <ele>1375.4</ele>
        <time>2026-05-07T11:36:40Z</time>
      </trkpt>
      <trkpt lat="44.94413" lon="4.21075">
        <ele>1375.9</ele>
        <time>2026-05-07T11:36:45Z</time>
      </trkpt>
      <trkpt lat="44.94407" lon="4.21075">
        <ele>1376.3</ele>
        <time>2026-05-07T11:36:50Z</time>
      </trkpt>
      <trkpt lat="44.94403" lon="4.21072">
        <ele>1376.4</ele>
        <time>2026-05-07T11:36:55Z</time>
      </trkpt>
      <trkpt lat="44.94397" lon="4.21066">
        <ele>1376.6</ele>
        <time>2026-05-07T11:37:00Z</time>
      </trkpt>
      <trkpt lat="44.94391" lon="4.21061">
        <ele>1376.8</ele>
        <time>2026-05-07T11:37:05Z</time>
      </trkpt>
      <trkpt lat="44.94385" lon="4.21055">
        <ele>1376.9</ele>
        <time>2026-05-07T11:37:10Z</time>
      </trkpt>
      <trkpt lat="44.94379" lon="4.21049">
        <ele>1377.1</ele>
        <time>2026-05-07T11:37:15Z</time>
      </trkpt>
      <trkpt lat="44.94374" lon="4.21043">
        <ele>1377.1</ele>
        <time>2026-05-07T11:37:20Z</time>
      </trkpt>
      <trkpt lat="44.94369" lon="4.21038">
        <ele>1377.3</ele>
        <time>2026-05-07T11:37:25Z</time>
      </trkpt>
      <trkpt lat="44.94369" lon="4.21036">
        <ele>1377.2</ele>
        <time>2026-05-07T11:37:30Z</time>
      </trkpt>
      <trkpt lat="44.94365" lon="4.21034">
        <ele>1377.4</ele>
        <time>2026-05-07T11:37:35Z</time>
      </trkpt>
      <trkpt lat="44.94359" lon="4.21028">
        <ele>1377.5</ele>
        <time>2026-05-07T11:37:40Z</time>
      </trkpt>
      <trkpt lat="44.94352" lon="4.21022">
        <ele>1377.7</ele>
        <time>2026-05-07T11:37:45Z</time>
      </trkpt>
      <trkpt lat="44.94346" lon="4.21016">
        <ele>1377.9</ele>
        <time>2026-05-07T11:37:50Z</time>
      </trkpt>
      <trkpt lat="44.9434" lon="4.21009">
        <ele>1378</ele>
        <time>2026-05-07T11:37:55Z</time>
      </trkpt>
      <trkpt lat="44.94334" lon="4.21003">
        <ele>1378.1</ele>
        <time>2026-05-07T11:38:00Z</time>
      </trkpt>
      <trkpt lat="44.94328" lon="4.20997">
        <ele>1377.5</ele>
        <time>2026-05-07T11:38:05Z</time>
      </trkpt>
      <trkpt lat="44.94323" lon="4.20991">
        <ele>1376.9</ele>
        <time>2026-05-07T11:38:10Z</time>
      </trkpt>
      <trkpt lat="44.94317" lon="4.20985">
        <ele>1376.2</ele>
        <time>2026-05-07T11:38:15Z</time>
      </trkpt>
      <trkpt lat="44.94311" lon="4.20977">
        <ele>1375.5</ele>
        <time>2026-05-07T11:38:20Z</time>
      </trkpt>
      <trkpt lat="44.94305" lon="4.2097">
        <ele>1374.8</ele>
        <time>2026-05-07T11:38:25Z</time>
      </trkpt>
      <trkpt lat="44.943" lon="4.20963">
        <ele>1374.3</ele>
        <time>2026-05-07T11:38:30Z</time>
      </trkpt>
      <trkpt lat="44.94293" lon="4.20957">
        <ele>1373.7</ele>
        <time>2026-05-07T11:38:35Z</time>
      </trkpt>
      <trkpt lat="44.94288" lon="4.20948">
        <ele>1373.1</ele>
        <time>2026-05-07T11:38:40Z</time>
      </trkpt>
      <trkpt lat="44.94283" lon="4.2094">
        <ele>1372.6</ele>
        <time>2026-05-07T11:38:45Z</time>
      </trkpt>
      <trkpt lat="44.94277" lon="4.20933">
        <ele>1372.1</ele>
        <time>2026-05-07T11:38:50Z</time>
      </trkpt>
      <trkpt lat="44.94272" lon="4.20925">
        <ele>1371.6</ele>
        <time>2026-05-07T11:38:55Z</time>
      </trkpt>
      <trkpt lat="44.94266" lon="4.20917">
        <ele>1371.2</ele>
        <time>2026-05-07T11:39:00Z</time>
      </trkpt>
      <trkpt lat="44.94262" lon="4.20913">
        <ele>1371</ele>
        <time>2026-05-07T11:39:05Z</time>
      </trkpt>
      <trkpt lat="44.9426" lon="4.20912">
        <ele>1371</ele>
        <time>2026-05-07T11:39:10Z</time>
      </trkpt>
      <trkpt lat="44.9426" lon="4.20912">
        <ele>1371</ele>
        <time>2026-05-07T11:39:15Z</time>
      </trkpt>
      <trkpt lat="44.9426" lon="4.20912">
        <ele>1371</ele>
        <time>2026-05-07T11:39:20Z</time>
      </trkpt>
      <trkpt lat="44.9426" lon="4.20912">
        <ele>1371</ele>
        <time>2026-05-07T11:39:25Z</time>
      </trkpt>
      <trkpt lat="44.9426" lon="4.20912">
        <ele>1371</ele>
        <time>2026-05-07T11:39:30Z</time>
      </trkpt>
      <trkpt lat="44.9426" lon="4.20912">
        <ele>1371</ele>
        <time>2026-05-07T11:39:35Z</time>
      </trkpt>
      <trkpt lat="44.9426" lon="4.20912">
        <ele>1371</ele>
        <time>2026-05-07T11:39:40Z</time>
      </trkpt>
      <trkpt lat="44.94256" lon="4.20903">
        <ele>1370.7</ele>
        <time>2026-05-07T11:39:45Z</time>
      </trkpt>
      <trkpt lat="44.94251" lon="4.20896">
        <ele>1370.5</ele>
        <time>2026-05-07T11:39:50Z</time>
      </trkpt>
      <trkpt lat="44.94246" lon="4.2089">
        <ele>1369.7</ele>
        <time>2026-05-07T11:39:55Z</time>
      </trkpt>
      <trkpt lat="44.9424" lon="4.20882">
        <ele>1368.4</ele>
        <time>2026-05-07T11:40:00Z</time>
      </trkpt>
      <trkpt lat="44.94235" lon="4.20873">
        <ele>1367.3</ele>
        <time>2026-05-07T11:40:05Z</time>
      </trkpt>
      <trkpt lat="44.9423" lon="4.20866">
        <ele>1366.3</ele>
        <time>2026-05-07T11:40:10Z</time>
      </trkpt>
      <trkpt lat="44.94224" lon="4.20859">
        <ele>1365.2</ele>
        <time>2026-05-07T11:40:15Z</time>
      </trkpt>
      <trkpt lat="44.94218" lon="4.20852">
        <ele>1364</ele>
        <time>2026-05-07T11:40:20Z</time>
      </trkpt>
      <trkpt lat="44.94215" lon="4.20846">
        <ele>1363.4</ele>
        <time>2026-05-07T11:40:25Z</time>
      </trkpt>
      <trkpt lat="44.94215" lon="4.20844">
        <ele>1363.3</ele>
        <time>2026-05-07T11:40:30Z</time>
      </trkpt>
      <trkpt lat="44.94215" lon="4.20844">
        <ele>1363.3</ele>
        <time>2026-05-07T11:40:35Z</time>
      </trkpt>
      <trkpt lat="44.94215" lon="4.20842">
        <ele>1363.3</ele>
        <time>2026-05-07T11:40:40Z</time>
      </trkpt>
      <trkpt lat="44.9421" lon="4.20836">
        <ele>1362.3</ele>
        <time>2026-05-07T11:40:45Z</time>
      </trkpt>
      <trkpt lat="44.94204" lon="4.20829">
        <ele>1361.2</ele>
        <time>2026-05-07T11:40:50Z</time>
      </trkpt>
      <trkpt lat="44.94198" lon="4.20821">
        <ele>1360.1</ele>
        <time>2026-05-07T11:40:55Z</time>
      </trkpt>
      <trkpt lat="44.94193" lon="4.20814">
        <ele>1359.2</ele>
        <time>2026-05-07T11:41:00Z</time>
      </trkpt>
      <trkpt lat="44.94186" lon="4.20807">
        <ele>1358.1</ele>
        <time>2026-05-07T11:41:05Z</time>
      </trkpt>
      <trkpt lat="44.94181" lon="4.20802">
        <ele>1357.4</ele>
        <time>2026-05-07T11:41:10Z</time>
      </trkpt>
      <trkpt lat="44.94175" lon="4.20796">
        <ele>1356.6</ele>
        <time>2026-05-07T11:41:15Z</time>
      </trkpt>
      <trkpt lat="44.94169" lon="4.2079">
        <ele>1355.8</ele>
        <time>2026-05-07T11:41:20Z</time>
      </trkpt>
      <trkpt lat="44.94164" lon="4.20787">
        <ele>1355</ele>
        <time>2026-05-07T11:41:25Z</time>
      </trkpt>
      <trkpt lat="44.94163" lon="4.20788">
        <ele>1354.7</ele>
        <time>2026-05-07T11:41:30Z</time>
      </trkpt>
      <trkpt lat="44.94161" lon="4.20785">
        <ele>1354.3</ele>
        <time>2026-05-07T11:41:35Z</time>
      </trkpt>
      <trkpt lat="44.94156" lon="4.20778">
        <ele>1353.3</ele>
        <time>2026-05-07T11:41:40Z</time>
      </trkpt>
      <trkpt lat="44.94149" lon="4.20771">
        <ele>1351.9</ele>
        <time>2026-05-07T11:41:45Z</time>
      </trkpt>
      <trkpt lat="44.94143" lon="4.20765">
        <ele>1350.7</ele>
        <time>2026-05-07T11:41:50Z</time>
      </trkpt>
      <trkpt lat="44.94138" lon="4.2076">
        <ele>1349.6</ele>
        <time>2026-05-07T11:41:55Z</time>
      </trkpt>
      <trkpt lat="44.94132" lon="4.20753">
        <ele>1348.5</ele>
        <time>2026-05-07T11:42:00Z</time>
      </trkpt>
      <trkpt lat="44.94126" lon="4.20745">
        <ele>1347.2</ele>
        <time>2026-05-07T11:42:05Z</time>
      </trkpt>
      <trkpt lat="44.9412" lon="4.20739">
        <ele>1345.9</ele>
        <time>2026-05-07T11:42:10Z</time>
      </trkpt>
      <trkpt lat="44.94114" lon="4.2073">
        <ele>1344.6</ele>
        <time>2026-05-07T11:42:15Z</time>
      </trkpt>
      <trkpt lat="44.94109" lon="4.20722">
        <ele>1343.6</ele>
        <time>2026-05-07T11:42:20Z</time>
      </trkpt>
      <trkpt lat="44.94105" lon="4.20713">
        <ele>1342.8</ele>
        <time>2026-05-07T11:42:25Z</time>
      </trkpt>
      <trkpt lat="44.94101" lon="4.20704">
        <ele>1342</ele>
        <time>2026-05-07T11:42:30Z</time>
      </trkpt>
      <trkpt lat="44.94099" lon="4.20696">
        <ele>1341.7</ele>
        <time>2026-05-07T11:42:35Z</time>
      </trkpt>
      <trkpt lat="44.94098" lon="4.20687">
        <ele>1341.5</ele>
        <time>2026-05-07T11:42:40Z</time>
      </trkpt>
      <trkpt lat="44.94095" lon="4.20676">
        <ele>1341</ele>
        <time>2026-05-07T11:42:45Z</time>
      </trkpt>
      <trkpt lat="44.94093" lon="4.20667">
        <ele>1340.7</ele>
        <time>2026-05-07T11:42:50Z</time>
      </trkpt>
      <trkpt lat="44.94092" lon="4.20664">
        <ele>1340.5</ele>
        <time>2026-05-07T11:42:55Z</time>
      </trkpt>
      <trkpt lat="44.94091" lon="4.20662">
        <ele>1340.2</ele>
        <time>2026-05-07T11:43:00Z</time>
      </trkpt>
      <trkpt lat="44.94089" lon="4.20653">
        <ele>1339.5</ele>
        <time>2026-05-07T11:43:05Z</time>
      </trkpt>
      <trkpt lat="44.94086" lon="4.20644">
        <ele>1338.7</ele>
        <time>2026-05-07T11:43:10Z</time>
      </trkpt>
      <trkpt lat="44.94083" lon="4.20634">
        <ele>1337.8</ele>
        <time>2026-05-07T11:43:15Z</time>
      </trkpt>
      <trkpt lat="44.9408" lon="4.20625">
        <ele>1337</ele>
        <time>2026-05-07T11:43:20Z</time>
      </trkpt>
      <trkpt lat="44.94078" lon="4.20615">
        <ele>1336.3</ele>
        <time>2026-05-07T11:43:25Z</time>
      </trkpt>
      <trkpt lat="44.94075" lon="4.20607">
        <ele>1335.6</ele>
        <time>2026-05-07T11:43:30Z</time>
      </trkpt>
      <trkpt lat="44.94072" lon="4.20599">
        <ele>1334.9</ele>
        <time>2026-05-07T11:43:35Z</time>
      </trkpt>
      <trkpt lat="44.94072" lon="4.20596">
        <ele>1334.8</ele>
        <time>2026-05-07T11:43:40Z</time>
      </trkpt>
      <trkpt lat="44.94072" lon="4.20596">
        <ele>1334.8</ele>
        <time>2026-05-07T11:43:45Z</time>
      </trkpt>
      <trkpt lat="44.94072" lon="4.20596">
        <ele>1334.8</ele>
        <time>2026-05-07T11:43:50Z</time>
      </trkpt>
      <trkpt lat="44.9407" lon="4.20593">
        <ele>1334.4</ele>
        <time>2026-05-07T11:43:55Z</time>
      </trkpt>
      <trkpt lat="44.94066" lon="4.20584">
        <ele>1333.5</ele>
        <time>2026-05-07T11:44:00Z</time>
      </trkpt>
      <trkpt lat="44.94063" lon="4.20575">
        <ele>1332.8</ele>
        <time>2026-05-07T11:44:05Z</time>
      </trkpt>
      <trkpt lat="44.9406" lon="4.20566">
        <ele>1332</ele>
        <time>2026-05-07T11:44:10Z</time>
      </trkpt>
      <trkpt lat="44.94057" lon="4.20557">
        <ele>1331.3</ele>
        <time>2026-05-07T11:44:15Z</time>
      </trkpt>
      <trkpt lat="44.94053" lon="4.20548">
        <ele>1330.6</ele>
        <time>2026-05-07T11:44:20Z</time>
      </trkpt>
      <trkpt lat="44.94052" lon="4.20544">
        <ele>1330.3</ele>
        <time>2026-05-07T11:44:25Z</time>
      </trkpt>
      <trkpt lat="44.94049" lon="4.20538">
        <ele>1329.8</ele>
        <time>2026-05-07T11:44:30Z</time>
      </trkpt>
      <trkpt lat="44.94049" lon="4.20538">
        <ele>1329.8</ele>
        <time>2026-05-07T11:44:35Z</time>
      </trkpt>
      <trkpt lat="44.94048" lon="4.20537">
        <ele>1329.6</ele>
        <time>2026-05-07T11:44:40Z</time>
      </trkpt>
      <trkpt lat="44.94047" lon="4.20532">
        <ele>1329.4</ele>
        <time>2026-05-07T11:44:45Z</time>
      </trkpt>
      <trkpt lat="44.94044" lon="4.20524">
        <ele>1328.8</ele>
        <time>2026-05-07T11:44:50Z</time>
      </trkpt>
      <trkpt lat="44.94041" lon="4.20516">
        <ele>1328.3</ele>
        <time>2026-05-07T11:44:55Z</time>
      </trkpt>
      <trkpt lat="44.94037" lon="4.20506">
        <ele>1327.7</ele>
        <time>2026-05-07T11:45:00Z</time>
      </trkpt>
      <trkpt lat="44.94033" lon="4.20499">
        <ele>1327.2</ele>
        <time>2026-05-07T11:45:05Z</time>
      </trkpt>
      <trkpt lat="44.9403" lon="4.20491">
        <ele>1326.9</ele>
        <time>2026-05-07T11:45:10Z</time>
      </trkpt>
      <trkpt lat="44.94026" lon="4.20482">
        <ele>1326.5</ele>
        <time>2026-05-07T11:45:15Z</time>
      </trkpt>
      <trkpt lat="44.94022" lon="4.20475">
        <ele>1326.2</ele>
        <time>2026-05-07T11:45:20Z</time>
      </trkpt>
      <trkpt lat="44.94019" lon="4.20468">
        <ele>1325.9</ele>
        <time>2026-05-07T11:45:25Z</time>
      </trkpt>
      <trkpt lat="44.94014" lon="4.2046">
        <ele>1325.6</ele>
        <time>2026-05-07T11:45:30Z</time>
      </trkpt>
      <trkpt lat="44.9401" lon="4.20454">
        <ele>1325.3</ele>
        <time>2026-05-07T11:45:35Z</time>
      </trkpt>
      <trkpt lat="44.94005" lon="4.20449">
        <ele>1325</ele>
        <time>2026-05-07T11:45:40Z</time>
      </trkpt>
      <trkpt lat="44.94" lon="4.20446">
        <ele>1324.6</ele>
        <time>2026-05-07T11:45:45Z</time>
      </trkpt>
      <trkpt lat="44.93993" lon="4.20442">
        <ele>1324.6</ele>
        <time>2026-05-07T11:45:50Z</time>
      </trkpt>
      <trkpt lat="44.93987" lon="4.20439">
        <ele>1324.6</ele>
        <time>2026-05-07T11:45:55Z</time>
      </trkpt>
      <trkpt lat="44.93979" lon="4.20436">
        <ele>1324.6</ele>
        <time>2026-05-07T11:46:00Z</time>
      </trkpt>
      <trkpt lat="44.93971" lon="4.20434">
        <ele>1324.6</ele>
        <time>2026-05-07T11:46:05Z</time>
      </trkpt>
      <trkpt lat="44.93964" lon="4.2043">
        <ele>1324.6</ele>
        <time>2026-05-07T11:46:10Z</time>
      </trkpt>
      <trkpt lat="44.93955" lon="4.20426">
        <ele>1324.7</ele>
        <time>2026-05-07T11:46:15Z</time>
      </trkpt>
      <trkpt lat="44.93948" lon="4.20424">
        <ele>1324.7</ele>
        <time>2026-05-07T11:46:20Z</time>
      </trkpt>
      <trkpt lat="44.93941" lon="4.2042">
        <ele>1324.9</ele>
        <time>2026-05-07T11:46:25Z</time>
      </trkpt>
      <trkpt lat="44.93934" lon="4.20417">
        <ele>1325</ele>
        <time>2026-05-07T11:46:30Z</time>
      </trkpt>
      <trkpt lat="44.93927" lon="4.20414">
        <ele>1325</ele>
        <time>2026-05-07T11:46:35Z</time>
      </trkpt>
      <trkpt lat="44.93921" lon="4.20411">
        <ele>1325</ele>
        <time>2026-05-07T11:46:40Z</time>
      </trkpt>
      <trkpt lat="44.93918" lon="4.20404">
        <ele>1325</ele>
        <time>2026-05-07T11:46:45Z</time>
      </trkpt>
      <trkpt lat="44.93916" lon="4.20402">
        <ele>1325.1</ele>
        <time>2026-05-07T11:46:50Z</time>
      </trkpt>
      <trkpt lat="44.93913" lon="4.20405">
        <ele>1325.4</ele>
        <time>2026-05-07T11:46:55Z</time>
      </trkpt>
      <trkpt lat="44.93913" lon="4.20408">
        <ele>1325.4</ele>
        <time>2026-05-07T11:47:00Z</time>
      </trkpt>
      <trkpt lat="44.93912" lon="4.20409">
        <ele>1325.5</ele>
        <time>2026-05-07T11:47:05Z</time>
      </trkpt>
      <trkpt lat="44.93912" lon="4.20409">
        <ele>1325.5</ele>
        <time>2026-05-07T11:47:10Z</time>
      </trkpt>
      <trkpt lat="44.93907" lon="4.20406">
        <ele>1326</ele>
        <time>2026-05-07T11:47:15Z</time>
      </trkpt>
      <trkpt lat="44.93901" lon="4.20404">
        <ele>1326.6</ele>
        <time>2026-05-07T11:47:20Z</time>
      </trkpt>
      <trkpt lat="44.93895" lon="4.20402">
        <ele>1327.2</ele>
        <time>2026-05-07T11:47:25Z</time>
      </trkpt>
      <trkpt lat="44.93888" lon="4.204">
        <ele>1328</ele>
        <time>2026-05-07T11:47:30Z</time>
      </trkpt>
      <trkpt lat="44.93882" lon="4.20398">
        <ele>1328.6</ele>
        <time>2026-05-07T11:47:35Z</time>
      </trkpt>
      <trkpt lat="44.93875" lon="4.20397">
        <ele>1329.4</ele>
        <time>2026-05-07T11:47:40Z</time>
      </trkpt>
      <trkpt lat="44.93869" lon="4.20397">
        <ele>1330</ele>
        <time>2026-05-07T11:47:45Z</time>
      </trkpt>
      <trkpt lat="44.93862" lon="4.20398">
        <ele>1330.7</ele>
        <time>2026-05-07T11:47:50Z</time>
      </trkpt>
      <trkpt lat="44.93856" lon="4.204">
        <ele>1331.3</ele>
        <time>2026-05-07T11:47:55Z</time>
      </trkpt>
      <trkpt lat="44.9385" lon="4.20402">
        <ele>1331.8</ele>
        <time>2026-05-07T11:48:00Z</time>
      </trkpt>
      <trkpt lat="44.93842" lon="4.20403">
        <ele>1332.6</ele>
        <time>2026-05-07T11:48:05Z</time>
      </trkpt>
      <trkpt lat="44.93836" lon="4.20403">
        <ele>1333.2</ele>
        <time>2026-05-07T11:48:10Z</time>
      </trkpt>
      <trkpt lat="44.9383" lon="4.20407">
        <ele>1333.8</ele>
        <time>2026-05-07T11:48:15Z</time>
      </trkpt>
      <trkpt lat="44.93824" lon="4.20408">
        <ele>1334.6</ele>
        <time>2026-05-07T11:48:20Z</time>
      </trkpt>
      <trkpt lat="44.93818" lon="4.20407">
        <ele>1335.5</ele>
        <time>2026-05-07T11:48:25Z</time>
      </trkpt>
      <trkpt lat="44.93816" lon="4.20409">
        <ele>1335.8</ele>
        <time>2026-05-07T11:48:30Z</time>
      </trkpt>
      <trkpt lat="44.93809" lon="4.20411">
        <ele>1336.7</ele>
        <time>2026-05-07T11:48:35Z</time>
      </trkpt>
      <trkpt lat="44.93802" lon="4.20412">
        <ele>1337.7</ele>
        <time>2026-05-07T11:48:40Z</time>
      </trkpt>
      <trkpt lat="44.93796" lon="4.20412">
        <ele>1338.5</ele>
        <time>2026-05-07T11:48:45Z</time>
      </trkpt>
      <trkpt lat="44.9379" lon="4.20413">
        <ele>1339.3</ele>
        <time>2026-05-07T11:48:50Z</time>
      </trkpt>
      <trkpt lat="44.93784" lon="4.20414">
        <ele>1340.2</ele>
        <time>2026-05-07T11:48:55Z</time>
      </trkpt>
      <trkpt lat="44.93778" lon="4.20414">
        <ele>1341</ele>
        <time>2026-05-07T11:49:00Z</time>
      </trkpt>
      <trkpt lat="44.93771" lon="4.20415">
        <ele>1342</ele>
        <time>2026-05-07T11:49:05Z</time>
      </trkpt>
      <trkpt lat="44.93765" lon="4.20415">
        <ele>1342.9</ele>
        <time>2026-05-07T11:49:10Z</time>
      </trkpt>
      <trkpt lat="44.93759" lon="4.20415">
        <ele>1343.7</ele>
        <time>2026-05-07T11:49:15Z</time>
      </trkpt>
      <trkpt lat="44.93754" lon="4.20415">
        <ele>1344.5</ele>
        <time>2026-05-07T11:49:20Z</time>
      </trkpt>
      <trkpt lat="44.93749" lon="4.20416">
        <ele>1345.1</ele>
        <time>2026-05-07T11:49:25Z</time>
      </trkpt>
      <trkpt lat="44.93744" lon="4.20417">
        <ele>1345.6</ele>
        <time>2026-05-07T11:49:30Z</time>
      </trkpt>
      <trkpt lat="44.9374" lon="4.20417">
        <ele>1346</ele>
        <time>2026-05-07T11:49:35Z</time>
      </trkpt>
      <trkpt lat="44.93735" lon="4.20417">
        <ele>1346.6</ele>
        <time>2026-05-07T11:49:40Z</time>
      </trkpt>
      <trkpt lat="44.93731" lon="4.20416">
        <ele>1347.1</ele>
        <time>2026-05-07T11:49:45Z</time>
      </trkpt>
      <trkpt lat="44.93727" lon="4.20415">
        <ele>1347.5</ele>
        <time>2026-05-07T11:49:50Z</time>
      </trkpt>
      <trkpt lat="44.93723" lon="4.20414">
        <ele>1348</ele>
        <time>2026-05-07T11:49:55Z</time>
      </trkpt>
      <trkpt lat="44.93718" lon="4.20411">
        <ele>1348.6</ele>
        <time>2026-05-07T11:50:00Z</time>
      </trkpt>
      <trkpt lat="44.93713" lon="4.20409">
        <ele>1349.2</ele>
        <time>2026-05-07T11:50:05Z</time>
      </trkpt>
      <trkpt lat="44.93709" lon="4.20406">
        <ele>1349.7</ele>
        <time>2026-05-07T11:50:10Z</time>
      </trkpt>
      <trkpt lat="44.93705" lon="4.20402">
        <ele>1350.3</ele>
        <time>2026-05-07T11:50:15Z</time>
      </trkpt>
      <trkpt lat="44.93702" lon="4.20398">
        <ele>1350.8</ele>
        <time>2026-05-07T11:50:20Z</time>
      </trkpt>
      <trkpt lat="44.93698" lon="4.20395">
        <ele>1351.3</ele>
        <time>2026-05-07T11:50:25Z</time>
      </trkpt>
      <trkpt lat="44.93698" lon="4.20394">
        <ele>1351.3</ele>
        <time>2026-05-07T11:50:30Z</time>
      </trkpt>
      <trkpt lat="44.93698" lon="4.20394">
        <ele>1351.3</ele>
        <time>2026-05-07T11:50:35Z</time>
      </trkpt>
      <trkpt lat="44.93698" lon="4.20394">
        <ele>1351.3</ele>
        <time>2026-05-07T11:50:40Z</time>
      </trkpt>
      <trkpt lat="44.93694" lon="4.20389">
        <ele>1351.9</ele>
        <time>2026-05-07T11:50:45Z</time>
      </trkpt>
      <trkpt lat="44.9369" lon="4.20384">
        <ele>1352.5</ele>
        <time>2026-05-07T11:50:50Z</time>
      </trkpt>
      <trkpt lat="44.93688" lon="4.20377">
        <ele>1353</ele>
        <time>2026-05-07T11:50:55Z</time>
      </trkpt>
      <trkpt lat="44.93685" lon="4.20371">
        <ele>1353.5</ele>
        <time>2026-05-07T11:51:00Z</time>
      </trkpt>
      <trkpt lat="44.93683" lon="4.20364">
        <ele>1354</ele>
        <time>2026-05-07T11:51:05Z</time>
      </trkpt>
      <trkpt lat="44.93682" lon="4.20356">
        <ele>1354.4</ele>
        <time>2026-05-07T11:51:10Z</time>
      </trkpt>
      <trkpt lat="44.93681" lon="4.20348">
        <ele>1354.8</ele>
        <time>2026-05-07T11:51:15Z</time>
      </trkpt>
      <trkpt lat="44.9368" lon="4.2034">
        <ele>1355.2</ele>
        <time>2026-05-07T11:51:20Z</time>
      </trkpt>
      <trkpt lat="44.9368" lon="4.20331">
        <ele>1355.4</ele>
        <time>2026-05-07T11:51:25Z</time>
      </trkpt>
      <trkpt lat="44.93679" lon="4.20323">
        <ele>1355.6</ele>
        <time>2026-05-07T11:51:30Z</time>
      </trkpt>
      <trkpt lat="44.93679" lon="4.20315">
        <ele>1355.6</ele>
        <time>2026-05-07T11:51:35Z</time>
      </trkpt>
      <trkpt lat="44.93678" lon="4.20306">
        <ele>1355.7</ele>
        <time>2026-05-07T11:51:40Z</time>
      </trkpt>
      <trkpt lat="44.93677" lon="4.20297">
        <ele>1355.9</ele>
        <time>2026-05-07T11:51:45Z</time>
      </trkpt>
      <trkpt lat="44.93676" lon="4.20289">
        <ele>1356</ele>
        <time>2026-05-07T11:51:50Z</time>
      </trkpt>
      <trkpt lat="44.93675" lon="4.20279">
        <ele>1356.1</ele>
        <time>2026-05-07T11:51:55Z</time>
      </trkpt>
      <trkpt lat="44.93674" lon="4.2027">
        <ele>1356.3</ele>
        <time>2026-05-07T11:52:00Z</time>
      </trkpt>
      <trkpt lat="44.93672" lon="4.20261">
        <ele>1356.5</ele>
        <time>2026-05-07T11:52:05Z</time>
      </trkpt>
      <trkpt lat="44.93671" lon="4.20252">
        <ele>1356.6</ele>
        <time>2026-05-07T11:52:10Z</time>
      </trkpt>
      <trkpt lat="44.93669" lon="4.20242">
        <ele>1356.7</ele>
        <time>2026-05-07T11:52:15Z</time>
      </trkpt>
      <trkpt lat="44.93667" lon="4.20233">
        <ele>1356.8</ele>
        <time>2026-05-07T11:52:20Z</time>
      </trkpt>
      <trkpt lat="44.93666" lon="4.20223">
        <ele>1356.8</ele>
        <time>2026-05-07T11:52:25Z</time>
      </trkpt>
      <trkpt lat="44.93664" lon="4.20213">
        <ele>1356.9</ele>
        <time>2026-05-07T11:52:30Z</time>
      </trkpt>
      <trkpt lat="44.93662" lon="4.20205">
        <ele>1357.1</ele>
        <time>2026-05-07T11:52:35Z</time>
      </trkpt>
      <trkpt lat="44.93659" lon="4.20195">
        <ele>1357.3</ele>
        <time>2026-05-07T11:52:40Z</time>
      </trkpt>
      <trkpt lat="44.93656" lon="4.20186">
        <ele>1357.6</ele>
        <time>2026-05-07T11:52:45Z</time>
      </trkpt>
      <trkpt lat="44.93653" lon="4.20176">
        <ele>1357.9</ele>
        <time>2026-05-07T11:52:50Z</time>
      </trkpt>
      <trkpt lat="44.9365" lon="4.20167">
        <ele>1358.2</ele>
        <time>2026-05-07T11:52:55Z</time>
      </trkpt>
      <trkpt lat="44.93646" lon="4.20158">
        <ele>1358.4</ele>
        <time>2026-05-07T11:53:00Z</time>
      </trkpt>
      <trkpt lat="44.93643" lon="4.20149">
        <ele>1358.5</ele>
        <time>2026-05-07T11:53:05Z</time>
      </trkpt>
      <trkpt lat="44.9364" lon="4.2014">
        <ele>1358.6</ele>
        <time>2026-05-07T11:53:10Z</time>
      </trkpt>
      <trkpt lat="44.93638" lon="4.20129">
        <ele>1358.4</ele>
        <time>2026-05-07T11:53:15Z</time>
      </trkpt>
      <trkpt lat="44.93635" lon="4.20119">
        <ele>1358.5</ele>
        <time>2026-05-07T11:53:20Z</time>
      </trkpt>
      <trkpt lat="44.93632" lon="4.20109">
        <ele>1358.5</ele>
        <time>2026-05-07T11:53:25Z</time>
      </trkpt>
      <trkpt lat="44.93629" lon="4.20099">
        <ele>1358.5</ele>
        <time>2026-05-07T11:53:30Z</time>
      </trkpt>
      <trkpt lat="44.93627" lon="4.2009">
        <ele>1358.5</ele>
        <time>2026-05-07T11:53:35Z</time>
      </trkpt>
      <trkpt lat="44.93626" lon="4.2008">
        <ele>1358.2</ele>
        <time>2026-05-07T11:53:40Z</time>
      </trkpt>
      <trkpt lat="44.93624" lon="4.20069">
        <ele>1358</ele>
        <time>2026-05-07T11:53:45Z</time>
      </trkpt>
      <trkpt lat="44.93622" lon="4.20059">
        <ele>1357.9</ele>
        <time>2026-05-07T11:53:50Z</time>
      </trkpt>
      <trkpt lat="44.93621" lon="4.20049">
        <ele>1357.6</ele>
        <time>2026-05-07T11:53:55Z</time>
      </trkpt>
      <trkpt lat="44.93619" lon="4.20039">
        <ele>1357.4</ele>
        <time>2026-05-07T11:54:00Z</time>
      </trkpt>
      <trkpt lat="44.93617" lon="4.20028">
        <ele>1357.2</ele>
        <time>2026-05-07T11:54:05Z</time>
      </trkpt>
      <trkpt lat="44.93615" lon="4.20019">
        <ele>1357</ele>
        <time>2026-05-07T11:54:10Z</time>
      </trkpt>
      <trkpt lat="44.93615" lon="4.2001">
        <ele>1356.6</ele>
        <time>2026-05-07T11:54:15Z</time>
      </trkpt>
      <trkpt lat="44.93615" lon="4.20002">
        <ele>1356.3</ele>
        <time>2026-05-07T11:54:20Z</time>
      </trkpt>
      <trkpt lat="44.93614" lon="4.19995">
        <ele>1356.3</ele>
        <time>2026-05-07T11:54:25Z</time>
      </trkpt>
      <trkpt lat="44.93614" lon="4.19988">
        <ele>1356.4</ele>
        <time>2026-05-07T11:54:30Z</time>
      </trkpt>
      <trkpt lat="44.93615" lon="4.19981">
        <ele>1356.3</ele>
        <time>2026-05-07T11:54:35Z</time>
      </trkpt>
      <trkpt lat="44.93615" lon="4.19973">
        <ele>1356.4</ele>
        <time>2026-05-07T11:54:40Z</time>
      </trkpt>
      <trkpt lat="44.93615" lon="4.19966">
        <ele>1356.4</ele>
        <time>2026-05-07T11:54:45Z</time>
      </trkpt>
      <trkpt lat="44.93616" lon="4.19958">
        <ele>1356.4</ele>
        <time>2026-05-07T11:54:50Z</time>
      </trkpt>
      <trkpt lat="44.93617" lon="4.19949">
        <ele>1356.3</ele>
        <time>2026-05-07T11:54:55Z</time>
      </trkpt>
      <trkpt lat="44.93617" lon="4.1994">
        <ele>1356.4</ele>
        <time>2026-05-07T11:55:00Z</time>
      </trkpt>
      <trkpt lat="44.93616" lon="4.19932">
        <ele>1356.5</ele>
        <time>2026-05-07T11:55:05Z</time>
      </trkpt>
      <trkpt lat="44.93616" lon="4.19923">
        <ele>1356.6</ele>
        <time>2026-05-07T11:55:10Z</time>
      </trkpt>
      <trkpt lat="44.93617" lon="4.19915">
        <ele>1356.6</ele>
        <time>2026-05-07T11:55:15Z</time>
      </trkpt>
      <trkpt lat="44.93616" lon="4.19907">
        <ele>1357</ele>
        <time>2026-05-07T11:55:20Z</time>
      </trkpt>
      <trkpt lat="44.93614" lon="4.19898">
        <ele>1357.5</ele>
        <time>2026-05-07T11:55:25Z</time>
      </trkpt>
      <trkpt lat="44.93614" lon="4.1989">
        <ele>1357.8</ele>
        <time>2026-05-07T11:55:30Z</time>
      </trkpt>
      <trkpt lat="44.93614" lon="4.19882">
        <ele>1358.1</ele>
        <time>2026-05-07T11:55:35Z</time>
      </trkpt>
      <trkpt lat="44.93615" lon="4.19874">
        <ele>1358.3</ele>
        <time>2026-05-07T11:55:40Z</time>
      </trkpt>
      <trkpt lat="44.93615" lon="4.19865">
        <ele>1358.7</ele>
        <time>2026-05-07T11:55:45Z</time>
      </trkpt>
      <trkpt lat="44.93615" lon="4.19857">
        <ele>1359</ele>
        <time>2026-05-07T11:55:50Z</time>
      </trkpt>
      <trkpt lat="44.93615" lon="4.19849">
        <ele>1359.3</ele>
        <time>2026-05-07T11:55:55Z</time>
      </trkpt>
      <trkpt lat="44.93615" lon="4.19841">
        <ele>1359.6</ele>
        <time>2026-05-07T11:56:00Z</time>
      </trkpt>
      <trkpt lat="44.93615" lon="4.19833">
        <ele>1359.9</ele>
        <time>2026-05-07T11:56:05Z</time>
      </trkpt>
      <trkpt lat="44.93615" lon="4.19825">
        <ele>1360.3</ele>
        <time>2026-05-07T11:56:10Z</time>
      </trkpt>
      <trkpt lat="44.93615" lon="4.19816">
        <ele>1360.8</ele>
        <time>2026-05-07T11:56:15Z</time>
      </trkpt>
      <trkpt lat="44.93613" lon="4.19807">
        <ele>1361.4</ele>
        <time>2026-05-07T11:56:20Z</time>
      </trkpt>
      <trkpt lat="44.93612" lon="4.19798">
        <ele>1361.9</ele>
        <time>2026-05-07T11:56:25Z</time>
      </trkpt>
      <trkpt lat="44.9361" lon="4.1979">
        <ele>1362.5</ele>
        <time>2026-05-07T11:56:30Z</time>
      </trkpt>
      <trkpt lat="44.93608" lon="4.19781">
        <ele>1363.1</ele>
        <time>2026-05-07T11:56:35Z</time>
      </trkpt>
      <trkpt lat="44.93606" lon="4.19773">
        <ele>1363.6</ele>
        <time>2026-05-07T11:56:40Z</time>
      </trkpt>
      <trkpt lat="44.93604" lon="4.19764">
        <ele>1364.2</ele>
        <time>2026-05-07T11:56:45Z</time>
      </trkpt>
      <trkpt lat="44.93602" lon="4.19757">
        <ele>1364.7</ele>
        <time>2026-05-07T11:56:50Z</time>
      </trkpt>
      <trkpt lat="44.93599" lon="4.1975">
        <ele>1365.2</ele>
        <time>2026-05-07T11:56:55Z</time>
      </trkpt>
      <trkpt lat="44.93597" lon="4.19743">
        <ele>1365.9</ele>
        <time>2026-05-07T11:57:00Z</time>
      </trkpt>
      <trkpt lat="44.93594" lon="4.19737">
        <ele>1366.5</ele>
        <time>2026-05-07T11:57:05Z</time>
      </trkpt>
      <trkpt lat="44.93592" lon="4.19731">
        <ele>1367</ele>
        <time>2026-05-07T11:57:10Z</time>
      </trkpt>
      <trkpt lat="44.93589" lon="4.19725">
        <ele>1367.6</ele>
        <time>2026-05-07T11:57:15Z</time>
      </trkpt>
      <trkpt lat="44.93586" lon="4.19719">
        <ele>1368.1</ele>
        <time>2026-05-07T11:57:20Z</time>
      </trkpt>
      <trkpt lat="44.93583" lon="4.19714">
        <ele>1368.6</ele>
        <time>2026-05-07T11:57:25Z</time>
      </trkpt>
      <trkpt lat="44.9358" lon="4.19708">
        <ele>1369.3</ele>
        <time>2026-05-07T11:57:30Z</time>
      </trkpt>
      <trkpt lat="44.93577" lon="4.19702">
        <ele>1369.9</ele>
        <time>2026-05-07T11:57:35Z</time>
      </trkpt>
      <trkpt lat="44.93574" lon="4.19697">
        <ele>1370.4</ele>
        <time>2026-05-07T11:57:40Z</time>
      </trkpt>
      <trkpt lat="44.93573" lon="4.19694">
        <ele>1370.7</ele>
        <time>2026-05-07T11:57:45Z</time>
      </trkpt>
      <trkpt lat="44.9357" lon="4.19689">
        <ele>1371.2</ele>
        <time>2026-05-07T11:57:50Z</time>
      </trkpt>
      <trkpt lat="44.93568" lon="4.19684">
        <ele>1371.6</ele>
        <time>2026-05-07T11:57:55Z</time>
      </trkpt>
      <trkpt lat="44.93565" lon="4.19678">
        <ele>1372.2</ele>
        <time>2026-05-07T11:58:00Z</time>
      </trkpt>
      <trkpt lat="44.93562" lon="4.19671">
        <ele>1372.8</ele>
        <time>2026-05-07T11:58:05Z</time>
      </trkpt>
      <trkpt lat="44.9356" lon="4.19665">
        <ele>1373.2</ele>
        <time>2026-05-07T11:58:10Z</time>
      </trkpt>
      <trkpt lat="44.93557" lon="4.19657">
        <ele>1373.9</ele>
        <time>2026-05-07T11:58:15Z</time>
      </trkpt>
      <trkpt lat="44.93555" lon="4.19652">
        <ele>1374.3</ele>
        <time>2026-05-07T11:58:20Z</time>
      </trkpt>
      <trkpt lat="44.93552" lon="4.19646">
        <ele>1374.8</ele>
        <time>2026-05-07T11:58:25Z</time>
      </trkpt>
      <trkpt lat="44.93551" lon="4.19638">
        <ele>1375.3</ele>
        <time>2026-05-07T11:58:30Z</time>
      </trkpt>
      <trkpt lat="44.93548" lon="4.19632">
        <ele>1375.8</ele>
        <time>2026-05-07T11:58:35Z</time>
      </trkpt>
      <trkpt lat="44.93546" lon="4.19625">
        <ele>1376.3</ele>
        <time>2026-05-07T11:58:40Z</time>
      </trkpt>
      <trkpt lat="44.93544" lon="4.19618">
        <ele>1376.8</ele>
        <time>2026-05-07T11:58:45Z</time>
      </trkpt>
      <trkpt lat="44.93542" lon="4.19611">
        <ele>1377.3</ele>
        <time>2026-05-07T11:58:50Z</time>
      </trkpt>
      <trkpt lat="44.9354" lon="4.19604">
        <ele>1377.8</ele>
        <time>2026-05-07T11:58:55Z</time>
      </trkpt>
      <trkpt lat="44.9354" lon="4.196">
        <ele>1378</ele>
        <time>2026-05-07T11:59:00Z</time>
      </trkpt>
      <trkpt lat="44.93538" lon="4.19594">
        <ele>1378.5</ele>
        <time>2026-05-07T11:59:05Z</time>
      </trkpt>
      <trkpt lat="44.93536" lon="4.19587">
        <ele>1378.9</ele>
        <time>2026-05-07T11:59:10Z</time>
      </trkpt>
      <trkpt lat="44.93534" lon="4.19579">
        <ele>1379.5</ele>
        <time>2026-05-07T11:59:15Z</time>
      </trkpt>
      <trkpt lat="44.93532" lon="4.19571">
        <ele>1380.1</ele>
        <time>2026-05-07T11:59:20Z</time>
      </trkpt>
      <trkpt lat="44.93529" lon="4.19564">
        <ele>1380.6</ele>
        <time>2026-05-07T11:59:25Z</time>
      </trkpt>
      <trkpt lat="44.93527" lon="4.19556">
        <ele>1381.2</ele>
        <time>2026-05-07T11:59:30Z</time>
      </trkpt>
      <trkpt lat="44.93525" lon="4.19549">
        <ele>1381.7</ele>
        <time>2026-05-07T11:59:35Z</time>
      </trkpt>
      <trkpt lat="44.93524" lon="4.19541">
        <ele>1382.3</ele>
        <time>2026-05-07T11:59:40Z</time>
      </trkpt>
      <trkpt lat="44.93522" lon="4.19531">
        <ele>1383.1</ele>
        <time>2026-05-07T11:59:45Z</time>
      </trkpt>
      <trkpt lat="44.9352" lon="4.19523">
        <ele>1383.7</ele>
        <time>2026-05-07T11:59:50Z</time>
      </trkpt>
      <trkpt lat="44.93519" lon="4.19514">
        <ele>1384.3</ele>
        <time>2026-05-07T11:59:55Z</time>
      </trkpt>
      <trkpt lat="44.93517" lon="4.19506">
        <ele>1385</ele>
        <time>2026-05-07T12:00:00Z</time>
      </trkpt>
      <trkpt lat="44.93516" lon="4.19497">
        <ele>1385.6</ele>
        <time>2026-05-07T12:00:05Z</time>
      </trkpt>
      <trkpt lat="44.93514" lon="4.19488">
        <ele>1386.2</ele>
        <time>2026-05-07T12:00:10Z</time>
      </trkpt>
      <trkpt lat="44.93514" lon="4.19478">
        <ele>1386.8</ele>
        <time>2026-05-07T12:00:15Z</time>
      </trkpt>
      <trkpt lat="44.93512" lon="4.19469">
        <ele>1387.4</ele>
        <time>2026-05-07T12:00:20Z</time>
      </trkpt>
      <trkpt lat="44.93511" lon="4.19462">
        <ele>1387.8</ele>
        <time>2026-05-07T12:00:25Z</time>
      </trkpt>
      <trkpt lat="44.93511" lon="4.19455">
        <ele>1388.2</ele>
        <time>2026-05-07T12:00:30Z</time>
      </trkpt>
      <trkpt lat="44.93509" lon="4.19447">
        <ele>1388.8</ele>
        <time>2026-05-07T12:00:35Z</time>
      </trkpt>
      <trkpt lat="44.93508" lon="4.19439">
        <ele>1389.3</ele>
        <time>2026-05-07T12:00:40Z</time>
      </trkpt>
      <trkpt lat="44.93507" lon="4.19432">
        <ele>1389.8</ele>
        <time>2026-05-07T12:00:45Z</time>
      </trkpt>
      <trkpt lat="44.93506" lon="4.19425">
        <ele>1390.2</ele>
        <time>2026-05-07T12:00:50Z</time>
      </trkpt>
      <trkpt lat="44.93504" lon="4.19418">
        <ele>1390.7</ele>
        <time>2026-05-07T12:00:55Z</time>
      </trkpt>
      <trkpt lat="44.93503" lon="4.19409">
        <ele>1391.1</ele>
        <time>2026-05-07T12:01:00Z</time>
      </trkpt>
      <trkpt lat="44.93501" lon="4.19401">
        <ele>1391.5</ele>
        <time>2026-05-07T12:01:05Z</time>
      </trkpt>
      <trkpt lat="44.93499" lon="4.19393">
        <ele>1391.9</ele>
        <time>2026-05-07T12:01:10Z</time>
      </trkpt>
      <trkpt lat="44.93498" lon="4.19384">
        <ele>1392.3</ele>
        <time>2026-05-07T12:01:15Z</time>
      </trkpt>
      <trkpt lat="44.93494" lon="4.19376">
        <ele>1392.7</ele>
        <time>2026-05-07T12:01:20Z</time>
      </trkpt>
      <trkpt lat="44.93492" lon="4.19367">
        <ele>1393.1</ele>
        <time>2026-05-07T12:01:25Z</time>
      </trkpt>
      <trkpt lat="44.9349" lon="4.19359">
        <ele>1393.5</ele>
        <time>2026-05-07T12:01:30Z</time>
      </trkpt>
      <trkpt lat="44.93487" lon="4.19351">
        <ele>1394</ele>
        <time>2026-05-07T12:01:35Z</time>
      </trkpt>
      <trkpt lat="44.93484" lon="4.19344">
        <ele>1394.4</ele>
        <time>2026-05-07T12:01:40Z</time>
      </trkpt>
      <trkpt lat="44.93482" lon="4.19336">
        <ele>1394.8</ele>
        <time>2026-05-07T12:01:45Z</time>
      </trkpt>
      <trkpt lat="44.93479" lon="4.19328">
        <ele>1395.2</ele>
        <time>2026-05-07T12:01:50Z</time>
      </trkpt>
      <trkpt lat="44.93476" lon="4.19321">
        <ele>1395.6</ele>
        <time>2026-05-07T12:01:55Z</time>
      </trkpt>
      <trkpt lat="44.93472" lon="4.19313">
        <ele>1396.1</ele>
        <time>2026-05-07T12:02:00Z</time>
      </trkpt>
      <trkpt lat="44.93469" lon="4.19306">
        <ele>1396.5</ele>
        <time>2026-05-07T12:02:05Z</time>
      </trkpt>
      <trkpt lat="44.93465" lon="4.19303">
        <ele>1396.8</ele>
        <time>2026-05-07T12:02:10Z</time>
      </trkpt>
      <trkpt lat="44.93464" lon="4.19301">
        <ele>1396.9</ele>
        <time>2026-05-07T12:02:15Z</time>
      </trkpt>
      <trkpt lat="44.93464" lon="4.193">
        <ele>1396.9</ele>
        <time>2026-05-07T12:02:20Z</time>
      </trkpt>
      <trkpt lat="44.93461" lon="4.19295">
        <ele>1397.3</ele>
        <time>2026-05-07T12:02:25Z</time>
      </trkpt>
      <trkpt lat="44.93461" lon="4.19294">
        <ele>1397.3</ele>
        <time>2026-05-07T12:02:30Z</time>
      </trkpt>
      <trkpt lat="44.93461" lon="4.19292">
        <ele>1397.4</ele>
        <time>2026-05-07T12:02:35Z</time>
      </trkpt>
      <trkpt lat="44.93457" lon="4.19283">
        <ele>1397.9</ele>
        <time>2026-05-07T12:02:40Z</time>
      </trkpt>
      <trkpt lat="44.93454" lon="4.19275">
        <ele>1398.3</ele>
        <time>2026-05-07T12:02:45Z</time>
      </trkpt>
      <trkpt lat="44.9345" lon="4.19268">
        <ele>1398.8</ele>
        <time>2026-05-07T12:02:50Z</time>
      </trkpt>
      <trkpt lat="44.93447" lon="4.1926">
        <ele>1399.2</ele>
        <time>2026-05-07T12:02:55Z</time>
      </trkpt>
      <trkpt lat="44.93444" lon="4.19251">
        <ele>1399.7</ele>
        <time>2026-05-07T12:03:00Z</time>
      </trkpt>
      <trkpt lat="44.9344" lon="4.19243">
        <ele>1400.1</ele>
        <time>2026-05-07T12:03:05Z</time>
      </trkpt>
      <trkpt lat="44.93437" lon="4.19235">
        <ele>1400.6</ele>
        <time>2026-05-07T12:03:10Z</time>
      </trkpt>
      <trkpt lat="44.93432" lon="4.19227">
        <ele>1401.2</ele>
        <time>2026-05-07T12:03:15Z</time>
      </trkpt>
      <trkpt lat="44.93429" lon="4.19218">
        <ele>1401.8</ele>
        <time>2026-05-07T12:03:20Z</time>
      </trkpt>
      <trkpt lat="44.93426" lon="4.19209">
        <ele>1402.4</ele>
        <time>2026-05-07T12:03:25Z</time>
      </trkpt>
      <trkpt lat="44.93422" lon="4.19201">
        <ele>1403</ele>
        <time>2026-05-07T12:03:30Z</time>
      </trkpt>
      <trkpt lat="44.93419" lon="4.19192">
        <ele>1403.6</ele>
        <time>2026-05-07T12:03:35Z</time>
      </trkpt>
      <trkpt lat="44.93415" lon="4.19184">
        <ele>1404.4</ele>
        <time>2026-05-07T12:03:40Z</time>
      </trkpt>
      <trkpt lat="44.93411" lon="4.19176">
        <ele>1405.2</ele>
        <time>2026-05-07T12:03:45Z</time>
      </trkpt>
      <trkpt lat="44.93408" lon="4.19169">
        <ele>1405.9</ele>
        <time>2026-05-07T12:03:50Z</time>
      </trkpt>
      <trkpt lat="44.93405" lon="4.1916">
        <ele>1406.7</ele>
        <time>2026-05-07T12:03:55Z</time>
      </trkpt>
      <trkpt lat="44.93401" lon="4.19153">
        <ele>1407.5</ele>
        <time>2026-05-07T12:04:00Z</time>
      </trkpt>
      <trkpt lat="44.93398" lon="4.19146">
        <ele>1408.2</ele>
        <time>2026-05-07T12:04:05Z</time>
      </trkpt>
      <trkpt lat="44.93395" lon="4.19139">
        <ele>1408.9</ele>
        <time>2026-05-07T12:04:10Z</time>
      </trkpt>
      <trkpt lat="44.93393" lon="4.19132">
        <ele>1409.5</ele>
        <time>2026-05-07T12:04:15Z</time>
      </trkpt>
      <trkpt lat="44.93389" lon="4.19126">
        <ele>1410.3</ele>
        <time>2026-05-07T12:04:20Z</time>
      </trkpt>
      <trkpt lat="44.93386" lon="4.1912">
        <ele>1410.9</ele>
        <time>2026-05-07T12:04:25Z</time>
      </trkpt>
      <trkpt lat="44.93384" lon="4.19114">
        <ele>1411.4</ele>
        <time>2026-05-07T12:04:30Z</time>
      </trkpt>
      <trkpt lat="44.9338" lon="4.19107">
        <ele>1412.3</ele>
        <time>2026-05-07T12:04:35Z</time>
      </trkpt>
      <trkpt lat="44.93377" lon="4.19101">
        <ele>1412.9</ele>
        <time>2026-05-07T12:04:40Z</time>
      </trkpt>
      <trkpt lat="44.93374" lon="4.19096">
        <ele>1413.5</ele>
        <time>2026-05-07T12:04:45Z</time>
      </trkpt>
      <trkpt lat="44.9337" lon="4.1909">
        <ele>1414.3</ele>
        <time>2026-05-07T12:04:50Z</time>
      </trkpt>
      <trkpt lat="44.93367" lon="4.19086">
        <ele>1414.8</ele>
        <time>2026-05-07T12:04:55Z</time>
      </trkpt>
      <trkpt lat="44.93362" lon="4.19083">
        <ele>1415.6</ele>
        <time>2026-05-07T12:05:00Z</time>
      </trkpt>
      <trkpt lat="44.93357" lon="4.19081">
        <ele>1416.2</ele>
        <time>2026-05-07T12:05:05Z</time>
      </trkpt>
      <trkpt lat="44.93352" lon="4.1908">
        <ele>1416.8</ele>
        <time>2026-05-07T12:05:10Z</time>
      </trkpt>
      <trkpt lat="44.93346" lon="4.19081">
        <ele>1417.5</ele>
        <time>2026-05-07T12:05:15Z</time>
      </trkpt>
      <trkpt lat="44.9334" lon="4.19084">
        <ele>1418.2</ele>
        <time>2026-05-07T12:05:20Z</time>
      </trkpt>
      <trkpt lat="44.93335" lon="4.19087">
        <ele>1418.6</ele>
        <time>2026-05-07T12:05:25Z</time>
      </trkpt>
      <trkpt lat="44.93334" lon="4.19089">
        <ele>1418.6</ele>
        <time>2026-05-07T12:05:30Z</time>
      </trkpt>
      <trkpt lat="44.93334" lon="4.19089">
        <ele>1418.6</ele>
        <time>2026-05-07T12:05:35Z</time>
      </trkpt>
      <trkpt lat="44.93334" lon="4.19089">
        <ele>1418.6</ele>
        <time>2026-05-07T12:05:40Z</time>
      </trkpt>
      <trkpt lat="44.9333" lon="4.19091">
        <ele>1418.9</ele>
        <time>2026-05-07T12:05:45Z</time>
      </trkpt>
      <trkpt lat="44.93323" lon="4.19094">
        <ele>1419.3</ele>
        <time>2026-05-07T12:05:50Z</time>
      </trkpt>
      <trkpt lat="44.93317" lon="4.19099">
        <ele>1419.6</ele>
        <time>2026-05-07T12:05:55Z</time>
      </trkpt>
      <trkpt lat="44.93311" lon="4.19103">
        <ele>1419.9</ele>
        <time>2026-05-07T12:06:00Z</time>
      </trkpt>
      <trkpt lat="44.93306" lon="4.19106">
        <ele>1420.1</ele>
        <time>2026-05-07T12:06:05Z</time>
      </trkpt>
      <trkpt lat="44.93304" lon="4.19107">
        <ele>1420.2</ele>
        <time>2026-05-07T12:06:10Z</time>
      </trkpt>
      <trkpt lat="44.93302" lon="4.19107">
        <ele>1420.4</ele>
        <time>2026-05-07T12:06:15Z</time>
      </trkpt>
      <trkpt lat="44.93299" lon="4.19109">
        <ele>1420.5</ele>
        <time>2026-05-07T12:06:20Z</time>
      </trkpt>
      <trkpt lat="44.93294" lon="4.19113">
        <ele>1420.7</ele>
        <time>2026-05-07T12:06:25Z</time>
      </trkpt>
      <trkpt lat="44.93288" lon="4.19116">
        <ele>1421</ele>
        <time>2026-05-07T12:06:30Z</time>
      </trkpt>
      <trkpt lat="44.93283" lon="4.1912">
        <ele>1421.2</ele>
        <time>2026-05-07T12:06:35Z</time>
      </trkpt>
      <trkpt lat="44.93278" lon="4.19124">
        <ele>1421.4</ele>
        <time>2026-05-07T12:06:40Z</time>
      </trkpt>
      <trkpt lat="44.93272" lon="4.19127">
        <ele>1421.7</ele>
        <time>2026-05-07T12:06:45Z</time>
      </trkpt>
      <trkpt lat="44.93267" lon="4.19131">
        <ele>1421.8</ele>
        <time>2026-05-07T12:06:50Z</time>
      </trkpt>
      <trkpt lat="44.93261" lon="4.19135">
        <ele>1422.1</ele>
        <time>2026-05-07T12:06:55Z</time>
      </trkpt>
      <trkpt lat="44.93255" lon="4.19138">
        <ele>1422.3</ele>
        <time>2026-05-07T12:07:00Z</time>
      </trkpt>
      <trkpt lat="44.93249" lon="4.19142">
        <ele>1422.6</ele>
        <time>2026-05-07T12:07:05Z</time>
      </trkpt>
      <trkpt lat="44.93244" lon="4.19146">
        <ele>1422.9</ele>
        <time>2026-05-07T12:07:10Z</time>
      </trkpt>
      <trkpt lat="44.93239" lon="4.19148">
        <ele>1423.3</ele>
        <time>2026-05-07T12:07:15Z</time>
      </trkpt>
      <trkpt lat="44.93233" lon="4.19151">
        <ele>1423.8</ele>
        <time>2026-05-07T12:07:20Z</time>
      </trkpt>
      <trkpt lat="44.93226" lon="4.19153">
        <ele>1424.4</ele>
        <time>2026-05-07T12:07:25Z</time>
      </trkpt>
      <trkpt lat="44.9322" lon="4.19154">
        <ele>1425</ele>
        <time>2026-05-07T12:07:30Z</time>
      </trkpt>
      <trkpt lat="44.9322" lon="4.19155">
        <ele>1424.9</ele>
        <time>2026-05-07T12:07:35Z</time>
      </trkpt>
      <trkpt lat="44.93217" lon="4.1915">
        <ele>1425.6</ele>
        <time>2026-05-07T12:07:40Z</time>
      </trkpt>
      <trkpt lat="44.9321" lon="4.19147">
        <ele>1426.5</ele>
        <time>2026-05-07T12:07:45Z</time>
      </trkpt>
      <trkpt lat="44.93205" lon="4.19142">
        <ele>1427.3</ele>
        <time>2026-05-07T12:07:50Z</time>
      </trkpt>
      <trkpt lat="44.93201" lon="4.19136">
        <ele>1428.1</ele>
        <time>2026-05-07T12:07:55Z</time>
      </trkpt>
      <trkpt lat="44.93198" lon="4.19129">
        <ele>1428.9</ele>
        <time>2026-05-07T12:08:00Z</time>
      </trkpt>
      <trkpt lat="44.93194" lon="4.19121">
        <ele>1429.8</ele>
        <time>2026-05-07T12:08:05Z</time>
      </trkpt>
      <trkpt lat="44.93191" lon="4.19114">
        <ele>1430.5</ele>
        <time>2026-05-07T12:08:10Z</time>
      </trkpt>
      <trkpt lat="44.93189" lon="4.19107">
        <ele>1431.2</ele>
        <time>2026-05-07T12:08:15Z</time>
      </trkpt>
      <trkpt lat="44.93187" lon="4.19101">
        <ele>1431.7</ele>
        <time>2026-05-07T12:08:20Z</time>
      </trkpt>
      <trkpt lat="44.93185" lon="4.19094">
        <ele>1432.4</ele>
        <time>2026-05-07T12:08:25Z</time>
      </trkpt>
      <trkpt lat="44.93182" lon="4.19088">
        <ele>1433.1</ele>
        <time>2026-05-07T12:08:30Z</time>
      </trkpt>
      <trkpt lat="44.93179" lon="4.1908">
        <ele>1433.9</ele>
        <time>2026-05-07T12:08:35Z</time>
      </trkpt>
      <trkpt lat="44.93177" lon="4.19072">
        <ele>1434.8</ele>
        <time>2026-05-07T12:08:40Z</time>
      </trkpt>
      <trkpt lat="44.93174" lon="4.19064">
        <ele>1435.8</ele>
        <time>2026-05-07T12:08:45Z</time>
      </trkpt>
      <trkpt lat="44.93172" lon="4.19058">
        <ele>1436.5</ele>
        <time>2026-05-07T12:08:50Z</time>
      </trkpt>
      <trkpt lat="44.9317" lon="4.19052">
        <ele>1437.2</ele>
        <time>2026-05-07T12:08:55Z</time>
      </trkpt>
      <trkpt lat="44.93168" lon="4.19046">
        <ele>1438</ele>
        <time>2026-05-07T12:09:00Z</time>
      </trkpt>
      <trkpt lat="44.93165" lon="4.1904">
        <ele>1438.9</ele>
        <time>2026-05-07T12:09:05Z</time>
      </trkpt>
      <trkpt lat="44.93163" lon="4.19034">
        <ele>1439.7</ele>
        <time>2026-05-07T12:09:10Z</time>
      </trkpt>
      <trkpt lat="44.93161" lon="4.19028">
        <ele>1440.4</ele>
        <time>2026-05-07T12:09:15Z</time>
      </trkpt>
      <trkpt lat="44.93158" lon="4.19019">
        <ele>1441.5</ele>
        <time>2026-05-07T12:09:20Z</time>
      </trkpt>
      <trkpt lat="44.93155" lon="4.19012">
        <ele>1442.5</ele>
        <time>2026-05-07T12:09:25Z</time>
      </trkpt>
      <trkpt lat="44.93152" lon="4.19005">
        <ele>1443.4</ele>
        <time>2026-05-07T12:09:30Z</time>
      </trkpt>
      <trkpt lat="44.93148" lon="4.19">
        <ele>1444.2</ele>
        <time>2026-05-07T12:09:35Z</time>
      </trkpt>
      <trkpt lat="44.93144" lon="4.18995">
        <ele>1444.5</ele>
        <time>2026-05-07T12:09:40Z</time>
      </trkpt>
      <trkpt lat="44.9314" lon="4.18993">
        <ele>1444.9</ele>
        <time>2026-05-07T12:09:45Z</time>
      </trkpt>
      <trkpt lat="44.93135" lon="4.18994">
        <ele>1445.6</ele>
        <time>2026-05-07T12:09:50Z</time>
      </trkpt>
      <trkpt lat="44.9313" lon="4.18997">
        <ele>1446.3</ele>
        <time>2026-05-07T12:09:55Z</time>
      </trkpt>
      <trkpt lat="44.93125" lon="4.19">
        <ele>1447</ele>
        <time>2026-05-07T12:10:00Z</time>
      </trkpt>
      <trkpt lat="44.93119" lon="4.19003">
        <ele>1447.6</ele>
        <time>2026-05-07T12:10:05Z</time>
      </trkpt>
      <trkpt lat="44.93114" lon="4.19008">
        <ele>1447.9</ele>
        <time>2026-05-07T12:10:10Z</time>
      </trkpt>
      <trkpt lat="44.93109" lon="4.19013">
        <ele>1448.3</ele>
        <time>2026-05-07T12:10:15Z</time>
      </trkpt>
      <trkpt lat="44.93104" lon="4.19019">
        <ele>1448.6</ele>
        <time>2026-05-07T12:10:20Z</time>
      </trkpt>
      <trkpt lat="44.93099" lon="4.19024">
        <ele>1449</ele>
        <time>2026-05-07T12:10:25Z</time>
      </trkpt>
      <trkpt lat="44.93094" lon="4.19029">
        <ele>1449.5</ele>
        <time>2026-05-07T12:10:30Z</time>
      </trkpt>
      <trkpt lat="44.9309" lon="4.19035">
        <ele>1449.8</ele>
        <time>2026-05-07T12:10:35Z</time>
      </trkpt>
      <trkpt lat="44.93086" lon="4.19037">
        <ele>1450.3</ele>
        <time>2026-05-07T12:10:40Z</time>
      </trkpt>
      <trkpt lat="44.93079" lon="4.19044">
        <ele>1450.7</ele>
        <time>2026-05-07T12:10:45Z</time>
      </trkpt>
      <trkpt lat="44.93072" lon="4.19049">
        <ele>1450.9</ele>
        <time>2026-05-07T12:10:50Z</time>
      </trkpt>
      <trkpt lat="44.93067" lon="4.19054">
        <ele>1451</ele>
        <time>2026-05-07T12:10:55Z</time>
      </trkpt>
      <trkpt lat="44.93062" lon="4.19059">
        <ele>1451.2</ele>
        <time>2026-05-07T12:11:00Z</time>
      </trkpt>
      <trkpt lat="44.93056" lon="4.19062">
        <ele>1451.4</ele>
        <time>2026-05-07T12:11:05Z</time>
      </trkpt>
      <trkpt lat="44.9305" lon="4.19067">
        <ele>1451.6</ele>
        <time>2026-05-07T12:11:10Z</time>
      </trkpt>
      <trkpt lat="44.93044" lon="4.19073">
        <ele>1451.7</ele>
        <time>2026-05-07T12:11:15Z</time>
      </trkpt>
      <trkpt lat="44.93039" lon="4.19077">
        <ele>1451.9</ele>
        <time>2026-05-07T12:11:20Z</time>
      </trkpt>
      <trkpt lat="44.93034" lon="4.19081">
        <ele>1452</ele>
        <time>2026-05-07T12:11:25Z</time>
      </trkpt>
      <trkpt lat="44.93029" lon="4.19088">
        <ele>1451.8</ele>
        <time>2026-05-07T12:11:30Z</time>
      </trkpt>
      <trkpt lat="44.93024" lon="4.19094">
        <ele>1451.4</ele>
        <time>2026-05-07T12:11:35Z</time>
      </trkpt>
      <trkpt lat="44.93019" lon="4.191">
        <ele>1451.1</ele>
        <time>2026-05-07T12:11:40Z</time>
      </trkpt>
      <trkpt lat="44.93014" lon="4.19106">
        <ele>1450.8</ele>
        <time>2026-05-07T12:11:45Z</time>
      </trkpt>
      <trkpt lat="44.93012" lon="4.19108">
        <ele>1450.7</ele>
        <time>2026-05-07T12:11:50Z</time>
      </trkpt>
      <trkpt lat="44.93012" lon="4.19108">
        <ele>1450.7</ele>
        <time>2026-05-07T12:11:55Z</time>
      </trkpt>
      <trkpt lat="44.93012" lon="4.19108">
        <ele>1450.7</ele>
        <time>2026-05-07T12:12:00Z</time>
      </trkpt>
      <trkpt lat="44.93012" lon="4.19108">
        <ele>1450.7</ele>
        <time>2026-05-07T12:12:05Z</time>
      </trkpt>
      <trkpt lat="44.93012" lon="4.19108">
        <ele>1450.7</ele>
        <time>2026-05-07T12:12:10Z</time>
      </trkpt>
      <trkpt lat="44.93012" lon="4.19108">
        <ele>1450.7</ele>
        <time>2026-05-07T12:12:15Z</time>
      </trkpt>
      <trkpt lat="44.93011" lon="4.19114">
        <ele>1450.1</ele>
        <time>2026-05-07T12:12:20Z</time>
      </trkpt>
      <trkpt lat="44.93005" lon="4.1912">
        <ele>1449.8</ele>
        <time>2026-05-07T12:12:25Z</time>
      </trkpt>
      <trkpt lat="44.93" lon="4.19124">
        <ele>1449.6</ele>
        <time>2026-05-07T12:12:30Z</time>
      </trkpt>
      <trkpt lat="44.92995" lon="4.19128">
        <ele>1449.4</ele>
        <time>2026-05-07T12:12:35Z</time>
      </trkpt>
      <trkpt lat="44.9299" lon="4.19132">
        <ele>1449.3</ele>
        <time>2026-05-07T12:12:40Z</time>
      </trkpt>
      <trkpt lat="44.92984" lon="4.19135">
        <ele>1449.3</ele>
        <time>2026-05-07T12:12:45Z</time>
      </trkpt>
      <trkpt lat="44.92977" lon="4.19137">
        <ele>1449.4</ele>
        <time>2026-05-07T12:12:50Z</time>
      </trkpt>
      <trkpt lat="44.92971" lon="4.19137">
        <ele>1449.7</ele>
        <time>2026-05-07T12:12:55Z</time>
      </trkpt>
      <trkpt lat="44.92966" lon="4.19133">
        <ele>1450.4</ele>
        <time>2026-05-07T12:13:00Z</time>
      </trkpt>
      <trkpt lat="44.92962" lon="4.19128">
        <ele>1451.2</ele>
        <time>2026-05-07T12:13:05Z</time>
      </trkpt>
      <trkpt lat="44.92957" lon="4.19121">
        <ele>1452.3</ele>
        <time>2026-05-07T12:13:10Z</time>
      </trkpt>
      <trkpt lat="44.92955" lon="4.19115">
        <ele>1453.1</ele>
        <time>2026-05-07T12:13:15Z</time>
      </trkpt>
      <trkpt lat="44.92953" lon="4.19108">
        <ele>1454</ele>
        <time>2026-05-07T12:13:20Z</time>
      </trkpt>
      <trkpt lat="44.92951" lon="4.191">
        <ele>1455</ele>
        <time>2026-05-07T12:13:25Z</time>
      </trkpt>
      <trkpt lat="44.9295" lon="4.19092">
        <ele>1456</ele>
        <time>2026-05-07T12:13:30Z</time>
      </trkpt>
      <trkpt lat="44.92948" lon="4.19084">
        <ele>1457</ele>
        <time>2026-05-07T12:13:35Z</time>
      </trkpt>
      <trkpt lat="44.92946" lon="4.19076">
        <ele>1457.7</ele>
        <time>2026-05-07T12:13:40Z</time>
      </trkpt>
      <trkpt lat="44.92944" lon="4.19067">
        <ele>1458.3</ele>
        <time>2026-05-07T12:13:45Z</time>
      </trkpt>
      <trkpt lat="44.92943" lon="4.19058">
        <ele>1459</ele>
        <time>2026-05-07T12:13:50Z</time>
      </trkpt>
      <trkpt lat="44.92941" lon="4.19049">
        <ele>1459.7</ele>
        <time>2026-05-07T12:13:55Z</time>
      </trkpt>
      <trkpt lat="44.9294" lon="4.1904">
        <ele>1460.3</ele>
        <time>2026-05-07T12:14:00Z</time>
      </trkpt>
      <trkpt lat="44.92938" lon="4.19032">
        <ele>1460.9</ele>
        <time>2026-05-07T12:14:05Z</time>
      </trkpt>
      <trkpt lat="44.92935" lon="4.19023">
        <ele>1461.8</ele>
        <time>2026-05-07T12:14:10Z</time>
      </trkpt>
      <trkpt lat="44.92933" lon="4.19016">
        <ele>1462.4</ele>
        <time>2026-05-07T12:14:15Z</time>
      </trkpt>
      <trkpt lat="44.92927" lon="4.19009">
        <ele>1463.4</ele>
        <time>2026-05-07T12:14:20Z</time>
      </trkpt>
      <trkpt lat="44.9292" lon="4.19007">
        <ele>1464.2</ele>
        <time>2026-05-07T12:14:25Z</time>
      </trkpt>
      <trkpt lat="44.92916" lon="4.19009">
        <ele>1464.4</ele>
        <time>2026-05-07T12:14:30Z</time>
      </trkpt>
      <trkpt lat="44.92912" lon="4.19012">
        <ele>1464.7</ele>
        <time>2026-05-07T12:14:35Z</time>
      </trkpt>
      <trkpt lat="44.92906" lon="4.19014">
        <ele>1465.2</ele>
        <time>2026-05-07T12:14:40Z</time>
      </trkpt>
      <trkpt lat="44.929" lon="4.19017">
        <ele>1465.6</ele>
        <time>2026-05-07T12:14:45Z</time>
      </trkpt>
      <trkpt lat="44.92895" lon="4.19022">
        <ele>1465.7</ele>
        <time>2026-05-07T12:14:50Z</time>
      </trkpt>
      <trkpt lat="44.9289" lon="4.19026">
        <ele>1465.8</ele>
        <time>2026-05-07T12:14:55Z</time>
      </trkpt>
      <trkpt lat="44.92885" lon="4.19028">
        <ele>1466.1</ele>
        <time>2026-05-07T12:15:00Z</time>
      </trkpt>
      <trkpt lat="44.92877" lon="4.19033">
        <ele>1466.4</ele>
        <time>2026-05-07T12:15:05Z</time>
      </trkpt>
      <trkpt lat="44.92871" lon="4.19037">
        <ele>1466.6</ele>
        <time>2026-05-07T12:15:10Z</time>
      </trkpt>
      <trkpt lat="44.92864" lon="4.1904">
        <ele>1466.9</ele>
        <time>2026-05-07T12:15:15Z</time>
      </trkpt>
      <trkpt lat="44.92858" lon="4.19044">
        <ele>1467</ele>
        <time>2026-05-07T12:15:20Z</time>
      </trkpt>
      <trkpt lat="44.92852" lon="4.19047">
        <ele>1467.2</ele>
        <time>2026-05-07T12:15:25Z</time>
      </trkpt>
      <trkpt lat="44.92846" lon="4.1905">
        <ele>1467.3</ele>
        <time>2026-05-07T12:15:30Z</time>
      </trkpt>
      <trkpt lat="44.92841" lon="4.19053">
        <ele>1467.4</ele>
        <time>2026-05-07T12:15:35Z</time>
      </trkpt>
      <trkpt lat="44.92836" lon="4.19058">
        <ele>1467.1</ele>
        <time>2026-05-07T12:15:40Z</time>
      </trkpt>
      <trkpt lat="44.92829" lon="4.19061">
        <ele>1467.5</ele>
        <time>2026-05-07T12:15:45Z</time>
      </trkpt>
      <trkpt lat="44.92823" lon="4.19066">
        <ele>1467.5</ele>
        <time>2026-05-07T12:15:50Z</time>
      </trkpt>
      <trkpt lat="44.92816" lon="4.19069">
        <ele>1467.8</ele>
        <time>2026-05-07T12:15:55Z</time>
      </trkpt>
      <trkpt lat="44.92808" lon="4.19072">
        <ele>1468.3</ele>
        <time>2026-05-07T12:16:00Z</time>
      </trkpt>
      <trkpt lat="44.92803" lon="4.19075">
        <ele>1468.3</ele>
        <time>2026-05-07T12:16:05Z</time>
      </trkpt>
      <trkpt lat="44.92797" lon="4.19077">
        <ele>1468.6</ele>
        <time>2026-05-07T12:16:10Z</time>
      </trkpt>
      <trkpt lat="44.92792" lon="4.1908">
        <ele>1468.6</ele>
        <time>2026-05-07T12:16:15Z</time>
      </trkpt>
      <trkpt lat="44.92786" lon="4.19083">
        <ele>1468.6</ele>
        <time>2026-05-07T12:16:20Z</time>
      </trkpt>
      <trkpt lat="44.92778" lon="4.19085">
        <ele>1469.1</ele>
        <time>2026-05-07T12:16:25Z</time>
      </trkpt>
      <trkpt lat="44.92771" lon="4.19088">
        <ele>1469.3</ele>
        <time>2026-05-07T12:16:30Z</time>
      </trkpt>
      <trkpt lat="44.92765" lon="4.19093">
        <ele>1469.1</ele>
        <time>2026-05-07T12:16:35Z</time>
      </trkpt>
      <trkpt lat="44.92762" lon="4.19096">
        <ele>1468.9</ele>
        <time>2026-05-07T12:16:40Z</time>
      </trkpt>
      <trkpt lat="44.92762" lon="4.19096">
        <ele>1468.9</ele>
        <time>2026-05-07T12:16:45Z</time>
      </trkpt>
      <trkpt lat="44.92762" lon="4.19096">
        <ele>1468.9</ele>
        <time>2026-05-07T12:16:50Z</time>
      </trkpt>
      <trkpt lat="44.92762" lon="4.19096">
        <ele>1468.9</ele>
        <time>2026-05-07T12:16:55Z</time>
      </trkpt>
      <trkpt lat="44.92762" lon="4.19096">
        <ele>1468.9</ele>
        <time>2026-05-07T12:17:00Z</time>
      </trkpt>
      <trkpt lat="44.92762" lon="4.19096">
        <ele>1468.9</ele>
        <time>2026-05-07T12:17:05Z</time>
      </trkpt>
      <trkpt lat="44.92762" lon="4.19096">
        <ele>1468.9</ele>
        <time>2026-05-07T12:17:10Z</time>
      </trkpt>
      <trkpt lat="44.92762" lon="4.19096">
        <ele>1468.9</ele>
        <time>2026-05-07T12:17:15Z</time>
      </trkpt>
      <trkpt lat="44.92762" lon="4.19096">
        <ele>1468.9</ele>
        <time>2026-05-07T12:17:20Z</time>
      </trkpt>
      <trkpt lat="44.92762" lon="4.19096">
        <ele>1468.9</ele>
        <time>2026-05-07T12:17:25Z</time>
      </trkpt>
      <trkpt lat="44.92762" lon="4.19096">
        <ele>1468.9</ele>
        <time>2026-05-07T12:17:30Z</time>
      </trkpt>
      <trkpt lat="44.92762" lon="4.19096">
        <ele>1468.9</ele>
        <time>2026-05-07T12:17:35Z</time>
      </trkpt>
      <trkpt lat="44.92762" lon="4.19096">
        <ele>1468.9</ele>
        <time>2026-05-07T12:17:40Z</time>
      </trkpt>
      <trkpt lat="44.92762" lon="4.19096">
        <ele>1468.9</ele>
        <time>2026-05-07T12:17:45Z</time>
      </trkpt>
      <trkpt lat="44.92762" lon="4.19096">
        <ele>1468.9</ele>
        <time>2026-05-07T12:17:50Z</time>
      </trkpt>
      <trkpt lat="44.92762" lon="4.19096">
        <ele>1468.9</ele>
        <time>2026-05-07T12:17:55Z</time>
      </trkpt>
      <trkpt lat="44.92762" lon="4.19096">
        <ele>1468.9</ele>
        <time>2026-05-07T12:18:00Z</time>
      </trkpt>
      <trkpt lat="44.92762" lon="4.19096">
        <ele>1468.9</ele>
        <time>2026-05-07T12:18:05Z</time>
      </trkpt>
      <trkpt lat="44.92762" lon="4.19096">
        <ele>1468.9</ele>
        <time>2026-05-07T12:18:10Z</time>
      </trkpt>
      <trkpt lat="44.92762" lon="4.19096">
        <ele>1468.9</ele>
        <time>2026-05-07T12:18:15Z</time>
      </trkpt>
      <trkpt lat="44.92762" lon="4.19096">
        <ele>1468.9</ele>
        <time>2026-05-07T12:18:20Z</time>
      </trkpt>
      <trkpt lat="44.92762" lon="4.19096">
        <ele>1468.9</ele>
        <time>2026-05-07T12:18:25Z</time>
      </trkpt>
      <trkpt lat="44.92762" lon="4.19096">
        <ele>1468.9</ele>
        <time>2026-05-07T12:18:30Z</time>
      </trkpt>
      <trkpt lat="44.92762" lon="4.19096">
        <ele>1468.9</ele>
        <time>2026-05-07T12:18:35Z</time>
      </trkpt>
      <trkpt lat="44.92762" lon="4.19096">
        <ele>1468.9</ele>
        <time>2026-05-07T12:18:40Z</time>
      </trkpt>
      <trkpt lat="44.92758" lon="4.19094">
        <ele>1469.6</ele>
        <time>2026-05-07T12:18:45Z</time>
      </trkpt>
      <trkpt lat="44.92756" lon="4.19091">
        <ele>1470.2</ele>
        <time>2026-05-07T12:18:50Z</time>
      </trkpt>
      <trkpt lat="44.92753" lon="4.19088">
        <ele>1471</ele>
        <time>2026-05-07T12:18:55Z</time>
      </trkpt>
      <trkpt lat="44.92746" lon="4.19089">
        <ele>1471.6</ele>
        <time>2026-05-07T12:19:00Z</time>
      </trkpt>
      <trkpt lat="44.92738" lon="4.19089">
        <ele>1472.7</ele>
        <time>2026-05-07T12:19:05Z</time>
      </trkpt>
      <trkpt lat="44.92731" lon="4.19088">
        <ele>1473.7</ele>
        <time>2026-05-07T12:19:10Z</time>
      </trkpt>
      <trkpt lat="44.92726" lon="4.19091">
        <ele>1473.9</ele>
        <time>2026-05-07T12:19:15Z</time>
      </trkpt>
      <trkpt lat="44.92719" lon="4.19092">
        <ele>1474.6</ele>
        <time>2026-05-07T12:19:20Z</time>
      </trkpt>
      <trkpt lat="44.92713" lon="4.19093">
        <ele>1475.2</ele>
        <time>2026-05-07T12:19:25Z</time>
      </trkpt>
      <trkpt lat="44.92707" lon="4.19094">
        <ele>1475.8</ele>
        <time>2026-05-07T12:19:30Z</time>
      </trkpt>
      <trkpt lat="44.927" lon="4.19095">
        <ele>1476.5</ele>
        <time>2026-05-07T12:19:35Z</time>
      </trkpt>
      <trkpt lat="44.92694" lon="4.19097">
        <ele>1476.9</ele>
        <time>2026-05-07T12:19:40Z</time>
      </trkpt>
      <trkpt lat="44.92688" lon="4.19098">
        <ele>1477.5</ele>
        <time>2026-05-07T12:19:45Z</time>
      </trkpt>
      <trkpt lat="44.92682" lon="4.19098">
        <ele>1478.3</ele>
        <time>2026-05-07T12:19:50Z</time>
      </trkpt>
      <trkpt lat="44.92675" lon="4.191">
        <ele>1478.8</ele>
        <time>2026-05-07T12:19:55Z</time>
      </trkpt>
      <trkpt lat="44.92667" lon="4.19102">
        <ele>1479.4</ele>
        <time>2026-05-07T12:20:00Z</time>
      </trkpt>
      <trkpt lat="44.92662" lon="4.19103">
        <ele>1479.5</ele>
        <time>2026-05-07T12:20:05Z</time>
      </trkpt>
      <trkpt lat="44.9266" lon="4.19104">
        <ele>1479.5</ele>
        <time>2026-05-07T12:20:10Z</time>
      </trkpt>
      <trkpt lat="44.9266" lon="4.19104">
        <ele>1479.5</ele>
        <time>2026-05-07T12:20:15Z</time>
      </trkpt>
      <trkpt lat="44.9266" lon="4.19104">
        <ele>1479.5</ele>
        <time>2026-05-07T12:20:20Z</time>
      </trkpt>
      <trkpt lat="44.92654" lon="4.19106">
        <ele>1479.6</ele>
        <time>2026-05-07T12:20:25Z</time>
      </trkpt>
      <trkpt lat="44.92649" lon="4.19105">
        <ele>1480.1</ele>
        <time>2026-05-07T12:20:30Z</time>
      </trkpt>
      <trkpt lat="44.92649" lon="4.19105">
        <ele>1480.1</ele>
        <time>2026-05-07T12:20:35Z</time>
      </trkpt>
      <trkpt lat="44.92644" lon="4.19106">
        <ele>1480.3</ele>
        <time>2026-05-07T12:20:40Z</time>
      </trkpt>
      <trkpt lat="44.92639" lon="4.19107">
        <ele>1480.5</ele>
        <time>2026-05-07T12:20:45Z</time>
      </trkpt>
      <trkpt lat="44.92635" lon="4.19109">
        <ele>1480.5</ele>
        <time>2026-05-07T12:20:50Z</time>
      </trkpt>
      <trkpt lat="44.92629" lon="4.1911">
        <ele>1480.8</ele>
        <time>2026-05-07T12:20:55Z</time>
      </trkpt>
      <trkpt lat="44.92623" lon="4.1911">
        <ele>1481.3</ele>
        <time>2026-05-07T12:21:00Z</time>
      </trkpt>
      <trkpt lat="44.9262" lon="4.1911">
        <ele>1481.5</ele>
        <time>2026-05-07T12:21:05Z</time>
      </trkpt>
      <trkpt lat="44.92613" lon="4.19111">
        <ele>1482</ele>
        <time>2026-05-07T12:21:10Z</time>
      </trkpt>
      <trkpt lat="44.92608" lon="4.1911">
        <ele>1482.5</ele>
        <time>2026-05-07T12:21:15Z</time>
      </trkpt>
      <trkpt lat="44.92607" lon="4.19107">
        <ele>1482.8</ele>
        <time>2026-05-07T12:21:20Z</time>
      </trkpt>
      <trkpt lat="44.92607" lon="4.19106">
        <ele>1482.9</ele>
        <time>2026-05-07T12:21:25Z</time>
      </trkpt>
      <trkpt lat="44.92602" lon="4.19103">
        <ele>1483.6</ele>
        <time>2026-05-07T12:21:30Z</time>
      </trkpt>
      <trkpt lat="44.92595" lon="4.19103">
        <ele>1484</ele>
        <time>2026-05-07T12:21:35Z</time>
      </trkpt>
      <trkpt lat="44.92595" lon="4.19103">
        <ele>1484</ele>
        <time>2026-05-07T12:21:40Z</time>
      </trkpt>
      <trkpt lat="44.92595" lon="4.19103">
        <ele>1484</ele>
        <time>2026-05-07T12:21:45Z</time>
      </trkpt>
      <trkpt lat="44.92595" lon="4.19103">
        <ele>1484</ele>
        <time>2026-05-07T12:21:50Z</time>
      </trkpt>
      <trkpt lat="44.92589" lon="4.19103">
        <ele>1484.4</ele>
        <time>2026-05-07T12:21:55Z</time>
      </trkpt>
      <trkpt lat="44.92583" lon="4.19101">
        <ele>1485</ele>
        <time>2026-05-07T12:22:00Z</time>
      </trkpt>
      <trkpt lat="44.92579" lon="4.191">
        <ele>1485.5</ele>
        <time>2026-05-07T12:22:05Z</time>
      </trkpt>
      <trkpt lat="44.92574" lon="4.19098">
        <ele>1486.3</ele>
        <time>2026-05-07T12:22:10Z</time>
      </trkpt>
      <trkpt lat="44.92568" lon="4.19096">
        <ele>1487.1</ele>
        <time>2026-05-07T12:22:15Z</time>
      </trkpt>
      <trkpt lat="44.92566" lon="4.19092">
        <ele>1487.6</ele>
        <time>2026-05-07T12:22:20Z</time>
      </trkpt>
      <trkpt lat="44.9256" lon="4.19093">
        <ele>1488.3</ele>
        <time>2026-05-07T12:22:25Z</time>
      </trkpt>
      <trkpt lat="44.92554" lon="4.19094">
        <ele>1488.9</ele>
        <time>2026-05-07T12:22:30Z</time>
      </trkpt>
      <trkpt lat="44.92548" lon="4.19093">
        <ele>1489.7</ele>
        <time>2026-05-07T12:22:35Z</time>
      </trkpt>
      <trkpt lat="44.92542" lon="4.19093">
        <ele>1490.4</ele>
        <time>2026-05-07T12:22:40Z</time>
      </trkpt>
      <trkpt lat="44.92537" lon="4.19093">
        <ele>1491</ele>
        <time>2026-05-07T12:22:45Z</time>
      </trkpt>
      <trkpt lat="44.92532" lon="4.19093">
        <ele>1491.7</ele>
        <time>2026-05-07T12:22:50Z</time>
      </trkpt>
      <trkpt lat="44.92529" lon="4.19093">
        <ele>1492</ele>
        <time>2026-05-07T12:22:55Z</time>
      </trkpt>
      <trkpt lat="44.92526" lon="4.19089">
        <ele>1492.6</ele>
        <time>2026-05-07T12:23:00Z</time>
      </trkpt>
      <trkpt lat="44.92523" lon="4.19085">
        <ele>1493.2</ele>
        <time>2026-05-07T12:23:05Z</time>
      </trkpt>
      <trkpt lat="44.92522" lon="4.19081">
        <ele>1493.5</ele>
        <time>2026-05-07T12:23:10Z</time>
      </trkpt>
      <trkpt lat="44.92519" lon="4.19073">
        <ele>1494.4</ele>
        <time>2026-05-07T12:23:15Z</time>
      </trkpt>
      <trkpt lat="44.92517" lon="4.19065">
        <ele>1495.1</ele>
        <time>2026-05-07T12:23:20Z</time>
      </trkpt>
      <trkpt lat="44.92514" lon="4.1906">
        <ele>1495.8</ele>
        <time>2026-05-07T12:23:25Z</time>
      </trkpt>
      <trkpt lat="44.92513" lon="4.19054">
        <ele>1496.3</ele>
        <time>2026-05-07T12:23:30Z</time>
      </trkpt>
      <trkpt lat="44.92512" lon="4.19047">
        <ele>1496.9</ele>
        <time>2026-05-07T12:23:35Z</time>
      </trkpt>
      <trkpt lat="44.92509" lon="4.19041">
        <ele>1497.6</ele>
        <time>2026-05-07T12:23:40Z</time>
      </trkpt>
      <trkpt lat="44.92509" lon="4.19034">
        <ele>1498</ele>
        <time>2026-05-07T12:23:45Z</time>
      </trkpt>
      <trkpt lat="44.92507" lon="4.19027">
        <ele>1498.7</ele>
        <time>2026-05-07T12:23:50Z</time>
      </trkpt>
      <trkpt lat="44.92506" lon="4.19021">
        <ele>1499.1</ele>
        <time>2026-05-07T12:23:55Z</time>
      </trkpt>
      <trkpt lat="44.92505" lon="4.19015">
        <ele>1499.6</ele>
        <time>2026-05-07T12:24:00Z</time>
      </trkpt>
      <trkpt lat="44.92505" lon="4.19009">
        <ele>1500</ele>
        <time>2026-05-07T12:24:05Z</time>
      </trkpt>
      <trkpt lat="44.92504" lon="4.19002">
        <ele>1500.5</ele>
        <time>2026-05-07T12:24:10Z</time>
      </trkpt>
      <trkpt lat="44.92505" lon="4.18998">
        <ele>1500.5</ele>
        <time>2026-05-07T12:24:15Z</time>
      </trkpt>
      <trkpt lat="44.92507" lon="4.18997">
        <ele>1500.3</ele>
        <time>2026-05-07T12:24:20Z</time>
      </trkpt>
      <trkpt lat="44.92507" lon="4.18997">
        <ele>1500.3</ele>
        <time>2026-05-07T12:24:25Z</time>
      </trkpt>
      <trkpt lat="44.92507" lon="4.18997">
        <ele>1500.3</ele>
        <time>2026-05-07T12:24:30Z</time>
      </trkpt>
      <trkpt lat="44.92507" lon="4.18995">
        <ele>1500.2</ele>
        <time>2026-05-07T12:24:35Z</time>
      </trkpt>
      <trkpt lat="44.92505" lon="4.18988">
        <ele>1500.3</ele>
        <time>2026-05-07T12:24:40Z</time>
      </trkpt>
      <trkpt lat="44.92502" lon="4.18981">
        <ele>1500.4</ele>
        <time>2026-05-07T12:24:45Z</time>
      </trkpt>
      <trkpt lat="44.925" lon="4.18972">
        <ele>1500.3</ele>
        <time>2026-05-07T12:24:50Z</time>
      </trkpt>
      <trkpt lat="44.92501" lon="4.18966">
        <ele>1500.1</ele>
        <time>2026-05-07T12:24:55Z</time>
      </trkpt>
      <trkpt lat="44.925" lon="4.18958">
        <ele>1500</ele>
        <time>2026-05-07T12:25:00Z</time>
      </trkpt>
      <trkpt lat="44.92498" lon="4.18951">
        <ele>1500</ele>
        <time>2026-05-07T12:25:05Z</time>
      </trkpt>
      <trkpt lat="44.92497" lon="4.18944">
        <ele>1499.9</ele>
        <time>2026-05-07T12:25:10Z</time>
      </trkpt>
      <trkpt lat="44.92497" lon="4.18938">
        <ele>1499.7</ele>
        <time>2026-05-07T12:25:15Z</time>
      </trkpt>
      <trkpt lat="44.92499" lon="4.18935">
        <ele>1499.5</ele>
        <time>2026-05-07T12:25:20Z</time>
      </trkpt>
      <trkpt lat="44.92499" lon="4.18935">
        <ele>1499.5</ele>
        <time>2026-05-07T12:25:25Z</time>
      </trkpt>
      <trkpt lat="44.92499" lon="4.18935">
        <ele>1499.5</ele>
        <time>2026-05-07T12:25:30Z</time>
      </trkpt>
      <trkpt lat="44.92499" lon="4.18935">
        <ele>1499.5</ele>
        <time>2026-05-07T12:25:35Z</time>
      </trkpt>
      <trkpt lat="44.92499" lon="4.18935">
        <ele>1499.5</ele>
        <time>2026-05-07T12:25:40Z</time>
      </trkpt>
      <trkpt lat="44.92499" lon="4.18935">
        <ele>1499.5</ele>
        <time>2026-05-07T12:25:45Z</time>
      </trkpt>
      <trkpt lat="44.92499" lon="4.18935">
        <ele>1499.5</ele>
        <time>2026-05-07T12:25:50Z</time>
      </trkpt>
      <trkpt lat="44.92492" lon="4.18944">
        <ele>1500.2</ele>
        <time>2026-05-07T12:25:55Z</time>
      </trkpt>
      <trkpt lat="44.92485" lon="4.18944">
        <ele>1500.7</ele>
        <time>2026-05-07T12:26:00Z</time>
      </trkpt>
      <trkpt lat="44.92477" lon="4.18942">
        <ele>1501.2</ele>
        <time>2026-05-07T12:26:05Z</time>
      </trkpt>
      <trkpt lat="44.92472" lon="4.1894">
        <ele>1501.5</ele>
        <time>2026-05-07T12:26:10Z</time>
      </trkpt>
      <trkpt lat="44.92465" lon="4.18938">
        <ele>1501.9</ele>
        <time>2026-05-07T12:26:15Z</time>
      </trkpt>
      <trkpt lat="44.92459" lon="4.18937">
        <ele>1502.3</ele>
        <time>2026-05-07T12:26:20Z</time>
      </trkpt>
      <trkpt lat="44.92451" lon="4.18935">
        <ele>1502.8</ele>
        <time>2026-05-07T12:26:25Z</time>
      </trkpt>
      <trkpt lat="44.92445" lon="4.18933">
        <ele>1503.1</ele>
        <time>2026-05-07T12:26:30Z</time>
      </trkpt>
      <trkpt lat="44.92438" lon="4.18931">
        <ele>1503.4</ele>
        <time>2026-05-07T12:26:35Z</time>
      </trkpt>
      <trkpt lat="44.92431" lon="4.1893">
        <ele>1503.9</ele>
        <time>2026-05-07T12:26:40Z</time>
      </trkpt>
      <trkpt lat="44.92425" lon="4.18929">
        <ele>1504.2</ele>
        <time>2026-05-07T12:26:45Z</time>
      </trkpt>
      <trkpt lat="44.92418" lon="4.18927">
        <ele>1504.5</ele>
        <time>2026-05-07T12:26:50Z</time>
      </trkpt>
      <trkpt lat="44.9241" lon="4.18926">
        <ele>1505</ele>
        <time>2026-05-07T12:26:55Z</time>
      </trkpt>
      <trkpt lat="44.92404" lon="4.18926">
        <ele>1505.4</ele>
        <time>2026-05-07T12:27:00Z</time>
      </trkpt>
      <trkpt lat="44.92399" lon="4.18926">
        <ele>1505.8</ele>
        <time>2026-05-07T12:27:05Z</time>
      </trkpt>
      <trkpt lat="44.92392" lon="4.18926">
        <ele>1506.3</ele>
        <time>2026-05-07T12:27:10Z</time>
      </trkpt>
      <trkpt lat="44.92384" lon="4.18925">
        <ele>1506.8</ele>
        <time>2026-05-07T12:27:15Z</time>
      </trkpt>
      <trkpt lat="44.92377" lon="4.18925">
        <ele>1507.3</ele>
        <time>2026-05-07T12:27:20Z</time>
      </trkpt>
      <trkpt lat="44.92372" lon="4.18925">
        <ele>1507.6</ele>
        <time>2026-05-07T12:27:25Z</time>
      </trkpt>
      <trkpt lat="44.92368" lon="4.18925">
        <ele>1507.9</ele>
        <time>2026-05-07T12:27:30Z</time>
      </trkpt>
      <trkpt lat="44.92362" lon="4.18924">
        <ele>1508.3</ele>
        <time>2026-05-07T12:27:35Z</time>
      </trkpt>
      <trkpt lat="44.92356" lon="4.18925">
        <ele>1508.7</ele>
        <time>2026-05-07T12:27:40Z</time>
      </trkpt>
      <trkpt lat="44.9235" lon="4.18925">
        <ele>1509.1</ele>
        <time>2026-05-07T12:27:45Z</time>
      </trkpt>
      <trkpt lat="44.92344" lon="4.18925">
        <ele>1509.6</ele>
        <time>2026-05-07T12:27:50Z</time>
      </trkpt>
      <trkpt lat="44.92338" lon="4.18925">
        <ele>1510</ele>
        <time>2026-05-07T12:27:55Z</time>
      </trkpt>
      <trkpt lat="44.92331" lon="4.18924">
        <ele>1510.6</ele>
        <time>2026-05-07T12:28:00Z</time>
      </trkpt>
      <trkpt lat="44.92324" lon="4.18921">
        <ele>1511.4</ele>
        <time>2026-05-07T12:28:05Z</time>
      </trkpt>
      <trkpt lat="44.92318" lon="4.18921">
        <ele>1512.2</ele>
        <time>2026-05-07T12:28:10Z</time>
      </trkpt>
      <trkpt lat="44.92311" lon="4.18922">
        <ele>1513.1</ele>
        <time>2026-05-07T12:28:15Z</time>
      </trkpt>
      <trkpt lat="44.92306" lon="4.18921">
        <ele>1513.8</ele>
        <time>2026-05-07T12:28:20Z</time>
      </trkpt>
      <trkpt lat="44.923" lon="4.18919">
        <ele>1514.5</ele>
        <time>2026-05-07T12:28:25Z</time>
      </trkpt>
      <trkpt lat="44.92294" lon="4.18917">
        <ele>1515.2</ele>
        <time>2026-05-07T12:28:30Z</time>
      </trkpt>
      <trkpt lat="44.92289" lon="4.18916">
        <ele>1515.8</ele>
        <time>2026-05-07T12:28:35Z</time>
      </trkpt>
      <trkpt lat="44.92283" lon="4.18914">
        <ele>1516.5</ele>
        <time>2026-05-07T12:28:40Z</time>
      </trkpt>
      <trkpt lat="44.92276" lon="4.18911">
        <ele>1517.3</ele>
        <time>2026-05-07T12:28:45Z</time>
      </trkpt>
      <trkpt lat="44.92271" lon="4.18909">
        <ele>1517.9</ele>
        <time>2026-05-07T12:28:50Z</time>
      </trkpt>
      <trkpt lat="44.92265" lon="4.18909">
        <ele>1518.7</ele>
        <time>2026-05-07T12:28:55Z</time>
      </trkpt>
      <trkpt lat="44.9226" lon="4.18907">
        <ele>1519.2</ele>
        <time>2026-05-07T12:29:00Z</time>
      </trkpt>
      <trkpt lat="44.92255" lon="4.18905">
        <ele>1519.8</ele>
        <time>2026-05-07T12:29:05Z</time>
      </trkpt>
      <trkpt lat="44.9225" lon="4.18904">
        <ele>1520.4</ele>
        <time>2026-05-07T12:29:10Z</time>
      </trkpt>
      <trkpt lat="44.92245" lon="4.18901">
        <ele>1520.9</ele>
        <time>2026-05-07T12:29:15Z</time>
      </trkpt>
      <trkpt lat="44.9224" lon="4.18898">
        <ele>1521.5</ele>
        <time>2026-05-07T12:29:20Z</time>
      </trkpt>
      <trkpt lat="44.92234" lon="4.18895">
        <ele>1522.2</ele>
        <time>2026-05-07T12:29:25Z</time>
      </trkpt>
      <trkpt lat="44.92229" lon="4.18891">
        <ele>1522.7</ele>
        <time>2026-05-07T12:29:30Z</time>
      </trkpt>
      <trkpt lat="44.92225" lon="4.18887">
        <ele>1523.1</ele>
        <time>2026-05-07T12:29:35Z</time>
      </trkpt>
      <trkpt lat="44.92219" lon="4.18886">
        <ele>1523.9</ele>
        <time>2026-05-07T12:29:40Z</time>
      </trkpt>
      <trkpt lat="44.92214" lon="4.1888">
        <ele>1524.4</ele>
        <time>2026-05-07T12:29:45Z</time>
      </trkpt>
      <trkpt lat="44.92209" lon="4.18875">
        <ele>1524.9</ele>
        <time>2026-05-07T12:29:50Z</time>
      </trkpt>
      <trkpt lat="44.92204" lon="4.18871">
        <ele>1525.5</ele>
        <time>2026-05-07T12:29:55Z</time>
      </trkpt>
      <trkpt lat="44.92199" lon="4.18867">
        <ele>1526.1</ele>
        <time>2026-05-07T12:30:00Z</time>
      </trkpt>
      <trkpt lat="44.92195" lon="4.18862">
        <ele>1526.5</ele>
        <time>2026-05-07T12:30:05Z</time>
      </trkpt>
      <trkpt lat="44.9219" lon="4.18856">
        <ele>1527.1</ele>
        <time>2026-05-07T12:30:10Z</time>
      </trkpt>
      <trkpt lat="44.92184" lon="4.18851">
        <ele>1527.8</ele>
        <time>2026-05-07T12:30:15Z</time>
      </trkpt>
      <trkpt lat="44.9218" lon="4.18847">
        <ele>1528.3</ele>
        <time>2026-05-07T12:30:20Z</time>
      </trkpt>
      <trkpt lat="44.92174" lon="4.18841">
        <ele>1529.1</ele>
        <time>2026-05-07T12:30:25Z</time>
      </trkpt>
      <trkpt lat="44.9217" lon="4.18835">
        <ele>1529.5</ele>
        <time>2026-05-07T12:30:30Z</time>
      </trkpt>
      <trkpt lat="44.92166" lon="4.18828">
        <ele>1529.9</ele>
        <time>2026-05-07T12:30:35Z</time>
      </trkpt>
      <trkpt lat="44.9216" lon="4.18824">
        <ele>1530.9</ele>
        <time>2026-05-07T12:30:40Z</time>
      </trkpt>
      <trkpt lat="44.92157" lon="4.18819">
        <ele>1531.2</ele>
        <time>2026-05-07T12:30:45Z</time>
      </trkpt>
      <trkpt lat="44.92152" lon="4.18809">
        <ele>1531.8</ele>
        <time>2026-05-07T12:30:50Z</time>
      </trkpt>
      <trkpt lat="44.92148" lon="4.18803">
        <ele>1532.3</ele>
        <time>2026-05-07T12:30:55Z</time>
      </trkpt>
      <trkpt lat="44.92142" lon="4.18794">
        <ele>1533</ele>
        <time>2026-05-07T12:31:00Z</time>
      </trkpt>
      <trkpt lat="44.92137" lon="4.18788">
        <ele>1533.7</ele>
        <time>2026-05-07T12:31:05Z</time>
      </trkpt>
      <trkpt lat="44.92132" lon="4.1878">
        <ele>1534.3</ele>
        <time>2026-05-07T12:31:10Z</time>
      </trkpt>
      <trkpt lat="44.92128" lon="4.18771">
        <ele>1534.7</ele>
        <time>2026-05-07T12:31:15Z</time>
      </trkpt>
      <trkpt lat="44.92122" lon="4.18764">
        <ele>1535.5</ele>
        <time>2026-05-07T12:31:20Z</time>
      </trkpt>
      <trkpt lat="44.92118" lon="4.18759">
        <ele>1536.1</ele>
        <time>2026-05-07T12:31:25Z</time>
      </trkpt>
      <trkpt lat="44.92113" lon="4.18753">
        <ele>1536.8</ele>
        <time>2026-05-07T12:31:30Z</time>
      </trkpt>
      <trkpt lat="44.92107" lon="4.18746">
        <ele>1537.6</ele>
        <time>2026-05-07T12:31:35Z</time>
      </trkpt>
      <trkpt lat="44.92102" lon="4.18741">
        <ele>1538.2</ele>
        <time>2026-05-07T12:31:40Z</time>
      </trkpt>
      <trkpt lat="44.92096" lon="4.18734">
        <ele>1538.9</ele>
        <time>2026-05-07T12:31:45Z</time>
      </trkpt>
      <trkpt lat="44.92092" lon="4.18728">
        <ele>1539.2</ele>
        <time>2026-05-07T12:31:50Z</time>
      </trkpt>
      <trkpt lat="44.92088" lon="4.18722">
        <ele>1539.6</ele>
        <time>2026-05-07T12:31:55Z</time>
      </trkpt>
      <trkpt lat="44.92083" lon="4.18715">
        <ele>1539.9</ele>
        <time>2026-05-07T12:32:00Z</time>
      </trkpt>
      <trkpt lat="44.92081" lon="4.1871">
        <ele>1539.9</ele>
        <time>2026-05-07T12:32:05Z</time>
      </trkpt>
      <trkpt lat="44.92077" lon="4.18702">
        <ele>1540</ele>
        <time>2026-05-07T12:32:10Z</time>
      </trkpt>
      <trkpt lat="44.92073" lon="4.18697">
        <ele>1540.3</ele>
        <time>2026-05-07T12:32:15Z</time>
      </trkpt>
      <trkpt lat="44.92068" lon="4.18691">
        <ele>1540.7</ele>
        <time>2026-05-07T12:32:20Z</time>
      </trkpt>
      <trkpt lat="44.92064" lon="4.18686">
        <ele>1541.1</ele>
        <time>2026-05-07T12:32:25Z</time>
      </trkpt>
      <trkpt lat="44.9206" lon="4.1868">
        <ele>1541.4</ele>
        <time>2026-05-07T12:32:30Z</time>
      </trkpt>
      <trkpt lat="44.92057" lon="4.18672">
        <ele>1541.4</ele>
        <time>2026-05-07T12:32:35Z</time>
      </trkpt>
      <trkpt lat="44.92052" lon="4.18664">
        <ele>1541.7</ele>
        <time>2026-05-07T12:32:40Z</time>
      </trkpt>
      <trkpt lat="44.92048" lon="4.18656">
        <ele>1541.8</ele>
        <time>2026-05-07T12:32:45Z</time>
      </trkpt>
      <trkpt lat="44.92042" lon="4.18648">
        <ele>1542.2</ele>
        <time>2026-05-07T12:32:50Z</time>
      </trkpt>
      <trkpt lat="44.92036" lon="4.18636">
        <ele>1542.3</ele>
        <time>2026-05-07T12:32:55Z</time>
      </trkpt>
      <trkpt lat="44.92031" lon="4.18629">
        <ele>1542.5</ele>
        <time>2026-05-07T12:33:00Z</time>
      </trkpt>
      <trkpt lat="44.92026" lon="4.1862">
        <ele>1542.5</ele>
        <time>2026-05-07T12:33:05Z</time>
      </trkpt>
      <trkpt lat="44.92025" lon="4.18615">
        <ele>1542.3</ele>
        <time>2026-05-07T12:33:10Z</time>
      </trkpt>
      <trkpt lat="44.92025" lon="4.18615">
        <ele>1542.3</ele>
        <time>2026-05-07T12:33:15Z</time>
      </trkpt>
      <trkpt lat="44.92023" lon="4.18612">
        <ele>1542.4</ele>
        <time>2026-05-07T12:33:20Z</time>
      </trkpt>
      <trkpt lat="44.92017" lon="4.18605">
        <ele>1542.6</ele>
        <time>2026-05-07T12:33:25Z</time>
      </trkpt>
      <trkpt lat="44.92011" lon="4.18596">
        <ele>1542.7</ele>
        <time>2026-05-07T12:33:30Z</time>
      </trkpt>
      <trkpt lat="44.92006" lon="4.18587">
        <ele>1542.6</ele>
        <time>2026-05-07T12:33:35Z</time>
      </trkpt>
      <trkpt lat="44.92002" lon="4.18579">
        <ele>1542.5</ele>
        <time>2026-05-07T12:33:40Z</time>
      </trkpt>
      <trkpt lat="44.91999" lon="4.18572">
        <ele>1542.5</ele>
        <time>2026-05-07T12:33:45Z</time>
      </trkpt>
      <trkpt lat="44.91996" lon="4.18564">
        <ele>1542.4</ele>
        <time>2026-05-07T12:33:50Z</time>
      </trkpt>
      <trkpt lat="44.91992" lon="4.18554">
        <ele>1542.3</ele>
        <time>2026-05-07T12:33:55Z</time>
      </trkpt>
      <trkpt lat="44.9199" lon="4.18546">
        <ele>1542.1</ele>
        <time>2026-05-07T12:34:00Z</time>
      </trkpt>
      <trkpt lat="44.91985" lon="4.18538">
        <ele>1542.1</ele>
        <time>2026-05-07T12:34:05Z</time>
      </trkpt>
      <trkpt lat="44.91981" lon="4.1853">
        <ele>1542</ele>
        <time>2026-05-07T12:34:10Z</time>
      </trkpt>
      <trkpt lat="44.91976" lon="4.18522">
        <ele>1542</ele>
        <time>2026-05-07T12:34:15Z</time>
      </trkpt>
      <trkpt lat="44.91972" lon="4.18513">
        <ele>1541.7</ele>
        <time>2026-05-07T12:34:20Z</time>
      </trkpt>
      <trkpt lat="44.91969" lon="4.18507">
        <ele>1541.6</ele>
        <time>2026-05-07T12:34:25Z</time>
      </trkpt>
      <trkpt lat="44.91971" lon="4.18505">
        <ele>1541.2</ele>
        <time>2026-05-07T12:34:30Z</time>
      </trkpt>
      <trkpt lat="44.91971" lon="4.18497">
        <ele>1540.6</ele>
        <time>2026-05-07T12:34:35Z</time>
      </trkpt>
      <trkpt lat="44.9197" lon="4.1849">
        <ele>1540.2</ele>
        <time>2026-05-07T12:34:40Z</time>
      </trkpt>
      <trkpt lat="44.91967" lon="4.18482">
        <ele>1540</ele>
        <time>2026-05-07T12:34:45Z</time>
      </trkpt>
      <trkpt lat="44.91963" lon="4.18475">
        <ele>1539.9</ele>
        <time>2026-05-07T12:34:50Z</time>
      </trkpt>
      <trkpt lat="44.91959" lon="4.18471">
        <ele>1540</ele>
        <time>2026-05-07T12:34:55Z</time>
      </trkpt>
      <trkpt lat="44.91955" lon="4.18465">
        <ele>1540</ele>
        <time>2026-05-07T12:35:00Z</time>
      </trkpt>
      <trkpt lat="44.9195" lon="4.18459">
        <ele>1540</ele>
        <time>2026-05-07T12:35:05Z</time>
      </trkpt>
      <trkpt lat="44.91946" lon="4.1845">
        <ele>1539.8</ele>
        <time>2026-05-07T12:35:10Z</time>
      </trkpt>
      <trkpt lat="44.91942" lon="4.18443">
        <ele>1539.7</ele>
        <time>2026-05-07T12:35:15Z</time>
      </trkpt>
      <trkpt lat="44.91939" lon="4.1844">
        <ele>1539.7</ele>
        <time>2026-05-07T12:35:20Z</time>
      </trkpt>
      <trkpt lat="44.91935" lon="4.18436">
        <ele>1539.8</ele>
        <time>2026-05-07T12:35:25Z</time>
      </trkpt>
      <trkpt lat="44.91929" lon="4.1843">
        <ele>1539.9</ele>
        <time>2026-05-07T12:35:30Z</time>
      </trkpt>
      <trkpt lat="44.91924" lon="4.18426">
        <ele>1540</ele>
        <time>2026-05-07T12:35:35Z</time>
      </trkpt>
      <trkpt lat="44.91918" lon="4.1842">
        <ele>1540.1</ele>
        <time>2026-05-07T12:35:40Z</time>
      </trkpt>
      <trkpt lat="44.91911" lon="4.18413">
        <ele>1541</ele>
        <time>2026-05-07T12:35:45Z</time>
      </trkpt>
      <trkpt lat="44.91905" lon="4.18408">
        <ele>1541.9</ele>
        <time>2026-05-07T12:35:50Z</time>
      </trkpt>
      <trkpt lat="44.91899" lon="4.18402">
        <ele>1542.9</ele>
        <time>2026-05-07T12:35:55Z</time>
      </trkpt>
      <trkpt lat="44.91893" lon="4.18398">
        <ele>1543.9</ele>
        <time>2026-05-07T12:36:00Z</time>
      </trkpt>
      <trkpt lat="44.91889" lon="4.18389">
        <ele>1544.2</ele>
        <time>2026-05-07T12:36:05Z</time>
      </trkpt>
      <trkpt lat="44.91884" lon="4.18383">
        <ele>1544.9</ele>
        <time>2026-05-07T12:36:10Z</time>
      </trkpt>
      <trkpt lat="44.9188" lon="4.18377">
        <ele>1545.4</ele>
        <time>2026-05-07T12:36:15Z</time>
      </trkpt>
      <trkpt lat="44.91874" lon="4.1837">
        <ele>1546.2</ele>
        <time>2026-05-07T12:36:20Z</time>
      </trkpt>
      <trkpt lat="44.91868" lon="4.18364">
        <ele>1547</ele>
        <time>2026-05-07T12:36:25Z</time>
      </trkpt>
      <trkpt lat="44.91863" lon="4.18355">
        <ele>1547.5</ele>
        <time>2026-05-07T12:36:30Z</time>
      </trkpt>
      <trkpt lat="44.91858" lon="4.18348">
        <ele>1548.1</ele>
        <time>2026-05-07T12:36:35Z</time>
      </trkpt>
      <trkpt lat="44.91852" lon="4.18341">
        <ele>1548.9</ele>
        <time>2026-05-07T12:36:40Z</time>
      </trkpt>
      <trkpt lat="44.91847" lon="4.18332">
        <ele>1549.3</ele>
        <time>2026-05-07T12:36:45Z</time>
      </trkpt>
      <trkpt lat="44.91842" lon="4.18324">
        <ele>1550.1</ele>
        <time>2026-05-07T12:36:50Z</time>
      </trkpt>
      <trkpt lat="44.91838" lon="4.18318">
        <ele>1550.7</ele>
        <time>2026-05-07T12:36:55Z</time>
      </trkpt>
      <trkpt lat="44.91833" lon="4.18309">
        <ele>1551.5</ele>
        <time>2026-05-07T12:37:00Z</time>
      </trkpt>
      <trkpt lat="44.91828" lon="4.183">
        <ele>1552.5</ele>
        <time>2026-05-07T12:37:05Z</time>
      </trkpt>
      <trkpt lat="44.91825" lon="4.18294">
        <ele>1553.1</ele>
        <time>2026-05-07T12:37:10Z</time>
      </trkpt>
      <trkpt lat="44.91822" lon="4.18287">
        <ele>1553.7</ele>
        <time>2026-05-07T12:37:15Z</time>
      </trkpt>
      <trkpt lat="44.91817" lon="4.18279">
        <ele>1554.7</ele>
        <time>2026-05-07T12:37:20Z</time>
      </trkpt>
      <trkpt lat="44.91813" lon="4.18272">
        <ele>1555.5</ele>
        <time>2026-05-07T12:37:25Z</time>
      </trkpt>
      <trkpt lat="44.9181" lon="4.18266">
        <ele>1556</ele>
        <time>2026-05-07T12:37:30Z</time>
      </trkpt>
      <trkpt lat="44.91807" lon="4.18259">
        <ele>1556.6</ele>
        <time>2026-05-07T12:37:35Z</time>
      </trkpt>
      <trkpt lat="44.91804" lon="4.18253">
        <ele>1557.1</ele>
        <time>2026-05-07T12:37:40Z</time>
      </trkpt>
      <trkpt lat="44.91799" lon="4.18246">
        <ele>1558.1</ele>
        <time>2026-05-07T12:37:45Z</time>
      </trkpt>
      <trkpt lat="44.91795" lon="4.1824">
        <ele>1558.8</ele>
        <time>2026-05-07T12:37:50Z</time>
      </trkpt>
      <trkpt lat="44.91791" lon="4.18234">
        <ele>1559.6</ele>
        <time>2026-05-07T12:37:55Z</time>
      </trkpt>
      <trkpt lat="44.91788" lon="4.18226">
        <ele>1560</ele>
        <time>2026-05-07T12:38:00Z</time>
      </trkpt>
      <trkpt lat="44.91785" lon="4.18221">
        <ele>1560.6</ele>
        <time>2026-05-07T12:38:05Z</time>
      </trkpt>
      <trkpt lat="44.91784" lon="4.18214">
        <ele>1560.5</ele>
        <time>2026-05-07T12:38:10Z</time>
      </trkpt>
      <trkpt lat="44.9178" lon="4.18207">
        <ele>1561.3</ele>
        <time>2026-05-07T12:38:15Z</time>
      </trkpt>
      <trkpt lat="44.91776" lon="4.182">
        <ele>1562</ele>
        <time>2026-05-07T12:38:20Z</time>
      </trkpt>
      <trkpt lat="44.91773" lon="4.18193">
        <ele>1562.4</ele>
        <time>2026-05-07T12:38:25Z</time>
      </trkpt>
      <trkpt lat="44.91769" lon="4.18188">
        <ele>1563.2</ele>
        <time>2026-05-07T12:38:30Z</time>
      </trkpt>
      <trkpt lat="44.91767" lon="4.18182">
        <ele>1563.5</ele>
        <time>2026-05-07T12:38:35Z</time>
      </trkpt>
      <trkpt lat="44.91763" lon="4.18177">
        <ele>1564.3</ele>
        <time>2026-05-07T12:38:40Z</time>
      </trkpt>
      <trkpt lat="44.91761" lon="4.18173">
        <ele>1564.6</ele>
        <time>2026-05-07T12:38:45Z</time>
      </trkpt>
      <trkpt lat="44.91757" lon="4.18168">
        <ele>1565.4</ele>
        <time>2026-05-07T12:38:50Z</time>
      </trkpt>
      <trkpt lat="44.91754" lon="4.18163">
        <ele>1565.9</ele>
        <time>2026-05-07T12:38:55Z</time>
      </trkpt>
      <trkpt lat="44.91749" lon="4.18158">
        <ele>1566.9</ele>
        <time>2026-05-07T12:39:00Z</time>
      </trkpt>
      <trkpt lat="44.91747" lon="4.18153">
        <ele>1567</ele>
        <time>2026-05-07T12:39:05Z</time>
      </trkpt>
      <trkpt lat="44.91745" lon="4.18148">
        <ele>1567.2</ele>
        <time>2026-05-07T12:39:10Z</time>
      </trkpt>
      <trkpt lat="44.91742" lon="4.18142">
        <ele>1567.5</ele>
        <time>2026-05-07T12:39:15Z</time>
      </trkpt>
      <trkpt lat="44.91739" lon="4.18137">
        <ele>1567.8</ele>
        <time>2026-05-07T12:39:20Z</time>
      </trkpt>
      <trkpt lat="44.91736" lon="4.18132">
        <ele>1568.1</ele>
        <time>2026-05-07T12:39:25Z</time>
      </trkpt>
      <trkpt lat="44.91732" lon="4.18127">
        <ele>1568.6</ele>
        <time>2026-05-07T12:39:30Z</time>
      </trkpt>
      <trkpt lat="44.91729" lon="4.18121">
        <ele>1568.9</ele>
        <time>2026-05-07T12:39:35Z</time>
      </trkpt>
      <trkpt lat="44.91726" lon="4.18116">
        <ele>1569.2</ele>
        <time>2026-05-07T12:39:40Z</time>
      </trkpt>
      <trkpt lat="44.91725" lon="4.18111">
        <ele>1569.2</ele>
        <time>2026-05-07T12:39:45Z</time>
      </trkpt>
      <trkpt lat="44.91721" lon="4.18105">
        <ele>1569.7</ele>
        <time>2026-05-07T12:39:50Z</time>
      </trkpt>
      <trkpt lat="44.91718" lon="4.18099">
        <ele>1569.9</ele>
        <time>2026-05-07T12:39:55Z</time>
      </trkpt>
      <trkpt lat="44.91715" lon="4.18093">
        <ele>1570.2</ele>
        <time>2026-05-07T12:40:00Z</time>
      </trkpt>
      <trkpt lat="44.91712" lon="4.18087">
        <ele>1570.5</ele>
        <time>2026-05-07T12:40:05Z</time>
      </trkpt>
      <trkpt lat="44.91709" lon="4.18083">
        <ele>1570.9</ele>
        <time>2026-05-07T12:40:10Z</time>
      </trkpt>
      <trkpt lat="44.91707" lon="4.18079">
        <ele>1571</ele>
        <time>2026-05-07T12:40:15Z</time>
      </trkpt>
      <trkpt lat="44.91704" lon="4.18075">
        <ele>1571.4</ele>
        <time>2026-05-07T12:40:20Z</time>
      </trkpt>
      <trkpt lat="44.91701" lon="4.1807">
        <ele>1571.7</ele>
        <time>2026-05-07T12:40:25Z</time>
      </trkpt>
      <trkpt lat="44.91699" lon="4.18064">
        <ele>1571.8</ele>
        <time>2026-05-07T12:40:30Z</time>
      </trkpt>
      <trkpt lat="44.91697" lon="4.1806">
        <ele>1572</ele>
        <time>2026-05-07T12:40:35Z</time>
      </trkpt>
      <trkpt lat="44.91695" lon="4.18054">
        <ele>1572.2</ele>
        <time>2026-05-07T12:40:40Z</time>
      </trkpt>
      <trkpt lat="44.91692" lon="4.18047">
        <ele>1572.5</ele>
        <time>2026-05-07T12:40:45Z</time>
      </trkpt>
      <trkpt lat="44.91689" lon="4.18041">
        <ele>1572.8</ele>
        <time>2026-05-07T12:40:50Z</time>
      </trkpt>
      <trkpt lat="44.91686" lon="4.18035">
        <ele>1573.2</ele>
        <time>2026-05-07T12:40:55Z</time>
      </trkpt>
      <trkpt lat="44.91682" lon="4.18029">
        <ele>1573.8</ele>
        <time>2026-05-07T12:41:00Z</time>
      </trkpt>
      <trkpt lat="44.91678" lon="4.18022">
        <ele>1574.3</ele>
        <time>2026-05-07T12:41:05Z</time>
      </trkpt>
      <trkpt lat="44.91675" lon="4.18017">
        <ele>1574.8</ele>
        <time>2026-05-07T12:41:10Z</time>
      </trkpt>
      <trkpt lat="44.91671" lon="4.18009">
        <ele>1575.3</ele>
        <time>2026-05-07T12:41:15Z</time>
      </trkpt>
      <trkpt lat="44.91668" lon="4.18002">
        <ele>1575.8</ele>
        <time>2026-05-07T12:41:20Z</time>
      </trkpt>
      <trkpt lat="44.91664" lon="4.17996">
        <ele>1576.1</ele>
        <time>2026-05-07T12:41:25Z</time>
      </trkpt>
      <trkpt lat="44.91661" lon="4.17989">
        <ele>1576.1</ele>
        <time>2026-05-07T12:41:30Z</time>
      </trkpt>
      <trkpt lat="44.91658" lon="4.17982">
        <ele>1576</ele>
        <time>2026-05-07T12:41:35Z</time>
      </trkpt>
      <trkpt lat="44.91654" lon="4.17975">
        <ele>1576</ele>
        <time>2026-05-07T12:41:40Z</time>
      </trkpt>
      <trkpt lat="44.91651" lon="4.17968">
        <ele>1575.9</ele>
        <time>2026-05-07T12:41:45Z</time>
      </trkpt>
      <trkpt lat="44.91647" lon="4.17963">
        <ele>1576</ele>
        <time>2026-05-07T12:41:50Z</time>
      </trkpt>
      <trkpt lat="44.91644" lon="4.17956">
        <ele>1575.9</ele>
        <time>2026-05-07T12:41:55Z</time>
      </trkpt>
      <trkpt lat="44.91642" lon="4.17951">
        <ele>1575.8</ele>
        <time>2026-05-07T12:42:00Z</time>
      </trkpt>
      <trkpt lat="44.91639" lon="4.17946">
        <ele>1575.7</ele>
        <time>2026-05-07T12:42:05Z</time>
      </trkpt>
      <trkpt lat="44.91636" lon="4.1794">
        <ele>1575.6</ele>
        <time>2026-05-07T12:42:10Z</time>
      </trkpt>
      <trkpt lat="44.91633" lon="4.17934">
        <ele>1575.5</ele>
        <time>2026-05-07T12:42:15Z</time>
      </trkpt>
      <trkpt lat="44.91632" lon="4.17931">
        <ele>1575.4</ele>
        <time>2026-05-07T12:42:20Z</time>
      </trkpt>
      <trkpt lat="44.9163" lon="4.17927">
        <ele>1575.3</ele>
        <time>2026-05-07T12:42:25Z</time>
      </trkpt>
      <trkpt lat="44.91627" lon="4.17922">
        <ele>1575.2</ele>
        <time>2026-05-07T12:42:30Z</time>
      </trkpt>
      <trkpt lat="44.91625" lon="4.17917">
        <ele>1575</ele>
        <time>2026-05-07T12:42:35Z</time>
      </trkpt>
      <trkpt lat="44.91623" lon="4.17911">
        <ele>1574.7</ele>
        <time>2026-05-07T12:42:40Z</time>
      </trkpt>
      <trkpt lat="44.91621" lon="4.17907">
        <ele>1574.5</ele>
        <time>2026-05-07T12:42:45Z</time>
      </trkpt>
      <trkpt lat="44.91619" lon="4.17902">
        <ele>1574.3</ele>
        <time>2026-05-07T12:42:50Z</time>
      </trkpt>
      <trkpt lat="44.91618" lon="4.17895">
        <ele>1573.8</ele>
        <time>2026-05-07T12:42:55Z</time>
      </trkpt>
      <trkpt lat="44.91616" lon="4.17888">
        <ele>1573.4</ele>
        <time>2026-05-07T12:43:00Z</time>
      </trkpt>
      <trkpt lat="44.91614" lon="4.1788">
        <ele>1572.9</ele>
        <time>2026-05-07T12:43:05Z</time>
      </trkpt>
      <trkpt lat="44.9161" lon="4.17875">
        <ele>1572.7</ele>
        <time>2026-05-07T12:43:10Z</time>
      </trkpt>
      <trkpt lat="44.91605" lon="4.17873">
        <ele>1572.7</ele>
        <time>2026-05-07T12:43:15Z</time>
      </trkpt>
      <trkpt lat="44.91599" lon="4.17871">
        <ele>1572.7</ele>
        <time>2026-05-07T12:43:20Z</time>
      </trkpt>
      <trkpt lat="44.91597" lon="4.17874">
        <ele>1573</ele>
        <time>2026-05-07T12:43:25Z</time>
      </trkpt>
      <trkpt lat="44.91597" lon="4.17878">
        <ele>1573.3</ele>
        <time>2026-05-07T12:43:30Z</time>
      </trkpt>
      <trkpt lat="44.91597" lon="4.17879">
        <ele>1573.4</ele>
        <time>2026-05-07T12:43:35Z</time>
      </trkpt>
      <trkpt lat="44.91597" lon="4.17879">
        <ele>1573.4</ele>
        <time>2026-05-07T12:43:40Z</time>
      </trkpt>
      <trkpt lat="44.91597" lon="4.17879">
        <ele>1573.4</ele>
        <time>2026-05-07T12:43:45Z</time>
      </trkpt>
      <trkpt lat="44.91597" lon="4.17879">
        <ele>1573.4</ele>
        <time>2026-05-07T12:43:50Z</time>
      </trkpt>
      <trkpt lat="44.91597" lon="4.17879">
        <ele>1573.4</ele>
        <time>2026-05-07T12:43:55Z</time>
      </trkpt>
      <trkpt lat="44.91597" lon="4.17879">
        <ele>1573.4</ele>
        <time>2026-05-07T12:44:00Z</time>
      </trkpt>
      <trkpt lat="44.91597" lon="4.17879">
        <ele>1573.4</ele>
        <time>2026-05-07T12:44:05Z</time>
      </trkpt>
      <trkpt lat="44.91605" lon="4.17866">
        <ele>1572.2</ele>
        <time>2026-05-07T12:44:10Z</time>
      </trkpt>
      <trkpt lat="44.91605" lon="4.17864">
        <ele>1572</ele>
        <time>2026-05-07T12:44:15Z</time>
      </trkpt>
      <trkpt lat="44.91604" lon="4.17858">
        <ele>1571.6</ele>
        <time>2026-05-07T12:44:20Z</time>
      </trkpt>
      <trkpt lat="44.91601" lon="4.1785">
        <ele>1571.1</ele>
        <time>2026-05-07T12:44:25Z</time>
      </trkpt>
      <trkpt lat="44.91599" lon="4.17842">
        <ele>1570.5</ele>
        <time>2026-05-07T12:44:30Z</time>
      </trkpt>
      <trkpt lat="44.91597" lon="4.17833">
        <ele>1569.8</ele>
        <time>2026-05-07T12:44:35Z</time>
      </trkpt>
      <trkpt lat="44.91595" lon="4.17824">
        <ele>1568.9</ele>
        <time>2026-05-07T12:44:40Z</time>
      </trkpt>
      <trkpt lat="44.91592" lon="4.17815">
        <ele>1568</ele>
        <time>2026-05-07T12:44:45Z</time>
      </trkpt>
      <trkpt lat="44.9159" lon="4.17806">
        <ele>1567.1</ele>
        <time>2026-05-07T12:44:50Z</time>
      </trkpt>
      <trkpt lat="44.91587" lon="4.17796">
        <ele>1566</ele>
        <time>2026-05-07T12:44:55Z</time>
      </trkpt>
      <trkpt lat="44.91588" lon="4.17791">
        <ele>1565.5</ele>
        <time>2026-05-07T12:45:00Z</time>
      </trkpt>
      <trkpt lat="44.91593" lon="4.17787">
        <ele>1565.1</ele>
        <time>2026-05-07T12:45:05Z</time>
      </trkpt>
      <trkpt lat="44.91592" lon="4.17778">
        <ele>1564.2</ele>
        <time>2026-05-07T12:45:10Z</time>
      </trkpt>
      <trkpt lat="44.9159" lon="4.17771">
        <ele>1563.4</ele>
        <time>2026-05-07T12:45:15Z</time>
      </trkpt>
      <trkpt lat="44.91587" lon="4.17763">
        <ele>1562.5</ele>
        <time>2026-05-07T12:45:20Z</time>
      </trkpt>
      <trkpt lat="44.91585" lon="4.17756">
        <ele>1561.7</ele>
        <time>2026-05-07T12:45:25Z</time>
      </trkpt>
      <trkpt lat="44.91582" lon="4.17744">
        <ele>1560.3</ele>
        <time>2026-05-07T12:45:30Z</time>
      </trkpt>
      <trkpt lat="44.91581" lon="4.17733">
        <ele>1559.1</ele>
        <time>2026-05-07T12:45:35Z</time>
      </trkpt>
      <trkpt lat="44.91581" lon="4.17725">
        <ele>1558.4</ele>
        <time>2026-05-07T12:45:40Z</time>
      </trkpt>
      <trkpt lat="44.91579" lon="4.17715">
        <ele>1557.2</ele>
        <time>2026-05-07T12:45:45Z</time>
      </trkpt>
      <trkpt lat="44.91577" lon="4.17704">
        <ele>1555.9</ele>
        <time>2026-05-07T12:45:50Z</time>
      </trkpt>
      <trkpt lat="44.91575" lon="4.17694">
        <ele>1554.6</ele>
        <time>2026-05-07T12:45:55Z</time>
      </trkpt>
      <trkpt lat="44.91574" lon="4.17685">
        <ele>1553.6</ele>
        <time>2026-05-07T12:46:00Z</time>
      </trkpt>
      <trkpt lat="44.91574" lon="4.17677">
        <ele>1552.8</ele>
        <time>2026-05-07T12:46:05Z</time>
      </trkpt>
      <trkpt lat="44.91571" lon="4.17667">
        <ele>1551.4</ele>
        <time>2026-05-07T12:46:10Z</time>
      </trkpt>
      <trkpt lat="44.91568" lon="4.17656">
        <ele>1550.3</ele>
        <time>2026-05-07T12:46:15Z</time>
      </trkpt>
      <trkpt lat="44.91566" lon="4.17645">
        <ele>1549.4</ele>
        <time>2026-05-07T12:46:20Z</time>
      </trkpt>
      <trkpt lat="44.91565" lon="4.17638">
        <ele>1548.9</ele>
        <time>2026-05-07T12:46:25Z</time>
      </trkpt>
      <trkpt lat="44.91563" lon="4.1763">
        <ele>1548.1</ele>
        <time>2026-05-07T12:46:30Z</time>
      </trkpt>
      <trkpt lat="44.91561" lon="4.17618">
        <ele>1547.1</ele>
        <time>2026-05-07T12:46:35Z</time>
      </trkpt>
      <trkpt lat="44.91559" lon="4.17612">
        <ele>1546.5</ele>
        <time>2026-05-07T12:46:40Z</time>
      </trkpt>
      <trkpt lat="44.91558" lon="4.17607">
        <ele>1546.1</ele>
        <time>2026-05-07T12:46:45Z</time>
      </trkpt>
      <trkpt lat="44.91554" lon="4.17596">
        <ele>1544.9</ele>
        <time>2026-05-07T12:46:50Z</time>
      </trkpt>
      <trkpt lat="44.91553" lon="4.17588">
        <ele>1544.3</ele>
        <time>2026-05-07T12:46:55Z</time>
      </trkpt>
      <trkpt lat="44.91551" lon="4.17582">
        <ele>1543.7</ele>
        <time>2026-05-07T12:47:00Z</time>
      </trkpt>
      <trkpt lat="44.91549" lon="4.1758">
        <ele>1543.4</ele>
        <time>2026-05-07T12:47:05Z</time>
      </trkpt>
      <trkpt lat="44.91549" lon="4.1758">
        <ele>1543.4</ele>
        <time>2026-05-07T12:47:10Z</time>
      </trkpt>
      <trkpt lat="44.91547" lon="4.17572">
        <ele>1543.1</ele>
        <time>2026-05-07T12:47:15Z</time>
      </trkpt>
      <trkpt lat="44.91545" lon="4.17564">
        <ele>1542.7</ele>
        <time>2026-05-07T12:47:20Z</time>
      </trkpt>
      <trkpt lat="44.91542" lon="4.17557">
        <ele>1542.2</ele>
        <time>2026-05-07T12:47:25Z</time>
      </trkpt>
      <trkpt lat="44.91539" lon="4.17549">
        <ele>1541.7</ele>
        <time>2026-05-07T12:47:30Z</time>
      </trkpt>
      <trkpt lat="44.91538" lon="4.17541">
        <ele>1541.5</ele>
        <time>2026-05-07T12:47:35Z</time>
      </trkpt>
      <trkpt lat="44.91536" lon="4.17531">
        <ele>1541</ele>
        <time>2026-05-07T12:47:40Z</time>
      </trkpt>
      <trkpt lat="44.91535" lon="4.17524">
        <ele>1540.8</ele>
        <time>2026-05-07T12:47:45Z</time>
      </trkpt>
      <trkpt lat="44.91535" lon="4.17516">
        <ele>1540.7</ele>
        <time>2026-05-07T12:47:50Z</time>
      </trkpt>
      <trkpt lat="44.91534" lon="4.17508">
        <ele>1540.4</ele>
        <time>2026-05-07T12:47:55Z</time>
      </trkpt>
      <trkpt lat="44.91532" lon="4.17502">
        <ele>1540</ele>
        <time>2026-05-07T12:48:00Z</time>
      </trkpt>
      <trkpt lat="44.91529" lon="4.17494">
        <ele>1539.5</ele>
        <time>2026-05-07T12:48:05Z</time>
      </trkpt>
      <trkpt lat="44.91526" lon="4.17486">
        <ele>1538.9</ele>
        <time>2026-05-07T12:48:10Z</time>
      </trkpt>
      <trkpt lat="44.91525" lon="4.17477">
        <ele>1538.7</ele>
        <time>2026-05-07T12:48:15Z</time>
      </trkpt>
      <trkpt lat="44.91522" lon="4.17468">
        <ele>1538.1</ele>
        <time>2026-05-07T12:48:20Z</time>
      </trkpt>
      <trkpt lat="44.91519" lon="4.17461">
        <ele>1537.6</ele>
        <time>2026-05-07T12:48:25Z</time>
      </trkpt>
      <trkpt lat="44.91518" lon="4.17453">
        <ele>1537.4</ele>
        <time>2026-05-07T12:48:30Z</time>
      </trkpt>
      <trkpt lat="44.91519" lon="4.17444">
        <ele>1537.4</ele>
        <time>2026-05-07T12:48:35Z</time>
      </trkpt>
      <trkpt lat="44.91515" lon="4.17436">
        <ele>1536.7</ele>
        <time>2026-05-07T12:48:40Z</time>
      </trkpt>
      <trkpt lat="44.91513" lon="4.17427">
        <ele>1536.3</ele>
        <time>2026-05-07T12:48:45Z</time>
      </trkpt>
      <trkpt lat="44.9151" lon="4.17416">
        <ele>1535.7</ele>
        <time>2026-05-07T12:48:50Z</time>
      </trkpt>
      <trkpt lat="44.91507" lon="4.17406">
        <ele>1534.9</ele>
        <time>2026-05-07T12:48:55Z</time>
      </trkpt>
      <trkpt lat="44.91505" lon="4.17398">
        <ele>1534.4</ele>
        <time>2026-05-07T12:49:00Z</time>
      </trkpt>
      <trkpt lat="44.91502" lon="4.17389">
        <ele>1533.7</ele>
        <time>2026-05-07T12:49:05Z</time>
      </trkpt>
      <trkpt lat="44.91504" lon="4.17379">
        <ele>1533.8</ele>
        <time>2026-05-07T12:49:10Z</time>
      </trkpt>
      <trkpt lat="44.91502" lon="4.1737">
        <ele>1533.2</ele>
        <time>2026-05-07T12:49:15Z</time>
      </trkpt>
      <trkpt lat="44.91499" lon="4.1736">
        <ele>1532.5</ele>
        <time>2026-05-07T12:49:20Z</time>
      </trkpt>
      <trkpt lat="44.91497" lon="4.17349">
        <ele>1531.9</ele>
        <time>2026-05-07T12:49:25Z</time>
      </trkpt>
      <trkpt lat="44.91496" lon="4.1734">
        <ele>1531.5</ele>
        <time>2026-05-07T12:49:30Z</time>
      </trkpt>
      <trkpt lat="44.91493" lon="4.17329">
        <ele>1530.8</ele>
        <time>2026-05-07T12:49:35Z</time>
      </trkpt>
      <trkpt lat="44.91493" lon="4.17319">
        <ele>1530.6</ele>
        <time>2026-05-07T12:49:40Z</time>
      </trkpt>
      <trkpt lat="44.9149" lon="4.17304">
        <ele>1529.8</ele>
        <time>2026-05-07T12:49:45Z</time>
      </trkpt>
      <trkpt lat="44.91489" lon="4.17293">
        <ele>1529.4</ele>
        <time>2026-05-07T12:49:50Z</time>
      </trkpt>
      <trkpt lat="44.91488" lon="4.17284">
        <ele>1529</ele>
        <time>2026-05-07T12:49:55Z</time>
      </trkpt>
      <trkpt lat="44.91487" lon="4.17274">
        <ele>1528.7</ele>
        <time>2026-05-07T12:50:00Z</time>
      </trkpt>
      <trkpt lat="44.91486" lon="4.17262">
        <ele>1528.2</ele>
        <time>2026-05-07T12:50:05Z</time>
      </trkpt>
      <trkpt lat="44.91486" lon="4.1725">
        <ele>1528</ele>
        <time>2026-05-07T12:50:10Z</time>
      </trkpt>
      <trkpt lat="44.91487" lon="4.1724">
        <ele>1527.9</ele>
        <time>2026-05-07T12:50:15Z</time>
      </trkpt>
      <trkpt lat="44.91486" lon="4.17228">
        <ele>1527.5</ele>
        <time>2026-05-07T12:50:20Z</time>
      </trkpt>
      <trkpt lat="44.91486" lon="4.17215">
        <ele>1527.2</ele>
        <time>2026-05-07T12:50:25Z</time>
      </trkpt>
      <trkpt lat="44.91488" lon="4.17205">
        <ele>1527.3</ele>
        <time>2026-05-07T12:50:30Z</time>
      </trkpt>
      <trkpt lat="44.91486" lon="4.17194">
        <ele>1526.8</ele>
        <time>2026-05-07T12:50:35Z</time>
      </trkpt>
      <trkpt lat="44.91485" lon="4.17183">
        <ele>1526.4</ele>
        <time>2026-05-07T12:50:40Z</time>
      </trkpt>
      <trkpt lat="44.91484" lon="4.17171">
        <ele>1526</ele>
        <time>2026-05-07T12:50:45Z</time>
      </trkpt>
      <trkpt lat="44.91482" lon="4.1716">
        <ele>1525.7</ele>
        <time>2026-05-07T12:50:50Z</time>
      </trkpt>
      <trkpt lat="44.91482" lon="4.17148">
        <ele>1525.8</ele>
        <time>2026-05-07T12:50:55Z</time>
      </trkpt>
      <trkpt lat="44.91483" lon="4.17138">
        <ele>1526.1</ele>
        <time>2026-05-07T12:51:00Z</time>
      </trkpt>
      <trkpt lat="44.91483" lon="4.1713">
        <ele>1526.2</ele>
        <time>2026-05-07T12:51:05Z</time>
      </trkpt>
      <trkpt lat="44.91482" lon="4.17121">
        <ele>1526.1</ele>
        <time>2026-05-07T12:51:10Z</time>
      </trkpt>
      <trkpt lat="44.91482" lon="4.17111">
        <ele>1526.2</ele>
        <time>2026-05-07T12:51:15Z</time>
      </trkpt>
      <trkpt lat="44.91482" lon="4.17102">
        <ele>1526.3</ele>
        <time>2026-05-07T12:51:20Z</time>
      </trkpt>
      <trkpt lat="44.91481" lon="4.17094">
        <ele>1526.2</ele>
        <time>2026-05-07T12:51:25Z</time>
      </trkpt>
      <trkpt lat="44.91479" lon="4.17084">
        <ele>1526</ele>
        <time>2026-05-07T12:51:30Z</time>
      </trkpt>
      <trkpt lat="44.91477" lon="4.1707">
        <ele>1525.7</ele>
        <time>2026-05-07T12:51:35Z</time>
      </trkpt>
      <trkpt lat="44.91478" lon="4.17061">
        <ele>1526</ele>
        <time>2026-05-07T12:51:40Z</time>
      </trkpt>
      <trkpt lat="44.91478" lon="4.17053">
        <ele>1526.1</ele>
        <time>2026-05-07T12:51:45Z</time>
      </trkpt>
      <trkpt lat="44.91475" lon="4.17043">
        <ele>1525.7</ele>
        <time>2026-05-07T12:51:50Z</time>
      </trkpt>
      <trkpt lat="44.91472" lon="4.1703">
        <ele>1525.3</ele>
        <time>2026-05-07T12:51:55Z</time>
      </trkpt>
      <trkpt lat="44.91472" lon="4.1702">
        <ele>1525.4</ele>
        <time>2026-05-07T12:52:00Z</time>
      </trkpt>
      <trkpt lat="44.9147" lon="4.17011">
        <ele>1525.1</ele>
        <time>2026-05-07T12:52:05Z</time>
      </trkpt>
      <trkpt lat="44.91468" lon="4.17">
        <ele>1524.9</ele>
        <time>2026-05-07T12:52:10Z</time>
      </trkpt>
      <trkpt lat="44.91467" lon="4.16992">
        <ele>1524.7</ele>
        <time>2026-05-07T12:52:15Z</time>
      </trkpt>
      <trkpt lat="44.91466" lon="4.16982">
        <ele>1524.6</ele>
        <time>2026-05-07T12:52:20Z</time>
      </trkpt>
      <trkpt lat="44.91463" lon="4.16971">
        <ele>1524.1</ele>
        <time>2026-05-07T12:52:25Z</time>
      </trkpt>
      <trkpt lat="44.91461" lon="4.1696">
        <ele>1523.7</ele>
        <time>2026-05-07T12:52:30Z</time>
      </trkpt>
      <trkpt lat="44.91459" lon="4.1695">
        <ele>1523.4</ele>
        <time>2026-05-07T12:52:35Z</time>
      </trkpt>
      <trkpt lat="44.91458" lon="4.1694">
        <ele>1523.3</ele>
        <time>2026-05-07T12:52:40Z</time>
      </trkpt>
      <trkpt lat="44.91456" lon="4.1693">
        <ele>1523</ele>
        <time>2026-05-07T12:52:45Z</time>
      </trkpt>
      <trkpt lat="44.91455" lon="4.16919">
        <ele>1522.9</ele>
        <time>2026-05-07T12:52:50Z</time>
      </trkpt>
      <trkpt lat="44.91452" lon="4.16908">
        <ele>1521.9</ele>
        <time>2026-05-07T12:52:55Z</time>
      </trkpt>
      <trkpt lat="44.91452" lon="4.16897">
        <ele>1521.2</ele>
        <time>2026-05-07T12:53:00Z</time>
      </trkpt>
      <trkpt lat="44.9145" lon="4.16889">
        <ele>1520.4</ele>
        <time>2026-05-07T12:53:05Z</time>
      </trkpt>
      <trkpt lat="44.91447" lon="4.1688">
        <ele>1519.4</ele>
        <time>2026-05-07T12:53:10Z</time>
      </trkpt>
      <trkpt lat="44.91446" lon="4.16871">
        <ele>1518.7</ele>
        <time>2026-05-07T12:53:15Z</time>
      </trkpt>
      <trkpt lat="44.91443" lon="4.16858">
        <ele>1517.5</ele>
        <time>2026-05-07T12:53:20Z</time>
      </trkpt>
      <trkpt lat="44.91441" lon="4.16848">
        <ele>1516.6</ele>
        <time>2026-05-07T12:53:25Z</time>
      </trkpt>
      <trkpt lat="44.91438" lon="4.16838">
        <ele>1515.6</ele>
        <time>2026-05-07T12:53:30Z</time>
      </trkpt>
      <trkpt lat="44.91438" lon="4.1683">
        <ele>1515.1</ele>
        <time>2026-05-07T12:53:35Z</time>
      </trkpt>
      <trkpt lat="44.91435" lon="4.16822">
        <ele>1514</ele>
        <time>2026-05-07T12:53:40Z</time>
      </trkpt>
      <trkpt lat="44.91433" lon="4.16813">
        <ele>1513.1</ele>
        <time>2026-05-07T12:53:45Z</time>
      </trkpt>
      <trkpt lat="44.91431" lon="4.16804">
        <ele>1512.1</ele>
        <time>2026-05-07T12:53:50Z</time>
      </trkpt>
      <trkpt lat="44.9143" lon="4.16798">
        <ele>1511.5</ele>
        <time>2026-05-07T12:53:55Z</time>
      </trkpt>
      <trkpt lat="44.91427" lon="4.168">
        <ele>1511.2</ele>
        <time>2026-05-07T12:54:00Z</time>
      </trkpt>
      <trkpt lat="44.91422" lon="4.16803">
        <ele>1510.6</ele>
        <time>2026-05-07T12:54:05Z</time>
      </trkpt>
      <trkpt lat="44.91416" lon="4.16806">
        <ele>1510</ele>
        <time>2026-05-07T12:54:10Z</time>
      </trkpt>
      <trkpt lat="44.91409" lon="4.16806">
        <ele>1509.3</ele>
        <time>2026-05-07T12:54:15Z</time>
      </trkpt>
      <trkpt lat="44.91404" lon="4.16801">
        <ele>1508.4</ele>
        <time>2026-05-07T12:54:20Z</time>
      </trkpt>
      <trkpt lat="44.91403" lon="4.16793">
        <ele>1507.8</ele>
        <time>2026-05-07T12:54:25Z</time>
      </trkpt>
      <trkpt lat="44.91401" lon="4.16789">
        <ele>1507.3</ele>
        <time>2026-05-07T12:54:30Z</time>
      </trkpt>
      <trkpt lat="44.914" lon="4.16785">
        <ele>1507</ele>
        <time>2026-05-07T12:54:35Z</time>
      </trkpt>
    </trkseg>
  </trk>
</gpx>